<?xml version="1.0" encoding="UTF-8"?>
<gpx version="1.1" creator="https://www.youtrack.es" xsi:schemaLocation="http://www.topografix.com/GPX/1/1 http://www.topografix.com/GPX/1/1/gpx.xsd http://www.garmin.com/xmlschemas/GpxExtensions/v3 http://www.garmin.com/xmlschemas/GpxExtensionsv3.xsd http://www.garmin.com/xmlschemas/TrackPointExtension/v1 http://www.garmin.com/xmlschemas/TrackPointExtensionv1.xsd" xmlns:gpxtpx="http://www.garmin.com/xmlschemas/TrackPointExtension/v1" xmlns:gpxx="http://www.garmin.com/xmlschemas/GpxExtensions/v3" xmlns:xsi="http://www.w3.org/2001/XMLSchema-instance">
  <metadata>
    <link href="https://www.youtrack.es">
      <text>YouTrack.es</text>
    </link>
    <time>2026-05-09T02:40:01Z</time>
  </metadata>
  <trk>
    <src>https://www.youtrack.es</src>
    <link href="https://www.youtrack.es/ruta/7578-radtour2019a">
      <text>YouTrack.es</text>
    </link>
    <trkseg>
      <trkpt lat="48.7287350" lon="13.6071270">
        <ele>558.0</ele>
        <time>2019-08-06T14:14:24Z</time>
      </trkpt>
      <trkpt lat="48.7287350" lon="13.6071270">
        <ele>558.0</ele>
        <time>2019-08-06T14:14:25Z</time>
      </trkpt>
      <trkpt lat="48.7287350" lon="13.6071270">
        <ele>558.0</ele>
        <time>2019-08-06T14:14:26Z</time>
      </trkpt>
      <trkpt lat="48.7287350" lon="13.6071270">
        <ele>558.0</ele>
        <time>2019-08-06T14:14:27Z</time>
      </trkpt>
      <trkpt lat="48.7287350" lon="13.6071270">
        <ele>558.0</ele>
        <time>2019-08-06T14:14:28Z</time>
      </trkpt>
      <trkpt lat="48.7287350" lon="13.6071270">
        <ele>558.0</ele>
        <time>2019-08-06T14:14:29Z</time>
      </trkpt>
      <trkpt lat="48.7287350" lon="13.6071270">
        <ele>558.0</ele>
        <time>2019-08-06T14:14:30Z</time>
      </trkpt>
      <trkpt lat="48.7287350" lon="13.6071270">
        <ele>558.0</ele>
        <time>2019-08-06T14:14:31Z</time>
      </trkpt>
      <trkpt lat="48.7287350" lon="13.6071270">
        <ele>558.0</ele>
        <time>2019-08-06T14:14:32Z</time>
      </trkpt>
      <trkpt lat="48.7287350" lon="13.6071270">
        <ele>558.0</ele>
        <time>2019-08-06T14:14:33Z</time>
      </trkpt>
      <trkpt lat="48.7287350" lon="13.6071270">
        <ele>558.0</ele>
        <time>2019-08-06T14:14:34Z</time>
      </trkpt>
      <trkpt lat="48.7287350" lon="13.6071270">
        <ele>558.0</ele>
        <time>2019-08-06T14:14:35Z</time>
      </trkpt>
      <trkpt lat="48.7287350" lon="13.6071270">
        <ele>558.0</ele>
        <time>2019-08-06T14:14:36Z</time>
      </trkpt>
      <trkpt lat="48.7287350" lon="13.6071270">
        <ele>558.0</ele>
        <time>2019-08-06T14:14:37Z</time>
      </trkpt>
      <trkpt lat="48.7287350" lon="13.6071270">
        <ele>558.0</ele>
        <time>2019-08-06T14:14:38Z</time>
      </trkpt>
      <trkpt lat="48.7287350" lon="13.6071270">
        <ele>558.0</ele>
        <time>2019-08-06T14:14:39Z</time>
      </trkpt>
      <trkpt lat="48.7287350" lon="13.6071270">
        <ele>558.0</ele>
        <time>2019-08-06T14:14:40Z</time>
      </trkpt>
      <trkpt lat="48.7287350" lon="13.6071270">
        <ele>558.0</ele>
        <time>2019-08-06T14:14:41Z</time>
      </trkpt>
      <trkpt lat="48.7287350" lon="13.6071270">
        <ele>558.0</ele>
        <time>2019-08-06T14:14:42Z</time>
      </trkpt>
      <trkpt lat="48.7287350" lon="13.6071270">
        <ele>558.0</ele>
        <time>2019-08-06T14:14:43Z</time>
      </trkpt>
      <trkpt lat="48.7287350" lon="13.6071270">
        <ele>558.0</ele>
        <time>2019-08-06T14:14:44Z</time>
      </trkpt>
      <trkpt lat="48.7287350" lon="13.6071270">
        <ele>558.0</ele>
        <time>2019-08-06T14:14:45Z</time>
      </trkpt>
      <trkpt lat="48.7287350" lon="13.6071270">
        <ele>558.0</ele>
        <time>2019-08-06T14:14:46Z</time>
      </trkpt>
      <trkpt lat="48.7287350" lon="13.6071270">
        <ele>558.0</ele>
        <time>2019-08-06T14:14:47Z</time>
      </trkpt>
      <trkpt lat="48.7287350" lon="13.6071270">
        <ele>558.0</ele>
        <time>2019-08-06T14:14:48Z</time>
      </trkpt>
      <trkpt lat="48.7287350" lon="13.6071270">
        <ele>558.0</ele>
        <time>2019-08-06T14:14:49Z</time>
      </trkpt>
      <trkpt lat="48.7287350" lon="13.6071270">
        <ele>558.0</ele>
        <time>2019-08-06T14:14:50Z</time>
      </trkpt>
      <trkpt lat="48.7287350" lon="13.6071270">
        <ele>558.0</ele>
        <time>2019-08-06T14:14:51Z</time>
      </trkpt>
      <trkpt lat="48.7287350" lon="13.6071270">
        <ele>558.0</ele>
        <time>2019-08-06T14:14:52Z</time>
      </trkpt>
      <trkpt lat="48.7287350" lon="13.6071270">
        <ele>558.0</ele>
        <time>2019-08-06T14:14:53Z</time>
      </trkpt>
      <trkpt lat="48.7287350" lon="13.6071270">
        <ele>558.0</ele>
        <time>2019-08-06T14:14:54Z</time>
      </trkpt>
      <trkpt lat="48.7287350" lon="13.6071270">
        <ele>558.0</ele>
        <time>2019-08-06T14:14:55Z</time>
      </trkpt>
      <trkpt lat="48.7287350" lon="13.6071270">
        <ele>558.0</ele>
        <time>2019-08-06T14:14:56Z</time>
      </trkpt>
      <trkpt lat="48.7287400" lon="13.6071220">
        <ele>558.0</ele>
        <time>2019-08-06T14:14:57Z</time>
      </trkpt>
      <trkpt lat="48.7287550" lon="13.6071100">
        <ele>558.0</ele>
        <time>2019-08-06T14:14:58Z</time>
      </trkpt>
      <trkpt lat="48.7287650" lon="13.6071040">
        <ele>558.0</ele>
        <time>2019-08-06T14:14:59Z</time>
      </trkpt>
      <trkpt lat="48.7287760" lon="13.6070940">
        <ele>558.0</ele>
        <time>2019-08-06T14:15:00Z</time>
      </trkpt>
      <trkpt lat="48.7287860" lon="13.6070760">
        <ele>558.0</ele>
        <time>2019-08-06T14:15:01Z</time>
      </trkpt>
      <trkpt lat="48.7287960" lon="13.6070490">
        <ele>558.0</ele>
        <time>2019-08-06T14:15:02Z</time>
      </trkpt>
      <trkpt lat="48.7288050" lon="13.6070140">
        <ele>558.0</ele>
        <time>2019-08-06T14:15:03Z</time>
      </trkpt>
      <trkpt lat="48.7288130" lon="13.6069720">
        <ele>558.0</ele>
        <time>2019-08-06T14:15:04Z</time>
      </trkpt>
      <trkpt lat="48.7288210" lon="13.6069250">
        <ele>558.0</ele>
        <time>2019-08-06T14:15:05Z</time>
      </trkpt>
      <trkpt lat="48.7288290" lon="13.6068730">
        <ele>557.8</ele>
        <time>2019-08-06T14:15:06Z</time>
      </trkpt>
      <trkpt lat="48.7288370" lon="13.6068160">
        <ele>557.8</ele>
        <time>2019-08-06T14:15:07Z</time>
      </trkpt>
      <trkpt lat="48.7288440" lon="13.6067530">
        <ele>557.8</ele>
        <time>2019-08-06T14:15:08Z</time>
      </trkpt>
      <trkpt lat="48.7288540" lon="13.6066860">
        <ele>557.8</ele>
        <time>2019-08-06T14:15:09Z</time>
      </trkpt>
      <trkpt lat="48.7288650" lon="13.6066200">
        <ele>557.6</ele>
        <time>2019-08-06T14:15:10Z</time>
      </trkpt>
      <trkpt lat="48.7288740" lon="13.6065570">
        <ele>557.8</ele>
        <time>2019-08-06T14:15:11Z</time>
      </trkpt>
      <trkpt lat="48.7288810" lon="13.6064980">
        <ele>557.8</ele>
        <time>2019-08-06T14:15:12Z</time>
      </trkpt>
      <trkpt lat="48.7288870" lon="13.6064410">
        <ele>557.6</ele>
        <time>2019-08-06T14:15:13Z</time>
      </trkpt>
      <trkpt lat="48.7288940" lon="13.6063860">
        <ele>557.6</ele>
        <time>2019-08-06T14:15:14Z</time>
      </trkpt>
      <trkpt lat="48.7289030" lon="13.6063300">
        <ele>557.6</ele>
        <time>2019-08-06T14:15:15Z</time>
      </trkpt>
      <trkpt lat="48.7289130" lon="13.6062740">
        <ele>557.4</ele>
        <time>2019-08-06T14:15:16Z</time>
      </trkpt>
      <trkpt lat="48.7289230" lon="13.6062170">
        <ele>557.4</ele>
        <time>2019-08-06T14:15:17Z</time>
      </trkpt>
      <trkpt lat="48.7289330" lon="13.6061590">
        <ele>557.6</ele>
        <time>2019-08-06T14:15:18Z</time>
      </trkpt>
      <trkpt lat="48.7289410" lon="13.6061010">
        <ele>557.6</ele>
        <time>2019-08-06T14:15:19Z</time>
      </trkpt>
      <trkpt lat="48.7289500" lon="13.6060450">
        <ele>557.6</ele>
        <time>2019-08-06T14:15:20Z</time>
      </trkpt>
      <trkpt lat="48.7289590" lon="13.6059930">
        <ele>557.4</ele>
        <time>2019-08-06T14:15:21Z</time>
      </trkpt>
      <trkpt lat="48.7289680" lon="13.6059470">
        <ele>557.4</ele>
        <time>2019-08-06T14:15:22Z</time>
      </trkpt>
      <trkpt lat="48.7289820" lon="13.6059120">
        <ele>557.4</ele>
        <time>2019-08-06T14:15:23Z</time>
      </trkpt>
      <trkpt lat="48.7290010" lon="13.6058860">
        <ele>557.4</ele>
        <time>2019-08-06T14:15:24Z</time>
      </trkpt>
      <trkpt lat="48.7290220" lon="13.6058670">
        <ele>557.2</ele>
        <time>2019-08-06T14:15:25Z</time>
      </trkpt>
      <trkpt lat="48.7290480" lon="13.6058520">
        <ele>557.2</ele>
        <time>2019-08-06T14:15:26Z</time>
      </trkpt>
      <trkpt lat="48.7290760" lon="13.6058420">
        <ele>557.0</ele>
        <time>2019-08-06T14:15:27Z</time>
      </trkpt>
      <trkpt lat="48.7291080" lon="13.6058320">
        <ele>557.0</ele>
        <time>2019-08-06T14:15:28Z</time>
      </trkpt>
      <trkpt lat="48.7291450" lon="13.6058240">
        <ele>556.8</ele>
        <time>2019-08-06T14:15:29Z</time>
      </trkpt>
      <trkpt lat="48.7291840" lon="13.6058140">
        <ele>556.8</ele>
        <time>2019-08-06T14:15:30Z</time>
      </trkpt>
      <trkpt lat="48.7292270" lon="13.6058040">
        <ele>556.6</ele>
        <time>2019-08-06T14:15:31Z</time>
      </trkpt>
      <trkpt lat="48.7292700" lon="13.6057940">
        <ele>556.4</ele>
        <time>2019-08-06T14:15:32Z</time>
      </trkpt>
      <trkpt lat="48.7293150" lon="13.6057840">
        <ele>556.4</ele>
        <time>2019-08-06T14:15:33Z</time>
      </trkpt>
      <trkpt lat="48.7293600" lon="13.6057740">
        <ele>556.4</ele>
        <time>2019-08-06T14:15:34Z</time>
      </trkpt>
      <trkpt lat="48.7294060" lon="13.6057650">
        <ele>556.2</ele>
        <time>2019-08-06T14:15:35Z</time>
      </trkpt>
      <trkpt lat="48.7294520" lon="13.6057530">
        <ele>556.2</ele>
        <time>2019-08-06T14:15:36Z</time>
      </trkpt>
      <trkpt lat="48.7294970" lon="13.6057420">
        <ele>556.2</ele>
        <time>2019-08-06T14:15:37Z</time>
      </trkpt>
      <trkpt lat="48.7295440" lon="13.6057300">
        <ele>556.2</ele>
        <time>2019-08-06T14:15:38Z</time>
      </trkpt>
      <trkpt lat="48.7295910" lon="13.6057190">
        <ele>556.2</ele>
        <time>2019-08-06T14:15:39Z</time>
      </trkpt>
      <trkpt lat="48.7296380" lon="13.6057090">
        <ele>556.0</ele>
        <time>2019-08-06T14:15:40Z</time>
      </trkpt>
      <trkpt lat="48.7296830" lon="13.6057000">
        <ele>555.8</ele>
        <time>2019-08-06T14:15:41Z</time>
      </trkpt>
      <trkpt lat="48.7297260" lon="13.6056900">
        <ele>555.8</ele>
        <time>2019-08-06T14:15:42Z</time>
      </trkpt>
      <trkpt lat="48.7297660" lon="13.6056800">
        <ele>555.6</ele>
        <time>2019-08-06T14:15:43Z</time>
      </trkpt>
      <trkpt lat="48.7298050" lon="13.6056690">
        <ele>555.4</ele>
        <time>2019-08-06T14:15:44Z</time>
      </trkpt>
      <trkpt lat="48.7298420" lon="13.6056600">
        <ele>555.4</ele>
        <time>2019-08-06T14:15:45Z</time>
      </trkpt>
      <trkpt lat="48.7298760" lon="13.6056530">
        <ele>555.2</ele>
        <time>2019-08-06T14:15:46Z</time>
      </trkpt>
      <trkpt lat="48.7299100" lon="13.6056450">
        <ele>555.2</ele>
        <time>2019-08-06T14:15:47Z</time>
      </trkpt>
      <trkpt lat="48.7299410" lon="13.6056390">
        <ele>555.2</ele>
        <time>2019-08-06T14:15:48Z</time>
      </trkpt>
      <trkpt lat="48.7299720" lon="13.6056340">
        <ele>555.0</ele>
        <time>2019-08-06T14:15:49Z</time>
      </trkpt>
      <trkpt lat="48.7300020" lon="13.6056310">
        <ele>555.0</ele>
        <time>2019-08-06T14:15:50Z</time>
      </trkpt>
      <trkpt lat="48.7300300" lon="13.6056270">
        <ele>555.0</ele>
        <time>2019-08-06T14:15:51Z</time>
      </trkpt>
      <trkpt lat="48.7300570" lon="13.6056220">
        <ele>554.8</ele>
        <time>2019-08-06T14:15:52Z</time>
      </trkpt>
      <trkpt lat="48.7300830" lon="13.6056160">
        <ele>554.8</ele>
        <time>2019-08-06T14:15:53Z</time>
      </trkpt>
      <trkpt lat="48.7301070" lon="13.6056070">
        <ele>554.8</ele>
        <time>2019-08-06T14:15:54Z</time>
      </trkpt>
      <trkpt lat="48.7301280" lon="13.6055880">
        <ele>554.8</ele>
        <time>2019-08-06T14:15:55Z</time>
      </trkpt>
      <trkpt lat="48.7301470" lon="13.6055600">
        <ele>554.6</ele>
        <time>2019-08-06T14:15:56Z</time>
      </trkpt>
      <trkpt lat="48.7301650" lon="13.6055260">
        <ele>554.6</ele>
        <time>2019-08-06T14:15:57Z</time>
      </trkpt>
      <trkpt lat="48.7301820" lon="13.6054900">
        <ele>554.8</ele>
        <time>2019-08-06T14:15:58Z</time>
      </trkpt>
      <trkpt lat="48.7301990" lon="13.6054530">
        <ele>555.0</ele>
        <time>2019-08-06T14:15:59Z</time>
      </trkpt>
      <trkpt lat="48.7302160" lon="13.6054180">
        <ele>555.0</ele>
        <time>2019-08-06T14:16:00Z</time>
      </trkpt>
      <trkpt lat="48.7302320" lon="13.6053830">
        <ele>555.2</ele>
        <time>2019-08-06T14:16:01Z</time>
      </trkpt>
      <trkpt lat="48.7302470" lon="13.6053470">
        <ele>555.4</ele>
        <time>2019-08-06T14:16:02Z</time>
      </trkpt>
      <trkpt lat="48.7302600" lon="13.6053100">
        <ele>555.6</ele>
        <time>2019-08-06T14:16:03Z</time>
      </trkpt>
      <trkpt lat="48.7302680" lon="13.6052720">
        <ele>555.8</ele>
        <time>2019-08-06T14:16:04Z</time>
      </trkpt>
      <trkpt lat="48.7302730" lon="13.6052330">
        <ele>556.0</ele>
        <time>2019-08-06T14:16:05Z</time>
      </trkpt>
      <trkpt lat="48.7302750" lon="13.6051940">
        <ele>556.2</ele>
        <time>2019-08-06T14:16:06Z</time>
      </trkpt>
      <trkpt lat="48.7302770" lon="13.6051530">
        <ele>556.4</ele>
        <time>2019-08-06T14:16:07Z</time>
      </trkpt>
      <trkpt lat="48.7302770" lon="13.6051130">
        <ele>556.6</ele>
        <time>2019-08-06T14:16:08Z</time>
      </trkpt>
      <trkpt lat="48.7302760" lon="13.6050750">
        <ele>556.8</ele>
        <time>2019-08-06T14:16:09Z</time>
      </trkpt>
      <trkpt lat="48.7302720" lon="13.6050370">
        <ele>557.0</ele>
        <time>2019-08-06T14:16:10Z</time>
      </trkpt>
      <trkpt lat="48.7302710" lon="13.6050000">
        <ele>557.2</ele>
        <time>2019-08-06T14:16:11Z</time>
      </trkpt>
      <trkpt lat="48.7302720" lon="13.6049640">
        <ele>557.4</ele>
        <time>2019-08-06T14:16:12Z</time>
      </trkpt>
      <trkpt lat="48.7302720" lon="13.6049270">
        <ele>557.4</ele>
        <time>2019-08-06T14:16:13Z</time>
      </trkpt>
      <trkpt lat="48.7302740" lon="13.6048910">
        <ele>557.6</ele>
        <time>2019-08-06T14:16:14Z</time>
      </trkpt>
      <trkpt lat="48.7302780" lon="13.6048560">
        <ele>557.8</ele>
        <time>2019-08-06T14:16:15Z</time>
      </trkpt>
      <trkpt lat="48.7302850" lon="13.6048230">
        <ele>557.8</ele>
        <time>2019-08-06T14:16:16Z</time>
      </trkpt>
      <trkpt lat="48.7302950" lon="13.6047960">
        <ele>558.0</ele>
        <time>2019-08-06T14:16:17Z</time>
      </trkpt>
      <trkpt lat="48.7303050" lon="13.6047720">
        <ele>558.0</ele>
        <time>2019-08-06T14:16:18Z</time>
      </trkpt>
      <trkpt lat="48.7303150" lon="13.6047510">
        <ele>558.2</ele>
        <time>2019-08-06T14:16:19Z</time>
      </trkpt>
      <trkpt lat="48.7303270" lon="13.6047330">
        <ele>558.2</ele>
        <time>2019-08-06T14:16:20Z</time>
      </trkpt>
      <trkpt lat="48.7303380" lon="13.6047140">
        <ele>558.4</ele>
        <time>2019-08-06T14:16:21Z</time>
      </trkpt>
      <trkpt lat="48.7303500" lon="13.6046950">
        <ele>558.6</ele>
        <time>2019-08-06T14:16:22Z</time>
      </trkpt>
      <trkpt lat="48.7303630" lon="13.6046740">
        <ele>558.8</ele>
        <time>2019-08-06T14:16:23Z</time>
      </trkpt>
      <trkpt lat="48.7303780" lon="13.6046570">
        <ele>559.0</ele>
        <time>2019-08-06T14:16:24Z</time>
      </trkpt>
      <trkpt lat="48.7303920" lon="13.6046400">
        <ele>559.4</ele>
        <time>2019-08-06T14:16:25Z</time>
      </trkpt>
      <trkpt lat="48.7304030" lon="13.6046230">
        <ele>559.6</ele>
        <time>2019-08-06T14:16:26Z</time>
      </trkpt>
      <trkpt lat="48.7304130" lon="13.6046060">
        <ele>560.0</ele>
        <time>2019-08-06T14:16:27Z</time>
      </trkpt>
      <trkpt lat="48.7304230" lon="13.6045870">
        <ele>560.2</ele>
        <time>2019-08-06T14:16:28Z</time>
      </trkpt>
      <trkpt lat="48.7304310" lon="13.6045670">
        <ele>560.6</ele>
        <time>2019-08-06T14:16:29Z</time>
      </trkpt>
      <trkpt lat="48.7304390" lon="13.6045470">
        <ele>561.0</ele>
        <time>2019-08-06T14:16:30Z</time>
      </trkpt>
      <trkpt lat="48.7304470" lon="13.6045270">
        <ele>561.2</ele>
        <time>2019-08-06T14:16:31Z</time>
      </trkpt>
      <trkpt lat="48.7304530" lon="13.6045070">
        <ele>561.6</ele>
        <time>2019-08-06T14:16:32Z</time>
      </trkpt>
      <trkpt lat="48.7304600" lon="13.6044870">
        <ele>561.8</ele>
        <time>2019-08-06T14:16:33Z</time>
      </trkpt>
      <trkpt lat="48.7304690" lon="13.6044660">
        <ele>562.0</ele>
        <time>2019-08-06T14:16:34Z</time>
      </trkpt>
      <trkpt lat="48.7304760" lon="13.6044420">
        <ele>562.2</ele>
        <time>2019-08-06T14:16:35Z</time>
      </trkpt>
      <trkpt lat="48.7304840" lon="13.6044160">
        <ele>562.4</ele>
        <time>2019-08-06T14:16:36Z</time>
      </trkpt>
      <trkpt lat="48.7304920" lon="13.6043890">
        <ele>562.6</ele>
        <time>2019-08-06T14:16:37Z</time>
      </trkpt>
      <trkpt lat="48.7305010" lon="13.6043620">
        <ele>562.6</ele>
        <time>2019-08-06T14:16:38Z</time>
      </trkpt>
      <trkpt lat="48.7305090" lon="13.6043360">
        <ele>562.8</ele>
        <time>2019-08-06T14:16:39Z</time>
      </trkpt>
      <trkpt lat="48.7305140" lon="13.6043030">
        <ele>562.8</ele>
        <time>2019-08-06T14:16:40Z</time>
      </trkpt>
      <trkpt lat="48.7305180" lon="13.6042700">
        <ele>562.8</ele>
        <time>2019-08-06T14:16:41Z</time>
      </trkpt>
      <trkpt lat="48.7305210" lon="13.6042400">
        <ele>563.0</ele>
        <time>2019-08-06T14:16:42Z</time>
      </trkpt>
      <trkpt lat="48.7305250" lon="13.6042100">
        <ele>563.0</ele>
        <time>2019-08-06T14:16:43Z</time>
      </trkpt>
      <trkpt lat="48.7305300" lon="13.6041730">
        <ele>563.0</ele>
        <time>2019-08-06T14:16:44Z</time>
      </trkpt>
      <trkpt lat="48.7305340" lon="13.6041310">
        <ele>563.2</ele>
        <time>2019-08-06T14:16:45Z</time>
      </trkpt>
      <trkpt lat="48.7305370" lon="13.6040880">
        <ele>563.2</ele>
        <time>2019-08-06T14:16:46Z</time>
      </trkpt>
      <trkpt lat="48.7305400" lon="13.6040440">
        <ele>563.4</ele>
        <time>2019-08-06T14:16:47Z</time>
      </trkpt>
      <trkpt lat="48.7305450" lon="13.6040010">
        <ele>563.4</ele>
        <time>2019-08-06T14:16:48Z</time>
      </trkpt>
      <trkpt lat="48.7305510" lon="13.6039580">
        <ele>563.6</ele>
        <time>2019-08-06T14:16:49Z</time>
      </trkpt>
      <trkpt lat="48.7305580" lon="13.6039160">
        <ele>563.8</ele>
        <time>2019-08-06T14:16:50Z</time>
      </trkpt>
      <trkpt lat="48.7305640" lon="13.6038760">
        <ele>564.0</ele>
        <time>2019-08-06T14:16:51Z</time>
      </trkpt>
      <trkpt lat="48.7305720" lon="13.6038420">
        <ele>564.4</ele>
        <time>2019-08-06T14:16:52Z</time>
      </trkpt>
      <trkpt lat="48.7305800" lon="13.6038100">
        <ele>564.6</ele>
        <time>2019-08-06T14:16:53Z</time>
      </trkpt>
      <trkpt lat="48.7305880" lon="13.6037810">
        <ele>564.8</ele>
        <time>2019-08-06T14:16:54Z</time>
      </trkpt>
      <trkpt lat="48.7305980" lon="13.6037560">
        <ele>565.0</ele>
        <time>2019-08-06T14:16:55Z</time>
      </trkpt>
      <trkpt lat="48.7306060" lon="13.6037320">
        <ele>565.2</ele>
        <time>2019-08-06T14:16:56Z</time>
      </trkpt>
      <trkpt lat="48.7306150" lon="13.6037120">
        <ele>565.4</ele>
        <time>2019-08-06T14:16:57Z</time>
      </trkpt>
      <trkpt lat="48.7306230" lon="13.6036900">
        <ele>565.6</ele>
        <time>2019-08-06T14:16:58Z</time>
      </trkpt>
      <trkpt lat="48.7306330" lon="13.6036680">
        <ele>565.8</ele>
        <time>2019-08-06T14:16:59Z</time>
      </trkpt>
      <trkpt lat="48.7306440" lon="13.6036470">
        <ele>565.8</ele>
        <time>2019-08-06T14:17:00Z</time>
      </trkpt>
      <trkpt lat="48.7306560" lon="13.6036250">
        <ele>565.8</ele>
        <time>2019-08-06T14:17:01Z</time>
      </trkpt>
      <trkpt lat="48.7306690" lon="13.6036000">
        <ele>565.8</ele>
        <time>2019-08-06T14:17:02Z</time>
      </trkpt>
      <trkpt lat="48.7306820" lon="13.6035730">
        <ele>565.8</ele>
        <time>2019-08-06T14:17:03Z</time>
      </trkpt>
      <trkpt lat="48.7306950" lon="13.6035450">
        <ele>565.8</ele>
        <time>2019-08-06T14:17:04Z</time>
      </trkpt>
      <trkpt lat="48.7307070" lon="13.6035200">
        <ele>565.6</ele>
        <time>2019-08-06T14:17:05Z</time>
      </trkpt>
      <trkpt lat="48.7307180" lon="13.6034980">
        <ele>565.6</ele>
        <time>2019-08-06T14:17:06Z</time>
      </trkpt>
      <trkpt lat="48.7307270" lon="13.6034810">
        <ele>565.4</ele>
        <time>2019-08-06T14:17:07Z</time>
      </trkpt>
      <trkpt lat="48.7307370" lon="13.6034650">
        <ele>565.4</ele>
        <time>2019-08-06T14:17:08Z</time>
      </trkpt>
      <trkpt lat="48.7307500" lon="13.6034490">
        <ele>565.2</ele>
        <time>2019-08-06T14:17:09Z</time>
      </trkpt>
      <trkpt lat="48.7307710" lon="13.6034370">
        <ele>565.0</ele>
        <time>2019-08-06T14:17:10Z</time>
      </trkpt>
      <trkpt lat="48.7307960" lon="13.6034360">
        <ele>564.8</ele>
        <time>2019-08-06T14:17:11Z</time>
      </trkpt>
      <trkpt lat="48.7308210" lon="13.6034420">
        <ele>564.6</ele>
        <time>2019-08-06T14:17:12Z</time>
      </trkpt>
      <trkpt lat="48.7308470" lon="13.6034550">
        <ele>564.2</ele>
        <time>2019-08-06T14:17:13Z</time>
      </trkpt>
      <trkpt lat="48.7308820" lon="13.6034710">
        <ele>563.6</ele>
        <time>2019-08-06T14:17:14Z</time>
      </trkpt>
      <trkpt lat="48.7309290" lon="13.6034850">
        <ele>563.0</ele>
        <time>2019-08-06T14:17:15Z</time>
      </trkpt>
      <trkpt lat="48.7309740" lon="13.6034960">
        <ele>562.6</ele>
        <time>2019-08-06T14:17:16Z</time>
      </trkpt>
      <trkpt lat="48.7310250" lon="13.6035110">
        <ele>562.2</ele>
        <time>2019-08-06T14:17:17Z</time>
      </trkpt>
      <trkpt lat="48.7310810" lon="13.6035400">
        <ele>562.0</ele>
        <time>2019-08-06T14:17:18Z</time>
      </trkpt>
      <trkpt lat="48.7311370" lon="13.6035770">
        <ele>561.6</ele>
        <time>2019-08-06T14:17:19Z</time>
      </trkpt>
      <trkpt lat="48.7311920" lon="13.6036060">
        <ele>561.4</ele>
        <time>2019-08-06T14:17:20Z</time>
      </trkpt>
      <trkpt lat="48.7312450" lon="13.6036160">
        <ele>561.2</ele>
        <time>2019-08-06T14:17:21Z</time>
      </trkpt>
      <trkpt lat="48.7312940" lon="13.6036090">
        <ele>561.2</ele>
        <time>2019-08-06T14:17:22Z</time>
      </trkpt>
      <trkpt lat="48.7313370" lon="13.6035940">
        <ele>561.4</ele>
        <time>2019-08-06T14:17:23Z</time>
      </trkpt>
      <trkpt lat="48.7313730" lon="13.6035760">
        <ele>561.4</ele>
        <time>2019-08-06T14:17:24Z</time>
      </trkpt>
      <trkpt lat="48.7314030" lon="13.6035590">
        <ele>561.6</ele>
        <time>2019-08-06T14:17:25Z</time>
      </trkpt>
      <trkpt lat="48.7314280" lon="13.6035440">
        <ele>561.6</ele>
        <time>2019-08-06T14:17:26Z</time>
      </trkpt>
      <trkpt lat="48.7314500" lon="13.6035300">
        <ele>561.8</ele>
        <time>2019-08-06T14:17:27Z</time>
      </trkpt>
      <trkpt lat="48.7314750" lon="13.6035190">
        <ele>561.8</ele>
        <time>2019-08-06T14:17:28Z</time>
      </trkpt>
      <trkpt lat="48.7315020" lon="13.6035080">
        <ele>562.0</ele>
        <time>2019-08-06T14:17:29Z</time>
      </trkpt>
      <trkpt lat="48.7315270" lon="13.6034940">
        <ele>562.2</ele>
        <time>2019-08-06T14:17:30Z</time>
      </trkpt>
      <trkpt lat="48.7315510" lon="13.6034790">
        <ele>562.2</ele>
        <time>2019-08-06T14:17:31Z</time>
      </trkpt>
      <trkpt lat="48.7315750" lon="13.6034660">
        <ele>562.4</ele>
        <time>2019-08-06T14:17:32Z</time>
      </trkpt>
      <trkpt lat="48.7315960" lon="13.6034540">
        <ele>562.6</ele>
        <time>2019-08-06T14:17:33Z</time>
      </trkpt>
      <trkpt lat="48.7316180" lon="13.6034420">
        <ele>562.6</ele>
        <time>2019-08-06T14:17:34Z</time>
      </trkpt>
      <trkpt lat="48.7316410" lon="13.6034300">
        <ele>562.8</ele>
        <time>2019-08-06T14:17:35Z</time>
      </trkpt>
      <trkpt lat="48.7316620" lon="13.6034170">
        <ele>563.0</ele>
        <time>2019-08-06T14:17:36Z</time>
      </trkpt>
      <trkpt lat="48.7316830" lon="13.6034070">
        <ele>563.2</ele>
        <time>2019-08-06T14:17:37Z</time>
      </trkpt>
      <trkpt lat="48.7317040" lon="13.6034000">
        <ele>563.4</ele>
        <time>2019-08-06T14:17:38Z</time>
      </trkpt>
      <trkpt lat="48.7317220" lon="13.6033920">
        <ele>563.4</ele>
        <time>2019-08-06T14:17:39Z</time>
      </trkpt>
      <trkpt lat="48.7317400" lon="13.6033820">
        <ele>563.6</ele>
        <time>2019-08-06T14:17:40Z</time>
      </trkpt>
      <trkpt lat="48.7317560" lon="13.6033730">
        <ele>563.8</ele>
        <time>2019-08-06T14:17:41Z</time>
      </trkpt>
      <trkpt lat="48.7317710" lon="13.6033680">
        <ele>563.8</ele>
        <time>2019-08-06T14:17:42Z</time>
      </trkpt>
      <trkpt lat="48.7317870" lon="13.6033720">
        <ele>563.8</ele>
        <time>2019-08-06T14:17:43Z</time>
      </trkpt>
      <trkpt lat="48.7318030" lon="13.6033880">
        <ele>563.8</ele>
        <time>2019-08-06T14:17:44Z</time>
      </trkpt>
      <trkpt lat="48.7318180" lon="13.6034180">
        <ele>563.8</ele>
        <time>2019-08-06T14:17:45Z</time>
      </trkpt>
      <trkpt lat="48.7318280" lon="13.6034600">
        <ele>563.6</ele>
        <time>2019-08-06T14:17:46Z</time>
      </trkpt>
      <trkpt lat="48.7318320" lon="13.6035100">
        <ele>563.6</ele>
        <time>2019-08-06T14:17:47Z</time>
      </trkpt>
      <trkpt lat="48.7318330" lon="13.6035670">
        <ele>563.4</ele>
        <time>2019-08-06T14:17:48Z</time>
      </trkpt>
      <trkpt lat="48.7318320" lon="13.6036300">
        <ele>563.0</ele>
        <time>2019-08-06T14:17:49Z</time>
      </trkpt>
      <trkpt lat="48.7318320" lon="13.6036970">
        <ele>562.8</ele>
        <time>2019-08-06T14:17:50Z</time>
      </trkpt>
      <trkpt lat="48.7318350" lon="13.6037640">
        <ele>562.6</ele>
        <time>2019-08-06T14:17:51Z</time>
      </trkpt>
      <trkpt lat="48.7318410" lon="13.6038310">
        <ele>562.2</ele>
        <time>2019-08-06T14:17:52Z</time>
      </trkpt>
      <trkpt lat="48.7318500" lon="13.6039010">
        <ele>561.8</ele>
        <time>2019-08-06T14:17:53Z</time>
      </trkpt>
      <trkpt lat="48.7318600" lon="13.6039710">
        <ele>561.4</ele>
        <time>2019-08-06T14:17:54Z</time>
      </trkpt>
      <trkpt lat="48.7318690" lon="13.6040420">
        <ele>561.0</ele>
        <time>2019-08-06T14:17:55Z</time>
      </trkpt>
      <trkpt lat="48.7318740" lon="13.6041100">
        <ele>560.6</ele>
        <time>2019-08-06T14:17:56Z</time>
      </trkpt>
      <trkpt lat="48.7318800" lon="13.6041780">
        <ele>560.2</ele>
        <time>2019-08-06T14:17:57Z</time>
      </trkpt>
      <trkpt lat="48.7318950" lon="13.6042460">
        <ele>559.8</ele>
        <time>2019-08-06T14:17:58Z</time>
      </trkpt>
      <trkpt lat="48.7319170" lon="13.6043080">
        <ele>559.6</ele>
        <time>2019-08-06T14:17:59Z</time>
      </trkpt>
      <trkpt lat="48.7319430" lon="13.6043600">
        <ele>559.2</ele>
        <time>2019-08-06T14:18:00Z</time>
      </trkpt>
      <trkpt lat="48.7319690" lon="13.6044060">
        <ele>558.8</ele>
        <time>2019-08-06T14:18:01Z</time>
      </trkpt>
      <trkpt lat="48.7319920" lon="13.6044480">
        <ele>558.6</ele>
        <time>2019-08-06T14:18:02Z</time>
      </trkpt>
      <trkpt lat="48.7320080" lon="13.6044910">
        <ele>558.2</ele>
        <time>2019-08-06T14:18:03Z</time>
      </trkpt>
      <trkpt lat="48.7320250" lon="13.6045290">
        <ele>558.0</ele>
        <time>2019-08-06T14:18:04Z</time>
      </trkpt>
      <trkpt lat="48.7320390" lon="13.6045640">
        <ele>557.6</ele>
        <time>2019-08-06T14:18:05Z</time>
      </trkpt>
      <trkpt lat="48.7320510" lon="13.6045930">
        <ele>557.2</ele>
        <time>2019-08-06T14:18:06Z</time>
      </trkpt>
      <trkpt lat="48.7320600" lon="13.6046170">
        <ele>557.0</ele>
        <time>2019-08-06T14:18:07Z</time>
      </trkpt>
      <trkpt lat="48.7320660" lon="13.6046420">
        <ele>556.6</ele>
        <time>2019-08-06T14:18:08Z</time>
      </trkpt>
      <trkpt lat="48.7320650" lon="13.6046740">
        <ele>556.4</ele>
        <time>2019-08-06T14:18:09Z</time>
      </trkpt>
      <trkpt lat="48.7320550" lon="13.6047090">
        <ele>556.2</ele>
        <time>2019-08-06T14:18:10Z</time>
      </trkpt>
      <trkpt lat="48.7320360" lon="13.6047380">
        <ele>556.0</ele>
        <time>2019-08-06T14:18:11Z</time>
      </trkpt>
      <trkpt lat="48.7320110" lon="13.6047690">
        <ele>555.8</ele>
        <time>2019-08-06T14:18:12Z</time>
      </trkpt>
      <trkpt lat="48.7319800" lon="13.6048050">
        <ele>555.6</ele>
        <time>2019-08-06T14:18:13Z</time>
      </trkpt>
      <trkpt lat="48.7319450" lon="13.6048450">
        <ele>555.4</ele>
        <time>2019-08-06T14:18:14Z</time>
      </trkpt>
      <trkpt lat="48.7319100" lon="13.6048900">
        <ele>555.2</ele>
        <time>2019-08-06T14:18:15Z</time>
      </trkpt>
      <trkpt lat="48.7318770" lon="13.6049400">
        <ele>555.0</ele>
        <time>2019-08-06T14:18:16Z</time>
      </trkpt>
      <trkpt lat="48.7318530" lon="13.6049950">
        <ele>554.8</ele>
        <time>2019-08-06T14:18:17Z</time>
      </trkpt>
      <trkpt lat="48.7318320" lon="13.6050550">
        <ele>554.6</ele>
        <time>2019-08-06T14:18:18Z</time>
      </trkpt>
      <trkpt lat="48.7318140" lon="13.6051190">
        <ele>554.4</ele>
        <time>2019-08-06T14:18:19Z</time>
      </trkpt>
      <trkpt lat="48.7317990" lon="13.6051870">
        <ele>554.4</ele>
        <time>2019-08-06T14:18:20Z</time>
      </trkpt>
      <trkpt lat="48.7317860" lon="13.6052600">
        <ele>554.2</ele>
        <time>2019-08-06T14:18:21Z</time>
      </trkpt>
      <trkpt lat="48.7317800" lon="13.6053380">
        <ele>553.8</ele>
        <time>2019-08-06T14:18:22Z</time>
      </trkpt>
      <trkpt lat="48.7317830" lon="13.6054220">
        <ele>553.6</ele>
        <time>2019-08-06T14:18:23Z</time>
      </trkpt>
      <trkpt lat="48.7317930" lon="13.6055080">
        <ele>553.2</ele>
        <time>2019-08-06T14:18:24Z</time>
      </trkpt>
      <trkpt lat="48.7318130" lon="13.6055940">
        <ele>553.0</ele>
        <time>2019-08-06T14:18:25Z</time>
      </trkpt>
      <trkpt lat="48.7318430" lon="13.6056750">
        <ele>552.8</ele>
        <time>2019-08-06T14:18:26Z</time>
      </trkpt>
      <trkpt lat="48.7318830" lon="13.6057480">
        <ele>552.6</ele>
        <time>2019-08-06T14:18:27Z</time>
      </trkpt>
      <trkpt lat="48.7319360" lon="13.6058120">
        <ele>552.4</ele>
        <time>2019-08-06T14:18:28Z</time>
      </trkpt>
      <trkpt lat="48.7319950" lon="13.6058640">
        <ele>552.2</ele>
        <time>2019-08-06T14:18:29Z</time>
      </trkpt>
      <trkpt lat="48.7320630" lon="13.6058980">
        <ele>552.0</ele>
        <time>2019-08-06T14:18:30Z</time>
      </trkpt>
      <trkpt lat="48.7321340" lon="13.6059110">
        <ele>551.6</ele>
        <time>2019-08-06T14:18:31Z</time>
      </trkpt>
      <trkpt lat="48.7322090" lon="13.6059020">
        <ele>551.2</ele>
        <time>2019-08-06T14:18:32Z</time>
      </trkpt>
      <trkpt lat="48.7322850" lon="13.6058660">
        <ele>551.0</ele>
        <time>2019-08-06T14:18:33Z</time>
      </trkpt>
      <trkpt lat="48.7323560" lon="13.6058090">
        <ele>550.8</ele>
        <time>2019-08-06T14:18:34Z</time>
      </trkpt>
      <trkpt lat="48.7324200" lon="13.6057360">
        <ele>550.6</ele>
        <time>2019-08-06T14:18:35Z</time>
      </trkpt>
      <trkpt lat="48.7324810" lon="13.6056440">
        <ele>550.0</ele>
        <time>2019-08-06T14:18:36Z</time>
      </trkpt>
      <trkpt lat="48.7325420" lon="13.6055550">
        <ele>549.6</ele>
        <time>2019-08-06T14:18:37Z</time>
      </trkpt>
      <trkpt lat="48.7326100" lon="13.6054750">
        <ele>549.2</ele>
        <time>2019-08-06T14:18:38Z</time>
      </trkpt>
      <trkpt lat="48.7326820" lon="13.6054150">
        <ele>548.8</ele>
        <time>2019-08-06T14:18:39Z</time>
      </trkpt>
      <trkpt lat="48.7327670" lon="13.6053860">
        <ele>548.6</ele>
        <time>2019-08-06T14:18:40Z</time>
      </trkpt>
      <trkpt lat="48.7328520" lon="13.6054050">
        <ele>548.2</ele>
        <time>2019-08-06T14:18:41Z</time>
      </trkpt>
      <trkpt lat="48.7329290" lon="13.6054780">
        <ele>547.8</ele>
        <time>2019-08-06T14:18:42Z</time>
      </trkpt>
      <trkpt lat="48.7329860" lon="13.6056000">
        <ele>547.4</ele>
        <time>2019-08-06T14:18:43Z</time>
      </trkpt>
      <trkpt lat="48.7330240" lon="13.6057440">
        <ele>546.8</ele>
        <time>2019-08-06T14:18:44Z</time>
      </trkpt>
      <trkpt lat="48.7330540" lon="13.6058810">
        <ele>546.4</ele>
        <time>2019-08-06T14:18:45Z</time>
      </trkpt>
      <trkpt lat="48.7330820" lon="13.6060150">
        <ele>546.0</ele>
        <time>2019-08-06T14:18:46Z</time>
      </trkpt>
      <trkpt lat="48.7331090" lon="13.6061480">
        <ele>545.6</ele>
        <time>2019-08-06T14:18:47Z</time>
      </trkpt>
      <trkpt lat="48.7331440" lon="13.6062830">
        <ele>545.2</ele>
        <time>2019-08-06T14:18:48Z</time>
      </trkpt>
      <trkpt lat="48.7331880" lon="13.6064100">
        <ele>545.0</ele>
        <time>2019-08-06T14:18:49Z</time>
      </trkpt>
      <trkpt lat="48.7332450" lon="13.6065300">
        <ele>544.8</ele>
        <time>2019-08-06T14:18:50Z</time>
      </trkpt>
      <trkpt lat="48.7333140" lon="13.6066250">
        <ele>544.6</ele>
        <time>2019-08-06T14:18:51Z</time>
      </trkpt>
      <trkpt lat="48.7333930" lon="13.6066820">
        <ele>544.4</ele>
        <time>2019-08-06T14:18:52Z</time>
      </trkpt>
      <trkpt lat="48.7334880" lon="13.6066980">
        <ele>544.2</ele>
        <time>2019-08-06T14:18:53Z</time>
      </trkpt>
      <trkpt lat="48.7335790" lon="13.6066910">
        <ele>544.2</ele>
        <time>2019-08-06T14:18:54Z</time>
      </trkpt>
      <trkpt lat="48.7336620" lon="13.6066480">
        <ele>544.2</ele>
        <time>2019-08-06T14:18:55Z</time>
      </trkpt>
      <trkpt lat="48.7337390" lon="13.6065580">
        <ele>544.0</ele>
        <time>2019-08-06T14:18:56Z</time>
      </trkpt>
      <trkpt lat="48.7338060" lon="13.6064530">
        <ele>543.6</ele>
        <time>2019-08-06T14:18:57Z</time>
      </trkpt>
      <trkpt lat="48.7338590" lon="13.6063320">
        <ele>542.6</ele>
        <time>2019-08-06T14:18:58Z</time>
      </trkpt>
      <trkpt lat="48.7338960" lon="13.6062000">
        <ele>542.0</ele>
        <time>2019-08-06T14:18:59Z</time>
      </trkpt>
      <trkpt lat="48.7339250" lon="13.6060590">
        <ele>541.8</ele>
        <time>2019-08-06T14:19:00Z</time>
      </trkpt>
      <trkpt lat="48.7339540" lon="13.6059200">
        <ele>541.2</ele>
        <time>2019-08-06T14:19:01Z</time>
      </trkpt>
      <trkpt lat="48.7339870" lon="13.6057820">
        <ele>540.6</ele>
        <time>2019-08-06T14:19:02Z</time>
      </trkpt>
      <trkpt lat="48.7340210" lon="13.6056350">
        <ele>539.8</ele>
        <time>2019-08-06T14:19:03Z</time>
      </trkpt>
      <trkpt lat="48.7340550" lon="13.6054950">
        <ele>539.2</ele>
        <time>2019-08-06T14:19:04Z</time>
      </trkpt>
      <trkpt lat="48.7341000" lon="13.6053810">
        <ele>538.4</ele>
        <time>2019-08-06T14:19:05Z</time>
      </trkpt>
      <trkpt lat="48.7341650" lon="13.6053030">
        <ele>537.6</ele>
        <time>2019-08-06T14:19:06Z</time>
      </trkpt>
      <trkpt lat="48.7342490" lon="13.6052530">
        <ele>537.0</ele>
        <time>2019-08-06T14:19:07Z</time>
      </trkpt>
      <trkpt lat="48.7343420" lon="13.6052510">
        <ele>536.2</ele>
        <time>2019-08-06T14:19:08Z</time>
      </trkpt>
      <trkpt lat="48.7344260" lon="13.6053100">
        <ele>535.6</ele>
        <time>2019-08-06T14:19:09Z</time>
      </trkpt>
      <trkpt lat="48.7344890" lon="13.6054100">
        <ele>535.0</ele>
        <time>2019-08-06T14:19:10Z</time>
      </trkpt>
      <trkpt lat="48.7345320" lon="13.6055350">
        <ele>534.4</ele>
        <time>2019-08-06T14:19:11Z</time>
      </trkpt>
      <trkpt lat="48.7345580" lon="13.6056700">
        <ele>533.8</ele>
        <time>2019-08-06T14:19:12Z</time>
      </trkpt>
      <trkpt lat="48.7345740" lon="13.6058160">
        <ele>533.2</ele>
        <time>2019-08-06T14:19:13Z</time>
      </trkpt>
      <trkpt lat="48.7345860" lon="13.6059740">
        <ele>532.6</ele>
        <time>2019-08-06T14:19:14Z</time>
      </trkpt>
      <trkpt lat="48.7345980" lon="13.6061300">
        <ele>532.2</ele>
        <time>2019-08-06T14:19:15Z</time>
      </trkpt>
      <trkpt lat="48.7346040" lon="13.6062750">
        <ele>531.8</ele>
        <time>2019-08-06T14:19:16Z</time>
      </trkpt>
      <trkpt lat="48.7346100" lon="13.6064090">
        <ele>531.4</ele>
        <time>2019-08-06T14:19:17Z</time>
      </trkpt>
      <trkpt lat="48.7346160" lon="13.6065210">
        <ele>530.8</ele>
        <time>2019-08-06T14:19:18Z</time>
      </trkpt>
      <trkpt lat="48.7346240" lon="13.6066010">
        <ele>530.0</ele>
        <time>2019-08-06T14:19:19Z</time>
      </trkpt>
      <trkpt lat="48.7346260" lon="13.6066360">
        <ele>529.6</ele>
        <time>2019-08-06T14:19:20Z</time>
      </trkpt>
      <trkpt lat="48.7346250" lon="13.6066490">
        <ele>529.0</ele>
        <time>2019-08-06T14:19:21Z</time>
      </trkpt>
      <trkpt lat="48.7346270" lon="13.6066670">
        <ele>528.6</ele>
        <time>2019-08-06T14:19:22Z</time>
      </trkpt>
      <trkpt lat="48.7346370" lon="13.6066930">
        <ele>528.4</ele>
        <time>2019-08-06T14:19:23Z</time>
      </trkpt>
      <trkpt lat="48.7346560" lon="13.6067220">
        <ele>528.2</ele>
        <time>2019-08-06T14:19:24Z</time>
      </trkpt>
      <trkpt lat="48.7346820" lon="13.6067510">
        <ele>528.0</ele>
        <time>2019-08-06T14:19:25Z</time>
      </trkpt>
      <trkpt lat="48.7347100" lon="13.6067800">
        <ele>527.8</ele>
        <time>2019-08-06T14:19:26Z</time>
      </trkpt>
      <trkpt lat="48.7347400" lon="13.6068050">
        <ele>527.8</ele>
        <time>2019-08-06T14:19:27Z</time>
      </trkpt>
      <trkpt lat="48.7347700" lon="13.6068280">
        <ele>527.8</ele>
        <time>2019-08-06T14:19:28Z</time>
      </trkpt>
      <trkpt lat="48.7347990" lon="13.6068540">
        <ele>527.8</ele>
        <time>2019-08-06T14:19:29Z</time>
      </trkpt>
      <trkpt lat="48.7348290" lon="13.6068830">
        <ele>527.8</ele>
        <time>2019-08-06T14:19:30Z</time>
      </trkpt>
      <trkpt lat="48.7348620" lon="13.6069160">
        <ele>527.8</ele>
        <time>2019-08-06T14:19:31Z</time>
      </trkpt>
      <trkpt lat="48.7348970" lon="13.6069490">
        <ele>527.6</ele>
        <time>2019-08-06T14:19:32Z</time>
      </trkpt>
      <trkpt lat="48.7349330" lon="13.6069840">
        <ele>527.8</ele>
        <time>2019-08-06T14:19:33Z</time>
      </trkpt>
      <trkpt lat="48.7349720" lon="13.6070180">
        <ele>527.6</ele>
        <time>2019-08-06T14:19:34Z</time>
      </trkpt>
      <trkpt lat="48.7350130" lon="13.6070540">
        <ele>527.6</ele>
        <time>2019-08-06T14:19:35Z</time>
      </trkpt>
      <trkpt lat="48.7350580" lon="13.6070930">
        <ele>527.4</ele>
        <time>2019-08-06T14:19:36Z</time>
      </trkpt>
      <trkpt lat="48.7351080" lon="13.6071320">
        <ele>527.2</ele>
        <time>2019-08-06T14:19:37Z</time>
      </trkpt>
      <trkpt lat="48.7351630" lon="13.6071700">
        <ele>527.0</ele>
        <time>2019-08-06T14:19:38Z</time>
      </trkpt>
      <trkpt lat="48.7352220" lon="13.6072050">
        <ele>526.8</ele>
        <time>2019-08-06T14:19:39Z</time>
      </trkpt>
      <trkpt lat="48.7352880" lon="13.6072380">
        <ele>526.6</ele>
        <time>2019-08-06T14:19:40Z</time>
      </trkpt>
      <trkpt lat="48.7353560" lon="13.6072690">
        <ele>526.4</ele>
        <time>2019-08-06T14:19:41Z</time>
      </trkpt>
      <trkpt lat="48.7354280" lon="13.6072990">
        <ele>526.0</ele>
        <time>2019-08-06T14:19:42Z</time>
      </trkpt>
      <trkpt lat="48.7355030" lon="13.6073250">
        <ele>525.6</ele>
        <time>2019-08-06T14:19:43Z</time>
      </trkpt>
      <trkpt lat="48.7355800" lon="13.6073480">
        <ele>525.2</ele>
        <time>2019-08-06T14:19:44Z</time>
      </trkpt>
      <trkpt lat="48.7356620" lon="13.6073700">
        <ele>525.0</ele>
        <time>2019-08-06T14:19:45Z</time>
      </trkpt>
      <trkpt lat="48.7357490" lon="13.6073890">
        <ele>524.6</ele>
        <time>2019-08-06T14:19:46Z</time>
      </trkpt>
      <trkpt lat="48.7358350" lon="13.6074080">
        <ele>524.4</ele>
        <time>2019-08-06T14:19:47Z</time>
      </trkpt>
      <trkpt lat="48.7359190" lon="13.6074290">
        <ele>524.2</ele>
        <time>2019-08-06T14:19:48Z</time>
      </trkpt>
      <trkpt lat="48.7360000" lon="13.6074570">
        <ele>524.0</ele>
        <time>2019-08-06T14:19:49Z</time>
      </trkpt>
      <trkpt lat="48.7360730" lon="13.6074900">
        <ele>524.0</ele>
        <time>2019-08-06T14:19:50Z</time>
      </trkpt>
      <trkpt lat="48.7361410" lon="13.6075210">
        <ele>523.8</ele>
        <time>2019-08-06T14:19:51Z</time>
      </trkpt>
      <trkpt lat="48.7362040" lon="13.6075450">
        <ele>523.8</ele>
        <time>2019-08-06T14:19:52Z</time>
      </trkpt>
      <trkpt lat="48.7362650" lon="13.6075610">
        <ele>524.0</ele>
        <time>2019-08-06T14:19:53Z</time>
      </trkpt>
      <trkpt lat="48.7363240" lon="13.6075760">
        <ele>524.2</ele>
        <time>2019-08-06T14:19:54Z</time>
      </trkpt>
      <trkpt lat="48.7363820" lon="13.6075900">
        <ele>524.4</ele>
        <time>2019-08-06T14:19:55Z</time>
      </trkpt>
      <trkpt lat="48.7364330" lon="13.6076060">
        <ele>524.6</ele>
        <time>2019-08-06T14:19:56Z</time>
      </trkpt>
      <trkpt lat="48.7364860" lon="13.6076200">
        <ele>525.0</ele>
        <time>2019-08-06T14:19:57Z</time>
      </trkpt>
      <trkpt lat="48.7365350" lon="13.6076330">
        <ele>525.6</ele>
        <time>2019-08-06T14:19:58Z</time>
      </trkpt>
      <trkpt lat="48.7365800" lon="13.6076420">
        <ele>525.8</ele>
        <time>2019-08-06T14:19:59Z</time>
      </trkpt>
      <trkpt lat="48.7366200" lon="13.6076480">
        <ele>526.0</ele>
        <time>2019-08-06T14:20:00Z</time>
      </trkpt>
      <trkpt lat="48.7366600" lon="13.6076540">
        <ele>526.2</ele>
        <time>2019-08-06T14:20:01Z</time>
      </trkpt>
      <trkpt lat="48.7366990" lon="13.6076580">
        <ele>526.4</ele>
        <time>2019-08-06T14:20:02Z</time>
      </trkpt>
      <trkpt lat="48.7367350" lon="13.6076610">
        <ele>526.6</ele>
        <time>2019-08-06T14:20:03Z</time>
      </trkpt>
      <trkpt lat="48.7367680" lon="13.6076650">
        <ele>526.8</ele>
        <time>2019-08-06T14:20:04Z</time>
      </trkpt>
      <trkpt lat="48.7367990" lon="13.6076670">
        <ele>527.2</ele>
        <time>2019-08-06T14:20:05Z</time>
      </trkpt>
      <trkpt lat="48.7368280" lon="13.6076680">
        <ele>527.4</ele>
        <time>2019-08-06T14:20:06Z</time>
      </trkpt>
      <trkpt lat="48.7368570" lon="13.6076700">
        <ele>527.6</ele>
        <time>2019-08-06T14:20:07Z</time>
      </trkpt>
      <trkpt lat="48.7368790" lon="13.6076770">
        <ele>527.8</ele>
        <time>2019-08-06T14:20:08Z</time>
      </trkpt>
      <trkpt lat="48.7368980" lon="13.6076890">
        <ele>528.0</ele>
        <time>2019-08-06T14:20:09Z</time>
      </trkpt>
      <trkpt lat="48.7369110" lon="13.6077060">
        <ele>528.2</ele>
        <time>2019-08-06T14:20:10Z</time>
      </trkpt>
      <trkpt lat="48.7369210" lon="13.6077270">
        <ele>528.2</ele>
        <time>2019-08-06T14:20:11Z</time>
      </trkpt>
      <trkpt lat="48.7369300" lon="13.6077510">
        <ele>528.4</ele>
        <time>2019-08-06T14:20:12Z</time>
      </trkpt>
      <trkpt lat="48.7369400" lon="13.6077780">
        <ele>528.4</ele>
        <time>2019-08-06T14:20:13Z</time>
      </trkpt>
      <trkpt lat="48.7369440" lon="13.6078150">
        <ele>528.4</ele>
        <time>2019-08-06T14:20:14Z</time>
      </trkpt>
      <trkpt lat="48.7369450" lon="13.6078590">
        <ele>528.6</ele>
        <time>2019-08-06T14:20:15Z</time>
      </trkpt>
      <trkpt lat="48.7369440" lon="13.6079040">
        <ele>528.6</ele>
        <time>2019-08-06T14:20:16Z</time>
      </trkpt>
      <trkpt lat="48.7369420" lon="13.6079480">
        <ele>528.6</ele>
        <time>2019-08-06T14:20:17Z</time>
      </trkpt>
      <trkpt lat="48.7369360" lon="13.6079930">
        <ele>528.6</ele>
        <time>2019-08-06T14:20:18Z</time>
      </trkpt>
      <trkpt lat="48.7369300" lon="13.6080390">
        <ele>528.6</ele>
        <time>2019-08-06T14:20:19Z</time>
      </trkpt>
      <trkpt lat="48.7369220" lon="13.6080870">
        <ele>528.6</ele>
        <time>2019-08-06T14:20:20Z</time>
      </trkpt>
      <trkpt lat="48.7369100" lon="13.6081410">
        <ele>528.6</ele>
        <time>2019-08-06T14:20:21Z</time>
      </trkpt>
      <trkpt lat="48.7368960" lon="13.6081980">
        <ele>528.6</ele>
        <time>2019-08-06T14:20:22Z</time>
      </trkpt>
      <trkpt lat="48.7368810" lon="13.6082590">
        <ele>528.6</ele>
        <time>2019-08-06T14:20:23Z</time>
      </trkpt>
      <trkpt lat="48.7368670" lon="13.6083220">
        <ele>528.6</ele>
        <time>2019-08-06T14:20:24Z</time>
      </trkpt>
      <trkpt lat="48.7368520" lon="13.6083860">
        <ele>528.6</ele>
        <time>2019-08-06T14:20:25Z</time>
      </trkpt>
      <trkpt lat="48.7368370" lon="13.6084470">
        <ele>528.6</ele>
        <time>2019-08-06T14:20:26Z</time>
      </trkpt>
      <trkpt lat="48.7368210" lon="13.6085110">
        <ele>528.6</ele>
        <time>2019-08-06T14:20:27Z</time>
      </trkpt>
      <trkpt lat="48.7368080" lon="13.6085770">
        <ele>528.8</ele>
        <time>2019-08-06T14:20:28Z</time>
      </trkpt>
      <trkpt lat="48.7367940" lon="13.6086440">
        <ele>528.8</ele>
        <time>2019-08-06T14:20:29Z</time>
      </trkpt>
      <trkpt lat="48.7367790" lon="13.6087100">
        <ele>528.8</ele>
        <time>2019-08-06T14:20:30Z</time>
      </trkpt>
      <trkpt lat="48.7367660" lon="13.6087760">
        <ele>528.6</ele>
        <time>2019-08-06T14:20:31Z</time>
      </trkpt>
      <trkpt lat="48.7367520" lon="13.6088420">
        <ele>528.6</ele>
        <time>2019-08-06T14:20:32Z</time>
      </trkpt>
      <trkpt lat="48.7367370" lon="13.6089070">
        <ele>528.6</ele>
        <time>2019-08-06T14:20:33Z</time>
      </trkpt>
      <trkpt lat="48.7367200" lon="13.6089700">
        <ele>528.6</ele>
        <time>2019-08-06T14:20:34Z</time>
      </trkpt>
      <trkpt lat="48.7367020" lon="13.6090320">
        <ele>528.8</ele>
        <time>2019-08-06T14:20:35Z</time>
      </trkpt>
      <trkpt lat="48.7366850" lon="13.6090970">
        <ele>528.8</ele>
        <time>2019-08-06T14:20:36Z</time>
      </trkpt>
      <trkpt lat="48.7366690" lon="13.6091590">
        <ele>528.8</ele>
        <time>2019-08-06T14:20:37Z</time>
      </trkpt>
      <trkpt lat="48.7366530" lon="13.6092230">
        <ele>528.8</ele>
        <time>2019-08-06T14:20:38Z</time>
      </trkpt>
      <trkpt lat="48.7366350" lon="13.6092870">
        <ele>528.8</ele>
        <time>2019-08-06T14:20:39Z</time>
      </trkpt>
      <trkpt lat="48.7366180" lon="13.6093510">
        <ele>529.0</ele>
        <time>2019-08-06T14:20:40Z</time>
      </trkpt>
      <trkpt lat="48.7366020" lon="13.6094160">
        <ele>529.0</ele>
        <time>2019-08-06T14:20:41Z</time>
      </trkpt>
      <trkpt lat="48.7365850" lon="13.6094780">
        <ele>529.2</ele>
        <time>2019-08-06T14:20:42Z</time>
      </trkpt>
      <trkpt lat="48.7365670" lon="13.6095390">
        <ele>529.2</ele>
        <time>2019-08-06T14:20:43Z</time>
      </trkpt>
      <trkpt lat="48.7365510" lon="13.6096000">
        <ele>529.4</ele>
        <time>2019-08-06T14:20:44Z</time>
      </trkpt>
      <trkpt lat="48.7365370" lon="13.6096610">
        <ele>529.4</ele>
        <time>2019-08-06T14:20:45Z</time>
      </trkpt>
      <trkpt lat="48.7365220" lon="13.6097230">
        <ele>529.6</ele>
        <time>2019-08-06T14:20:46Z</time>
      </trkpt>
      <trkpt lat="48.7365050" lon="13.6097830">
        <ele>529.8</ele>
        <time>2019-08-06T14:20:47Z</time>
      </trkpt>
      <trkpt lat="48.7364880" lon="13.6098420">
        <ele>529.8</ele>
        <time>2019-08-06T14:20:48Z</time>
      </trkpt>
      <trkpt lat="48.7364700" lon="13.6099010">
        <ele>530.0</ele>
        <time>2019-08-06T14:20:49Z</time>
      </trkpt>
      <trkpt lat="48.7364510" lon="13.6099610">
        <ele>530.2</ele>
        <time>2019-08-06T14:20:50Z</time>
      </trkpt>
      <trkpt lat="48.7364310" lon="13.6100210">
        <ele>530.2</ele>
        <time>2019-08-06T14:20:51Z</time>
      </trkpt>
      <trkpt lat="48.7364120" lon="13.6100810">
        <ele>530.4</ele>
        <time>2019-08-06T14:20:52Z</time>
      </trkpt>
      <trkpt lat="48.7363940" lon="13.6101440">
        <ele>530.4</ele>
        <time>2019-08-06T14:20:53Z</time>
      </trkpt>
      <trkpt lat="48.7363760" lon="13.6102050">
        <ele>530.6</ele>
        <time>2019-08-06T14:20:54Z</time>
      </trkpt>
      <trkpt lat="48.7363570" lon="13.6102650">
        <ele>530.6</ele>
        <time>2019-08-06T14:20:55Z</time>
      </trkpt>
      <trkpt lat="48.7363400" lon="13.6103240">
        <ele>530.8</ele>
        <time>2019-08-06T14:20:56Z</time>
      </trkpt>
      <trkpt lat="48.7363230" lon="13.6103810">
        <ele>531.0</ele>
        <time>2019-08-06T14:20:57Z</time>
      </trkpt>
      <trkpt lat="48.7363040" lon="13.6104390">
        <ele>531.0</ele>
        <time>2019-08-06T14:20:58Z</time>
      </trkpt>
      <trkpt lat="48.7362840" lon="13.6104980">
        <ele>531.2</ele>
        <time>2019-08-06T14:20:59Z</time>
      </trkpt>
      <trkpt lat="48.7362650" lon="13.6105590">
        <ele>531.4</ele>
        <time>2019-08-06T14:21:00Z</time>
      </trkpt>
      <trkpt lat="48.7362450" lon="13.6106160">
        <ele>531.4</ele>
        <time>2019-08-06T14:21:01Z</time>
      </trkpt>
      <trkpt lat="48.7362280" lon="13.6106710">
        <ele>531.6</ele>
        <time>2019-08-06T14:21:02Z</time>
      </trkpt>
      <trkpt lat="48.7362130" lon="13.6107260">
        <ele>531.6</ele>
        <time>2019-08-06T14:21:03Z</time>
      </trkpt>
      <trkpt lat="48.7362000" lon="13.6107840">
        <ele>531.8</ele>
        <time>2019-08-06T14:21:04Z</time>
      </trkpt>
      <trkpt lat="48.7361880" lon="13.6108350">
        <ele>532.0</ele>
        <time>2019-08-06T14:21:05Z</time>
      </trkpt>
      <trkpt lat="48.7361730" lon="13.6108900">
        <ele>532.0</ele>
        <time>2019-08-06T14:21:06Z</time>
      </trkpt>
      <trkpt lat="48.7361560" lon="13.6109540">
        <ele>532.2</ele>
        <time>2019-08-06T14:21:07Z</time>
      </trkpt>
      <trkpt lat="48.7361380" lon="13.6110200">
        <ele>532.2</ele>
        <time>2019-08-06T14:21:08Z</time>
      </trkpt>
      <trkpt lat="48.7361200" lon="13.6110840">
        <ele>532.4</ele>
        <time>2019-08-06T14:21:09Z</time>
      </trkpt>
      <trkpt lat="48.7361040" lon="13.6111450">
        <ele>532.6</ele>
        <time>2019-08-06T14:21:10Z</time>
      </trkpt>
      <trkpt lat="48.7360890" lon="13.6112070">
        <ele>532.8</ele>
        <time>2019-08-06T14:21:11Z</time>
      </trkpt>
      <trkpt lat="48.7360740" lon="13.6112690">
        <ele>533.0</ele>
        <time>2019-08-06T14:21:12Z</time>
      </trkpt>
      <trkpt lat="48.7360610" lon="13.6113270">
        <ele>533.0</ele>
        <time>2019-08-06T14:21:13Z</time>
      </trkpt>
      <trkpt lat="48.7360450" lon="13.6113830">
        <ele>533.2</ele>
        <time>2019-08-06T14:21:14Z</time>
      </trkpt>
      <trkpt lat="48.7360280" lon="13.6114380">
        <ele>533.2</ele>
        <time>2019-08-06T14:21:15Z</time>
      </trkpt>
      <trkpt lat="48.7360100" lon="13.6114970">
        <ele>533.2</ele>
        <time>2019-08-06T14:21:16Z</time>
      </trkpt>
      <trkpt lat="48.7359930" lon="13.6115550">
        <ele>533.4</ele>
        <time>2019-08-06T14:21:17Z</time>
      </trkpt>
      <trkpt lat="48.7359740" lon="13.6116120">
        <ele>533.4</ele>
        <time>2019-08-06T14:21:18Z</time>
      </trkpt>
      <trkpt lat="48.7359550" lon="13.6116710">
        <ele>533.4</ele>
        <time>2019-08-06T14:21:19Z</time>
      </trkpt>
      <trkpt lat="48.7359360" lon="13.6117320">
        <ele>533.4</ele>
        <time>2019-08-06T14:21:20Z</time>
      </trkpt>
      <trkpt lat="48.7359170" lon="13.6117930">
        <ele>533.4</ele>
        <time>2019-08-06T14:21:21Z</time>
      </trkpt>
      <trkpt lat="48.7359000" lon="13.6118520">
        <ele>533.4</ele>
        <time>2019-08-06T14:21:22Z</time>
      </trkpt>
      <trkpt lat="48.7358830" lon="13.6119150">
        <ele>533.6</ele>
        <time>2019-08-06T14:21:23Z</time>
      </trkpt>
      <trkpt lat="48.7358660" lon="13.6119740">
        <ele>533.6</ele>
        <time>2019-08-06T14:21:24Z</time>
      </trkpt>
      <trkpt lat="48.7358460" lon="13.6120350">
        <ele>533.6</ele>
        <time>2019-08-06T14:21:25Z</time>
      </trkpt>
      <trkpt lat="48.7358290" lon="13.6120950">
        <ele>533.8</ele>
        <time>2019-08-06T14:21:26Z</time>
      </trkpt>
      <trkpt lat="48.7358120" lon="13.6121590">
        <ele>533.8</ele>
        <time>2019-08-06T14:21:27Z</time>
      </trkpt>
      <trkpt lat="48.7357970" lon="13.6122200">
        <ele>534.0</ele>
        <time>2019-08-06T14:21:28Z</time>
      </trkpt>
      <trkpt lat="48.7357790" lon="13.6122820">
        <ele>534.2</ele>
        <time>2019-08-06T14:21:29Z</time>
      </trkpt>
      <trkpt lat="48.7357620" lon="13.6123420">
        <ele>534.2</ele>
        <time>2019-08-06T14:21:30Z</time>
      </trkpt>
      <trkpt lat="48.7357450" lon="13.6124020">
        <ele>534.4</ele>
        <time>2019-08-06T14:21:31Z</time>
      </trkpt>
      <trkpt lat="48.7357280" lon="13.6124620">
        <ele>534.4</ele>
        <time>2019-08-06T14:21:32Z</time>
      </trkpt>
      <trkpt lat="48.7357110" lon="13.6125200">
        <ele>534.6</ele>
        <time>2019-08-06T14:21:33Z</time>
      </trkpt>
      <trkpt lat="48.7356940" lon="13.6125760">
        <ele>534.8</ele>
        <time>2019-08-06T14:21:34Z</time>
      </trkpt>
      <trkpt lat="48.7356760" lon="13.6126360">
        <ele>534.8</ele>
        <time>2019-08-06T14:21:35Z</time>
      </trkpt>
      <trkpt lat="48.7356580" lon="13.6126960">
        <ele>535.0</ele>
        <time>2019-08-06T14:21:36Z</time>
      </trkpt>
      <trkpt lat="48.7356420" lon="13.6127570">
        <ele>535.2</ele>
        <time>2019-08-06T14:21:37Z</time>
      </trkpt>
      <trkpt lat="48.7356250" lon="13.6128160">
        <ele>535.2</ele>
        <time>2019-08-06T14:21:38Z</time>
      </trkpt>
      <trkpt lat="48.7356080" lon="13.6128770">
        <ele>535.2</ele>
        <time>2019-08-06T14:21:39Z</time>
      </trkpt>
      <trkpt lat="48.7355900" lon="13.6129370">
        <ele>535.4</ele>
        <time>2019-08-06T14:21:40Z</time>
      </trkpt>
      <trkpt lat="48.7355750" lon="13.6129960">
        <ele>535.4</ele>
        <time>2019-08-06T14:21:41Z</time>
      </trkpt>
      <trkpt lat="48.7355600" lon="13.6130570">
        <ele>535.6</ele>
        <time>2019-08-06T14:21:42Z</time>
      </trkpt>
      <trkpt lat="48.7355450" lon="13.6131170">
        <ele>535.8</ele>
        <time>2019-08-06T14:21:43Z</time>
      </trkpt>
      <trkpt lat="48.7355290" lon="13.6131750">
        <ele>535.8</ele>
        <time>2019-08-06T14:21:44Z</time>
      </trkpt>
      <trkpt lat="48.7355140" lon="13.6132310">
        <ele>536.0</ele>
        <time>2019-08-06T14:21:45Z</time>
      </trkpt>
      <trkpt lat="48.7355010" lon="13.6132850">
        <ele>536.2</ele>
        <time>2019-08-06T14:21:46Z</time>
      </trkpt>
      <trkpt lat="48.7354860" lon="13.6133420">
        <ele>536.4</ele>
        <time>2019-08-06T14:21:47Z</time>
      </trkpt>
      <trkpt lat="48.7354740" lon="13.6133980">
        <ele>536.4</ele>
        <time>2019-08-06T14:21:48Z</time>
      </trkpt>
      <trkpt lat="48.7354640" lon="13.6134520">
        <ele>536.6</ele>
        <time>2019-08-06T14:21:49Z</time>
      </trkpt>
      <trkpt lat="48.7354550" lon="13.6135050">
        <ele>536.8</ele>
        <time>2019-08-06T14:21:50Z</time>
      </trkpt>
      <trkpt lat="48.7354440" lon="13.6135620">
        <ele>536.8</ele>
        <time>2019-08-06T14:21:51Z</time>
      </trkpt>
      <trkpt lat="48.7354350" lon="13.6136190">
        <ele>537.0</ele>
        <time>2019-08-06T14:21:52Z</time>
      </trkpt>
      <trkpt lat="48.7354290" lon="13.6136790">
        <ele>537.0</ele>
        <time>2019-08-06T14:21:53Z</time>
      </trkpt>
      <trkpt lat="48.7354190" lon="13.6137430">
        <ele>537.2</ele>
        <time>2019-08-06T14:21:54Z</time>
      </trkpt>
      <trkpt lat="48.7354090" lon="13.6138040">
        <ele>537.4</ele>
        <time>2019-08-06T14:21:55Z</time>
      </trkpt>
      <trkpt lat="48.7354000" lon="13.6138630">
        <ele>537.4</ele>
        <time>2019-08-06T14:21:56Z</time>
      </trkpt>
      <trkpt lat="48.7353940" lon="13.6139230">
        <ele>537.6</ele>
        <time>2019-08-06T14:21:57Z</time>
      </trkpt>
      <trkpt lat="48.7353910" lon="13.6139830">
        <ele>537.8</ele>
        <time>2019-08-06T14:21:58Z</time>
      </trkpt>
      <trkpt lat="48.7353880" lon="13.6140460">
        <ele>537.8</ele>
        <time>2019-08-06T14:21:59Z</time>
      </trkpt>
      <trkpt lat="48.7353830" lon="13.6141080">
        <ele>538.0</ele>
        <time>2019-08-06T14:22:00Z</time>
      </trkpt>
      <trkpt lat="48.7353770" lon="13.6141710">
        <ele>538.0</ele>
        <time>2019-08-06T14:22:01Z</time>
      </trkpt>
      <trkpt lat="48.7353720" lon="13.6142340">
        <ele>538.2</ele>
        <time>2019-08-06T14:22:02Z</time>
      </trkpt>
      <trkpt lat="48.7353700" lon="13.6142920">
        <ele>538.4</ele>
        <time>2019-08-06T14:22:03Z</time>
      </trkpt>
      <trkpt lat="48.7353700" lon="13.6143440">
        <ele>538.6</ele>
        <time>2019-08-06T14:22:04Z</time>
      </trkpt>
      <trkpt lat="48.7353650" lon="13.6144180">
        <ele>538.6</ele>
        <time>2019-08-06T14:22:05Z</time>
      </trkpt>
      <trkpt lat="48.7353660" lon="13.6144770">
        <ele>538.8</ele>
        <time>2019-08-06T14:22:06Z</time>
      </trkpt>
      <trkpt lat="48.7353700" lon="13.6145340">
        <ele>539.0</ele>
        <time>2019-08-06T14:22:07Z</time>
      </trkpt>
      <trkpt lat="48.7353750" lon="13.6145920">
        <ele>539.2</ele>
        <time>2019-08-06T14:22:08Z</time>
      </trkpt>
      <trkpt lat="48.7353790" lon="13.6146500">
        <ele>539.2</ele>
        <time>2019-08-06T14:22:09Z</time>
      </trkpt>
      <trkpt lat="48.7353830" lon="13.6147070">
        <ele>539.4</ele>
        <time>2019-08-06T14:22:10Z</time>
      </trkpt>
      <trkpt lat="48.7353870" lon="13.6147650">
        <ele>539.4</ele>
        <time>2019-08-06T14:22:11Z</time>
      </trkpt>
      <trkpt lat="48.7353920" lon="13.6148280">
        <ele>539.6</ele>
        <time>2019-08-06T14:22:12Z</time>
      </trkpt>
      <trkpt lat="48.7353970" lon="13.6148900">
        <ele>539.6</ele>
        <time>2019-08-06T14:22:13Z</time>
      </trkpt>
      <trkpt lat="48.7354060" lon="13.6149520">
        <ele>539.8</ele>
        <time>2019-08-06T14:22:14Z</time>
      </trkpt>
      <trkpt lat="48.7354150" lon="13.6150130">
        <ele>539.8</ele>
        <time>2019-08-06T14:22:15Z</time>
      </trkpt>
      <trkpt lat="48.7354240" lon="13.6150720">
        <ele>539.8</ele>
        <time>2019-08-06T14:22:16Z</time>
      </trkpt>
      <trkpt lat="48.7354350" lon="13.6151350">
        <ele>540.0</ele>
        <time>2019-08-06T14:22:17Z</time>
      </trkpt>
      <trkpt lat="48.7354480" lon="13.6151980">
        <ele>540.0</ele>
        <time>2019-08-06T14:22:18Z</time>
      </trkpt>
      <trkpt lat="48.7354630" lon="13.6152560">
        <ele>540.0</ele>
        <time>2019-08-06T14:22:19Z</time>
      </trkpt>
      <trkpt lat="48.7354800" lon="13.6153110">
        <ele>540.2</ele>
        <time>2019-08-06T14:22:20Z</time>
      </trkpt>
      <trkpt lat="48.7354970" lon="13.6153680">
        <ele>540.2</ele>
        <time>2019-08-06T14:22:21Z</time>
      </trkpt>
      <trkpt lat="48.7355130" lon="13.6154260">
        <ele>540.2</ele>
        <time>2019-08-06T14:22:22Z</time>
      </trkpt>
      <trkpt lat="48.7355300" lon="13.6154850">
        <ele>540.4</ele>
        <time>2019-08-06T14:22:23Z</time>
      </trkpt>
      <trkpt lat="48.7355470" lon="13.6155400">
        <ele>540.6</ele>
        <time>2019-08-06T14:22:24Z</time>
      </trkpt>
      <trkpt lat="48.7355680" lon="13.6155920">
        <ele>540.6</ele>
        <time>2019-08-06T14:22:25Z</time>
      </trkpt>
      <trkpt lat="48.7355880" lon="13.6156460">
        <ele>540.8</ele>
        <time>2019-08-06T14:22:26Z</time>
      </trkpt>
      <trkpt lat="48.7356100" lon="13.6157020">
        <ele>540.8</ele>
        <time>2019-08-06T14:22:27Z</time>
      </trkpt>
      <trkpt lat="48.7356340" lon="13.6157570">
        <ele>541.0</ele>
        <time>2019-08-06T14:22:28Z</time>
      </trkpt>
      <trkpt lat="48.7356570" lon="13.6158100">
        <ele>541.0</ele>
        <time>2019-08-06T14:22:29Z</time>
      </trkpt>
      <trkpt lat="48.7356800" lon="13.6158690">
        <ele>541.2</ele>
        <time>2019-08-06T14:22:30Z</time>
      </trkpt>
      <trkpt lat="48.7357020" lon="13.6159240">
        <ele>541.4</ele>
        <time>2019-08-06T14:22:31Z</time>
      </trkpt>
      <trkpt lat="48.7357270" lon="13.6159770">
        <ele>541.6</ele>
        <time>2019-08-06T14:22:32Z</time>
      </trkpt>
      <trkpt lat="48.7357510" lon="13.6160290">
        <ele>541.6</ele>
        <time>2019-08-06T14:22:33Z</time>
      </trkpt>
      <trkpt lat="48.7357780" lon="13.6160790">
        <ele>541.8</ele>
        <time>2019-08-06T14:22:34Z</time>
      </trkpt>
      <trkpt lat="48.7358040" lon="13.6161300">
        <ele>541.8</ele>
        <time>2019-08-06T14:22:35Z</time>
      </trkpt>
      <trkpt lat="48.7358290" lon="13.6161820">
        <ele>542.0</ele>
        <time>2019-08-06T14:22:36Z</time>
      </trkpt>
      <trkpt lat="48.7358550" lon="13.6162340">
        <ele>542.2</ele>
        <time>2019-08-06T14:22:37Z</time>
      </trkpt>
      <trkpt lat="48.7358810" lon="13.6162850">
        <ele>542.2</ele>
        <time>2019-08-06T14:22:38Z</time>
      </trkpt>
      <trkpt lat="48.7359060" lon="13.6163330">
        <ele>542.4</ele>
        <time>2019-08-06T14:22:39Z</time>
      </trkpt>
      <trkpt lat="48.7359340" lon="13.6163830">
        <ele>542.4</ele>
        <time>2019-08-06T14:22:40Z</time>
      </trkpt>
      <trkpt lat="48.7359610" lon="13.6164290">
        <ele>542.4</ele>
        <time>2019-08-06T14:22:41Z</time>
      </trkpt>
      <trkpt lat="48.7359850" lon="13.6164780">
        <ele>542.6</ele>
        <time>2019-08-06T14:22:42Z</time>
      </trkpt>
      <trkpt lat="48.7360090" lon="13.6165280">
        <ele>542.6</ele>
        <time>2019-08-06T14:22:43Z</time>
      </trkpt>
      <trkpt lat="48.7360340" lon="13.6165800">
        <ele>542.8</ele>
        <time>2019-08-06T14:22:44Z</time>
      </trkpt>
      <trkpt lat="48.7360580" lon="13.6166310">
        <ele>543.0</ele>
        <time>2019-08-06T14:22:45Z</time>
      </trkpt>
      <trkpt lat="48.7360810" lon="13.6166810">
        <ele>543.0</ele>
        <time>2019-08-06T14:22:46Z</time>
      </trkpt>
      <trkpt lat="48.7361030" lon="13.6167310">
        <ele>543.2</ele>
        <time>2019-08-06T14:22:47Z</time>
      </trkpt>
      <trkpt lat="48.7361240" lon="13.6167840">
        <ele>543.2</ele>
        <time>2019-08-06T14:22:48Z</time>
      </trkpt>
      <trkpt lat="48.7361470" lon="13.6168390">
        <ele>543.4</ele>
        <time>2019-08-06T14:22:49Z</time>
      </trkpt>
      <trkpt lat="48.7361700" lon="13.6168900">
        <ele>543.4</ele>
        <time>2019-08-06T14:22:50Z</time>
      </trkpt>
      <trkpt lat="48.7361920" lon="13.6169440">
        <ele>543.6</ele>
        <time>2019-08-06T14:22:51Z</time>
      </trkpt>
      <trkpt lat="48.7362100" lon="13.6170000">
        <ele>543.6</ele>
        <time>2019-08-06T14:22:52Z</time>
      </trkpt>
      <trkpt lat="48.7362280" lon="13.6170550">
        <ele>543.8</ele>
        <time>2019-08-06T14:22:53Z</time>
      </trkpt>
      <trkpt lat="48.7362450" lon="13.6171110">
        <ele>543.8</ele>
        <time>2019-08-06T14:22:54Z</time>
      </trkpt>
      <trkpt lat="48.7362630" lon="13.6171650">
        <ele>544.0</ele>
        <time>2019-08-06T14:22:55Z</time>
      </trkpt>
      <trkpt lat="48.7362800" lon="13.6172200">
        <ele>544.0</ele>
        <time>2019-08-06T14:22:56Z</time>
      </trkpt>
      <trkpt lat="48.7362960" lon="13.6172740">
        <ele>544.2</ele>
        <time>2019-08-06T14:22:57Z</time>
      </trkpt>
      <trkpt lat="48.7363110" lon="13.6173280">
        <ele>544.4</ele>
        <time>2019-08-06T14:22:58Z</time>
      </trkpt>
      <trkpt lat="48.7363270" lon="13.6173830">
        <ele>544.4</ele>
        <time>2019-08-06T14:22:59Z</time>
      </trkpt>
      <trkpt lat="48.7363400" lon="13.6174390">
        <ele>544.6</ele>
        <time>2019-08-06T14:23:00Z</time>
      </trkpt>
      <trkpt lat="48.7363510" lon="13.6174950">
        <ele>544.6</ele>
        <time>2019-08-06T14:23:01Z</time>
      </trkpt>
      <trkpt lat="48.7363620" lon="13.6175510">
        <ele>544.8</ele>
        <time>2019-08-06T14:23:02Z</time>
      </trkpt>
      <trkpt lat="48.7363730" lon="13.6176060">
        <ele>544.8</ele>
        <time>2019-08-06T14:23:03Z</time>
      </trkpt>
      <trkpt lat="48.7363840" lon="13.6176640">
        <ele>545.0</ele>
        <time>2019-08-06T14:23:04Z</time>
      </trkpt>
      <trkpt lat="48.7363920" lon="13.6177220">
        <ele>545.0</ele>
        <time>2019-08-06T14:23:05Z</time>
      </trkpt>
      <trkpt lat="48.7364000" lon="13.6177820">
        <ele>545.2</ele>
        <time>2019-08-06T14:23:06Z</time>
      </trkpt>
      <trkpt lat="48.7364070" lon="13.6178430">
        <ele>545.2</ele>
        <time>2019-08-06T14:23:07Z</time>
      </trkpt>
      <trkpt lat="48.7364140" lon="13.6179050">
        <ele>545.2</ele>
        <time>2019-08-06T14:23:08Z</time>
      </trkpt>
      <trkpt lat="48.7364190" lon="13.6179660">
        <ele>545.4</ele>
        <time>2019-08-06T14:23:09Z</time>
      </trkpt>
      <trkpt lat="48.7364230" lon="13.6180260">
        <ele>545.4</ele>
        <time>2019-08-06T14:23:10Z</time>
      </trkpt>
      <trkpt lat="48.7364260" lon="13.6180890">
        <ele>545.6</ele>
        <time>2019-08-06T14:23:11Z</time>
      </trkpt>
      <trkpt lat="48.7364280" lon="13.6181510">
        <ele>545.6</ele>
        <time>2019-08-06T14:23:12Z</time>
      </trkpt>
      <trkpt lat="48.7364280" lon="13.6182140">
        <ele>545.8</ele>
        <time>2019-08-06T14:23:13Z</time>
      </trkpt>
      <trkpt lat="48.7364270" lon="13.6182750">
        <ele>545.8</ele>
        <time>2019-08-06T14:23:14Z</time>
      </trkpt>
      <trkpt lat="48.7364270" lon="13.6183370">
        <ele>546.0</ele>
        <time>2019-08-06T14:23:15Z</time>
      </trkpt>
      <trkpt lat="48.7364260" lon="13.6184010">
        <ele>546.0</ele>
        <time>2019-08-06T14:23:16Z</time>
      </trkpt>
      <trkpt lat="48.7364230" lon="13.6184620">
        <ele>546.2</ele>
        <time>2019-08-06T14:23:17Z</time>
      </trkpt>
      <trkpt lat="48.7364200" lon="13.6185260">
        <ele>546.4</ele>
        <time>2019-08-06T14:23:18Z</time>
      </trkpt>
      <trkpt lat="48.7364150" lon="13.6185870">
        <ele>546.4</ele>
        <time>2019-08-06T14:23:19Z</time>
      </trkpt>
      <trkpt lat="48.7364080" lon="13.6186470">
        <ele>546.4</ele>
        <time>2019-08-06T14:23:20Z</time>
      </trkpt>
      <trkpt lat="48.7364010" lon="13.6187090">
        <ele>546.6</ele>
        <time>2019-08-06T14:23:21Z</time>
      </trkpt>
      <trkpt lat="48.7363940" lon="13.6187700">
        <ele>546.6</ele>
        <time>2019-08-06T14:23:22Z</time>
      </trkpt>
      <trkpt lat="48.7363860" lon="13.6188310">
        <ele>546.8</ele>
        <time>2019-08-06T14:23:23Z</time>
      </trkpt>
      <trkpt lat="48.7363760" lon="13.6188920">
        <ele>546.8</ele>
        <time>2019-08-06T14:23:24Z</time>
      </trkpt>
      <trkpt lat="48.7363670" lon="13.6189550">
        <ele>547.0</ele>
        <time>2019-08-06T14:23:25Z</time>
      </trkpt>
      <trkpt lat="48.7363570" lon="13.6190170">
        <ele>547.0</ele>
        <time>2019-08-06T14:23:26Z</time>
      </trkpt>
      <trkpt lat="48.7363450" lon="13.6190790">
        <ele>547.2</ele>
        <time>2019-08-06T14:23:27Z</time>
      </trkpt>
      <trkpt lat="48.7363330" lon="13.6191400">
        <ele>547.2</ele>
        <time>2019-08-06T14:23:28Z</time>
      </trkpt>
      <trkpt lat="48.7363210" lon="13.6192030">
        <ele>547.4</ele>
        <time>2019-08-06T14:23:29Z</time>
      </trkpt>
      <trkpt lat="48.7363080" lon="13.6192650">
        <ele>547.4</ele>
        <time>2019-08-06T14:23:30Z</time>
      </trkpt>
      <trkpt lat="48.7362950" lon="13.6193260">
        <ele>547.6</ele>
        <time>2019-08-06T14:23:31Z</time>
      </trkpt>
      <trkpt lat="48.7362820" lon="13.6193900">
        <ele>547.8</ele>
        <time>2019-08-06T14:23:32Z</time>
      </trkpt>
      <trkpt lat="48.7362710" lon="13.6194510">
        <ele>547.8</ele>
        <time>2019-08-06T14:23:33Z</time>
      </trkpt>
      <trkpt lat="48.7362580" lon="13.6195110">
        <ele>548.0</ele>
        <time>2019-08-06T14:23:34Z</time>
      </trkpt>
      <trkpt lat="48.7362460" lon="13.6195690">
        <ele>548.0</ele>
        <time>2019-08-06T14:23:35Z</time>
      </trkpt>
      <trkpt lat="48.7362330" lon="13.6196240">
        <ele>548.2</ele>
        <time>2019-08-06T14:23:36Z</time>
      </trkpt>
      <trkpt lat="48.7362200" lon="13.6196830">
        <ele>548.4</ele>
        <time>2019-08-06T14:23:37Z</time>
      </trkpt>
      <trkpt lat="48.7362090" lon="13.6197410">
        <ele>548.4</ele>
        <time>2019-08-06T14:23:38Z</time>
      </trkpt>
      <trkpt lat="48.7361980" lon="13.6197970">
        <ele>548.6</ele>
        <time>2019-08-06T14:23:39Z</time>
      </trkpt>
      <trkpt lat="48.7361850" lon="13.6198510">
        <ele>548.8</ele>
        <time>2019-08-06T14:23:40Z</time>
      </trkpt>
      <trkpt lat="48.7361740" lon="13.6199110">
        <ele>548.8</ele>
        <time>2019-08-06T14:23:41Z</time>
      </trkpt>
      <trkpt lat="48.7361610" lon="13.6199720">
        <ele>549.0</ele>
        <time>2019-08-06T14:23:42Z</time>
      </trkpt>
      <trkpt lat="48.7361470" lon="13.6200340">
        <ele>549.2</ele>
        <time>2019-08-06T14:23:43Z</time>
      </trkpt>
      <trkpt lat="48.7361310" lon="13.6200920">
        <ele>549.4</ele>
        <time>2019-08-06T14:23:44Z</time>
      </trkpt>
      <trkpt lat="48.7361160" lon="13.6201490">
        <ele>549.4</ele>
        <time>2019-08-06T14:23:45Z</time>
      </trkpt>
      <trkpt lat="48.7361030" lon="13.6202080">
        <ele>549.6</ele>
        <time>2019-08-06T14:23:46Z</time>
      </trkpt>
      <trkpt lat="48.7360890" lon="13.6202680">
        <ele>549.6</ele>
        <time>2019-08-06T14:23:47Z</time>
      </trkpt>
      <trkpt lat="48.7360740" lon="13.6203260">
        <ele>549.6</ele>
        <time>2019-08-06T14:23:48Z</time>
      </trkpt>
      <trkpt lat="48.7360580" lon="13.6203830">
        <ele>549.8</ele>
        <time>2019-08-06T14:23:49Z</time>
      </trkpt>
      <trkpt lat="48.7360420" lon="13.6204400">
        <ele>549.8</ele>
        <time>2019-08-06T14:23:50Z</time>
      </trkpt>
      <trkpt lat="48.7360270" lon="13.6204980">
        <ele>550.0</ele>
        <time>2019-08-06T14:23:51Z</time>
      </trkpt>
      <trkpt lat="48.7360150" lon="13.6205570">
        <ele>550.0</ele>
        <time>2019-08-06T14:23:52Z</time>
      </trkpt>
      <trkpt lat="48.7360040" lon="13.6206160">
        <ele>550.2</ele>
        <time>2019-08-06T14:23:53Z</time>
      </trkpt>
      <trkpt lat="48.7359930" lon="13.6206740">
        <ele>550.2</ele>
        <time>2019-08-06T14:23:54Z</time>
      </trkpt>
      <trkpt lat="48.7359820" lon="13.6207330">
        <ele>550.4</ele>
        <time>2019-08-06T14:23:55Z</time>
      </trkpt>
      <trkpt lat="48.7359710" lon="13.6207910">
        <ele>550.4</ele>
        <time>2019-08-06T14:23:56Z</time>
      </trkpt>
      <trkpt lat="48.7359600" lon="13.6208490">
        <ele>550.6</ele>
        <time>2019-08-06T14:23:57Z</time>
      </trkpt>
      <trkpt lat="48.7359510" lon="13.6209080">
        <ele>550.6</ele>
        <time>2019-08-06T14:23:58Z</time>
      </trkpt>
      <trkpt lat="48.7359420" lon="13.6209670">
        <ele>550.8</ele>
        <time>2019-08-06T14:23:59Z</time>
      </trkpt>
      <trkpt lat="48.7359340" lon="13.6210260">
        <ele>550.8</ele>
        <time>2019-08-06T14:24:00Z</time>
      </trkpt>
      <trkpt lat="48.7359300" lon="13.6210860">
        <ele>551.0</ele>
        <time>2019-08-06T14:24:01Z</time>
      </trkpt>
      <trkpt lat="48.7359290" lon="13.6211460">
        <ele>551.2</ele>
        <time>2019-08-06T14:24:02Z</time>
      </trkpt>
      <trkpt lat="48.7359270" lon="13.6212040">
        <ele>551.2</ele>
        <time>2019-08-06T14:24:03Z</time>
      </trkpt>
      <trkpt lat="48.7359240" lon="13.6212640">
        <ele>551.4</ele>
        <time>2019-08-06T14:24:04Z</time>
      </trkpt>
      <trkpt lat="48.7359220" lon="13.6213230">
        <ele>551.4</ele>
        <time>2019-08-06T14:24:05Z</time>
      </trkpt>
      <trkpt lat="48.7359220" lon="13.6213810">
        <ele>551.6</ele>
        <time>2019-08-06T14:24:06Z</time>
      </trkpt>
      <trkpt lat="48.7359250" lon="13.6214370">
        <ele>551.8</ele>
        <time>2019-08-06T14:24:07Z</time>
      </trkpt>
      <trkpt lat="48.7359270" lon="13.6214960">
        <ele>551.8</ele>
        <time>2019-08-06T14:24:08Z</time>
      </trkpt>
      <trkpt lat="48.7359280" lon="13.6215590">
        <ele>552.0</ele>
        <time>2019-08-06T14:24:09Z</time>
      </trkpt>
      <trkpt lat="48.7359290" lon="13.6216170">
        <ele>552.0</ele>
        <time>2019-08-06T14:24:10Z</time>
      </trkpt>
      <trkpt lat="48.7359310" lon="13.6216720">
        <ele>552.2</ele>
        <time>2019-08-06T14:24:11Z</time>
      </trkpt>
      <trkpt lat="48.7359330" lon="13.6217270">
        <ele>552.4</ele>
        <time>2019-08-06T14:24:12Z</time>
      </trkpt>
      <trkpt lat="48.7359370" lon="13.6217830">
        <ele>552.6</ele>
        <time>2019-08-06T14:24:13Z</time>
      </trkpt>
      <trkpt lat="48.7359420" lon="13.6218380">
        <ele>552.6</ele>
        <time>2019-08-06T14:24:14Z</time>
      </trkpt>
      <trkpt lat="48.7359440" lon="13.6218920">
        <ele>552.8</ele>
        <time>2019-08-06T14:24:15Z</time>
      </trkpt>
      <trkpt lat="48.7359490" lon="13.6219500">
        <ele>552.8</ele>
        <time>2019-08-06T14:24:16Z</time>
      </trkpt>
      <trkpt lat="48.7359570" lon="13.6220090">
        <ele>553.0</ele>
        <time>2019-08-06T14:24:17Z</time>
      </trkpt>
      <trkpt lat="48.7359650" lon="13.6220670">
        <ele>553.2</ele>
        <time>2019-08-06T14:24:18Z</time>
      </trkpt>
      <trkpt lat="48.7359750" lon="13.6221250">
        <ele>553.4</ele>
        <time>2019-08-06T14:24:19Z</time>
      </trkpt>
      <trkpt lat="48.7359870" lon="13.6221830">
        <ele>553.4</ele>
        <time>2019-08-06T14:24:20Z</time>
      </trkpt>
      <trkpt lat="48.7360010" lon="13.6222410">
        <ele>553.6</ele>
        <time>2019-08-06T14:24:21Z</time>
      </trkpt>
      <trkpt lat="48.7360170" lon="13.6222970">
        <ele>553.8</ele>
        <time>2019-08-06T14:24:22Z</time>
      </trkpt>
      <trkpt lat="48.7360330" lon="13.6223540">
        <ele>553.8</ele>
        <time>2019-08-06T14:24:23Z</time>
      </trkpt>
      <trkpt lat="48.7360500" lon="13.6224100">
        <ele>554.0</ele>
        <time>2019-08-06T14:24:24Z</time>
      </trkpt>
      <trkpt lat="48.7360670" lon="13.6224620">
        <ele>554.2</ele>
        <time>2019-08-06T14:24:25Z</time>
      </trkpt>
      <trkpt lat="48.7360850" lon="13.6225140">
        <ele>554.2</ele>
        <time>2019-08-06T14:24:26Z</time>
      </trkpt>
      <trkpt lat="48.7360990" lon="13.6225660">
        <ele>554.4</ele>
        <time>2019-08-06T14:24:27Z</time>
      </trkpt>
      <trkpt lat="48.7361100" lon="13.6226190">
        <ele>554.4</ele>
        <time>2019-08-06T14:24:28Z</time>
      </trkpt>
      <trkpt lat="48.7361230" lon="13.6226700">
        <ele>554.4</ele>
        <time>2019-08-06T14:24:29Z</time>
      </trkpt>
      <trkpt lat="48.7361430" lon="13.6227200">
        <ele>554.6</ele>
        <time>2019-08-06T14:24:30Z</time>
      </trkpt>
      <trkpt lat="48.7361650" lon="13.6227710">
        <ele>554.8</ele>
        <time>2019-08-06T14:24:31Z</time>
      </trkpt>
      <trkpt lat="48.7361870" lon="13.6228220">
        <ele>554.8</ele>
        <time>2019-08-06T14:24:32Z</time>
      </trkpt>
      <trkpt lat="48.7362090" lon="13.6228700">
        <ele>555.0</ele>
        <time>2019-08-06T14:24:33Z</time>
      </trkpt>
      <trkpt lat="48.7362330" lon="13.6229160">
        <ele>555.0</ele>
        <time>2019-08-06T14:24:34Z</time>
      </trkpt>
      <trkpt lat="48.7362570" lon="13.6229670">
        <ele>555.2</ele>
        <time>2019-08-06T14:24:35Z</time>
      </trkpt>
      <trkpt lat="48.7362800" lon="13.6230170">
        <ele>555.2</ele>
        <time>2019-08-06T14:24:36Z</time>
      </trkpt>
      <trkpt lat="48.7363040" lon="13.6230650">
        <ele>555.4</ele>
        <time>2019-08-06T14:24:37Z</time>
      </trkpt>
      <trkpt lat="48.7363300" lon="13.6231130">
        <ele>555.4</ele>
        <time>2019-08-06T14:24:38Z</time>
      </trkpt>
      <trkpt lat="48.7363540" lon="13.6231620">
        <ele>555.6</ele>
        <time>2019-08-06T14:24:39Z</time>
      </trkpt>
      <trkpt lat="48.7363770" lon="13.6232120">
        <ele>555.6</ele>
        <time>2019-08-06T14:24:40Z</time>
      </trkpt>
      <trkpt lat="48.7364000" lon="13.6232620">
        <ele>555.8</ele>
        <time>2019-08-06T14:24:41Z</time>
      </trkpt>
      <trkpt lat="48.7364240" lon="13.6233080">
        <ele>555.8</ele>
        <time>2019-08-06T14:24:42Z</time>
      </trkpt>
      <trkpt lat="48.7364490" lon="13.6233510">
        <ele>556.0</ele>
        <time>2019-08-06T14:24:43Z</time>
      </trkpt>
      <trkpt lat="48.7364740" lon="13.6233920">
        <ele>556.0</ele>
        <time>2019-08-06T14:24:44Z</time>
      </trkpt>
      <trkpt lat="48.7364980" lon="13.6234330">
        <ele>556.2</ele>
        <time>2019-08-06T14:24:45Z</time>
      </trkpt>
      <trkpt lat="48.7365250" lon="13.6234750">
        <ele>556.2</ele>
        <time>2019-08-06T14:24:46Z</time>
      </trkpt>
      <trkpt lat="48.7365540" lon="13.6235220">
        <ele>556.2</ele>
        <time>2019-08-06T14:24:47Z</time>
      </trkpt>
      <trkpt lat="48.7365810" lon="13.6235710">
        <ele>556.4</ele>
        <time>2019-08-06T14:24:48Z</time>
      </trkpt>
      <trkpt lat="48.7366070" lon="13.6236250">
        <ele>556.6</ele>
        <time>2019-08-06T14:24:49Z</time>
      </trkpt>
      <trkpt lat="48.7366330" lon="13.6236780">
        <ele>556.6</ele>
        <time>2019-08-06T14:24:50Z</time>
      </trkpt>
      <trkpt lat="48.7366600" lon="13.6237310">
        <ele>556.8</ele>
        <time>2019-08-06T14:24:51Z</time>
      </trkpt>
      <trkpt lat="48.7366860" lon="13.6237810">
        <ele>556.8</ele>
        <time>2019-08-06T14:24:52Z</time>
      </trkpt>
      <trkpt lat="48.7367110" lon="13.6238290">
        <ele>557.0</ele>
        <time>2019-08-06T14:24:53Z</time>
      </trkpt>
      <trkpt lat="48.7367360" lon="13.6238780">
        <ele>557.0</ele>
        <time>2019-08-06T14:24:54Z</time>
      </trkpt>
      <trkpt lat="48.7367600" lon="13.6239290">
        <ele>557.0</ele>
        <time>2019-08-06T14:24:55Z</time>
      </trkpt>
      <trkpt lat="48.7367850" lon="13.6239840">
        <ele>557.2</ele>
        <time>2019-08-06T14:24:56Z</time>
      </trkpt>
      <trkpt lat="48.7368110" lon="13.6240410">
        <ele>557.2</ele>
        <time>2019-08-06T14:24:57Z</time>
      </trkpt>
      <trkpt lat="48.7368350" lon="13.6240940">
        <ele>557.4</ele>
        <time>2019-08-06T14:24:58Z</time>
      </trkpt>
      <trkpt lat="48.7368590" lon="13.6241440">
        <ele>557.4</ele>
        <time>2019-08-06T14:24:59Z</time>
      </trkpt>
      <trkpt lat="48.7368800" lon="13.6241930">
        <ele>557.6</ele>
        <time>2019-08-06T14:25:00Z</time>
      </trkpt>
      <trkpt lat="48.7368990" lon="13.6242460">
        <ele>557.6</ele>
        <time>2019-08-06T14:25:01Z</time>
      </trkpt>
      <trkpt lat="48.7369170" lon="13.6243040">
        <ele>557.6</ele>
        <time>2019-08-06T14:25:02Z</time>
      </trkpt>
      <trkpt lat="48.7369320" lon="13.6243620">
        <ele>557.8</ele>
        <time>2019-08-06T14:25:03Z</time>
      </trkpt>
      <trkpt lat="48.7369460" lon="13.6244220">
        <ele>557.8</ele>
        <time>2019-08-06T14:25:04Z</time>
      </trkpt>
      <trkpt lat="48.7369610" lon="13.6244830">
        <ele>558.0</ele>
        <time>2019-08-06T14:25:05Z</time>
      </trkpt>
      <trkpt lat="48.7369730" lon="13.6245430">
        <ele>558.0</ele>
        <time>2019-08-06T14:25:06Z</time>
      </trkpt>
      <trkpt lat="48.7369840" lon="13.6246040">
        <ele>558.0</ele>
        <time>2019-08-06T14:25:07Z</time>
      </trkpt>
      <trkpt lat="48.7369950" lon="13.6246670">
        <ele>558.2</ele>
        <time>2019-08-06T14:25:08Z</time>
      </trkpt>
      <trkpt lat="48.7370050" lon="13.6247300">
        <ele>558.2</ele>
        <time>2019-08-06T14:25:09Z</time>
      </trkpt>
      <trkpt lat="48.7370140" lon="13.6247950">
        <ele>558.4</ele>
        <time>2019-08-06T14:25:10Z</time>
      </trkpt>
      <trkpt lat="48.7370220" lon="13.6248610">
        <ele>558.4</ele>
        <time>2019-08-06T14:25:11Z</time>
      </trkpt>
      <trkpt lat="48.7370290" lon="13.6249290">
        <ele>558.6</ele>
        <time>2019-08-06T14:25:12Z</time>
      </trkpt>
      <trkpt lat="48.7370360" lon="13.6249970">
        <ele>558.6</ele>
        <time>2019-08-06T14:25:13Z</time>
      </trkpt>
      <trkpt lat="48.7370420" lon="13.6250660">
        <ele>558.8</ele>
        <time>2019-08-06T14:25:14Z</time>
      </trkpt>
      <trkpt lat="48.7370460" lon="13.6251350">
        <ele>558.8</ele>
        <time>2019-08-06T14:25:15Z</time>
      </trkpt>
      <trkpt lat="48.7370520" lon="13.6252040">
        <ele>559.0</ele>
        <time>2019-08-06T14:25:16Z</time>
      </trkpt>
      <trkpt lat="48.7370560" lon="13.6252700">
        <ele>559.0</ele>
        <time>2019-08-06T14:25:17Z</time>
      </trkpt>
      <trkpt lat="48.7370580" lon="13.6253370">
        <ele>559.2</ele>
        <time>2019-08-06T14:25:18Z</time>
      </trkpt>
      <trkpt lat="48.7370580" lon="13.6254030">
        <ele>559.2</ele>
        <time>2019-08-06T14:25:19Z</time>
      </trkpt>
      <trkpt lat="48.7370580" lon="13.6254700">
        <ele>559.4</ele>
        <time>2019-08-06T14:25:20Z</time>
      </trkpt>
      <trkpt lat="48.7370570" lon="13.6255360">
        <ele>559.4</ele>
        <time>2019-08-06T14:25:21Z</time>
      </trkpt>
      <trkpt lat="48.7370540" lon="13.6256040">
        <ele>559.6</ele>
        <time>2019-08-06T14:25:22Z</time>
      </trkpt>
      <trkpt lat="48.7370500" lon="13.6256700">
        <ele>559.8</ele>
        <time>2019-08-06T14:25:23Z</time>
      </trkpt>
      <trkpt lat="48.7370450" lon="13.6257370">
        <ele>559.8</ele>
        <time>2019-08-06T14:25:24Z</time>
      </trkpt>
      <trkpt lat="48.7370380" lon="13.6258030">
        <ele>560.0</ele>
        <time>2019-08-06T14:25:25Z</time>
      </trkpt>
      <trkpt lat="48.7370310" lon="13.6258690">
        <ele>560.0</ele>
        <time>2019-08-06T14:25:26Z</time>
      </trkpt>
      <trkpt lat="48.7370250" lon="13.6259340">
        <ele>560.0</ele>
        <time>2019-08-06T14:25:27Z</time>
      </trkpt>
      <trkpt lat="48.7370180" lon="13.6259970">
        <ele>560.2</ele>
        <time>2019-08-06T14:25:28Z</time>
      </trkpt>
      <trkpt lat="48.7370090" lon="13.6260600">
        <ele>560.2</ele>
        <time>2019-08-06T14:25:29Z</time>
      </trkpt>
      <trkpt lat="48.7369990" lon="13.6261270">
        <ele>560.4</ele>
        <time>2019-08-06T14:25:30Z</time>
      </trkpt>
      <trkpt lat="48.7369890" lon="13.6261900">
        <ele>560.6</ele>
        <time>2019-08-06T14:25:31Z</time>
      </trkpt>
      <trkpt lat="48.7369780" lon="13.6262510">
        <ele>560.6</ele>
        <time>2019-08-06T14:25:32Z</time>
      </trkpt>
      <trkpt lat="48.7369670" lon="13.6263130">
        <ele>560.8</ele>
        <time>2019-08-06T14:25:33Z</time>
      </trkpt>
      <trkpt lat="48.7369540" lon="13.6263710">
        <ele>561.0</ele>
        <time>2019-08-06T14:25:34Z</time>
      </trkpt>
      <trkpt lat="48.7369390" lon="13.6264310">
        <ele>561.0</ele>
        <time>2019-08-06T14:25:35Z</time>
      </trkpt>
      <trkpt lat="48.7369230" lon="13.6264880">
        <ele>561.2</ele>
        <time>2019-08-06T14:25:36Z</time>
      </trkpt>
      <trkpt lat="48.7369070" lon="13.6265480">
        <ele>561.4</ele>
        <time>2019-08-06T14:25:37Z</time>
      </trkpt>
      <trkpt lat="48.7368900" lon="13.6266100">
        <ele>561.4</ele>
        <time>2019-08-06T14:25:38Z</time>
      </trkpt>
      <trkpt lat="48.7368720" lon="13.6266690">
        <ele>561.6</ele>
        <time>2019-08-06T14:25:39Z</time>
      </trkpt>
      <trkpt lat="48.7368520" lon="13.6267260">
        <ele>561.6</ele>
        <time>2019-08-06T14:25:40Z</time>
      </trkpt>
      <trkpt lat="48.7368310" lon="13.6267840">
        <ele>561.8</ele>
        <time>2019-08-06T14:25:41Z</time>
      </trkpt>
      <trkpt lat="48.7368110" lon="13.6268440">
        <ele>561.8</ele>
        <time>2019-08-06T14:25:42Z</time>
      </trkpt>
      <trkpt lat="48.7367910" lon="13.6269050">
        <ele>562.0</ele>
        <time>2019-08-06T14:25:43Z</time>
      </trkpt>
      <trkpt lat="48.7367710" lon="13.6269580">
        <ele>562.2</ele>
        <time>2019-08-06T14:25:44Z</time>
      </trkpt>
      <trkpt lat="48.7367530" lon="13.6270040">
        <ele>562.2</ele>
        <time>2019-08-06T14:25:45Z</time>
      </trkpt>
      <trkpt lat="48.7367330" lon="13.6270490">
        <ele>562.4</ele>
        <time>2019-08-06T14:25:46Z</time>
      </trkpt>
      <trkpt lat="48.7367090" lon="13.6270950">
        <ele>562.4</ele>
        <time>2019-08-06T14:25:47Z</time>
      </trkpt>
      <trkpt lat="48.7366850" lon="13.6271380">
        <ele>562.6</ele>
        <time>2019-08-06T14:25:48Z</time>
      </trkpt>
      <trkpt lat="48.7366640" lon="13.6271790">
        <ele>562.6</ele>
        <time>2019-08-06T14:25:49Z</time>
      </trkpt>
      <trkpt lat="48.7366430" lon="13.6272230">
        <ele>562.8</ele>
        <time>2019-08-06T14:25:50Z</time>
      </trkpt>
      <trkpt lat="48.7366200" lon="13.6272700">
        <ele>562.8</ele>
        <time>2019-08-06T14:25:51Z</time>
      </trkpt>
      <trkpt lat="48.7365970" lon="13.6273130">
        <ele>562.8</ele>
        <time>2019-08-06T14:25:52Z</time>
      </trkpt>
      <trkpt lat="48.7365720" lon="13.6273570">
        <ele>563.0</ele>
        <time>2019-08-06T14:25:53Z</time>
      </trkpt>
      <trkpt lat="48.7365430" lon="13.6273970">
        <ele>563.2</ele>
        <time>2019-08-06T14:25:54Z</time>
      </trkpt>
      <trkpt lat="48.7365140" lon="13.6274400">
        <ele>563.2</ele>
        <time>2019-08-06T14:25:55Z</time>
      </trkpt>
      <trkpt lat="48.7364820" lon="13.6274840">
        <ele>563.4</ele>
        <time>2019-08-06T14:25:56Z</time>
      </trkpt>
      <trkpt lat="48.7364470" lon="13.6275340">
        <ele>563.6</ele>
        <time>2019-08-06T14:25:57Z</time>
      </trkpt>
      <trkpt lat="48.7364090" lon="13.6275830">
        <ele>563.6</ele>
        <time>2019-08-06T14:25:58Z</time>
      </trkpt>
      <trkpt lat="48.7363740" lon="13.6276340">
        <ele>563.8</ele>
        <time>2019-08-06T14:25:59Z</time>
      </trkpt>
      <trkpt lat="48.7363380" lon="13.6276870">
        <ele>564.0</ele>
        <time>2019-08-06T14:26:00Z</time>
      </trkpt>
      <trkpt lat="48.7363030" lon="13.6277360">
        <ele>564.0</ele>
        <time>2019-08-06T14:26:01Z</time>
      </trkpt>
      <trkpt lat="48.7362710" lon="13.6277820">
        <ele>564.2</ele>
        <time>2019-08-06T14:26:02Z</time>
      </trkpt>
      <trkpt lat="48.7362380" lon="13.6278270">
        <ele>564.4</ele>
        <time>2019-08-06T14:26:03Z</time>
      </trkpt>
      <trkpt lat="48.7362060" lon="13.6278740">
        <ele>564.4</ele>
        <time>2019-08-06T14:26:04Z</time>
      </trkpt>
      <trkpt lat="48.7361760" lon="13.6279230">
        <ele>564.6</ele>
        <time>2019-08-06T14:26:05Z</time>
      </trkpt>
      <trkpt lat="48.7361450" lon="13.6279710">
        <ele>564.6</ele>
        <time>2019-08-06T14:26:06Z</time>
      </trkpt>
      <trkpt lat="48.7361120" lon="13.6280200">
        <ele>564.6</ele>
        <time>2019-08-06T14:26:07Z</time>
      </trkpt>
      <trkpt lat="48.7360830" lon="13.6280700">
        <ele>564.8</ele>
        <time>2019-08-06T14:26:08Z</time>
      </trkpt>
      <trkpt lat="48.7360520" lon="13.6281180">
        <ele>564.8</ele>
        <time>2019-08-06T14:26:09Z</time>
      </trkpt>
      <trkpt lat="48.7360200" lon="13.6281680">
        <ele>565.0</ele>
        <time>2019-08-06T14:26:10Z</time>
      </trkpt>
      <trkpt lat="48.7359900" lon="13.6282150">
        <ele>565.0</ele>
        <time>2019-08-06T14:26:11Z</time>
      </trkpt>
      <trkpt lat="48.7359620" lon="13.6282650">
        <ele>565.2</ele>
        <time>2019-08-06T14:26:12Z</time>
      </trkpt>
      <trkpt lat="48.7359330" lon="13.6283150">
        <ele>565.4</ele>
        <time>2019-08-06T14:26:13Z</time>
      </trkpt>
      <trkpt lat="48.7359040" lon="13.6283620">
        <ele>565.4</ele>
        <time>2019-08-06T14:26:14Z</time>
      </trkpt>
      <trkpt lat="48.7358750" lon="13.6284080">
        <ele>565.6</ele>
        <time>2019-08-06T14:26:15Z</time>
      </trkpt>
      <trkpt lat="48.7358470" lon="13.6284540">
        <ele>565.6</ele>
        <time>2019-08-06T14:26:16Z</time>
      </trkpt>
      <trkpt lat="48.7358180" lon="13.6285030">
        <ele>565.8</ele>
        <time>2019-08-06T14:26:17Z</time>
      </trkpt>
      <trkpt lat="48.7357880" lon="13.6285510">
        <ele>565.8</ele>
        <time>2019-08-06T14:26:18Z</time>
      </trkpt>
      <trkpt lat="48.7357610" lon="13.6285970">
        <ele>566.0</ele>
        <time>2019-08-06T14:26:19Z</time>
      </trkpt>
      <trkpt lat="48.7357350" lon="13.6286440">
        <ele>566.2</ele>
        <time>2019-08-06T14:26:20Z</time>
      </trkpt>
      <trkpt lat="48.7357070" lon="13.6286930">
        <ele>566.2</ele>
        <time>2019-08-06T14:26:21Z</time>
      </trkpt>
      <trkpt lat="48.7356800" lon="13.6287430">
        <ele>566.4</ele>
        <time>2019-08-06T14:26:22Z</time>
      </trkpt>
      <trkpt lat="48.7356510" lon="13.6287910">
        <ele>566.6</ele>
        <time>2019-08-06T14:26:23Z</time>
      </trkpt>
      <trkpt lat="48.7356210" lon="13.6288400">
        <ele>566.6</ele>
        <time>2019-08-06T14:26:24Z</time>
      </trkpt>
      <trkpt lat="48.7355930" lon="13.6288880">
        <ele>566.8</ele>
        <time>2019-08-06T14:26:25Z</time>
      </trkpt>
      <trkpt lat="48.7355650" lon="13.6289370">
        <ele>567.0</ele>
        <time>2019-08-06T14:26:26Z</time>
      </trkpt>
      <trkpt lat="48.7355370" lon="13.6289860">
        <ele>567.0</ele>
        <time>2019-08-06T14:26:27Z</time>
      </trkpt>
      <trkpt lat="48.7355100" lon="13.6290350">
        <ele>567.2</ele>
        <time>2019-08-06T14:26:28Z</time>
      </trkpt>
      <trkpt lat="48.7354810" lon="13.6290830">
        <ele>567.2</ele>
        <time>2019-08-06T14:26:29Z</time>
      </trkpt>
      <trkpt lat="48.7354540" lon="13.6291310">
        <ele>567.4</ele>
        <time>2019-08-06T14:26:30Z</time>
      </trkpt>
      <trkpt lat="48.7354280" lon="13.6291820">
        <ele>567.4</ele>
        <time>2019-08-06T14:26:31Z</time>
      </trkpt>
      <trkpt lat="48.7354030" lon="13.6292340">
        <ele>567.6</ele>
        <time>2019-08-06T14:26:32Z</time>
      </trkpt>
      <trkpt lat="48.7353790" lon="13.6292870">
        <ele>567.6</ele>
        <time>2019-08-06T14:26:33Z</time>
      </trkpt>
      <trkpt lat="48.7353550" lon="13.6293380">
        <ele>567.8</ele>
        <time>2019-08-06T14:26:34Z</time>
      </trkpt>
      <trkpt lat="48.7353310" lon="13.6293880">
        <ele>567.8</ele>
        <time>2019-08-06T14:26:35Z</time>
      </trkpt>
      <trkpt lat="48.7353060" lon="13.6294390">
        <ele>568.0</ele>
        <time>2019-08-06T14:26:36Z</time>
      </trkpt>
      <trkpt lat="48.7352830" lon="13.6294910">
        <ele>568.0</ele>
        <time>2019-08-06T14:26:37Z</time>
      </trkpt>
      <trkpt lat="48.7352620" lon="13.6295420">
        <ele>568.2</ele>
        <time>2019-08-06T14:26:38Z</time>
      </trkpt>
      <trkpt lat="48.7352400" lon="13.6295910">
        <ele>568.2</ele>
        <time>2019-08-06T14:26:39Z</time>
      </trkpt>
      <trkpt lat="48.7352190" lon="13.6296400">
        <ele>568.4</ele>
        <time>2019-08-06T14:26:40Z</time>
      </trkpt>
      <trkpt lat="48.7352000" lon="13.6296870">
        <ele>568.4</ele>
        <time>2019-08-06T14:26:41Z</time>
      </trkpt>
      <trkpt lat="48.7351820" lon="13.6297330">
        <ele>568.4</ele>
        <time>2019-08-06T14:26:42Z</time>
      </trkpt>
      <trkpt lat="48.7351680" lon="13.6297770">
        <ele>568.6</ele>
        <time>2019-08-06T14:26:43Z</time>
      </trkpt>
      <trkpt lat="48.7351620" lon="13.6298170">
        <ele>568.6</ele>
        <time>2019-08-06T14:26:44Z</time>
      </trkpt>
      <trkpt lat="48.7351650" lon="13.6298530">
        <ele>568.6</ele>
        <time>2019-08-06T14:26:45Z</time>
      </trkpt>
      <trkpt lat="48.7351790" lon="13.6298830">
        <ele>568.8</ele>
        <time>2019-08-06T14:26:46Z</time>
      </trkpt>
      <trkpt lat="48.7352020" lon="13.6299030">
        <ele>568.8</ele>
        <time>2019-08-06T14:26:47Z</time>
      </trkpt>
      <trkpt lat="48.7352300" lon="13.6299240">
        <ele>568.8</ele>
        <time>2019-08-06T14:26:48Z</time>
      </trkpt>
      <trkpt lat="48.7352590" lon="13.6299430">
        <ele>569.0</ele>
        <time>2019-08-06T14:26:49Z</time>
      </trkpt>
      <trkpt lat="48.7352890" lon="13.6299640">
        <ele>569.0</ele>
        <time>2019-08-06T14:26:50Z</time>
      </trkpt>
      <trkpt lat="48.7353180" lon="13.6299880">
        <ele>569.2</ele>
        <time>2019-08-06T14:26:51Z</time>
      </trkpt>
      <trkpt lat="48.7353440" lon="13.6300130">
        <ele>569.4</ele>
        <time>2019-08-06T14:26:52Z</time>
      </trkpt>
      <trkpt lat="48.7353680" lon="13.6300380">
        <ele>569.6</ele>
        <time>2019-08-06T14:26:53Z</time>
      </trkpt>
      <trkpt lat="48.7353850" lon="13.6300660">
        <ele>569.6</ele>
        <time>2019-08-06T14:26:54Z</time>
      </trkpt>
      <trkpt lat="48.7353950" lon="13.6300990">
        <ele>569.8</ele>
        <time>2019-08-06T14:26:55Z</time>
      </trkpt>
      <trkpt lat="48.7353950" lon="13.6301340">
        <ele>569.8</ele>
        <time>2019-08-06T14:26:56Z</time>
      </trkpt>
      <trkpt lat="48.7353870" lon="13.6301760">
        <ele>569.8</ele>
        <time>2019-08-06T14:26:57Z</time>
      </trkpt>
      <trkpt lat="48.7353730" lon="13.6302230">
        <ele>569.8</ele>
        <time>2019-08-06T14:26:58Z</time>
      </trkpt>
      <trkpt lat="48.7353510" lon="13.6302770">
        <ele>569.8</ele>
        <time>2019-08-06T14:26:59Z</time>
      </trkpt>
      <trkpt lat="48.7353220" lon="13.6303360">
        <ele>569.6</ele>
        <time>2019-08-06T14:27:00Z</time>
      </trkpt>
      <trkpt lat="48.7352860" lon="13.6303950">
        <ele>569.4</ele>
        <time>2019-08-06T14:27:01Z</time>
      </trkpt>
      <trkpt lat="48.7352440" lon="13.6304480">
        <ele>569.2</ele>
        <time>2019-08-06T14:27:02Z</time>
      </trkpt>
      <trkpt lat="48.7351940" lon="13.6304940">
        <ele>569.0</ele>
        <time>2019-08-06T14:27:03Z</time>
      </trkpt>
      <trkpt lat="48.7351410" lon="13.6305320">
        <ele>568.8</ele>
        <time>2019-08-06T14:27:04Z</time>
      </trkpt>
      <trkpt lat="48.7350850" lon="13.6305680">
        <ele>568.6</ele>
        <time>2019-08-06T14:27:05Z</time>
      </trkpt>
      <trkpt lat="48.7350290" lon="13.6306100">
        <ele>568.6</ele>
        <time>2019-08-06T14:27:06Z</time>
      </trkpt>
      <trkpt lat="48.7349800" lon="13.6306640">
        <ele>568.4</ele>
        <time>2019-08-06T14:27:07Z</time>
      </trkpt>
      <trkpt lat="48.7349380" lon="13.6307300">
        <ele>568.6</ele>
        <time>2019-08-06T14:27:08Z</time>
      </trkpt>
      <trkpt lat="48.7349050" lon="13.6308020">
        <ele>568.6</ele>
        <time>2019-08-06T14:27:09Z</time>
      </trkpt>
      <trkpt lat="48.7348790" lon="13.6308730">
        <ele>568.6</ele>
        <time>2019-08-06T14:27:10Z</time>
      </trkpt>
      <trkpt lat="48.7348550" lon="13.6309390">
        <ele>568.8</ele>
        <time>2019-08-06T14:27:11Z</time>
      </trkpt>
      <trkpt lat="48.7348320" lon="13.6310020">
        <ele>569.0</ele>
        <time>2019-08-06T14:27:12Z</time>
      </trkpt>
      <trkpt lat="48.7348110" lon="13.6310620">
        <ele>569.2</ele>
        <time>2019-08-06T14:27:13Z</time>
      </trkpt>
      <trkpt lat="48.7347920" lon="13.6311180">
        <ele>569.4</ele>
        <time>2019-08-06T14:27:14Z</time>
      </trkpt>
      <trkpt lat="48.7347740" lon="13.6311730">
        <ele>569.6</ele>
        <time>2019-08-06T14:27:15Z</time>
      </trkpt>
      <trkpt lat="48.7347590" lon="13.6312280">
        <ele>569.8</ele>
        <time>2019-08-06T14:27:16Z</time>
      </trkpt>
      <trkpt lat="48.7347460" lon="13.6312800">
        <ele>570.0</ele>
        <time>2019-08-06T14:27:17Z</time>
      </trkpt>
      <trkpt lat="48.7347320" lon="13.6313330">
        <ele>570.2</ele>
        <time>2019-08-06T14:27:18Z</time>
      </trkpt>
      <trkpt lat="48.7347150" lon="13.6313860">
        <ele>570.6</ele>
        <time>2019-08-06T14:27:19Z</time>
      </trkpt>
      <trkpt lat="48.7346980" lon="13.6314370">
        <ele>570.8</ele>
        <time>2019-08-06T14:27:20Z</time>
      </trkpt>
      <trkpt lat="48.7346820" lon="13.6314870">
        <ele>571.0</ele>
        <time>2019-08-06T14:27:21Z</time>
      </trkpt>
      <trkpt lat="48.7346680" lon="13.6315370">
        <ele>571.2</ele>
        <time>2019-08-06T14:27:22Z</time>
      </trkpt>
      <trkpt lat="48.7346540" lon="13.6315860">
        <ele>571.6</ele>
        <time>2019-08-06T14:27:23Z</time>
      </trkpt>
      <trkpt lat="48.7346390" lon="13.6316360">
        <ele>571.8</ele>
        <time>2019-08-06T14:27:24Z</time>
      </trkpt>
      <trkpt lat="48.7346250" lon="13.6316850">
        <ele>572.0</ele>
        <time>2019-08-06T14:27:25Z</time>
      </trkpt>
      <trkpt lat="48.7346110" lon="13.6317350">
        <ele>572.2</ele>
        <time>2019-08-06T14:27:26Z</time>
      </trkpt>
      <trkpt lat="48.7345960" lon="13.6317830">
        <ele>572.4</ele>
        <time>2019-08-06T14:27:27Z</time>
      </trkpt>
      <trkpt lat="48.7345780" lon="13.6318290">
        <ele>572.6</ele>
        <time>2019-08-06T14:27:28Z</time>
      </trkpt>
      <trkpt lat="48.7345570" lon="13.6318700">
        <ele>572.8</ele>
        <time>2019-08-06T14:27:29Z</time>
      </trkpt>
      <trkpt lat="48.7345360" lon="13.6319080">
        <ele>573.0</ele>
        <time>2019-08-06T14:27:30Z</time>
      </trkpt>
      <trkpt lat="48.7345160" lon="13.6319540">
        <ele>573.2</ele>
        <time>2019-08-06T14:27:31Z</time>
      </trkpt>
      <trkpt lat="48.7345000" lon="13.6320070">
        <ele>573.2</ele>
        <time>2019-08-06T14:27:32Z</time>
      </trkpt>
      <trkpt lat="48.7344880" lon="13.6320630">
        <ele>573.2</ele>
        <time>2019-08-06T14:27:33Z</time>
      </trkpt>
      <trkpt lat="48.7344760" lon="13.6321210">
        <ele>573.4</ele>
        <time>2019-08-06T14:27:34Z</time>
      </trkpt>
      <trkpt lat="48.7344660" lon="13.6321770">
        <ele>573.4</ele>
        <time>2019-08-06T14:27:35Z</time>
      </trkpt>
      <trkpt lat="48.7344570" lon="13.6322320">
        <ele>573.6</ele>
        <time>2019-08-06T14:27:36Z</time>
      </trkpt>
      <trkpt lat="48.7344500" lon="13.6322890">
        <ele>573.6</ele>
        <time>2019-08-06T14:27:37Z</time>
      </trkpt>
      <trkpt lat="48.7344440" lon="13.6323450">
        <ele>573.8</ele>
        <time>2019-08-06T14:27:38Z</time>
      </trkpt>
      <trkpt lat="48.7344390" lon="13.6324010">
        <ele>573.8</ele>
        <time>2019-08-06T14:27:39Z</time>
      </trkpt>
      <trkpt lat="48.7344360" lon="13.6324580">
        <ele>574.0</ele>
        <time>2019-08-06T14:27:40Z</time>
      </trkpt>
      <trkpt lat="48.7344320" lon="13.6325170">
        <ele>574.0</ele>
        <time>2019-08-06T14:27:41Z</time>
      </trkpt>
      <trkpt lat="48.7344270" lon="13.6325760">
        <ele>574.2</ele>
        <time>2019-08-06T14:27:42Z</time>
      </trkpt>
      <trkpt lat="48.7344240" lon="13.6326350">
        <ele>574.2</ele>
        <time>2019-08-06T14:27:43Z</time>
      </trkpt>
      <trkpt lat="48.7344210" lon="13.6326930">
        <ele>574.4</ele>
        <time>2019-08-06T14:27:44Z</time>
      </trkpt>
      <trkpt lat="48.7344190" lon="13.6327520">
        <ele>574.4</ele>
        <time>2019-08-06T14:27:45Z</time>
      </trkpt>
      <trkpt lat="48.7344190" lon="13.6328110">
        <ele>574.6</ele>
        <time>2019-08-06T14:27:46Z</time>
      </trkpt>
      <trkpt lat="48.7344220" lon="13.6328690">
        <ele>574.6</ele>
        <time>2019-08-06T14:27:47Z</time>
      </trkpt>
      <trkpt lat="48.7344240" lon="13.6329260">
        <ele>574.8</ele>
        <time>2019-08-06T14:27:48Z</time>
      </trkpt>
      <trkpt lat="48.7344250" lon="13.6329850">
        <ele>574.8</ele>
        <time>2019-08-06T14:27:49Z</time>
      </trkpt>
      <trkpt lat="48.7344250" lon="13.6330450">
        <ele>575.0</ele>
        <time>2019-08-06T14:27:50Z</time>
      </trkpt>
      <trkpt lat="48.7344250" lon="13.6331040">
        <ele>575.0</ele>
        <time>2019-08-06T14:27:51Z</time>
      </trkpt>
      <trkpt lat="48.7344250" lon="13.6331620">
        <ele>575.0</ele>
        <time>2019-08-06T14:27:52Z</time>
      </trkpt>
      <trkpt lat="48.7344240" lon="13.6332210">
        <ele>575.2</ele>
        <time>2019-08-06T14:27:53Z</time>
      </trkpt>
      <trkpt lat="48.7344250" lon="13.6332800">
        <ele>575.4</ele>
        <time>2019-08-06T14:27:54Z</time>
      </trkpt>
      <trkpt lat="48.7344250" lon="13.6333370">
        <ele>575.4</ele>
        <time>2019-08-06T14:27:55Z</time>
      </trkpt>
      <trkpt lat="48.7344250" lon="13.6333970">
        <ele>575.6</ele>
        <time>2019-08-06T14:27:56Z</time>
      </trkpt>
      <trkpt lat="48.7344230" lon="13.6334560">
        <ele>575.6</ele>
        <time>2019-08-06T14:27:57Z</time>
      </trkpt>
      <trkpt lat="48.7344210" lon="13.6335150">
        <ele>575.8</ele>
        <time>2019-08-06T14:27:58Z</time>
      </trkpt>
      <trkpt lat="48.7344180" lon="13.6335750">
        <ele>576.0</ele>
        <time>2019-08-06T14:27:59Z</time>
      </trkpt>
      <trkpt lat="48.7344140" lon="13.6336330">
        <ele>576.0</ele>
        <time>2019-08-06T14:28:00Z</time>
      </trkpt>
      <trkpt lat="48.7344100" lon="13.6336920">
        <ele>576.0</ele>
        <time>2019-08-06T14:28:01Z</time>
      </trkpt>
      <trkpt lat="48.7344030" lon="13.6337510">
        <ele>576.2</ele>
        <time>2019-08-06T14:28:02Z</time>
      </trkpt>
      <trkpt lat="48.7343980" lon="13.6338090">
        <ele>576.2</ele>
        <time>2019-08-06T14:28:03Z</time>
      </trkpt>
      <trkpt lat="48.7343910" lon="13.6338680">
        <ele>576.2</ele>
        <time>2019-08-06T14:28:04Z</time>
      </trkpt>
      <trkpt lat="48.7343850" lon="13.6339260">
        <ele>576.4</ele>
        <time>2019-08-06T14:28:05Z</time>
      </trkpt>
      <trkpt lat="48.7343780" lon="13.6339840">
        <ele>576.4</ele>
        <time>2019-08-06T14:28:06Z</time>
      </trkpt>
      <trkpt lat="48.7343700" lon="13.6340400">
        <ele>576.6</ele>
        <time>2019-08-06T14:28:07Z</time>
      </trkpt>
      <trkpt lat="48.7343600" lon="13.6340970">
        <ele>576.6</ele>
        <time>2019-08-06T14:28:08Z</time>
      </trkpt>
      <trkpt lat="48.7343500" lon="13.6341530">
        <ele>576.8</ele>
        <time>2019-08-06T14:28:09Z</time>
      </trkpt>
      <trkpt lat="48.7343380" lon="13.6342070">
        <ele>576.8</ele>
        <time>2019-08-06T14:28:10Z</time>
      </trkpt>
      <trkpt lat="48.7343240" lon="13.6342630">
        <ele>577.0</ele>
        <time>2019-08-06T14:28:11Z</time>
      </trkpt>
      <trkpt lat="48.7343100" lon="13.6343180">
        <ele>577.0</ele>
        <time>2019-08-06T14:28:12Z</time>
      </trkpt>
      <trkpt lat="48.7342950" lon="13.6343730">
        <ele>577.2</ele>
        <time>2019-08-06T14:28:13Z</time>
      </trkpt>
      <trkpt lat="48.7342800" lon="13.6344260">
        <ele>577.2</ele>
        <time>2019-08-06T14:28:14Z</time>
      </trkpt>
      <trkpt lat="48.7342650" lon="13.6344770">
        <ele>577.4</ele>
        <time>2019-08-06T14:28:15Z</time>
      </trkpt>
      <trkpt lat="48.7342490" lon="13.6345260">
        <ele>577.6</ele>
        <time>2019-08-06T14:28:16Z</time>
      </trkpt>
      <trkpt lat="48.7342330" lon="13.6345780">
        <ele>577.6</ele>
        <time>2019-08-06T14:28:17Z</time>
      </trkpt>
      <trkpt lat="48.7342160" lon="13.6346330">
        <ele>577.8</ele>
        <time>2019-08-06T14:28:18Z</time>
      </trkpt>
      <trkpt lat="48.7341970" lon="13.6346850">
        <ele>577.8</ele>
        <time>2019-08-06T14:28:19Z</time>
      </trkpt>
      <trkpt lat="48.7341760" lon="13.6347380">
        <ele>578.0</ele>
        <time>2019-08-06T14:28:20Z</time>
      </trkpt>
      <trkpt lat="48.7341560" lon="13.6347910">
        <ele>578.0</ele>
        <time>2019-08-06T14:28:21Z</time>
      </trkpt>
      <trkpt lat="48.7341350" lon="13.6348440">
        <ele>578.2</ele>
        <time>2019-08-06T14:28:22Z</time>
      </trkpt>
      <trkpt lat="48.7341130" lon="13.6348950">
        <ele>578.2</ele>
        <time>2019-08-06T14:28:23Z</time>
      </trkpt>
      <trkpt lat="48.7340890" lon="13.6349450">
        <ele>578.4</ele>
        <time>2019-08-06T14:28:24Z</time>
      </trkpt>
      <trkpt lat="48.7340660" lon="13.6349940">
        <ele>578.6</ele>
        <time>2019-08-06T14:28:25Z</time>
      </trkpt>
      <trkpt lat="48.7340420" lon="13.6350430">
        <ele>578.6</ele>
        <time>2019-08-06T14:28:26Z</time>
      </trkpt>
      <trkpt lat="48.7340170" lon="13.6350900">
        <ele>578.8</ele>
        <time>2019-08-06T14:28:27Z</time>
      </trkpt>
      <trkpt lat="48.7339880" lon="13.6351350">
        <ele>578.8</ele>
        <time>2019-08-06T14:28:28Z</time>
      </trkpt>
      <trkpt lat="48.7339600" lon="13.6351810">
        <ele>579.0</ele>
        <time>2019-08-06T14:28:29Z</time>
      </trkpt>
      <trkpt lat="48.7339330" lon="13.6352280">
        <ele>579.2</ele>
        <time>2019-08-06T14:28:30Z</time>
      </trkpt>
      <trkpt lat="48.7339050" lon="13.6352730">
        <ele>579.2</ele>
        <time>2019-08-06T14:28:31Z</time>
      </trkpt>
      <trkpt lat="48.7338750" lon="13.6353140">
        <ele>579.4</ele>
        <time>2019-08-06T14:28:32Z</time>
      </trkpt>
      <trkpt lat="48.7338440" lon="13.6353540">
        <ele>579.6</ele>
        <time>2019-08-06T14:28:33Z</time>
      </trkpt>
      <trkpt lat="48.7338140" lon="13.6353940">
        <ele>579.6</ele>
        <time>2019-08-06T14:28:34Z</time>
      </trkpt>
      <trkpt lat="48.7337830" lon="13.6354360">
        <ele>579.8</ele>
        <time>2019-08-06T14:28:35Z</time>
      </trkpt>
      <trkpt lat="48.7337540" lon="13.6354770">
        <ele>579.8</ele>
        <time>2019-08-06T14:28:36Z</time>
      </trkpt>
      <trkpt lat="48.7337240" lon="13.6355150">
        <ele>580.0</ele>
        <time>2019-08-06T14:28:37Z</time>
      </trkpt>
      <trkpt lat="48.7336920" lon="13.6355500">
        <ele>580.0</ele>
        <time>2019-08-06T14:28:38Z</time>
      </trkpt>
      <trkpt lat="48.7336600" lon="13.6355840">
        <ele>580.0</ele>
        <time>2019-08-06T14:28:39Z</time>
      </trkpt>
      <trkpt lat="48.7336270" lon="13.6356190">
        <ele>580.2</ele>
        <time>2019-08-06T14:28:40Z</time>
      </trkpt>
      <trkpt lat="48.7335940" lon="13.6356500">
        <ele>580.4</ele>
        <time>2019-08-06T14:28:41Z</time>
      </trkpt>
      <trkpt lat="48.7335600" lon="13.6356790">
        <ele>580.4</ele>
        <time>2019-08-06T14:28:42Z</time>
      </trkpt>
      <trkpt lat="48.7335270" lon="13.6357070">
        <ele>580.6</ele>
        <time>2019-08-06T14:28:43Z</time>
      </trkpt>
      <trkpt lat="48.7334930" lon="13.6357360">
        <ele>580.6</ele>
        <time>2019-08-06T14:28:44Z</time>
      </trkpt>
      <trkpt lat="48.7334570" lon="13.6357650">
        <ele>580.8</ele>
        <time>2019-08-06T14:28:45Z</time>
      </trkpt>
      <trkpt lat="48.7334220" lon="13.6357910">
        <ele>581.0</ele>
        <time>2019-08-06T14:28:46Z</time>
      </trkpt>
      <trkpt lat="48.7333870" lon="13.6358160">
        <ele>581.0</ele>
        <time>2019-08-06T14:28:47Z</time>
      </trkpt>
      <trkpt lat="48.7333520" lon="13.6358400">
        <ele>581.2</ele>
        <time>2019-08-06T14:28:48Z</time>
      </trkpt>
      <trkpt lat="48.7333160" lon="13.6358640">
        <ele>581.2</ele>
        <time>2019-08-06T14:28:49Z</time>
      </trkpt>
      <trkpt lat="48.7332790" lon="13.6358880">
        <ele>581.4</ele>
        <time>2019-08-06T14:28:50Z</time>
      </trkpt>
      <trkpt lat="48.7332440" lon="13.6359090">
        <ele>581.6</ele>
        <time>2019-08-06T14:28:51Z</time>
      </trkpt>
      <trkpt lat="48.7332090" lon="13.6359290">
        <ele>581.6</ele>
        <time>2019-08-06T14:28:52Z</time>
      </trkpt>
      <trkpt lat="48.7331720" lon="13.6359490">
        <ele>581.8</ele>
        <time>2019-08-06T14:28:53Z</time>
      </trkpt>
      <trkpt lat="48.7331330" lon="13.6359670">
        <ele>581.8</ele>
        <time>2019-08-06T14:28:54Z</time>
      </trkpt>
      <trkpt lat="48.7330950" lon="13.6359830">
        <ele>582.0</ele>
        <time>2019-08-06T14:28:55Z</time>
      </trkpt>
      <trkpt lat="48.7330560" lon="13.6360010">
        <ele>582.2</ele>
        <time>2019-08-06T14:28:56Z</time>
      </trkpt>
      <trkpt lat="48.7330160" lon="13.6360190">
        <ele>582.2</ele>
        <time>2019-08-06T14:28:57Z</time>
      </trkpt>
      <trkpt lat="48.7329770" lon="13.6360310">
        <ele>582.4</ele>
        <time>2019-08-06T14:28:58Z</time>
      </trkpt>
      <trkpt lat="48.7329380" lon="13.6360410">
        <ele>582.4</ele>
        <time>2019-08-06T14:28:59Z</time>
      </trkpt>
      <trkpt lat="48.7328980" lon="13.6360490">
        <ele>582.6</ele>
        <time>2019-08-06T14:29:00Z</time>
      </trkpt>
      <trkpt lat="48.7328590" lon="13.6360530">
        <ele>582.8</ele>
        <time>2019-08-06T14:29:01Z</time>
      </trkpt>
      <trkpt lat="48.7328190" lon="13.6360540">
        <ele>582.8</ele>
        <time>2019-08-06T14:29:02Z</time>
      </trkpt>
      <trkpt lat="48.7327780" lon="13.6360560">
        <ele>583.0</ele>
        <time>2019-08-06T14:29:03Z</time>
      </trkpt>
      <trkpt lat="48.7327370" lon="13.6360600">
        <ele>583.0</ele>
        <time>2019-08-06T14:29:04Z</time>
      </trkpt>
      <trkpt lat="48.7326960" lon="13.6360640">
        <ele>583.2</ele>
        <time>2019-08-06T14:29:05Z</time>
      </trkpt>
      <trkpt lat="48.7326560" lon="13.6360650">
        <ele>583.4</ele>
        <time>2019-08-06T14:29:06Z</time>
      </trkpt>
      <trkpt lat="48.7326160" lon="13.6360640">
        <ele>583.6</ele>
        <time>2019-08-06T14:29:07Z</time>
      </trkpt>
      <trkpt lat="48.7325760" lon="13.6360620">
        <ele>583.8</ele>
        <time>2019-08-06T14:29:08Z</time>
      </trkpt>
      <trkpt lat="48.7325360" lon="13.6360580">
        <ele>583.8</ele>
        <time>2019-08-06T14:29:09Z</time>
      </trkpt>
      <trkpt lat="48.7324960" lon="13.6360540">
        <ele>584.0</ele>
        <time>2019-08-06T14:29:10Z</time>
      </trkpt>
      <trkpt lat="48.7324560" lon="13.6360510">
        <ele>584.0</ele>
        <time>2019-08-06T14:29:11Z</time>
      </trkpt>
      <trkpt lat="48.7324160" lon="13.6360460">
        <ele>584.2</ele>
        <time>2019-08-06T14:29:12Z</time>
      </trkpt>
      <trkpt lat="48.7323760" lon="13.6360390">
        <ele>584.2</ele>
        <time>2019-08-06T14:29:13Z</time>
      </trkpt>
      <trkpt lat="48.7323360" lon="13.6360300">
        <ele>584.4</ele>
        <time>2019-08-06T14:29:14Z</time>
      </trkpt>
      <trkpt lat="48.7322960" lon="13.6360200">
        <ele>584.4</ele>
        <time>2019-08-06T14:29:15Z</time>
      </trkpt>
      <trkpt lat="48.7322570" lon="13.6360080">
        <ele>584.6</ele>
        <time>2019-08-06T14:29:16Z</time>
      </trkpt>
      <trkpt lat="48.7322180" lon="13.6359970">
        <ele>584.6</ele>
        <time>2019-08-06T14:29:17Z</time>
      </trkpt>
      <trkpt lat="48.7321790" lon="13.6359840">
        <ele>584.6</ele>
        <time>2019-08-06T14:29:18Z</time>
      </trkpt>
      <trkpt lat="48.7321390" lon="13.6359690">
        <ele>584.8</ele>
        <time>2019-08-06T14:29:19Z</time>
      </trkpt>
      <trkpt lat="48.7321010" lon="13.6359520">
        <ele>584.8</ele>
        <time>2019-08-06T14:29:20Z</time>
      </trkpt>
      <trkpt lat="48.7320640" lon="13.6359320">
        <ele>584.8</ele>
        <time>2019-08-06T14:29:21Z</time>
      </trkpt>
      <trkpt lat="48.7320260" lon="13.6359120">
        <ele>585.0</ele>
        <time>2019-08-06T14:29:22Z</time>
      </trkpt>
      <trkpt lat="48.7319890" lon="13.6358920">
        <ele>585.0</ele>
        <time>2019-08-06T14:29:23Z</time>
      </trkpt>
      <trkpt lat="48.7319520" lon="13.6358700">
        <ele>585.0</ele>
        <time>2019-08-06T14:29:24Z</time>
      </trkpt>
      <trkpt lat="48.7319140" lon="13.6358470">
        <ele>585.0</ele>
        <time>2019-08-06T14:29:25Z</time>
      </trkpt>
      <trkpt lat="48.7318790" lon="13.6358220">
        <ele>585.2</ele>
        <time>2019-08-06T14:29:26Z</time>
      </trkpt>
      <trkpt lat="48.7318440" lon="13.6357950">
        <ele>585.2</ele>
        <time>2019-08-06T14:29:27Z</time>
      </trkpt>
      <trkpt lat="48.7318090" lon="13.6357670">
        <ele>585.4</ele>
        <time>2019-08-06T14:29:28Z</time>
      </trkpt>
      <trkpt lat="48.7317750" lon="13.6357390">
        <ele>585.4</ele>
        <time>2019-08-06T14:29:29Z</time>
      </trkpt>
      <trkpt lat="48.7317400" lon="13.6357090">
        <ele>585.4</ele>
        <time>2019-08-06T14:29:30Z</time>
      </trkpt>
      <trkpt lat="48.7317070" lon="13.6356790">
        <ele>585.6</ele>
        <time>2019-08-06T14:29:31Z</time>
      </trkpt>
      <trkpt lat="48.7316740" lon="13.6356500">
        <ele>585.8</ele>
        <time>2019-08-06T14:29:32Z</time>
      </trkpt>
      <trkpt lat="48.7316410" lon="13.6356190">
        <ele>585.8</ele>
        <time>2019-08-06T14:29:33Z</time>
      </trkpt>
      <trkpt lat="48.7316070" lon="13.6355840">
        <ele>586.0</ele>
        <time>2019-08-06T14:29:34Z</time>
      </trkpt>
      <trkpt lat="48.7315730" lon="13.6355490">
        <ele>586.0</ele>
        <time>2019-08-06T14:29:35Z</time>
      </trkpt>
      <trkpt lat="48.7315410" lon="13.6355140">
        <ele>586.2</ele>
        <time>2019-08-06T14:29:36Z</time>
      </trkpt>
      <trkpt lat="48.7315100" lon="13.6354780">
        <ele>586.2</ele>
        <time>2019-08-06T14:29:37Z</time>
      </trkpt>
      <trkpt lat="48.7314790" lon="13.6354420">
        <ele>586.4</ele>
        <time>2019-08-06T14:29:38Z</time>
      </trkpt>
      <trkpt lat="48.7314470" lon="13.6354050">
        <ele>586.4</ele>
        <time>2019-08-06T14:29:39Z</time>
      </trkpt>
      <trkpt lat="48.7314160" lon="13.6353690">
        <ele>586.6</ele>
        <time>2019-08-06T14:29:40Z</time>
      </trkpt>
      <trkpt lat="48.7313840" lon="13.6353320">
        <ele>586.6</ele>
        <time>2019-08-06T14:29:41Z</time>
      </trkpt>
      <trkpt lat="48.7313540" lon="13.6352930">
        <ele>586.8</ele>
        <time>2019-08-06T14:29:42Z</time>
      </trkpt>
      <trkpt lat="48.7313250" lon="13.6352510">
        <ele>587.0</ele>
        <time>2019-08-06T14:29:43Z</time>
      </trkpt>
      <trkpt lat="48.7312970" lon="13.6352070">
        <ele>587.0</ele>
        <time>2019-08-06T14:29:44Z</time>
      </trkpt>
      <trkpt lat="48.7312700" lon="13.6351640">
        <ele>587.2</ele>
        <time>2019-08-06T14:29:45Z</time>
      </trkpt>
      <trkpt lat="48.7312440" lon="13.6351200">
        <ele>587.4</ele>
        <time>2019-08-06T14:29:46Z</time>
      </trkpt>
      <trkpt lat="48.7312200" lon="13.6350810">
        <ele>587.6</ele>
        <time>2019-08-06T14:29:47Z</time>
      </trkpt>
      <trkpt lat="48.7311950" lon="13.6350430">
        <ele>587.8</ele>
        <time>2019-08-06T14:29:48Z</time>
      </trkpt>
      <trkpt lat="48.7311680" lon="13.6350020">
        <ele>587.8</ele>
        <time>2019-08-06T14:29:49Z</time>
      </trkpt>
      <trkpt lat="48.7311400" lon="13.6349630">
        <ele>588.0</ele>
        <time>2019-08-06T14:29:50Z</time>
      </trkpt>
      <trkpt lat="48.7311120" lon="13.6349270">
        <ele>588.0</ele>
        <time>2019-08-06T14:29:51Z</time>
      </trkpt>
      <trkpt lat="48.7310860" lon="13.6348870">
        <ele>588.2</ele>
        <time>2019-08-06T14:29:52Z</time>
      </trkpt>
      <trkpt lat="48.7310610" lon="13.6348420">
        <ele>588.2</ele>
        <time>2019-08-06T14:29:53Z</time>
      </trkpt>
      <trkpt lat="48.7310360" lon="13.6347960">
        <ele>588.4</ele>
        <time>2019-08-06T14:29:54Z</time>
      </trkpt>
      <trkpt lat="48.7310110" lon="13.6347520">
        <ele>588.4</ele>
        <time>2019-08-06T14:29:55Z</time>
      </trkpt>
      <trkpt lat="48.7309850" lon="13.6347100">
        <ele>588.6</ele>
        <time>2019-08-06T14:29:56Z</time>
      </trkpt>
      <trkpt lat="48.7309580" lon="13.6346690">
        <ele>588.6</ele>
        <time>2019-08-06T14:29:57Z</time>
      </trkpt>
      <trkpt lat="48.7309300" lon="13.6346250">
        <ele>588.8</ele>
        <time>2019-08-06T14:29:58Z</time>
      </trkpt>
      <trkpt lat="48.7309020" lon="13.6345800">
        <ele>588.8</ele>
        <time>2019-08-06T14:29:59Z</time>
      </trkpt>
      <trkpt lat="48.7308730" lon="13.6345370">
        <ele>589.0</ele>
        <time>2019-08-06T14:30:00Z</time>
      </trkpt>
      <trkpt lat="48.7308430" lon="13.6344930">
        <ele>589.0</ele>
        <time>2019-08-06T14:30:01Z</time>
      </trkpt>
      <trkpt lat="48.7308120" lon="13.6344510">
        <ele>589.2</ele>
        <time>2019-08-06T14:30:02Z</time>
      </trkpt>
      <trkpt lat="48.7307820" lon="13.6344120">
        <ele>589.2</ele>
        <time>2019-08-06T14:30:03Z</time>
      </trkpt>
      <trkpt lat="48.7307510" lon="13.6343740">
        <ele>589.4</ele>
        <time>2019-08-06T14:30:04Z</time>
      </trkpt>
      <trkpt lat="48.7307200" lon="13.6343370">
        <ele>589.6</ele>
        <time>2019-08-06T14:30:05Z</time>
      </trkpt>
      <trkpt lat="48.7306880" lon="13.6343000">
        <ele>589.6</ele>
        <time>2019-08-06T14:30:06Z</time>
      </trkpt>
      <trkpt lat="48.7306530" lon="13.6342670">
        <ele>589.8</ele>
        <time>2019-08-06T14:30:07Z</time>
      </trkpt>
      <trkpt lat="48.7306180" lon="13.6342340">
        <ele>590.0</ele>
        <time>2019-08-06T14:30:08Z</time>
      </trkpt>
      <trkpt lat="48.7305830" lon="13.6341990">
        <ele>590.0</ele>
        <time>2019-08-06T14:30:09Z</time>
      </trkpt>
      <trkpt lat="48.7305480" lon="13.6341670">
        <ele>590.2</ele>
        <time>2019-08-06T14:30:10Z</time>
      </trkpt>
      <trkpt lat="48.7305120" lon="13.6341370">
        <ele>590.4</ele>
        <time>2019-08-06T14:30:11Z</time>
      </trkpt>
      <trkpt lat="48.7304760" lon="13.6341090">
        <ele>590.6</ele>
        <time>2019-08-06T14:30:12Z</time>
      </trkpt>
      <trkpt lat="48.7304400" lon="13.6340820">
        <ele>590.6</ele>
        <time>2019-08-06T14:30:13Z</time>
      </trkpt>
      <trkpt lat="48.7304050" lon="13.6340560">
        <ele>590.8</ele>
        <time>2019-08-06T14:30:14Z</time>
      </trkpt>
      <trkpt lat="48.7303700" lon="13.6340330">
        <ele>590.8</ele>
        <time>2019-08-06T14:30:15Z</time>
      </trkpt>
      <trkpt lat="48.7303340" lon="13.6340110">
        <ele>591.0</ele>
        <time>2019-08-06T14:30:16Z</time>
      </trkpt>
      <trkpt lat="48.7302970" lon="13.6339880">
        <ele>591.0</ele>
        <time>2019-08-06T14:30:17Z</time>
      </trkpt>
      <trkpt lat="48.7302590" lon="13.6339650">
        <ele>591.2</ele>
        <time>2019-08-06T14:30:18Z</time>
      </trkpt>
      <trkpt lat="48.7302200" lon="13.6339440">
        <ele>591.2</ele>
        <time>2019-08-06T14:30:19Z</time>
      </trkpt>
      <trkpt lat="48.7301820" lon="13.6339260">
        <ele>591.4</ele>
        <time>2019-08-06T14:30:20Z</time>
      </trkpt>
      <trkpt lat="48.7301440" lon="13.6339070">
        <ele>591.6</ele>
        <time>2019-08-06T14:30:21Z</time>
      </trkpt>
      <trkpt lat="48.7301070" lon="13.6338910">
        <ele>591.8</ele>
        <time>2019-08-06T14:30:22Z</time>
      </trkpt>
      <trkpt lat="48.7300690" lon="13.6338780">
        <ele>591.8</ele>
        <time>2019-08-06T14:30:23Z</time>
      </trkpt>
      <trkpt lat="48.7300300" lon="13.6338670">
        <ele>592.0</ele>
        <time>2019-08-06T14:30:24Z</time>
      </trkpt>
      <trkpt lat="48.7299930" lon="13.6338580">
        <ele>592.2</ele>
        <time>2019-08-06T14:30:25Z</time>
      </trkpt>
      <trkpt lat="48.7299550" lon="13.6338460">
        <ele>592.2</ele>
        <time>2019-08-06T14:30:26Z</time>
      </trkpt>
      <trkpt lat="48.7299170" lon="13.6338400">
        <ele>592.2</ele>
        <time>2019-08-06T14:30:27Z</time>
      </trkpt>
      <trkpt lat="48.7298780" lon="13.6338350">
        <ele>592.4</ele>
        <time>2019-08-06T14:30:28Z</time>
      </trkpt>
      <trkpt lat="48.7298400" lon="13.6338270">
        <ele>592.6</ele>
        <time>2019-08-06T14:30:29Z</time>
      </trkpt>
      <trkpt lat="48.7298020" lon="13.6338190">
        <ele>592.8</ele>
        <time>2019-08-06T14:30:30Z</time>
      </trkpt>
      <trkpt lat="48.7297630" lon="13.6338110">
        <ele>593.0</ele>
        <time>2019-08-06T14:30:31Z</time>
      </trkpt>
      <trkpt lat="48.7297210" lon="13.6338070">
        <ele>593.4</ele>
        <time>2019-08-06T14:30:32Z</time>
      </trkpt>
      <trkpt lat="48.7296790" lon="13.6338070">
        <ele>593.6</ele>
        <time>2019-08-06T14:30:33Z</time>
      </trkpt>
      <trkpt lat="48.7296390" lon="13.6338070">
        <ele>593.8</ele>
        <time>2019-08-06T14:30:34Z</time>
      </trkpt>
      <trkpt lat="48.7295980" lon="13.6338070">
        <ele>593.8</ele>
        <time>2019-08-06T14:30:35Z</time>
      </trkpt>
      <trkpt lat="48.7295560" lon="13.6338100">
        <ele>594.0</ele>
        <time>2019-08-06T14:30:36Z</time>
      </trkpt>
      <trkpt lat="48.7295160" lon="13.6338160">
        <ele>594.0</ele>
        <time>2019-08-06T14:30:37Z</time>
      </trkpt>
      <trkpt lat="48.7294770" lon="13.6338190">
        <ele>594.2</ele>
        <time>2019-08-06T14:30:38Z</time>
      </trkpt>
      <trkpt lat="48.7294400" lon="13.6338220">
        <ele>594.0</ele>
        <time>2019-08-06T14:30:39Z</time>
      </trkpt>
      <trkpt lat="48.7294030" lon="13.6338250">
        <ele>594.0</ele>
        <time>2019-08-06T14:30:40Z</time>
      </trkpt>
      <trkpt lat="48.7293660" lon="13.6338300">
        <ele>594.0</ele>
        <time>2019-08-06T14:30:41Z</time>
      </trkpt>
      <trkpt lat="48.7293280" lon="13.6338370">
        <ele>594.0</ele>
        <time>2019-08-06T14:30:42Z</time>
      </trkpt>
      <trkpt lat="48.7292900" lon="13.6338440">
        <ele>594.0</ele>
        <time>2019-08-06T14:30:43Z</time>
      </trkpt>
      <trkpt lat="48.7292520" lon="13.6338520">
        <ele>594.0</ele>
        <time>2019-08-06T14:30:44Z</time>
      </trkpt>
      <trkpt lat="48.7292130" lon="13.6338640">
        <ele>594.2</ele>
        <time>2019-08-06T14:30:45Z</time>
      </trkpt>
      <trkpt lat="48.7291760" lon="13.6338780">
        <ele>594.2</ele>
        <time>2019-08-06T14:30:46Z</time>
      </trkpt>
      <trkpt lat="48.7291390" lon="13.6338930">
        <ele>594.2</ele>
        <time>2019-08-06T14:30:47Z</time>
      </trkpt>
      <trkpt lat="48.7291020" lon="13.6339080">
        <ele>594.2</ele>
        <time>2019-08-06T14:30:48Z</time>
      </trkpt>
      <trkpt lat="48.7290660" lon="13.6339250">
        <ele>594.4</ele>
        <time>2019-08-06T14:30:49Z</time>
      </trkpt>
      <trkpt lat="48.7290320" lon="13.6339450">
        <ele>594.4</ele>
        <time>2019-08-06T14:30:50Z</time>
      </trkpt>
      <trkpt lat="48.7289970" lon="13.6339680">
        <ele>594.6</ele>
        <time>2019-08-06T14:30:51Z</time>
      </trkpt>
      <trkpt lat="48.7289630" lon="13.6339910">
        <ele>594.6</ele>
        <time>2019-08-06T14:30:52Z</time>
      </trkpt>
      <trkpt lat="48.7289280" lon="13.6340170">
        <ele>594.8</ele>
        <time>2019-08-06T14:30:53Z</time>
      </trkpt>
      <trkpt lat="48.7288930" lon="13.6340400">
        <ele>594.8</ele>
        <time>2019-08-06T14:30:54Z</time>
      </trkpt>
      <trkpt lat="48.7288600" lon="13.6340630">
        <ele>595.0</ele>
        <time>2019-08-06T14:30:55Z</time>
      </trkpt>
      <trkpt lat="48.7288290" lon="13.6340880">
        <ele>595.2</ele>
        <time>2019-08-06T14:30:56Z</time>
      </trkpt>
      <trkpt lat="48.7287970" lon="13.6341150">
        <ele>595.4</ele>
        <time>2019-08-06T14:30:57Z</time>
      </trkpt>
      <trkpt lat="48.7287670" lon="13.6341430">
        <ele>595.6</ele>
        <time>2019-08-06T14:30:58Z</time>
      </trkpt>
      <trkpt lat="48.7287350" lon="13.6341680">
        <ele>595.6</ele>
        <time>2019-08-06T14:30:59Z</time>
      </trkpt>
      <trkpt lat="48.7287020" lon="13.6341950">
        <ele>595.8</ele>
        <time>2019-08-06T14:31:00Z</time>
      </trkpt>
      <trkpt lat="48.7286690" lon="13.6342260">
        <ele>595.8</ele>
        <time>2019-08-06T14:31:01Z</time>
      </trkpt>
      <trkpt lat="48.7286350" lon="13.6342580">
        <ele>596.0</ele>
        <time>2019-08-06T14:31:02Z</time>
      </trkpt>
      <trkpt lat="48.7286040" lon="13.6342900">
        <ele>596.0</ele>
        <time>2019-08-06T14:31:03Z</time>
      </trkpt>
      <trkpt lat="48.7285720" lon="13.6343200">
        <ele>596.2</ele>
        <time>2019-08-06T14:31:04Z</time>
      </trkpt>
      <trkpt lat="48.7285400" lon="13.6343500">
        <ele>596.2</ele>
        <time>2019-08-06T14:31:05Z</time>
      </trkpt>
      <trkpt lat="48.7285090" lon="13.6343840">
        <ele>596.4</ele>
        <time>2019-08-06T14:31:06Z</time>
      </trkpt>
      <trkpt lat="48.7284790" lon="13.6344180">
        <ele>596.4</ele>
        <time>2019-08-06T14:31:07Z</time>
      </trkpt>
      <trkpt lat="48.7284470" lon="13.6344540">
        <ele>596.4</ele>
        <time>2019-08-06T14:31:08Z</time>
      </trkpt>
      <trkpt lat="48.7284150" lon="13.6344900">
        <ele>596.6</ele>
        <time>2019-08-06T14:31:09Z</time>
      </trkpt>
      <trkpt lat="48.7283830" lon="13.6345260">
        <ele>596.6</ele>
        <time>2019-08-06T14:31:10Z</time>
      </trkpt>
      <trkpt lat="48.7283510" lon="13.6345590">
        <ele>596.8</ele>
        <time>2019-08-06T14:31:11Z</time>
      </trkpt>
      <trkpt lat="48.7283200" lon="13.6345880">
        <ele>596.8</ele>
        <time>2019-08-06T14:31:12Z</time>
      </trkpt>
      <trkpt lat="48.7282920" lon="13.6346160">
        <ele>596.8</ele>
        <time>2019-08-06T14:31:13Z</time>
      </trkpt>
      <trkpt lat="48.7282630" lon="13.6346440">
        <ele>597.0</ele>
        <time>2019-08-06T14:31:14Z</time>
      </trkpt>
      <trkpt lat="48.7282350" lon="13.6346730">
        <ele>597.0</ele>
        <time>2019-08-06T14:31:15Z</time>
      </trkpt>
      <trkpt lat="48.7282060" lon="13.6347040">
        <ele>597.2</ele>
        <time>2019-08-06T14:31:16Z</time>
      </trkpt>
      <trkpt lat="48.7281780" lon="13.6347340">
        <ele>597.2</ele>
        <time>2019-08-06T14:31:17Z</time>
      </trkpt>
      <trkpt lat="48.7281480" lon="13.6347650">
        <ele>597.4</ele>
        <time>2019-08-06T14:31:18Z</time>
      </trkpt>
      <trkpt lat="48.7281190" lon="13.6348010">
        <ele>597.6</ele>
        <time>2019-08-06T14:31:19Z</time>
      </trkpt>
      <trkpt lat="48.7280920" lon="13.6348360">
        <ele>597.6</ele>
        <time>2019-08-06T14:31:20Z</time>
      </trkpt>
      <trkpt lat="48.7280640" lon="13.6348670">
        <ele>597.8</ele>
        <time>2019-08-06T14:31:21Z</time>
      </trkpt>
      <trkpt lat="48.7280350" lon="13.6349000">
        <ele>597.8</ele>
        <time>2019-08-06T14:31:22Z</time>
      </trkpt>
      <trkpt lat="48.7280050" lon="13.6349350">
        <ele>598.0</ele>
        <time>2019-08-06T14:31:23Z</time>
      </trkpt>
      <trkpt lat="48.7279740" lon="13.6349720">
        <ele>598.0</ele>
        <time>2019-08-06T14:31:24Z</time>
      </trkpt>
      <trkpt lat="48.7279430" lon="13.6350110">
        <ele>598.2</ele>
        <time>2019-08-06T14:31:25Z</time>
      </trkpt>
      <trkpt lat="48.7279140" lon="13.6350470">
        <ele>598.2</ele>
        <time>2019-08-06T14:31:26Z</time>
      </trkpt>
      <trkpt lat="48.7278870" lon="13.6350870">
        <ele>598.4</ele>
        <time>2019-08-06T14:31:27Z</time>
      </trkpt>
      <trkpt lat="48.7278580" lon="13.6351270">
        <ele>598.6</ele>
        <time>2019-08-06T14:31:28Z</time>
      </trkpt>
      <trkpt lat="48.7278290" lon="13.6351670">
        <ele>598.6</ele>
        <time>2019-08-06T14:31:29Z</time>
      </trkpt>
      <trkpt lat="48.7278020" lon="13.6352090">
        <ele>598.8</ele>
        <time>2019-08-06T14:31:30Z</time>
      </trkpt>
      <trkpt lat="48.7277750" lon="13.6352510">
        <ele>598.8</ele>
        <time>2019-08-06T14:31:31Z</time>
      </trkpt>
      <trkpt lat="48.7277440" lon="13.6352900">
        <ele>599.0</ele>
        <time>2019-08-06T14:31:32Z</time>
      </trkpt>
      <trkpt lat="48.7277150" lon="13.6353310">
        <ele>599.0</ele>
        <time>2019-08-06T14:31:33Z</time>
      </trkpt>
      <trkpt lat="48.7276860" lon="13.6353760">
        <ele>599.2</ele>
        <time>2019-08-06T14:31:34Z</time>
      </trkpt>
      <trkpt lat="48.7276560" lon="13.6354210">
        <ele>599.4</ele>
        <time>2019-08-06T14:31:35Z</time>
      </trkpt>
      <trkpt lat="48.7276290" lon="13.6354630">
        <ele>599.4</ele>
        <time>2019-08-06T14:31:36Z</time>
      </trkpt>
      <trkpt lat="48.7276010" lon="13.6355050">
        <ele>599.6</ele>
        <time>2019-08-06T14:31:37Z</time>
      </trkpt>
      <trkpt lat="48.7275730" lon="13.6355460">
        <ele>599.8</ele>
        <time>2019-08-06T14:31:38Z</time>
      </trkpt>
      <trkpt lat="48.7275450" lon="13.6355840">
        <ele>599.8</ele>
        <time>2019-08-06T14:31:39Z</time>
      </trkpt>
      <trkpt lat="48.7275150" lon="13.6356260">
        <ele>600.0</ele>
        <time>2019-08-06T14:31:40Z</time>
      </trkpt>
      <trkpt lat="48.7274850" lon="13.6356700">
        <ele>600.0</ele>
        <time>2019-08-06T14:31:41Z</time>
      </trkpt>
      <trkpt lat="48.7274600" lon="13.6357100">
        <ele>600.2</ele>
        <time>2019-08-06T14:31:42Z</time>
      </trkpt>
      <trkpt lat="48.7274360" lon="13.6357490">
        <ele>600.2</ele>
        <time>2019-08-06T14:31:43Z</time>
      </trkpt>
      <trkpt lat="48.7274110" lon="13.6357930">
        <ele>600.4</ele>
        <time>2019-08-06T14:31:44Z</time>
      </trkpt>
      <trkpt lat="48.7273840" lon="13.6358360">
        <ele>600.4</ele>
        <time>2019-08-06T14:31:45Z</time>
      </trkpt>
      <trkpt lat="48.7273550" lon="13.6358770">
        <ele>600.6</ele>
        <time>2019-08-06T14:31:46Z</time>
      </trkpt>
      <trkpt lat="48.7273300" lon="13.6359200">
        <ele>600.8</ele>
        <time>2019-08-06T14:31:47Z</time>
      </trkpt>
      <trkpt lat="48.7273060" lon="13.6359660">
        <ele>600.8</ele>
        <time>2019-08-06T14:31:48Z</time>
      </trkpt>
      <trkpt lat="48.7272820" lon="13.6360120">
        <ele>601.0</ele>
        <time>2019-08-06T14:31:49Z</time>
      </trkpt>
      <trkpt lat="48.7272550" lon="13.6360590">
        <ele>601.0</ele>
        <time>2019-08-06T14:31:50Z</time>
      </trkpt>
      <trkpt lat="48.7272300" lon="13.6361080">
        <ele>601.2</ele>
        <time>2019-08-06T14:31:51Z</time>
      </trkpt>
      <trkpt lat="48.7272060" lon="13.6361540">
        <ele>601.2</ele>
        <time>2019-08-06T14:31:52Z</time>
      </trkpt>
      <trkpt lat="48.7271830" lon="13.6362010">
        <ele>601.4</ele>
        <time>2019-08-06T14:31:53Z</time>
      </trkpt>
      <trkpt lat="48.7271620" lon="13.6362470">
        <ele>601.4</ele>
        <time>2019-08-06T14:31:54Z</time>
      </trkpt>
      <trkpt lat="48.7271390" lon="13.6362930">
        <ele>601.6</ele>
        <time>2019-08-06T14:31:55Z</time>
      </trkpt>
      <trkpt lat="48.7271140" lon="13.6363400">
        <ele>601.6</ele>
        <time>2019-08-06T14:31:56Z</time>
      </trkpt>
      <trkpt lat="48.7270900" lon="13.6363880">
        <ele>601.8</ele>
        <time>2019-08-06T14:31:57Z</time>
      </trkpt>
      <trkpt lat="48.7270660" lon="13.6364360">
        <ele>601.8</ele>
        <time>2019-08-06T14:31:58Z</time>
      </trkpt>
      <trkpt lat="48.7270430" lon="13.6364840">
        <ele>602.0</ele>
        <time>2019-08-06T14:31:59Z</time>
      </trkpt>
      <trkpt lat="48.7270210" lon="13.6365280">
        <ele>602.0</ele>
        <time>2019-08-06T14:32:00Z</time>
      </trkpt>
      <trkpt lat="48.7269990" lon="13.6365720">
        <ele>602.2</ele>
        <time>2019-08-06T14:32:01Z</time>
      </trkpt>
      <trkpt lat="48.7269820" lon="13.6366190">
        <ele>602.4</ele>
        <time>2019-08-06T14:32:02Z</time>
      </trkpt>
      <trkpt lat="48.7269640" lon="13.6366650">
        <ele>602.4</ele>
        <time>2019-08-06T14:32:03Z</time>
      </trkpt>
      <trkpt lat="48.7269430" lon="13.6367150">
        <ele>602.6</ele>
        <time>2019-08-06T14:32:04Z</time>
      </trkpt>
      <trkpt lat="48.7269230" lon="13.6367660">
        <ele>602.6</ele>
        <time>2019-08-06T14:32:05Z</time>
      </trkpt>
      <trkpt lat="48.7269050" lon="13.6368170">
        <ele>602.8</ele>
        <time>2019-08-06T14:32:06Z</time>
      </trkpt>
      <trkpt lat="48.7268860" lon="13.6368660">
        <ele>602.8</ele>
        <time>2019-08-06T14:32:07Z</time>
      </trkpt>
      <trkpt lat="48.7268670" lon="13.6369170">
        <ele>602.8</ele>
        <time>2019-08-06T14:32:08Z</time>
      </trkpt>
      <trkpt lat="48.7268470" lon="13.6369660">
        <ele>603.0</ele>
        <time>2019-08-06T14:32:09Z</time>
      </trkpt>
      <trkpt lat="48.7268280" lon="13.6370160">
        <ele>603.2</ele>
        <time>2019-08-06T14:32:10Z</time>
      </trkpt>
      <trkpt lat="48.7268100" lon="13.6370650">
        <ele>603.2</ele>
        <time>2019-08-06T14:32:11Z</time>
      </trkpt>
      <trkpt lat="48.7267930" lon="13.6371150">
        <ele>603.4</ele>
        <time>2019-08-06T14:32:12Z</time>
      </trkpt>
      <trkpt lat="48.7267760" lon="13.6371640">
        <ele>603.4</ele>
        <time>2019-08-06T14:32:13Z</time>
      </trkpt>
      <trkpt lat="48.7267570" lon="13.6372130">
        <ele>603.6</ele>
        <time>2019-08-06T14:32:14Z</time>
      </trkpt>
      <trkpt lat="48.7267390" lon="13.6372640">
        <ele>603.6</ele>
        <time>2019-08-06T14:32:15Z</time>
      </trkpt>
      <trkpt lat="48.7267210" lon="13.6373140">
        <ele>603.8</ele>
        <time>2019-08-06T14:32:16Z</time>
      </trkpt>
      <trkpt lat="48.7267030" lon="13.6373600">
        <ele>604.0</ele>
        <time>2019-08-06T14:32:17Z</time>
      </trkpt>
      <trkpt lat="48.7266870" lon="13.6374060">
        <ele>604.0</ele>
        <time>2019-08-06T14:32:18Z</time>
      </trkpt>
      <trkpt lat="48.7266710" lon="13.6374550">
        <ele>604.2</ele>
        <time>2019-08-06T14:32:19Z</time>
      </trkpt>
      <trkpt lat="48.7266550" lon="13.6375070">
        <ele>604.2</ele>
        <time>2019-08-06T14:32:20Z</time>
      </trkpt>
      <trkpt lat="48.7266390" lon="13.6375570">
        <ele>604.4</ele>
        <time>2019-08-06T14:32:21Z</time>
      </trkpt>
      <trkpt lat="48.7266240" lon="13.6376100">
        <ele>604.6</ele>
        <time>2019-08-06T14:32:22Z</time>
      </trkpt>
      <trkpt lat="48.7266100" lon="13.6376630">
        <ele>604.6</ele>
        <time>2019-08-06T14:32:23Z</time>
      </trkpt>
      <trkpt lat="48.7265970" lon="13.6377180">
        <ele>604.8</ele>
        <time>2019-08-06T14:32:24Z</time>
      </trkpt>
      <trkpt lat="48.7265830" lon="13.6377710">
        <ele>604.8</ele>
        <time>2019-08-06T14:32:25Z</time>
      </trkpt>
      <trkpt lat="48.7265690" lon="13.6378200">
        <ele>604.8</ele>
        <time>2019-08-06T14:32:26Z</time>
      </trkpt>
      <trkpt lat="48.7265540" lon="13.6378680">
        <ele>605.0</ele>
        <time>2019-08-06T14:32:27Z</time>
      </trkpt>
      <trkpt lat="48.7265390" lon="13.6379140">
        <ele>605.0</ele>
        <time>2019-08-06T14:32:28Z</time>
      </trkpt>
      <trkpt lat="48.7265280" lon="13.6379560">
        <ele>605.2</ele>
        <time>2019-08-06T14:32:29Z</time>
      </trkpt>
      <trkpt lat="48.7265210" lon="13.6379930">
        <ele>605.2</ele>
        <time>2019-08-06T14:32:30Z</time>
      </trkpt>
      <trkpt lat="48.7265160" lon="13.6380200">
        <ele>605.2</ele>
        <time>2019-08-06T14:32:31Z</time>
      </trkpt>
      <trkpt lat="48.7265130" lon="13.6380350">
        <ele>605.4</ele>
        <time>2019-08-06T14:32:32Z</time>
      </trkpt>
      <trkpt lat="48.7265110" lon="13.6380400">
        <ele>605.4</ele>
        <time>2019-08-06T14:32:33Z</time>
      </trkpt>
      <trkpt lat="48.7265090" lon="13.6380400">
        <ele>605.4</ele>
        <time>2019-08-06T14:32:34Z</time>
      </trkpt>
      <trkpt lat="48.7265080" lon="13.6380380">
        <ele>605.4</ele>
        <time>2019-08-06T14:32:35Z</time>
      </trkpt>
      <trkpt lat="48.7264790" lon="13.6381900">
        <ele>605.6</ele>
        <time>2019-08-06T14:35:58Z</time>
      </trkpt>
      <trkpt lat="48.7264680" lon="13.6382230">
        <ele>605.6</ele>
        <time>2019-08-06T14:35:59Z</time>
      </trkpt>
      <trkpt lat="48.7264570" lon="13.6382580">
        <ele>605.6</ele>
        <time>2019-08-06T14:36:00Z</time>
      </trkpt>
      <trkpt lat="48.7264480" lon="13.6382980">
        <ele>605.6</ele>
        <time>2019-08-06T14:36:01Z</time>
      </trkpt>
      <trkpt lat="48.7264400" lon="13.6383400">
        <ele>605.8</ele>
        <time>2019-08-06T14:36:02Z</time>
      </trkpt>
      <trkpt lat="48.7264310" lon="13.6383870">
        <ele>605.8</ele>
        <time>2019-08-06T14:36:03Z</time>
      </trkpt>
      <trkpt lat="48.7264210" lon="13.6384340">
        <ele>606.0</ele>
        <time>2019-08-06T14:36:04Z</time>
      </trkpt>
      <trkpt lat="48.7264100" lon="13.6384820">
        <ele>606.0</ele>
        <time>2019-08-06T14:36:05Z</time>
      </trkpt>
      <trkpt lat="48.7263990" lon="13.6385330">
        <ele>606.0</ele>
        <time>2019-08-06T14:36:06Z</time>
      </trkpt>
      <trkpt lat="48.7263880" lon="13.6385850">
        <ele>606.2</ele>
        <time>2019-08-06T14:36:07Z</time>
      </trkpt>
      <trkpt lat="48.7263770" lon="13.6386380">
        <ele>606.2</ele>
        <time>2019-08-06T14:36:08Z</time>
      </trkpt>
      <trkpt lat="48.7263670" lon="13.6386930">
        <ele>606.4</ele>
        <time>2019-08-06T14:36:09Z</time>
      </trkpt>
      <trkpt lat="48.7263550" lon="13.6387470">
        <ele>606.4</ele>
        <time>2019-08-06T14:36:10Z</time>
      </trkpt>
      <trkpt lat="48.7263440" lon="13.6388050">
        <ele>606.4</ele>
        <time>2019-08-06T14:36:11Z</time>
      </trkpt>
      <trkpt lat="48.7263330" lon="13.6388600">
        <ele>606.6</ele>
        <time>2019-08-06T14:36:12Z</time>
      </trkpt>
      <trkpt lat="48.7263210" lon="13.6389150">
        <ele>606.6</ele>
        <time>2019-08-06T14:36:13Z</time>
      </trkpt>
      <trkpt lat="48.7263080" lon="13.6389700">
        <ele>606.8</ele>
        <time>2019-08-06T14:36:14Z</time>
      </trkpt>
      <trkpt lat="48.7262970" lon="13.6390240">
        <ele>606.8</ele>
        <time>2019-08-06T14:36:15Z</time>
      </trkpt>
      <trkpt lat="48.7262840" lon="13.6390790">
        <ele>607.0</ele>
        <time>2019-08-06T14:36:16Z</time>
      </trkpt>
      <trkpt lat="48.7262710" lon="13.6391330">
        <ele>607.0</ele>
        <time>2019-08-06T14:36:17Z</time>
      </trkpt>
      <trkpt lat="48.7262600" lon="13.6391870">
        <ele>607.2</ele>
        <time>2019-08-06T14:36:18Z</time>
      </trkpt>
      <trkpt lat="48.7262500" lon="13.6392420">
        <ele>607.2</ele>
        <time>2019-08-06T14:36:19Z</time>
      </trkpt>
      <trkpt lat="48.7262380" lon="13.6392980">
        <ele>607.4</ele>
        <time>2019-08-06T14:36:20Z</time>
      </trkpt>
      <trkpt lat="48.7262260" lon="13.6393530">
        <ele>607.4</ele>
        <time>2019-08-06T14:36:21Z</time>
      </trkpt>
      <trkpt lat="48.7262150" lon="13.6394080">
        <ele>607.4</ele>
        <time>2019-08-06T14:36:22Z</time>
      </trkpt>
      <trkpt lat="48.7262030" lon="13.6394630">
        <ele>607.6</ele>
        <time>2019-08-06T14:36:23Z</time>
      </trkpt>
      <trkpt lat="48.7261920" lon="13.6395180">
        <ele>607.6</ele>
        <time>2019-08-06T14:36:24Z</time>
      </trkpt>
      <trkpt lat="48.7261820" lon="13.6395730">
        <ele>607.8</ele>
        <time>2019-08-06T14:36:25Z</time>
      </trkpt>
      <trkpt lat="48.7261720" lon="13.6396270">
        <ele>607.8</ele>
        <time>2019-08-06T14:36:26Z</time>
      </trkpt>
      <trkpt lat="48.7261590" lon="13.6396820">
        <ele>608.0</ele>
        <time>2019-08-06T14:36:27Z</time>
      </trkpt>
      <trkpt lat="48.7261470" lon="13.6397350">
        <ele>608.0</ele>
        <time>2019-08-06T14:36:28Z</time>
      </trkpt>
      <trkpt lat="48.7261350" lon="13.6397900">
        <ele>608.2</ele>
        <time>2019-08-06T14:36:29Z</time>
      </trkpt>
      <trkpt lat="48.7261230" lon="13.6398440">
        <ele>608.2</ele>
        <time>2019-08-06T14:36:30Z</time>
      </trkpt>
      <trkpt lat="48.7261120" lon="13.6398990">
        <ele>608.4</ele>
        <time>2019-08-06T14:36:31Z</time>
      </trkpt>
      <trkpt lat="48.7261000" lon="13.6399530">
        <ele>608.6</ele>
        <time>2019-08-06T14:36:32Z</time>
      </trkpt>
      <trkpt lat="48.7260900" lon="13.6400080">
        <ele>608.6</ele>
        <time>2019-08-06T14:36:33Z</time>
      </trkpt>
      <trkpt lat="48.7260790" lon="13.6400640">
        <ele>608.6</ele>
        <time>2019-08-06T14:36:34Z</time>
      </trkpt>
      <trkpt lat="48.7260680" lon="13.6401190">
        <ele>608.8</ele>
        <time>2019-08-06T14:36:35Z</time>
      </trkpt>
      <trkpt lat="48.7260570" lon="13.6401720">
        <ele>608.8</ele>
        <time>2019-08-06T14:36:36Z</time>
      </trkpt>
      <trkpt lat="48.7260440" lon="13.6402250">
        <ele>609.0</ele>
        <time>2019-08-06T14:36:37Z</time>
      </trkpt>
      <trkpt lat="48.7260310" lon="13.6402780">
        <ele>609.0</ele>
        <time>2019-08-06T14:36:38Z</time>
      </trkpt>
      <trkpt lat="48.7260200" lon="13.6403310">
        <ele>609.0</ele>
        <time>2019-08-06T14:36:39Z</time>
      </trkpt>
      <trkpt lat="48.7260100" lon="13.6403850">
        <ele>609.2</ele>
        <time>2019-08-06T14:36:40Z</time>
      </trkpt>
      <trkpt lat="48.7259990" lon="13.6404370">
        <ele>609.2</ele>
        <time>2019-08-06T14:36:41Z</time>
      </trkpt>
      <trkpt lat="48.7259890" lon="13.6404890">
        <ele>609.4</ele>
        <time>2019-08-06T14:36:42Z</time>
      </trkpt>
      <trkpt lat="48.7259800" lon="13.6405420">
        <ele>609.4</ele>
        <time>2019-08-06T14:36:43Z</time>
      </trkpt>
      <trkpt lat="48.7259700" lon="13.6405940">
        <ele>609.4</ele>
        <time>2019-08-06T14:36:44Z</time>
      </trkpt>
      <trkpt lat="48.7259600" lon="13.6406470">
        <ele>609.4</ele>
        <time>2019-08-06T14:36:45Z</time>
      </trkpt>
      <trkpt lat="48.7259480" lon="13.6406960">
        <ele>609.6</ele>
        <time>2019-08-06T14:36:46Z</time>
      </trkpt>
      <trkpt lat="48.7259340" lon="13.6407440">
        <ele>609.6</ele>
        <time>2019-08-06T14:36:47Z</time>
      </trkpt>
      <trkpt lat="48.7259220" lon="13.6407920">
        <ele>609.8</ele>
        <time>2019-08-06T14:36:48Z</time>
      </trkpt>
      <trkpt lat="48.7259120" lon="13.6408420">
        <ele>609.8</ele>
        <time>2019-08-06T14:36:49Z</time>
      </trkpt>
      <trkpt lat="48.7259020" lon="13.6408940">
        <ele>609.8</ele>
        <time>2019-08-06T14:36:50Z</time>
      </trkpt>
      <trkpt lat="48.7258920" lon="13.6409460">
        <ele>610.0</ele>
        <time>2019-08-06T14:36:51Z</time>
      </trkpt>
      <trkpt lat="48.7258810" lon="13.6410010">
        <ele>610.0</ele>
        <time>2019-08-06T14:36:52Z</time>
      </trkpt>
      <trkpt lat="48.7258680" lon="13.6410560">
        <ele>610.0</ele>
        <time>2019-08-06T14:36:53Z</time>
      </trkpt>
      <trkpt lat="48.7258560" lon="13.6411140">
        <ele>610.0</ele>
        <time>2019-08-06T14:36:54Z</time>
      </trkpt>
      <trkpt lat="48.7258430" lon="13.6411700">
        <ele>610.0</ele>
        <time>2019-08-06T14:36:55Z</time>
      </trkpt>
      <trkpt lat="48.7258290" lon="13.6412270">
        <ele>610.0</ele>
        <time>2019-08-06T14:36:56Z</time>
      </trkpt>
      <trkpt lat="48.7258160" lon="13.6412870">
        <ele>610.0</ele>
        <time>2019-08-06T14:36:57Z</time>
      </trkpt>
      <trkpt lat="48.7258030" lon="13.6413470">
        <ele>610.0</ele>
        <time>2019-08-06T14:36:58Z</time>
      </trkpt>
      <trkpt lat="48.7257910" lon="13.6414090">
        <ele>610.0</ele>
        <time>2019-08-06T14:36:59Z</time>
      </trkpt>
      <trkpt lat="48.7257770" lon="13.6414710">
        <ele>610.0</ele>
        <time>2019-08-06T14:37:00Z</time>
      </trkpt>
      <trkpt lat="48.7257620" lon="13.6415350">
        <ele>610.0</ele>
        <time>2019-08-06T14:37:01Z</time>
      </trkpt>
      <trkpt lat="48.7257470" lon="13.6416000">
        <ele>610.0</ele>
        <time>2019-08-06T14:37:02Z</time>
      </trkpt>
      <trkpt lat="48.7257330" lon="13.6416650">
        <ele>610.2</ele>
        <time>2019-08-06T14:37:03Z</time>
      </trkpt>
      <trkpt lat="48.7257190" lon="13.6417310">
        <ele>610.2</ele>
        <time>2019-08-06T14:37:04Z</time>
      </trkpt>
      <trkpt lat="48.7257040" lon="13.6417970">
        <ele>610.2</ele>
        <time>2019-08-06T14:37:05Z</time>
      </trkpt>
      <trkpt lat="48.7256890" lon="13.6418640">
        <ele>610.2</ele>
        <time>2019-08-06T14:37:06Z</time>
      </trkpt>
      <trkpt lat="48.7256750" lon="13.6419330">
        <ele>610.4</ele>
        <time>2019-08-06T14:37:07Z</time>
      </trkpt>
      <trkpt lat="48.7256630" lon="13.6420030">
        <ele>610.4</ele>
        <time>2019-08-06T14:37:08Z</time>
      </trkpt>
      <trkpt lat="48.7256490" lon="13.6420740">
        <ele>610.4</ele>
        <time>2019-08-06T14:37:09Z</time>
      </trkpt>
      <trkpt lat="48.7256360" lon="13.6421450">
        <ele>610.4</ele>
        <time>2019-08-06T14:37:10Z</time>
      </trkpt>
      <trkpt lat="48.7256220" lon="13.6422160">
        <ele>610.4</ele>
        <time>2019-08-06T14:37:11Z</time>
      </trkpt>
      <trkpt lat="48.7256070" lon="13.6422860">
        <ele>610.4</ele>
        <time>2019-08-06T14:37:12Z</time>
      </trkpt>
      <trkpt lat="48.7255900" lon="13.6423570">
        <ele>610.4</ele>
        <time>2019-08-06T14:37:13Z</time>
      </trkpt>
      <trkpt lat="48.7255730" lon="13.6424280">
        <ele>610.4</ele>
        <time>2019-08-06T14:37:14Z</time>
      </trkpt>
      <trkpt lat="48.7255570" lon="13.6424990">
        <ele>610.4</ele>
        <time>2019-08-06T14:37:15Z</time>
      </trkpt>
      <trkpt lat="48.7255420" lon="13.6425730">
        <ele>610.4</ele>
        <time>2019-08-06T14:37:16Z</time>
      </trkpt>
      <trkpt lat="48.7255270" lon="13.6426480">
        <ele>610.4</ele>
        <time>2019-08-06T14:37:17Z</time>
      </trkpt>
      <trkpt lat="48.7255120" lon="13.6427220">
        <ele>610.4</ele>
        <time>2019-08-06T14:37:18Z</time>
      </trkpt>
      <trkpt lat="48.7254970" lon="13.6427960">
        <ele>610.6</ele>
        <time>2019-08-06T14:37:19Z</time>
      </trkpt>
      <trkpt lat="48.7254800" lon="13.6428690">
        <ele>610.6</ele>
        <time>2019-08-06T14:37:20Z</time>
      </trkpt>
      <trkpt lat="48.7254640" lon="13.6429440">
        <ele>610.4</ele>
        <time>2019-08-06T14:37:21Z</time>
      </trkpt>
      <trkpt lat="48.7254500" lon="13.6430180">
        <ele>610.4</ele>
        <time>2019-08-06T14:37:22Z</time>
      </trkpt>
      <trkpt lat="48.7254350" lon="13.6430920">
        <ele>610.6</ele>
        <time>2019-08-06T14:37:23Z</time>
      </trkpt>
      <trkpt lat="48.7254200" lon="13.6431660">
        <ele>610.6</ele>
        <time>2019-08-06T14:37:24Z</time>
      </trkpt>
      <trkpt lat="48.7254050" lon="13.6432390">
        <ele>610.6</ele>
        <time>2019-08-06T14:37:25Z</time>
      </trkpt>
      <trkpt lat="48.7253930" lon="13.6433130">
        <ele>610.6</ele>
        <time>2019-08-06T14:37:26Z</time>
      </trkpt>
      <trkpt lat="48.7253790" lon="13.6433880">
        <ele>610.6</ele>
        <time>2019-08-06T14:37:27Z</time>
      </trkpt>
      <trkpt lat="48.7253640" lon="13.6434630">
        <ele>610.6</ele>
        <time>2019-08-06T14:37:28Z</time>
      </trkpt>
      <trkpt lat="48.7253490" lon="13.6435400">
        <ele>610.4</ele>
        <time>2019-08-06T14:37:29Z</time>
      </trkpt>
      <trkpt lat="48.7253350" lon="13.6436140">
        <ele>610.4</ele>
        <time>2019-08-06T14:37:30Z</time>
      </trkpt>
      <trkpt lat="48.7253200" lon="13.6436890">
        <ele>610.6</ele>
        <time>2019-08-06T14:37:31Z</time>
      </trkpt>
      <trkpt lat="48.7253030" lon="13.6437640">
        <ele>610.6</ele>
        <time>2019-08-06T14:37:32Z</time>
      </trkpt>
      <trkpt lat="48.7252870" lon="13.6438390">
        <ele>610.4</ele>
        <time>2019-08-06T14:37:33Z</time>
      </trkpt>
      <trkpt lat="48.7252700" lon="13.6439150">
        <ele>610.4</ele>
        <time>2019-08-06T14:37:34Z</time>
      </trkpt>
      <trkpt lat="48.7252530" lon="13.6439900">
        <ele>610.4</ele>
        <time>2019-08-06T14:37:35Z</time>
      </trkpt>
      <trkpt lat="48.7252370" lon="13.6440650">
        <ele>610.4</ele>
        <time>2019-08-06T14:37:36Z</time>
      </trkpt>
      <trkpt lat="48.7252200" lon="13.6441400">
        <ele>610.4</ele>
        <time>2019-08-06T14:37:37Z</time>
      </trkpt>
      <trkpt lat="48.7252030" lon="13.6442150">
        <ele>610.4</ele>
        <time>2019-08-06T14:37:38Z</time>
      </trkpt>
      <trkpt lat="48.7251870" lon="13.6442900">
        <ele>610.4</ele>
        <time>2019-08-06T14:37:39Z</time>
      </trkpt>
      <trkpt lat="48.7251700" lon="13.6443660">
        <ele>610.4</ele>
        <time>2019-08-06T14:37:40Z</time>
      </trkpt>
      <trkpt lat="48.7251540" lon="13.6444410">
        <ele>610.6</ele>
        <time>2019-08-06T14:37:41Z</time>
      </trkpt>
      <trkpt lat="48.7251380" lon="13.6445160">
        <ele>610.6</ele>
        <time>2019-08-06T14:37:42Z</time>
      </trkpt>
      <trkpt lat="48.7251220" lon="13.6445890">
        <ele>610.6</ele>
        <time>2019-08-06T14:37:43Z</time>
      </trkpt>
      <trkpt lat="48.7251080" lon="13.6446620">
        <ele>610.6</ele>
        <time>2019-08-06T14:37:44Z</time>
      </trkpt>
      <trkpt lat="48.7250940" lon="13.6447330">
        <ele>610.8</ele>
        <time>2019-08-06T14:37:45Z</time>
      </trkpt>
      <trkpt lat="48.7250790" lon="13.6448050">
        <ele>610.8</ele>
        <time>2019-08-06T14:37:46Z</time>
      </trkpt>
      <trkpt lat="48.7250650" lon="13.6448770">
        <ele>610.8</ele>
        <time>2019-08-06T14:37:47Z</time>
      </trkpt>
      <trkpt lat="48.7250520" lon="13.6449510">
        <ele>610.8</ele>
        <time>2019-08-06T14:37:48Z</time>
      </trkpt>
      <trkpt lat="48.7250390" lon="13.6450240">
        <ele>610.8</ele>
        <time>2019-08-06T14:37:49Z</time>
      </trkpt>
      <trkpt lat="48.7250270" lon="13.6450990">
        <ele>610.8</ele>
        <time>2019-08-06T14:37:50Z</time>
      </trkpt>
      <trkpt lat="48.7250190" lon="13.6451730">
        <ele>611.0</ele>
        <time>2019-08-06T14:37:51Z</time>
      </trkpt>
      <trkpt lat="48.7250120" lon="13.6452500">
        <ele>611.0</ele>
        <time>2019-08-06T14:37:52Z</time>
      </trkpt>
      <trkpt lat="48.7250070" lon="13.6453260">
        <ele>611.0</ele>
        <time>2019-08-06T14:37:53Z</time>
      </trkpt>
      <trkpt lat="48.7250020" lon="13.6453990">
        <ele>611.0</ele>
        <time>2019-08-06T14:37:54Z</time>
      </trkpt>
      <trkpt lat="48.7249990" lon="13.6454750">
        <ele>611.2</ele>
        <time>2019-08-06T14:37:55Z</time>
      </trkpt>
      <trkpt lat="48.7249970" lon="13.6455500">
        <ele>611.2</ele>
        <time>2019-08-06T14:37:56Z</time>
      </trkpt>
      <trkpt lat="48.7249950" lon="13.6456250">
        <ele>611.2</ele>
        <time>2019-08-06T14:37:57Z</time>
      </trkpt>
      <trkpt lat="48.7249950" lon="13.6457030">
        <ele>611.2</ele>
        <time>2019-08-06T14:37:58Z</time>
      </trkpt>
      <trkpt lat="48.7249980" lon="13.6457810">
        <ele>611.2</ele>
        <time>2019-08-06T14:37:59Z</time>
      </trkpt>
      <trkpt lat="48.7250030" lon="13.6458560">
        <ele>611.2</ele>
        <time>2019-08-06T14:38:00Z</time>
      </trkpt>
      <trkpt lat="48.7250080" lon="13.6459310">
        <ele>611.4</ele>
        <time>2019-08-06T14:38:01Z</time>
      </trkpt>
      <trkpt lat="48.7250120" lon="13.6460040">
        <ele>611.4</ele>
        <time>2019-08-06T14:38:02Z</time>
      </trkpt>
      <trkpt lat="48.7250200" lon="13.6460770">
        <ele>611.4</ele>
        <time>2019-08-06T14:38:03Z</time>
      </trkpt>
      <trkpt lat="48.7250300" lon="13.6461510">
        <ele>611.6</ele>
        <time>2019-08-06T14:38:04Z</time>
      </trkpt>
      <trkpt lat="48.7250410" lon="13.6462240">
        <ele>611.6</ele>
        <time>2019-08-06T14:38:05Z</time>
      </trkpt>
      <trkpt lat="48.7250540" lon="13.6462990">
        <ele>611.6</ele>
        <time>2019-08-06T14:38:06Z</time>
      </trkpt>
      <trkpt lat="48.7250680" lon="13.6463720">
        <ele>611.8</ele>
        <time>2019-08-06T14:38:07Z</time>
      </trkpt>
      <trkpt lat="48.7250830" lon="13.6464420">
        <ele>611.8</ele>
        <time>2019-08-06T14:38:08Z</time>
      </trkpt>
      <trkpt lat="48.7251010" lon="13.6465120">
        <ele>611.8</ele>
        <time>2019-08-06T14:38:09Z</time>
      </trkpt>
      <trkpt lat="48.7251190" lon="13.6465810">
        <ele>611.8</ele>
        <time>2019-08-06T14:38:10Z</time>
      </trkpt>
      <trkpt lat="48.7251400" lon="13.6466500">
        <ele>612.0</ele>
        <time>2019-08-06T14:38:11Z</time>
      </trkpt>
      <trkpt lat="48.7251610" lon="13.6467180">
        <ele>612.0</ele>
        <time>2019-08-06T14:38:12Z</time>
      </trkpt>
      <trkpt lat="48.7251830" lon="13.6467880">
        <ele>612.0</ele>
        <time>2019-08-06T14:38:13Z</time>
      </trkpt>
      <trkpt lat="48.7252070" lon="13.6468560">
        <ele>612.0</ele>
        <time>2019-08-06T14:38:14Z</time>
      </trkpt>
      <trkpt lat="48.7252310" lon="13.6469240">
        <ele>612.2</ele>
        <time>2019-08-06T14:38:15Z</time>
      </trkpt>
      <trkpt lat="48.7252560" lon="13.6469890">
        <ele>612.2</ele>
        <time>2019-08-06T14:38:16Z</time>
      </trkpt>
      <trkpt lat="48.7252820" lon="13.6470520">
        <ele>612.4</ele>
        <time>2019-08-06T14:38:17Z</time>
      </trkpt>
      <trkpt lat="48.7253110" lon="13.6471140">
        <ele>612.4</ele>
        <time>2019-08-06T14:38:18Z</time>
      </trkpt>
      <trkpt lat="48.7253380" lon="13.6471770">
        <ele>612.6</ele>
        <time>2019-08-06T14:38:19Z</time>
      </trkpt>
      <trkpt lat="48.7253660" lon="13.6472360">
        <ele>612.6</ele>
        <time>2019-08-06T14:38:20Z</time>
      </trkpt>
      <trkpt lat="48.7253970" lon="13.6472940">
        <ele>612.8</ele>
        <time>2019-08-06T14:38:21Z</time>
      </trkpt>
      <trkpt lat="48.7254260" lon="13.6473540">
        <ele>612.8</ele>
        <time>2019-08-06T14:38:22Z</time>
      </trkpt>
      <trkpt lat="48.7254570" lon="13.6474130">
        <ele>612.8</ele>
        <time>2019-08-06T14:38:23Z</time>
      </trkpt>
      <trkpt lat="48.7254910" lon="13.6474710">
        <ele>613.0</ele>
        <time>2019-08-06T14:38:24Z</time>
      </trkpt>
      <trkpt lat="48.7255250" lon="13.6475280">
        <ele>613.0</ele>
        <time>2019-08-06T14:38:25Z</time>
      </trkpt>
      <trkpt lat="48.7255570" lon="13.6475860">
        <ele>613.0</ele>
        <time>2019-08-06T14:38:26Z</time>
      </trkpt>
      <trkpt lat="48.7255900" lon="13.6476440">
        <ele>613.2</ele>
        <time>2019-08-06T14:38:27Z</time>
      </trkpt>
      <trkpt lat="48.7256240" lon="13.6477030">
        <ele>613.2</ele>
        <time>2019-08-06T14:38:28Z</time>
      </trkpt>
      <trkpt lat="48.7256570" lon="13.6477610">
        <ele>613.2</ele>
        <time>2019-08-06T14:38:29Z</time>
      </trkpt>
      <trkpt lat="48.7256900" lon="13.6478170">
        <ele>613.4</ele>
        <time>2019-08-06T14:38:30Z</time>
      </trkpt>
      <trkpt lat="48.7257220" lon="13.6478740">
        <ele>613.4</ele>
        <time>2019-08-06T14:38:31Z</time>
      </trkpt>
      <trkpt lat="48.7257550" lon="13.6479320">
        <ele>613.4</ele>
        <time>2019-08-06T14:38:32Z</time>
      </trkpt>
      <trkpt lat="48.7257870" lon="13.6479890">
        <ele>613.6</ele>
        <time>2019-08-06T14:38:33Z</time>
      </trkpt>
      <trkpt lat="48.7258210" lon="13.6480460">
        <ele>613.6</ele>
        <time>2019-08-06T14:38:34Z</time>
      </trkpt>
      <trkpt lat="48.7258550" lon="13.6481030">
        <ele>613.6</ele>
        <time>2019-08-06T14:38:35Z</time>
      </trkpt>
      <trkpt lat="48.7258880" lon="13.6481610">
        <ele>613.6</ele>
        <time>2019-08-06T14:38:36Z</time>
      </trkpt>
      <trkpt lat="48.7259200" lon="13.6482210">
        <ele>613.6</ele>
        <time>2019-08-06T14:38:37Z</time>
      </trkpt>
      <trkpt lat="48.7259520" lon="13.6482790">
        <ele>613.6</ele>
        <time>2019-08-06T14:38:38Z</time>
      </trkpt>
      <trkpt lat="48.7259850" lon="13.6483360">
        <ele>613.8</ele>
        <time>2019-08-06T14:38:39Z</time>
      </trkpt>
      <trkpt lat="48.7260180" lon="13.6483930">
        <ele>613.8</ele>
        <time>2019-08-06T14:38:40Z</time>
      </trkpt>
      <trkpt lat="48.7260520" lon="13.6484510">
        <ele>614.0</ele>
        <time>2019-08-06T14:38:41Z</time>
      </trkpt>
      <trkpt lat="48.7260850" lon="13.6485080">
        <ele>614.0</ele>
        <time>2019-08-06T14:38:42Z</time>
      </trkpt>
      <trkpt lat="48.7261180" lon="13.6485630">
        <ele>614.0</ele>
        <time>2019-08-06T14:38:43Z</time>
      </trkpt>
      <trkpt lat="48.7261510" lon="13.6486190">
        <ele>614.0</ele>
        <time>2019-08-06T14:38:44Z</time>
      </trkpt>
      <trkpt lat="48.7261810" lon="13.6486770">
        <ele>614.2</ele>
        <time>2019-08-06T14:38:45Z</time>
      </trkpt>
      <trkpt lat="48.7262130" lon="13.6487330">
        <ele>614.2</ele>
        <time>2019-08-06T14:38:46Z</time>
      </trkpt>
      <trkpt lat="48.7262450" lon="13.6487880">
        <ele>614.2</ele>
        <time>2019-08-06T14:38:47Z</time>
      </trkpt>
      <trkpt lat="48.7262760" lon="13.6488430">
        <ele>614.4</ele>
        <time>2019-08-06T14:38:48Z</time>
      </trkpt>
      <trkpt lat="48.7263080" lon="13.6488980">
        <ele>614.4</ele>
        <time>2019-08-06T14:38:49Z</time>
      </trkpt>
      <trkpt lat="48.7263390" lon="13.6489540">
        <ele>614.4</ele>
        <time>2019-08-06T14:38:50Z</time>
      </trkpt>
      <trkpt lat="48.7263680" lon="13.6490140">
        <ele>614.4</ele>
        <time>2019-08-06T14:38:51Z</time>
      </trkpt>
      <trkpt lat="48.7263970" lon="13.6490790">
        <ele>614.6</ele>
        <time>2019-08-06T14:38:52Z</time>
      </trkpt>
      <trkpt lat="48.7264290" lon="13.6491380">
        <ele>614.6</ele>
        <time>2019-08-06T14:38:53Z</time>
      </trkpt>
      <trkpt lat="48.7264630" lon="13.6491920">
        <ele>614.6</ele>
        <time>2019-08-06T14:38:54Z</time>
      </trkpt>
      <trkpt lat="48.7264960" lon="13.6492480">
        <ele>614.6</ele>
        <time>2019-08-06T14:38:55Z</time>
      </trkpt>
      <trkpt lat="48.7265280" lon="13.6493040">
        <ele>614.8</ele>
        <time>2019-08-06T14:38:56Z</time>
      </trkpt>
      <trkpt lat="48.7265600" lon="13.6493580">
        <ele>614.8</ele>
        <time>2019-08-06T14:38:57Z</time>
      </trkpt>
      <trkpt lat="48.7265910" lon="13.6494130">
        <ele>614.8</ele>
        <time>2019-08-06T14:38:58Z</time>
      </trkpt>
      <trkpt lat="48.7266230" lon="13.6494680">
        <ele>614.8</ele>
        <time>2019-08-06T14:38:59Z</time>
      </trkpt>
      <trkpt lat="48.7266560" lon="13.6495240">
        <ele>614.8</ele>
        <time>2019-08-06T14:39:00Z</time>
      </trkpt>
      <trkpt lat="48.7266900" lon="13.6495790">
        <ele>614.8</ele>
        <time>2019-08-06T14:39:01Z</time>
      </trkpt>
      <trkpt lat="48.7267220" lon="13.6496360">
        <ele>614.8</ele>
        <time>2019-08-06T14:39:02Z</time>
      </trkpt>
      <trkpt lat="48.7267550" lon="13.6496950">
        <ele>614.8</ele>
        <time>2019-08-06T14:39:03Z</time>
      </trkpt>
      <trkpt lat="48.7267860" lon="13.6497550">
        <ele>615.0</ele>
        <time>2019-08-06T14:39:04Z</time>
      </trkpt>
      <trkpt lat="48.7268170" lon="13.6498150">
        <ele>615.0</ele>
        <time>2019-08-06T14:39:05Z</time>
      </trkpt>
      <trkpt lat="48.7268500" lon="13.6498760">
        <ele>615.0</ele>
        <time>2019-08-06T14:39:06Z</time>
      </trkpt>
      <trkpt lat="48.7268820" lon="13.6499390">
        <ele>615.2</ele>
        <time>2019-08-06T14:39:07Z</time>
      </trkpt>
      <trkpt lat="48.7269140" lon="13.6500010">
        <ele>615.2</ele>
        <time>2019-08-06T14:39:08Z</time>
      </trkpt>
      <trkpt lat="48.7269460" lon="13.6500640">
        <ele>615.4</ele>
        <time>2019-08-06T14:39:09Z</time>
      </trkpt>
      <trkpt lat="48.7269760" lon="13.6501250">
        <ele>615.4</ele>
        <time>2019-08-06T14:39:10Z</time>
      </trkpt>
      <trkpt lat="48.7270050" lon="13.6501870">
        <ele>615.4</ele>
        <time>2019-08-06T14:39:11Z</time>
      </trkpt>
      <trkpt lat="48.7270320" lon="13.6502490">
        <ele>615.6</ele>
        <time>2019-08-06T14:39:12Z</time>
      </trkpt>
      <trkpt lat="48.7270590" lon="13.6503150">
        <ele>615.6</ele>
        <time>2019-08-06T14:39:13Z</time>
      </trkpt>
      <trkpt lat="48.7270870" lon="13.6503790">
        <ele>615.8</ele>
        <time>2019-08-06T14:39:14Z</time>
      </trkpt>
      <trkpt lat="48.7271150" lon="13.6504420">
        <ele>615.8</ele>
        <time>2019-08-06T14:39:15Z</time>
      </trkpt>
      <trkpt lat="48.7271440" lon="13.6505050">
        <ele>616.0</ele>
        <time>2019-08-06T14:39:16Z</time>
      </trkpt>
      <trkpt lat="48.7271710" lon="13.6505710">
        <ele>616.2</ele>
        <time>2019-08-06T14:39:17Z</time>
      </trkpt>
      <trkpt lat="48.7271980" lon="13.6506390">
        <ele>616.2</ele>
        <time>2019-08-06T14:39:18Z</time>
      </trkpt>
      <trkpt lat="48.7272230" lon="13.6507080">
        <ele>616.4</ele>
        <time>2019-08-06T14:39:19Z</time>
      </trkpt>
      <trkpt lat="48.7272480" lon="13.6507780">
        <ele>616.4</ele>
        <time>2019-08-06T14:39:20Z</time>
      </trkpt>
      <trkpt lat="48.7272740" lon="13.6508470">
        <ele>616.6</ele>
        <time>2019-08-06T14:39:21Z</time>
      </trkpt>
      <trkpt lat="48.7273010" lon="13.6509150">
        <ele>616.6</ele>
        <time>2019-08-06T14:39:22Z</time>
      </trkpt>
      <trkpt lat="48.7273270" lon="13.6509850">
        <ele>616.8</ele>
        <time>2019-08-06T14:39:23Z</time>
      </trkpt>
      <trkpt lat="48.7273520" lon="13.6510570">
        <ele>616.8</ele>
        <time>2019-08-06T14:39:24Z</time>
      </trkpt>
      <trkpt lat="48.7273740" lon="13.6511270">
        <ele>616.8</ele>
        <time>2019-08-06T14:39:25Z</time>
      </trkpt>
      <trkpt lat="48.7273970" lon="13.6511980">
        <ele>616.6</ele>
        <time>2019-08-06T14:39:26Z</time>
      </trkpt>
      <trkpt lat="48.7274190" lon="13.6512690">
        <ele>616.8</ele>
        <time>2019-08-06T14:39:27Z</time>
      </trkpt>
      <trkpt lat="48.7274420" lon="13.6513400">
        <ele>616.8</ele>
        <time>2019-08-06T14:39:28Z</time>
      </trkpt>
      <trkpt lat="48.7274620" lon="13.6514120">
        <ele>616.8</ele>
        <time>2019-08-06T14:39:29Z</time>
      </trkpt>
      <trkpt lat="48.7274820" lon="13.6514820">
        <ele>616.8</ele>
        <time>2019-08-06T14:39:30Z</time>
      </trkpt>
      <trkpt lat="48.7275030" lon="13.6515520">
        <ele>616.8</ele>
        <time>2019-08-06T14:39:31Z</time>
      </trkpt>
      <trkpt lat="48.7275220" lon="13.6516240">
        <ele>616.8</ele>
        <time>2019-08-06T14:39:32Z</time>
      </trkpt>
      <trkpt lat="48.7275390" lon="13.6516960">
        <ele>617.0</ele>
        <time>2019-08-06T14:39:33Z</time>
      </trkpt>
      <trkpt lat="48.7275580" lon="13.6517680">
        <ele>617.0</ele>
        <time>2019-08-06T14:39:34Z</time>
      </trkpt>
      <trkpt lat="48.7275730" lon="13.6518410">
        <ele>617.0</ele>
        <time>2019-08-06T14:39:35Z</time>
      </trkpt>
      <trkpt lat="48.7275900" lon="13.6519160">
        <ele>617.0</ele>
        <time>2019-08-06T14:39:36Z</time>
      </trkpt>
      <trkpt lat="48.7276060" lon="13.6519880">
        <ele>617.0</ele>
        <time>2019-08-06T14:39:37Z</time>
      </trkpt>
      <trkpt lat="48.7276210" lon="13.6520600">
        <ele>617.0</ele>
        <time>2019-08-06T14:39:38Z</time>
      </trkpt>
      <trkpt lat="48.7276360" lon="13.6521320">
        <ele>617.2</ele>
        <time>2019-08-06T14:39:39Z</time>
      </trkpt>
      <trkpt lat="48.7276510" lon="13.6522040">
        <ele>617.2</ele>
        <time>2019-08-06T14:39:40Z</time>
      </trkpt>
      <trkpt lat="48.7276640" lon="13.6522750">
        <ele>617.2</ele>
        <time>2019-08-06T14:39:41Z</time>
      </trkpt>
      <trkpt lat="48.7276770" lon="13.6523470">
        <ele>617.4</ele>
        <time>2019-08-06T14:39:42Z</time>
      </trkpt>
      <trkpt lat="48.7276890" lon="13.6524180">
        <ele>617.4</ele>
        <time>2019-08-06T14:39:43Z</time>
      </trkpt>
      <trkpt lat="48.7277000" lon="13.6524900">
        <ele>617.6</ele>
        <time>2019-08-06T14:39:44Z</time>
      </trkpt>
      <trkpt lat="48.7277120" lon="13.6525620">
        <ele>617.6</ele>
        <time>2019-08-06T14:39:45Z</time>
      </trkpt>
      <trkpt lat="48.7277240" lon="13.6526350">
        <ele>617.6</ele>
        <time>2019-08-06T14:39:46Z</time>
      </trkpt>
      <trkpt lat="48.7277350" lon="13.6527050">
        <ele>617.8</ele>
        <time>2019-08-06T14:39:47Z</time>
      </trkpt>
      <trkpt lat="48.7277460" lon="13.6527760">
        <ele>617.8</ele>
        <time>2019-08-06T14:39:48Z</time>
      </trkpt>
      <trkpt lat="48.7277560" lon="13.6528480">
        <ele>617.8</ele>
        <time>2019-08-06T14:39:49Z</time>
      </trkpt>
      <trkpt lat="48.7277670" lon="13.6529220">
        <ele>617.8</ele>
        <time>2019-08-06T14:39:50Z</time>
      </trkpt>
      <trkpt lat="48.7277780" lon="13.6529930">
        <ele>617.8</ele>
        <time>2019-08-06T14:39:51Z</time>
      </trkpt>
      <trkpt lat="48.7277890" lon="13.6530650">
        <ele>618.0</ele>
        <time>2019-08-06T14:39:52Z</time>
      </trkpt>
      <trkpt lat="48.7278000" lon="13.6531360">
        <ele>618.0</ele>
        <time>2019-08-06T14:39:53Z</time>
      </trkpt>
      <trkpt lat="48.7278090" lon="13.6532060">
        <ele>618.0</ele>
        <time>2019-08-06T14:39:54Z</time>
      </trkpt>
      <trkpt lat="48.7278200" lon="13.6532750">
        <ele>618.2</ele>
        <time>2019-08-06T14:39:55Z</time>
      </trkpt>
      <trkpt lat="48.7278300" lon="13.6533390">
        <ele>618.2</ele>
        <time>2019-08-06T14:39:56Z</time>
      </trkpt>
      <trkpt lat="48.7278390" lon="13.6534000">
        <ele>618.2</ele>
        <time>2019-08-06T14:39:57Z</time>
      </trkpt>
      <trkpt lat="48.7278450" lon="13.6534550">
        <ele>618.4</ele>
        <time>2019-08-06T14:39:58Z</time>
      </trkpt>
      <trkpt lat="48.7278520" lon="13.6535000">
        <ele>618.4</ele>
        <time>2019-08-06T14:39:59Z</time>
      </trkpt>
      <trkpt lat="48.7278570" lon="13.6535370">
        <ele>618.4</ele>
        <time>2019-08-06T14:40:00Z</time>
      </trkpt>
      <trkpt lat="48.7278640" lon="13.6535640">
        <ele>618.4</ele>
        <time>2019-08-06T14:40:01Z</time>
      </trkpt>
      <trkpt lat="48.7278730" lon="13.6535830">
        <ele>618.4</ele>
        <time>2019-08-06T14:40:02Z</time>
      </trkpt>
      <trkpt lat="48.7278860" lon="13.6536030">
        <ele>618.4</ele>
        <time>2019-08-06T14:40:03Z</time>
      </trkpt>
      <trkpt lat="48.7278960" lon="13.6536320">
        <ele>618.4</ele>
        <time>2019-08-06T14:40:04Z</time>
      </trkpt>
      <trkpt lat="48.7279040" lon="13.6536660">
        <ele>618.4</ele>
        <time>2019-08-06T14:40:05Z</time>
      </trkpt>
      <trkpt lat="48.7279120" lon="13.6537040">
        <ele>618.4</ele>
        <time>2019-08-06T14:40:06Z</time>
      </trkpt>
      <trkpt lat="48.7279190" lon="13.6537470">
        <ele>618.6</ele>
        <time>2019-08-06T14:40:07Z</time>
      </trkpt>
      <trkpt lat="48.7279260" lon="13.6537930">
        <ele>618.6</ele>
        <time>2019-08-06T14:40:08Z</time>
      </trkpt>
      <trkpt lat="48.7279360" lon="13.6538420">
        <ele>618.6</ele>
        <time>2019-08-06T14:40:09Z</time>
      </trkpt>
      <trkpt lat="48.7279430" lon="13.6538920">
        <ele>618.8</ele>
        <time>2019-08-06T14:40:10Z</time>
      </trkpt>
      <trkpt lat="48.7279460" lon="13.6539440">
        <ele>618.8</ele>
        <time>2019-08-06T14:40:11Z</time>
      </trkpt>
      <trkpt lat="48.7279490" lon="13.6539950">
        <ele>618.8</ele>
        <time>2019-08-06T14:40:12Z</time>
      </trkpt>
      <trkpt lat="48.7279530" lon="13.6540430">
        <ele>619.0</ele>
        <time>2019-08-06T14:40:13Z</time>
      </trkpt>
      <trkpt lat="48.7279570" lon="13.6540840">
        <ele>619.0</ele>
        <time>2019-08-06T14:40:14Z</time>
      </trkpt>
      <trkpt lat="48.7279620" lon="13.6541200">
        <ele>619.0</ele>
        <time>2019-08-06T14:40:15Z</time>
      </trkpt>
      <trkpt lat="48.7279700" lon="13.6541530">
        <ele>619.0</ele>
        <time>2019-08-06T14:40:16Z</time>
      </trkpt>
      <trkpt lat="48.7279740" lon="13.6541830">
        <ele>619.0</ele>
        <time>2019-08-06T14:40:17Z</time>
      </trkpt>
      <trkpt lat="48.7279760" lon="13.6542110">
        <ele>619.0</ele>
        <time>2019-08-06T14:40:18Z</time>
      </trkpt>
      <trkpt lat="48.7279720" lon="13.6542400">
        <ele>619.0</ele>
        <time>2019-08-06T14:40:19Z</time>
      </trkpt>
      <trkpt lat="48.7279710" lon="13.6542730">
        <ele>619.0</ele>
        <time>2019-08-06T14:40:20Z</time>
      </trkpt>
      <trkpt lat="48.7279760" lon="13.6543130">
        <ele>619.0</ele>
        <time>2019-08-06T14:40:21Z</time>
      </trkpt>
      <trkpt lat="48.7279860" lon="13.6543590">
        <ele>619.0</ele>
        <time>2019-08-06T14:40:22Z</time>
      </trkpt>
      <trkpt lat="48.7279960" lon="13.6544120">
        <ele>619.0</ele>
        <time>2019-08-06T14:40:23Z</time>
      </trkpt>
      <trkpt lat="48.7280060" lon="13.6544680">
        <ele>619.0</ele>
        <time>2019-08-06T14:40:24Z</time>
      </trkpt>
      <trkpt lat="48.7280140" lon="13.6545270">
        <ele>619.0</ele>
        <time>2019-08-06T14:40:25Z</time>
      </trkpt>
      <trkpt lat="48.7280230" lon="13.6545900">
        <ele>619.0</ele>
        <time>2019-08-06T14:40:26Z</time>
      </trkpt>
      <trkpt lat="48.7280330" lon="13.6546540">
        <ele>619.0</ele>
        <time>2019-08-06T14:40:27Z</time>
      </trkpt>
      <trkpt lat="48.7280430" lon="13.6547200">
        <ele>619.0</ele>
        <time>2019-08-06T14:40:28Z</time>
      </trkpt>
      <trkpt lat="48.7280550" lon="13.6547860">
        <ele>619.0</ele>
        <time>2019-08-06T14:40:29Z</time>
      </trkpt>
      <trkpt lat="48.7280650" lon="13.6548540">
        <ele>619.2</ele>
        <time>2019-08-06T14:40:30Z</time>
      </trkpt>
      <trkpt lat="48.7280770" lon="13.6549220">
        <ele>619.2</ele>
        <time>2019-08-06T14:40:31Z</time>
      </trkpt>
      <trkpt lat="48.7280880" lon="13.6549910">
        <ele>619.2</ele>
        <time>2019-08-06T14:40:32Z</time>
      </trkpt>
      <trkpt lat="48.7280980" lon="13.6550620">
        <ele>619.2</ele>
        <time>2019-08-06T14:40:33Z</time>
      </trkpt>
      <trkpt lat="48.7281080" lon="13.6551320">
        <ele>619.4</ele>
        <time>2019-08-06T14:40:34Z</time>
      </trkpt>
      <trkpt lat="48.7281200" lon="13.6552030">
        <ele>619.4</ele>
        <time>2019-08-06T14:40:35Z</time>
      </trkpt>
      <trkpt lat="48.7281300" lon="13.6552750">
        <ele>619.4</ele>
        <time>2019-08-06T14:40:36Z</time>
      </trkpt>
      <trkpt lat="48.7281420" lon="13.6553450">
        <ele>619.4</ele>
        <time>2019-08-06T14:40:37Z</time>
      </trkpt>
      <trkpt lat="48.7281540" lon="13.6554150">
        <ele>619.4</ele>
        <time>2019-08-06T14:40:38Z</time>
      </trkpt>
      <trkpt lat="48.7281660" lon="13.6554860">
        <ele>619.4</ele>
        <time>2019-08-06T14:40:39Z</time>
      </trkpt>
      <trkpt lat="48.7281770" lon="13.6555570">
        <ele>619.4</ele>
        <time>2019-08-06T14:40:40Z</time>
      </trkpt>
      <trkpt lat="48.7281880" lon="13.6556290">
        <ele>619.4</ele>
        <time>2019-08-06T14:40:41Z</time>
      </trkpt>
      <trkpt lat="48.7281960" lon="13.6557020">
        <ele>619.4</ele>
        <time>2019-08-06T14:40:42Z</time>
      </trkpt>
      <trkpt lat="48.7282060" lon="13.6557740">
        <ele>619.4</ele>
        <time>2019-08-06T14:40:43Z</time>
      </trkpt>
      <trkpt lat="48.7282160" lon="13.6558480">
        <ele>619.4</ele>
        <time>2019-08-06T14:40:44Z</time>
      </trkpt>
      <trkpt lat="48.7282250" lon="13.6559220">
        <ele>619.4</ele>
        <time>2019-08-06T14:40:45Z</time>
      </trkpt>
      <trkpt lat="48.7282340" lon="13.6559960">
        <ele>619.4</ele>
        <time>2019-08-06T14:40:46Z</time>
      </trkpt>
      <trkpt lat="48.7282430" lon="13.6560730">
        <ele>619.4</ele>
        <time>2019-08-06T14:40:47Z</time>
      </trkpt>
      <trkpt lat="48.7282500" lon="13.6561480">
        <ele>619.4</ele>
        <time>2019-08-06T14:40:48Z</time>
      </trkpt>
      <trkpt lat="48.7282550" lon="13.6562250">
        <ele>619.6</ele>
        <time>2019-08-06T14:40:49Z</time>
      </trkpt>
      <trkpt lat="48.7282590" lon="13.6562990">
        <ele>619.6</ele>
        <time>2019-08-06T14:40:50Z</time>
      </trkpt>
      <trkpt lat="48.7282620" lon="13.6563740">
        <ele>619.6</ele>
        <time>2019-08-06T14:40:51Z</time>
      </trkpt>
      <trkpt lat="48.7282640" lon="13.6564510">
        <ele>619.6</ele>
        <time>2019-08-06T14:40:52Z</time>
      </trkpt>
      <trkpt lat="48.7282640" lon="13.6565300">
        <ele>619.6</ele>
        <time>2019-08-06T14:40:53Z</time>
      </trkpt>
      <trkpt lat="48.7282610" lon="13.6566040">
        <ele>619.6</ele>
        <time>2019-08-06T14:40:54Z</time>
      </trkpt>
      <trkpt lat="48.7282570" lon="13.6566800">
        <ele>619.6</ele>
        <time>2019-08-06T14:40:55Z</time>
      </trkpt>
      <trkpt lat="48.7282510" lon="13.6567570">
        <ele>619.6</ele>
        <time>2019-08-06T14:40:56Z</time>
      </trkpt>
      <trkpt lat="48.7282420" lon="13.6568380">
        <ele>619.6</ele>
        <time>2019-08-06T14:40:57Z</time>
      </trkpt>
      <trkpt lat="48.7282320" lon="13.6569180">
        <ele>619.6</ele>
        <time>2019-08-06T14:40:58Z</time>
      </trkpt>
      <trkpt lat="48.7282240" lon="13.6569980">
        <ele>619.6</ele>
        <time>2019-08-06T14:40:59Z</time>
      </trkpt>
      <trkpt lat="48.7282140" lon="13.6570800">
        <ele>619.4</ele>
        <time>2019-08-06T14:41:00Z</time>
      </trkpt>
      <trkpt lat="48.7282030" lon="13.6571610">
        <ele>619.4</ele>
        <time>2019-08-06T14:41:01Z</time>
      </trkpt>
      <trkpt lat="48.7281910" lon="13.6572430">
        <ele>619.4</ele>
        <time>2019-08-06T14:41:02Z</time>
      </trkpt>
      <trkpt lat="48.7281800" lon="13.6573230">
        <ele>619.4</ele>
        <time>2019-08-06T14:41:03Z</time>
      </trkpt>
      <trkpt lat="48.7281680" lon="13.6574040">
        <ele>619.4</ele>
        <time>2019-08-06T14:41:04Z</time>
      </trkpt>
      <trkpt lat="48.7281540" lon="13.6574860">
        <ele>619.6</ele>
        <time>2019-08-06T14:41:05Z</time>
      </trkpt>
      <trkpt lat="48.7281410" lon="13.6575670">
        <ele>619.6</ele>
        <time>2019-08-06T14:41:06Z</time>
      </trkpt>
      <trkpt lat="48.7281280" lon="13.6576480">
        <ele>619.6</ele>
        <time>2019-08-06T14:41:07Z</time>
      </trkpt>
      <trkpt lat="48.7281160" lon="13.6577300">
        <ele>619.6</ele>
        <time>2019-08-06T14:41:08Z</time>
      </trkpt>
      <trkpt lat="48.7281050" lon="13.6578130">
        <ele>619.6</ele>
        <time>2019-08-06T14:41:09Z</time>
      </trkpt>
      <trkpt lat="48.7280930" lon="13.6578940">
        <ele>619.6</ele>
        <time>2019-08-06T14:41:10Z</time>
      </trkpt>
      <trkpt lat="48.7280810" lon="13.6579740">
        <ele>619.6</ele>
        <time>2019-08-06T14:41:11Z</time>
      </trkpt>
      <trkpt lat="48.7280680" lon="13.6580530">
        <ele>619.6</ele>
        <time>2019-08-06T14:41:12Z</time>
      </trkpt>
      <trkpt lat="48.7280560" lon="13.6581340">
        <ele>619.6</ele>
        <time>2019-08-06T14:41:13Z</time>
      </trkpt>
      <trkpt lat="48.7280500" lon="13.6582170">
        <ele>619.6</ele>
        <time>2019-08-06T14:41:14Z</time>
      </trkpt>
      <trkpt lat="48.7280420" lon="13.6583020">
        <ele>619.6</ele>
        <time>2019-08-06T14:41:15Z</time>
      </trkpt>
      <trkpt lat="48.7280320" lon="13.6583870">
        <ele>619.6</ele>
        <time>2019-08-06T14:41:16Z</time>
      </trkpt>
      <trkpt lat="48.7280250" lon="13.6584730">
        <ele>619.6</ele>
        <time>2019-08-06T14:41:17Z</time>
      </trkpt>
      <trkpt lat="48.7280210" lon="13.6585590">
        <ele>619.6</ele>
        <time>2019-08-06T14:41:18Z</time>
      </trkpt>
      <trkpt lat="48.7280180" lon="13.6586460">
        <ele>619.6</ele>
        <time>2019-08-06T14:41:19Z</time>
      </trkpt>
      <trkpt lat="48.7280190" lon="13.6587320">
        <ele>619.6</ele>
        <time>2019-08-06T14:41:20Z</time>
      </trkpt>
      <trkpt lat="48.7280210" lon="13.6588190">
        <ele>619.6</ele>
        <time>2019-08-06T14:41:21Z</time>
      </trkpt>
      <trkpt lat="48.7280250" lon="13.6589040">
        <ele>619.6</ele>
        <time>2019-08-06T14:41:22Z</time>
      </trkpt>
      <trkpt lat="48.7280300" lon="13.6589870">
        <ele>619.4</ele>
        <time>2019-08-06T14:41:23Z</time>
      </trkpt>
      <trkpt lat="48.7280350" lon="13.6590700">
        <ele>619.4</ele>
        <time>2019-08-06T14:41:24Z</time>
      </trkpt>
      <trkpt lat="48.7280410" lon="13.6591530">
        <ele>619.4</ele>
        <time>2019-08-06T14:41:25Z</time>
      </trkpt>
      <trkpt lat="48.7280500" lon="13.6592340">
        <ele>619.4</ele>
        <time>2019-08-06T14:41:26Z</time>
      </trkpt>
      <trkpt lat="48.7280610" lon="13.6593160">
        <ele>619.2</ele>
        <time>2019-08-06T14:41:27Z</time>
      </trkpt>
      <trkpt lat="48.7280740" lon="13.6594000">
        <ele>619.2</ele>
        <time>2019-08-06T14:41:28Z</time>
      </trkpt>
      <trkpt lat="48.7280880" lon="13.6594870">
        <ele>619.2</ele>
        <time>2019-08-06T14:41:29Z</time>
      </trkpt>
      <trkpt lat="48.7281050" lon="13.6595760">
        <ele>619.0</ele>
        <time>2019-08-06T14:41:30Z</time>
      </trkpt>
      <trkpt lat="48.7281240" lon="13.6596700">
        <ele>619.0</ele>
        <time>2019-08-06T14:41:31Z</time>
      </trkpt>
      <trkpt lat="48.7281460" lon="13.6597620">
        <ele>619.0</ele>
        <time>2019-08-06T14:41:32Z</time>
      </trkpt>
      <trkpt lat="48.7281720" lon="13.6598510">
        <ele>618.8</ele>
        <time>2019-08-06T14:41:33Z</time>
      </trkpt>
      <trkpt lat="48.7282010" lon="13.6599360">
        <ele>619.0</ele>
        <time>2019-08-06T14:41:34Z</time>
      </trkpt>
      <trkpt lat="48.7282340" lon="13.6600220">
        <ele>619.0</ele>
        <time>2019-08-06T14:41:35Z</time>
      </trkpt>
      <trkpt lat="48.7282690" lon="13.6601100">
        <ele>618.8</ele>
        <time>2019-08-06T14:41:36Z</time>
      </trkpt>
      <trkpt lat="48.7283040" lon="13.6601950">
        <ele>618.8</ele>
        <time>2019-08-06T14:41:37Z</time>
      </trkpt>
      <trkpt lat="48.7283390" lon="13.6602750">
        <ele>618.8</ele>
        <time>2019-08-06T14:41:38Z</time>
      </trkpt>
      <trkpt lat="48.7283730" lon="13.6603500">
        <ele>618.8</ele>
        <time>2019-08-06T14:41:39Z</time>
      </trkpt>
      <trkpt lat="48.7284050" lon="13.6604230">
        <ele>619.0</ele>
        <time>2019-08-06T14:41:40Z</time>
      </trkpt>
      <trkpt lat="48.7284350" lon="13.6604990">
        <ele>619.0</ele>
        <time>2019-08-06T14:41:41Z</time>
      </trkpt>
      <trkpt lat="48.7284620" lon="13.6605720">
        <ele>619.2</ele>
        <time>2019-08-06T14:41:42Z</time>
      </trkpt>
      <trkpt lat="48.7284810" lon="13.6606460">
        <ele>619.4</ele>
        <time>2019-08-06T14:41:43Z</time>
      </trkpt>
      <trkpt lat="48.7284940" lon="13.6607200">
        <ele>619.4</ele>
        <time>2019-08-06T14:41:44Z</time>
      </trkpt>
      <trkpt lat="48.7285010" lon="13.6607940">
        <ele>619.6</ele>
        <time>2019-08-06T14:41:45Z</time>
      </trkpt>
      <trkpt lat="48.7285040" lon="13.6608680">
        <ele>619.8</ele>
        <time>2019-08-06T14:41:46Z</time>
      </trkpt>
      <trkpt lat="48.7285090" lon="13.6609360">
        <ele>619.8</ele>
        <time>2019-08-06T14:41:47Z</time>
      </trkpt>
      <trkpt lat="48.7285190" lon="13.6609940">
        <ele>620.0</ele>
        <time>2019-08-06T14:41:48Z</time>
      </trkpt>
      <trkpt lat="48.7285420" lon="13.6610390">
        <ele>620.0</ele>
        <time>2019-08-06T14:41:49Z</time>
      </trkpt>
      <trkpt lat="48.7285780" lon="13.6610760">
        <ele>620.0</ele>
        <time>2019-08-06T14:41:50Z</time>
      </trkpt>
      <trkpt lat="48.7286210" lon="13.6611090">
        <ele>620.0</ele>
        <time>2019-08-06T14:41:51Z</time>
      </trkpt>
      <trkpt lat="48.7286700" lon="13.6611440">
        <ele>620.0</ele>
        <time>2019-08-06T14:41:52Z</time>
      </trkpt>
      <trkpt lat="48.7287200" lon="13.6611830">
        <ele>619.8</ele>
        <time>2019-08-06T14:41:53Z</time>
      </trkpt>
      <trkpt lat="48.7287700" lon="13.6612290">
        <ele>619.8</ele>
        <time>2019-08-06T14:41:54Z</time>
      </trkpt>
      <trkpt lat="48.7288170" lon="13.6612850">
        <ele>619.8</ele>
        <time>2019-08-06T14:41:55Z</time>
      </trkpt>
      <trkpt lat="48.7288630" lon="13.6613460">
        <ele>619.6</ele>
        <time>2019-08-06T14:41:56Z</time>
      </trkpt>
      <trkpt lat="48.7289060" lon="13.6614100">
        <ele>619.6</ele>
        <time>2019-08-06T14:41:57Z</time>
      </trkpt>
      <trkpt lat="48.7289520" lon="13.6614720">
        <ele>619.6</ele>
        <time>2019-08-06T14:41:58Z</time>
      </trkpt>
      <trkpt lat="48.7289990" lon="13.6615350">
        <ele>619.4</ele>
        <time>2019-08-06T14:41:59Z</time>
      </trkpt>
      <trkpt lat="48.7290460" lon="13.6615950">
        <ele>619.4</ele>
        <time>2019-08-06T14:42:00Z</time>
      </trkpt>
      <trkpt lat="48.7290920" lon="13.6616570">
        <ele>619.4</ele>
        <time>2019-08-06T14:42:01Z</time>
      </trkpt>
      <trkpt lat="48.7291380" lon="13.6617180">
        <ele>619.4</ele>
        <time>2019-08-06T14:42:02Z</time>
      </trkpt>
      <trkpt lat="48.7291860" lon="13.6617790">
        <ele>619.4</ele>
        <time>2019-08-06T14:42:03Z</time>
      </trkpt>
      <trkpt lat="48.7292330" lon="13.6618410">
        <ele>619.4</ele>
        <time>2019-08-06T14:42:04Z</time>
      </trkpt>
      <trkpt lat="48.7292790" lon="13.6619020">
        <ele>619.4</ele>
        <time>2019-08-06T14:42:05Z</time>
      </trkpt>
      <trkpt lat="48.7293260" lon="13.6619640">
        <ele>619.4</ele>
        <time>2019-08-06T14:42:06Z</time>
      </trkpt>
      <trkpt lat="48.7293730" lon="13.6620250">
        <ele>619.4</ele>
        <time>2019-08-06T14:42:07Z</time>
      </trkpt>
      <trkpt lat="48.7294210" lon="13.6620850">
        <ele>619.4</ele>
        <time>2019-08-06T14:42:08Z</time>
      </trkpt>
      <trkpt lat="48.7294670" lon="13.6621460">
        <ele>619.4</ele>
        <time>2019-08-06T14:42:09Z</time>
      </trkpt>
      <trkpt lat="48.7295140" lon="13.6622050">
        <ele>619.4</ele>
        <time>2019-08-06T14:42:10Z</time>
      </trkpt>
      <trkpt lat="48.7295620" lon="13.6622660">
        <ele>619.6</ele>
        <time>2019-08-06T14:42:11Z</time>
      </trkpt>
      <trkpt lat="48.7296090" lon="13.6623270">
        <ele>619.6</ele>
        <time>2019-08-06T14:42:12Z</time>
      </trkpt>
      <trkpt lat="48.7296550" lon="13.6623880">
        <ele>619.6</ele>
        <time>2019-08-06T14:42:13Z</time>
      </trkpt>
      <trkpt lat="48.7297020" lon="13.6624500">
        <ele>619.6</ele>
        <time>2019-08-06T14:42:14Z</time>
      </trkpt>
      <trkpt lat="48.7297490" lon="13.6625120">
        <ele>619.6</ele>
        <time>2019-08-06T14:42:15Z</time>
      </trkpt>
      <trkpt lat="48.7297950" lon="13.6625730">
        <ele>619.6</ele>
        <time>2019-08-06T14:42:16Z</time>
      </trkpt>
      <trkpt lat="48.7298420" lon="13.6626340">
        <ele>619.6</ele>
        <time>2019-08-06T14:42:17Z</time>
      </trkpt>
      <trkpt lat="48.7298900" lon="13.6626940">
        <ele>619.6</ele>
        <time>2019-08-06T14:42:18Z</time>
      </trkpt>
      <trkpt lat="48.7299390" lon="13.6627490">
        <ele>619.6</ele>
        <time>2019-08-06T14:42:19Z</time>
      </trkpt>
      <trkpt lat="48.7299880" lon="13.6628030">
        <ele>619.6</ele>
        <time>2019-08-06T14:42:20Z</time>
      </trkpt>
      <trkpt lat="48.7300330" lon="13.6628650">
        <ele>619.6</ele>
        <time>2019-08-06T14:42:21Z</time>
      </trkpt>
      <trkpt lat="48.7300760" lon="13.6629290">
        <ele>619.8</ele>
        <time>2019-08-06T14:42:22Z</time>
      </trkpt>
      <trkpt lat="48.7301210" lon="13.6629920">
        <ele>619.8</ele>
        <time>2019-08-06T14:42:23Z</time>
      </trkpt>
      <trkpt lat="48.7301670" lon="13.6630540">
        <ele>619.8</ele>
        <time>2019-08-06T14:42:24Z</time>
      </trkpt>
      <trkpt lat="48.7302140" lon="13.6631150">
        <ele>619.6</ele>
        <time>2019-08-06T14:42:25Z</time>
      </trkpt>
      <trkpt lat="48.7302610" lon="13.6631750">
        <ele>619.6</ele>
        <time>2019-08-06T14:42:26Z</time>
      </trkpt>
      <trkpt lat="48.7303090" lon="13.6632360">
        <ele>619.6</ele>
        <time>2019-08-06T14:42:27Z</time>
      </trkpt>
      <trkpt lat="48.7303560" lon="13.6632990">
        <ele>619.6</ele>
        <time>2019-08-06T14:42:28Z</time>
      </trkpt>
      <trkpt lat="48.7304040" lon="13.6633600">
        <ele>619.4</ele>
        <time>2019-08-06T14:42:29Z</time>
      </trkpt>
      <trkpt lat="48.7304540" lon="13.6634180">
        <ele>619.4</ele>
        <time>2019-08-06T14:42:30Z</time>
      </trkpt>
      <trkpt lat="48.7305050" lon="13.6634730">
        <ele>619.6</ele>
        <time>2019-08-06T14:42:31Z</time>
      </trkpt>
      <trkpt lat="48.7305570" lon="13.6635260">
        <ele>619.6</ele>
        <time>2019-08-06T14:42:32Z</time>
      </trkpt>
      <trkpt lat="48.7306090" lon="13.6635790">
        <ele>619.6</ele>
        <time>2019-08-06T14:42:33Z</time>
      </trkpt>
      <trkpt lat="48.7306600" lon="13.6636300">
        <ele>619.6</ele>
        <time>2019-08-06T14:42:34Z</time>
      </trkpt>
      <trkpt lat="48.7307100" lon="13.6636790">
        <ele>619.6</ele>
        <time>2019-08-06T14:42:35Z</time>
      </trkpt>
      <trkpt lat="48.7307650" lon="13.6637250">
        <ele>619.6</ele>
        <time>2019-08-06T14:42:36Z</time>
      </trkpt>
      <trkpt lat="48.7308220" lon="13.6637680">
        <ele>619.6</ele>
        <time>2019-08-06T14:42:37Z</time>
      </trkpt>
      <trkpt lat="48.7308770" lon="13.6638090">
        <ele>619.6</ele>
        <time>2019-08-06T14:42:38Z</time>
      </trkpt>
      <trkpt lat="48.7309330" lon="13.6638500">
        <ele>619.6</ele>
        <time>2019-08-06T14:42:39Z</time>
      </trkpt>
      <trkpt lat="48.7309880" lon="13.6638880">
        <ele>619.8</ele>
        <time>2019-08-06T14:42:40Z</time>
      </trkpt>
      <trkpt lat="48.7310460" lon="13.6639240">
        <ele>619.6</ele>
        <time>2019-08-06T14:42:41Z</time>
      </trkpt>
      <trkpt lat="48.7311060" lon="13.6639590">
        <ele>619.6</ele>
        <time>2019-08-06T14:42:42Z</time>
      </trkpt>
      <trkpt lat="48.7311650" lon="13.6639910">
        <ele>619.6</ele>
        <time>2019-08-06T14:42:43Z</time>
      </trkpt>
      <trkpt lat="48.7312230" lon="13.6640210">
        <ele>619.6</ele>
        <time>2019-08-06T14:42:44Z</time>
      </trkpt>
      <trkpt lat="48.7312830" lon="13.6640480">
        <ele>619.6</ele>
        <time>2019-08-06T14:42:45Z</time>
      </trkpt>
      <trkpt lat="48.7313420" lon="13.6640750">
        <ele>619.8</ele>
        <time>2019-08-06T14:42:46Z</time>
      </trkpt>
      <trkpt lat="48.7314020" lon="13.6640990">
        <ele>619.8</ele>
        <time>2019-08-06T14:42:47Z</time>
      </trkpt>
      <trkpt lat="48.7314640" lon="13.6641180">
        <ele>619.8</ele>
        <time>2019-08-06T14:42:48Z</time>
      </trkpt>
      <trkpt lat="48.7315250" lon="13.6641350">
        <ele>620.0</ele>
        <time>2019-08-06T14:42:49Z</time>
      </trkpt>
      <trkpt lat="48.7315870" lon="13.6641500">
        <ele>620.0</ele>
        <time>2019-08-06T14:42:50Z</time>
      </trkpt>
      <trkpt lat="48.7316480" lon="13.6641660">
        <ele>620.2</ele>
        <time>2019-08-06T14:42:51Z</time>
      </trkpt>
      <trkpt lat="48.7317090" lon="13.6641790">
        <ele>620.2</ele>
        <time>2019-08-06T14:42:52Z</time>
      </trkpt>
      <trkpt lat="48.7317700" lon="13.6641900">
        <ele>620.2</ele>
        <time>2019-08-06T14:42:53Z</time>
      </trkpt>
      <trkpt lat="48.7318300" lon="13.6641990">
        <ele>620.2</ele>
        <time>2019-08-06T14:42:54Z</time>
      </trkpt>
      <trkpt lat="48.7318920" lon="13.6642050">
        <ele>620.4</ele>
        <time>2019-08-06T14:42:55Z</time>
      </trkpt>
      <trkpt lat="48.7319540" lon="13.6642090">
        <ele>620.6</ele>
        <time>2019-08-06T14:42:56Z</time>
      </trkpt>
      <trkpt lat="48.7320150" lon="13.6642120">
        <ele>620.6</ele>
        <time>2019-08-06T14:42:57Z</time>
      </trkpt>
      <trkpt lat="48.7320750" lon="13.6642120">
        <ele>620.6</ele>
        <time>2019-08-06T14:42:58Z</time>
      </trkpt>
      <trkpt lat="48.7321350" lon="13.6642120">
        <ele>620.6</ele>
        <time>2019-08-06T14:42:59Z</time>
      </trkpt>
      <trkpt lat="48.7321950" lon="13.6642080">
        <ele>620.6</ele>
        <time>2019-08-06T14:43:00Z</time>
      </trkpt>
      <trkpt lat="48.7322540" lon="13.6642010">
        <ele>620.6</ele>
        <time>2019-08-06T14:43:01Z</time>
      </trkpt>
      <trkpt lat="48.7323130" lon="13.6641940">
        <ele>620.8</ele>
        <time>2019-08-06T14:43:02Z</time>
      </trkpt>
      <trkpt lat="48.7323720" lon="13.6641860">
        <ele>620.8</ele>
        <time>2019-08-06T14:43:03Z</time>
      </trkpt>
      <trkpt lat="48.7324300" lon="13.6641760">
        <ele>620.8</ele>
        <time>2019-08-06T14:43:04Z</time>
      </trkpt>
      <trkpt lat="48.7324890" lon="13.6641620">
        <ele>621.0</ele>
        <time>2019-08-06T14:43:05Z</time>
      </trkpt>
      <trkpt lat="48.7325450" lon="13.6641460">
        <ele>621.2</ele>
        <time>2019-08-06T14:43:06Z</time>
      </trkpt>
      <trkpt lat="48.7326010" lon="13.6641290">
        <ele>621.2</ele>
        <time>2019-08-06T14:43:07Z</time>
      </trkpt>
      <trkpt lat="48.7326580" lon="13.6641110">
        <ele>621.4</ele>
        <time>2019-08-06T14:43:08Z</time>
      </trkpt>
      <trkpt lat="48.7327130" lon="13.6640930">
        <ele>621.4</ele>
        <time>2019-08-06T14:43:09Z</time>
      </trkpt>
      <trkpt lat="48.7327680" lon="13.6640730">
        <ele>621.4</ele>
        <time>2019-08-06T14:43:10Z</time>
      </trkpt>
      <trkpt lat="48.7328210" lon="13.6640490">
        <ele>621.6</ele>
        <time>2019-08-06T14:43:11Z</time>
      </trkpt>
      <trkpt lat="48.7328740" lon="13.6640240">
        <ele>621.6</ele>
        <time>2019-08-06T14:43:12Z</time>
      </trkpt>
      <trkpt lat="48.7329270" lon="13.6639960">
        <ele>621.6</ele>
        <time>2019-08-06T14:43:13Z</time>
      </trkpt>
      <trkpt lat="48.7329790" lon="13.6639650">
        <ele>621.6</ele>
        <time>2019-08-06T14:43:14Z</time>
      </trkpt>
      <trkpt lat="48.7330280" lon="13.6639320">
        <ele>621.6</ele>
        <time>2019-08-06T14:43:15Z</time>
      </trkpt>
      <trkpt lat="48.7330760" lon="13.6638940">
        <ele>621.6</ele>
        <time>2019-08-06T14:43:16Z</time>
      </trkpt>
      <trkpt lat="48.7331250" lon="13.6638530">
        <ele>621.8</ele>
        <time>2019-08-06T14:43:17Z</time>
      </trkpt>
      <trkpt lat="48.7331730" lon="13.6638130">
        <ele>622.0</ele>
        <time>2019-08-06T14:43:18Z</time>
      </trkpt>
      <trkpt lat="48.7332210" lon="13.6637740">
        <ele>622.0</ele>
        <time>2019-08-06T14:43:19Z</time>
      </trkpt>
      <trkpt lat="48.7332670" lon="13.6637300">
        <ele>622.2</ele>
        <time>2019-08-06T14:43:20Z</time>
      </trkpt>
      <trkpt lat="48.7333120" lon="13.6636850">
        <ele>622.2</ele>
        <time>2019-08-06T14:43:21Z</time>
      </trkpt>
      <trkpt lat="48.7333550" lon="13.6636370">
        <ele>622.4</ele>
        <time>2019-08-06T14:43:22Z</time>
      </trkpt>
      <trkpt lat="48.7333960" lon="13.6635890">
        <ele>622.6</ele>
        <time>2019-08-06T14:43:23Z</time>
      </trkpt>
      <trkpt lat="48.7334350" lon="13.6635370">
        <ele>622.6</ele>
        <time>2019-08-06T14:43:24Z</time>
      </trkpt>
      <trkpt lat="48.7334740" lon="13.6634840">
        <ele>622.6</ele>
        <time>2019-08-06T14:43:25Z</time>
      </trkpt>
      <trkpt lat="48.7335130" lon="13.6634320">
        <ele>622.8</ele>
        <time>2019-08-06T14:43:26Z</time>
      </trkpt>
      <trkpt lat="48.7335490" lon="13.6633780">
        <ele>622.8</ele>
        <time>2019-08-06T14:43:27Z</time>
      </trkpt>
      <trkpt lat="48.7335840" lon="13.6633240">
        <ele>622.8</ele>
        <time>2019-08-06T14:43:28Z</time>
      </trkpt>
      <trkpt lat="48.7336190" lon="13.6632700">
        <ele>622.8</ele>
        <time>2019-08-06T14:43:29Z</time>
      </trkpt>
      <trkpt lat="48.7336540" lon="13.6632160">
        <ele>623.0</ele>
        <time>2019-08-06T14:43:30Z</time>
      </trkpt>
      <trkpt lat="48.7336900" lon="13.6631620">
        <ele>623.0</ele>
        <time>2019-08-06T14:43:31Z</time>
      </trkpt>
      <trkpt lat="48.7337230" lon="13.6631070">
        <ele>623.0</ele>
        <time>2019-08-06T14:43:32Z</time>
      </trkpt>
      <trkpt lat="48.7337560" lon="13.6630510">
        <ele>623.0</ele>
        <time>2019-08-06T14:43:33Z</time>
      </trkpt>
      <trkpt lat="48.7337890" lon="13.6629940">
        <ele>623.0</ele>
        <time>2019-08-06T14:43:34Z</time>
      </trkpt>
      <trkpt lat="48.7338260" lon="13.6629370">
        <ele>623.2</ele>
        <time>2019-08-06T14:43:35Z</time>
      </trkpt>
      <trkpt lat="48.7338620" lon="13.6628840">
        <ele>623.4</ele>
        <time>2019-08-06T14:43:36Z</time>
      </trkpt>
      <trkpt lat="48.7339010" lon="13.6628340">
        <ele>623.4</ele>
        <time>2019-08-06T14:43:37Z</time>
      </trkpt>
      <trkpt lat="48.7339400" lon="13.6627840">
        <ele>623.6</ele>
        <time>2019-08-06T14:43:38Z</time>
      </trkpt>
      <trkpt lat="48.7339760" lon="13.6627340">
        <ele>623.6</ele>
        <time>2019-08-06T14:43:39Z</time>
      </trkpt>
      <trkpt lat="48.7340130" lon="13.6626890">
        <ele>623.6</ele>
        <time>2019-08-06T14:43:40Z</time>
      </trkpt>
      <trkpt lat="48.7340530" lon="13.6626460">
        <ele>623.8</ele>
        <time>2019-08-06T14:43:41Z</time>
      </trkpt>
      <trkpt lat="48.7340920" lon="13.6626050">
        <ele>623.8</ele>
        <time>2019-08-06T14:43:42Z</time>
      </trkpt>
      <trkpt lat="48.7341310" lon="13.6625700">
        <ele>624.0</ele>
        <time>2019-08-06T14:43:43Z</time>
      </trkpt>
      <trkpt lat="48.7341690" lon="13.6625380">
        <ele>624.0</ele>
        <time>2019-08-06T14:43:44Z</time>
      </trkpt>
      <trkpt lat="48.7342090" lon="13.6625020">
        <ele>624.0</ele>
        <time>2019-08-06T14:43:45Z</time>
      </trkpt>
      <trkpt lat="48.7342490" lon="13.6624670">
        <ele>624.0</ele>
        <time>2019-08-06T14:43:46Z</time>
      </trkpt>
      <trkpt lat="48.7342890" lon="13.6624340">
        <ele>624.0</ele>
        <time>2019-08-06T14:43:47Z</time>
      </trkpt>
      <trkpt lat="48.7343310" lon="13.6624050">
        <ele>624.0</ele>
        <time>2019-08-06T14:43:48Z</time>
      </trkpt>
      <trkpt lat="48.7343750" lon="13.6623760">
        <ele>624.2</ele>
        <time>2019-08-06T14:43:49Z</time>
      </trkpt>
      <trkpt lat="48.7344180" lon="13.6623490">
        <ele>624.2</ele>
        <time>2019-08-06T14:43:50Z</time>
      </trkpt>
      <trkpt lat="48.7344600" lon="13.6623230">
        <ele>624.2</ele>
        <time>2019-08-06T14:43:51Z</time>
      </trkpt>
      <trkpt lat="48.7345060" lon="13.6623000">
        <ele>624.4</ele>
        <time>2019-08-06T14:43:52Z</time>
      </trkpt>
      <trkpt lat="48.7345510" lon="13.6622760">
        <ele>624.6</ele>
        <time>2019-08-06T14:43:53Z</time>
      </trkpt>
      <trkpt lat="48.7345950" lon="13.6622520">
        <ele>624.6</ele>
        <time>2019-08-06T14:43:54Z</time>
      </trkpt>
      <trkpt lat="48.7346390" lon="13.6622310">
        <ele>624.6</ele>
        <time>2019-08-06T14:43:55Z</time>
      </trkpt>
      <trkpt lat="48.7346850" lon="13.6622140">
        <ele>624.8</ele>
        <time>2019-08-06T14:43:56Z</time>
      </trkpt>
      <trkpt lat="48.7347300" lon="13.6621990">
        <ele>624.8</ele>
        <time>2019-08-06T14:43:57Z</time>
      </trkpt>
      <trkpt lat="48.7347760" lon="13.6621860">
        <ele>625.0</ele>
        <time>2019-08-06T14:43:58Z</time>
      </trkpt>
      <trkpt lat="48.7348210" lon="13.6621730">
        <ele>625.0</ele>
        <time>2019-08-06T14:43:59Z</time>
      </trkpt>
      <trkpt lat="48.7348660" lon="13.6621620">
        <ele>625.2</ele>
        <time>2019-08-06T14:44:00Z</time>
      </trkpt>
      <trkpt lat="48.7349130" lon="13.6621520">
        <ele>625.2</ele>
        <time>2019-08-06T14:44:01Z</time>
      </trkpt>
      <trkpt lat="48.7349570" lon="13.6621450">
        <ele>625.2</ele>
        <time>2019-08-06T14:44:02Z</time>
      </trkpt>
      <trkpt lat="48.7350020" lon="13.6621410">
        <ele>625.4</ele>
        <time>2019-08-06T14:44:03Z</time>
      </trkpt>
      <trkpt lat="48.7350490" lon="13.6621400">
        <ele>625.4</ele>
        <time>2019-08-06T14:44:04Z</time>
      </trkpt>
      <trkpt lat="48.7350940" lon="13.6621400">
        <ele>625.4</ele>
        <time>2019-08-06T14:44:05Z</time>
      </trkpt>
      <trkpt lat="48.7351390" lon="13.6621400">
        <ele>625.6</ele>
        <time>2019-08-06T14:44:06Z</time>
      </trkpt>
      <trkpt lat="48.7351840" lon="13.6621400">
        <ele>625.8</ele>
        <time>2019-08-06T14:44:07Z</time>
      </trkpt>
      <trkpt lat="48.7352280" lon="13.6621440">
        <ele>625.8</ele>
        <time>2019-08-06T14:44:08Z</time>
      </trkpt>
      <trkpt lat="48.7352710" lon="13.6621510">
        <ele>625.8</ele>
        <time>2019-08-06T14:44:09Z</time>
      </trkpt>
      <trkpt lat="48.7353140" lon="13.6621600">
        <ele>626.0</ele>
        <time>2019-08-06T14:44:10Z</time>
      </trkpt>
      <trkpt lat="48.7353550" lon="13.6621660">
        <ele>626.0</ele>
        <time>2019-08-06T14:44:11Z</time>
      </trkpt>
      <trkpt lat="48.7353930" lon="13.6621700">
        <ele>626.0</ele>
        <time>2019-08-06T14:44:12Z</time>
      </trkpt>
      <trkpt lat="48.7354290" lon="13.6621760">
        <ele>626.2</ele>
        <time>2019-08-06T14:44:13Z</time>
      </trkpt>
      <trkpt lat="48.7354660" lon="13.6621840">
        <ele>626.2</ele>
        <time>2019-08-06T14:44:14Z</time>
      </trkpt>
      <trkpt lat="48.7355020" lon="13.6621910">
        <ele>626.4</ele>
        <time>2019-08-06T14:44:15Z</time>
      </trkpt>
      <trkpt lat="48.7355350" lon="13.6622020">
        <ele>626.4</ele>
        <time>2019-08-06T14:44:16Z</time>
      </trkpt>
      <trkpt lat="48.7355660" lon="13.6622150">
        <ele>626.4</ele>
        <time>2019-08-06T14:44:17Z</time>
      </trkpt>
      <trkpt lat="48.7355980" lon="13.6622270">
        <ele>626.6</ele>
        <time>2019-08-06T14:44:18Z</time>
      </trkpt>
      <trkpt lat="48.7356320" lon="13.6622430">
        <ele>626.6</ele>
        <time>2019-08-06T14:44:19Z</time>
      </trkpt>
      <trkpt lat="48.7356660" lon="13.6622690">
        <ele>626.6</ele>
        <time>2019-08-06T14:44:20Z</time>
      </trkpt>
      <trkpt lat="48.7357020" lon="13.6623000">
        <ele>626.8</ele>
        <time>2019-08-06T14:44:21Z</time>
      </trkpt>
      <trkpt lat="48.7357460" lon="13.6623340">
        <ele>626.8</ele>
        <time>2019-08-06T14:44:22Z</time>
      </trkpt>
      <trkpt lat="48.7358010" lon="13.6623730">
        <ele>627.0</ele>
        <time>2019-08-06T14:44:23Z</time>
      </trkpt>
      <trkpt lat="48.7358510" lon="13.6624100">
        <ele>627.2</ele>
        <time>2019-08-06T14:44:24Z</time>
      </trkpt>
      <trkpt lat="48.7358980" lon="13.6624470">
        <ele>627.2</ele>
        <time>2019-08-06T14:44:25Z</time>
      </trkpt>
      <trkpt lat="48.7359450" lon="13.6624830">
        <ele>627.2</ele>
        <time>2019-08-06T14:44:26Z</time>
      </trkpt>
      <trkpt lat="48.7359920" lon="13.6625210">
        <ele>627.4</ele>
        <time>2019-08-06T14:44:27Z</time>
      </trkpt>
      <trkpt lat="48.7360400" lon="13.6625630">
        <ele>627.4</ele>
        <time>2019-08-06T14:44:28Z</time>
      </trkpt>
      <trkpt lat="48.7360820" lon="13.6626070">
        <ele>627.6</ele>
        <time>2019-08-06T14:44:29Z</time>
      </trkpt>
      <trkpt lat="48.7361210" lon="13.6626540">
        <ele>627.8</ele>
        <time>2019-08-06T14:44:30Z</time>
      </trkpt>
      <trkpt lat="48.7361560" lon="13.6627030">
        <ele>627.8</ele>
        <time>2019-08-06T14:44:31Z</time>
      </trkpt>
      <trkpt lat="48.7361920" lon="13.6627500">
        <ele>628.0</ele>
        <time>2019-08-06T14:44:32Z</time>
      </trkpt>
      <trkpt lat="48.7362250" lon="13.6627930">
        <ele>628.0</ele>
        <time>2019-08-06T14:44:33Z</time>
      </trkpt>
      <trkpt lat="48.7362580" lon="13.6628390">
        <ele>628.0</ele>
        <time>2019-08-06T14:44:34Z</time>
      </trkpt>
      <trkpt lat="48.7362930" lon="13.6628880">
        <ele>628.2</ele>
        <time>2019-08-06T14:44:35Z</time>
      </trkpt>
      <trkpt lat="48.7363290" lon="13.6629380">
        <ele>628.2</ele>
        <time>2019-08-06T14:44:36Z</time>
      </trkpt>
      <trkpt lat="48.7363630" lon="13.6629920">
        <ele>628.4</ele>
        <time>2019-08-06T14:44:37Z</time>
      </trkpt>
      <trkpt lat="48.7363970" lon="13.6630460">
        <ele>628.4</ele>
        <time>2019-08-06T14:44:38Z</time>
      </trkpt>
      <trkpt lat="48.7364300" lon="13.6630990">
        <ele>628.4</ele>
        <time>2019-08-06T14:44:39Z</time>
      </trkpt>
      <trkpt lat="48.7364610" lon="13.6631490">
        <ele>628.6</ele>
        <time>2019-08-06T14:44:40Z</time>
      </trkpt>
      <trkpt lat="48.7364860" lon="13.6632010">
        <ele>628.6</ele>
        <time>2019-08-06T14:44:41Z</time>
      </trkpt>
      <trkpt lat="48.7365140" lon="13.6632570">
        <ele>628.8</ele>
        <time>2019-08-06T14:44:42Z</time>
      </trkpt>
      <trkpt lat="48.7365430" lon="13.6633220">
        <ele>628.8</ele>
        <time>2019-08-06T14:44:43Z</time>
      </trkpt>
      <trkpt lat="48.7365700" lon="13.6633900">
        <ele>628.8</ele>
        <time>2019-08-06T14:44:44Z</time>
      </trkpt>
      <trkpt lat="48.7365980" lon="13.6634570">
        <ele>628.8</ele>
        <time>2019-08-06T14:44:45Z</time>
      </trkpt>
      <trkpt lat="48.7366250" lon="13.6635280">
        <ele>629.0</ele>
        <time>2019-08-06T14:44:46Z</time>
      </trkpt>
      <trkpt lat="48.7366500" lon="13.6635990">
        <ele>629.0</ele>
        <time>2019-08-06T14:44:47Z</time>
      </trkpt>
      <trkpt lat="48.7366730" lon="13.6636700">
        <ele>629.0</ele>
        <time>2019-08-06T14:44:48Z</time>
      </trkpt>
      <trkpt lat="48.7366950" lon="13.6637400">
        <ele>629.0</ele>
        <time>2019-08-06T14:44:49Z</time>
      </trkpt>
      <trkpt lat="48.7367180" lon="13.6638070">
        <ele>629.2</ele>
        <time>2019-08-06T14:44:50Z</time>
      </trkpt>
      <trkpt lat="48.7367430" lon="13.6638740">
        <ele>629.2</ele>
        <time>2019-08-06T14:44:51Z</time>
      </trkpt>
      <trkpt lat="48.7367700" lon="13.6639410">
        <ele>629.2</ele>
        <time>2019-08-06T14:44:52Z</time>
      </trkpt>
      <trkpt lat="48.7367890" lon="13.6640140">
        <ele>629.4</ele>
        <time>2019-08-06T14:44:53Z</time>
      </trkpt>
      <trkpt lat="48.7368010" lon="13.6640890">
        <ele>629.4</ele>
        <time>2019-08-06T14:44:54Z</time>
      </trkpt>
      <trkpt lat="48.7368140" lon="13.6641720">
        <ele>629.4</ele>
        <time>2019-08-06T14:44:55Z</time>
      </trkpt>
      <trkpt lat="48.7368270" lon="13.6642530">
        <ele>629.4</ele>
        <time>2019-08-06T14:44:56Z</time>
      </trkpt>
      <trkpt lat="48.7368400" lon="13.6643350">
        <ele>629.4</ele>
        <time>2019-08-06T14:44:57Z</time>
      </trkpt>
      <trkpt lat="48.7368530" lon="13.6644190">
        <ele>629.4</ele>
        <time>2019-08-06T14:44:58Z</time>
      </trkpt>
      <trkpt lat="48.7368600" lon="13.6645020">
        <ele>629.4</ele>
        <time>2019-08-06T14:44:59Z</time>
      </trkpt>
      <trkpt lat="48.7368660" lon="13.6645850">
        <ele>629.4</ele>
        <time>2019-08-06T14:45:00Z</time>
      </trkpt>
      <trkpt lat="48.7368690" lon="13.6646670">
        <ele>629.4</ele>
        <time>2019-08-06T14:45:01Z</time>
      </trkpt>
      <trkpt lat="48.7368740" lon="13.6647490">
        <ele>629.4</ele>
        <time>2019-08-06T14:45:02Z</time>
      </trkpt>
      <trkpt lat="48.7368810" lon="13.6648320">
        <ele>629.4</ele>
        <time>2019-08-06T14:45:03Z</time>
      </trkpt>
      <trkpt lat="48.7368830" lon="13.6649130">
        <ele>629.6</ele>
        <time>2019-08-06T14:45:04Z</time>
      </trkpt>
      <trkpt lat="48.7368880" lon="13.6649940">
        <ele>629.6</ele>
        <time>2019-08-06T14:45:05Z</time>
      </trkpt>
      <trkpt lat="48.7368940" lon="13.6650790">
        <ele>629.6</ele>
        <time>2019-08-06T14:45:06Z</time>
      </trkpt>
      <trkpt lat="48.7368990" lon="13.6651610">
        <ele>629.6</ele>
        <time>2019-08-06T14:45:07Z</time>
      </trkpt>
      <trkpt lat="48.7369010" lon="13.6652420">
        <ele>629.6</ele>
        <time>2019-08-06T14:45:08Z</time>
      </trkpt>
      <trkpt lat="48.7369020" lon="13.6653250">
        <ele>629.6</ele>
        <time>2019-08-06T14:45:09Z</time>
      </trkpt>
      <trkpt lat="48.7369020" lon="13.6654090">
        <ele>629.6</ele>
        <time>2019-08-06T14:45:10Z</time>
      </trkpt>
      <trkpt lat="48.7369010" lon="13.6654930">
        <ele>629.6</ele>
        <time>2019-08-06T14:45:11Z</time>
      </trkpt>
      <trkpt lat="48.7368970" lon="13.6655740">
        <ele>629.6</ele>
        <time>2019-08-06T14:45:12Z</time>
      </trkpt>
      <trkpt lat="48.7368940" lon="13.6656520">
        <ele>629.6</ele>
        <time>2019-08-06T14:45:13Z</time>
      </trkpt>
      <trkpt lat="48.7368910" lon="13.6657300">
        <ele>629.6</ele>
        <time>2019-08-06T14:45:14Z</time>
      </trkpt>
      <trkpt lat="48.7368880" lon="13.6658060">
        <ele>629.6</ele>
        <time>2019-08-06T14:45:15Z</time>
      </trkpt>
      <trkpt lat="48.7368860" lon="13.6658790">
        <ele>629.6</ele>
        <time>2019-08-06T14:45:16Z</time>
      </trkpt>
      <trkpt lat="48.7368820" lon="13.6659500">
        <ele>629.6</ele>
        <time>2019-08-06T14:45:17Z</time>
      </trkpt>
      <trkpt lat="48.7368800" lon="13.6660130">
        <ele>629.6</ele>
        <time>2019-08-06T14:45:18Z</time>
      </trkpt>
      <trkpt lat="48.7368790" lon="13.6660730">
        <ele>629.6</ele>
        <time>2019-08-06T14:45:19Z</time>
      </trkpt>
      <trkpt lat="48.7368740" lon="13.6661360">
        <ele>629.6</ele>
        <time>2019-08-06T14:45:20Z</time>
      </trkpt>
      <trkpt lat="48.7368640" lon="13.6662080">
        <ele>629.6</ele>
        <time>2019-08-06T14:45:21Z</time>
      </trkpt>
      <trkpt lat="48.7368540" lon="13.6662800">
        <ele>629.6</ele>
        <time>2019-08-06T14:45:22Z</time>
      </trkpt>
      <trkpt lat="48.7368460" lon="13.6663530">
        <ele>629.6</ele>
        <time>2019-08-06T14:45:23Z</time>
      </trkpt>
      <trkpt lat="48.7368400" lon="13.6664270">
        <ele>629.6</ele>
        <time>2019-08-06T14:45:24Z</time>
      </trkpt>
      <trkpt lat="48.7368340" lon="13.6665010">
        <ele>629.6</ele>
        <time>2019-08-06T14:45:25Z</time>
      </trkpt>
      <trkpt lat="48.7368240" lon="13.6665780">
        <ele>629.6</ele>
        <time>2019-08-06T14:45:26Z</time>
      </trkpt>
      <trkpt lat="48.7368150" lon="13.6666580">
        <ele>629.6</ele>
        <time>2019-08-06T14:45:27Z</time>
      </trkpt>
      <trkpt lat="48.7368050" lon="13.6667390">
        <ele>629.6</ele>
        <time>2019-08-06T14:45:28Z</time>
      </trkpt>
      <trkpt lat="48.7367960" lon="13.6668220">
        <ele>629.6</ele>
        <time>2019-08-06T14:45:29Z</time>
      </trkpt>
      <trkpt lat="48.7367860" lon="13.6669030">
        <ele>629.6</ele>
        <time>2019-08-06T14:45:30Z</time>
      </trkpt>
      <trkpt lat="48.7367750" lon="13.6669820">
        <ele>629.6</ele>
        <time>2019-08-06T14:45:31Z</time>
      </trkpt>
      <trkpt lat="48.7367640" lon="13.6670600">
        <ele>629.6</ele>
        <time>2019-08-06T14:45:32Z</time>
      </trkpt>
      <trkpt lat="48.7367520" lon="13.6671350">
        <ele>629.6</ele>
        <time>2019-08-06T14:45:33Z</time>
      </trkpt>
      <trkpt lat="48.7367410" lon="13.6672080">
        <ele>629.6</ele>
        <time>2019-08-06T14:45:34Z</time>
      </trkpt>
      <trkpt lat="48.7367270" lon="13.6672860">
        <ele>629.6</ele>
        <time>2019-08-06T14:45:35Z</time>
      </trkpt>
      <trkpt lat="48.7367090" lon="13.6673650">
        <ele>629.6</ele>
        <time>2019-08-06T14:45:36Z</time>
      </trkpt>
      <trkpt lat="48.7366900" lon="13.6674400">
        <ele>629.6</ele>
        <time>2019-08-06T14:45:37Z</time>
      </trkpt>
      <trkpt lat="48.7366730" lon="13.6675150">
        <ele>629.6</ele>
        <time>2019-08-06T14:45:38Z</time>
      </trkpt>
      <trkpt lat="48.7366550" lon="13.6675920">
        <ele>629.6</ele>
        <time>2019-08-06T14:45:39Z</time>
      </trkpt>
      <trkpt lat="48.7366360" lon="13.6676720">
        <ele>629.6</ele>
        <time>2019-08-06T14:45:40Z</time>
      </trkpt>
      <trkpt lat="48.7366140" lon="13.6677500">
        <ele>629.6</ele>
        <time>2019-08-06T14:45:41Z</time>
      </trkpt>
      <trkpt lat="48.7365960" lon="13.6678240">
        <ele>629.6</ele>
        <time>2019-08-06T14:45:42Z</time>
      </trkpt>
      <trkpt lat="48.7365790" lon="13.6678930">
        <ele>629.6</ele>
        <time>2019-08-06T14:45:43Z</time>
      </trkpt>
      <trkpt lat="48.7365610" lon="13.6679620">
        <ele>629.6</ele>
        <time>2019-08-06T14:45:44Z</time>
      </trkpt>
      <trkpt lat="48.7365490" lon="13.6680280">
        <ele>629.6</ele>
        <time>2019-08-06T14:45:45Z</time>
      </trkpt>
      <trkpt lat="48.7365320" lon="13.6680940">
        <ele>629.6</ele>
        <time>2019-08-06T14:45:46Z</time>
      </trkpt>
      <trkpt lat="48.7365140" lon="13.6681670">
        <ele>629.6</ele>
        <time>2019-08-06T14:45:47Z</time>
      </trkpt>
      <trkpt lat="48.7364900" lon="13.6682440">
        <ele>629.6</ele>
        <time>2019-08-06T14:45:48Z</time>
      </trkpt>
      <trkpt lat="48.7364650" lon="13.6683160">
        <ele>629.8</ele>
        <time>2019-08-06T14:45:49Z</time>
      </trkpt>
      <trkpt lat="48.7364410" lon="13.6683870">
        <ele>629.8</ele>
        <time>2019-08-06T14:45:50Z</time>
      </trkpt>
      <trkpt lat="48.7364170" lon="13.6684560">
        <ele>629.8</ele>
        <time>2019-08-06T14:45:51Z</time>
      </trkpt>
      <trkpt lat="48.7363930" lon="13.6685230">
        <ele>629.8</ele>
        <time>2019-08-06T14:45:52Z</time>
      </trkpt>
      <trkpt lat="48.7363710" lon="13.6685890">
        <ele>629.8</ele>
        <time>2019-08-06T14:45:53Z</time>
      </trkpt>
      <trkpt lat="48.7363510" lon="13.6686570">
        <ele>629.8</ele>
        <time>2019-08-06T14:45:54Z</time>
      </trkpt>
      <trkpt lat="48.7363300" lon="13.6687210">
        <ele>629.8</ele>
        <time>2019-08-06T14:45:55Z</time>
      </trkpt>
      <trkpt lat="48.7363040" lon="13.6687870">
        <ele>629.6</ele>
        <time>2019-08-06T14:45:56Z</time>
      </trkpt>
      <trkpt lat="48.7362750" lon="13.6688540">
        <ele>629.6</ele>
        <time>2019-08-06T14:45:57Z</time>
      </trkpt>
      <trkpt lat="48.7362480" lon="13.6689240">
        <ele>629.8</ele>
        <time>2019-08-06T14:45:58Z</time>
      </trkpt>
      <trkpt lat="48.7362200" lon="13.6689950">
        <ele>629.8</ele>
        <time>2019-08-06T14:45:59Z</time>
      </trkpt>
      <trkpt lat="48.7361910" lon="13.6690670">
        <ele>629.8</ele>
        <time>2019-08-06T14:46:00Z</time>
      </trkpt>
      <trkpt lat="48.7361640" lon="13.6691380">
        <ele>629.8</ele>
        <time>2019-08-06T14:46:01Z</time>
      </trkpt>
      <trkpt lat="48.7361350" lon="13.6692100">
        <ele>629.8</ele>
        <time>2019-08-06T14:46:02Z</time>
      </trkpt>
      <trkpt lat="48.7361010" lon="13.6692810">
        <ele>629.8</ele>
        <time>2019-08-06T14:46:03Z</time>
      </trkpt>
      <trkpt lat="48.7360660" lon="13.6693570">
        <ele>629.8</ele>
        <time>2019-08-06T14:46:04Z</time>
      </trkpt>
      <trkpt lat="48.7360320" lon="13.6694340">
        <ele>629.8</ele>
        <time>2019-08-06T14:46:05Z</time>
      </trkpt>
      <trkpt lat="48.7359980" lon="13.6695150">
        <ele>629.8</ele>
        <time>2019-08-06T14:46:06Z</time>
      </trkpt>
      <trkpt lat="48.7359620" lon="13.6695960">
        <ele>630.0</ele>
        <time>2019-08-06T14:46:07Z</time>
      </trkpt>
      <trkpt lat="48.7359260" lon="13.6696750">
        <ele>630.0</ele>
        <time>2019-08-06T14:46:08Z</time>
      </trkpt>
      <trkpt lat="48.7358880" lon="13.6697550">
        <ele>629.8</ele>
        <time>2019-08-06T14:46:09Z</time>
      </trkpt>
      <trkpt lat="48.7358510" lon="13.6698340">
        <ele>630.0</ele>
        <time>2019-08-06T14:46:10Z</time>
      </trkpt>
      <trkpt lat="48.7358170" lon="13.6699140">
        <ele>629.8</ele>
        <time>2019-08-06T14:46:11Z</time>
      </trkpt>
      <trkpt lat="48.7357840" lon="13.6699920">
        <ele>629.8</ele>
        <time>2019-08-06T14:46:12Z</time>
      </trkpt>
      <trkpt lat="48.7357530" lon="13.6700690">
        <ele>629.8</ele>
        <time>2019-08-06T14:46:13Z</time>
      </trkpt>
      <trkpt lat="48.7357210" lon="13.6701470">
        <ele>629.6</ele>
        <time>2019-08-06T14:46:14Z</time>
      </trkpt>
      <trkpt lat="48.7356870" lon="13.6702290">
        <ele>629.6</ele>
        <time>2019-08-06T14:46:15Z</time>
      </trkpt>
      <trkpt lat="48.7356540" lon="13.6703070">
        <ele>629.6</ele>
        <time>2019-08-06T14:46:16Z</time>
      </trkpt>
      <trkpt lat="48.7356240" lon="13.6703860">
        <ele>629.6</ele>
        <time>2019-08-06T14:46:17Z</time>
      </trkpt>
      <trkpt lat="48.7355930" lon="13.6704680">
        <ele>629.6</ele>
        <time>2019-08-06T14:46:18Z</time>
      </trkpt>
      <trkpt lat="48.7355620" lon="13.6705460">
        <ele>629.6</ele>
        <time>2019-08-06T14:46:19Z</time>
      </trkpt>
      <trkpt lat="48.7355310" lon="13.6706230">
        <ele>629.6</ele>
        <time>2019-08-06T14:46:20Z</time>
      </trkpt>
      <trkpt lat="48.7355000" lon="13.6707020">
        <ele>629.6</ele>
        <time>2019-08-06T14:46:21Z</time>
      </trkpt>
      <trkpt lat="48.7354690" lon="13.6707800">
        <ele>629.6</ele>
        <time>2019-08-06T14:46:22Z</time>
      </trkpt>
      <trkpt lat="48.7354370" lon="13.6708580">
        <ele>629.6</ele>
        <time>2019-08-06T14:46:23Z</time>
      </trkpt>
      <trkpt lat="48.7354040" lon="13.6709380">
        <ele>629.6</ele>
        <time>2019-08-06T14:46:24Z</time>
      </trkpt>
      <trkpt lat="48.7353720" lon="13.6710180">
        <ele>629.6</ele>
        <time>2019-08-06T14:46:25Z</time>
      </trkpt>
      <trkpt lat="48.7353400" lon="13.6710980">
        <ele>629.6</ele>
        <time>2019-08-06T14:46:26Z</time>
      </trkpt>
      <trkpt lat="48.7353090" lon="13.6711770">
        <ele>629.8</ele>
        <time>2019-08-06T14:46:27Z</time>
      </trkpt>
      <trkpt lat="48.7352780" lon="13.6712550">
        <ele>629.8</ele>
        <time>2019-08-06T14:46:28Z</time>
      </trkpt>
      <trkpt lat="48.7352470" lon="13.6713330">
        <ele>629.8</ele>
        <time>2019-08-06T14:46:29Z</time>
      </trkpt>
      <trkpt lat="48.7352140" lon="13.6714100">
        <ele>629.8</ele>
        <time>2019-08-06T14:46:30Z</time>
      </trkpt>
      <trkpt lat="48.7351820" lon="13.6714880">
        <ele>629.8</ele>
        <time>2019-08-06T14:46:31Z</time>
      </trkpt>
      <trkpt lat="48.7351500" lon="13.6715670">
        <ele>629.8</ele>
        <time>2019-08-06T14:46:32Z</time>
      </trkpt>
      <trkpt lat="48.7351190" lon="13.6716460">
        <ele>629.8</ele>
        <time>2019-08-06T14:46:33Z</time>
      </trkpt>
      <trkpt lat="48.7350880" lon="13.6717240">
        <ele>629.8</ele>
        <time>2019-08-06T14:46:34Z</time>
      </trkpt>
      <trkpt lat="48.7350570" lon="13.6718030">
        <ele>629.6</ele>
        <time>2019-08-06T14:46:35Z</time>
      </trkpt>
      <trkpt lat="48.7350260" lon="13.6718820">
        <ele>629.6</ele>
        <time>2019-08-06T14:46:36Z</time>
      </trkpt>
      <trkpt lat="48.7349940" lon="13.6719610">
        <ele>629.6</ele>
        <time>2019-08-06T14:46:37Z</time>
      </trkpt>
      <trkpt lat="48.7349630" lon="13.6720410">
        <ele>629.6</ele>
        <time>2019-08-06T14:46:38Z</time>
      </trkpt>
      <trkpt lat="48.7349310" lon="13.6721200">
        <ele>629.8</ele>
        <time>2019-08-06T14:46:39Z</time>
      </trkpt>
      <trkpt lat="48.7349020" lon="13.6721980">
        <ele>629.8</ele>
        <time>2019-08-06T14:46:40Z</time>
      </trkpt>
      <trkpt lat="48.7348700" lon="13.6722800">
        <ele>629.8</ele>
        <time>2019-08-06T14:46:41Z</time>
      </trkpt>
      <trkpt lat="48.7348380" lon="13.6723580">
        <ele>629.8</ele>
        <time>2019-08-06T14:46:42Z</time>
      </trkpt>
      <trkpt lat="48.7348050" lon="13.6724390">
        <ele>629.6</ele>
        <time>2019-08-06T14:46:43Z</time>
      </trkpt>
      <trkpt lat="48.7347740" lon="13.6725190">
        <ele>629.6</ele>
        <time>2019-08-06T14:46:44Z</time>
      </trkpt>
      <trkpt lat="48.7347420" lon="13.6725990">
        <ele>629.6</ele>
        <time>2019-08-06T14:46:45Z</time>
      </trkpt>
      <trkpt lat="48.7347100" lon="13.6726800">
        <ele>629.6</ele>
        <time>2019-08-06T14:46:46Z</time>
      </trkpt>
      <trkpt lat="48.7346770" lon="13.6727610">
        <ele>629.6</ele>
        <time>2019-08-06T14:46:47Z</time>
      </trkpt>
      <trkpt lat="48.7346450" lon="13.6728410">
        <ele>629.4</ele>
        <time>2019-08-06T14:46:48Z</time>
      </trkpt>
      <trkpt lat="48.7346120" lon="13.6729210">
        <ele>629.4</ele>
        <time>2019-08-06T14:46:49Z</time>
      </trkpt>
      <trkpt lat="48.7345800" lon="13.6730010">
        <ele>629.4</ele>
        <time>2019-08-06T14:46:50Z</time>
      </trkpt>
      <trkpt lat="48.7345490" lon="13.6730820">
        <ele>629.4</ele>
        <time>2019-08-06T14:46:51Z</time>
      </trkpt>
      <trkpt lat="48.7345170" lon="13.6731630">
        <ele>629.4</ele>
        <time>2019-08-06T14:46:52Z</time>
      </trkpt>
      <trkpt lat="48.7344850" lon="13.6732430">
        <ele>629.4</ele>
        <time>2019-08-06T14:46:53Z</time>
      </trkpt>
      <trkpt lat="48.7344540" lon="13.6733240">
        <ele>629.4</ele>
        <time>2019-08-06T14:46:54Z</time>
      </trkpt>
      <trkpt lat="48.7344220" lon="13.6734010">
        <ele>629.4</ele>
        <time>2019-08-06T14:46:55Z</time>
      </trkpt>
      <trkpt lat="48.7343910" lon="13.6734790">
        <ele>629.4</ele>
        <time>2019-08-06T14:46:56Z</time>
      </trkpt>
      <trkpt lat="48.7343590" lon="13.6735570">
        <ele>629.4</ele>
        <time>2019-08-06T14:46:57Z</time>
      </trkpt>
      <trkpt lat="48.7343290" lon="13.6736360">
        <ele>629.4</ele>
        <time>2019-08-06T14:46:58Z</time>
      </trkpt>
      <trkpt lat="48.7342980" lon="13.6737140">
        <ele>629.4</ele>
        <time>2019-08-06T14:46:59Z</time>
      </trkpt>
      <trkpt lat="48.7342650" lon="13.6737930">
        <ele>629.6</ele>
        <time>2019-08-06T14:47:00Z</time>
      </trkpt>
      <trkpt lat="48.7342320" lon="13.6738730">
        <ele>629.6</ele>
        <time>2019-08-06T14:47:01Z</time>
      </trkpt>
      <trkpt lat="48.7342000" lon="13.6739520">
        <ele>629.4</ele>
        <time>2019-08-06T14:47:02Z</time>
      </trkpt>
      <trkpt lat="48.7341710" lon="13.6740260">
        <ele>629.6</ele>
        <time>2019-08-06T14:47:03Z</time>
      </trkpt>
      <trkpt lat="48.7341460" lon="13.6740910">
        <ele>629.6</ele>
        <time>2019-08-06T14:47:04Z</time>
      </trkpt>
      <trkpt lat="48.7341080" lon="13.6741850">
        <ele>629.6</ele>
        <time>2019-08-06T14:47:05Z</time>
      </trkpt>
      <trkpt lat="48.7340780" lon="13.6742610">
        <ele>629.6</ele>
        <time>2019-08-06T14:47:06Z</time>
      </trkpt>
      <trkpt lat="48.7340470" lon="13.6743360">
        <ele>629.6</ele>
        <time>2019-08-06T14:47:07Z</time>
      </trkpt>
      <trkpt lat="48.7340170" lon="13.6744120">
        <ele>629.6</ele>
        <time>2019-08-06T14:47:08Z</time>
      </trkpt>
      <trkpt lat="48.7339880" lon="13.6744890">
        <ele>629.6</ele>
        <time>2019-08-06T14:47:09Z</time>
      </trkpt>
      <trkpt lat="48.7339610" lon="13.6745640">
        <ele>629.6</ele>
        <time>2019-08-06T14:47:10Z</time>
      </trkpt>
      <trkpt lat="48.7339320" lon="13.6746370">
        <ele>629.6</ele>
        <time>2019-08-06T14:47:11Z</time>
      </trkpt>
      <trkpt lat="48.7339000" lon="13.6747040">
        <ele>629.6</ele>
        <time>2019-08-06T14:47:12Z</time>
      </trkpt>
      <trkpt lat="48.7338670" lon="13.6747760">
        <ele>629.6</ele>
        <time>2019-08-06T14:47:13Z</time>
      </trkpt>
      <trkpt lat="48.7338350" lon="13.6748510">
        <ele>629.6</ele>
        <time>2019-08-06T14:47:14Z</time>
      </trkpt>
      <trkpt lat="48.7338010" lon="13.6749260">
        <ele>629.6</ele>
        <time>2019-08-06T14:47:15Z</time>
      </trkpt>
      <trkpt lat="48.7337690" lon="13.6749980">
        <ele>629.6</ele>
        <time>2019-08-06T14:47:16Z</time>
      </trkpt>
      <trkpt lat="48.7337370" lon="13.6750700">
        <ele>629.6</ele>
        <time>2019-08-06T14:47:17Z</time>
      </trkpt>
      <trkpt lat="48.7337030" lon="13.6751430">
        <ele>629.6</ele>
        <time>2019-08-06T14:47:18Z</time>
      </trkpt>
      <trkpt lat="48.7336690" lon="13.6752170">
        <ele>629.4</ele>
        <time>2019-08-06T14:47:19Z</time>
      </trkpt>
      <trkpt lat="48.7336350" lon="13.6752910">
        <ele>629.4</ele>
        <time>2019-08-06T14:47:20Z</time>
      </trkpt>
      <trkpt lat="48.7336000" lon="13.6753640">
        <ele>629.4</ele>
        <time>2019-08-06T14:47:21Z</time>
      </trkpt>
      <trkpt lat="48.7335640" lon="13.6754370">
        <ele>629.4</ele>
        <time>2019-08-06T14:47:22Z</time>
      </trkpt>
      <trkpt lat="48.7335290" lon="13.6755100">
        <ele>629.4</ele>
        <time>2019-08-06T14:47:23Z</time>
      </trkpt>
      <trkpt lat="48.7334930" lon="13.6755840">
        <ele>629.4</ele>
        <time>2019-08-06T14:47:24Z</time>
      </trkpt>
      <trkpt lat="48.7334560" lon="13.6756580">
        <ele>629.4</ele>
        <time>2019-08-06T14:47:25Z</time>
      </trkpt>
      <trkpt lat="48.7334180" lon="13.6757300">
        <ele>629.4</ele>
        <time>2019-08-06T14:47:26Z</time>
      </trkpt>
      <trkpt lat="48.7333790" lon="13.6758010">
        <ele>629.4</ele>
        <time>2019-08-06T14:47:27Z</time>
      </trkpt>
      <trkpt lat="48.7333400" lon="13.6758750">
        <ele>629.4</ele>
        <time>2019-08-06T14:47:28Z</time>
      </trkpt>
      <trkpt lat="48.7333020" lon="13.6759470">
        <ele>629.4</ele>
        <time>2019-08-06T14:47:29Z</time>
      </trkpt>
      <trkpt lat="48.7332630" lon="13.6760190">
        <ele>629.4</ele>
        <time>2019-08-06T14:47:30Z</time>
      </trkpt>
      <trkpt lat="48.7332230" lon="13.6760900">
        <ele>629.6</ele>
        <time>2019-08-06T14:47:31Z</time>
      </trkpt>
      <trkpt lat="48.7331850" lon="13.6761590">
        <ele>629.6</ele>
        <time>2019-08-06T14:47:32Z</time>
      </trkpt>
      <trkpt lat="48.7331460" lon="13.6762270">
        <ele>629.6</ele>
        <time>2019-08-06T14:47:33Z</time>
      </trkpt>
      <trkpt lat="48.7331040" lon="13.6762970">
        <ele>629.6</ele>
        <time>2019-08-06T14:47:34Z</time>
      </trkpt>
      <trkpt lat="48.7330630" lon="13.6763640">
        <ele>629.6</ele>
        <time>2019-08-06T14:47:35Z</time>
      </trkpt>
      <trkpt lat="48.7330220" lon="13.6764340">
        <ele>629.6</ele>
        <time>2019-08-06T14:47:36Z</time>
      </trkpt>
      <trkpt lat="48.7329800" lon="13.6765050">
        <ele>629.6</ele>
        <time>2019-08-06T14:47:37Z</time>
      </trkpt>
      <trkpt lat="48.7329370" lon="13.6765770">
        <ele>629.4</ele>
        <time>2019-08-06T14:47:38Z</time>
      </trkpt>
      <trkpt lat="48.7328930" lon="13.6766510">
        <ele>629.4</ele>
        <time>2019-08-06T14:47:39Z</time>
      </trkpt>
      <trkpt lat="48.7328490" lon="13.6767260">
        <ele>629.4</ele>
        <time>2019-08-06T14:47:40Z</time>
      </trkpt>
      <trkpt lat="48.7328050" lon="13.6768030">
        <ele>629.2</ele>
        <time>2019-08-06T14:47:41Z</time>
      </trkpt>
      <trkpt lat="48.7327620" lon="13.6768780">
        <ele>629.0</ele>
        <time>2019-08-06T14:47:42Z</time>
      </trkpt>
      <trkpt lat="48.7327190" lon="13.6769500">
        <ele>629.0</ele>
        <time>2019-08-06T14:47:43Z</time>
      </trkpt>
      <trkpt lat="48.7326750" lon="13.6770180">
        <ele>629.2</ele>
        <time>2019-08-06T14:47:44Z</time>
      </trkpt>
      <trkpt lat="48.7326330" lon="13.6770850">
        <ele>629.2</ele>
        <time>2019-08-06T14:47:45Z</time>
      </trkpt>
      <trkpt lat="48.7325930" lon="13.6771520">
        <ele>629.2</ele>
        <time>2019-08-06T14:47:46Z</time>
      </trkpt>
      <trkpt lat="48.7325530" lon="13.6772190">
        <ele>629.2</ele>
        <time>2019-08-06T14:47:47Z</time>
      </trkpt>
      <trkpt lat="48.7325130" lon="13.6772850">
        <ele>629.4</ele>
        <time>2019-08-06T14:47:48Z</time>
      </trkpt>
      <trkpt lat="48.7324750" lon="13.6773510">
        <ele>629.4</ele>
        <time>2019-08-06T14:47:49Z</time>
      </trkpt>
      <trkpt lat="48.7324370" lon="13.6774170">
        <ele>629.6</ele>
        <time>2019-08-06T14:47:50Z</time>
      </trkpt>
      <trkpt lat="48.7323980" lon="13.6774830">
        <ele>629.6</ele>
        <time>2019-08-06T14:47:51Z</time>
      </trkpt>
      <trkpt lat="48.7323610" lon="13.6775480">
        <ele>629.6</ele>
        <time>2019-08-06T14:47:52Z</time>
      </trkpt>
      <trkpt lat="48.7323240" lon="13.6776150">
        <ele>629.6</ele>
        <time>2019-08-06T14:47:53Z</time>
      </trkpt>
      <trkpt lat="48.7322880" lon="13.6776850">
        <ele>629.6</ele>
        <time>2019-08-06T14:47:54Z</time>
      </trkpt>
      <trkpt lat="48.7322530" lon="13.6777540">
        <ele>629.6</ele>
        <time>2019-08-06T14:47:55Z</time>
      </trkpt>
      <trkpt lat="48.7322190" lon="13.6778250">
        <ele>629.6</ele>
        <time>2019-08-06T14:47:56Z</time>
      </trkpt>
      <trkpt lat="48.7321870" lon="13.6778990">
        <ele>629.6</ele>
        <time>2019-08-06T14:47:57Z</time>
      </trkpt>
      <trkpt lat="48.7321560" lon="13.6779730">
        <ele>629.6</ele>
        <time>2019-08-06T14:47:58Z</time>
      </trkpt>
      <trkpt lat="48.7321260" lon="13.6780500">
        <ele>629.6</ele>
        <time>2019-08-06T14:47:59Z</time>
      </trkpt>
      <trkpt lat="48.7320990" lon="13.6781270">
        <ele>629.6</ele>
        <time>2019-08-06T14:48:00Z</time>
      </trkpt>
      <trkpt lat="48.7320730" lon="13.6782060">
        <ele>629.6</ele>
        <time>2019-08-06T14:48:01Z</time>
      </trkpt>
      <trkpt lat="48.7320500" lon="13.6782860">
        <ele>629.6</ele>
        <time>2019-08-06T14:48:02Z</time>
      </trkpt>
      <trkpt lat="48.7320270" lon="13.6783660">
        <ele>629.4</ele>
        <time>2019-08-06T14:48:03Z</time>
      </trkpt>
      <trkpt lat="48.7320070" lon="13.6784510">
        <ele>629.4</ele>
        <time>2019-08-06T14:48:04Z</time>
      </trkpt>
      <trkpt lat="48.7319880" lon="13.6785360">
        <ele>629.4</ele>
        <time>2019-08-06T14:48:05Z</time>
      </trkpt>
      <trkpt lat="48.7319730" lon="13.6786220">
        <ele>629.4</ele>
        <time>2019-08-06T14:48:06Z</time>
      </trkpt>
      <trkpt lat="48.7319600" lon="13.6787060">
        <ele>629.2</ele>
        <time>2019-08-06T14:48:07Z</time>
      </trkpt>
      <trkpt lat="48.7319520" lon="13.6787940">
        <ele>629.2</ele>
        <time>2019-08-06T14:48:08Z</time>
      </trkpt>
      <trkpt lat="48.7319490" lon="13.6788790">
        <ele>629.0</ele>
        <time>2019-08-06T14:48:09Z</time>
      </trkpt>
      <trkpt lat="48.7319540" lon="13.6789650">
        <ele>629.0</ele>
        <time>2019-08-06T14:48:10Z</time>
      </trkpt>
      <trkpt lat="48.7319700" lon="13.6790500">
        <ele>628.8</ele>
        <time>2019-08-06T14:48:11Z</time>
      </trkpt>
      <trkpt lat="48.7319860" lon="13.6791350">
        <ele>628.8</ele>
        <time>2019-08-06T14:48:12Z</time>
      </trkpt>
      <trkpt lat="48.7319900" lon="13.6792230">
        <ele>628.8</ele>
        <time>2019-08-06T14:48:13Z</time>
      </trkpt>
      <trkpt lat="48.7319800" lon="13.6793090">
        <ele>628.8</ele>
        <time>2019-08-06T14:48:14Z</time>
      </trkpt>
      <trkpt lat="48.7319640" lon="13.6793930">
        <ele>628.8</ele>
        <time>2019-08-06T14:48:15Z</time>
      </trkpt>
      <trkpt lat="48.7319510" lon="13.6794770">
        <ele>628.8</ele>
        <time>2019-08-06T14:48:16Z</time>
      </trkpt>
      <trkpt lat="48.7319440" lon="13.6795610">
        <ele>629.0</ele>
        <time>2019-08-06T14:48:17Z</time>
      </trkpt>
      <trkpt lat="48.7319420" lon="13.6796470">
        <ele>629.0</ele>
        <time>2019-08-06T14:48:18Z</time>
      </trkpt>
      <trkpt lat="48.7319440" lon="13.6797320">
        <ele>629.0</ele>
        <time>2019-08-06T14:48:19Z</time>
      </trkpt>
      <trkpt lat="48.7319490" lon="13.6798160">
        <ele>629.2</ele>
        <time>2019-08-06T14:48:20Z</time>
      </trkpt>
      <trkpt lat="48.7319580" lon="13.6798970">
        <ele>629.4</ele>
        <time>2019-08-06T14:48:21Z</time>
      </trkpt>
      <trkpt lat="48.7319670" lon="13.6799740">
        <ele>629.6</ele>
        <time>2019-08-06T14:48:22Z</time>
      </trkpt>
      <trkpt lat="48.7319760" lon="13.6800480">
        <ele>629.8</ele>
        <time>2019-08-06T14:48:23Z</time>
      </trkpt>
      <trkpt lat="48.7319880" lon="13.6801210">
        <ele>630.0</ele>
        <time>2019-08-06T14:48:24Z</time>
      </trkpt>
      <trkpt lat="48.7320030" lon="13.6801930">
        <ele>630.0</ele>
        <time>2019-08-06T14:48:25Z</time>
      </trkpt>
      <trkpt lat="48.7320200" lon="13.6802630">
        <ele>630.2</ele>
        <time>2019-08-06T14:48:26Z</time>
      </trkpt>
      <trkpt lat="48.7320370" lon="13.6803360">
        <ele>630.2</ele>
        <time>2019-08-06T14:48:27Z</time>
      </trkpt>
      <trkpt lat="48.7320550" lon="13.6804080">
        <ele>630.2</ele>
        <time>2019-08-06T14:48:28Z</time>
      </trkpt>
      <trkpt lat="48.7320770" lon="13.6804770">
        <ele>630.4</ele>
        <time>2019-08-06T14:48:29Z</time>
      </trkpt>
      <trkpt lat="48.7321000" lon="13.6805460">
        <ele>630.4</ele>
        <time>2019-08-06T14:48:30Z</time>
      </trkpt>
      <trkpt lat="48.7321220" lon="13.6806130">
        <ele>630.4</ele>
        <time>2019-08-06T14:48:31Z</time>
      </trkpt>
      <trkpt lat="48.7321470" lon="13.6806770">
        <ele>630.6</ele>
        <time>2019-08-06T14:48:32Z</time>
      </trkpt>
      <trkpt lat="48.7321720" lon="13.6807410">
        <ele>630.8</ele>
        <time>2019-08-06T14:48:33Z</time>
      </trkpt>
      <trkpt lat="48.7321990" lon="13.6808040">
        <ele>630.8</ele>
        <time>2019-08-06T14:48:34Z</time>
      </trkpt>
      <trkpt lat="48.7322240" lon="13.6808690">
        <ele>630.8</ele>
        <time>2019-08-06T14:48:35Z</time>
      </trkpt>
      <trkpt lat="48.7322490" lon="13.6809310">
        <ele>631.0</ele>
        <time>2019-08-06T14:48:36Z</time>
      </trkpt>
      <trkpt lat="48.7322750" lon="13.6809950">
        <ele>631.0</ele>
        <time>2019-08-06T14:48:37Z</time>
      </trkpt>
      <trkpt lat="48.7323010" lon="13.6810590">
        <ele>631.0</ele>
        <time>2019-08-06T14:48:38Z</time>
      </trkpt>
      <trkpt lat="48.7323260" lon="13.6811200">
        <ele>631.2</ele>
        <time>2019-08-06T14:48:39Z</time>
      </trkpt>
      <trkpt lat="48.7323510" lon="13.6811810">
        <ele>631.2</ele>
        <time>2019-08-06T14:48:40Z</time>
      </trkpt>
      <trkpt lat="48.7323760" lon="13.6812410">
        <ele>631.4</ele>
        <time>2019-08-06T14:48:41Z</time>
      </trkpt>
      <trkpt lat="48.7324000" lon="13.6812990">
        <ele>631.6</ele>
        <time>2019-08-06T14:48:42Z</time>
      </trkpt>
      <trkpt lat="48.7324240" lon="13.6813590">
        <ele>631.8</ele>
        <time>2019-08-06T14:48:43Z</time>
      </trkpt>
      <trkpt lat="48.7324480" lon="13.6814170">
        <ele>631.8</ele>
        <time>2019-08-06T14:48:44Z</time>
      </trkpt>
      <trkpt lat="48.7324730" lon="13.6814740">
        <ele>632.0</ele>
        <time>2019-08-06T14:48:45Z</time>
      </trkpt>
      <trkpt lat="48.7324970" lon="13.6815330">
        <ele>632.0</ele>
        <time>2019-08-06T14:48:46Z</time>
      </trkpt>
      <trkpt lat="48.7325200" lon="13.6815900">
        <ele>632.2</ele>
        <time>2019-08-06T14:48:47Z</time>
      </trkpt>
      <trkpt lat="48.7325410" lon="13.6816470">
        <ele>632.2</ele>
        <time>2019-08-06T14:48:48Z</time>
      </trkpt>
      <trkpt lat="48.7325640" lon="13.6817050">
        <ele>632.2</ele>
        <time>2019-08-06T14:48:49Z</time>
      </trkpt>
      <trkpt lat="48.7325860" lon="13.6817610">
        <ele>632.2</ele>
        <time>2019-08-06T14:48:50Z</time>
      </trkpt>
      <trkpt lat="48.7326090" lon="13.6818160">
        <ele>632.2</ele>
        <time>2019-08-06T14:48:51Z</time>
      </trkpt>
      <trkpt lat="48.7326320" lon="13.6818700">
        <ele>632.4</ele>
        <time>2019-08-06T14:48:52Z</time>
      </trkpt>
      <trkpt lat="48.7326540" lon="13.6819250">
        <ele>632.4</ele>
        <time>2019-08-06T14:48:53Z</time>
      </trkpt>
      <trkpt lat="48.7326730" lon="13.6819800">
        <ele>632.6</ele>
        <time>2019-08-06T14:48:54Z</time>
      </trkpt>
      <trkpt lat="48.7326950" lon="13.6820340">
        <ele>632.6</ele>
        <time>2019-08-06T14:48:55Z</time>
      </trkpt>
      <trkpt lat="48.7327180" lon="13.6820870">
        <ele>632.6</ele>
        <time>2019-08-06T14:48:56Z</time>
      </trkpt>
      <trkpt lat="48.7327400" lon="13.6821410">
        <ele>632.8</ele>
        <time>2019-08-06T14:48:57Z</time>
      </trkpt>
      <trkpt lat="48.7327610" lon="13.6822010">
        <ele>632.8</ele>
        <time>2019-08-06T14:48:58Z</time>
      </trkpt>
      <trkpt lat="48.7327810" lon="13.6822570">
        <ele>633.0</ele>
        <time>2019-08-06T14:48:59Z</time>
      </trkpt>
      <trkpt lat="48.7328020" lon="13.6823130">
        <ele>633.0</ele>
        <time>2019-08-06T14:49:00Z</time>
      </trkpt>
      <trkpt lat="48.7328240" lon="13.6823690">
        <ele>633.2</ele>
        <time>2019-08-06T14:49:01Z</time>
      </trkpt>
      <trkpt lat="48.7328480" lon="13.6824310">
        <ele>633.2</ele>
        <time>2019-08-06T14:49:02Z</time>
      </trkpt>
      <trkpt lat="48.7328700" lon="13.6824870">
        <ele>633.4</ele>
        <time>2019-08-06T14:49:03Z</time>
      </trkpt>
      <trkpt lat="48.7328940" lon="13.6825430">
        <ele>633.4</ele>
        <time>2019-08-06T14:49:04Z</time>
      </trkpt>
      <trkpt lat="48.7329180" lon="13.6826010">
        <ele>633.6</ele>
        <time>2019-08-06T14:49:05Z</time>
      </trkpt>
      <trkpt lat="48.7329420" lon="13.6826590">
        <ele>633.6</ele>
        <time>2019-08-06T14:49:06Z</time>
      </trkpt>
      <trkpt lat="48.7329650" lon="13.6827160">
        <ele>633.8</ele>
        <time>2019-08-06T14:49:07Z</time>
      </trkpt>
      <trkpt lat="48.7329890" lon="13.6827760">
        <ele>633.8</ele>
        <time>2019-08-06T14:49:08Z</time>
      </trkpt>
      <trkpt lat="48.7330120" lon="13.6828330">
        <ele>634.0</ele>
        <time>2019-08-06T14:49:09Z</time>
      </trkpt>
      <trkpt lat="48.7330340" lon="13.6828910">
        <ele>634.0</ele>
        <time>2019-08-06T14:49:10Z</time>
      </trkpt>
      <trkpt lat="48.7330570" lon="13.6829490">
        <ele>634.0</ele>
        <time>2019-08-06T14:49:11Z</time>
      </trkpt>
      <trkpt lat="48.7330800" lon="13.6830050">
        <ele>634.2</ele>
        <time>2019-08-06T14:49:12Z</time>
      </trkpt>
      <trkpt lat="48.7331030" lon="13.6830610">
        <ele>634.4</ele>
        <time>2019-08-06T14:49:13Z</time>
      </trkpt>
      <trkpt lat="48.7331250" lon="13.6831170">
        <ele>634.4</ele>
        <time>2019-08-06T14:49:14Z</time>
      </trkpt>
      <trkpt lat="48.7331470" lon="13.6831740">
        <ele>634.6</ele>
        <time>2019-08-06T14:49:15Z</time>
      </trkpt>
      <trkpt lat="48.7331690" lon="13.6832310">
        <ele>634.6</ele>
        <time>2019-08-06T14:49:16Z</time>
      </trkpt>
      <trkpt lat="48.7331870" lon="13.6832880">
        <ele>634.6</ele>
        <time>2019-08-06T14:49:17Z</time>
      </trkpt>
      <trkpt lat="48.7332060" lon="13.6833460">
        <ele>634.6</ele>
        <time>2019-08-06T14:49:18Z</time>
      </trkpt>
      <trkpt lat="48.7332240" lon="13.6834070">
        <ele>634.6</ele>
        <time>2019-08-06T14:49:19Z</time>
      </trkpt>
      <trkpt lat="48.7332420" lon="13.6834690">
        <ele>634.8</ele>
        <time>2019-08-06T14:49:20Z</time>
      </trkpt>
      <trkpt lat="48.7332600" lon="13.6835290">
        <ele>634.8</ele>
        <time>2019-08-06T14:49:21Z</time>
      </trkpt>
      <trkpt lat="48.7332770" lon="13.6835890">
        <ele>635.0</ele>
        <time>2019-08-06T14:49:22Z</time>
      </trkpt>
      <trkpt lat="48.7332910" lon="13.6836510">
        <ele>635.0</ele>
        <time>2019-08-06T14:49:23Z</time>
      </trkpt>
      <trkpt lat="48.7333030" lon="13.6837120">
        <ele>635.2</ele>
        <time>2019-08-06T14:49:24Z</time>
      </trkpt>
      <trkpt lat="48.7333150" lon="13.6837740">
        <ele>635.2</ele>
        <time>2019-08-06T14:49:25Z</time>
      </trkpt>
      <trkpt lat="48.7333240" lon="13.6838360">
        <ele>635.4</ele>
        <time>2019-08-06T14:49:26Z</time>
      </trkpt>
      <trkpt lat="48.7333340" lon="13.6838960">
        <ele>635.4</ele>
        <time>2019-08-06T14:49:27Z</time>
      </trkpt>
      <trkpt lat="48.7333430" lon="13.6839640">
        <ele>635.6</ele>
        <time>2019-08-06T14:49:28Z</time>
      </trkpt>
      <trkpt lat="48.7333500" lon="13.6840280">
        <ele>635.6</ele>
        <time>2019-08-06T14:49:29Z</time>
      </trkpt>
      <trkpt lat="48.7333570" lon="13.6840940">
        <ele>635.8</ele>
        <time>2019-08-06T14:49:30Z</time>
      </trkpt>
      <trkpt lat="48.7333640" lon="13.6841620">
        <ele>635.8</ele>
        <time>2019-08-06T14:49:31Z</time>
      </trkpt>
      <trkpt lat="48.7333700" lon="13.6842280">
        <ele>636.0</ele>
        <time>2019-08-06T14:49:32Z</time>
      </trkpt>
      <trkpt lat="48.7333740" lon="13.6842970">
        <ele>636.0</ele>
        <time>2019-08-06T14:49:33Z</time>
      </trkpt>
      <trkpt lat="48.7333770" lon="13.6843660">
        <ele>636.2</ele>
        <time>2019-08-06T14:49:34Z</time>
      </trkpt>
      <trkpt lat="48.7333780" lon="13.6844330">
        <ele>636.2</ele>
        <time>2019-08-06T14:49:35Z</time>
      </trkpt>
      <trkpt lat="48.7333780" lon="13.6845010">
        <ele>636.4</ele>
        <time>2019-08-06T14:49:36Z</time>
      </trkpt>
      <trkpt lat="48.7333780" lon="13.6845690">
        <ele>636.4</ele>
        <time>2019-08-06T14:49:37Z</time>
      </trkpt>
      <trkpt lat="48.7333770" lon="13.6846360">
        <ele>636.6</ele>
        <time>2019-08-06T14:49:38Z</time>
      </trkpt>
      <trkpt lat="48.7333740" lon="13.6847030">
        <ele>636.6</ele>
        <time>2019-08-06T14:49:39Z</time>
      </trkpt>
      <trkpt lat="48.7333690" lon="13.6847700">
        <ele>636.8</ele>
        <time>2019-08-06T14:49:40Z</time>
      </trkpt>
      <trkpt lat="48.7333650" lon="13.6848390">
        <ele>636.8</ele>
        <time>2019-08-06T14:49:41Z</time>
      </trkpt>
      <trkpt lat="48.7333580" lon="13.6849050">
        <ele>637.0</ele>
        <time>2019-08-06T14:49:42Z</time>
      </trkpt>
      <trkpt lat="48.7333510" lon="13.6849710">
        <ele>637.0</ele>
        <time>2019-08-06T14:49:43Z</time>
      </trkpt>
      <trkpt lat="48.7333440" lon="13.6850370">
        <ele>637.2</ele>
        <time>2019-08-06T14:49:44Z</time>
      </trkpt>
      <trkpt lat="48.7333360" lon="13.6851020">
        <ele>637.2</ele>
        <time>2019-08-06T14:49:45Z</time>
      </trkpt>
      <trkpt lat="48.7333280" lon="13.6851680">
        <ele>637.4</ele>
        <time>2019-08-06T14:49:46Z</time>
      </trkpt>
      <trkpt lat="48.7333190" lon="13.6852330">
        <ele>637.6</ele>
        <time>2019-08-06T14:49:47Z</time>
      </trkpt>
      <trkpt lat="48.7333100" lon="13.6852950">
        <ele>637.6</ele>
        <time>2019-08-06T14:49:48Z</time>
      </trkpt>
      <trkpt lat="48.7332980" lon="13.6853570">
        <ele>637.8</ele>
        <time>2019-08-06T14:49:49Z</time>
      </trkpt>
      <trkpt lat="48.7332860" lon="13.6854170">
        <ele>637.8</ele>
        <time>2019-08-06T14:49:50Z</time>
      </trkpt>
      <trkpt lat="48.7332720" lon="13.6854760">
        <ele>637.8</ele>
        <time>2019-08-06T14:49:51Z</time>
      </trkpt>
      <trkpt lat="48.7332540" lon="13.6855340">
        <ele>638.0</ele>
        <time>2019-08-06T14:49:52Z</time>
      </trkpt>
      <trkpt lat="48.7332380" lon="13.6855880">
        <ele>638.0</ele>
        <time>2019-08-06T14:49:53Z</time>
      </trkpt>
      <trkpt lat="48.7332240" lon="13.6856300">
        <ele>638.2</ele>
        <time>2019-08-06T14:49:54Z</time>
      </trkpt>
      <trkpt lat="48.7331990" lon="13.6857090">
        <ele>638.2</ele>
        <time>2019-08-06T14:49:55Z</time>
      </trkpt>
      <trkpt lat="48.7331780" lon="13.6857660">
        <ele>638.4</ele>
        <time>2019-08-06T14:49:56Z</time>
      </trkpt>
      <trkpt lat="48.7331590" lon="13.6858270">
        <ele>638.4</ele>
        <time>2019-08-06T14:49:57Z</time>
      </trkpt>
      <trkpt lat="48.7331390" lon="13.6858860">
        <ele>638.6</ele>
        <time>2019-08-06T14:49:58Z</time>
      </trkpt>
      <trkpt lat="48.7331180" lon="13.6859440">
        <ele>638.6</ele>
        <time>2019-08-06T14:49:59Z</time>
      </trkpt>
      <trkpt lat="48.7331000" lon="13.6859990">
        <ele>638.6</ele>
        <time>2019-08-06T14:50:00Z</time>
      </trkpt>
      <trkpt lat="48.7330820" lon="13.6860550">
        <ele>638.8</ele>
        <time>2019-08-06T14:50:01Z</time>
      </trkpt>
      <trkpt lat="48.7330640" lon="13.6861090">
        <ele>638.8</ele>
        <time>2019-08-06T14:50:02Z</time>
      </trkpt>
      <trkpt lat="48.7330450" lon="13.6861590">
        <ele>639.0</ele>
        <time>2019-08-06T14:50:03Z</time>
      </trkpt>
      <trkpt lat="48.7330240" lon="13.6862140">
        <ele>639.0</ele>
        <time>2019-08-06T14:50:04Z</time>
      </trkpt>
      <trkpt lat="48.7330040" lon="13.6862750">
        <ele>639.2</ele>
        <time>2019-08-06T14:50:05Z</time>
      </trkpt>
      <trkpt lat="48.7329840" lon="13.6863350">
        <ele>639.2</ele>
        <time>2019-08-06T14:50:06Z</time>
      </trkpt>
      <trkpt lat="48.7329620" lon="13.6863960">
        <ele>639.2</ele>
        <time>2019-08-06T14:50:07Z</time>
      </trkpt>
      <trkpt lat="48.7329380" lon="13.6864560">
        <ele>639.2</ele>
        <time>2019-08-06T14:50:08Z</time>
      </trkpt>
      <trkpt lat="48.7329130" lon="13.6865160">
        <ele>639.4</ele>
        <time>2019-08-06T14:50:09Z</time>
      </trkpt>
      <trkpt lat="48.7328890" lon="13.6865740">
        <ele>639.4</ele>
        <time>2019-08-06T14:50:10Z</time>
      </trkpt>
      <trkpt lat="48.7328650" lon="13.6866310">
        <ele>639.4</ele>
        <time>2019-08-06T14:50:11Z</time>
      </trkpt>
      <trkpt lat="48.7328440" lon="13.6866890">
        <ele>639.4</ele>
        <time>2019-08-06T14:50:12Z</time>
      </trkpt>
      <trkpt lat="48.7328220" lon="13.6867500">
        <ele>639.6</ele>
        <time>2019-08-06T14:50:13Z</time>
      </trkpt>
      <trkpt lat="48.7328020" lon="13.6868140">
        <ele>639.6</ele>
        <time>2019-08-06T14:50:14Z</time>
      </trkpt>
      <trkpt lat="48.7327800" lon="13.6868760">
        <ele>639.6</ele>
        <time>2019-08-06T14:50:15Z</time>
      </trkpt>
      <trkpt lat="48.7327590" lon="13.6869430">
        <ele>639.6</ele>
        <time>2019-08-06T14:50:16Z</time>
      </trkpt>
      <trkpt lat="48.7327360" lon="13.6870110">
        <ele>639.6</ele>
        <time>2019-08-06T14:50:17Z</time>
      </trkpt>
      <trkpt lat="48.7327120" lon="13.6870760">
        <ele>639.6</ele>
        <time>2019-08-06T14:50:18Z</time>
      </trkpt>
      <trkpt lat="48.7326910" lon="13.6871430">
        <ele>639.6</ele>
        <time>2019-08-06T14:50:19Z</time>
      </trkpt>
      <trkpt lat="48.7326700" lon="13.6872100">
        <ele>639.6</ele>
        <time>2019-08-06T14:50:20Z</time>
      </trkpt>
      <trkpt lat="48.7326480" lon="13.6872860">
        <ele>639.6</ele>
        <time>2019-08-06T14:50:21Z</time>
      </trkpt>
      <trkpt lat="48.7326320" lon="13.6873570">
        <ele>639.6</ele>
        <time>2019-08-06T14:50:22Z</time>
      </trkpt>
      <trkpt lat="48.7326150" lon="13.6874280">
        <ele>639.6</ele>
        <time>2019-08-06T14:50:23Z</time>
      </trkpt>
      <trkpt lat="48.7325990" lon="13.6875000">
        <ele>639.6</ele>
        <time>2019-08-06T14:50:24Z</time>
      </trkpt>
      <trkpt lat="48.7325850" lon="13.6875710">
        <ele>639.6</ele>
        <time>2019-08-06T14:50:25Z</time>
      </trkpt>
      <trkpt lat="48.7325710" lon="13.6876440">
        <ele>639.6</ele>
        <time>2019-08-06T14:50:26Z</time>
      </trkpt>
      <trkpt lat="48.7325580" lon="13.6877180">
        <ele>639.6</ele>
        <time>2019-08-06T14:50:27Z</time>
      </trkpt>
      <trkpt lat="48.7325470" lon="13.6877920">
        <ele>639.6</ele>
        <time>2019-08-06T14:50:28Z</time>
      </trkpt>
      <trkpt lat="48.7325380" lon="13.6878660">
        <ele>639.6</ele>
        <time>2019-08-06T14:50:29Z</time>
      </trkpt>
      <trkpt lat="48.7325310" lon="13.6879410">
        <ele>639.6</ele>
        <time>2019-08-06T14:50:30Z</time>
      </trkpt>
      <trkpt lat="48.7325250" lon="13.6880150">
        <ele>639.6</ele>
        <time>2019-08-06T14:50:31Z</time>
      </trkpt>
      <trkpt lat="48.7325180" lon="13.6880890">
        <ele>639.6</ele>
        <time>2019-08-06T14:50:32Z</time>
      </trkpt>
      <trkpt lat="48.7325150" lon="13.6881640">
        <ele>639.4</ele>
        <time>2019-08-06T14:50:33Z</time>
      </trkpt>
      <trkpt lat="48.7325130" lon="13.6882390">
        <ele>639.4</ele>
        <time>2019-08-06T14:50:34Z</time>
      </trkpt>
      <trkpt lat="48.7325140" lon="13.6883150">
        <ele>639.4</ele>
        <time>2019-08-06T14:50:35Z</time>
      </trkpt>
      <trkpt lat="48.7325160" lon="13.6883920">
        <ele>639.2</ele>
        <time>2019-08-06T14:50:36Z</time>
      </trkpt>
      <trkpt lat="48.7325210" lon="13.6884700">
        <ele>639.2</ele>
        <time>2019-08-06T14:50:37Z</time>
      </trkpt>
      <trkpt lat="48.7325260" lon="13.6885470">
        <ele>639.2</ele>
        <time>2019-08-06T14:50:38Z</time>
      </trkpt>
      <trkpt lat="48.7325310" lon="13.6886250">
        <ele>639.2</ele>
        <time>2019-08-06T14:50:39Z</time>
      </trkpt>
      <trkpt lat="48.7325380" lon="13.6887030">
        <ele>639.2</ele>
        <time>2019-08-06T14:50:40Z</time>
      </trkpt>
      <trkpt lat="48.7325470" lon="13.6887800">
        <ele>639.2</ele>
        <time>2019-08-06T14:50:41Z</time>
      </trkpt>
      <trkpt lat="48.7325600" lon="13.6888570">
        <ele>639.2</ele>
        <time>2019-08-06T14:50:42Z</time>
      </trkpt>
      <trkpt lat="48.7325710" lon="13.6889370">
        <ele>639.0</ele>
        <time>2019-08-06T14:50:43Z</time>
      </trkpt>
      <trkpt lat="48.7325810" lon="13.6890170">
        <ele>639.0</ele>
        <time>2019-08-06T14:50:44Z</time>
      </trkpt>
      <trkpt lat="48.7325910" lon="13.6890970">
        <ele>639.0</ele>
        <time>2019-08-06T14:50:45Z</time>
      </trkpt>
      <trkpt lat="48.7326000" lon="13.6891760">
        <ele>639.0</ele>
        <time>2019-08-06T14:50:46Z</time>
      </trkpt>
      <trkpt lat="48.7326090" lon="13.6892550">
        <ele>639.0</ele>
        <time>2019-08-06T14:50:47Z</time>
      </trkpt>
      <trkpt lat="48.7326180" lon="13.6893320">
        <ele>639.0</ele>
        <time>2019-08-06T14:50:48Z</time>
      </trkpt>
      <trkpt lat="48.7326280" lon="13.6894080">
        <ele>639.0</ele>
        <time>2019-08-06T14:50:49Z</time>
      </trkpt>
      <trkpt lat="48.7326370" lon="13.6894820">
        <ele>639.0</ele>
        <time>2019-08-06T14:50:50Z</time>
      </trkpt>
      <trkpt lat="48.7326460" lon="13.6895600">
        <ele>638.8</ele>
        <time>2019-08-06T14:50:51Z</time>
      </trkpt>
      <trkpt lat="48.7326570" lon="13.6896350">
        <ele>638.8</ele>
        <time>2019-08-06T14:50:52Z</time>
      </trkpt>
      <trkpt lat="48.7326700" lon="13.6897060">
        <ele>638.8</ele>
        <time>2019-08-06T14:50:53Z</time>
      </trkpt>
      <trkpt lat="48.7326820" lon="13.6897760">
        <ele>638.8</ele>
        <time>2019-08-06T14:50:54Z</time>
      </trkpt>
      <trkpt lat="48.7326930" lon="13.6898450">
        <ele>638.8</ele>
        <time>2019-08-06T14:50:55Z</time>
      </trkpt>
      <trkpt lat="48.7327030" lon="13.6899120">
        <ele>638.8</ele>
        <time>2019-08-06T14:50:56Z</time>
      </trkpt>
      <trkpt lat="48.7327130" lon="13.6899770">
        <ele>638.8</ele>
        <time>2019-08-06T14:50:57Z</time>
      </trkpt>
      <trkpt lat="48.7327210" lon="13.6900400">
        <ele>638.8</ele>
        <time>2019-08-06T14:50:58Z</time>
      </trkpt>
      <trkpt lat="48.7327300" lon="13.6900990">
        <ele>638.8</ele>
        <time>2019-08-06T14:50:59Z</time>
      </trkpt>
      <trkpt lat="48.7327370" lon="13.6901580">
        <ele>638.8</ele>
        <time>2019-08-06T14:51:00Z</time>
      </trkpt>
      <trkpt lat="48.7327450" lon="13.6902150">
        <ele>638.8</ele>
        <time>2019-08-06T14:51:01Z</time>
      </trkpt>
      <trkpt lat="48.7327520" lon="13.6902720">
        <ele>638.8</ele>
        <time>2019-08-06T14:51:02Z</time>
      </trkpt>
      <trkpt lat="48.7327590" lon="13.6903240">
        <ele>638.6</ele>
        <time>2019-08-06T14:51:03Z</time>
      </trkpt>
      <trkpt lat="48.7327650" lon="13.6903690">
        <ele>638.6</ele>
        <time>2019-08-06T14:51:04Z</time>
      </trkpt>
      <trkpt lat="48.7327690" lon="13.6904060">
        <ele>638.6</ele>
        <time>2019-08-06T14:51:05Z</time>
      </trkpt>
      <trkpt lat="48.7327700" lon="13.6904390">
        <ele>638.6</ele>
        <time>2019-08-06T14:51:06Z</time>
      </trkpt>
      <trkpt lat="48.7327700" lon="13.6904670">
        <ele>638.4</ele>
        <time>2019-08-06T14:51:07Z</time>
      </trkpt>
      <trkpt lat="48.7327700" lon="13.6904900">
        <ele>638.4</ele>
        <time>2019-08-06T14:51:08Z</time>
      </trkpt>
      <trkpt lat="48.7327710" lon="13.6905100">
        <ele>638.4</ele>
        <time>2019-08-06T14:51:09Z</time>
      </trkpt>
      <trkpt lat="48.7327730" lon="13.6905250">
        <ele>638.4</ele>
        <time>2019-08-06T14:51:10Z</time>
      </trkpt>
      <trkpt lat="48.7327760" lon="13.6905400">
        <ele>638.4</ele>
        <time>2019-08-06T14:51:11Z</time>
      </trkpt>
      <trkpt lat="48.7327790" lon="13.6905580">
        <ele>638.4</ele>
        <time>2019-08-06T14:51:12Z</time>
      </trkpt>
      <trkpt lat="48.7327750" lon="13.6905800">
        <ele>638.4</ele>
        <time>2019-08-06T14:51:13Z</time>
      </trkpt>
      <trkpt lat="48.7327620" lon="13.6906000">
        <ele>638.4</ele>
        <time>2019-08-06T14:51:14Z</time>
      </trkpt>
      <trkpt lat="48.7327470" lon="13.6906150">
        <ele>638.6</ele>
        <time>2019-08-06T14:51:15Z</time>
      </trkpt>
      <trkpt lat="48.7327310" lon="13.6906260">
        <ele>638.6</ele>
        <time>2019-08-06T14:51:16Z</time>
      </trkpt>
      <trkpt lat="48.7327170" lon="13.6906430">
        <ele>638.6</ele>
        <time>2019-08-06T14:51:17Z</time>
      </trkpt>
      <trkpt lat="48.7327070" lon="13.6906750">
        <ele>638.6</ele>
        <time>2019-08-06T14:51:18Z</time>
      </trkpt>
      <trkpt lat="48.7327020" lon="13.6907140">
        <ele>638.6</ele>
        <time>2019-08-06T14:51:19Z</time>
      </trkpt>
      <trkpt lat="48.7327040" lon="13.6907580">
        <ele>638.6</ele>
        <time>2019-08-06T14:51:20Z</time>
      </trkpt>
      <trkpt lat="48.7327110" lon="13.6908050">
        <ele>638.6</ele>
        <time>2019-08-06T14:51:21Z</time>
      </trkpt>
      <trkpt lat="48.7327210" lon="13.6908560">
        <ele>638.6</ele>
        <time>2019-08-06T14:51:22Z</time>
      </trkpt>
      <trkpt lat="48.7327310" lon="13.6909100">
        <ele>638.6</ele>
        <time>2019-08-06T14:51:23Z</time>
      </trkpt>
      <trkpt lat="48.7327390" lon="13.6909660">
        <ele>638.6</ele>
        <time>2019-08-06T14:51:24Z</time>
      </trkpt>
      <trkpt lat="48.7327480" lon="13.6910210">
        <ele>638.6</ele>
        <time>2019-08-06T14:51:25Z</time>
      </trkpt>
      <trkpt lat="48.7327570" lon="13.6910780">
        <ele>638.6</ele>
        <time>2019-08-06T14:51:26Z</time>
      </trkpt>
      <trkpt lat="48.7327660" lon="13.6911330">
        <ele>638.6</ele>
        <time>2019-08-06T14:51:27Z</time>
      </trkpt>
      <trkpt lat="48.7327740" lon="13.6911880">
        <ele>638.6</ele>
        <time>2019-08-06T14:51:28Z</time>
      </trkpt>
      <trkpt lat="48.7327840" lon="13.6912430">
        <ele>638.6</ele>
        <time>2019-08-06T14:51:29Z</time>
      </trkpt>
      <trkpt lat="48.7327950" lon="13.6912960">
        <ele>638.6</ele>
        <time>2019-08-06T14:51:30Z</time>
      </trkpt>
      <trkpt lat="48.7328050" lon="13.6913490">
        <ele>638.6</ele>
        <time>2019-08-06T14:51:31Z</time>
      </trkpt>
      <trkpt lat="48.7328120" lon="13.6914020">
        <ele>638.6</ele>
        <time>2019-08-06T14:51:32Z</time>
      </trkpt>
      <trkpt lat="48.7328220" lon="13.6914550">
        <ele>638.6</ele>
        <time>2019-08-06T14:51:33Z</time>
      </trkpt>
      <trkpt lat="48.7328320" lon="13.6915030">
        <ele>638.6</ele>
        <time>2019-08-06T14:51:34Z</time>
      </trkpt>
      <trkpt lat="48.7328380" lon="13.6915550">
        <ele>638.4</ele>
        <time>2019-08-06T14:51:35Z</time>
      </trkpt>
      <trkpt lat="48.7328360" lon="13.6916090">
        <ele>638.4</ele>
        <time>2019-08-06T14:51:36Z</time>
      </trkpt>
      <trkpt lat="48.7328340" lon="13.6916650">
        <ele>638.4</ele>
        <time>2019-08-06T14:51:37Z</time>
      </trkpt>
      <trkpt lat="48.7328310" lon="13.6917240">
        <ele>638.4</ele>
        <time>2019-08-06T14:51:38Z</time>
      </trkpt>
      <trkpt lat="48.7328300" lon="13.6917830">
        <ele>638.4</ele>
        <time>2019-08-06T14:51:39Z</time>
      </trkpt>
      <trkpt lat="48.7328310" lon="13.6918450">
        <ele>638.4</ele>
        <time>2019-08-06T14:51:40Z</time>
      </trkpt>
      <trkpt lat="48.7328290" lon="13.6919060">
        <ele>638.4</ele>
        <time>2019-08-06T14:51:41Z</time>
      </trkpt>
      <trkpt lat="48.7328260" lon="13.6919650">
        <ele>638.4</ele>
        <time>2019-08-06T14:51:42Z</time>
      </trkpt>
      <trkpt lat="48.7328230" lon="13.6920250">
        <ele>638.4</ele>
        <time>2019-08-06T14:51:43Z</time>
      </trkpt>
      <trkpt lat="48.7328230" lon="13.6920830">
        <ele>638.4</ele>
        <time>2019-08-06T14:51:44Z</time>
      </trkpt>
      <trkpt lat="48.7328270" lon="13.6921390">
        <ele>638.4</ele>
        <time>2019-08-06T14:51:45Z</time>
      </trkpt>
      <trkpt lat="48.7328360" lon="13.6921920">
        <ele>638.4</ele>
        <time>2019-08-06T14:51:46Z</time>
      </trkpt>
      <trkpt lat="48.7328500" lon="13.6922440">
        <ele>638.4</ele>
        <time>2019-08-06T14:51:47Z</time>
      </trkpt>
      <trkpt lat="48.7328680" lon="13.6922950">
        <ele>638.4</ele>
        <time>2019-08-06T14:51:48Z</time>
      </trkpt>
      <trkpt lat="48.7328890" lon="13.6923440">
        <ele>638.4</ele>
        <time>2019-08-06T14:51:49Z</time>
      </trkpt>
      <trkpt lat="48.7329120" lon="13.6923920">
        <ele>638.4</ele>
        <time>2019-08-06T14:51:50Z</time>
      </trkpt>
      <trkpt lat="48.7329350" lon="13.6924360">
        <ele>638.4</ele>
        <time>2019-08-06T14:51:51Z</time>
      </trkpt>
      <trkpt lat="48.7329600" lon="13.6924790">
        <ele>638.4</ele>
        <time>2019-08-06T14:51:52Z</time>
      </trkpt>
      <trkpt lat="48.7329840" lon="13.6925210">
        <ele>638.2</ele>
        <time>2019-08-06T14:51:53Z</time>
      </trkpt>
      <trkpt lat="48.7330110" lon="13.6925600">
        <ele>638.2</ele>
        <time>2019-08-06T14:51:54Z</time>
      </trkpt>
      <trkpt lat="48.7330340" lon="13.6926000">
        <ele>638.2</ele>
        <time>2019-08-06T14:51:55Z</time>
      </trkpt>
      <trkpt lat="48.7330520" lon="13.6926480">
        <ele>638.2</ele>
        <time>2019-08-06T14:51:56Z</time>
      </trkpt>
      <trkpt lat="48.7330620" lon="13.6927030">
        <ele>638.2</ele>
        <time>2019-08-06T14:51:57Z</time>
      </trkpt>
      <trkpt lat="48.7330690" lon="13.6927610">
        <ele>638.2</ele>
        <time>2019-08-06T14:51:58Z</time>
      </trkpt>
      <trkpt lat="48.7330760" lon="13.6928220">
        <ele>638.2</ele>
        <time>2019-08-06T14:51:59Z</time>
      </trkpt>
      <trkpt lat="48.7330840" lon="13.6928830">
        <ele>638.2</ele>
        <time>2019-08-06T14:52:00Z</time>
      </trkpt>
      <trkpt lat="48.7330920" lon="13.6929460">
        <ele>638.2</ele>
        <time>2019-08-06T14:52:01Z</time>
      </trkpt>
      <trkpt lat="48.7330980" lon="13.6930090">
        <ele>638.2</ele>
        <time>2019-08-06T14:52:02Z</time>
      </trkpt>
      <trkpt lat="48.7331040" lon="13.6930740">
        <ele>638.2</ele>
        <time>2019-08-06T14:52:03Z</time>
      </trkpt>
      <trkpt lat="48.7331100" lon="13.6931400">
        <ele>638.2</ele>
        <time>2019-08-06T14:52:04Z</time>
      </trkpt>
      <trkpt lat="48.7331150" lon="13.6932080">
        <ele>638.2</ele>
        <time>2019-08-06T14:52:05Z</time>
      </trkpt>
      <trkpt lat="48.7331210" lon="13.6932780">
        <ele>638.2</ele>
        <time>2019-08-06T14:52:06Z</time>
      </trkpt>
      <trkpt lat="48.7331270" lon="13.6933480">
        <ele>638.2</ele>
        <time>2019-08-06T14:52:07Z</time>
      </trkpt>
      <trkpt lat="48.7331330" lon="13.6934190">
        <ele>638.2</ele>
        <time>2019-08-06T14:52:08Z</time>
      </trkpt>
      <trkpt lat="48.7331360" lon="13.6934910">
        <ele>638.0</ele>
        <time>2019-08-06T14:52:09Z</time>
      </trkpt>
      <trkpt lat="48.7331410" lon="13.6935620">
        <ele>638.0</ele>
        <time>2019-08-06T14:52:10Z</time>
      </trkpt>
      <trkpt lat="48.7331420" lon="13.6936330">
        <ele>638.0</ele>
        <time>2019-08-06T14:52:11Z</time>
      </trkpt>
      <trkpt lat="48.7331420" lon="13.6937050">
        <ele>638.0</ele>
        <time>2019-08-06T14:52:12Z</time>
      </trkpt>
      <trkpt lat="48.7331410" lon="13.6937750">
        <ele>638.0</ele>
        <time>2019-08-06T14:52:13Z</time>
      </trkpt>
      <trkpt lat="48.7331400" lon="13.6938500">
        <ele>638.0</ele>
        <time>2019-08-06T14:52:14Z</time>
      </trkpt>
      <trkpt lat="48.7331380" lon="13.6939250">
        <ele>638.0</ele>
        <time>2019-08-06T14:52:15Z</time>
      </trkpt>
      <trkpt lat="48.7331370" lon="13.6940010">
        <ele>638.0</ele>
        <time>2019-08-06T14:52:16Z</time>
      </trkpt>
      <trkpt lat="48.7331340" lon="13.6940750">
        <ele>638.0</ele>
        <time>2019-08-06T14:52:17Z</time>
      </trkpt>
      <trkpt lat="48.7331310" lon="13.6941480">
        <ele>637.8</ele>
        <time>2019-08-06T14:52:18Z</time>
      </trkpt>
      <trkpt lat="48.7331280" lon="13.6942230">
        <ele>637.8</ele>
        <time>2019-08-06T14:52:19Z</time>
      </trkpt>
      <trkpt lat="48.7331260" lon="13.6942970">
        <ele>637.8</ele>
        <time>2019-08-06T14:52:20Z</time>
      </trkpt>
      <trkpt lat="48.7331240" lon="13.6943720">
        <ele>637.8</ele>
        <time>2019-08-06T14:52:21Z</time>
      </trkpt>
      <trkpt lat="48.7331210" lon="13.6944470">
        <ele>637.8</ele>
        <time>2019-08-06T14:52:22Z</time>
      </trkpt>
      <trkpt lat="48.7331190" lon="13.6945220">
        <ele>637.8</ele>
        <time>2019-08-06T14:52:23Z</time>
      </trkpt>
      <trkpt lat="48.7331160" lon="13.6945970">
        <ele>637.8</ele>
        <time>2019-08-06T14:52:24Z</time>
      </trkpt>
      <trkpt lat="48.7331120" lon="13.6946730">
        <ele>637.8</ele>
        <time>2019-08-06T14:52:25Z</time>
      </trkpt>
      <trkpt lat="48.7331090" lon="13.6947500">
        <ele>637.8</ele>
        <time>2019-08-06T14:52:26Z</time>
      </trkpt>
      <trkpt lat="48.7331050" lon="13.6948250">
        <ele>637.8</ele>
        <time>2019-08-06T14:52:27Z</time>
      </trkpt>
      <trkpt lat="48.7331010" lon="13.6948990">
        <ele>637.8</ele>
        <time>2019-08-06T14:52:28Z</time>
      </trkpt>
      <trkpt lat="48.7330980" lon="13.6949730">
        <ele>637.6</ele>
        <time>2019-08-06T14:52:29Z</time>
      </trkpt>
      <trkpt lat="48.7330960" lon="13.6950450">
        <ele>637.6</ele>
        <time>2019-08-06T14:52:30Z</time>
      </trkpt>
      <trkpt lat="48.7330920" lon="13.6951190">
        <ele>637.6</ele>
        <time>2019-08-06T14:52:31Z</time>
      </trkpt>
      <trkpt lat="48.7330870" lon="13.6951930">
        <ele>637.6</ele>
        <time>2019-08-06T14:52:32Z</time>
      </trkpt>
      <trkpt lat="48.7330850" lon="13.6952670">
        <ele>637.6</ele>
        <time>2019-08-06T14:52:33Z</time>
      </trkpt>
      <trkpt lat="48.7330830" lon="13.6953420">
        <ele>637.4</ele>
        <time>2019-08-06T14:52:34Z</time>
      </trkpt>
      <trkpt lat="48.7330830" lon="13.6954160">
        <ele>637.4</ele>
        <time>2019-08-06T14:52:35Z</time>
      </trkpt>
      <trkpt lat="48.7330810" lon="13.6954900">
        <ele>637.4</ele>
        <time>2019-08-06T14:52:36Z</time>
      </trkpt>
      <trkpt lat="48.7330780" lon="13.6955630">
        <ele>637.4</ele>
        <time>2019-08-06T14:52:37Z</time>
      </trkpt>
      <trkpt lat="48.7330770" lon="13.6956340">
        <ele>637.4</ele>
        <time>2019-08-06T14:52:38Z</time>
      </trkpt>
      <trkpt lat="48.7330760" lon="13.6957110">
        <ele>637.4</ele>
        <time>2019-08-06T14:52:39Z</time>
      </trkpt>
      <trkpt lat="48.7330740" lon="13.6957840">
        <ele>637.4</ele>
        <time>2019-08-06T14:52:40Z</time>
      </trkpt>
      <trkpt lat="48.7330700" lon="13.6958520">
        <ele>637.4</ele>
        <time>2019-08-06T14:52:41Z</time>
      </trkpt>
      <trkpt lat="48.7330670" lon="13.6959310">
        <ele>637.4</ele>
        <time>2019-08-06T14:52:42Z</time>
      </trkpt>
      <trkpt lat="48.7330650" lon="13.6960030">
        <ele>637.4</ele>
        <time>2019-08-06T14:52:43Z</time>
      </trkpt>
      <trkpt lat="48.7330630" lon="13.6960750">
        <ele>637.4</ele>
        <time>2019-08-06T14:52:44Z</time>
      </trkpt>
      <trkpt lat="48.7330610" lon="13.6961470">
        <ele>637.4</ele>
        <time>2019-08-06T14:52:45Z</time>
      </trkpt>
      <trkpt lat="48.7330600" lon="13.6962210">
        <ele>637.4</ele>
        <time>2019-08-06T14:52:46Z</time>
      </trkpt>
      <trkpt lat="48.7330580" lon="13.6962960">
        <ele>637.4</ele>
        <time>2019-08-06T14:52:47Z</time>
      </trkpt>
      <trkpt lat="48.7330560" lon="13.6963710">
        <ele>637.4</ele>
        <time>2019-08-06T14:52:48Z</time>
      </trkpt>
      <trkpt lat="48.7330520" lon="13.6964460">
        <ele>637.4</ele>
        <time>2019-08-06T14:52:49Z</time>
      </trkpt>
      <trkpt lat="48.7330500" lon="13.6965200">
        <ele>637.4</ele>
        <time>2019-08-06T14:52:50Z</time>
      </trkpt>
      <trkpt lat="48.7330470" lon="13.6965950">
        <ele>637.4</ele>
        <time>2019-08-06T14:52:51Z</time>
      </trkpt>
      <trkpt lat="48.7330450" lon="13.6966690">
        <ele>637.4</ele>
        <time>2019-08-06T14:52:52Z</time>
      </trkpt>
      <trkpt lat="48.7330420" lon="13.6967420">
        <ele>637.4</ele>
        <time>2019-08-06T14:52:53Z</time>
      </trkpt>
      <trkpt lat="48.7330390" lon="13.6968170">
        <ele>637.4</ele>
        <time>2019-08-06T14:52:54Z</time>
      </trkpt>
      <trkpt lat="48.7330380" lon="13.6968890">
        <ele>637.4</ele>
        <time>2019-08-06T14:52:55Z</time>
      </trkpt>
      <trkpt lat="48.7330380" lon="13.6969600">
        <ele>637.4</ele>
        <time>2019-08-06T14:52:56Z</time>
      </trkpt>
      <trkpt lat="48.7330390" lon="13.6970310">
        <ele>637.4</ele>
        <time>2019-08-06T14:52:57Z</time>
      </trkpt>
      <trkpt lat="48.7330430" lon="13.6970990">
        <ele>637.4</ele>
        <time>2019-08-06T14:52:58Z</time>
      </trkpt>
      <trkpt lat="48.7330450" lon="13.6971650">
        <ele>637.4</ele>
        <time>2019-08-06T14:52:59Z</time>
      </trkpt>
      <trkpt lat="48.7330470" lon="13.6972310">
        <ele>637.4</ele>
        <time>2019-08-06T14:53:00Z</time>
      </trkpt>
      <trkpt lat="48.7330470" lon="13.6973020">
        <ele>637.4</ele>
        <time>2019-08-06T14:53:01Z</time>
      </trkpt>
      <trkpt lat="48.7330490" lon="13.6973710">
        <ele>637.4</ele>
        <time>2019-08-06T14:53:02Z</time>
      </trkpt>
      <trkpt lat="48.7330510" lon="13.6974420">
        <ele>637.4</ele>
        <time>2019-08-06T14:53:03Z</time>
      </trkpt>
      <trkpt lat="48.7330570" lon="13.6975120">
        <ele>637.4</ele>
        <time>2019-08-06T14:53:04Z</time>
      </trkpt>
      <trkpt lat="48.7330660" lon="13.6975800">
        <ele>637.2</ele>
        <time>2019-08-06T14:53:05Z</time>
      </trkpt>
      <trkpt lat="48.7330740" lon="13.6976490">
        <ele>637.2</ele>
        <time>2019-08-06T14:53:06Z</time>
      </trkpt>
      <trkpt lat="48.7330840" lon="13.6977220">
        <ele>637.0</ele>
        <time>2019-08-06T14:53:07Z</time>
      </trkpt>
      <trkpt lat="48.7330910" lon="13.6977930">
        <ele>637.0</ele>
        <time>2019-08-06T14:53:08Z</time>
      </trkpt>
      <trkpt lat="48.7330990" lon="13.6978620">
        <ele>637.0</ele>
        <time>2019-08-06T14:53:09Z</time>
      </trkpt>
      <trkpt lat="48.7331080" lon="13.6979270">
        <ele>637.0</ele>
        <time>2019-08-06T14:53:10Z</time>
      </trkpt>
      <trkpt lat="48.7331180" lon="13.6979900">
        <ele>637.0</ele>
        <time>2019-08-06T14:53:11Z</time>
      </trkpt>
      <trkpt lat="48.7331300" lon="13.6980510">
        <ele>637.0</ele>
        <time>2019-08-06T14:53:12Z</time>
      </trkpt>
      <trkpt lat="48.7331420" lon="13.6981080">
        <ele>637.0</ele>
        <time>2019-08-06T14:53:13Z</time>
      </trkpt>
      <trkpt lat="48.7331530" lon="13.6981630">
        <ele>637.0</ele>
        <time>2019-08-06T14:53:14Z</time>
      </trkpt>
      <trkpt lat="48.7331650" lon="13.6982170">
        <ele>637.0</ele>
        <time>2019-08-06T14:53:15Z</time>
      </trkpt>
      <trkpt lat="48.7331770" lon="13.6982680">
        <ele>637.0</ele>
        <time>2019-08-06T14:53:16Z</time>
      </trkpt>
      <trkpt lat="48.7331890" lon="13.6983150">
        <ele>637.0</ele>
        <time>2019-08-06T14:53:17Z</time>
      </trkpt>
      <trkpt lat="48.7332010" lon="13.6983560">
        <ele>637.2</ele>
        <time>2019-08-06T14:53:18Z</time>
      </trkpt>
      <trkpt lat="48.7332090" lon="13.6983910">
        <ele>637.2</ele>
        <time>2019-08-06T14:53:19Z</time>
      </trkpt>
      <trkpt lat="48.7332150" lon="13.6984210">
        <ele>637.2</ele>
        <time>2019-08-06T14:53:20Z</time>
      </trkpt>
      <trkpt lat="48.7332210" lon="13.6984540">
        <ele>637.2</ele>
        <time>2019-08-06T14:53:21Z</time>
      </trkpt>
      <trkpt lat="48.7332300" lon="13.6984950">
        <ele>637.2</ele>
        <time>2019-08-06T14:53:22Z</time>
      </trkpt>
      <trkpt lat="48.7332410" lon="13.6985390">
        <ele>637.2</ele>
        <time>2019-08-06T14:53:23Z</time>
      </trkpt>
      <trkpt lat="48.7332540" lon="13.6985850">
        <ele>637.2</ele>
        <time>2019-08-06T14:53:24Z</time>
      </trkpt>
      <trkpt lat="48.7332640" lon="13.6986310">
        <ele>637.2</ele>
        <time>2019-08-06T14:53:25Z</time>
      </trkpt>
      <trkpt lat="48.7332730" lon="13.6986740">
        <ele>637.2</ele>
        <time>2019-08-06T14:53:26Z</time>
      </trkpt>
      <trkpt lat="48.7332820" lon="13.6987160">
        <ele>637.2</ele>
        <time>2019-08-06T14:53:27Z</time>
      </trkpt>
      <trkpt lat="48.7332920" lon="13.6987610">
        <ele>637.2</ele>
        <time>2019-08-06T14:53:28Z</time>
      </trkpt>
      <trkpt lat="48.7333030" lon="13.6988050">
        <ele>637.2</ele>
        <time>2019-08-06T14:53:29Z</time>
      </trkpt>
      <trkpt lat="48.7333160" lon="13.6988530">
        <ele>637.2</ele>
        <time>2019-08-06T14:53:30Z</time>
      </trkpt>
      <trkpt lat="48.7333300" lon="13.6988990">
        <ele>637.2</ele>
        <time>2019-08-06T14:53:31Z</time>
      </trkpt>
      <trkpt lat="48.7333460" lon="13.6989460">
        <ele>637.2</ele>
        <time>2019-08-06T14:53:32Z</time>
      </trkpt>
      <trkpt lat="48.7333630" lon="13.6989950">
        <ele>637.2</ele>
        <time>2019-08-06T14:53:33Z</time>
      </trkpt>
      <trkpt lat="48.7333830" lon="13.6990500">
        <ele>637.2</ele>
        <time>2019-08-06T14:53:34Z</time>
      </trkpt>
      <trkpt lat="48.7334050" lon="13.6990990">
        <ele>637.2</ele>
        <time>2019-08-06T14:53:35Z</time>
      </trkpt>
      <trkpt lat="48.7334280" lon="13.6991540">
        <ele>637.2</ele>
        <time>2019-08-06T14:53:36Z</time>
      </trkpt>
      <trkpt lat="48.7334490" lon="13.6992120">
        <ele>637.2</ele>
        <time>2019-08-06T14:53:37Z</time>
      </trkpt>
      <trkpt lat="48.7334730" lon="13.6992710">
        <ele>637.2</ele>
        <time>2019-08-06T14:53:38Z</time>
      </trkpt>
      <trkpt lat="48.7334980" lon="13.6993300">
        <ele>637.2</ele>
        <time>2019-08-06T14:53:39Z</time>
      </trkpt>
      <trkpt lat="48.7335230" lon="13.6993870">
        <ele>637.2</ele>
        <time>2019-08-06T14:53:40Z</time>
      </trkpt>
      <trkpt lat="48.7335500" lon="13.6994440">
        <ele>637.2</ele>
        <time>2019-08-06T14:53:41Z</time>
      </trkpt>
      <trkpt lat="48.7335780" lon="13.6995020">
        <ele>637.2</ele>
        <time>2019-08-06T14:53:42Z</time>
      </trkpt>
      <trkpt lat="48.7336080" lon="13.6995590">
        <ele>637.4</ele>
        <time>2019-08-06T14:53:43Z</time>
      </trkpt>
      <trkpt lat="48.7336390" lon="13.6996150">
        <ele>637.4</ele>
        <time>2019-08-06T14:53:44Z</time>
      </trkpt>
      <trkpt lat="48.7336700" lon="13.6996680">
        <ele>637.4</ele>
        <time>2019-08-06T14:53:45Z</time>
      </trkpt>
      <trkpt lat="48.7337030" lon="13.6997220">
        <ele>637.4</ele>
        <time>2019-08-06T14:53:46Z</time>
      </trkpt>
      <trkpt lat="48.7337370" lon="13.6997740">
        <ele>637.4</ele>
        <time>2019-08-06T14:53:47Z</time>
      </trkpt>
      <trkpt lat="48.7337720" lon="13.6998280">
        <ele>637.4</ele>
        <time>2019-08-06T14:53:48Z</time>
      </trkpt>
      <trkpt lat="48.7338060" lon="13.6998830">
        <ele>637.4</ele>
        <time>2019-08-06T14:53:49Z</time>
      </trkpt>
      <trkpt lat="48.7338410" lon="13.6999370">
        <ele>637.4</ele>
        <time>2019-08-06T14:53:50Z</time>
      </trkpt>
      <trkpt lat="48.7338780" lon="13.6999890">
        <ele>637.4</ele>
        <time>2019-08-06T14:53:51Z</time>
      </trkpt>
      <trkpt lat="48.7339170" lon="13.7000420">
        <ele>637.2</ele>
        <time>2019-08-06T14:53:52Z</time>
      </trkpt>
      <trkpt lat="48.7339550" lon="13.7000950">
        <ele>637.2</ele>
        <time>2019-08-06T14:53:53Z</time>
      </trkpt>
      <trkpt lat="48.7339960" lon="13.7001470">
        <ele>637.2</ele>
        <time>2019-08-06T14:53:54Z</time>
      </trkpt>
      <trkpt lat="48.7340370" lon="13.7001970">
        <ele>637.2</ele>
        <time>2019-08-06T14:53:55Z</time>
      </trkpt>
      <trkpt lat="48.7340750" lon="13.7002470">
        <ele>637.2</ele>
        <time>2019-08-06T14:53:56Z</time>
      </trkpt>
      <trkpt lat="48.7341130" lon="13.7002980">
        <ele>637.2</ele>
        <time>2019-08-06T14:53:57Z</time>
      </trkpt>
      <trkpt lat="48.7341520" lon="13.7003440">
        <ele>637.2</ele>
        <time>2019-08-06T14:53:58Z</time>
      </trkpt>
      <trkpt lat="48.7341930" lon="13.7003900">
        <ele>637.2</ele>
        <time>2019-08-06T14:53:59Z</time>
      </trkpt>
      <trkpt lat="48.7342350" lon="13.7004340">
        <ele>637.2</ele>
        <time>2019-08-06T14:54:00Z</time>
      </trkpt>
      <trkpt lat="48.7342790" lon="13.7004770">
        <ele>637.2</ele>
        <time>2019-08-06T14:54:01Z</time>
      </trkpt>
      <trkpt lat="48.7343250" lon="13.7005190">
        <ele>637.2</ele>
        <time>2019-08-06T14:54:02Z</time>
      </trkpt>
      <trkpt lat="48.7343700" lon="13.7005600">
        <ele>637.0</ele>
        <time>2019-08-06T14:54:03Z</time>
      </trkpt>
      <trkpt lat="48.7344140" lon="13.7005970">
        <ele>637.0</ele>
        <time>2019-08-06T14:54:04Z</time>
      </trkpt>
      <trkpt lat="48.7344600" lon="13.7006330">
        <ele>637.0</ele>
        <time>2019-08-06T14:54:05Z</time>
      </trkpt>
      <trkpt lat="48.7345070" lon="13.7006730">
        <ele>637.0</ele>
        <time>2019-08-06T14:54:06Z</time>
      </trkpt>
      <trkpt lat="48.7345520" lon="13.7007090">
        <ele>637.0</ele>
        <time>2019-08-06T14:54:07Z</time>
      </trkpt>
      <trkpt lat="48.7345970" lon="13.7007440">
        <ele>636.8</ele>
        <time>2019-08-06T14:54:08Z</time>
      </trkpt>
      <trkpt lat="48.7346440" lon="13.7007790">
        <ele>636.8</ele>
        <time>2019-08-06T14:54:09Z</time>
      </trkpt>
      <trkpt lat="48.7346900" lon="13.7008140">
        <ele>636.8</ele>
        <time>2019-08-06T14:54:10Z</time>
      </trkpt>
      <trkpt lat="48.7347370" lon="13.7008490">
        <ele>636.8</ele>
        <time>2019-08-06T14:54:11Z</time>
      </trkpt>
      <trkpt lat="48.7347820" lon="13.7008870">
        <ele>636.8</ele>
        <time>2019-08-06T14:54:12Z</time>
      </trkpt>
      <trkpt lat="48.7348260" lon="13.7009260">
        <ele>636.8</ele>
        <time>2019-08-06T14:54:13Z</time>
      </trkpt>
      <trkpt lat="48.7348720" lon="13.7009630">
        <ele>637.0</ele>
        <time>2019-08-06T14:54:14Z</time>
      </trkpt>
      <trkpt lat="48.7349150" lon="13.7009990">
        <ele>637.0</ele>
        <time>2019-08-06T14:54:15Z</time>
      </trkpt>
      <trkpt lat="48.7349590" lon="13.7010360">
        <ele>637.0</ele>
        <time>2019-08-06T14:54:16Z</time>
      </trkpt>
      <trkpt lat="48.7350030" lon="13.7010730">
        <ele>637.0</ele>
        <time>2019-08-06T14:54:17Z</time>
      </trkpt>
      <trkpt lat="48.7350460" lon="13.7011130">
        <ele>637.0</ele>
        <time>2019-08-06T14:54:18Z</time>
      </trkpt>
      <trkpt lat="48.7350890" lon="13.7011540">
        <ele>637.0</ele>
        <time>2019-08-06T14:54:19Z</time>
      </trkpt>
      <trkpt lat="48.7351300" lon="13.7011960">
        <ele>637.0</ele>
        <time>2019-08-06T14:54:20Z</time>
      </trkpt>
      <trkpt lat="48.7351700" lon="13.7012380">
        <ele>637.0</ele>
        <time>2019-08-06T14:54:21Z</time>
      </trkpt>
      <trkpt lat="48.7352090" lon="13.7012820">
        <ele>637.0</ele>
        <time>2019-08-06T14:54:22Z</time>
      </trkpt>
      <trkpt lat="48.7352470" lon="13.7013280">
        <ele>637.0</ele>
        <time>2019-08-06T14:54:23Z</time>
      </trkpt>
      <trkpt lat="48.7352870" lon="13.7013770">
        <ele>637.0</ele>
        <time>2019-08-06T14:54:24Z</time>
      </trkpt>
      <trkpt lat="48.7353260" lon="13.7014270">
        <ele>637.0</ele>
        <time>2019-08-06T14:54:25Z</time>
      </trkpt>
      <trkpt lat="48.7353620" lon="13.7014800">
        <ele>637.0</ele>
        <time>2019-08-06T14:54:26Z</time>
      </trkpt>
      <trkpt lat="48.7353960" lon="13.7015360">
        <ele>637.0</ele>
        <time>2019-08-06T14:54:27Z</time>
      </trkpt>
      <trkpt lat="48.7354300" lon="13.7015910">
        <ele>637.0</ele>
        <time>2019-08-06T14:54:28Z</time>
      </trkpt>
      <trkpt lat="48.7354630" lon="13.7016470">
        <ele>637.2</ele>
        <time>2019-08-06T14:54:29Z</time>
      </trkpt>
      <trkpt lat="48.7354940" lon="13.7017020">
        <ele>637.2</ele>
        <time>2019-08-06T14:54:30Z</time>
      </trkpt>
      <trkpt lat="48.7355250" lon="13.7017560">
        <ele>637.2</ele>
        <time>2019-08-06T14:54:31Z</time>
      </trkpt>
      <trkpt lat="48.7355560" lon="13.7018140">
        <ele>637.4</ele>
        <time>2019-08-06T14:54:32Z</time>
      </trkpt>
      <trkpt lat="48.7355840" lon="13.7018700">
        <ele>637.4</ele>
        <time>2019-08-06T14:54:33Z</time>
      </trkpt>
      <trkpt lat="48.7356090" lon="13.7019280">
        <ele>637.4</ele>
        <time>2019-08-06T14:54:34Z</time>
      </trkpt>
      <trkpt lat="48.7356330" lon="13.7019880">
        <ele>637.6</ele>
        <time>2019-08-06T14:54:35Z</time>
      </trkpt>
      <trkpt lat="48.7356560" lon="13.7020480">
        <ele>637.6</ele>
        <time>2019-08-06T14:54:36Z</time>
      </trkpt>
      <trkpt lat="48.7356780" lon="13.7021100">
        <ele>637.8</ele>
        <time>2019-08-06T14:54:37Z</time>
      </trkpt>
      <trkpt lat="48.7357000" lon="13.7021740">
        <ele>637.8</ele>
        <time>2019-08-06T14:54:38Z</time>
      </trkpt>
      <trkpt lat="48.7357190" lon="13.7022390">
        <ele>637.8</ele>
        <time>2019-08-06T14:54:39Z</time>
      </trkpt>
      <trkpt lat="48.7357390" lon="13.7023040">
        <ele>638.0</ele>
        <time>2019-08-06T14:54:40Z</time>
      </trkpt>
      <trkpt lat="48.7357590" lon="13.7023690">
        <ele>638.2</ele>
        <time>2019-08-06T14:54:41Z</time>
      </trkpt>
      <trkpt lat="48.7357740" lon="13.7024330">
        <ele>638.2</ele>
        <time>2019-08-06T14:54:42Z</time>
      </trkpt>
      <trkpt lat="48.7357840" lon="13.7025010">
        <ele>638.4</ele>
        <time>2019-08-06T14:54:43Z</time>
      </trkpt>
      <trkpt lat="48.7357930" lon="13.7025690">
        <ele>638.4</ele>
        <time>2019-08-06T14:54:44Z</time>
      </trkpt>
      <trkpt lat="48.7358020" lon="13.7026350">
        <ele>638.6</ele>
        <time>2019-08-06T14:54:45Z</time>
      </trkpt>
      <trkpt lat="48.7358090" lon="13.7026630">
        <ele>638.6</ele>
        <time>2019-08-06T14:54:46Z</time>
      </trkpt>
      <trkpt lat="48.7358150" lon="13.7026910">
        <ele>638.6</ele>
        <time>2019-08-06T14:54:47Z</time>
      </trkpt>
      <trkpt lat="48.7358220" lon="13.7027200">
        <ele>638.6</ele>
        <time>2019-08-06T14:54:48Z</time>
      </trkpt>
      <trkpt lat="48.7358400" lon="13.7027870">
        <ele>638.8</ele>
        <time>2019-08-06T14:54:49Z</time>
      </trkpt>
      <trkpt lat="48.7358570" lon="13.7028560">
        <ele>639.0</ele>
        <time>2019-08-06T14:54:50Z</time>
      </trkpt>
      <trkpt lat="48.7358700" lon="13.7029250">
        <ele>639.0</ele>
        <time>2019-08-06T14:54:51Z</time>
      </trkpt>
      <trkpt lat="48.7358770" lon="13.7029860">
        <ele>639.2</ele>
        <time>2019-08-06T14:54:52Z</time>
      </trkpt>
      <trkpt lat="48.7358770" lon="13.7030550">
        <ele>639.2</ele>
        <time>2019-08-06T14:54:53Z</time>
      </trkpt>
      <trkpt lat="48.7358810" lon="13.7031150">
        <ele>639.4</ele>
        <time>2019-08-06T14:54:54Z</time>
      </trkpt>
      <trkpt lat="48.7358900" lon="13.7031780">
        <ele>639.4</ele>
        <time>2019-08-06T14:54:55Z</time>
      </trkpt>
      <trkpt lat="48.7358960" lon="13.7032420">
        <ele>639.6</ele>
        <time>2019-08-06T14:54:56Z</time>
      </trkpt>
      <trkpt lat="48.7358990" lon="13.7033060">
        <ele>639.6</ele>
        <time>2019-08-06T14:54:57Z</time>
      </trkpt>
      <trkpt lat="48.7359040" lon="13.7033710">
        <ele>639.8</ele>
        <time>2019-08-06T14:54:58Z</time>
      </trkpt>
      <trkpt lat="48.7359080" lon="13.7034400">
        <ele>640.0</ele>
        <time>2019-08-06T14:54:59Z</time>
      </trkpt>
      <trkpt lat="48.7359110" lon="13.7035020">
        <ele>640.0</ele>
        <time>2019-08-06T14:55:00Z</time>
      </trkpt>
      <trkpt lat="48.7359160" lon="13.7035670">
        <ele>640.2</ele>
        <time>2019-08-06T14:55:01Z</time>
      </trkpt>
      <trkpt lat="48.7359190" lon="13.7036300">
        <ele>640.2</ele>
        <time>2019-08-06T14:55:02Z</time>
      </trkpt>
      <trkpt lat="48.7359200" lon="13.7036960">
        <ele>640.4</ele>
        <time>2019-08-06T14:55:03Z</time>
      </trkpt>
      <trkpt lat="48.7359220" lon="13.7037630">
        <ele>640.6</ele>
        <time>2019-08-06T14:55:04Z</time>
      </trkpt>
      <trkpt lat="48.7359240" lon="13.7038300">
        <ele>640.6</ele>
        <time>2019-08-06T14:55:05Z</time>
      </trkpt>
      <trkpt lat="48.7359250" lon="13.7038970">
        <ele>640.8</ele>
        <time>2019-08-06T14:55:06Z</time>
      </trkpt>
      <trkpt lat="48.7359280" lon="13.7039660">
        <ele>640.8</ele>
        <time>2019-08-06T14:55:07Z</time>
      </trkpt>
      <trkpt lat="48.7359330" lon="13.7040340">
        <ele>641.0</ele>
        <time>2019-08-06T14:55:08Z</time>
      </trkpt>
      <trkpt lat="48.7359360" lon="13.7041010">
        <ele>641.0</ele>
        <time>2019-08-06T14:55:09Z</time>
      </trkpt>
      <trkpt lat="48.7359390" lon="13.7041670">
        <ele>641.2</ele>
        <time>2019-08-06T14:55:10Z</time>
      </trkpt>
      <trkpt lat="48.7359420" lon="13.7042310">
        <ele>641.4</ele>
        <time>2019-08-06T14:55:11Z</time>
      </trkpt>
      <trkpt lat="48.7359450" lon="13.7042960">
        <ele>641.4</ele>
        <time>2019-08-06T14:55:12Z</time>
      </trkpt>
      <trkpt lat="48.7359490" lon="13.7043590">
        <ele>641.6</ele>
        <time>2019-08-06T14:55:13Z</time>
      </trkpt>
      <trkpt lat="48.7359500" lon="13.7044220">
        <ele>641.6</ele>
        <time>2019-08-06T14:55:14Z</time>
      </trkpt>
      <trkpt lat="48.7359530" lon="13.7044850">
        <ele>641.8</ele>
        <time>2019-08-06T14:55:15Z</time>
      </trkpt>
      <trkpt lat="48.7359580" lon="13.7045500">
        <ele>641.8</ele>
        <time>2019-08-06T14:55:16Z</time>
      </trkpt>
      <trkpt lat="48.7359630" lon="13.7046140">
        <ele>642.0</ele>
        <time>2019-08-06T14:55:17Z</time>
      </trkpt>
      <trkpt lat="48.7359700" lon="13.7046800">
        <ele>642.0</ele>
        <time>2019-08-06T14:55:18Z</time>
      </trkpt>
      <trkpt lat="48.7359770" lon="13.7047450">
        <ele>642.2</ele>
        <time>2019-08-06T14:55:19Z</time>
      </trkpt>
      <trkpt lat="48.7359830" lon="13.7048050">
        <ele>642.2</ele>
        <time>2019-08-06T14:55:20Z</time>
      </trkpt>
      <trkpt lat="48.7359900" lon="13.7048670">
        <ele>642.4</ele>
        <time>2019-08-06T14:55:21Z</time>
      </trkpt>
      <trkpt lat="48.7359970" lon="13.7049270">
        <ele>642.4</ele>
        <time>2019-08-06T14:55:22Z</time>
      </trkpt>
      <trkpt lat="48.7360040" lon="13.7049870">
        <ele>642.6</ele>
        <time>2019-08-06T14:55:23Z</time>
      </trkpt>
      <trkpt lat="48.7360120" lon="13.7050520">
        <ele>642.6</ele>
        <time>2019-08-06T14:55:24Z</time>
      </trkpt>
      <trkpt lat="48.7360220" lon="13.7051100">
        <ele>642.6</ele>
        <time>2019-08-06T14:55:25Z</time>
      </trkpt>
      <trkpt lat="48.7360330" lon="13.7051790">
        <ele>642.8</ele>
        <time>2019-08-06T14:55:26Z</time>
      </trkpt>
      <trkpt lat="48.7360440" lon="13.7052410">
        <ele>642.8</ele>
        <time>2019-08-06T14:55:27Z</time>
      </trkpt>
      <trkpt lat="48.7360570" lon="13.7053030">
        <ele>643.0</ele>
        <time>2019-08-06T14:55:28Z</time>
      </trkpt>
      <trkpt lat="48.7360720" lon="13.7053640">
        <ele>643.0</ele>
        <time>2019-08-06T14:55:29Z</time>
      </trkpt>
      <trkpt lat="48.7360870" lon="13.7054240">
        <ele>643.2</ele>
        <time>2019-08-06T14:55:30Z</time>
      </trkpt>
      <trkpt lat="48.7361000" lon="13.7054830">
        <ele>643.2</ele>
        <time>2019-08-06T14:55:31Z</time>
      </trkpt>
      <trkpt lat="48.7361110" lon="13.7055450">
        <ele>643.4</ele>
        <time>2019-08-06T14:55:32Z</time>
      </trkpt>
      <trkpt lat="48.7361240" lon="13.7056050">
        <ele>643.4</ele>
        <time>2019-08-06T14:55:33Z</time>
      </trkpt>
      <trkpt lat="48.7361370" lon="13.7056590">
        <ele>643.6</ele>
        <time>2019-08-06T14:55:34Z</time>
      </trkpt>
      <trkpt lat="48.7361510" lon="13.7057070">
        <ele>643.6</ele>
        <time>2019-08-06T14:55:35Z</time>
      </trkpt>
      <trkpt lat="48.7361660" lon="13.7057530">
        <ele>643.6</ele>
        <time>2019-08-06T14:55:36Z</time>
      </trkpt>
      <trkpt lat="48.7361830" lon="13.7058040">
        <ele>643.8</ele>
        <time>2019-08-06T14:55:37Z</time>
      </trkpt>
      <trkpt lat="48.7362000" lon="13.7058570">
        <ele>643.8</ele>
        <time>2019-08-06T14:55:38Z</time>
      </trkpt>
      <trkpt lat="48.7362180" lon="13.7059130">
        <ele>644.0</ele>
        <time>2019-08-06T14:55:39Z</time>
      </trkpt>
      <trkpt lat="48.7362370" lon="13.7059680">
        <ele>644.0</ele>
        <time>2019-08-06T14:55:40Z</time>
      </trkpt>
      <trkpt lat="48.7362560" lon="13.7060220">
        <ele>644.2</ele>
        <time>2019-08-06T14:55:41Z</time>
      </trkpt>
      <trkpt lat="48.7362800" lon="13.7060760">
        <ele>644.2</ele>
        <time>2019-08-06T14:55:42Z</time>
      </trkpt>
      <trkpt lat="48.7363030" lon="13.7061310">
        <ele>644.4</ele>
        <time>2019-08-06T14:55:43Z</time>
      </trkpt>
      <trkpt lat="48.7363250" lon="13.7061840">
        <ele>644.4</ele>
        <time>2019-08-06T14:55:44Z</time>
      </trkpt>
      <trkpt lat="48.7363450" lon="13.7062370">
        <ele>644.6</ele>
        <time>2019-08-06T14:55:45Z</time>
      </trkpt>
      <trkpt lat="48.7363690" lon="13.7062870">
        <ele>644.6</ele>
        <time>2019-08-06T14:55:46Z</time>
      </trkpt>
      <trkpt lat="48.7363920" lon="13.7063370">
        <ele>644.8</ele>
        <time>2019-08-06T14:55:47Z</time>
      </trkpt>
      <trkpt lat="48.7364130" lon="13.7063830">
        <ele>644.8</ele>
        <time>2019-08-06T14:55:48Z</time>
      </trkpt>
      <trkpt lat="48.7364340" lon="13.7064290">
        <ele>645.0</ele>
        <time>2019-08-06T14:55:49Z</time>
      </trkpt>
      <trkpt lat="48.7364570" lon="13.7064750">
        <ele>645.2</ele>
        <time>2019-08-06T14:55:50Z</time>
      </trkpt>
      <trkpt lat="48.7364820" lon="13.7065190">
        <ele>645.2</ele>
        <time>2019-08-06T14:55:51Z</time>
      </trkpt>
      <trkpt lat="48.7365090" lon="13.7065580">
        <ele>645.4</ele>
        <time>2019-08-06T14:55:52Z</time>
      </trkpt>
      <trkpt lat="48.7365360" lon="13.7065940">
        <ele>645.6</ele>
        <time>2019-08-06T14:55:53Z</time>
      </trkpt>
      <trkpt lat="48.7365610" lon="13.7066320">
        <ele>645.6</ele>
        <time>2019-08-06T14:55:54Z</time>
      </trkpt>
      <trkpt lat="48.7365850" lon="13.7066680">
        <ele>645.8</ele>
        <time>2019-08-06T14:55:55Z</time>
      </trkpt>
      <trkpt lat="48.7366100" lon="13.7067120">
        <ele>645.8</ele>
        <time>2019-08-06T14:55:56Z</time>
      </trkpt>
      <trkpt lat="48.7366330" lon="13.7067520">
        <ele>646.0</ele>
        <time>2019-08-06T14:55:57Z</time>
      </trkpt>
      <trkpt lat="48.7366590" lon="13.7067910">
        <ele>646.0</ele>
        <time>2019-08-06T14:55:58Z</time>
      </trkpt>
      <trkpt lat="48.7366870" lon="13.7068250">
        <ele>646.2</ele>
        <time>2019-08-06T14:55:59Z</time>
      </trkpt>
      <trkpt lat="48.7367130" lon="13.7068520">
        <ele>646.2</ele>
        <time>2019-08-06T14:56:00Z</time>
      </trkpt>
      <trkpt lat="48.7367370" lon="13.7068810">
        <ele>646.4</ele>
        <time>2019-08-06T14:56:01Z</time>
      </trkpt>
      <trkpt lat="48.7367660" lon="13.7069100">
        <ele>646.4</ele>
        <time>2019-08-06T14:56:02Z</time>
      </trkpt>
      <trkpt lat="48.7367960" lon="13.7069380">
        <ele>646.6</ele>
        <time>2019-08-06T14:56:03Z</time>
      </trkpt>
      <trkpt lat="48.7368270" lon="13.7069650">
        <ele>646.6</ele>
        <time>2019-08-06T14:56:04Z</time>
      </trkpt>
      <trkpt lat="48.7368620" lon="13.7069930">
        <ele>646.8</ele>
        <time>2019-08-06T14:56:05Z</time>
      </trkpt>
      <trkpt lat="48.7368920" lon="13.7070210">
        <ele>646.8</ele>
        <time>2019-08-06T14:56:06Z</time>
      </trkpt>
      <trkpt lat="48.7369190" lon="13.7070500">
        <ele>647.0</ele>
        <time>2019-08-06T14:56:07Z</time>
      </trkpt>
      <trkpt lat="48.7369470" lon="13.7070770">
        <ele>647.0</ele>
        <time>2019-08-06T14:56:08Z</time>
      </trkpt>
      <trkpt lat="48.7369750" lon="13.7071040">
        <ele>647.2</ele>
        <time>2019-08-06T14:56:09Z</time>
      </trkpt>
      <trkpt lat="48.7370030" lon="13.7071280">
        <ele>647.2</ele>
        <time>2019-08-06T14:56:10Z</time>
      </trkpt>
      <trkpt lat="48.7370350" lon="13.7071470">
        <ele>647.4</ele>
        <time>2019-08-06T14:56:11Z</time>
      </trkpt>
      <trkpt lat="48.7370710" lon="13.7071650">
        <ele>647.4</ele>
        <time>2019-08-06T14:56:12Z</time>
      </trkpt>
      <trkpt lat="48.7371040" lon="13.7071870">
        <ele>647.6</ele>
        <time>2019-08-06T14:56:13Z</time>
      </trkpt>
      <trkpt lat="48.7371390" lon="13.7072140">
        <ele>647.6</ele>
        <time>2019-08-06T14:56:14Z</time>
      </trkpt>
      <trkpt lat="48.7371750" lon="13.7072450">
        <ele>647.8</ele>
        <time>2019-08-06T14:56:15Z</time>
      </trkpt>
      <trkpt lat="48.7372120" lon="13.7072720">
        <ele>647.8</ele>
        <time>2019-08-06T14:56:16Z</time>
      </trkpt>
      <trkpt lat="48.7372520" lon="13.7072960">
        <ele>648.0</ele>
        <time>2019-08-06T14:56:17Z</time>
      </trkpt>
      <trkpt lat="48.7372920" lon="13.7073220">
        <ele>648.0</ele>
        <time>2019-08-06T14:56:18Z</time>
      </trkpt>
      <trkpt lat="48.7373330" lon="13.7073500">
        <ele>648.2</ele>
        <time>2019-08-06T14:56:19Z</time>
      </trkpt>
      <trkpt lat="48.7373730" lon="13.7073810">
        <ele>648.2</ele>
        <time>2019-08-06T14:56:20Z</time>
      </trkpt>
      <trkpt lat="48.7374070" lon="13.7074060">
        <ele>648.4</ele>
        <time>2019-08-06T14:56:21Z</time>
      </trkpt>
      <trkpt lat="48.7374410" lon="13.7074230">
        <ele>648.4</ele>
        <time>2019-08-06T14:56:22Z</time>
      </trkpt>
      <trkpt lat="48.7374770" lon="13.7074390">
        <ele>648.6</ele>
        <time>2019-08-06T14:56:23Z</time>
      </trkpt>
      <trkpt lat="48.7375190" lon="13.7074580">
        <ele>648.6</ele>
        <time>2019-08-06T14:56:24Z</time>
      </trkpt>
      <trkpt lat="48.7375590" lon="13.7074760">
        <ele>648.8</ele>
        <time>2019-08-06T14:56:25Z</time>
      </trkpt>
      <trkpt lat="48.7375920" lon="13.7074910">
        <ele>648.8</ele>
        <time>2019-08-06T14:56:26Z</time>
      </trkpt>
      <trkpt lat="48.7376260" lon="13.7075030">
        <ele>649.0</ele>
        <time>2019-08-06T14:56:27Z</time>
      </trkpt>
      <trkpt lat="48.7376630" lon="13.7075160">
        <ele>649.2</ele>
        <time>2019-08-06T14:56:28Z</time>
      </trkpt>
      <trkpt lat="48.7377010" lon="13.7075300">
        <ele>649.2</ele>
        <time>2019-08-06T14:56:29Z</time>
      </trkpt>
      <trkpt lat="48.7377380" lon="13.7075450">
        <ele>649.2</ele>
        <time>2019-08-06T14:56:30Z</time>
      </trkpt>
      <trkpt lat="48.7377730" lon="13.7075600">
        <ele>649.4</ele>
        <time>2019-08-06T14:56:31Z</time>
      </trkpt>
      <trkpt lat="48.7378100" lon="13.7075760">
        <ele>649.4</ele>
        <time>2019-08-06T14:56:32Z</time>
      </trkpt>
      <trkpt lat="48.7378480" lon="13.7075930">
        <ele>649.6</ele>
        <time>2019-08-06T14:56:33Z</time>
      </trkpt>
      <trkpt lat="48.7378860" lon="13.7076070">
        <ele>649.6</ele>
        <time>2019-08-06T14:56:34Z</time>
      </trkpt>
      <trkpt lat="48.7379190" lon="13.7076200">
        <ele>649.8</ele>
        <time>2019-08-06T14:56:35Z</time>
      </trkpt>
      <trkpt lat="48.7379510" lon="13.7076330">
        <ele>649.8</ele>
        <time>2019-08-06T14:56:36Z</time>
      </trkpt>
      <trkpt lat="48.7379790" lon="13.7076450">
        <ele>650.0</ele>
        <time>2019-08-06T14:56:37Z</time>
      </trkpt>
      <trkpt lat="48.7380070" lon="13.7076550">
        <ele>650.0</ele>
        <time>2019-08-06T14:56:38Z</time>
      </trkpt>
      <trkpt lat="48.7380360" lon="13.7076640">
        <ele>650.2</ele>
        <time>2019-08-06T14:56:39Z</time>
      </trkpt>
      <trkpt lat="48.7380830" lon="13.7076740">
        <ele>650.4</ele>
        <time>2019-08-06T14:56:40Z</time>
      </trkpt>
      <trkpt lat="48.7381250" lon="13.7076830">
        <ele>650.4</ele>
        <time>2019-08-06T14:56:41Z</time>
      </trkpt>
      <trkpt lat="48.7381640" lon="13.7076940">
        <ele>650.4</ele>
        <time>2019-08-06T14:56:42Z</time>
      </trkpt>
      <trkpt lat="48.7382010" lon="13.7077040">
        <ele>650.6</ele>
        <time>2019-08-06T14:56:43Z</time>
      </trkpt>
      <trkpt lat="48.7382420" lon="13.7077100">
        <ele>650.6</ele>
        <time>2019-08-06T14:56:44Z</time>
      </trkpt>
      <trkpt lat="48.7382810" lon="13.7077090">
        <ele>650.8</ele>
        <time>2019-08-06T14:56:45Z</time>
      </trkpt>
      <trkpt lat="48.7383230" lon="13.7077100">
        <ele>650.8</ele>
        <time>2019-08-06T14:56:46Z</time>
      </trkpt>
      <trkpt lat="48.7383710" lon="13.7077130">
        <ele>651.0</ele>
        <time>2019-08-06T14:56:47Z</time>
      </trkpt>
      <trkpt lat="48.7384160" lon="13.7077210">
        <ele>651.0</ele>
        <time>2019-08-06T14:56:48Z</time>
      </trkpt>
      <trkpt lat="48.7384610" lon="13.7077310">
        <ele>651.2</ele>
        <time>2019-08-06T14:56:49Z</time>
      </trkpt>
      <trkpt lat="48.7385060" lon="13.7077420">
        <ele>651.2</ele>
        <time>2019-08-06T14:56:50Z</time>
      </trkpt>
      <trkpt lat="48.7385500" lon="13.7077560">
        <ele>651.4</ele>
        <time>2019-08-06T14:56:51Z</time>
      </trkpt>
      <trkpt lat="48.7385930" lon="13.7077730">
        <ele>651.4</ele>
        <time>2019-08-06T14:56:52Z</time>
      </trkpt>
      <trkpt lat="48.7386370" lon="13.7077910">
        <ele>651.6</ele>
        <time>2019-08-06T14:56:53Z</time>
      </trkpt>
      <trkpt lat="48.7386820" lon="13.7078100">
        <ele>651.8</ele>
        <time>2019-08-06T14:56:54Z</time>
      </trkpt>
      <trkpt lat="48.7387260" lon="13.7078270">
        <ele>651.8</ele>
        <time>2019-08-06T14:56:55Z</time>
      </trkpt>
      <trkpt lat="48.7387700" lon="13.7078440">
        <ele>652.0</ele>
        <time>2019-08-06T14:56:56Z</time>
      </trkpt>
      <trkpt lat="48.7388130" lon="13.7078630">
        <ele>652.0</ele>
        <time>2019-08-06T14:56:57Z</time>
      </trkpt>
      <trkpt lat="48.7388540" lon="13.7078820">
        <ele>652.2</ele>
        <time>2019-08-06T14:56:58Z</time>
      </trkpt>
      <trkpt lat="48.7388960" lon="13.7079040">
        <ele>652.2</ele>
        <time>2019-08-06T14:56:59Z</time>
      </trkpt>
      <trkpt lat="48.7389380" lon="13.7079270">
        <ele>652.4</ele>
        <time>2019-08-06T14:57:00Z</time>
      </trkpt>
      <trkpt lat="48.7389790" lon="13.7079500">
        <ele>652.4</ele>
        <time>2019-08-06T14:57:01Z</time>
      </trkpt>
      <trkpt lat="48.7390210" lon="13.7079740">
        <ele>652.6</ele>
        <time>2019-08-06T14:57:02Z</time>
      </trkpt>
      <trkpt lat="48.7390630" lon="13.7080020">
        <ele>652.6</ele>
        <time>2019-08-06T14:57:03Z</time>
      </trkpt>
      <trkpt lat="48.7391040" lon="13.7080310">
        <ele>652.8</ele>
        <time>2019-08-06T14:57:04Z</time>
      </trkpt>
      <trkpt lat="48.7391420" lon="13.7080610">
        <ele>652.8</ele>
        <time>2019-08-06T14:57:05Z</time>
      </trkpt>
      <trkpt lat="48.7391810" lon="13.7080890">
        <ele>653.0</ele>
        <time>2019-08-06T14:57:06Z</time>
      </trkpt>
      <trkpt lat="48.7392170" lon="13.7081170">
        <ele>653.0</ele>
        <time>2019-08-06T14:57:07Z</time>
      </trkpt>
      <trkpt lat="48.7392510" lon="13.7081440">
        <ele>653.0</ele>
        <time>2019-08-06T14:57:08Z</time>
      </trkpt>
      <trkpt lat="48.7392830" lon="13.7081750">
        <ele>653.2</ele>
        <time>2019-08-06T14:57:09Z</time>
      </trkpt>
      <trkpt lat="48.7393150" lon="13.7082050">
        <ele>653.2</ele>
        <time>2019-08-06T14:57:10Z</time>
      </trkpt>
      <trkpt lat="48.7393490" lon="13.7082350">
        <ele>653.4</ele>
        <time>2019-08-06T14:57:11Z</time>
      </trkpt>
      <trkpt lat="48.7393840" lon="13.7082670">
        <ele>653.4</ele>
        <time>2019-08-06T14:57:12Z</time>
      </trkpt>
      <trkpt lat="48.7394180" lon="13.7083000">
        <ele>653.6</ele>
        <time>2019-08-06T14:57:13Z</time>
      </trkpt>
      <trkpt lat="48.7394530" lon="13.7083300">
        <ele>653.6</ele>
        <time>2019-08-06T14:57:14Z</time>
      </trkpt>
      <trkpt lat="48.7394890" lon="13.7083640">
        <ele>653.8</ele>
        <time>2019-08-06T14:57:15Z</time>
      </trkpt>
      <trkpt lat="48.7395230" lon="13.7083990">
        <ele>653.8</ele>
        <time>2019-08-06T14:57:16Z</time>
      </trkpt>
      <trkpt lat="48.7395590" lon="13.7084360">
        <ele>654.0</ele>
        <time>2019-08-06T14:57:17Z</time>
      </trkpt>
      <trkpt lat="48.7395930" lon="13.7084680">
        <ele>654.0</ele>
        <time>2019-08-06T14:57:18Z</time>
      </trkpt>
      <trkpt lat="48.7396270" lon="13.7085010">
        <ele>654.2</ele>
        <time>2019-08-06T14:57:19Z</time>
      </trkpt>
      <trkpt lat="48.7396610" lon="13.7085330">
        <ele>654.2</ele>
        <time>2019-08-06T14:57:20Z</time>
      </trkpt>
      <trkpt lat="48.7396950" lon="13.7085620">
        <ele>654.4</ele>
        <time>2019-08-06T14:57:21Z</time>
      </trkpt>
      <trkpt lat="48.7397280" lon="13.7085920">
        <ele>654.6</ele>
        <time>2019-08-06T14:57:22Z</time>
      </trkpt>
      <trkpt lat="48.7397610" lon="13.7086250">
        <ele>654.6</ele>
        <time>2019-08-06T14:57:23Z</time>
      </trkpt>
      <trkpt lat="48.7397950" lon="13.7086590">
        <ele>654.8</ele>
        <time>2019-08-06T14:57:24Z</time>
      </trkpt>
      <trkpt lat="48.7398270" lon="13.7086910">
        <ele>654.8</ele>
        <time>2019-08-06T14:57:25Z</time>
      </trkpt>
      <trkpt lat="48.7398620" lon="13.7087220">
        <ele>655.0</ele>
        <time>2019-08-06T14:57:26Z</time>
      </trkpt>
      <trkpt lat="48.7398950" lon="13.7087570">
        <ele>655.2</ele>
        <time>2019-08-06T14:57:27Z</time>
      </trkpt>
      <trkpt lat="48.7399260" lon="13.7087950">
        <ele>655.2</ele>
        <time>2019-08-06T14:57:28Z</time>
      </trkpt>
      <trkpt lat="48.7399570" lon="13.7088330">
        <ele>655.4</ele>
        <time>2019-08-06T14:57:29Z</time>
      </trkpt>
      <trkpt lat="48.7399900" lon="13.7088700">
        <ele>655.4</ele>
        <time>2019-08-06T14:57:30Z</time>
      </trkpt>
      <trkpt lat="48.7400220" lon="13.7089080">
        <ele>655.6</ele>
        <time>2019-08-06T14:57:31Z</time>
      </trkpt>
      <trkpt lat="48.7400540" lon="13.7089460">
        <ele>655.6</ele>
        <time>2019-08-06T14:57:32Z</time>
      </trkpt>
      <trkpt lat="48.7400860" lon="13.7089850">
        <ele>655.8</ele>
        <time>2019-08-06T14:57:33Z</time>
      </trkpt>
      <trkpt lat="48.7401170" lon="13.7090220">
        <ele>655.8</ele>
        <time>2019-08-06T14:57:34Z</time>
      </trkpt>
      <trkpt lat="48.7401500" lon="13.7090570">
        <ele>656.0</ele>
        <time>2019-08-06T14:57:35Z</time>
      </trkpt>
      <trkpt lat="48.7401820" lon="13.7090910">
        <ele>656.0</ele>
        <time>2019-08-06T14:57:36Z</time>
      </trkpt>
      <trkpt lat="48.7402130" lon="13.7091240">
        <ele>656.2</ele>
        <time>2019-08-06T14:57:37Z</time>
      </trkpt>
      <trkpt lat="48.7402450" lon="13.7091580">
        <ele>656.4</ele>
        <time>2019-08-06T14:57:38Z</time>
      </trkpt>
      <trkpt lat="48.7402750" lon="13.7091910">
        <ele>656.4</ele>
        <time>2019-08-06T14:57:39Z</time>
      </trkpt>
      <trkpt lat="48.7403060" lon="13.7092240">
        <ele>656.6</ele>
        <time>2019-08-06T14:57:40Z</time>
      </trkpt>
      <trkpt lat="48.7403370" lon="13.7092570">
        <ele>656.6</ele>
        <time>2019-08-06T14:57:41Z</time>
      </trkpt>
      <trkpt lat="48.7403650" lon="13.7092930">
        <ele>656.6</ele>
        <time>2019-08-06T14:57:42Z</time>
      </trkpt>
      <trkpt lat="48.7403940" lon="13.7093270">
        <ele>656.8</ele>
        <time>2019-08-06T14:57:43Z</time>
      </trkpt>
      <trkpt lat="48.7404210" lon="13.7093580">
        <ele>656.8</ele>
        <time>2019-08-06T14:57:44Z</time>
      </trkpt>
      <trkpt lat="48.7404470" lon="13.7093910">
        <ele>657.0</ele>
        <time>2019-08-06T14:57:45Z</time>
      </trkpt>
      <trkpt lat="48.7404770" lon="13.7094190">
        <ele>657.0</ele>
        <time>2019-08-06T14:57:46Z</time>
      </trkpt>
      <trkpt lat="48.7405090" lon="13.7094430">
        <ele>657.2</ele>
        <time>2019-08-06T14:57:47Z</time>
      </trkpt>
      <trkpt lat="48.7405450" lon="13.7094690">
        <ele>657.2</ele>
        <time>2019-08-06T14:57:48Z</time>
      </trkpt>
      <trkpt lat="48.7405800" lon="13.7094940">
        <ele>657.4</ele>
        <time>2019-08-06T14:57:49Z</time>
      </trkpt>
      <trkpt lat="48.7406140" lon="13.7095180">
        <ele>657.4</ele>
        <time>2019-08-06T14:57:50Z</time>
      </trkpt>
      <trkpt lat="48.7406490" lon="13.7095410">
        <ele>657.6</ele>
        <time>2019-08-06T14:57:51Z</time>
      </trkpt>
      <trkpt lat="48.7406860" lon="13.7095670">
        <ele>657.8</ele>
        <time>2019-08-06T14:57:52Z</time>
      </trkpt>
      <trkpt lat="48.7407230" lon="13.7095910">
        <ele>657.8</ele>
        <time>2019-08-06T14:57:53Z</time>
      </trkpt>
      <trkpt lat="48.7407600" lon="13.7096170">
        <ele>658.0</ele>
        <time>2019-08-06T14:57:54Z</time>
      </trkpt>
      <trkpt lat="48.7408010" lon="13.7096430">
        <ele>658.2</ele>
        <time>2019-08-06T14:57:55Z</time>
      </trkpt>
      <trkpt lat="48.7408440" lon="13.7096660">
        <ele>658.2</ele>
        <time>2019-08-06T14:57:56Z</time>
      </trkpt>
      <trkpt lat="48.7408830" lon="13.7096880">
        <ele>658.4</ele>
        <time>2019-08-06T14:57:57Z</time>
      </trkpt>
      <trkpt lat="48.7409220" lon="13.7097100">
        <ele>658.4</ele>
        <time>2019-08-06T14:57:58Z</time>
      </trkpt>
      <trkpt lat="48.7409630" lon="13.7097300">
        <ele>658.6</ele>
        <time>2019-08-06T14:57:59Z</time>
      </trkpt>
      <trkpt lat="48.7410020" lon="13.7097480">
        <ele>658.6</ele>
        <time>2019-08-06T14:58:00Z</time>
      </trkpt>
      <trkpt lat="48.7410410" lon="13.7097640">
        <ele>658.8</ele>
        <time>2019-08-06T14:58:01Z</time>
      </trkpt>
      <trkpt lat="48.7410760" lon="13.7097800">
        <ele>658.8</ele>
        <time>2019-08-06T14:58:02Z</time>
      </trkpt>
      <trkpt lat="48.7411140" lon="13.7097920">
        <ele>659.0</ele>
        <time>2019-08-06T14:58:03Z</time>
      </trkpt>
      <trkpt lat="48.7411530" lon="13.7098000">
        <ele>659.0</ele>
        <time>2019-08-06T14:58:04Z</time>
      </trkpt>
      <trkpt lat="48.7411890" lon="13.7098070">
        <ele>659.2</ele>
        <time>2019-08-06T14:58:05Z</time>
      </trkpt>
      <trkpt lat="48.7412190" lon="13.7098150">
        <ele>659.2</ele>
        <time>2019-08-06T14:58:06Z</time>
      </trkpt>
      <trkpt lat="48.7412440" lon="13.7098220">
        <ele>659.4</ele>
        <time>2019-08-06T14:58:07Z</time>
      </trkpt>
      <trkpt lat="48.7412820" lon="13.7098310">
        <ele>659.4</ele>
        <time>2019-08-06T14:58:08Z</time>
      </trkpt>
      <trkpt lat="48.7413110" lon="13.7098380">
        <ele>659.4</ele>
        <time>2019-08-06T14:58:09Z</time>
      </trkpt>
      <trkpt lat="48.7413410" lon="13.7098400">
        <ele>659.6</ele>
        <time>2019-08-06T14:58:10Z</time>
      </trkpt>
      <trkpt lat="48.7413710" lon="13.7098400">
        <ele>659.6</ele>
        <time>2019-08-06T14:58:11Z</time>
      </trkpt>
      <trkpt lat="48.7414030" lon="13.7098430">
        <ele>659.8</ele>
        <time>2019-08-06T14:58:12Z</time>
      </trkpt>
      <trkpt lat="48.7414340" lon="13.7098470">
        <ele>659.8</ele>
        <time>2019-08-06T14:58:13Z</time>
      </trkpt>
      <trkpt lat="48.7414630" lon="13.7098490">
        <ele>659.8</ele>
        <time>2019-08-06T14:58:14Z</time>
      </trkpt>
      <trkpt lat="48.7414950" lon="13.7098490">
        <ele>660.0</ele>
        <time>2019-08-06T14:58:15Z</time>
      </trkpt>
      <trkpt lat="48.7415270" lon="13.7098430">
        <ele>660.0</ele>
        <time>2019-08-06T14:58:16Z</time>
      </trkpt>
      <trkpt lat="48.7415600" lon="13.7098360">
        <ele>660.2</ele>
        <time>2019-08-06T14:58:17Z</time>
      </trkpt>
      <trkpt lat="48.7415930" lon="13.7098260">
        <ele>660.2</ele>
        <time>2019-08-06T14:58:18Z</time>
      </trkpt>
      <trkpt lat="48.7416320" lon="13.7098110">
        <ele>660.2</ele>
        <time>2019-08-06T14:58:19Z</time>
      </trkpt>
      <trkpt lat="48.7416730" lon="13.7097980">
        <ele>660.4</ele>
        <time>2019-08-06T14:58:20Z</time>
      </trkpt>
      <trkpt lat="48.7417140" lon="13.7097840">
        <ele>660.4</ele>
        <time>2019-08-06T14:58:21Z</time>
      </trkpt>
      <trkpt lat="48.7417560" lon="13.7097710">
        <ele>660.6</ele>
        <time>2019-08-06T14:58:22Z</time>
      </trkpt>
      <trkpt lat="48.7417990" lon="13.7097550">
        <ele>660.6</ele>
        <time>2019-08-06T14:58:23Z</time>
      </trkpt>
      <trkpt lat="48.7418380" lon="13.7097440">
        <ele>660.8</ele>
        <time>2019-08-06T14:58:24Z</time>
      </trkpt>
      <trkpt lat="48.7418770" lon="13.7097310">
        <ele>660.8</ele>
        <time>2019-08-06T14:58:25Z</time>
      </trkpt>
      <trkpt lat="48.7419170" lon="13.7097140">
        <ele>661.0</ele>
        <time>2019-08-06T14:58:26Z</time>
      </trkpt>
      <trkpt lat="48.7419540" lon="13.7097000">
        <ele>661.0</ele>
        <time>2019-08-06T14:58:27Z</time>
      </trkpt>
      <trkpt lat="48.7419900" lon="13.7096830">
        <ele>661.2</ele>
        <time>2019-08-06T14:58:28Z</time>
      </trkpt>
      <trkpt lat="48.7420280" lon="13.7096640">
        <ele>661.4</ele>
        <time>2019-08-06T14:58:29Z</time>
      </trkpt>
      <trkpt lat="48.7420640" lon="13.7096490">
        <ele>661.4</ele>
        <time>2019-08-06T14:58:30Z</time>
      </trkpt>
      <trkpt lat="48.7421000" lon="13.7096400">
        <ele>661.6</ele>
        <time>2019-08-06T14:58:31Z</time>
      </trkpt>
      <trkpt lat="48.7421410" lon="13.7096290">
        <ele>661.6</ele>
        <time>2019-08-06T14:58:32Z</time>
      </trkpt>
      <trkpt lat="48.7421810" lon="13.7096170">
        <ele>661.6</ele>
        <time>2019-08-06T14:58:33Z</time>
      </trkpt>
      <trkpt lat="48.7422230" lon="13.7096010">
        <ele>661.8</ele>
        <time>2019-08-06T14:58:34Z</time>
      </trkpt>
      <trkpt lat="48.7422680" lon="13.7095860">
        <ele>661.8</ele>
        <time>2019-08-06T14:58:35Z</time>
      </trkpt>
      <trkpt lat="48.7423160" lon="13.7095720">
        <ele>662.0</ele>
        <time>2019-08-06T14:58:36Z</time>
      </trkpt>
      <trkpt lat="48.7423620" lon="13.7095570">
        <ele>662.0</ele>
        <time>2019-08-06T14:58:37Z</time>
      </trkpt>
      <trkpt lat="48.7424090" lon="13.7095380">
        <ele>662.2</ele>
        <time>2019-08-06T14:58:38Z</time>
      </trkpt>
      <trkpt lat="48.7424530" lon="13.7095210">
        <ele>662.2</ele>
        <time>2019-08-06T14:58:39Z</time>
      </trkpt>
      <trkpt lat="48.7424970" lon="13.7095060">
        <ele>662.4</ele>
        <time>2019-08-06T14:58:40Z</time>
      </trkpt>
      <trkpt lat="48.7425430" lon="13.7094940">
        <ele>662.4</ele>
        <time>2019-08-06T14:58:41Z</time>
      </trkpt>
      <trkpt lat="48.7425870" lon="13.7094810">
        <ele>662.6</ele>
        <time>2019-08-06T14:58:42Z</time>
      </trkpt>
      <trkpt lat="48.7426310" lon="13.7094640">
        <ele>662.6</ele>
        <time>2019-08-06T14:58:43Z</time>
      </trkpt>
      <trkpt lat="48.7426740" lon="13.7094500">
        <ele>662.8</ele>
        <time>2019-08-06T14:58:44Z</time>
      </trkpt>
      <trkpt lat="48.7427160" lon="13.7094400">
        <ele>662.8</ele>
        <time>2019-08-06T14:58:45Z</time>
      </trkpt>
      <trkpt lat="48.7427590" lon="13.7094330">
        <ele>663.0</ele>
        <time>2019-08-06T14:58:46Z</time>
      </trkpt>
      <trkpt lat="48.7428030" lon="13.7094250">
        <ele>663.0</ele>
        <time>2019-08-06T14:58:47Z</time>
      </trkpt>
      <trkpt lat="48.7428450" lon="13.7094160">
        <ele>663.0</ele>
        <time>2019-08-06T14:58:48Z</time>
      </trkpt>
      <trkpt lat="48.7428900" lon="13.7094060">
        <ele>663.2</ele>
        <time>2019-08-06T14:58:49Z</time>
      </trkpt>
      <trkpt lat="48.7429350" lon="13.7093950">
        <ele>663.2</ele>
        <time>2019-08-06T14:58:50Z</time>
      </trkpt>
      <trkpt lat="48.7429780" lon="13.7093850">
        <ele>663.4</ele>
        <time>2019-08-06T14:58:51Z</time>
      </trkpt>
      <trkpt lat="48.7430200" lon="13.7093760">
        <ele>663.4</ele>
        <time>2019-08-06T14:58:52Z</time>
      </trkpt>
      <trkpt lat="48.7430650" lon="13.7093680">
        <ele>663.6</ele>
        <time>2019-08-06T14:58:53Z</time>
      </trkpt>
      <trkpt lat="48.7431080" lon="13.7093620">
        <ele>663.6</ele>
        <time>2019-08-06T14:58:54Z</time>
      </trkpt>
      <trkpt lat="48.7431520" lon="13.7093570">
        <ele>663.8</ele>
        <time>2019-08-06T14:58:55Z</time>
      </trkpt>
      <trkpt lat="48.7431960" lon="13.7093500">
        <ele>663.8</ele>
        <time>2019-08-06T14:58:56Z</time>
      </trkpt>
      <trkpt lat="48.7432390" lon="13.7093450">
        <ele>664.0</ele>
        <time>2019-08-06T14:58:57Z</time>
      </trkpt>
      <trkpt lat="48.7432830" lon="13.7093410">
        <ele>664.0</ele>
        <time>2019-08-06T14:58:58Z</time>
      </trkpt>
      <trkpt lat="48.7433260" lon="13.7093390">
        <ele>664.2</ele>
        <time>2019-08-06T14:58:59Z</time>
      </trkpt>
      <trkpt lat="48.7433680" lon="13.7093380">
        <ele>664.2</ele>
        <time>2019-08-06T14:59:00Z</time>
      </trkpt>
      <trkpt lat="48.7434100" lon="13.7093410">
        <ele>664.4</ele>
        <time>2019-08-06T14:59:01Z</time>
      </trkpt>
      <trkpt lat="48.7434520" lon="13.7093460">
        <ele>664.4</ele>
        <time>2019-08-06T14:59:02Z</time>
      </trkpt>
      <trkpt lat="48.7434950" lon="13.7093490">
        <ele>664.6</ele>
        <time>2019-08-06T14:59:03Z</time>
      </trkpt>
      <trkpt lat="48.7435380" lon="13.7093530">
        <ele>664.6</ele>
        <time>2019-08-06T14:59:04Z</time>
      </trkpt>
      <trkpt lat="48.7435810" lon="13.7093610">
        <ele>664.8</ele>
        <time>2019-08-06T14:59:05Z</time>
      </trkpt>
      <trkpt lat="48.7436230" lon="13.7093690">
        <ele>664.8</ele>
        <time>2019-08-06T14:59:06Z</time>
      </trkpt>
      <trkpt lat="48.7436650" lon="13.7093780">
        <ele>665.0</ele>
        <time>2019-08-06T14:59:07Z</time>
      </trkpt>
      <trkpt lat="48.7437080" lon="13.7093890">
        <ele>665.0</ele>
        <time>2019-08-06T14:59:08Z</time>
      </trkpt>
      <trkpt lat="48.7437490" lon="13.7094000">
        <ele>665.2</ele>
        <time>2019-08-06T14:59:09Z</time>
      </trkpt>
      <trkpt lat="48.7437910" lon="13.7094140">
        <ele>665.4</ele>
        <time>2019-08-06T14:59:10Z</time>
      </trkpt>
      <trkpt lat="48.7438330" lon="13.7094290">
        <ele>665.4</ele>
        <time>2019-08-06T14:59:11Z</time>
      </trkpt>
      <trkpt lat="48.7438740" lon="13.7094450">
        <ele>665.4</ele>
        <time>2019-08-06T14:59:12Z</time>
      </trkpt>
      <trkpt lat="48.7439140" lon="13.7094630">
        <ele>665.6</ele>
        <time>2019-08-06T14:59:13Z</time>
      </trkpt>
      <trkpt lat="48.7439550" lon="13.7094800">
        <ele>665.6</ele>
        <time>2019-08-06T14:59:14Z</time>
      </trkpt>
      <trkpt lat="48.7439940" lon="13.7095000">
        <ele>665.8</ele>
        <time>2019-08-06T14:59:15Z</time>
      </trkpt>
      <trkpt lat="48.7440330" lon="13.7095210">
        <ele>665.8</ele>
        <time>2019-08-06T14:59:16Z</time>
      </trkpt>
      <trkpt lat="48.7440740" lon="13.7095450">
        <ele>665.8</ele>
        <time>2019-08-06T14:59:17Z</time>
      </trkpt>
      <trkpt lat="48.7441130" lon="13.7095700">
        <ele>666.0</ele>
        <time>2019-08-06T14:59:18Z</time>
      </trkpt>
      <trkpt lat="48.7441510" lon="13.7095950">
        <ele>666.0</ele>
        <time>2019-08-06T14:59:19Z</time>
      </trkpt>
      <trkpt lat="48.7441880" lon="13.7096210">
        <ele>666.2</ele>
        <time>2019-08-06T14:59:20Z</time>
      </trkpt>
      <trkpt lat="48.7442270" lon="13.7096500">
        <ele>666.2</ele>
        <time>2019-08-06T14:59:21Z</time>
      </trkpt>
      <trkpt lat="48.7442660" lon="13.7096820">
        <ele>666.4</ele>
        <time>2019-08-06T14:59:22Z</time>
      </trkpt>
      <trkpt lat="48.7443030" lon="13.7097130">
        <ele>666.4</ele>
        <time>2019-08-06T14:59:23Z</time>
      </trkpt>
      <trkpt lat="48.7443400" lon="13.7097450">
        <ele>666.6</ele>
        <time>2019-08-06T14:59:24Z</time>
      </trkpt>
      <trkpt lat="48.7443770" lon="13.7097780">
        <ele>666.6</ele>
        <time>2019-08-06T14:59:25Z</time>
      </trkpt>
      <trkpt lat="48.7444120" lon="13.7098140">
        <ele>666.8</ele>
        <time>2019-08-06T14:59:26Z</time>
      </trkpt>
      <trkpt lat="48.7444450" lon="13.7098500">
        <ele>666.8</ele>
        <time>2019-08-06T14:59:27Z</time>
      </trkpt>
      <trkpt lat="48.7444770" lon="13.7098880">
        <ele>667.0</ele>
        <time>2019-08-06T14:59:28Z</time>
      </trkpt>
      <trkpt lat="48.7445100" lon="13.7099250">
        <ele>667.0</ele>
        <time>2019-08-06T14:59:29Z</time>
      </trkpt>
      <trkpt lat="48.7445430" lon="13.7099650">
        <ele>667.2</ele>
        <time>2019-08-06T14:59:30Z</time>
      </trkpt>
      <trkpt lat="48.7445760" lon="13.7100070">
        <ele>667.2</ele>
        <time>2019-08-06T14:59:31Z</time>
      </trkpt>
      <trkpt lat="48.7446080" lon="13.7100490">
        <ele>667.4</ele>
        <time>2019-08-06T14:59:32Z</time>
      </trkpt>
      <trkpt lat="48.7446400" lon="13.7100910">
        <ele>667.4</ele>
        <time>2019-08-06T14:59:33Z</time>
      </trkpt>
      <trkpt lat="48.7446710" lon="13.7101330">
        <ele>667.6</ele>
        <time>2019-08-06T14:59:34Z</time>
      </trkpt>
      <trkpt lat="48.7447030" lon="13.7101770">
        <ele>667.6</ele>
        <time>2019-08-06T14:59:35Z</time>
      </trkpt>
      <trkpt lat="48.7447330" lon="13.7102210">
        <ele>667.8</ele>
        <time>2019-08-06T14:59:36Z</time>
      </trkpt>
      <trkpt lat="48.7447610" lon="13.7102690">
        <ele>667.8</ele>
        <time>2019-08-06T14:59:37Z</time>
      </trkpt>
      <trkpt lat="48.7447880" lon="13.7103190">
        <ele>668.0</ele>
        <time>2019-08-06T14:59:38Z</time>
      </trkpt>
      <trkpt lat="48.7448130" lon="13.7103700">
        <ele>668.0</ele>
        <time>2019-08-06T14:59:39Z</time>
      </trkpt>
      <trkpt lat="48.7448380" lon="13.7104220">
        <ele>668.0</ele>
        <time>2019-08-06T14:59:40Z</time>
      </trkpt>
      <trkpt lat="48.7448630" lon="13.7104730">
        <ele>668.2</ele>
        <time>2019-08-06T14:59:41Z</time>
      </trkpt>
      <trkpt lat="48.7448880" lon="13.7105250">
        <ele>668.4</ele>
        <time>2019-08-06T14:59:42Z</time>
      </trkpt>
      <trkpt lat="48.7449120" lon="13.7105770">
        <ele>668.4</ele>
        <time>2019-08-06T14:59:43Z</time>
      </trkpt>
      <trkpt lat="48.7449350" lon="13.7106310">
        <ele>668.4</ele>
        <time>2019-08-06T14:59:44Z</time>
      </trkpt>
      <trkpt lat="48.7449550" lon="13.7106860">
        <ele>668.6</ele>
        <time>2019-08-06T14:59:45Z</time>
      </trkpt>
      <trkpt lat="48.7449770" lon="13.7107410">
        <ele>668.6</ele>
        <time>2019-08-06T14:59:46Z</time>
      </trkpt>
      <trkpt lat="48.7449990" lon="13.7107960">
        <ele>668.8</ele>
        <time>2019-08-06T14:59:47Z</time>
      </trkpt>
      <trkpt lat="48.7450180" lon="13.7108520">
        <ele>668.8</ele>
        <time>2019-08-06T14:59:48Z</time>
      </trkpt>
      <trkpt lat="48.7450340" lon="13.7109090">
        <ele>669.0</ele>
        <time>2019-08-06T14:59:49Z</time>
      </trkpt>
      <trkpt lat="48.7450500" lon="13.7109650">
        <ele>669.0</ele>
        <time>2019-08-06T14:59:50Z</time>
      </trkpt>
      <trkpt lat="48.7450660" lon="13.7110240">
        <ele>669.2</ele>
        <time>2019-08-06T14:59:51Z</time>
      </trkpt>
      <trkpt lat="48.7450800" lon="13.7110800">
        <ele>669.2</ele>
        <time>2019-08-06T14:59:52Z</time>
      </trkpt>
      <trkpt lat="48.7450950" lon="13.7111370">
        <ele>669.4</ele>
        <time>2019-08-06T14:59:53Z</time>
      </trkpt>
      <trkpt lat="48.7451090" lon="13.7111950">
        <ele>669.4</ele>
        <time>2019-08-06T14:59:54Z</time>
      </trkpt>
      <trkpt lat="48.7451210" lon="13.7112510">
        <ele>669.6</ele>
        <time>2019-08-06T14:59:55Z</time>
      </trkpt>
      <trkpt lat="48.7451310" lon="13.7113080">
        <ele>669.8</ele>
        <time>2019-08-06T14:59:56Z</time>
      </trkpt>
      <trkpt lat="48.7451410" lon="13.7113670">
        <ele>669.8</ele>
        <time>2019-08-06T14:59:57Z</time>
      </trkpt>
      <trkpt lat="48.7451490" lon="13.7114260">
        <ele>670.0</ele>
        <time>2019-08-06T14:59:58Z</time>
      </trkpt>
      <trkpt lat="48.7451590" lon="13.7114860">
        <ele>670.0</ele>
        <time>2019-08-06T14:59:59Z</time>
      </trkpt>
      <trkpt lat="48.7451670" lon="13.7115450">
        <ele>670.2</ele>
        <time>2019-08-06T15:00:00Z</time>
      </trkpt>
      <trkpt lat="48.7451730" lon="13.7116060">
        <ele>670.2</ele>
        <time>2019-08-06T15:00:01Z</time>
      </trkpt>
      <trkpt lat="48.7451770" lon="13.7116640">
        <ele>670.4</ele>
        <time>2019-08-06T15:00:02Z</time>
      </trkpt>
      <trkpt lat="48.7451810" lon="13.7117250">
        <ele>670.6</ele>
        <time>2019-08-06T15:00:03Z</time>
      </trkpt>
      <trkpt lat="48.7451840" lon="13.7117860">
        <ele>670.6</ele>
        <time>2019-08-06T15:00:04Z</time>
      </trkpt>
      <trkpt lat="48.7451880" lon="13.7118460">
        <ele>670.8</ele>
        <time>2019-08-06T15:00:05Z</time>
      </trkpt>
      <trkpt lat="48.7451920" lon="13.7119070">
        <ele>670.8</ele>
        <time>2019-08-06T15:00:06Z</time>
      </trkpt>
      <trkpt lat="48.7451940" lon="13.7119680">
        <ele>671.0</ele>
        <time>2019-08-06T15:00:07Z</time>
      </trkpt>
      <trkpt lat="48.7451950" lon="13.7120290">
        <ele>671.0</ele>
        <time>2019-08-06T15:00:08Z</time>
      </trkpt>
      <trkpt lat="48.7451950" lon="13.7120910">
        <ele>671.2</ele>
        <time>2019-08-06T15:00:09Z</time>
      </trkpt>
      <trkpt lat="48.7451940" lon="13.7121510">
        <ele>671.4</ele>
        <time>2019-08-06T15:00:10Z</time>
      </trkpt>
      <trkpt lat="48.7451910" lon="13.7122120">
        <ele>671.4</ele>
        <time>2019-08-06T15:00:11Z</time>
      </trkpt>
      <trkpt lat="48.7451880" lon="13.7122720">
        <ele>671.4</ele>
        <time>2019-08-06T15:00:12Z</time>
      </trkpt>
      <trkpt lat="48.7451860" lon="13.7123320">
        <ele>671.6</ele>
        <time>2019-08-06T15:00:13Z</time>
      </trkpt>
      <trkpt lat="48.7451820" lon="13.7123920">
        <ele>671.8</ele>
        <time>2019-08-06T15:00:14Z</time>
      </trkpt>
      <trkpt lat="48.7451770" lon="13.7124510">
        <ele>671.8</ele>
        <time>2019-08-06T15:00:15Z</time>
      </trkpt>
      <trkpt lat="48.7451720" lon="13.7125100">
        <ele>672.0</ele>
        <time>2019-08-06T15:00:16Z</time>
      </trkpt>
      <trkpt lat="48.7451650" lon="13.7125700">
        <ele>672.0</ele>
        <time>2019-08-06T15:00:17Z</time>
      </trkpt>
      <trkpt lat="48.7451560" lon="13.7126310">
        <ele>672.2</ele>
        <time>2019-08-06T15:00:18Z</time>
      </trkpt>
      <trkpt lat="48.7451470" lon="13.7126880">
        <ele>672.2</ele>
        <time>2019-08-06T15:00:19Z</time>
      </trkpt>
      <trkpt lat="48.7451370" lon="13.7127450">
        <ele>672.4</ele>
        <time>2019-08-06T15:00:20Z</time>
      </trkpt>
      <trkpt lat="48.7451280" lon="13.7128020">
        <ele>672.4</ele>
        <time>2019-08-06T15:00:21Z</time>
      </trkpt>
      <trkpt lat="48.7451200" lon="13.7128590">
        <ele>672.6</ele>
        <time>2019-08-06T15:00:22Z</time>
      </trkpt>
      <trkpt lat="48.7451120" lon="13.7129170">
        <ele>672.6</ele>
        <time>2019-08-06T15:00:23Z</time>
      </trkpt>
      <trkpt lat="48.7451010" lon="13.7129750">
        <ele>672.8</ele>
        <time>2019-08-06T15:00:24Z</time>
      </trkpt>
      <trkpt lat="48.7450900" lon="13.7130340">
        <ele>673.0</ele>
        <time>2019-08-06T15:00:25Z</time>
      </trkpt>
      <trkpt lat="48.7450790" lon="13.7130930">
        <ele>673.0</ele>
        <time>2019-08-06T15:00:26Z</time>
      </trkpt>
      <trkpt lat="48.7450670" lon="13.7131520">
        <ele>673.2</ele>
        <time>2019-08-06T15:00:27Z</time>
      </trkpt>
      <trkpt lat="48.7450570" lon="13.7132100">
        <ele>673.2</ele>
        <time>2019-08-06T15:00:28Z</time>
      </trkpt>
      <trkpt lat="48.7450470" lon="13.7132700">
        <ele>673.4</ele>
        <time>2019-08-06T15:00:29Z</time>
      </trkpt>
      <trkpt lat="48.7450370" lon="13.7133290">
        <ele>673.4</ele>
        <time>2019-08-06T15:00:30Z</time>
      </trkpt>
      <trkpt lat="48.7450250" lon="13.7133880">
        <ele>673.6</ele>
        <time>2019-08-06T15:00:31Z</time>
      </trkpt>
      <trkpt lat="48.7450120" lon="13.7134470">
        <ele>673.6</ele>
        <time>2019-08-06T15:00:32Z</time>
      </trkpt>
      <trkpt lat="48.7450010" lon="13.7135070">
        <ele>673.8</ele>
        <time>2019-08-06T15:00:33Z</time>
      </trkpt>
      <trkpt lat="48.7449900" lon="13.7135670">
        <ele>673.8</ele>
        <time>2019-08-06T15:00:34Z</time>
      </trkpt>
      <trkpt lat="48.7449790" lon="13.7136270">
        <ele>674.0</ele>
        <time>2019-08-06T15:00:35Z</time>
      </trkpt>
      <trkpt lat="48.7449670" lon="13.7136860">
        <ele>674.0</ele>
        <time>2019-08-06T15:00:36Z</time>
      </trkpt>
      <trkpt lat="48.7449570" lon="13.7137460">
        <ele>674.0</ele>
        <time>2019-08-06T15:00:37Z</time>
      </trkpt>
      <trkpt lat="48.7449460" lon="13.7138060">
        <ele>674.2</ele>
        <time>2019-08-06T15:00:38Z</time>
      </trkpt>
      <trkpt lat="48.7449350" lon="13.7138670">
        <ele>674.2</ele>
        <time>2019-08-06T15:00:39Z</time>
      </trkpt>
      <trkpt lat="48.7449240" lon="13.7139260">
        <ele>674.4</ele>
        <time>2019-08-06T15:00:40Z</time>
      </trkpt>
      <trkpt lat="48.7449140" lon="13.7139840">
        <ele>674.4</ele>
        <time>2019-08-06T15:00:41Z</time>
      </trkpt>
      <trkpt lat="48.7449020" lon="13.7140430">
        <ele>674.4</ele>
        <time>2019-08-06T15:00:42Z</time>
      </trkpt>
      <trkpt lat="48.7448910" lon="13.7141040">
        <ele>674.6</ele>
        <time>2019-08-06T15:00:43Z</time>
      </trkpt>
      <trkpt lat="48.7448810" lon="13.7141650">
        <ele>674.6</ele>
        <time>2019-08-06T15:00:44Z</time>
      </trkpt>
      <trkpt lat="48.7448690" lon="13.7142300">
        <ele>674.6</ele>
        <time>2019-08-06T15:00:45Z</time>
      </trkpt>
      <trkpt lat="48.7448570" lon="13.7142920">
        <ele>674.6</ele>
        <time>2019-08-06T15:00:46Z</time>
      </trkpt>
      <trkpt lat="48.7448450" lon="13.7143550">
        <ele>674.6</ele>
        <time>2019-08-06T15:00:47Z</time>
      </trkpt>
      <trkpt lat="48.7448340" lon="13.7144190">
        <ele>674.8</ele>
        <time>2019-08-06T15:00:48Z</time>
      </trkpt>
      <trkpt lat="48.7448220" lon="13.7144810">
        <ele>674.8</ele>
        <time>2019-08-06T15:00:49Z</time>
      </trkpt>
      <trkpt lat="48.7448100" lon="13.7145420">
        <ele>674.8</ele>
        <time>2019-08-06T15:00:50Z</time>
      </trkpt>
      <trkpt lat="48.7447970" lon="13.7146070">
        <ele>675.0</ele>
        <time>2019-08-06T15:00:51Z</time>
      </trkpt>
      <trkpt lat="48.7447860" lon="13.7146700">
        <ele>675.0</ele>
        <time>2019-08-06T15:00:52Z</time>
      </trkpt>
      <trkpt lat="48.7447740" lon="13.7147330">
        <ele>675.2</ele>
        <time>2019-08-06T15:00:53Z</time>
      </trkpt>
      <trkpt lat="48.7447620" lon="13.7147970">
        <ele>675.2</ele>
        <time>2019-08-06T15:00:54Z</time>
      </trkpt>
      <trkpt lat="48.7447510" lon="13.7148620">
        <ele>675.2</ele>
        <time>2019-08-06T15:00:55Z</time>
      </trkpt>
      <trkpt lat="48.7447400" lon="13.7149250">
        <ele>675.2</ele>
        <time>2019-08-06T15:00:56Z</time>
      </trkpt>
      <trkpt lat="48.7447290" lon="13.7149880">
        <ele>675.2</ele>
        <time>2019-08-06T15:00:57Z</time>
      </trkpt>
      <trkpt lat="48.7447170" lon="13.7150490">
        <ele>675.2</ele>
        <time>2019-08-06T15:00:58Z</time>
      </trkpt>
      <trkpt lat="48.7447060" lon="13.7151110">
        <ele>675.4</ele>
        <time>2019-08-06T15:00:59Z</time>
      </trkpt>
      <trkpt lat="48.7446960" lon="13.7151710">
        <ele>675.4</ele>
        <time>2019-08-06T15:01:00Z</time>
      </trkpt>
      <trkpt lat="48.7446860" lon="13.7152300">
        <ele>675.4</ele>
        <time>2019-08-06T15:01:01Z</time>
      </trkpt>
      <trkpt lat="48.7446760" lon="13.7152890">
        <ele>675.4</ele>
        <time>2019-08-06T15:01:02Z</time>
      </trkpt>
      <trkpt lat="48.7446660" lon="13.7153470">
        <ele>675.4</ele>
        <time>2019-08-06T15:01:03Z</time>
      </trkpt>
      <trkpt lat="48.7446570" lon="13.7154080">
        <ele>675.4</ele>
        <time>2019-08-06T15:01:04Z</time>
      </trkpt>
      <trkpt lat="48.7446500" lon="13.7154710">
        <ele>675.4</ele>
        <time>2019-08-06T15:01:05Z</time>
      </trkpt>
      <trkpt lat="48.7446450" lon="13.7155330">
        <ele>675.6</ele>
        <time>2019-08-06T15:01:06Z</time>
      </trkpt>
      <trkpt lat="48.7446410" lon="13.7155940">
        <ele>675.6</ele>
        <time>2019-08-06T15:01:07Z</time>
      </trkpt>
      <trkpt lat="48.7446370" lon="13.7156560">
        <ele>675.6</ele>
        <time>2019-08-06T15:01:08Z</time>
      </trkpt>
      <trkpt lat="48.7446340" lon="13.7157160">
        <ele>675.6</ele>
        <time>2019-08-06T15:01:09Z</time>
      </trkpt>
      <trkpt lat="48.7446310" lon="13.7157770">
        <ele>675.6</ele>
        <time>2019-08-06T15:01:10Z</time>
      </trkpt>
      <trkpt lat="48.7446290" lon="13.7158370">
        <ele>675.6</ele>
        <time>2019-08-06T15:01:11Z</time>
      </trkpt>
      <trkpt lat="48.7446260" lon="13.7158950">
        <ele>675.6</ele>
        <time>2019-08-06T15:01:12Z</time>
      </trkpt>
      <trkpt lat="48.7446250" lon="13.7159490">
        <ele>675.8</ele>
        <time>2019-08-06T15:01:13Z</time>
      </trkpt>
      <trkpt lat="48.7446250" lon="13.7159960">
        <ele>675.8</ele>
        <time>2019-08-06T15:01:14Z</time>
      </trkpt>
      <trkpt lat="48.7446270" lon="13.7160360">
        <ele>675.8</ele>
        <time>2019-08-06T15:01:15Z</time>
      </trkpt>
      <trkpt lat="48.7446280" lon="13.7160700">
        <ele>675.8</ele>
        <time>2019-08-06T15:01:16Z</time>
      </trkpt>
      <trkpt lat="48.7446280" lon="13.7161040">
        <ele>676.2</ele>
        <time>2019-08-06T15:01:17Z</time>
      </trkpt>
      <trkpt lat="48.7446290" lon="13.7161360">
        <ele>676.2</ele>
        <time>2019-08-06T15:01:18Z</time>
      </trkpt>
      <trkpt lat="48.7446300" lon="13.7161680">
        <ele>676.2</ele>
        <time>2019-08-06T15:01:19Z</time>
      </trkpt>
      <trkpt lat="48.7446330" lon="13.7162000">
        <ele>676.4</ele>
        <time>2019-08-06T15:01:20Z</time>
      </trkpt>
      <trkpt lat="48.7446370" lon="13.7162330">
        <ele>676.4</ele>
        <time>2019-08-06T15:01:21Z</time>
      </trkpt>
      <trkpt lat="48.7446430" lon="13.7162720">
        <ele>676.4</ele>
        <time>2019-08-06T15:01:22Z</time>
      </trkpt>
      <trkpt lat="48.7446500" lon="13.7163180">
        <ele>676.2</ele>
        <time>2019-08-06T15:01:23Z</time>
      </trkpt>
      <trkpt lat="48.7446540" lon="13.7163690">
        <ele>676.2</ele>
        <time>2019-08-06T15:01:24Z</time>
      </trkpt>
      <trkpt lat="48.7446560" lon="13.7164250">
        <ele>676.2</ele>
        <time>2019-08-06T15:01:25Z</time>
      </trkpt>
      <trkpt lat="48.7446620" lon="13.7164810">
        <ele>676.0</ele>
        <time>2019-08-06T15:01:26Z</time>
      </trkpt>
      <trkpt lat="48.7446690" lon="13.7165380">
        <ele>676.0</ele>
        <time>2019-08-06T15:01:27Z</time>
      </trkpt>
      <trkpt lat="48.7446770" lon="13.7165940">
        <ele>676.0</ele>
        <time>2019-08-06T15:01:28Z</time>
      </trkpt>
      <trkpt lat="48.7446860" lon="13.7166540">
        <ele>676.0</ele>
        <time>2019-08-06T15:01:29Z</time>
      </trkpt>
      <trkpt lat="48.7446970" lon="13.7167120">
        <ele>676.0</ele>
        <time>2019-08-06T15:01:30Z</time>
      </trkpt>
      <trkpt lat="48.7447100" lon="13.7167690">
        <ele>676.0</ele>
        <time>2019-08-06T15:01:31Z</time>
      </trkpt>
      <trkpt lat="48.7447240" lon="13.7168280">
        <ele>676.0</ele>
        <time>2019-08-06T15:01:32Z</time>
      </trkpt>
      <trkpt lat="48.7447400" lon="13.7168880">
        <ele>676.0</ele>
        <time>2019-08-06T15:01:33Z</time>
      </trkpt>
      <trkpt lat="48.7447600" lon="13.7169450">
        <ele>676.0</ele>
        <time>2019-08-06T15:01:34Z</time>
      </trkpt>
      <trkpt lat="48.7447780" lon="13.7170010">
        <ele>676.0</ele>
        <time>2019-08-06T15:01:35Z</time>
      </trkpt>
      <trkpt lat="48.7447940" lon="13.7170560">
        <ele>676.0</ele>
        <time>2019-08-06T15:01:36Z</time>
      </trkpt>
      <trkpt lat="48.7448090" lon="13.7171100">
        <ele>676.0</ele>
        <time>2019-08-06T15:01:37Z</time>
      </trkpt>
      <trkpt lat="48.7448240" lon="13.7171650">
        <ele>676.0</ele>
        <time>2019-08-06T15:01:38Z</time>
      </trkpt>
      <trkpt lat="48.7448410" lon="13.7172210">
        <ele>676.0</ele>
        <time>2019-08-06T15:01:39Z</time>
      </trkpt>
      <trkpt lat="48.7448560" lon="13.7172740">
        <ele>676.0</ele>
        <time>2019-08-06T15:01:40Z</time>
      </trkpt>
      <trkpt lat="48.7448740" lon="13.7173280">
        <ele>676.0</ele>
        <time>2019-08-06T15:01:41Z</time>
      </trkpt>
      <trkpt lat="48.7448910" lon="13.7173810">
        <ele>676.0</ele>
        <time>2019-08-06T15:01:42Z</time>
      </trkpt>
      <trkpt lat="48.7449080" lon="13.7174360">
        <ele>676.0</ele>
        <time>2019-08-06T15:01:43Z</time>
      </trkpt>
      <trkpt lat="48.7449270" lon="13.7174890">
        <ele>676.0</ele>
        <time>2019-08-06T15:01:44Z</time>
      </trkpt>
      <trkpt lat="48.7449490" lon="13.7175390">
        <ele>676.2</ele>
        <time>2019-08-06T15:01:45Z</time>
      </trkpt>
      <trkpt lat="48.7449730" lon="13.7175870">
        <ele>676.2</ele>
        <time>2019-08-06T15:01:46Z</time>
      </trkpt>
      <trkpt lat="48.7449990" lon="13.7176340">
        <ele>676.2</ele>
        <time>2019-08-06T15:01:47Z</time>
      </trkpt>
      <trkpt lat="48.7450270" lon="13.7176790">
        <ele>676.2</ele>
        <time>2019-08-06T15:01:48Z</time>
      </trkpt>
      <trkpt lat="48.7450530" lon="13.7177270">
        <ele>676.2</ele>
        <time>2019-08-06T15:01:49Z</time>
      </trkpt>
      <trkpt lat="48.7450790" lon="13.7177750">
        <ele>676.2</ele>
        <time>2019-08-06T15:01:50Z</time>
      </trkpt>
      <trkpt lat="48.7451080" lon="13.7178200">
        <ele>676.4</ele>
        <time>2019-08-06T15:01:51Z</time>
      </trkpt>
      <trkpt lat="48.7451360" lon="13.7178630">
        <ele>676.4</ele>
        <time>2019-08-06T15:01:52Z</time>
      </trkpt>
      <trkpt lat="48.7451650" lon="13.7179060">
        <ele>676.4</ele>
        <time>2019-08-06T15:01:53Z</time>
      </trkpt>
      <trkpt lat="48.7451940" lon="13.7179500">
        <ele>676.4</ele>
        <time>2019-08-06T15:01:54Z</time>
      </trkpt>
      <trkpt lat="48.7452230" lon="13.7179950">
        <ele>676.6</ele>
        <time>2019-08-06T15:01:55Z</time>
      </trkpt>
      <trkpt lat="48.7452510" lon="13.7180380">
        <ele>676.6</ele>
        <time>2019-08-06T15:01:56Z</time>
      </trkpt>
      <trkpt lat="48.7452810" lon="13.7180820">
        <ele>676.6</ele>
        <time>2019-08-06T15:01:57Z</time>
      </trkpt>
      <trkpt lat="48.7453090" lon="13.7181250">
        <ele>676.6</ele>
        <time>2019-08-06T15:01:58Z</time>
      </trkpt>
      <trkpt lat="48.7453370" lon="13.7181650">
        <ele>676.8</ele>
        <time>2019-08-06T15:01:59Z</time>
      </trkpt>
      <trkpt lat="48.7453650" lon="13.7182030">
        <ele>676.8</ele>
        <time>2019-08-06T15:02:00Z</time>
      </trkpt>
      <trkpt lat="48.7453890" lon="13.7182430">
        <ele>676.8</ele>
        <time>2019-08-06T15:02:01Z</time>
      </trkpt>
      <trkpt lat="48.7454150" lon="13.7182840">
        <ele>676.8</ele>
        <time>2019-08-06T15:02:02Z</time>
      </trkpt>
      <trkpt lat="48.7454400" lon="13.7183280">
        <ele>677.0</ele>
        <time>2019-08-06T15:02:03Z</time>
      </trkpt>
      <trkpt lat="48.7454640" lon="13.7183710">
        <ele>677.0</ele>
        <time>2019-08-06T15:02:04Z</time>
      </trkpt>
      <trkpt lat="48.7454850" lon="13.7184150">
        <ele>677.0</ele>
        <time>2019-08-06T15:02:05Z</time>
      </trkpt>
      <trkpt lat="48.7455080" lon="13.7184610">
        <ele>677.0</ele>
        <time>2019-08-06T15:02:06Z</time>
      </trkpt>
      <trkpt lat="48.7455310" lon="13.7185030">
        <ele>677.2</ele>
        <time>2019-08-06T15:02:07Z</time>
      </trkpt>
      <trkpt lat="48.7455550" lon="13.7185410">
        <ele>677.2</ele>
        <time>2019-08-06T15:02:08Z</time>
      </trkpt>
      <trkpt lat="48.7455770" lon="13.7185790">
        <ele>677.2</ele>
        <time>2019-08-06T15:02:09Z</time>
      </trkpt>
      <trkpt lat="48.7455960" lon="13.7186190">
        <ele>677.2</ele>
        <time>2019-08-06T15:02:10Z</time>
      </trkpt>
      <trkpt lat="48.7456150" lon="13.7186630">
        <ele>677.4</ele>
        <time>2019-08-06T15:02:11Z</time>
      </trkpt>
      <trkpt lat="48.7456350" lon="13.7187050">
        <ele>677.4</ele>
        <time>2019-08-06T15:02:12Z</time>
      </trkpt>
      <trkpt lat="48.7456550" lon="13.7187510">
        <ele>677.6</ele>
        <time>2019-08-06T15:02:13Z</time>
      </trkpt>
      <trkpt lat="48.7456750" lon="13.7188000">
        <ele>677.6</ele>
        <time>2019-08-06T15:02:14Z</time>
      </trkpt>
      <trkpt lat="48.7456930" lon="13.7188440">
        <ele>677.8</ele>
        <time>2019-08-06T15:02:15Z</time>
      </trkpt>
      <trkpt lat="48.7457100" lon="13.7188850">
        <ele>677.8</ele>
        <time>2019-08-06T15:02:16Z</time>
      </trkpt>
      <trkpt lat="48.7457290" lon="13.7189220">
        <ele>677.8</ele>
        <time>2019-08-06T15:02:17Z</time>
      </trkpt>
      <trkpt lat="48.7457530" lon="13.7189580">
        <ele>678.0</ele>
        <time>2019-08-06T15:02:18Z</time>
      </trkpt>
      <trkpt lat="48.7457760" lon="13.7189970">
        <ele>678.0</ele>
        <time>2019-08-06T15:02:19Z</time>
      </trkpt>
      <trkpt lat="48.7457970" lon="13.7190380">
        <ele>678.0</ele>
        <time>2019-08-06T15:02:20Z</time>
      </trkpt>
      <trkpt lat="48.7458150" lon="13.7190810">
        <ele>678.2</ele>
        <time>2019-08-06T15:02:21Z</time>
      </trkpt>
      <trkpt lat="48.7458310" lon="13.7191250">
        <ele>678.2</ele>
        <time>2019-08-06T15:02:22Z</time>
      </trkpt>
      <trkpt lat="48.7458470" lon="13.7191710">
        <ele>678.2</ele>
        <time>2019-08-06T15:02:23Z</time>
      </trkpt>
      <trkpt lat="48.7458630" lon="13.7192180">
        <ele>678.4</ele>
        <time>2019-08-06T15:02:24Z</time>
      </trkpt>
      <trkpt lat="48.7458820" lon="13.7192680">
        <ele>678.4</ele>
        <time>2019-08-06T15:02:25Z</time>
      </trkpt>
      <trkpt lat="48.7459010" lon="13.7193190">
        <ele>678.4</ele>
        <time>2019-08-06T15:02:26Z</time>
      </trkpt>
      <trkpt lat="48.7459180" lon="13.7193760">
        <ele>678.4</ele>
        <time>2019-08-06T15:02:27Z</time>
      </trkpt>
      <trkpt lat="48.7459370" lon="13.7194330">
        <ele>678.6</ele>
        <time>2019-08-06T15:02:28Z</time>
      </trkpt>
      <trkpt lat="48.7459590" lon="13.7194870">
        <ele>678.6</ele>
        <time>2019-08-06T15:02:29Z</time>
      </trkpt>
      <trkpt lat="48.7459790" lon="13.7195440">
        <ele>678.6</ele>
        <time>2019-08-06T15:02:30Z</time>
      </trkpt>
      <trkpt lat="48.7459980" lon="13.7196050">
        <ele>678.6</ele>
        <time>2019-08-06T15:02:31Z</time>
      </trkpt>
      <trkpt lat="48.7460160" lon="13.7196650">
        <ele>678.8</ele>
        <time>2019-08-06T15:02:32Z</time>
      </trkpt>
      <trkpt lat="48.7460310" lon="13.7197250">
        <ele>678.8</ele>
        <time>2019-08-06T15:02:33Z</time>
      </trkpt>
      <trkpt lat="48.7460460" lon="13.7197890">
        <ele>678.8</ele>
        <time>2019-08-06T15:02:34Z</time>
      </trkpt>
      <trkpt lat="48.7460560" lon="13.7198520">
        <ele>678.8</ele>
        <time>2019-08-06T15:02:35Z</time>
      </trkpt>
      <trkpt lat="48.7460640" lon="13.7199170">
        <ele>679.0</ele>
        <time>2019-08-06T15:02:36Z</time>
      </trkpt>
      <trkpt lat="48.7460750" lon="13.7199820">
        <ele>679.0</ele>
        <time>2019-08-06T15:02:37Z</time>
      </trkpt>
      <trkpt lat="48.7460870" lon="13.7200500">
        <ele>679.0</ele>
        <time>2019-08-06T15:02:38Z</time>
      </trkpt>
      <trkpt lat="48.7460930" lon="13.7201150">
        <ele>679.0</ele>
        <time>2019-08-06T15:02:39Z</time>
      </trkpt>
      <trkpt lat="48.7460950" lon="13.7201820">
        <ele>679.2</ele>
        <time>2019-08-06T15:02:40Z</time>
      </trkpt>
      <trkpt lat="48.7460970" lon="13.7202470">
        <ele>679.2</ele>
        <time>2019-08-06T15:02:41Z</time>
      </trkpt>
      <trkpt lat="48.7460970" lon="13.7203110">
        <ele>679.2</ele>
        <time>2019-08-06T15:02:42Z</time>
      </trkpt>
      <trkpt lat="48.7460990" lon="13.7203730">
        <ele>679.2</ele>
        <time>2019-08-06T15:02:43Z</time>
      </trkpt>
      <trkpt lat="48.7461020" lon="13.7204340">
        <ele>679.4</ele>
        <time>2019-08-06T15:02:44Z</time>
      </trkpt>
      <trkpt lat="48.7461030" lon="13.7204940">
        <ele>679.4</ele>
        <time>2019-08-06T15:02:45Z</time>
      </trkpt>
      <trkpt lat="48.7461020" lon="13.7205550">
        <ele>679.4</ele>
        <time>2019-08-06T15:02:46Z</time>
      </trkpt>
      <trkpt lat="48.7461000" lon="13.7206140">
        <ele>679.6</ele>
        <time>2019-08-06T15:02:47Z</time>
      </trkpt>
      <trkpt lat="48.7460970" lon="13.7206730">
        <ele>679.6</ele>
        <time>2019-08-06T15:02:48Z</time>
      </trkpt>
      <trkpt lat="48.7460940" lon="13.7207320">
        <ele>679.6</ele>
        <time>2019-08-06T15:02:49Z</time>
      </trkpt>
      <trkpt lat="48.7460890" lon="13.7207900">
        <ele>679.8</ele>
        <time>2019-08-06T15:02:50Z</time>
      </trkpt>
      <trkpt lat="48.7460850" lon="13.7208470">
        <ele>679.8</ele>
        <time>2019-08-06T15:02:51Z</time>
      </trkpt>
      <trkpt lat="48.7460800" lon="13.7209050">
        <ele>679.8</ele>
        <time>2019-08-06T15:02:52Z</time>
      </trkpt>
      <trkpt lat="48.7460720" lon="13.7209650">
        <ele>680.0</ele>
        <time>2019-08-06T15:02:53Z</time>
      </trkpt>
      <trkpt lat="48.7460650" lon="13.7210230">
        <ele>680.0</ele>
        <time>2019-08-06T15:02:54Z</time>
      </trkpt>
      <trkpt lat="48.7460560" lon="13.7210790">
        <ele>680.2</ele>
        <time>2019-08-06T15:02:55Z</time>
      </trkpt>
      <trkpt lat="48.7460460" lon="13.7211350">
        <ele>680.2</ele>
        <time>2019-08-06T15:02:56Z</time>
      </trkpt>
      <trkpt lat="48.7460340" lon="13.7211910">
        <ele>680.2</ele>
        <time>2019-08-06T15:02:57Z</time>
      </trkpt>
      <trkpt lat="48.7460240" lon="13.7212480">
        <ele>680.4</ele>
        <time>2019-08-06T15:02:58Z</time>
      </trkpt>
      <trkpt lat="48.7460120" lon="13.7213030">
        <ele>680.4</ele>
        <time>2019-08-06T15:02:59Z</time>
      </trkpt>
      <trkpt lat="48.7459990" lon="13.7213580">
        <ele>680.6</ele>
        <time>2019-08-06T15:03:00Z</time>
      </trkpt>
      <trkpt lat="48.7459850" lon="13.7214110">
        <ele>680.6</ele>
        <time>2019-08-06T15:03:01Z</time>
      </trkpt>
      <trkpt lat="48.7459710" lon="13.7214670">
        <ele>680.6</ele>
        <time>2019-08-06T15:03:02Z</time>
      </trkpt>
      <trkpt lat="48.7459560" lon="13.7215220">
        <ele>680.6</ele>
        <time>2019-08-06T15:03:03Z</time>
      </trkpt>
      <trkpt lat="48.7459390" lon="13.7215750">
        <ele>680.8</ele>
        <time>2019-08-06T15:03:04Z</time>
      </trkpt>
      <trkpt lat="48.7459220" lon="13.7216290">
        <ele>680.8</ele>
        <time>2019-08-06T15:03:05Z</time>
      </trkpt>
      <trkpt lat="48.7459060" lon="13.7216820">
        <ele>680.8</ele>
        <time>2019-08-06T15:03:06Z</time>
      </trkpt>
      <trkpt lat="48.7458890" lon="13.7217320">
        <ele>681.0</ele>
        <time>2019-08-06T15:03:07Z</time>
      </trkpt>
      <trkpt lat="48.7458720" lon="13.7217810">
        <ele>681.0</ele>
        <time>2019-08-06T15:03:08Z</time>
      </trkpt>
      <trkpt lat="48.7458550" lon="13.7218290">
        <ele>681.2</ele>
        <time>2019-08-06T15:03:09Z</time>
      </trkpt>
      <trkpt lat="48.7458370" lon="13.7218770">
        <ele>681.2</ele>
        <time>2019-08-06T15:03:10Z</time>
      </trkpt>
      <trkpt lat="48.7458180" lon="13.7219250">
        <ele>681.2</ele>
        <time>2019-08-06T15:03:11Z</time>
      </trkpt>
      <trkpt lat="48.7457980" lon="13.7219710">
        <ele>681.4</ele>
        <time>2019-08-06T15:03:12Z</time>
      </trkpt>
      <trkpt lat="48.7457760" lon="13.7220160">
        <ele>681.4</ele>
        <time>2019-08-06T15:03:13Z</time>
      </trkpt>
      <trkpt lat="48.7457520" lon="13.7220630">
        <ele>681.4</ele>
        <time>2019-08-06T15:03:14Z</time>
      </trkpt>
      <trkpt lat="48.7457290" lon="13.7221090">
        <ele>681.6</ele>
        <time>2019-08-06T15:03:15Z</time>
      </trkpt>
      <trkpt lat="48.7457060" lon="13.7221560">
        <ele>681.6</ele>
        <time>2019-08-06T15:03:16Z</time>
      </trkpt>
      <trkpt lat="48.7456820" lon="13.7222020">
        <ele>681.6</ele>
        <time>2019-08-06T15:03:17Z</time>
      </trkpt>
      <trkpt lat="48.7456570" lon="13.7222460">
        <ele>681.6</ele>
        <time>2019-08-06T15:03:18Z</time>
      </trkpt>
      <trkpt lat="48.7456330" lon="13.7222870">
        <ele>681.8</ele>
        <time>2019-08-06T15:03:19Z</time>
      </trkpt>
      <trkpt lat="48.7456070" lon="13.7223290">
        <ele>681.8</ele>
        <time>2019-08-06T15:03:20Z</time>
      </trkpt>
      <trkpt lat="48.7455820" lon="13.7223700">
        <ele>681.8</ele>
        <time>2019-08-06T15:03:21Z</time>
      </trkpt>
      <trkpt lat="48.7455550" lon="13.7224120">
        <ele>682.0</ele>
        <time>2019-08-06T15:03:22Z</time>
      </trkpt>
      <trkpt lat="48.7455290" lon="13.7224530">
        <ele>682.0</ele>
        <time>2019-08-06T15:03:23Z</time>
      </trkpt>
      <trkpt lat="48.7455020" lon="13.7224920">
        <ele>682.2</ele>
        <time>2019-08-06T15:03:24Z</time>
      </trkpt>
      <trkpt lat="48.7454750" lon="13.7225310">
        <ele>682.2</ele>
        <time>2019-08-06T15:03:25Z</time>
      </trkpt>
      <trkpt lat="48.7454470" lon="13.7225660">
        <ele>682.2</ele>
        <time>2019-08-06T15:03:26Z</time>
      </trkpt>
      <trkpt lat="48.7454210" lon="13.7225990">
        <ele>682.2</ele>
        <time>2019-08-06T15:03:27Z</time>
      </trkpt>
      <trkpt lat="48.7453940" lon="13.7226320">
        <ele>682.4</ele>
        <time>2019-08-06T15:03:28Z</time>
      </trkpt>
      <trkpt lat="48.7453650" lon="13.7226630">
        <ele>682.4</ele>
        <time>2019-08-06T15:03:29Z</time>
      </trkpt>
      <trkpt lat="48.7453380" lon="13.7226990">
        <ele>682.4</ele>
        <time>2019-08-06T15:03:30Z</time>
      </trkpt>
      <trkpt lat="48.7453110" lon="13.7227330">
        <ele>682.6</ele>
        <time>2019-08-06T15:03:31Z</time>
      </trkpt>
      <trkpt lat="48.7452830" lon="13.7227660">
        <ele>682.6</ele>
        <time>2019-08-06T15:03:32Z</time>
      </trkpt>
      <trkpt lat="48.7452530" lon="13.7227960">
        <ele>682.6</ele>
        <time>2019-08-06T15:03:33Z</time>
      </trkpt>
      <trkpt lat="48.7452250" lon="13.7228280">
        <ele>682.6</ele>
        <time>2019-08-06T15:03:34Z</time>
      </trkpt>
      <trkpt lat="48.7451990" lon="13.7228590">
        <ele>682.8</ele>
        <time>2019-08-06T15:03:35Z</time>
      </trkpt>
      <trkpt lat="48.7451690" lon="13.7228860">
        <ele>682.8</ele>
        <time>2019-08-06T15:03:36Z</time>
      </trkpt>
      <trkpt lat="48.7451400" lon="13.7229110">
        <ele>682.8</ele>
        <time>2019-08-06T15:03:37Z</time>
      </trkpt>
      <trkpt lat="48.7451100" lon="13.7229390">
        <ele>683.0</ele>
        <time>2019-08-06T15:03:38Z</time>
      </trkpt>
      <trkpt lat="48.7450820" lon="13.7229660">
        <ele>683.0</ele>
        <time>2019-08-06T15:03:39Z</time>
      </trkpt>
      <trkpt lat="48.7450570" lon="13.7229900">
        <ele>683.0</ele>
        <time>2019-08-06T15:03:40Z</time>
      </trkpt>
      <trkpt lat="48.7450320" lon="13.7230130">
        <ele>683.2</ele>
        <time>2019-08-06T15:03:41Z</time>
      </trkpt>
      <trkpt lat="48.7450050" lon="13.7230360">
        <ele>683.2</ele>
        <time>2019-08-06T15:03:42Z</time>
      </trkpt>
      <trkpt lat="48.7449760" lon="13.7230630">
        <ele>683.2</ele>
        <time>2019-08-06T15:03:43Z</time>
      </trkpt>
      <trkpt lat="48.7449460" lon="13.7230870">
        <ele>683.4</ele>
        <time>2019-08-06T15:03:44Z</time>
      </trkpt>
      <trkpt lat="48.7449180" lon="13.7231110">
        <ele>683.4</ele>
        <time>2019-08-06T15:03:45Z</time>
      </trkpt>
      <trkpt lat="48.7448890" lon="13.7231370">
        <ele>683.6</ele>
        <time>2019-08-06T15:03:46Z</time>
      </trkpt>
      <trkpt lat="48.7448590" lon="13.7231600">
        <ele>683.6</ele>
        <time>2019-08-06T15:03:47Z</time>
      </trkpt>
      <trkpt lat="48.7448300" lon="13.7231830">
        <ele>683.6</ele>
        <time>2019-08-06T15:03:48Z</time>
      </trkpt>
      <trkpt lat="48.7448030" lon="13.7232110">
        <ele>683.6</ele>
        <time>2019-08-06T15:03:49Z</time>
      </trkpt>
      <trkpt lat="48.7447770" lon="13.7232390">
        <ele>683.8</ele>
        <time>2019-08-06T15:03:50Z</time>
      </trkpt>
      <trkpt lat="48.7447480" lon="13.7232650">
        <ele>683.8</ele>
        <time>2019-08-06T15:03:51Z</time>
      </trkpt>
      <trkpt lat="48.7447140" lon="13.7232870">
        <ele>683.8</ele>
        <time>2019-08-06T15:03:52Z</time>
      </trkpt>
      <trkpt lat="48.7446810" lon="13.7233100">
        <ele>684.0</ele>
        <time>2019-08-06T15:03:53Z</time>
      </trkpt>
      <trkpt lat="48.7446500" lon="13.7233330">
        <ele>684.0</ele>
        <time>2019-08-06T15:03:54Z</time>
      </trkpt>
      <trkpt lat="48.7446170" lon="13.7233610">
        <ele>684.0</ele>
        <time>2019-08-06T15:03:55Z</time>
      </trkpt>
      <trkpt lat="48.7445830" lon="13.7233940">
        <ele>684.2</ele>
        <time>2019-08-06T15:03:56Z</time>
      </trkpt>
      <trkpt lat="48.7445470" lon="13.7234240">
        <ele>684.2</ele>
        <time>2019-08-06T15:03:57Z</time>
      </trkpt>
      <trkpt lat="48.7445080" lon="13.7234580">
        <ele>684.2</ele>
        <time>2019-08-06T15:03:58Z</time>
      </trkpt>
      <trkpt lat="48.7444730" lon="13.7234940">
        <ele>684.2</ele>
        <time>2019-08-06T15:03:59Z</time>
      </trkpt>
      <trkpt lat="48.7444380" lon="13.7235290">
        <ele>684.4</ele>
        <time>2019-08-06T15:04:00Z</time>
      </trkpt>
      <trkpt lat="48.7444040" lon="13.7235600">
        <ele>684.4</ele>
        <time>2019-08-06T15:04:01Z</time>
      </trkpt>
      <trkpt lat="48.7443740" lon="13.7235940">
        <ele>684.4</ele>
        <time>2019-08-06T15:04:02Z</time>
      </trkpt>
      <trkpt lat="48.7443460" lon="13.7236300">
        <ele>684.6</ele>
        <time>2019-08-06T15:04:03Z</time>
      </trkpt>
      <trkpt lat="48.7443180" lon="13.7236650">
        <ele>684.6</ele>
        <time>2019-08-06T15:04:04Z</time>
      </trkpt>
      <trkpt lat="48.7442900" lon="13.7236970">
        <ele>684.6</ele>
        <time>2019-08-06T15:04:05Z</time>
      </trkpt>
      <trkpt lat="48.7442640" lon="13.7237280">
        <ele>684.8</ele>
        <time>2019-08-06T15:04:06Z</time>
      </trkpt>
      <trkpt lat="48.7442400" lon="13.7237540">
        <ele>684.8</ele>
        <time>2019-08-06T15:04:07Z</time>
      </trkpt>
      <trkpt lat="48.7442180" lon="13.7237760">
        <ele>685.0</ele>
        <time>2019-08-06T15:04:08Z</time>
      </trkpt>
      <trkpt lat="48.7441950" lon="13.7238020">
        <ele>685.0</ele>
        <time>2019-08-06T15:04:09Z</time>
      </trkpt>
      <trkpt lat="48.7441700" lon="13.7238330">
        <ele>685.0</ele>
        <time>2019-08-06T15:04:10Z</time>
      </trkpt>
      <trkpt lat="48.7441430" lon="13.7238670">
        <ele>685.0</ele>
        <time>2019-08-06T15:04:11Z</time>
      </trkpt>
      <trkpt lat="48.7441130" lon="13.7239060">
        <ele>685.0</ele>
        <time>2019-08-06T15:04:12Z</time>
      </trkpt>
      <trkpt lat="48.7440850" lon="13.7239470">
        <ele>685.2</ele>
        <time>2019-08-06T15:04:13Z</time>
      </trkpt>
      <trkpt lat="48.7440590" lon="13.7239890">
        <ele>685.2</ele>
        <time>2019-08-06T15:04:14Z</time>
      </trkpt>
      <trkpt lat="48.7440330" lon="13.7240350">
        <ele>685.2</ele>
        <time>2019-08-06T15:04:15Z</time>
      </trkpt>
      <trkpt lat="48.7440090" lon="13.7240820">
        <ele>685.4</ele>
        <time>2019-08-06T15:04:16Z</time>
      </trkpt>
      <trkpt lat="48.7439850" lon="13.7241270">
        <ele>685.4</ele>
        <time>2019-08-06T15:04:17Z</time>
      </trkpt>
      <trkpt lat="48.7439590" lon="13.7241720">
        <ele>685.6</ele>
        <time>2019-08-06T15:04:18Z</time>
      </trkpt>
      <trkpt lat="48.7439320" lon="13.7242190">
        <ele>685.6</ele>
        <time>2019-08-06T15:04:19Z</time>
      </trkpt>
      <trkpt lat="48.7439080" lon="13.7242620">
        <ele>685.6</ele>
        <time>2019-08-06T15:04:20Z</time>
      </trkpt>
      <trkpt lat="48.7438870" lon="13.7243080">
        <ele>685.8</ele>
        <time>2019-08-06T15:04:21Z</time>
      </trkpt>
      <trkpt lat="48.7438640" lon="13.7243630">
        <ele>685.8</ele>
        <time>2019-08-06T15:04:22Z</time>
      </trkpt>
      <trkpt lat="48.7438450" lon="13.7244150">
        <ele>685.8</ele>
        <time>2019-08-06T15:04:23Z</time>
      </trkpt>
      <trkpt lat="48.7438260" lon="13.7244650">
        <ele>685.8</ele>
        <time>2019-08-06T15:04:24Z</time>
      </trkpt>
      <trkpt lat="48.7438070" lon="13.7245170">
        <ele>686.0</ele>
        <time>2019-08-06T15:04:25Z</time>
      </trkpt>
      <trkpt lat="48.7437890" lon="13.7245720">
        <ele>686.0</ele>
        <time>2019-08-06T15:04:26Z</time>
      </trkpt>
      <trkpt lat="48.7437730" lon="13.7246270">
        <ele>686.2</ele>
        <time>2019-08-06T15:04:27Z</time>
      </trkpt>
      <trkpt lat="48.7437580" lon="13.7246830">
        <ele>686.2</ele>
        <time>2019-08-06T15:04:28Z</time>
      </trkpt>
      <trkpt lat="48.7437420" lon="13.7247380">
        <ele>686.2</ele>
        <time>2019-08-06T15:04:29Z</time>
      </trkpt>
      <trkpt lat="48.7437270" lon="13.7247910">
        <ele>686.4</ele>
        <time>2019-08-06T15:04:30Z</time>
      </trkpt>
      <trkpt lat="48.7437140" lon="13.7248460">
        <ele>686.4</ele>
        <time>2019-08-06T15:04:31Z</time>
      </trkpt>
      <trkpt lat="48.7437030" lon="13.7249000">
        <ele>686.6</ele>
        <time>2019-08-06T15:04:32Z</time>
      </trkpt>
      <trkpt lat="48.7436930" lon="13.7249560">
        <ele>686.6</ele>
        <time>2019-08-06T15:04:33Z</time>
      </trkpt>
      <trkpt lat="48.7436830" lon="13.7250100">
        <ele>686.6</ele>
        <time>2019-08-06T15:04:34Z</time>
      </trkpt>
      <trkpt lat="48.7436730" lon="13.7250650">
        <ele>686.8</ele>
        <time>2019-08-06T15:04:35Z</time>
      </trkpt>
      <trkpt lat="48.7436630" lon="13.7251230">
        <ele>686.8</ele>
        <time>2019-08-06T15:04:36Z</time>
      </trkpt>
      <trkpt lat="48.7436530" lon="13.7251800">
        <ele>686.8</ele>
        <time>2019-08-06T15:04:37Z</time>
      </trkpt>
      <trkpt lat="48.7436460" lon="13.7252390">
        <ele>687.0</ele>
        <time>2019-08-06T15:04:38Z</time>
      </trkpt>
      <trkpt lat="48.7436410" lon="13.7252970">
        <ele>687.0</ele>
        <time>2019-08-06T15:04:39Z</time>
      </trkpt>
      <trkpt lat="48.7436360" lon="13.7253560">
        <ele>687.0</ele>
        <time>2019-08-06T15:04:40Z</time>
      </trkpt>
      <trkpt lat="48.7436330" lon="13.7254140">
        <ele>687.2</ele>
        <time>2019-08-06T15:04:41Z</time>
      </trkpt>
      <trkpt lat="48.7436300" lon="13.7254710">
        <ele>687.2</ele>
        <time>2019-08-06T15:04:42Z</time>
      </trkpt>
      <trkpt lat="48.7436270" lon="13.7255310">
        <ele>687.2</ele>
        <time>2019-08-06T15:04:43Z</time>
      </trkpt>
      <trkpt lat="48.7436230" lon="13.7255890">
        <ele>687.4</ele>
        <time>2019-08-06T15:04:44Z</time>
      </trkpt>
      <trkpt lat="48.7436200" lon="13.7256470">
        <ele>687.4</ele>
        <time>2019-08-06T15:04:45Z</time>
      </trkpt>
      <trkpt lat="48.7436200" lon="13.7257080">
        <ele>687.4</ele>
        <time>2019-08-06T15:04:46Z</time>
      </trkpt>
      <trkpt lat="48.7436210" lon="13.7257660">
        <ele>687.6</ele>
        <time>2019-08-06T15:04:47Z</time>
      </trkpt>
      <trkpt lat="48.7436200" lon="13.7258240">
        <ele>687.6</ele>
        <time>2019-08-06T15:04:48Z</time>
      </trkpt>
      <trkpt lat="48.7436220" lon="13.7258820">
        <ele>687.8</ele>
        <time>2019-08-06T15:04:49Z</time>
      </trkpt>
      <trkpt lat="48.7436260" lon="13.7259410">
        <ele>687.8</ele>
        <time>2019-08-06T15:04:50Z</time>
      </trkpt>
      <trkpt lat="48.7436290" lon="13.7260000">
        <ele>687.8</ele>
        <time>2019-08-06T15:04:51Z</time>
      </trkpt>
      <trkpt lat="48.7436340" lon="13.7260610">
        <ele>688.0</ele>
        <time>2019-08-06T15:04:52Z</time>
      </trkpt>
      <trkpt lat="48.7436400" lon="13.7261200">
        <ele>688.0</ele>
        <time>2019-08-06T15:04:53Z</time>
      </trkpt>
      <trkpt lat="48.7436450" lon="13.7261790">
        <ele>688.2</ele>
        <time>2019-08-06T15:04:54Z</time>
      </trkpt>
      <trkpt lat="48.7436520" lon="13.7262390">
        <ele>688.2</ele>
        <time>2019-08-06T15:04:55Z</time>
      </trkpt>
      <trkpt lat="48.7436580" lon="13.7262980">
        <ele>688.2</ele>
        <time>2019-08-06T15:04:56Z</time>
      </trkpt>
      <trkpt lat="48.7436650" lon="13.7263570">
        <ele>688.4</ele>
        <time>2019-08-06T15:04:57Z</time>
      </trkpt>
      <trkpt lat="48.7436730" lon="13.7264180">
        <ele>688.4</ele>
        <time>2019-08-06T15:04:58Z</time>
      </trkpt>
      <trkpt lat="48.7436810" lon="13.7264780">
        <ele>688.6</ele>
        <time>2019-08-06T15:04:59Z</time>
      </trkpt>
      <trkpt lat="48.7436910" lon="13.7265380">
        <ele>688.6</ele>
        <time>2019-08-06T15:05:00Z</time>
      </trkpt>
      <trkpt lat="48.7437010" lon="13.7265980">
        <ele>688.6</ele>
        <time>2019-08-06T15:05:01Z</time>
      </trkpt>
      <trkpt lat="48.7437110" lon="13.7266570">
        <ele>688.6</ele>
        <time>2019-08-06T15:05:02Z</time>
      </trkpt>
      <trkpt lat="48.7437200" lon="13.7267140">
        <ele>688.8</ele>
        <time>2019-08-06T15:05:03Z</time>
      </trkpt>
      <trkpt lat="48.7437270" lon="13.7267690">
        <ele>688.8</ele>
        <time>2019-08-06T15:05:04Z</time>
      </trkpt>
      <trkpt lat="48.7437360" lon="13.7268210">
        <ele>688.8</ele>
        <time>2019-08-06T15:05:05Z</time>
      </trkpt>
      <trkpt lat="48.7437460" lon="13.7268750">
        <ele>688.8</ele>
        <time>2019-08-06T15:05:06Z</time>
      </trkpt>
      <trkpt lat="48.7437540" lon="13.7269310">
        <ele>689.0</ele>
        <time>2019-08-06T15:05:07Z</time>
      </trkpt>
      <trkpt lat="48.7437620" lon="13.7269870">
        <ele>689.0</ele>
        <time>2019-08-06T15:05:08Z</time>
      </trkpt>
      <trkpt lat="48.7437710" lon="13.7270430">
        <ele>689.0</ele>
        <time>2019-08-06T15:05:09Z</time>
      </trkpt>
      <trkpt lat="48.7437810" lon="13.7271000">
        <ele>689.2</ele>
        <time>2019-08-06T15:05:10Z</time>
      </trkpt>
      <trkpt lat="48.7437910" lon="13.7271570">
        <ele>689.2</ele>
        <time>2019-08-06T15:05:11Z</time>
      </trkpt>
      <trkpt lat="48.7438030" lon="13.7272150">
        <ele>689.4</ele>
        <time>2019-08-06T15:05:12Z</time>
      </trkpt>
      <trkpt lat="48.7438140" lon="13.7272740">
        <ele>689.4</ele>
        <time>2019-08-06T15:05:13Z</time>
      </trkpt>
      <trkpt lat="48.7438230" lon="13.7273330">
        <ele>689.4</ele>
        <time>2019-08-06T15:05:14Z</time>
      </trkpt>
      <trkpt lat="48.7438340" lon="13.7273910">
        <ele>689.4</ele>
        <time>2019-08-06T15:05:15Z</time>
      </trkpt>
      <trkpt lat="48.7438430" lon="13.7274470">
        <ele>689.4</ele>
        <time>2019-08-06T15:05:16Z</time>
      </trkpt>
      <trkpt lat="48.7438500" lon="13.7275060">
        <ele>689.6</ele>
        <time>2019-08-06T15:05:17Z</time>
      </trkpt>
      <trkpt lat="48.7438580" lon="13.7275660">
        <ele>689.6</ele>
        <time>2019-08-06T15:05:18Z</time>
      </trkpt>
      <trkpt lat="48.7438660" lon="13.7276270">
        <ele>689.6</ele>
        <time>2019-08-06T15:05:19Z</time>
      </trkpt>
      <trkpt lat="48.7438740" lon="13.7276900">
        <ele>689.8</ele>
        <time>2019-08-06T15:05:20Z</time>
      </trkpt>
      <trkpt lat="48.7438840" lon="13.7277530">
        <ele>689.8</ele>
        <time>2019-08-06T15:05:21Z</time>
      </trkpt>
      <trkpt lat="48.7438940" lon="13.7278140">
        <ele>689.8</ele>
        <time>2019-08-06T15:05:22Z</time>
      </trkpt>
      <trkpt lat="48.7439040" lon="13.7278760">
        <ele>690.0</ele>
        <time>2019-08-06T15:05:23Z</time>
      </trkpt>
      <trkpt lat="48.7439130" lon="13.7279380">
        <ele>690.0</ele>
        <time>2019-08-06T15:05:24Z</time>
      </trkpt>
      <trkpt lat="48.7439220" lon="13.7280000">
        <ele>690.0</ele>
        <time>2019-08-06T15:05:25Z</time>
      </trkpt>
      <trkpt lat="48.7439310" lon="13.7280630">
        <ele>690.2</ele>
        <time>2019-08-06T15:05:26Z</time>
      </trkpt>
      <trkpt lat="48.7439410" lon="13.7281270">
        <ele>690.2</ele>
        <time>2019-08-06T15:05:27Z</time>
      </trkpt>
      <trkpt lat="48.7439510" lon="13.7281900">
        <ele>690.4</ele>
        <time>2019-08-06T15:05:28Z</time>
      </trkpt>
      <trkpt lat="48.7439600" lon="13.7282530">
        <ele>690.4</ele>
        <time>2019-08-06T15:05:29Z</time>
      </trkpt>
      <trkpt lat="48.7439690" lon="13.7283150">
        <ele>690.4</ele>
        <time>2019-08-06T15:05:30Z</time>
      </trkpt>
      <trkpt lat="48.7439770" lon="13.7283770">
        <ele>690.6</ele>
        <time>2019-08-06T15:05:31Z</time>
      </trkpt>
      <trkpt lat="48.7439860" lon="13.7284400">
        <ele>690.6</ele>
        <time>2019-08-06T15:05:32Z</time>
      </trkpt>
      <trkpt lat="48.7439950" lon="13.7285030">
        <ele>690.6</ele>
        <time>2019-08-06T15:05:33Z</time>
      </trkpt>
      <trkpt lat="48.7440060" lon="13.7285670">
        <ele>690.8</ele>
        <time>2019-08-06T15:05:34Z</time>
      </trkpt>
      <trkpt lat="48.7440160" lon="13.7286310">
        <ele>690.8</ele>
        <time>2019-08-06T15:05:35Z</time>
      </trkpt>
      <trkpt lat="48.7440280" lon="13.7286950">
        <ele>691.0</ele>
        <time>2019-08-06T15:05:36Z</time>
      </trkpt>
      <trkpt lat="48.7440390" lon="13.7287590">
        <ele>691.0</ele>
        <time>2019-08-06T15:05:37Z</time>
      </trkpt>
      <trkpt lat="48.7440480" lon="13.7288220">
        <ele>691.0</ele>
        <time>2019-08-06T15:05:38Z</time>
      </trkpt>
      <trkpt lat="48.7440550" lon="13.7288860">
        <ele>691.2</ele>
        <time>2019-08-06T15:05:39Z</time>
      </trkpt>
      <trkpt lat="48.7440640" lon="13.7289500">
        <ele>691.2</ele>
        <time>2019-08-06T15:05:40Z</time>
      </trkpt>
      <trkpt lat="48.7440730" lon="13.7290140">
        <ele>691.4</ele>
        <time>2019-08-06T15:05:41Z</time>
      </trkpt>
      <trkpt lat="48.7440830" lon="13.7290780">
        <ele>691.4</ele>
        <time>2019-08-06T15:05:42Z</time>
      </trkpt>
      <trkpt lat="48.7440930" lon="13.7291420">
        <ele>691.6</ele>
        <time>2019-08-06T15:05:43Z</time>
      </trkpt>
      <trkpt lat="48.7441020" lon="13.7292080">
        <ele>691.6</ele>
        <time>2019-08-06T15:05:44Z</time>
      </trkpt>
      <trkpt lat="48.7441120" lon="13.7292730">
        <ele>691.6</ele>
        <time>2019-08-06T15:05:45Z</time>
      </trkpt>
      <trkpt lat="48.7441230" lon="13.7293410">
        <ele>691.8</ele>
        <time>2019-08-06T15:05:46Z</time>
      </trkpt>
      <trkpt lat="48.7441330" lon="13.7294070">
        <ele>691.8</ele>
        <time>2019-08-06T15:05:47Z</time>
      </trkpt>
      <trkpt lat="48.7441430" lon="13.7294730">
        <ele>691.8</ele>
        <time>2019-08-06T15:05:48Z</time>
      </trkpt>
      <trkpt lat="48.7441560" lon="13.7295390">
        <ele>691.8</ele>
        <time>2019-08-06T15:05:49Z</time>
      </trkpt>
      <trkpt lat="48.7441710" lon="13.7296040">
        <ele>692.0</ele>
        <time>2019-08-06T15:05:50Z</time>
      </trkpt>
      <trkpt lat="48.7441860" lon="13.7296680">
        <ele>692.0</ele>
        <time>2019-08-06T15:05:51Z</time>
      </trkpt>
      <trkpt lat="48.7442010" lon="13.7297300">
        <ele>692.0</ele>
        <time>2019-08-06T15:05:52Z</time>
      </trkpt>
      <trkpt lat="48.7442180" lon="13.7297910">
        <ele>692.2</ele>
        <time>2019-08-06T15:05:53Z</time>
      </trkpt>
      <trkpt lat="48.7442370" lon="13.7298530">
        <ele>692.2</ele>
        <time>2019-08-06T15:05:54Z</time>
      </trkpt>
      <trkpt lat="48.7442550" lon="13.7299120">
        <ele>692.2</ele>
        <time>2019-08-06T15:05:55Z</time>
      </trkpt>
      <trkpt lat="48.7442730" lon="13.7299720">
        <ele>692.4</ele>
        <time>2019-08-06T15:05:56Z</time>
      </trkpt>
      <trkpt lat="48.7442930" lon="13.7300340">
        <ele>692.4</ele>
        <time>2019-08-06T15:05:57Z</time>
      </trkpt>
      <trkpt lat="48.7443120" lon="13.7300960">
        <ele>692.4</ele>
        <time>2019-08-06T15:05:58Z</time>
      </trkpt>
      <trkpt lat="48.7443320" lon="13.7301550">
        <ele>692.6</ele>
        <time>2019-08-06T15:05:59Z</time>
      </trkpt>
      <trkpt lat="48.7443550" lon="13.7302130">
        <ele>692.6</ele>
        <time>2019-08-06T15:06:00Z</time>
      </trkpt>
      <trkpt lat="48.7443810" lon="13.7302680">
        <ele>692.6</ele>
        <time>2019-08-06T15:06:01Z</time>
      </trkpt>
      <trkpt lat="48.7444030" lon="13.7303240">
        <ele>692.8</ele>
        <time>2019-08-06T15:06:02Z</time>
      </trkpt>
      <trkpt lat="48.7444210" lon="13.7303820">
        <ele>692.8</ele>
        <time>2019-08-06T15:06:03Z</time>
      </trkpt>
      <trkpt lat="48.7444370" lon="13.7304430">
        <ele>692.8</ele>
        <time>2019-08-06T15:06:04Z</time>
      </trkpt>
      <trkpt lat="48.7444530" lon="13.7305060">
        <ele>693.0</ele>
        <time>2019-08-06T15:06:05Z</time>
      </trkpt>
      <trkpt lat="48.7444700" lon="13.7305680">
        <ele>693.0</ele>
        <time>2019-08-06T15:06:06Z</time>
      </trkpt>
      <trkpt lat="48.7444900" lon="13.7306290">
        <ele>693.2</ele>
        <time>2019-08-06T15:06:07Z</time>
      </trkpt>
      <trkpt lat="48.7445110" lon="13.7306890">
        <ele>693.2</ele>
        <time>2019-08-06T15:06:08Z</time>
      </trkpt>
      <trkpt lat="48.7445320" lon="13.7307490">
        <ele>693.4</ele>
        <time>2019-08-06T15:06:09Z</time>
      </trkpt>
      <trkpt lat="48.7445530" lon="13.7308090">
        <ele>693.4</ele>
        <time>2019-08-06T15:06:10Z</time>
      </trkpt>
      <trkpt lat="48.7445730" lon="13.7308700">
        <ele>693.6</ele>
        <time>2019-08-06T15:06:11Z</time>
      </trkpt>
      <trkpt lat="48.7445930" lon="13.7309350">
        <ele>693.6</ele>
        <time>2019-08-06T15:06:12Z</time>
      </trkpt>
      <trkpt lat="48.7446110" lon="13.7310000">
        <ele>693.6</ele>
        <time>2019-08-06T15:06:13Z</time>
      </trkpt>
      <trkpt lat="48.7446280" lon="13.7310650">
        <ele>693.8</ele>
        <time>2019-08-06T15:06:14Z</time>
      </trkpt>
      <trkpt lat="48.7446450" lon="13.7311280">
        <ele>693.8</ele>
        <time>2019-08-06T15:06:15Z</time>
      </trkpt>
      <trkpt lat="48.7446630" lon="13.7311910">
        <ele>694.0</ele>
        <time>2019-08-06T15:06:16Z</time>
      </trkpt>
      <trkpt lat="48.7446790" lon="13.7312540">
        <ele>694.0</ele>
        <time>2019-08-06T15:06:17Z</time>
      </trkpt>
      <trkpt lat="48.7446910" lon="13.7313180">
        <ele>694.0</ele>
        <time>2019-08-06T15:06:18Z</time>
      </trkpt>
      <trkpt lat="48.7447030" lon="13.7313840">
        <ele>694.2</ele>
        <time>2019-08-06T15:06:19Z</time>
      </trkpt>
      <trkpt lat="48.7447140" lon="13.7314490">
        <ele>694.2</ele>
        <time>2019-08-06T15:06:20Z</time>
      </trkpt>
      <trkpt lat="48.7447240" lon="13.7315180">
        <ele>694.4</ele>
        <time>2019-08-06T15:06:21Z</time>
      </trkpt>
      <trkpt lat="48.7447340" lon="13.7315840">
        <ele>694.4</ele>
        <time>2019-08-06T15:06:22Z</time>
      </trkpt>
      <trkpt lat="48.7447420" lon="13.7316510">
        <ele>694.6</ele>
        <time>2019-08-06T15:06:23Z</time>
      </trkpt>
      <trkpt lat="48.7447500" lon="13.7317200">
        <ele>694.6</ele>
        <time>2019-08-06T15:06:24Z</time>
      </trkpt>
      <trkpt lat="48.7447560" lon="13.7317890">
        <ele>694.6</ele>
        <time>2019-08-06T15:06:25Z</time>
      </trkpt>
      <trkpt lat="48.7447610" lon="13.7318580">
        <ele>694.8</ele>
        <time>2019-08-06T15:06:26Z</time>
      </trkpt>
      <trkpt lat="48.7447660" lon="13.7319270">
        <ele>694.8</ele>
        <time>2019-08-06T15:06:27Z</time>
      </trkpt>
      <trkpt lat="48.7447690" lon="13.7319950">
        <ele>694.8</ele>
        <time>2019-08-06T15:06:28Z</time>
      </trkpt>
      <trkpt lat="48.7447700" lon="13.7320650">
        <ele>695.0</ele>
        <time>2019-08-06T15:06:29Z</time>
      </trkpt>
      <trkpt lat="48.7447700" lon="13.7321330">
        <ele>695.0</ele>
        <time>2019-08-06T15:06:30Z</time>
      </trkpt>
      <trkpt lat="48.7447690" lon="13.7322010">
        <ele>695.2</ele>
        <time>2019-08-06T15:06:31Z</time>
      </trkpt>
      <trkpt lat="48.7447700" lon="13.7322680">
        <ele>695.2</ele>
        <time>2019-08-06T15:06:32Z</time>
      </trkpt>
      <trkpt lat="48.7447700" lon="13.7323380">
        <ele>695.2</ele>
        <time>2019-08-06T15:06:33Z</time>
      </trkpt>
      <trkpt lat="48.7447680" lon="13.7324070">
        <ele>695.4</ele>
        <time>2019-08-06T15:06:34Z</time>
      </trkpt>
      <trkpt lat="48.7447660" lon="13.7324760">
        <ele>695.4</ele>
        <time>2019-08-06T15:06:35Z</time>
      </trkpt>
      <trkpt lat="48.7447620" lon="13.7325450">
        <ele>695.6</ele>
        <time>2019-08-06T15:06:36Z</time>
      </trkpt>
      <trkpt lat="48.7447570" lon="13.7326130">
        <ele>695.6</ele>
        <time>2019-08-06T15:06:37Z</time>
      </trkpt>
      <trkpt lat="48.7447550" lon="13.7326800">
        <ele>695.6</ele>
        <time>2019-08-06T15:06:38Z</time>
      </trkpt>
      <trkpt lat="48.7447520" lon="13.7327470">
        <ele>695.8</ele>
        <time>2019-08-06T15:06:39Z</time>
      </trkpt>
      <trkpt lat="48.7447490" lon="13.7328150">
        <ele>695.8</ele>
        <time>2019-08-06T15:06:40Z</time>
      </trkpt>
      <trkpt lat="48.7447460" lon="13.7328850">
        <ele>695.8</ele>
        <time>2019-08-06T15:06:41Z</time>
      </trkpt>
      <trkpt lat="48.7447450" lon="13.7329550">
        <ele>696.0</ele>
        <time>2019-08-06T15:06:42Z</time>
      </trkpt>
      <trkpt lat="48.7447450" lon="13.7330250">
        <ele>696.2</ele>
        <time>2019-08-06T15:06:43Z</time>
      </trkpt>
      <trkpt lat="48.7447450" lon="13.7330950">
        <ele>696.2</ele>
        <time>2019-08-06T15:06:44Z</time>
      </trkpt>
      <trkpt lat="48.7447470" lon="13.7331630">
        <ele>696.2</ele>
        <time>2019-08-06T15:06:45Z</time>
      </trkpt>
      <trkpt lat="48.7447490" lon="13.7332310">
        <ele>696.4</ele>
        <time>2019-08-06T15:06:46Z</time>
      </trkpt>
      <trkpt lat="48.7447530" lon="13.7333000">
        <ele>696.4</ele>
        <time>2019-08-06T15:06:47Z</time>
      </trkpt>
      <trkpt lat="48.7447580" lon="13.7333680">
        <ele>696.4</ele>
        <time>2019-08-06T15:06:48Z</time>
      </trkpt>
      <trkpt lat="48.7447630" lon="13.7334360">
        <ele>696.4</ele>
        <time>2019-08-06T15:06:49Z</time>
      </trkpt>
      <trkpt lat="48.7447700" lon="13.7335050">
        <ele>696.4</ele>
        <time>2019-08-06T15:06:50Z</time>
      </trkpt>
      <trkpt lat="48.7447770" lon="13.7335730">
        <ele>696.4</ele>
        <time>2019-08-06T15:06:51Z</time>
      </trkpt>
      <trkpt lat="48.7447860" lon="13.7336400">
        <ele>696.6</ele>
        <time>2019-08-06T15:06:52Z</time>
      </trkpt>
      <trkpt lat="48.7447980" lon="13.7337080">
        <ele>696.6</ele>
        <time>2019-08-06T15:06:53Z</time>
      </trkpt>
      <trkpt lat="48.7448100" lon="13.7337740">
        <ele>696.6</ele>
        <time>2019-08-06T15:06:54Z</time>
      </trkpt>
      <trkpt lat="48.7448240" lon="13.7338410">
        <ele>696.6</ele>
        <time>2019-08-06T15:06:55Z</time>
      </trkpt>
      <trkpt lat="48.7448390" lon="13.7339050">
        <ele>696.8</ele>
        <time>2019-08-06T15:06:56Z</time>
      </trkpt>
      <trkpt lat="48.7448540" lon="13.7339680">
        <ele>696.8</ele>
        <time>2019-08-06T15:06:57Z</time>
      </trkpt>
      <trkpt lat="48.7448690" lon="13.7340310">
        <ele>697.0</ele>
        <time>2019-08-06T15:06:58Z</time>
      </trkpt>
      <trkpt lat="48.7448860" lon="13.7340950">
        <ele>697.0</ele>
        <time>2019-08-06T15:06:59Z</time>
      </trkpt>
      <trkpt lat="48.7449030" lon="13.7341590">
        <ele>697.0</ele>
        <time>2019-08-06T15:07:00Z</time>
      </trkpt>
      <trkpt lat="48.7449200" lon="13.7342230">
        <ele>697.2</ele>
        <time>2019-08-06T15:07:01Z</time>
      </trkpt>
      <trkpt lat="48.7449400" lon="13.7342840">
        <ele>697.2</ele>
        <time>2019-08-06T15:07:02Z</time>
      </trkpt>
      <trkpt lat="48.7449600" lon="13.7343460">
        <ele>697.2</ele>
        <time>2019-08-06T15:07:03Z</time>
      </trkpt>
      <trkpt lat="48.7449820" lon="13.7344080">
        <ele>697.4</ele>
        <time>2019-08-06T15:07:04Z</time>
      </trkpt>
      <trkpt lat="48.7450040" lon="13.7344690">
        <ele>697.4</ele>
        <time>2019-08-06T15:07:05Z</time>
      </trkpt>
      <trkpt lat="48.7450280" lon="13.7345300">
        <ele>697.4</ele>
        <time>2019-08-06T15:07:06Z</time>
      </trkpt>
      <trkpt lat="48.7450520" lon="13.7345880">
        <ele>697.6</ele>
        <time>2019-08-06T15:07:07Z</time>
      </trkpt>
      <trkpt lat="48.7450770" lon="13.7346450">
        <ele>697.6</ele>
        <time>2019-08-06T15:07:08Z</time>
      </trkpt>
      <trkpt lat="48.7451040" lon="13.7347000">
        <ele>697.8</ele>
        <time>2019-08-06T15:07:09Z</time>
      </trkpt>
      <trkpt lat="48.7451310" lon="13.7347520">
        <ele>697.8</ele>
        <time>2019-08-06T15:07:10Z</time>
      </trkpt>
      <trkpt lat="48.7451610" lon="13.7348020">
        <ele>697.8</ele>
        <time>2019-08-06T15:07:11Z</time>
      </trkpt>
      <trkpt lat="48.7451910" lon="13.7348540">
        <ele>698.0</ele>
        <time>2019-08-06T15:07:12Z</time>
      </trkpt>
      <trkpt lat="48.7452200" lon="13.7349070">
        <ele>698.0</ele>
        <time>2019-08-06T15:07:13Z</time>
      </trkpt>
      <trkpt lat="48.7452510" lon="13.7349610">
        <ele>698.2</ele>
        <time>2019-08-06T15:07:14Z</time>
      </trkpt>
      <trkpt lat="48.7452820" lon="13.7350120">
        <ele>698.2</ele>
        <time>2019-08-06T15:07:15Z</time>
      </trkpt>
      <trkpt lat="48.7453160" lon="13.7350590">
        <ele>698.2</ele>
        <time>2019-08-06T15:07:16Z</time>
      </trkpt>
      <trkpt lat="48.7453490" lon="13.7351040">
        <ele>698.4</ele>
        <time>2019-08-06T15:07:17Z</time>
      </trkpt>
      <trkpt lat="48.7453850" lon="13.7351460">
        <ele>698.4</ele>
        <time>2019-08-06T15:07:18Z</time>
      </trkpt>
      <trkpt lat="48.7454220" lon="13.7351850">
        <ele>698.6</ele>
        <time>2019-08-06T15:07:19Z</time>
      </trkpt>
      <trkpt lat="48.7454600" lon="13.7352250">
        <ele>698.6</ele>
        <time>2019-08-06T15:07:20Z</time>
      </trkpt>
      <trkpt lat="48.7454980" lon="13.7352630">
        <ele>698.8</ele>
        <time>2019-08-06T15:07:21Z</time>
      </trkpt>
      <trkpt lat="48.7455330" lon="13.7352970">
        <ele>698.8</ele>
        <time>2019-08-06T15:07:22Z</time>
      </trkpt>
      <trkpt lat="48.7455680" lon="13.7353300">
        <ele>699.0</ele>
        <time>2019-08-06T15:07:23Z</time>
      </trkpt>
      <trkpt lat="48.7456020" lon="13.7353600">
        <ele>699.0</ele>
        <time>2019-08-06T15:07:24Z</time>
      </trkpt>
      <trkpt lat="48.7456360" lon="13.7353930">
        <ele>699.2</ele>
        <time>2019-08-06T15:07:25Z</time>
      </trkpt>
      <trkpt lat="48.7456730" lon="13.7354250">
        <ele>699.2</ele>
        <time>2019-08-06T15:07:26Z</time>
      </trkpt>
      <trkpt lat="48.7457100" lon="13.7354560">
        <ele>699.4</ele>
        <time>2019-08-06T15:07:27Z</time>
      </trkpt>
      <trkpt lat="48.7457460" lon="13.7354840">
        <ele>699.4</ele>
        <time>2019-08-06T15:07:28Z</time>
      </trkpt>
      <trkpt lat="48.7457840" lon="13.7355110">
        <ele>699.4</ele>
        <time>2019-08-06T15:07:29Z</time>
      </trkpt>
      <trkpt lat="48.7458240" lon="13.7355370">
        <ele>699.6</ele>
        <time>2019-08-06T15:07:30Z</time>
      </trkpt>
      <trkpt lat="48.7458630" lon="13.7355610">
        <ele>699.6</ele>
        <time>2019-08-06T15:07:31Z</time>
      </trkpt>
      <trkpt lat="48.7459030" lon="13.7355820">
        <ele>699.6</ele>
        <time>2019-08-06T15:07:32Z</time>
      </trkpt>
      <trkpt lat="48.7459440" lon="13.7356050">
        <ele>699.8</ele>
        <time>2019-08-06T15:07:33Z</time>
      </trkpt>
      <trkpt lat="48.7459830" lon="13.7356250">
        <ele>699.8</ele>
        <time>2019-08-06T15:07:34Z</time>
      </trkpt>
      <trkpt lat="48.7460240" lon="13.7356430">
        <ele>699.8</ele>
        <time>2019-08-06T15:07:35Z</time>
      </trkpt>
      <trkpt lat="48.7460620" lon="13.7356570">
        <ele>700.0</ele>
        <time>2019-08-06T15:07:36Z</time>
      </trkpt>
      <trkpt lat="48.7460960" lon="13.7356680">
        <ele>700.0</ele>
        <time>2019-08-06T15:07:37Z</time>
      </trkpt>
      <trkpt lat="48.7461310" lon="13.7356740">
        <ele>700.2</ele>
        <time>2019-08-06T15:07:38Z</time>
      </trkpt>
      <trkpt lat="48.7461670" lon="13.7356770">
        <ele>700.2</ele>
        <time>2019-08-06T15:07:39Z</time>
      </trkpt>
      <trkpt lat="48.7462020" lon="13.7356850">
        <ele>700.2</ele>
        <time>2019-08-06T15:07:40Z</time>
      </trkpt>
      <trkpt lat="48.7462430" lon="13.7356930">
        <ele>700.4</ele>
        <time>2019-08-06T15:07:41Z</time>
      </trkpt>
      <trkpt lat="48.7462870" lon="13.7356990">
        <ele>700.4</ele>
        <time>2019-08-06T15:07:42Z</time>
      </trkpt>
      <trkpt lat="48.7463260" lon="13.7357030">
        <ele>700.6</ele>
        <time>2019-08-06T15:07:43Z</time>
      </trkpt>
      <trkpt lat="48.7463640" lon="13.7357070">
        <ele>700.6</ele>
        <time>2019-08-06T15:07:44Z</time>
      </trkpt>
      <trkpt lat="48.7464060" lon="13.7357090">
        <ele>700.8</ele>
        <time>2019-08-06T15:07:45Z</time>
      </trkpt>
      <trkpt lat="48.7464520" lon="13.7357120">
        <ele>700.8</ele>
        <time>2019-08-06T15:07:46Z</time>
      </trkpt>
      <trkpt lat="48.7464970" lon="13.7357140">
        <ele>700.8</ele>
        <time>2019-08-06T15:07:47Z</time>
      </trkpt>
      <trkpt lat="48.7465410" lon="13.7357130">
        <ele>701.0</ele>
        <time>2019-08-06T15:07:48Z</time>
      </trkpt>
      <trkpt lat="48.7465860" lon="13.7357070">
        <ele>701.0</ele>
        <time>2019-08-06T15:07:49Z</time>
      </trkpt>
      <trkpt lat="48.7466350" lon="13.7357000">
        <ele>701.2</ele>
        <time>2019-08-06T15:07:50Z</time>
      </trkpt>
      <trkpt lat="48.7466830" lon="13.7356940">
        <ele>701.2</ele>
        <time>2019-08-06T15:07:51Z</time>
      </trkpt>
      <trkpt lat="48.7467300" lon="13.7356840">
        <ele>701.2</ele>
        <time>2019-08-06T15:07:52Z</time>
      </trkpt>
      <trkpt lat="48.7467730" lon="13.7356710">
        <ele>701.4</ele>
        <time>2019-08-06T15:07:53Z</time>
      </trkpt>
      <trkpt lat="48.7468200" lon="13.7356560">
        <ele>701.4</ele>
        <time>2019-08-06T15:07:54Z</time>
      </trkpt>
      <trkpt lat="48.7468670" lon="13.7356430">
        <ele>701.6</ele>
        <time>2019-08-06T15:07:55Z</time>
      </trkpt>
      <trkpt lat="48.7469140" lon="13.7356270">
        <ele>701.6</ele>
        <time>2019-08-06T15:07:56Z</time>
      </trkpt>
      <trkpt lat="48.7469620" lon="13.7356110">
        <ele>701.8</ele>
        <time>2019-08-06T15:07:57Z</time>
      </trkpt>
      <trkpt lat="48.7470090" lon="13.7355970">
        <ele>701.8</ele>
        <time>2019-08-06T15:07:58Z</time>
      </trkpt>
      <trkpt lat="48.7470540" lon="13.7355810">
        <ele>701.8</ele>
        <time>2019-08-06T15:07:59Z</time>
      </trkpt>
      <trkpt lat="48.7470960" lon="13.7355630">
        <ele>702.0</ele>
        <time>2019-08-06T15:08:00Z</time>
      </trkpt>
      <trkpt lat="48.7471410" lon="13.7355420">
        <ele>702.0</ele>
        <time>2019-08-06T15:08:01Z</time>
      </trkpt>
      <trkpt lat="48.7471870" lon="13.7355240">
        <ele>702.0</ele>
        <time>2019-08-06T15:08:02Z</time>
      </trkpt>
      <trkpt lat="48.7472340" lon="13.7355090">
        <ele>702.2</ele>
        <time>2019-08-06T15:08:03Z</time>
      </trkpt>
      <trkpt lat="48.7472800" lon="13.7354930">
        <ele>702.2</ele>
        <time>2019-08-06T15:08:04Z</time>
      </trkpt>
      <trkpt lat="48.7473270" lon="13.7354790">
        <ele>702.2</ele>
        <time>2019-08-06T15:08:05Z</time>
      </trkpt>
      <trkpt lat="48.7473730" lon="13.7354660">
        <ele>702.4</ele>
        <time>2019-08-06T15:08:06Z</time>
      </trkpt>
      <trkpt lat="48.7474190" lon="13.7354530">
        <ele>702.4</ele>
        <time>2019-08-06T15:08:07Z</time>
      </trkpt>
      <trkpt lat="48.7474640" lon="13.7354370">
        <ele>702.4</ele>
        <time>2019-08-06T15:08:08Z</time>
      </trkpt>
      <trkpt lat="48.7475070" lon="13.7354190">
        <ele>702.6</ele>
        <time>2019-08-06T15:08:09Z</time>
      </trkpt>
      <trkpt lat="48.7475540" lon="13.7354020">
        <ele>702.6</ele>
        <time>2019-08-06T15:08:10Z</time>
      </trkpt>
      <trkpt lat="48.7476010" lon="13.7353920">
        <ele>702.8</ele>
        <time>2019-08-06T15:08:11Z</time>
      </trkpt>
      <trkpt lat="48.7476460" lon="13.7353850">
        <ele>702.8</ele>
        <time>2019-08-06T15:08:12Z</time>
      </trkpt>
      <trkpt lat="48.7476890" lon="13.7353780">
        <ele>703.0</ele>
        <time>2019-08-06T15:08:13Z</time>
      </trkpt>
      <trkpt lat="48.7477330" lon="13.7353720">
        <ele>703.0</ele>
        <time>2019-08-06T15:08:14Z</time>
      </trkpt>
      <trkpt lat="48.7477740" lon="13.7353700">
        <ele>703.2</ele>
        <time>2019-08-06T15:08:15Z</time>
      </trkpt>
      <trkpt lat="48.7478150" lon="13.7353690">
        <ele>703.2</ele>
        <time>2019-08-06T15:08:16Z</time>
      </trkpt>
      <trkpt lat="48.7478560" lon="13.7353730">
        <ele>703.2</ele>
        <time>2019-08-06T15:08:17Z</time>
      </trkpt>
      <trkpt lat="48.7478960" lon="13.7353760">
        <ele>703.2</ele>
        <time>2019-08-06T15:08:18Z</time>
      </trkpt>
      <trkpt lat="48.7479380" lon="13.7353790">
        <ele>703.4</ele>
        <time>2019-08-06T15:08:19Z</time>
      </trkpt>
      <trkpt lat="48.7479810" lon="13.7353820">
        <ele>703.4</ele>
        <time>2019-08-06T15:08:20Z</time>
      </trkpt>
      <trkpt lat="48.7480220" lon="13.7353820">
        <ele>703.4</ele>
        <time>2019-08-06T15:08:21Z</time>
      </trkpt>
      <trkpt lat="48.7480620" lon="13.7353830">
        <ele>703.6</ele>
        <time>2019-08-06T15:08:22Z</time>
      </trkpt>
      <trkpt lat="48.7481020" lon="13.7353870">
        <ele>703.6</ele>
        <time>2019-08-06T15:08:23Z</time>
      </trkpt>
      <trkpt lat="48.7481410" lon="13.7353940">
        <ele>703.6</ele>
        <time>2019-08-06T15:08:24Z</time>
      </trkpt>
      <trkpt lat="48.7481850" lon="13.7354030">
        <ele>703.8</ele>
        <time>2019-08-06T15:08:25Z</time>
      </trkpt>
      <trkpt lat="48.7482300" lon="13.7354160">
        <ele>703.8</ele>
        <time>2019-08-06T15:08:26Z</time>
      </trkpt>
      <trkpt lat="48.7482770" lon="13.7354260">
        <ele>703.8</ele>
        <time>2019-08-06T15:08:27Z</time>
      </trkpt>
      <trkpt lat="48.7483250" lon="13.7354410">
        <ele>704.0</ele>
        <time>2019-08-06T15:08:28Z</time>
      </trkpt>
      <trkpt lat="48.7483700" lon="13.7354560">
        <ele>704.0</ele>
        <time>2019-08-06T15:08:29Z</time>
      </trkpt>
      <trkpt lat="48.7484140" lon="13.7354730">
        <ele>704.2</ele>
        <time>2019-08-06T15:08:30Z</time>
      </trkpt>
      <trkpt lat="48.7484550" lon="13.7354920">
        <ele>704.2</ele>
        <time>2019-08-06T15:08:31Z</time>
      </trkpt>
      <trkpt lat="48.7484950" lon="13.7355140">
        <ele>704.2</ele>
        <time>2019-08-06T15:08:32Z</time>
      </trkpt>
      <trkpt lat="48.7485320" lon="13.7355380">
        <ele>704.4</ele>
        <time>2019-08-06T15:08:33Z</time>
      </trkpt>
      <trkpt lat="48.7485680" lon="13.7355630">
        <ele>704.4</ele>
        <time>2019-08-06T15:08:34Z</time>
      </trkpt>
      <trkpt lat="48.7486040" lon="13.7355920">
        <ele>704.6</ele>
        <time>2019-08-06T15:08:35Z</time>
      </trkpt>
      <trkpt lat="48.7486440" lon="13.7356230">
        <ele>704.6</ele>
        <time>2019-08-06T15:08:36Z</time>
      </trkpt>
      <trkpt lat="48.7486830" lon="13.7356520">
        <ele>704.8</ele>
        <time>2019-08-06T15:08:37Z</time>
      </trkpt>
      <trkpt lat="48.7487250" lon="13.7356810">
        <ele>704.8</ele>
        <time>2019-08-06T15:08:38Z</time>
      </trkpt>
      <trkpt lat="48.7487690" lon="13.7357080">
        <ele>705.0</ele>
        <time>2019-08-06T15:08:39Z</time>
      </trkpt>
      <trkpt lat="48.7488130" lon="13.7357340">
        <ele>705.0</ele>
        <time>2019-08-06T15:08:40Z</time>
      </trkpt>
      <trkpt lat="48.7488550" lon="13.7357590">
        <ele>705.0</ele>
        <time>2019-08-06T15:08:41Z</time>
      </trkpt>
      <trkpt lat="48.7488970" lon="13.7357820">
        <ele>705.2</ele>
        <time>2019-08-06T15:08:42Z</time>
      </trkpt>
      <trkpt lat="48.7489410" lon="13.7358050">
        <ele>705.2</ele>
        <time>2019-08-06T15:08:43Z</time>
      </trkpt>
      <trkpt lat="48.7489850" lon="13.7358340">
        <ele>705.4</ele>
        <time>2019-08-06T15:08:44Z</time>
      </trkpt>
      <trkpt lat="48.7490260" lon="13.7358680">
        <ele>705.4</ele>
        <time>2019-08-06T15:08:45Z</time>
      </trkpt>
      <trkpt lat="48.7490660" lon="13.7359040">
        <ele>705.6</ele>
        <time>2019-08-06T15:08:46Z</time>
      </trkpt>
      <trkpt lat="48.7491060" lon="13.7359390">
        <ele>705.6</ele>
        <time>2019-08-06T15:08:47Z</time>
      </trkpt>
      <trkpt lat="48.7491470" lon="13.7359760">
        <ele>705.8</ele>
        <time>2019-08-06T15:08:48Z</time>
      </trkpt>
      <trkpt lat="48.7491870" lon="13.7360110">
        <ele>705.8</ele>
        <time>2019-08-06T15:08:49Z</time>
      </trkpt>
      <trkpt lat="48.7492250" lon="13.7360440">
        <ele>705.8</ele>
        <time>2019-08-06T15:08:50Z</time>
      </trkpt>
      <trkpt lat="48.7492640" lon="13.7360770">
        <ele>706.0</ele>
        <time>2019-08-06T15:08:51Z</time>
      </trkpt>
      <trkpt lat="48.7493030" lon="13.7361130">
        <ele>706.0</ele>
        <time>2019-08-06T15:08:52Z</time>
      </trkpt>
      <trkpt lat="48.7493410" lon="13.7361500">
        <ele>706.0</ele>
        <time>2019-08-06T15:08:53Z</time>
      </trkpt>
      <trkpt lat="48.7493770" lon="13.7361870">
        <ele>706.2</ele>
        <time>2019-08-06T15:08:54Z</time>
      </trkpt>
      <trkpt lat="48.7494120" lon="13.7362200">
        <ele>706.2</ele>
        <time>2019-08-06T15:08:55Z</time>
      </trkpt>
      <trkpt lat="48.7494490" lon="13.7362540">
        <ele>706.4</ele>
        <time>2019-08-06T15:08:56Z</time>
      </trkpt>
      <trkpt lat="48.7494840" lon="13.7362890">
        <ele>706.4</ele>
        <time>2019-08-06T15:08:57Z</time>
      </trkpt>
      <trkpt lat="48.7495190" lon="13.7363250">
        <ele>706.6</ele>
        <time>2019-08-06T15:08:58Z</time>
      </trkpt>
      <trkpt lat="48.7495510" lon="13.7363600">
        <ele>706.6</ele>
        <time>2019-08-06T15:08:59Z</time>
      </trkpt>
      <trkpt lat="48.7495830" lon="13.7363900">
        <ele>706.8</ele>
        <time>2019-08-06T15:09:00Z</time>
      </trkpt>
      <trkpt lat="48.7496150" lon="13.7364160">
        <ele>706.8</ele>
        <time>2019-08-06T15:09:01Z</time>
      </trkpt>
      <trkpt lat="48.7496480" lon="13.7364410">
        <ele>707.0</ele>
        <time>2019-08-06T15:09:02Z</time>
      </trkpt>
      <trkpt lat="48.7496790" lon="13.7364650">
        <ele>707.0</ele>
        <time>2019-08-06T15:09:03Z</time>
      </trkpt>
      <trkpt lat="48.7497140" lon="13.7364970">
        <ele>707.0</ele>
        <time>2019-08-06T15:09:04Z</time>
      </trkpt>
      <trkpt lat="48.7497480" lon="13.7365350">
        <ele>707.2</ele>
        <time>2019-08-06T15:09:05Z</time>
      </trkpt>
      <trkpt lat="48.7497800" lon="13.7365740">
        <ele>707.2</ele>
        <time>2019-08-06T15:09:06Z</time>
      </trkpt>
      <trkpt lat="48.7498130" lon="13.7366130">
        <ele>707.4</ele>
        <time>2019-08-06T15:09:07Z</time>
      </trkpt>
      <trkpt lat="48.7498490" lon="13.7366540">
        <ele>707.4</ele>
        <time>2019-08-06T15:09:08Z</time>
      </trkpt>
      <trkpt lat="48.7498810" lon="13.7366860">
        <ele>707.4</ele>
        <time>2019-08-06T15:09:09Z</time>
      </trkpt>
      <trkpt lat="48.7499110" lon="13.7367160">
        <ele>707.6</ele>
        <time>2019-08-06T15:09:10Z</time>
      </trkpt>
      <trkpt lat="48.7499430" lon="13.7367510">
        <ele>707.6</ele>
        <time>2019-08-06T15:09:11Z</time>
      </trkpt>
      <trkpt lat="48.7499780" lon="13.7367880">
        <ele>707.6</ele>
        <time>2019-08-06T15:09:12Z</time>
      </trkpt>
      <trkpt lat="48.7500150" lon="13.7368260">
        <ele>707.8</ele>
        <time>2019-08-06T15:09:13Z</time>
      </trkpt>
      <trkpt lat="48.7500530" lon="13.7368640">
        <ele>707.8</ele>
        <time>2019-08-06T15:09:14Z</time>
      </trkpt>
      <trkpt lat="48.7500910" lon="13.7369010">
        <ele>708.0</ele>
        <time>2019-08-06T15:09:15Z</time>
      </trkpt>
      <trkpt lat="48.7501280" lon="13.7369360">
        <ele>708.0</ele>
        <time>2019-08-06T15:09:16Z</time>
      </trkpt>
      <trkpt lat="48.7501620" lon="13.7369730">
        <ele>708.0</ele>
        <time>2019-08-06T15:09:17Z</time>
      </trkpt>
      <trkpt lat="48.7501940" lon="13.7370080">
        <ele>708.2</ele>
        <time>2019-08-06T15:09:18Z</time>
      </trkpt>
      <trkpt lat="48.7502300" lon="13.7370400">
        <ele>708.2</ele>
        <time>2019-08-06T15:09:19Z</time>
      </trkpt>
      <trkpt lat="48.7502680" lon="13.7370730">
        <ele>708.4</ele>
        <time>2019-08-06T15:09:20Z</time>
      </trkpt>
      <trkpt lat="48.7503050" lon="13.7371060">
        <ele>708.4</ele>
        <time>2019-08-06T15:09:21Z</time>
      </trkpt>
      <trkpt lat="48.7503450" lon="13.7371370">
        <ele>708.4</ele>
        <time>2019-08-06T15:09:22Z</time>
      </trkpt>
      <trkpt lat="48.7503880" lon="13.7371680">
        <ele>708.6</ele>
        <time>2019-08-06T15:09:23Z</time>
      </trkpt>
      <trkpt lat="48.7504290" lon="13.7372040">
        <ele>708.6</ele>
        <time>2019-08-06T15:09:24Z</time>
      </trkpt>
      <trkpt lat="48.7504710" lon="13.7372390">
        <ele>708.8</ele>
        <time>2019-08-06T15:09:25Z</time>
      </trkpt>
      <trkpt lat="48.7505150" lon="13.7372740">
        <ele>708.8</ele>
        <time>2019-08-06T15:09:26Z</time>
      </trkpt>
      <trkpt lat="48.7505580" lon="13.7373130">
        <ele>709.0</ele>
        <time>2019-08-06T15:09:27Z</time>
      </trkpt>
      <trkpt lat="48.7505990" lon="13.7373630">
        <ele>709.0</ele>
        <time>2019-08-06T15:09:28Z</time>
      </trkpt>
      <trkpt lat="48.7506490" lon="13.7374260">
        <ele>709.2</ele>
        <time>2019-08-06T15:09:29Z</time>
      </trkpt>
      <trkpt lat="48.7506970" lon="13.7374900">
        <ele>709.2</ele>
        <time>2019-08-06T15:09:30Z</time>
      </trkpt>
      <trkpt lat="48.7507370" lon="13.7375440">
        <ele>709.2</ele>
        <time>2019-08-06T15:09:31Z</time>
      </trkpt>
      <trkpt lat="48.7507770" lon="13.7376030">
        <ele>709.4</ele>
        <time>2019-08-06T15:09:32Z</time>
      </trkpt>
      <trkpt lat="48.7508170" lon="13.7376660">
        <ele>709.4</ele>
        <time>2019-08-06T15:09:33Z</time>
      </trkpt>
      <trkpt lat="48.7508550" lon="13.7377270">
        <ele>709.4</ele>
        <time>2019-08-06T15:09:34Z</time>
      </trkpt>
      <trkpt lat="48.7508920" lon="13.7377860">
        <ele>709.6</ele>
        <time>2019-08-06T15:09:35Z</time>
      </trkpt>
      <trkpt lat="48.7509290" lon="13.7378470">
        <ele>709.6</ele>
        <time>2019-08-06T15:09:36Z</time>
      </trkpt>
      <trkpt lat="48.7509610" lon="13.7379050">
        <ele>709.6</ele>
        <time>2019-08-06T15:09:37Z</time>
      </trkpt>
      <trkpt lat="48.7509920" lon="13.7379610">
        <ele>709.8</ele>
        <time>2019-08-06T15:09:38Z</time>
      </trkpt>
      <trkpt lat="48.7510230" lon="13.7380240">
        <ele>709.8</ele>
        <time>2019-08-06T15:09:39Z</time>
      </trkpt>
      <trkpt lat="48.7510500" lon="13.7380900">
        <ele>709.8</ele>
        <time>2019-08-06T15:09:40Z</time>
      </trkpt>
      <trkpt lat="48.7510770" lon="13.7381530">
        <ele>709.8</ele>
        <time>2019-08-06T15:09:41Z</time>
      </trkpt>
      <trkpt lat="48.7511030" lon="13.7382150">
        <ele>710.0</ele>
        <time>2019-08-06T15:09:42Z</time>
      </trkpt>
      <trkpt lat="48.7511280" lon="13.7382770">
        <ele>710.0</ele>
        <time>2019-08-06T15:09:43Z</time>
      </trkpt>
      <trkpt lat="48.7511510" lon="13.7383410">
        <ele>710.2</ele>
        <time>2019-08-06T15:09:44Z</time>
      </trkpt>
      <trkpt lat="48.7511730" lon="13.7384040">
        <ele>710.2</ele>
        <time>2019-08-06T15:09:45Z</time>
      </trkpt>
      <trkpt lat="48.7511950" lon="13.7384730">
        <ele>710.4</ele>
        <time>2019-08-06T15:09:46Z</time>
      </trkpt>
      <trkpt lat="48.7512150" lon="13.7385340">
        <ele>710.4</ele>
        <time>2019-08-06T15:09:47Z</time>
      </trkpt>
      <trkpt lat="48.7512320" lon="13.7385930">
        <ele>710.4</ele>
        <time>2019-08-06T15:09:48Z</time>
      </trkpt>
      <trkpt lat="48.7512450" lon="13.7386480">
        <ele>710.6</ele>
        <time>2019-08-06T15:09:49Z</time>
      </trkpt>
      <trkpt lat="48.7512600" lon="13.7387060">
        <ele>710.6</ele>
        <time>2019-08-06T15:09:50Z</time>
      </trkpt>
      <trkpt lat="48.7512730" lon="13.7387670">
        <ele>710.8</ele>
        <time>2019-08-06T15:09:51Z</time>
      </trkpt>
      <trkpt lat="48.7512850" lon="13.7388300">
        <ele>710.8</ele>
        <time>2019-08-06T15:09:52Z</time>
      </trkpt>
      <trkpt lat="48.7512980" lon="13.7388930">
        <ele>711.0</ele>
        <time>2019-08-06T15:09:53Z</time>
      </trkpt>
      <trkpt lat="48.7513070" lon="13.7389560">
        <ele>711.0</ele>
        <time>2019-08-06T15:09:54Z</time>
      </trkpt>
      <trkpt lat="48.7513140" lon="13.7390230">
        <ele>711.0</ele>
        <time>2019-08-06T15:09:55Z</time>
      </trkpt>
      <trkpt lat="48.7513230" lon="13.7390940">
        <ele>711.0</ele>
        <time>2019-08-06T15:09:56Z</time>
      </trkpt>
      <trkpt lat="48.7513280" lon="13.7391700">
        <ele>711.0</ele>
        <time>2019-08-06T15:09:57Z</time>
      </trkpt>
      <trkpt lat="48.7513270" lon="13.7392460">
        <ele>711.0</ele>
        <time>2019-08-06T15:09:58Z</time>
      </trkpt>
      <trkpt lat="48.7513190" lon="13.7393220">
        <ele>711.0</ele>
        <time>2019-08-06T15:09:59Z</time>
      </trkpt>
      <trkpt lat="48.7513060" lon="13.7394000">
        <ele>710.8</ele>
        <time>2019-08-06T15:10:00Z</time>
      </trkpt>
      <trkpt lat="48.7512880" lon="13.7394740">
        <ele>710.8</ele>
        <time>2019-08-06T15:10:01Z</time>
      </trkpt>
      <trkpt lat="48.7512680" lon="13.7395470">
        <ele>711.0</ele>
        <time>2019-08-06T15:10:02Z</time>
      </trkpt>
      <trkpt lat="48.7512450" lon="13.7396180">
        <ele>711.0</ele>
        <time>2019-08-06T15:10:03Z</time>
      </trkpt>
      <trkpt lat="48.7512230" lon="13.7396870">
        <ele>711.0</ele>
        <time>2019-08-06T15:10:04Z</time>
      </trkpt>
      <trkpt lat="48.7512010" lon="13.7397570">
        <ele>711.0</ele>
        <time>2019-08-06T15:10:05Z</time>
      </trkpt>
      <trkpt lat="48.7511800" lon="13.7398290">
        <ele>711.0</ele>
        <time>2019-08-06T15:10:06Z</time>
      </trkpt>
      <trkpt lat="48.7511620" lon="13.7399030">
        <ele>711.0</ele>
        <time>2019-08-06T15:10:07Z</time>
      </trkpt>
      <trkpt lat="48.7511440" lon="13.7399780">
        <ele>711.0</ele>
        <time>2019-08-06T15:10:08Z</time>
      </trkpt>
      <trkpt lat="48.7511290" lon="13.7400510">
        <ele>711.2</ele>
        <time>2019-08-06T15:10:09Z</time>
      </trkpt>
      <trkpt lat="48.7511140" lon="13.7401270">
        <ele>711.2</ele>
        <time>2019-08-06T15:10:10Z</time>
      </trkpt>
      <trkpt lat="48.7511000" lon="13.7402030">
        <ele>711.2</ele>
        <time>2019-08-06T15:10:11Z</time>
      </trkpt>
      <trkpt lat="48.7510870" lon="13.7402790">
        <ele>711.4</ele>
        <time>2019-08-06T15:10:12Z</time>
      </trkpt>
      <trkpt lat="48.7510750" lon="13.7403590">
        <ele>711.4</ele>
        <time>2019-08-06T15:10:13Z</time>
      </trkpt>
      <trkpt lat="48.7510640" lon="13.7404360">
        <ele>711.4</ele>
        <time>2019-08-06T15:10:14Z</time>
      </trkpt>
      <trkpt lat="48.7510540" lon="13.7405160">
        <ele>711.4</ele>
        <time>2019-08-06T15:10:15Z</time>
      </trkpt>
      <trkpt lat="48.7510410" lon="13.7405940">
        <ele>711.4</ele>
        <time>2019-08-06T15:10:16Z</time>
      </trkpt>
      <trkpt lat="48.7510290" lon="13.7406710">
        <ele>711.4</ele>
        <time>2019-08-06T15:10:17Z</time>
      </trkpt>
      <trkpt lat="48.7510190" lon="13.7407490">
        <ele>711.6</ele>
        <time>2019-08-06T15:10:18Z</time>
      </trkpt>
      <trkpt lat="48.7510090" lon="13.7408250">
        <ele>711.6</ele>
        <time>2019-08-06T15:10:19Z</time>
      </trkpt>
      <trkpt lat="48.7510010" lon="13.7409040">
        <ele>711.8</ele>
        <time>2019-08-06T15:10:20Z</time>
      </trkpt>
      <trkpt lat="48.7509920" lon="13.7409810">
        <ele>711.8</ele>
        <time>2019-08-06T15:10:21Z</time>
      </trkpt>
      <trkpt lat="48.7509830" lon="13.7410600">
        <ele>711.8</ele>
        <time>2019-08-06T15:10:22Z</time>
      </trkpt>
      <trkpt lat="48.7509760" lon="13.7411370">
        <ele>711.8</ele>
        <time>2019-08-06T15:10:23Z</time>
      </trkpt>
      <trkpt lat="48.7509670" lon="13.7412150">
        <ele>711.8</ele>
        <time>2019-08-06T15:10:24Z</time>
      </trkpt>
      <trkpt lat="48.7509570" lon="13.7412900">
        <ele>711.8</ele>
        <time>2019-08-06T15:10:25Z</time>
      </trkpt>
      <trkpt lat="48.7509460" lon="13.7413670">
        <ele>711.8</ele>
        <time>2019-08-06T15:10:26Z</time>
      </trkpt>
      <trkpt lat="48.7509350" lon="13.7414460">
        <ele>711.8</ele>
        <time>2019-08-06T15:10:27Z</time>
      </trkpt>
      <trkpt lat="48.7509240" lon="13.7415250">
        <ele>712.0</ele>
        <time>2019-08-06T15:10:28Z</time>
      </trkpt>
      <trkpt lat="48.7509170" lon="13.7416070">
        <ele>712.0</ele>
        <time>2019-08-06T15:10:29Z</time>
      </trkpt>
      <trkpt lat="48.7509120" lon="13.7416890">
        <ele>712.0</ele>
        <time>2019-08-06T15:10:30Z</time>
      </trkpt>
      <trkpt lat="48.7509070" lon="13.7417740">
        <ele>711.8</ele>
        <time>2019-08-06T15:10:31Z</time>
      </trkpt>
      <trkpt lat="48.7509030" lon="13.7418590">
        <ele>712.0</ele>
        <time>2019-08-06T15:10:32Z</time>
      </trkpt>
      <trkpt lat="48.7508950" lon="13.7419440">
        <ele>712.0</ele>
        <time>2019-08-06T15:10:33Z</time>
      </trkpt>
      <trkpt lat="48.7508820" lon="13.7420290">
        <ele>712.0</ele>
        <time>2019-08-06T15:10:34Z</time>
      </trkpt>
      <trkpt lat="48.7508620" lon="13.7421110">
        <ele>712.0</ele>
        <time>2019-08-06T15:10:35Z</time>
      </trkpt>
      <trkpt lat="48.7508390" lon="13.7421910">
        <ele>712.0</ele>
        <time>2019-08-06T15:10:36Z</time>
      </trkpt>
      <trkpt lat="48.7508160" lon="13.7422700">
        <ele>712.0</ele>
        <time>2019-08-06T15:10:37Z</time>
      </trkpt>
      <trkpt lat="48.7507920" lon="13.7423500">
        <ele>712.0</ele>
        <time>2019-08-06T15:10:38Z</time>
      </trkpt>
      <trkpt lat="48.7507680" lon="13.7424310">
        <ele>712.0</ele>
        <time>2019-08-06T15:10:39Z</time>
      </trkpt>
      <trkpt lat="48.7507440" lon="13.7425110">
        <ele>712.0</ele>
        <time>2019-08-06T15:10:40Z</time>
      </trkpt>
      <trkpt lat="48.7507210" lon="13.7425890">
        <ele>711.8</ele>
        <time>2019-08-06T15:10:41Z</time>
      </trkpt>
      <trkpt lat="48.7506990" lon="13.7426690">
        <ele>711.6</ele>
        <time>2019-08-06T15:10:42Z</time>
      </trkpt>
      <trkpt lat="48.7506790" lon="13.7427530">
        <ele>711.6</ele>
        <time>2019-08-06T15:10:43Z</time>
      </trkpt>
      <trkpt lat="48.7506650" lon="13.7428360">
        <ele>711.6</ele>
        <time>2019-08-06T15:10:44Z</time>
      </trkpt>
      <trkpt lat="48.7506560" lon="13.7429190">
        <ele>711.6</ele>
        <time>2019-08-06T15:10:45Z</time>
      </trkpt>
      <trkpt lat="48.7506500" lon="13.7430090">
        <ele>711.4</ele>
        <time>2019-08-06T15:10:46Z</time>
      </trkpt>
      <trkpt lat="48.7506430" lon="13.7430950">
        <ele>711.4</ele>
        <time>2019-08-06T15:10:47Z</time>
      </trkpt>
      <trkpt lat="48.7506340" lon="13.7431810">
        <ele>711.2</ele>
        <time>2019-08-06T15:10:48Z</time>
      </trkpt>
      <trkpt lat="48.7506260" lon="13.7432650">
        <ele>711.2</ele>
        <time>2019-08-06T15:10:49Z</time>
      </trkpt>
      <trkpt lat="48.7506160" lon="13.7433490">
        <ele>711.2</ele>
        <time>2019-08-06T15:10:50Z</time>
      </trkpt>
      <trkpt lat="48.7506100" lon="13.7434330">
        <ele>711.0</ele>
        <time>2019-08-06T15:10:51Z</time>
      </trkpt>
      <trkpt lat="48.7506100" lon="13.7435160">
        <ele>711.0</ele>
        <time>2019-08-06T15:10:52Z</time>
      </trkpt>
      <trkpt lat="48.7506120" lon="13.7435980">
        <ele>711.0</ele>
        <time>2019-08-06T15:10:53Z</time>
      </trkpt>
      <trkpt lat="48.7506140" lon="13.7436810">
        <ele>710.8</ele>
        <time>2019-08-06T15:10:54Z</time>
      </trkpt>
      <trkpt lat="48.7506180" lon="13.7437650">
        <ele>710.8</ele>
        <time>2019-08-06T15:10:55Z</time>
      </trkpt>
      <trkpt lat="48.7506230" lon="13.7438510">
        <ele>710.6</ele>
        <time>2019-08-06T15:10:56Z</time>
      </trkpt>
      <trkpt lat="48.7506280" lon="13.7439390">
        <ele>710.4</ele>
        <time>2019-08-06T15:10:57Z</time>
      </trkpt>
      <trkpt lat="48.7506300" lon="13.7440290">
        <ele>710.4</ele>
        <time>2019-08-06T15:10:58Z</time>
      </trkpt>
      <trkpt lat="48.7506310" lon="13.7441200">
        <ele>710.2</ele>
        <time>2019-08-06T15:10:59Z</time>
      </trkpt>
      <trkpt lat="48.7506270" lon="13.7442080">
        <ele>710.0</ele>
        <time>2019-08-06T15:11:00Z</time>
      </trkpt>
      <trkpt lat="48.7506270" lon="13.7442940">
        <ele>709.6</ele>
        <time>2019-08-06T15:11:01Z</time>
      </trkpt>
      <trkpt lat="48.7506370" lon="13.7443800">
        <ele>709.6</ele>
        <time>2019-08-06T15:11:02Z</time>
      </trkpt>
      <trkpt lat="48.7506600" lon="13.7444580">
        <ele>709.4</ele>
        <time>2019-08-06T15:11:03Z</time>
      </trkpt>
      <trkpt lat="48.7506880" lon="13.7445140">
        <ele>709.4</ele>
        <time>2019-08-06T15:11:04Z</time>
      </trkpt>
      <trkpt lat="48.7507110" lon="13.7445430">
        <ele>709.6</ele>
        <time>2019-08-06T15:11:05Z</time>
      </trkpt>
      <trkpt lat="48.7507290" lon="13.7445550">
        <ele>709.8</ele>
        <time>2019-08-06T15:11:06Z</time>
      </trkpt>
      <trkpt lat="48.7507430" lon="13.7445600">
        <ele>710.2</ele>
        <time>2019-08-06T15:11:07Z</time>
      </trkpt>
      <trkpt lat="48.7507580" lon="13.7445680">
        <ele>710.4</ele>
        <time>2019-08-06T15:11:08Z</time>
      </trkpt>
      <trkpt lat="48.7507710" lon="13.7445790">
        <ele>710.8</ele>
        <time>2019-08-06T15:11:09Z</time>
      </trkpt>
      <trkpt lat="48.7507830" lon="13.7445980">
        <ele>711.0</ele>
        <time>2019-08-06T15:11:10Z</time>
      </trkpt>
      <trkpt lat="48.7507910" lon="13.7446230">
        <ele>711.4</ele>
        <time>2019-08-06T15:11:11Z</time>
      </trkpt>
      <trkpt lat="48.7507960" lon="13.7446490">
        <ele>711.6</ele>
        <time>2019-08-06T15:11:12Z</time>
      </trkpt>
      <trkpt lat="48.7508010" lon="13.7446770">
        <ele>711.8</ele>
        <time>2019-08-06T15:11:13Z</time>
      </trkpt>
      <trkpt lat="48.7508060" lon="13.7447040">
        <ele>712.0</ele>
        <time>2019-08-06T15:11:14Z</time>
      </trkpt>
      <trkpt lat="48.7508110" lon="13.7447300">
        <ele>712.2</ele>
        <time>2019-08-06T15:11:15Z</time>
      </trkpt>
      <trkpt lat="48.7508160" lon="13.7447570">
        <ele>712.4</ele>
        <time>2019-08-06T15:11:16Z</time>
      </trkpt>
      <trkpt lat="48.7508210" lon="13.7447860">
        <ele>712.6</ele>
        <time>2019-08-06T15:11:17Z</time>
      </trkpt>
      <trkpt lat="48.7508260" lon="13.7448140">
        <ele>712.8</ele>
        <time>2019-08-06T15:11:18Z</time>
      </trkpt>
      <trkpt lat="48.7508320" lon="13.7448410">
        <ele>713.0</ele>
        <time>2019-08-06T15:11:19Z</time>
      </trkpt>
      <trkpt lat="48.7508380" lon="13.7448700">
        <ele>713.2</ele>
        <time>2019-08-06T15:11:20Z</time>
      </trkpt>
      <trkpt lat="48.7508460" lon="13.7448970">
        <ele>713.4</ele>
        <time>2019-08-06T15:11:21Z</time>
      </trkpt>
      <trkpt lat="48.7508530" lon="13.7449220">
        <ele>713.4</ele>
        <time>2019-08-06T15:11:22Z</time>
      </trkpt>
      <trkpt lat="48.7508610" lon="13.7449480">
        <ele>713.6</ele>
        <time>2019-08-06T15:11:23Z</time>
      </trkpt>
      <trkpt lat="48.7508690" lon="13.7449730">
        <ele>713.8</ele>
        <time>2019-08-06T15:11:24Z</time>
      </trkpt>
      <trkpt lat="48.7508770" lon="13.7449980">
        <ele>714.0</ele>
        <time>2019-08-06T15:11:25Z</time>
      </trkpt>
      <trkpt lat="48.7508850" lon="13.7450230">
        <ele>714.2</ele>
        <time>2019-08-06T15:11:26Z</time>
      </trkpt>
      <trkpt lat="48.7508940" lon="13.7450480">
        <ele>714.4</ele>
        <time>2019-08-06T15:11:27Z</time>
      </trkpt>
      <trkpt lat="48.7509010" lon="13.7450730">
        <ele>714.4</ele>
        <time>2019-08-06T15:11:28Z</time>
      </trkpt>
      <trkpt lat="48.7509060" lon="13.7451000">
        <ele>714.6</ele>
        <time>2019-08-06T15:11:29Z</time>
      </trkpt>
      <trkpt lat="48.7509100" lon="13.7451270">
        <ele>714.8</ele>
        <time>2019-08-06T15:11:30Z</time>
      </trkpt>
      <trkpt lat="48.7509180" lon="13.7451510">
        <ele>715.0</ele>
        <time>2019-08-06T15:11:31Z</time>
      </trkpt>
      <trkpt lat="48.7509280" lon="13.7451720">
        <ele>715.2</ele>
        <time>2019-08-06T15:11:32Z</time>
      </trkpt>
      <trkpt lat="48.7509380" lon="13.7451930">
        <ele>715.4</ele>
        <time>2019-08-06T15:11:33Z</time>
      </trkpt>
      <trkpt lat="48.7509480" lon="13.7452180">
        <ele>715.4</ele>
        <time>2019-08-06T15:11:34Z</time>
      </trkpt>
      <trkpt lat="48.7509570" lon="13.7452430">
        <ele>715.6</ele>
        <time>2019-08-06T15:11:35Z</time>
      </trkpt>
      <trkpt lat="48.7509680" lon="13.7452660">
        <ele>715.8</ele>
        <time>2019-08-06T15:11:36Z</time>
      </trkpt>
      <trkpt lat="48.7509780" lon="13.7452890">
        <ele>716.0</ele>
        <time>2019-08-06T15:11:37Z</time>
      </trkpt>
      <trkpt lat="48.7509900" lon="13.7453100">
        <ele>716.2</ele>
        <time>2019-08-06T15:11:38Z</time>
      </trkpt>
      <trkpt lat="48.7510010" lon="13.7453300">
        <ele>716.4</ele>
        <time>2019-08-06T15:11:39Z</time>
      </trkpt>
      <trkpt lat="48.7510140" lon="13.7453490">
        <ele>716.4</ele>
        <time>2019-08-06T15:11:40Z</time>
      </trkpt>
      <trkpt lat="48.7510260" lon="13.7453710">
        <ele>716.6</ele>
        <time>2019-08-06T15:11:41Z</time>
      </trkpt>
      <trkpt lat="48.7510380" lon="13.7453920">
        <ele>716.8</ele>
        <time>2019-08-06T15:11:42Z</time>
      </trkpt>
      <trkpt lat="48.7510490" lon="13.7454130">
        <ele>717.0</ele>
        <time>2019-08-06T15:11:43Z</time>
      </trkpt>
      <trkpt lat="48.7510610" lon="13.7454330">
        <ele>717.2</ele>
        <time>2019-08-06T15:11:44Z</time>
      </trkpt>
      <trkpt lat="48.7510730" lon="13.7454530">
        <ele>717.2</ele>
        <time>2019-08-06T15:11:45Z</time>
      </trkpt>
      <trkpt lat="48.7510850" lon="13.7454690">
        <ele>717.4</ele>
        <time>2019-08-06T15:11:46Z</time>
      </trkpt>
      <trkpt lat="48.7510980" lon="13.7454860">
        <ele>717.6</ele>
        <time>2019-08-06T15:11:47Z</time>
      </trkpt>
      <trkpt lat="48.7511100" lon="13.7455020">
        <ele>717.8</ele>
        <time>2019-08-06T15:11:48Z</time>
      </trkpt>
      <trkpt lat="48.7511230" lon="13.7455170">
        <ele>718.0</ele>
        <time>2019-08-06T15:11:49Z</time>
      </trkpt>
      <trkpt lat="48.7511360" lon="13.7455320">
        <ele>718.2</ele>
        <time>2019-08-06T15:11:50Z</time>
      </trkpt>
      <trkpt lat="48.7511490" lon="13.7455480">
        <ele>718.4</ele>
        <time>2019-08-06T15:11:51Z</time>
      </trkpt>
      <trkpt lat="48.7511610" lon="13.7455640">
        <ele>718.6</ele>
        <time>2019-08-06T15:11:52Z</time>
      </trkpt>
      <trkpt lat="48.7511710" lon="13.7455810">
        <ele>718.8</ele>
        <time>2019-08-06T15:11:53Z</time>
      </trkpt>
      <trkpt lat="48.7511810" lon="13.7455980">
        <ele>719.0</ele>
        <time>2019-08-06T15:11:54Z</time>
      </trkpt>
      <trkpt lat="48.7511910" lon="13.7456160">
        <ele>719.4</ele>
        <time>2019-08-06T15:11:55Z</time>
      </trkpt>
      <trkpt lat="48.7512010" lon="13.7456310">
        <ele>719.6</ele>
        <time>2019-08-06T15:11:56Z</time>
      </trkpt>
      <trkpt lat="48.7512130" lon="13.7456470">
        <ele>719.8</ele>
        <time>2019-08-06T15:11:57Z</time>
      </trkpt>
      <trkpt lat="48.7512230" lon="13.7456630">
        <ele>720.0</ele>
        <time>2019-08-06T15:11:58Z</time>
      </trkpt>
      <trkpt lat="48.7512330" lon="13.7456800">
        <ele>720.2</ele>
        <time>2019-08-06T15:11:59Z</time>
      </trkpt>
      <trkpt lat="48.7512440" lon="13.7456970">
        <ele>720.4</ele>
        <time>2019-08-06T15:12:00Z</time>
      </trkpt>
      <trkpt lat="48.7512540" lon="13.7457110">
        <ele>720.6</ele>
        <time>2019-08-06T15:12:01Z</time>
      </trkpt>
      <trkpt lat="48.7512640" lon="13.7457230">
        <ele>720.8</ele>
        <time>2019-08-06T15:12:02Z</time>
      </trkpt>
      <trkpt lat="48.7512730" lon="13.7457360">
        <ele>720.8</ele>
        <time>2019-08-06T15:12:03Z</time>
      </trkpt>
      <trkpt lat="48.7512830" lon="13.7457450">
        <ele>720.8</ele>
        <time>2019-08-06T15:12:04Z</time>
      </trkpt>
      <trkpt lat="48.7512980" lon="13.7457540">
        <ele>721.0</ele>
        <time>2019-08-06T15:12:05Z</time>
      </trkpt>
      <trkpt lat="48.7513140" lon="13.7457620">
        <ele>721.0</ele>
        <time>2019-08-06T15:12:06Z</time>
      </trkpt>
      <trkpt lat="48.7513310" lon="13.7457670">
        <ele>721.0</ele>
        <time>2019-08-06T15:12:07Z</time>
      </trkpt>
      <trkpt lat="48.7513480" lon="13.7457700">
        <ele>721.0</ele>
        <time>2019-08-06T15:12:08Z</time>
      </trkpt>
      <trkpt lat="48.7513660" lon="13.7457700">
        <ele>721.0</ele>
        <time>2019-08-06T15:12:09Z</time>
      </trkpt>
      <trkpt lat="48.7513840" lon="13.7457670">
        <ele>721.0</ele>
        <time>2019-08-06T15:12:10Z</time>
      </trkpt>
      <trkpt lat="48.7514010" lon="13.7457610">
        <ele>721.0</ele>
        <time>2019-08-06T15:12:11Z</time>
      </trkpt>
      <trkpt lat="48.7514170" lon="13.7457530">
        <ele>721.0</ele>
        <time>2019-08-06T15:12:12Z</time>
      </trkpt>
      <trkpt lat="48.7514300" lon="13.7457450">
        <ele>721.2</ele>
        <time>2019-08-06T15:12:13Z</time>
      </trkpt>
      <trkpt lat="48.7514430" lon="13.7457370">
        <ele>721.2</ele>
        <time>2019-08-06T15:12:14Z</time>
      </trkpt>
      <trkpt lat="48.7514530" lon="13.7457320">
        <ele>721.2</ele>
        <time>2019-08-06T15:12:15Z</time>
      </trkpt>
      <trkpt lat="48.7514570" lon="13.7457300">
        <ele>721.0</ele>
        <time>2019-08-06T15:12:16Z</time>
      </trkpt>
      <trkpt lat="48.7514970" lon="13.7456550">
        <ele>721.2</ele>
        <time>2019-08-06T15:19:34Z</time>
      </trkpt>
      <trkpt lat="48.7515110" lon="13.7456420">
        <ele>721.2</ele>
        <time>2019-08-06T15:19:35Z</time>
      </trkpt>
      <trkpt lat="48.7515260" lon="13.7456390">
        <ele>721.2</ele>
        <time>2019-08-06T15:19:36Z</time>
      </trkpt>
      <trkpt lat="48.7515410" lon="13.7456500">
        <ele>721.2</ele>
        <time>2019-08-06T15:19:37Z</time>
      </trkpt>
      <trkpt lat="48.7515490" lon="13.7456710">
        <ele>721.2</ele>
        <time>2019-08-06T15:19:38Z</time>
      </trkpt>
      <trkpt lat="48.7515490" lon="13.7456960">
        <ele>721.2</ele>
        <time>2019-08-06T15:19:39Z</time>
      </trkpt>
      <trkpt lat="48.7515430" lon="13.7457270">
        <ele>721.2</ele>
        <time>2019-08-06T15:19:40Z</time>
      </trkpt>
      <trkpt lat="48.7515350" lon="13.7457580">
        <ele>721.2</ele>
        <time>2019-08-06T15:19:41Z</time>
      </trkpt>
      <trkpt lat="48.7515270" lon="13.7457920">
        <ele>721.0</ele>
        <time>2019-08-06T15:19:42Z</time>
      </trkpt>
      <trkpt lat="48.7515230" lon="13.7458270">
        <ele>721.0</ele>
        <time>2019-08-06T15:19:43Z</time>
      </trkpt>
      <trkpt lat="48.7515230" lon="13.7458590">
        <ele>721.0</ele>
        <time>2019-08-06T15:19:44Z</time>
      </trkpt>
      <trkpt lat="48.7515290" lon="13.7458890">
        <ele>720.8</ele>
        <time>2019-08-06T15:19:45Z</time>
      </trkpt>
      <trkpt lat="48.7515400" lon="13.7459150">
        <ele>720.8</ele>
        <time>2019-08-06T15:19:46Z</time>
      </trkpt>
      <trkpt lat="48.7515540" lon="13.7459420">
        <ele>720.6</ele>
        <time>2019-08-06T15:19:47Z</time>
      </trkpt>
      <trkpt lat="48.7515720" lon="13.7459690">
        <ele>720.6</ele>
        <time>2019-08-06T15:19:48Z</time>
      </trkpt>
      <trkpt lat="48.7515950" lon="13.7459960">
        <ele>720.6</ele>
        <time>2019-08-06T15:19:49Z</time>
      </trkpt>
      <trkpt lat="48.7516220" lon="13.7460210">
        <ele>720.4</ele>
        <time>2019-08-06T15:19:50Z</time>
      </trkpt>
      <trkpt lat="48.7516550" lon="13.7460430">
        <ele>720.0</ele>
        <time>2019-08-06T15:19:51Z</time>
      </trkpt>
      <trkpt lat="48.7516980" lon="13.7460660">
        <ele>719.8</ele>
        <time>2019-08-06T15:19:52Z</time>
      </trkpt>
      <trkpt lat="48.7517490" lon="13.7460910">
        <ele>719.4</ele>
        <time>2019-08-06T15:19:53Z</time>
      </trkpt>
      <trkpt lat="48.7518080" lon="13.7461160">
        <ele>719.0</ele>
        <time>2019-08-06T15:19:54Z</time>
      </trkpt>
      <trkpt lat="48.7518720" lon="13.7461390">
        <ele>718.6</ele>
        <time>2019-08-06T15:19:55Z</time>
      </trkpt>
      <trkpt lat="48.7519360" lon="13.7461610">
        <ele>718.2</ele>
        <time>2019-08-06T15:19:56Z</time>
      </trkpt>
      <trkpt lat="48.7519940" lon="13.7461780">
        <ele>718.0</ele>
        <time>2019-08-06T15:19:57Z</time>
      </trkpt>
      <trkpt lat="48.7520490" lon="13.7461910">
        <ele>718.0</ele>
        <time>2019-08-06T15:19:58Z</time>
      </trkpt>
      <trkpt lat="48.7520970" lon="13.7462020">
        <ele>717.8</ele>
        <time>2019-08-06T15:19:59Z</time>
      </trkpt>
      <trkpt lat="48.7521440" lon="13.7462060">
        <ele>717.8</ele>
        <time>2019-08-06T15:20:00Z</time>
      </trkpt>
      <trkpt lat="48.7521890" lon="13.7462040">
        <ele>718.0</ele>
        <time>2019-08-06T15:20:01Z</time>
      </trkpt>
      <trkpt lat="48.7522290" lon="13.7462020">
        <ele>718.0</ele>
        <time>2019-08-06T15:20:02Z</time>
      </trkpt>
      <trkpt lat="48.7522640" lon="13.7462020">
        <ele>718.0</ele>
        <time>2019-08-06T15:20:03Z</time>
      </trkpt>
      <trkpt lat="48.7522980" lon="13.7462020">
        <ele>718.2</ele>
        <time>2019-08-06T15:20:04Z</time>
      </trkpt>
      <trkpt lat="48.7523360" lon="13.7462000">
        <ele>718.2</ele>
        <time>2019-08-06T15:20:05Z</time>
      </trkpt>
      <trkpt lat="48.7523810" lon="13.7461930">
        <ele>718.4</ele>
        <time>2019-08-06T15:20:06Z</time>
      </trkpt>
      <trkpt lat="48.7524360" lon="13.7461820">
        <ele>718.4</ele>
        <time>2019-08-06T15:20:07Z</time>
      </trkpt>
      <trkpt lat="48.7524860" lon="13.7461720">
        <ele>718.6</ele>
        <time>2019-08-06T15:20:08Z</time>
      </trkpt>
      <trkpt lat="48.7525350" lon="13.7461590">
        <ele>718.6</ele>
        <time>2019-08-06T15:20:09Z</time>
      </trkpt>
      <trkpt lat="48.7525810" lon="13.7461440">
        <ele>718.8</ele>
        <time>2019-08-06T15:20:10Z</time>
      </trkpt>
      <trkpt lat="48.7526280" lon="13.7461350">
        <ele>718.8</ele>
        <time>2019-08-06T15:20:11Z</time>
      </trkpt>
      <trkpt lat="48.7526740" lon="13.7461280">
        <ele>719.0</ele>
        <time>2019-08-06T15:20:12Z</time>
      </trkpt>
      <trkpt lat="48.7527200" lon="13.7461200">
        <ele>719.0</ele>
        <time>2019-08-06T15:20:13Z</time>
      </trkpt>
      <trkpt lat="48.7527650" lon="13.7461100">
        <ele>719.2</ele>
        <time>2019-08-06T15:20:14Z</time>
      </trkpt>
      <trkpt lat="48.7528100" lon="13.7460990">
        <ele>719.4</ele>
        <time>2019-08-06T15:20:15Z</time>
      </trkpt>
      <trkpt lat="48.7528500" lon="13.7460900">
        <ele>719.4</ele>
        <time>2019-08-06T15:20:16Z</time>
      </trkpt>
      <trkpt lat="48.7528930" lon="13.7460830">
        <ele>719.6</ele>
        <time>2019-08-06T15:20:17Z</time>
      </trkpt>
      <trkpt lat="48.7529350" lon="13.7460770">
        <ele>719.6</ele>
        <time>2019-08-06T15:20:18Z</time>
      </trkpt>
      <trkpt lat="48.7529800" lon="13.7460700">
        <ele>719.8</ele>
        <time>2019-08-06T15:20:19Z</time>
      </trkpt>
      <trkpt lat="48.7530230" lon="13.7460650">
        <ele>719.8</ele>
        <time>2019-08-06T15:20:20Z</time>
      </trkpt>
      <trkpt lat="48.7530650" lon="13.7460600">
        <ele>720.0</ele>
        <time>2019-08-06T15:20:21Z</time>
      </trkpt>
      <trkpt lat="48.7531080" lon="13.7460520">
        <ele>720.0</ele>
        <time>2019-08-06T15:20:22Z</time>
      </trkpt>
      <trkpt lat="48.7531490" lon="13.7460440">
        <ele>720.2</ele>
        <time>2019-08-06T15:20:23Z</time>
      </trkpt>
      <trkpt lat="48.7531910" lon="13.7460320">
        <ele>720.4</ele>
        <time>2019-08-06T15:20:24Z</time>
      </trkpt>
      <trkpt lat="48.7532290" lon="13.7460210">
        <ele>720.4</ele>
        <time>2019-08-06T15:20:25Z</time>
      </trkpt>
      <trkpt lat="48.7532650" lon="13.7460130">
        <ele>720.6</ele>
        <time>2019-08-06T15:20:26Z</time>
      </trkpt>
      <trkpt lat="48.7533020" lon="13.7460050">
        <ele>720.6</ele>
        <time>2019-08-06T15:20:27Z</time>
      </trkpt>
      <trkpt lat="48.7533370" lon="13.7459940">
        <ele>720.8</ele>
        <time>2019-08-06T15:20:28Z</time>
      </trkpt>
      <trkpt lat="48.7533760" lon="13.7459830">
        <ele>721.0</ele>
        <time>2019-08-06T15:20:29Z</time>
      </trkpt>
      <trkpt lat="48.7534170" lon="13.7459770">
        <ele>721.0</ele>
        <time>2019-08-06T15:20:30Z</time>
      </trkpt>
      <trkpt lat="48.7534590" lon="13.7459700">
        <ele>721.2</ele>
        <time>2019-08-06T15:20:31Z</time>
      </trkpt>
      <trkpt lat="48.7535000" lon="13.7459650">
        <ele>721.4</ele>
        <time>2019-08-06T15:20:32Z</time>
      </trkpt>
      <trkpt lat="48.7535370" lon="13.7459630">
        <ele>721.4</ele>
        <time>2019-08-06T15:20:33Z</time>
      </trkpt>
      <trkpt lat="48.7535700" lon="13.7459610">
        <ele>721.6</ele>
        <time>2019-08-06T15:20:34Z</time>
      </trkpt>
      <trkpt lat="48.7535950" lon="13.7459530">
        <ele>721.8</ele>
        <time>2019-08-06T15:20:35Z</time>
      </trkpt>
      <trkpt lat="48.7536250" lon="13.7459400">
        <ele>722.0</ele>
        <time>2019-08-06T15:20:36Z</time>
      </trkpt>
      <trkpt lat="48.7536500" lon="13.7459360">
        <ele>722.0</ele>
        <time>2019-08-06T15:20:37Z</time>
      </trkpt>
      <trkpt lat="48.7536720" lon="13.7459320">
        <ele>722.2</ele>
        <time>2019-08-06T15:20:38Z</time>
      </trkpt>
      <trkpt lat="48.7536980" lon="13.7459280">
        <ele>722.4</ele>
        <time>2019-08-06T15:20:39Z</time>
      </trkpt>
      <trkpt lat="48.7537310" lon="13.7459240">
        <ele>722.4</ele>
        <time>2019-08-06T15:20:40Z</time>
      </trkpt>
      <trkpt lat="48.7537680" lon="13.7459140">
        <ele>722.6</ele>
        <time>2019-08-06T15:20:41Z</time>
      </trkpt>
      <trkpt lat="48.7538050" lon="13.7459050">
        <ele>722.8</ele>
        <time>2019-08-06T15:20:42Z</time>
      </trkpt>
      <trkpt lat="48.7538410" lon="13.7459010">
        <ele>722.8</ele>
        <time>2019-08-06T15:20:43Z</time>
      </trkpt>
      <trkpt lat="48.7538740" lon="13.7458990">
        <ele>723.0</ele>
        <time>2019-08-06T15:20:44Z</time>
      </trkpt>
      <trkpt lat="48.7539100" lon="13.7458950">
        <ele>723.0</ele>
        <time>2019-08-06T15:20:45Z</time>
      </trkpt>
      <trkpt lat="48.7539530" lon="13.7458880">
        <ele>723.2</ele>
        <time>2019-08-06T15:20:46Z</time>
      </trkpt>
      <trkpt lat="48.7539930" lon="13.7458820">
        <ele>723.4</ele>
        <time>2019-08-06T15:20:47Z</time>
      </trkpt>
      <trkpt lat="48.7540310" lon="13.7458750">
        <ele>723.4</ele>
        <time>2019-08-06T15:20:48Z</time>
      </trkpt>
      <trkpt lat="48.7540680" lon="13.7458670">
        <ele>723.6</ele>
        <time>2019-08-06T15:20:49Z</time>
      </trkpt>
      <trkpt lat="48.7541060" lon="13.7458600">
        <ele>723.8</ele>
        <time>2019-08-06T15:20:50Z</time>
      </trkpt>
      <trkpt lat="48.7541420" lon="13.7458520">
        <ele>723.8</ele>
        <time>2019-08-06T15:20:51Z</time>
      </trkpt>
      <trkpt lat="48.7541780" lon="13.7458450">
        <ele>724.0</ele>
        <time>2019-08-06T15:20:52Z</time>
      </trkpt>
      <trkpt lat="48.7542130" lon="13.7458380">
        <ele>724.0</ele>
        <time>2019-08-06T15:20:53Z</time>
      </trkpt>
      <trkpt lat="48.7542460" lon="13.7458320">
        <ele>724.2</ele>
        <time>2019-08-06T15:20:54Z</time>
      </trkpt>
      <trkpt lat="48.7542740" lon="13.7458290">
        <ele>724.2</ele>
        <time>2019-08-06T15:20:55Z</time>
      </trkpt>
      <trkpt lat="48.7543170" lon="13.7458160">
        <ele>724.4</ele>
        <time>2019-08-06T15:20:56Z</time>
      </trkpt>
      <trkpt lat="48.7543320" lon="13.7458090">
        <ele>724.6</ele>
        <time>2019-08-06T15:20:57Z</time>
      </trkpt>
      <trkpt lat="48.7543660" lon="13.7458000">
        <ele>724.6</ele>
        <time>2019-08-06T15:20:58Z</time>
      </trkpt>
      <trkpt lat="48.7544040" lon="13.7457950">
        <ele>724.8</ele>
        <time>2019-08-06T15:20:59Z</time>
      </trkpt>
      <trkpt lat="48.7544430" lon="13.7457870">
        <ele>724.8</ele>
        <time>2019-08-06T15:21:00Z</time>
      </trkpt>
      <trkpt lat="48.7544760" lon="13.7457810">
        <ele>725.0</ele>
        <time>2019-08-06T15:21:01Z</time>
      </trkpt>
      <trkpt lat="48.7545090" lon="13.7457700">
        <ele>725.2</ele>
        <time>2019-08-06T15:21:02Z</time>
      </trkpt>
      <trkpt lat="48.7545420" lon="13.7457610">
        <ele>725.2</ele>
        <time>2019-08-06T15:21:03Z</time>
      </trkpt>
      <trkpt lat="48.7545780" lon="13.7457470">
        <ele>725.4</ele>
        <time>2019-08-06T15:21:04Z</time>
      </trkpt>
      <trkpt lat="48.7546150" lon="13.7457370">
        <ele>725.6</ele>
        <time>2019-08-06T15:21:05Z</time>
      </trkpt>
      <trkpt lat="48.7546500" lon="13.7457250">
        <ele>725.6</ele>
        <time>2019-08-06T15:21:06Z</time>
      </trkpt>
      <trkpt lat="48.7546790" lon="13.7457190">
        <ele>725.8</ele>
        <time>2019-08-06T15:21:07Z</time>
      </trkpt>
      <trkpt lat="48.7547150" lon="13.7457250">
        <ele>726.0</ele>
        <time>2019-08-06T15:21:08Z</time>
      </trkpt>
      <trkpt lat="48.7547460" lon="13.7457290">
        <ele>726.0</ele>
        <time>2019-08-06T15:21:09Z</time>
      </trkpt>
      <trkpt lat="48.7547760" lon="13.7457320">
        <ele>726.2</ele>
        <time>2019-08-06T15:21:10Z</time>
      </trkpt>
      <trkpt lat="48.7548050" lon="13.7457280">
        <ele>726.4</ele>
        <time>2019-08-06T15:21:11Z</time>
      </trkpt>
      <trkpt lat="48.7548390" lon="13.7457130">
        <ele>726.6</ele>
        <time>2019-08-06T15:21:12Z</time>
      </trkpt>
      <trkpt lat="48.7548800" lon="13.7457060">
        <ele>726.8</ele>
        <time>2019-08-06T15:21:13Z</time>
      </trkpt>
      <trkpt lat="48.7549140" lon="13.7456980">
        <ele>726.8</ele>
        <time>2019-08-06T15:21:14Z</time>
      </trkpt>
      <trkpt lat="48.7549430" lon="13.7456910">
        <ele>727.0</ele>
        <time>2019-08-06T15:21:15Z</time>
      </trkpt>
      <trkpt lat="48.7549710" lon="13.7456830">
        <ele>727.2</ele>
        <time>2019-08-06T15:21:16Z</time>
      </trkpt>
      <trkpt lat="48.7549950" lon="13.7456790">
        <ele>727.2</ele>
        <time>2019-08-06T15:21:17Z</time>
      </trkpt>
      <trkpt lat="48.7550210" lon="13.7456800">
        <ele>727.4</ele>
        <time>2019-08-06T15:21:18Z</time>
      </trkpt>
      <trkpt lat="48.7550530" lon="13.7456890">
        <ele>727.6</ele>
        <time>2019-08-06T15:21:19Z</time>
      </trkpt>
      <trkpt lat="48.7550900" lon="13.7456880">
        <ele>727.6</ele>
        <time>2019-08-06T15:21:20Z</time>
      </trkpt>
      <trkpt lat="48.7551240" lon="13.7456750">
        <ele>727.8</ele>
        <time>2019-08-06T15:21:21Z</time>
      </trkpt>
      <trkpt lat="48.7551570" lon="13.7456560">
        <ele>727.8</ele>
        <time>2019-08-06T15:21:22Z</time>
      </trkpt>
      <trkpt lat="48.7551870" lon="13.7456470">
        <ele>728.0</ele>
        <time>2019-08-06T15:21:23Z</time>
      </trkpt>
      <trkpt lat="48.7552370" lon="13.7456400">
        <ele>728.2</ele>
        <time>2019-08-06T15:21:24Z</time>
      </trkpt>
      <trkpt lat="48.7552920" lon="13.7456350">
        <ele>728.2</ele>
        <time>2019-08-06T15:21:25Z</time>
      </trkpt>
      <trkpt lat="48.7553200" lon="13.7456230">
        <ele>728.4</ele>
        <time>2019-08-06T15:21:26Z</time>
      </trkpt>
      <trkpt lat="48.7553490" lon="13.7456110">
        <ele>728.4</ele>
        <time>2019-08-06T15:21:27Z</time>
      </trkpt>
      <trkpt lat="48.7553820" lon="13.7456000">
        <ele>728.6</ele>
        <time>2019-08-06T15:21:28Z</time>
      </trkpt>
      <trkpt lat="48.7554090" lon="13.7455760">
        <ele>728.6</ele>
        <time>2019-08-06T15:21:29Z</time>
      </trkpt>
      <trkpt lat="48.7554410" lon="13.7455590">
        <ele>728.8</ele>
        <time>2019-08-06T15:21:30Z</time>
      </trkpt>
      <trkpt lat="48.7554790" lon="13.7455600">
        <ele>729.0</ele>
        <time>2019-08-06T15:21:31Z</time>
      </trkpt>
      <trkpt lat="48.7555180" lon="13.7455480">
        <ele>729.0</ele>
        <time>2019-08-06T15:21:32Z</time>
      </trkpt>
      <trkpt lat="48.7555550" lon="13.7455270">
        <ele>729.2</ele>
        <time>2019-08-06T15:21:33Z</time>
      </trkpt>
      <trkpt lat="48.7555880" lon="13.7455050">
        <ele>729.4</ele>
        <time>2019-08-06T15:21:34Z</time>
      </trkpt>
      <trkpt lat="48.7556320" lon="13.7454820">
        <ele>729.4</ele>
        <time>2019-08-06T15:21:35Z</time>
      </trkpt>
      <trkpt lat="48.7556850" lon="13.7454550">
        <ele>729.6</ele>
        <time>2019-08-06T15:21:36Z</time>
      </trkpt>
      <trkpt lat="48.7557310" lon="13.7454390">
        <ele>729.8</ele>
        <time>2019-08-06T15:21:37Z</time>
      </trkpt>
      <trkpt lat="48.7557750" lon="13.7454110">
        <ele>729.8</ele>
        <time>2019-08-06T15:21:38Z</time>
      </trkpt>
      <trkpt lat="48.7558180" lon="13.7453800">
        <ele>730.0</ele>
        <time>2019-08-06T15:21:39Z</time>
      </trkpt>
      <trkpt lat="48.7558660" lon="13.7453540">
        <ele>730.0</ele>
        <time>2019-08-06T15:21:40Z</time>
      </trkpt>
      <trkpt lat="48.7559070" lon="13.7453310">
        <ele>730.2</ele>
        <time>2019-08-06T15:21:41Z</time>
      </trkpt>
      <trkpt lat="48.7559510" lon="13.7453090">
        <ele>730.4</ele>
        <time>2019-08-06T15:21:42Z</time>
      </trkpt>
      <trkpt lat="48.7559960" lon="13.7452900">
        <ele>730.4</ele>
        <time>2019-08-06T15:21:43Z</time>
      </trkpt>
      <trkpt lat="48.7560320" lon="13.7452640">
        <ele>730.6</ele>
        <time>2019-08-06T15:21:44Z</time>
      </trkpt>
      <trkpt lat="48.7560720" lon="13.7452340">
        <ele>730.6</ele>
        <time>2019-08-06T15:21:45Z</time>
      </trkpt>
      <trkpt lat="48.7561060" lon="13.7452050">
        <ele>730.8</ele>
        <time>2019-08-06T15:21:46Z</time>
      </trkpt>
      <trkpt lat="48.7561480" lon="13.7451830">
        <ele>730.8</ele>
        <time>2019-08-06T15:21:47Z</time>
      </trkpt>
      <trkpt lat="48.7561880" lon="13.7451580">
        <ele>731.0</ele>
        <time>2019-08-06T15:21:48Z</time>
      </trkpt>
      <trkpt lat="48.7562300" lon="13.7451290">
        <ele>731.2</ele>
        <time>2019-08-06T15:21:49Z</time>
      </trkpt>
      <trkpt lat="48.7562830" lon="13.7451060">
        <ele>731.2</ele>
        <time>2019-08-06T15:21:50Z</time>
      </trkpt>
      <trkpt lat="48.7563290" lon="13.7450770">
        <ele>731.4</ele>
        <time>2019-08-06T15:21:51Z</time>
      </trkpt>
      <trkpt lat="48.7563690" lon="13.7450450">
        <ele>731.6</ele>
        <time>2019-08-06T15:21:52Z</time>
      </trkpt>
      <trkpt lat="48.7564050" lon="13.7450170">
        <ele>731.6</ele>
        <time>2019-08-06T15:21:53Z</time>
      </trkpt>
      <trkpt lat="48.7564410" lon="13.7449980">
        <ele>731.8</ele>
        <time>2019-08-06T15:21:54Z</time>
      </trkpt>
      <trkpt lat="48.7564740" lon="13.7449840">
        <ele>731.8</ele>
        <time>2019-08-06T15:21:55Z</time>
      </trkpt>
      <trkpt lat="48.7565110" lon="13.7449630">
        <ele>732.0</ele>
        <time>2019-08-06T15:21:56Z</time>
      </trkpt>
      <trkpt lat="48.7565400" lon="13.7449480">
        <ele>732.2</ele>
        <time>2019-08-06T15:21:57Z</time>
      </trkpt>
      <trkpt lat="48.7565750" lon="13.7449270">
        <ele>732.2</ele>
        <time>2019-08-06T15:21:58Z</time>
      </trkpt>
      <trkpt lat="48.7566160" lon="13.7448920">
        <ele>732.4</ele>
        <time>2019-08-06T15:21:59Z</time>
      </trkpt>
      <trkpt lat="48.7566520" lon="13.7448680">
        <ele>732.4</ele>
        <time>2019-08-06T15:22:00Z</time>
      </trkpt>
      <trkpt lat="48.7566830" lon="13.7448430">
        <ele>732.6</ele>
        <time>2019-08-06T15:22:01Z</time>
      </trkpt>
      <trkpt lat="48.7567130" lon="13.7448250">
        <ele>732.6</ele>
        <time>2019-08-06T15:22:02Z</time>
      </trkpt>
      <trkpt lat="48.7567510" lon="13.7447990">
        <ele>732.8</ele>
        <time>2019-08-06T15:22:03Z</time>
      </trkpt>
      <trkpt lat="48.7567810" lon="13.7447780">
        <ele>733.0</ele>
        <time>2019-08-06T15:22:04Z</time>
      </trkpt>
      <trkpt lat="48.7568140" lon="13.7447590">
        <ele>733.0</ele>
        <time>2019-08-06T15:22:05Z</time>
      </trkpt>
      <trkpt lat="48.7568490" lon="13.7447480">
        <ele>733.2</ele>
        <time>2019-08-06T15:22:06Z</time>
      </trkpt>
      <trkpt lat="48.7568810" lon="13.7447380">
        <ele>733.2</ele>
        <time>2019-08-06T15:22:07Z</time>
      </trkpt>
      <trkpt lat="48.7569150" lon="13.7447250">
        <ele>733.4</ele>
        <time>2019-08-06T15:22:08Z</time>
      </trkpt>
      <trkpt lat="48.7569490" lon="13.7447160">
        <ele>733.6</ele>
        <time>2019-08-06T15:22:09Z</time>
      </trkpt>
      <trkpt lat="48.7569870" lon="13.7447090">
        <ele>733.6</ele>
        <time>2019-08-06T15:22:10Z</time>
      </trkpt>
      <trkpt lat="48.7570310" lon="13.7447130">
        <ele>733.8</ele>
        <time>2019-08-06T15:22:11Z</time>
      </trkpt>
      <trkpt lat="48.7570710" lon="13.7447190">
        <ele>733.8</ele>
        <time>2019-08-06T15:22:12Z</time>
      </trkpt>
      <trkpt lat="48.7571080" lon="13.7447200">
        <ele>734.0</ele>
        <time>2019-08-06T15:22:13Z</time>
      </trkpt>
      <trkpt lat="48.7571460" lon="13.7447220">
        <ele>734.2</ele>
        <time>2019-08-06T15:22:14Z</time>
      </trkpt>
      <trkpt lat="48.7571830" lon="13.7447260">
        <ele>734.2</ele>
        <time>2019-08-06T15:22:15Z</time>
      </trkpt>
      <trkpt lat="48.7572210" lon="13.7447380">
        <ele>734.4</ele>
        <time>2019-08-06T15:22:16Z</time>
      </trkpt>
      <trkpt lat="48.7572690" lon="13.7447590">
        <ele>734.6</ele>
        <time>2019-08-06T15:22:17Z</time>
      </trkpt>
      <trkpt lat="48.7573160" lon="13.7447830">
        <ele>734.8</ele>
        <time>2019-08-06T15:22:18Z</time>
      </trkpt>
      <trkpt lat="48.7573610" lon="13.7448060">
        <ele>734.8</ele>
        <time>2019-08-06T15:22:19Z</time>
      </trkpt>
      <trkpt lat="48.7574010" lon="13.7448250">
        <ele>735.0</ele>
        <time>2019-08-06T15:22:20Z</time>
      </trkpt>
      <trkpt lat="48.7574360" lon="13.7448340">
        <ele>735.0</ele>
        <time>2019-08-06T15:22:21Z</time>
      </trkpt>
      <trkpt lat="48.7574760" lon="13.7448450">
        <ele>735.2</ele>
        <time>2019-08-06T15:22:22Z</time>
      </trkpt>
      <trkpt lat="48.7575140" lon="13.7448620">
        <ele>735.2</ele>
        <time>2019-08-06T15:22:23Z</time>
      </trkpt>
      <trkpt lat="48.7575520" lon="13.7448850">
        <ele>735.4</ele>
        <time>2019-08-06T15:22:24Z</time>
      </trkpt>
      <trkpt lat="48.7576000" lon="13.7449130">
        <ele>735.6</ele>
        <time>2019-08-06T15:22:25Z</time>
      </trkpt>
      <trkpt lat="48.7576400" lon="13.7449390">
        <ele>735.6</ele>
        <time>2019-08-06T15:22:26Z</time>
      </trkpt>
      <trkpt lat="48.7576810" lon="13.7449710">
        <ele>735.8</ele>
        <time>2019-08-06T15:22:27Z</time>
      </trkpt>
      <trkpt lat="48.7577190" lon="13.7450020">
        <ele>735.8</ele>
        <time>2019-08-06T15:22:28Z</time>
      </trkpt>
      <trkpt lat="48.7577570" lon="13.7450340">
        <ele>736.0</ele>
        <time>2019-08-06T15:22:29Z</time>
      </trkpt>
      <trkpt lat="48.7577910" lon="13.7450680">
        <ele>736.0</ele>
        <time>2019-08-06T15:22:30Z</time>
      </trkpt>
      <trkpt lat="48.7578310" lon="13.7451030">
        <ele>736.2</ele>
        <time>2019-08-06T15:22:31Z</time>
      </trkpt>
      <trkpt lat="48.7578690" lon="13.7451450">
        <ele>736.2</ele>
        <time>2019-08-06T15:22:32Z</time>
      </trkpt>
      <trkpt lat="48.7579070" lon="13.7451910">
        <ele>736.4</ele>
        <time>2019-08-06T15:22:33Z</time>
      </trkpt>
      <trkpt lat="48.7579500" lon="13.7452390">
        <ele>736.4</ele>
        <time>2019-08-06T15:22:34Z</time>
      </trkpt>
      <trkpt lat="48.7580070" lon="13.7452880">
        <ele>736.6</ele>
        <time>2019-08-06T15:22:35Z</time>
      </trkpt>
      <trkpt lat="48.7580670" lon="13.7453410">
        <ele>736.8</ele>
        <time>2019-08-06T15:22:36Z</time>
      </trkpt>
      <trkpt lat="48.7581090" lon="13.7453930">
        <ele>737.0</ele>
        <time>2019-08-06T15:22:37Z</time>
      </trkpt>
      <trkpt lat="48.7581460" lon="13.7454370">
        <ele>737.0</ele>
        <time>2019-08-06T15:22:38Z</time>
      </trkpt>
      <trkpt lat="48.7581880" lon="13.7454830">
        <ele>737.2</ele>
        <time>2019-08-06T15:22:39Z</time>
      </trkpt>
      <trkpt lat="48.7582320" lon="13.7455310">
        <ele>737.4</ele>
        <time>2019-08-06T15:22:40Z</time>
      </trkpt>
      <trkpt lat="48.7582730" lon="13.7455730">
        <ele>737.6</ele>
        <time>2019-08-06T15:22:41Z</time>
      </trkpt>
      <trkpt lat="48.7583090" lon="13.7456190">
        <ele>737.8</ele>
        <time>2019-08-06T15:22:42Z</time>
      </trkpt>
      <trkpt lat="48.7583380" lon="13.7456680">
        <ele>737.8</ele>
        <time>2019-08-06T15:22:43Z</time>
      </trkpt>
      <trkpt lat="48.7583690" lon="13.7457200">
        <ele>738.0</ele>
        <time>2019-08-06T15:22:44Z</time>
      </trkpt>
      <trkpt lat="48.7583960" lon="13.7457710">
        <ele>738.2</ele>
        <time>2019-08-06T15:22:45Z</time>
      </trkpt>
      <trkpt lat="48.7584220" lon="13.7458240">
        <ele>738.2</ele>
        <time>2019-08-06T15:22:46Z</time>
      </trkpt>
      <trkpt lat="48.7584480" lon="13.7458730">
        <ele>738.4</ele>
        <time>2019-08-06T15:22:47Z</time>
      </trkpt>
      <trkpt lat="48.7584730" lon="13.7459230">
        <ele>738.6</ele>
        <time>2019-08-06T15:22:48Z</time>
      </trkpt>
      <trkpt lat="48.7585000" lon="13.7459730">
        <ele>738.6</ele>
        <time>2019-08-06T15:22:49Z</time>
      </trkpt>
      <trkpt lat="48.7585330" lon="13.7460200">
        <ele>738.8</ele>
        <time>2019-08-06T15:22:50Z</time>
      </trkpt>
      <trkpt lat="48.7585620" lon="13.7460730">
        <ele>739.0</ele>
        <time>2019-08-06T15:22:51Z</time>
      </trkpt>
      <trkpt lat="48.7585820" lon="13.7461350">
        <ele>739.0</ele>
        <time>2019-08-06T15:22:52Z</time>
      </trkpt>
      <trkpt lat="48.7586000" lon="13.7461930">
        <ele>739.2</ele>
        <time>2019-08-06T15:22:53Z</time>
      </trkpt>
      <trkpt lat="48.7586170" lon="13.7462540">
        <ele>739.4</ele>
        <time>2019-08-06T15:22:54Z</time>
      </trkpt>
      <trkpt lat="48.7586330" lon="13.7463120">
        <ele>739.4</ele>
        <time>2019-08-06T15:22:55Z</time>
      </trkpt>
      <trkpt lat="48.7586520" lon="13.7463690">
        <ele>739.6</ele>
        <time>2019-08-06T15:22:56Z</time>
      </trkpt>
      <trkpt lat="48.7586690" lon="13.7464310">
        <ele>739.6</ele>
        <time>2019-08-06T15:22:57Z</time>
      </trkpt>
      <trkpt lat="48.7586850" lon="13.7464970">
        <ele>739.8</ele>
        <time>2019-08-06T15:22:58Z</time>
      </trkpt>
      <trkpt lat="48.7587010" lon="13.7465560">
        <ele>739.8</ele>
        <time>2019-08-06T15:22:59Z</time>
      </trkpt>
      <trkpt lat="48.7587140" lon="13.7466180">
        <ele>740.0</ele>
        <time>2019-08-06T15:23:00Z</time>
      </trkpt>
      <trkpt lat="48.7587300" lon="13.7466760">
        <ele>740.0</ele>
        <time>2019-08-06T15:23:01Z</time>
      </trkpt>
      <trkpt lat="48.7587480" lon="13.7467420">
        <ele>740.2</ele>
        <time>2019-08-06T15:23:02Z</time>
      </trkpt>
      <trkpt lat="48.7587640" lon="13.7468040">
        <ele>740.4</ele>
        <time>2019-08-06T15:23:03Z</time>
      </trkpt>
      <trkpt lat="48.7587790" lon="13.7468670">
        <ele>740.4</ele>
        <time>2019-08-06T15:23:04Z</time>
      </trkpt>
      <trkpt lat="48.7587870" lon="13.7469310">
        <ele>740.6</ele>
        <time>2019-08-06T15:23:05Z</time>
      </trkpt>
      <trkpt lat="48.7587990" lon="13.7470020">
        <ele>740.6</ele>
        <time>2019-08-06T15:23:06Z</time>
      </trkpt>
      <trkpt lat="48.7588100" lon="13.7470700">
        <ele>740.8</ele>
        <time>2019-08-06T15:23:07Z</time>
      </trkpt>
      <trkpt lat="48.7588180" lon="13.7471290">
        <ele>741.0</ele>
        <time>2019-08-06T15:23:08Z</time>
      </trkpt>
      <trkpt lat="48.7588250" lon="13.7471890">
        <ele>741.0</ele>
        <time>2019-08-06T15:23:09Z</time>
      </trkpt>
      <trkpt lat="48.7588300" lon="13.7472470">
        <ele>741.2</ele>
        <time>2019-08-06T15:23:10Z</time>
      </trkpt>
      <trkpt lat="48.7588340" lon="13.7473070">
        <ele>741.4</ele>
        <time>2019-08-06T15:23:11Z</time>
      </trkpt>
      <trkpt lat="48.7588360" lon="13.7473670">
        <ele>741.6</ele>
        <time>2019-08-06T15:23:12Z</time>
      </trkpt>
      <trkpt lat="48.7588420" lon="13.7474250">
        <ele>741.6</ele>
        <time>2019-08-06T15:23:13Z</time>
      </trkpt>
      <trkpt lat="48.7588510" lon="13.7474860">
        <ele>741.8</ele>
        <time>2019-08-06T15:23:14Z</time>
      </trkpt>
      <trkpt lat="48.7588610" lon="13.7475460">
        <ele>742.0</ele>
        <time>2019-08-06T15:23:15Z</time>
      </trkpt>
      <trkpt lat="48.7588710" lon="13.7476090">
        <ele>742.0</ele>
        <time>2019-08-06T15:23:16Z</time>
      </trkpt>
      <trkpt lat="48.7588810" lon="13.7476710">
        <ele>742.2</ele>
        <time>2019-08-06T15:23:17Z</time>
      </trkpt>
      <trkpt lat="48.7588910" lon="13.7477320">
        <ele>742.2</ele>
        <time>2019-08-06T15:23:18Z</time>
      </trkpt>
      <trkpt lat="48.7589010" lon="13.7477900">
        <ele>742.4</ele>
        <time>2019-08-06T15:23:19Z</time>
      </trkpt>
      <trkpt lat="48.7589090" lon="13.7478390">
        <ele>742.6</ele>
        <time>2019-08-06T15:23:20Z</time>
      </trkpt>
      <trkpt lat="48.7589130" lon="13.7478830">
        <ele>742.6</ele>
        <time>2019-08-06T15:23:21Z</time>
      </trkpt>
      <trkpt lat="48.7589190" lon="13.7479290">
        <ele>742.8</ele>
        <time>2019-08-06T15:23:22Z</time>
      </trkpt>
      <trkpt lat="48.7589310" lon="13.7479850">
        <ele>743.0</ele>
        <time>2019-08-06T15:23:23Z</time>
      </trkpt>
      <trkpt lat="48.7589430" lon="13.7480410">
        <ele>743.0</ele>
        <time>2019-08-06T15:23:24Z</time>
      </trkpt>
      <trkpt lat="48.7589570" lon="13.7480980">
        <ele>743.2</ele>
        <time>2019-08-06T15:23:25Z</time>
      </trkpt>
      <trkpt lat="48.7589690" lon="13.7481500">
        <ele>743.2</ele>
        <time>2019-08-06T15:23:26Z</time>
      </trkpt>
      <trkpt lat="48.7589810" lon="13.7482160">
        <ele>743.4</ele>
        <time>2019-08-06T15:23:27Z</time>
      </trkpt>
      <trkpt lat="48.7589930" lon="13.7482750">
        <ele>743.6</ele>
        <time>2019-08-06T15:23:28Z</time>
      </trkpt>
      <trkpt lat="48.7590050" lon="13.7483320">
        <ele>743.8</ele>
        <time>2019-08-06T15:23:29Z</time>
      </trkpt>
      <trkpt lat="48.7590190" lon="13.7483890">
        <ele>743.8</ele>
        <time>2019-08-06T15:23:30Z</time>
      </trkpt>
      <trkpt lat="48.7590330" lon="13.7484440">
        <ele>744.0</ele>
        <time>2019-08-06T15:23:31Z</time>
      </trkpt>
      <trkpt lat="48.7590460" lon="13.7484960">
        <ele>744.0</ele>
        <time>2019-08-06T15:23:32Z</time>
      </trkpt>
      <trkpt lat="48.7590610" lon="13.7485500">
        <ele>744.2</ele>
        <time>2019-08-06T15:23:33Z</time>
      </trkpt>
      <trkpt lat="48.7590800" lon="13.7486030">
        <ele>744.4</ele>
        <time>2019-08-06T15:23:34Z</time>
      </trkpt>
      <trkpt lat="48.7590980" lon="13.7486550">
        <ele>744.4</ele>
        <time>2019-08-06T15:23:35Z</time>
      </trkpt>
      <trkpt lat="48.7591170" lon="13.7487070">
        <ele>744.6</ele>
        <time>2019-08-06T15:23:36Z</time>
      </trkpt>
      <trkpt lat="48.7591380" lon="13.7487600">
        <ele>744.6</ele>
        <time>2019-08-06T15:23:37Z</time>
      </trkpt>
      <trkpt lat="48.7591570" lon="13.7488140">
        <ele>744.8</ele>
        <time>2019-08-06T15:23:38Z</time>
      </trkpt>
      <trkpt lat="48.7591800" lon="13.7488640">
        <ele>744.8</ele>
        <time>2019-08-06T15:23:39Z</time>
      </trkpt>
      <trkpt lat="48.7592040" lon="13.7489160">
        <ele>745.0</ele>
        <time>2019-08-06T15:23:40Z</time>
      </trkpt>
      <trkpt lat="48.7592260" lon="13.7489730">
        <ele>745.2</ele>
        <time>2019-08-06T15:23:41Z</time>
      </trkpt>
      <trkpt lat="48.7592470" lon="13.7490290">
        <ele>745.2</ele>
        <time>2019-08-06T15:23:42Z</time>
      </trkpt>
      <trkpt lat="48.7592700" lon="13.7490810">
        <ele>745.4</ele>
        <time>2019-08-06T15:23:43Z</time>
      </trkpt>
      <trkpt lat="48.7592940" lon="13.7491300">
        <ele>745.4</ele>
        <time>2019-08-06T15:23:44Z</time>
      </trkpt>
      <trkpt lat="48.7593180" lon="13.7491770">
        <ele>745.6</ele>
        <time>2019-08-06T15:23:45Z</time>
      </trkpt>
      <trkpt lat="48.7593420" lon="13.7492240">
        <ele>745.6</ele>
        <time>2019-08-06T15:23:46Z</time>
      </trkpt>
      <trkpt lat="48.7593670" lon="13.7492700">
        <ele>745.8</ele>
        <time>2019-08-06T15:23:47Z</time>
      </trkpt>
      <trkpt lat="48.7593920" lon="13.7493140">
        <ele>746.0</ele>
        <time>2019-08-06T15:23:48Z</time>
      </trkpt>
      <trkpt lat="48.7594180" lon="13.7493550">
        <ele>746.0</ele>
        <time>2019-08-06T15:23:49Z</time>
      </trkpt>
      <trkpt lat="48.7594440" lon="13.7493920">
        <ele>746.2</ele>
        <time>2019-08-06T15:23:50Z</time>
      </trkpt>
      <trkpt lat="48.7594720" lon="13.7494300">
        <ele>746.2</ele>
        <time>2019-08-06T15:23:51Z</time>
      </trkpt>
      <trkpt lat="48.7595030" lon="13.7494680">
        <ele>746.4</ele>
        <time>2019-08-06T15:23:52Z</time>
      </trkpt>
      <trkpt lat="48.7595360" lon="13.7495040">
        <ele>746.6</ele>
        <time>2019-08-06T15:23:53Z</time>
      </trkpt>
      <trkpt lat="48.7595640" lon="13.7495370">
        <ele>746.6</ele>
        <time>2019-08-06T15:23:54Z</time>
      </trkpt>
      <trkpt lat="48.7595930" lon="13.7495670">
        <ele>746.8</ele>
        <time>2019-08-06T15:23:55Z</time>
      </trkpt>
      <trkpt lat="48.7596260" lon="13.7495970">
        <ele>747.0</ele>
        <time>2019-08-06T15:23:56Z</time>
      </trkpt>
      <trkpt lat="48.7596650" lon="13.7496250">
        <ele>747.0</ele>
        <time>2019-08-06T15:23:57Z</time>
      </trkpt>
      <trkpt lat="48.7597030" lon="13.7496590">
        <ele>747.2</ele>
        <time>2019-08-06T15:23:58Z</time>
      </trkpt>
      <trkpt lat="48.7597420" lon="13.7496910">
        <ele>747.2</ele>
        <time>2019-08-06T15:23:59Z</time>
      </trkpt>
      <trkpt lat="48.7597780" lon="13.7497160">
        <ele>747.4</ele>
        <time>2019-08-06T15:24:00Z</time>
      </trkpt>
      <trkpt lat="48.7598140" lon="13.7497380">
        <ele>747.6</ele>
        <time>2019-08-06T15:24:01Z</time>
      </trkpt>
      <trkpt lat="48.7598490" lon="13.7497590">
        <ele>747.6</ele>
        <time>2019-08-06T15:24:02Z</time>
      </trkpt>
      <trkpt lat="48.7598820" lon="13.7497760">
        <ele>747.8</ele>
        <time>2019-08-06T15:24:03Z</time>
      </trkpt>
      <trkpt lat="48.7599180" lon="13.7497900">
        <ele>747.8</ele>
        <time>2019-08-06T15:24:04Z</time>
      </trkpt>
      <trkpt lat="48.7599550" lon="13.7498050">
        <ele>748.0</ele>
        <time>2019-08-06T15:24:05Z</time>
      </trkpt>
      <trkpt lat="48.7599930" lon="13.7498160">
        <ele>748.0</ele>
        <time>2019-08-06T15:24:06Z</time>
      </trkpt>
      <trkpt lat="48.7600310" lon="13.7498210">
        <ele>748.2</ele>
        <time>2019-08-06T15:24:07Z</time>
      </trkpt>
      <trkpt lat="48.7600720" lon="13.7498280">
        <ele>748.2</ele>
        <time>2019-08-06T15:24:08Z</time>
      </trkpt>
      <trkpt lat="48.7601150" lon="13.7498390">
        <ele>748.4</ele>
        <time>2019-08-06T15:24:09Z</time>
      </trkpt>
      <trkpt lat="48.7601570" lon="13.7498530">
        <ele>748.6</ele>
        <time>2019-08-06T15:24:10Z</time>
      </trkpt>
      <trkpt lat="48.7602010" lon="13.7498660">
        <ele>748.6</ele>
        <time>2019-08-06T15:24:11Z</time>
      </trkpt>
      <trkpt lat="48.7602410" lon="13.7498750">
        <ele>748.8</ele>
        <time>2019-08-06T15:24:12Z</time>
      </trkpt>
      <trkpt lat="48.7602780" lon="13.7498810">
        <ele>748.8</ele>
        <time>2019-08-06T15:24:13Z</time>
      </trkpt>
      <trkpt lat="48.7603140" lon="13.7498850">
        <ele>749.0</ele>
        <time>2019-08-06T15:24:14Z</time>
      </trkpt>
      <trkpt lat="48.7603490" lon="13.7498870">
        <ele>749.0</ele>
        <time>2019-08-06T15:24:15Z</time>
      </trkpt>
      <trkpt lat="48.7603810" lon="13.7498880">
        <ele>749.2</ele>
        <time>2019-08-06T15:24:16Z</time>
      </trkpt>
      <trkpt lat="48.7604130" lon="13.7498850">
        <ele>749.2</ele>
        <time>2019-08-06T15:24:17Z</time>
      </trkpt>
      <trkpt lat="48.7604490" lon="13.7498750">
        <ele>749.4</ele>
        <time>2019-08-06T15:24:18Z</time>
      </trkpt>
      <trkpt lat="48.7604880" lon="13.7498610">
        <ele>749.4</ele>
        <time>2019-08-06T15:24:19Z</time>
      </trkpt>
      <trkpt lat="48.7605260" lon="13.7498440">
        <ele>749.6</ele>
        <time>2019-08-06T15:24:20Z</time>
      </trkpt>
      <trkpt lat="48.7605660" lon="13.7498270">
        <ele>749.8</ele>
        <time>2019-08-06T15:24:21Z</time>
      </trkpt>
      <trkpt lat="48.7606050" lon="13.7498170">
        <ele>749.8</ele>
        <time>2019-08-06T15:24:22Z</time>
      </trkpt>
      <trkpt lat="48.7606440" lon="13.7498100">
        <ele>749.8</ele>
        <time>2019-08-06T15:24:23Z</time>
      </trkpt>
      <trkpt lat="48.7606840" lon="13.7498030">
        <ele>750.0</ele>
        <time>2019-08-06T15:24:24Z</time>
      </trkpt>
      <trkpt lat="48.7607260" lon="13.7497940">
        <ele>750.2</ele>
        <time>2019-08-06T15:24:25Z</time>
      </trkpt>
      <trkpt lat="48.7607690" lon="13.7497820">
        <ele>750.2</ele>
        <time>2019-08-06T15:24:26Z</time>
      </trkpt>
      <trkpt lat="48.7608100" lon="13.7497680">
        <ele>750.2</ele>
        <time>2019-08-06T15:24:27Z</time>
      </trkpt>
      <trkpt lat="48.7608480" lon="13.7497490">
        <ele>750.4</ele>
        <time>2019-08-06T15:24:28Z</time>
      </trkpt>
      <trkpt lat="48.7608870" lon="13.7497330">
        <ele>750.4</ele>
        <time>2019-08-06T15:24:29Z</time>
      </trkpt>
      <trkpt lat="48.7609290" lon="13.7497240">
        <ele>750.6</ele>
        <time>2019-08-06T15:24:30Z</time>
      </trkpt>
      <trkpt lat="48.7609710" lon="13.7497120">
        <ele>750.8</ele>
        <time>2019-08-06T15:24:31Z</time>
      </trkpt>
      <trkpt lat="48.7610140" lon="13.7496960">
        <ele>750.8</ele>
        <time>2019-08-06T15:24:32Z</time>
      </trkpt>
      <trkpt lat="48.7610570" lon="13.7496780">
        <ele>751.0</ele>
        <time>2019-08-06T15:24:33Z</time>
      </trkpt>
      <trkpt lat="48.7610980" lon="13.7496560">
        <ele>751.0</ele>
        <time>2019-08-06T15:24:34Z</time>
      </trkpt>
      <trkpt lat="48.7611420" lon="13.7496330">
        <ele>751.2</ele>
        <time>2019-08-06T15:24:35Z</time>
      </trkpt>
      <trkpt lat="48.7611830" lon="13.7496090">
        <ele>751.4</ele>
        <time>2019-08-06T15:24:36Z</time>
      </trkpt>
      <trkpt lat="48.7612230" lon="13.7495800">
        <ele>751.4</ele>
        <time>2019-08-06T15:24:37Z</time>
      </trkpt>
      <trkpt lat="48.7612640" lon="13.7495490">
        <ele>751.6</ele>
        <time>2019-08-06T15:24:38Z</time>
      </trkpt>
      <trkpt lat="48.7613070" lon="13.7495170">
        <ele>751.6</ele>
        <time>2019-08-06T15:24:39Z</time>
      </trkpt>
      <trkpt lat="48.7613460" lon="13.7494850">
        <ele>751.8</ele>
        <time>2019-08-06T15:24:40Z</time>
      </trkpt>
      <trkpt lat="48.7613860" lon="13.7494520">
        <ele>752.0</ele>
        <time>2019-08-06T15:24:41Z</time>
      </trkpt>
      <trkpt lat="48.7614250" lon="13.7494220">
        <ele>752.0</ele>
        <time>2019-08-06T15:24:42Z</time>
      </trkpt>
      <trkpt lat="48.7614600" lon="13.7493890">
        <ele>752.2</ele>
        <time>2019-08-06T15:24:43Z</time>
      </trkpt>
      <trkpt lat="48.7615010" lon="13.7493460">
        <ele>752.2</ele>
        <time>2019-08-06T15:24:44Z</time>
      </trkpt>
      <trkpt lat="48.7615380" lon="13.7493100">
        <ele>752.4</ele>
        <time>2019-08-06T15:24:45Z</time>
      </trkpt>
      <trkpt lat="48.7615720" lon="13.7492690">
        <ele>752.4</ele>
        <time>2019-08-06T15:24:46Z</time>
      </trkpt>
      <trkpt lat="48.7616050" lon="13.7492240">
        <ele>752.6</ele>
        <time>2019-08-06T15:24:47Z</time>
      </trkpt>
      <trkpt lat="48.7616340" lon="13.7491810">
        <ele>752.8</ele>
        <time>2019-08-06T15:24:48Z</time>
      </trkpt>
      <trkpt lat="48.7616620" lon="13.7491380">
        <ele>752.8</ele>
        <time>2019-08-06T15:24:49Z</time>
      </trkpt>
      <trkpt lat="48.7616910" lon="13.7490970">
        <ele>753.0</ele>
        <time>2019-08-06T15:24:50Z</time>
      </trkpt>
      <trkpt lat="48.7617180" lon="13.7490540">
        <ele>753.2</ele>
        <time>2019-08-06T15:24:51Z</time>
      </trkpt>
      <trkpt lat="48.7617440" lon="13.7490070">
        <ele>753.4</ele>
        <time>2019-08-06T15:24:52Z</time>
      </trkpt>
      <trkpt lat="48.7617670" lon="13.7489610">
        <ele>753.4</ele>
        <time>2019-08-06T15:24:53Z</time>
      </trkpt>
      <trkpt lat="48.7617880" lon="13.7489150">
        <ele>753.6</ele>
        <time>2019-08-06T15:24:54Z</time>
      </trkpt>
      <trkpt lat="48.7618090" lon="13.7488670">
        <ele>753.8</ele>
        <time>2019-08-06T15:24:55Z</time>
      </trkpt>
      <trkpt lat="48.7618290" lon="13.7488230">
        <ele>753.8</ele>
        <time>2019-08-06T15:24:56Z</time>
      </trkpt>
      <trkpt lat="48.7618480" lon="13.7487750">
        <ele>754.0</ele>
        <time>2019-08-06T15:24:57Z</time>
      </trkpt>
      <trkpt lat="48.7618670" lon="13.7487300">
        <ele>754.2</ele>
        <time>2019-08-06T15:24:58Z</time>
      </trkpt>
      <trkpt lat="48.7618860" lon="13.7486870">
        <ele>754.4</ele>
        <time>2019-08-06T15:24:59Z</time>
      </trkpt>
      <trkpt lat="48.7619050" lon="13.7486420">
        <ele>754.4</ele>
        <time>2019-08-06T15:25:00Z</time>
      </trkpt>
      <trkpt lat="48.7619260" lon="13.7485870">
        <ele>754.6</ele>
        <time>2019-08-06T15:25:01Z</time>
      </trkpt>
      <trkpt lat="48.7619450" lon="13.7485280">
        <ele>754.8</ele>
        <time>2019-08-06T15:25:02Z</time>
      </trkpt>
      <trkpt lat="48.7619630" lon="13.7484690">
        <ele>755.0</ele>
        <time>2019-08-06T15:25:03Z</time>
      </trkpt>
      <trkpt lat="48.7619820" lon="13.7484140">
        <ele>755.2</ele>
        <time>2019-08-06T15:25:04Z</time>
      </trkpt>
      <trkpt lat="48.7620020" lon="13.7483580">
        <ele>755.2</ele>
        <time>2019-08-06T15:25:05Z</time>
      </trkpt>
      <trkpt lat="48.7620210" lon="13.7483020">
        <ele>755.4</ele>
        <time>2019-08-06T15:25:06Z</time>
      </trkpt>
      <trkpt lat="48.7620380" lon="13.7482460">
        <ele>755.6</ele>
        <time>2019-08-06T15:25:07Z</time>
      </trkpt>
      <trkpt lat="48.7620560" lon="13.7481880">
        <ele>755.6</ele>
        <time>2019-08-06T15:25:08Z</time>
      </trkpt>
      <trkpt lat="48.7620700" lon="13.7481300">
        <ele>755.8</ele>
        <time>2019-08-06T15:25:09Z</time>
      </trkpt>
      <trkpt lat="48.7620850" lon="13.7480690">
        <ele>755.8</ele>
        <time>2019-08-06T15:25:10Z</time>
      </trkpt>
      <trkpt lat="48.7620990" lon="13.7480100">
        <ele>756.0</ele>
        <time>2019-08-06T15:25:11Z</time>
      </trkpt>
      <trkpt lat="48.7621120" lon="13.7479510">
        <ele>756.2</ele>
        <time>2019-08-06T15:25:12Z</time>
      </trkpt>
      <trkpt lat="48.7621250" lon="13.7478950">
        <ele>756.2</ele>
        <time>2019-08-06T15:25:13Z</time>
      </trkpt>
      <trkpt lat="48.7621390" lon="13.7478430">
        <ele>756.4</ele>
        <time>2019-08-06T15:25:14Z</time>
      </trkpt>
      <trkpt lat="48.7621520" lon="13.7477860">
        <ele>756.6</ele>
        <time>2019-08-06T15:25:15Z</time>
      </trkpt>
      <trkpt lat="48.7621650" lon="13.7477250">
        <ele>756.6</ele>
        <time>2019-08-06T15:25:16Z</time>
      </trkpt>
      <trkpt lat="48.7621800" lon="13.7476630">
        <ele>756.6</ele>
        <time>2019-08-06T15:25:17Z</time>
      </trkpt>
      <trkpt lat="48.7621950" lon="13.7476050">
        <ele>756.8</ele>
        <time>2019-08-06T15:25:18Z</time>
      </trkpt>
      <trkpt lat="48.7622110" lon="13.7475460">
        <ele>756.8</ele>
        <time>2019-08-06T15:25:19Z</time>
      </trkpt>
      <trkpt lat="48.7622250" lon="13.7474850">
        <ele>757.0</ele>
        <time>2019-08-06T15:25:20Z</time>
      </trkpt>
      <trkpt lat="48.7622390" lon="13.7474250">
        <ele>757.2</ele>
        <time>2019-08-06T15:25:21Z</time>
      </trkpt>
      <trkpt lat="48.7622510" lon="13.7473630">
        <ele>757.4</ele>
        <time>2019-08-06T15:25:22Z</time>
      </trkpt>
      <trkpt lat="48.7622630" lon="13.7473010">
        <ele>757.4</ele>
        <time>2019-08-06T15:25:23Z</time>
      </trkpt>
      <trkpt lat="48.7622750" lon="13.7472390">
        <ele>757.6</ele>
        <time>2019-08-06T15:25:24Z</time>
      </trkpt>
      <trkpt lat="48.7622880" lon="13.7471780">
        <ele>757.8</ele>
        <time>2019-08-06T15:25:25Z</time>
      </trkpt>
      <trkpt lat="48.7622970" lon="13.7471200">
        <ele>757.8</ele>
        <time>2019-08-06T15:25:26Z</time>
      </trkpt>
      <trkpt lat="48.7623040" lon="13.7470590">
        <ele>758.0</ele>
        <time>2019-08-06T15:25:27Z</time>
      </trkpt>
      <trkpt lat="48.7623100" lon="13.7469980">
        <ele>758.2</ele>
        <time>2019-08-06T15:25:28Z</time>
      </trkpt>
      <trkpt lat="48.7623150" lon="13.7469390">
        <ele>758.2</ele>
        <time>2019-08-06T15:25:29Z</time>
      </trkpt>
      <trkpt lat="48.7623200" lon="13.7468800">
        <ele>758.4</ele>
        <time>2019-08-06T15:25:30Z</time>
      </trkpt>
      <trkpt lat="48.7623250" lon="13.7468210">
        <ele>758.6</ele>
        <time>2019-08-06T15:25:31Z</time>
      </trkpt>
      <trkpt lat="48.7623310" lon="13.7467670">
        <ele>758.6</ele>
        <time>2019-08-06T15:25:32Z</time>
      </trkpt>
      <trkpt lat="48.7623370" lon="13.7467070">
        <ele>758.8</ele>
        <time>2019-08-06T15:25:33Z</time>
      </trkpt>
      <trkpt lat="48.7623450" lon="13.7466430">
        <ele>758.8</ele>
        <time>2019-08-06T15:25:34Z</time>
      </trkpt>
      <trkpt lat="48.7623520" lon="13.7465760">
        <ele>759.0</ele>
        <time>2019-08-06T15:25:35Z</time>
      </trkpt>
      <trkpt lat="48.7623590" lon="13.7465080">
        <ele>759.2</ele>
        <time>2019-08-06T15:25:36Z</time>
      </trkpt>
      <trkpt lat="48.7623660" lon="13.7464400">
        <ele>759.4</ele>
        <time>2019-08-06T15:25:37Z</time>
      </trkpt>
      <trkpt lat="48.7623710" lon="13.7463780">
        <ele>759.4</ele>
        <time>2019-08-06T15:25:38Z</time>
      </trkpt>
      <trkpt lat="48.7623760" lon="13.7463170">
        <ele>759.6</ele>
        <time>2019-08-06T15:25:39Z</time>
      </trkpt>
      <trkpt lat="48.7623820" lon="13.7462550">
        <ele>759.6</ele>
        <time>2019-08-06T15:25:40Z</time>
      </trkpt>
      <trkpt lat="48.7623880" lon="13.7461920">
        <ele>759.8</ele>
        <time>2019-08-06T15:25:41Z</time>
      </trkpt>
      <trkpt lat="48.7623920" lon="13.7461260">
        <ele>760.0</ele>
        <time>2019-08-06T15:25:42Z</time>
      </trkpt>
      <trkpt lat="48.7623940" lon="13.7460650">
        <ele>760.2</ele>
        <time>2019-08-06T15:25:43Z</time>
      </trkpt>
      <trkpt lat="48.7623950" lon="13.7460060">
        <ele>760.4</ele>
        <time>2019-08-06T15:25:44Z</time>
      </trkpt>
      <trkpt lat="48.7623950" lon="13.7459470">
        <ele>760.4</ele>
        <time>2019-08-06T15:25:45Z</time>
      </trkpt>
      <trkpt lat="48.7623990" lon="13.7458830">
        <ele>760.6</ele>
        <time>2019-08-06T15:25:46Z</time>
      </trkpt>
      <trkpt lat="48.7624060" lon="13.7458240">
        <ele>760.8</ele>
        <time>2019-08-06T15:25:47Z</time>
      </trkpt>
      <trkpt lat="48.7624090" lon="13.7457660">
        <ele>760.8</ele>
        <time>2019-08-06T15:25:48Z</time>
      </trkpt>
      <trkpt lat="48.7624130" lon="13.7457080">
        <ele>761.0</ele>
        <time>2019-08-06T15:25:49Z</time>
      </trkpt>
      <trkpt lat="48.7624200" lon="13.7456510">
        <ele>761.0</ele>
        <time>2019-08-06T15:25:50Z</time>
      </trkpt>
      <trkpt lat="48.7624270" lon="13.7455960">
        <ele>761.2</ele>
        <time>2019-08-06T15:25:51Z</time>
      </trkpt>
      <trkpt lat="48.7624310" lon="13.7455390">
        <ele>761.4</ele>
        <time>2019-08-06T15:25:52Z</time>
      </trkpt>
      <trkpt lat="48.7624350" lon="13.7454750">
        <ele>761.4</ele>
        <time>2019-08-06T15:25:53Z</time>
      </trkpt>
      <trkpt lat="48.7624430" lon="13.7454110">
        <ele>761.6</ele>
        <time>2019-08-06T15:25:54Z</time>
      </trkpt>
      <trkpt lat="48.7624520" lon="13.7453470">
        <ele>761.8</ele>
        <time>2019-08-06T15:25:55Z</time>
      </trkpt>
      <trkpt lat="48.7624600" lon="13.7452830">
        <ele>761.8</ele>
        <time>2019-08-06T15:25:56Z</time>
      </trkpt>
      <trkpt lat="48.7624690" lon="13.7452180">
        <ele>762.0</ele>
        <time>2019-08-06T15:25:57Z</time>
      </trkpt>
      <trkpt lat="48.7624780" lon="13.7451580">
        <ele>762.2</ele>
        <time>2019-08-06T15:25:58Z</time>
      </trkpt>
      <trkpt lat="48.7624870" lon="13.7450950">
        <ele>762.2</ele>
        <time>2019-08-06T15:25:59Z</time>
      </trkpt>
      <trkpt lat="48.7624940" lon="13.7450320">
        <ele>762.4</ele>
        <time>2019-08-06T15:26:00Z</time>
      </trkpt>
      <trkpt lat="48.7624980" lon="13.7449710">
        <ele>762.4</ele>
        <time>2019-08-06T15:26:01Z</time>
      </trkpt>
      <trkpt lat="48.7625030" lon="13.7449080">
        <ele>762.6</ele>
        <time>2019-08-06T15:26:02Z</time>
      </trkpt>
      <trkpt lat="48.7625100" lon="13.7448430">
        <ele>762.8</ele>
        <time>2019-08-06T15:26:03Z</time>
      </trkpt>
      <trkpt lat="48.7625140" lon="13.7447760">
        <ele>762.8</ele>
        <time>2019-08-06T15:26:04Z</time>
      </trkpt>
      <trkpt lat="48.7625170" lon="13.7447110">
        <ele>763.0</ele>
        <time>2019-08-06T15:26:05Z</time>
      </trkpt>
      <trkpt lat="48.7625210" lon="13.7446470">
        <ele>763.2</ele>
        <time>2019-08-06T15:26:06Z</time>
      </trkpt>
      <trkpt lat="48.7625270" lon="13.7445840">
        <ele>763.4</ele>
        <time>2019-08-06T15:26:07Z</time>
      </trkpt>
      <trkpt lat="48.7625330" lon="13.7445220">
        <ele>763.4</ele>
        <time>2019-08-06T15:26:08Z</time>
      </trkpt>
      <trkpt lat="48.7625370" lon="13.7444610">
        <ele>763.6</ele>
        <time>2019-08-06T15:26:09Z</time>
      </trkpt>
      <trkpt lat="48.7625410" lon="13.7443670">
        <ele>763.8</ele>
        <time>2019-08-06T15:26:10Z</time>
      </trkpt>
      <trkpt lat="48.7625420" lon="13.7443350">
        <ele>763.8</ele>
        <time>2019-08-06T15:26:11Z</time>
      </trkpt>
      <trkpt lat="48.7625440" lon="13.7442710">
        <ele>764.0</ele>
        <time>2019-08-06T15:26:12Z</time>
      </trkpt>
      <trkpt lat="48.7625450" lon="13.7442080">
        <ele>764.0</ele>
        <time>2019-08-06T15:26:13Z</time>
      </trkpt>
      <trkpt lat="48.7625460" lon="13.7441420">
        <ele>764.2</ele>
        <time>2019-08-06T15:26:14Z</time>
      </trkpt>
      <trkpt lat="48.7625450" lon="13.7440770">
        <ele>764.4</ele>
        <time>2019-08-06T15:26:15Z</time>
      </trkpt>
      <trkpt lat="48.7625430" lon="13.7440120">
        <ele>764.4</ele>
        <time>2019-08-06T15:26:16Z</time>
      </trkpt>
      <trkpt lat="48.7625410" lon="13.7439510">
        <ele>764.6</ele>
        <time>2019-08-06T15:26:17Z</time>
      </trkpt>
      <trkpt lat="48.7625380" lon="13.7438900">
        <ele>764.8</ele>
        <time>2019-08-06T15:26:18Z</time>
      </trkpt>
      <trkpt lat="48.7625340" lon="13.7438290">
        <ele>764.8</ele>
        <time>2019-08-06T15:26:19Z</time>
      </trkpt>
      <trkpt lat="48.7625280" lon="13.7437640">
        <ele>765.0</ele>
        <time>2019-08-06T15:26:20Z</time>
      </trkpt>
      <trkpt lat="48.7625220" lon="13.7437020">
        <ele>765.0</ele>
        <time>2019-08-06T15:26:21Z</time>
      </trkpt>
      <trkpt lat="48.7625170" lon="13.7436390">
        <ele>765.2</ele>
        <time>2019-08-06T15:26:22Z</time>
      </trkpt>
      <trkpt lat="48.7625120" lon="13.7435770">
        <ele>765.4</ele>
        <time>2019-08-06T15:26:23Z</time>
      </trkpt>
      <trkpt lat="48.7625070" lon="13.7435120">
        <ele>765.6</ele>
        <time>2019-08-06T15:26:24Z</time>
      </trkpt>
      <trkpt lat="48.7625020" lon="13.7434470">
        <ele>765.6</ele>
        <time>2019-08-06T15:26:25Z</time>
      </trkpt>
      <trkpt lat="48.7624950" lon="13.7433860">
        <ele>765.8</ele>
        <time>2019-08-06T15:26:26Z</time>
      </trkpt>
      <trkpt lat="48.7624890" lon="13.7433230">
        <ele>766.0</ele>
        <time>2019-08-06T15:26:27Z</time>
      </trkpt>
      <trkpt lat="48.7624840" lon="13.7432560">
        <ele>766.0</ele>
        <time>2019-08-06T15:26:28Z</time>
      </trkpt>
      <trkpt lat="48.7624780" lon="13.7431920">
        <ele>766.2</ele>
        <time>2019-08-06T15:26:29Z</time>
      </trkpt>
      <trkpt lat="48.7624720" lon="13.7431320">
        <ele>766.4</ele>
        <time>2019-08-06T15:26:30Z</time>
      </trkpt>
      <trkpt lat="48.7624680" lon="13.7430690">
        <ele>766.4</ele>
        <time>2019-08-06T15:26:31Z</time>
      </trkpt>
      <trkpt lat="48.7624620" lon="13.7430060">
        <ele>766.4</ele>
        <time>2019-08-06T15:26:32Z</time>
      </trkpt>
      <trkpt lat="48.7624570" lon="13.7429450">
        <ele>766.6</ele>
        <time>2019-08-06T15:26:33Z</time>
      </trkpt>
      <trkpt lat="48.7624520" lon="13.7428840">
        <ele>766.6</ele>
        <time>2019-08-06T15:26:34Z</time>
      </trkpt>
      <trkpt lat="48.7624470" lon="13.7428240">
        <ele>766.8</ele>
        <time>2019-08-06T15:26:35Z</time>
      </trkpt>
      <trkpt lat="48.7624420" lon="13.7427600">
        <ele>766.8</ele>
        <time>2019-08-06T15:26:36Z</time>
      </trkpt>
      <trkpt lat="48.7624370" lon="13.7426960">
        <ele>767.0</ele>
        <time>2019-08-06T15:26:37Z</time>
      </trkpt>
      <trkpt lat="48.7624320" lon="13.7426290">
        <ele>767.2</ele>
        <time>2019-08-06T15:26:38Z</time>
      </trkpt>
      <trkpt lat="48.7624250" lon="13.7425660">
        <ele>767.4</ele>
        <time>2019-08-06T15:26:39Z</time>
      </trkpt>
      <trkpt lat="48.7624210" lon="13.7425040">
        <ele>767.4</ele>
        <time>2019-08-06T15:26:40Z</time>
      </trkpt>
      <trkpt lat="48.7624190" lon="13.7424420">
        <ele>767.6</ele>
        <time>2019-08-06T15:26:41Z</time>
      </trkpt>
      <trkpt lat="48.7624150" lon="13.7423820">
        <ele>767.8</ele>
        <time>2019-08-06T15:26:42Z</time>
      </trkpt>
      <trkpt lat="48.7624130" lon="13.7423230">
        <ele>767.8</ele>
        <time>2019-08-06T15:26:43Z</time>
      </trkpt>
      <trkpt lat="48.7624130" lon="13.7422630">
        <ele>768.0</ele>
        <time>2019-08-06T15:26:44Z</time>
      </trkpt>
      <trkpt lat="48.7624110" lon="13.7422040">
        <ele>768.0</ele>
        <time>2019-08-06T15:26:45Z</time>
      </trkpt>
      <trkpt lat="48.7624080" lon="13.7421430">
        <ele>768.2</ele>
        <time>2019-08-06T15:26:46Z</time>
      </trkpt>
      <trkpt lat="48.7624060" lon="13.7420830">
        <ele>768.2</ele>
        <time>2019-08-06T15:26:47Z</time>
      </trkpt>
      <trkpt lat="48.7624050" lon="13.7420240">
        <ele>768.4</ele>
        <time>2019-08-06T15:26:48Z</time>
      </trkpt>
      <trkpt lat="48.7624040" lon="13.7419650">
        <ele>768.6</ele>
        <time>2019-08-06T15:26:49Z</time>
      </trkpt>
      <trkpt lat="48.7624060" lon="13.7419060">
        <ele>768.6</ele>
        <time>2019-08-06T15:26:50Z</time>
      </trkpt>
      <trkpt lat="48.7624090" lon="13.7418470">
        <ele>768.8</ele>
        <time>2019-08-06T15:26:51Z</time>
      </trkpt>
      <trkpt lat="48.7624100" lon="13.7417910">
        <ele>769.0</ele>
        <time>2019-08-06T15:26:52Z</time>
      </trkpt>
      <trkpt lat="48.7624120" lon="13.7417370">
        <ele>769.0</ele>
        <time>2019-08-06T15:26:53Z</time>
      </trkpt>
      <trkpt lat="48.7624120" lon="13.7416800">
        <ele>769.2</ele>
        <time>2019-08-06T15:26:54Z</time>
      </trkpt>
      <trkpt lat="48.7624140" lon="13.7416250">
        <ele>769.2</ele>
        <time>2019-08-06T15:26:55Z</time>
      </trkpt>
      <trkpt lat="48.7624160" lon="13.7415710">
        <ele>769.4</ele>
        <time>2019-08-06T15:26:56Z</time>
      </trkpt>
      <trkpt lat="48.7624220" lon="13.7415150">
        <ele>769.6</ele>
        <time>2019-08-06T15:26:57Z</time>
      </trkpt>
      <trkpt lat="48.7624310" lon="13.7414590">
        <ele>769.6</ele>
        <time>2019-08-06T15:26:58Z</time>
      </trkpt>
      <trkpt lat="48.7624400" lon="13.7414070">
        <ele>769.8</ele>
        <time>2019-08-06T15:26:59Z</time>
      </trkpt>
      <trkpt lat="48.7624470" lon="13.7413550">
        <ele>769.8</ele>
        <time>2019-08-06T15:27:00Z</time>
      </trkpt>
      <trkpt lat="48.7624530" lon="13.7412990">
        <ele>770.0</ele>
        <time>2019-08-06T15:27:01Z</time>
      </trkpt>
      <trkpt lat="48.7624600" lon="13.7412420">
        <ele>770.2</ele>
        <time>2019-08-06T15:27:02Z</time>
      </trkpt>
      <trkpt lat="48.7624680" lon="13.7411860">
        <ele>770.2</ele>
        <time>2019-08-06T15:27:03Z</time>
      </trkpt>
      <trkpt lat="48.7624770" lon="13.7411270">
        <ele>770.4</ele>
        <time>2019-08-06T15:27:04Z</time>
      </trkpt>
      <trkpt lat="48.7624880" lon="13.7410650">
        <ele>770.6</ele>
        <time>2019-08-06T15:27:05Z</time>
      </trkpt>
      <trkpt lat="48.7625000" lon="13.7410090">
        <ele>770.6</ele>
        <time>2019-08-06T15:27:06Z</time>
      </trkpt>
      <trkpt lat="48.7625110" lon="13.7409520">
        <ele>770.8</ele>
        <time>2019-08-06T15:27:07Z</time>
      </trkpt>
      <trkpt lat="48.7625230" lon="13.7408950">
        <ele>771.0</ele>
        <time>2019-08-06T15:27:08Z</time>
      </trkpt>
      <trkpt lat="48.7625330" lon="13.7408380">
        <ele>771.0</ele>
        <time>2019-08-06T15:27:09Z</time>
      </trkpt>
      <trkpt lat="48.7625450" lon="13.7407840">
        <ele>771.2</ele>
        <time>2019-08-06T15:27:10Z</time>
      </trkpt>
      <trkpt lat="48.7625570" lon="13.7407330">
        <ele>771.2</ele>
        <time>2019-08-06T15:27:11Z</time>
      </trkpt>
      <trkpt lat="48.7625720" lon="13.7406720">
        <ele>771.4</ele>
        <time>2019-08-06T15:27:12Z</time>
      </trkpt>
      <trkpt lat="48.7625870" lon="13.7406180">
        <ele>771.6</ele>
        <time>2019-08-06T15:27:13Z</time>
      </trkpt>
      <trkpt lat="48.7626020" lon="13.7405630">
        <ele>771.6</ele>
        <time>2019-08-06T15:27:14Z</time>
      </trkpt>
      <trkpt lat="48.7626170" lon="13.7405080">
        <ele>771.8</ele>
        <time>2019-08-06T15:27:15Z</time>
      </trkpt>
      <trkpt lat="48.7626340" lon="13.7404540">
        <ele>772.0</ele>
        <time>2019-08-06T15:27:16Z</time>
      </trkpt>
      <trkpt lat="48.7626530" lon="13.7403980">
        <ele>772.0</ele>
        <time>2019-08-06T15:27:17Z</time>
      </trkpt>
      <trkpt lat="48.7626710" lon="13.7403450">
        <ele>772.2</ele>
        <time>2019-08-06T15:27:18Z</time>
      </trkpt>
      <trkpt lat="48.7626900" lon="13.7402910">
        <ele>772.4</ele>
        <time>2019-08-06T15:27:19Z</time>
      </trkpt>
      <trkpt lat="48.7627080" lon="13.7402380">
        <ele>772.6</ele>
        <time>2019-08-06T15:27:20Z</time>
      </trkpt>
      <trkpt lat="48.7627270" lon="13.7401850">
        <ele>772.6</ele>
        <time>2019-08-06T15:27:21Z</time>
      </trkpt>
      <trkpt lat="48.7627460" lon="13.7401360">
        <ele>772.8</ele>
        <time>2019-08-06T15:27:22Z</time>
      </trkpt>
      <trkpt lat="48.7627650" lon="13.7400890">
        <ele>773.0</ele>
        <time>2019-08-06T15:27:23Z</time>
      </trkpt>
      <trkpt lat="48.7627850" lon="13.7400340">
        <ele>773.0</ele>
        <time>2019-08-06T15:27:24Z</time>
      </trkpt>
      <trkpt lat="48.7628030" lon="13.7399840">
        <ele>773.2</ele>
        <time>2019-08-06T15:27:25Z</time>
      </trkpt>
      <trkpt lat="48.7628210" lon="13.7399340">
        <ele>773.4</ele>
        <time>2019-08-06T15:27:26Z</time>
      </trkpt>
      <trkpt lat="48.7628400" lon="13.7398840">
        <ele>773.4</ele>
        <time>2019-08-06T15:27:27Z</time>
      </trkpt>
      <trkpt lat="48.7628600" lon="13.7398360">
        <ele>773.6</ele>
        <time>2019-08-06T15:27:28Z</time>
      </trkpt>
      <trkpt lat="48.7628820" lon="13.7397890">
        <ele>773.6</ele>
        <time>2019-08-06T15:27:29Z</time>
      </trkpt>
      <trkpt lat="48.7629080" lon="13.7397350">
        <ele>773.8</ele>
        <time>2019-08-06T15:27:30Z</time>
      </trkpt>
      <trkpt lat="48.7629300" lon="13.7396860">
        <ele>774.0</ele>
        <time>2019-08-06T15:27:31Z</time>
      </trkpt>
      <trkpt lat="48.7629510" lon="13.7396350">
        <ele>774.0</ele>
        <time>2019-08-06T15:27:32Z</time>
      </trkpt>
      <trkpt lat="48.7629730" lon="13.7395860">
        <ele>774.0</ele>
        <time>2019-08-06T15:27:33Z</time>
      </trkpt>
      <trkpt lat="48.7629960" lon="13.7395380">
        <ele>774.2</ele>
        <time>2019-08-06T15:27:34Z</time>
      </trkpt>
      <trkpt lat="48.7630190" lon="13.7394870">
        <ele>774.2</ele>
        <time>2019-08-06T15:27:35Z</time>
      </trkpt>
      <trkpt lat="48.7630410" lon="13.7394380">
        <ele>774.4</ele>
        <time>2019-08-06T15:27:36Z</time>
      </trkpt>
      <trkpt lat="48.7630630" lon="13.7393900">
        <ele>774.4</ele>
        <time>2019-08-06T15:27:37Z</time>
      </trkpt>
      <trkpt lat="48.7630870" lon="13.7393420">
        <ele>774.6</ele>
        <time>2019-08-06T15:27:38Z</time>
      </trkpt>
      <trkpt lat="48.7631090" lon="13.7392980">
        <ele>774.8</ele>
        <time>2019-08-06T15:27:39Z</time>
      </trkpt>
      <trkpt lat="48.7631320" lon="13.7392520">
        <ele>774.8</ele>
        <time>2019-08-06T15:27:40Z</time>
      </trkpt>
      <trkpt lat="48.7631540" lon="13.7392070">
        <ele>775.0</ele>
        <time>2019-08-06T15:27:41Z</time>
      </trkpt>
      <trkpt lat="48.7631750" lon="13.7391620">
        <ele>775.2</ele>
        <time>2019-08-06T15:27:42Z</time>
      </trkpt>
      <trkpt lat="48.7631970" lon="13.7391180">
        <ele>775.2</ele>
        <time>2019-08-06T15:27:43Z</time>
      </trkpt>
      <trkpt lat="48.7632210" lon="13.7390740">
        <ele>775.4</ele>
        <time>2019-08-06T15:27:44Z</time>
      </trkpt>
      <trkpt lat="48.7632440" lon="13.7390320">
        <ele>775.4</ele>
        <time>2019-08-06T15:27:45Z</time>
      </trkpt>
      <trkpt lat="48.7632700" lon="13.7389890">
        <ele>775.6</ele>
        <time>2019-08-06T15:27:46Z</time>
      </trkpt>
      <trkpt lat="48.7632960" lon="13.7389490">
        <ele>775.8</ele>
        <time>2019-08-06T15:27:47Z</time>
      </trkpt>
      <trkpt lat="48.7633200" lon="13.7389120">
        <ele>776.0</ele>
        <time>2019-08-06T15:27:48Z</time>
      </trkpt>
      <trkpt lat="48.7633450" lon="13.7388740">
        <ele>776.0</ele>
        <time>2019-08-06T15:27:49Z</time>
      </trkpt>
      <trkpt lat="48.7633720" lon="13.7388370">
        <ele>776.2</ele>
        <time>2019-08-06T15:27:50Z</time>
      </trkpt>
      <trkpt lat="48.7633980" lon="13.7387990">
        <ele>776.4</ele>
        <time>2019-08-06T15:27:51Z</time>
      </trkpt>
      <trkpt lat="48.7634260" lon="13.7387600">
        <ele>776.4</ele>
        <time>2019-08-06T15:27:52Z</time>
      </trkpt>
      <trkpt lat="48.7634530" lon="13.7387240">
        <ele>776.6</ele>
        <time>2019-08-06T15:27:53Z</time>
      </trkpt>
      <trkpt lat="48.7634790" lon="13.7386950">
        <ele>776.8</ele>
        <time>2019-08-06T15:27:54Z</time>
      </trkpt>
      <trkpt lat="48.7635050" lon="13.7386700">
        <ele>776.8</ele>
        <time>2019-08-06T15:27:55Z</time>
      </trkpt>
      <trkpt lat="48.7635310" lon="13.7386460">
        <ele>777.0</ele>
        <time>2019-08-06T15:27:56Z</time>
      </trkpt>
      <trkpt lat="48.7635560" lon="13.7386240">
        <ele>777.0</ele>
        <time>2019-08-06T15:27:57Z</time>
      </trkpt>
      <trkpt lat="48.7635850" lon="13.7386000">
        <ele>777.2</ele>
        <time>2019-08-06T15:27:58Z</time>
      </trkpt>
      <trkpt lat="48.7636140" lon="13.7385760">
        <ele>777.2</ele>
        <time>2019-08-06T15:27:59Z</time>
      </trkpt>
      <trkpt lat="48.7636430" lon="13.7385520">
        <ele>777.4</ele>
        <time>2019-08-06T15:28:00Z</time>
      </trkpt>
      <trkpt lat="48.7636750" lon="13.7385280">
        <ele>777.4</ele>
        <time>2019-08-06T15:28:01Z</time>
      </trkpt>
      <trkpt lat="48.7637110" lon="13.7385040">
        <ele>777.6</ele>
        <time>2019-08-06T15:28:02Z</time>
      </trkpt>
      <trkpt lat="48.7637470" lon="13.7384800">
        <ele>777.6</ele>
        <time>2019-08-06T15:28:03Z</time>
      </trkpt>
      <trkpt lat="48.7637810" lon="13.7384550">
        <ele>777.8</ele>
        <time>2019-08-06T15:28:04Z</time>
      </trkpt>
      <trkpt lat="48.7638150" lon="13.7384320">
        <ele>777.8</ele>
        <time>2019-08-06T15:28:05Z</time>
      </trkpt>
      <trkpt lat="48.7638460" lon="13.7384100">
        <ele>778.0</ele>
        <time>2019-08-06T15:28:06Z</time>
      </trkpt>
      <trkpt lat="48.7638760" lon="13.7383980">
        <ele>778.0</ele>
        <time>2019-08-06T15:28:07Z</time>
      </trkpt>
      <trkpt lat="48.7639060" lon="13.7383890">
        <ele>778.2</ele>
        <time>2019-08-06T15:28:08Z</time>
      </trkpt>
      <trkpt lat="48.7639340" lon="13.7383800">
        <ele>778.2</ele>
        <time>2019-08-06T15:28:09Z</time>
      </trkpt>
      <trkpt lat="48.7639650" lon="13.7383720">
        <ele>778.4</ele>
        <time>2019-08-06T15:28:10Z</time>
      </trkpt>
      <trkpt lat="48.7639960" lon="13.7383670">
        <ele>778.4</ele>
        <time>2019-08-06T15:28:11Z</time>
      </trkpt>
      <trkpt lat="48.7640250" lon="13.7383640">
        <ele>778.6</ele>
        <time>2019-08-06T15:28:12Z</time>
      </trkpt>
      <trkpt lat="48.7640530" lon="13.7383610">
        <ele>778.6</ele>
        <time>2019-08-06T15:28:13Z</time>
      </trkpt>
      <trkpt lat="48.7640810" lon="13.7383570">
        <ele>778.8</ele>
        <time>2019-08-06T15:28:14Z</time>
      </trkpt>
      <trkpt lat="48.7641110" lon="13.7383520">
        <ele>778.8</ele>
        <time>2019-08-06T15:28:15Z</time>
      </trkpt>
      <trkpt lat="48.7641420" lon="13.7383470">
        <ele>779.0</ele>
        <time>2019-08-06T15:28:16Z</time>
      </trkpt>
      <trkpt lat="48.7641740" lon="13.7383420">
        <ele>779.0</ele>
        <time>2019-08-06T15:28:17Z</time>
      </trkpt>
      <trkpt lat="48.7642040" lon="13.7383380">
        <ele>779.2</ele>
        <time>2019-08-06T15:28:18Z</time>
      </trkpt>
      <trkpt lat="48.7642340" lon="13.7383320">
        <ele>779.2</ele>
        <time>2019-08-06T15:28:19Z</time>
      </trkpt>
      <trkpt lat="48.7642610" lon="13.7383260">
        <ele>779.4</ele>
        <time>2019-08-06T15:28:20Z</time>
      </trkpt>
      <trkpt lat="48.7642850" lon="13.7383230">
        <ele>779.4</ele>
        <time>2019-08-06T15:28:21Z</time>
      </trkpt>
      <trkpt lat="48.7643080" lon="13.7383230">
        <ele>779.6</ele>
        <time>2019-08-06T15:28:22Z</time>
      </trkpt>
      <trkpt lat="48.7643330" lon="13.7383230">
        <ele>779.6</ele>
        <time>2019-08-06T15:28:23Z</time>
      </trkpt>
      <trkpt lat="48.7643580" lon="13.7383200">
        <ele>779.6</ele>
        <time>2019-08-06T15:28:24Z</time>
      </trkpt>
      <trkpt lat="48.7643850" lon="13.7383190">
        <ele>779.6</ele>
        <time>2019-08-06T15:28:25Z</time>
      </trkpt>
      <trkpt lat="48.7644120" lon="13.7383210">
        <ele>779.6</ele>
        <time>2019-08-06T15:28:26Z</time>
      </trkpt>
      <trkpt lat="48.7644400" lon="13.7383150">
        <ele>779.8</ele>
        <time>2019-08-06T15:28:27Z</time>
      </trkpt>
      <trkpt lat="48.7644670" lon="13.7383090">
        <ele>779.8</ele>
        <time>2019-08-06T15:28:28Z</time>
      </trkpt>
      <trkpt lat="48.7644930" lon="13.7383070">
        <ele>780.0</ele>
        <time>2019-08-06T15:28:29Z</time>
      </trkpt>
      <trkpt lat="48.7645180" lon="13.7383060">
        <ele>780.0</ele>
        <time>2019-08-06T15:28:30Z</time>
      </trkpt>
      <trkpt lat="48.7645440" lon="13.7383050">
        <ele>780.2</ele>
        <time>2019-08-06T15:28:31Z</time>
      </trkpt>
      <trkpt lat="48.7645670" lon="13.7383090">
        <ele>780.2</ele>
        <time>2019-08-06T15:28:32Z</time>
      </trkpt>
      <trkpt lat="48.7645860" lon="13.7383170">
        <ele>780.4</ele>
        <time>2019-08-06T15:28:33Z</time>
      </trkpt>
      <trkpt lat="48.7646030" lon="13.7383270">
        <ele>780.4</ele>
        <time>2019-08-06T15:28:34Z</time>
      </trkpt>
      <trkpt lat="48.7646190" lon="13.7383350">
        <ele>780.4</ele>
        <time>2019-08-06T15:28:35Z</time>
      </trkpt>
      <trkpt lat="48.7646250" lon="13.7383390">
        <ele>780.6</ele>
        <time>2019-08-06T15:28:36Z</time>
      </trkpt>
      <trkpt lat="48.7646270" lon="13.7383410">
        <ele>780.6</ele>
        <time>2019-08-06T15:28:37Z</time>
      </trkpt>
      <trkpt lat="48.7646280" lon="13.7383450">
        <ele>780.6</ele>
        <time>2019-08-06T15:28:38Z</time>
      </trkpt>
      <trkpt lat="48.7647140" lon="13.7383720">
        <ele>780.8</ele>
        <time>2019-08-06T15:33:06Z</time>
      </trkpt>
      <trkpt lat="48.7647370" lon="13.7383800">
        <ele>780.8</ele>
        <time>2019-08-06T15:33:07Z</time>
      </trkpt>
      <trkpt lat="48.7647630" lon="13.7383890">
        <ele>780.8</ele>
        <time>2019-08-06T15:33:08Z</time>
      </trkpt>
      <trkpt lat="48.7647900" lon="13.7383970">
        <ele>780.8</ele>
        <time>2019-08-06T15:33:09Z</time>
      </trkpt>
      <trkpt lat="48.7648180" lon="13.7384030">
        <ele>781.0</ele>
        <time>2019-08-06T15:33:10Z</time>
      </trkpt>
      <trkpt lat="48.7648470" lon="13.7384100">
        <ele>781.0</ele>
        <time>2019-08-06T15:33:11Z</time>
      </trkpt>
      <trkpt lat="48.7648730" lon="13.7384170">
        <ele>781.0</ele>
        <time>2019-08-06T15:33:12Z</time>
      </trkpt>
      <trkpt lat="48.7649000" lon="13.7384230">
        <ele>781.2</ele>
        <time>2019-08-06T15:33:13Z</time>
      </trkpt>
      <trkpt lat="48.7649270" lon="13.7384300">
        <ele>781.2</ele>
        <time>2019-08-06T15:33:14Z</time>
      </trkpt>
      <trkpt lat="48.7649540" lon="13.7384350">
        <ele>781.4</ele>
        <time>2019-08-06T15:33:15Z</time>
      </trkpt>
      <trkpt lat="48.7649820" lon="13.7384440">
        <ele>781.4</ele>
        <time>2019-08-06T15:33:16Z</time>
      </trkpt>
      <trkpt lat="48.7650100" lon="13.7384540">
        <ele>781.6</ele>
        <time>2019-08-06T15:33:17Z</time>
      </trkpt>
      <trkpt lat="48.7650410" lon="13.7384620">
        <ele>781.6</ele>
        <time>2019-08-06T15:33:18Z</time>
      </trkpt>
      <trkpt lat="48.7650710" lon="13.7384700">
        <ele>781.8</ele>
        <time>2019-08-06T15:33:19Z</time>
      </trkpt>
      <trkpt lat="48.7651010" lon="13.7384770">
        <ele>781.8</ele>
        <time>2019-08-06T15:33:20Z</time>
      </trkpt>
      <trkpt lat="48.7651310" lon="13.7384840">
        <ele>782.0</ele>
        <time>2019-08-06T15:33:21Z</time>
      </trkpt>
      <trkpt lat="48.7651590" lon="13.7384850">
        <ele>782.0</ele>
        <time>2019-08-06T15:33:22Z</time>
      </trkpt>
      <trkpt lat="48.7651860" lon="13.7384860">
        <ele>782.2</ele>
        <time>2019-08-06T15:33:23Z</time>
      </trkpt>
      <trkpt lat="48.7652170" lon="13.7384850">
        <ele>782.2</ele>
        <time>2019-08-06T15:33:24Z</time>
      </trkpt>
      <trkpt lat="48.7652490" lon="13.7384840">
        <ele>782.2</ele>
        <time>2019-08-06T15:33:25Z</time>
      </trkpt>
      <trkpt lat="48.7652800" lon="13.7384870">
        <ele>782.4</ele>
        <time>2019-08-06T15:33:26Z</time>
      </trkpt>
      <trkpt lat="48.7653110" lon="13.7384930">
        <ele>782.4</ele>
        <time>2019-08-06T15:33:27Z</time>
      </trkpt>
      <trkpt lat="48.7653410" lon="13.7384950">
        <ele>782.6</ele>
        <time>2019-08-06T15:33:28Z</time>
      </trkpt>
      <trkpt lat="48.7653720" lon="13.7384960">
        <ele>782.6</ele>
        <time>2019-08-06T15:33:29Z</time>
      </trkpt>
      <trkpt lat="48.7654020" lon="13.7384990">
        <ele>782.6</ele>
        <time>2019-08-06T15:33:30Z</time>
      </trkpt>
      <trkpt lat="48.7654310" lon="13.7385020">
        <ele>782.8</ele>
        <time>2019-08-06T15:33:31Z</time>
      </trkpt>
      <trkpt lat="48.7654590" lon="13.7385020">
        <ele>782.8</ele>
        <time>2019-08-06T15:33:32Z</time>
      </trkpt>
      <trkpt lat="48.7654880" lon="13.7385020">
        <ele>783.0</ele>
        <time>2019-08-06T15:33:33Z</time>
      </trkpt>
      <trkpt lat="48.7655180" lon="13.7385020">
        <ele>783.0</ele>
        <time>2019-08-06T15:33:34Z</time>
      </trkpt>
      <trkpt lat="48.7655500" lon="13.7385050">
        <ele>783.2</ele>
        <time>2019-08-06T15:33:35Z</time>
      </trkpt>
      <trkpt lat="48.7655840" lon="13.7385060">
        <ele>783.2</ele>
        <time>2019-08-06T15:33:36Z</time>
      </trkpt>
      <trkpt lat="48.7656170" lon="13.7385020">
        <ele>783.2</ele>
        <time>2019-08-06T15:33:37Z</time>
      </trkpt>
      <trkpt lat="48.7656510" lon="13.7384990">
        <ele>783.4</ele>
        <time>2019-08-06T15:33:38Z</time>
      </trkpt>
      <trkpt lat="48.7656860" lon="13.7384990">
        <ele>783.4</ele>
        <time>2019-08-06T15:33:39Z</time>
      </trkpt>
      <trkpt lat="48.7657230" lon="13.7384960">
        <ele>783.6</ele>
        <time>2019-08-06T15:33:40Z</time>
      </trkpt>
      <trkpt lat="48.7657570" lon="13.7384930">
        <ele>783.6</ele>
        <time>2019-08-06T15:33:41Z</time>
      </trkpt>
      <trkpt lat="48.7657920" lon="13.7384930">
        <ele>783.8</ele>
        <time>2019-08-06T15:33:42Z</time>
      </trkpt>
      <trkpt lat="48.7658270" lon="13.7384970">
        <ele>783.8</ele>
        <time>2019-08-06T15:33:43Z</time>
      </trkpt>
      <trkpt lat="48.7658640" lon="13.7384980">
        <ele>783.8</ele>
        <time>2019-08-06T15:33:44Z</time>
      </trkpt>
      <trkpt lat="48.7658990" lon="13.7384980">
        <ele>784.0</ele>
        <time>2019-08-06T15:33:45Z</time>
      </trkpt>
      <trkpt lat="48.7659370" lon="13.7384970">
        <ele>784.0</ele>
        <time>2019-08-06T15:33:46Z</time>
      </trkpt>
      <trkpt lat="48.7659720" lon="13.7385000">
        <ele>784.2</ele>
        <time>2019-08-06T15:33:47Z</time>
      </trkpt>
      <trkpt lat="48.7660050" lon="13.7384980">
        <ele>784.2</ele>
        <time>2019-08-06T15:33:48Z</time>
      </trkpt>
      <trkpt lat="48.7660350" lon="13.7384890">
        <ele>784.2</ele>
        <time>2019-08-06T15:33:49Z</time>
      </trkpt>
      <trkpt lat="48.7660670" lon="13.7384810">
        <ele>784.4</ele>
        <time>2019-08-06T15:33:50Z</time>
      </trkpt>
      <trkpt lat="48.7660990" lon="13.7384800">
        <ele>784.4</ele>
        <time>2019-08-06T15:33:51Z</time>
      </trkpt>
      <trkpt lat="48.7661330" lon="13.7384780">
        <ele>784.6</ele>
        <time>2019-08-06T15:33:52Z</time>
      </trkpt>
      <trkpt lat="48.7661690" lon="13.7384780">
        <ele>784.6</ele>
        <time>2019-08-06T15:33:53Z</time>
      </trkpt>
      <trkpt lat="48.7662030" lon="13.7384730">
        <ele>784.8</ele>
        <time>2019-08-06T15:33:54Z</time>
      </trkpt>
      <trkpt lat="48.7662360" lon="13.7384660">
        <ele>784.8</ele>
        <time>2019-08-06T15:33:55Z</time>
      </trkpt>
      <trkpt lat="48.7662680" lon="13.7384630">
        <ele>785.0</ele>
        <time>2019-08-06T15:33:56Z</time>
      </trkpt>
      <trkpt lat="48.7663010" lon="13.7384630">
        <ele>785.0</ele>
        <time>2019-08-06T15:33:57Z</time>
      </trkpt>
      <trkpt lat="48.7663380" lon="13.7384630">
        <ele>785.0</ele>
        <time>2019-08-06T15:33:58Z</time>
      </trkpt>
      <trkpt lat="48.7663740" lon="13.7384620">
        <ele>785.2</ele>
        <time>2019-08-06T15:33:59Z</time>
      </trkpt>
      <trkpt lat="48.7664090" lon="13.7384610">
        <ele>785.2</ele>
        <time>2019-08-06T15:34:00Z</time>
      </trkpt>
      <trkpt lat="48.7664440" lon="13.7384600">
        <ele>785.4</ele>
        <time>2019-08-06T15:34:01Z</time>
      </trkpt>
      <trkpt lat="48.7664790" lon="13.7384610">
        <ele>785.4</ele>
        <time>2019-08-06T15:34:02Z</time>
      </trkpt>
      <trkpt lat="48.7665140" lon="13.7384570">
        <ele>785.4</ele>
        <time>2019-08-06T15:34:03Z</time>
      </trkpt>
      <trkpt lat="48.7665490" lon="13.7384550">
        <ele>785.6</ele>
        <time>2019-08-06T15:34:04Z</time>
      </trkpt>
      <trkpt lat="48.7665840" lon="13.7384560">
        <ele>785.6</ele>
        <time>2019-08-06T15:34:05Z</time>
      </trkpt>
      <trkpt lat="48.7666180" lon="13.7384530">
        <ele>785.6</ele>
        <time>2019-08-06T15:34:06Z</time>
      </trkpt>
      <trkpt lat="48.7666500" lon="13.7384470">
        <ele>785.8</ele>
        <time>2019-08-06T15:34:07Z</time>
      </trkpt>
      <trkpt lat="48.7666800" lon="13.7384410">
        <ele>785.8</ele>
        <time>2019-08-06T15:34:08Z</time>
      </trkpt>
      <trkpt lat="48.7667090" lon="13.7384320">
        <ele>786.0</ele>
        <time>2019-08-06T15:34:09Z</time>
      </trkpt>
      <trkpt lat="48.7667370" lon="13.7384190">
        <ele>786.0</ele>
        <time>2019-08-06T15:34:10Z</time>
      </trkpt>
      <trkpt lat="48.7667620" lon="13.7384040">
        <ele>786.2</ele>
        <time>2019-08-06T15:34:11Z</time>
      </trkpt>
      <trkpt lat="48.7667910" lon="13.7383950">
        <ele>786.4</ele>
        <time>2019-08-06T15:34:12Z</time>
      </trkpt>
      <trkpt lat="48.7668250" lon="13.7383980">
        <ele>786.4</ele>
        <time>2019-08-06T15:34:13Z</time>
      </trkpt>
      <trkpt lat="48.7668630" lon="13.7384030">
        <ele>786.6</ele>
        <time>2019-08-06T15:34:14Z</time>
      </trkpt>
      <trkpt lat="48.7669000" lon="13.7384060">
        <ele>786.6</ele>
        <time>2019-08-06T15:34:15Z</time>
      </trkpt>
      <trkpt lat="48.7669400" lon="13.7384080">
        <ele>786.8</ele>
        <time>2019-08-06T15:34:16Z</time>
      </trkpt>
      <trkpt lat="48.7669780" lon="13.7384080">
        <ele>786.8</ele>
        <time>2019-08-06T15:34:17Z</time>
      </trkpt>
      <trkpt lat="48.7670160" lon="13.7384070">
        <ele>787.0</ele>
        <time>2019-08-06T15:34:18Z</time>
      </trkpt>
      <trkpt lat="48.7670500" lon="13.7384030">
        <ele>787.0</ele>
        <time>2019-08-06T15:34:19Z</time>
      </trkpt>
      <trkpt lat="48.7670830" lon="13.7384020">
        <ele>787.2</ele>
        <time>2019-08-06T15:34:20Z</time>
      </trkpt>
      <trkpt lat="48.7671170" lon="13.7384040">
        <ele>787.2</ele>
        <time>2019-08-06T15:34:21Z</time>
      </trkpt>
      <trkpt lat="48.7671520" lon="13.7384060">
        <ele>787.4</ele>
        <time>2019-08-06T15:34:22Z</time>
      </trkpt>
      <trkpt lat="48.7671870" lon="13.7384080">
        <ele>787.4</ele>
        <time>2019-08-06T15:34:23Z</time>
      </trkpt>
      <trkpt lat="48.7672180" lon="13.7384060">
        <ele>787.6</ele>
        <time>2019-08-06T15:34:24Z</time>
      </trkpt>
      <trkpt lat="48.7672510" lon="13.7384030">
        <ele>787.6</ele>
        <time>2019-08-06T15:34:25Z</time>
      </trkpt>
      <trkpt lat="48.7672860" lon="13.7384000">
        <ele>787.8</ele>
        <time>2019-08-06T15:34:26Z</time>
      </trkpt>
      <trkpt lat="48.7673220" lon="13.7383920">
        <ele>788.0</ele>
        <time>2019-08-06T15:34:27Z</time>
      </trkpt>
      <trkpt lat="48.7673540" lon="13.7383800">
        <ele>788.0</ele>
        <time>2019-08-06T15:34:28Z</time>
      </trkpt>
      <trkpt lat="48.7673870" lon="13.7383750">
        <ele>788.2</ele>
        <time>2019-08-06T15:34:29Z</time>
      </trkpt>
      <trkpt lat="48.7674230" lon="13.7383760">
        <ele>788.2</ele>
        <time>2019-08-06T15:34:30Z</time>
      </trkpt>
      <trkpt lat="48.7674590" lon="13.7383780">
        <ele>788.4</ele>
        <time>2019-08-06T15:34:31Z</time>
      </trkpt>
      <trkpt lat="48.7674930" lon="13.7383750">
        <ele>788.6</ele>
        <time>2019-08-06T15:34:32Z</time>
      </trkpt>
      <trkpt lat="48.7675230" lon="13.7383660">
        <ele>788.6</ele>
        <time>2019-08-06T15:34:33Z</time>
      </trkpt>
      <trkpt lat="48.7675520" lon="13.7383540">
        <ele>788.8</ele>
        <time>2019-08-06T15:34:34Z</time>
      </trkpt>
      <trkpt lat="48.7675800" lon="13.7383440">
        <ele>789.0</ele>
        <time>2019-08-06T15:34:35Z</time>
      </trkpt>
      <trkpt lat="48.7676160" lon="13.7383390">
        <ele>789.0</ele>
        <time>2019-08-06T15:34:36Z</time>
      </trkpt>
      <trkpt lat="48.7676590" lon="13.7383360">
        <ele>789.2</ele>
        <time>2019-08-06T15:34:37Z</time>
      </trkpt>
      <trkpt lat="48.7676980" lon="13.7383350">
        <ele>789.2</ele>
        <time>2019-08-06T15:34:38Z</time>
      </trkpt>
      <trkpt lat="48.7677350" lon="13.7383370">
        <ele>789.4</ele>
        <time>2019-08-06T15:34:39Z</time>
      </trkpt>
      <trkpt lat="48.7677710" lon="13.7383370">
        <ele>789.6</ele>
        <time>2019-08-06T15:34:40Z</time>
      </trkpt>
      <trkpt lat="48.7678080" lon="13.7383380">
        <ele>789.6</ele>
        <time>2019-08-06T15:34:41Z</time>
      </trkpt>
      <trkpt lat="48.7678430" lon="13.7383360">
        <ele>789.8</ele>
        <time>2019-08-06T15:34:42Z</time>
      </trkpt>
      <trkpt lat="48.7678790" lon="13.7383270">
        <ele>789.8</ele>
        <time>2019-08-06T15:34:43Z</time>
      </trkpt>
      <trkpt lat="48.7679140" lon="13.7383160">
        <ele>790.0</ele>
        <time>2019-08-06T15:34:44Z</time>
      </trkpt>
      <trkpt lat="48.7679500" lon="13.7383070">
        <ele>790.0</ele>
        <time>2019-08-06T15:34:45Z</time>
      </trkpt>
      <trkpt lat="48.7679840" lon="13.7382950">
        <ele>790.2</ele>
        <time>2019-08-06T15:34:46Z</time>
      </trkpt>
      <trkpt lat="48.7680170" lon="13.7382760">
        <ele>790.2</ele>
        <time>2019-08-06T15:34:47Z</time>
      </trkpt>
      <trkpt lat="48.7680490" lon="13.7382560">
        <ele>790.4</ele>
        <time>2019-08-06T15:34:48Z</time>
      </trkpt>
      <trkpt lat="48.7680770" lon="13.7382350">
        <ele>790.6</ele>
        <time>2019-08-06T15:34:49Z</time>
      </trkpt>
      <trkpt lat="48.7681110" lon="13.7382070">
        <ele>790.6</ele>
        <time>2019-08-06T15:34:50Z</time>
      </trkpt>
      <trkpt lat="48.7681470" lon="13.7381770">
        <ele>790.8</ele>
        <time>2019-08-06T15:34:51Z</time>
      </trkpt>
      <trkpt lat="48.7681790" lon="13.7381460">
        <ele>790.8</ele>
        <time>2019-08-06T15:34:52Z</time>
      </trkpt>
      <trkpt lat="48.7682150" lon="13.7381130">
        <ele>791.0</ele>
        <time>2019-08-06T15:34:53Z</time>
      </trkpt>
      <trkpt lat="48.7682470" lon="13.7380850">
        <ele>791.0</ele>
        <time>2019-08-06T15:34:54Z</time>
      </trkpt>
      <trkpt lat="48.7682810" lon="13.7380540">
        <ele>791.2</ele>
        <time>2019-08-06T15:34:55Z</time>
      </trkpt>
      <trkpt lat="48.7683170" lon="13.7380250">
        <ele>791.4</ele>
        <time>2019-08-06T15:34:56Z</time>
      </trkpt>
      <trkpt lat="48.7683560" lon="13.7379940">
        <ele>791.4</ele>
        <time>2019-08-06T15:34:57Z</time>
      </trkpt>
      <trkpt lat="48.7683900" lon="13.7379670">
        <ele>791.6</ele>
        <time>2019-08-06T15:34:58Z</time>
      </trkpt>
      <trkpt lat="48.7684250" lon="13.7379380">
        <ele>791.6</ele>
        <time>2019-08-06T15:34:59Z</time>
      </trkpt>
      <trkpt lat="48.7684600" lon="13.7379090">
        <ele>791.8</ele>
        <time>2019-08-06T15:35:00Z</time>
      </trkpt>
      <trkpt lat="48.7684940" lon="13.7378800">
        <ele>792.0</ele>
        <time>2019-08-06T15:35:01Z</time>
      </trkpt>
      <trkpt lat="48.7685280" lon="13.7378470">
        <ele>792.0</ele>
        <time>2019-08-06T15:35:02Z</time>
      </trkpt>
      <trkpt lat="48.7685610" lon="13.7378140">
        <ele>792.2</ele>
        <time>2019-08-06T15:35:03Z</time>
      </trkpt>
      <trkpt lat="48.7685930" lon="13.7377740">
        <ele>792.4</ele>
        <time>2019-08-06T15:35:04Z</time>
      </trkpt>
      <trkpt lat="48.7686250" lon="13.7377370">
        <ele>792.4</ele>
        <time>2019-08-06T15:35:05Z</time>
      </trkpt>
      <trkpt lat="48.7686560" lon="13.7377020">
        <ele>792.6</ele>
        <time>2019-08-06T15:35:06Z</time>
      </trkpt>
      <trkpt lat="48.7686860" lon="13.7376650">
        <ele>792.6</ele>
        <time>2019-08-06T15:35:07Z</time>
      </trkpt>
      <trkpt lat="48.7687170" lon="13.7376290">
        <ele>792.8</ele>
        <time>2019-08-06T15:35:08Z</time>
      </trkpt>
      <trkpt lat="48.7687500" lon="13.7375940">
        <ele>793.0</ele>
        <time>2019-08-06T15:35:09Z</time>
      </trkpt>
      <trkpt lat="48.7687830" lon="13.7375560">
        <ele>793.0</ele>
        <time>2019-08-06T15:35:10Z</time>
      </trkpt>
      <trkpt lat="48.7688150" lon="13.7375150">
        <ele>793.2</ele>
        <time>2019-08-06T15:35:11Z</time>
      </trkpt>
      <trkpt lat="48.7688450" lon="13.7374710">
        <ele>793.2</ele>
        <time>2019-08-06T15:35:12Z</time>
      </trkpt>
      <trkpt lat="48.7688740" lon="13.7374260">
        <ele>793.4</ele>
        <time>2019-08-06T15:35:13Z</time>
      </trkpt>
      <trkpt lat="48.7689020" lon="13.7373820">
        <ele>793.4</ele>
        <time>2019-08-06T15:35:14Z</time>
      </trkpt>
      <trkpt lat="48.7689280" lon="13.7373350">
        <ele>793.6</ele>
        <time>2019-08-06T15:35:15Z</time>
      </trkpt>
      <trkpt lat="48.7689550" lon="13.7372890">
        <ele>793.6</ele>
        <time>2019-08-06T15:35:16Z</time>
      </trkpt>
      <trkpt lat="48.7689780" lon="13.7372440">
        <ele>793.8</ele>
        <time>2019-08-06T15:35:17Z</time>
      </trkpt>
      <trkpt lat="48.7689980" lon="13.7372010">
        <ele>793.8</ele>
        <time>2019-08-06T15:35:18Z</time>
      </trkpt>
      <trkpt lat="48.7690170" lon="13.7371570">
        <ele>794.0</ele>
        <time>2019-08-06T15:35:19Z</time>
      </trkpt>
      <trkpt lat="48.7690350" lon="13.7371130">
        <ele>794.0</ele>
        <time>2019-08-06T15:35:20Z</time>
      </trkpt>
      <trkpt lat="48.7690530" lon="13.7370670">
        <ele>794.2</ele>
        <time>2019-08-06T15:35:21Z</time>
      </trkpt>
      <trkpt lat="48.7690690" lon="13.7370180">
        <ele>794.2</ele>
        <time>2019-08-06T15:35:22Z</time>
      </trkpt>
      <trkpt lat="48.7690860" lon="13.7369710">
        <ele>794.4</ele>
        <time>2019-08-06T15:35:23Z</time>
      </trkpt>
      <trkpt lat="48.7691020" lon="13.7369190">
        <ele>794.4</ele>
        <time>2019-08-06T15:35:24Z</time>
      </trkpt>
      <trkpt lat="48.7691170" lon="13.7368660">
        <ele>794.6</ele>
        <time>2019-08-06T15:35:25Z</time>
      </trkpt>
      <trkpt lat="48.7691310" lon="13.7368180">
        <ele>794.6</ele>
        <time>2019-08-06T15:35:26Z</time>
      </trkpt>
      <trkpt lat="48.7691470" lon="13.7367640">
        <ele>794.6</ele>
        <time>2019-08-06T15:35:27Z</time>
      </trkpt>
      <trkpt lat="48.7691630" lon="13.7367120">
        <ele>794.8</ele>
        <time>2019-08-06T15:35:28Z</time>
      </trkpt>
      <trkpt lat="48.7691790" lon="13.7366640">
        <ele>794.8</ele>
        <time>2019-08-06T15:35:29Z</time>
      </trkpt>
      <trkpt lat="48.7691920" lon="13.7366120">
        <ele>795.0</ele>
        <time>2019-08-06T15:35:30Z</time>
      </trkpt>
      <trkpt lat="48.7692040" lon="13.7365560">
        <ele>795.0</ele>
        <time>2019-08-06T15:35:31Z</time>
      </trkpt>
      <trkpt lat="48.7692120" lon="13.7365070">
        <ele>795.2</ele>
        <time>2019-08-06T15:35:32Z</time>
      </trkpt>
      <trkpt lat="48.7692190" lon="13.7364640">
        <ele>795.2</ele>
        <time>2019-08-06T15:35:33Z</time>
      </trkpt>
      <trkpt lat="48.7692270" lon="13.7364180">
        <ele>795.4</ele>
        <time>2019-08-06T15:35:34Z</time>
      </trkpt>
      <trkpt lat="48.7692360" lon="13.7363670">
        <ele>795.4</ele>
        <time>2019-08-06T15:35:35Z</time>
      </trkpt>
      <trkpt lat="48.7692470" lon="13.7363120">
        <ele>795.6</ele>
        <time>2019-08-06T15:35:36Z</time>
      </trkpt>
      <trkpt lat="48.7692610" lon="13.7362580">
        <ele>795.6</ele>
        <time>2019-08-06T15:35:37Z</time>
      </trkpt>
      <trkpt lat="48.7692760" lon="13.7362040">
        <ele>795.8</ele>
        <time>2019-08-06T15:35:38Z</time>
      </trkpt>
      <trkpt lat="48.7692950" lon="13.7361470">
        <ele>795.8</ele>
        <time>2019-08-06T15:35:39Z</time>
      </trkpt>
      <trkpt lat="48.7693130" lon="13.7360920">
        <ele>796.0</ele>
        <time>2019-08-06T15:35:40Z</time>
      </trkpt>
      <trkpt lat="48.7693290" lon="13.7360400">
        <ele>796.2</ele>
        <time>2019-08-06T15:35:41Z</time>
      </trkpt>
      <trkpt lat="48.7693470" lon="13.7359850">
        <ele>796.2</ele>
        <time>2019-08-06T15:35:42Z</time>
      </trkpt>
      <trkpt lat="48.7693650" lon="13.7359290">
        <ele>796.4</ele>
        <time>2019-08-06T15:35:43Z</time>
      </trkpt>
      <trkpt lat="48.7693810" lon="13.7358720">
        <ele>796.4</ele>
        <time>2019-08-06T15:35:44Z</time>
      </trkpt>
      <trkpt lat="48.7694010" lon="13.7358160">
        <ele>796.6</ele>
        <time>2019-08-06T15:35:45Z</time>
      </trkpt>
      <trkpt lat="48.7694240" lon="13.7357640">
        <ele>796.6</ele>
        <time>2019-08-06T15:35:46Z</time>
      </trkpt>
      <trkpt lat="48.7694450" lon="13.7357130">
        <ele>796.8</ele>
        <time>2019-08-06T15:35:47Z</time>
      </trkpt>
      <trkpt lat="48.7694660" lon="13.7356590">
        <ele>796.8</ele>
        <time>2019-08-06T15:35:48Z</time>
      </trkpt>
      <trkpt lat="48.7694870" lon="13.7356070">
        <ele>797.0</ele>
        <time>2019-08-06T15:35:49Z</time>
      </trkpt>
      <trkpt lat="48.7695090" lon="13.7355580">
        <ele>797.0</ele>
        <time>2019-08-06T15:35:50Z</time>
      </trkpt>
      <trkpt lat="48.7695310" lon="13.7355030">
        <ele>797.2</ele>
        <time>2019-08-06T15:35:51Z</time>
      </trkpt>
      <trkpt lat="48.7695570" lon="13.7354430">
        <ele>797.2</ele>
        <time>2019-08-06T15:35:52Z</time>
      </trkpt>
      <trkpt lat="48.7695810" lon="13.7353870">
        <ele>797.4</ele>
        <time>2019-08-06T15:35:53Z</time>
      </trkpt>
      <trkpt lat="48.7696040" lon="13.7353350">
        <ele>797.4</ele>
        <time>2019-08-06T15:35:54Z</time>
      </trkpt>
      <trkpt lat="48.7696290" lon="13.7352830">
        <ele>797.6</ele>
        <time>2019-08-06T15:35:55Z</time>
      </trkpt>
      <trkpt lat="48.7696550" lon="13.7352310">
        <ele>797.6</ele>
        <time>2019-08-06T15:35:56Z</time>
      </trkpt>
      <trkpt lat="48.7696790" lon="13.7351850">
        <ele>797.8</ele>
        <time>2019-08-06T15:35:57Z</time>
      </trkpt>
      <trkpt lat="48.7697040" lon="13.7351400">
        <ele>798.0</ele>
        <time>2019-08-06T15:35:58Z</time>
      </trkpt>
      <trkpt lat="48.7697280" lon="13.7351020">
        <ele>798.0</ele>
        <time>2019-08-06T15:35:59Z</time>
      </trkpt>
      <trkpt lat="48.7697480" lon="13.7350700">
        <ele>798.2</ele>
        <time>2019-08-06T15:36:00Z</time>
      </trkpt>
      <trkpt lat="48.7697660" lon="13.7350430">
        <ele>798.2</ele>
        <time>2019-08-06T15:36:01Z</time>
      </trkpt>
      <trkpt lat="48.7697850" lon="13.7350180">
        <ele>798.4</ele>
        <time>2019-08-06T15:36:02Z</time>
      </trkpt>
      <trkpt lat="48.7698070" lon="13.7349910">
        <ele>798.4</ele>
        <time>2019-08-06T15:36:03Z</time>
      </trkpt>
      <trkpt lat="48.7698290" lon="13.7349620">
        <ele>798.6</ele>
        <time>2019-08-06T15:36:04Z</time>
      </trkpt>
      <trkpt lat="48.7698530" lon="13.7349300">
        <ele>798.6</ele>
        <time>2019-08-06T15:36:05Z</time>
      </trkpt>
      <trkpt lat="48.7698780" lon="13.7348970">
        <ele>798.8</ele>
        <time>2019-08-06T15:36:06Z</time>
      </trkpt>
      <trkpt lat="48.7699060" lon="13.7348650">
        <ele>798.8</ele>
        <time>2019-08-06T15:36:07Z</time>
      </trkpt>
      <trkpt lat="48.7699340" lon="13.7348330">
        <ele>799.0</ele>
        <time>2019-08-06T15:36:08Z</time>
      </trkpt>
      <trkpt lat="48.7699620" lon="13.7348010">
        <ele>799.0</ele>
        <time>2019-08-06T15:36:09Z</time>
      </trkpt>
      <trkpt lat="48.7699910" lon="13.7347690">
        <ele>799.2</ele>
        <time>2019-08-06T15:36:10Z</time>
      </trkpt>
      <trkpt lat="48.7700210" lon="13.7347390">
        <ele>799.2</ele>
        <time>2019-08-06T15:36:11Z</time>
      </trkpt>
      <trkpt lat="48.7700510" lon="13.7347100">
        <ele>799.4</ele>
        <time>2019-08-06T15:36:12Z</time>
      </trkpt>
      <trkpt lat="48.7700820" lon="13.7346810">
        <ele>799.4</ele>
        <time>2019-08-06T15:36:13Z</time>
      </trkpt>
      <trkpt lat="48.7701150" lon="13.7346510">
        <ele>799.6</ele>
        <time>2019-08-06T15:36:14Z</time>
      </trkpt>
      <trkpt lat="48.7701460" lon="13.7346250">
        <ele>799.6</ele>
        <time>2019-08-06T15:36:15Z</time>
      </trkpt>
      <trkpt lat="48.7701740" lon="13.7345980">
        <ele>799.8</ele>
        <time>2019-08-06T15:36:16Z</time>
      </trkpt>
      <trkpt lat="48.7702040" lon="13.7345720">
        <ele>799.8</ele>
        <time>2019-08-06T15:36:17Z</time>
      </trkpt>
      <trkpt lat="48.7702340" lon="13.7345420">
        <ele>800.0</ele>
        <time>2019-08-06T15:36:18Z</time>
      </trkpt>
      <trkpt lat="48.7702640" lon="13.7345130">
        <ele>800.0</ele>
        <time>2019-08-06T15:36:19Z</time>
      </trkpt>
      <trkpt lat="48.7702950" lon="13.7344820">
        <ele>800.2</ele>
        <time>2019-08-06T15:36:20Z</time>
      </trkpt>
      <trkpt lat="48.7703240" lon="13.7344510">
        <ele>800.2</ele>
        <time>2019-08-06T15:36:21Z</time>
      </trkpt>
      <trkpt lat="48.7703510" lon="13.7344260">
        <ele>800.4</ele>
        <time>2019-08-06T15:36:22Z</time>
      </trkpt>
      <trkpt lat="48.7703800" lon="13.7344010">
        <ele>800.4</ele>
        <time>2019-08-06T15:36:23Z</time>
      </trkpt>
      <trkpt lat="48.7704090" lon="13.7343730">
        <ele>800.6</ele>
        <time>2019-08-06T15:36:24Z</time>
      </trkpt>
      <trkpt lat="48.7704400" lon="13.7343460">
        <ele>800.6</ele>
        <time>2019-08-06T15:36:25Z</time>
      </trkpt>
      <trkpt lat="48.7704740" lon="13.7343230">
        <ele>800.8</ele>
        <time>2019-08-06T15:36:26Z</time>
      </trkpt>
      <trkpt lat="48.7705130" lon="13.7342990">
        <ele>800.8</ele>
        <time>2019-08-06T15:36:27Z</time>
      </trkpt>
      <trkpt lat="48.7705540" lon="13.7342780">
        <ele>801.0</ele>
        <time>2019-08-06T15:36:28Z</time>
      </trkpt>
      <trkpt lat="48.7705940" lon="13.7342580">
        <ele>801.0</ele>
        <time>2019-08-06T15:36:29Z</time>
      </trkpt>
      <trkpt lat="48.7706320" lon="13.7342370">
        <ele>801.2</ele>
        <time>2019-08-06T15:36:30Z</time>
      </trkpt>
      <trkpt lat="48.7706700" lon="13.7342090">
        <ele>801.4</ele>
        <time>2019-08-06T15:36:31Z</time>
      </trkpt>
      <trkpt lat="48.7707110" lon="13.7341860">
        <ele>801.4</ele>
        <time>2019-08-06T15:36:32Z</time>
      </trkpt>
      <trkpt lat="48.7707530" lon="13.7341670">
        <ele>801.6</ele>
        <time>2019-08-06T15:36:33Z</time>
      </trkpt>
      <trkpt lat="48.7707940" lon="13.7341500">
        <ele>801.6</ele>
        <time>2019-08-06T15:36:34Z</time>
      </trkpt>
      <trkpt lat="48.7708360" lon="13.7341370">
        <ele>801.8</ele>
        <time>2019-08-06T15:36:35Z</time>
      </trkpt>
      <trkpt lat="48.7708800" lon="13.7341260">
        <ele>801.8</ele>
        <time>2019-08-06T15:36:36Z</time>
      </trkpt>
      <trkpt lat="48.7709240" lon="13.7341160">
        <ele>802.0</ele>
        <time>2019-08-06T15:36:37Z</time>
      </trkpt>
      <trkpt lat="48.7709670" lon="13.7341080">
        <ele>802.0</ele>
        <time>2019-08-06T15:36:38Z</time>
      </trkpt>
      <trkpt lat="48.7710090" lon="13.7341030">
        <ele>802.2</ele>
        <time>2019-08-06T15:36:39Z</time>
      </trkpt>
      <trkpt lat="48.7710520" lon="13.7341010">
        <ele>802.2</ele>
        <time>2019-08-06T15:36:40Z</time>
      </trkpt>
      <trkpt lat="48.7710970" lon="13.7340970">
        <ele>802.4</ele>
        <time>2019-08-06T15:36:41Z</time>
      </trkpt>
      <trkpt lat="48.7711410" lon="13.7340930">
        <ele>802.4</ele>
        <time>2019-08-06T15:36:42Z</time>
      </trkpt>
      <trkpt lat="48.7711820" lon="13.7340870">
        <ele>802.6</ele>
        <time>2019-08-06T15:36:43Z</time>
      </trkpt>
      <trkpt lat="48.7712220" lon="13.7340810">
        <ele>802.8</ele>
        <time>2019-08-06T15:36:44Z</time>
      </trkpt>
      <trkpt lat="48.7712620" lon="13.7340730">
        <ele>802.8</ele>
        <time>2019-08-06T15:36:45Z</time>
      </trkpt>
      <trkpt lat="48.7713020" lon="13.7340660">
        <ele>802.8</ele>
        <time>2019-08-06T15:36:46Z</time>
      </trkpt>
      <trkpt lat="48.7713430" lon="13.7340640">
        <ele>803.0</ele>
        <time>2019-08-06T15:36:47Z</time>
      </trkpt>
      <trkpt lat="48.7713830" lon="13.7340580">
        <ele>803.0</ele>
        <time>2019-08-06T15:36:48Z</time>
      </trkpt>
      <trkpt lat="48.7714220" lon="13.7340510">
        <ele>803.2</ele>
        <time>2019-08-06T15:36:49Z</time>
      </trkpt>
      <trkpt lat="48.7714590" lon="13.7340430">
        <ele>803.4</ele>
        <time>2019-08-06T15:36:50Z</time>
      </trkpt>
      <trkpt lat="48.7714950" lon="13.7340360">
        <ele>803.4</ele>
        <time>2019-08-06T15:36:51Z</time>
      </trkpt>
      <trkpt lat="48.7715330" lon="13.7340310">
        <ele>803.6</ele>
        <time>2019-08-06T15:36:52Z</time>
      </trkpt>
      <trkpt lat="48.7715650" lon="13.7340300">
        <ele>803.6</ele>
        <time>2019-08-06T15:36:53Z</time>
      </trkpt>
      <trkpt lat="48.7715940" lon="13.7340280">
        <ele>803.8</ele>
        <time>2019-08-06T15:36:54Z</time>
      </trkpt>
      <trkpt lat="48.7716190" lon="13.7340270">
        <ele>803.8</ele>
        <time>2019-08-06T15:36:55Z</time>
      </trkpt>
      <trkpt lat="48.7716410" lon="13.7340220">
        <ele>804.0</ele>
        <time>2019-08-06T15:36:56Z</time>
      </trkpt>
      <trkpt lat="48.7716700" lon="13.7340120">
        <ele>804.2</ele>
        <time>2019-08-06T15:36:57Z</time>
      </trkpt>
      <trkpt lat="48.7716990" lon="13.7340040">
        <ele>804.2</ele>
        <time>2019-08-06T15:36:58Z</time>
      </trkpt>
      <trkpt lat="48.7717300" lon="13.7340020">
        <ele>804.4</ele>
        <time>2019-08-06T15:36:59Z</time>
      </trkpt>
      <trkpt lat="48.7717600" lon="13.7340030">
        <ele>804.4</ele>
        <time>2019-08-06T15:37:00Z</time>
      </trkpt>
      <trkpt lat="48.7717960" lon="13.7340000">
        <ele>804.6</ele>
        <time>2019-08-06T15:37:01Z</time>
      </trkpt>
      <trkpt lat="48.7718370" lon="13.7339930">
        <ele>804.6</ele>
        <time>2019-08-06T15:37:02Z</time>
      </trkpt>
      <trkpt lat="48.7718750" lon="13.7339820">
        <ele>804.8</ele>
        <time>2019-08-06T15:37:03Z</time>
      </trkpt>
      <trkpt lat="48.7719130" lon="13.7339670">
        <ele>804.8</ele>
        <time>2019-08-06T15:37:04Z</time>
      </trkpt>
      <trkpt lat="48.7719500" lon="13.7339470">
        <ele>805.0</ele>
        <time>2019-08-06T15:37:05Z</time>
      </trkpt>
      <trkpt lat="48.7719850" lon="13.7339250">
        <ele>805.0</ele>
        <time>2019-08-06T15:37:06Z</time>
      </trkpt>
      <trkpt lat="48.7720250" lon="13.7339040">
        <ele>805.2</ele>
        <time>2019-08-06T15:37:07Z</time>
      </trkpt>
      <trkpt lat="48.7720640" lon="13.7338820">
        <ele>805.2</ele>
        <time>2019-08-06T15:37:08Z</time>
      </trkpt>
      <trkpt lat="48.7720980" lon="13.7338590">
        <ele>805.4</ele>
        <time>2019-08-06T15:37:09Z</time>
      </trkpt>
      <trkpt lat="48.7721320" lon="13.7338410">
        <ele>805.6</ele>
        <time>2019-08-06T15:37:10Z</time>
      </trkpt>
      <trkpt lat="48.7721670" lon="13.7338280">
        <ele>805.6</ele>
        <time>2019-08-06T15:37:11Z</time>
      </trkpt>
      <trkpt lat="48.7722120" lon="13.7338120">
        <ele>805.8</ele>
        <time>2019-08-06T15:37:12Z</time>
      </trkpt>
      <trkpt lat="48.7722580" lon="13.7337980">
        <ele>805.8</ele>
        <time>2019-08-06T15:37:13Z</time>
      </trkpt>
      <trkpt lat="48.7723080" lon="13.7337910">
        <ele>806.0</ele>
        <time>2019-08-06T15:37:14Z</time>
      </trkpt>
      <trkpt lat="48.7723550" lon="13.7337870">
        <ele>806.2</ele>
        <time>2019-08-06T15:37:15Z</time>
      </trkpt>
      <trkpt lat="48.7723950" lon="13.7337790">
        <ele>806.2</ele>
        <time>2019-08-06T15:37:16Z</time>
      </trkpt>
      <trkpt lat="48.7724330" lon="13.7337660">
        <ele>806.2</ele>
        <time>2019-08-06T15:37:17Z</time>
      </trkpt>
      <trkpt lat="48.7724760" lon="13.7337590">
        <ele>806.4</ele>
        <time>2019-08-06T15:37:18Z</time>
      </trkpt>
      <trkpt lat="48.7725170" lon="13.7337540">
        <ele>806.4</ele>
        <time>2019-08-06T15:37:19Z</time>
      </trkpt>
      <trkpt lat="48.7725560" lon="13.7337450">
        <ele>806.6</ele>
        <time>2019-08-06T15:37:20Z</time>
      </trkpt>
      <trkpt lat="48.7725930" lon="13.7337380">
        <ele>806.6</ele>
        <time>2019-08-06T15:37:21Z</time>
      </trkpt>
      <trkpt lat="48.7726340" lon="13.7337290">
        <ele>806.8</ele>
        <time>2019-08-06T15:37:22Z</time>
      </trkpt>
      <trkpt lat="48.7726780" lon="13.7337220">
        <ele>806.8</ele>
        <time>2019-08-06T15:37:23Z</time>
      </trkpt>
      <trkpt lat="48.7727210" lon="13.7337160">
        <ele>807.0</ele>
        <time>2019-08-06T15:37:24Z</time>
      </trkpt>
      <trkpt lat="48.7727600" lon="13.7337060">
        <ele>807.2</ele>
        <time>2019-08-06T15:37:25Z</time>
      </trkpt>
      <trkpt lat="48.7728000" lon="13.7336980">
        <ele>807.2</ele>
        <time>2019-08-06T15:37:26Z</time>
      </trkpt>
      <trkpt lat="48.7728420" lon="13.7336920">
        <ele>807.4</ele>
        <time>2019-08-06T15:37:27Z</time>
      </trkpt>
      <trkpt lat="48.7728840" lon="13.7336940">
        <ele>807.6</ele>
        <time>2019-08-06T15:37:28Z</time>
      </trkpt>
      <trkpt lat="48.7729280" lon="13.7336940">
        <ele>807.8</ele>
        <time>2019-08-06T15:37:29Z</time>
      </trkpt>
      <trkpt lat="48.7729750" lon="13.7336920">
        <ele>807.8</ele>
        <time>2019-08-06T15:37:30Z</time>
      </trkpt>
      <trkpt lat="48.7730200" lon="13.7336950">
        <ele>808.0</ele>
        <time>2019-08-06T15:37:31Z</time>
      </trkpt>
      <trkpt lat="48.7730670" lon="13.7336990">
        <ele>808.2</ele>
        <time>2019-08-06T15:37:32Z</time>
      </trkpt>
      <trkpt lat="48.7731130" lon="13.7337000">
        <ele>808.2</ele>
        <time>2019-08-06T15:37:33Z</time>
      </trkpt>
      <trkpt lat="48.7731570" lon="13.7337050">
        <ele>808.4</ele>
        <time>2019-08-06T15:37:34Z</time>
      </trkpt>
      <trkpt lat="48.7732010" lon="13.7337150">
        <ele>808.4</ele>
        <time>2019-08-06T15:37:35Z</time>
      </trkpt>
      <trkpt lat="48.7732460" lon="13.7337220">
        <ele>808.6</ele>
        <time>2019-08-06T15:37:36Z</time>
      </trkpt>
      <trkpt lat="48.7732890" lon="13.7337330">
        <ele>808.6</ele>
        <time>2019-08-06T15:37:37Z</time>
      </trkpt>
      <trkpt lat="48.7733300" lon="13.7337430">
        <ele>808.8</ele>
        <time>2019-08-06T15:37:38Z</time>
      </trkpt>
      <trkpt lat="48.7733680" lon="13.7337540">
        <ele>808.8</ele>
        <time>2019-08-06T15:37:39Z</time>
      </trkpt>
      <trkpt lat="48.7734060" lon="13.7337690">
        <ele>809.0</ele>
        <time>2019-08-06T15:37:40Z</time>
      </trkpt>
      <trkpt lat="48.7734420" lon="13.7337840">
        <ele>809.0</ele>
        <time>2019-08-06T15:37:41Z</time>
      </trkpt>
      <trkpt lat="48.7734790" lon="13.7338000">
        <ele>809.2</ele>
        <time>2019-08-06T15:37:42Z</time>
      </trkpt>
      <trkpt lat="48.7735160" lon="13.7338130">
        <ele>809.2</ele>
        <time>2019-08-06T15:37:43Z</time>
      </trkpt>
      <trkpt lat="48.7735520" lon="13.7338260">
        <ele>809.2</ele>
        <time>2019-08-06T15:37:44Z</time>
      </trkpt>
      <trkpt lat="48.7735880" lon="13.7338410">
        <ele>809.4</ele>
        <time>2019-08-06T15:37:45Z</time>
      </trkpt>
      <trkpt lat="48.7736240" lon="13.7338620">
        <ele>809.4</ele>
        <time>2019-08-06T15:37:46Z</time>
      </trkpt>
      <trkpt lat="48.7736600" lon="13.7338840">
        <ele>809.6</ele>
        <time>2019-08-06T15:37:47Z</time>
      </trkpt>
      <trkpt lat="48.7736970" lon="13.7339050">
        <ele>809.8</ele>
        <time>2019-08-06T15:37:48Z</time>
      </trkpt>
      <trkpt lat="48.7737360" lon="13.7339300">
        <ele>809.8</ele>
        <time>2019-08-06T15:37:49Z</time>
      </trkpt>
      <trkpt lat="48.7737740" lon="13.7339610">
        <ele>810.0</ele>
        <time>2019-08-06T15:37:50Z</time>
      </trkpt>
      <trkpt lat="48.7738080" lon="13.7339900">
        <ele>810.0</ele>
        <time>2019-08-06T15:37:51Z</time>
      </trkpt>
      <trkpt lat="48.7738420" lon="13.7340220">
        <ele>810.2</ele>
        <time>2019-08-06T15:37:52Z</time>
      </trkpt>
      <trkpt lat="48.7738750" lon="13.7340490">
        <ele>810.4</ele>
        <time>2019-08-06T15:37:53Z</time>
      </trkpt>
      <trkpt lat="48.7739120" lon="13.7340820">
        <ele>810.4</ele>
        <time>2019-08-06T15:37:54Z</time>
      </trkpt>
      <trkpt lat="48.7739440" lon="13.7341140">
        <ele>810.6</ele>
        <time>2019-08-06T15:37:55Z</time>
      </trkpt>
      <trkpt lat="48.7739790" lon="13.7341470">
        <ele>810.6</ele>
        <time>2019-08-06T15:37:56Z</time>
      </trkpt>
      <trkpt lat="48.7740140" lon="13.7341820">
        <ele>810.8</ele>
        <time>2019-08-06T15:37:57Z</time>
      </trkpt>
      <trkpt lat="48.7740500" lon="13.7342180">
        <ele>810.8</ele>
        <time>2019-08-06T15:37:58Z</time>
      </trkpt>
      <trkpt lat="48.7740810" lon="13.7342480">
        <ele>811.0</ele>
        <time>2019-08-06T15:37:59Z</time>
      </trkpt>
      <trkpt lat="48.7741150" lon="13.7342790">
        <ele>811.0</ele>
        <time>2019-08-06T15:38:00Z</time>
      </trkpt>
      <trkpt lat="48.7741530" lon="13.7343140">
        <ele>811.2</ele>
        <time>2019-08-06T15:38:01Z</time>
      </trkpt>
      <trkpt lat="48.7741910" lon="13.7343460">
        <ele>811.4</ele>
        <time>2019-08-06T15:38:02Z</time>
      </trkpt>
      <trkpt lat="48.7742280" lon="13.7343790">
        <ele>811.4</ele>
        <time>2019-08-06T15:38:03Z</time>
      </trkpt>
      <trkpt lat="48.7742660" lon="13.7344150">
        <ele>811.6</ele>
        <time>2019-08-06T15:38:04Z</time>
      </trkpt>
      <trkpt lat="48.7743050" lon="13.7344500">
        <ele>811.8</ele>
        <time>2019-08-06T15:38:05Z</time>
      </trkpt>
      <trkpt lat="48.7743430" lon="13.7344820">
        <ele>811.8</ele>
        <time>2019-08-06T15:38:06Z</time>
      </trkpt>
      <trkpt lat="48.7743820" lon="13.7345160">
        <ele>812.0</ele>
        <time>2019-08-06T15:38:07Z</time>
      </trkpt>
      <trkpt lat="48.7744210" lon="13.7345500">
        <ele>812.2</ele>
        <time>2019-08-06T15:38:08Z</time>
      </trkpt>
      <trkpt lat="48.7744600" lon="13.7345830">
        <ele>812.2</ele>
        <time>2019-08-06T15:38:09Z</time>
      </trkpt>
      <trkpt lat="48.7744980" lon="13.7346120">
        <ele>812.4</ele>
        <time>2019-08-06T15:38:10Z</time>
      </trkpt>
      <trkpt lat="48.7745350" lon="13.7346400">
        <ele>812.4</ele>
        <time>2019-08-06T15:38:11Z</time>
      </trkpt>
      <trkpt lat="48.7745730" lon="13.7346660">
        <ele>812.4</ele>
        <time>2019-08-06T15:38:12Z</time>
      </trkpt>
      <trkpt lat="48.7746080" lon="13.7346890">
        <ele>812.6</ele>
        <time>2019-08-06T15:38:13Z</time>
      </trkpt>
      <trkpt lat="48.7746430" lon="13.7347140">
        <ele>812.6</ele>
        <time>2019-08-06T15:38:14Z</time>
      </trkpt>
      <trkpt lat="48.7746740" lon="13.7347360">
        <ele>812.6</ele>
        <time>2019-08-06T15:38:15Z</time>
      </trkpt>
      <trkpt lat="48.7747040" lon="13.7347570">
        <ele>812.8</ele>
        <time>2019-08-06T15:38:16Z</time>
      </trkpt>
      <trkpt lat="48.7747400" lon="13.7347760">
        <ele>812.8</ele>
        <time>2019-08-06T15:38:17Z</time>
      </trkpt>
      <trkpt lat="48.7747760" lon="13.7347930">
        <ele>813.0</ele>
        <time>2019-08-06T15:38:18Z</time>
      </trkpt>
      <trkpt lat="48.7748150" lon="13.7348060">
        <ele>813.0</ele>
        <time>2019-08-06T15:38:19Z</time>
      </trkpt>
      <trkpt lat="48.7748540" lon="13.7348160">
        <ele>813.0</ele>
        <time>2019-08-06T15:38:20Z</time>
      </trkpt>
      <trkpt lat="48.7748930" lon="13.7348290">
        <ele>813.2</ele>
        <time>2019-08-06T15:38:21Z</time>
      </trkpt>
      <trkpt lat="48.7749320" lon="13.7348430">
        <ele>813.2</ele>
        <time>2019-08-06T15:38:22Z</time>
      </trkpt>
      <trkpt lat="48.7749710" lon="13.7348610">
        <ele>813.4</ele>
        <time>2019-08-06T15:38:23Z</time>
      </trkpt>
      <trkpt lat="48.7750130" lon="13.7348830">
        <ele>813.4</ele>
        <time>2019-08-06T15:38:24Z</time>
      </trkpt>
      <trkpt lat="48.7750540" lon="13.7349070">
        <ele>813.4</ele>
        <time>2019-08-06T15:38:25Z</time>
      </trkpt>
      <trkpt lat="48.7750950" lon="13.7349320">
        <ele>813.4</ele>
        <time>2019-08-06T15:38:26Z</time>
      </trkpt>
      <trkpt lat="48.7751350" lon="13.7349610">
        <ele>813.4</ele>
        <time>2019-08-06T15:38:27Z</time>
      </trkpt>
      <trkpt lat="48.7751750" lon="13.7349930">
        <ele>813.4</ele>
        <time>2019-08-06T15:38:28Z</time>
      </trkpt>
      <trkpt lat="48.7752180" lon="13.7350250">
        <ele>813.6</ele>
        <time>2019-08-06T15:38:29Z</time>
      </trkpt>
      <trkpt lat="48.7752610" lon="13.7350550">
        <ele>813.6</ele>
        <time>2019-08-06T15:38:30Z</time>
      </trkpt>
      <trkpt lat="48.7753030" lon="13.7350880">
        <ele>813.6</ele>
        <time>2019-08-06T15:38:31Z</time>
      </trkpt>
      <trkpt lat="48.7753450" lon="13.7351220">
        <ele>813.4</ele>
        <time>2019-08-06T15:38:32Z</time>
      </trkpt>
      <trkpt lat="48.7753880" lon="13.7351560">
        <ele>813.4</ele>
        <time>2019-08-06T15:38:33Z</time>
      </trkpt>
      <trkpt lat="48.7754310" lon="13.7351900">
        <ele>813.4</ele>
        <time>2019-08-06T15:38:34Z</time>
      </trkpt>
      <trkpt lat="48.7754730" lon="13.7352240">
        <ele>813.4</ele>
        <time>2019-08-06T15:38:35Z</time>
      </trkpt>
      <trkpt lat="48.7755180" lon="13.7352590">
        <ele>813.4</ele>
        <time>2019-08-06T15:38:36Z</time>
      </trkpt>
      <trkpt lat="48.7755640" lon="13.7352960">
        <ele>813.4</ele>
        <time>2019-08-06T15:38:37Z</time>
      </trkpt>
      <trkpt lat="48.7756100" lon="13.7353320">
        <ele>813.4</ele>
        <time>2019-08-06T15:38:38Z</time>
      </trkpt>
      <trkpt lat="48.7756560" lon="13.7353670">
        <ele>813.4</ele>
        <time>2019-08-06T15:38:39Z</time>
      </trkpt>
      <trkpt lat="48.7757010" lon="13.7354010">
        <ele>813.4</ele>
        <time>2019-08-06T15:38:40Z</time>
      </trkpt>
      <trkpt lat="48.7757480" lon="13.7354360">
        <ele>813.4</ele>
        <time>2019-08-06T15:38:41Z</time>
      </trkpt>
      <trkpt lat="48.7757960" lon="13.7354730">
        <ele>813.4</ele>
        <time>2019-08-06T15:38:42Z</time>
      </trkpt>
      <trkpt lat="48.7758420" lon="13.7355090">
        <ele>813.4</ele>
        <time>2019-08-06T15:38:43Z</time>
      </trkpt>
      <trkpt lat="48.7758890" lon="13.7355470">
        <ele>813.4</ele>
        <time>2019-08-06T15:38:44Z</time>
      </trkpt>
      <trkpt lat="48.7759350" lon="13.7355850">
        <ele>813.4</ele>
        <time>2019-08-06T15:38:45Z</time>
      </trkpt>
      <trkpt lat="48.7759820" lon="13.7356250">
        <ele>813.4</ele>
        <time>2019-08-06T15:38:46Z</time>
      </trkpt>
      <trkpt lat="48.7760290" lon="13.7356630">
        <ele>813.4</ele>
        <time>2019-08-06T15:38:47Z</time>
      </trkpt>
      <trkpt lat="48.7760770" lon="13.7357000">
        <ele>813.4</ele>
        <time>2019-08-06T15:38:48Z</time>
      </trkpt>
      <trkpt lat="48.7761240" lon="13.7357390">
        <ele>813.4</ele>
        <time>2019-08-06T15:38:49Z</time>
      </trkpt>
      <trkpt lat="48.7761700" lon="13.7357840">
        <ele>813.4</ele>
        <time>2019-08-06T15:38:50Z</time>
      </trkpt>
      <trkpt lat="48.7762140" lon="13.7358370">
        <ele>813.4</ele>
        <time>2019-08-06T15:38:51Z</time>
      </trkpt>
      <trkpt lat="48.7762530" lon="13.7358940">
        <ele>813.4</ele>
        <time>2019-08-06T15:38:52Z</time>
      </trkpt>
      <trkpt lat="48.7762920" lon="13.7359530">
        <ele>813.4</ele>
        <time>2019-08-06T15:38:53Z</time>
      </trkpt>
      <trkpt lat="48.7763340" lon="13.7360090">
        <ele>813.4</ele>
        <time>2019-08-06T15:38:54Z</time>
      </trkpt>
      <trkpt lat="48.7763780" lon="13.7360590">
        <ele>813.2</ele>
        <time>2019-08-06T15:38:55Z</time>
      </trkpt>
      <trkpt lat="48.7764240" lon="13.7361020">
        <ele>813.2</ele>
        <time>2019-08-06T15:38:56Z</time>
      </trkpt>
      <trkpt lat="48.7764730" lon="13.7361390">
        <ele>813.2</ele>
        <time>2019-08-06T15:38:57Z</time>
      </trkpt>
      <trkpt lat="48.7765220" lon="13.7361740">
        <ele>813.2</ele>
        <time>2019-08-06T15:38:58Z</time>
      </trkpt>
      <trkpt lat="48.7765710" lon="13.7362120">
        <ele>813.2</ele>
        <time>2019-08-06T15:38:59Z</time>
      </trkpt>
      <trkpt lat="48.7766190" lon="13.7362520">
        <ele>813.2</ele>
        <time>2019-08-06T15:39:00Z</time>
      </trkpt>
      <trkpt lat="48.7766650" lon="13.7362900">
        <ele>813.0</ele>
        <time>2019-08-06T15:39:01Z</time>
      </trkpt>
      <trkpt lat="48.7767110" lon="13.7363290">
        <ele>813.0</ele>
        <time>2019-08-06T15:39:02Z</time>
      </trkpt>
      <trkpt lat="48.7767540" lon="13.7363690">
        <ele>813.0</ele>
        <time>2019-08-06T15:39:03Z</time>
      </trkpt>
      <trkpt lat="48.7767990" lon="13.7364090">
        <ele>813.0</ele>
        <time>2019-08-06T15:39:04Z</time>
      </trkpt>
      <trkpt lat="48.7768430" lon="13.7364490">
        <ele>813.0</ele>
        <time>2019-08-06T15:39:05Z</time>
      </trkpt>
      <trkpt lat="48.7768840" lon="13.7364910">
        <ele>813.0</ele>
        <time>2019-08-06T15:39:06Z</time>
      </trkpt>
      <trkpt lat="48.7769250" lon="13.7365330">
        <ele>813.0</ele>
        <time>2019-08-06T15:39:07Z</time>
      </trkpt>
      <trkpt lat="48.7769670" lon="13.7365760">
        <ele>813.0</ele>
        <time>2019-08-06T15:39:08Z</time>
      </trkpt>
      <trkpt lat="48.7770070" lon="13.7366220">
        <ele>813.0</ele>
        <time>2019-08-06T15:39:09Z</time>
      </trkpt>
      <trkpt lat="48.7770460" lon="13.7366720">
        <ele>813.2</ele>
        <time>2019-08-06T15:39:10Z</time>
      </trkpt>
      <trkpt lat="48.7770860" lon="13.7367230">
        <ele>813.2</ele>
        <time>2019-08-06T15:39:11Z</time>
      </trkpt>
      <trkpt lat="48.7771270" lon="13.7367730">
        <ele>813.2</ele>
        <time>2019-08-06T15:39:12Z</time>
      </trkpt>
      <trkpt lat="48.7771650" lon="13.7368200">
        <ele>813.4</ele>
        <time>2019-08-06T15:39:13Z</time>
      </trkpt>
      <trkpt lat="48.7772030" lon="13.7368680">
        <ele>813.4</ele>
        <time>2019-08-06T15:39:14Z</time>
      </trkpt>
      <trkpt lat="48.7772410" lon="13.7369170">
        <ele>813.4</ele>
        <time>2019-08-06T15:39:15Z</time>
      </trkpt>
      <trkpt lat="48.7772760" lon="13.7369680">
        <ele>813.6</ele>
        <time>2019-08-06T15:39:16Z</time>
      </trkpt>
      <trkpt lat="48.7773090" lon="13.7370190">
        <ele>813.6</ele>
        <time>2019-08-06T15:39:17Z</time>
      </trkpt>
      <trkpt lat="48.7773390" lon="13.7370720">
        <ele>813.6</ele>
        <time>2019-08-06T15:39:18Z</time>
      </trkpt>
      <trkpt lat="48.7773700" lon="13.7371270">
        <ele>813.8</ele>
        <time>2019-08-06T15:39:19Z</time>
      </trkpt>
      <trkpt lat="48.7774010" lon="13.7371790">
        <ele>814.0</ele>
        <time>2019-08-06T15:39:20Z</time>
      </trkpt>
      <trkpt lat="48.7774310" lon="13.7372330">
        <ele>814.0</ele>
        <time>2019-08-06T15:39:21Z</time>
      </trkpt>
      <trkpt lat="48.7774580" lon="13.7372880">
        <ele>814.2</ele>
        <time>2019-08-06T15:39:22Z</time>
      </trkpt>
      <trkpt lat="48.7774840" lon="13.7373380">
        <ele>814.4</ele>
        <time>2019-08-06T15:39:23Z</time>
      </trkpt>
      <trkpt lat="48.7775100" lon="13.7373920">
        <ele>814.4</ele>
        <time>2019-08-06T15:39:24Z</time>
      </trkpt>
      <trkpt lat="48.7775350" lon="13.7374460">
        <ele>814.4</ele>
        <time>2019-08-06T15:39:25Z</time>
      </trkpt>
      <trkpt lat="48.7775610" lon="13.7374990">
        <ele>814.6</ele>
        <time>2019-08-06T15:39:26Z</time>
      </trkpt>
      <trkpt lat="48.7775880" lon="13.7375520">
        <ele>814.6</ele>
        <time>2019-08-06T15:39:27Z</time>
      </trkpt>
      <trkpt lat="48.7776110" lon="13.7376050">
        <ele>814.8</ele>
        <time>2019-08-06T15:39:28Z</time>
      </trkpt>
      <trkpt lat="48.7776360" lon="13.7376640">
        <ele>814.8</ele>
        <time>2019-08-06T15:39:29Z</time>
      </trkpt>
      <trkpt lat="48.7776600" lon="13.7377190">
        <ele>815.0</ele>
        <time>2019-08-06T15:39:30Z</time>
      </trkpt>
      <trkpt lat="48.7776840" lon="13.7377700">
        <ele>815.0</ele>
        <time>2019-08-06T15:39:31Z</time>
      </trkpt>
      <trkpt lat="48.7777050" lon="13.7378260">
        <ele>815.2</ele>
        <time>2019-08-06T15:39:32Z</time>
      </trkpt>
      <trkpt lat="48.7777280" lon="13.7378800">
        <ele>815.2</ele>
        <time>2019-08-06T15:39:33Z</time>
      </trkpt>
      <trkpt lat="48.7777530" lon="13.7379330">
        <ele>815.4</ele>
        <time>2019-08-06T15:39:34Z</time>
      </trkpt>
      <trkpt lat="48.7777780" lon="13.7379830">
        <ele>815.4</ele>
        <time>2019-08-06T15:39:35Z</time>
      </trkpt>
      <trkpt lat="48.7778020" lon="13.7380350">
        <ele>815.6</ele>
        <time>2019-08-06T15:39:36Z</time>
      </trkpt>
      <trkpt lat="48.7778240" lon="13.7380980">
        <ele>815.6</ele>
        <time>2019-08-06T15:39:37Z</time>
      </trkpt>
      <trkpt lat="48.7778480" lon="13.7381560">
        <ele>815.8</ele>
        <time>2019-08-06T15:39:38Z</time>
      </trkpt>
      <trkpt lat="48.7778710" lon="13.7382120">
        <ele>816.0</ele>
        <time>2019-08-06T15:39:39Z</time>
      </trkpt>
      <trkpt lat="48.7778950" lon="13.7382670">
        <ele>816.0</ele>
        <time>2019-08-06T15:39:40Z</time>
      </trkpt>
      <trkpt lat="48.7779210" lon="13.7383190">
        <ele>816.2</ele>
        <time>2019-08-06T15:39:41Z</time>
      </trkpt>
      <trkpt lat="48.7779480" lon="13.7383720">
        <ele>816.2</ele>
        <time>2019-08-06T15:39:42Z</time>
      </trkpt>
      <trkpt lat="48.7779750" lon="13.7384240">
        <ele>816.4</ele>
        <time>2019-08-06T15:39:43Z</time>
      </trkpt>
      <trkpt lat="48.7779990" lon="13.7384730">
        <ele>816.4</ele>
        <time>2019-08-06T15:39:44Z</time>
      </trkpt>
      <trkpt lat="48.7780210" lon="13.7385240">
        <ele>816.6</ele>
        <time>2019-08-06T15:39:45Z</time>
      </trkpt>
      <trkpt lat="48.7780420" lon="13.7385800">
        <ele>816.8</ele>
        <time>2019-08-06T15:39:46Z</time>
      </trkpt>
      <trkpt lat="48.7780610" lon="13.7386400">
        <ele>816.8</ele>
        <time>2019-08-06T15:39:47Z</time>
      </trkpt>
      <trkpt lat="48.7780810" lon="13.7386960">
        <ele>817.0</ele>
        <time>2019-08-06T15:39:48Z</time>
      </trkpt>
      <trkpt lat="48.7781020" lon="13.7387470">
        <ele>817.2</ele>
        <time>2019-08-06T15:39:49Z</time>
      </trkpt>
      <trkpt lat="48.7781220" lon="13.7388000">
        <ele>817.2</ele>
        <time>2019-08-06T15:39:50Z</time>
      </trkpt>
      <trkpt lat="48.7781500" lon="13.7388580">
        <ele>817.4</ele>
        <time>2019-08-06T15:39:51Z</time>
      </trkpt>
      <trkpt lat="48.7781780" lon="13.7389070">
        <ele>817.4</ele>
        <time>2019-08-06T15:39:52Z</time>
      </trkpt>
      <trkpt lat="48.7782040" lon="13.7389580">
        <ele>817.6</ele>
        <time>2019-08-06T15:39:53Z</time>
      </trkpt>
      <trkpt lat="48.7782290" lon="13.7390060">
        <ele>817.6</ele>
        <time>2019-08-06T15:39:54Z</time>
      </trkpt>
      <trkpt lat="48.7782520" lon="13.7390540">
        <ele>817.8</ele>
        <time>2019-08-06T15:39:55Z</time>
      </trkpt>
      <trkpt lat="48.7782790" lon="13.7391050">
        <ele>817.8</ele>
        <time>2019-08-06T15:39:56Z</time>
      </trkpt>
      <trkpt lat="48.7783060" lon="13.7391540">
        <ele>818.0</ele>
        <time>2019-08-06T15:39:57Z</time>
      </trkpt>
      <trkpt lat="48.7783360" lon="13.7392000">
        <ele>818.0</ele>
        <time>2019-08-06T15:39:58Z</time>
      </trkpt>
      <trkpt lat="48.7783660" lon="13.7392430">
        <ele>818.2</ele>
        <time>2019-08-06T15:39:59Z</time>
      </trkpt>
      <trkpt lat="48.7783950" lon="13.7392800">
        <ele>818.2</ele>
        <time>2019-08-06T15:40:00Z</time>
      </trkpt>
      <trkpt lat="48.7784240" lon="13.7393190">
        <ele>818.4</ele>
        <time>2019-08-06T15:40:01Z</time>
      </trkpt>
      <trkpt lat="48.7784540" lon="13.7393600">
        <ele>818.4</ele>
        <time>2019-08-06T15:40:02Z</time>
      </trkpt>
      <trkpt lat="48.7784810" lon="13.7394070">
        <ele>818.6</ele>
        <time>2019-08-06T15:40:03Z</time>
      </trkpt>
      <trkpt lat="48.7785050" lon="13.7394540">
        <ele>818.6</ele>
        <time>2019-08-06T15:40:04Z</time>
      </trkpt>
      <trkpt lat="48.7785310" lon="13.7395000">
        <ele>818.8</ele>
        <time>2019-08-06T15:40:05Z</time>
      </trkpt>
      <trkpt lat="48.7785610" lon="13.7395430">
        <ele>818.8</ele>
        <time>2019-08-06T15:40:06Z</time>
      </trkpt>
      <trkpt lat="48.7785910" lon="13.7395840">
        <ele>819.0</ele>
        <time>2019-08-06T15:40:07Z</time>
      </trkpt>
      <trkpt lat="48.7786180" lon="13.7396310">
        <ele>819.0</ele>
        <time>2019-08-06T15:40:08Z</time>
      </trkpt>
      <trkpt lat="48.7786430" lon="13.7396780">
        <ele>819.2</ele>
        <time>2019-08-06T15:40:09Z</time>
      </trkpt>
      <trkpt lat="48.7786660" lon="13.7397250">
        <ele>819.2</ele>
        <time>2019-08-06T15:40:10Z</time>
      </trkpt>
      <trkpt lat="48.7786890" lon="13.7397720">
        <ele>819.4</ele>
        <time>2019-08-06T15:40:11Z</time>
      </trkpt>
      <trkpt lat="48.7787180" lon="13.7398190">
        <ele>819.4</ele>
        <time>2019-08-06T15:40:12Z</time>
      </trkpt>
      <trkpt lat="48.7787500" lon="13.7398630">
        <ele>819.6</ele>
        <time>2019-08-06T15:40:13Z</time>
      </trkpt>
      <trkpt lat="48.7787830" lon="13.7399060">
        <ele>819.6</ele>
        <time>2019-08-06T15:40:14Z</time>
      </trkpt>
      <trkpt lat="48.7788140" lon="13.7399490">
        <ele>819.8</ele>
        <time>2019-08-06T15:40:15Z</time>
      </trkpt>
      <trkpt lat="48.7788400" lon="13.7399920">
        <ele>819.8</ele>
        <time>2019-08-06T15:40:16Z</time>
      </trkpt>
      <trkpt lat="48.7788670" lon="13.7400400">
        <ele>820.0</ele>
        <time>2019-08-06T15:40:17Z</time>
      </trkpt>
      <trkpt lat="48.7788920" lon="13.7400910">
        <ele>820.0</ele>
        <time>2019-08-06T15:40:18Z</time>
      </trkpt>
      <trkpt lat="48.7789200" lon="13.7401390">
        <ele>820.2</ele>
        <time>2019-08-06T15:40:19Z</time>
      </trkpt>
      <trkpt lat="48.7789440" lon="13.7401880">
        <ele>820.4</ele>
        <time>2019-08-06T15:40:20Z</time>
      </trkpt>
      <trkpt lat="48.7789670" lon="13.7402360">
        <ele>820.4</ele>
        <time>2019-08-06T15:40:21Z</time>
      </trkpt>
      <trkpt lat="48.7789930" lon="13.7402860">
        <ele>820.6</ele>
        <time>2019-08-06T15:40:22Z</time>
      </trkpt>
      <trkpt lat="48.7790180" lon="13.7403370">
        <ele>820.6</ele>
        <time>2019-08-06T15:40:23Z</time>
      </trkpt>
      <trkpt lat="48.7790410" lon="13.7403880">
        <ele>820.8</ele>
        <time>2019-08-06T15:40:24Z</time>
      </trkpt>
      <trkpt lat="48.7790650" lon="13.7404370">
        <ele>820.8</ele>
        <time>2019-08-06T15:40:25Z</time>
      </trkpt>
      <trkpt lat="48.7790930" lon="13.7404870">
        <ele>821.0</ele>
        <time>2019-08-06T15:40:26Z</time>
      </trkpt>
      <trkpt lat="48.7791200" lon="13.7405360">
        <ele>821.0</ele>
        <time>2019-08-06T15:40:27Z</time>
      </trkpt>
      <trkpt lat="48.7791440" lon="13.7405850">
        <ele>821.2</ele>
        <time>2019-08-06T15:40:28Z</time>
      </trkpt>
      <trkpt lat="48.7791700" lon="13.7406340">
        <ele>821.2</ele>
        <time>2019-08-06T15:40:29Z</time>
      </trkpt>
      <trkpt lat="48.7791940" lon="13.7406810">
        <ele>821.4</ele>
        <time>2019-08-06T15:40:30Z</time>
      </trkpt>
      <trkpt lat="48.7792170" lon="13.7407320">
        <ele>821.4</ele>
        <time>2019-08-06T15:40:31Z</time>
      </trkpt>
      <trkpt lat="48.7792390" lon="13.7407850">
        <ele>821.6</ele>
        <time>2019-08-06T15:40:32Z</time>
      </trkpt>
      <trkpt lat="48.7792600" lon="13.7408380">
        <ele>821.6</ele>
        <time>2019-08-06T15:40:33Z</time>
      </trkpt>
      <trkpt lat="48.7792820" lon="13.7408890">
        <ele>821.8</ele>
        <time>2019-08-06T15:40:34Z</time>
      </trkpt>
      <trkpt lat="48.7793060" lon="13.7409400">
        <ele>821.8</ele>
        <time>2019-08-06T15:40:35Z</time>
      </trkpt>
      <trkpt lat="48.7793290" lon="13.7409900">
        <ele>822.0</ele>
        <time>2019-08-06T15:40:36Z</time>
      </trkpt>
      <trkpt lat="48.7793530" lon="13.7410400">
        <ele>822.0</ele>
        <time>2019-08-06T15:40:37Z</time>
      </trkpt>
      <trkpt lat="48.7793760" lon="13.7410880">
        <ele>822.2</ele>
        <time>2019-08-06T15:40:38Z</time>
      </trkpt>
      <trkpt lat="48.7793990" lon="13.7411360">
        <ele>822.2</ele>
        <time>2019-08-06T15:40:39Z</time>
      </trkpt>
      <trkpt lat="48.7794230" lon="13.7411840">
        <ele>822.4</ele>
        <time>2019-08-06T15:40:40Z</time>
      </trkpt>
      <trkpt lat="48.7794450" lon="13.7412300">
        <ele>822.6</ele>
        <time>2019-08-06T15:40:41Z</time>
      </trkpt>
      <trkpt lat="48.7794670" lon="13.7412770">
        <ele>822.6</ele>
        <time>2019-08-06T15:40:42Z</time>
      </trkpt>
      <trkpt lat="48.7794890" lon="13.7413230">
        <ele>822.8</ele>
        <time>2019-08-06T15:40:43Z</time>
      </trkpt>
      <trkpt lat="48.7795130" lon="13.7413660">
        <ele>822.8</ele>
        <time>2019-08-06T15:40:44Z</time>
      </trkpt>
      <trkpt lat="48.7795370" lon="13.7414090">
        <ele>823.0</ele>
        <time>2019-08-06T15:40:45Z</time>
      </trkpt>
      <trkpt lat="48.7795600" lon="13.7414540">
        <ele>823.0</ele>
        <time>2019-08-06T15:40:46Z</time>
      </trkpt>
      <trkpt lat="48.7795830" lon="13.7414980">
        <ele>823.2</ele>
        <time>2019-08-06T15:40:47Z</time>
      </trkpt>
      <trkpt lat="48.7796060" lon="13.7415400">
        <ele>823.2</ele>
        <time>2019-08-06T15:40:48Z</time>
      </trkpt>
      <trkpt lat="48.7796290" lon="13.7415810">
        <ele>823.2</ele>
        <time>2019-08-06T15:40:49Z</time>
      </trkpt>
      <trkpt lat="48.7796490" lon="13.7416170">
        <ele>823.4</ele>
        <time>2019-08-06T15:40:50Z</time>
      </trkpt>
      <trkpt lat="48.7796720" lon="13.7416560">
        <ele>823.4</ele>
        <time>2019-08-06T15:40:51Z</time>
      </trkpt>
      <trkpt lat="48.7796990" lon="13.7416980">
        <ele>823.6</ele>
        <time>2019-08-06T15:40:52Z</time>
      </trkpt>
      <trkpt lat="48.7797290" lon="13.7417360">
        <ele>823.6</ele>
        <time>2019-08-06T15:40:53Z</time>
      </trkpt>
      <trkpt lat="48.7797580" lon="13.7417720">
        <ele>823.8</ele>
        <time>2019-08-06T15:40:54Z</time>
      </trkpt>
      <trkpt lat="48.7797850" lon="13.7418050">
        <ele>823.8</ele>
        <time>2019-08-06T15:40:55Z</time>
      </trkpt>
      <trkpt lat="48.7798100" lon="13.7418360">
        <ele>824.0</ele>
        <time>2019-08-06T15:40:56Z</time>
      </trkpt>
      <trkpt lat="48.7798360" lon="13.7418640">
        <ele>824.0</ele>
        <time>2019-08-06T15:40:57Z</time>
      </trkpt>
      <trkpt lat="48.7798600" lon="13.7418910">
        <ele>824.2</ele>
        <time>2019-08-06T15:40:58Z</time>
      </trkpt>
      <trkpt lat="48.7798860" lon="13.7419130">
        <ele>824.2</ele>
        <time>2019-08-06T15:40:59Z</time>
      </trkpt>
      <trkpt lat="48.7799120" lon="13.7419350">
        <ele>824.4</ele>
        <time>2019-08-06T15:41:00Z</time>
      </trkpt>
      <trkpt lat="48.7799380" lon="13.7419580">
        <ele>824.4</ele>
        <time>2019-08-06T15:41:01Z</time>
      </trkpt>
      <trkpt lat="48.7799660" lon="13.7419840">
        <ele>824.6</ele>
        <time>2019-08-06T15:41:02Z</time>
      </trkpt>
      <trkpt lat="48.7799940" lon="13.7420100">
        <ele>824.6</ele>
        <time>2019-08-06T15:41:03Z</time>
      </trkpt>
      <trkpt lat="48.7800210" lon="13.7420370">
        <ele>824.8</ele>
        <time>2019-08-06T15:41:04Z</time>
      </trkpt>
      <trkpt lat="48.7800460" lon="13.7420620">
        <ele>825.0</ele>
        <time>2019-08-06T15:41:05Z</time>
      </trkpt>
      <trkpt lat="48.7800700" lon="13.7420810">
        <ele>825.0</ele>
        <time>2019-08-06T15:41:06Z</time>
      </trkpt>
      <trkpt lat="48.7800980" lon="13.7420980">
        <ele>825.2</ele>
        <time>2019-08-06T15:41:07Z</time>
      </trkpt>
      <trkpt lat="48.7801290" lon="13.7421100">
        <ele>825.2</ele>
        <time>2019-08-06T15:41:08Z</time>
      </trkpt>
      <trkpt lat="48.7801600" lon="13.7421230">
        <ele>825.4</ele>
        <time>2019-08-06T15:41:09Z</time>
      </trkpt>
      <trkpt lat="48.7801940" lon="13.7421400">
        <ele>825.6</ele>
        <time>2019-08-06T15:41:10Z</time>
      </trkpt>
      <trkpt lat="48.7802300" lon="13.7421570">
        <ele>825.6</ele>
        <time>2019-08-06T15:41:11Z</time>
      </trkpt>
      <trkpt lat="48.7802680" lon="13.7421760">
        <ele>825.8</ele>
        <time>2019-08-06T15:41:12Z</time>
      </trkpt>
      <trkpt lat="48.7803060" lon="13.7421940">
        <ele>825.8</ele>
        <time>2019-08-06T15:41:13Z</time>
      </trkpt>
      <trkpt lat="48.7803420" lon="13.7422020">
        <ele>826.0</ele>
        <time>2019-08-06T15:41:14Z</time>
      </trkpt>
      <trkpt lat="48.7803740" lon="13.7422130">
        <ele>826.0</ele>
        <time>2019-08-06T15:41:15Z</time>
      </trkpt>
      <trkpt lat="48.7804100" lon="13.7422330">
        <ele>826.2</ele>
        <time>2019-08-06T15:41:16Z</time>
      </trkpt>
      <trkpt lat="48.7804500" lon="13.7422520">
        <ele>826.2</ele>
        <time>2019-08-06T15:41:17Z</time>
      </trkpt>
      <trkpt lat="48.7804900" lon="13.7422640">
        <ele>826.4</ele>
        <time>2019-08-06T15:41:18Z</time>
      </trkpt>
      <trkpt lat="48.7805250" lon="13.7422670">
        <ele>826.6</ele>
        <time>2019-08-06T15:41:19Z</time>
      </trkpt>
      <trkpt lat="48.7805590" lon="13.7422670">
        <ele>826.6</ele>
        <time>2019-08-06T15:41:20Z</time>
      </trkpt>
      <trkpt lat="48.7805930" lon="13.7422700">
        <ele>826.8</ele>
        <time>2019-08-06T15:41:21Z</time>
      </trkpt>
      <trkpt lat="48.7806290" lon="13.7422750">
        <ele>827.0</ele>
        <time>2019-08-06T15:41:22Z</time>
      </trkpt>
      <trkpt lat="48.7806640" lon="13.7422790">
        <ele>827.0</ele>
        <time>2019-08-06T15:41:23Z</time>
      </trkpt>
      <trkpt lat="48.7807000" lon="13.7422810">
        <ele>827.2</ele>
        <time>2019-08-06T15:41:24Z</time>
      </trkpt>
      <trkpt lat="48.7807350" lon="13.7422780">
        <ele>827.2</ele>
        <time>2019-08-06T15:41:25Z</time>
      </trkpt>
      <trkpt lat="48.7807680" lon="13.7422710">
        <ele>827.4</ele>
        <time>2019-08-06T15:41:26Z</time>
      </trkpt>
      <trkpt lat="48.7807990" lon="13.7422670">
        <ele>827.6</ele>
        <time>2019-08-06T15:41:27Z</time>
      </trkpt>
      <trkpt lat="48.7808300" lon="13.7422550">
        <ele>827.6</ele>
        <time>2019-08-06T15:41:28Z</time>
      </trkpt>
      <trkpt lat="48.7808640" lon="13.7422480">
        <ele>827.8</ele>
        <time>2019-08-06T15:41:29Z</time>
      </trkpt>
      <trkpt lat="48.7808960" lon="13.7422360">
        <ele>827.8</ele>
        <time>2019-08-06T15:41:30Z</time>
      </trkpt>
      <trkpt lat="48.7809280" lon="13.7422230">
        <ele>828.0</ele>
        <time>2019-08-06T15:41:31Z</time>
      </trkpt>
      <trkpt lat="48.7809650" lon="13.7422120">
        <ele>828.0</ele>
        <time>2019-08-06T15:41:32Z</time>
      </trkpt>
      <trkpt lat="48.7809980" lon="13.7421950">
        <ele>828.2</ele>
        <time>2019-08-06T15:41:33Z</time>
      </trkpt>
      <trkpt lat="48.7810360" lon="13.7421750">
        <ele>828.4</ele>
        <time>2019-08-06T15:41:34Z</time>
      </trkpt>
      <trkpt lat="48.7810760" lon="13.7421550">
        <ele>828.4</ele>
        <time>2019-08-06T15:41:35Z</time>
      </trkpt>
      <trkpt lat="48.7811200" lon="13.7421340">
        <ele>828.6</ele>
        <time>2019-08-06T15:41:36Z</time>
      </trkpt>
      <trkpt lat="48.7811690" lon="13.7421080">
        <ele>828.6</ele>
        <time>2019-08-06T15:41:37Z</time>
      </trkpt>
      <trkpt lat="48.7812110" lon="13.7420870">
        <ele>828.8</ele>
        <time>2019-08-06T15:41:38Z</time>
      </trkpt>
      <trkpt lat="48.7812510" lon="13.7420680">
        <ele>828.8</ele>
        <time>2019-08-06T15:41:39Z</time>
      </trkpt>
      <trkpt lat="48.7812910" lon="13.7420450">
        <ele>829.0</ele>
        <time>2019-08-06T15:41:40Z</time>
      </trkpt>
      <trkpt lat="48.7813320" lon="13.7420250">
        <ele>829.2</ele>
        <time>2019-08-06T15:41:41Z</time>
      </trkpt>
      <trkpt lat="48.7813740" lon="13.7420100">
        <ele>829.4</ele>
        <time>2019-08-06T15:41:42Z</time>
      </trkpt>
      <trkpt lat="48.7814170" lon="13.7419920">
        <ele>829.4</ele>
        <time>2019-08-06T15:41:43Z</time>
      </trkpt>
      <trkpt lat="48.7814570" lon="13.7419720">
        <ele>829.6</ele>
        <time>2019-08-06T15:41:44Z</time>
      </trkpt>
      <trkpt lat="48.7814970" lon="13.7419490">
        <ele>829.6</ele>
        <time>2019-08-06T15:41:45Z</time>
      </trkpt>
      <trkpt lat="48.7815350" lon="13.7419250">
        <ele>829.8</ele>
        <time>2019-08-06T15:41:46Z</time>
      </trkpt>
      <trkpt lat="48.7815730" lon="13.7419060">
        <ele>829.8</ele>
        <time>2019-08-06T15:41:47Z</time>
      </trkpt>
      <trkpt lat="48.7816120" lon="13.7418940">
        <ele>830.0</ele>
        <time>2019-08-06T15:41:48Z</time>
      </trkpt>
      <trkpt lat="48.7816560" lon="13.7418910">
        <ele>830.2</ele>
        <time>2019-08-06T15:41:49Z</time>
      </trkpt>
      <trkpt lat="48.7816980" lon="13.7418900">
        <ele>830.2</ele>
        <time>2019-08-06T15:41:50Z</time>
      </trkpt>
      <trkpt lat="48.7817340" lon="13.7418860">
        <ele>830.4</ele>
        <time>2019-08-06T15:41:51Z</time>
      </trkpt>
      <trkpt lat="48.7817700" lon="13.7418800">
        <ele>830.6</ele>
        <time>2019-08-06T15:41:52Z</time>
      </trkpt>
      <trkpt lat="48.7818070" lon="13.7418780">
        <ele>830.6</ele>
        <time>2019-08-06T15:41:53Z</time>
      </trkpt>
      <trkpt lat="48.7818410" lon="13.7418700">
        <ele>830.8</ele>
        <time>2019-08-06T15:41:54Z</time>
      </trkpt>
      <trkpt lat="48.7818750" lon="13.7418630">
        <ele>831.0</ele>
        <time>2019-08-06T15:41:55Z</time>
      </trkpt>
      <trkpt lat="48.7819080" lon="13.7418530">
        <ele>831.0</ele>
        <time>2019-08-06T15:41:56Z</time>
      </trkpt>
      <trkpt lat="48.7819420" lon="13.7418360">
        <ele>831.2</ele>
        <time>2019-08-06T15:41:57Z</time>
      </trkpt>
      <trkpt lat="48.7819750" lon="13.7418190">
        <ele>831.2</ele>
        <time>2019-08-06T15:41:58Z</time>
      </trkpt>
      <trkpt lat="48.7820070" lon="13.7418060">
        <ele>831.4</ele>
        <time>2019-08-06T15:41:59Z</time>
      </trkpt>
      <trkpt lat="48.7820430" lon="13.7417990">
        <ele>831.6</ele>
        <time>2019-08-06T15:42:00Z</time>
      </trkpt>
      <trkpt lat="48.7820790" lon="13.7417940">
        <ele>831.6</ele>
        <time>2019-08-06T15:42:01Z</time>
      </trkpt>
      <trkpt lat="48.7821130" lon="13.7417900">
        <ele>831.8</ele>
        <time>2019-08-06T15:42:02Z</time>
      </trkpt>
      <trkpt lat="48.7821530" lon="13.7417890">
        <ele>832.0</ele>
        <time>2019-08-06T15:42:03Z</time>
      </trkpt>
      <trkpt lat="48.7821910" lon="13.7417850">
        <ele>832.0</ele>
        <time>2019-08-06T15:42:04Z</time>
      </trkpt>
      <trkpt lat="48.7822340" lon="13.7417800">
        <ele>832.2</ele>
        <time>2019-08-06T15:42:05Z</time>
      </trkpt>
      <trkpt lat="48.7822850" lon="13.7417830">
        <ele>832.4</ele>
        <time>2019-08-06T15:42:06Z</time>
      </trkpt>
      <trkpt lat="48.7823370" lon="13.7417920">
        <ele>832.6</ele>
        <time>2019-08-06T15:42:07Z</time>
      </trkpt>
      <trkpt lat="48.7823900" lon="13.7418130">
        <ele>832.6</ele>
        <time>2019-08-06T15:42:08Z</time>
      </trkpt>
      <trkpt lat="48.7824420" lon="13.7418320">
        <ele>832.8</ele>
        <time>2019-08-06T15:42:09Z</time>
      </trkpt>
      <trkpt lat="48.7824890" lon="13.7418460">
        <ele>832.8</ele>
        <time>2019-08-06T15:42:10Z</time>
      </trkpt>
      <trkpt lat="48.7825360" lon="13.7418590">
        <ele>833.0</ele>
        <time>2019-08-06T15:42:11Z</time>
      </trkpt>
      <trkpt lat="48.7825810" lon="13.7418700">
        <ele>833.2</ele>
        <time>2019-08-06T15:42:12Z</time>
      </trkpt>
      <trkpt lat="48.7826260" lon="13.7418770">
        <ele>833.2</ele>
        <time>2019-08-06T15:42:13Z</time>
      </trkpt>
      <trkpt lat="48.7826690" lon="13.7418860">
        <ele>833.4</ele>
        <time>2019-08-06T15:42:14Z</time>
      </trkpt>
      <trkpt lat="48.7827110" lon="13.7418990">
        <ele>833.4</ele>
        <time>2019-08-06T15:42:15Z</time>
      </trkpt>
      <trkpt lat="48.7827500" lon="13.7419140">
        <ele>833.4</ele>
        <time>2019-08-06T15:42:16Z</time>
      </trkpt>
      <trkpt lat="48.7827900" lon="13.7419300">
        <ele>833.6</ele>
        <time>2019-08-06T15:42:17Z</time>
      </trkpt>
      <trkpt lat="48.7828320" lon="13.7419430">
        <ele>833.6</ele>
        <time>2019-08-06T15:42:18Z</time>
      </trkpt>
      <trkpt lat="48.7828710" lon="13.7419530">
        <ele>833.8</ele>
        <time>2019-08-06T15:42:19Z</time>
      </trkpt>
      <trkpt lat="48.7829080" lon="13.7419650">
        <ele>833.8</ele>
        <time>2019-08-06T15:42:20Z</time>
      </trkpt>
      <trkpt lat="48.7829450" lon="13.7419780">
        <ele>834.0</ele>
        <time>2019-08-06T15:42:21Z</time>
      </trkpt>
      <trkpt lat="48.7829810" lon="13.7419950">
        <ele>834.0</ele>
        <time>2019-08-06T15:42:22Z</time>
      </trkpt>
      <trkpt lat="48.7830150" lon="13.7420130">
        <ele>834.0</ele>
        <time>2019-08-06T15:42:23Z</time>
      </trkpt>
      <trkpt lat="48.7830490" lon="13.7420330">
        <ele>834.2</ele>
        <time>2019-08-06T15:42:24Z</time>
      </trkpt>
      <trkpt lat="48.7830820" lon="13.7420570">
        <ele>834.4</ele>
        <time>2019-08-06T15:42:25Z</time>
      </trkpt>
      <trkpt lat="48.7831130" lon="13.7420860">
        <ele>834.4</ele>
        <time>2019-08-06T15:42:26Z</time>
      </trkpt>
      <trkpt lat="48.7831440" lon="13.7421190">
        <ele>834.6</ele>
        <time>2019-08-06T15:42:27Z</time>
      </trkpt>
      <trkpt lat="48.7831740" lon="13.7421540">
        <ele>834.8</ele>
        <time>2019-08-06T15:42:28Z</time>
      </trkpt>
      <trkpt lat="48.7832100" lon="13.7421930">
        <ele>835.0</ele>
        <time>2019-08-06T15:42:29Z</time>
      </trkpt>
      <trkpt lat="48.7832480" lon="13.7422370">
        <ele>835.0</ele>
        <time>2019-08-06T15:42:30Z</time>
      </trkpt>
      <trkpt lat="48.7832840" lon="13.7422860">
        <ele>835.2</ele>
        <time>2019-08-06T15:42:31Z</time>
      </trkpt>
      <trkpt lat="48.7833210" lon="13.7423360">
        <ele>835.2</ele>
        <time>2019-08-06T15:42:32Z</time>
      </trkpt>
      <trkpt lat="48.7833600" lon="13.7423870">
        <ele>835.4</ele>
        <time>2019-08-06T15:42:33Z</time>
      </trkpt>
      <trkpt lat="48.7833970" lon="13.7424300">
        <ele>835.4</ele>
        <time>2019-08-06T15:42:34Z</time>
      </trkpt>
      <trkpt lat="48.7834290" lon="13.7424710">
        <ele>835.6</ele>
        <time>2019-08-06T15:42:35Z</time>
      </trkpt>
      <trkpt lat="48.7834610" lon="13.7425140">
        <ele>835.6</ele>
        <time>2019-08-06T15:42:36Z</time>
      </trkpt>
      <trkpt lat="48.7834960" lon="13.7425630">
        <ele>835.8</ele>
        <time>2019-08-06T15:42:37Z</time>
      </trkpt>
      <trkpt lat="48.7835250" lon="13.7426060">
        <ele>835.8</ele>
        <time>2019-08-06T15:42:38Z</time>
      </trkpt>
      <trkpt lat="48.7835550" lon="13.7426550">
        <ele>836.0</ele>
        <time>2019-08-06T15:42:39Z</time>
      </trkpt>
      <trkpt lat="48.7835790" lon="13.7427020">
        <ele>836.0</ele>
        <time>2019-08-06T15:42:40Z</time>
      </trkpt>
      <trkpt lat="48.7836000" lon="13.7427470">
        <ele>836.2</ele>
        <time>2019-08-06T15:42:41Z</time>
      </trkpt>
      <trkpt lat="48.7836200" lon="13.7427930">
        <ele>836.4</ele>
        <time>2019-08-06T15:42:42Z</time>
      </trkpt>
      <trkpt lat="48.7836410" lon="13.7428370">
        <ele>836.4</ele>
        <time>2019-08-06T15:42:43Z</time>
      </trkpt>
      <trkpt lat="48.7836650" lon="13.7428790">
        <ele>836.6</ele>
        <time>2019-08-06T15:42:44Z</time>
      </trkpt>
      <trkpt lat="48.7836890" lon="13.7429240">
        <ele>836.8</ele>
        <time>2019-08-06T15:42:45Z</time>
      </trkpt>
      <trkpt lat="48.7837110" lon="13.7429730">
        <ele>836.8</ele>
        <time>2019-08-06T15:42:46Z</time>
      </trkpt>
      <trkpt lat="48.7837300" lon="13.7430220">
        <ele>837.0</ele>
        <time>2019-08-06T15:42:47Z</time>
      </trkpt>
      <trkpt lat="48.7837510" lon="13.7430750">
        <ele>837.0</ele>
        <time>2019-08-06T15:42:48Z</time>
      </trkpt>
      <trkpt lat="48.7837720" lon="13.7431260">
        <ele>837.2</ele>
        <time>2019-08-06T15:42:49Z</time>
      </trkpt>
      <trkpt lat="48.7837940" lon="13.7431760">
        <ele>837.2</ele>
        <time>2019-08-06T15:42:50Z</time>
      </trkpt>
      <trkpt lat="48.7838130" lon="13.7432260">
        <ele>837.4</ele>
        <time>2019-08-06T15:42:51Z</time>
      </trkpt>
      <trkpt lat="48.7838300" lon="13.7432770">
        <ele>837.6</ele>
        <time>2019-08-06T15:42:52Z</time>
      </trkpt>
      <trkpt lat="48.7838460" lon="13.7433270">
        <ele>837.6</ele>
        <time>2019-08-06T15:42:53Z</time>
      </trkpt>
      <trkpt lat="48.7838650" lon="13.7433780">
        <ele>837.8</ele>
        <time>2019-08-06T15:42:54Z</time>
      </trkpt>
      <trkpt lat="48.7838820" lon="13.7434320">
        <ele>837.8</ele>
        <time>2019-08-06T15:42:55Z</time>
      </trkpt>
      <trkpt lat="48.7838980" lon="13.7434880">
        <ele>838.0</ele>
        <time>2019-08-06T15:42:56Z</time>
      </trkpt>
      <trkpt lat="48.7839120" lon="13.7435440">
        <ele>838.0</ele>
        <time>2019-08-06T15:42:57Z</time>
      </trkpt>
      <trkpt lat="48.7839270" lon="13.7435970">
        <ele>838.2</ele>
        <time>2019-08-06T15:42:58Z</time>
      </trkpt>
      <trkpt lat="48.7839380" lon="13.7436500">
        <ele>838.2</ele>
        <time>2019-08-06T15:42:59Z</time>
      </trkpt>
      <trkpt lat="48.7839450" lon="13.7437020">
        <ele>838.4</ele>
        <time>2019-08-06T15:43:00Z</time>
      </trkpt>
      <trkpt lat="48.7839500" lon="13.7437560">
        <ele>838.4</ele>
        <time>2019-08-06T15:43:01Z</time>
      </trkpt>
      <trkpt lat="48.7839550" lon="13.7438120">
        <ele>838.6</ele>
        <time>2019-08-06T15:43:02Z</time>
      </trkpt>
      <trkpt lat="48.7839640" lon="13.7438690">
        <ele>838.6</ele>
        <time>2019-08-06T15:43:03Z</time>
      </trkpt>
      <trkpt lat="48.7839720" lon="13.7439280">
        <ele>838.8</ele>
        <time>2019-08-06T15:43:04Z</time>
      </trkpt>
      <trkpt lat="48.7839780" lon="13.7439870">
        <ele>838.8</ele>
        <time>2019-08-06T15:43:05Z</time>
      </trkpt>
      <trkpt lat="48.7839840" lon="13.7440440">
        <ele>839.0</ele>
        <time>2019-08-06T15:43:06Z</time>
      </trkpt>
      <trkpt lat="48.7839850" lon="13.7440960">
        <ele>839.2</ele>
        <time>2019-08-06T15:43:07Z</time>
      </trkpt>
      <trkpt lat="48.7839850" lon="13.7441490">
        <ele>839.2</ele>
        <time>2019-08-06T15:43:08Z</time>
      </trkpt>
      <trkpt lat="48.7839820" lon="13.7442040">
        <ele>839.4</ele>
        <time>2019-08-06T15:43:09Z</time>
      </trkpt>
      <trkpt lat="48.7839800" lon="13.7442520">
        <ele>839.4</ele>
        <time>2019-08-06T15:43:10Z</time>
      </trkpt>
      <trkpt lat="48.7839800" lon="13.7442990">
        <ele>839.6</ele>
        <time>2019-08-06T15:43:11Z</time>
      </trkpt>
      <trkpt lat="48.7839790" lon="13.7443510">
        <ele>839.8</ele>
        <time>2019-08-06T15:43:12Z</time>
      </trkpt>
      <trkpt lat="48.7839810" lon="13.7444010">
        <ele>839.8</ele>
        <time>2019-08-06T15:43:13Z</time>
      </trkpt>
      <trkpt lat="48.7839830" lon="13.7444440">
        <ele>840.0</ele>
        <time>2019-08-06T15:43:14Z</time>
      </trkpt>
      <trkpt lat="48.7839830" lon="13.7444870">
        <ele>840.2</ele>
        <time>2019-08-06T15:43:15Z</time>
      </trkpt>
      <trkpt lat="48.7839800" lon="13.7445310">
        <ele>840.2</ele>
        <time>2019-08-06T15:43:16Z</time>
      </trkpt>
      <trkpt lat="48.7839740" lon="13.7445750">
        <ele>840.4</ele>
        <time>2019-08-06T15:43:17Z</time>
      </trkpt>
      <trkpt lat="48.7839610" lon="13.7446210">
        <ele>840.6</ele>
        <time>2019-08-06T15:43:18Z</time>
      </trkpt>
      <trkpt lat="48.7839470" lon="13.7446640">
        <ele>840.8</ele>
        <time>2019-08-06T15:43:19Z</time>
      </trkpt>
      <trkpt lat="48.7839350" lon="13.7447060">
        <ele>840.8</ele>
        <time>2019-08-06T15:43:20Z</time>
      </trkpt>
      <trkpt lat="48.7839230" lon="13.7447560">
        <ele>841.0</ele>
        <time>2019-08-06T15:43:21Z</time>
      </trkpt>
      <trkpt lat="48.7839170" lon="13.7448040">
        <ele>841.0</ele>
        <time>2019-08-06T15:43:22Z</time>
      </trkpt>
      <trkpt lat="48.7839110" lon="13.7448520">
        <ele>841.2</ele>
        <time>2019-08-06T15:43:23Z</time>
      </trkpt>
      <trkpt lat="48.7839000" lon="13.7449000">
        <ele>841.2</ele>
        <time>2019-08-06T15:43:24Z</time>
      </trkpt>
      <trkpt lat="48.7838880" lon="13.7449590">
        <ele>841.4</ele>
        <time>2019-08-06T15:43:25Z</time>
      </trkpt>
      <trkpt lat="48.7838810" lon="13.7450180">
        <ele>841.4</ele>
        <time>2019-08-06T15:43:26Z</time>
      </trkpt>
      <trkpt lat="48.7838780" lon="13.7450750">
        <ele>841.4</ele>
        <time>2019-08-06T15:43:27Z</time>
      </trkpt>
      <trkpt lat="48.7838750" lon="13.7451320">
        <ele>841.6</ele>
        <time>2019-08-06T15:43:28Z</time>
      </trkpt>
      <trkpt lat="48.7838690" lon="13.7451890">
        <ele>841.6</ele>
        <time>2019-08-06T15:43:29Z</time>
      </trkpt>
      <trkpt lat="48.7838590" lon="13.7452490">
        <ele>841.8</ele>
        <time>2019-08-06T15:43:30Z</time>
      </trkpt>
      <trkpt lat="48.7838480" lon="13.7453140">
        <ele>841.8</ele>
        <time>2019-08-06T15:43:31Z</time>
      </trkpt>
      <trkpt lat="48.7838330" lon="13.7453740">
        <ele>842.0</ele>
        <time>2019-08-06T15:43:32Z</time>
      </trkpt>
      <trkpt lat="48.7838190" lon="13.7454340">
        <ele>842.0</ele>
        <time>2019-08-06T15:43:33Z</time>
      </trkpt>
      <trkpt lat="48.7838070" lon="13.7454970">
        <ele>842.2</ele>
        <time>2019-08-06T15:43:34Z</time>
      </trkpt>
      <trkpt lat="48.7837960" lon="13.7455560">
        <ele>842.2</ele>
        <time>2019-08-06T15:43:35Z</time>
      </trkpt>
      <trkpt lat="48.7837860" lon="13.7456190">
        <ele>842.4</ele>
        <time>2019-08-06T15:43:36Z</time>
      </trkpt>
      <trkpt lat="48.7837710" lon="13.7456860">
        <ele>842.4</ele>
        <time>2019-08-06T15:43:37Z</time>
      </trkpt>
      <trkpt lat="48.7837520" lon="13.7457580">
        <ele>842.6</ele>
        <time>2019-08-06T15:43:38Z</time>
      </trkpt>
      <trkpt lat="48.7837320" lon="13.7458210">
        <ele>842.8</ele>
        <time>2019-08-06T15:43:39Z</time>
      </trkpt>
      <trkpt lat="48.7837090" lon="13.7458870">
        <ele>843.0</ele>
        <time>2019-08-06T15:43:40Z</time>
      </trkpt>
      <trkpt lat="48.7836840" lon="13.7459550">
        <ele>843.0</ele>
        <time>2019-08-06T15:43:41Z</time>
      </trkpt>
      <trkpt lat="48.7836600" lon="13.7460210">
        <ele>843.2</ele>
        <time>2019-08-06T15:43:42Z</time>
      </trkpt>
      <trkpt lat="48.7836400" lon="13.7460910">
        <ele>843.2</ele>
        <time>2019-08-06T15:43:43Z</time>
      </trkpt>
      <trkpt lat="48.7836200" lon="13.7461580">
        <ele>843.4</ele>
        <time>2019-08-06T15:43:44Z</time>
      </trkpt>
      <trkpt lat="48.7836000" lon="13.7462240">
        <ele>843.4</ele>
        <time>2019-08-06T15:43:45Z</time>
      </trkpt>
      <trkpt lat="48.7835800" lon="13.7462890">
        <ele>843.6</ele>
        <time>2019-08-06T15:43:46Z</time>
      </trkpt>
      <trkpt lat="48.7835620" lon="13.7463520">
        <ele>843.8</ele>
        <time>2019-08-06T15:43:47Z</time>
      </trkpt>
      <trkpt lat="48.7835440" lon="13.7464180">
        <ele>843.8</ele>
        <time>2019-08-06T15:43:48Z</time>
      </trkpt>
      <trkpt lat="48.7835280" lon="13.7464810">
        <ele>844.0</ele>
        <time>2019-08-06T15:43:49Z</time>
      </trkpt>
      <trkpt lat="48.7835130" lon="13.7465440">
        <ele>844.2</ele>
        <time>2019-08-06T15:43:50Z</time>
      </trkpt>
      <trkpt lat="48.7834970" lon="13.7466070">
        <ele>844.2</ele>
        <time>2019-08-06T15:43:51Z</time>
      </trkpt>
      <trkpt lat="48.7834850" lon="13.7466740">
        <ele>844.4</ele>
        <time>2019-08-06T15:43:52Z</time>
      </trkpt>
      <trkpt lat="48.7834750" lon="13.7467390">
        <ele>844.6</ele>
        <time>2019-08-06T15:43:53Z</time>
      </trkpt>
      <trkpt lat="48.7834670" lon="13.7468050">
        <ele>844.6</ele>
        <time>2019-08-06T15:43:54Z</time>
      </trkpt>
      <trkpt lat="48.7834560" lon="13.7468670">
        <ele>844.8</ele>
        <time>2019-08-06T15:43:55Z</time>
      </trkpt>
      <trkpt lat="48.7834480" lon="13.7469320">
        <ele>845.0</ele>
        <time>2019-08-06T15:43:56Z</time>
      </trkpt>
      <trkpt lat="48.7834400" lon="13.7469940">
        <ele>845.0</ele>
        <time>2019-08-06T15:43:57Z</time>
      </trkpt>
      <trkpt lat="48.7834340" lon="13.7470580">
        <ele>845.2</ele>
        <time>2019-08-06T15:43:58Z</time>
      </trkpt>
      <trkpt lat="48.7834310" lon="13.7471210">
        <ele>845.2</ele>
        <time>2019-08-06T15:43:59Z</time>
      </trkpt>
      <trkpt lat="48.7834300" lon="13.7471840">
        <ele>845.4</ele>
        <time>2019-08-06T15:44:00Z</time>
      </trkpt>
      <trkpt lat="48.7834280" lon="13.7472460">
        <ele>845.4</ele>
        <time>2019-08-06T15:44:01Z</time>
      </trkpt>
      <trkpt lat="48.7834260" lon="13.7473050">
        <ele>845.6</ele>
        <time>2019-08-06T15:44:02Z</time>
      </trkpt>
      <trkpt lat="48.7834260" lon="13.7473640">
        <ele>845.8</ele>
        <time>2019-08-06T15:44:03Z</time>
      </trkpt>
      <trkpt lat="48.7834300" lon="13.7474250">
        <ele>845.8</ele>
        <time>2019-08-06T15:44:04Z</time>
      </trkpt>
      <trkpt lat="48.7834360" lon="13.7474840">
        <ele>846.0</ele>
        <time>2019-08-06T15:44:05Z</time>
      </trkpt>
      <trkpt lat="48.7834410" lon="13.7475440">
        <ele>846.0</ele>
        <time>2019-08-06T15:44:06Z</time>
      </trkpt>
      <trkpt lat="48.7834440" lon="13.7476030">
        <ele>846.0</ele>
        <time>2019-08-06T15:44:07Z</time>
      </trkpt>
      <trkpt lat="48.7834480" lon="13.7476640">
        <ele>846.2</ele>
        <time>2019-08-06T15:44:08Z</time>
      </trkpt>
      <trkpt lat="48.7834510" lon="13.7477240">
        <ele>846.4</ele>
        <time>2019-08-06T15:44:09Z</time>
      </trkpt>
      <trkpt lat="48.7834570" lon="13.7477820">
        <ele>846.4</ele>
        <time>2019-08-06T15:44:10Z</time>
      </trkpt>
      <trkpt lat="48.7834640" lon="13.7478400">
        <ele>846.6</ele>
        <time>2019-08-06T15:44:11Z</time>
      </trkpt>
      <trkpt lat="48.7834720" lon="13.7478980">
        <ele>846.6</ele>
        <time>2019-08-06T15:44:12Z</time>
      </trkpt>
      <trkpt lat="48.7834800" lon="13.7479570">
        <ele>846.8</ele>
        <time>2019-08-06T15:44:13Z</time>
      </trkpt>
      <trkpt lat="48.7834860" lon="13.7480140">
        <ele>846.8</ele>
        <time>2019-08-06T15:44:14Z</time>
      </trkpt>
      <trkpt lat="48.7834960" lon="13.7480730">
        <ele>847.0</ele>
        <time>2019-08-06T15:44:15Z</time>
      </trkpt>
      <trkpt lat="48.7835080" lon="13.7481310">
        <ele>847.2</ele>
        <time>2019-08-06T15:44:16Z</time>
      </trkpt>
      <trkpt lat="48.7835220" lon="13.7481880">
        <ele>847.4</ele>
        <time>2019-08-06T15:44:17Z</time>
      </trkpt>
      <trkpt lat="48.7835380" lon="13.7482410">
        <ele>847.6</ele>
        <time>2019-08-06T15:44:18Z</time>
      </trkpt>
      <trkpt lat="48.7835540" lon="13.7482950">
        <ele>847.6</ele>
        <time>2019-08-06T15:44:19Z</time>
      </trkpt>
      <trkpt lat="48.7835690" lon="13.7483490">
        <ele>847.8</ele>
        <time>2019-08-06T15:44:20Z</time>
      </trkpt>
      <trkpt lat="48.7835840" lon="13.7484040">
        <ele>848.0</ele>
        <time>2019-08-06T15:44:21Z</time>
      </trkpt>
      <trkpt lat="48.7836000" lon="13.7484580">
        <ele>848.0</ele>
        <time>2019-08-06T15:44:22Z</time>
      </trkpt>
      <trkpt lat="48.7836180" lon="13.7485100">
        <ele>848.2</ele>
        <time>2019-08-06T15:44:23Z</time>
      </trkpt>
      <trkpt lat="48.7836410" lon="13.7485630">
        <ele>848.2</ele>
        <time>2019-08-06T15:44:24Z</time>
      </trkpt>
      <trkpt lat="48.7836620" lon="13.7486140">
        <ele>848.4</ele>
        <time>2019-08-06T15:44:25Z</time>
      </trkpt>
      <trkpt lat="48.7836860" lon="13.7486640">
        <ele>848.6</ele>
        <time>2019-08-06T15:44:26Z</time>
      </trkpt>
      <trkpt lat="48.7837080" lon="13.7487130">
        <ele>848.6</ele>
        <time>2019-08-06T15:44:27Z</time>
      </trkpt>
      <trkpt lat="48.7837310" lon="13.7487610">
        <ele>848.8</ele>
        <time>2019-08-06T15:44:28Z</time>
      </trkpt>
      <trkpt lat="48.7837550" lon="13.7488090">
        <ele>848.8</ele>
        <time>2019-08-06T15:44:29Z</time>
      </trkpt>
      <trkpt lat="48.7837800" lon="13.7488580">
        <ele>849.0</ele>
        <time>2019-08-06T15:44:30Z</time>
      </trkpt>
      <trkpt lat="48.7838050" lon="13.7489050">
        <ele>849.0</ele>
        <time>2019-08-06T15:44:31Z</time>
      </trkpt>
      <trkpt lat="48.7838310" lon="13.7489500">
        <ele>849.2</ele>
        <time>2019-08-06T15:44:32Z</time>
      </trkpt>
      <trkpt lat="48.7838590" lon="13.7489950">
        <ele>849.2</ele>
        <time>2019-08-06T15:44:33Z</time>
      </trkpt>
      <trkpt lat="48.7838860" lon="13.7490380">
        <ele>849.4</ele>
        <time>2019-08-06T15:44:34Z</time>
      </trkpt>
      <trkpt lat="48.7839140" lon="13.7490800">
        <ele>849.6</ele>
        <time>2019-08-06T15:44:35Z</time>
      </trkpt>
      <trkpt lat="48.7839450" lon="13.7491200">
        <ele>849.6</ele>
        <time>2019-08-06T15:44:36Z</time>
      </trkpt>
      <trkpt lat="48.7839760" lon="13.7491580">
        <ele>849.8</ele>
        <time>2019-08-06T15:44:37Z</time>
      </trkpt>
      <trkpt lat="48.7840030" lon="13.7491960">
        <ele>849.8</ele>
        <time>2019-08-06T15:44:38Z</time>
      </trkpt>
      <trkpt lat="48.7840280" lon="13.7492320">
        <ele>850.0</ele>
        <time>2019-08-06T15:44:39Z</time>
      </trkpt>
      <trkpt lat="48.7840530" lon="13.7492650">
        <ele>850.0</ele>
        <time>2019-08-06T15:44:40Z</time>
      </trkpt>
      <trkpt lat="48.7840760" lon="13.7492910">
        <ele>850.2</ele>
        <time>2019-08-06T15:44:41Z</time>
      </trkpt>
      <trkpt lat="48.7840970" lon="13.7493120">
        <ele>850.2</ele>
        <time>2019-08-06T15:44:42Z</time>
      </trkpt>
      <trkpt lat="48.7841150" lon="13.7493300">
        <ele>850.2</ele>
        <time>2019-08-06T15:44:43Z</time>
      </trkpt>
      <trkpt lat="48.7841340" lon="13.7493430">
        <ele>850.4</ele>
        <time>2019-08-06T15:44:44Z</time>
      </trkpt>
      <trkpt lat="48.7841550" lon="13.7493600">
        <ele>850.4</ele>
        <time>2019-08-06T15:44:45Z</time>
      </trkpt>
      <trkpt lat="48.7841780" lon="13.7493820">
        <ele>850.6</ele>
        <time>2019-08-06T15:44:46Z</time>
      </trkpt>
      <trkpt lat="48.7842070" lon="13.7494090">
        <ele>850.8</ele>
        <time>2019-08-06T15:44:47Z</time>
      </trkpt>
      <trkpt lat="48.7842400" lon="13.7494320">
        <ele>850.8</ele>
        <time>2019-08-06T15:44:48Z</time>
      </trkpt>
      <trkpt lat="48.7842700" lon="13.7494520">
        <ele>851.0</ele>
        <time>2019-08-06T15:44:49Z</time>
      </trkpt>
      <trkpt lat="48.7843010" lon="13.7494710">
        <ele>851.2</ele>
        <time>2019-08-06T15:44:50Z</time>
      </trkpt>
      <trkpt lat="48.7843360" lon="13.7494940">
        <ele>851.2</ele>
        <time>2019-08-06T15:44:51Z</time>
      </trkpt>
      <trkpt lat="48.7843740" lon="13.7495230">
        <ele>851.4</ele>
        <time>2019-08-06T15:44:52Z</time>
      </trkpt>
      <trkpt lat="48.7844130" lon="13.7495530">
        <ele>851.4</ele>
        <time>2019-08-06T15:44:53Z</time>
      </trkpt>
      <trkpt lat="48.7844480" lon="13.7495750">
        <ele>851.6</ele>
        <time>2019-08-06T15:44:54Z</time>
      </trkpt>
      <trkpt lat="48.7844840" lon="13.7495910">
        <ele>851.8</ele>
        <time>2019-08-06T15:44:55Z</time>
      </trkpt>
      <trkpt lat="48.7845220" lon="13.7496080">
        <ele>851.8</ele>
        <time>2019-08-06T15:44:56Z</time>
      </trkpt>
      <trkpt lat="48.7845590" lon="13.7496260">
        <ele>852.0</ele>
        <time>2019-08-06T15:44:57Z</time>
      </trkpt>
      <trkpt lat="48.7845970" lon="13.7496410">
        <ele>852.0</ele>
        <time>2019-08-06T15:44:58Z</time>
      </trkpt>
      <trkpt lat="48.7846370" lon="13.7496550">
        <ele>852.2</ele>
        <time>2019-08-06T15:44:59Z</time>
      </trkpt>
      <trkpt lat="48.7846710" lon="13.7496660">
        <ele>852.2</ele>
        <time>2019-08-06T15:45:00Z</time>
      </trkpt>
      <trkpt lat="48.7847060" lon="13.7496760">
        <ele>852.4</ele>
        <time>2019-08-06T15:45:01Z</time>
      </trkpt>
      <trkpt lat="48.7847420" lon="13.7496850">
        <ele>852.4</ele>
        <time>2019-08-06T15:45:02Z</time>
      </trkpt>
      <trkpt lat="48.7847750" lon="13.7496930">
        <ele>852.6</ele>
        <time>2019-08-06T15:45:03Z</time>
      </trkpt>
      <trkpt lat="48.7848110" lon="13.7497020">
        <ele>852.6</ele>
        <time>2019-08-06T15:45:04Z</time>
      </trkpt>
      <trkpt lat="48.7848460" lon="13.7497050">
        <ele>852.8</ele>
        <time>2019-08-06T15:45:05Z</time>
      </trkpt>
      <trkpt lat="48.7848770" lon="13.7497000">
        <ele>852.8</ele>
        <time>2019-08-06T15:45:06Z</time>
      </trkpt>
      <trkpt lat="48.7849080" lon="13.7496900">
        <ele>853.0</ele>
        <time>2019-08-06T15:45:07Z</time>
      </trkpt>
      <trkpt lat="48.7849420" lon="13.7496760">
        <ele>853.2</ele>
        <time>2019-08-06T15:45:08Z</time>
      </trkpt>
      <trkpt lat="48.7849820" lon="13.7496610">
        <ele>853.2</ele>
        <time>2019-08-06T15:45:09Z</time>
      </trkpt>
      <trkpt lat="48.7850250" lon="13.7496520">
        <ele>853.4</ele>
        <time>2019-08-06T15:45:10Z</time>
      </trkpt>
      <trkpt lat="48.7850690" lon="13.7496450">
        <ele>853.4</ele>
        <time>2019-08-06T15:45:11Z</time>
      </trkpt>
      <trkpt lat="48.7851180" lon="13.7496360">
        <ele>853.6</ele>
        <time>2019-08-06T15:45:12Z</time>
      </trkpt>
      <trkpt lat="48.7851690" lon="13.7496290">
        <ele>853.6</ele>
        <time>2019-08-06T15:45:13Z</time>
      </trkpt>
      <trkpt lat="48.7852230" lon="13.7496250">
        <ele>853.8</ele>
        <time>2019-08-06T15:45:14Z</time>
      </trkpt>
      <trkpt lat="48.7852700" lon="13.7496140">
        <ele>854.0</ele>
        <time>2019-08-06T15:45:15Z</time>
      </trkpt>
      <trkpt lat="48.7853160" lon="13.7495960">
        <ele>854.0</ele>
        <time>2019-08-06T15:45:16Z</time>
      </trkpt>
      <trkpt lat="48.7853620" lon="13.7495800">
        <ele>854.2</ele>
        <time>2019-08-06T15:45:17Z</time>
      </trkpt>
      <trkpt lat="48.7854060" lon="13.7495600">
        <ele>854.2</ele>
        <time>2019-08-06T15:45:18Z</time>
      </trkpt>
      <trkpt lat="48.7854480" lon="13.7495420">
        <ele>854.4</ele>
        <time>2019-08-06T15:45:19Z</time>
      </trkpt>
      <trkpt lat="48.7854880" lon="13.7495230">
        <ele>854.4</ele>
        <time>2019-08-06T15:45:20Z</time>
      </trkpt>
      <trkpt lat="48.7855320" lon="13.7495090">
        <ele>854.6</ele>
        <time>2019-08-06T15:45:21Z</time>
      </trkpt>
      <trkpt lat="48.7855710" lon="13.7494930">
        <ele>854.8</ele>
        <time>2019-08-06T15:45:22Z</time>
      </trkpt>
      <trkpt lat="48.7856080" lon="13.7494710">
        <ele>854.8</ele>
        <time>2019-08-06T15:45:23Z</time>
      </trkpt>
      <trkpt lat="48.7856440" lon="13.7494460">
        <ele>854.8</ele>
        <time>2019-08-06T15:45:24Z</time>
      </trkpt>
      <trkpt lat="48.7856790" lon="13.7494160">
        <ele>855.0</ele>
        <time>2019-08-06T15:45:25Z</time>
      </trkpt>
      <trkpt lat="48.7857140" lon="13.7493890">
        <ele>855.0</ele>
        <time>2019-08-06T15:45:26Z</time>
      </trkpt>
      <trkpt lat="48.7857500" lon="13.7493650">
        <ele>855.2</ele>
        <time>2019-08-06T15:45:27Z</time>
      </trkpt>
      <trkpt lat="48.7857850" lon="13.7493440">
        <ele>855.2</ele>
        <time>2019-08-06T15:45:28Z</time>
      </trkpt>
      <trkpt lat="48.7858180" lon="13.7493230">
        <ele>855.4</ele>
        <time>2019-08-06T15:45:29Z</time>
      </trkpt>
      <trkpt lat="48.7858490" lon="13.7493010">
        <ele>855.4</ele>
        <time>2019-08-06T15:45:30Z</time>
      </trkpt>
      <trkpt lat="48.7858780" lon="13.7492810">
        <ele>855.6</ele>
        <time>2019-08-06T15:45:31Z</time>
      </trkpt>
      <trkpt lat="48.7859150" lon="13.7492570">
        <ele>855.6</ele>
        <time>2019-08-06T15:45:32Z</time>
      </trkpt>
      <trkpt lat="48.7859540" lon="13.7492320">
        <ele>855.8</ele>
        <time>2019-08-06T15:45:33Z</time>
      </trkpt>
      <trkpt lat="48.7859900" lon="13.7492080">
        <ele>855.8</ele>
        <time>2019-08-06T15:45:34Z</time>
      </trkpt>
      <trkpt lat="48.7860240" lon="13.7491860">
        <ele>856.0</ele>
        <time>2019-08-06T15:45:35Z</time>
      </trkpt>
      <trkpt lat="48.7860600" lon="13.7491620">
        <ele>856.0</ele>
        <time>2019-08-06T15:45:36Z</time>
      </trkpt>
      <trkpt lat="48.7860930" lon="13.7491410">
        <ele>856.0</ele>
        <time>2019-08-06T15:45:37Z</time>
      </trkpt>
      <trkpt lat="48.7861310" lon="13.7491210">
        <ele>856.2</ele>
        <time>2019-08-06T15:45:38Z</time>
      </trkpt>
      <trkpt lat="48.7861680" lon="13.7491010">
        <ele>856.2</ele>
        <time>2019-08-06T15:45:39Z</time>
      </trkpt>
      <trkpt lat="48.7862020" lon="13.7490840">
        <ele>856.4</ele>
        <time>2019-08-06T15:45:40Z</time>
      </trkpt>
      <trkpt lat="48.7862290" lon="13.7490690">
        <ele>856.4</ele>
        <time>2019-08-06T15:45:41Z</time>
      </trkpt>
      <trkpt lat="48.7862580" lon="13.7490480">
        <ele>856.6</ele>
        <time>2019-08-06T15:45:42Z</time>
      </trkpt>
      <trkpt lat="48.7862880" lon="13.7490240">
        <ele>856.6</ele>
        <time>2019-08-06T15:45:43Z</time>
      </trkpt>
      <trkpt lat="48.7863210" lon="13.7490070">
        <ele>856.6</ele>
        <time>2019-08-06T15:45:44Z</time>
      </trkpt>
      <trkpt lat="48.7863530" lon="13.7489940">
        <ele>856.8</ele>
        <time>2019-08-06T15:45:45Z</time>
      </trkpt>
      <trkpt lat="48.7863880" lon="13.7489820">
        <ele>856.8</ele>
        <time>2019-08-06T15:45:46Z</time>
      </trkpt>
      <trkpt lat="48.7864220" lon="13.7489700">
        <ele>857.0</ele>
        <time>2019-08-06T15:45:47Z</time>
      </trkpt>
      <trkpt lat="48.7864520" lon="13.7489580">
        <ele>857.0</ele>
        <time>2019-08-06T15:45:48Z</time>
      </trkpt>
      <trkpt lat="48.7864790" lon="13.7489460">
        <ele>857.0</ele>
        <time>2019-08-06T15:45:49Z</time>
      </trkpt>
      <trkpt lat="48.7865130" lon="13.7489370">
        <ele>857.2</ele>
        <time>2019-08-06T15:45:50Z</time>
      </trkpt>
      <trkpt lat="48.7865480" lon="13.7489300">
        <ele>857.2</ele>
        <time>2019-08-06T15:45:51Z</time>
      </trkpt>
      <trkpt lat="48.7865830" lon="13.7489250">
        <ele>857.4</ele>
        <time>2019-08-06T15:45:52Z</time>
      </trkpt>
      <trkpt lat="48.7866160" lon="13.7489150">
        <ele>857.4</ele>
        <time>2019-08-06T15:45:53Z</time>
      </trkpt>
      <trkpt lat="48.7866530" lon="13.7489050">
        <ele>857.4</ele>
        <time>2019-08-06T15:45:54Z</time>
      </trkpt>
      <trkpt lat="48.7866960" lon="13.7488990">
        <ele>857.6</ele>
        <time>2019-08-06T15:45:55Z</time>
      </trkpt>
      <trkpt lat="48.7867430" lon="13.7489030">
        <ele>857.6</ele>
        <time>2019-08-06T15:45:56Z</time>
      </trkpt>
      <trkpt lat="48.7867910" lon="13.7489080">
        <ele>857.8</ele>
        <time>2019-08-06T15:45:57Z</time>
      </trkpt>
      <trkpt lat="48.7868380" lon="13.7489150">
        <ele>857.8</ele>
        <time>2019-08-06T15:45:58Z</time>
      </trkpt>
      <trkpt lat="48.7868920" lon="13.7489340">
        <ele>858.0</ele>
        <time>2019-08-06T15:45:59Z</time>
      </trkpt>
      <trkpt lat="48.7869520" lon="13.7489590">
        <ele>858.0</ele>
        <time>2019-08-06T15:46:00Z</time>
      </trkpt>
      <trkpt lat="48.7870000" lon="13.7489720">
        <ele>858.0</ele>
        <time>2019-08-06T15:46:01Z</time>
      </trkpt>
      <trkpt lat="48.7870450" lon="13.7489800">
        <ele>858.2</ele>
        <time>2019-08-06T15:46:02Z</time>
      </trkpt>
      <trkpt lat="48.7870920" lon="13.7489930">
        <ele>858.2</ele>
        <time>2019-08-06T15:46:03Z</time>
      </trkpt>
      <trkpt lat="48.7871370" lon="13.7490060">
        <ele>858.2</ele>
        <time>2019-08-06T15:46:04Z</time>
      </trkpt>
      <trkpt lat="48.7871860" lon="13.7490260">
        <ele>858.4</ele>
        <time>2019-08-06T15:46:05Z</time>
      </trkpt>
      <trkpt lat="48.7872330" lon="13.7490520">
        <ele>858.6</ele>
        <time>2019-08-06T15:46:06Z</time>
      </trkpt>
      <trkpt lat="48.7872800" lon="13.7490810">
        <ele>858.8</ele>
        <time>2019-08-06T15:46:07Z</time>
      </trkpt>
      <trkpt lat="48.7873260" lon="13.7491050">
        <ele>859.0</ele>
        <time>2019-08-06T15:46:08Z</time>
      </trkpt>
      <trkpt lat="48.7873740" lon="13.7491320">
        <ele>859.0</ele>
        <time>2019-08-06T15:46:09Z</time>
      </trkpt>
      <trkpt lat="48.7874200" lon="13.7491580">
        <ele>859.0</ele>
        <time>2019-08-06T15:46:10Z</time>
      </trkpt>
      <trkpt lat="48.7874650" lon="13.7491820">
        <ele>859.2</ele>
        <time>2019-08-06T15:46:11Z</time>
      </trkpt>
      <trkpt lat="48.7875060" lon="13.7492030">
        <ele>859.2</ele>
        <time>2019-08-06T15:46:12Z</time>
      </trkpt>
      <trkpt lat="48.7875480" lon="13.7492210">
        <ele>859.2</ele>
        <time>2019-08-06T15:46:13Z</time>
      </trkpt>
      <trkpt lat="48.7875900" lon="13.7492470">
        <ele>859.2</ele>
        <time>2019-08-06T15:46:14Z</time>
      </trkpt>
      <trkpt lat="48.7876290" lon="13.7492810">
        <ele>859.4</ele>
        <time>2019-08-06T15:46:15Z</time>
      </trkpt>
      <trkpt lat="48.7876680" lon="13.7493230">
        <ele>859.4</ele>
        <time>2019-08-06T15:46:16Z</time>
      </trkpt>
      <trkpt lat="48.7877070" lon="13.7493650">
        <ele>859.4</ele>
        <time>2019-08-06T15:46:17Z</time>
      </trkpt>
      <trkpt lat="48.7877470" lon="13.7494080">
        <ele>859.4</ele>
        <time>2019-08-06T15:46:18Z</time>
      </trkpt>
      <trkpt lat="48.7877850" lon="13.7494520">
        <ele>859.6</ele>
        <time>2019-08-06T15:46:19Z</time>
      </trkpt>
      <trkpt lat="48.7878220" lon="13.7494950">
        <ele>859.6</ele>
        <time>2019-08-06T15:46:20Z</time>
      </trkpt>
      <trkpt lat="48.7878580" lon="13.7495350">
        <ele>859.8</ele>
        <time>2019-08-06T15:46:21Z</time>
      </trkpt>
      <trkpt lat="48.7878930" lon="13.7495750">
        <ele>859.8</ele>
        <time>2019-08-06T15:46:22Z</time>
      </trkpt>
      <trkpt lat="48.7879250" lon="13.7496150">
        <ele>860.0</ele>
        <time>2019-08-06T15:46:23Z</time>
      </trkpt>
      <trkpt lat="48.7879580" lon="13.7496590">
        <ele>860.0</ele>
        <time>2019-08-06T15:46:24Z</time>
      </trkpt>
      <trkpt lat="48.7879890" lon="13.7497050">
        <ele>860.2</ele>
        <time>2019-08-06T15:46:25Z</time>
      </trkpt>
      <trkpt lat="48.7880160" lon="13.7497500">
        <ele>860.2</ele>
        <time>2019-08-06T15:46:26Z</time>
      </trkpt>
      <trkpt lat="48.7880430" lon="13.7497940">
        <ele>860.4</ele>
        <time>2019-08-06T15:46:27Z</time>
      </trkpt>
      <trkpt lat="48.7880680" lon="13.7498360">
        <ele>860.4</ele>
        <time>2019-08-06T15:46:28Z</time>
      </trkpt>
      <trkpt lat="48.7880940" lon="13.7498800">
        <ele>860.4</ele>
        <time>2019-08-06T15:46:29Z</time>
      </trkpt>
      <trkpt lat="48.7881220" lon="13.7499220">
        <ele>860.6</ele>
        <time>2019-08-06T15:46:30Z</time>
      </trkpt>
      <trkpt lat="48.7881500" lon="13.7499660">
        <ele>860.6</ele>
        <time>2019-08-06T15:46:31Z</time>
      </trkpt>
      <trkpt lat="48.7881760" lon="13.7500170">
        <ele>860.8</ele>
        <time>2019-08-06T15:46:32Z</time>
      </trkpt>
      <trkpt lat="48.7881980" lon="13.7500690">
        <ele>860.8</ele>
        <time>2019-08-06T15:46:33Z</time>
      </trkpt>
      <trkpt lat="48.7882220" lon="13.7501210">
        <ele>860.8</ele>
        <time>2019-08-06T15:46:34Z</time>
      </trkpt>
      <trkpt lat="48.7882460" lon="13.7501750">
        <ele>861.0</ele>
        <time>2019-08-06T15:46:35Z</time>
      </trkpt>
      <trkpt lat="48.7882700" lon="13.7502310">
        <ele>861.0</ele>
        <time>2019-08-06T15:46:36Z</time>
      </trkpt>
      <trkpt lat="48.7882920" lon="13.7502880">
        <ele>861.0</ele>
        <time>2019-08-06T15:46:37Z</time>
      </trkpt>
      <trkpt lat="48.7883140" lon="13.7503420">
        <ele>861.2</ele>
        <time>2019-08-06T15:46:38Z</time>
      </trkpt>
      <trkpt lat="48.7883340" lon="13.7503960">
        <ele>861.2</ele>
        <time>2019-08-06T15:46:39Z</time>
      </trkpt>
      <trkpt lat="48.7883510" lon="13.7504560">
        <ele>861.2</ele>
        <time>2019-08-06T15:46:40Z</time>
      </trkpt>
      <trkpt lat="48.7883670" lon="13.7505150">
        <ele>861.4</ele>
        <time>2019-08-06T15:46:41Z</time>
      </trkpt>
      <trkpt lat="48.7883880" lon="13.7505740">
        <ele>861.4</ele>
        <time>2019-08-06T15:46:42Z</time>
      </trkpt>
      <trkpt lat="48.7884090" lon="13.7506350">
        <ele>861.4</ele>
        <time>2019-08-06T15:46:43Z</time>
      </trkpt>
      <trkpt lat="48.7884290" lon="13.7506920">
        <ele>861.6</ele>
        <time>2019-08-06T15:46:44Z</time>
      </trkpt>
      <trkpt lat="48.7884500" lon="13.7507460">
        <ele>861.6</ele>
        <time>2019-08-06T15:46:45Z</time>
      </trkpt>
      <trkpt lat="48.7884720" lon="13.7508030">
        <ele>861.8</ele>
        <time>2019-08-06T15:46:46Z</time>
      </trkpt>
      <trkpt lat="48.7884930" lon="13.7508610">
        <ele>861.8</ele>
        <time>2019-08-06T15:46:47Z</time>
      </trkpt>
      <trkpt lat="48.7885130" lon="13.7509240">
        <ele>862.0</ele>
        <time>2019-08-06T15:46:48Z</time>
      </trkpt>
      <trkpt lat="48.7885330" lon="13.7509840">
        <ele>862.0</ele>
        <time>2019-08-06T15:46:49Z</time>
      </trkpt>
      <trkpt lat="48.7885530" lon="13.7510390">
        <ele>862.0</ele>
        <time>2019-08-06T15:46:50Z</time>
      </trkpt>
      <trkpt lat="48.7885730" lon="13.7510970">
        <ele>862.2</ele>
        <time>2019-08-06T15:46:51Z</time>
      </trkpt>
      <trkpt lat="48.7885890" lon="13.7511570">
        <ele>862.2</ele>
        <time>2019-08-06T15:46:52Z</time>
      </trkpt>
      <trkpt lat="48.7886030" lon="13.7512150">
        <ele>862.4</ele>
        <time>2019-08-06T15:46:53Z</time>
      </trkpt>
      <trkpt lat="48.7886210" lon="13.7512710">
        <ele>862.4</ele>
        <time>2019-08-06T15:46:54Z</time>
      </trkpt>
      <trkpt lat="48.7886450" lon="13.7513240">
        <ele>862.6</ele>
        <time>2019-08-06T15:46:55Z</time>
      </trkpt>
      <trkpt lat="48.7886700" lon="13.7513780">
        <ele>862.6</ele>
        <time>2019-08-06T15:46:56Z</time>
      </trkpt>
      <trkpt lat="48.7886950" lon="13.7514280">
        <ele>862.8</ele>
        <time>2019-08-06T15:46:57Z</time>
      </trkpt>
      <trkpt lat="48.7887200" lon="13.7514780">
        <ele>862.8</ele>
        <time>2019-08-06T15:46:58Z</time>
      </trkpt>
      <trkpt lat="48.7887470" lon="13.7515250">
        <ele>862.8</ele>
        <time>2019-08-06T15:46:59Z</time>
      </trkpt>
      <trkpt lat="48.7887740" lon="13.7515660">
        <ele>863.0</ele>
        <time>2019-08-06T15:47:00Z</time>
      </trkpt>
      <trkpt lat="48.7888020" lon="13.7516080">
        <ele>863.0</ele>
        <time>2019-08-06T15:47:01Z</time>
      </trkpt>
      <trkpt lat="48.7888310" lon="13.7516500">
        <ele>863.0</ele>
        <time>2019-08-06T15:47:02Z</time>
      </trkpt>
      <trkpt lat="48.7888600" lon="13.7516860">
        <ele>863.2</ele>
        <time>2019-08-06T15:47:03Z</time>
      </trkpt>
      <trkpt lat="48.7888850" lon="13.7517220">
        <ele>863.2</ele>
        <time>2019-08-06T15:47:04Z</time>
      </trkpt>
      <trkpt lat="48.7889110" lon="13.7517590">
        <ele>863.4</ele>
        <time>2019-08-06T15:47:05Z</time>
      </trkpt>
      <trkpt lat="48.7889360" lon="13.7517920">
        <ele>863.4</ele>
        <time>2019-08-06T15:47:06Z</time>
      </trkpt>
      <trkpt lat="48.7889640" lon="13.7518260">
        <ele>863.4</ele>
        <time>2019-08-06T15:47:07Z</time>
      </trkpt>
      <trkpt lat="48.7889950" lon="13.7518560">
        <ele>863.6</ele>
        <time>2019-08-06T15:47:08Z</time>
      </trkpt>
      <trkpt lat="48.7890270" lon="13.7518870">
        <ele>863.6</ele>
        <time>2019-08-06T15:47:09Z</time>
      </trkpt>
      <trkpt lat="48.7890600" lon="13.7519230">
        <ele>863.8</ele>
        <time>2019-08-06T15:47:10Z</time>
      </trkpt>
      <trkpt lat="48.7890920" lon="13.7519590">
        <ele>863.8</ele>
        <time>2019-08-06T15:47:11Z</time>
      </trkpt>
      <trkpt lat="48.7891260" lon="13.7519980">
        <ele>863.8</ele>
        <time>2019-08-06T15:47:12Z</time>
      </trkpt>
      <trkpt lat="48.7891640" lon="13.7520360">
        <ele>864.0</ele>
        <time>2019-08-06T15:47:13Z</time>
      </trkpt>
      <trkpt lat="48.7891970" lon="13.7520680">
        <ele>864.0</ele>
        <time>2019-08-06T15:47:14Z</time>
      </trkpt>
      <trkpt lat="48.7892360" lon="13.7520940">
        <ele>864.0</ele>
        <time>2019-08-06T15:47:15Z</time>
      </trkpt>
      <trkpt lat="48.7892750" lon="13.7521150">
        <ele>864.2</ele>
        <time>2019-08-06T15:47:16Z</time>
      </trkpt>
      <trkpt lat="48.7893160" lon="13.7521350">
        <ele>864.2</ele>
        <time>2019-08-06T15:47:17Z</time>
      </trkpt>
      <trkpt lat="48.7893580" lon="13.7521550">
        <ele>864.2</ele>
        <time>2019-08-06T15:47:18Z</time>
      </trkpt>
      <trkpt lat="48.7894030" lon="13.7521810">
        <ele>864.4</ele>
        <time>2019-08-06T15:47:19Z</time>
      </trkpt>
      <trkpt lat="48.7894420" lon="13.7522010">
        <ele>864.4</ele>
        <time>2019-08-06T15:47:20Z</time>
      </trkpt>
      <trkpt lat="48.7894780" lon="13.7522190">
        <ele>864.6</ele>
        <time>2019-08-06T15:47:21Z</time>
      </trkpt>
      <trkpt lat="48.7895150" lon="13.7522380">
        <ele>864.6</ele>
        <time>2019-08-06T15:47:22Z</time>
      </trkpt>
      <trkpt lat="48.7895540" lon="13.7522540">
        <ele>864.8</ele>
        <time>2019-08-06T15:47:23Z</time>
      </trkpt>
      <trkpt lat="48.7895890" lon="13.7522630">
        <ele>865.0</ele>
        <time>2019-08-06T15:47:24Z</time>
      </trkpt>
      <trkpt lat="48.7896240" lon="13.7522690">
        <ele>865.0</ele>
        <time>2019-08-06T15:47:25Z</time>
      </trkpt>
      <trkpt lat="48.7896570" lon="13.7522710">
        <ele>865.0</ele>
        <time>2019-08-06T15:47:26Z</time>
      </trkpt>
      <trkpt lat="48.7896870" lon="13.7522740">
        <ele>865.2</ele>
        <time>2019-08-06T15:47:27Z</time>
      </trkpt>
      <trkpt lat="48.7897140" lon="13.7522780">
        <ele>865.2</ele>
        <time>2019-08-06T15:47:28Z</time>
      </trkpt>
      <trkpt lat="48.7897430" lon="13.7522800">
        <ele>865.4</ele>
        <time>2019-08-06T15:47:29Z</time>
      </trkpt>
      <trkpt lat="48.7897780" lon="13.7522830">
        <ele>865.4</ele>
        <time>2019-08-06T15:47:30Z</time>
      </trkpt>
      <trkpt lat="48.7898150" lon="13.7522900">
        <ele>865.6</ele>
        <time>2019-08-06T15:47:31Z</time>
      </trkpt>
      <trkpt lat="48.7898490" lon="13.7522940">
        <ele>865.6</ele>
        <time>2019-08-06T15:47:32Z</time>
      </trkpt>
      <trkpt lat="48.7898870" lon="13.7522950">
        <ele>865.8</ele>
        <time>2019-08-06T15:47:33Z</time>
      </trkpt>
      <trkpt lat="48.7899300" lon="13.7522970">
        <ele>865.8</ele>
        <time>2019-08-06T15:47:34Z</time>
      </trkpt>
      <trkpt lat="48.7899690" lon="13.7523000">
        <ele>865.8</ele>
        <time>2019-08-06T15:47:35Z</time>
      </trkpt>
      <trkpt lat="48.7900070" lon="13.7523000">
        <ele>866.0</ele>
        <time>2019-08-06T15:47:36Z</time>
      </trkpt>
      <trkpt lat="48.7900440" lon="13.7523030">
        <ele>866.0</ele>
        <time>2019-08-06T15:47:37Z</time>
      </trkpt>
      <trkpt lat="48.7900810" lon="13.7523090">
        <ele>866.2</ele>
        <time>2019-08-06T15:47:38Z</time>
      </trkpt>
      <trkpt lat="48.7901180" lon="13.7523200">
        <ele>866.2</ele>
        <time>2019-08-06T15:47:39Z</time>
      </trkpt>
      <trkpt lat="48.7901590" lon="13.7523320">
        <ele>866.2</ele>
        <time>2019-08-06T15:47:40Z</time>
      </trkpt>
      <trkpt lat="48.7901990" lon="13.7523460">
        <ele>866.4</ele>
        <time>2019-08-06T15:47:41Z</time>
      </trkpt>
      <trkpt lat="48.7902400" lon="13.7523620">
        <ele>866.4</ele>
        <time>2019-08-06T15:47:42Z</time>
      </trkpt>
      <trkpt lat="48.7902830" lon="13.7523760">
        <ele>866.6</ele>
        <time>2019-08-06T15:47:43Z</time>
      </trkpt>
      <trkpt lat="48.7903330" lon="13.7523880">
        <ele>866.6</ele>
        <time>2019-08-06T15:47:44Z</time>
      </trkpt>
      <trkpt lat="48.7903810" lon="13.7523970">
        <ele>866.8</ele>
        <time>2019-08-06T15:47:45Z</time>
      </trkpt>
      <trkpt lat="48.7904280" lon="13.7524100">
        <ele>866.8</ele>
        <time>2019-08-06T15:47:46Z</time>
      </trkpt>
      <trkpt lat="48.7904760" lon="13.7524170">
        <ele>867.0</ele>
        <time>2019-08-06T15:47:47Z</time>
      </trkpt>
      <trkpt lat="48.7905180" lon="13.7524220">
        <ele>867.0</ele>
        <time>2019-08-06T15:47:48Z</time>
      </trkpt>
      <trkpt lat="48.7905600" lon="13.7524270">
        <ele>867.2</ele>
        <time>2019-08-06T15:47:49Z</time>
      </trkpt>
      <trkpt lat="48.7906030" lon="13.7524370">
        <ele>867.2</ele>
        <time>2019-08-06T15:47:50Z</time>
      </trkpt>
      <trkpt lat="48.7906480" lon="13.7524500">
        <ele>867.2</ele>
        <time>2019-08-06T15:47:51Z</time>
      </trkpt>
      <trkpt lat="48.7906910" lon="13.7524670">
        <ele>867.4</ele>
        <time>2019-08-06T15:47:52Z</time>
      </trkpt>
      <trkpt lat="48.7907300" lon="13.7524870">
        <ele>867.4</ele>
        <time>2019-08-06T15:47:53Z</time>
      </trkpt>
      <trkpt lat="48.7907680" lon="13.7525070">
        <ele>867.4</ele>
        <time>2019-08-06T15:47:54Z</time>
      </trkpt>
      <trkpt lat="48.7908070" lon="13.7525320">
        <ele>867.6</ele>
        <time>2019-08-06T15:47:55Z</time>
      </trkpt>
      <trkpt lat="48.7908510" lon="13.7525630">
        <ele>867.6</ele>
        <time>2019-08-06T15:47:56Z</time>
      </trkpt>
      <trkpt lat="48.7908880" lon="13.7525880">
        <ele>867.8</ele>
        <time>2019-08-06T15:47:57Z</time>
      </trkpt>
      <trkpt lat="48.7909280" lon="13.7526120">
        <ele>867.8</ele>
        <time>2019-08-06T15:47:58Z</time>
      </trkpt>
      <trkpt lat="48.7909680" lon="13.7526330">
        <ele>867.8</ele>
        <time>2019-08-06T15:47:59Z</time>
      </trkpt>
      <trkpt lat="48.7910080" lon="13.7526580">
        <ele>868.0</ele>
        <time>2019-08-06T15:48:00Z</time>
      </trkpt>
      <trkpt lat="48.7910430" lon="13.7526800">
        <ele>868.0</ele>
        <time>2019-08-06T15:48:01Z</time>
      </trkpt>
      <trkpt lat="48.7910780" lon="13.7527050">
        <ele>868.0</ele>
        <time>2019-08-06T15:48:02Z</time>
      </trkpt>
      <trkpt lat="48.7911140" lon="13.7527370">
        <ele>868.2</ele>
        <time>2019-08-06T15:48:03Z</time>
      </trkpt>
      <trkpt lat="48.7911500" lon="13.7527730">
        <ele>868.2</ele>
        <time>2019-08-06T15:48:04Z</time>
      </trkpt>
      <trkpt lat="48.7911900" lon="13.7528170">
        <ele>868.2</ele>
        <time>2019-08-06T15:48:05Z</time>
      </trkpt>
      <trkpt lat="48.7912350" lon="13.7528650">
        <ele>868.4</ele>
        <time>2019-08-06T15:48:06Z</time>
      </trkpt>
      <trkpt lat="48.7912810" lon="13.7529180">
        <ele>868.4</ele>
        <time>2019-08-06T15:48:07Z</time>
      </trkpt>
      <trkpt lat="48.7913260" lon="13.7529740">
        <ele>868.4</ele>
        <time>2019-08-06T15:48:08Z</time>
      </trkpt>
      <trkpt lat="48.7913670" lon="13.7530260">
        <ele>868.6</ele>
        <time>2019-08-06T15:48:09Z</time>
      </trkpt>
      <trkpt lat="48.7914080" lon="13.7530780">
        <ele>868.6</ele>
        <time>2019-08-06T15:48:10Z</time>
      </trkpt>
      <trkpt lat="48.7914450" lon="13.7531270">
        <ele>868.8</ele>
        <time>2019-08-06T15:48:11Z</time>
      </trkpt>
      <trkpt lat="48.7914820" lon="13.7531740">
        <ele>869.0</ele>
        <time>2019-08-06T15:48:12Z</time>
      </trkpt>
      <trkpt lat="48.7915200" lon="13.7532230">
        <ele>869.0</ele>
        <time>2019-08-06T15:48:13Z</time>
      </trkpt>
      <trkpt lat="48.7915490" lon="13.7532660">
        <ele>869.2</ele>
        <time>2019-08-06T15:48:14Z</time>
      </trkpt>
      <trkpt lat="48.7915790" lon="13.7533100">
        <ele>869.2</ele>
        <time>2019-08-06T15:48:15Z</time>
      </trkpt>
      <trkpt lat="48.7916100" lon="13.7533630">
        <ele>869.2</ele>
        <time>2019-08-06T15:48:16Z</time>
      </trkpt>
      <trkpt lat="48.7916390" lon="13.7534200">
        <ele>869.4</ele>
        <time>2019-08-06T15:48:17Z</time>
      </trkpt>
      <trkpt lat="48.7916660" lon="13.7534770">
        <ele>869.4</ele>
        <time>2019-08-06T15:48:18Z</time>
      </trkpt>
      <trkpt lat="48.7916930" lon="13.7535320">
        <ele>869.6</ele>
        <time>2019-08-06T15:48:19Z</time>
      </trkpt>
      <trkpt lat="48.7917250" lon="13.7535850">
        <ele>869.6</ele>
        <time>2019-08-06T15:48:20Z</time>
      </trkpt>
      <trkpt lat="48.7917560" lon="13.7536370">
        <ele>869.8</ele>
        <time>2019-08-06T15:48:21Z</time>
      </trkpt>
      <trkpt lat="48.7917830" lon="13.7536900">
        <ele>869.8</ele>
        <time>2019-08-06T15:48:22Z</time>
      </trkpt>
      <trkpt lat="48.7918080" lon="13.7537490">
        <ele>870.0</ele>
        <time>2019-08-06T15:48:23Z</time>
      </trkpt>
      <trkpt lat="48.7918300" lon="13.7538060">
        <ele>870.0</ele>
        <time>2019-08-06T15:48:24Z</time>
      </trkpt>
      <trkpt lat="48.7918510" lon="13.7538620">
        <ele>870.2</ele>
        <time>2019-08-06T15:48:25Z</time>
      </trkpt>
      <trkpt lat="48.7918720" lon="13.7539180">
        <ele>870.2</ele>
        <time>2019-08-06T15:48:26Z</time>
      </trkpt>
      <trkpt lat="48.7918910" lon="13.7539760">
        <ele>870.4</ele>
        <time>2019-08-06T15:48:27Z</time>
      </trkpt>
      <trkpt lat="48.7919100" lon="13.7540370">
        <ele>870.4</ele>
        <time>2019-08-06T15:48:28Z</time>
      </trkpt>
      <trkpt lat="48.7919300" lon="13.7540960">
        <ele>870.6</ele>
        <time>2019-08-06T15:48:29Z</time>
      </trkpt>
      <trkpt lat="48.7919470" lon="13.7541510">
        <ele>870.6</ele>
        <time>2019-08-06T15:48:30Z</time>
      </trkpt>
      <trkpt lat="48.7919640" lon="13.7542110">
        <ele>870.6</ele>
        <time>2019-08-06T15:48:31Z</time>
      </trkpt>
      <trkpt lat="48.7919790" lon="13.7542720">
        <ele>870.8</ele>
        <time>2019-08-06T15:48:32Z</time>
      </trkpt>
      <trkpt lat="48.7919930" lon="13.7543360">
        <ele>870.8</ele>
        <time>2019-08-06T15:48:33Z</time>
      </trkpt>
      <trkpt lat="48.7920100" lon="13.7543960">
        <ele>870.8</ele>
        <time>2019-08-06T15:48:34Z</time>
      </trkpt>
      <trkpt lat="48.7920290" lon="13.7544550">
        <ele>871.0</ele>
        <time>2019-08-06T15:48:35Z</time>
      </trkpt>
      <trkpt lat="48.7920500" lon="13.7545140">
        <ele>871.0</ele>
        <time>2019-08-06T15:48:36Z</time>
      </trkpt>
      <trkpt lat="48.7920690" lon="13.7545730">
        <ele>871.2</ele>
        <time>2019-08-06T15:48:37Z</time>
      </trkpt>
      <trkpt lat="48.7920830" lon="13.7546350">
        <ele>871.2</ele>
        <time>2019-08-06T15:48:38Z</time>
      </trkpt>
      <trkpt lat="48.7920960" lon="13.7547000">
        <ele>871.4</ele>
        <time>2019-08-06T15:48:39Z</time>
      </trkpt>
      <trkpt lat="48.7921110" lon="13.7547640">
        <ele>871.4</ele>
        <time>2019-08-06T15:48:40Z</time>
      </trkpt>
      <trkpt lat="48.7921260" lon="13.7548280">
        <ele>871.4</ele>
        <time>2019-08-06T15:48:41Z</time>
      </trkpt>
      <trkpt lat="48.7921390" lon="13.7548870">
        <ele>871.6</ele>
        <time>2019-08-06T15:48:42Z</time>
      </trkpt>
      <trkpt lat="48.7921550" lon="13.7549460">
        <ele>871.6</ele>
        <time>2019-08-06T15:48:43Z</time>
      </trkpt>
      <trkpt lat="48.7921670" lon="13.7550060">
        <ele>871.8</ele>
        <time>2019-08-06T15:48:44Z</time>
      </trkpt>
      <trkpt lat="48.7921770" lon="13.7550700">
        <ele>872.0</ele>
        <time>2019-08-06T15:48:45Z</time>
      </trkpt>
      <trkpt lat="48.7921830" lon="13.7551330">
        <ele>872.0</ele>
        <time>2019-08-06T15:48:46Z</time>
      </trkpt>
      <trkpt lat="48.7921910" lon="13.7551940">
        <ele>872.2</ele>
        <time>2019-08-06T15:48:47Z</time>
      </trkpt>
      <trkpt lat="48.7921990" lon="13.7552530">
        <ele>872.2</ele>
        <time>2019-08-06T15:48:48Z</time>
      </trkpt>
      <trkpt lat="48.7922070" lon="13.7553110">
        <ele>872.4</ele>
        <time>2019-08-06T15:48:49Z</time>
      </trkpt>
      <trkpt lat="48.7922120" lon="13.7553720">
        <ele>872.4</ele>
        <time>2019-08-06T15:48:50Z</time>
      </trkpt>
      <trkpt lat="48.7922150" lon="13.7554380">
        <ele>872.4</ele>
        <time>2019-08-06T15:48:51Z</time>
      </trkpt>
      <trkpt lat="48.7922210" lon="13.7555050">
        <ele>872.6</ele>
        <time>2019-08-06T15:48:52Z</time>
      </trkpt>
      <trkpt lat="48.7922260" lon="13.7555710">
        <ele>872.6</ele>
        <time>2019-08-06T15:48:53Z</time>
      </trkpt>
      <trkpt lat="48.7922320" lon="13.7556380">
        <ele>872.6</ele>
        <time>2019-08-06T15:48:54Z</time>
      </trkpt>
      <trkpt lat="48.7922400" lon="13.7557100">
        <ele>872.8</ele>
        <time>2019-08-06T15:48:55Z</time>
      </trkpt>
      <trkpt lat="48.7922460" lon="13.7557780">
        <ele>872.8</ele>
        <time>2019-08-06T15:48:56Z</time>
      </trkpt>
      <trkpt lat="48.7922510" lon="13.7558440">
        <ele>873.0</ele>
        <time>2019-08-06T15:48:57Z</time>
      </trkpt>
      <trkpt lat="48.7922560" lon="13.7559100">
        <ele>873.0</ele>
        <time>2019-08-06T15:48:58Z</time>
      </trkpt>
      <trkpt lat="48.7922610" lon="13.7559730">
        <ele>873.0</ele>
        <time>2019-08-06T15:48:59Z</time>
      </trkpt>
      <trkpt lat="48.7922660" lon="13.7560370">
        <ele>873.2</ele>
        <time>2019-08-06T15:49:00Z</time>
      </trkpt>
      <trkpt lat="48.7922730" lon="13.7561020">
        <ele>873.2</ele>
        <time>2019-08-06T15:49:01Z</time>
      </trkpt>
      <trkpt lat="48.7922780" lon="13.7561650">
        <ele>873.2</ele>
        <time>2019-08-06T15:49:02Z</time>
      </trkpt>
      <trkpt lat="48.7922840" lon="13.7562280">
        <ele>873.4</ele>
        <time>2019-08-06T15:49:03Z</time>
      </trkpt>
      <trkpt lat="48.7922910" lon="13.7562890">
        <ele>873.4</ele>
        <time>2019-08-06T15:49:04Z</time>
      </trkpt>
      <trkpt lat="48.7922960" lon="13.7563480">
        <ele>873.4</ele>
        <time>2019-08-06T15:49:05Z</time>
      </trkpt>
      <trkpt lat="48.7923010" lon="13.7564020">
        <ele>873.6</ele>
        <time>2019-08-06T15:49:06Z</time>
      </trkpt>
      <trkpt lat="48.7923030" lon="13.7564480">
        <ele>873.6</ele>
        <time>2019-08-06T15:49:07Z</time>
      </trkpt>
      <trkpt lat="48.7923030" lon="13.7564860">
        <ele>873.8</ele>
        <time>2019-08-06T15:49:08Z</time>
      </trkpt>
      <trkpt lat="48.7923040" lon="13.7565230">
        <ele>873.8</ele>
        <time>2019-08-06T15:49:09Z</time>
      </trkpt>
      <trkpt lat="48.7923080" lon="13.7565650">
        <ele>873.8</ele>
        <time>2019-08-06T15:49:10Z</time>
      </trkpt>
      <trkpt lat="48.7923210" lon="13.7566130">
        <ele>873.8</ele>
        <time>2019-08-06T15:49:11Z</time>
      </trkpt>
      <trkpt lat="48.7923340" lon="13.7566700">
        <ele>874.0</ele>
        <time>2019-08-06T15:49:12Z</time>
      </trkpt>
      <trkpt lat="48.7923480" lon="13.7567300">
        <ele>874.0</ele>
        <time>2019-08-06T15:49:13Z</time>
      </trkpt>
      <trkpt lat="48.7923620" lon="13.7567910">
        <ele>874.0</ele>
        <time>2019-08-06T15:49:14Z</time>
      </trkpt>
      <trkpt lat="48.7923760" lon="13.7568460">
        <ele>874.0</ele>
        <time>2019-08-06T15:49:15Z</time>
      </trkpt>
      <trkpt lat="48.7923960" lon="13.7569090">
        <ele>874.0</ele>
        <time>2019-08-06T15:49:16Z</time>
      </trkpt>
      <trkpt lat="48.7924190" lon="13.7569710">
        <ele>874.0</ele>
        <time>2019-08-06T15:49:17Z</time>
      </trkpt>
      <trkpt lat="48.7924430" lon="13.7570350">
        <ele>874.0</ele>
        <time>2019-08-06T15:49:18Z</time>
      </trkpt>
      <trkpt lat="48.7924660" lon="13.7571030">
        <ele>874.0</ele>
        <time>2019-08-06T15:49:19Z</time>
      </trkpt>
      <trkpt lat="48.7924900" lon="13.7571720">
        <ele>874.0</ele>
        <time>2019-08-06T15:49:20Z</time>
      </trkpt>
      <trkpt lat="48.7925170" lon="13.7572390">
        <ele>874.0</ele>
        <time>2019-08-06T15:49:21Z</time>
      </trkpt>
      <trkpt lat="48.7925440" lon="13.7573040">
        <ele>874.0</ele>
        <time>2019-08-06T15:49:22Z</time>
      </trkpt>
      <trkpt lat="48.7925730" lon="13.7573690">
        <ele>874.0</ele>
        <time>2019-08-06T15:49:23Z</time>
      </trkpt>
      <trkpt lat="48.7926050" lon="13.7574360">
        <ele>874.0</ele>
        <time>2019-08-06T15:49:24Z</time>
      </trkpt>
      <trkpt lat="48.7926370" lon="13.7575020">
        <ele>874.0</ele>
        <time>2019-08-06T15:49:25Z</time>
      </trkpt>
      <trkpt lat="48.7926730" lon="13.7575730">
        <ele>874.0</ele>
        <time>2019-08-06T15:49:26Z</time>
      </trkpt>
      <trkpt lat="48.7927100" lon="13.7576390">
        <ele>874.0</ele>
        <time>2019-08-06T15:49:27Z</time>
      </trkpt>
      <trkpt lat="48.7927480" lon="13.7576990">
        <ele>874.0</ele>
        <time>2019-08-06T15:49:28Z</time>
      </trkpt>
      <trkpt lat="48.7927860" lon="13.7577610">
        <ele>874.0</ele>
        <time>2019-08-06T15:49:29Z</time>
      </trkpt>
      <trkpt lat="48.7928230" lon="13.7578190">
        <ele>874.0</ele>
        <time>2019-08-06T15:49:30Z</time>
      </trkpt>
      <trkpt lat="48.7928610" lon="13.7578760">
        <ele>874.0</ele>
        <time>2019-08-06T15:49:31Z</time>
      </trkpt>
      <trkpt lat="48.7929010" lon="13.7579330">
        <ele>874.0</ele>
        <time>2019-08-06T15:49:32Z</time>
      </trkpt>
      <trkpt lat="48.7929370" lon="13.7579870">
        <ele>874.0</ele>
        <time>2019-08-06T15:49:33Z</time>
      </trkpt>
      <trkpt lat="48.7929740" lon="13.7580450">
        <ele>874.0</ele>
        <time>2019-08-06T15:49:34Z</time>
      </trkpt>
      <trkpt lat="48.7930110" lon="13.7581050">
        <ele>873.8</ele>
        <time>2019-08-06T15:49:35Z</time>
      </trkpt>
      <trkpt lat="48.7930510" lon="13.7581640">
        <ele>873.8</ele>
        <time>2019-08-06T15:49:36Z</time>
      </trkpt>
      <trkpt lat="48.7930950" lon="13.7582220">
        <ele>873.8</ele>
        <time>2019-08-06T15:49:37Z</time>
      </trkpt>
      <trkpt lat="48.7931380" lon="13.7582810">
        <ele>873.8</ele>
        <time>2019-08-06T15:49:38Z</time>
      </trkpt>
      <trkpt lat="48.7931790" lon="13.7583420">
        <ele>873.8</ele>
        <time>2019-08-06T15:49:39Z</time>
      </trkpt>
      <trkpt lat="48.7932180" lon="13.7584040">
        <ele>873.8</ele>
        <time>2019-08-06T15:49:40Z</time>
      </trkpt>
      <trkpt lat="48.7932580" lon="13.7584580">
        <ele>873.8</ele>
        <time>2019-08-06T15:49:41Z</time>
      </trkpt>
      <trkpt lat="48.7932960" lon="13.7585110">
        <ele>873.8</ele>
        <time>2019-08-06T15:49:42Z</time>
      </trkpt>
      <trkpt lat="48.7933340" lon="13.7585600">
        <ele>873.8</ele>
        <time>2019-08-06T15:49:43Z</time>
      </trkpt>
      <trkpt lat="48.7933680" lon="13.7586100">
        <ele>873.8</ele>
        <time>2019-08-06T15:49:44Z</time>
      </trkpt>
      <trkpt lat="48.7934020" lon="13.7586580">
        <ele>873.8</ele>
        <time>2019-08-06T15:49:45Z</time>
      </trkpt>
      <trkpt lat="48.7934320" lon="13.7587000">
        <ele>873.8</ele>
        <time>2019-08-06T15:49:46Z</time>
      </trkpt>
      <trkpt lat="48.7934610" lon="13.7587430">
        <ele>873.8</ele>
        <time>2019-08-06T15:49:47Z</time>
      </trkpt>
      <trkpt lat="48.7934890" lon="13.7587850">
        <ele>873.8</ele>
        <time>2019-08-06T15:49:48Z</time>
      </trkpt>
      <trkpt lat="48.7935170" lon="13.7588260">
        <ele>873.8</ele>
        <time>2019-08-06T15:49:49Z</time>
      </trkpt>
      <trkpt lat="48.7935440" lon="13.7588670">
        <ele>873.8</ele>
        <time>2019-08-06T15:49:50Z</time>
      </trkpt>
      <trkpt lat="48.7935700" lon="13.7589020">
        <ele>873.8</ele>
        <time>2019-08-06T15:49:51Z</time>
      </trkpt>
      <trkpt lat="48.7935950" lon="13.7589340">
        <ele>873.8</ele>
        <time>2019-08-06T15:49:52Z</time>
      </trkpt>
      <trkpt lat="48.7936190" lon="13.7589690">
        <ele>873.8</ele>
        <time>2019-08-06T15:49:53Z</time>
      </trkpt>
      <trkpt lat="48.7936420" lon="13.7590020">
        <ele>873.8</ele>
        <time>2019-08-06T15:49:54Z</time>
      </trkpt>
      <trkpt lat="48.7936670" lon="13.7590380">
        <ele>873.8</ele>
        <time>2019-08-06T15:49:55Z</time>
      </trkpt>
      <trkpt lat="48.7936950" lon="13.7590780">
        <ele>873.8</ele>
        <time>2019-08-06T15:49:56Z</time>
      </trkpt>
      <trkpt lat="48.7937270" lon="13.7591200">
        <ele>874.0</ele>
        <time>2019-08-06T15:49:57Z</time>
      </trkpt>
      <trkpt lat="48.7937590" lon="13.7591640">
        <ele>874.0</ele>
        <time>2019-08-06T15:49:58Z</time>
      </trkpt>
      <trkpt lat="48.7937930" lon="13.7592110">
        <ele>874.0</ele>
        <time>2019-08-06T15:49:59Z</time>
      </trkpt>
      <trkpt lat="48.7938270" lon="13.7592600">
        <ele>874.0</ele>
        <time>2019-08-06T15:50:00Z</time>
      </trkpt>
      <trkpt lat="48.7938640" lon="13.7593120">
        <ele>874.0</ele>
        <time>2019-08-06T15:50:01Z</time>
      </trkpt>
      <trkpt lat="48.7939020" lon="13.7593660">
        <ele>874.0</ele>
        <time>2019-08-06T15:50:02Z</time>
      </trkpt>
      <trkpt lat="48.7939400" lon="13.7594190">
        <ele>874.0</ele>
        <time>2019-08-06T15:50:03Z</time>
      </trkpt>
      <trkpt lat="48.7939780" lon="13.7594700">
        <ele>874.2</ele>
        <time>2019-08-06T15:50:04Z</time>
      </trkpt>
      <trkpt lat="48.7940170" lon="13.7595210">
        <ele>874.2</ele>
        <time>2019-08-06T15:50:05Z</time>
      </trkpt>
      <trkpt lat="48.7940550" lon="13.7595740">
        <ele>874.2</ele>
        <time>2019-08-06T15:50:06Z</time>
      </trkpt>
      <trkpt lat="48.7940930" lon="13.7596250">
        <ele>874.2</ele>
        <time>2019-08-06T15:50:07Z</time>
      </trkpt>
      <trkpt lat="48.7941310" lon="13.7596760">
        <ele>874.0</ele>
        <time>2019-08-06T15:50:08Z</time>
      </trkpt>
      <trkpt lat="48.7941720" lon="13.7597280">
        <ele>874.0</ele>
        <time>2019-08-06T15:50:09Z</time>
      </trkpt>
      <trkpt lat="48.7942120" lon="13.7597790">
        <ele>874.0</ele>
        <time>2019-08-06T15:50:10Z</time>
      </trkpt>
      <trkpt lat="48.7942540" lon="13.7598310">
        <ele>874.0</ele>
        <time>2019-08-06T15:50:11Z</time>
      </trkpt>
      <trkpt lat="48.7942930" lon="13.7598840">
        <ele>874.0</ele>
        <time>2019-08-06T15:50:12Z</time>
      </trkpt>
      <trkpt lat="48.7943320" lon="13.7599380">
        <ele>874.2</ele>
        <time>2019-08-06T15:50:13Z</time>
      </trkpt>
      <trkpt lat="48.7943730" lon="13.7599910">
        <ele>874.2</ele>
        <time>2019-08-06T15:50:14Z</time>
      </trkpt>
      <trkpt lat="48.7944140" lon="13.7600440">
        <ele>874.2</ele>
        <time>2019-08-06T15:50:15Z</time>
      </trkpt>
      <trkpt lat="48.7944550" lon="13.7600990">
        <ele>874.2</ele>
        <time>2019-08-06T15:50:16Z</time>
      </trkpt>
      <trkpt lat="48.7944940" lon="13.7601530">
        <ele>874.2</ele>
        <time>2019-08-06T15:50:17Z</time>
      </trkpt>
      <trkpt lat="48.7945330" lon="13.7602080">
        <ele>874.2</ele>
        <time>2019-08-06T15:50:18Z</time>
      </trkpt>
      <trkpt lat="48.7945720" lon="13.7602600">
        <ele>874.4</ele>
        <time>2019-08-06T15:50:19Z</time>
      </trkpt>
      <trkpt lat="48.7946130" lon="13.7603100">
        <ele>874.4</ele>
        <time>2019-08-06T15:50:20Z</time>
      </trkpt>
      <trkpt lat="48.7946540" lon="13.7603600">
        <ele>874.4</ele>
        <time>2019-08-06T15:50:21Z</time>
      </trkpt>
      <trkpt lat="48.7946930" lon="13.7604110">
        <ele>874.2</ele>
        <time>2019-08-06T15:50:22Z</time>
      </trkpt>
      <trkpt lat="48.7947320" lon="13.7604630">
        <ele>874.2</ele>
        <time>2019-08-06T15:50:23Z</time>
      </trkpt>
      <trkpt lat="48.7947720" lon="13.7605130">
        <ele>874.4</ele>
        <time>2019-08-06T15:50:24Z</time>
      </trkpt>
      <trkpt lat="48.7948130" lon="13.7605640">
        <ele>874.4</ele>
        <time>2019-08-06T15:50:25Z</time>
      </trkpt>
      <trkpt lat="48.7948540" lon="13.7606160">
        <ele>874.4</ele>
        <time>2019-08-06T15:50:26Z</time>
      </trkpt>
      <trkpt lat="48.7948940" lon="13.7606690">
        <ele>874.2</ele>
        <time>2019-08-06T15:50:27Z</time>
      </trkpt>
      <trkpt lat="48.7949340" lon="13.7607220">
        <ele>874.2</ele>
        <time>2019-08-06T15:50:28Z</time>
      </trkpt>
      <trkpt lat="48.7949770" lon="13.7607730">
        <ele>874.2</ele>
        <time>2019-08-06T15:50:29Z</time>
      </trkpt>
      <trkpt lat="48.7950220" lon="13.7608200">
        <ele>874.2</ele>
        <time>2019-08-06T15:50:30Z</time>
      </trkpt>
      <trkpt lat="48.7950670" lon="13.7608650">
        <ele>874.2</ele>
        <time>2019-08-06T15:50:31Z</time>
      </trkpt>
      <trkpt lat="48.7951120" lon="13.7609100">
        <ele>874.2</ele>
        <time>2019-08-06T15:50:32Z</time>
      </trkpt>
      <trkpt lat="48.7951570" lon="13.7609540">
        <ele>874.2</ele>
        <time>2019-08-06T15:50:33Z</time>
      </trkpt>
      <trkpt lat="48.7952020" lon="13.7609950">
        <ele>874.2</ele>
        <time>2019-08-06T15:50:34Z</time>
      </trkpt>
      <trkpt lat="48.7952490" lon="13.7610330">
        <ele>874.2</ele>
        <time>2019-08-06T15:50:35Z</time>
      </trkpt>
      <trkpt lat="48.7952950" lon="13.7610690">
        <ele>874.2</ele>
        <time>2019-08-06T15:50:36Z</time>
      </trkpt>
      <trkpt lat="48.7953440" lon="13.7611040">
        <ele>874.2</ele>
        <time>2019-08-06T15:50:37Z</time>
      </trkpt>
      <trkpt lat="48.7953950" lon="13.7611360">
        <ele>874.2</ele>
        <time>2019-08-06T15:50:38Z</time>
      </trkpt>
      <trkpt lat="48.7954470" lon="13.7611650">
        <ele>874.0</ele>
        <time>2019-08-06T15:50:39Z</time>
      </trkpt>
      <trkpt lat="48.7955010" lon="13.7611940">
        <ele>874.0</ele>
        <time>2019-08-06T15:50:40Z</time>
      </trkpt>
      <trkpt lat="48.7955560" lon="13.7612200">
        <ele>874.0</ele>
        <time>2019-08-06T15:50:41Z</time>
      </trkpt>
      <trkpt lat="48.7956130" lon="13.7612450">
        <ele>873.8</ele>
        <time>2019-08-06T15:50:42Z</time>
      </trkpt>
      <trkpt lat="48.7956700" lon="13.7612650">
        <ele>873.8</ele>
        <time>2019-08-06T15:50:43Z</time>
      </trkpt>
      <trkpt lat="48.7957310" lon="13.7612840">
        <ele>873.8</ele>
        <time>2019-08-06T15:50:44Z</time>
      </trkpt>
      <trkpt lat="48.7957890" lon="13.7612980">
        <ele>873.6</ele>
        <time>2019-08-06T15:50:45Z</time>
      </trkpt>
      <trkpt lat="48.7958420" lon="13.7613030">
        <ele>873.6</ele>
        <time>2019-08-06T15:50:46Z</time>
      </trkpt>
      <trkpt lat="48.7958980" lon="13.7613080">
        <ele>873.4</ele>
        <time>2019-08-06T15:50:47Z</time>
      </trkpt>
      <trkpt lat="48.7959520" lon="13.7613100">
        <ele>873.4</ele>
        <time>2019-08-06T15:50:48Z</time>
      </trkpt>
      <trkpt lat="48.7960120" lon="13.7613020">
        <ele>873.4</ele>
        <time>2019-08-06T15:50:49Z</time>
      </trkpt>
      <trkpt lat="48.7960710" lon="13.7612900">
        <ele>873.2</ele>
        <time>2019-08-06T15:50:50Z</time>
      </trkpt>
      <trkpt lat="48.7961320" lon="13.7612790">
        <ele>873.2</ele>
        <time>2019-08-06T15:50:51Z</time>
      </trkpt>
      <trkpt lat="48.7961890" lon="13.7612690">
        <ele>873.0</ele>
        <time>2019-08-06T15:50:52Z</time>
      </trkpt>
      <trkpt lat="48.7962500" lon="13.7612570">
        <ele>873.0</ele>
        <time>2019-08-06T15:50:53Z</time>
      </trkpt>
      <trkpt lat="48.7963070" lon="13.7612440">
        <ele>873.0</ele>
        <time>2019-08-06T15:50:54Z</time>
      </trkpt>
      <trkpt lat="48.7963620" lon="13.7612320">
        <ele>872.8</ele>
        <time>2019-08-06T15:50:55Z</time>
      </trkpt>
      <trkpt lat="48.7964190" lon="13.7612180">
        <ele>872.8</ele>
        <time>2019-08-06T15:50:56Z</time>
      </trkpt>
      <trkpt lat="48.7964810" lon="13.7612050">
        <ele>872.6</ele>
        <time>2019-08-06T15:50:57Z</time>
      </trkpt>
      <trkpt lat="48.7965460" lon="13.7611950">
        <ele>872.6</ele>
        <time>2019-08-06T15:50:58Z</time>
      </trkpt>
      <trkpt lat="48.7966110" lon="13.7611890">
        <ele>872.4</ele>
        <time>2019-08-06T15:50:59Z</time>
      </trkpt>
      <trkpt lat="48.7966720" lon="13.7611820">
        <ele>872.4</ele>
        <time>2019-08-06T15:51:00Z</time>
      </trkpt>
      <trkpt lat="48.7967340" lon="13.7611680">
        <ele>872.2</ele>
        <time>2019-08-06T15:51:01Z</time>
      </trkpt>
      <trkpt lat="48.7967970" lon="13.7611560">
        <ele>872.2</ele>
        <time>2019-08-06T15:51:02Z</time>
      </trkpt>
      <trkpt lat="48.7968590" lon="13.7611460">
        <ele>872.0</ele>
        <time>2019-08-06T15:51:03Z</time>
      </trkpt>
      <trkpt lat="48.7969230" lon="13.7611360">
        <ele>872.0</ele>
        <time>2019-08-06T15:51:04Z</time>
      </trkpt>
      <trkpt lat="48.7969920" lon="13.7611270">
        <ele>871.8</ele>
        <time>2019-08-06T15:51:05Z</time>
      </trkpt>
      <trkpt lat="48.7970640" lon="13.7611200">
        <ele>871.8</ele>
        <time>2019-08-06T15:51:06Z</time>
      </trkpt>
      <trkpt lat="48.7971340" lon="13.7611150">
        <ele>871.6</ele>
        <time>2019-08-06T15:51:07Z</time>
      </trkpt>
      <trkpt lat="48.7972020" lon="13.7611090">
        <ele>871.6</ele>
        <time>2019-08-06T15:51:08Z</time>
      </trkpt>
      <trkpt lat="48.7972690" lon="13.7611000">
        <ele>871.4</ele>
        <time>2019-08-06T15:51:09Z</time>
      </trkpt>
      <trkpt lat="48.7973360" lon="13.7610890">
        <ele>871.4</ele>
        <time>2019-08-06T15:51:10Z</time>
      </trkpt>
      <trkpt lat="48.7974050" lon="13.7610780">
        <ele>871.4</ele>
        <time>2019-08-06T15:51:11Z</time>
      </trkpt>
      <trkpt lat="48.7974770" lon="13.7610650">
        <ele>871.2</ele>
        <time>2019-08-06T15:51:12Z</time>
      </trkpt>
      <trkpt lat="48.7975530" lon="13.7610620">
        <ele>871.0</ele>
        <time>2019-08-06T15:51:13Z</time>
      </trkpt>
      <trkpt lat="48.7976310" lon="13.7610620">
        <ele>871.0</ele>
        <time>2019-08-06T15:51:14Z</time>
      </trkpt>
      <trkpt lat="48.7977070" lon="13.7610610">
        <ele>870.8</ele>
        <time>2019-08-06T15:51:15Z</time>
      </trkpt>
      <trkpt lat="48.7977820" lon="13.7610570">
        <ele>870.8</ele>
        <time>2019-08-06T15:51:16Z</time>
      </trkpt>
      <trkpt lat="48.7978510" lon="13.7610450">
        <ele>870.6</ele>
        <time>2019-08-06T15:51:17Z</time>
      </trkpt>
      <trkpt lat="48.7979180" lon="13.7610370">
        <ele>870.6</ele>
        <time>2019-08-06T15:51:18Z</time>
      </trkpt>
      <trkpt lat="48.7979890" lon="13.7610360">
        <ele>870.6</ele>
        <time>2019-08-06T15:51:19Z</time>
      </trkpt>
      <trkpt lat="48.7980600" lon="13.7610320">
        <ele>870.6</ele>
        <time>2019-08-06T15:51:20Z</time>
      </trkpt>
      <trkpt lat="48.7981290" lon="13.7610300">
        <ele>870.4</ele>
        <time>2019-08-06T15:51:21Z</time>
      </trkpt>
      <trkpt lat="48.7981970" lon="13.7610310">
        <ele>870.4</ele>
        <time>2019-08-06T15:51:22Z</time>
      </trkpt>
      <trkpt lat="48.7982670" lon="13.7610270">
        <ele>870.2</ele>
        <time>2019-08-06T15:51:23Z</time>
      </trkpt>
      <trkpt lat="48.7983400" lon="13.7610210">
        <ele>870.2</ele>
        <time>2019-08-06T15:51:24Z</time>
      </trkpt>
      <trkpt lat="48.7984170" lon="13.7610190">
        <ele>870.2</ele>
        <time>2019-08-06T15:51:25Z</time>
      </trkpt>
      <trkpt lat="48.7984980" lon="13.7610140">
        <ele>870.0</ele>
        <time>2019-08-06T15:51:26Z</time>
      </trkpt>
      <trkpt lat="48.7985730" lon="13.7610110">
        <ele>870.0</ele>
        <time>2019-08-06T15:51:27Z</time>
      </trkpt>
      <trkpt lat="48.7986480" lon="13.7610110">
        <ele>869.8</ele>
        <time>2019-08-06T15:51:28Z</time>
      </trkpt>
      <trkpt lat="48.7987230" lon="13.7610120">
        <ele>869.8</ele>
        <time>2019-08-06T15:51:29Z</time>
      </trkpt>
      <trkpt lat="48.7987940" lon="13.7610070">
        <ele>869.8</ele>
        <time>2019-08-06T15:51:30Z</time>
      </trkpt>
      <trkpt lat="48.7988660" lon="13.7610050">
        <ele>869.6</ele>
        <time>2019-08-06T15:51:31Z</time>
      </trkpt>
      <trkpt lat="48.7989370" lon="13.7610040">
        <ele>869.4</ele>
        <time>2019-08-06T15:51:32Z</time>
      </trkpt>
      <trkpt lat="48.7990090" lon="13.7610000">
        <ele>869.4</ele>
        <time>2019-08-06T15:51:33Z</time>
      </trkpt>
      <trkpt lat="48.7990790" lon="13.7609980">
        <ele>869.4</ele>
        <time>2019-08-06T15:51:34Z</time>
      </trkpt>
      <trkpt lat="48.7991520" lon="13.7609980">
        <ele>869.2</ele>
        <time>2019-08-06T15:51:35Z</time>
      </trkpt>
      <trkpt lat="48.7992220" lon="13.7609970">
        <ele>869.0</ele>
        <time>2019-08-06T15:51:36Z</time>
      </trkpt>
      <trkpt lat="48.7992930" lon="13.7609970">
        <ele>869.0</ele>
        <time>2019-08-06T15:51:37Z</time>
      </trkpt>
      <trkpt lat="48.7993640" lon="13.7609930">
        <ele>868.8</ele>
        <time>2019-08-06T15:51:38Z</time>
      </trkpt>
      <trkpt lat="48.7994310" lon="13.7609840">
        <ele>868.6</ele>
        <time>2019-08-06T15:51:39Z</time>
      </trkpt>
      <trkpt lat="48.7995000" lon="13.7609750">
        <ele>868.6</ele>
        <time>2019-08-06T15:51:40Z</time>
      </trkpt>
      <trkpt lat="48.7995700" lon="13.7609690">
        <ele>868.4</ele>
        <time>2019-08-06T15:51:41Z</time>
      </trkpt>
      <trkpt lat="48.7996400" lon="13.7609670">
        <ele>868.2</ele>
        <time>2019-08-06T15:51:42Z</time>
      </trkpt>
      <trkpt lat="48.7997090" lon="13.7609680">
        <ele>868.2</ele>
        <time>2019-08-06T15:51:43Z</time>
      </trkpt>
      <trkpt lat="48.7997810" lon="13.7609710">
        <ele>868.0</ele>
        <time>2019-08-06T15:51:44Z</time>
      </trkpt>
      <trkpt lat="48.7998560" lon="13.7609730">
        <ele>867.8</ele>
        <time>2019-08-06T15:51:45Z</time>
      </trkpt>
      <trkpt lat="48.7999300" lon="13.7609730">
        <ele>867.6</ele>
        <time>2019-08-06T15:51:46Z</time>
      </trkpt>
      <trkpt lat="48.8000040" lon="13.7609790">
        <ele>867.6</ele>
        <time>2019-08-06T15:51:47Z</time>
      </trkpt>
      <trkpt lat="48.8000750" lon="13.7609850">
        <ele>867.4</ele>
        <time>2019-08-06T15:51:48Z</time>
      </trkpt>
      <trkpt lat="48.8001460" lon="13.7609980">
        <ele>867.2</ele>
        <time>2019-08-06T15:51:49Z</time>
      </trkpt>
      <trkpt lat="48.8002200" lon="13.7610150">
        <ele>867.2</ele>
        <time>2019-08-06T15:51:50Z</time>
      </trkpt>
      <trkpt lat="48.8002960" lon="13.7610370">
        <ele>867.2</ele>
        <time>2019-08-06T15:51:51Z</time>
      </trkpt>
      <trkpt lat="48.8003680" lon="13.7610640">
        <ele>867.0</ele>
        <time>2019-08-06T15:51:52Z</time>
      </trkpt>
      <trkpt lat="48.8004440" lon="13.7610970">
        <ele>867.0</ele>
        <time>2019-08-06T15:51:53Z</time>
      </trkpt>
      <trkpt lat="48.8005170" lon="13.7611250">
        <ele>867.0</ele>
        <time>2019-08-06T15:51:54Z</time>
      </trkpt>
      <trkpt lat="48.8005920" lon="13.7611480">
        <ele>866.8</ele>
        <time>2019-08-06T15:51:55Z</time>
      </trkpt>
      <trkpt lat="48.8006690" lon="13.7611640">
        <ele>866.8</ele>
        <time>2019-08-06T15:51:56Z</time>
      </trkpt>
      <trkpt lat="48.8007440" lon="13.7611920">
        <ele>866.8</ele>
        <time>2019-08-06T15:51:57Z</time>
      </trkpt>
      <trkpt lat="48.8008170" lon="13.7612290">
        <ele>866.8</ele>
        <time>2019-08-06T15:51:58Z</time>
      </trkpt>
      <trkpt lat="48.8008940" lon="13.7612690">
        <ele>866.8</ele>
        <time>2019-08-06T15:51:59Z</time>
      </trkpt>
      <trkpt lat="48.8009700" lon="13.7613110">
        <ele>866.6</ele>
        <time>2019-08-06T15:52:00Z</time>
      </trkpt>
      <trkpt lat="48.8010440" lon="13.7613560">
        <ele>866.6</ele>
        <time>2019-08-06T15:52:01Z</time>
      </trkpt>
      <trkpt lat="48.8011170" lon="13.7614000">
        <ele>866.6</ele>
        <time>2019-08-06T15:52:02Z</time>
      </trkpt>
      <trkpt lat="48.8011890" lon="13.7614430">
        <ele>866.4</ele>
        <time>2019-08-06T15:52:03Z</time>
      </trkpt>
      <trkpt lat="48.8012580" lon="13.7614890">
        <ele>866.2</ele>
        <time>2019-08-06T15:52:04Z</time>
      </trkpt>
      <trkpt lat="48.8013240" lon="13.7615420">
        <ele>866.0</ele>
        <time>2019-08-06T15:52:05Z</time>
      </trkpt>
      <trkpt lat="48.8013860" lon="13.7615970">
        <ele>866.0</ele>
        <time>2019-08-06T15:52:06Z</time>
      </trkpt>
      <trkpt lat="48.8014450" lon="13.7616510">
        <ele>865.8</ele>
        <time>2019-08-06T15:52:07Z</time>
      </trkpt>
      <trkpt lat="48.8015130" lon="13.7617080">
        <ele>865.8</ele>
        <time>2019-08-06T15:52:08Z</time>
      </trkpt>
      <trkpt lat="48.8015750" lon="13.7617580">
        <ele>865.6</ele>
        <time>2019-08-06T15:52:09Z</time>
      </trkpt>
      <trkpt lat="48.8016340" lon="13.7618040">
        <ele>865.6</ele>
        <time>2019-08-06T15:52:10Z</time>
      </trkpt>
      <trkpt lat="48.8017160" lon="13.7618840">
        <ele>865.4</ele>
        <time>2019-08-06T15:52:11Z</time>
      </trkpt>
      <trkpt lat="48.8017820" lon="13.7619470">
        <ele>865.4</ele>
        <time>2019-08-06T15:52:12Z</time>
      </trkpt>
      <trkpt lat="48.8018460" lon="13.7619970">
        <ele>865.4</ele>
        <time>2019-08-06T15:52:13Z</time>
      </trkpt>
      <trkpt lat="48.8019150" lon="13.7620400">
        <ele>865.2</ele>
        <time>2019-08-06T15:52:14Z</time>
      </trkpt>
      <trkpt lat="48.8019830" lon="13.7620790">
        <ele>865.2</ele>
        <time>2019-08-06T15:52:15Z</time>
      </trkpt>
      <trkpt lat="48.8020500" lon="13.7621130">
        <ele>865.0</ele>
        <time>2019-08-06T15:52:16Z</time>
      </trkpt>
      <trkpt lat="48.8021200" lon="13.7621420">
        <ele>864.8</ele>
        <time>2019-08-06T15:52:17Z</time>
      </trkpt>
      <trkpt lat="48.8021900" lon="13.7621710">
        <ele>864.8</ele>
        <time>2019-08-06T15:52:18Z</time>
      </trkpt>
      <trkpt lat="48.8022610" lon="13.7621940">
        <ele>864.6</ele>
        <time>2019-08-06T15:52:19Z</time>
      </trkpt>
      <trkpt lat="48.8023310" lon="13.7622130">
        <ele>864.6</ele>
        <time>2019-08-06T15:52:20Z</time>
      </trkpt>
      <trkpt lat="48.8024020" lon="13.7622320">
        <ele>864.6</ele>
        <time>2019-08-06T15:52:21Z</time>
      </trkpt>
      <trkpt lat="48.8024780" lon="13.7622580">
        <ele>864.6</ele>
        <time>2019-08-06T15:52:22Z</time>
      </trkpt>
      <trkpt lat="48.8025510" lon="13.7622760">
        <ele>864.6</ele>
        <time>2019-08-06T15:52:23Z</time>
      </trkpt>
      <trkpt lat="48.8026210" lon="13.7622910">
        <ele>864.4</ele>
        <time>2019-08-06T15:52:24Z</time>
      </trkpt>
      <trkpt lat="48.8026990" lon="13.7623030">
        <ele>864.4</ele>
        <time>2019-08-06T15:52:25Z</time>
      </trkpt>
      <trkpt lat="48.8027770" lon="13.7623120">
        <ele>864.2</ele>
        <time>2019-08-06T15:52:26Z</time>
      </trkpt>
      <trkpt lat="48.8028530" lon="13.7623180">
        <ele>864.2</ele>
        <time>2019-08-06T15:52:27Z</time>
      </trkpt>
      <trkpt lat="48.8029280" lon="13.7623260">
        <ele>864.0</ele>
        <time>2019-08-06T15:52:28Z</time>
      </trkpt>
      <trkpt lat="48.8030030" lon="13.7623340">
        <ele>864.0</ele>
        <time>2019-08-06T15:52:29Z</time>
      </trkpt>
      <trkpt lat="48.8030770" lon="13.7623430">
        <ele>863.8</ele>
        <time>2019-08-06T15:52:30Z</time>
      </trkpt>
      <trkpt lat="48.8031460" lon="13.7623510">
        <ele>863.6</ele>
        <time>2019-08-06T15:52:31Z</time>
      </trkpt>
      <trkpt lat="48.8032010" lon="13.7623570">
        <ele>863.6</ele>
        <time>2019-08-06T15:52:32Z</time>
      </trkpt>
      <trkpt lat="48.8032900" lon="13.7623600">
        <ele>863.4</ele>
        <time>2019-08-06T15:52:33Z</time>
      </trkpt>
      <trkpt lat="48.8033550" lon="13.7623550">
        <ele>863.4</ele>
        <time>2019-08-06T15:52:34Z</time>
      </trkpt>
      <trkpt lat="48.8034180" lon="13.7623570">
        <ele>863.2</ele>
        <time>2019-08-06T15:52:35Z</time>
      </trkpt>
      <trkpt lat="48.8034790" lon="13.7623590">
        <ele>863.0</ele>
        <time>2019-08-06T15:52:36Z</time>
      </trkpt>
      <trkpt lat="48.8035460" lon="13.7623630">
        <ele>862.8</ele>
        <time>2019-08-06T15:52:37Z</time>
      </trkpt>
      <trkpt lat="48.8036200" lon="13.7623700">
        <ele>862.8</ele>
        <time>2019-08-06T15:52:38Z</time>
      </trkpt>
      <trkpt lat="48.8036980" lon="13.7623770">
        <ele>862.6</ele>
        <time>2019-08-06T15:52:39Z</time>
      </trkpt>
      <trkpt lat="48.8037770" lon="13.7623870">
        <ele>862.6</ele>
        <time>2019-08-06T15:52:40Z</time>
      </trkpt>
      <trkpt lat="48.8038550" lon="13.7624020">
        <ele>862.4</ele>
        <time>2019-08-06T15:52:41Z</time>
      </trkpt>
      <trkpt lat="48.8039310" lon="13.7624160">
        <ele>862.4</ele>
        <time>2019-08-06T15:52:42Z</time>
      </trkpt>
      <trkpt lat="48.8040080" lon="13.7624260">
        <ele>862.2</ele>
        <time>2019-08-06T15:52:43Z</time>
      </trkpt>
      <trkpt lat="48.8040820" lon="13.7624340">
        <ele>862.2</ele>
        <time>2019-08-06T15:52:44Z</time>
      </trkpt>
      <trkpt lat="48.8041590" lon="13.7624420">
        <ele>862.0</ele>
        <time>2019-08-06T15:52:45Z</time>
      </trkpt>
      <trkpt lat="48.8042370" lon="13.7624500">
        <ele>862.0</ele>
        <time>2019-08-06T15:52:46Z</time>
      </trkpt>
      <trkpt lat="48.8043140" lon="13.7624570">
        <ele>861.8</ele>
        <time>2019-08-06T15:52:47Z</time>
      </trkpt>
      <trkpt lat="48.8043940" lon="13.7624680">
        <ele>861.8</ele>
        <time>2019-08-06T15:52:48Z</time>
      </trkpt>
      <trkpt lat="48.8044740" lon="13.7624810">
        <ele>861.8</ele>
        <time>2019-08-06T15:52:49Z</time>
      </trkpt>
      <trkpt lat="48.8045530" lon="13.7624970">
        <ele>861.6</ele>
        <time>2019-08-06T15:52:50Z</time>
      </trkpt>
      <trkpt lat="48.8046340" lon="13.7625130">
        <ele>861.4</ele>
        <time>2019-08-06T15:52:51Z</time>
      </trkpt>
      <trkpt lat="48.8047120" lon="13.7625240">
        <ele>861.4</ele>
        <time>2019-08-06T15:52:52Z</time>
      </trkpt>
      <trkpt lat="48.8047910" lon="13.7625360">
        <ele>861.4</ele>
        <time>2019-08-06T15:52:53Z</time>
      </trkpt>
      <trkpt lat="48.8048690" lon="13.7625500">
        <ele>861.4</ele>
        <time>2019-08-06T15:52:54Z</time>
      </trkpt>
      <trkpt lat="48.8049470" lon="13.7625620">
        <ele>861.4</ele>
        <time>2019-08-06T15:52:55Z</time>
      </trkpt>
      <trkpt lat="48.8050270" lon="13.7625730">
        <ele>861.2</ele>
        <time>2019-08-06T15:52:56Z</time>
      </trkpt>
      <trkpt lat="48.8051070" lon="13.7625880">
        <ele>861.2</ele>
        <time>2019-08-06T15:52:57Z</time>
      </trkpt>
      <trkpt lat="48.8051840" lon="13.7625990">
        <ele>861.0</ele>
        <time>2019-08-06T15:52:58Z</time>
      </trkpt>
      <trkpt lat="48.8052610" lon="13.7626090">
        <ele>860.8</ele>
        <time>2019-08-06T15:52:59Z</time>
      </trkpt>
      <trkpt lat="48.8053370" lon="13.7626180">
        <ele>860.8</ele>
        <time>2019-08-06T15:53:00Z</time>
      </trkpt>
      <trkpt lat="48.8054130" lon="13.7626280">
        <ele>860.8</ele>
        <time>2019-08-06T15:53:01Z</time>
      </trkpt>
      <trkpt lat="48.8054900" lon="13.7626410">
        <ele>860.6</ele>
        <time>2019-08-06T15:53:02Z</time>
      </trkpt>
      <trkpt lat="48.8055660" lon="13.7626570">
        <ele>860.4</ele>
        <time>2019-08-06T15:53:03Z</time>
      </trkpt>
      <trkpt lat="48.8056400" lon="13.7626770">
        <ele>860.4</ele>
        <time>2019-08-06T15:53:04Z</time>
      </trkpt>
      <trkpt lat="48.8057150" lon="13.7627020">
        <ele>860.2</ele>
        <time>2019-08-06T15:53:05Z</time>
      </trkpt>
      <trkpt lat="48.8057870" lon="13.7627290">
        <ele>860.2</ele>
        <time>2019-08-06T15:53:06Z</time>
      </trkpt>
      <trkpt lat="48.8058570" lon="13.7627590">
        <ele>860.0</ele>
        <time>2019-08-06T15:53:07Z</time>
      </trkpt>
      <trkpt lat="48.8059290" lon="13.7627960">
        <ele>860.0</ele>
        <time>2019-08-06T15:53:08Z</time>
      </trkpt>
      <trkpt lat="48.8059960" lon="13.7628370">
        <ele>859.8</ele>
        <time>2019-08-06T15:53:09Z</time>
      </trkpt>
      <trkpt lat="48.8060550" lon="13.7628780">
        <ele>859.8</ele>
        <time>2019-08-06T15:53:10Z</time>
      </trkpt>
      <trkpt lat="48.8061220" lon="13.7629300">
        <ele>859.6</ele>
        <time>2019-08-06T15:53:11Z</time>
      </trkpt>
      <trkpt lat="48.8061850" lon="13.7629870">
        <ele>859.4</ele>
        <time>2019-08-06T15:53:12Z</time>
      </trkpt>
      <trkpt lat="48.8062470" lon="13.7630450">
        <ele>859.4</ele>
        <time>2019-08-06T15:53:13Z</time>
      </trkpt>
      <trkpt lat="48.8063090" lon="13.7631070">
        <ele>859.2</ele>
        <time>2019-08-06T15:53:14Z</time>
      </trkpt>
      <trkpt lat="48.8063670" lon="13.7631750">
        <ele>859.0</ele>
        <time>2019-08-06T15:53:15Z</time>
      </trkpt>
      <trkpt lat="48.8064250" lon="13.7632470">
        <ele>859.0</ele>
        <time>2019-08-06T15:53:16Z</time>
      </trkpt>
      <trkpt lat="48.8064810" lon="13.7633210">
        <ele>858.8</ele>
        <time>2019-08-06T15:53:17Z</time>
      </trkpt>
      <trkpt lat="48.8065370" lon="13.7634010">
        <ele>858.8</ele>
        <time>2019-08-06T15:53:18Z</time>
      </trkpt>
      <trkpt lat="48.8065900" lon="13.7634840">
        <ele>858.6</ele>
        <time>2019-08-06T15:53:19Z</time>
      </trkpt>
      <trkpt lat="48.8066400" lon="13.7635700">
        <ele>858.6</ele>
        <time>2019-08-06T15:53:20Z</time>
      </trkpt>
      <trkpt lat="48.8066870" lon="13.7636570">
        <ele>858.4</ele>
        <time>2019-08-06T15:53:21Z</time>
      </trkpt>
      <trkpt lat="48.8067310" lon="13.7637470">
        <ele>858.4</ele>
        <time>2019-08-06T15:53:22Z</time>
      </trkpt>
      <trkpt lat="48.8067710" lon="13.7638370">
        <ele>858.2</ele>
        <time>2019-08-06T15:53:23Z</time>
      </trkpt>
      <trkpt lat="48.8068120" lon="13.7639350">
        <ele>858.2</ele>
        <time>2019-08-06T15:53:24Z</time>
      </trkpt>
      <trkpt lat="48.8068500" lon="13.7640310">
        <ele>858.0</ele>
        <time>2019-08-06T15:53:25Z</time>
      </trkpt>
      <trkpt lat="48.8068890" lon="13.7641280">
        <ele>858.0</ele>
        <time>2019-08-06T15:53:26Z</time>
      </trkpt>
      <trkpt lat="48.8069280" lon="13.7642260">
        <ele>857.8</ele>
        <time>2019-08-06T15:53:27Z</time>
      </trkpt>
      <trkpt lat="48.8069630" lon="13.7643250">
        <ele>857.6</ele>
        <time>2019-08-06T15:53:28Z</time>
      </trkpt>
      <trkpt lat="48.8069930" lon="13.7644250">
        <ele>857.6</ele>
        <time>2019-08-06T15:53:29Z</time>
      </trkpt>
      <trkpt lat="48.8070260" lon="13.7645270">
        <ele>857.4</ele>
        <time>2019-08-06T15:53:30Z</time>
      </trkpt>
      <trkpt lat="48.8070610" lon="13.7646270">
        <ele>857.4</ele>
        <time>2019-08-06T15:53:31Z</time>
      </trkpt>
      <trkpt lat="48.8070980" lon="13.7647250">
        <ele>857.2</ele>
        <time>2019-08-06T15:53:32Z</time>
      </trkpt>
      <trkpt lat="48.8071400" lon="13.7648260">
        <ele>857.2</ele>
        <time>2019-08-06T15:53:33Z</time>
      </trkpt>
      <trkpt lat="48.8071810" lon="13.7649220">
        <ele>857.2</ele>
        <time>2019-08-06T15:53:34Z</time>
      </trkpt>
      <trkpt lat="48.8072280" lon="13.7650140">
        <ele>857.0</ele>
        <time>2019-08-06T15:53:35Z</time>
      </trkpt>
      <trkpt lat="48.8072760" lon="13.7651070">
        <ele>856.8</ele>
        <time>2019-08-06T15:53:36Z</time>
      </trkpt>
      <trkpt lat="48.8073210" lon="13.7652000">
        <ele>856.8</ele>
        <time>2019-08-06T15:53:37Z</time>
      </trkpt>
      <trkpt lat="48.8073680" lon="13.7652900">
        <ele>856.8</ele>
        <time>2019-08-06T15:53:38Z</time>
      </trkpt>
      <trkpt lat="48.8074180" lon="13.7653840">
        <ele>856.6</ele>
        <time>2019-08-06T15:53:39Z</time>
      </trkpt>
      <trkpt lat="48.8074700" lon="13.7654800">
        <ele>856.6</ele>
        <time>2019-08-06T15:53:40Z</time>
      </trkpt>
      <trkpt lat="48.8075210" lon="13.7655700">
        <ele>856.6</ele>
        <time>2019-08-06T15:53:41Z</time>
      </trkpt>
      <trkpt lat="48.8075740" lon="13.7656530">
        <ele>856.4</ele>
        <time>2019-08-06T15:53:42Z</time>
      </trkpt>
      <trkpt lat="48.8076290" lon="13.7657290">
        <ele>856.2</ele>
        <time>2019-08-06T15:53:43Z</time>
      </trkpt>
      <trkpt lat="48.8076850" lon="13.7658050">
        <ele>856.2</ele>
        <time>2019-08-06T15:53:44Z</time>
      </trkpt>
      <trkpt lat="48.8077440" lon="13.7658770">
        <ele>856.0</ele>
        <time>2019-08-06T15:53:45Z</time>
      </trkpt>
      <trkpt lat="48.8078050" lon="13.7659490">
        <ele>856.0</ele>
        <time>2019-08-06T15:53:46Z</time>
      </trkpt>
      <trkpt lat="48.8078670" lon="13.7660170">
        <ele>855.8</ele>
        <time>2019-08-06T15:53:47Z</time>
      </trkpt>
      <trkpt lat="48.8079270" lon="13.7660790">
        <ele>855.8</ele>
        <time>2019-08-06T15:53:48Z</time>
      </trkpt>
      <trkpt lat="48.8079900" lon="13.7661440">
        <ele>855.6</ele>
        <time>2019-08-06T15:53:49Z</time>
      </trkpt>
      <trkpt lat="48.8080570" lon="13.7662090">
        <ele>855.6</ele>
        <time>2019-08-06T15:53:50Z</time>
      </trkpt>
      <trkpt lat="48.8081240" lon="13.7662690">
        <ele>855.4</ele>
        <time>2019-08-06T15:53:51Z</time>
      </trkpt>
      <trkpt lat="48.8081940" lon="13.7663260">
        <ele>855.2</ele>
        <time>2019-08-06T15:53:52Z</time>
      </trkpt>
      <trkpt lat="48.8082630" lon="13.7663770">
        <ele>855.2</ele>
        <time>2019-08-06T15:53:53Z</time>
      </trkpt>
      <trkpt lat="48.8083350" lon="13.7664230">
        <ele>855.0</ele>
        <time>2019-08-06T15:53:54Z</time>
      </trkpt>
      <trkpt lat="48.8084100" lon="13.7664650">
        <ele>854.8</ele>
        <time>2019-08-06T15:53:55Z</time>
      </trkpt>
      <trkpt lat="48.8084880" lon="13.7665030">
        <ele>854.8</ele>
        <time>2019-08-06T15:53:56Z</time>
      </trkpt>
      <trkpt lat="48.8085650" lon="13.7665360">
        <ele>854.8</ele>
        <time>2019-08-06T15:53:57Z</time>
      </trkpt>
      <trkpt lat="48.8086420" lon="13.7665660">
        <ele>854.8</ele>
        <time>2019-08-06T15:53:58Z</time>
      </trkpt>
      <trkpt lat="48.8087200" lon="13.7665910">
        <ele>854.8</ele>
        <time>2019-08-06T15:53:59Z</time>
      </trkpt>
      <trkpt lat="48.8087950" lon="13.7666100">
        <ele>854.6</ele>
        <time>2019-08-06T15:54:00Z</time>
      </trkpt>
      <trkpt lat="48.8088730" lon="13.7666220">
        <ele>854.4</ele>
        <time>2019-08-06T15:54:01Z</time>
      </trkpt>
      <trkpt lat="48.8089500" lon="13.7666270">
        <ele>854.4</ele>
        <time>2019-08-06T15:54:02Z</time>
      </trkpt>
      <trkpt lat="48.8090270" lon="13.7666270">
        <ele>854.2</ele>
        <time>2019-08-06T15:54:03Z</time>
      </trkpt>
      <trkpt lat="48.8091040" lon="13.7666220">
        <ele>854.0</ele>
        <time>2019-08-06T15:54:04Z</time>
      </trkpt>
      <trkpt lat="48.8091810" lon="13.7666120">
        <ele>853.8</ele>
        <time>2019-08-06T15:54:05Z</time>
      </trkpt>
      <trkpt lat="48.8092550" lon="13.7665980">
        <ele>853.6</ele>
        <time>2019-08-06T15:54:06Z</time>
      </trkpt>
      <trkpt lat="48.8093320" lon="13.7665780">
        <ele>853.6</ele>
        <time>2019-08-06T15:54:07Z</time>
      </trkpt>
      <trkpt lat="48.8094050" lon="13.7665560">
        <ele>853.6</ele>
        <time>2019-08-06T15:54:08Z</time>
      </trkpt>
      <trkpt lat="48.8094770" lon="13.7665280">
        <ele>853.4</ele>
        <time>2019-08-06T15:54:09Z</time>
      </trkpt>
      <trkpt lat="48.8095500" lon="13.7664950">
        <ele>853.4</ele>
        <time>2019-08-06T15:54:10Z</time>
      </trkpt>
      <trkpt lat="48.8096210" lon="13.7664570">
        <ele>853.2</ele>
        <time>2019-08-06T15:54:11Z</time>
      </trkpt>
      <trkpt lat="48.8096910" lon="13.7664150">
        <ele>853.2</ele>
        <time>2019-08-06T15:54:12Z</time>
      </trkpt>
      <trkpt lat="48.8097640" lon="13.7663660">
        <ele>853.0</ele>
        <time>2019-08-06T15:54:13Z</time>
      </trkpt>
      <trkpt lat="48.8098350" lon="13.7663150">
        <ele>853.0</ele>
        <time>2019-08-06T15:54:14Z</time>
      </trkpt>
      <trkpt lat="48.8099030" lon="13.7662600">
        <ele>852.8</ele>
        <time>2019-08-06T15:54:15Z</time>
      </trkpt>
      <trkpt lat="48.8099690" lon="13.7662020">
        <ele>852.8</ele>
        <time>2019-08-06T15:54:16Z</time>
      </trkpt>
      <trkpt lat="48.8100340" lon="13.7661410">
        <ele>852.6</ele>
        <time>2019-08-06T15:54:17Z</time>
      </trkpt>
      <trkpt lat="48.8100960" lon="13.7660740">
        <ele>852.6</ele>
        <time>2019-08-06T15:54:18Z</time>
      </trkpt>
      <trkpt lat="48.8101560" lon="13.7660030">
        <ele>852.4</ele>
        <time>2019-08-06T15:54:19Z</time>
      </trkpt>
      <trkpt lat="48.8102150" lon="13.7659290">
        <ele>852.4</ele>
        <time>2019-08-06T15:54:20Z</time>
      </trkpt>
      <trkpt lat="48.8102700" lon="13.7658500">
        <ele>852.4</ele>
        <time>2019-08-06T15:54:21Z</time>
      </trkpt>
      <trkpt lat="48.8103250" lon="13.7657710">
        <ele>852.2</ele>
        <time>2019-08-06T15:54:22Z</time>
      </trkpt>
      <trkpt lat="48.8103810" lon="13.7656920">
        <ele>852.2</ele>
        <time>2019-08-06T15:54:23Z</time>
      </trkpt>
      <trkpt lat="48.8104380" lon="13.7656150">
        <ele>852.2</ele>
        <time>2019-08-06T15:54:24Z</time>
      </trkpt>
      <trkpt lat="48.8104960" lon="13.7655350">
        <ele>852.2</ele>
        <time>2019-08-06T15:54:25Z</time>
      </trkpt>
      <trkpt lat="48.8105540" lon="13.7654560">
        <ele>852.0</ele>
        <time>2019-08-06T15:54:26Z</time>
      </trkpt>
      <trkpt lat="48.8106120" lon="13.7653820">
        <ele>852.0</ele>
        <time>2019-08-06T15:54:27Z</time>
      </trkpt>
      <trkpt lat="48.8106730" lon="13.7653130">
        <ele>852.0</ele>
        <time>2019-08-06T15:54:28Z</time>
      </trkpt>
      <trkpt lat="48.8107350" lon="13.7652490">
        <ele>852.0</ele>
        <time>2019-08-06T15:54:29Z</time>
      </trkpt>
      <trkpt lat="48.8107990" lon="13.7651880">
        <ele>851.8</ele>
        <time>2019-08-06T15:54:30Z</time>
      </trkpt>
      <trkpt lat="48.8108660" lon="13.7651310">
        <ele>851.8</ele>
        <time>2019-08-06T15:54:31Z</time>
      </trkpt>
      <trkpt lat="48.8109350" lon="13.7650760">
        <ele>851.6</ele>
        <time>2019-08-06T15:54:32Z</time>
      </trkpt>
      <trkpt lat="48.8110020" lon="13.7650230">
        <ele>851.6</ele>
        <time>2019-08-06T15:54:33Z</time>
      </trkpt>
      <trkpt lat="48.8110700" lon="13.7649730">
        <ele>851.4</ele>
        <time>2019-08-06T15:54:34Z</time>
      </trkpt>
      <trkpt lat="48.8111390" lon="13.7649280">
        <ele>851.2</ele>
        <time>2019-08-06T15:54:35Z</time>
      </trkpt>
      <trkpt lat="48.8112120" lon="13.7648900">
        <ele>851.0</ele>
        <time>2019-08-06T15:54:36Z</time>
      </trkpt>
      <trkpt lat="48.8112820" lon="13.7648550">
        <ele>850.8</ele>
        <time>2019-08-06T15:54:37Z</time>
      </trkpt>
      <trkpt lat="48.8113490" lon="13.7648270">
        <ele>850.8</ele>
        <time>2019-08-06T15:54:38Z</time>
      </trkpt>
      <trkpt lat="48.8114190" lon="13.7648030">
        <ele>850.6</ele>
        <time>2019-08-06T15:54:39Z</time>
      </trkpt>
      <trkpt lat="48.8114930" lon="13.7647840">
        <ele>850.6</ele>
        <time>2019-08-06T15:54:40Z</time>
      </trkpt>
      <trkpt lat="48.8115690" lon="13.7647660">
        <ele>850.4</ele>
        <time>2019-08-06T15:54:41Z</time>
      </trkpt>
      <trkpt lat="48.8116480" lon="13.7647540">
        <ele>850.2</ele>
        <time>2019-08-06T15:54:42Z</time>
      </trkpt>
      <trkpt lat="48.8117330" lon="13.7647530">
        <ele>850.2</ele>
        <time>2019-08-06T15:54:43Z</time>
      </trkpt>
      <trkpt lat="48.8118150" lon="13.7647580">
        <ele>850.0</ele>
        <time>2019-08-06T15:54:44Z</time>
      </trkpt>
      <trkpt lat="48.8118960" lon="13.7647650">
        <ele>850.0</ele>
        <time>2019-08-06T15:54:45Z</time>
      </trkpt>
      <trkpt lat="48.8119840" lon="13.7647830">
        <ele>849.8</ele>
        <time>2019-08-06T15:54:46Z</time>
      </trkpt>
      <trkpt lat="48.8121010" lon="13.7648330">
        <ele>849.8</ele>
        <time>2019-08-06T15:54:47Z</time>
      </trkpt>
      <trkpt lat="48.8122180" lon="13.7648830">
        <ele>849.6</ele>
        <time>2019-08-06T15:54:48Z</time>
      </trkpt>
      <trkpt lat="48.8122850" lon="13.7649070">
        <ele>849.6</ele>
        <time>2019-08-06T15:54:49Z</time>
      </trkpt>
      <trkpt lat="48.8123420" lon="13.7649280">
        <ele>849.6</ele>
        <time>2019-08-06T15:54:50Z</time>
      </trkpt>
      <trkpt lat="48.8124100" lon="13.7649430">
        <ele>849.4</ele>
        <time>2019-08-06T15:54:51Z</time>
      </trkpt>
      <trkpt lat="48.8124860" lon="13.7649670">
        <ele>849.2</ele>
        <time>2019-08-06T15:54:52Z</time>
      </trkpt>
      <trkpt lat="48.8125560" lon="13.7649910">
        <ele>849.0</ele>
        <time>2019-08-06T15:54:53Z</time>
      </trkpt>
      <trkpt lat="48.8126270" lon="13.7650170">
        <ele>849.0</ele>
        <time>2019-08-06T15:54:54Z</time>
      </trkpt>
      <trkpt lat="48.8126980" lon="13.7650480">
        <ele>849.0</ele>
        <time>2019-08-06T15:54:55Z</time>
      </trkpt>
      <trkpt lat="48.8127680" lon="13.7650820">
        <ele>848.8</ele>
        <time>2019-08-06T15:54:56Z</time>
      </trkpt>
      <trkpt lat="48.8128360" lon="13.7651170">
        <ele>848.8</ele>
        <time>2019-08-06T15:54:57Z</time>
      </trkpt>
      <trkpt lat="48.8129070" lon="13.7651570">
        <ele>848.6</ele>
        <time>2019-08-06T15:54:58Z</time>
      </trkpt>
      <trkpt lat="48.8129810" lon="13.7651970">
        <ele>848.6</ele>
        <time>2019-08-06T15:54:59Z</time>
      </trkpt>
      <trkpt lat="48.8130550" lon="13.7652310">
        <ele>848.4</ele>
        <time>2019-08-06T15:55:00Z</time>
      </trkpt>
      <trkpt lat="48.8131250" lon="13.7652640">
        <ele>848.4</ele>
        <time>2019-08-06T15:55:01Z</time>
      </trkpt>
      <trkpt lat="48.8131920" lon="13.7653010">
        <ele>848.2</ele>
        <time>2019-08-06T15:55:02Z</time>
      </trkpt>
      <trkpt lat="48.8132590" lon="13.7653390">
        <ele>848.0</ele>
        <time>2019-08-06T15:55:03Z</time>
      </trkpt>
      <trkpt lat="48.8133280" lon="13.7653760">
        <ele>847.8</ele>
        <time>2019-08-06T15:55:04Z</time>
      </trkpt>
      <trkpt lat="48.8133950" lon="13.7654100">
        <ele>847.8</ele>
        <time>2019-08-06T15:55:05Z</time>
      </trkpt>
      <trkpt lat="48.8134650" lon="13.7654450">
        <ele>847.6</ele>
        <time>2019-08-06T15:55:06Z</time>
      </trkpt>
      <trkpt lat="48.8135410" lon="13.7654860">
        <ele>847.4</ele>
        <time>2019-08-06T15:55:07Z</time>
      </trkpt>
      <trkpt lat="48.8136160" lon="13.7655350">
        <ele>847.2</ele>
        <time>2019-08-06T15:55:08Z</time>
      </trkpt>
      <trkpt lat="48.8136910" lon="13.7655830">
        <ele>847.0</ele>
        <time>2019-08-06T15:55:09Z</time>
      </trkpt>
      <trkpt lat="48.8137650" lon="13.7656330">
        <ele>846.8</ele>
        <time>2019-08-06T15:55:10Z</time>
      </trkpt>
      <trkpt lat="48.8138410" lon="13.7656830">
        <ele>846.6</ele>
        <time>2019-08-06T15:55:11Z</time>
      </trkpt>
      <trkpt lat="48.8139170" lon="13.7657320">
        <ele>846.4</ele>
        <time>2019-08-06T15:55:12Z</time>
      </trkpt>
      <trkpt lat="48.8139910" lon="13.7657820">
        <ele>846.4</ele>
        <time>2019-08-06T15:55:13Z</time>
      </trkpt>
      <trkpt lat="48.8140660" lon="13.7658330">
        <ele>846.2</ele>
        <time>2019-08-06T15:55:14Z</time>
      </trkpt>
      <trkpt lat="48.8141380" lon="13.7658790">
        <ele>846.0</ele>
        <time>2019-08-06T15:55:15Z</time>
      </trkpt>
      <trkpt lat="48.8142070" lon="13.7659220">
        <ele>846.0</ele>
        <time>2019-08-06T15:55:16Z</time>
      </trkpt>
      <trkpt lat="48.8142740" lon="13.7659650">
        <ele>845.8</ele>
        <time>2019-08-06T15:55:17Z</time>
      </trkpt>
      <trkpt lat="48.8143420" lon="13.7660090">
        <ele>845.8</ele>
        <time>2019-08-06T15:55:18Z</time>
      </trkpt>
      <trkpt lat="48.8144070" lon="13.7660490">
        <ele>845.6</ele>
        <time>2019-08-06T15:55:19Z</time>
      </trkpt>
      <trkpt lat="48.8144680" lon="13.7660920">
        <ele>845.6</ele>
        <time>2019-08-06T15:55:20Z</time>
      </trkpt>
      <trkpt lat="48.8145270" lon="13.7661370">
        <ele>845.4</ele>
        <time>2019-08-06T15:55:21Z</time>
      </trkpt>
      <trkpt lat="48.8145850" lon="13.7661820">
        <ele>845.4</ele>
        <time>2019-08-06T15:55:22Z</time>
      </trkpt>
      <trkpt lat="48.8146450" lon="13.7662260">
        <ele>845.2</ele>
        <time>2019-08-06T15:55:23Z</time>
      </trkpt>
      <trkpt lat="48.8147030" lon="13.7662630">
        <ele>845.0</ele>
        <time>2019-08-06T15:55:24Z</time>
      </trkpt>
      <trkpt lat="48.8147600" lon="13.7663000">
        <ele>845.0</ele>
        <time>2019-08-06T15:55:25Z</time>
      </trkpt>
      <trkpt lat="48.8148200" lon="13.7663370">
        <ele>844.8</ele>
        <time>2019-08-06T15:55:26Z</time>
      </trkpt>
      <trkpt lat="48.8148790" lon="13.7663700">
        <ele>844.8</ele>
        <time>2019-08-06T15:55:27Z</time>
      </trkpt>
      <trkpt lat="48.8149410" lon="13.7664060">
        <ele>844.6</ele>
        <time>2019-08-06T15:55:28Z</time>
      </trkpt>
      <trkpt lat="48.8149980" lon="13.7664410">
        <ele>844.6</ele>
        <time>2019-08-06T15:55:29Z</time>
      </trkpt>
      <trkpt lat="48.8150550" lon="13.7664780">
        <ele>844.4</ele>
        <time>2019-08-06T15:55:30Z</time>
      </trkpt>
      <trkpt lat="48.8151150" lon="13.7665180">
        <ele>844.2</ele>
        <time>2019-08-06T15:55:31Z</time>
      </trkpt>
      <trkpt lat="48.8151740" lon="13.7665570">
        <ele>844.2</ele>
        <time>2019-08-06T15:55:32Z</time>
      </trkpt>
      <trkpt lat="48.8152320" lon="13.7665960">
        <ele>844.0</ele>
        <time>2019-08-06T15:55:33Z</time>
      </trkpt>
      <trkpt lat="48.8152900" lon="13.7666350">
        <ele>844.0</ele>
        <time>2019-08-06T15:55:34Z</time>
      </trkpt>
      <trkpt lat="48.8153490" lon="13.7666740">
        <ele>844.0</ele>
        <time>2019-08-06T15:55:35Z</time>
      </trkpt>
      <trkpt lat="48.8154050" lon="13.7667100">
        <ele>843.8</ele>
        <time>2019-08-06T15:55:36Z</time>
      </trkpt>
      <trkpt lat="48.8154600" lon="13.7667420">
        <ele>843.8</ele>
        <time>2019-08-06T15:55:37Z</time>
      </trkpt>
      <trkpt lat="48.8155150" lon="13.7667710">
        <ele>843.6</ele>
        <time>2019-08-06T15:55:38Z</time>
      </trkpt>
      <trkpt lat="48.8155700" lon="13.7667990">
        <ele>843.6</ele>
        <time>2019-08-06T15:55:39Z</time>
      </trkpt>
      <trkpt lat="48.8156240" lon="13.7668280">
        <ele>843.4</ele>
        <time>2019-08-06T15:55:40Z</time>
      </trkpt>
      <trkpt lat="48.8156770" lon="13.7668600">
        <ele>843.2</ele>
        <time>2019-08-06T15:55:41Z</time>
      </trkpt>
      <trkpt lat="48.8157310" lon="13.7668920">
        <ele>843.0</ele>
        <time>2019-08-06T15:55:42Z</time>
      </trkpt>
      <trkpt lat="48.8157860" lon="13.7669260">
        <ele>843.0</ele>
        <time>2019-08-06T15:55:43Z</time>
      </trkpt>
      <trkpt lat="48.8158420" lon="13.7669580">
        <ele>842.8</ele>
        <time>2019-08-06T15:55:44Z</time>
      </trkpt>
      <trkpt lat="48.8159010" lon="13.7669920">
        <ele>842.6</ele>
        <time>2019-08-06T15:55:45Z</time>
      </trkpt>
      <trkpt lat="48.8159610" lon="13.7670260">
        <ele>842.6</ele>
        <time>2019-08-06T15:55:46Z</time>
      </trkpt>
      <trkpt lat="48.8160250" lon="13.7670610">
        <ele>842.4</ele>
        <time>2019-08-06T15:55:47Z</time>
      </trkpt>
      <trkpt lat="48.8160890" lon="13.7670990">
        <ele>842.4</ele>
        <time>2019-08-06T15:55:48Z</time>
      </trkpt>
      <trkpt lat="48.8161520" lon="13.7671370">
        <ele>842.4</ele>
        <time>2019-08-06T15:55:49Z</time>
      </trkpt>
      <trkpt lat="48.8162170" lon="13.7671750">
        <ele>842.4</ele>
        <time>2019-08-06T15:55:50Z</time>
      </trkpt>
      <trkpt lat="48.8162830" lon="13.7672110">
        <ele>842.2</ele>
        <time>2019-08-06T15:55:51Z</time>
      </trkpt>
      <trkpt lat="48.8163520" lon="13.7672470">
        <ele>842.2</ele>
        <time>2019-08-06T15:55:52Z</time>
      </trkpt>
      <trkpt lat="48.8164200" lon="13.7672800">
        <ele>842.2</ele>
        <time>2019-08-06T15:55:53Z</time>
      </trkpt>
      <trkpt lat="48.8164880" lon="13.7673110">
        <ele>842.0</ele>
        <time>2019-08-06T15:55:54Z</time>
      </trkpt>
      <trkpt lat="48.8165580" lon="13.7673410">
        <ele>842.0</ele>
        <time>2019-08-06T15:55:55Z</time>
      </trkpt>
      <trkpt lat="48.8166270" lon="13.7673680">
        <ele>842.0</ele>
        <time>2019-08-06T15:55:56Z</time>
      </trkpt>
      <trkpt lat="48.8166970" lon="13.7673920">
        <ele>842.0</ele>
        <time>2019-08-06T15:55:57Z</time>
      </trkpt>
      <trkpt lat="48.8167660" lon="13.7674150">
        <ele>841.8</ele>
        <time>2019-08-06T15:55:58Z</time>
      </trkpt>
      <trkpt lat="48.8168350" lon="13.7674330">
        <ele>841.8</ele>
        <time>2019-08-06T15:55:59Z</time>
      </trkpt>
      <trkpt lat="48.8169040" lon="13.7674490">
        <ele>841.6</ele>
        <time>2019-08-06T15:56:00Z</time>
      </trkpt>
      <trkpt lat="48.8169730" lon="13.7674660">
        <ele>841.6</ele>
        <time>2019-08-06T15:56:01Z</time>
      </trkpt>
      <trkpt lat="48.8170430" lon="13.7674800">
        <ele>841.6</ele>
        <time>2019-08-06T15:56:02Z</time>
      </trkpt>
      <trkpt lat="48.8171160" lon="13.7674940">
        <ele>841.4</ele>
        <time>2019-08-06T15:56:03Z</time>
      </trkpt>
      <trkpt lat="48.8171870" lon="13.7675050">
        <ele>841.2</ele>
        <time>2019-08-06T15:56:04Z</time>
      </trkpt>
      <trkpt lat="48.8172580" lon="13.7675130">
        <ele>841.2</ele>
        <time>2019-08-06T15:56:05Z</time>
      </trkpt>
      <trkpt lat="48.8173300" lon="13.7675220">
        <ele>841.2</ele>
        <time>2019-08-06T15:56:06Z</time>
      </trkpt>
      <trkpt lat="48.8174010" lon="13.7675320">
        <ele>841.0</ele>
        <time>2019-08-06T15:56:07Z</time>
      </trkpt>
      <trkpt lat="48.8174720" lon="13.7675420">
        <ele>841.0</ele>
        <time>2019-08-06T15:56:08Z</time>
      </trkpt>
      <trkpt lat="48.8175450" lon="13.7675510">
        <ele>840.8</ele>
        <time>2019-08-06T15:56:09Z</time>
      </trkpt>
      <trkpt lat="48.8176170" lon="13.7675590">
        <ele>840.6</ele>
        <time>2019-08-06T15:56:10Z</time>
      </trkpt>
      <trkpt lat="48.8176900" lon="13.7675690">
        <ele>840.6</ele>
        <time>2019-08-06T15:56:11Z</time>
      </trkpt>
      <trkpt lat="48.8177610" lon="13.7675790">
        <ele>840.6</ele>
        <time>2019-08-06T15:56:12Z</time>
      </trkpt>
      <trkpt lat="48.8178360" lon="13.7675890">
        <ele>840.4</ele>
        <time>2019-08-06T15:56:13Z</time>
      </trkpt>
      <trkpt lat="48.8179110" lon="13.7675970">
        <ele>840.4</ele>
        <time>2019-08-06T15:56:14Z</time>
      </trkpt>
      <trkpt lat="48.8179830" lon="13.7676070">
        <ele>840.2</ele>
        <time>2019-08-06T15:56:15Z</time>
      </trkpt>
      <trkpt lat="48.8180560" lon="13.7676170">
        <ele>840.0</ele>
        <time>2019-08-06T15:56:16Z</time>
      </trkpt>
      <trkpt lat="48.8181280" lon="13.7676260">
        <ele>840.0</ele>
        <time>2019-08-06T15:56:17Z</time>
      </trkpt>
      <trkpt lat="48.8182010" lon="13.7676340">
        <ele>840.0</ele>
        <time>2019-08-06T15:56:18Z</time>
      </trkpt>
      <trkpt lat="48.8182740" lon="13.7676420">
        <ele>840.0</ele>
        <time>2019-08-06T15:56:19Z</time>
      </trkpt>
      <trkpt lat="48.8183470" lon="13.7676500">
        <ele>839.8</ele>
        <time>2019-08-06T15:56:20Z</time>
      </trkpt>
      <trkpt lat="48.8184220" lon="13.7676580">
        <ele>839.8</ele>
        <time>2019-08-06T15:56:21Z</time>
      </trkpt>
      <trkpt lat="48.8184970" lon="13.7676670">
        <ele>839.6</ele>
        <time>2019-08-06T15:56:22Z</time>
      </trkpt>
      <trkpt lat="48.8185710" lon="13.7676760">
        <ele>839.6</ele>
        <time>2019-08-06T15:56:23Z</time>
      </trkpt>
      <trkpt lat="48.8186440" lon="13.7676840">
        <ele>839.4</ele>
        <time>2019-08-06T15:56:24Z</time>
      </trkpt>
      <trkpt lat="48.8187180" lon="13.7676910">
        <ele>839.4</ele>
        <time>2019-08-06T15:56:25Z</time>
      </trkpt>
      <trkpt lat="48.8187910" lon="13.7676990">
        <ele>839.2</ele>
        <time>2019-08-06T15:56:26Z</time>
      </trkpt>
      <trkpt lat="48.8188660" lon="13.7677060">
        <ele>839.0</ele>
        <time>2019-08-06T15:56:27Z</time>
      </trkpt>
      <trkpt lat="48.8189400" lon="13.7677140">
        <ele>839.0</ele>
        <time>2019-08-06T15:56:28Z</time>
      </trkpt>
      <trkpt lat="48.8190130" lon="13.7677230">
        <ele>838.6</ele>
        <time>2019-08-06T15:56:29Z</time>
      </trkpt>
      <trkpt lat="48.8190870" lon="13.7677320">
        <ele>838.4</ele>
        <time>2019-08-06T15:56:30Z</time>
      </trkpt>
      <trkpt lat="48.8191600" lon="13.7677420">
        <ele>838.2</ele>
        <time>2019-08-06T15:56:31Z</time>
      </trkpt>
      <trkpt lat="48.8192330" lon="13.7677520">
        <ele>838.0</ele>
        <time>2019-08-06T15:56:32Z</time>
      </trkpt>
      <trkpt lat="48.8193060" lon="13.7677630">
        <ele>838.0</ele>
        <time>2019-08-06T15:56:33Z</time>
      </trkpt>
      <trkpt lat="48.8193790" lon="13.7677740">
        <ele>837.8</ele>
        <time>2019-08-06T15:56:34Z</time>
      </trkpt>
      <trkpt lat="48.8194520" lon="13.7677860">
        <ele>837.6</ele>
        <time>2019-08-06T15:56:35Z</time>
      </trkpt>
      <trkpt lat="48.8195250" lon="13.7678000">
        <ele>837.6</ele>
        <time>2019-08-06T15:56:36Z</time>
      </trkpt>
      <trkpt lat="48.8196000" lon="13.7678180">
        <ele>837.4</ele>
        <time>2019-08-06T15:56:37Z</time>
      </trkpt>
      <trkpt lat="48.8196760" lon="13.7678380">
        <ele>837.2</ele>
        <time>2019-08-06T15:56:38Z</time>
      </trkpt>
      <trkpt lat="48.8197490" lon="13.7678590">
        <ele>837.0</ele>
        <time>2019-08-06T15:56:39Z</time>
      </trkpt>
      <trkpt lat="48.8198210" lon="13.7678850">
        <ele>837.0</ele>
        <time>2019-08-06T15:56:40Z</time>
      </trkpt>
      <trkpt lat="48.8198910" lon="13.7679140">
        <ele>837.0</ele>
        <time>2019-08-06T15:56:41Z</time>
      </trkpt>
      <trkpt lat="48.8199580" lon="13.7679430">
        <ele>836.8</ele>
        <time>2019-08-06T15:56:42Z</time>
      </trkpt>
      <trkpt lat="48.8200270" lon="13.7679810">
        <ele>836.6</ele>
        <time>2019-08-06T15:56:43Z</time>
      </trkpt>
      <trkpt lat="48.8200970" lon="13.7680250">
        <ele>836.6</ele>
        <time>2019-08-06T15:56:44Z</time>
      </trkpt>
      <trkpt lat="48.8201660" lon="13.7680760">
        <ele>836.6</ele>
        <time>2019-08-06T15:56:45Z</time>
      </trkpt>
      <trkpt lat="48.8202330" lon="13.7681290">
        <ele>836.4</ele>
        <time>2019-08-06T15:56:46Z</time>
      </trkpt>
      <trkpt lat="48.8203010" lon="13.7681870">
        <ele>836.4</ele>
        <time>2019-08-06T15:56:47Z</time>
      </trkpt>
      <trkpt lat="48.8203700" lon="13.7682480">
        <ele>836.2</ele>
        <time>2019-08-06T15:56:48Z</time>
      </trkpt>
      <trkpt lat="48.8204380" lon="13.7683130">
        <ele>836.2</ele>
        <time>2019-08-06T15:56:49Z</time>
      </trkpt>
      <trkpt lat="48.8205020" lon="13.7683820">
        <ele>836.2</ele>
        <time>2019-08-06T15:56:50Z</time>
      </trkpt>
      <trkpt lat="48.8205650" lon="13.7684550">
        <ele>836.2</ele>
        <time>2019-08-06T15:56:51Z</time>
      </trkpt>
      <trkpt lat="48.8206290" lon="13.7685320">
        <ele>836.0</ele>
        <time>2019-08-06T15:56:52Z</time>
      </trkpt>
      <trkpt lat="48.8206890" lon="13.7686130">
        <ele>835.8</ele>
        <time>2019-08-06T15:56:53Z</time>
      </trkpt>
      <trkpt lat="48.8207470" lon="13.7686950">
        <ele>835.6</ele>
        <time>2019-08-06T15:56:54Z</time>
      </trkpt>
      <trkpt lat="48.8208030" lon="13.7687800">
        <ele>835.4</ele>
        <time>2019-08-06T15:56:55Z</time>
      </trkpt>
      <trkpt lat="48.8208570" lon="13.7688670">
        <ele>835.2</ele>
        <time>2019-08-06T15:56:56Z</time>
      </trkpt>
      <trkpt lat="48.8209090" lon="13.7689550">
        <ele>835.0</ele>
        <time>2019-08-06T15:56:57Z</time>
      </trkpt>
      <trkpt lat="48.8209600" lon="13.7690450">
        <ele>834.8</ele>
        <time>2019-08-06T15:56:58Z</time>
      </trkpt>
      <trkpt lat="48.8210080" lon="13.7691360">
        <ele>834.8</ele>
        <time>2019-08-06T15:56:59Z</time>
      </trkpt>
      <trkpt lat="48.8210550" lon="13.7692270">
        <ele>834.6</ele>
        <time>2019-08-06T15:57:00Z</time>
      </trkpt>
      <trkpt lat="48.8211020" lon="13.7693180">
        <ele>834.6</ele>
        <time>2019-08-06T15:57:01Z</time>
      </trkpt>
      <trkpt lat="48.8211470" lon="13.7694090">
        <ele>834.6</ele>
        <time>2019-08-06T15:57:02Z</time>
      </trkpt>
      <trkpt lat="48.8211870" lon="13.7695020">
        <ele>834.6</ele>
        <time>2019-08-06T15:57:03Z</time>
      </trkpt>
      <trkpt lat="48.8212240" lon="13.7695990">
        <ele>834.6</ele>
        <time>2019-08-06T15:57:04Z</time>
      </trkpt>
      <trkpt lat="48.8212590" lon="13.7696980">
        <ele>834.4</ele>
        <time>2019-08-06T15:57:05Z</time>
      </trkpt>
      <trkpt lat="48.8212950" lon="13.7698000">
        <ele>834.2</ele>
        <time>2019-08-06T15:57:06Z</time>
      </trkpt>
      <trkpt lat="48.8213330" lon="13.7699030">
        <ele>834.2</ele>
        <time>2019-08-06T15:57:07Z</time>
      </trkpt>
      <trkpt lat="48.8213730" lon="13.7700040">
        <ele>834.0</ele>
        <time>2019-08-06T15:57:08Z</time>
      </trkpt>
      <trkpt lat="48.8214130" lon="13.7701030">
        <ele>834.0</ele>
        <time>2019-08-06T15:57:09Z</time>
      </trkpt>
      <trkpt lat="48.8214500" lon="13.7702040">
        <ele>833.8</ele>
        <time>2019-08-06T15:57:10Z</time>
      </trkpt>
      <trkpt lat="48.8214860" lon="13.7703060">
        <ele>833.8</ele>
        <time>2019-08-06T15:57:11Z</time>
      </trkpt>
      <trkpt lat="48.8215250" lon="13.7704040">
        <ele>833.6</ele>
        <time>2019-08-06T15:57:12Z</time>
      </trkpt>
      <trkpt lat="48.8215660" lon="13.7705020">
        <ele>833.6</ele>
        <time>2019-08-06T15:57:13Z</time>
      </trkpt>
      <trkpt lat="48.8216060" lon="13.7706010">
        <ele>833.6</ele>
        <time>2019-08-06T15:57:14Z</time>
      </trkpt>
      <trkpt lat="48.8216460" lon="13.7706980">
        <ele>833.6</ele>
        <time>2019-08-06T15:57:15Z</time>
      </trkpt>
      <trkpt lat="48.8216880" lon="13.7707960">
        <ele>833.6</ele>
        <time>2019-08-06T15:57:16Z</time>
      </trkpt>
      <trkpt lat="48.8217270" lon="13.7708940">
        <ele>833.6</ele>
        <time>2019-08-06T15:57:17Z</time>
      </trkpt>
      <trkpt lat="48.8217660" lon="13.7709900">
        <ele>833.8</ele>
        <time>2019-08-06T15:57:18Z</time>
      </trkpt>
      <trkpt lat="48.8218050" lon="13.7710870">
        <ele>833.6</ele>
        <time>2019-08-06T15:57:19Z</time>
      </trkpt>
      <trkpt lat="48.8218440" lon="13.7711850">
        <ele>833.2</ele>
        <time>2019-08-06T15:57:20Z</time>
      </trkpt>
      <trkpt lat="48.8218820" lon="13.7712820">
        <ele>833.0</ele>
        <time>2019-08-06T15:57:21Z</time>
      </trkpt>
      <trkpt lat="48.8219230" lon="13.7713790">
        <ele>832.8</ele>
        <time>2019-08-06T15:57:22Z</time>
      </trkpt>
      <trkpt lat="48.8219630" lon="13.7714760">
        <ele>832.8</ele>
        <time>2019-08-06T15:57:23Z</time>
      </trkpt>
      <trkpt lat="48.8220040" lon="13.7715720">
        <ele>832.6</ele>
        <time>2019-08-06T15:57:24Z</time>
      </trkpt>
      <trkpt lat="48.8220440" lon="13.7716670">
        <ele>832.6</ele>
        <time>2019-08-06T15:57:25Z</time>
      </trkpt>
      <trkpt lat="48.8220840" lon="13.7717640">
        <ele>832.4</ele>
        <time>2019-08-06T15:57:26Z</time>
      </trkpt>
      <trkpt lat="48.8221240" lon="13.7718590">
        <ele>832.2</ele>
        <time>2019-08-06T15:57:27Z</time>
      </trkpt>
      <trkpt lat="48.8221640" lon="13.7719540">
        <ele>832.0</ele>
        <time>2019-08-06T15:57:28Z</time>
      </trkpt>
      <trkpt lat="48.8222040" lon="13.7720500">
        <ele>831.8</ele>
        <time>2019-08-06T15:57:29Z</time>
      </trkpt>
      <trkpt lat="48.8222450" lon="13.7721450">
        <ele>831.6</ele>
        <time>2019-08-06T15:57:30Z</time>
      </trkpt>
      <trkpt lat="48.8222840" lon="13.7722420">
        <ele>831.4</ele>
        <time>2019-08-06T15:57:31Z</time>
      </trkpt>
      <trkpt lat="48.8223230" lon="13.7723390">
        <ele>831.0</ele>
        <time>2019-08-06T15:57:32Z</time>
      </trkpt>
      <trkpt lat="48.8223620" lon="13.7724360">
        <ele>830.8</ele>
        <time>2019-08-06T15:57:33Z</time>
      </trkpt>
      <trkpt lat="48.8224020" lon="13.7725340">
        <ele>830.6</ele>
        <time>2019-08-06T15:57:34Z</time>
      </trkpt>
      <trkpt lat="48.8224440" lon="13.7726350">
        <ele>830.6</ele>
        <time>2019-08-06T15:57:35Z</time>
      </trkpt>
      <trkpt lat="48.8224860" lon="13.7727330">
        <ele>830.6</ele>
        <time>2019-08-06T15:57:36Z</time>
      </trkpt>
      <trkpt lat="48.8225300" lon="13.7728290">
        <ele>830.6</ele>
        <time>2019-08-06T15:57:37Z</time>
      </trkpt>
      <trkpt lat="48.8225760" lon="13.7729210">
        <ele>830.4</ele>
        <time>2019-08-06T15:57:38Z</time>
      </trkpt>
      <trkpt lat="48.8226260" lon="13.7730070">
        <ele>830.2</ele>
        <time>2019-08-06T15:57:39Z</time>
      </trkpt>
      <trkpt lat="48.8226780" lon="13.7730880">
        <ele>830.2</ele>
        <time>2019-08-06T15:57:40Z</time>
      </trkpt>
      <trkpt lat="48.8227280" lon="13.7731640">
        <ele>830.0</ele>
        <time>2019-08-06T15:57:41Z</time>
      </trkpt>
      <trkpt lat="48.8227760" lon="13.7732310">
        <ele>829.8</ele>
        <time>2019-08-06T15:57:42Z</time>
      </trkpt>
      <trkpt lat="48.8228190" lon="13.7732880">
        <ele>829.8</ele>
        <time>2019-08-06T15:57:43Z</time>
      </trkpt>
      <trkpt lat="48.8228600" lon="13.7733370">
        <ele>829.6</ele>
        <time>2019-08-06T15:57:44Z</time>
      </trkpt>
      <trkpt lat="48.8229000" lon="13.7733780">
        <ele>829.4</ele>
        <time>2019-08-06T15:57:45Z</time>
      </trkpt>
      <trkpt lat="48.8229370" lon="13.7734110">
        <ele>829.2</ele>
        <time>2019-08-06T15:57:46Z</time>
      </trkpt>
      <trkpt lat="48.8229720" lon="13.7734420">
        <ele>829.0</ele>
        <time>2019-08-06T15:57:47Z</time>
      </trkpt>
      <trkpt lat="48.8230000" lon="13.7734740">
        <ele>828.8</ele>
        <time>2019-08-06T15:57:48Z</time>
      </trkpt>
      <trkpt lat="48.8230190" lon="13.7735090">
        <ele>828.4</ele>
        <time>2019-08-06T15:57:49Z</time>
      </trkpt>
      <trkpt lat="48.8230270" lon="13.7735490">
        <ele>828.2</ele>
        <time>2019-08-06T15:57:50Z</time>
      </trkpt>
      <trkpt lat="48.8230200" lon="13.7735950">
        <ele>828.0</ele>
        <time>2019-08-06T15:57:51Z</time>
      </trkpt>
      <trkpt lat="48.8230020" lon="13.7736390">
        <ele>827.8</ele>
        <time>2019-08-06T15:57:52Z</time>
      </trkpt>
      <trkpt lat="48.8229790" lon="13.7736820">
        <ele>827.6</ele>
        <time>2019-08-06T15:57:53Z</time>
      </trkpt>
      <trkpt lat="48.8229510" lon="13.7737270">
        <ele>827.4</ele>
        <time>2019-08-06T15:57:54Z</time>
      </trkpt>
      <trkpt lat="48.8229210" lon="13.7737720">
        <ele>827.2</ele>
        <time>2019-08-06T15:57:55Z</time>
      </trkpt>
      <trkpt lat="48.8228880" lon="13.7738170">
        <ele>827.2</ele>
        <time>2019-08-06T15:57:56Z</time>
      </trkpt>
      <trkpt lat="48.8228560" lon="13.7738610">
        <ele>827.2</ele>
        <time>2019-08-06T15:57:57Z</time>
      </trkpt>
      <trkpt lat="48.8228240" lon="13.7739020">
        <ele>827.2</ele>
        <time>2019-08-06T15:57:58Z</time>
      </trkpt>
      <trkpt lat="48.8227940" lon="13.7739430">
        <ele>827.4</ele>
        <time>2019-08-06T15:57:59Z</time>
      </trkpt>
      <trkpt lat="48.8227660" lon="13.7739820">
        <ele>827.6</ele>
        <time>2019-08-06T15:58:00Z</time>
      </trkpt>
      <trkpt lat="48.8227420" lon="13.7740160">
        <ele>827.6</ele>
        <time>2019-08-06T15:58:01Z</time>
      </trkpt>
      <trkpt lat="48.8227240" lon="13.7740440">
        <ele>827.8</ele>
        <time>2019-08-06T15:58:02Z</time>
      </trkpt>
      <trkpt lat="48.8227090" lon="13.7740710">
        <ele>828.0</ele>
        <time>2019-08-06T15:58:03Z</time>
      </trkpt>
      <trkpt lat="48.8227020" lon="13.7740930">
        <ele>828.2</ele>
        <time>2019-08-06T15:58:04Z</time>
      </trkpt>
      <trkpt lat="48.8227010" lon="13.7741120">
        <ele>828.2</ele>
        <time>2019-08-06T15:58:05Z</time>
      </trkpt>
      <trkpt lat="48.8227070" lon="13.7741260">
        <ele>828.4</ele>
        <time>2019-08-06T15:58:06Z</time>
      </trkpt>
      <trkpt lat="48.8227190" lon="13.7741380">
        <ele>828.4</ele>
        <time>2019-08-06T15:58:07Z</time>
      </trkpt>
      <trkpt lat="48.8227350" lon="13.7741490">
        <ele>828.6</ele>
        <time>2019-08-06T15:58:08Z</time>
      </trkpt>
      <trkpt lat="48.8227550" lon="13.7741600">
        <ele>828.6</ele>
        <time>2019-08-06T15:58:09Z</time>
      </trkpt>
      <trkpt lat="48.8227770" lon="13.7741710">
        <ele>828.8</ele>
        <time>2019-08-06T15:58:10Z</time>
      </trkpt>
      <trkpt lat="48.8227980" lon="13.7741850">
        <ele>828.8</ele>
        <time>2019-08-06T15:58:11Z</time>
      </trkpt>
      <trkpt lat="48.8228200" lon="13.7742070">
        <ele>828.8</ele>
        <time>2019-08-06T15:58:12Z</time>
      </trkpt>
      <trkpt lat="48.8228440" lon="13.7742330">
        <ele>828.8</ele>
        <time>2019-08-06T15:58:13Z</time>
      </trkpt>
      <trkpt lat="48.8228680" lon="13.7742600">
        <ele>829.0</ele>
        <time>2019-08-06T15:58:14Z</time>
      </trkpt>
      <trkpt lat="48.8228940" lon="13.7742900">
        <ele>829.0</ele>
        <time>2019-08-06T15:58:15Z</time>
      </trkpt>
      <trkpt lat="48.8229210" lon="13.7743190">
        <ele>829.2</ele>
        <time>2019-08-06T15:58:16Z</time>
      </trkpt>
      <trkpt lat="48.8229490" lon="13.7743460">
        <ele>829.2</ele>
        <time>2019-08-06T15:58:17Z</time>
      </trkpt>
      <trkpt lat="48.8229770" lon="13.7743700">
        <ele>829.4</ele>
        <time>2019-08-06T15:58:18Z</time>
      </trkpt>
      <trkpt lat="48.8230050" lon="13.7743920">
        <ele>829.4</ele>
        <time>2019-08-06T15:58:19Z</time>
      </trkpt>
      <trkpt lat="48.8230340" lon="13.7744100">
        <ele>829.6</ele>
        <time>2019-08-06T15:58:20Z</time>
      </trkpt>
      <trkpt lat="48.8230630" lon="13.7744270">
        <ele>829.6</ele>
        <time>2019-08-06T15:58:21Z</time>
      </trkpt>
      <trkpt lat="48.8230930" lon="13.7744430">
        <ele>829.8</ele>
        <time>2019-08-06T15:58:22Z</time>
      </trkpt>
      <trkpt lat="48.8231240" lon="13.7744610">
        <ele>829.8</ele>
        <time>2019-08-06T15:58:23Z</time>
      </trkpt>
      <trkpt lat="48.8231570" lon="13.7744810">
        <ele>830.0</ele>
        <time>2019-08-06T15:58:24Z</time>
      </trkpt>
      <trkpt lat="48.8231910" lon="13.7745010">
        <ele>830.0</ele>
        <time>2019-08-06T15:58:25Z</time>
      </trkpt>
      <trkpt lat="48.8232260" lon="13.7745200">
        <ele>830.2</ele>
        <time>2019-08-06T15:58:26Z</time>
      </trkpt>
      <trkpt lat="48.8232620" lon="13.7745380">
        <ele>830.2</ele>
        <time>2019-08-06T15:58:27Z</time>
      </trkpt>
      <trkpt lat="48.8232990" lon="13.7745550">
        <ele>830.4</ele>
        <time>2019-08-06T15:58:28Z</time>
      </trkpt>
      <trkpt lat="48.8233350" lon="13.7745730">
        <ele>830.6</ele>
        <time>2019-08-06T15:58:29Z</time>
      </trkpt>
      <trkpt lat="48.8233710" lon="13.7745930">
        <ele>830.8</ele>
        <time>2019-08-06T15:58:30Z</time>
      </trkpt>
      <trkpt lat="48.8234080" lon="13.7746150">
        <ele>830.8</ele>
        <time>2019-08-06T15:58:31Z</time>
      </trkpt>
      <trkpt lat="48.8234460" lon="13.7746390">
        <ele>831.0</ele>
        <time>2019-08-06T15:58:32Z</time>
      </trkpt>
      <trkpt lat="48.8234830" lon="13.7746610">
        <ele>831.2</ele>
        <time>2019-08-06T15:58:33Z</time>
      </trkpt>
      <trkpt lat="48.8235180" lon="13.7746830">
        <ele>831.4</ele>
        <time>2019-08-06T15:58:34Z</time>
      </trkpt>
      <trkpt lat="48.8235550" lon="13.7747030">
        <ele>831.6</ele>
        <time>2019-08-06T15:58:35Z</time>
      </trkpt>
      <trkpt lat="48.8235920" lon="13.7747260">
        <ele>831.6</ele>
        <time>2019-08-06T15:58:36Z</time>
      </trkpt>
      <trkpt lat="48.8236290" lon="13.7747480">
        <ele>831.6</ele>
        <time>2019-08-06T15:58:37Z</time>
      </trkpt>
      <trkpt lat="48.8236660" lon="13.7747710">
        <ele>831.8</ele>
        <time>2019-08-06T15:58:38Z</time>
      </trkpt>
      <trkpt lat="48.8237030" lon="13.7747940">
        <ele>831.8</ele>
        <time>2019-08-06T15:58:39Z</time>
      </trkpt>
      <trkpt lat="48.8237390" lon="13.7748160">
        <ele>832.0</ele>
        <time>2019-08-06T15:58:40Z</time>
      </trkpt>
      <trkpt lat="48.8237760" lon="13.7748380">
        <ele>832.0</ele>
        <time>2019-08-06T15:58:41Z</time>
      </trkpt>
      <trkpt lat="48.8238130" lon="13.7748590">
        <ele>832.2</ele>
        <time>2019-08-06T15:58:42Z</time>
      </trkpt>
      <trkpt lat="48.8238490" lon="13.7748810">
        <ele>832.4</ele>
        <time>2019-08-06T15:58:43Z</time>
      </trkpt>
      <trkpt lat="48.8238860" lon="13.7749030">
        <ele>832.4</ele>
        <time>2019-08-06T15:58:44Z</time>
      </trkpt>
      <trkpt lat="48.8239220" lon="13.7749260">
        <ele>832.6</ele>
        <time>2019-08-06T15:58:45Z</time>
      </trkpt>
      <trkpt lat="48.8239570" lon="13.7749470">
        <ele>832.6</ele>
        <time>2019-08-06T15:58:46Z</time>
      </trkpt>
      <trkpt lat="48.8239930" lon="13.7749690">
        <ele>832.8</ele>
        <time>2019-08-06T15:58:47Z</time>
      </trkpt>
      <trkpt lat="48.8240290" lon="13.7749900">
        <ele>833.0</ele>
        <time>2019-08-06T15:58:48Z</time>
      </trkpt>
      <trkpt lat="48.8240640" lon="13.7750090">
        <ele>833.2</ele>
        <time>2019-08-06T15:58:49Z</time>
      </trkpt>
      <trkpt lat="48.8241010" lon="13.7750260">
        <ele>833.4</ele>
        <time>2019-08-06T15:58:50Z</time>
      </trkpt>
      <trkpt lat="48.8241380" lon="13.7750420">
        <ele>833.4</ele>
        <time>2019-08-06T15:58:51Z</time>
      </trkpt>
      <trkpt lat="48.8241730" lon="13.7750550">
        <ele>833.6</ele>
        <time>2019-08-06T15:58:52Z</time>
      </trkpt>
      <trkpt lat="48.8242090" lon="13.7750690">
        <ele>833.6</ele>
        <time>2019-08-06T15:58:53Z</time>
      </trkpt>
      <trkpt lat="48.8242460" lon="13.7750810">
        <ele>833.8</ele>
        <time>2019-08-06T15:58:54Z</time>
      </trkpt>
      <trkpt lat="48.8242820" lon="13.7750910">
        <ele>834.0</ele>
        <time>2019-08-06T15:58:55Z</time>
      </trkpt>
      <trkpt lat="48.8243190" lon="13.7751010">
        <ele>834.0</ele>
        <time>2019-08-06T15:58:56Z</time>
      </trkpt>
      <trkpt lat="48.8243550" lon="13.7751110">
        <ele>834.2</ele>
        <time>2019-08-06T15:58:57Z</time>
      </trkpt>
      <trkpt lat="48.8243890" lon="13.7751170">
        <ele>834.2</ele>
        <time>2019-08-06T15:58:58Z</time>
      </trkpt>
      <trkpt lat="48.8244250" lon="13.7751230">
        <ele>834.4</ele>
        <time>2019-08-06T15:58:59Z</time>
      </trkpt>
      <trkpt lat="48.8244610" lon="13.7751280">
        <ele>834.4</ele>
        <time>2019-08-06T15:59:00Z</time>
      </trkpt>
      <trkpt lat="48.8244980" lon="13.7751340">
        <ele>834.6</ele>
        <time>2019-08-06T15:59:01Z</time>
      </trkpt>
      <trkpt lat="48.8245340" lon="13.7751400">
        <ele>834.6</ele>
        <time>2019-08-06T15:59:02Z</time>
      </trkpt>
      <trkpt lat="48.8245720" lon="13.7751450">
        <ele>834.8</ele>
        <time>2019-08-06T15:59:03Z</time>
      </trkpt>
      <trkpt lat="48.8246110" lon="13.7751520">
        <ele>834.8</ele>
        <time>2019-08-06T15:59:04Z</time>
      </trkpt>
      <trkpt lat="48.8246480" lon="13.7751600">
        <ele>835.0</ele>
        <time>2019-08-06T15:59:05Z</time>
      </trkpt>
      <trkpt lat="48.8246870" lon="13.7751690">
        <ele>835.2</ele>
        <time>2019-08-06T15:59:06Z</time>
      </trkpt>
      <trkpt lat="48.8247250" lon="13.7751770">
        <ele>835.2</ele>
        <time>2019-08-06T15:59:07Z</time>
      </trkpt>
      <trkpt lat="48.8247640" lon="13.7751850">
        <ele>835.4</ele>
        <time>2019-08-06T15:59:08Z</time>
      </trkpt>
      <trkpt lat="48.8248020" lon="13.7751920">
        <ele>835.6</ele>
        <time>2019-08-06T15:59:09Z</time>
      </trkpt>
      <trkpt lat="48.8248410" lon="13.7752000">
        <ele>835.6</ele>
        <time>2019-08-06T15:59:10Z</time>
      </trkpt>
      <trkpt lat="48.8248790" lon="13.7752090">
        <ele>835.8</ele>
        <time>2019-08-06T15:59:11Z</time>
      </trkpt>
      <trkpt lat="48.8249180" lon="13.7752180">
        <ele>835.8</ele>
        <time>2019-08-06T15:59:12Z</time>
      </trkpt>
      <trkpt lat="48.8249570" lon="13.7752280">
        <ele>835.8</ele>
        <time>2019-08-06T15:59:13Z</time>
      </trkpt>
      <trkpt lat="48.8249950" lon="13.7752390">
        <ele>836.0</ele>
        <time>2019-08-06T15:59:14Z</time>
      </trkpt>
      <trkpt lat="48.8250350" lon="13.7752510">
        <ele>836.0</ele>
        <time>2019-08-06T15:59:15Z</time>
      </trkpt>
      <trkpt lat="48.8250750" lon="13.7752630">
        <ele>836.0</ele>
        <time>2019-08-06T15:59:16Z</time>
      </trkpt>
      <trkpt lat="48.8251150" lon="13.7752720">
        <ele>836.0</ele>
        <time>2019-08-06T15:59:17Z</time>
      </trkpt>
      <trkpt lat="48.8251560" lon="13.7752790">
        <ele>836.0</ele>
        <time>2019-08-06T15:59:18Z</time>
      </trkpt>
      <trkpt lat="48.8251990" lon="13.7752870">
        <ele>836.0</ele>
        <time>2019-08-06T15:59:19Z</time>
      </trkpt>
      <trkpt lat="48.8252420" lon="13.7752960">
        <ele>836.0</ele>
        <time>2019-08-06T15:59:20Z</time>
      </trkpt>
      <trkpt lat="48.8252850" lon="13.7753050">
        <ele>836.0</ele>
        <time>2019-08-06T15:59:21Z</time>
      </trkpt>
      <trkpt lat="48.8253290" lon="13.7753130">
        <ele>836.0</ele>
        <time>2019-08-06T15:59:22Z</time>
      </trkpt>
      <trkpt lat="48.8253730" lon="13.7753190">
        <ele>836.0</ele>
        <time>2019-08-06T15:59:23Z</time>
      </trkpt>
      <trkpt lat="48.8254180" lon="13.7753250">
        <ele>836.0</ele>
        <time>2019-08-06T15:59:24Z</time>
      </trkpt>
      <trkpt lat="48.8254630" lon="13.7753310">
        <ele>836.0</ele>
        <time>2019-08-06T15:59:25Z</time>
      </trkpt>
      <trkpt lat="48.8255100" lon="13.7753390">
        <ele>836.0</ele>
        <time>2019-08-06T15:59:26Z</time>
      </trkpt>
      <trkpt lat="48.8255590" lon="13.7753490">
        <ele>835.8</ele>
        <time>2019-08-06T15:59:27Z</time>
      </trkpt>
      <trkpt lat="48.8256080" lon="13.7753620">
        <ele>835.8</ele>
        <time>2019-08-06T15:59:28Z</time>
      </trkpt>
      <trkpt lat="48.8256580" lon="13.7753740">
        <ele>835.8</ele>
        <time>2019-08-06T15:59:29Z</time>
      </trkpt>
      <trkpt lat="48.8257090" lon="13.7753840">
        <ele>835.8</ele>
        <time>2019-08-06T15:59:30Z</time>
      </trkpt>
      <trkpt lat="48.8257600" lon="13.7753920">
        <ele>835.8</ele>
        <time>2019-08-06T15:59:31Z</time>
      </trkpt>
      <trkpt lat="48.8258120" lon="13.7754010">
        <ele>835.6</ele>
        <time>2019-08-06T15:59:32Z</time>
      </trkpt>
      <trkpt lat="48.8258640" lon="13.7754070">
        <ele>835.6</ele>
        <time>2019-08-06T15:59:33Z</time>
      </trkpt>
      <trkpt lat="48.8259190" lon="13.7754130">
        <ele>835.4</ele>
        <time>2019-08-06T15:59:34Z</time>
      </trkpt>
      <trkpt lat="48.8259730" lon="13.7754170">
        <ele>835.4</ele>
        <time>2019-08-06T15:59:35Z</time>
      </trkpt>
      <trkpt lat="48.8260280" lon="13.7754190">
        <ele>835.4</ele>
        <time>2019-08-06T15:59:36Z</time>
      </trkpt>
      <trkpt lat="48.8260840" lon="13.7754190">
        <ele>835.2</ele>
        <time>2019-08-06T15:59:37Z</time>
      </trkpt>
      <trkpt lat="48.8261390" lon="13.7754150">
        <ele>835.2</ele>
        <time>2019-08-06T15:59:38Z</time>
      </trkpt>
      <trkpt lat="48.8261950" lon="13.7754090">
        <ele>835.2</ele>
        <time>2019-08-06T15:59:39Z</time>
      </trkpt>
      <trkpt lat="48.8262500" lon="13.7754020">
        <ele>835.2</ele>
        <time>2019-08-06T15:59:40Z</time>
      </trkpt>
      <trkpt lat="48.8263050" lon="13.7753960">
        <ele>835.4</ele>
        <time>2019-08-06T15:59:41Z</time>
      </trkpt>
      <trkpt lat="48.8263600" lon="13.7753880">
        <ele>835.4</ele>
        <time>2019-08-06T15:59:42Z</time>
      </trkpt>
      <trkpt lat="48.8264140" lon="13.7753810">
        <ele>835.4</ele>
        <time>2019-08-06T15:59:43Z</time>
      </trkpt>
      <trkpt lat="48.8264690" lon="13.7753750">
        <ele>835.4</ele>
        <time>2019-08-06T15:59:44Z</time>
      </trkpt>
      <trkpt lat="48.8265240" lon="13.7753690">
        <ele>835.4</ele>
        <time>2019-08-06T15:59:45Z</time>
      </trkpt>
      <trkpt lat="48.8265770" lon="13.7753610">
        <ele>835.6</ele>
        <time>2019-08-06T15:59:46Z</time>
      </trkpt>
      <trkpt lat="48.8266300" lon="13.7753540">
        <ele>835.6</ele>
        <time>2019-08-06T15:59:47Z</time>
      </trkpt>
      <trkpt lat="48.8266850" lon="13.7753470">
        <ele>835.6</ele>
        <time>2019-08-06T15:59:48Z</time>
      </trkpt>
      <trkpt lat="48.8267380" lon="13.7753420">
        <ele>835.6</ele>
        <time>2019-08-06T15:59:49Z</time>
      </trkpt>
      <trkpt lat="48.8267920" lon="13.7753370">
        <ele>835.4</ele>
        <time>2019-08-06T15:59:50Z</time>
      </trkpt>
      <trkpt lat="48.8268440" lon="13.7753330">
        <ele>835.4</ele>
        <time>2019-08-06T15:59:51Z</time>
      </trkpt>
      <trkpt lat="48.8268970" lon="13.7753300">
        <ele>835.4</ele>
        <time>2019-08-06T15:59:52Z</time>
      </trkpt>
      <trkpt lat="48.8269520" lon="13.7753260">
        <ele>835.4</ele>
        <time>2019-08-06T15:59:53Z</time>
      </trkpt>
      <trkpt lat="48.8270030" lon="13.7753210">
        <ele>835.4</ele>
        <time>2019-08-06T15:59:54Z</time>
      </trkpt>
      <trkpt lat="48.8270520" lon="13.7753120">
        <ele>835.4</ele>
        <time>2019-08-06T15:59:55Z</time>
      </trkpt>
      <trkpt lat="48.8271000" lon="13.7753050">
        <ele>835.4</ele>
        <time>2019-08-06T15:59:56Z</time>
      </trkpt>
      <trkpt lat="48.8271490" lon="13.7753000">
        <ele>835.4</ele>
        <time>2019-08-06T15:59:57Z</time>
      </trkpt>
      <trkpt lat="48.8271970" lon="13.7752930">
        <ele>835.4</ele>
        <time>2019-08-06T15:59:58Z</time>
      </trkpt>
      <trkpt lat="48.8272470" lon="13.7752860">
        <ele>835.6</ele>
        <time>2019-08-06T15:59:59Z</time>
      </trkpt>
      <trkpt lat="48.8272970" lon="13.7752790">
        <ele>835.6</ele>
        <time>2019-08-06T16:00:00Z</time>
      </trkpt>
      <trkpt lat="48.8273490" lon="13.7752740">
        <ele>835.6</ele>
        <time>2019-08-06T16:00:01Z</time>
      </trkpt>
      <trkpt lat="48.8274020" lon="13.7752710">
        <ele>835.6</ele>
        <time>2019-08-06T16:00:02Z</time>
      </trkpt>
      <trkpt lat="48.8274540" lon="13.7752710">
        <ele>835.6</ele>
        <time>2019-08-06T16:00:03Z</time>
      </trkpt>
      <trkpt lat="48.8275060" lon="13.7752740">
        <ele>835.6</ele>
        <time>2019-08-06T16:00:04Z</time>
      </trkpt>
      <trkpt lat="48.8275560" lon="13.7752750">
        <ele>835.6</ele>
        <time>2019-08-06T16:00:05Z</time>
      </trkpt>
      <trkpt lat="48.8276020" lon="13.7752770">
        <ele>835.6</ele>
        <time>2019-08-06T16:00:06Z</time>
      </trkpt>
      <trkpt lat="48.8276450" lon="13.7752830">
        <ele>835.6</ele>
        <time>2019-08-06T16:00:07Z</time>
      </trkpt>
      <trkpt lat="48.8276860" lon="13.7752900">
        <ele>835.6</ele>
        <time>2019-08-06T16:00:08Z</time>
      </trkpt>
      <trkpt lat="48.8277250" lon="13.7752970">
        <ele>835.6</ele>
        <time>2019-08-06T16:00:09Z</time>
      </trkpt>
      <trkpt lat="48.8277640" lon="13.7753030">
        <ele>835.6</ele>
        <time>2019-08-06T16:00:10Z</time>
      </trkpt>
      <trkpt lat="48.8278050" lon="13.7753100">
        <ele>835.6</ele>
        <time>2019-08-06T16:00:11Z</time>
      </trkpt>
      <trkpt lat="48.8278460" lon="13.7753210">
        <ele>835.4</ele>
        <time>2019-08-06T16:00:12Z</time>
      </trkpt>
      <trkpt lat="48.8278860" lon="13.7753300">
        <ele>835.4</ele>
        <time>2019-08-06T16:00:13Z</time>
      </trkpt>
      <trkpt lat="48.8279260" lon="13.7753390">
        <ele>835.6</ele>
        <time>2019-08-06T16:00:14Z</time>
      </trkpt>
      <trkpt lat="48.8279670" lon="13.7753470">
        <ele>835.6</ele>
        <time>2019-08-06T16:00:15Z</time>
      </trkpt>
      <trkpt lat="48.8280070" lon="13.7753580">
        <ele>835.6</ele>
        <time>2019-08-06T16:00:16Z</time>
      </trkpt>
      <trkpt lat="48.8280430" lon="13.7753660">
        <ele>835.6</ele>
        <time>2019-08-06T16:00:17Z</time>
      </trkpt>
      <trkpt lat="48.8280850" lon="13.7753780">
        <ele>835.8</ele>
        <time>2019-08-06T16:00:18Z</time>
      </trkpt>
      <trkpt lat="48.8281320" lon="13.7753930">
        <ele>836.0</ele>
        <time>2019-08-06T16:00:19Z</time>
      </trkpt>
      <trkpt lat="48.8281740" lon="13.7754110">
        <ele>836.0</ele>
        <time>2019-08-06T16:00:20Z</time>
      </trkpt>
      <trkpt lat="48.8282110" lon="13.7754320">
        <ele>836.2</ele>
        <time>2019-08-06T16:00:21Z</time>
      </trkpt>
      <trkpt lat="48.8282440" lon="13.7754620">
        <ele>836.2</ele>
        <time>2019-08-06T16:00:22Z</time>
      </trkpt>
      <trkpt lat="48.8282770" lon="13.7755030">
        <ele>836.4</ele>
        <time>2019-08-06T16:00:23Z</time>
      </trkpt>
      <trkpt lat="48.8283090" lon="13.7755490">
        <ele>836.6</ele>
        <time>2019-08-06T16:00:24Z</time>
      </trkpt>
      <trkpt lat="48.8283400" lon="13.7755980">
        <ele>836.8</ele>
        <time>2019-08-06T16:00:25Z</time>
      </trkpt>
      <trkpt lat="48.8283670" lon="13.7756490">
        <ele>837.0</ele>
        <time>2019-08-06T16:00:26Z</time>
      </trkpt>
      <trkpt lat="48.8283940" lon="13.7756970">
        <ele>837.0</ele>
        <time>2019-08-06T16:00:27Z</time>
      </trkpt>
      <trkpt lat="48.8284210" lon="13.7757420">
        <ele>837.2</ele>
        <time>2019-08-06T16:00:28Z</time>
      </trkpt>
      <trkpt lat="48.8284490" lon="13.7757850">
        <ele>837.4</ele>
        <time>2019-08-06T16:00:29Z</time>
      </trkpt>
      <trkpt lat="48.8284760" lon="13.7758270">
        <ele>837.6</ele>
        <time>2019-08-06T16:00:30Z</time>
      </trkpt>
      <trkpt lat="48.8285040" lon="13.7758670">
        <ele>837.8</ele>
        <time>2019-08-06T16:00:31Z</time>
      </trkpt>
      <trkpt lat="48.8285320" lon="13.7759080">
        <ele>838.0</ele>
        <time>2019-08-06T16:00:32Z</time>
      </trkpt>
      <trkpt lat="48.8285570" lon="13.7759520">
        <ele>838.2</ele>
        <time>2019-08-06T16:00:33Z</time>
      </trkpt>
      <trkpt lat="48.8285790" lon="13.7759980">
        <ele>838.2</ele>
        <time>2019-08-06T16:00:34Z</time>
      </trkpt>
      <trkpt lat="48.8286000" lon="13.7760440">
        <ele>838.4</ele>
        <time>2019-08-06T16:00:35Z</time>
      </trkpt>
      <trkpt lat="48.8286200" lon="13.7760930">
        <ele>838.6</ele>
        <time>2019-08-06T16:00:36Z</time>
      </trkpt>
      <trkpt lat="48.8286400" lon="13.7761430">
        <ele>838.6</ele>
        <time>2019-08-06T16:00:37Z</time>
      </trkpt>
      <trkpt lat="48.8286610" lon="13.7761930">
        <ele>838.8</ele>
        <time>2019-08-06T16:00:38Z</time>
      </trkpt>
      <trkpt lat="48.8286820" lon="13.7762400">
        <ele>838.8</ele>
        <time>2019-08-06T16:00:39Z</time>
      </trkpt>
      <trkpt lat="48.8287050" lon="13.7762880">
        <ele>838.8</ele>
        <time>2019-08-06T16:00:40Z</time>
      </trkpt>
      <trkpt lat="48.8287290" lon="13.7763390">
        <ele>839.0</ele>
        <time>2019-08-06T16:00:41Z</time>
      </trkpt>
      <trkpt lat="48.8287520" lon="13.7763910">
        <ele>839.0</ele>
        <time>2019-08-06T16:00:42Z</time>
      </trkpt>
      <trkpt lat="48.8287750" lon="13.7764440">
        <ele>839.0</ele>
        <time>2019-08-06T16:00:43Z</time>
      </trkpt>
      <trkpt lat="48.8287990" lon="13.7764980">
        <ele>838.8</ele>
        <time>2019-08-06T16:00:44Z</time>
      </trkpt>
      <trkpt lat="48.8288230" lon="13.7765530">
        <ele>838.8</ele>
        <time>2019-08-06T16:00:45Z</time>
      </trkpt>
      <trkpt lat="48.8288480" lon="13.7766130">
        <ele>838.8</ele>
        <time>2019-08-06T16:00:46Z</time>
      </trkpt>
      <trkpt lat="48.8288730" lon="13.7766770">
        <ele>838.6</ele>
        <time>2019-08-06T16:00:47Z</time>
      </trkpt>
      <trkpt lat="48.8288980" lon="13.7767450">
        <ele>838.4</ele>
        <time>2019-08-06T16:00:48Z</time>
      </trkpt>
      <trkpt lat="48.8289240" lon="13.7768180">
        <ele>838.2</ele>
        <time>2019-08-06T16:00:49Z</time>
      </trkpt>
      <trkpt lat="48.8289510" lon="13.7768930">
        <ele>838.0</ele>
        <time>2019-08-06T16:00:50Z</time>
      </trkpt>
      <trkpt lat="48.8289780" lon="13.7769730">
        <ele>838.0</ele>
        <time>2019-08-06T16:00:51Z</time>
      </trkpt>
      <trkpt lat="48.8290030" lon="13.7770580">
        <ele>837.8</ele>
        <time>2019-08-06T16:00:52Z</time>
      </trkpt>
      <trkpt lat="48.8290270" lon="13.7771480">
        <ele>837.6</ele>
        <time>2019-08-06T16:00:53Z</time>
      </trkpt>
      <trkpt lat="48.8290500" lon="13.7772410">
        <ele>837.4</ele>
        <time>2019-08-06T16:00:54Z</time>
      </trkpt>
      <trkpt lat="48.8290730" lon="13.7773390">
        <ele>837.2</ele>
        <time>2019-08-06T16:00:55Z</time>
      </trkpt>
      <trkpt lat="48.8290930" lon="13.7774430">
        <ele>837.0</ele>
        <time>2019-08-06T16:00:56Z</time>
      </trkpt>
      <trkpt lat="48.8291140" lon="13.7775490">
        <ele>836.6</ele>
        <time>2019-08-06T16:00:57Z</time>
      </trkpt>
      <trkpt lat="48.8291350" lon="13.7776590">
        <ele>836.4</ele>
        <time>2019-08-06T16:00:58Z</time>
      </trkpt>
      <trkpt lat="48.8291560" lon="13.7777720">
        <ele>836.2</ele>
        <time>2019-08-06T16:00:59Z</time>
      </trkpt>
      <trkpt lat="48.8291780" lon="13.7778870">
        <ele>835.8</ele>
        <time>2019-08-06T16:01:00Z</time>
      </trkpt>
      <trkpt lat="48.8291990" lon="13.7780060">
        <ele>835.4</ele>
        <time>2019-08-06T16:01:01Z</time>
      </trkpt>
      <trkpt lat="48.8292220" lon="13.7781260">
        <ele>835.0</ele>
        <time>2019-08-06T16:01:02Z</time>
      </trkpt>
      <trkpt lat="48.8292450" lon="13.7782470">
        <ele>834.8</ele>
        <time>2019-08-06T16:01:03Z</time>
      </trkpt>
      <trkpt lat="48.8292710" lon="13.7783690">
        <ele>834.8</ele>
        <time>2019-08-06T16:01:04Z</time>
      </trkpt>
      <trkpt lat="48.8292970" lon="13.7784890">
        <ele>834.8</ele>
        <time>2019-08-06T16:01:05Z</time>
      </trkpt>
      <trkpt lat="48.8293210" lon="13.7786060">
        <ele>834.8</ele>
        <time>2019-08-06T16:01:06Z</time>
      </trkpt>
      <trkpt lat="48.8293450" lon="13.7787240">
        <ele>834.8</ele>
        <time>2019-08-06T16:01:07Z</time>
      </trkpt>
      <trkpt lat="48.8293680" lon="13.7788410">
        <ele>834.6</ele>
        <time>2019-08-06T16:01:08Z</time>
      </trkpt>
      <trkpt lat="48.8293890" lon="13.7789550">
        <ele>834.4</ele>
        <time>2019-08-06T16:01:09Z</time>
      </trkpt>
      <trkpt lat="48.8294100" lon="13.7790690">
        <ele>834.2</ele>
        <time>2019-08-06T16:01:10Z</time>
      </trkpt>
      <trkpt lat="48.8294280" lon="13.7791810">
        <ele>834.2</ele>
        <time>2019-08-06T16:01:11Z</time>
      </trkpt>
      <trkpt lat="48.8294430" lon="13.7792940">
        <ele>834.0</ele>
        <time>2019-08-06T16:01:12Z</time>
      </trkpt>
      <trkpt lat="48.8294570" lon="13.7794070">
        <ele>833.8</ele>
        <time>2019-08-06T16:01:13Z</time>
      </trkpt>
      <trkpt lat="48.8294720" lon="13.7795200">
        <ele>833.4</ele>
        <time>2019-08-06T16:01:14Z</time>
      </trkpt>
      <trkpt lat="48.8294860" lon="13.7796340">
        <ele>833.2</ele>
        <time>2019-08-06T16:01:15Z</time>
      </trkpt>
      <trkpt lat="48.8294960" lon="13.7797460">
        <ele>833.0</ele>
        <time>2019-08-06T16:01:16Z</time>
      </trkpt>
      <trkpt lat="48.8295030" lon="13.7798580">
        <ele>832.8</ele>
        <time>2019-08-06T16:01:17Z</time>
      </trkpt>
      <trkpt lat="48.8295090" lon="13.7799720">
        <ele>832.6</ele>
        <time>2019-08-06T16:01:18Z</time>
      </trkpt>
      <trkpt lat="48.8295140" lon="13.7800830">
        <ele>832.6</ele>
        <time>2019-08-06T16:01:19Z</time>
      </trkpt>
      <trkpt lat="48.8295190" lon="13.7801950">
        <ele>832.4</ele>
        <time>2019-08-06T16:01:20Z</time>
      </trkpt>
      <trkpt lat="48.8295250" lon="13.7803070">
        <ele>832.4</ele>
        <time>2019-08-06T16:01:21Z</time>
      </trkpt>
      <trkpt lat="48.8295310" lon="13.7804170">
        <ele>832.4</ele>
        <time>2019-08-06T16:01:22Z</time>
      </trkpt>
      <trkpt lat="48.8295380" lon="13.7805270">
        <ele>832.4</ele>
        <time>2019-08-06T16:01:23Z</time>
      </trkpt>
      <trkpt lat="48.8295460" lon="13.7806330">
        <ele>832.4</ele>
        <time>2019-08-06T16:01:24Z</time>
      </trkpt>
      <trkpt lat="48.8295520" lon="13.7807380">
        <ele>832.4</ele>
        <time>2019-08-06T16:01:25Z</time>
      </trkpt>
      <trkpt lat="48.8295560" lon="13.7808420">
        <ele>832.4</ele>
        <time>2019-08-06T16:01:26Z</time>
      </trkpt>
      <trkpt lat="48.8295580" lon="13.7809430">
        <ele>832.4</ele>
        <time>2019-08-06T16:01:27Z</time>
      </trkpt>
      <trkpt lat="48.8295580" lon="13.7810420">
        <ele>832.4</ele>
        <time>2019-08-06T16:01:28Z</time>
      </trkpt>
      <trkpt lat="48.8295580" lon="13.7811400">
        <ele>832.4</ele>
        <time>2019-08-06T16:01:29Z</time>
      </trkpt>
      <trkpt lat="48.8295590" lon="13.7812360">
        <ele>832.6</ele>
        <time>2019-08-06T16:01:30Z</time>
      </trkpt>
      <trkpt lat="48.8295620" lon="13.7813290">
        <ele>832.6</ele>
        <time>2019-08-06T16:01:31Z</time>
      </trkpt>
      <trkpt lat="48.8295640" lon="13.7814190">
        <ele>832.6</ele>
        <time>2019-08-06T16:01:32Z</time>
      </trkpt>
      <trkpt lat="48.8295640" lon="13.7815080">
        <ele>832.8</ele>
        <time>2019-08-06T16:01:33Z</time>
      </trkpt>
      <trkpt lat="48.8295610" lon="13.7815950">
        <ele>832.8</ele>
        <time>2019-08-06T16:01:34Z</time>
      </trkpt>
      <trkpt lat="48.8295570" lon="13.7816810">
        <ele>832.8</ele>
        <time>2019-08-06T16:01:35Z</time>
      </trkpt>
      <trkpt lat="48.8295520" lon="13.7817680">
        <ele>832.8</ele>
        <time>2019-08-06T16:01:36Z</time>
      </trkpt>
      <trkpt lat="48.8295460" lon="13.7818510">
        <ele>833.0</ele>
        <time>2019-08-06T16:01:37Z</time>
      </trkpt>
      <trkpt lat="48.8295370" lon="13.7819300">
        <ele>833.0</ele>
        <time>2019-08-06T16:01:38Z</time>
      </trkpt>
      <trkpt lat="48.8295270" lon="13.7820090">
        <ele>833.0</ele>
        <time>2019-08-06T16:01:39Z</time>
      </trkpt>
      <trkpt lat="48.8295180" lon="13.7820870">
        <ele>833.0</ele>
        <time>2019-08-06T16:01:40Z</time>
      </trkpt>
      <trkpt lat="48.8295140" lon="13.7821630">
        <ele>833.0</ele>
        <time>2019-08-06T16:01:41Z</time>
      </trkpt>
      <trkpt lat="48.8295120" lon="13.7822390">
        <ele>833.0</ele>
        <time>2019-08-06T16:01:42Z</time>
      </trkpt>
      <trkpt lat="48.8295070" lon="13.7823150">
        <ele>833.0</ele>
        <time>2019-08-06T16:01:43Z</time>
      </trkpt>
      <trkpt lat="48.8295010" lon="13.7823910">
        <ele>832.8</ele>
        <time>2019-08-06T16:01:44Z</time>
      </trkpt>
      <trkpt lat="48.8294930" lon="13.7824680">
        <ele>832.8</ele>
        <time>2019-08-06T16:01:45Z</time>
      </trkpt>
      <trkpt lat="48.8294830" lon="13.7825460">
        <ele>832.8</ele>
        <time>2019-08-06T16:01:46Z</time>
      </trkpt>
      <trkpt lat="48.8294720" lon="13.7826240">
        <ele>832.6</ele>
        <time>2019-08-06T16:01:47Z</time>
      </trkpt>
      <trkpt lat="48.8294620" lon="13.7827070">
        <ele>832.6</ele>
        <time>2019-08-06T16:01:48Z</time>
      </trkpt>
      <trkpt lat="48.8294520" lon="13.7827930">
        <ele>832.4</ele>
        <time>2019-08-06T16:01:49Z</time>
      </trkpt>
      <trkpt lat="48.8294430" lon="13.7828810">
        <ele>832.2</ele>
        <time>2019-08-06T16:01:50Z</time>
      </trkpt>
      <trkpt lat="48.8294340" lon="13.7829740">
        <ele>832.0</ele>
        <time>2019-08-06T16:01:51Z</time>
      </trkpt>
      <trkpt lat="48.8294270" lon="13.7830680">
        <ele>831.8</ele>
        <time>2019-08-06T16:01:52Z</time>
      </trkpt>
      <trkpt lat="48.8294210" lon="13.7831600">
        <ele>831.6</ele>
        <time>2019-08-06T16:01:53Z</time>
      </trkpt>
      <trkpt lat="48.8294120" lon="13.7832620">
        <ele>831.4</ele>
        <time>2019-08-06T16:01:54Z</time>
      </trkpt>
      <trkpt lat="48.8294010" lon="13.7833670">
        <ele>831.2</ele>
        <time>2019-08-06T16:01:55Z</time>
      </trkpt>
      <trkpt lat="48.8293890" lon="13.7834730">
        <ele>830.8</ele>
        <time>2019-08-06T16:01:56Z</time>
      </trkpt>
      <trkpt lat="48.8293790" lon="13.7835810">
        <ele>830.6</ele>
        <time>2019-08-06T16:01:57Z</time>
      </trkpt>
      <trkpt lat="48.8293700" lon="13.7836930">
        <ele>830.2</ele>
        <time>2019-08-06T16:01:58Z</time>
      </trkpt>
      <trkpt lat="48.8293610" lon="13.7838060">
        <ele>829.8</ele>
        <time>2019-08-06T16:01:59Z</time>
      </trkpt>
      <trkpt lat="48.8293540" lon="13.7839230">
        <ele>829.4</ele>
        <time>2019-08-06T16:02:00Z</time>
      </trkpt>
      <trkpt lat="48.8293500" lon="13.7840390">
        <ele>829.0</ele>
        <time>2019-08-06T16:02:01Z</time>
      </trkpt>
      <trkpt lat="48.8293480" lon="13.7841600">
        <ele>828.6</ele>
        <time>2019-08-06T16:02:02Z</time>
      </trkpt>
      <trkpt lat="48.8293520" lon="13.7842850">
        <ele>828.2</ele>
        <time>2019-08-06T16:02:03Z</time>
      </trkpt>
      <trkpt lat="48.8293580" lon="13.7844080">
        <ele>827.8</ele>
        <time>2019-08-06T16:02:04Z</time>
      </trkpt>
      <trkpt lat="48.8293660" lon="13.7845320">
        <ele>827.4</ele>
        <time>2019-08-06T16:02:05Z</time>
      </trkpt>
      <trkpt lat="48.8293750" lon="13.7846570">
        <ele>827.0</ele>
        <time>2019-08-06T16:02:06Z</time>
      </trkpt>
      <trkpt lat="48.8293850" lon="13.7847840">
        <ele>826.6</ele>
        <time>2019-08-06T16:02:07Z</time>
      </trkpt>
      <trkpt lat="48.8293930" lon="13.7849160">
        <ele>826.0</ele>
        <time>2019-08-06T16:02:08Z</time>
      </trkpt>
      <trkpt lat="48.8293950" lon="13.7850510">
        <ele>825.6</ele>
        <time>2019-08-06T16:02:09Z</time>
      </trkpt>
      <trkpt lat="48.8293920" lon="13.7851900">
        <ele>825.2</ele>
        <time>2019-08-06T16:02:10Z</time>
      </trkpt>
      <trkpt lat="48.8293760" lon="13.7853310">
        <ele>824.8</ele>
        <time>2019-08-06T16:02:11Z</time>
      </trkpt>
      <trkpt lat="48.8293440" lon="13.7854690">
        <ele>824.4</ele>
        <time>2019-08-06T16:02:12Z</time>
      </trkpt>
      <trkpt lat="48.8293050" lon="13.7856090">
        <ele>824.0</ele>
        <time>2019-08-06T16:02:13Z</time>
      </trkpt>
      <trkpt lat="48.8292630" lon="13.7857490">
        <ele>823.6</ele>
        <time>2019-08-06T16:02:14Z</time>
      </trkpt>
      <trkpt lat="48.8292190" lon="13.7858870">
        <ele>823.2</ele>
        <time>2019-08-06T16:02:15Z</time>
      </trkpt>
      <trkpt lat="48.8291780" lon="13.7860200">
        <ele>822.8</ele>
        <time>2019-08-06T16:02:16Z</time>
      </trkpt>
      <trkpt lat="48.8291380" lon="13.7861580">
        <ele>822.4</ele>
        <time>2019-08-06T16:02:17Z</time>
      </trkpt>
      <trkpt lat="48.8290990" lon="13.7863030">
        <ele>821.8</ele>
        <time>2019-08-06T16:02:18Z</time>
      </trkpt>
      <trkpt lat="48.8290620" lon="13.7864510">
        <ele>821.6</ele>
        <time>2019-08-06T16:02:19Z</time>
      </trkpt>
      <trkpt lat="48.8290330" lon="13.7865990">
        <ele>821.2</ele>
        <time>2019-08-06T16:02:20Z</time>
      </trkpt>
      <trkpt lat="48.8290200" lon="13.7867400">
        <ele>820.8</ele>
        <time>2019-08-06T16:02:21Z</time>
      </trkpt>
      <trkpt lat="48.8290190" lon="13.7868810">
        <ele>820.6</ele>
        <time>2019-08-06T16:02:22Z</time>
      </trkpt>
      <trkpt lat="48.8290320" lon="13.7870190">
        <ele>820.4</ele>
        <time>2019-08-06T16:02:23Z</time>
      </trkpt>
      <trkpt lat="48.8290580" lon="13.7871610">
        <ele>820.2</ele>
        <time>2019-08-06T16:02:24Z</time>
      </trkpt>
      <trkpt lat="48.8290960" lon="13.7872960">
        <ele>820.2</ele>
        <time>2019-08-06T16:02:25Z</time>
      </trkpt>
      <trkpt lat="48.8291350" lon="13.7874240">
        <ele>820.0</ele>
        <time>2019-08-06T16:02:26Z</time>
      </trkpt>
      <trkpt lat="48.8291780" lon="13.7875520">
        <ele>819.6</ele>
        <time>2019-08-06T16:02:27Z</time>
      </trkpt>
      <trkpt lat="48.8292190" lon="13.7876730">
        <ele>819.4</ele>
        <time>2019-08-06T16:02:28Z</time>
      </trkpt>
      <trkpt lat="48.8292530" lon="13.7877920">
        <ele>819.2</ele>
        <time>2019-08-06T16:02:29Z</time>
      </trkpt>
      <trkpt lat="48.8292740" lon="13.7879100">
        <ele>819.0</ele>
        <time>2019-08-06T16:02:30Z</time>
      </trkpt>
      <trkpt lat="48.8292810" lon="13.7880260">
        <ele>818.8</ele>
        <time>2019-08-06T16:02:31Z</time>
      </trkpt>
      <trkpt lat="48.8292730" lon="13.7881410">
        <ele>818.6</ele>
        <time>2019-08-06T16:02:32Z</time>
      </trkpt>
      <trkpt lat="48.8292510" lon="13.7882520">
        <ele>818.4</ele>
        <time>2019-08-06T16:02:33Z</time>
      </trkpt>
      <trkpt lat="48.8292190" lon="13.7883570">
        <ele>818.4</ele>
        <time>2019-08-06T16:02:34Z</time>
      </trkpt>
      <trkpt lat="48.8291800" lon="13.7884550">
        <ele>818.2</ele>
        <time>2019-08-06T16:02:35Z</time>
      </trkpt>
      <trkpt lat="48.8291340" lon="13.7885450">
        <ele>818.2</ele>
        <time>2019-08-06T16:02:36Z</time>
      </trkpt>
      <trkpt lat="48.8290890" lon="13.7886320">
        <ele>818.0</ele>
        <time>2019-08-06T16:02:37Z</time>
      </trkpt>
      <trkpt lat="48.8290440" lon="13.7887170">
        <ele>818.0</ele>
        <time>2019-08-06T16:02:38Z</time>
      </trkpt>
      <trkpt lat="48.8290000" lon="13.7888020">
        <ele>818.0</ele>
        <time>2019-08-06T16:02:39Z</time>
      </trkpt>
      <trkpt lat="48.8289580" lon="13.7888890">
        <ele>817.8</ele>
        <time>2019-08-06T16:02:40Z</time>
      </trkpt>
      <trkpt lat="48.8289200" lon="13.7889760">
        <ele>817.6</ele>
        <time>2019-08-06T16:02:41Z</time>
      </trkpt>
      <trkpt lat="48.8288850" lon="13.7890620">
        <ele>817.6</ele>
        <time>2019-08-06T16:02:42Z</time>
      </trkpt>
      <trkpt lat="48.8288500" lon="13.7891490">
        <ele>817.6</ele>
        <time>2019-08-06T16:02:43Z</time>
      </trkpt>
      <trkpt lat="48.8288150" lon="13.7892360">
        <ele>817.6</ele>
        <time>2019-08-06T16:02:44Z</time>
      </trkpt>
      <trkpt lat="48.8287830" lon="13.7893200">
        <ele>817.6</ele>
        <time>2019-08-06T16:02:45Z</time>
      </trkpt>
      <trkpt lat="48.8287520" lon="13.7894060">
        <ele>817.4</ele>
        <time>2019-08-06T16:02:46Z</time>
      </trkpt>
      <trkpt lat="48.8287230" lon="13.7894900">
        <ele>817.4</ele>
        <time>2019-08-06T16:02:47Z</time>
      </trkpt>
      <trkpt lat="48.8286940" lon="13.7895720">
        <ele>817.2</ele>
        <time>2019-08-06T16:02:48Z</time>
      </trkpt>
      <trkpt lat="48.8286640" lon="13.7896540">
        <ele>817.2</ele>
        <time>2019-08-06T16:02:49Z</time>
      </trkpt>
      <trkpt lat="48.8286360" lon="13.7897360">
        <ele>817.2</ele>
        <time>2019-08-06T16:02:50Z</time>
      </trkpt>
      <trkpt lat="48.8286110" lon="13.7898210">
        <ele>817.0</ele>
        <time>2019-08-06T16:02:51Z</time>
      </trkpt>
      <trkpt lat="48.8285900" lon="13.7899060">
        <ele>816.8</ele>
        <time>2019-08-06T16:02:52Z</time>
      </trkpt>
      <trkpt lat="48.8285710" lon="13.7899960">
        <ele>816.8</ele>
        <time>2019-08-06T16:02:53Z</time>
      </trkpt>
      <trkpt lat="48.8285550" lon="13.7900890">
        <ele>816.6</ele>
        <time>2019-08-06T16:02:54Z</time>
      </trkpt>
      <trkpt lat="48.8285410" lon="13.7901810">
        <ele>816.4</ele>
        <time>2019-08-06T16:02:55Z</time>
      </trkpt>
      <trkpt lat="48.8285280" lon="13.7902770">
        <ele>816.0</ele>
        <time>2019-08-06T16:02:56Z</time>
      </trkpt>
      <trkpt lat="48.8285190" lon="13.7903750">
        <ele>815.8</ele>
        <time>2019-08-06T16:02:57Z</time>
      </trkpt>
      <trkpt lat="48.8285140" lon="13.7904770">
        <ele>815.8</ele>
        <time>2019-08-06T16:02:58Z</time>
      </trkpt>
      <trkpt lat="48.8285160" lon="13.7905800">
        <ele>815.6</ele>
        <time>2019-08-06T16:02:59Z</time>
      </trkpt>
      <trkpt lat="48.8285230" lon="13.7906820">
        <ele>815.4</ele>
        <time>2019-08-06T16:03:00Z</time>
      </trkpt>
      <trkpt lat="48.8285370" lon="13.7907850">
        <ele>815.2</ele>
        <time>2019-08-06T16:03:01Z</time>
      </trkpt>
      <trkpt lat="48.8285520" lon="13.7908900">
        <ele>815.2</ele>
        <time>2019-08-06T16:03:02Z</time>
      </trkpt>
      <trkpt lat="48.8285690" lon="13.7909940">
        <ele>815.0</ele>
        <time>2019-08-06T16:03:03Z</time>
      </trkpt>
      <trkpt lat="48.8285870" lon="13.7911000">
        <ele>815.0</ele>
        <time>2019-08-06T16:03:04Z</time>
      </trkpt>
      <trkpt lat="48.8286060" lon="13.7912060">
        <ele>814.8</ele>
        <time>2019-08-06T16:03:05Z</time>
      </trkpt>
      <trkpt lat="48.8286220" lon="13.7913130">
        <ele>814.6</ele>
        <time>2019-08-06T16:03:06Z</time>
      </trkpt>
      <trkpt lat="48.8286390" lon="13.7914180">
        <ele>814.4</ele>
        <time>2019-08-06T16:03:07Z</time>
      </trkpt>
      <trkpt lat="48.8286570" lon="13.7915240">
        <ele>814.2</ele>
        <time>2019-08-06T16:03:08Z</time>
      </trkpt>
      <trkpt lat="48.8286750" lon="13.7916320">
        <ele>814.0</ele>
        <time>2019-08-06T16:03:09Z</time>
      </trkpt>
      <trkpt lat="48.8286910" lon="13.7917390">
        <ele>813.8</ele>
        <time>2019-08-06T16:03:10Z</time>
      </trkpt>
      <trkpt lat="48.8287020" lon="13.7918480">
        <ele>813.6</ele>
        <time>2019-08-06T16:03:11Z</time>
      </trkpt>
      <trkpt lat="48.8287070" lon="13.7919570">
        <ele>813.4</ele>
        <time>2019-08-06T16:03:12Z</time>
      </trkpt>
      <trkpt lat="48.8287080" lon="13.7920650">
        <ele>813.2</ele>
        <time>2019-08-06T16:03:13Z</time>
      </trkpt>
      <trkpt lat="48.8287070" lon="13.7921730">
        <ele>813.0</ele>
        <time>2019-08-06T16:03:14Z</time>
      </trkpt>
      <trkpt lat="48.8287050" lon="13.7922800">
        <ele>812.8</ele>
        <time>2019-08-06T16:03:15Z</time>
      </trkpt>
      <trkpt lat="48.8287040" lon="13.7923870">
        <ele>812.6</ele>
        <time>2019-08-06T16:03:16Z</time>
      </trkpt>
      <trkpt lat="48.8287110" lon="13.7924920">
        <ele>812.6</ele>
        <time>2019-08-06T16:03:17Z</time>
      </trkpt>
      <trkpt lat="48.8287210" lon="13.7925930">
        <ele>812.4</ele>
        <time>2019-08-06T16:03:18Z</time>
      </trkpt>
      <trkpt lat="48.8287340" lon="13.7926860">
        <ele>812.6</ele>
        <time>2019-08-06T16:03:19Z</time>
      </trkpt>
      <trkpt lat="48.8287490" lon="13.7927690">
        <ele>812.6</ele>
        <time>2019-08-06T16:03:20Z</time>
      </trkpt>
      <trkpt lat="48.8287640" lon="13.7928430">
        <ele>812.8</ele>
        <time>2019-08-06T16:03:21Z</time>
      </trkpt>
      <trkpt lat="48.8287780" lon="13.7929120">
        <ele>812.8</ele>
        <time>2019-08-06T16:03:22Z</time>
      </trkpt>
      <trkpt lat="48.8287920" lon="13.7929780">
        <ele>813.0</ele>
        <time>2019-08-06T16:03:23Z</time>
      </trkpt>
      <trkpt lat="48.8288050" lon="13.7930390">
        <ele>813.0</ele>
        <time>2019-08-06T16:03:24Z</time>
      </trkpt>
      <trkpt lat="48.8288170" lon="13.7930980">
        <ele>813.2</ele>
        <time>2019-08-06T16:03:25Z</time>
      </trkpt>
      <trkpt lat="48.8288250" lon="13.7931550">
        <ele>813.2</ele>
        <time>2019-08-06T16:03:26Z</time>
      </trkpt>
      <trkpt lat="48.8288340" lon="13.7932100">
        <ele>813.4</ele>
        <time>2019-08-06T16:03:27Z</time>
      </trkpt>
      <trkpt lat="48.8288410" lon="13.7932620">
        <ele>813.6</ele>
        <time>2019-08-06T16:03:28Z</time>
      </trkpt>
      <trkpt lat="48.8288480" lon="13.7933140">
        <ele>813.6</ele>
        <time>2019-08-06T16:03:29Z</time>
      </trkpt>
      <trkpt lat="48.8288560" lon="13.7933630">
        <ele>813.8</ele>
        <time>2019-08-06T16:03:30Z</time>
      </trkpt>
      <trkpt lat="48.8288630" lon="13.7934090">
        <ele>813.8</ele>
        <time>2019-08-06T16:03:31Z</time>
      </trkpt>
      <trkpt lat="48.8288690" lon="13.7934540">
        <ele>814.0</ele>
        <time>2019-08-06T16:03:32Z</time>
      </trkpt>
      <trkpt lat="48.8288760" lon="13.7934990">
        <ele>814.0</ele>
        <time>2019-08-06T16:03:33Z</time>
      </trkpt>
      <trkpt lat="48.8288830" lon="13.7935400">
        <ele>814.0</ele>
        <time>2019-08-06T16:03:34Z</time>
      </trkpt>
      <trkpt lat="48.8288890" lon="13.7935790">
        <ele>814.2</ele>
        <time>2019-08-06T16:03:35Z</time>
      </trkpt>
      <trkpt lat="48.8288960" lon="13.7936150">
        <ele>814.2</ele>
        <time>2019-08-06T16:03:36Z</time>
      </trkpt>
      <trkpt lat="48.8289040" lon="13.7936480">
        <ele>814.2</ele>
        <time>2019-08-06T16:03:37Z</time>
      </trkpt>
      <trkpt lat="48.8289110" lon="13.7936780">
        <ele>814.2</ele>
        <time>2019-08-06T16:03:38Z</time>
      </trkpt>
      <trkpt lat="48.8289180" lon="13.7937060">
        <ele>814.4</ele>
        <time>2019-08-06T16:03:39Z</time>
      </trkpt>
      <trkpt lat="48.8289230" lon="13.7937320">
        <ele>814.4</ele>
        <time>2019-08-06T16:03:40Z</time>
      </trkpt>
      <trkpt lat="48.8289270" lon="13.7937540">
        <ele>814.4</ele>
        <time>2019-08-06T16:03:41Z</time>
      </trkpt>
      <trkpt lat="48.8289300" lon="13.7937760">
        <ele>814.4</ele>
        <time>2019-08-06T16:03:42Z</time>
      </trkpt>
      <trkpt lat="48.8289340" lon="13.7937960">
        <ele>814.4</ele>
        <time>2019-08-06T16:03:43Z</time>
      </trkpt>
      <trkpt lat="48.8289370" lon="13.7938170">
        <ele>814.6</ele>
        <time>2019-08-06T16:03:44Z</time>
      </trkpt>
      <trkpt lat="48.8289390" lon="13.7938360">
        <ele>814.6</ele>
        <time>2019-08-06T16:03:45Z</time>
      </trkpt>
      <trkpt lat="48.8289430" lon="13.7938560">
        <ele>814.6</ele>
        <time>2019-08-06T16:03:46Z</time>
      </trkpt>
      <trkpt lat="48.8289490" lon="13.7938770">
        <ele>814.6</ele>
        <time>2019-08-06T16:03:47Z</time>
      </trkpt>
      <trkpt lat="48.8289550" lon="13.7938980">
        <ele>814.8</ele>
        <time>2019-08-06T16:03:48Z</time>
      </trkpt>
      <trkpt lat="48.8289580" lon="13.7939180">
        <ele>814.8</ele>
        <time>2019-08-06T16:03:49Z</time>
      </trkpt>
      <trkpt lat="48.8289590" lon="13.7939380">
        <ele>814.8</ele>
        <time>2019-08-06T16:03:50Z</time>
      </trkpt>
      <trkpt lat="48.8289630" lon="13.7939550">
        <ele>814.8</ele>
        <time>2019-08-06T16:03:51Z</time>
      </trkpt>
      <trkpt lat="48.8289690" lon="13.7939710">
        <ele>815.0</ele>
        <time>2019-08-06T16:03:52Z</time>
      </trkpt>
      <trkpt lat="48.8289770" lon="13.7939850">
        <ele>815.0</ele>
        <time>2019-08-06T16:03:53Z</time>
      </trkpt>
      <trkpt lat="48.8289860" lon="13.7940000">
        <ele>815.0</ele>
        <time>2019-08-06T16:03:54Z</time>
      </trkpt>
      <trkpt lat="48.8289920" lon="13.7940150">
        <ele>815.0</ele>
        <time>2019-08-06T16:03:55Z</time>
      </trkpt>
      <trkpt lat="48.8289970" lon="13.7940300">
        <ele>815.0</ele>
        <time>2019-08-06T16:03:56Z</time>
      </trkpt>
      <trkpt lat="48.8290010" lon="13.7940450">
        <ele>815.0</ele>
        <time>2019-08-06T16:03:57Z</time>
      </trkpt>
      <trkpt lat="48.8290020" lon="13.7940590">
        <ele>815.2</ele>
        <time>2019-08-06T16:03:58Z</time>
      </trkpt>
      <trkpt lat="48.8290010" lon="13.7940730">
        <ele>815.2</ele>
        <time>2019-08-06T16:03:59Z</time>
      </trkpt>
      <trkpt lat="48.8290000" lon="13.7940880">
        <ele>815.2</ele>
        <time>2019-08-06T16:04:00Z</time>
      </trkpt>
      <trkpt lat="48.8289990" lon="13.7941030">
        <ele>815.4</ele>
        <time>2019-08-06T16:04:01Z</time>
      </trkpt>
      <trkpt lat="48.8289980" lon="13.7941180">
        <ele>815.4</ele>
        <time>2019-08-06T16:04:02Z</time>
      </trkpt>
      <trkpt lat="48.8289970" lon="13.7941330">
        <ele>815.4</ele>
        <time>2019-08-06T16:04:03Z</time>
      </trkpt>
      <trkpt lat="48.8289970" lon="13.7941470">
        <ele>815.6</ele>
        <time>2019-08-06T16:04:04Z</time>
      </trkpt>
      <trkpt lat="48.8289980" lon="13.7941600">
        <ele>815.6</ele>
        <time>2019-08-06T16:04:05Z</time>
      </trkpt>
      <trkpt lat="48.8290010" lon="13.7941750">
        <ele>815.6</ele>
        <time>2019-08-06T16:04:06Z</time>
      </trkpt>
      <trkpt lat="48.8290030" lon="13.7941900">
        <ele>815.8</ele>
        <time>2019-08-06T16:04:07Z</time>
      </trkpt>
      <trkpt lat="48.8290030" lon="13.7942060">
        <ele>815.8</ele>
        <time>2019-08-06T16:04:08Z</time>
      </trkpt>
      <trkpt lat="48.8290060" lon="13.7942210">
        <ele>815.8</ele>
        <time>2019-08-06T16:04:09Z</time>
      </trkpt>
      <trkpt lat="48.8290110" lon="13.7942340">
        <ele>816.0</ele>
        <time>2019-08-06T16:04:10Z</time>
      </trkpt>
      <trkpt lat="48.8290190" lon="13.7942470">
        <ele>816.0</ele>
        <time>2019-08-06T16:04:11Z</time>
      </trkpt>
      <trkpt lat="48.8290260" lon="13.7942600">
        <ele>816.0</ele>
        <time>2019-08-06T16:04:12Z</time>
      </trkpt>
      <trkpt lat="48.8290330" lon="13.7942760">
        <ele>816.2</ele>
        <time>2019-08-06T16:04:13Z</time>
      </trkpt>
      <trkpt lat="48.8290380" lon="13.7942930">
        <ele>816.2</ele>
        <time>2019-08-06T16:04:14Z</time>
      </trkpt>
      <trkpt lat="48.8290430" lon="13.7943080">
        <ele>816.4</ele>
        <time>2019-08-06T16:04:15Z</time>
      </trkpt>
      <trkpt lat="48.8290500" lon="13.7943220">
        <ele>816.4</ele>
        <time>2019-08-06T16:04:16Z</time>
      </trkpt>
      <trkpt lat="48.8290580" lon="13.7943350">
        <ele>816.4</ele>
        <time>2019-08-06T16:04:17Z</time>
      </trkpt>
      <trkpt lat="48.8290620" lon="13.7943530">
        <ele>816.6</ele>
        <time>2019-08-06T16:04:18Z</time>
      </trkpt>
      <trkpt lat="48.8290630" lon="13.7943740">
        <ele>816.6</ele>
        <time>2019-08-06T16:04:19Z</time>
      </trkpt>
      <trkpt lat="48.8290610" lon="13.7943950">
        <ele>816.8</ele>
        <time>2019-08-06T16:04:20Z</time>
      </trkpt>
      <trkpt lat="48.8290600" lon="13.7944160">
        <ele>816.8</ele>
        <time>2019-08-06T16:04:21Z</time>
      </trkpt>
      <trkpt lat="48.8290620" lon="13.7944370">
        <ele>817.0</ele>
        <time>2019-08-06T16:04:22Z</time>
      </trkpt>
      <trkpt lat="48.8290670" lon="13.7944600">
        <ele>817.0</ele>
        <time>2019-08-06T16:04:23Z</time>
      </trkpt>
      <trkpt lat="48.8290720" lon="13.7944830">
        <ele>817.2</ele>
        <time>2019-08-06T16:04:24Z</time>
      </trkpt>
      <trkpt lat="48.8290770" lon="13.7945060">
        <ele>817.2</ele>
        <time>2019-08-06T16:04:25Z</time>
      </trkpt>
      <trkpt lat="48.8290820" lon="13.7945300">
        <ele>817.4</ele>
        <time>2019-08-06T16:04:26Z</time>
      </trkpt>
      <trkpt lat="48.8290880" lon="13.7945530">
        <ele>817.6</ele>
        <time>2019-08-06T16:04:27Z</time>
      </trkpt>
      <trkpt lat="48.8290960" lon="13.7945770">
        <ele>817.6</ele>
        <time>2019-08-06T16:04:28Z</time>
      </trkpt>
      <trkpt lat="48.8291050" lon="13.7945990">
        <ele>817.8</ele>
        <time>2019-08-06T16:04:29Z</time>
      </trkpt>
      <trkpt lat="48.8291170" lon="13.7946200">
        <ele>818.0</ele>
        <time>2019-08-06T16:04:30Z</time>
      </trkpt>
      <trkpt lat="48.8291270" lon="13.7946420">
        <ele>818.2</ele>
        <time>2019-08-06T16:04:31Z</time>
      </trkpt>
      <trkpt lat="48.8291340" lon="13.7946660">
        <ele>818.2</ele>
        <time>2019-08-06T16:04:32Z</time>
      </trkpt>
      <trkpt lat="48.8291400" lon="13.7946900">
        <ele>818.4</ele>
        <time>2019-08-06T16:04:33Z</time>
      </trkpt>
      <trkpt lat="48.8291460" lon="13.7947150">
        <ele>818.6</ele>
        <time>2019-08-06T16:04:34Z</time>
      </trkpt>
      <trkpt lat="48.8291530" lon="13.7947400">
        <ele>818.8</ele>
        <time>2019-08-06T16:04:35Z</time>
      </trkpt>
      <trkpt lat="48.8291600" lon="13.7947650">
        <ele>819.0</ele>
        <time>2019-08-06T16:04:36Z</time>
      </trkpt>
      <trkpt lat="48.8291680" lon="13.7947910">
        <ele>819.2</ele>
        <time>2019-08-06T16:04:37Z</time>
      </trkpt>
      <trkpt lat="48.8291750" lon="13.7948150">
        <ele>819.4</ele>
        <time>2019-08-06T16:04:38Z</time>
      </trkpt>
      <trkpt lat="48.8291840" lon="13.7948400">
        <ele>819.6</ele>
        <time>2019-08-06T16:04:39Z</time>
      </trkpt>
      <trkpt lat="48.8291930" lon="13.7948640">
        <ele>819.8</ele>
        <time>2019-08-06T16:04:40Z</time>
      </trkpt>
      <trkpt lat="48.8292020" lon="13.7948860">
        <ele>820.0</ele>
        <time>2019-08-06T16:04:41Z</time>
      </trkpt>
      <trkpt lat="48.8292120" lon="13.7949100">
        <ele>820.2</ele>
        <time>2019-08-06T16:04:42Z</time>
      </trkpt>
      <trkpt lat="48.8292230" lon="13.7949350">
        <ele>820.2</ele>
        <time>2019-08-06T16:04:43Z</time>
      </trkpt>
      <trkpt lat="48.8292320" lon="13.7949610">
        <ele>820.4</ele>
        <time>2019-08-06T16:04:44Z</time>
      </trkpt>
      <trkpt lat="48.8292400" lon="13.7949870">
        <ele>820.6</ele>
        <time>2019-08-06T16:04:45Z</time>
      </trkpt>
      <trkpt lat="48.8292490" lon="13.7950120">
        <ele>820.8</ele>
        <time>2019-08-06T16:04:46Z</time>
      </trkpt>
      <trkpt lat="48.8292590" lon="13.7950390">
        <ele>821.0</ele>
        <time>2019-08-06T16:04:47Z</time>
      </trkpt>
      <trkpt lat="48.8292710" lon="13.7950640">
        <ele>821.0</ele>
        <time>2019-08-06T16:04:48Z</time>
      </trkpt>
      <trkpt lat="48.8292850" lon="13.7950870">
        <ele>821.2</ele>
        <time>2019-08-06T16:04:49Z</time>
      </trkpt>
      <trkpt lat="48.8292990" lon="13.7951090">
        <ele>821.4</ele>
        <time>2019-08-06T16:04:50Z</time>
      </trkpt>
      <trkpt lat="48.8293120" lon="13.7951310">
        <ele>821.4</ele>
        <time>2019-08-06T16:04:51Z</time>
      </trkpt>
      <trkpt lat="48.8293250" lon="13.7951520">
        <ele>821.6</ele>
        <time>2019-08-06T16:04:52Z</time>
      </trkpt>
      <trkpt lat="48.8293390" lon="13.7951750">
        <ele>821.6</ele>
        <time>2019-08-06T16:04:53Z</time>
      </trkpt>
      <trkpt lat="48.8293520" lon="13.7952010">
        <ele>821.8</ele>
        <time>2019-08-06T16:04:54Z</time>
      </trkpt>
      <trkpt lat="48.8293670" lon="13.7952260">
        <ele>821.8</ele>
        <time>2019-08-06T16:04:55Z</time>
      </trkpt>
      <trkpt lat="48.8293810" lon="13.7952510">
        <ele>822.0</ele>
        <time>2019-08-06T16:04:56Z</time>
      </trkpt>
      <trkpt lat="48.8293970" lon="13.7952760">
        <ele>822.0</ele>
        <time>2019-08-06T16:04:57Z</time>
      </trkpt>
      <trkpt lat="48.8294140" lon="13.7953020">
        <ele>822.2</ele>
        <time>2019-08-06T16:04:58Z</time>
      </trkpt>
      <trkpt lat="48.8294310" lon="13.7953270">
        <ele>822.4</ele>
        <time>2019-08-06T16:04:59Z</time>
      </trkpt>
      <trkpt lat="48.8294460" lon="13.7953520">
        <ele>822.4</ele>
        <time>2019-08-06T16:05:00Z</time>
      </trkpt>
      <trkpt lat="48.8294640" lon="13.7953790">
        <ele>822.6</ele>
        <time>2019-08-06T16:05:01Z</time>
      </trkpt>
      <trkpt lat="48.8294820" lon="13.7954050">
        <ele>822.8</ele>
        <time>2019-08-06T16:05:02Z</time>
      </trkpt>
      <trkpt lat="48.8295000" lon="13.7954310">
        <ele>822.8</ele>
        <time>2019-08-06T16:05:03Z</time>
      </trkpt>
      <trkpt lat="48.8295170" lon="13.7954550">
        <ele>823.0</ele>
        <time>2019-08-06T16:05:04Z</time>
      </trkpt>
      <trkpt lat="48.8295350" lon="13.7954800">
        <ele>823.0</ele>
        <time>2019-08-06T16:05:05Z</time>
      </trkpt>
      <trkpt lat="48.8295530" lon="13.7955050">
        <ele>823.2</ele>
        <time>2019-08-06T16:05:06Z</time>
      </trkpt>
      <trkpt lat="48.8295690" lon="13.7955300">
        <ele>823.2</ele>
        <time>2019-08-06T16:05:07Z</time>
      </trkpt>
      <trkpt lat="48.8295860" lon="13.7955570">
        <ele>823.4</ele>
        <time>2019-08-06T16:05:08Z</time>
      </trkpt>
      <trkpt lat="48.8296040" lon="13.7955840">
        <ele>823.4</ele>
        <time>2019-08-06T16:05:09Z</time>
      </trkpt>
      <trkpt lat="48.8296220" lon="13.7956100">
        <ele>823.6</ele>
        <time>2019-08-06T16:05:10Z</time>
      </trkpt>
      <trkpt lat="48.8296390" lon="13.7956370">
        <ele>823.6</ele>
        <time>2019-08-06T16:05:11Z</time>
      </trkpt>
      <trkpt lat="48.8296570" lon="13.7956630">
        <ele>823.8</ele>
        <time>2019-08-06T16:05:12Z</time>
      </trkpt>
      <trkpt lat="48.8296740" lon="13.7956880">
        <ele>823.8</ele>
        <time>2019-08-06T16:05:13Z</time>
      </trkpt>
      <trkpt lat="48.8296910" lon="13.7957140">
        <ele>824.0</ele>
        <time>2019-08-06T16:05:14Z</time>
      </trkpt>
      <trkpt lat="48.8297080" lon="13.7957420">
        <ele>824.0</ele>
        <time>2019-08-06T16:05:15Z</time>
      </trkpt>
      <trkpt lat="48.8297230" lon="13.7957720">
        <ele>824.0</ele>
        <time>2019-08-06T16:05:16Z</time>
      </trkpt>
      <trkpt lat="48.8297370" lon="13.7958040">
        <ele>824.2</ele>
        <time>2019-08-06T16:05:17Z</time>
      </trkpt>
      <trkpt lat="48.8297490" lon="13.7958380">
        <ele>824.2</ele>
        <time>2019-08-06T16:05:18Z</time>
      </trkpt>
      <trkpt lat="48.8297610" lon="13.7958740">
        <ele>824.4</ele>
        <time>2019-08-06T16:05:19Z</time>
      </trkpt>
      <trkpt lat="48.8297700" lon="13.7959120">
        <ele>824.6</ele>
        <time>2019-08-06T16:05:20Z</time>
      </trkpt>
      <trkpt lat="48.8297790" lon="13.7959520">
        <ele>824.6</ele>
        <time>2019-08-06T16:05:21Z</time>
      </trkpt>
      <trkpt lat="48.8297860" lon="13.7959920">
        <ele>824.8</ele>
        <time>2019-08-06T16:05:22Z</time>
      </trkpt>
      <trkpt lat="48.8297930" lon="13.7960300">
        <ele>824.8</ele>
        <time>2019-08-06T16:05:23Z</time>
      </trkpt>
      <trkpt lat="48.8297990" lon="13.7960690">
        <ele>825.0</ele>
        <time>2019-08-06T16:05:24Z</time>
      </trkpt>
      <trkpt lat="48.8298040" lon="13.7961060">
        <ele>825.2</ele>
        <time>2019-08-06T16:05:25Z</time>
      </trkpt>
      <trkpt lat="48.8298050" lon="13.7961470">
        <ele>825.4</ele>
        <time>2019-08-06T16:05:26Z</time>
      </trkpt>
      <trkpt lat="48.8298050" lon="13.7961870">
        <ele>825.6</ele>
        <time>2019-08-06T16:05:27Z</time>
      </trkpt>
      <trkpt lat="48.8298020" lon="13.7962250">
        <ele>825.6</ele>
        <time>2019-08-06T16:05:28Z</time>
      </trkpt>
      <trkpt lat="48.8297960" lon="13.7962630">
        <ele>825.8</ele>
        <time>2019-08-06T16:05:29Z</time>
      </trkpt>
      <trkpt lat="48.8297890" lon="13.7962990">
        <ele>826.0</ele>
        <time>2019-08-06T16:05:30Z</time>
      </trkpt>
      <trkpt lat="48.8297830" lon="13.7963360">
        <ele>826.2</ele>
        <time>2019-08-06T16:05:31Z</time>
      </trkpt>
      <trkpt lat="48.8297760" lon="13.7963710">
        <ele>826.4</ele>
        <time>2019-08-06T16:05:32Z</time>
      </trkpt>
      <trkpt lat="48.8297660" lon="13.7964030">
        <ele>826.6</ele>
        <time>2019-08-06T16:05:33Z</time>
      </trkpt>
      <trkpt lat="48.8297530" lon="13.7964330">
        <ele>826.8</ele>
        <time>2019-08-06T16:05:34Z</time>
      </trkpt>
      <trkpt lat="48.8297400" lon="13.7964610">
        <ele>827.2</ele>
        <time>2019-08-06T16:05:35Z</time>
      </trkpt>
      <trkpt lat="48.8297270" lon="13.7964880">
        <ele>827.4</ele>
        <time>2019-08-06T16:05:36Z</time>
      </trkpt>
      <trkpt lat="48.8297160" lon="13.7965130">
        <ele>827.6</ele>
        <time>2019-08-06T16:05:37Z</time>
      </trkpt>
      <trkpt lat="48.8297050" lon="13.7965370">
        <ele>827.8</ele>
        <time>2019-08-06T16:05:38Z</time>
      </trkpt>
      <trkpt lat="48.8296940" lon="13.7965610">
        <ele>828.0</ele>
        <time>2019-08-06T16:05:39Z</time>
      </trkpt>
      <trkpt lat="48.8296820" lon="13.7965900">
        <ele>828.2</ele>
        <time>2019-08-06T16:05:40Z</time>
      </trkpt>
      <trkpt lat="48.8296700" lon="13.7966180">
        <ele>828.4</ele>
        <time>2019-08-06T16:05:41Z</time>
      </trkpt>
      <trkpt lat="48.8296560" lon="13.7966460">
        <ele>828.6</ele>
        <time>2019-08-06T16:05:42Z</time>
      </trkpt>
      <trkpt lat="48.8296440" lon="13.7966730">
        <ele>829.0</ele>
        <time>2019-08-06T16:05:43Z</time>
      </trkpt>
      <trkpt lat="48.8296320" lon="13.7966980">
        <ele>829.2</ele>
        <time>2019-08-06T16:05:44Z</time>
      </trkpt>
      <trkpt lat="48.8296220" lon="13.7967240">
        <ele>829.4</ele>
        <time>2019-08-06T16:05:45Z</time>
      </trkpt>
      <trkpt lat="48.8296130" lon="13.7967540">
        <ele>829.6</ele>
        <time>2019-08-06T16:05:46Z</time>
      </trkpt>
      <trkpt lat="48.8296030" lon="13.7967840">
        <ele>829.8</ele>
        <time>2019-08-06T16:05:47Z</time>
      </trkpt>
      <trkpt lat="48.8295920" lon="13.7968130">
        <ele>830.0</ele>
        <time>2019-08-06T16:05:48Z</time>
      </trkpt>
      <trkpt lat="48.8295810" lon="13.7968430">
        <ele>830.2</ele>
        <time>2019-08-06T16:05:49Z</time>
      </trkpt>
      <trkpt lat="48.8295680" lon="13.7968700">
        <ele>830.4</ele>
        <time>2019-08-06T16:05:50Z</time>
      </trkpt>
      <trkpt lat="48.8295560" lon="13.7968940">
        <ele>830.6</ele>
        <time>2019-08-06T16:05:51Z</time>
      </trkpt>
      <trkpt lat="48.8295450" lon="13.7969200">
        <ele>830.8</ele>
        <time>2019-08-06T16:05:52Z</time>
      </trkpt>
      <trkpt lat="48.8295350" lon="13.7969480">
        <ele>831.0</ele>
        <time>2019-08-06T16:05:53Z</time>
      </trkpt>
      <trkpt lat="48.8295240" lon="13.7969750">
        <ele>831.2</ele>
        <time>2019-08-06T16:05:54Z</time>
      </trkpt>
      <trkpt lat="48.8295100" lon="13.7970060">
        <ele>831.4</ele>
        <time>2019-08-06T16:05:55Z</time>
      </trkpt>
      <trkpt lat="48.8294960" lon="13.7970400">
        <ele>831.6</ele>
        <time>2019-08-06T16:05:56Z</time>
      </trkpt>
      <trkpt lat="48.8294850" lon="13.7970750">
        <ele>831.8</ele>
        <time>2019-08-06T16:05:57Z</time>
      </trkpt>
      <trkpt lat="48.8294740" lon="13.7971090">
        <ele>832.0</ele>
        <time>2019-08-06T16:05:58Z</time>
      </trkpt>
      <trkpt lat="48.8294610" lon="13.7971410">
        <ele>832.2</ele>
        <time>2019-08-06T16:05:59Z</time>
      </trkpt>
      <trkpt lat="48.8294480" lon="13.7971720">
        <ele>832.4</ele>
        <time>2019-08-06T16:06:00Z</time>
      </trkpt>
      <trkpt lat="48.8294360" lon="13.7972070">
        <ele>832.6</ele>
        <time>2019-08-06T16:06:01Z</time>
      </trkpt>
      <trkpt lat="48.8294250" lon="13.7972430">
        <ele>832.8</ele>
        <time>2019-08-06T16:06:02Z</time>
      </trkpt>
      <trkpt lat="48.8294140" lon="13.7972810">
        <ele>833.0</ele>
        <time>2019-08-06T16:06:03Z</time>
      </trkpt>
      <trkpt lat="48.8294020" lon="13.7973180">
        <ele>833.0</ele>
        <time>2019-08-06T16:06:04Z</time>
      </trkpt>
      <trkpt lat="48.8293920" lon="13.7973540">
        <ele>833.2</ele>
        <time>2019-08-06T16:06:05Z</time>
      </trkpt>
      <trkpt lat="48.8293800" lon="13.7973900">
        <ele>833.4</ele>
        <time>2019-08-06T16:06:06Z</time>
      </trkpt>
      <trkpt lat="48.8293660" lon="13.7974250">
        <ele>833.6</ele>
        <time>2019-08-06T16:06:07Z</time>
      </trkpt>
      <trkpt lat="48.8293500" lon="13.7974580">
        <ele>833.8</ele>
        <time>2019-08-06T16:06:08Z</time>
      </trkpt>
      <trkpt lat="48.8293330" lon="13.7974930">
        <ele>834.0</ele>
        <time>2019-08-06T16:06:09Z</time>
      </trkpt>
      <trkpt lat="48.8293170" lon="13.7975290">
        <ele>834.0</ele>
        <time>2019-08-06T16:06:10Z</time>
      </trkpt>
      <trkpt lat="48.8293030" lon="13.7975660">
        <ele>834.2</ele>
        <time>2019-08-06T16:06:11Z</time>
      </trkpt>
      <trkpt lat="48.8292900" lon="13.7976060">
        <ele>834.4</ele>
        <time>2019-08-06T16:06:12Z</time>
      </trkpt>
      <trkpt lat="48.8292760" lon="13.7976450">
        <ele>834.6</ele>
        <time>2019-08-06T16:06:13Z</time>
      </trkpt>
      <trkpt lat="48.8292640" lon="13.7976830">
        <ele>834.8</ele>
        <time>2019-08-06T16:06:14Z</time>
      </trkpt>
      <trkpt lat="48.8292520" lon="13.7977220">
        <ele>835.0</ele>
        <time>2019-08-06T16:06:15Z</time>
      </trkpt>
      <trkpt lat="48.8292420" lon="13.7977610">
        <ele>835.2</ele>
        <time>2019-08-06T16:06:16Z</time>
      </trkpt>
      <trkpt lat="48.8292310" lon="13.7978000">
        <ele>835.4</ele>
        <time>2019-08-06T16:06:17Z</time>
      </trkpt>
      <trkpt lat="48.8292170" lon="13.7978390">
        <ele>835.4</ele>
        <time>2019-08-06T16:06:18Z</time>
      </trkpt>
      <trkpt lat="48.8292010" lon="13.7978740">
        <ele>835.6</ele>
        <time>2019-08-06T16:06:19Z</time>
      </trkpt>
      <trkpt lat="48.8291850" lon="13.7979070">
        <ele>835.8</ele>
        <time>2019-08-06T16:06:20Z</time>
      </trkpt>
      <trkpt lat="48.8291710" lon="13.7979440">
        <ele>836.0</ele>
        <time>2019-08-06T16:06:21Z</time>
      </trkpt>
      <trkpt lat="48.8291570" lon="13.7979800">
        <ele>836.0</ele>
        <time>2019-08-06T16:06:22Z</time>
      </trkpt>
      <trkpt lat="48.8291410" lon="13.7980170">
        <ele>836.2</ele>
        <time>2019-08-06T16:06:23Z</time>
      </trkpt>
      <trkpt lat="48.8291250" lon="13.7980550">
        <ele>836.4</ele>
        <time>2019-08-06T16:06:24Z</time>
      </trkpt>
      <trkpt lat="48.8291090" lon="13.7980940">
        <ele>836.6</ele>
        <time>2019-08-06T16:06:25Z</time>
      </trkpt>
      <trkpt lat="48.8290930" lon="13.7981300">
        <ele>836.6</ele>
        <time>2019-08-06T16:06:26Z</time>
      </trkpt>
      <trkpt lat="48.8290750" lon="13.7981680">
        <ele>836.8</ele>
        <time>2019-08-06T16:06:27Z</time>
      </trkpt>
      <trkpt lat="48.8290560" lon="13.7982060">
        <ele>836.8</ele>
        <time>2019-08-06T16:06:28Z</time>
      </trkpt>
      <trkpt lat="48.8290390" lon="13.7982430">
        <ele>837.0</ele>
        <time>2019-08-06T16:06:29Z</time>
      </trkpt>
      <trkpt lat="48.8290240" lon="13.7982790">
        <ele>837.2</ele>
        <time>2019-08-06T16:06:30Z</time>
      </trkpt>
      <trkpt lat="48.8290090" lon="13.7983160">
        <ele>837.2</ele>
        <time>2019-08-06T16:06:31Z</time>
      </trkpt>
      <trkpt lat="48.8289930" lon="13.7983560">
        <ele>837.4</ele>
        <time>2019-08-06T16:06:32Z</time>
      </trkpt>
      <trkpt lat="48.8289780" lon="13.7983940">
        <ele>837.6</ele>
        <time>2019-08-06T16:06:33Z</time>
      </trkpt>
      <trkpt lat="48.8289630" lon="13.7984310">
        <ele>837.8</ele>
        <time>2019-08-06T16:06:34Z</time>
      </trkpt>
      <trkpt lat="48.8289480" lon="13.7984680">
        <ele>838.0</ele>
        <time>2019-08-06T16:06:35Z</time>
      </trkpt>
      <trkpt lat="48.8289360" lon="13.7985050">
        <ele>838.0</ele>
        <time>2019-08-06T16:06:36Z</time>
      </trkpt>
      <trkpt lat="48.8289250" lon="13.7985460">
        <ele>838.2</ele>
        <time>2019-08-06T16:06:37Z</time>
      </trkpt>
      <trkpt lat="48.8289170" lon="13.7985880">
        <ele>838.4</ele>
        <time>2019-08-06T16:06:38Z</time>
      </trkpt>
      <trkpt lat="48.8289120" lon="13.7986300">
        <ele>838.6</ele>
        <time>2019-08-06T16:06:39Z</time>
      </trkpt>
      <trkpt lat="48.8289090" lon="13.7986700">
        <ele>838.8</ele>
        <time>2019-08-06T16:06:40Z</time>
      </trkpt>
      <trkpt lat="48.8289070" lon="13.7987080">
        <ele>839.0</ele>
        <time>2019-08-06T16:06:41Z</time>
      </trkpt>
      <trkpt lat="48.8289070" lon="13.7987440">
        <ele>839.2</ele>
        <time>2019-08-06T16:06:42Z</time>
      </trkpt>
      <trkpt lat="48.8289070" lon="13.7987770">
        <ele>839.2</ele>
        <time>2019-08-06T16:06:43Z</time>
      </trkpt>
      <trkpt lat="48.8289090" lon="13.7988060">
        <ele>839.4</ele>
        <time>2019-08-06T16:06:44Z</time>
      </trkpt>
      <trkpt lat="48.8289140" lon="13.7988290">
        <ele>839.6</ele>
        <time>2019-08-06T16:06:45Z</time>
      </trkpt>
      <trkpt lat="48.8289240" lon="13.7988510">
        <ele>839.8</ele>
        <time>2019-08-06T16:06:46Z</time>
      </trkpt>
      <trkpt lat="48.8289370" lon="13.7988700">
        <ele>839.8</ele>
        <time>2019-08-06T16:06:47Z</time>
      </trkpt>
      <trkpt lat="48.8289540" lon="13.7988880">
        <ele>840.0</ele>
        <time>2019-08-06T16:06:48Z</time>
      </trkpt>
      <trkpt lat="48.8289740" lon="13.7989060">
        <ele>840.0</ele>
        <time>2019-08-06T16:06:49Z</time>
      </trkpt>
      <trkpt lat="48.8289970" lon="13.7989260">
        <ele>840.0</ele>
        <time>2019-08-06T16:06:50Z</time>
      </trkpt>
      <trkpt lat="48.8290200" lon="13.7989420">
        <ele>840.0</ele>
        <time>2019-08-06T16:06:51Z</time>
      </trkpt>
      <trkpt lat="48.8290440" lon="13.7989530">
        <ele>840.0</ele>
        <time>2019-08-06T16:06:52Z</time>
      </trkpt>
      <trkpt lat="48.8290660" lon="13.7989630">
        <ele>840.0</ele>
        <time>2019-08-06T16:06:53Z</time>
      </trkpt>
      <trkpt lat="48.8290890" lon="13.7989730">
        <ele>840.0</ele>
        <time>2019-08-06T16:06:54Z</time>
      </trkpt>
      <trkpt lat="48.8291140" lon="13.7989870">
        <ele>840.0</ele>
        <time>2019-08-06T16:06:55Z</time>
      </trkpt>
      <trkpt lat="48.8291430" lon="13.7990010">
        <ele>840.0</ele>
        <time>2019-08-06T16:06:56Z</time>
      </trkpt>
      <trkpt lat="48.8291720" lon="13.7990140">
        <ele>840.0</ele>
        <time>2019-08-06T16:06:57Z</time>
      </trkpt>
      <trkpt lat="48.8291970" lon="13.7990250">
        <ele>839.8</ele>
        <time>2019-08-06T16:06:58Z</time>
      </trkpt>
      <trkpt lat="48.8292250" lon="13.7990390">
        <ele>839.8</ele>
        <time>2019-08-06T16:06:59Z</time>
      </trkpt>
      <trkpt lat="48.8292630" lon="13.7990600">
        <ele>839.6</ele>
        <time>2019-08-06T16:07:00Z</time>
      </trkpt>
      <trkpt lat="48.8293060" lon="13.7990870">
        <ele>839.6</ele>
        <time>2019-08-06T16:07:01Z</time>
      </trkpt>
      <trkpt lat="48.8293510" lon="13.7991160">
        <ele>839.6</ele>
        <time>2019-08-06T16:07:02Z</time>
      </trkpt>
      <trkpt lat="48.8293970" lon="13.7991500">
        <ele>839.4</ele>
        <time>2019-08-06T16:07:03Z</time>
      </trkpt>
      <trkpt lat="48.8294430" lon="13.7991890">
        <ele>839.4</ele>
        <time>2019-08-06T16:07:04Z</time>
      </trkpt>
      <trkpt lat="48.8294900" lon="13.7992350">
        <ele>839.4</ele>
        <time>2019-08-06T16:07:05Z</time>
      </trkpt>
      <trkpt lat="48.8295360" lon="13.7992830">
        <ele>839.4</ele>
        <time>2019-08-06T16:07:06Z</time>
      </trkpt>
      <trkpt lat="48.8295830" lon="13.7993380">
        <ele>839.4</ele>
        <time>2019-08-06T16:07:07Z</time>
      </trkpt>
      <trkpt lat="48.8296290" lon="13.7993930">
        <ele>839.4</ele>
        <time>2019-08-06T16:07:08Z</time>
      </trkpt>
      <trkpt lat="48.8296710" lon="13.7994500">
        <ele>839.4</ele>
        <time>2019-08-06T16:07:09Z</time>
      </trkpt>
      <trkpt lat="48.8297130" lon="13.7995110">
        <ele>839.4</ele>
        <time>2019-08-06T16:07:10Z</time>
      </trkpt>
      <trkpt lat="48.8297520" lon="13.7995720">
        <ele>839.6</ele>
        <time>2019-08-06T16:07:11Z</time>
      </trkpt>
      <trkpt lat="48.8297890" lon="13.7996300">
        <ele>839.8</ele>
        <time>2019-08-06T16:07:12Z</time>
      </trkpt>
      <trkpt lat="48.8298270" lon="13.7996840">
        <ele>839.8</ele>
        <time>2019-08-06T16:07:13Z</time>
      </trkpt>
      <trkpt lat="48.8298650" lon="13.7997360">
        <ele>840.0</ele>
        <time>2019-08-06T16:07:14Z</time>
      </trkpt>
      <trkpt lat="48.8299030" lon="13.7997880">
        <ele>840.0</ele>
        <time>2019-08-06T16:07:15Z</time>
      </trkpt>
      <trkpt lat="48.8299380" lon="13.7998380">
        <ele>840.2</ele>
        <time>2019-08-06T16:07:16Z</time>
      </trkpt>
      <trkpt lat="48.8299740" lon="13.7998890">
        <ele>840.2</ele>
        <time>2019-08-06T16:07:17Z</time>
      </trkpt>
      <trkpt lat="48.8300110" lon="13.7999400">
        <ele>840.2</ele>
        <time>2019-08-06T16:07:18Z</time>
      </trkpt>
      <trkpt lat="48.8300450" lon="13.7999880">
        <ele>840.4</ele>
        <time>2019-08-06T16:07:19Z</time>
      </trkpt>
      <trkpt lat="48.8300770" lon="13.8000350">
        <ele>840.4</ele>
        <time>2019-08-06T16:07:20Z</time>
      </trkpt>
      <trkpt lat="48.8301100" lon="13.8000820">
        <ele>840.2</ele>
        <time>2019-08-06T16:07:21Z</time>
      </trkpt>
      <trkpt lat="48.8301450" lon="13.8001280">
        <ele>840.2</ele>
        <time>2019-08-06T16:07:22Z</time>
      </trkpt>
      <trkpt lat="48.8301820" lon="13.8001730">
        <ele>840.2</ele>
        <time>2019-08-06T16:07:23Z</time>
      </trkpt>
      <trkpt lat="48.8302220" lon="13.8002170">
        <ele>840.0</ele>
        <time>2019-08-06T16:07:24Z</time>
      </trkpt>
      <trkpt lat="48.8302620" lon="13.8002630">
        <ele>840.0</ele>
        <time>2019-08-06T16:07:25Z</time>
      </trkpt>
      <trkpt lat="48.8303000" lon="13.8003120">
        <ele>839.8</ele>
        <time>2019-08-06T16:07:26Z</time>
      </trkpt>
      <trkpt lat="48.8303400" lon="13.8003670">
        <ele>839.8</ele>
        <time>2019-08-06T16:07:27Z</time>
      </trkpt>
      <trkpt lat="48.8303790" lon="13.8004250">
        <ele>839.6</ele>
        <time>2019-08-06T16:07:28Z</time>
      </trkpt>
      <trkpt lat="48.8304190" lon="13.8004840">
        <ele>839.6</ele>
        <time>2019-08-06T16:07:29Z</time>
      </trkpt>
      <trkpt lat="48.8304580" lon="13.8005440">
        <ele>839.4</ele>
        <time>2019-08-06T16:07:30Z</time>
      </trkpt>
      <trkpt lat="48.8305000" lon="13.8006060">
        <ele>839.4</ele>
        <time>2019-08-06T16:07:31Z</time>
      </trkpt>
      <trkpt lat="48.8305420" lon="13.8006710">
        <ele>839.2</ele>
        <time>2019-08-06T16:07:32Z</time>
      </trkpt>
      <trkpt lat="48.8305860" lon="13.8007440">
        <ele>839.0</ele>
        <time>2019-08-06T16:07:33Z</time>
      </trkpt>
      <trkpt lat="48.8306320" lon="13.8008220">
        <ele>838.8</ele>
        <time>2019-08-06T16:07:34Z</time>
      </trkpt>
      <trkpt lat="48.8306760" lon="13.8008990">
        <ele>838.6</ele>
        <time>2019-08-06T16:07:35Z</time>
      </trkpt>
      <trkpt lat="48.8307230" lon="13.8009730">
        <ele>838.4</ele>
        <time>2019-08-06T16:07:36Z</time>
      </trkpt>
      <trkpt lat="48.8307710" lon="13.8010440">
        <ele>838.2</ele>
        <time>2019-08-06T16:07:37Z</time>
      </trkpt>
      <trkpt lat="48.8308210" lon="13.8011110">
        <ele>838.0</ele>
        <time>2019-08-06T16:07:38Z</time>
      </trkpt>
      <trkpt lat="48.8308730" lon="13.8011800">
        <ele>837.6</ele>
        <time>2019-08-06T16:07:39Z</time>
      </trkpt>
      <trkpt lat="48.8309250" lon="13.8012530">
        <ele>837.4</ele>
        <time>2019-08-06T16:07:40Z</time>
      </trkpt>
      <trkpt lat="48.8309800" lon="13.8013320">
        <ele>837.0</ele>
        <time>2019-08-06T16:07:41Z</time>
      </trkpt>
      <trkpt lat="48.8310380" lon="13.8014180">
        <ele>836.6</ele>
        <time>2019-08-06T16:07:42Z</time>
      </trkpt>
      <trkpt lat="48.8310980" lon="13.8015110">
        <ele>836.0</ele>
        <time>2019-08-06T16:07:43Z</time>
      </trkpt>
      <trkpt lat="48.8311610" lon="13.8016070">
        <ele>835.6</ele>
        <time>2019-08-06T16:07:44Z</time>
      </trkpt>
      <trkpt lat="48.8312280" lon="13.8017070">
        <ele>835.0</ele>
        <time>2019-08-06T16:07:45Z</time>
      </trkpt>
      <trkpt lat="48.8312930" lon="13.8018050">
        <ele>834.2</ele>
        <time>2019-08-06T16:07:46Z</time>
      </trkpt>
      <trkpt lat="48.8313570" lon="13.8018890">
        <ele>833.6</ele>
        <time>2019-08-06T16:07:47Z</time>
      </trkpt>
      <trkpt lat="48.8314210" lon="13.8019670">
        <ele>832.8</ele>
        <time>2019-08-06T16:07:48Z</time>
      </trkpt>
      <trkpt lat="48.8314840" lon="13.8020430">
        <ele>832.0</ele>
        <time>2019-08-06T16:07:49Z</time>
      </trkpt>
      <trkpt lat="48.8315460" lon="13.8021220">
        <ele>831.4</ele>
        <time>2019-08-06T16:07:50Z</time>
      </trkpt>
      <trkpt lat="48.8316110" lon="13.8022000">
        <ele>830.6</ele>
        <time>2019-08-06T16:07:51Z</time>
      </trkpt>
      <trkpt lat="48.8316810" lon="13.8022810">
        <ele>830.2</ele>
        <time>2019-08-06T16:07:52Z</time>
      </trkpt>
      <trkpt lat="48.8317510" lon="13.8023690">
        <ele>829.4</ele>
        <time>2019-08-06T16:07:53Z</time>
      </trkpt>
      <trkpt lat="48.8318210" lon="13.8024600">
        <ele>828.8</ele>
        <time>2019-08-06T16:07:54Z</time>
      </trkpt>
      <trkpt lat="48.8318950" lon="13.8025590">
        <ele>828.2</ele>
        <time>2019-08-06T16:07:55Z</time>
      </trkpt>
      <trkpt lat="48.8319760" lon="13.8026660">
        <ele>827.6</ele>
        <time>2019-08-06T16:07:56Z</time>
      </trkpt>
      <trkpt lat="48.8320670" lon="13.8027870">
        <ele>827.0</ele>
        <time>2019-08-06T16:07:57Z</time>
      </trkpt>
      <trkpt lat="48.8321720" lon="13.8029210">
        <ele>826.4</ele>
        <time>2019-08-06T16:07:58Z</time>
      </trkpt>
      <trkpt lat="48.8322680" lon="13.8030410">
        <ele>825.6</ele>
        <time>2019-08-06T16:07:59Z</time>
      </trkpt>
      <trkpt lat="48.8323600" lon="13.8031360">
        <ele>825.0</ele>
        <time>2019-08-06T16:08:00Z</time>
      </trkpt>
      <trkpt lat="48.8324490" lon="13.8032320">
        <ele>824.4</ele>
        <time>2019-08-06T16:08:01Z</time>
      </trkpt>
      <trkpt lat="48.8325440" lon="13.8033280">
        <ele>823.8</ele>
        <time>2019-08-06T16:08:02Z</time>
      </trkpt>
      <trkpt lat="48.8326550" lon="13.8034250">
        <ele>823.0</ele>
        <time>2019-08-06T16:08:03Z</time>
      </trkpt>
      <trkpt lat="48.8327690" lon="13.8035260">
        <ele>822.2</ele>
        <time>2019-08-06T16:08:04Z</time>
      </trkpt>
      <trkpt lat="48.8328750" lon="13.8036340">
        <ele>821.4</ele>
        <time>2019-08-06T16:08:05Z</time>
      </trkpt>
      <trkpt lat="48.8329780" lon="13.8037450">
        <ele>820.4</ele>
        <time>2019-08-06T16:08:06Z</time>
      </trkpt>
      <trkpt lat="48.8330910" lon="13.8038600">
        <ele>819.4</ele>
        <time>2019-08-06T16:08:07Z</time>
      </trkpt>
      <trkpt lat="48.8332040" lon="13.8039780">
        <ele>818.2</ele>
        <time>2019-08-06T16:08:08Z</time>
      </trkpt>
      <trkpt lat="48.8333160" lon="13.8040980">
        <ele>817.2</ele>
        <time>2019-08-06T16:08:09Z</time>
      </trkpt>
      <trkpt lat="48.8334280" lon="13.8042170">
        <ele>816.4</ele>
        <time>2019-08-06T16:08:10Z</time>
      </trkpt>
      <trkpt lat="48.8335410" lon="13.8043380">
        <ele>815.8</ele>
        <time>2019-08-06T16:08:11Z</time>
      </trkpt>
      <trkpt lat="48.8336490" lon="13.8044580">
        <ele>815.2</ele>
        <time>2019-08-06T16:08:12Z</time>
      </trkpt>
      <trkpt lat="48.8337520" lon="13.8045760">
        <ele>814.6</ele>
        <time>2019-08-06T16:08:13Z</time>
      </trkpt>
      <trkpt lat="48.8338510" lon="13.8047000">
        <ele>814.6</ele>
        <time>2019-08-06T16:08:14Z</time>
      </trkpt>
      <trkpt lat="48.8339430" lon="13.8048220">
        <ele>814.2</ele>
        <time>2019-08-06T16:08:15Z</time>
      </trkpt>
      <trkpt lat="48.8340310" lon="13.8049340">
        <ele>813.8</ele>
        <time>2019-08-06T16:08:16Z</time>
      </trkpt>
      <trkpt lat="48.8341140" lon="13.8050360">
        <ele>813.6</ele>
        <time>2019-08-06T16:08:17Z</time>
      </trkpt>
      <trkpt lat="48.8342000" lon="13.8051290">
        <ele>813.4</ele>
        <time>2019-08-06T16:08:18Z</time>
      </trkpt>
      <trkpt lat="48.8342850" lon="13.8052090">
        <ele>813.2</ele>
        <time>2019-08-06T16:08:19Z</time>
      </trkpt>
      <trkpt lat="48.8343640" lon="13.8052860">
        <ele>813.0</ele>
        <time>2019-08-06T16:08:20Z</time>
      </trkpt>
      <trkpt lat="48.8344430" lon="13.8053560">
        <ele>812.6</ele>
        <time>2019-08-06T16:08:21Z</time>
      </trkpt>
      <trkpt lat="48.8345230" lon="13.8054090">
        <ele>812.4</ele>
        <time>2019-08-06T16:08:22Z</time>
      </trkpt>
      <trkpt lat="48.8345980" lon="13.8054250">
        <ele>812.4</ele>
        <time>2019-08-06T16:08:23Z</time>
      </trkpt>
      <trkpt lat="48.8346670" lon="13.8054110">
        <ele>812.4</ele>
        <time>2019-08-06T16:08:24Z</time>
      </trkpt>
      <trkpt lat="48.8347320" lon="13.8053770">
        <ele>812.4</ele>
        <time>2019-08-06T16:08:25Z</time>
      </trkpt>
      <trkpt lat="48.8347910" lon="13.8053390">
        <ele>812.2</ele>
        <time>2019-08-06T16:08:26Z</time>
      </trkpt>
      <trkpt lat="48.8348550" lon="13.8052980">
        <ele>812.2</ele>
        <time>2019-08-06T16:08:27Z</time>
      </trkpt>
      <trkpt lat="48.8349210" lon="13.8052530">
        <ele>812.2</ele>
        <time>2019-08-06T16:08:28Z</time>
      </trkpt>
      <trkpt lat="48.8349820" lon="13.8052110">
        <ele>812.2</ele>
        <time>2019-08-06T16:08:29Z</time>
      </trkpt>
      <trkpt lat="48.8350440" lon="13.8051680">
        <ele>812.2</ele>
        <time>2019-08-06T16:08:30Z</time>
      </trkpt>
      <trkpt lat="48.8351070" lon="13.8051270">
        <ele>812.2</ele>
        <time>2019-08-06T16:08:31Z</time>
      </trkpt>
      <trkpt lat="48.8351690" lon="13.8050860">
        <ele>812.2</ele>
        <time>2019-08-06T16:08:32Z</time>
      </trkpt>
      <trkpt lat="48.8352310" lon="13.8050440">
        <ele>812.4</ele>
        <time>2019-08-06T16:08:33Z</time>
      </trkpt>
      <trkpt lat="48.8352930" lon="13.8050010">
        <ele>812.4</ele>
        <time>2019-08-06T16:08:34Z</time>
      </trkpt>
      <trkpt lat="48.8353500" lon="13.8049520">
        <ele>812.6</ele>
        <time>2019-08-06T16:08:35Z</time>
      </trkpt>
      <trkpt lat="48.8354080" lon="13.8049010">
        <ele>812.6</ele>
        <time>2019-08-06T16:08:36Z</time>
      </trkpt>
      <trkpt lat="48.8354690" lon="13.8048490">
        <ele>812.6</ele>
        <time>2019-08-06T16:08:37Z</time>
      </trkpt>
      <trkpt lat="48.8355310" lon="13.8048010">
        <ele>812.8</ele>
        <time>2019-08-06T16:08:38Z</time>
      </trkpt>
      <trkpt lat="48.8355920" lon="13.8047600">
        <ele>812.8</ele>
        <time>2019-08-06T16:08:39Z</time>
      </trkpt>
      <trkpt lat="48.8356560" lon="13.8047220">
        <ele>812.8</ele>
        <time>2019-08-06T16:08:40Z</time>
      </trkpt>
      <trkpt lat="48.8357200" lon="13.8046830">
        <ele>812.8</ele>
        <time>2019-08-06T16:08:41Z</time>
      </trkpt>
      <trkpt lat="48.8357820" lon="13.8046440">
        <ele>812.8</ele>
        <time>2019-08-06T16:08:42Z</time>
      </trkpt>
      <trkpt lat="48.8358410" lon="13.8046090">
        <ele>812.8</ele>
        <time>2019-08-06T16:08:43Z</time>
      </trkpt>
      <trkpt lat="48.8359040" lon="13.8045770">
        <ele>812.6</ele>
        <time>2019-08-06T16:08:44Z</time>
      </trkpt>
      <trkpt lat="48.8359660" lon="13.8045460">
        <ele>812.6</ele>
        <time>2019-08-06T16:08:45Z</time>
      </trkpt>
      <trkpt lat="48.8360310" lon="13.8045110">
        <ele>812.6</ele>
        <time>2019-08-06T16:08:46Z</time>
      </trkpt>
      <trkpt lat="48.8361050" lon="13.8044790">
        <ele>812.6</ele>
        <time>2019-08-06T16:08:47Z</time>
      </trkpt>
      <trkpt lat="48.8361790" lon="13.8044610">
        <ele>812.6</ele>
        <time>2019-08-06T16:08:48Z</time>
      </trkpt>
      <trkpt lat="48.8362440" lon="13.8044500">
        <ele>812.6</ele>
        <time>2019-08-06T16:08:49Z</time>
      </trkpt>
      <trkpt lat="48.8363010" lon="13.8044460">
        <ele>812.6</ele>
        <time>2019-08-06T16:08:50Z</time>
      </trkpt>
      <trkpt lat="48.8363610" lon="13.8044440">
        <ele>812.6</ele>
        <time>2019-08-06T16:08:51Z</time>
      </trkpt>
      <trkpt lat="48.8364200" lon="13.8044510">
        <ele>812.4</ele>
        <time>2019-08-06T16:08:52Z</time>
      </trkpt>
      <trkpt lat="48.8364750" lon="13.8044650">
        <ele>812.6</ele>
        <time>2019-08-06T16:08:53Z</time>
      </trkpt>
      <trkpt lat="48.8365340" lon="13.8044820">
        <ele>812.6</ele>
        <time>2019-08-06T16:08:54Z</time>
      </trkpt>
      <trkpt lat="48.8365940" lon="13.8045050">
        <ele>812.4</ele>
        <time>2019-08-06T16:08:55Z</time>
      </trkpt>
      <trkpt lat="48.8366540" lon="13.8045250">
        <ele>812.6</ele>
        <time>2019-08-06T16:08:56Z</time>
      </trkpt>
      <trkpt lat="48.8367130" lon="13.8045530">
        <ele>812.6</ele>
        <time>2019-08-06T16:08:57Z</time>
      </trkpt>
      <trkpt lat="48.8367770" lon="13.8045920">
        <ele>812.6</ele>
        <time>2019-08-06T16:08:58Z</time>
      </trkpt>
      <trkpt lat="48.8368450" lon="13.8046410">
        <ele>812.6</ele>
        <time>2019-08-06T16:08:59Z</time>
      </trkpt>
      <trkpt lat="48.8369170" lon="13.8046970">
        <ele>812.8</ele>
        <time>2019-08-06T16:09:00Z</time>
      </trkpt>
      <trkpt lat="48.8369920" lon="13.8047430">
        <ele>812.8</ele>
        <time>2019-08-06T16:09:01Z</time>
      </trkpt>
      <trkpt lat="48.8370610" lon="13.8047840">
        <ele>813.0</ele>
        <time>2019-08-06T16:09:02Z</time>
      </trkpt>
      <trkpt lat="48.8371310" lon="13.8048290">
        <ele>813.0</ele>
        <time>2019-08-06T16:09:03Z</time>
      </trkpt>
      <trkpt lat="48.8372000" lon="13.8048750">
        <ele>813.0</ele>
        <time>2019-08-06T16:09:04Z</time>
      </trkpt>
      <trkpt lat="48.8372730" lon="13.8049230">
        <ele>813.0</ele>
        <time>2019-08-06T16:09:05Z</time>
      </trkpt>
      <trkpt lat="48.8373400" lon="13.8049630">
        <ele>813.0</ele>
        <time>2019-08-06T16:09:06Z</time>
      </trkpt>
      <trkpt lat="48.8374110" lon="13.8050010">
        <ele>813.0</ele>
        <time>2019-08-06T16:09:07Z</time>
      </trkpt>
      <trkpt lat="48.8374810" lon="13.8050390">
        <ele>813.2</ele>
        <time>2019-08-06T16:09:08Z</time>
      </trkpt>
      <trkpt lat="48.8375440" lon="13.8050760">
        <ele>813.2</ele>
        <time>2019-08-06T16:09:09Z</time>
      </trkpt>
      <trkpt lat="48.8376080" lon="13.8051170">
        <ele>813.2</ele>
        <time>2019-08-06T16:09:10Z</time>
      </trkpt>
      <trkpt lat="48.8376730" lon="13.8051580">
        <ele>813.2</ele>
        <time>2019-08-06T16:09:11Z</time>
      </trkpt>
      <trkpt lat="48.8377390" lon="13.8051980">
        <ele>813.2</ele>
        <time>2019-08-06T16:09:12Z</time>
      </trkpt>
      <trkpt lat="48.8378080" lon="13.8052370">
        <ele>813.4</ele>
        <time>2019-08-06T16:09:13Z</time>
      </trkpt>
      <trkpt lat="48.8378790" lon="13.8052760">
        <ele>813.6</ele>
        <time>2019-08-06T16:09:14Z</time>
      </trkpt>
      <trkpt lat="48.8379540" lon="13.8053220">
        <ele>813.6</ele>
        <time>2019-08-06T16:09:15Z</time>
      </trkpt>
      <trkpt lat="48.8380260" lon="13.8053680">
        <ele>813.6</ele>
        <time>2019-08-06T16:09:16Z</time>
      </trkpt>
      <trkpt lat="48.8380950" lon="13.8054130">
        <ele>813.6</ele>
        <time>2019-08-06T16:09:17Z</time>
      </trkpt>
      <trkpt lat="48.8381640" lon="13.8054580">
        <ele>813.6</ele>
        <time>2019-08-06T16:09:18Z</time>
      </trkpt>
      <trkpt lat="48.8382320" lon="13.8055040">
        <ele>813.6</ele>
        <time>2019-08-06T16:09:19Z</time>
      </trkpt>
      <trkpt lat="48.8382990" lon="13.8055490">
        <ele>813.4</ele>
        <time>2019-08-06T16:09:20Z</time>
      </trkpt>
      <trkpt lat="48.8383650" lon="13.8055930">
        <ele>813.4</ele>
        <time>2019-08-06T16:09:21Z</time>
      </trkpt>
      <trkpt lat="48.8384290" lon="13.8056390">
        <ele>813.4</ele>
        <time>2019-08-06T16:09:22Z</time>
      </trkpt>
      <trkpt lat="48.8384860" lon="13.8056890">
        <ele>813.4</ele>
        <time>2019-08-06T16:09:23Z</time>
      </trkpt>
      <trkpt lat="48.8385420" lon="13.8057360">
        <ele>813.2</ele>
        <time>2019-08-06T16:09:24Z</time>
      </trkpt>
      <trkpt lat="48.8385980" lon="13.8057820">
        <ele>813.4</ele>
        <time>2019-08-06T16:09:25Z</time>
      </trkpt>
      <trkpt lat="48.8386510" lon="13.8058320">
        <ele>813.4</ele>
        <time>2019-08-06T16:09:26Z</time>
      </trkpt>
      <trkpt lat="48.8387100" lon="13.8058910">
        <ele>813.4</ele>
        <time>2019-08-06T16:09:27Z</time>
      </trkpt>
      <trkpt lat="48.8387690" lon="13.8059550">
        <ele>813.4</ele>
        <time>2019-08-06T16:09:28Z</time>
      </trkpt>
      <trkpt lat="48.8388290" lon="13.8060290">
        <ele>813.4</ele>
        <time>2019-08-06T16:09:29Z</time>
      </trkpt>
      <trkpt lat="48.8388880" lon="13.8061060">
        <ele>813.4</ele>
        <time>2019-08-06T16:09:30Z</time>
      </trkpt>
      <trkpt lat="48.8389430" lon="13.8061820">
        <ele>813.2</ele>
        <time>2019-08-06T16:09:31Z</time>
      </trkpt>
      <trkpt lat="48.8389980" lon="13.8062600">
        <ele>813.2</ele>
        <time>2019-08-06T16:09:32Z</time>
      </trkpt>
      <trkpt lat="48.8390490" lon="13.8063410">
        <ele>813.2</ele>
        <time>2019-08-06T16:09:33Z</time>
      </trkpt>
      <trkpt lat="48.8390990" lon="13.8064280">
        <ele>813.0</ele>
        <time>2019-08-06T16:09:34Z</time>
      </trkpt>
      <trkpt lat="48.8391470" lon="13.8065100">
        <ele>813.0</ele>
        <time>2019-08-06T16:09:35Z</time>
      </trkpt>
      <trkpt lat="48.8391940" lon="13.8065910">
        <ele>812.8</ele>
        <time>2019-08-06T16:09:36Z</time>
      </trkpt>
      <trkpt lat="48.8392390" lon="13.8066810">
        <ele>812.8</ele>
        <time>2019-08-06T16:09:37Z</time>
      </trkpt>
      <trkpt lat="48.8392810" lon="13.8067800">
        <ele>812.6</ele>
        <time>2019-08-06T16:09:38Z</time>
      </trkpt>
      <trkpt lat="48.8393150" lon="13.8068840">
        <ele>812.6</ele>
        <time>2019-08-06T16:09:39Z</time>
      </trkpt>
      <trkpt lat="48.8393400" lon="13.8069950">
        <ele>812.4</ele>
        <time>2019-08-06T16:09:40Z</time>
      </trkpt>
      <trkpt lat="48.8393600" lon="13.8071190">
        <ele>812.2</ele>
        <time>2019-08-06T16:09:41Z</time>
      </trkpt>
      <trkpt lat="48.8393690" lon="13.8072540">
        <ele>812.0</ele>
        <time>2019-08-06T16:09:42Z</time>
      </trkpt>
      <trkpt lat="48.8393660" lon="13.8073840">
        <ele>811.6</ele>
        <time>2019-08-06T16:09:43Z</time>
      </trkpt>
      <trkpt lat="48.8393600" lon="13.8075170">
        <ele>811.4</ele>
        <time>2019-08-06T16:09:44Z</time>
      </trkpt>
      <trkpt lat="48.8393560" lon="13.8076500">
        <ele>810.8</ele>
        <time>2019-08-06T16:09:45Z</time>
      </trkpt>
      <trkpt lat="48.8393530" lon="13.8077810">
        <ele>810.6</ele>
        <time>2019-08-06T16:09:46Z</time>
      </trkpt>
      <trkpt lat="48.8393550" lon="13.8079420">
        <ele>810.2</ele>
        <time>2019-08-06T16:09:47Z</time>
      </trkpt>
      <trkpt lat="48.8393600" lon="13.8080980">
        <ele>809.8</ele>
        <time>2019-08-06T16:09:48Z</time>
      </trkpt>
      <trkpt lat="48.8393820" lon="13.8082400">
        <ele>809.4</ele>
        <time>2019-08-06T16:09:49Z</time>
      </trkpt>
      <trkpt lat="48.8394140" lon="13.8083710">
        <ele>809.0</ele>
        <time>2019-08-06T16:09:50Z</time>
      </trkpt>
      <trkpt lat="48.8394550" lon="13.8084860">
        <ele>808.6</ele>
        <time>2019-08-06T16:09:51Z</time>
      </trkpt>
      <trkpt lat="48.8395230" lon="13.8086170">
        <ele>808.2</ele>
        <time>2019-08-06T16:09:52Z</time>
      </trkpt>
      <trkpt lat="48.8395960" lon="13.8087270">
        <ele>807.6</ele>
        <time>2019-08-06T16:09:53Z</time>
      </trkpt>
      <trkpt lat="48.8396730" lon="13.8088020">
        <ele>807.2</ele>
        <time>2019-08-06T16:09:54Z</time>
      </trkpt>
      <trkpt lat="48.8397500" lon="13.8088610">
        <ele>807.0</ele>
        <time>2019-08-06T16:09:55Z</time>
      </trkpt>
      <trkpt lat="48.8398290" lon="13.8089170">
        <ele>806.6</ele>
        <time>2019-08-06T16:09:56Z</time>
      </trkpt>
      <trkpt lat="48.8399100" lon="13.8089740">
        <ele>806.4</ele>
        <time>2019-08-06T16:09:57Z</time>
      </trkpt>
      <trkpt lat="48.8399970" lon="13.8090520">
        <ele>806.2</ele>
        <time>2019-08-06T16:09:58Z</time>
      </trkpt>
      <trkpt lat="48.8400770" lon="13.8091270">
        <ele>806.0</ele>
        <time>2019-08-06T16:09:59Z</time>
      </trkpt>
      <trkpt lat="48.8401500" lon="13.8091950">
        <ele>806.0</ele>
        <time>2019-08-06T16:10:00Z</time>
      </trkpt>
      <trkpt lat="48.8402230" lon="13.8092590">
        <ele>806.0</ele>
        <time>2019-08-06T16:10:01Z</time>
      </trkpt>
      <trkpt lat="48.8402950" lon="13.8093200">
        <ele>806.0</ele>
        <time>2019-08-06T16:10:02Z</time>
      </trkpt>
      <trkpt lat="48.8403750" lon="13.8093840">
        <ele>805.8</ele>
        <time>2019-08-06T16:10:03Z</time>
      </trkpt>
      <trkpt lat="48.8404530" lon="13.8094440">
        <ele>806.0</ele>
        <time>2019-08-06T16:10:04Z</time>
      </trkpt>
      <trkpt lat="48.8405280" lon="13.8095000">
        <ele>806.0</ele>
        <time>2019-08-06T16:10:05Z</time>
      </trkpt>
      <trkpt lat="48.8405990" lon="13.8095520">
        <ele>805.8</ele>
        <time>2019-08-06T16:10:06Z</time>
      </trkpt>
      <trkpt lat="48.8406730" lon="13.8096080">
        <ele>805.8</ele>
        <time>2019-08-06T16:10:07Z</time>
      </trkpt>
      <trkpt lat="48.8407510" lon="13.8096640">
        <ele>805.8</ele>
        <time>2019-08-06T16:10:08Z</time>
      </trkpt>
      <trkpt lat="48.8408260" lon="13.8097150">
        <ele>805.6</ele>
        <time>2019-08-06T16:10:09Z</time>
      </trkpt>
      <trkpt lat="48.8409010" lon="13.8097640">
        <ele>805.6</ele>
        <time>2019-08-06T16:10:10Z</time>
      </trkpt>
      <trkpt lat="48.8409750" lon="13.8098050">
        <ele>805.6</ele>
        <time>2019-08-06T16:10:11Z</time>
      </trkpt>
      <trkpt lat="48.8410450" lon="13.8098390">
        <ele>805.6</ele>
        <time>2019-08-06T16:10:12Z</time>
      </trkpt>
      <trkpt lat="48.8411140" lon="13.8098740">
        <ele>805.8</ele>
        <time>2019-08-06T16:10:13Z</time>
      </trkpt>
      <trkpt lat="48.8411830" lon="13.8099040">
        <ele>805.8</ele>
        <time>2019-08-06T16:10:14Z</time>
      </trkpt>
      <trkpt lat="48.8412500" lon="13.8099230">
        <ele>806.0</ele>
        <time>2019-08-06T16:10:15Z</time>
      </trkpt>
      <trkpt lat="48.8413150" lon="13.8099320">
        <ele>806.0</ele>
        <time>2019-08-06T16:10:16Z</time>
      </trkpt>
      <trkpt lat="48.8413830" lon="13.8099310">
        <ele>806.2</ele>
        <time>2019-08-06T16:10:17Z</time>
      </trkpt>
      <trkpt lat="48.8414520" lon="13.8099270">
        <ele>806.4</ele>
        <time>2019-08-06T16:10:18Z</time>
      </trkpt>
      <trkpt lat="48.8415210" lon="13.8099180">
        <ele>806.4</ele>
        <time>2019-08-06T16:10:19Z</time>
      </trkpt>
      <trkpt lat="48.8415890" lon="13.8099130">
        <ele>806.6</ele>
        <time>2019-08-06T16:10:20Z</time>
      </trkpt>
      <trkpt lat="48.8416560" lon="13.8099100">
        <ele>806.8</ele>
        <time>2019-08-06T16:10:21Z</time>
      </trkpt>
      <trkpt lat="48.8417240" lon="13.8099140">
        <ele>807.0</ele>
        <time>2019-08-06T16:10:22Z</time>
      </trkpt>
      <trkpt lat="48.8417930" lon="13.8099240">
        <ele>807.2</ele>
        <time>2019-08-06T16:10:23Z</time>
      </trkpt>
      <trkpt lat="48.8418620" lon="13.8099430">
        <ele>807.2</ele>
        <time>2019-08-06T16:10:24Z</time>
      </trkpt>
      <trkpt lat="48.8419290" lon="13.8099680">
        <ele>807.4</ele>
        <time>2019-08-06T16:10:25Z</time>
      </trkpt>
      <trkpt lat="48.8419930" lon="13.8099940">
        <ele>807.4</ele>
        <time>2019-08-06T16:10:26Z</time>
      </trkpt>
      <trkpt lat="48.8420590" lon="13.8100250">
        <ele>807.6</ele>
        <time>2019-08-06T16:10:27Z</time>
      </trkpt>
      <trkpt lat="48.8421250" lon="13.8100610">
        <ele>807.6</ele>
        <time>2019-08-06T16:10:28Z</time>
      </trkpt>
      <trkpt lat="48.8421780" lon="13.8100950">
        <ele>807.8</ele>
        <time>2019-08-06T16:10:29Z</time>
      </trkpt>
      <trkpt lat="48.8422380" lon="13.8101400">
        <ele>807.8</ele>
        <time>2019-08-06T16:10:30Z</time>
      </trkpt>
      <trkpt lat="48.8423010" lon="13.8101900">
        <ele>807.8</ele>
        <time>2019-08-06T16:10:31Z</time>
      </trkpt>
      <trkpt lat="48.8423550" lon="13.8102340">
        <ele>808.0</ele>
        <time>2019-08-06T16:10:32Z</time>
      </trkpt>
      <trkpt lat="48.8424080" lon="13.8102760">
        <ele>808.2</ele>
        <time>2019-08-06T16:10:33Z</time>
      </trkpt>
      <trkpt lat="48.8424570" lon="13.8103170">
        <ele>808.4</ele>
        <time>2019-08-06T16:10:34Z</time>
      </trkpt>
      <trkpt lat="48.8425030" lon="13.8103550">
        <ele>808.4</ele>
        <time>2019-08-06T16:10:35Z</time>
      </trkpt>
      <trkpt lat="48.8425470" lon="13.8103910">
        <ele>808.6</ele>
        <time>2019-08-06T16:10:36Z</time>
      </trkpt>
      <trkpt lat="48.8425860" lon="13.8104210">
        <ele>808.8</ele>
        <time>2019-08-06T16:10:37Z</time>
      </trkpt>
      <trkpt lat="48.8426250" lon="13.8104500">
        <ele>809.0</ele>
        <time>2019-08-06T16:10:38Z</time>
      </trkpt>
      <trkpt lat="48.8426600" lon="13.8104800">
        <ele>809.2</ele>
        <time>2019-08-06T16:10:39Z</time>
      </trkpt>
      <trkpt lat="48.8426940" lon="13.8105100">
        <ele>809.4</ele>
        <time>2019-08-06T16:10:40Z</time>
      </trkpt>
      <trkpt lat="48.8427260" lon="13.8105370">
        <ele>809.6</ele>
        <time>2019-08-06T16:10:41Z</time>
      </trkpt>
      <trkpt lat="48.8427590" lon="13.8105630">
        <ele>809.8</ele>
        <time>2019-08-06T16:10:42Z</time>
      </trkpt>
      <trkpt lat="48.8427910" lon="13.8105860">
        <ele>810.0</ele>
        <time>2019-08-06T16:10:43Z</time>
      </trkpt>
      <trkpt lat="48.8428200" lon="13.8106060">
        <ele>810.2</ele>
        <time>2019-08-06T16:10:44Z</time>
      </trkpt>
      <trkpt lat="48.8428500" lon="13.8106290">
        <ele>810.4</ele>
        <time>2019-08-06T16:10:45Z</time>
      </trkpt>
      <trkpt lat="48.8428790" lon="13.8106550">
        <ele>810.6</ele>
        <time>2019-08-06T16:10:46Z</time>
      </trkpt>
      <trkpt lat="48.8429080" lon="13.8106810">
        <ele>810.8</ele>
        <time>2019-08-06T16:10:47Z</time>
      </trkpt>
      <trkpt lat="48.8429350" lon="13.8107040">
        <ele>811.0</ele>
        <time>2019-08-06T16:10:48Z</time>
      </trkpt>
      <trkpt lat="48.8429610" lon="13.8107250">
        <ele>811.2</ele>
        <time>2019-08-06T16:10:49Z</time>
      </trkpt>
      <trkpt lat="48.8429890" lon="13.8107430">
        <ele>811.2</ele>
        <time>2019-08-06T16:10:50Z</time>
      </trkpt>
      <trkpt lat="48.8430180" lon="13.8107630">
        <ele>811.4</ele>
        <time>2019-08-06T16:10:51Z</time>
      </trkpt>
      <trkpt lat="48.8430490" lon="13.8107850">
        <ele>811.6</ele>
        <time>2019-08-06T16:10:52Z</time>
      </trkpt>
      <trkpt lat="48.8430790" lon="13.8108070">
        <ele>811.8</ele>
        <time>2019-08-06T16:10:53Z</time>
      </trkpt>
      <trkpt lat="48.8431040" lon="13.8108250">
        <ele>812.0</ele>
        <time>2019-08-06T16:10:54Z</time>
      </trkpt>
      <trkpt lat="48.8431280" lon="13.8108430">
        <ele>812.2</ele>
        <time>2019-08-06T16:10:55Z</time>
      </trkpt>
      <trkpt lat="48.8431520" lon="13.8108630">
        <ele>812.4</ele>
        <time>2019-08-06T16:10:56Z</time>
      </trkpt>
      <trkpt lat="48.8431770" lon="13.8108800">
        <ele>812.6</ele>
        <time>2019-08-06T16:10:57Z</time>
      </trkpt>
      <trkpt lat="48.8431980" lon="13.8108970">
        <ele>812.8</ele>
        <time>2019-08-06T16:10:58Z</time>
      </trkpt>
      <trkpt lat="48.8432190" lon="13.8109180">
        <ele>813.2</ele>
        <time>2019-08-06T16:10:59Z</time>
      </trkpt>
      <trkpt lat="48.8432400" lon="13.8109390">
        <ele>813.4</ele>
        <time>2019-08-06T16:11:00Z</time>
      </trkpt>
      <trkpt lat="48.8432610" lon="13.8109610">
        <ele>813.6</ele>
        <time>2019-08-06T16:11:01Z</time>
      </trkpt>
      <trkpt lat="48.8432800" lon="13.8109800">
        <ele>813.8</ele>
        <time>2019-08-06T16:11:02Z</time>
      </trkpt>
      <trkpt lat="48.8433020" lon="13.8110000">
        <ele>814.0</ele>
        <time>2019-08-06T16:11:03Z</time>
      </trkpt>
      <trkpt lat="48.8433280" lon="13.8110200">
        <ele>814.2</ele>
        <time>2019-08-06T16:11:04Z</time>
      </trkpt>
      <trkpt lat="48.8433520" lon="13.8110360">
        <ele>814.4</ele>
        <time>2019-08-06T16:11:05Z</time>
      </trkpt>
      <trkpt lat="48.8433760" lon="13.8110540">
        <ele>814.6</ele>
        <time>2019-08-06T16:11:06Z</time>
      </trkpt>
      <trkpt lat="48.8434030" lon="13.8110750">
        <ele>814.8</ele>
        <time>2019-08-06T16:11:07Z</time>
      </trkpt>
      <trkpt lat="48.8434300" lon="13.8110970">
        <ele>815.0</ele>
        <time>2019-08-06T16:11:08Z</time>
      </trkpt>
      <trkpt lat="48.8434550" lon="13.8111150">
        <ele>815.2</ele>
        <time>2019-08-06T16:11:09Z</time>
      </trkpt>
      <trkpt lat="48.8434800" lon="13.8111360">
        <ele>815.4</ele>
        <time>2019-08-06T16:11:10Z</time>
      </trkpt>
      <trkpt lat="48.8435060" lon="13.8111580">
        <ele>815.6</ele>
        <time>2019-08-06T16:11:11Z</time>
      </trkpt>
      <trkpt lat="48.8435300" lon="13.8111760">
        <ele>815.8</ele>
        <time>2019-08-06T16:11:12Z</time>
      </trkpt>
      <trkpt lat="48.8435540" lon="13.8111900">
        <ele>816.0</ele>
        <time>2019-08-06T16:11:13Z</time>
      </trkpt>
      <trkpt lat="48.8435780" lon="13.8112060">
        <ele>816.2</ele>
        <time>2019-08-06T16:11:14Z</time>
      </trkpt>
      <trkpt lat="48.8436030" lon="13.8112220">
        <ele>816.4</ele>
        <time>2019-08-06T16:11:15Z</time>
      </trkpt>
      <trkpt lat="48.8436280" lon="13.8112370">
        <ele>816.6</ele>
        <time>2019-08-06T16:11:16Z</time>
      </trkpt>
      <trkpt lat="48.8436530" lon="13.8112530">
        <ele>816.8</ele>
        <time>2019-08-06T16:11:17Z</time>
      </trkpt>
      <trkpt lat="48.8436770" lon="13.8112660">
        <ele>817.0</ele>
        <time>2019-08-06T16:11:18Z</time>
      </trkpt>
      <trkpt lat="48.8436980" lon="13.8112780">
        <ele>817.2</ele>
        <time>2019-08-06T16:11:19Z</time>
      </trkpt>
      <trkpt lat="48.8437190" lon="13.8112890">
        <ele>817.4</ele>
        <time>2019-08-06T16:11:20Z</time>
      </trkpt>
      <trkpt lat="48.8437410" lon="13.8113010">
        <ele>817.6</ele>
        <time>2019-08-06T16:11:21Z</time>
      </trkpt>
      <trkpt lat="48.8437600" lon="13.8113150">
        <ele>818.0</ele>
        <time>2019-08-06T16:11:22Z</time>
      </trkpt>
      <trkpt lat="48.8437790" lon="13.8113310">
        <ele>818.0</ele>
        <time>2019-08-06T16:11:23Z</time>
      </trkpt>
      <trkpt lat="48.8437970" lon="13.8113410">
        <ele>818.2</ele>
        <time>2019-08-06T16:11:24Z</time>
      </trkpt>
      <trkpt lat="48.8438180" lon="13.8113480">
        <ele>818.4</ele>
        <time>2019-08-06T16:11:25Z</time>
      </trkpt>
      <trkpt lat="48.8438360" lon="13.8113580">
        <ele>818.6</ele>
        <time>2019-08-06T16:11:26Z</time>
      </trkpt>
      <trkpt lat="48.8438570" lon="13.8113710">
        <ele>818.8</ele>
        <time>2019-08-06T16:11:27Z</time>
      </trkpt>
      <trkpt lat="48.8438800" lon="13.8113850">
        <ele>819.0</ele>
        <time>2019-08-06T16:11:28Z</time>
      </trkpt>
      <trkpt lat="48.8439000" lon="13.8113970">
        <ele>819.2</ele>
        <time>2019-08-06T16:11:29Z</time>
      </trkpt>
      <trkpt lat="48.8439190" lon="13.8114030">
        <ele>819.4</ele>
        <time>2019-08-06T16:11:30Z</time>
      </trkpt>
      <trkpt lat="48.8439360" lon="13.8114120">
        <ele>819.6</ele>
        <time>2019-08-06T16:11:31Z</time>
      </trkpt>
      <trkpt lat="48.8439550" lon="13.8114210">
        <ele>819.6</ele>
        <time>2019-08-06T16:11:32Z</time>
      </trkpt>
      <trkpt lat="48.8439740" lon="13.8114260">
        <ele>819.8</ele>
        <time>2019-08-06T16:11:33Z</time>
      </trkpt>
      <trkpt lat="48.8439920" lon="13.8114270">
        <ele>820.0</ele>
        <time>2019-08-06T16:11:34Z</time>
      </trkpt>
      <trkpt lat="48.8440130" lon="13.8114290">
        <ele>820.0</ele>
        <time>2019-08-06T16:11:35Z</time>
      </trkpt>
      <trkpt lat="48.8440340" lon="13.8114370">
        <ele>820.2</ele>
        <time>2019-08-06T16:11:36Z</time>
      </trkpt>
      <trkpt lat="48.8440560" lon="13.8114490">
        <ele>820.4</ele>
        <time>2019-08-06T16:11:37Z</time>
      </trkpt>
      <trkpt lat="48.8440790" lon="13.8114590">
        <ele>820.4</ele>
        <time>2019-08-06T16:11:38Z</time>
      </trkpt>
      <trkpt lat="48.8441030" lon="13.8114690">
        <ele>820.6</ele>
        <time>2019-08-06T16:11:39Z</time>
      </trkpt>
      <trkpt lat="48.8441270" lon="13.8114810">
        <ele>820.6</ele>
        <time>2019-08-06T16:11:40Z</time>
      </trkpt>
      <trkpt lat="48.8441490" lon="13.8114900">
        <ele>820.8</ele>
        <time>2019-08-06T16:11:41Z</time>
      </trkpt>
      <trkpt lat="48.8441720" lon="13.8115060">
        <ele>820.8</ele>
        <time>2019-08-06T16:11:42Z</time>
      </trkpt>
      <trkpt lat="48.8441940" lon="13.8115300">
        <ele>821.0</ele>
        <time>2019-08-06T16:11:43Z</time>
      </trkpt>
      <trkpt lat="48.8442190" lon="13.8115600">
        <ele>821.2</ele>
        <time>2019-08-06T16:11:44Z</time>
      </trkpt>
      <trkpt lat="48.8442490" lon="13.8115940">
        <ele>821.2</ele>
        <time>2019-08-06T16:11:45Z</time>
      </trkpt>
      <trkpt lat="48.8442790" lon="13.8116230">
        <ele>821.4</ele>
        <time>2019-08-06T16:11:46Z</time>
      </trkpt>
      <trkpt lat="48.8443090" lon="13.8116510">
        <ele>821.6</ele>
        <time>2019-08-06T16:11:47Z</time>
      </trkpt>
      <trkpt lat="48.8443350" lon="13.8116730">
        <ele>821.6</ele>
        <time>2019-08-06T16:11:48Z</time>
      </trkpt>
      <trkpt lat="48.8443590" lon="13.8116950">
        <ele>821.8</ele>
        <time>2019-08-06T16:11:49Z</time>
      </trkpt>
      <trkpt lat="48.8443850" lon="13.8117200">
        <ele>822.0</ele>
        <time>2019-08-06T16:11:50Z</time>
      </trkpt>
      <trkpt lat="48.8444120" lon="13.8117450">
        <ele>822.0</ele>
        <time>2019-08-06T16:11:51Z</time>
      </trkpt>
      <trkpt lat="48.8444430" lon="13.8117730">
        <ele>822.2</ele>
        <time>2019-08-06T16:11:52Z</time>
      </trkpt>
      <trkpt lat="48.8444760" lon="13.8118010">
        <ele>822.2</ele>
        <time>2019-08-06T16:11:53Z</time>
      </trkpt>
      <trkpt lat="48.8445090" lon="13.8118270">
        <ele>822.4</ele>
        <time>2019-08-06T16:11:54Z</time>
      </trkpt>
      <trkpt lat="48.8445410" lon="13.8118480">
        <ele>822.6</ele>
        <time>2019-08-06T16:11:55Z</time>
      </trkpt>
      <trkpt lat="48.8445710" lon="13.8118680">
        <ele>822.6</ele>
        <time>2019-08-06T16:11:56Z</time>
      </trkpt>
      <trkpt lat="48.8446050" lon="13.8118870">
        <ele>822.8</ele>
        <time>2019-08-06T16:11:57Z</time>
      </trkpt>
      <trkpt lat="48.8446400" lon="13.8119050">
        <ele>822.8</ele>
        <time>2019-08-06T16:11:58Z</time>
      </trkpt>
      <trkpt lat="48.8446740" lon="13.8119170">
        <ele>823.0</ele>
        <time>2019-08-06T16:11:59Z</time>
      </trkpt>
      <trkpt lat="48.8447060" lon="13.8119220">
        <ele>823.0</ele>
        <time>2019-08-06T16:12:00Z</time>
      </trkpt>
      <trkpt lat="48.8447340" lon="13.8119270">
        <ele>823.2</ele>
        <time>2019-08-06T16:12:01Z</time>
      </trkpt>
      <trkpt lat="48.8447660" lon="13.8119390">
        <ele>823.2</ele>
        <time>2019-08-06T16:12:02Z</time>
      </trkpt>
      <trkpt lat="48.8448040" lon="13.8119540">
        <ele>823.2</ele>
        <time>2019-08-06T16:12:03Z</time>
      </trkpt>
      <trkpt lat="48.8448420" lon="13.8119630">
        <ele>823.4</ele>
        <time>2019-08-06T16:12:04Z</time>
      </trkpt>
      <trkpt lat="48.8448830" lon="13.8119680">
        <ele>823.4</ele>
        <time>2019-08-06T16:12:05Z</time>
      </trkpt>
      <trkpt lat="48.8449230" lon="13.8119800">
        <ele>823.4</ele>
        <time>2019-08-06T16:12:06Z</time>
      </trkpt>
      <trkpt lat="48.8449690" lon="13.8119960">
        <ele>823.4</ele>
        <time>2019-08-06T16:12:07Z</time>
      </trkpt>
      <trkpt lat="48.8450170" lon="13.8120110">
        <ele>823.4</ele>
        <time>2019-08-06T16:12:08Z</time>
      </trkpt>
      <trkpt lat="48.8450580" lon="13.8120170">
        <ele>823.4</ele>
        <time>2019-08-06T16:12:09Z</time>
      </trkpt>
      <trkpt lat="48.8450970" lon="13.8120170">
        <ele>823.6</ele>
        <time>2019-08-06T16:12:10Z</time>
      </trkpt>
      <trkpt lat="48.8451410" lon="13.8120220">
        <ele>823.6</ele>
        <time>2019-08-06T16:12:11Z</time>
      </trkpt>
      <trkpt lat="48.8451870" lon="13.8120290">
        <ele>823.6</ele>
        <time>2019-08-06T16:12:12Z</time>
      </trkpt>
      <trkpt lat="48.8452340" lon="13.8120330">
        <ele>823.6</ele>
        <time>2019-08-06T16:12:13Z</time>
      </trkpt>
      <trkpt lat="48.8452820" lon="13.8120370">
        <ele>823.6</ele>
        <time>2019-08-06T16:12:14Z</time>
      </trkpt>
      <trkpt lat="48.8453280" lon="13.8120420">
        <ele>823.8</ele>
        <time>2019-08-06T16:12:15Z</time>
      </trkpt>
      <trkpt lat="48.8453750" lon="13.8120470">
        <ele>823.8</ele>
        <time>2019-08-06T16:12:16Z</time>
      </trkpt>
      <trkpt lat="48.8454200" lon="13.8120500">
        <ele>823.8</ele>
        <time>2019-08-06T16:12:17Z</time>
      </trkpt>
      <trkpt lat="48.8454680" lon="13.8120540">
        <ele>823.8</ele>
        <time>2019-08-06T16:12:18Z</time>
      </trkpt>
      <trkpt lat="48.8455190" lon="13.8120550">
        <ele>823.8</ele>
        <time>2019-08-06T16:12:19Z</time>
      </trkpt>
      <trkpt lat="48.8455700" lon="13.8120570">
        <ele>823.8</ele>
        <time>2019-08-06T16:12:20Z</time>
      </trkpt>
      <trkpt lat="48.8456190" lon="13.8120610">
        <ele>823.6</ele>
        <time>2019-08-06T16:12:21Z</time>
      </trkpt>
      <trkpt lat="48.8456720" lon="13.8120650">
        <ele>823.6</ele>
        <time>2019-08-06T16:12:22Z</time>
      </trkpt>
      <trkpt lat="48.8457290" lon="13.8120720">
        <ele>823.6</ele>
        <time>2019-08-06T16:12:23Z</time>
      </trkpt>
      <trkpt lat="48.8457890" lon="13.8120810">
        <ele>823.4</ele>
        <time>2019-08-06T16:12:24Z</time>
      </trkpt>
      <trkpt lat="48.8458540" lon="13.8120900">
        <ele>823.4</ele>
        <time>2019-08-06T16:12:25Z</time>
      </trkpt>
      <trkpt lat="48.8459190" lon="13.8121100">
        <ele>823.2</ele>
        <time>2019-08-06T16:12:26Z</time>
      </trkpt>
      <trkpt lat="48.8459860" lon="13.8121340">
        <ele>823.0</ele>
        <time>2019-08-06T16:12:27Z</time>
      </trkpt>
      <trkpt lat="48.8460580" lon="13.8121570">
        <ele>822.8</ele>
        <time>2019-08-06T16:12:28Z</time>
      </trkpt>
      <trkpt lat="48.8461280" lon="13.8121820">
        <ele>822.6</ele>
        <time>2019-08-06T16:12:29Z</time>
      </trkpt>
      <trkpt lat="48.8461960" lon="13.8122120">
        <ele>822.6</ele>
        <time>2019-08-06T16:12:30Z</time>
      </trkpt>
      <trkpt lat="48.8462620" lon="13.8122480">
        <ele>822.6</ele>
        <time>2019-08-06T16:12:31Z</time>
      </trkpt>
      <trkpt lat="48.8463190" lon="13.8122950">
        <ele>822.4</ele>
        <time>2019-08-06T16:12:32Z</time>
      </trkpt>
      <trkpt lat="48.8463720" lon="13.8123510">
        <ele>822.4</ele>
        <time>2019-08-06T16:12:33Z</time>
      </trkpt>
      <trkpt lat="48.8464270" lon="13.8124090">
        <ele>822.4</ele>
        <time>2019-08-06T16:12:34Z</time>
      </trkpt>
      <trkpt lat="48.8464830" lon="13.8124600">
        <ele>822.4</ele>
        <time>2019-08-06T16:12:35Z</time>
      </trkpt>
      <trkpt lat="48.8465340" lon="13.8125070">
        <ele>822.4</ele>
        <time>2019-08-06T16:12:36Z</time>
      </trkpt>
      <trkpt lat="48.8465840" lon="13.8125590">
        <ele>822.4</ele>
        <time>2019-08-06T16:12:37Z</time>
      </trkpt>
      <trkpt lat="48.8466380" lon="13.8126180">
        <ele>822.4</ele>
        <time>2019-08-06T16:12:38Z</time>
      </trkpt>
      <trkpt lat="48.8466910" lon="13.8126760">
        <ele>822.6</ele>
        <time>2019-08-06T16:12:39Z</time>
      </trkpt>
      <trkpt lat="48.8467460" lon="13.8127330">
        <ele>822.6</ele>
        <time>2019-08-06T16:12:40Z</time>
      </trkpt>
      <trkpt lat="48.8468010" lon="13.8127880">
        <ele>822.6</ele>
        <time>2019-08-06T16:12:41Z</time>
      </trkpt>
      <trkpt lat="48.8468590" lon="13.8128450">
        <ele>822.6</ele>
        <time>2019-08-06T16:12:42Z</time>
      </trkpt>
      <trkpt lat="48.8469220" lon="13.8129030">
        <ele>822.4</ele>
        <time>2019-08-06T16:12:43Z</time>
      </trkpt>
      <trkpt lat="48.8469820" lon="13.8129550">
        <ele>822.4</ele>
        <time>2019-08-06T16:12:44Z</time>
      </trkpt>
      <trkpt lat="48.8470460" lon="13.8130130">
        <ele>822.4</ele>
        <time>2019-08-06T16:12:45Z</time>
      </trkpt>
      <trkpt lat="48.8471050" lon="13.8130710">
        <ele>822.2</ele>
        <time>2019-08-06T16:12:46Z</time>
      </trkpt>
      <trkpt lat="48.8471670" lon="13.8131340">
        <ele>822.2</ele>
        <time>2019-08-06T16:12:47Z</time>
      </trkpt>
      <trkpt lat="48.8472300" lon="13.8132010">
        <ele>822.2</ele>
        <time>2019-08-06T16:12:48Z</time>
      </trkpt>
      <trkpt lat="48.8472940" lon="13.8132720">
        <ele>822.2</ele>
        <time>2019-08-06T16:12:49Z</time>
      </trkpt>
      <trkpt lat="48.8473580" lon="13.8133470">
        <ele>822.0</ele>
        <time>2019-08-06T16:12:50Z</time>
      </trkpt>
      <trkpt lat="48.8474210" lon="13.8134240">
        <ele>821.8</ele>
        <time>2019-08-06T16:12:51Z</time>
      </trkpt>
      <trkpt lat="48.8474830" lon="13.8135070">
        <ele>821.6</ele>
        <time>2019-08-06T16:12:52Z</time>
      </trkpt>
      <trkpt lat="48.8475420" lon="13.8135920">
        <ele>821.4</ele>
        <time>2019-08-06T16:12:53Z</time>
      </trkpt>
      <trkpt lat="48.8476000" lon="13.8136760">
        <ele>821.2</ele>
        <time>2019-08-06T16:12:54Z</time>
      </trkpt>
      <trkpt lat="48.8476600" lon="13.8137600">
        <ele>821.0</ele>
        <time>2019-08-06T16:12:55Z</time>
      </trkpt>
      <trkpt lat="48.8477180" lon="13.8138410">
        <ele>820.8</ele>
        <time>2019-08-06T16:12:56Z</time>
      </trkpt>
      <trkpt lat="48.8477780" lon="13.8139240">
        <ele>820.6</ele>
        <time>2019-08-06T16:12:57Z</time>
      </trkpt>
      <trkpt lat="48.8478400" lon="13.8140080">
        <ele>820.4</ele>
        <time>2019-08-06T16:12:58Z</time>
      </trkpt>
      <trkpt lat="48.8479030" lon="13.8140930">
        <ele>820.2</ele>
        <time>2019-08-06T16:12:59Z</time>
      </trkpt>
      <trkpt lat="48.8479600" lon="13.8141720">
        <ele>820.0</ele>
        <time>2019-08-06T16:13:00Z</time>
      </trkpt>
      <trkpt lat="48.8480270" lon="13.8142630">
        <ele>820.0</ele>
        <time>2019-08-06T16:13:01Z</time>
      </trkpt>
      <trkpt lat="48.8480930" lon="13.8143550">
        <ele>819.8</ele>
        <time>2019-08-06T16:13:02Z</time>
      </trkpt>
      <trkpt lat="48.8481550" lon="13.8144500">
        <ele>819.6</ele>
        <time>2019-08-06T16:13:03Z</time>
      </trkpt>
      <trkpt lat="48.8482150" lon="13.8145510">
        <ele>819.4</ele>
        <time>2019-08-06T16:13:04Z</time>
      </trkpt>
      <trkpt lat="48.8482740" lon="13.8146570">
        <ele>819.4</ele>
        <time>2019-08-06T16:13:05Z</time>
      </trkpt>
      <trkpt lat="48.8483280" lon="13.8147530">
        <ele>819.2</ele>
        <time>2019-08-06T16:13:06Z</time>
      </trkpt>
      <trkpt lat="48.8483860" lon="13.8148520">
        <ele>819.0</ele>
        <time>2019-08-06T16:13:07Z</time>
      </trkpt>
      <trkpt lat="48.8484450" lon="13.8149520">
        <ele>819.0</ele>
        <time>2019-08-06T16:13:08Z</time>
      </trkpt>
      <trkpt lat="48.8485000" lon="13.8150470">
        <ele>818.8</ele>
        <time>2019-08-06T16:13:09Z</time>
      </trkpt>
      <trkpt lat="48.8485580" lon="13.8151300">
        <ele>818.6</ele>
        <time>2019-08-06T16:13:10Z</time>
      </trkpt>
      <trkpt lat="48.8486220" lon="13.8152000">
        <ele>818.4</ele>
        <time>2019-08-06T16:13:11Z</time>
      </trkpt>
      <trkpt lat="48.8486880" lon="13.8152620">
        <ele>818.4</ele>
        <time>2019-08-06T16:13:12Z</time>
      </trkpt>
      <trkpt lat="48.8487590" lon="13.8153230">
        <ele>818.2</ele>
        <time>2019-08-06T16:13:13Z</time>
      </trkpt>
      <trkpt lat="48.8488300" lon="13.8153870">
        <ele>818.0</ele>
        <time>2019-08-06T16:13:14Z</time>
      </trkpt>
      <trkpt lat="48.8489010" lon="13.8154620">
        <ele>817.6</ele>
        <time>2019-08-06T16:13:15Z</time>
      </trkpt>
      <trkpt lat="48.8489730" lon="13.8155500">
        <ele>817.4</ele>
        <time>2019-08-06T16:13:16Z</time>
      </trkpt>
      <trkpt lat="48.8490440" lon="13.8156470">
        <ele>817.2</ele>
        <time>2019-08-06T16:13:17Z</time>
      </trkpt>
      <trkpt lat="48.8491170" lon="13.8157430">
        <ele>817.2</ele>
        <time>2019-08-06T16:13:18Z</time>
      </trkpt>
      <trkpt lat="48.8492000" lon="13.8158370">
        <ele>817.0</ele>
        <time>2019-08-06T16:13:19Z</time>
      </trkpt>
      <trkpt lat="48.8492810" lon="13.8159290">
        <ele>816.6</ele>
        <time>2019-08-06T16:13:20Z</time>
      </trkpt>
      <trkpt lat="48.8493500" lon="13.8160200">
        <ele>816.4</ele>
        <time>2019-08-06T16:13:21Z</time>
      </trkpt>
      <trkpt lat="48.8494170" lon="13.8161110">
        <ele>816.2</ele>
        <time>2019-08-06T16:13:22Z</time>
      </trkpt>
      <trkpt lat="48.8494850" lon="13.8162010">
        <ele>815.8</ele>
        <time>2019-08-06T16:13:23Z</time>
      </trkpt>
      <trkpt lat="48.8495630" lon="13.8162920">
        <ele>815.4</ele>
        <time>2019-08-06T16:13:24Z</time>
      </trkpt>
      <trkpt lat="48.8496370" lon="13.8163720">
        <ele>815.2</ele>
        <time>2019-08-06T16:13:25Z</time>
      </trkpt>
      <trkpt lat="48.8497040" lon="13.8164500">
        <ele>814.8</ele>
        <time>2019-08-06T16:13:26Z</time>
      </trkpt>
      <trkpt lat="48.8497790" lon="13.8165340">
        <ele>814.6</ele>
        <time>2019-08-06T16:13:27Z</time>
      </trkpt>
      <trkpt lat="48.8498640" lon="13.8166300">
        <ele>814.2</ele>
        <time>2019-08-06T16:13:28Z</time>
      </trkpt>
      <trkpt lat="48.8499540" lon="13.8167250">
        <ele>813.8</ele>
        <time>2019-08-06T16:13:29Z</time>
      </trkpt>
      <trkpt lat="48.8500220" lon="13.8168130">
        <ele>813.6</ele>
        <time>2019-08-06T16:13:30Z</time>
      </trkpt>
      <trkpt lat="48.8500780" lon="13.8169010">
        <ele>813.2</ele>
        <time>2019-08-06T16:13:31Z</time>
      </trkpt>
      <trkpt lat="48.8501370" lon="13.8170040">
        <ele>812.6</ele>
        <time>2019-08-06T16:13:32Z</time>
      </trkpt>
      <trkpt lat="48.8501940" lon="13.8171050">
        <ele>812.4</ele>
        <time>2019-08-06T16:13:33Z</time>
      </trkpt>
      <trkpt lat="48.8502480" lon="13.8172050">
        <ele>812.2</ele>
        <time>2019-08-06T16:13:34Z</time>
      </trkpt>
      <trkpt lat="48.8503050" lon="13.8173170">
        <ele>812.0</ele>
        <time>2019-08-06T16:13:35Z</time>
      </trkpt>
      <trkpt lat="48.8503610" lon="13.8174280">
        <ele>811.8</ele>
        <time>2019-08-06T16:13:36Z</time>
      </trkpt>
      <trkpt lat="48.8504180" lon="13.8175360">
        <ele>811.6</ele>
        <time>2019-08-06T16:13:37Z</time>
      </trkpt>
      <trkpt lat="48.8504770" lon="13.8176440">
        <ele>811.2</ele>
        <time>2019-08-06T16:13:38Z</time>
      </trkpt>
      <trkpt lat="48.8505330" lon="13.8177500">
        <ele>811.0</ele>
        <time>2019-08-06T16:13:39Z</time>
      </trkpt>
      <trkpt lat="48.8505840" lon="13.8178570">
        <ele>810.8</ele>
        <time>2019-08-06T16:13:40Z</time>
      </trkpt>
      <trkpt lat="48.8506280" lon="13.8179700">
        <ele>810.8</ele>
        <time>2019-08-06T16:13:41Z</time>
      </trkpt>
      <trkpt lat="48.8506640" lon="13.8180850">
        <ele>810.6</ele>
        <time>2019-08-06T16:13:42Z</time>
      </trkpt>
      <trkpt lat="48.8506960" lon="13.8182000">
        <ele>810.4</ele>
        <time>2019-08-06T16:13:43Z</time>
      </trkpt>
      <trkpt lat="48.8507260" lon="13.8183130">
        <ele>810.2</ele>
        <time>2019-08-06T16:13:44Z</time>
      </trkpt>
      <trkpt lat="48.8507560" lon="13.8184240">
        <ele>810.0</ele>
        <time>2019-08-06T16:13:45Z</time>
      </trkpt>
      <trkpt lat="48.8507860" lon="13.8185280">
        <ele>810.0</ele>
        <time>2019-08-06T16:13:46Z</time>
      </trkpt>
      <trkpt lat="48.8508160" lon="13.8186410">
        <ele>810.0</ele>
        <time>2019-08-06T16:13:47Z</time>
      </trkpt>
      <trkpt lat="48.8508420" lon="13.8187590">
        <ele>810.0</ele>
        <time>2019-08-06T16:13:48Z</time>
      </trkpt>
      <trkpt lat="48.8508640" lon="13.8188730">
        <ele>809.8</ele>
        <time>2019-08-06T16:13:49Z</time>
      </trkpt>
      <trkpt lat="48.8508860" lon="13.8189870">
        <ele>809.4</ele>
        <time>2019-08-06T16:13:50Z</time>
      </trkpt>
      <trkpt lat="48.8509090" lon="13.8190990">
        <ele>809.2</ele>
        <time>2019-08-06T16:13:51Z</time>
      </trkpt>
      <trkpt lat="48.8509330" lon="13.8192100">
        <ele>809.0</ele>
        <time>2019-08-06T16:13:52Z</time>
      </trkpt>
      <trkpt lat="48.8509600" lon="13.8193220">
        <ele>808.8</ele>
        <time>2019-08-06T16:13:53Z</time>
      </trkpt>
      <trkpt lat="48.8509910" lon="13.8194320">
        <ele>808.4</ele>
        <time>2019-08-06T16:13:54Z</time>
      </trkpt>
      <trkpt lat="48.8510200" lon="13.8195440">
        <ele>808.2</ele>
        <time>2019-08-06T16:13:55Z</time>
      </trkpt>
      <trkpt lat="48.8510500" lon="13.8196550">
        <ele>807.8</ele>
        <time>2019-08-06T16:13:56Z</time>
      </trkpt>
      <trkpt lat="48.8510770" lon="13.8197610">
        <ele>807.4</ele>
        <time>2019-08-06T16:13:57Z</time>
      </trkpt>
      <trkpt lat="48.8511040" lon="13.8198690">
        <ele>807.2</ele>
        <time>2019-08-06T16:13:58Z</time>
      </trkpt>
      <trkpt lat="48.8511320" lon="13.8199750">
        <ele>806.8</ele>
        <time>2019-08-06T16:13:59Z</time>
      </trkpt>
      <trkpt lat="48.8511630" lon="13.8200750">
        <ele>806.4</ele>
        <time>2019-08-06T16:14:00Z</time>
      </trkpt>
      <trkpt lat="48.8511970" lon="13.8201700">
        <ele>806.0</ele>
        <time>2019-08-06T16:14:01Z</time>
      </trkpt>
      <trkpt lat="48.8512350" lon="13.8202560">
        <ele>805.6</ele>
        <time>2019-08-06T16:14:02Z</time>
      </trkpt>
      <trkpt lat="48.8512820" lon="13.8203330">
        <ele>805.0</ele>
        <time>2019-08-06T16:14:03Z</time>
      </trkpt>
      <trkpt lat="48.8513400" lon="13.8204010">
        <ele>804.6</ele>
        <time>2019-08-06T16:14:04Z</time>
      </trkpt>
      <trkpt lat="48.8514030" lon="13.8204630">
        <ele>804.0</ele>
        <time>2019-08-06T16:14:05Z</time>
      </trkpt>
      <trkpt lat="48.8514650" lon="13.8205190">
        <ele>803.4</ele>
        <time>2019-08-06T16:14:06Z</time>
      </trkpt>
      <trkpt lat="48.8515310" lon="13.8205770">
        <ele>802.8</ele>
        <time>2019-08-06T16:14:07Z</time>
      </trkpt>
      <trkpt lat="48.8515980" lon="13.8206320">
        <ele>802.2</ele>
        <time>2019-08-06T16:14:08Z</time>
      </trkpt>
      <trkpt lat="48.8516670" lon="13.8206820">
        <ele>801.6</ele>
        <time>2019-08-06T16:14:09Z</time>
      </trkpt>
      <trkpt lat="48.8517370" lon="13.8207250">
        <ele>801.0</ele>
        <time>2019-08-06T16:14:10Z</time>
      </trkpt>
      <trkpt lat="48.8518100" lon="13.8207580">
        <ele>800.4</ele>
        <time>2019-08-06T16:14:11Z</time>
      </trkpt>
      <trkpt lat="48.8518860" lon="13.8207890">
        <ele>800.0</ele>
        <time>2019-08-06T16:14:12Z</time>
      </trkpt>
      <trkpt lat="48.8519630" lon="13.8208200">
        <ele>799.6</ele>
        <time>2019-08-06T16:14:13Z</time>
      </trkpt>
      <trkpt lat="48.8520410" lon="13.8208490">
        <ele>799.4</ele>
        <time>2019-08-06T16:14:14Z</time>
      </trkpt>
      <trkpt lat="48.8521190" lon="13.8208770">
        <ele>799.0</ele>
        <time>2019-08-06T16:14:15Z</time>
      </trkpt>
      <trkpt lat="48.8521980" lon="13.8209040">
        <ele>798.8</ele>
        <time>2019-08-06T16:14:16Z</time>
      </trkpt>
      <trkpt lat="48.8522820" lon="13.8209320">
        <ele>798.4</ele>
        <time>2019-08-06T16:14:17Z</time>
      </trkpt>
      <trkpt lat="48.8523760" lon="13.8209550">
        <ele>798.0</ele>
        <time>2019-08-06T16:14:18Z</time>
      </trkpt>
      <trkpt lat="48.8524730" lon="13.8209670">
        <ele>797.8</ele>
        <time>2019-08-06T16:14:19Z</time>
      </trkpt>
      <trkpt lat="48.8525630" lon="13.8209720">
        <ele>797.6</ele>
        <time>2019-08-06T16:14:20Z</time>
      </trkpt>
      <trkpt lat="48.8526540" lon="13.8209890">
        <ele>797.4</ele>
        <time>2019-08-06T16:14:21Z</time>
      </trkpt>
      <trkpt lat="48.8527430" lon="13.8209990">
        <ele>797.2</ele>
        <time>2019-08-06T16:14:22Z</time>
      </trkpt>
      <trkpt lat="48.8528320" lon="13.8210060">
        <ele>797.0</ele>
        <time>2019-08-06T16:14:23Z</time>
      </trkpt>
      <trkpt lat="48.8529230" lon="13.8210180">
        <ele>796.8</ele>
        <time>2019-08-06T16:14:24Z</time>
      </trkpt>
      <trkpt lat="48.8530130" lon="13.8210320">
        <ele>796.4</ele>
        <time>2019-08-06T16:14:25Z</time>
      </trkpt>
      <trkpt lat="48.8531040" lon="13.8210450">
        <ele>796.2</ele>
        <time>2019-08-06T16:14:26Z</time>
      </trkpt>
      <trkpt lat="48.8531980" lon="13.8210580">
        <ele>796.2</ele>
        <time>2019-08-06T16:14:27Z</time>
      </trkpt>
      <trkpt lat="48.8532930" lon="13.8210700">
        <ele>796.0</ele>
        <time>2019-08-06T16:14:28Z</time>
      </trkpt>
      <trkpt lat="48.8533800" lon="13.8210770">
        <ele>796.0</ele>
        <time>2019-08-06T16:14:29Z</time>
      </trkpt>
      <trkpt lat="48.8534650" lon="13.8210840">
        <ele>795.8</ele>
        <time>2019-08-06T16:14:30Z</time>
      </trkpt>
      <trkpt lat="48.8535490" lon="13.8210890">
        <ele>795.8</ele>
        <time>2019-08-06T16:14:31Z</time>
      </trkpt>
      <trkpt lat="48.8536270" lon="13.8210910">
        <ele>795.6</ele>
        <time>2019-08-06T16:14:32Z</time>
      </trkpt>
      <trkpt lat="48.8537030" lon="13.8210970">
        <ele>795.6</ele>
        <time>2019-08-06T16:14:33Z</time>
      </trkpt>
      <trkpt lat="48.8537770" lon="13.8211060">
        <ele>795.6</ele>
        <time>2019-08-06T16:14:34Z</time>
      </trkpt>
      <trkpt lat="48.8538520" lon="13.8211150">
        <ele>795.6</ele>
        <time>2019-08-06T16:14:35Z</time>
      </trkpt>
      <trkpt lat="48.8539240" lon="13.8211230">
        <ele>795.6</ele>
        <time>2019-08-06T16:14:36Z</time>
      </trkpt>
      <trkpt lat="48.8539930" lon="13.8211310">
        <ele>795.6</ele>
        <time>2019-08-06T16:14:37Z</time>
      </trkpt>
      <trkpt lat="48.8540600" lon="13.8211390">
        <ele>795.6</ele>
        <time>2019-08-06T16:14:38Z</time>
      </trkpt>
      <trkpt lat="48.8541260" lon="13.8211430">
        <ele>795.4</ele>
        <time>2019-08-06T16:14:39Z</time>
      </trkpt>
      <trkpt lat="48.8541920" lon="13.8211430">
        <ele>795.4</ele>
        <time>2019-08-06T16:14:40Z</time>
      </trkpt>
      <trkpt lat="48.8542590" lon="13.8211440">
        <ele>795.4</ele>
        <time>2019-08-06T16:14:41Z</time>
      </trkpt>
      <trkpt lat="48.8543270" lon="13.8211460">
        <ele>795.2</ele>
        <time>2019-08-06T16:14:42Z</time>
      </trkpt>
      <trkpt lat="48.8543930" lon="13.8211470">
        <ele>795.4</ele>
        <time>2019-08-06T16:14:43Z</time>
      </trkpt>
      <trkpt lat="48.8544580" lon="13.8211470">
        <ele>795.4</ele>
        <time>2019-08-06T16:14:44Z</time>
      </trkpt>
      <trkpt lat="48.8545220" lon="13.8211470">
        <ele>795.4</ele>
        <time>2019-08-06T16:14:45Z</time>
      </trkpt>
      <trkpt lat="48.8545810" lon="13.8211450">
        <ele>795.4</ele>
        <time>2019-08-06T16:14:46Z</time>
      </trkpt>
      <trkpt lat="48.8546460" lon="13.8211380">
        <ele>795.2</ele>
        <time>2019-08-06T16:14:47Z</time>
      </trkpt>
      <trkpt lat="48.8547130" lon="13.8211280">
        <ele>795.2</ele>
        <time>2019-08-06T16:14:48Z</time>
      </trkpt>
      <trkpt lat="48.8547780" lon="13.8211170">
        <ele>795.2</ele>
        <time>2019-08-06T16:14:49Z</time>
      </trkpt>
      <trkpt lat="48.8548440" lon="13.8211020">
        <ele>795.2</ele>
        <time>2019-08-06T16:14:50Z</time>
      </trkpt>
      <trkpt lat="48.8549090" lon="13.8210830">
        <ele>795.2</ele>
        <time>2019-08-06T16:14:51Z</time>
      </trkpt>
      <trkpt lat="48.8549710" lon="13.8210600">
        <ele>795.2</ele>
        <time>2019-08-06T16:14:52Z</time>
      </trkpt>
      <trkpt lat="48.8550320" lon="13.8210380">
        <ele>795.2</ele>
        <time>2019-08-06T16:14:53Z</time>
      </trkpt>
      <trkpt lat="48.8550920" lon="13.8210170">
        <ele>795.4</ele>
        <time>2019-08-06T16:14:54Z</time>
      </trkpt>
      <trkpt lat="48.8551520" lon="13.8209980">
        <ele>795.4</ele>
        <time>2019-08-06T16:14:55Z</time>
      </trkpt>
      <trkpt lat="48.8552100" lon="13.8209780">
        <ele>795.4</ele>
        <time>2019-08-06T16:14:56Z</time>
      </trkpt>
      <trkpt lat="48.8552660" lon="13.8209570">
        <ele>795.6</ele>
        <time>2019-08-06T16:14:57Z</time>
      </trkpt>
      <trkpt lat="48.8553230" lon="13.8209360">
        <ele>795.6</ele>
        <time>2019-08-06T16:14:58Z</time>
      </trkpt>
      <trkpt lat="48.8553800" lon="13.8209150">
        <ele>795.8</ele>
        <time>2019-08-06T16:14:59Z</time>
      </trkpt>
      <trkpt lat="48.8554370" lon="13.8208940">
        <ele>795.8</ele>
        <time>2019-08-06T16:15:00Z</time>
      </trkpt>
      <trkpt lat="48.8554970" lon="13.8208770">
        <ele>795.6</ele>
        <time>2019-08-06T16:15:01Z</time>
      </trkpt>
      <trkpt lat="48.8555550" lon="13.8208630">
        <ele>795.8</ele>
        <time>2019-08-06T16:15:02Z</time>
      </trkpt>
      <trkpt lat="48.8556120" lon="13.8208510">
        <ele>795.8</ele>
        <time>2019-08-06T16:15:03Z</time>
      </trkpt>
      <trkpt lat="48.8556680" lon="13.8208380">
        <ele>795.8</ele>
        <time>2019-08-06T16:15:04Z</time>
      </trkpt>
      <trkpt lat="48.8557200" lon="13.8208220">
        <ele>795.8</ele>
        <time>2019-08-06T16:15:05Z</time>
      </trkpt>
      <trkpt lat="48.8557640" lon="13.8208050">
        <ele>795.8</ele>
        <time>2019-08-06T16:15:06Z</time>
      </trkpt>
      <trkpt lat="48.8558090" lon="13.8207860">
        <ele>796.0</ele>
        <time>2019-08-06T16:15:07Z</time>
      </trkpt>
      <trkpt lat="48.8558520" lon="13.8207700">
        <ele>796.0</ele>
        <time>2019-08-06T16:15:08Z</time>
      </trkpt>
      <trkpt lat="48.8558910" lon="13.8207550">
        <ele>796.0</ele>
        <time>2019-08-06T16:15:09Z</time>
      </trkpt>
      <trkpt lat="48.8559290" lon="13.8207400">
        <ele>796.0</ele>
        <time>2019-08-06T16:15:10Z</time>
      </trkpt>
      <trkpt lat="48.8559660" lon="13.8207240">
        <ele>796.2</ele>
        <time>2019-08-06T16:15:11Z</time>
      </trkpt>
      <trkpt lat="48.8560010" lon="13.8207120">
        <ele>796.2</ele>
        <time>2019-08-06T16:15:12Z</time>
      </trkpt>
      <trkpt lat="48.8560360" lon="13.8206980">
        <ele>796.2</ele>
        <time>2019-08-06T16:15:13Z</time>
      </trkpt>
      <trkpt lat="48.8560750" lon="13.8206810">
        <ele>796.2</ele>
        <time>2019-08-06T16:15:14Z</time>
      </trkpt>
      <trkpt lat="48.8561170" lon="13.8206610">
        <ele>796.2</ele>
        <time>2019-08-06T16:15:15Z</time>
      </trkpt>
      <trkpt lat="48.8561620" lon="13.8206390">
        <ele>796.2</ele>
        <time>2019-08-06T16:15:16Z</time>
      </trkpt>
      <trkpt lat="48.8562070" lon="13.8206210">
        <ele>796.2</ele>
        <time>2019-08-06T16:15:17Z</time>
      </trkpt>
      <trkpt lat="48.8562550" lon="13.8206010">
        <ele>796.0</ele>
        <time>2019-08-06T16:15:18Z</time>
      </trkpt>
      <trkpt lat="48.8563060" lon="13.8205750">
        <ele>796.0</ele>
        <time>2019-08-06T16:15:19Z</time>
      </trkpt>
      <trkpt lat="48.8563600" lon="13.8205470">
        <ele>796.0</ele>
        <time>2019-08-06T16:15:20Z</time>
      </trkpt>
      <trkpt lat="48.8564160" lon="13.8205190">
        <ele>795.8</ele>
        <time>2019-08-06T16:15:21Z</time>
      </trkpt>
      <trkpt lat="48.8564750" lon="13.8204900">
        <ele>795.6</ele>
        <time>2019-08-06T16:15:22Z</time>
      </trkpt>
      <trkpt lat="48.8565350" lon="13.8204590">
        <ele>795.6</ele>
        <time>2019-08-06T16:15:23Z</time>
      </trkpt>
      <trkpt lat="48.8565860" lon="13.8204330">
        <ele>795.4</ele>
        <time>2019-08-06T16:15:24Z</time>
      </trkpt>
      <trkpt lat="48.8566470" lon="13.8204040">
        <ele>795.2</ele>
        <time>2019-08-06T16:15:25Z</time>
      </trkpt>
      <trkpt lat="48.8567120" lon="13.8203740">
        <ele>795.2</ele>
        <time>2019-08-06T16:15:26Z</time>
      </trkpt>
      <trkpt lat="48.8567730" lon="13.8203450">
        <ele>795.0</ele>
        <time>2019-08-06T16:15:27Z</time>
      </trkpt>
      <trkpt lat="48.8568420" lon="13.8203110">
        <ele>795.0</ele>
        <time>2019-08-06T16:15:28Z</time>
      </trkpt>
      <trkpt lat="48.8569100" lon="13.8202750">
        <ele>794.8</ele>
        <time>2019-08-06T16:15:29Z</time>
      </trkpt>
      <trkpt lat="48.8569760" lon="13.8202420">
        <ele>794.4</ele>
        <time>2019-08-06T16:15:30Z</time>
      </trkpt>
      <trkpt lat="48.8570430" lon="13.8202070">
        <ele>794.2</ele>
        <time>2019-08-06T16:15:31Z</time>
      </trkpt>
      <trkpt lat="48.8571100" lon="13.8201640">
        <ele>794.2</ele>
        <time>2019-08-06T16:15:32Z</time>
      </trkpt>
      <trkpt lat="48.8571770" lon="13.8201160">
        <ele>794.0</ele>
        <time>2019-08-06T16:15:33Z</time>
      </trkpt>
      <trkpt lat="48.8572430" lon="13.8200690">
        <ele>793.6</ele>
        <time>2019-08-06T16:15:34Z</time>
      </trkpt>
      <trkpt lat="48.8573100" lon="13.8200220">
        <ele>793.6</ele>
        <time>2019-08-06T16:15:35Z</time>
      </trkpt>
      <trkpt lat="48.8573790" lon="13.8199760">
        <ele>793.4</ele>
        <time>2019-08-06T16:15:36Z</time>
      </trkpt>
      <trkpt lat="48.8574510" lon="13.8199320">
        <ele>793.2</ele>
        <time>2019-08-06T16:15:37Z</time>
      </trkpt>
      <trkpt lat="48.8575250" lon="13.8198920">
        <ele>792.8</ele>
        <time>2019-08-06T16:15:38Z</time>
      </trkpt>
      <trkpt lat="48.8575990" lon="13.8198560">
        <ele>792.6</ele>
        <time>2019-08-06T16:15:39Z</time>
      </trkpt>
      <trkpt lat="48.8576710" lon="13.8198200">
        <ele>792.4</ele>
        <time>2019-08-06T16:15:40Z</time>
      </trkpt>
      <trkpt lat="48.8577430" lon="13.8197840">
        <ele>792.2</ele>
        <time>2019-08-06T16:15:41Z</time>
      </trkpt>
      <trkpt lat="48.8578130" lon="13.8197470">
        <ele>792.0</ele>
        <time>2019-08-06T16:15:42Z</time>
      </trkpt>
      <trkpt lat="48.8578820" lon="13.8197080">
        <ele>792.0</ele>
        <time>2019-08-06T16:15:43Z</time>
      </trkpt>
      <trkpt lat="48.8579480" lon="13.8196650">
        <ele>791.8</ele>
        <time>2019-08-06T16:15:44Z</time>
      </trkpt>
      <trkpt lat="48.8580130" lon="13.8196250">
        <ele>791.8</ele>
        <time>2019-08-06T16:15:45Z</time>
      </trkpt>
      <trkpt lat="48.8580750" lon="13.8195880">
        <ele>791.8</ele>
        <time>2019-08-06T16:15:46Z</time>
      </trkpt>
      <trkpt lat="48.8581420" lon="13.8195520">
        <ele>791.8</ele>
        <time>2019-08-06T16:15:47Z</time>
      </trkpt>
      <trkpt lat="48.8582110" lon="13.8195190">
        <ele>791.8</ele>
        <time>2019-08-06T16:15:48Z</time>
      </trkpt>
      <trkpt lat="48.8582770" lon="13.8194860">
        <ele>791.8</ele>
        <time>2019-08-06T16:15:49Z</time>
      </trkpt>
      <trkpt lat="48.8583400" lon="13.8194530">
        <ele>791.6</ele>
        <time>2019-08-06T16:15:50Z</time>
      </trkpt>
      <trkpt lat="48.8584040" lon="13.8194170">
        <ele>791.6</ele>
        <time>2019-08-06T16:15:51Z</time>
      </trkpt>
      <trkpt lat="48.8584670" lon="13.8193830">
        <ele>791.6</ele>
        <time>2019-08-06T16:15:52Z</time>
      </trkpt>
      <trkpt lat="48.8585280" lon="13.8193520">
        <ele>791.6</ele>
        <time>2019-08-06T16:15:53Z</time>
      </trkpt>
      <trkpt lat="48.8585840" lon="13.8193260">
        <ele>791.6</ele>
        <time>2019-08-06T16:15:54Z</time>
      </trkpt>
      <trkpt lat="48.8586460" lon="13.8192990">
        <ele>791.6</ele>
        <time>2019-08-06T16:15:55Z</time>
      </trkpt>
      <trkpt lat="48.8587100" lon="13.8192720">
        <ele>791.6</ele>
        <time>2019-08-06T16:15:56Z</time>
      </trkpt>
      <trkpt lat="48.8587690" lon="13.8192500">
        <ele>791.6</ele>
        <time>2019-08-06T16:15:57Z</time>
      </trkpt>
      <trkpt lat="48.8588330" lon="13.8192280">
        <ele>791.6</ele>
        <time>2019-08-06T16:15:58Z</time>
      </trkpt>
      <trkpt lat="48.8588950" lon="13.8192100">
        <ele>791.4</ele>
        <time>2019-08-06T16:15:59Z</time>
      </trkpt>
      <trkpt lat="48.8589560" lon="13.8191960">
        <ele>791.4</ele>
        <time>2019-08-06T16:16:00Z</time>
      </trkpt>
      <trkpt lat="48.8590150" lon="13.8191840">
        <ele>791.4</ele>
        <time>2019-08-06T16:16:01Z</time>
      </trkpt>
      <trkpt lat="48.8590730" lon="13.8191750">
        <ele>791.4</ele>
        <time>2019-08-06T16:16:02Z</time>
      </trkpt>
      <trkpt lat="48.8591320" lon="13.8191670">
        <ele>791.4</ele>
        <time>2019-08-06T16:16:03Z</time>
      </trkpt>
      <trkpt lat="48.8591890" lon="13.8191620">
        <ele>791.4</ele>
        <time>2019-08-06T16:16:04Z</time>
      </trkpt>
      <trkpt lat="48.8592470" lon="13.8191620">
        <ele>791.4</ele>
        <time>2019-08-06T16:16:05Z</time>
      </trkpt>
      <trkpt lat="48.8593020" lon="13.8191690">
        <ele>791.4</ele>
        <time>2019-08-06T16:16:06Z</time>
      </trkpt>
      <trkpt lat="48.8593600" lon="13.8191850">
        <ele>791.2</ele>
        <time>2019-08-06T16:16:07Z</time>
      </trkpt>
      <trkpt lat="48.8594180" lon="13.8192080">
        <ele>791.4</ele>
        <time>2019-08-06T16:16:08Z</time>
      </trkpt>
      <trkpt lat="48.8594730" lon="13.8192350">
        <ele>791.2</ele>
        <time>2019-08-06T16:16:09Z</time>
      </trkpt>
      <trkpt lat="48.8595250" lon="13.8192670">
        <ele>791.2</ele>
        <time>2019-08-06T16:16:10Z</time>
      </trkpt>
      <trkpt lat="48.8595760" lon="13.8193030">
        <ele>791.2</ele>
        <time>2019-08-06T16:16:11Z</time>
      </trkpt>
      <trkpt lat="48.8596270" lon="13.8193380">
        <ele>791.2</ele>
        <time>2019-08-06T16:16:12Z</time>
      </trkpt>
      <trkpt lat="48.8596760" lon="13.8193750">
        <ele>791.2</ele>
        <time>2019-08-06T16:16:13Z</time>
      </trkpt>
      <trkpt lat="48.8597280" lon="13.8194150">
        <ele>791.2</ele>
        <time>2019-08-06T16:16:14Z</time>
      </trkpt>
      <trkpt lat="48.8597790" lon="13.8194540">
        <ele>791.2</ele>
        <time>2019-08-06T16:16:15Z</time>
      </trkpt>
      <trkpt lat="48.8598320" lon="13.8194960">
        <ele>791.2</ele>
        <time>2019-08-06T16:16:16Z</time>
      </trkpt>
      <trkpt lat="48.8598810" lon="13.8195380">
        <ele>791.2</ele>
        <time>2019-08-06T16:16:17Z</time>
      </trkpt>
      <trkpt lat="48.8599320" lon="13.8195860">
        <ele>791.2</ele>
        <time>2019-08-06T16:16:18Z</time>
      </trkpt>
      <trkpt lat="48.8599820" lon="13.8196360">
        <ele>791.4</ele>
        <time>2019-08-06T16:16:19Z</time>
      </trkpt>
      <trkpt lat="48.8600320" lon="13.8196860">
        <ele>791.4</ele>
        <time>2019-08-06T16:16:20Z</time>
      </trkpt>
      <trkpt lat="48.8600810" lon="13.8197360">
        <ele>791.4</ele>
        <time>2019-08-06T16:16:21Z</time>
      </trkpt>
      <trkpt lat="48.8601300" lon="13.8197850">
        <ele>791.4</ele>
        <time>2019-08-06T16:16:22Z</time>
      </trkpt>
      <trkpt lat="48.8601780" lon="13.8198340">
        <ele>791.6</ele>
        <time>2019-08-06T16:16:23Z</time>
      </trkpt>
      <trkpt lat="48.8602250" lon="13.8198830">
        <ele>791.6</ele>
        <time>2019-08-06T16:16:24Z</time>
      </trkpt>
      <trkpt lat="48.8602700" lon="13.8199310">
        <ele>791.6</ele>
        <time>2019-08-06T16:16:25Z</time>
      </trkpt>
      <trkpt lat="48.8603100" lon="13.8199780">
        <ele>791.6</ele>
        <time>2019-08-06T16:16:26Z</time>
      </trkpt>
      <trkpt lat="48.8603550" lon="13.8200320">
        <ele>791.6</ele>
        <time>2019-08-06T16:16:27Z</time>
      </trkpt>
      <trkpt lat="48.8603990" lon="13.8200900">
        <ele>791.8</ele>
        <time>2019-08-06T16:16:28Z</time>
      </trkpt>
      <trkpt lat="48.8604390" lon="13.8201450">
        <ele>791.8</ele>
        <time>2019-08-06T16:16:29Z</time>
      </trkpt>
      <trkpt lat="48.8604760" lon="13.8202000">
        <ele>792.0</ele>
        <time>2019-08-06T16:16:30Z</time>
      </trkpt>
      <trkpt lat="48.8605120" lon="13.8202540">
        <ele>792.0</ele>
        <time>2019-08-06T16:16:31Z</time>
      </trkpt>
      <trkpt lat="48.8605430" lon="13.8203070">
        <ele>792.0</ele>
        <time>2019-08-06T16:16:32Z</time>
      </trkpt>
      <trkpt lat="48.8605720" lon="13.8203570">
        <ele>792.2</ele>
        <time>2019-08-06T16:16:33Z</time>
      </trkpt>
      <trkpt lat="48.8606010" lon="13.8204020">
        <ele>792.2</ele>
        <time>2019-08-06T16:16:34Z</time>
      </trkpt>
      <trkpt lat="48.8606260" lon="13.8204440">
        <ele>792.4</ele>
        <time>2019-08-06T16:16:35Z</time>
      </trkpt>
      <trkpt lat="48.8606500" lon="13.8204850">
        <ele>792.4</ele>
        <time>2019-08-06T16:16:36Z</time>
      </trkpt>
      <trkpt lat="48.8606700" lon="13.8205230">
        <ele>792.4</ele>
        <time>2019-08-06T16:16:37Z</time>
      </trkpt>
      <trkpt lat="48.8606870" lon="13.8205620">
        <ele>792.6</ele>
        <time>2019-08-06T16:16:38Z</time>
      </trkpt>
      <trkpt lat="48.8607010" lon="13.8205970">
        <ele>792.6</ele>
        <time>2019-08-06T16:16:39Z</time>
      </trkpt>
      <trkpt lat="48.8607140" lon="13.8206280">
        <ele>792.6</ele>
        <time>2019-08-06T16:16:40Z</time>
      </trkpt>
      <trkpt lat="48.8607270" lon="13.8206560">
        <ele>792.6</ele>
        <time>2019-08-06T16:16:41Z</time>
      </trkpt>
      <trkpt lat="48.8607400" lon="13.8206810">
        <ele>792.6</ele>
        <time>2019-08-06T16:16:42Z</time>
      </trkpt>
      <trkpt lat="48.8607560" lon="13.8207010">
        <ele>792.6</ele>
        <time>2019-08-06T16:16:43Z</time>
      </trkpt>
      <trkpt lat="48.8607730" lon="13.8207190">
        <ele>792.6</ele>
        <time>2019-08-06T16:16:44Z</time>
      </trkpt>
      <trkpt lat="48.8607890" lon="13.8207380">
        <ele>792.6</ele>
        <time>2019-08-06T16:16:45Z</time>
      </trkpt>
      <trkpt lat="48.8608040" lon="13.8207590">
        <ele>792.8</ele>
        <time>2019-08-06T16:16:46Z</time>
      </trkpt>
      <trkpt lat="48.8608180" lon="13.8207830">
        <ele>792.8</ele>
        <time>2019-08-06T16:16:47Z</time>
      </trkpt>
      <trkpt lat="48.8608330" lon="13.8208110">
        <ele>792.8</ele>
        <time>2019-08-06T16:16:48Z</time>
      </trkpt>
      <trkpt lat="48.8608470" lon="13.8208370">
        <ele>792.8</ele>
        <time>2019-08-06T16:16:49Z</time>
      </trkpt>
      <trkpt lat="48.8608630" lon="13.8208620">
        <ele>792.8</ele>
        <time>2019-08-06T16:16:50Z</time>
      </trkpt>
      <trkpt lat="48.8608820" lon="13.8208850">
        <ele>792.8</ele>
        <time>2019-08-06T16:16:51Z</time>
      </trkpt>
      <trkpt lat="48.8609000" lon="13.8209100">
        <ele>793.0</ele>
        <time>2019-08-06T16:16:52Z</time>
      </trkpt>
      <trkpt lat="48.8609190" lon="13.8209370">
        <ele>793.0</ele>
        <time>2019-08-06T16:16:53Z</time>
      </trkpt>
      <trkpt lat="48.8609360" lon="13.8209680">
        <ele>793.0</ele>
        <time>2019-08-06T16:16:54Z</time>
      </trkpt>
      <trkpt lat="48.8609540" lon="13.8210010">
        <ele>793.2</ele>
        <time>2019-08-06T16:16:55Z</time>
      </trkpt>
      <trkpt lat="48.8609740" lon="13.8210320">
        <ele>793.2</ele>
        <time>2019-08-06T16:16:56Z</time>
      </trkpt>
      <trkpt lat="48.8609970" lon="13.8210610">
        <ele>793.2</ele>
        <time>2019-08-06T16:16:57Z</time>
      </trkpt>
      <trkpt lat="48.8610210" lon="13.8210910">
        <ele>793.4</ele>
        <time>2019-08-06T16:16:58Z</time>
      </trkpt>
      <trkpt lat="48.8610440" lon="13.8211240">
        <ele>793.4</ele>
        <time>2019-08-06T16:16:59Z</time>
      </trkpt>
      <trkpt lat="48.8610660" lon="13.8211600">
        <ele>793.4</ele>
        <time>2019-08-06T16:17:00Z</time>
      </trkpt>
      <trkpt lat="48.8610880" lon="13.8212000">
        <ele>793.4</ele>
        <time>2019-08-06T16:17:01Z</time>
      </trkpt>
      <trkpt lat="48.8611110" lon="13.8212400">
        <ele>793.6</ele>
        <time>2019-08-06T16:17:02Z</time>
      </trkpt>
      <trkpt lat="48.8611340" lon="13.8212790">
        <ele>793.6</ele>
        <time>2019-08-06T16:17:03Z</time>
      </trkpt>
      <trkpt lat="48.8611570" lon="13.8213190">
        <ele>793.6</ele>
        <time>2019-08-06T16:17:04Z</time>
      </trkpt>
      <trkpt lat="48.8611800" lon="13.8213620">
        <ele>793.6</ele>
        <time>2019-08-06T16:17:05Z</time>
      </trkpt>
      <trkpt lat="48.8612010" lon="13.8214030">
        <ele>793.6</ele>
        <time>2019-08-06T16:17:06Z</time>
      </trkpt>
      <trkpt lat="48.8612240" lon="13.8214510">
        <ele>793.6</ele>
        <time>2019-08-06T16:17:07Z</time>
      </trkpt>
      <trkpt lat="48.8612480" lon="13.8215040">
        <ele>793.6</ele>
        <time>2019-08-06T16:17:08Z</time>
      </trkpt>
      <trkpt lat="48.8612680" lon="13.8215530">
        <ele>793.6</ele>
        <time>2019-08-06T16:17:09Z</time>
      </trkpt>
      <trkpt lat="48.8612870" lon="13.8216070">
        <ele>793.6</ele>
        <time>2019-08-06T16:17:10Z</time>
      </trkpt>
      <trkpt lat="48.8613050" lon="13.8216630">
        <ele>793.6</ele>
        <time>2019-08-06T16:17:11Z</time>
      </trkpt>
      <trkpt lat="48.8613240" lon="13.8217190">
        <ele>793.6</ele>
        <time>2019-08-06T16:17:12Z</time>
      </trkpt>
      <trkpt lat="48.8613410" lon="13.8217770">
        <ele>793.6</ele>
        <time>2019-08-06T16:17:13Z</time>
      </trkpt>
      <trkpt lat="48.8613570" lon="13.8218360">
        <ele>793.8</ele>
        <time>2019-08-06T16:17:14Z</time>
      </trkpt>
      <trkpt lat="48.8613720" lon="13.8218950">
        <ele>793.8</ele>
        <time>2019-08-06T16:17:15Z</time>
      </trkpt>
      <trkpt lat="48.8613880" lon="13.8219600">
        <ele>793.6</ele>
        <time>2019-08-06T16:17:16Z</time>
      </trkpt>
      <trkpt lat="48.8614030" lon="13.8220240">
        <ele>793.6</ele>
        <time>2019-08-06T16:17:17Z</time>
      </trkpt>
      <trkpt lat="48.8614190" lon="13.8220930">
        <ele>793.8</ele>
        <time>2019-08-06T16:17:18Z</time>
      </trkpt>
      <trkpt lat="48.8614360" lon="13.8221690">
        <ele>793.6</ele>
        <time>2019-08-06T16:17:19Z</time>
      </trkpt>
      <trkpt lat="48.8614530" lon="13.8222460">
        <ele>793.6</ele>
        <time>2019-08-06T16:17:20Z</time>
      </trkpt>
      <trkpt lat="48.8614710" lon="13.8223240">
        <ele>793.6</ele>
        <time>2019-08-06T16:17:21Z</time>
      </trkpt>
      <trkpt lat="48.8614880" lon="13.8224030">
        <ele>793.4</ele>
        <time>2019-08-06T16:17:22Z</time>
      </trkpt>
      <trkpt lat="48.8615050" lon="13.8224850">
        <ele>793.4</ele>
        <time>2019-08-06T16:17:23Z</time>
      </trkpt>
      <trkpt lat="48.8615240" lon="13.8225710">
        <ele>793.4</ele>
        <time>2019-08-06T16:17:24Z</time>
      </trkpt>
      <trkpt lat="48.8615430" lon="13.8226570">
        <ele>793.4</ele>
        <time>2019-08-06T16:17:25Z</time>
      </trkpt>
      <trkpt lat="48.8615620" lon="13.8227380">
        <ele>793.4</ele>
        <time>2019-08-06T16:17:26Z</time>
      </trkpt>
      <trkpt lat="48.8615820" lon="13.8228260">
        <ele>793.2</ele>
        <time>2019-08-06T16:17:27Z</time>
      </trkpt>
      <trkpt lat="48.8616010" lon="13.8229150">
        <ele>793.2</ele>
        <time>2019-08-06T16:17:28Z</time>
      </trkpt>
      <trkpt lat="48.8616190" lon="13.8230050">
        <ele>793.2</ele>
        <time>2019-08-06T16:17:29Z</time>
      </trkpt>
      <trkpt lat="48.8616380" lon="13.8230960">
        <ele>793.0</ele>
        <time>2019-08-06T16:17:30Z</time>
      </trkpt>
      <trkpt lat="48.8616580" lon="13.8231850">
        <ele>793.0</ele>
        <time>2019-08-06T16:17:31Z</time>
      </trkpt>
      <trkpt lat="48.8616780" lon="13.8232740">
        <ele>793.0</ele>
        <time>2019-08-06T16:17:32Z</time>
      </trkpt>
      <trkpt lat="48.8616990" lon="13.8233640">
        <ele>792.8</ele>
        <time>2019-08-06T16:17:33Z</time>
      </trkpt>
      <trkpt lat="48.8617200" lon="13.8234570">
        <ele>792.8</ele>
        <time>2019-08-06T16:17:34Z</time>
      </trkpt>
      <trkpt lat="48.8617400" lon="13.8235500">
        <ele>792.6</ele>
        <time>2019-08-06T16:17:35Z</time>
      </trkpt>
      <trkpt lat="48.8617590" lon="13.8236430">
        <ele>792.6</ele>
        <time>2019-08-06T16:17:36Z</time>
      </trkpt>
      <trkpt lat="48.8617800" lon="13.8237390">
        <ele>792.6</ele>
        <time>2019-08-06T16:17:37Z</time>
      </trkpt>
      <trkpt lat="48.8618000" lon="13.8238380">
        <ele>792.6</ele>
        <time>2019-08-06T16:17:38Z</time>
      </trkpt>
      <trkpt lat="48.8618210" lon="13.8239390">
        <ele>792.4</ele>
        <time>2019-08-06T16:17:39Z</time>
      </trkpt>
      <trkpt lat="48.8618430" lon="13.8240390">
        <ele>792.4</ele>
        <time>2019-08-06T16:17:40Z</time>
      </trkpt>
      <trkpt lat="48.8618640" lon="13.8241380">
        <ele>792.2</ele>
        <time>2019-08-06T16:17:41Z</time>
      </trkpt>
      <trkpt lat="48.8618870" lon="13.8242390">
        <ele>792.2</ele>
        <time>2019-08-06T16:17:42Z</time>
      </trkpt>
      <trkpt lat="48.8619080" lon="13.8243360">
        <ele>792.2</ele>
        <time>2019-08-06T16:17:43Z</time>
      </trkpt>
      <trkpt lat="48.8619310" lon="13.8244340">
        <ele>792.2</ele>
        <time>2019-08-06T16:17:44Z</time>
      </trkpt>
      <trkpt lat="48.8619550" lon="13.8245320">
        <ele>792.0</ele>
        <time>2019-08-06T16:17:45Z</time>
      </trkpt>
      <trkpt lat="48.8619770" lon="13.8246250">
        <ele>792.0</ele>
        <time>2019-08-06T16:17:46Z</time>
      </trkpt>
      <trkpt lat="48.8620020" lon="13.8247250">
        <ele>792.0</ele>
        <time>2019-08-06T16:17:47Z</time>
      </trkpt>
      <trkpt lat="48.8620280" lon="13.8248290">
        <ele>791.8</ele>
        <time>2019-08-06T16:17:48Z</time>
      </trkpt>
      <trkpt lat="48.8620550" lon="13.8249250">
        <ele>791.8</ele>
        <time>2019-08-06T16:17:49Z</time>
      </trkpt>
      <trkpt lat="48.8620820" lon="13.8250190">
        <ele>791.8</ele>
        <time>2019-08-06T16:17:50Z</time>
      </trkpt>
      <trkpt lat="48.8621100" lon="13.8251130">
        <ele>791.6</ele>
        <time>2019-08-06T16:17:51Z</time>
      </trkpt>
      <trkpt lat="48.8621380" lon="13.8252060">
        <ele>791.6</ele>
        <time>2019-08-06T16:17:52Z</time>
      </trkpt>
      <trkpt lat="48.8621690" lon="13.8252960">
        <ele>791.6</ele>
        <time>2019-08-06T16:17:53Z</time>
      </trkpt>
      <trkpt lat="48.8622010" lon="13.8253850">
        <ele>791.6</ele>
        <time>2019-08-06T16:17:54Z</time>
      </trkpt>
      <trkpt lat="48.8622320" lon="13.8254730">
        <ele>791.6</ele>
        <time>2019-08-06T16:17:55Z</time>
      </trkpt>
      <trkpt lat="48.8622570" lon="13.8255600">
        <ele>791.6</ele>
        <time>2019-08-06T16:17:56Z</time>
      </trkpt>
      <trkpt lat="48.8622760" lon="13.8256450">
        <ele>791.6</ele>
        <time>2019-08-06T16:17:57Z</time>
      </trkpt>
      <trkpt lat="48.8622870" lon="13.8257250">
        <ele>791.6</ele>
        <time>2019-08-06T16:17:58Z</time>
      </trkpt>
      <trkpt lat="48.8622900" lon="13.8257990">
        <ele>791.6</ele>
        <time>2019-08-06T16:17:59Z</time>
      </trkpt>
      <trkpt lat="48.8622870" lon="13.8258670">
        <ele>791.6</ele>
        <time>2019-08-06T16:18:00Z</time>
      </trkpt>
      <trkpt lat="48.8622810" lon="13.8259320">
        <ele>791.6</ele>
        <time>2019-08-06T16:18:01Z</time>
      </trkpt>
      <trkpt lat="48.8622720" lon="13.8259940">
        <ele>791.6</ele>
        <time>2019-08-06T16:18:02Z</time>
      </trkpt>
      <trkpt lat="48.8622640" lon="13.8260570">
        <ele>791.8</ele>
        <time>2019-08-06T16:18:03Z</time>
      </trkpt>
      <trkpt lat="48.8622630" lon="13.8261200">
        <ele>791.8</ele>
        <time>2019-08-06T16:18:04Z</time>
      </trkpt>
      <trkpt lat="48.8622700" lon="13.8261840">
        <ele>791.8</ele>
        <time>2019-08-06T16:18:05Z</time>
      </trkpt>
      <trkpt lat="48.8622810" lon="13.8262410">
        <ele>791.8</ele>
        <time>2019-08-06T16:18:06Z</time>
      </trkpt>
      <trkpt lat="48.8622960" lon="13.8263060">
        <ele>791.8</ele>
        <time>2019-08-06T16:18:07Z</time>
      </trkpt>
      <trkpt lat="48.8623160" lon="13.8263760">
        <ele>791.8</ele>
        <time>2019-08-06T16:18:08Z</time>
      </trkpt>
      <trkpt lat="48.8623390" lon="13.8264400">
        <ele>791.8</ele>
        <time>2019-08-06T16:18:09Z</time>
      </trkpt>
      <trkpt lat="48.8623640" lon="13.8265050">
        <ele>792.0</ele>
        <time>2019-08-06T16:18:10Z</time>
      </trkpt>
      <trkpt lat="48.8623880" lon="13.8265710">
        <ele>792.0</ele>
        <time>2019-08-06T16:18:11Z</time>
      </trkpt>
      <trkpt lat="48.8624120" lon="13.8266380">
        <ele>792.0</ele>
        <time>2019-08-06T16:18:12Z</time>
      </trkpt>
      <trkpt lat="48.8624370" lon="13.8267080">
        <ele>792.0</ele>
        <time>2019-08-06T16:18:13Z</time>
      </trkpt>
      <trkpt lat="48.8624610" lon="13.8267760">
        <ele>792.0</ele>
        <time>2019-08-06T16:18:14Z</time>
      </trkpt>
      <trkpt lat="48.8624840" lon="13.8268450">
        <ele>792.2</ele>
        <time>2019-08-06T16:18:15Z</time>
      </trkpt>
      <trkpt lat="48.8625090" lon="13.8269150">
        <ele>792.2</ele>
        <time>2019-08-06T16:18:16Z</time>
      </trkpt>
      <trkpt lat="48.8625340" lon="13.8269850">
        <ele>792.2</ele>
        <time>2019-08-06T16:18:17Z</time>
      </trkpt>
      <trkpt lat="48.8625570" lon="13.8270580">
        <ele>792.2</ele>
        <time>2019-08-06T16:18:18Z</time>
      </trkpt>
      <trkpt lat="48.8625810" lon="13.8271320">
        <ele>792.2</ele>
        <time>2019-08-06T16:18:19Z</time>
      </trkpt>
      <trkpt lat="48.8626060" lon="13.8272040">
        <ele>792.2</ele>
        <time>2019-08-06T16:18:20Z</time>
      </trkpt>
      <trkpt lat="48.8626340" lon="13.8272780">
        <ele>792.2</ele>
        <time>2019-08-06T16:18:21Z</time>
      </trkpt>
      <trkpt lat="48.8626610" lon="13.8273510">
        <ele>792.2</ele>
        <time>2019-08-06T16:18:22Z</time>
      </trkpt>
      <trkpt lat="48.8626860" lon="13.8274250">
        <ele>792.0</ele>
        <time>2019-08-06T16:18:23Z</time>
      </trkpt>
      <trkpt lat="48.8627130" lon="13.8275040">
        <ele>792.0</ele>
        <time>2019-08-06T16:18:24Z</time>
      </trkpt>
      <trkpt lat="48.8627410" lon="13.8275800">
        <ele>792.0</ele>
        <time>2019-08-06T16:18:25Z</time>
      </trkpt>
      <trkpt lat="48.8627700" lon="13.8276510">
        <ele>791.8</ele>
        <time>2019-08-06T16:18:26Z</time>
      </trkpt>
      <trkpt lat="48.8628030" lon="13.8277300">
        <ele>791.8</ele>
        <time>2019-08-06T16:18:27Z</time>
      </trkpt>
      <trkpt lat="48.8628340" lon="13.8278060">
        <ele>791.8</ele>
        <time>2019-08-06T16:18:28Z</time>
      </trkpt>
      <trkpt lat="48.8628660" lon="13.8278750">
        <ele>791.6</ele>
        <time>2019-08-06T16:18:29Z</time>
      </trkpt>
      <trkpt lat="48.8628970" lon="13.8279460">
        <ele>791.6</ele>
        <time>2019-08-06T16:18:30Z</time>
      </trkpt>
      <trkpt lat="48.8629290" lon="13.8280210">
        <ele>791.6</ele>
        <time>2019-08-06T16:18:31Z</time>
      </trkpt>
      <trkpt lat="48.8629590" lon="13.8280980">
        <ele>791.6</ele>
        <time>2019-08-06T16:18:32Z</time>
      </trkpt>
      <trkpt lat="48.8629900" lon="13.8281780">
        <ele>791.4</ele>
        <time>2019-08-06T16:18:33Z</time>
      </trkpt>
      <trkpt lat="48.8630230" lon="13.8282600">
        <ele>791.4</ele>
        <time>2019-08-06T16:18:34Z</time>
      </trkpt>
      <trkpt lat="48.8630580" lon="13.8283420">
        <ele>791.2</ele>
        <time>2019-08-06T16:18:35Z</time>
      </trkpt>
      <trkpt lat="48.8630930" lon="13.8284260">
        <ele>791.0</ele>
        <time>2019-08-06T16:18:36Z</time>
      </trkpt>
      <trkpt lat="48.8631280" lon="13.8285100">
        <ele>791.0</ele>
        <time>2019-08-06T16:18:37Z</time>
      </trkpt>
      <trkpt lat="48.8631650" lon="13.8285940">
        <ele>791.0</ele>
        <time>2019-08-06T16:18:38Z</time>
      </trkpt>
      <trkpt lat="48.8632030" lon="13.8286810">
        <ele>790.8</ele>
        <time>2019-08-06T16:18:39Z</time>
      </trkpt>
      <trkpt lat="48.8632450" lon="13.8287680">
        <ele>790.8</ele>
        <time>2019-08-06T16:18:40Z</time>
      </trkpt>
      <trkpt lat="48.8632810" lon="13.8288390">
        <ele>790.6</ele>
        <time>2019-08-06T16:18:41Z</time>
      </trkpt>
      <trkpt lat="48.8633200" lon="13.8289220">
        <ele>790.4</ele>
        <time>2019-08-06T16:18:42Z</time>
      </trkpt>
      <trkpt lat="48.8633650" lon="13.8290200">
        <ele>790.4</ele>
        <time>2019-08-06T16:18:43Z</time>
      </trkpt>
      <trkpt lat="48.8634080" lon="13.8291120">
        <ele>790.2</ele>
        <time>2019-08-06T16:18:44Z</time>
      </trkpt>
      <trkpt lat="48.8634520" lon="13.8292000">
        <ele>790.2</ele>
        <time>2019-08-06T16:18:45Z</time>
      </trkpt>
      <trkpt lat="48.8634930" lon="13.8292830">
        <ele>790.0</ele>
        <time>2019-08-06T16:18:46Z</time>
      </trkpt>
      <trkpt lat="48.8635380" lon="13.8293770">
        <ele>790.0</ele>
        <time>2019-08-06T16:18:47Z</time>
      </trkpt>
      <trkpt lat="48.8635860" lon="13.8294760">
        <ele>789.8</ele>
        <time>2019-08-06T16:18:48Z</time>
      </trkpt>
      <trkpt lat="48.8636340" lon="13.8295690">
        <ele>789.6</ele>
        <time>2019-08-06T16:18:49Z</time>
      </trkpt>
      <trkpt lat="48.8636800" lon="13.8296560">
        <ele>789.6</ele>
        <time>2019-08-06T16:18:50Z</time>
      </trkpt>
      <trkpt lat="48.8637310" lon="13.8297520">
        <ele>789.4</ele>
        <time>2019-08-06T16:18:51Z</time>
      </trkpt>
      <trkpt lat="48.8637830" lon="13.8298490">
        <ele>789.2</ele>
        <time>2019-08-06T16:18:52Z</time>
      </trkpt>
      <trkpt lat="48.8638320" lon="13.8299410">
        <ele>789.4</ele>
        <time>2019-08-06T16:18:53Z</time>
      </trkpt>
      <trkpt lat="48.8638800" lon="13.8300310">
        <ele>789.2</ele>
        <time>2019-08-06T16:18:54Z</time>
      </trkpt>
      <trkpt lat="48.8639260" lon="13.8301180">
        <ele>789.2</ele>
        <time>2019-08-06T16:18:55Z</time>
      </trkpt>
      <trkpt lat="48.8639740" lon="13.8302060">
        <ele>789.2</ele>
        <time>2019-08-06T16:18:56Z</time>
      </trkpt>
      <trkpt lat="48.8640230" lon="13.8302940">
        <ele>789.2</ele>
        <time>2019-08-06T16:18:57Z</time>
      </trkpt>
      <trkpt lat="48.8640740" lon="13.8303850">
        <ele>789.4</ele>
        <time>2019-08-06T16:18:58Z</time>
      </trkpt>
      <trkpt lat="48.8641230" lon="13.8304740">
        <ele>789.4</ele>
        <time>2019-08-06T16:18:59Z</time>
      </trkpt>
      <trkpt lat="48.8641690" lon="13.8305630">
        <ele>789.4</ele>
        <time>2019-08-06T16:19:00Z</time>
      </trkpt>
      <trkpt lat="48.8642150" lon="13.8306540">
        <ele>789.2</ele>
        <time>2019-08-06T16:19:01Z</time>
      </trkpt>
      <trkpt lat="48.8642600" lon="13.8307440">
        <ele>789.2</ele>
        <time>2019-08-06T16:19:02Z</time>
      </trkpt>
      <trkpt lat="48.8643060" lon="13.8308280">
        <ele>789.0</ele>
        <time>2019-08-06T16:19:03Z</time>
      </trkpt>
      <trkpt lat="48.8643550" lon="13.8309100">
        <ele>789.0</ele>
        <time>2019-08-06T16:19:04Z</time>
      </trkpt>
      <trkpt lat="48.8644050" lon="13.8309950">
        <ele>788.8</ele>
        <time>2019-08-06T16:19:05Z</time>
      </trkpt>
      <trkpt lat="48.8644500" lon="13.8310750">
        <ele>788.8</ele>
        <time>2019-08-06T16:19:06Z</time>
      </trkpt>
      <trkpt lat="48.8644960" lon="13.8311590">
        <ele>788.6</ele>
        <time>2019-08-06T16:19:07Z</time>
      </trkpt>
      <trkpt lat="48.8645450" lon="13.8312530">
        <ele>788.6</ele>
        <time>2019-08-06T16:19:08Z</time>
      </trkpt>
      <trkpt lat="48.8645910" lon="13.8313480">
        <ele>788.4</ele>
        <time>2019-08-06T16:19:09Z</time>
      </trkpt>
      <trkpt lat="48.8646310" lon="13.8314390">
        <ele>788.4</ele>
        <time>2019-08-06T16:19:10Z</time>
      </trkpt>
      <trkpt lat="48.8646660" lon="13.8315310">
        <ele>788.4</ele>
        <time>2019-08-06T16:19:11Z</time>
      </trkpt>
      <trkpt lat="48.8646990" lon="13.8316280">
        <ele>788.4</ele>
        <time>2019-08-06T16:19:12Z</time>
      </trkpt>
      <trkpt lat="48.8647280" lon="13.8317270">
        <ele>788.4</ele>
        <time>2019-08-06T16:19:13Z</time>
      </trkpt>
      <trkpt lat="48.8647540" lon="13.8318280">
        <ele>788.6</ele>
        <time>2019-08-06T16:19:14Z</time>
      </trkpt>
      <trkpt lat="48.8647770" lon="13.8319270">
        <ele>788.6</ele>
        <time>2019-08-06T16:19:15Z</time>
      </trkpt>
      <trkpt lat="48.8647990" lon="13.8320220">
        <ele>788.6</ele>
        <time>2019-08-06T16:19:16Z</time>
      </trkpt>
      <trkpt lat="48.8648210" lon="13.8321140">
        <ele>788.6</ele>
        <time>2019-08-06T16:19:17Z</time>
      </trkpt>
      <trkpt lat="48.8648360" lon="13.8322060">
        <ele>788.6</ele>
        <time>2019-08-06T16:19:18Z</time>
      </trkpt>
      <trkpt lat="48.8648490" lon="13.8323010">
        <ele>788.8</ele>
        <time>2019-08-06T16:19:19Z</time>
      </trkpt>
      <trkpt lat="48.8648640" lon="13.8323980">
        <ele>788.8</ele>
        <time>2019-08-06T16:19:20Z</time>
      </trkpt>
      <trkpt lat="48.8648780" lon="13.8324940">
        <ele>788.8</ele>
        <time>2019-08-06T16:19:21Z</time>
      </trkpt>
      <trkpt lat="48.8648910" lon="13.8325960">
        <ele>788.8</ele>
        <time>2019-08-06T16:19:22Z</time>
      </trkpt>
      <trkpt lat="48.8649060" lon="13.8327000">
        <ele>788.8</ele>
        <time>2019-08-06T16:19:23Z</time>
      </trkpt>
      <trkpt lat="48.8649210" lon="13.8327980">
        <ele>788.8</ele>
        <time>2019-08-06T16:19:24Z</time>
      </trkpt>
      <trkpt lat="48.8649370" lon="13.8328970">
        <ele>788.6</ele>
        <time>2019-08-06T16:19:25Z</time>
      </trkpt>
      <trkpt lat="48.8649550" lon="13.8329920">
        <ele>788.4</ele>
        <time>2019-08-06T16:19:26Z</time>
      </trkpt>
      <trkpt lat="48.8649770" lon="13.8330930">
        <ele>788.2</ele>
        <time>2019-08-06T16:19:27Z</time>
      </trkpt>
      <trkpt lat="48.8649980" lon="13.8332020">
        <ele>787.8</ele>
        <time>2019-08-06T16:19:28Z</time>
      </trkpt>
      <trkpt lat="48.8650220" lon="13.8333150">
        <ele>787.6</ele>
        <time>2019-08-06T16:19:29Z</time>
      </trkpt>
      <trkpt lat="48.8650490" lon="13.8334290">
        <ele>787.2</ele>
        <time>2019-08-06T16:19:30Z</time>
      </trkpt>
      <trkpt lat="48.8650780" lon="13.8335380">
        <ele>786.8</ele>
        <time>2019-08-06T16:19:31Z</time>
      </trkpt>
      <trkpt lat="48.8651060" lon="13.8336400">
        <ele>786.4</ele>
        <time>2019-08-06T16:19:32Z</time>
      </trkpt>
      <trkpt lat="48.8651340" lon="13.8337330">
        <ele>785.8</ele>
        <time>2019-08-06T16:19:33Z</time>
      </trkpt>
      <trkpt lat="48.8651640" lon="13.8338180">
        <ele>785.4</ele>
        <time>2019-08-06T16:19:34Z</time>
      </trkpt>
      <trkpt lat="48.8651980" lon="13.8339050">
        <ele>785.0</ele>
        <time>2019-08-06T16:19:35Z</time>
      </trkpt>
      <trkpt lat="48.8652330" lon="13.8339880">
        <ele>784.6</ele>
        <time>2019-08-06T16:19:36Z</time>
      </trkpt>
      <trkpt lat="48.8652680" lon="13.8340660">
        <ele>784.2</ele>
        <time>2019-08-06T16:19:37Z</time>
      </trkpt>
      <trkpt lat="48.8653030" lon="13.8341440">
        <ele>783.8</ele>
        <time>2019-08-06T16:19:38Z</time>
      </trkpt>
      <trkpt lat="48.8653340" lon="13.8342230">
        <ele>783.6</ele>
        <time>2019-08-06T16:19:39Z</time>
      </trkpt>
      <trkpt lat="48.8653590" lon="13.8343060">
        <ele>783.6</ele>
        <time>2019-08-06T16:19:40Z</time>
      </trkpt>
      <trkpt lat="48.8653760" lon="13.8343940">
        <ele>783.4</ele>
        <time>2019-08-06T16:19:41Z</time>
      </trkpt>
      <trkpt lat="48.8653850" lon="13.8344880">
        <ele>783.2</ele>
        <time>2019-08-06T16:19:42Z</time>
      </trkpt>
      <trkpt lat="48.8653880" lon="13.8345860">
        <ele>783.2</ele>
        <time>2019-08-06T16:19:43Z</time>
      </trkpt>
      <trkpt lat="48.8653890" lon="13.8346750">
        <ele>783.2</ele>
        <time>2019-08-06T16:19:44Z</time>
      </trkpt>
      <trkpt lat="48.8653900" lon="13.8347620">
        <ele>783.0</ele>
        <time>2019-08-06T16:19:45Z</time>
      </trkpt>
      <trkpt lat="48.8653900" lon="13.8348430">
        <ele>783.0</ele>
        <time>2019-08-06T16:19:46Z</time>
      </trkpt>
      <trkpt lat="48.8653900" lon="13.8349360">
        <ele>783.0</ele>
        <time>2019-08-06T16:19:47Z</time>
      </trkpt>
      <trkpt lat="48.8653900" lon="13.8350390">
        <ele>783.0</ele>
        <time>2019-08-06T16:19:48Z</time>
      </trkpt>
      <trkpt lat="48.8653880" lon="13.8351370">
        <ele>783.0</ele>
        <time>2019-08-06T16:19:49Z</time>
      </trkpt>
      <trkpt lat="48.8653860" lon="13.8352360">
        <ele>782.8</ele>
        <time>2019-08-06T16:19:50Z</time>
      </trkpt>
      <trkpt lat="48.8653860" lon="13.8353410">
        <ele>782.8</ele>
        <time>2019-08-06T16:19:51Z</time>
      </trkpt>
      <trkpt lat="48.8653900" lon="13.8354500">
        <ele>782.6</ele>
        <time>2019-08-06T16:19:52Z</time>
      </trkpt>
      <trkpt lat="48.8653950" lon="13.8355560">
        <ele>782.6</ele>
        <time>2019-08-06T16:19:53Z</time>
      </trkpt>
      <trkpt lat="48.8654010" lon="13.8356590">
        <ele>782.4</ele>
        <time>2019-08-06T16:19:54Z</time>
      </trkpt>
      <trkpt lat="48.8654030" lon="13.8357640">
        <ele>782.2</ele>
        <time>2019-08-06T16:19:55Z</time>
      </trkpt>
      <trkpt lat="48.8654000" lon="13.8358780">
        <ele>781.8</ele>
        <time>2019-08-06T16:19:56Z</time>
      </trkpt>
      <trkpt lat="48.8653900" lon="13.8359970">
        <ele>781.6</ele>
        <time>2019-08-06T16:19:57Z</time>
      </trkpt>
      <trkpt lat="48.8653640" lon="13.8361210">
        <ele>781.0</ele>
        <time>2019-08-06T16:19:58Z</time>
      </trkpt>
      <trkpt lat="48.8653280" lon="13.8362380">
        <ele>780.6</ele>
        <time>2019-08-06T16:19:59Z</time>
      </trkpt>
      <trkpt lat="48.8652770" lon="13.8363640">
        <ele>780.0</ele>
        <time>2019-08-06T16:20:00Z</time>
      </trkpt>
      <trkpt lat="48.8652060" lon="13.8365140">
        <ele>779.4</ele>
        <time>2019-08-06T16:20:01Z</time>
      </trkpt>
      <trkpt lat="48.8651330" lon="13.8366710">
        <ele>778.8</ele>
        <time>2019-08-06T16:20:02Z</time>
      </trkpt>
      <trkpt lat="48.8650660" lon="13.8368070">
        <ele>778.2</ele>
        <time>2019-08-06T16:20:03Z</time>
      </trkpt>
      <trkpt lat="48.8650060" lon="13.8369250">
        <ele>777.8</ele>
        <time>2019-08-06T16:20:04Z</time>
      </trkpt>
      <trkpt lat="48.8649500" lon="13.8370440">
        <ele>777.4</ele>
        <time>2019-08-06T16:20:05Z</time>
      </trkpt>
      <trkpt lat="48.8648960" lon="13.8371610">
        <ele>777.2</ele>
        <time>2019-08-06T16:20:06Z</time>
      </trkpt>
      <trkpt lat="48.8648430" lon="13.8372740">
        <ele>777.0</ele>
        <time>2019-08-06T16:20:07Z</time>
      </trkpt>
      <trkpt lat="48.8647850" lon="13.8373910">
        <ele>776.8</ele>
        <time>2019-08-06T16:20:08Z</time>
      </trkpt>
      <trkpt lat="48.8647220" lon="13.8375030">
        <ele>776.6</ele>
        <time>2019-08-06T16:20:09Z</time>
      </trkpt>
      <trkpt lat="48.8646560" lon="13.8376130">
        <ele>776.4</ele>
        <time>2019-08-06T16:20:10Z</time>
      </trkpt>
      <trkpt lat="48.8645830" lon="13.8377250">
        <ele>776.2</ele>
        <time>2019-08-06T16:20:11Z</time>
      </trkpt>
      <trkpt lat="48.8645090" lon="13.8378250">
        <ele>776.0</ele>
        <time>2019-08-06T16:20:12Z</time>
      </trkpt>
      <trkpt lat="48.8644320" lon="13.8379140">
        <ele>775.8</ele>
        <time>2019-08-06T16:20:13Z</time>
      </trkpt>
      <trkpt lat="48.8643500" lon="13.8379970">
        <ele>775.6</ele>
        <time>2019-08-06T16:20:14Z</time>
      </trkpt>
      <trkpt lat="48.8642680" lon="13.8380720">
        <ele>775.4</ele>
        <time>2019-08-06T16:20:15Z</time>
      </trkpt>
      <trkpt lat="48.8641860" lon="13.8381460">
        <ele>775.2</ele>
        <time>2019-08-06T16:20:16Z</time>
      </trkpt>
      <trkpt lat="48.8641050" lon="13.8382160">
        <ele>775.0</ele>
        <time>2019-08-06T16:20:17Z</time>
      </trkpt>
      <trkpt lat="48.8640270" lon="13.8382930">
        <ele>774.8</ele>
        <time>2019-08-06T16:20:18Z</time>
      </trkpt>
      <trkpt lat="48.8639430" lon="13.8383690">
        <ele>774.6</ele>
        <time>2019-08-06T16:20:19Z</time>
      </trkpt>
      <trkpt lat="48.8638610" lon="13.8384470">
        <ele>774.2</ele>
        <time>2019-08-06T16:20:20Z</time>
      </trkpt>
      <trkpt lat="48.8637840" lon="13.8385320">
        <ele>774.2</ele>
        <time>2019-08-06T16:20:21Z</time>
      </trkpt>
      <trkpt lat="48.8637010" lon="13.8385970">
        <ele>774.0</ele>
        <time>2019-08-06T16:20:22Z</time>
      </trkpt>
      <trkpt lat="48.8636230" lon="13.8386630">
        <ele>774.0</ele>
        <time>2019-08-06T16:20:23Z</time>
      </trkpt>
      <trkpt lat="48.8635520" lon="13.8387380">
        <ele>774.0</ele>
        <time>2019-08-06T16:20:24Z</time>
      </trkpt>
      <trkpt lat="48.8634840" lon="13.8388120">
        <ele>774.0</ele>
        <time>2019-08-06T16:20:25Z</time>
      </trkpt>
      <trkpt lat="48.8634230" lon="13.8388820">
        <ele>773.8</ele>
        <time>2019-08-06T16:20:26Z</time>
      </trkpt>
      <trkpt lat="48.8633600" lon="13.8389570">
        <ele>773.8</ele>
        <time>2019-08-06T16:20:27Z</time>
      </trkpt>
      <trkpt lat="48.8632890" lon="13.8390380">
        <ele>773.6</ele>
        <time>2019-08-06T16:20:28Z</time>
      </trkpt>
      <trkpt lat="48.8632250" lon="13.8391180">
        <ele>773.4</ele>
        <time>2019-08-06T16:20:29Z</time>
      </trkpt>
      <trkpt lat="48.8631620" lon="13.8392040">
        <ele>773.2</ele>
        <time>2019-08-06T16:20:30Z</time>
      </trkpt>
      <trkpt lat="48.8631020" lon="13.8392980">
        <ele>772.8</ele>
        <time>2019-08-06T16:20:31Z</time>
      </trkpt>
      <trkpt lat="48.8630520" lon="13.8393930">
        <ele>772.8</ele>
        <time>2019-08-06T16:20:32Z</time>
      </trkpt>
      <trkpt lat="48.8630060" lon="13.8394860">
        <ele>772.6</ele>
        <time>2019-08-06T16:20:33Z</time>
      </trkpt>
      <trkpt lat="48.8629600" lon="13.8395850">
        <ele>772.4</ele>
        <time>2019-08-06T16:20:34Z</time>
      </trkpt>
      <trkpt lat="48.8629090" lon="13.8396880">
        <ele>772.2</ele>
        <time>2019-08-06T16:20:35Z</time>
      </trkpt>
      <trkpt lat="48.8628570" lon="13.8397890">
        <ele>772.0</ele>
        <time>2019-08-06T16:20:36Z</time>
      </trkpt>
      <trkpt lat="48.8628030" lon="13.8398910">
        <ele>772.0</ele>
        <time>2019-08-06T16:20:37Z</time>
      </trkpt>
      <trkpt lat="48.8627490" lon="13.8399980">
        <ele>771.8</ele>
        <time>2019-08-06T16:20:38Z</time>
      </trkpt>
      <trkpt lat="48.8626940" lon="13.8401010">
        <ele>771.8</ele>
        <time>2019-08-06T16:20:39Z</time>
      </trkpt>
      <trkpt lat="48.8626340" lon="13.8402020">
        <ele>771.6</ele>
        <time>2019-08-06T16:20:40Z</time>
      </trkpt>
      <trkpt lat="48.8625650" lon="13.8402990">
        <ele>771.6</ele>
        <time>2019-08-06T16:20:41Z</time>
      </trkpt>
      <trkpt lat="48.8624980" lon="13.8403960">
        <ele>771.6</ele>
        <time>2019-08-06T16:20:42Z</time>
      </trkpt>
      <trkpt lat="48.8624270" lon="13.8405030">
        <ele>771.4</ele>
        <time>2019-08-06T16:20:43Z</time>
      </trkpt>
      <trkpt lat="48.8623580" lon="13.8405990">
        <ele>771.4</ele>
        <time>2019-08-06T16:20:44Z</time>
      </trkpt>
      <trkpt lat="48.8622880" lon="13.8407020">
        <ele>771.4</ele>
        <time>2019-08-06T16:20:45Z</time>
      </trkpt>
      <trkpt lat="48.8622310" lon="13.8408010">
        <ele>771.2</ele>
        <time>2019-08-06T16:20:46Z</time>
      </trkpt>
      <trkpt lat="48.8621720" lon="13.8409070">
        <ele>771.0</ele>
        <time>2019-08-06T16:20:47Z</time>
      </trkpt>
      <trkpt lat="48.8621080" lon="13.8410190">
        <ele>770.8</ele>
        <time>2019-08-06T16:20:48Z</time>
      </trkpt>
      <trkpt lat="48.8620520" lon="13.8411210">
        <ele>770.6</ele>
        <time>2019-08-06T16:20:49Z</time>
      </trkpt>
      <trkpt lat="48.8619970" lon="13.8412240">
        <ele>770.6</ele>
        <time>2019-08-06T16:20:50Z</time>
      </trkpt>
      <trkpt lat="48.8619460" lon="13.8413270">
        <ele>770.4</ele>
        <time>2019-08-06T16:20:51Z</time>
      </trkpt>
      <trkpt lat="48.8618980" lon="13.8414290">
        <ele>770.4</ele>
        <time>2019-08-06T16:20:52Z</time>
      </trkpt>
      <trkpt lat="48.8618580" lon="13.8415260">
        <ele>770.4</ele>
        <time>2019-08-06T16:20:53Z</time>
      </trkpt>
      <trkpt lat="48.8618240" lon="13.8416280">
        <ele>770.4</ele>
        <time>2019-08-06T16:20:54Z</time>
      </trkpt>
      <trkpt lat="48.8617960" lon="13.8417270">
        <ele>770.4</ele>
        <time>2019-08-06T16:20:55Z</time>
      </trkpt>
      <trkpt lat="48.8617760" lon="13.8418240">
        <ele>770.6</ele>
        <time>2019-08-06T16:20:56Z</time>
      </trkpt>
      <trkpt lat="48.8617590" lon="13.8419270">
        <ele>770.6</ele>
        <time>2019-08-06T16:20:57Z</time>
      </trkpt>
      <trkpt lat="48.8617490" lon="13.8420410">
        <ele>770.8</ele>
        <time>2019-08-06T16:20:58Z</time>
      </trkpt>
      <trkpt lat="48.8617480" lon="13.8421500">
        <ele>770.8</ele>
        <time>2019-08-06T16:20:59Z</time>
      </trkpt>
      <trkpt lat="48.8617560" lon="13.8422560">
        <ele>771.0</ele>
        <time>2019-08-06T16:21:00Z</time>
      </trkpt>
      <trkpt lat="48.8617690" lon="13.8423600">
        <ele>771.2</ele>
        <time>2019-08-06T16:21:01Z</time>
      </trkpt>
      <trkpt lat="48.8617860" lon="13.8424620">
        <ele>771.4</ele>
        <time>2019-08-06T16:21:02Z</time>
      </trkpt>
      <trkpt lat="48.8618070" lon="13.8425610">
        <ele>771.4</ele>
        <time>2019-08-06T16:21:03Z</time>
      </trkpt>
      <trkpt lat="48.8618290" lon="13.8426570">
        <ele>771.6</ele>
        <time>2019-08-06T16:21:04Z</time>
      </trkpt>
      <trkpt lat="48.8618540" lon="13.8427570">
        <ele>771.8</ele>
        <time>2019-08-06T16:21:05Z</time>
      </trkpt>
      <trkpt lat="48.8618810" lon="13.8428520">
        <ele>771.8</ele>
        <time>2019-08-06T16:21:06Z</time>
      </trkpt>
      <trkpt lat="48.8619130" lon="13.8429410">
        <ele>772.0</ele>
        <time>2019-08-06T16:21:07Z</time>
      </trkpt>
      <trkpt lat="48.8619470" lon="13.8430280">
        <ele>772.0</ele>
        <time>2019-08-06T16:21:08Z</time>
      </trkpt>
      <trkpt lat="48.8619770" lon="13.8431120">
        <ele>772.2</ele>
        <time>2019-08-06T16:21:09Z</time>
      </trkpt>
      <trkpt lat="48.8620040" lon="13.8431900">
        <ele>772.2</ele>
        <time>2019-08-06T16:21:10Z</time>
      </trkpt>
      <trkpt lat="48.8620290" lon="13.8432640">
        <ele>772.4</ele>
        <time>2019-08-06T16:21:11Z</time>
      </trkpt>
      <trkpt lat="48.8620550" lon="13.8433350">
        <ele>772.4</ele>
        <time>2019-08-06T16:21:12Z</time>
      </trkpt>
      <trkpt lat="48.8620830" lon="13.8434080">
        <ele>772.6</ele>
        <time>2019-08-06T16:21:13Z</time>
      </trkpt>
      <trkpt lat="48.8621140" lon="13.8434890">
        <ele>772.6</ele>
        <time>2019-08-06T16:21:14Z</time>
      </trkpt>
      <trkpt lat="48.8621440" lon="13.8435710">
        <ele>772.6</ele>
        <time>2019-08-06T16:21:15Z</time>
      </trkpt>
      <trkpt lat="48.8621740" lon="13.8436590">
        <ele>772.6</ele>
        <time>2019-08-06T16:21:16Z</time>
      </trkpt>
      <trkpt lat="48.8621990" lon="13.8437530">
        <ele>772.4</ele>
        <time>2019-08-06T16:21:17Z</time>
      </trkpt>
      <trkpt lat="48.8622210" lon="13.8438500">
        <ele>772.4</ele>
        <time>2019-08-06T16:21:18Z</time>
      </trkpt>
      <trkpt lat="48.8622440" lon="13.8439450">
        <ele>772.4</ele>
        <time>2019-08-06T16:21:19Z</time>
      </trkpt>
      <trkpt lat="48.8622680" lon="13.8440420">
        <ele>772.4</ele>
        <time>2019-08-06T16:21:20Z</time>
      </trkpt>
      <trkpt lat="48.8622900" lon="13.8441400">
        <ele>772.4</ele>
        <time>2019-08-06T16:21:21Z</time>
      </trkpt>
      <trkpt lat="48.8623100" lon="13.8442380">
        <ele>772.2</ele>
        <time>2019-08-06T16:21:22Z</time>
      </trkpt>
      <trkpt lat="48.8623240" lon="13.8443470">
        <ele>772.2</ele>
        <time>2019-08-06T16:21:23Z</time>
      </trkpt>
      <trkpt lat="48.8623350" lon="13.8444580">
        <ele>772.0</ele>
        <time>2019-08-06T16:21:24Z</time>
      </trkpt>
      <trkpt lat="48.8623450" lon="13.8445690">
        <ele>772.0</ele>
        <time>2019-08-06T16:21:25Z</time>
      </trkpt>
      <trkpt lat="48.8623500" lon="13.8446710">
        <ele>771.8</ele>
        <time>2019-08-06T16:21:26Z</time>
      </trkpt>
      <trkpt lat="48.8623520" lon="13.8447820">
        <ele>771.6</ele>
        <time>2019-08-06T16:21:27Z</time>
      </trkpt>
      <trkpt lat="48.8623480" lon="13.8448990">
        <ele>771.4</ele>
        <time>2019-08-06T16:21:28Z</time>
      </trkpt>
      <trkpt lat="48.8623340" lon="13.8450140">
        <ele>771.0</ele>
        <time>2019-08-06T16:21:29Z</time>
      </trkpt>
      <trkpt lat="48.8623100" lon="13.8451260">
        <ele>770.8</ele>
        <time>2019-08-06T16:21:30Z</time>
      </trkpt>
      <trkpt lat="48.8622790" lon="13.8452340">
        <ele>770.6</ele>
        <time>2019-08-06T16:21:31Z</time>
      </trkpt>
      <trkpt lat="48.8622370" lon="13.8453390">
        <ele>770.4</ele>
        <time>2019-08-06T16:21:32Z</time>
      </trkpt>
      <trkpt lat="48.8621840" lon="13.8454420">
        <ele>770.2</ele>
        <time>2019-08-06T16:21:33Z</time>
      </trkpt>
      <trkpt lat="48.8621240" lon="13.8455430">
        <ele>770.0</ele>
        <time>2019-08-06T16:21:34Z</time>
      </trkpt>
      <trkpt lat="48.8620620" lon="13.8456320">
        <ele>770.0</ele>
        <time>2019-08-06T16:21:35Z</time>
      </trkpt>
      <trkpt lat="48.8619960" lon="13.8457180">
        <ele>769.8</ele>
        <time>2019-08-06T16:21:36Z</time>
      </trkpt>
      <trkpt lat="48.8619310" lon="13.8458010">
        <ele>769.6</ele>
        <time>2019-08-06T16:21:37Z</time>
      </trkpt>
      <trkpt lat="48.8618610" lon="13.8458870">
        <ele>769.4</ele>
        <time>2019-08-06T16:21:38Z</time>
      </trkpt>
      <trkpt lat="48.8617920" lon="13.8459750">
        <ele>769.2</ele>
        <time>2019-08-06T16:21:39Z</time>
      </trkpt>
      <trkpt lat="48.8617220" lon="13.8460640">
        <ele>769.0</ele>
        <time>2019-08-06T16:21:40Z</time>
      </trkpt>
      <trkpt lat="48.8616520" lon="13.8461480">
        <ele>768.8</ele>
        <time>2019-08-06T16:21:41Z</time>
      </trkpt>
      <trkpt lat="48.8615790" lon="13.8462360">
        <ele>768.6</ele>
        <time>2019-08-06T16:21:42Z</time>
      </trkpt>
      <trkpt lat="48.8615110" lon="13.8463220">
        <ele>768.4</ele>
        <time>2019-08-06T16:21:43Z</time>
      </trkpt>
      <trkpt lat="48.8614440" lon="13.8464130">
        <ele>768.2</ele>
        <time>2019-08-06T16:21:44Z</time>
      </trkpt>
      <trkpt lat="48.8613780" lon="13.8465030">
        <ele>768.0</ele>
        <time>2019-08-06T16:21:45Z</time>
      </trkpt>
      <trkpt lat="48.8613200" lon="13.8465840">
        <ele>767.8</ele>
        <time>2019-08-06T16:21:46Z</time>
      </trkpt>
      <trkpt lat="48.8612570" lon="13.8466780">
        <ele>767.6</ele>
        <time>2019-08-06T16:21:47Z</time>
      </trkpt>
      <trkpt lat="48.8611930" lon="13.8467830">
        <ele>767.2</ele>
        <time>2019-08-06T16:21:48Z</time>
      </trkpt>
      <trkpt lat="48.8611340" lon="13.8468910">
        <ele>767.0</ele>
        <time>2019-08-06T16:21:49Z</time>
      </trkpt>
      <trkpt lat="48.8610800" lon="13.8469990">
        <ele>766.8</ele>
        <time>2019-08-06T16:21:50Z</time>
      </trkpt>
      <trkpt lat="48.8610320" lon="13.8471140">
        <ele>766.4</ele>
        <time>2019-08-06T16:21:51Z</time>
      </trkpt>
      <trkpt lat="48.8609870" lon="13.8472450">
        <ele>766.2</ele>
        <time>2019-08-06T16:21:52Z</time>
      </trkpt>
      <trkpt lat="48.8609420" lon="13.8473820">
        <ele>765.8</ele>
        <time>2019-08-06T16:21:53Z</time>
      </trkpt>
      <trkpt lat="48.8608950" lon="13.8475230">
        <ele>765.6</ele>
        <time>2019-08-06T16:21:54Z</time>
      </trkpt>
      <trkpt lat="48.8608490" lon="13.8476640">
        <ele>765.4</ele>
        <time>2019-08-06T16:21:55Z</time>
      </trkpt>
      <trkpt lat="48.8608030" lon="13.8478070">
        <ele>765.0</ele>
        <time>2019-08-06T16:21:56Z</time>
      </trkpt>
      <trkpt lat="48.8607570" lon="13.8479530">
        <ele>764.6</ele>
        <time>2019-08-06T16:21:57Z</time>
      </trkpt>
      <trkpt lat="48.8607130" lon="13.8481010">
        <ele>764.2</ele>
        <time>2019-08-06T16:21:58Z</time>
      </trkpt>
      <trkpt lat="48.8606690" lon="13.8482510">
        <ele>763.8</ele>
        <time>2019-08-06T16:21:59Z</time>
      </trkpt>
      <trkpt lat="48.8606280" lon="13.8484040">
        <ele>763.6</ele>
        <time>2019-08-06T16:22:00Z</time>
      </trkpt>
      <trkpt lat="48.8605870" lon="13.8485570">
        <ele>763.2</ele>
        <time>2019-08-06T16:22:01Z</time>
      </trkpt>
      <trkpt lat="48.8605460" lon="13.8487090">
        <ele>762.8</ele>
        <time>2019-08-06T16:22:02Z</time>
      </trkpt>
      <trkpt lat="48.8605050" lon="13.8488570">
        <ele>762.6</ele>
        <time>2019-08-06T16:22:03Z</time>
      </trkpt>
      <trkpt lat="48.8604630" lon="13.8490040">
        <ele>762.4</ele>
        <time>2019-08-06T16:22:04Z</time>
      </trkpt>
      <trkpt lat="48.8604210" lon="13.8491520">
        <ele>762.0</ele>
        <time>2019-08-06T16:22:05Z</time>
      </trkpt>
      <trkpt lat="48.8603800" lon="13.8492970">
        <ele>761.8</ele>
        <time>2019-08-06T16:22:06Z</time>
      </trkpt>
      <trkpt lat="48.8603410" lon="13.8494390">
        <ele>761.6</ele>
        <time>2019-08-06T16:22:07Z</time>
      </trkpt>
      <trkpt lat="48.8603010" lon="13.8495830">
        <ele>761.4</ele>
        <time>2019-08-06T16:22:08Z</time>
      </trkpt>
      <trkpt lat="48.8602620" lon="13.8497270">
        <ele>761.2</ele>
        <time>2019-08-06T16:22:09Z</time>
      </trkpt>
      <trkpt lat="48.8602250" lon="13.8498690">
        <ele>761.0</ele>
        <time>2019-08-06T16:22:10Z</time>
      </trkpt>
      <trkpt lat="48.8601880" lon="13.8500110">
        <ele>760.6</ele>
        <time>2019-08-06T16:22:11Z</time>
      </trkpt>
      <trkpt lat="48.8601520" lon="13.8501520">
        <ele>760.4</ele>
        <time>2019-08-06T16:22:12Z</time>
      </trkpt>
      <trkpt lat="48.8601180" lon="13.8502940">
        <ele>760.2</ele>
        <time>2019-08-06T16:22:13Z</time>
      </trkpt>
      <trkpt lat="48.8600840" lon="13.8504350">
        <ele>760.0</ele>
        <time>2019-08-06T16:22:14Z</time>
      </trkpt>
      <trkpt lat="48.8600470" lon="13.8505730">
        <ele>759.6</ele>
        <time>2019-08-06T16:22:15Z</time>
      </trkpt>
      <trkpt lat="48.8600080" lon="13.8507100">
        <ele>759.4</ele>
        <time>2019-08-06T16:22:16Z</time>
      </trkpt>
      <trkpt lat="48.8599700" lon="13.8508430">
        <ele>759.2</ele>
        <time>2019-08-06T16:22:17Z</time>
      </trkpt>
      <trkpt lat="48.8599340" lon="13.8509700">
        <ele>759.2</ele>
        <time>2019-08-06T16:22:18Z</time>
      </trkpt>
      <trkpt lat="48.8598990" lon="13.8511050">
        <ele>759.0</ele>
        <time>2019-08-06T16:22:19Z</time>
      </trkpt>
      <trkpt lat="48.8598640" lon="13.8512420">
        <ele>758.8</ele>
        <time>2019-08-06T16:22:20Z</time>
      </trkpt>
      <trkpt lat="48.8598300" lon="13.8513740">
        <ele>758.6</ele>
        <time>2019-08-06T16:22:21Z</time>
      </trkpt>
      <trkpt lat="48.8597980" lon="13.8515100">
        <ele>758.4</ele>
        <time>2019-08-06T16:22:22Z</time>
      </trkpt>
      <trkpt lat="48.8597660" lon="13.8516470">
        <ele>758.4</ele>
        <time>2019-08-06T16:22:23Z</time>
      </trkpt>
      <trkpt lat="48.8597360" lon="13.8517760">
        <ele>758.4</ele>
        <time>2019-08-06T16:22:24Z</time>
      </trkpt>
      <trkpt lat="48.8597040" lon="13.8518970">
        <ele>758.2</ele>
        <time>2019-08-06T16:22:25Z</time>
      </trkpt>
      <trkpt lat="48.8596700" lon="13.8520220">
        <ele>758.2</ele>
        <time>2019-08-06T16:22:26Z</time>
      </trkpt>
      <trkpt lat="48.8596380" lon="13.8521450">
        <ele>758.2</ele>
        <time>2019-08-06T16:22:27Z</time>
      </trkpt>
      <trkpt lat="48.8596060" lon="13.8522600">
        <ele>758.0</ele>
        <time>2019-08-06T16:22:28Z</time>
      </trkpt>
      <trkpt lat="48.8595710" lon="13.8523850">
        <ele>757.8</ele>
        <time>2019-08-06T16:22:29Z</time>
      </trkpt>
      <trkpt lat="48.8595370" lon="13.8525120">
        <ele>757.8</ele>
        <time>2019-08-06T16:22:30Z</time>
      </trkpt>
      <trkpt lat="48.8595060" lon="13.8526300">
        <ele>757.6</ele>
        <time>2019-08-06T16:22:31Z</time>
      </trkpt>
      <trkpt lat="48.8594740" lon="13.8527510">
        <ele>757.6</ele>
        <time>2019-08-06T16:22:32Z</time>
      </trkpt>
      <trkpt lat="48.8594450" lon="13.8528740">
        <ele>757.4</ele>
        <time>2019-08-06T16:22:33Z</time>
      </trkpt>
      <trkpt lat="48.8594200" lon="13.8529970">
        <ele>757.2</ele>
        <time>2019-08-06T16:22:34Z</time>
      </trkpt>
      <trkpt lat="48.8594000" lon="13.8531200">
        <ele>757.0</ele>
        <time>2019-08-06T16:22:35Z</time>
      </trkpt>
      <trkpt lat="48.8593820" lon="13.8532410">
        <ele>756.8</ele>
        <time>2019-08-06T16:22:36Z</time>
      </trkpt>
      <trkpt lat="48.8593660" lon="13.8533570">
        <ele>756.6</ele>
        <time>2019-08-06T16:22:37Z</time>
      </trkpt>
      <trkpt lat="48.8593510" lon="13.8534740">
        <ele>756.6</ele>
        <time>2019-08-06T16:22:38Z</time>
      </trkpt>
      <trkpt lat="48.8593380" lon="13.8535890">
        <ele>756.6</ele>
        <time>2019-08-06T16:22:39Z</time>
      </trkpt>
      <trkpt lat="48.8593280" lon="13.8537000">
        <ele>756.8</ele>
        <time>2019-08-06T16:22:40Z</time>
      </trkpt>
      <trkpt lat="48.8593230" lon="13.8538090">
        <ele>756.8</ele>
        <time>2019-08-06T16:22:41Z</time>
      </trkpt>
      <trkpt lat="48.8593230" lon="13.8539180">
        <ele>757.0</ele>
        <time>2019-08-06T16:22:42Z</time>
      </trkpt>
      <trkpt lat="48.8593250" lon="13.8540220">
        <ele>757.0</ele>
        <time>2019-08-06T16:22:43Z</time>
      </trkpt>
      <trkpt lat="48.8593310" lon="13.8541250">
        <ele>757.0</ele>
        <time>2019-08-06T16:22:44Z</time>
      </trkpt>
      <trkpt lat="48.8593410" lon="13.8542360">
        <ele>757.0</ele>
        <time>2019-08-06T16:22:45Z</time>
      </trkpt>
      <trkpt lat="48.8593520" lon="13.8543430">
        <ele>757.2</ele>
        <time>2019-08-06T16:22:46Z</time>
      </trkpt>
      <trkpt lat="48.8593640" lon="13.8544440">
        <ele>757.2</ele>
        <time>2019-08-06T16:22:47Z</time>
      </trkpt>
      <trkpt lat="48.8593760" lon="13.8545480">
        <ele>757.2</ele>
        <time>2019-08-06T16:22:48Z</time>
      </trkpt>
      <trkpt lat="48.8593900" lon="13.8546540">
        <ele>757.2</ele>
        <time>2019-08-06T16:22:49Z</time>
      </trkpt>
      <trkpt lat="48.8594030" lon="13.8547570">
        <ele>757.2</ele>
        <time>2019-08-06T16:22:50Z</time>
      </trkpt>
      <trkpt lat="48.8594190" lon="13.8548600">
        <ele>757.2</ele>
        <time>2019-08-06T16:22:51Z</time>
      </trkpt>
      <trkpt lat="48.8594370" lon="13.8549590">
        <ele>757.2</ele>
        <time>2019-08-06T16:22:52Z</time>
      </trkpt>
      <trkpt lat="48.8594580" lon="13.8550550">
        <ele>757.2</ele>
        <time>2019-08-06T16:22:53Z</time>
      </trkpt>
      <trkpt lat="48.8594800" lon="13.8551540">
        <ele>757.2</ele>
        <time>2019-08-06T16:22:54Z</time>
      </trkpt>
      <trkpt lat="48.8595030" lon="13.8552530">
        <ele>757.2</ele>
        <time>2019-08-06T16:22:55Z</time>
      </trkpt>
      <trkpt lat="48.8595260" lon="13.8553480">
        <ele>757.2</ele>
        <time>2019-08-06T16:22:56Z</time>
      </trkpt>
      <trkpt lat="48.8595530" lon="13.8554450">
        <ele>757.2</ele>
        <time>2019-08-06T16:22:57Z</time>
      </trkpt>
      <trkpt lat="48.8595800" lon="13.8555380">
        <ele>757.0</ele>
        <time>2019-08-06T16:22:58Z</time>
      </trkpt>
      <trkpt lat="48.8596050" lon="13.8556290">
        <ele>757.0</ele>
        <time>2019-08-06T16:22:59Z</time>
      </trkpt>
      <trkpt lat="48.8596300" lon="13.8557210">
        <ele>757.0</ele>
        <time>2019-08-06T16:23:00Z</time>
      </trkpt>
      <trkpt lat="48.8596560" lon="13.8558160">
        <ele>757.0</ele>
        <time>2019-08-06T16:23:01Z</time>
      </trkpt>
      <trkpt lat="48.8596890" lon="13.8559100">
        <ele>757.0</ele>
        <time>2019-08-06T16:23:02Z</time>
      </trkpt>
      <trkpt lat="48.8597270" lon="13.8560030">
        <ele>756.8</ele>
        <time>2019-08-06T16:23:03Z</time>
      </trkpt>
      <trkpt lat="48.8597620" lon="13.8560950">
        <ele>756.8</ele>
        <time>2019-08-06T16:23:04Z</time>
      </trkpt>
      <trkpt lat="48.8597990" lon="13.8561900">
        <ele>756.6</ele>
        <time>2019-08-06T16:23:05Z</time>
      </trkpt>
      <trkpt lat="48.8598390" lon="13.8562820">
        <ele>756.6</ele>
        <time>2019-08-06T16:23:06Z</time>
      </trkpt>
      <trkpt lat="48.8598790" lon="13.8563790">
        <ele>756.4</ele>
        <time>2019-08-06T16:23:07Z</time>
      </trkpt>
      <trkpt lat="48.8599210" lon="13.8564780">
        <ele>756.4</ele>
        <time>2019-08-06T16:23:08Z</time>
      </trkpt>
      <trkpt lat="48.8599600" lon="13.8565730">
        <ele>756.2</ele>
        <time>2019-08-06T16:23:09Z</time>
      </trkpt>
      <trkpt lat="48.8599960" lon="13.8566660">
        <ele>756.2</ele>
        <time>2019-08-06T16:23:10Z</time>
      </trkpt>
      <trkpt lat="48.8600320" lon="13.8567620">
        <ele>756.0</ele>
        <time>2019-08-06T16:23:11Z</time>
      </trkpt>
      <trkpt lat="48.8600700" lon="13.8568640">
        <ele>756.0</ele>
        <time>2019-08-06T16:23:12Z</time>
      </trkpt>
      <trkpt lat="48.8601120" lon="13.8569720">
        <ele>755.8</ele>
        <time>2019-08-06T16:23:13Z</time>
      </trkpt>
      <trkpt lat="48.8601520" lon="13.8570740">
        <ele>755.6</ele>
        <time>2019-08-06T16:23:14Z</time>
      </trkpt>
      <trkpt lat="48.8601940" lon="13.8571740">
        <ele>755.4</ele>
        <time>2019-08-06T16:23:15Z</time>
      </trkpt>
      <trkpt lat="48.8602350" lon="13.8572680">
        <ele>755.4</ele>
        <time>2019-08-06T16:23:16Z</time>
      </trkpt>
      <trkpt lat="48.8602780" lon="13.8573700">
        <ele>755.2</ele>
        <time>2019-08-06T16:23:17Z</time>
      </trkpt>
      <trkpt lat="48.8603230" lon="13.8574750">
        <ele>755.0</ele>
        <time>2019-08-06T16:23:18Z</time>
      </trkpt>
      <trkpt lat="48.8603620" lon="13.8575790">
        <ele>754.8</ele>
        <time>2019-08-06T16:23:19Z</time>
      </trkpt>
      <trkpt lat="48.8604010" lon="13.8576820">
        <ele>754.6</ele>
        <time>2019-08-06T16:23:20Z</time>
      </trkpt>
      <trkpt lat="48.8604420" lon="13.8577880">
        <ele>754.4</ele>
        <time>2019-08-06T16:23:21Z</time>
      </trkpt>
      <trkpt lat="48.8604830" lon="13.8578920">
        <ele>754.4</ele>
        <time>2019-08-06T16:23:22Z</time>
      </trkpt>
      <trkpt lat="48.8605230" lon="13.8579890">
        <ele>754.2</ele>
        <time>2019-08-06T16:23:23Z</time>
      </trkpt>
      <trkpt lat="48.8605650" lon="13.8580840">
        <ele>754.0</ele>
        <time>2019-08-06T16:23:24Z</time>
      </trkpt>
      <trkpt lat="48.8606100" lon="13.8581770">
        <ele>754.0</ele>
        <time>2019-08-06T16:23:25Z</time>
      </trkpt>
      <trkpt lat="48.8606540" lon="13.8582740">
        <ele>754.0</ele>
        <time>2019-08-06T16:23:26Z</time>
      </trkpt>
      <trkpt lat="48.8606930" lon="13.8583710">
        <ele>753.8</ele>
        <time>2019-08-06T16:23:27Z</time>
      </trkpt>
      <trkpt lat="48.8607320" lon="13.8584740">
        <ele>753.8</ele>
        <time>2019-08-06T16:23:28Z</time>
      </trkpt>
      <trkpt lat="48.8607740" lon="13.8585780">
        <ele>753.4</ele>
        <time>2019-08-06T16:23:29Z</time>
      </trkpt>
      <trkpt lat="48.8608140" lon="13.8586790">
        <ele>753.2</ele>
        <time>2019-08-06T16:23:30Z</time>
      </trkpt>
      <trkpt lat="48.8608540" lon="13.8587800">
        <ele>753.0</ele>
        <time>2019-08-06T16:23:31Z</time>
      </trkpt>
      <trkpt lat="48.8608980" lon="13.8588870">
        <ele>752.8</ele>
        <time>2019-08-06T16:23:32Z</time>
      </trkpt>
      <trkpt lat="48.8609420" lon="13.8589990">
        <ele>752.6</ele>
        <time>2019-08-06T16:23:33Z</time>
      </trkpt>
      <trkpt lat="48.8609850" lon="13.8591040">
        <ele>752.4</ele>
        <time>2019-08-06T16:23:34Z</time>
      </trkpt>
      <trkpt lat="48.8610270" lon="13.8592080">
        <ele>752.2</ele>
        <time>2019-08-06T16:23:35Z</time>
      </trkpt>
      <trkpt lat="48.8610690" lon="13.8593130">
        <ele>752.2</ele>
        <time>2019-08-06T16:23:36Z</time>
      </trkpt>
      <trkpt lat="48.8611090" lon="13.8594140">
        <ele>752.2</ele>
        <time>2019-08-06T16:23:37Z</time>
      </trkpt>
      <trkpt lat="48.8611480" lon="13.8595190">
        <ele>752.2</ele>
        <time>2019-08-06T16:23:38Z</time>
      </trkpt>
      <trkpt lat="48.8611880" lon="13.8596220">
        <ele>752.0</ele>
        <time>2019-08-06T16:23:39Z</time>
      </trkpt>
      <trkpt lat="48.8612280" lon="13.8597230">
        <ele>751.8</ele>
        <time>2019-08-06T16:23:40Z</time>
      </trkpt>
      <trkpt lat="48.8612690" lon="13.8598210">
        <ele>751.8</ele>
        <time>2019-08-06T16:23:41Z</time>
      </trkpt>
      <trkpt lat="48.8613110" lon="13.8599190">
        <ele>751.8</ele>
        <time>2019-08-06T16:23:42Z</time>
      </trkpt>
      <trkpt lat="48.8613520" lon="13.8600140">
        <ele>751.8</ele>
        <time>2019-08-06T16:23:43Z</time>
      </trkpt>
      <trkpt lat="48.8613920" lon="13.8601090">
        <ele>751.8</ele>
        <time>2019-08-06T16:23:44Z</time>
      </trkpt>
      <trkpt lat="48.8614310" lon="13.8602030">
        <ele>751.8</ele>
        <time>2019-08-06T16:23:45Z</time>
      </trkpt>
      <trkpt lat="48.8614690" lon="13.8603000">
        <ele>751.6</ele>
        <time>2019-08-06T16:23:46Z</time>
      </trkpt>
      <trkpt lat="48.8615040" lon="13.8603940">
        <ele>751.6</ele>
        <time>2019-08-06T16:23:47Z</time>
      </trkpt>
      <trkpt lat="48.8615410" lon="13.8604890">
        <ele>751.6</ele>
        <time>2019-08-06T16:23:48Z</time>
      </trkpt>
      <trkpt lat="48.8615750" lon="13.8605840">
        <ele>751.4</ele>
        <time>2019-08-06T16:23:49Z</time>
      </trkpt>
      <trkpt lat="48.8616100" lon="13.8606790">
        <ele>751.4</ele>
        <time>2019-08-06T16:23:50Z</time>
      </trkpt>
      <trkpt lat="48.8616470" lon="13.8607760">
        <ele>751.2</ele>
        <time>2019-08-06T16:23:51Z</time>
      </trkpt>
      <trkpt lat="48.8616810" lon="13.8608760">
        <ele>751.0</ele>
        <time>2019-08-06T16:23:52Z</time>
      </trkpt>
      <trkpt lat="48.8617130" lon="13.8609790">
        <ele>751.0</ele>
        <time>2019-08-06T16:23:53Z</time>
      </trkpt>
      <trkpt lat="48.8617390" lon="13.8610850">
        <ele>750.8</ele>
        <time>2019-08-06T16:23:54Z</time>
      </trkpt>
      <trkpt lat="48.8617600" lon="13.8611930">
        <ele>750.8</ele>
        <time>2019-08-06T16:23:55Z</time>
      </trkpt>
      <trkpt lat="48.8617790" lon="13.8613000">
        <ele>750.8</ele>
        <time>2019-08-06T16:23:56Z</time>
      </trkpt>
      <trkpt lat="48.8617940" lon="13.8614070">
        <ele>750.8</ele>
        <time>2019-08-06T16:23:57Z</time>
      </trkpt>
      <trkpt lat="48.8618100" lon="13.8615170">
        <ele>750.6</ele>
        <time>2019-08-06T16:23:58Z</time>
      </trkpt>
      <trkpt lat="48.8618270" lon="13.8616280">
        <ele>750.6</ele>
        <time>2019-08-06T16:23:59Z</time>
      </trkpt>
      <trkpt lat="48.8618420" lon="13.8617380">
        <ele>750.6</ele>
        <time>2019-08-06T16:24:00Z</time>
      </trkpt>
      <trkpt lat="48.8618580" lon="13.8618450">
        <ele>750.6</ele>
        <time>2019-08-06T16:24:01Z</time>
      </trkpt>
      <trkpt lat="48.8618720" lon="13.8619500">
        <ele>750.4</ele>
        <time>2019-08-06T16:24:02Z</time>
      </trkpt>
      <trkpt lat="48.8618860" lon="13.8620550">
        <ele>750.4</ele>
        <time>2019-08-06T16:24:03Z</time>
      </trkpt>
      <trkpt lat="48.8619020" lon="13.8621620">
        <ele>750.4</ele>
        <time>2019-08-06T16:24:04Z</time>
      </trkpt>
      <trkpt lat="48.8619150" lon="13.8622690">
        <ele>750.2</ele>
        <time>2019-08-06T16:24:05Z</time>
      </trkpt>
      <trkpt lat="48.8619270" lon="13.8623730">
        <ele>750.2</ele>
        <time>2019-08-06T16:24:06Z</time>
      </trkpt>
      <trkpt lat="48.8619350" lon="13.8624770">
        <ele>750.2</ele>
        <time>2019-08-06T16:24:07Z</time>
      </trkpt>
      <trkpt lat="48.8619460" lon="13.8625860">
        <ele>750.2</ele>
        <time>2019-08-06T16:24:08Z</time>
      </trkpt>
      <trkpt lat="48.8619560" lon="13.8626910">
        <ele>750.2</ele>
        <time>2019-08-06T16:24:09Z</time>
      </trkpt>
      <trkpt lat="48.8619740" lon="13.8627930">
        <ele>750.2</ele>
        <time>2019-08-06T16:24:10Z</time>
      </trkpt>
      <trkpt lat="48.8619930" lon="13.8628990">
        <ele>750.2</ele>
        <time>2019-08-06T16:24:11Z</time>
      </trkpt>
      <trkpt lat="48.8620040" lon="13.8630030">
        <ele>750.2</ele>
        <time>2019-08-06T16:24:12Z</time>
      </trkpt>
      <trkpt lat="48.8620150" lon="13.8631060">
        <ele>750.2</ele>
        <time>2019-08-06T16:24:13Z</time>
      </trkpt>
      <trkpt lat="48.8620270" lon="13.8632100">
        <ele>750.2</ele>
        <time>2019-08-06T16:24:14Z</time>
      </trkpt>
      <trkpt lat="48.8620370" lon="13.8633160">
        <ele>750.2</ele>
        <time>2019-08-06T16:24:15Z</time>
      </trkpt>
      <trkpt lat="48.8620490" lon="13.8634180">
        <ele>750.2</ele>
        <time>2019-08-06T16:24:16Z</time>
      </trkpt>
      <trkpt lat="48.8620620" lon="13.8635210">
        <ele>750.2</ele>
        <time>2019-08-06T16:24:17Z</time>
      </trkpt>
      <trkpt lat="48.8620780" lon="13.8636240">
        <ele>750.2</ele>
        <time>2019-08-06T16:24:18Z</time>
      </trkpt>
      <trkpt lat="48.8620920" lon="13.8637260">
        <ele>750.2</ele>
        <time>2019-08-06T16:24:19Z</time>
      </trkpt>
      <trkpt lat="48.8621080" lon="13.8638250">
        <ele>750.2</ele>
        <time>2019-08-06T16:24:20Z</time>
      </trkpt>
      <trkpt lat="48.8621270" lon="13.8639240">
        <ele>750.0</ele>
        <time>2019-08-06T16:24:21Z</time>
      </trkpt>
      <trkpt lat="48.8621410" lon="13.8640220">
        <ele>750.0</ele>
        <time>2019-08-06T16:24:22Z</time>
      </trkpt>
      <trkpt lat="48.8621550" lon="13.8641220">
        <ele>750.0</ele>
        <time>2019-08-06T16:24:23Z</time>
      </trkpt>
      <trkpt lat="48.8621670" lon="13.8642180">
        <ele>750.0</ele>
        <time>2019-08-06T16:24:24Z</time>
      </trkpt>
      <trkpt lat="48.8621760" lon="13.8643120">
        <ele>750.0</ele>
        <time>2019-08-06T16:24:25Z</time>
      </trkpt>
      <trkpt lat="48.8621840" lon="13.8644020">
        <ele>750.0</ele>
        <time>2019-08-06T16:24:26Z</time>
      </trkpt>
      <trkpt lat="48.8621910" lon="13.8644840">
        <ele>750.0</ele>
        <time>2019-08-06T16:24:27Z</time>
      </trkpt>
      <trkpt lat="48.8621990" lon="13.8645620">
        <ele>750.2</ele>
        <time>2019-08-06T16:24:28Z</time>
      </trkpt>
      <trkpt lat="48.8622060" lon="13.8646340">
        <ele>750.2</ele>
        <time>2019-08-06T16:24:29Z</time>
      </trkpt>
      <trkpt lat="48.8622120" lon="13.8646950">
        <ele>750.4</ele>
        <time>2019-08-06T16:24:30Z</time>
      </trkpt>
      <trkpt lat="48.8622160" lon="13.8647520">
        <ele>750.4</ele>
        <time>2019-08-06T16:24:31Z</time>
      </trkpt>
      <trkpt lat="48.8622180" lon="13.8648040">
        <ele>750.6</ele>
        <time>2019-08-06T16:24:32Z</time>
      </trkpt>
      <trkpt lat="48.8622190" lon="13.8648560">
        <ele>750.6</ele>
        <time>2019-08-06T16:24:33Z</time>
      </trkpt>
      <trkpt lat="48.8622210" lon="13.8649110">
        <ele>750.6</ele>
        <time>2019-08-06T16:24:34Z</time>
      </trkpt>
      <trkpt lat="48.8622240" lon="13.8649700">
        <ele>750.6</ele>
        <time>2019-08-06T16:24:35Z</time>
      </trkpt>
      <trkpt lat="48.8622270" lon="13.8650330">
        <ele>750.4</ele>
        <time>2019-08-06T16:24:36Z</time>
      </trkpt>
      <trkpt lat="48.8622330" lon="13.8650990">
        <ele>750.4</ele>
        <time>2019-08-06T16:24:37Z</time>
      </trkpt>
      <trkpt lat="48.8622390" lon="13.8651720">
        <ele>750.2</ele>
        <time>2019-08-06T16:24:38Z</time>
      </trkpt>
      <trkpt lat="48.8622440" lon="13.8652490">
        <ele>750.2</ele>
        <time>2019-08-06T16:24:39Z</time>
      </trkpt>
      <trkpt lat="48.8622490" lon="13.8653240">
        <ele>750.0</ele>
        <time>2019-08-06T16:24:40Z</time>
      </trkpt>
      <trkpt lat="48.8622550" lon="13.8654020">
        <ele>750.0</ele>
        <time>2019-08-06T16:24:41Z</time>
      </trkpt>
      <trkpt lat="48.8622600" lon="13.8654810">
        <ele>749.8</ele>
        <time>2019-08-06T16:24:42Z</time>
      </trkpt>
      <trkpt lat="48.8622630" lon="13.8655600">
        <ele>749.8</ele>
        <time>2019-08-06T16:24:43Z</time>
      </trkpt>
      <trkpt lat="48.8622630" lon="13.8656410">
        <ele>749.6</ele>
        <time>2019-08-06T16:24:44Z</time>
      </trkpt>
      <trkpt lat="48.8622610" lon="13.8657200">
        <ele>749.6</ele>
        <time>2019-08-06T16:24:45Z</time>
      </trkpt>
      <trkpt lat="48.8622570" lon="13.8657970">
        <ele>749.4</ele>
        <time>2019-08-06T16:24:46Z</time>
      </trkpt>
      <trkpt lat="48.8622520" lon="13.8658740">
        <ele>749.4</ele>
        <time>2019-08-06T16:24:47Z</time>
      </trkpt>
      <trkpt lat="48.8622480" lon="13.8659490">
        <ele>749.4</ele>
        <time>2019-08-06T16:24:48Z</time>
      </trkpt>
      <trkpt lat="48.8622450" lon="13.8660270">
        <ele>749.2</ele>
        <time>2019-08-06T16:24:49Z</time>
      </trkpt>
      <trkpt lat="48.8622420" lon="13.8661050">
        <ele>749.2</ele>
        <time>2019-08-06T16:24:50Z</time>
      </trkpt>
      <trkpt lat="48.8622410" lon="13.8661830">
        <ele>749.2</ele>
        <time>2019-08-06T16:24:51Z</time>
      </trkpt>
      <trkpt lat="48.8622370" lon="13.8662590">
        <ele>749.2</ele>
        <time>2019-08-06T16:24:52Z</time>
      </trkpt>
      <trkpt lat="48.8622320" lon="13.8663340">
        <ele>749.0</ele>
        <time>2019-08-06T16:24:53Z</time>
      </trkpt>
      <trkpt lat="48.8622280" lon="13.8664090">
        <ele>749.0</ele>
        <time>2019-08-06T16:24:54Z</time>
      </trkpt>
      <trkpt lat="48.8622230" lon="13.8664830">
        <ele>749.0</ele>
        <time>2019-08-06T16:24:55Z</time>
      </trkpt>
      <trkpt lat="48.8622190" lon="13.8665590">
        <ele>748.8</ele>
        <time>2019-08-06T16:24:56Z</time>
      </trkpt>
      <trkpt lat="48.8622160" lon="13.8666330">
        <ele>748.8</ele>
        <time>2019-08-06T16:24:57Z</time>
      </trkpt>
      <trkpt lat="48.8622120" lon="13.8667060">
        <ele>748.8</ele>
        <time>2019-08-06T16:24:58Z</time>
      </trkpt>
      <trkpt lat="48.8622060" lon="13.8667790">
        <ele>748.8</ele>
        <time>2019-08-06T16:24:59Z</time>
      </trkpt>
      <trkpt lat="48.8622010" lon="13.8668430">
        <ele>748.8</ele>
        <time>2019-08-06T16:25:00Z</time>
      </trkpt>
      <trkpt lat="48.8622010" lon="13.8669070">
        <ele>748.8</ele>
        <time>2019-08-06T16:25:01Z</time>
      </trkpt>
      <trkpt lat="48.8622040" lon="13.8669730">
        <ele>748.8</ele>
        <time>2019-08-06T16:25:02Z</time>
      </trkpt>
      <trkpt lat="48.8622070" lon="13.8670340">
        <ele>748.8</ele>
        <time>2019-08-06T16:25:03Z</time>
      </trkpt>
      <trkpt lat="48.8622110" lon="13.8670910">
        <ele>748.8</ele>
        <time>2019-08-06T16:25:04Z</time>
      </trkpt>
      <trkpt lat="48.8622130" lon="13.8671490">
        <ele>748.6</ele>
        <time>2019-08-06T16:25:05Z</time>
      </trkpt>
      <trkpt lat="48.8622140" lon="13.8672040">
        <ele>748.6</ele>
        <time>2019-08-06T16:25:06Z</time>
      </trkpt>
      <trkpt lat="48.8622190" lon="13.8672590">
        <ele>748.6</ele>
        <time>2019-08-06T16:25:07Z</time>
      </trkpt>
      <trkpt lat="48.8622240" lon="13.8673130">
        <ele>748.8</ele>
        <time>2019-08-06T16:25:08Z</time>
      </trkpt>
      <trkpt lat="48.8622270" lon="13.8673650">
        <ele>748.8</ele>
        <time>2019-08-06T16:25:09Z</time>
      </trkpt>
      <trkpt lat="48.8622290" lon="13.8674090">
        <ele>748.8</ele>
        <time>2019-08-06T16:25:10Z</time>
      </trkpt>
      <trkpt lat="48.8622290" lon="13.8674530">
        <ele>748.8</ele>
        <time>2019-08-06T16:25:11Z</time>
      </trkpt>
      <trkpt lat="48.8622280" lon="13.8675000">
        <ele>748.8</ele>
        <time>2019-08-06T16:25:12Z</time>
      </trkpt>
      <trkpt lat="48.8622290" lon="13.8675450">
        <ele>748.8</ele>
        <time>2019-08-06T16:25:13Z</time>
      </trkpt>
      <trkpt lat="48.8622300" lon="13.8675910">
        <ele>748.8</ele>
        <time>2019-08-06T16:25:14Z</time>
      </trkpt>
      <trkpt lat="48.8622300" lon="13.8676350">
        <ele>748.8</ele>
        <time>2019-08-06T16:25:15Z</time>
      </trkpt>
      <trkpt lat="48.8622310" lon="13.8676790">
        <ele>748.8</ele>
        <time>2019-08-06T16:25:16Z</time>
      </trkpt>
      <trkpt lat="48.8622360" lon="13.8677220">
        <ele>748.8</ele>
        <time>2019-08-06T16:25:17Z</time>
      </trkpt>
      <trkpt lat="48.8622430" lon="13.8677640">
        <ele>748.8</ele>
        <time>2019-08-06T16:25:18Z</time>
      </trkpt>
      <trkpt lat="48.8622480" lon="13.8678100">
        <ele>748.8</ele>
        <time>2019-08-06T16:25:19Z</time>
      </trkpt>
      <trkpt lat="48.8622510" lon="13.8678640">
        <ele>748.8</ele>
        <time>2019-08-06T16:25:20Z</time>
      </trkpt>
      <trkpt lat="48.8622520" lon="13.8679220">
        <ele>748.8</ele>
        <time>2019-08-06T16:25:21Z</time>
      </trkpt>
      <trkpt lat="48.8622510" lon="13.8679840">
        <ele>748.8</ele>
        <time>2019-08-06T16:25:22Z</time>
      </trkpt>
      <trkpt lat="48.8622500" lon="13.8680480">
        <ele>748.8</ele>
        <time>2019-08-06T16:25:23Z</time>
      </trkpt>
      <trkpt lat="48.8622520" lon="13.8681160">
        <ele>748.8</ele>
        <time>2019-08-06T16:25:24Z</time>
      </trkpt>
      <trkpt lat="48.8622530" lon="13.8681840">
        <ele>748.8</ele>
        <time>2019-08-06T16:25:25Z</time>
      </trkpt>
      <trkpt lat="48.8622540" lon="13.8682530">
        <ele>748.8</ele>
        <time>2019-08-06T16:25:26Z</time>
      </trkpt>
      <trkpt lat="48.8622550" lon="13.8683230">
        <ele>748.8</ele>
        <time>2019-08-06T16:25:27Z</time>
      </trkpt>
      <trkpt lat="48.8622570" lon="13.8683970">
        <ele>748.8</ele>
        <time>2019-08-06T16:25:28Z</time>
      </trkpt>
      <trkpt lat="48.8622590" lon="13.8684720">
        <ele>748.8</ele>
        <time>2019-08-06T16:25:29Z</time>
      </trkpt>
      <trkpt lat="48.8622610" lon="13.8685480">
        <ele>748.6</ele>
        <time>2019-08-06T16:25:30Z</time>
      </trkpt>
      <trkpt lat="48.8622630" lon="13.8686290">
        <ele>748.6</ele>
        <time>2019-08-06T16:25:31Z</time>
      </trkpt>
      <trkpt lat="48.8622630" lon="13.8687110">
        <ele>748.6</ele>
        <time>2019-08-06T16:25:32Z</time>
      </trkpt>
      <trkpt lat="48.8622620" lon="13.8687940">
        <ele>748.6</ele>
        <time>2019-08-06T16:25:33Z</time>
      </trkpt>
      <trkpt lat="48.8622590" lon="13.8688770">
        <ele>748.6</ele>
        <time>2019-08-06T16:25:34Z</time>
      </trkpt>
      <trkpt lat="48.8622550" lon="13.8689620">
        <ele>748.4</ele>
        <time>2019-08-06T16:25:35Z</time>
      </trkpt>
      <trkpt lat="48.8622500" lon="13.8690470">
        <ele>748.4</ele>
        <time>2019-08-06T16:25:36Z</time>
      </trkpt>
      <trkpt lat="48.8622440" lon="13.8691320">
        <ele>748.4</ele>
        <time>2019-08-06T16:25:37Z</time>
      </trkpt>
      <trkpt lat="48.8622350" lon="13.8692160">
        <ele>748.2</ele>
        <time>2019-08-06T16:25:38Z</time>
      </trkpt>
      <trkpt lat="48.8622240" lon="13.8692990">
        <ele>748.2</ele>
        <time>2019-08-06T16:25:39Z</time>
      </trkpt>
      <trkpt lat="48.8622110" lon="13.8693860">
        <ele>748.2</ele>
        <time>2019-08-06T16:25:40Z</time>
      </trkpt>
      <trkpt lat="48.8621990" lon="13.8694710">
        <ele>748.2</ele>
        <time>2019-08-06T16:25:41Z</time>
      </trkpt>
      <trkpt lat="48.8621850" lon="13.8695570">
        <ele>748.2</ele>
        <time>2019-08-06T16:25:42Z</time>
      </trkpt>
      <trkpt lat="48.8621700" lon="13.8696420">
        <ele>748.2</ele>
        <time>2019-08-06T16:25:43Z</time>
      </trkpt>
      <trkpt lat="48.8621550" lon="13.8697280">
        <ele>748.2</ele>
        <time>2019-08-06T16:25:44Z</time>
      </trkpt>
      <trkpt lat="48.8621400" lon="13.8698110">
        <ele>748.4</ele>
        <time>2019-08-06T16:25:45Z</time>
      </trkpt>
      <trkpt lat="48.8621240" lon="13.8698930">
        <ele>748.4</ele>
        <time>2019-08-06T16:25:46Z</time>
      </trkpt>
      <trkpt lat="48.8621080" lon="13.8699770">
        <ele>748.4</ele>
        <time>2019-08-06T16:25:47Z</time>
      </trkpt>
      <trkpt lat="48.8620930" lon="13.8700620">
        <ele>748.4</ele>
        <time>2019-08-06T16:25:48Z</time>
      </trkpt>
      <trkpt lat="48.8620770" lon="13.8701480">
        <ele>748.2</ele>
        <time>2019-08-06T16:25:49Z</time>
      </trkpt>
      <trkpt lat="48.8620620" lon="13.8702360">
        <ele>748.2</ele>
        <time>2019-08-06T16:25:50Z</time>
      </trkpt>
      <trkpt lat="48.8620430" lon="13.8703240">
        <ele>748.2</ele>
        <time>2019-08-06T16:25:51Z</time>
      </trkpt>
      <trkpt lat="48.8620240" lon="13.8704130">
        <ele>748.2</ele>
        <time>2019-08-06T16:25:52Z</time>
      </trkpt>
      <trkpt lat="48.8620070" lon="13.8705030">
        <ele>748.2</ele>
        <time>2019-08-06T16:25:53Z</time>
      </trkpt>
      <trkpt lat="48.8619920" lon="13.8705960">
        <ele>748.2</ele>
        <time>2019-08-06T16:25:54Z</time>
      </trkpt>
      <trkpt lat="48.8619770" lon="13.8706880">
        <ele>748.2</ele>
        <time>2019-08-06T16:25:55Z</time>
      </trkpt>
      <trkpt lat="48.8619610" lon="13.8707790">
        <ele>748.0</ele>
        <time>2019-08-06T16:25:56Z</time>
      </trkpt>
      <trkpt lat="48.8619460" lon="13.8708710">
        <ele>748.0</ele>
        <time>2019-08-06T16:25:57Z</time>
      </trkpt>
      <trkpt lat="48.8619330" lon="13.8709630">
        <ele>748.0</ele>
        <time>2019-08-06T16:25:58Z</time>
      </trkpt>
      <trkpt lat="48.8619180" lon="13.8710530">
        <ele>748.0</ele>
        <time>2019-08-06T16:25:59Z</time>
      </trkpt>
      <trkpt lat="48.8619010" lon="13.8711430">
        <ele>748.0</ele>
        <time>2019-08-06T16:26:00Z</time>
      </trkpt>
      <trkpt lat="48.8618810" lon="13.8712350">
        <ele>748.0</ele>
        <time>2019-08-06T16:26:01Z</time>
      </trkpt>
      <trkpt lat="48.8618580" lon="13.8713230">
        <ele>747.8</ele>
        <time>2019-08-06T16:26:02Z</time>
      </trkpt>
      <trkpt lat="48.8618310" lon="13.8714080">
        <ele>747.8</ele>
        <time>2019-08-06T16:26:03Z</time>
      </trkpt>
      <trkpt lat="48.8617990" lon="13.8714900">
        <ele>747.8</ele>
        <time>2019-08-06T16:26:04Z</time>
      </trkpt>
      <trkpt lat="48.8617610" lon="13.8715690">
        <ele>747.8</ele>
        <time>2019-08-06T16:26:05Z</time>
      </trkpt>
      <trkpt lat="48.8617220" lon="13.8716460">
        <ele>747.6</ele>
        <time>2019-08-06T16:26:06Z</time>
      </trkpt>
      <trkpt lat="48.8616820" lon="13.8717230">
        <ele>747.6</ele>
        <time>2019-08-06T16:26:07Z</time>
      </trkpt>
      <trkpt lat="48.8616420" lon="13.8717980">
        <ele>747.6</ele>
        <time>2019-08-06T16:26:08Z</time>
      </trkpt>
      <trkpt lat="48.8616010" lon="13.8718740">
        <ele>747.6</ele>
        <time>2019-08-06T16:26:09Z</time>
      </trkpt>
      <trkpt lat="48.8615590" lon="13.8719500">
        <ele>747.6</ele>
        <time>2019-08-06T16:26:10Z</time>
      </trkpt>
      <trkpt lat="48.8615200" lon="13.8720240">
        <ele>747.6</ele>
        <time>2019-08-06T16:26:11Z</time>
      </trkpt>
      <trkpt lat="48.8614810" lon="13.8720940">
        <ele>747.6</ele>
        <time>2019-08-06T16:26:12Z</time>
      </trkpt>
      <trkpt lat="48.8614430" lon="13.8721610">
        <ele>747.4</ele>
        <time>2019-08-06T16:26:13Z</time>
      </trkpt>
      <trkpt lat="48.8614060" lon="13.8722290">
        <ele>747.4</ele>
        <time>2019-08-06T16:26:14Z</time>
      </trkpt>
      <trkpt lat="48.8613690" lon="13.8723000">
        <ele>747.4</ele>
        <time>2019-08-06T16:26:15Z</time>
      </trkpt>
      <trkpt lat="48.8613310" lon="13.8723700">
        <ele>747.4</ele>
        <time>2019-08-06T16:26:16Z</time>
      </trkpt>
      <trkpt lat="48.8612930" lon="13.8724380">
        <ele>747.4</ele>
        <time>2019-08-06T16:26:17Z</time>
      </trkpt>
      <trkpt lat="48.8612530" lon="13.8725020">
        <ele>747.4</ele>
        <time>2019-08-06T16:26:18Z</time>
      </trkpt>
      <trkpt lat="48.8612150" lon="13.8725680">
        <ele>747.2</ele>
        <time>2019-08-06T16:26:19Z</time>
      </trkpt>
      <trkpt lat="48.8611750" lon="13.8726380">
        <ele>747.4</ele>
        <time>2019-08-06T16:26:20Z</time>
      </trkpt>
      <trkpt lat="48.8611360" lon="13.8727060">
        <ele>747.4</ele>
        <time>2019-08-06T16:26:21Z</time>
      </trkpt>
      <trkpt lat="48.8610970" lon="13.8727730">
        <ele>747.2</ele>
        <time>2019-08-06T16:26:22Z</time>
      </trkpt>
      <trkpt lat="48.8610570" lon="13.8728450">
        <ele>747.2</ele>
        <time>2019-08-06T16:26:23Z</time>
      </trkpt>
      <trkpt lat="48.8610160" lon="13.8729240">
        <ele>747.4</ele>
        <time>2019-08-06T16:26:24Z</time>
      </trkpt>
      <trkpt lat="48.8609730" lon="13.8730030">
        <ele>747.4</ele>
        <time>2019-08-06T16:26:25Z</time>
      </trkpt>
      <trkpt lat="48.8609320" lon="13.8730810">
        <ele>747.4</ele>
        <time>2019-08-06T16:26:26Z</time>
      </trkpt>
      <trkpt lat="48.8608910" lon="13.8731560">
        <ele>747.4</ele>
        <time>2019-08-06T16:26:27Z</time>
      </trkpt>
      <trkpt lat="48.8608520" lon="13.8732220">
        <ele>747.2</ele>
        <time>2019-08-06T16:26:28Z</time>
      </trkpt>
      <trkpt lat="48.8608150" lon="13.8732800">
        <ele>747.2</ele>
        <time>2019-08-06T16:26:29Z</time>
      </trkpt>
      <trkpt lat="48.8607700" lon="13.8733540">
        <ele>747.2</ele>
        <time>2019-08-06T16:26:30Z</time>
      </trkpt>
      <trkpt lat="48.8607180" lon="13.8734490">
        <ele>747.2</ele>
        <time>2019-08-06T16:26:31Z</time>
      </trkpt>
      <trkpt lat="48.8606780" lon="13.8735270">
        <ele>747.2</ele>
        <time>2019-08-06T16:26:32Z</time>
      </trkpt>
      <trkpt lat="48.8606380" lon="13.8736020">
        <ele>747.0</ele>
        <time>2019-08-06T16:26:33Z</time>
      </trkpt>
      <trkpt lat="48.8605930" lon="13.8736850">
        <ele>747.0</ele>
        <time>2019-08-06T16:26:34Z</time>
      </trkpt>
      <trkpt lat="48.8605460" lon="13.8737650">
        <ele>747.0</ele>
        <time>2019-08-06T16:26:35Z</time>
      </trkpt>
      <trkpt lat="48.8604970" lon="13.8738390">
        <ele>747.0</ele>
        <time>2019-08-06T16:26:36Z</time>
      </trkpt>
      <trkpt lat="48.8604530" lon="13.8738900">
        <ele>747.0</ele>
        <time>2019-08-06T16:26:37Z</time>
      </trkpt>
      <trkpt lat="48.8603950" lon="13.8739390">
        <ele>747.0</ele>
        <time>2019-08-06T16:26:38Z</time>
      </trkpt>
      <trkpt lat="48.8603210" lon="13.8739810">
        <ele>747.0</ele>
        <time>2019-08-06T16:26:39Z</time>
      </trkpt>
      <trkpt lat="48.8602520" lon="13.8740110">
        <ele>747.0</ele>
        <time>2019-08-06T16:26:40Z</time>
      </trkpt>
      <trkpt lat="48.8601810" lon="13.8740360">
        <ele>747.0</ele>
        <time>2019-08-06T16:26:41Z</time>
      </trkpt>
      <trkpt lat="48.8601090" lon="13.8740560">
        <ele>746.8</ele>
        <time>2019-08-06T16:26:42Z</time>
      </trkpt>
      <trkpt lat="48.8600390" lon="13.8740730">
        <ele>746.8</ele>
        <time>2019-08-06T16:26:43Z</time>
      </trkpt>
      <trkpt lat="48.8599660" lon="13.8740840">
        <ele>746.8</ele>
        <time>2019-08-06T16:26:44Z</time>
      </trkpt>
      <trkpt lat="48.8598950" lon="13.8740910">
        <ele>746.8</ele>
        <time>2019-08-06T16:26:45Z</time>
      </trkpt>
      <trkpt lat="48.8598280" lon="13.8740960">
        <ele>746.8</ele>
        <time>2019-08-06T16:26:46Z</time>
      </trkpt>
      <trkpt lat="48.8597620" lon="13.8740990">
        <ele>746.8</ele>
        <time>2019-08-06T16:26:47Z</time>
      </trkpt>
      <trkpt lat="48.8596960" lon="13.8741020">
        <ele>746.8</ele>
        <time>2019-08-06T16:26:48Z</time>
      </trkpt>
      <trkpt lat="48.8596290" lon="13.8741060">
        <ele>747.0</ele>
        <time>2019-08-06T16:26:49Z</time>
      </trkpt>
      <trkpt lat="48.8595650" lon="13.8741100">
        <ele>747.0</ele>
        <time>2019-08-06T16:26:50Z</time>
      </trkpt>
      <trkpt lat="48.8595000" lon="13.8741170">
        <ele>747.0</ele>
        <time>2019-08-06T16:26:51Z</time>
      </trkpt>
      <trkpt lat="48.8594370" lon="13.8741280">
        <ele>747.2</ele>
        <time>2019-08-06T16:26:52Z</time>
      </trkpt>
      <trkpt lat="48.8593750" lon="13.8741430">
        <ele>747.2</ele>
        <time>2019-08-06T16:26:53Z</time>
      </trkpt>
      <trkpt lat="48.8593140" lon="13.8741600">
        <ele>747.4</ele>
        <time>2019-08-06T16:26:54Z</time>
      </trkpt>
      <trkpt lat="48.8592560" lon="13.8741780">
        <ele>747.2</ele>
        <time>2019-08-06T16:26:55Z</time>
      </trkpt>
      <trkpt lat="48.8591990" lon="13.8741960">
        <ele>747.4</ele>
        <time>2019-08-06T16:26:56Z</time>
      </trkpt>
      <trkpt lat="48.8591400" lon="13.8742180">
        <ele>747.4</ele>
        <time>2019-08-06T16:26:57Z</time>
      </trkpt>
      <trkpt lat="48.8590820" lon="13.8742440">
        <ele>747.6</ele>
        <time>2019-08-06T16:26:58Z</time>
      </trkpt>
      <trkpt lat="48.8590240" lon="13.8742740">
        <ele>747.6</ele>
        <time>2019-08-06T16:26:59Z</time>
      </trkpt>
      <trkpt lat="48.8589700" lon="13.8743010">
        <ele>747.8</ele>
        <time>2019-08-06T16:27:00Z</time>
      </trkpt>
      <trkpt lat="48.8589090" lon="13.8743320">
        <ele>747.8</ele>
        <time>2019-08-06T16:27:01Z</time>
      </trkpt>
      <trkpt lat="48.8588420" lon="13.8743630">
        <ele>748.0</ele>
        <time>2019-08-06T16:27:02Z</time>
      </trkpt>
      <trkpt lat="48.8587810" lon="13.8743900">
        <ele>748.0</ele>
        <time>2019-08-06T16:27:03Z</time>
      </trkpt>
      <trkpt lat="48.8587200" lon="13.8744200">
        <ele>748.0</ele>
        <time>2019-08-06T16:27:04Z</time>
      </trkpt>
      <trkpt lat="48.8586590" lon="13.8744530">
        <ele>748.0</ele>
        <time>2019-08-06T16:27:05Z</time>
      </trkpt>
      <trkpt lat="48.8585990" lon="13.8744880">
        <ele>748.2</ele>
        <time>2019-08-06T16:27:06Z</time>
      </trkpt>
      <trkpt lat="48.8585400" lon="13.8745260">
        <ele>748.2</ele>
        <time>2019-08-06T16:27:07Z</time>
      </trkpt>
      <trkpt lat="48.8584810" lon="13.8745660">
        <ele>748.2</ele>
        <time>2019-08-06T16:27:08Z</time>
      </trkpt>
      <trkpt lat="48.8584240" lon="13.8746070">
        <ele>748.4</ele>
        <time>2019-08-06T16:27:09Z</time>
      </trkpt>
      <trkpt lat="48.8583680" lon="13.8746500">
        <ele>748.4</ele>
        <time>2019-08-06T16:27:10Z</time>
      </trkpt>
      <trkpt lat="48.8583130" lon="13.8746940">
        <ele>748.4</ele>
        <time>2019-08-06T16:27:11Z</time>
      </trkpt>
      <trkpt lat="48.8582590" lon="13.8747380">
        <ele>748.4</ele>
        <time>2019-08-06T16:27:12Z</time>
      </trkpt>
      <trkpt lat="48.8582040" lon="13.8747810">
        <ele>748.6</ele>
        <time>2019-08-06T16:27:13Z</time>
      </trkpt>
      <trkpt lat="48.8581490" lon="13.8748230">
        <ele>748.6</ele>
        <time>2019-08-06T16:27:14Z</time>
      </trkpt>
      <trkpt lat="48.8580950" lon="13.8748640">
        <ele>748.8</ele>
        <time>2019-08-06T16:27:15Z</time>
      </trkpt>
      <trkpt lat="48.8580420" lon="13.8749070">
        <ele>748.8</ele>
        <time>2019-08-06T16:27:16Z</time>
      </trkpt>
      <trkpt lat="48.8579930" lon="13.8749540">
        <ele>749.0</ele>
        <time>2019-08-06T16:27:17Z</time>
      </trkpt>
      <trkpt lat="48.8579470" lon="13.8750050">
        <ele>749.0</ele>
        <time>2019-08-06T16:27:18Z</time>
      </trkpt>
      <trkpt lat="48.8579020" lon="13.8750600">
        <ele>748.8</ele>
        <time>2019-08-06T16:27:19Z</time>
      </trkpt>
      <trkpt lat="48.8578610" lon="13.8751210">
        <ele>748.8</ele>
        <time>2019-08-06T16:27:20Z</time>
      </trkpt>
      <trkpt lat="48.8578290" lon="13.8751960">
        <ele>748.8</ele>
        <time>2019-08-06T16:27:21Z</time>
      </trkpt>
      <trkpt lat="48.8578030" lon="13.8752810">
        <ele>748.8</ele>
        <time>2019-08-06T16:27:22Z</time>
      </trkpt>
      <trkpt lat="48.8577800" lon="13.8753710">
        <ele>748.6</ele>
        <time>2019-08-06T16:27:23Z</time>
      </trkpt>
      <trkpt lat="48.8577560" lon="13.8754620">
        <ele>748.6</ele>
        <time>2019-08-06T16:27:24Z</time>
      </trkpt>
      <trkpt lat="48.8577340" lon="13.8755530">
        <ele>748.6</ele>
        <time>2019-08-06T16:27:25Z</time>
      </trkpt>
      <trkpt lat="48.8577140" lon="13.8756430">
        <ele>748.6</ele>
        <time>2019-08-06T16:27:26Z</time>
      </trkpt>
      <trkpt lat="48.8576940" lon="13.8757320">
        <ele>748.6</ele>
        <time>2019-08-06T16:27:27Z</time>
      </trkpt>
      <trkpt lat="48.8576750" lon="13.8758220">
        <ele>748.6</ele>
        <time>2019-08-06T16:27:28Z</time>
      </trkpt>
      <trkpt lat="48.8576560" lon="13.8759100">
        <ele>748.6</ele>
        <time>2019-08-06T16:27:29Z</time>
      </trkpt>
      <trkpt lat="48.8576390" lon="13.8759960">
        <ele>748.8</ele>
        <time>2019-08-06T16:27:30Z</time>
      </trkpt>
      <trkpt lat="48.8576220" lon="13.8760810">
        <ele>748.8</ele>
        <time>2019-08-06T16:27:31Z</time>
      </trkpt>
      <trkpt lat="48.8576070" lon="13.8761660">
        <ele>749.0</ele>
        <time>2019-08-06T16:27:32Z</time>
      </trkpt>
      <trkpt lat="48.8575940" lon="13.8762520">
        <ele>749.2</ele>
        <time>2019-08-06T16:27:33Z</time>
      </trkpt>
      <trkpt lat="48.8575810" lon="13.8763350">
        <ele>749.2</ele>
        <time>2019-08-06T16:27:34Z</time>
      </trkpt>
      <trkpt lat="48.8575680" lon="13.8764170">
        <ele>749.4</ele>
        <time>2019-08-06T16:27:35Z</time>
      </trkpt>
      <trkpt lat="48.8575570" lon="13.8764970">
        <ele>749.6</ele>
        <time>2019-08-06T16:27:36Z</time>
      </trkpt>
      <trkpt lat="48.8575470" lon="13.8765740">
        <ele>749.6</ele>
        <time>2019-08-06T16:27:37Z</time>
      </trkpt>
      <trkpt lat="48.8575380" lon="13.8766520">
        <ele>749.8</ele>
        <time>2019-08-06T16:27:38Z</time>
      </trkpt>
      <trkpt lat="48.8575310" lon="13.8767290">
        <ele>749.8</ele>
        <time>2019-08-06T16:27:39Z</time>
      </trkpt>
      <trkpt lat="48.8575250" lon="13.8768050">
        <ele>750.0</ele>
        <time>2019-08-06T16:27:40Z</time>
      </trkpt>
      <trkpt lat="48.8575170" lon="13.8768750">
        <ele>750.0</ele>
        <time>2019-08-06T16:27:41Z</time>
      </trkpt>
      <trkpt lat="48.8575080" lon="13.8769410">
        <ele>750.2</ele>
        <time>2019-08-06T16:27:42Z</time>
      </trkpt>
      <trkpt lat="48.8575020" lon="13.8770060">
        <ele>750.2</ele>
        <time>2019-08-06T16:27:43Z</time>
      </trkpt>
      <trkpt lat="48.8574950" lon="13.8770700">
        <ele>750.4</ele>
        <time>2019-08-06T16:27:44Z</time>
      </trkpt>
      <trkpt lat="48.8574850" lon="13.8771420">
        <ele>750.4</ele>
        <time>2019-08-06T16:27:45Z</time>
      </trkpt>
      <trkpt lat="48.8574740" lon="13.8772120">
        <ele>750.6</ele>
        <time>2019-08-06T16:27:46Z</time>
      </trkpt>
      <trkpt lat="48.8574670" lon="13.8772730">
        <ele>750.6</ele>
        <time>2019-08-06T16:27:47Z</time>
      </trkpt>
      <trkpt lat="48.8574580" lon="13.8773420">
        <ele>750.8</ele>
        <time>2019-08-06T16:27:48Z</time>
      </trkpt>
      <trkpt lat="48.8574490" lon="13.8774150">
        <ele>751.0</ele>
        <time>2019-08-06T16:27:49Z</time>
      </trkpt>
      <trkpt lat="48.8574430" lon="13.8774890">
        <ele>751.0</ele>
        <time>2019-08-06T16:27:50Z</time>
      </trkpt>
      <trkpt lat="48.8574380" lon="13.8775590">
        <ele>751.0</ele>
        <time>2019-08-06T16:27:51Z</time>
      </trkpt>
      <trkpt lat="48.8574300" lon="13.8776330">
        <ele>751.2</ele>
        <time>2019-08-06T16:27:52Z</time>
      </trkpt>
      <trkpt lat="48.8574260" lon="13.8777130">
        <ele>751.2</ele>
        <time>2019-08-06T16:27:53Z</time>
      </trkpt>
      <trkpt lat="48.8574200" lon="13.8777910">
        <ele>751.2</ele>
        <time>2019-08-06T16:27:54Z</time>
      </trkpt>
      <trkpt lat="48.8574100" lon="13.8778710">
        <ele>751.2</ele>
        <time>2019-08-06T16:27:55Z</time>
      </trkpt>
      <trkpt lat="48.8574010" lon="13.8779440">
        <ele>751.2</ele>
        <time>2019-08-06T16:27:56Z</time>
      </trkpt>
      <trkpt lat="48.8573910" lon="13.8780150">
        <ele>751.4</ele>
        <time>2019-08-06T16:27:57Z</time>
      </trkpt>
      <trkpt lat="48.8573750" lon="13.8780890">
        <ele>751.4</ele>
        <time>2019-08-06T16:27:58Z</time>
      </trkpt>
      <trkpt lat="48.8573570" lon="13.8781640">
        <ele>751.4</ele>
        <time>2019-08-06T16:27:59Z</time>
      </trkpt>
      <trkpt lat="48.8573430" lon="13.8782310">
        <ele>751.4</ele>
        <time>2019-08-06T16:28:00Z</time>
      </trkpt>
      <trkpt lat="48.8573280" lon="13.8783120">
        <ele>751.4</ele>
        <time>2019-08-06T16:28:01Z</time>
      </trkpt>
      <trkpt lat="48.8573180" lon="13.8783930">
        <ele>751.4</ele>
        <time>2019-08-06T16:28:02Z</time>
      </trkpt>
      <trkpt lat="48.8573110" lon="13.8784620">
        <ele>751.4</ele>
        <time>2019-08-06T16:28:03Z</time>
      </trkpt>
      <trkpt lat="48.8573020" lon="13.8785290">
        <ele>751.4</ele>
        <time>2019-08-06T16:28:04Z</time>
      </trkpt>
      <trkpt lat="48.8572920" lon="13.8785950">
        <ele>751.4</ele>
        <time>2019-08-06T16:28:05Z</time>
      </trkpt>
      <trkpt lat="48.8572810" lon="13.8786620">
        <ele>751.4</ele>
        <time>2019-08-06T16:28:06Z</time>
      </trkpt>
      <trkpt lat="48.8572720" lon="13.8787310">
        <ele>751.4</ele>
        <time>2019-08-06T16:28:07Z</time>
      </trkpt>
      <trkpt lat="48.8572680" lon="13.8787990">
        <ele>751.4</ele>
        <time>2019-08-06T16:28:08Z</time>
      </trkpt>
      <trkpt lat="48.8572670" lon="13.8788890">
        <ele>751.4</ele>
        <time>2019-08-06T16:28:09Z</time>
      </trkpt>
      <trkpt lat="48.8572630" lon="13.8789890">
        <ele>751.4</ele>
        <time>2019-08-06T16:28:10Z</time>
      </trkpt>
      <trkpt lat="48.8572530" lon="13.8790940">
        <ele>751.4</ele>
        <time>2019-08-06T16:28:11Z</time>
      </trkpt>
      <trkpt lat="48.8572410" lon="13.8792120">
        <ele>751.2</ele>
        <time>2019-08-06T16:28:12Z</time>
      </trkpt>
      <trkpt lat="48.8572320" lon="13.8793320">
        <ele>751.2</ele>
        <time>2019-08-06T16:28:13Z</time>
      </trkpt>
      <trkpt lat="48.8572220" lon="13.8794390">
        <ele>751.2</ele>
        <time>2019-08-06T16:28:14Z</time>
      </trkpt>
      <trkpt lat="48.8572130" lon="13.8795370">
        <ele>751.0</ele>
        <time>2019-08-06T16:28:15Z</time>
      </trkpt>
      <trkpt lat="48.8572010" lon="13.8796480">
        <ele>751.0</ele>
        <time>2019-08-06T16:28:16Z</time>
      </trkpt>
      <trkpt lat="48.8571900" lon="13.8797700">
        <ele>751.0</ele>
        <time>2019-08-06T16:28:17Z</time>
      </trkpt>
      <trkpt lat="48.8571780" lon="13.8798870">
        <ele>751.0</ele>
        <time>2019-08-06T16:28:18Z</time>
      </trkpt>
      <trkpt lat="48.8571610" lon="13.8800040">
        <ele>751.0</ele>
        <time>2019-08-06T16:28:19Z</time>
      </trkpt>
      <trkpt lat="48.8571430" lon="13.8801120">
        <ele>750.8</ele>
        <time>2019-08-06T16:28:20Z</time>
      </trkpt>
      <trkpt lat="48.8571280" lon="13.8802100">
        <ele>750.8</ele>
        <time>2019-08-06T16:28:21Z</time>
      </trkpt>
      <trkpt lat="48.8571160" lon="13.8803180">
        <ele>750.8</ele>
        <time>2019-08-06T16:28:22Z</time>
      </trkpt>
      <trkpt lat="48.8571020" lon="13.8804260">
        <ele>750.8</ele>
        <time>2019-08-06T16:28:23Z</time>
      </trkpt>
      <trkpt lat="48.8570860" lon="13.8805310">
        <ele>750.8</ele>
        <time>2019-08-06T16:28:24Z</time>
      </trkpt>
      <trkpt lat="48.8570720" lon="13.8806350">
        <ele>750.8</ele>
        <time>2019-08-06T16:28:25Z</time>
      </trkpt>
      <trkpt lat="48.8570550" lon="13.8807400">
        <ele>750.8</ele>
        <time>2019-08-06T16:28:26Z</time>
      </trkpt>
      <trkpt lat="48.8570380" lon="13.8808460">
        <ele>751.0</ele>
        <time>2019-08-06T16:28:27Z</time>
      </trkpt>
      <trkpt lat="48.8570210" lon="13.8809490">
        <ele>751.0</ele>
        <time>2019-08-06T16:28:28Z</time>
      </trkpt>
      <trkpt lat="48.8570030" lon="13.8810520">
        <ele>751.0</ele>
        <time>2019-08-06T16:28:29Z</time>
      </trkpt>
      <trkpt lat="48.8569830" lon="13.8811600">
        <ele>751.0</ele>
        <time>2019-08-06T16:28:30Z</time>
      </trkpt>
      <trkpt lat="48.8569610" lon="13.8812630">
        <ele>750.8</ele>
        <time>2019-08-06T16:28:31Z</time>
      </trkpt>
      <trkpt lat="48.8569390" lon="13.8813710">
        <ele>750.8</ele>
        <time>2019-08-06T16:28:32Z</time>
      </trkpt>
      <trkpt lat="48.8569200" lon="13.8814790">
        <ele>750.8</ele>
        <time>2019-08-06T16:28:33Z</time>
      </trkpt>
      <trkpt lat="48.8569020" lon="13.8815810">
        <ele>750.8</ele>
        <time>2019-08-06T16:28:34Z</time>
      </trkpt>
      <trkpt lat="48.8568820" lon="13.8816770">
        <ele>750.8</ele>
        <time>2019-08-06T16:28:35Z</time>
      </trkpt>
      <trkpt lat="48.8568620" lon="13.8817710">
        <ele>750.8</ele>
        <time>2019-08-06T16:28:36Z</time>
      </trkpt>
      <trkpt lat="48.8568470" lon="13.8818710">
        <ele>750.8</ele>
        <time>2019-08-06T16:28:37Z</time>
      </trkpt>
      <trkpt lat="48.8568320" lon="13.8819740">
        <ele>751.0</ele>
        <time>2019-08-06T16:28:38Z</time>
      </trkpt>
      <trkpt lat="48.8568170" lon="13.8820740">
        <ele>751.0</ele>
        <time>2019-08-06T16:28:39Z</time>
      </trkpt>
      <trkpt lat="48.8568020" lon="13.8821700">
        <ele>751.0</ele>
        <time>2019-08-06T16:28:40Z</time>
      </trkpt>
      <trkpt lat="48.8567860" lon="13.8822690">
        <ele>751.0</ele>
        <time>2019-08-06T16:28:41Z</time>
      </trkpt>
      <trkpt lat="48.8567710" lon="13.8823730">
        <ele>751.0</ele>
        <time>2019-08-06T16:28:42Z</time>
      </trkpt>
      <trkpt lat="48.8567580" lon="13.8824760">
        <ele>751.0</ele>
        <time>2019-08-06T16:28:43Z</time>
      </trkpt>
      <trkpt lat="48.8567410" lon="13.8825800">
        <ele>751.0</ele>
        <time>2019-08-06T16:28:44Z</time>
      </trkpt>
      <trkpt lat="48.8567190" lon="13.8826820">
        <ele>751.0</ele>
        <time>2019-08-06T16:28:45Z</time>
      </trkpt>
      <trkpt lat="48.8567020" lon="13.8827820">
        <ele>751.0</ele>
        <time>2019-08-06T16:28:46Z</time>
      </trkpt>
      <trkpt lat="48.8566830" lon="13.8828760">
        <ele>751.0</ele>
        <time>2019-08-06T16:28:47Z</time>
      </trkpt>
      <trkpt lat="48.8566650" lon="13.8829680">
        <ele>751.0</ele>
        <time>2019-08-06T16:28:48Z</time>
      </trkpt>
      <trkpt lat="48.8566490" lon="13.8830620">
        <ele>751.0</ele>
        <time>2019-08-06T16:28:49Z</time>
      </trkpt>
      <trkpt lat="48.8566360" lon="13.8831510">
        <ele>751.0</ele>
        <time>2019-08-06T16:28:50Z</time>
      </trkpt>
      <trkpt lat="48.8566260" lon="13.8832340">
        <ele>751.0</ele>
        <time>2019-08-06T16:28:51Z</time>
      </trkpt>
      <trkpt lat="48.8566160" lon="13.8833160">
        <ele>751.2</ele>
        <time>2019-08-06T16:28:52Z</time>
      </trkpt>
      <trkpt lat="48.8566040" lon="13.8833980">
        <ele>751.2</ele>
        <time>2019-08-06T16:28:53Z</time>
      </trkpt>
      <trkpt lat="48.8565920" lon="13.8834770">
        <ele>751.4</ele>
        <time>2019-08-06T16:28:54Z</time>
      </trkpt>
      <trkpt lat="48.8565810" lon="13.8835510">
        <ele>751.6</ele>
        <time>2019-08-06T16:28:55Z</time>
      </trkpt>
      <trkpt lat="48.8565690" lon="13.8836310">
        <ele>751.8</ele>
        <time>2019-08-06T16:28:56Z</time>
      </trkpt>
      <trkpt lat="48.8565590" lon="13.8837090">
        <ele>751.8</ele>
        <time>2019-08-06T16:28:57Z</time>
      </trkpt>
      <trkpt lat="48.8565480" lon="13.8837800">
        <ele>752.0</ele>
        <time>2019-08-06T16:28:58Z</time>
      </trkpt>
      <trkpt lat="48.8565330" lon="13.8838550">
        <ele>752.2</ele>
        <time>2019-08-06T16:28:59Z</time>
      </trkpt>
      <trkpt lat="48.8565190" lon="13.8839310">
        <ele>752.4</ele>
        <time>2019-08-06T16:29:00Z</time>
      </trkpt>
      <trkpt lat="48.8565070" lon="13.8840060">
        <ele>752.4</ele>
        <time>2019-08-06T16:29:01Z</time>
      </trkpt>
      <trkpt lat="48.8564950" lon="13.8840800">
        <ele>752.6</ele>
        <time>2019-08-06T16:29:02Z</time>
      </trkpt>
      <trkpt lat="48.8564820" lon="13.8841560">
        <ele>752.6</ele>
        <time>2019-08-06T16:29:03Z</time>
      </trkpt>
      <trkpt lat="48.8564680" lon="13.8842310">
        <ele>752.6</ele>
        <time>2019-08-06T16:29:04Z</time>
      </trkpt>
      <trkpt lat="48.8564560" lon="13.8843070">
        <ele>752.8</ele>
        <time>2019-08-06T16:29:05Z</time>
      </trkpt>
      <trkpt lat="48.8564440" lon="13.8843850">
        <ele>752.8</ele>
        <time>2019-08-06T16:29:06Z</time>
      </trkpt>
      <trkpt lat="48.8564330" lon="13.8844650">
        <ele>752.8</ele>
        <time>2019-08-06T16:29:07Z</time>
      </trkpt>
      <trkpt lat="48.8564220" lon="13.8845450">
        <ele>752.8</ele>
        <time>2019-08-06T16:29:08Z</time>
      </trkpt>
      <trkpt lat="48.8564090" lon="13.8846250">
        <ele>752.8</ele>
        <time>2019-08-06T16:29:09Z</time>
      </trkpt>
      <trkpt lat="48.8563980" lon="13.8847040">
        <ele>752.8</ele>
        <time>2019-08-06T16:29:10Z</time>
      </trkpt>
      <trkpt lat="48.8563850" lon="13.8847880">
        <ele>752.8</ele>
        <time>2019-08-06T16:29:11Z</time>
      </trkpt>
      <trkpt lat="48.8563710" lon="13.8848710">
        <ele>752.8</ele>
        <time>2019-08-06T16:29:12Z</time>
      </trkpt>
      <trkpt lat="48.8563580" lon="13.8849520">
        <ele>752.8</ele>
        <time>2019-08-06T16:29:13Z</time>
      </trkpt>
      <trkpt lat="48.8563450" lon="13.8850320">
        <ele>752.8</ele>
        <time>2019-08-06T16:29:14Z</time>
      </trkpt>
      <trkpt lat="48.8563340" lon="13.8851110">
        <ele>752.8</ele>
        <time>2019-08-06T16:29:15Z</time>
      </trkpt>
      <trkpt lat="48.8563230" lon="13.8851890">
        <ele>752.8</ele>
        <time>2019-08-06T16:29:16Z</time>
      </trkpt>
      <trkpt lat="48.8563130" lon="13.8852690">
        <ele>752.8</ele>
        <time>2019-08-06T16:29:17Z</time>
      </trkpt>
      <trkpt lat="48.8563030" lon="13.8853510">
        <ele>753.0</ele>
        <time>2019-08-06T16:29:18Z</time>
      </trkpt>
      <trkpt lat="48.8562930" lon="13.8854320">
        <ele>753.0</ele>
        <time>2019-08-06T16:29:19Z</time>
      </trkpt>
      <trkpt lat="48.8562820" lon="13.8855130">
        <ele>753.0</ele>
        <time>2019-08-06T16:29:20Z</time>
      </trkpt>
      <trkpt lat="48.8562710" lon="13.8855940">
        <ele>753.0</ele>
        <time>2019-08-06T16:29:21Z</time>
      </trkpt>
      <trkpt lat="48.8562590" lon="13.8856740">
        <ele>753.0</ele>
        <time>2019-08-06T16:29:22Z</time>
      </trkpt>
      <trkpt lat="48.8562470" lon="13.8857560">
        <ele>753.0</ele>
        <time>2019-08-06T16:29:23Z</time>
      </trkpt>
      <trkpt lat="48.8562360" lon="13.8858370">
        <ele>753.0</ele>
        <time>2019-08-06T16:29:24Z</time>
      </trkpt>
      <trkpt lat="48.8562220" lon="13.8859200">
        <ele>753.2</ele>
        <time>2019-08-06T16:29:25Z</time>
      </trkpt>
      <trkpt lat="48.8562070" lon="13.8860040">
        <ele>753.2</ele>
        <time>2019-08-06T16:29:26Z</time>
      </trkpt>
      <trkpt lat="48.8561930" lon="13.8860880">
        <ele>753.2</ele>
        <time>2019-08-06T16:29:27Z</time>
      </trkpt>
      <trkpt lat="48.8561780" lon="13.8861740">
        <ele>753.2</ele>
        <time>2019-08-06T16:29:28Z</time>
      </trkpt>
      <trkpt lat="48.8561630" lon="13.8862610">
        <ele>753.2</ele>
        <time>2019-08-06T16:29:29Z</time>
      </trkpt>
      <trkpt lat="48.8561480" lon="13.8863460">
        <ele>753.2</ele>
        <time>2019-08-06T16:29:30Z</time>
      </trkpt>
      <trkpt lat="48.8561350" lon="13.8864320">
        <ele>753.2</ele>
        <time>2019-08-06T16:29:31Z</time>
      </trkpt>
      <trkpt lat="48.8561200" lon="13.8865180">
        <ele>753.2</ele>
        <time>2019-08-06T16:29:32Z</time>
      </trkpt>
      <trkpt lat="48.8561050" lon="13.8866060">
        <ele>753.2</ele>
        <time>2019-08-06T16:29:33Z</time>
      </trkpt>
      <trkpt lat="48.8560880" lon="13.8866900">
        <ele>753.2</ele>
        <time>2019-08-06T16:29:34Z</time>
      </trkpt>
      <trkpt lat="48.8560710" lon="13.8867770">
        <ele>753.2</ele>
        <time>2019-08-06T16:29:35Z</time>
      </trkpt>
      <trkpt lat="48.8560520" lon="13.8868650">
        <ele>753.0</ele>
        <time>2019-08-06T16:29:36Z</time>
      </trkpt>
      <trkpt lat="48.8560330" lon="13.8869540">
        <ele>753.0</ele>
        <time>2019-08-06T16:29:37Z</time>
      </trkpt>
      <trkpt lat="48.8560140" lon="13.8870440">
        <ele>753.0</ele>
        <time>2019-08-06T16:29:38Z</time>
      </trkpt>
      <trkpt lat="48.8559940" lon="13.8871330">
        <ele>752.8</ele>
        <time>2019-08-06T16:29:39Z</time>
      </trkpt>
      <trkpt lat="48.8559730" lon="13.8872250">
        <ele>752.8</ele>
        <time>2019-08-06T16:29:40Z</time>
      </trkpt>
      <trkpt lat="48.8559520" lon="13.8873180">
        <ele>752.8</ele>
        <time>2019-08-06T16:29:41Z</time>
      </trkpt>
      <trkpt lat="48.8559310" lon="13.8874100">
        <ele>752.8</ele>
        <time>2019-08-06T16:29:42Z</time>
      </trkpt>
      <trkpt lat="48.8559090" lon="13.8875040">
        <ele>752.8</ele>
        <time>2019-08-06T16:29:43Z</time>
      </trkpt>
      <trkpt lat="48.8558880" lon="13.8876010">
        <ele>752.6</ele>
        <time>2019-08-06T16:29:44Z</time>
      </trkpt>
      <trkpt lat="48.8558690" lon="13.8876960">
        <ele>752.6</ele>
        <time>2019-08-06T16:29:45Z</time>
      </trkpt>
      <trkpt lat="48.8558510" lon="13.8877870">
        <ele>752.6</ele>
        <time>2019-08-06T16:29:46Z</time>
      </trkpt>
      <trkpt lat="48.8558340" lon="13.8878810">
        <ele>752.6</ele>
        <time>2019-08-06T16:29:47Z</time>
      </trkpt>
      <trkpt lat="48.8558180" lon="13.8879750">
        <ele>752.8</ele>
        <time>2019-08-06T16:29:48Z</time>
      </trkpt>
      <trkpt lat="48.8558010" lon="13.8880650">
        <ele>752.8</ele>
        <time>2019-08-06T16:29:49Z</time>
      </trkpt>
      <trkpt lat="48.8557840" lon="13.8881560">
        <ele>752.8</ele>
        <time>2019-08-06T16:29:50Z</time>
      </trkpt>
      <trkpt lat="48.8557680" lon="13.8882500">
        <ele>752.8</ele>
        <time>2019-08-06T16:29:51Z</time>
      </trkpt>
      <trkpt lat="48.8557520" lon="13.8883460">
        <ele>752.8</ele>
        <time>2019-08-06T16:29:52Z</time>
      </trkpt>
      <trkpt lat="48.8557350" lon="13.8884390">
        <ele>752.8</ele>
        <time>2019-08-06T16:29:53Z</time>
      </trkpt>
      <trkpt lat="48.8557150" lon="13.8885350">
        <ele>752.8</ele>
        <time>2019-08-06T16:29:54Z</time>
      </trkpt>
      <trkpt lat="48.8556960" lon="13.8886310">
        <ele>752.8</ele>
        <time>2019-08-06T16:29:55Z</time>
      </trkpt>
      <trkpt lat="48.8556810" lon="13.8887270">
        <ele>752.8</ele>
        <time>2019-08-06T16:29:56Z</time>
      </trkpt>
      <trkpt lat="48.8556700" lon="13.8888200">
        <ele>752.8</ele>
        <time>2019-08-06T16:29:57Z</time>
      </trkpt>
      <trkpt lat="48.8556560" lon="13.8889100">
        <ele>752.8</ele>
        <time>2019-08-06T16:29:58Z</time>
      </trkpt>
      <trkpt lat="48.8556400" lon="13.8889970">
        <ele>752.8</ele>
        <time>2019-08-06T16:29:59Z</time>
      </trkpt>
      <trkpt lat="48.8556210" lon="13.8890780">
        <ele>752.8</ele>
        <time>2019-08-06T16:30:00Z</time>
      </trkpt>
      <trkpt lat="48.8555960" lon="13.8891710">
        <ele>752.6</ele>
        <time>2019-08-06T16:30:01Z</time>
      </trkpt>
      <trkpt lat="48.8555750" lon="13.8892670">
        <ele>752.6</ele>
        <time>2019-08-06T16:30:02Z</time>
      </trkpt>
      <trkpt lat="48.8555540" lon="13.8893620">
        <ele>752.6</ele>
        <time>2019-08-06T16:30:03Z</time>
      </trkpt>
      <trkpt lat="48.8555330" lon="13.8894600">
        <ele>752.6</ele>
        <time>2019-08-06T16:30:04Z</time>
      </trkpt>
      <trkpt lat="48.8555150" lon="13.8895560">
        <ele>752.6</ele>
        <time>2019-08-06T16:30:05Z</time>
      </trkpt>
      <trkpt lat="48.8554940" lon="13.8896530">
        <ele>752.6</ele>
        <time>2019-08-06T16:30:06Z</time>
      </trkpt>
      <trkpt lat="48.8554740" lon="13.8897490">
        <ele>752.6</ele>
        <time>2019-08-06T16:30:07Z</time>
      </trkpt>
      <trkpt lat="48.8554570" lon="13.8898430">
        <ele>752.4</ele>
        <time>2019-08-06T16:30:08Z</time>
      </trkpt>
      <trkpt lat="48.8554420" lon="13.8899350">
        <ele>752.4</ele>
        <time>2019-08-06T16:30:09Z</time>
      </trkpt>
      <trkpt lat="48.8554280" lon="13.8900320">
        <ele>752.4</ele>
        <time>2019-08-06T16:30:10Z</time>
      </trkpt>
      <trkpt lat="48.8554170" lon="13.8901280">
        <ele>752.4</ele>
        <time>2019-08-06T16:30:11Z</time>
      </trkpt>
      <trkpt lat="48.8554050" lon="13.8902180">
        <ele>752.2</ele>
        <time>2019-08-06T16:30:12Z</time>
      </trkpt>
      <trkpt lat="48.8553870" lon="13.8903160">
        <ele>752.2</ele>
        <time>2019-08-06T16:30:13Z</time>
      </trkpt>
      <trkpt lat="48.8553650" lon="13.8904180">
        <ele>752.2</ele>
        <time>2019-08-06T16:30:14Z</time>
      </trkpt>
      <trkpt lat="48.8553390" lon="13.8905140">
        <ele>752.2</ele>
        <time>2019-08-06T16:30:15Z</time>
      </trkpt>
      <trkpt lat="48.8553150" lon="13.8906070">
        <ele>752.2</ele>
        <time>2019-08-06T16:30:16Z</time>
      </trkpt>
      <trkpt lat="48.8552900" lon="13.8906990">
        <ele>752.2</ele>
        <time>2019-08-06T16:30:17Z</time>
      </trkpt>
      <trkpt lat="48.8552640" lon="13.8907900">
        <ele>752.2</ele>
        <time>2019-08-06T16:30:18Z</time>
      </trkpt>
      <trkpt lat="48.8552410" lon="13.8908830">
        <ele>752.2</ele>
        <time>2019-08-06T16:30:19Z</time>
      </trkpt>
      <trkpt lat="48.8552190" lon="13.8909770">
        <ele>752.2</ele>
        <time>2019-08-06T16:30:20Z</time>
      </trkpt>
      <trkpt lat="48.8552000" lon="13.8910710">
        <ele>752.2</ele>
        <time>2019-08-06T16:30:21Z</time>
      </trkpt>
      <trkpt lat="48.8551810" lon="13.8911660">
        <ele>752.2</ele>
        <time>2019-08-06T16:30:22Z</time>
      </trkpt>
      <trkpt lat="48.8551630" lon="13.8912610">
        <ele>752.2</ele>
        <time>2019-08-06T16:30:23Z</time>
      </trkpt>
      <trkpt lat="48.8551450" lon="13.8913570">
        <ele>752.2</ele>
        <time>2019-08-06T16:30:24Z</time>
      </trkpt>
      <trkpt lat="48.8551260" lon="13.8914550">
        <ele>752.0</ele>
        <time>2019-08-06T16:30:25Z</time>
      </trkpt>
      <trkpt lat="48.8551070" lon="13.8915540">
        <ele>752.0</ele>
        <time>2019-08-06T16:30:26Z</time>
      </trkpt>
      <trkpt lat="48.8550870" lon="13.8916520">
        <ele>752.0</ele>
        <time>2019-08-06T16:30:27Z</time>
      </trkpt>
      <trkpt lat="48.8550670" lon="13.8917520">
        <ele>751.8</ele>
        <time>2019-08-06T16:30:28Z</time>
      </trkpt>
      <trkpt lat="48.8550480" lon="13.8918550">
        <ele>751.8</ele>
        <time>2019-08-06T16:30:29Z</time>
      </trkpt>
      <trkpt lat="48.8550310" lon="13.8919570">
        <ele>751.8</ele>
        <time>2019-08-06T16:30:30Z</time>
      </trkpt>
      <trkpt lat="48.8550140" lon="13.8920590">
        <ele>751.6</ele>
        <time>2019-08-06T16:30:31Z</time>
      </trkpt>
      <trkpt lat="48.8549960" lon="13.8921620">
        <ele>751.6</ele>
        <time>2019-08-06T16:30:32Z</time>
      </trkpt>
      <trkpt lat="48.8549760" lon="13.8922660">
        <ele>751.4</ele>
        <time>2019-08-06T16:30:33Z</time>
      </trkpt>
      <trkpt lat="48.8549540" lon="13.8923690">
        <ele>751.4</ele>
        <time>2019-08-06T16:30:34Z</time>
      </trkpt>
      <trkpt lat="48.8549360" lon="13.8924690">
        <ele>751.4</ele>
        <time>2019-08-06T16:30:35Z</time>
      </trkpt>
      <trkpt lat="48.8549170" lon="13.8925670">
        <ele>751.4</ele>
        <time>2019-08-06T16:30:36Z</time>
      </trkpt>
      <trkpt lat="48.8548980" lon="13.8926640">
        <ele>751.4</ele>
        <time>2019-08-06T16:30:37Z</time>
      </trkpt>
      <trkpt lat="48.8548790" lon="13.8927560">
        <ele>751.4</ele>
        <time>2019-08-06T16:30:38Z</time>
      </trkpt>
      <trkpt lat="48.8548570" lon="13.8928490">
        <ele>751.4</ele>
        <time>2019-08-06T16:30:39Z</time>
      </trkpt>
      <trkpt lat="48.8548360" lon="13.8929440">
        <ele>751.2</ele>
        <time>2019-08-06T16:30:40Z</time>
      </trkpt>
      <trkpt lat="48.8548160" lon="13.8930400">
        <ele>751.2</ele>
        <time>2019-08-06T16:30:41Z</time>
      </trkpt>
      <trkpt lat="48.8548000" lon="13.8931350">
        <ele>751.2</ele>
        <time>2019-08-06T16:30:42Z</time>
      </trkpt>
      <trkpt lat="48.8547810" lon="13.8932290">
        <ele>751.2</ele>
        <time>2019-08-06T16:30:43Z</time>
      </trkpt>
      <trkpt lat="48.8547580" lon="13.8933210">
        <ele>751.0</ele>
        <time>2019-08-06T16:30:44Z</time>
      </trkpt>
      <trkpt lat="48.8547340" lon="13.8934130">
        <ele>751.0</ele>
        <time>2019-08-06T16:30:45Z</time>
      </trkpt>
      <trkpt lat="48.8547070" lon="13.8935040">
        <ele>751.2</ele>
        <time>2019-08-06T16:30:46Z</time>
      </trkpt>
      <trkpt lat="48.8546760" lon="13.8935950">
        <ele>751.2</ele>
        <time>2019-08-06T16:30:47Z</time>
      </trkpt>
      <trkpt lat="48.8546450" lon="13.8936860">
        <ele>751.2</ele>
        <time>2019-08-06T16:30:48Z</time>
      </trkpt>
      <trkpt lat="48.8546150" lon="13.8937790">
        <ele>751.2</ele>
        <time>2019-08-06T16:30:49Z</time>
      </trkpt>
      <trkpt lat="48.8545820" lon="13.8938710">
        <ele>751.0</ele>
        <time>2019-08-06T16:30:50Z</time>
      </trkpt>
      <trkpt lat="48.8545480" lon="13.8939620">
        <ele>751.0</ele>
        <time>2019-08-06T16:30:51Z</time>
      </trkpt>
      <trkpt lat="48.8545170" lon="13.8940530">
        <ele>751.0</ele>
        <time>2019-08-06T16:30:52Z</time>
      </trkpt>
      <trkpt lat="48.8544930" lon="13.8941480">
        <ele>751.0</ele>
        <time>2019-08-06T16:30:53Z</time>
      </trkpt>
      <trkpt lat="48.8544740" lon="13.8942480">
        <ele>751.0</ele>
        <time>2019-08-06T16:30:54Z</time>
      </trkpt>
      <trkpt lat="48.8544620" lon="13.8943480">
        <ele>751.0</ele>
        <time>2019-08-06T16:30:55Z</time>
      </trkpt>
      <trkpt lat="48.8544580" lon="13.8944480">
        <ele>751.2</ele>
        <time>2019-08-06T16:30:56Z</time>
      </trkpt>
      <trkpt lat="48.8544590" lon="13.8945530">
        <ele>751.0</ele>
        <time>2019-08-06T16:30:57Z</time>
      </trkpt>
      <trkpt lat="48.8544580" lon="13.8946600">
        <ele>751.0</ele>
        <time>2019-08-06T16:30:58Z</time>
      </trkpt>
      <trkpt lat="48.8544510" lon="13.8947650">
        <ele>750.8</ele>
        <time>2019-08-06T16:30:59Z</time>
      </trkpt>
      <trkpt lat="48.8544390" lon="13.8948720">
        <ele>750.6</ele>
        <time>2019-08-06T16:31:00Z</time>
      </trkpt>
      <trkpt lat="48.8544210" lon="13.8949810">
        <ele>750.4</ele>
        <time>2019-08-06T16:31:01Z</time>
      </trkpt>
      <trkpt lat="48.8543980" lon="13.8950880">
        <ele>750.4</ele>
        <time>2019-08-06T16:31:02Z</time>
      </trkpt>
      <trkpt lat="48.8543750" lon="13.8951940">
        <ele>750.2</ele>
        <time>2019-08-06T16:31:03Z</time>
      </trkpt>
      <trkpt lat="48.8543520" lon="13.8952990">
        <ele>750.2</ele>
        <time>2019-08-06T16:31:04Z</time>
      </trkpt>
      <trkpt lat="48.8543320" lon="13.8954010">
        <ele>750.2</ele>
        <time>2019-08-06T16:31:05Z</time>
      </trkpt>
      <trkpt lat="48.8543110" lon="13.8955010">
        <ele>750.2</ele>
        <time>2019-08-06T16:31:06Z</time>
      </trkpt>
      <trkpt lat="48.8542870" lon="13.8956100">
        <ele>750.2</ele>
        <time>2019-08-06T16:31:07Z</time>
      </trkpt>
      <trkpt lat="48.8542640" lon="13.8957200">
        <ele>750.0</ele>
        <time>2019-08-06T16:31:08Z</time>
      </trkpt>
      <trkpt lat="48.8542430" lon="13.8958270">
        <ele>750.0</ele>
        <time>2019-08-06T16:31:09Z</time>
      </trkpt>
      <trkpt lat="48.8542240" lon="13.8959330">
        <ele>749.8</ele>
        <time>2019-08-06T16:31:10Z</time>
      </trkpt>
      <trkpt lat="48.8542070" lon="13.8960400">
        <ele>749.8</ele>
        <time>2019-08-06T16:31:11Z</time>
      </trkpt>
      <trkpt lat="48.8541880" lon="13.8961450">
        <ele>749.8</ele>
        <time>2019-08-06T16:31:12Z</time>
      </trkpt>
      <trkpt lat="48.8541700" lon="13.8962490">
        <ele>749.6</ele>
        <time>2019-08-06T16:31:13Z</time>
      </trkpt>
      <trkpt lat="48.8541520" lon="13.8963510">
        <ele>749.6</ele>
        <time>2019-08-06T16:31:14Z</time>
      </trkpt>
      <trkpt lat="48.8541310" lon="13.8964540">
        <ele>749.6</ele>
        <time>2019-08-06T16:31:15Z</time>
      </trkpt>
      <trkpt lat="48.8541080" lon="13.8965540">
        <ele>749.6</ele>
        <time>2019-08-06T16:31:16Z</time>
      </trkpt>
      <trkpt lat="48.8540870" lon="13.8966480">
        <ele>749.8</ele>
        <time>2019-08-06T16:31:17Z</time>
      </trkpt>
      <trkpt lat="48.8540670" lon="13.8967460">
        <ele>749.8</ele>
        <time>2019-08-06T16:31:18Z</time>
      </trkpt>
      <trkpt lat="48.8540480" lon="13.8968450">
        <ele>749.8</ele>
        <time>2019-08-06T16:31:19Z</time>
      </trkpt>
      <trkpt lat="48.8540320" lon="13.8969430">
        <ele>749.8</ele>
        <time>2019-08-06T16:31:20Z</time>
      </trkpt>
      <trkpt lat="48.8540160" lon="13.8970380">
        <ele>749.8</ele>
        <time>2019-08-06T16:31:21Z</time>
      </trkpt>
      <trkpt lat="48.8539970" lon="13.8971330">
        <ele>749.8</ele>
        <time>2019-08-06T16:31:22Z</time>
      </trkpt>
      <trkpt lat="48.8539760" lon="13.8972310">
        <ele>749.8</ele>
        <time>2019-08-06T16:31:23Z</time>
      </trkpt>
      <trkpt lat="48.8539540" lon="13.8973250">
        <ele>749.8</ele>
        <time>2019-08-06T16:31:24Z</time>
      </trkpt>
      <trkpt lat="48.8539330" lon="13.8974160">
        <ele>749.8</ele>
        <time>2019-08-06T16:31:25Z</time>
      </trkpt>
      <trkpt lat="48.8539110" lon="13.8975020">
        <ele>749.8</ele>
        <time>2019-08-06T16:31:26Z</time>
      </trkpt>
      <trkpt lat="48.8538840" lon="13.8975980">
        <ele>749.8</ele>
        <time>2019-08-06T16:31:27Z</time>
      </trkpt>
      <trkpt lat="48.8538540" lon="13.8976950">
        <ele>749.8</ele>
        <time>2019-08-06T16:31:28Z</time>
      </trkpt>
      <trkpt lat="48.8538240" lon="13.8977840">
        <ele>749.8</ele>
        <time>2019-08-06T16:31:29Z</time>
      </trkpt>
      <trkpt lat="48.8537910" lon="13.8978690">
        <ele>749.8</ele>
        <time>2019-08-06T16:31:30Z</time>
      </trkpt>
      <trkpt lat="48.8537530" lon="13.8979520">
        <ele>749.8</ele>
        <time>2019-08-06T16:31:31Z</time>
      </trkpt>
      <trkpt lat="48.8537110" lon="13.8980250">
        <ele>749.8</ele>
        <time>2019-08-06T16:31:32Z</time>
      </trkpt>
      <trkpt lat="48.8536610" lon="13.8980860">
        <ele>749.8</ele>
        <time>2019-08-06T16:31:33Z</time>
      </trkpt>
      <trkpt lat="48.8536060" lon="13.8981310">
        <ele>750.0</ele>
        <time>2019-08-06T16:31:34Z</time>
      </trkpt>
      <trkpt lat="48.8535520" lon="13.8981640">
        <ele>750.0</ele>
        <time>2019-08-06T16:31:35Z</time>
      </trkpt>
      <trkpt lat="48.8534980" lon="13.8981940">
        <ele>750.2</ele>
        <time>2019-08-06T16:31:36Z</time>
      </trkpt>
      <trkpt lat="48.8534480" lon="13.8982300">
        <ele>750.4</ele>
        <time>2019-08-06T16:31:37Z</time>
      </trkpt>
      <trkpt lat="48.8534020" lon="13.8982750">
        <ele>750.4</ele>
        <time>2019-08-06T16:31:38Z</time>
      </trkpt>
      <trkpt lat="48.8533580" lon="13.8983270">
        <ele>750.4</ele>
        <time>2019-08-06T16:31:39Z</time>
      </trkpt>
      <trkpt lat="48.8533180" lon="13.8983840">
        <ele>750.6</ele>
        <time>2019-08-06T16:31:40Z</time>
      </trkpt>
      <trkpt lat="48.8532790" lon="13.8984440">
        <ele>750.6</ele>
        <time>2019-08-06T16:31:41Z</time>
      </trkpt>
      <trkpt lat="48.8532410" lon="13.8985090">
        <ele>750.8</ele>
        <time>2019-08-06T16:31:42Z</time>
      </trkpt>
      <trkpt lat="48.8532020" lon="13.8985760">
        <ele>750.8</ele>
        <time>2019-08-06T16:31:43Z</time>
      </trkpt>
      <trkpt lat="48.8531620" lon="13.8986440">
        <ele>750.8</ele>
        <time>2019-08-06T16:31:44Z</time>
      </trkpt>
      <trkpt lat="48.8531200" lon="13.8987100">
        <ele>751.0</ele>
        <time>2019-08-06T16:31:45Z</time>
      </trkpt>
      <trkpt lat="48.8530790" lon="13.8987750">
        <ele>751.0</ele>
        <time>2019-08-06T16:31:46Z</time>
      </trkpt>
      <trkpt lat="48.8530360" lon="13.8988400">
        <ele>751.0</ele>
        <time>2019-08-06T16:31:47Z</time>
      </trkpt>
      <trkpt lat="48.8529950" lon="13.8989040">
        <ele>751.0</ele>
        <time>2019-08-06T16:31:48Z</time>
      </trkpt>
      <trkpt lat="48.8529510" lon="13.8989700">
        <ele>750.8</ele>
        <time>2019-08-06T16:31:49Z</time>
      </trkpt>
      <trkpt lat="48.8529070" lon="13.8990390">
        <ele>750.8</ele>
        <time>2019-08-06T16:31:50Z</time>
      </trkpt>
      <trkpt lat="48.8528620" lon="13.8991060">
        <ele>750.8</ele>
        <time>2019-08-06T16:31:51Z</time>
      </trkpt>
      <trkpt lat="48.8528170" lon="13.8991720">
        <ele>750.8</ele>
        <time>2019-08-06T16:31:52Z</time>
      </trkpt>
      <trkpt lat="48.8527730" lon="13.8992370">
        <ele>750.6</ele>
        <time>2019-08-06T16:31:53Z</time>
      </trkpt>
      <trkpt lat="48.8527300" lon="13.8992990">
        <ele>750.6</ele>
        <time>2019-08-06T16:31:54Z</time>
      </trkpt>
      <trkpt lat="48.8526860" lon="13.8993610">
        <ele>750.6</ele>
        <time>2019-08-06T16:31:55Z</time>
      </trkpt>
      <trkpt lat="48.8526430" lon="13.8994210">
        <ele>750.6</ele>
        <time>2019-08-06T16:31:56Z</time>
      </trkpt>
      <trkpt lat="48.8525990" lon="13.8994810">
        <ele>750.6</ele>
        <time>2019-08-06T16:31:57Z</time>
      </trkpt>
      <trkpt lat="48.8525530" lon="13.8995420">
        <ele>750.6</ele>
        <time>2019-08-06T16:31:58Z</time>
      </trkpt>
      <trkpt lat="48.8525090" lon="13.8996010">
        <ele>750.8</ele>
        <time>2019-08-06T16:31:59Z</time>
      </trkpt>
      <trkpt lat="48.8524650" lon="13.8996610">
        <ele>750.8</ele>
        <time>2019-08-06T16:32:00Z</time>
      </trkpt>
      <trkpt lat="48.8524220" lon="13.8997220">
        <ele>750.8</ele>
        <time>2019-08-06T16:32:01Z</time>
      </trkpt>
      <trkpt lat="48.8523840" lon="13.8997860">
        <ele>750.8</ele>
        <time>2019-08-06T16:32:02Z</time>
      </trkpt>
      <trkpt lat="48.8523490" lon="13.8998530">
        <ele>751.0</ele>
        <time>2019-08-06T16:32:03Z</time>
      </trkpt>
      <trkpt lat="48.8523180" lon="13.8999220">
        <ele>751.0</ele>
        <time>2019-08-06T16:32:04Z</time>
      </trkpt>
      <trkpt lat="48.8522920" lon="13.8999940">
        <ele>751.0</ele>
        <time>2019-08-06T16:32:05Z</time>
      </trkpt>
      <trkpt lat="48.8522680" lon="13.9000720">
        <ele>751.2</ele>
        <time>2019-08-06T16:32:06Z</time>
      </trkpt>
      <trkpt lat="48.8522440" lon="13.9001510">
        <ele>751.2</ele>
        <time>2019-08-06T16:32:07Z</time>
      </trkpt>
      <trkpt lat="48.8522200" lon="13.9002310">
        <ele>751.2</ele>
        <time>2019-08-06T16:32:08Z</time>
      </trkpt>
      <trkpt lat="48.8521960" lon="13.9003150">
        <ele>751.2</ele>
        <time>2019-08-06T16:32:09Z</time>
      </trkpt>
      <trkpt lat="48.8521730" lon="13.9003990">
        <ele>751.2</ele>
        <time>2019-08-06T16:32:10Z</time>
      </trkpt>
      <trkpt lat="48.8521500" lon="13.9004840">
        <ele>751.2</ele>
        <time>2019-08-06T16:32:11Z</time>
      </trkpt>
      <trkpt lat="48.8521240" lon="13.9005700">
        <ele>751.2</ele>
        <time>2019-08-06T16:32:12Z</time>
      </trkpt>
      <trkpt lat="48.8520990" lon="13.9006550">
        <ele>751.2</ele>
        <time>2019-08-06T16:32:13Z</time>
      </trkpt>
      <trkpt lat="48.8520760" lon="13.9007400">
        <ele>751.2</ele>
        <time>2019-08-06T16:32:14Z</time>
      </trkpt>
      <trkpt lat="48.8520520" lon="13.9008250">
        <ele>751.2</ele>
        <time>2019-08-06T16:32:15Z</time>
      </trkpt>
      <trkpt lat="48.8520290" lon="13.9009090">
        <ele>751.0</ele>
        <time>2019-08-06T16:32:16Z</time>
      </trkpt>
      <trkpt lat="48.8520100" lon="13.9009940">
        <ele>751.0</ele>
        <time>2019-08-06T16:32:17Z</time>
      </trkpt>
      <trkpt lat="48.8519880" lon="13.9010800">
        <ele>751.0</ele>
        <time>2019-08-06T16:32:18Z</time>
      </trkpt>
      <trkpt lat="48.8519590" lon="13.9011640">
        <ele>751.0</ele>
        <time>2019-08-06T16:32:19Z</time>
      </trkpt>
      <trkpt lat="48.8519250" lon="13.9012460">
        <ele>750.8</ele>
        <time>2019-08-06T16:32:20Z</time>
      </trkpt>
      <trkpt lat="48.8518850" lon="13.9013280">
        <ele>750.8</ele>
        <time>2019-08-06T16:32:21Z</time>
      </trkpt>
      <trkpt lat="48.8518420" lon="13.9014110">
        <ele>750.6</ele>
        <time>2019-08-06T16:32:22Z</time>
      </trkpt>
      <trkpt lat="48.8517960" lon="13.9014940">
        <ele>750.4</ele>
        <time>2019-08-06T16:32:23Z</time>
      </trkpt>
      <trkpt lat="48.8517480" lon="13.9015760">
        <ele>750.2</ele>
        <time>2019-08-06T16:32:24Z</time>
      </trkpt>
      <trkpt lat="48.8517000" lon="13.9016570">
        <ele>750.2</ele>
        <time>2019-08-06T16:32:25Z</time>
      </trkpt>
      <trkpt lat="48.8516500" lon="13.9017390">
        <ele>750.0</ele>
        <time>2019-08-06T16:32:26Z</time>
      </trkpt>
      <trkpt lat="48.8516020" lon="13.9018170">
        <ele>750.0</ele>
        <time>2019-08-06T16:32:27Z</time>
      </trkpt>
      <trkpt lat="48.8515490" lon="13.9018890">
        <ele>749.8</ele>
        <time>2019-08-06T16:32:28Z</time>
      </trkpt>
      <trkpt lat="48.8514920" lon="13.9019570">
        <ele>749.8</ele>
        <time>2019-08-06T16:32:29Z</time>
      </trkpt>
      <trkpt lat="48.8514340" lon="13.9020190">
        <ele>749.8</ele>
        <time>2019-08-06T16:32:30Z</time>
      </trkpt>
      <trkpt lat="48.8513740" lon="13.9020750">
        <ele>750.0</ele>
        <time>2019-08-06T16:32:31Z</time>
      </trkpt>
      <trkpt lat="48.8513140" lon="13.9021240">
        <ele>750.0</ele>
        <time>2019-08-06T16:32:32Z</time>
      </trkpt>
      <trkpt lat="48.8512520" lon="13.9021690">
        <ele>750.0</ele>
        <time>2019-08-06T16:32:33Z</time>
      </trkpt>
      <trkpt lat="48.8511890" lon="13.9022140">
        <ele>750.0</ele>
        <time>2019-08-06T16:32:34Z</time>
      </trkpt>
      <trkpt lat="48.8511280" lon="13.9022520">
        <ele>750.2</ele>
        <time>2019-08-06T16:32:35Z</time>
      </trkpt>
      <trkpt lat="48.8510660" lon="13.9022920">
        <ele>750.2</ele>
        <time>2019-08-06T16:32:36Z</time>
      </trkpt>
      <trkpt lat="48.8510060" lon="13.9023350">
        <ele>750.4</ele>
        <time>2019-08-06T16:32:37Z</time>
      </trkpt>
      <trkpt lat="48.8509470" lon="13.9023820">
        <ele>750.4</ele>
        <time>2019-08-06T16:32:38Z</time>
      </trkpt>
      <trkpt lat="48.8508890" lon="13.9024310">
        <ele>750.6</ele>
        <time>2019-08-06T16:32:39Z</time>
      </trkpt>
      <trkpt lat="48.8508320" lon="13.9024830">
        <ele>750.6</ele>
        <time>2019-08-06T16:32:40Z</time>
      </trkpt>
      <trkpt lat="48.8507780" lon="13.9025380">
        <ele>750.6</ele>
        <time>2019-08-06T16:32:41Z</time>
      </trkpt>
      <trkpt lat="48.8507270" lon="13.9025980">
        <ele>750.6</ele>
        <time>2019-08-06T16:32:42Z</time>
      </trkpt>
      <trkpt lat="48.8506800" lon="13.9026610">
        <ele>750.6</ele>
        <time>2019-08-06T16:32:43Z</time>
      </trkpt>
      <trkpt lat="48.8506360" lon="13.9027310">
        <ele>750.6</ele>
        <time>2019-08-06T16:32:44Z</time>
      </trkpt>
      <trkpt lat="48.8505940" lon="13.9028030">
        <ele>750.6</ele>
        <time>2019-08-06T16:32:45Z</time>
      </trkpt>
      <trkpt lat="48.8505530" lon="13.9028760">
        <ele>750.4</ele>
        <time>2019-08-06T16:32:46Z</time>
      </trkpt>
      <trkpt lat="48.8505110" lon="13.9029520">
        <ele>750.4</ele>
        <time>2019-08-06T16:32:47Z</time>
      </trkpt>
      <trkpt lat="48.8504690" lon="13.9030310">
        <ele>750.4</ele>
        <time>2019-08-06T16:32:48Z</time>
      </trkpt>
      <trkpt lat="48.8504280" lon="13.9031130">
        <ele>750.2</ele>
        <time>2019-08-06T16:32:49Z</time>
      </trkpt>
      <trkpt lat="48.8503900" lon="13.9031970">
        <ele>750.2</ele>
        <time>2019-08-06T16:32:50Z</time>
      </trkpt>
      <trkpt lat="48.8503510" lon="13.9032820">
        <ele>750.2</ele>
        <time>2019-08-06T16:32:51Z</time>
      </trkpt>
      <trkpt lat="48.8503150" lon="13.9033670">
        <ele>750.2</ele>
        <time>2019-08-06T16:32:52Z</time>
      </trkpt>
      <trkpt lat="48.8502820" lon="13.9034470">
        <ele>750.2</ele>
        <time>2019-08-06T16:32:53Z</time>
      </trkpt>
      <trkpt lat="48.8502480" lon="13.9035320">
        <ele>750.4</ele>
        <time>2019-08-06T16:32:54Z</time>
      </trkpt>
      <trkpt lat="48.8502160" lon="13.9036190">
        <ele>750.4</ele>
        <time>2019-08-06T16:32:55Z</time>
      </trkpt>
      <trkpt lat="48.8501870" lon="13.9037050">
        <ele>750.4</ele>
        <time>2019-08-06T16:32:56Z</time>
      </trkpt>
      <trkpt lat="48.8501610" lon="13.9037930">
        <ele>750.4</ele>
        <time>2019-08-06T16:32:57Z</time>
      </trkpt>
      <trkpt lat="48.8501350" lon="13.9038830">
        <ele>750.4</ele>
        <time>2019-08-06T16:32:58Z</time>
      </trkpt>
      <trkpt lat="48.8501120" lon="13.9039750">
        <ele>750.4</ele>
        <time>2019-08-06T16:32:59Z</time>
      </trkpt>
      <trkpt lat="48.8500900" lon="13.9040650">
        <ele>750.4</ele>
        <time>2019-08-06T16:33:00Z</time>
      </trkpt>
      <trkpt lat="48.8500690" lon="13.9041580">
        <ele>750.4</ele>
        <time>2019-08-06T16:33:01Z</time>
      </trkpt>
      <trkpt lat="48.8500500" lon="13.9042500">
        <ele>750.4</ele>
        <time>2019-08-06T16:33:02Z</time>
      </trkpt>
      <trkpt lat="48.8500310" lon="13.9043430">
        <ele>750.4</ele>
        <time>2019-08-06T16:33:03Z</time>
      </trkpt>
      <trkpt lat="48.8500160" lon="13.9044370">
        <ele>750.4</ele>
        <time>2019-08-06T16:33:04Z</time>
      </trkpt>
      <trkpt lat="48.8500040" lon="13.9045290">
        <ele>750.2</ele>
        <time>2019-08-06T16:33:05Z</time>
      </trkpt>
      <trkpt lat="48.8499910" lon="13.9046200">
        <ele>750.2</ele>
        <time>2019-08-06T16:33:06Z</time>
      </trkpt>
      <trkpt lat="48.8499740" lon="13.9047100">
        <ele>750.2</ele>
        <time>2019-08-06T16:33:07Z</time>
      </trkpt>
      <trkpt lat="48.8499580" lon="13.9047990">
        <ele>750.2</ele>
        <time>2019-08-06T16:33:08Z</time>
      </trkpt>
      <trkpt lat="48.8499410" lon="13.9048880">
        <ele>750.0</ele>
        <time>2019-08-06T16:33:09Z</time>
      </trkpt>
      <trkpt lat="48.8499240" lon="13.9049780">
        <ele>750.0</ele>
        <time>2019-08-06T16:33:10Z</time>
      </trkpt>
      <trkpt lat="48.8499080" lon="13.9050670">
        <ele>750.0</ele>
        <time>2019-08-06T16:33:11Z</time>
      </trkpt>
      <trkpt lat="48.8498920" lon="13.9051610">
        <ele>750.0</ele>
        <time>2019-08-06T16:33:12Z</time>
      </trkpt>
      <trkpt lat="48.8498770" lon="13.9052560">
        <ele>750.0</ele>
        <time>2019-08-06T16:33:13Z</time>
      </trkpt>
      <trkpt lat="48.8498640" lon="13.9053530">
        <ele>750.0</ele>
        <time>2019-08-06T16:33:14Z</time>
      </trkpt>
      <trkpt lat="48.8498510" lon="13.9054540">
        <ele>750.0</ele>
        <time>2019-08-06T16:33:15Z</time>
      </trkpt>
      <trkpt lat="48.8498370" lon="13.9055570">
        <ele>749.8</ele>
        <time>2019-08-06T16:33:16Z</time>
      </trkpt>
      <trkpt lat="48.8498210" lon="13.9056590">
        <ele>749.8</ele>
        <time>2019-08-06T16:33:17Z</time>
      </trkpt>
      <trkpt lat="48.8498040" lon="13.9057590">
        <ele>749.8</ele>
        <time>2019-08-06T16:33:18Z</time>
      </trkpt>
      <trkpt lat="48.8497850" lon="13.9058590">
        <ele>749.8</ele>
        <time>2019-08-06T16:33:19Z</time>
      </trkpt>
      <trkpt lat="48.8497650" lon="13.9059560">
        <ele>749.6</ele>
        <time>2019-08-06T16:33:20Z</time>
      </trkpt>
      <trkpt lat="48.8497470" lon="13.9060480">
        <ele>749.6</ele>
        <time>2019-08-06T16:33:21Z</time>
      </trkpt>
      <trkpt lat="48.8497280" lon="13.9061440">
        <ele>749.6</ele>
        <time>2019-08-06T16:33:22Z</time>
      </trkpt>
      <trkpt lat="48.8497080" lon="13.9062410">
        <ele>749.6</ele>
        <time>2019-08-06T16:33:23Z</time>
      </trkpt>
      <trkpt lat="48.8496940" lon="13.9063390">
        <ele>749.6</ele>
        <time>2019-08-06T16:33:24Z</time>
      </trkpt>
      <trkpt lat="48.8496800" lon="13.9064420">
        <ele>749.6</ele>
        <time>2019-08-06T16:33:25Z</time>
      </trkpt>
      <trkpt lat="48.8496650" lon="13.9065410">
        <ele>749.6</ele>
        <time>2019-08-06T16:33:26Z</time>
      </trkpt>
      <trkpt lat="48.8496510" lon="13.9066300">
        <ele>749.4</ele>
        <time>2019-08-06T16:33:27Z</time>
      </trkpt>
      <trkpt lat="48.8496420" lon="13.9067190">
        <ele>749.4</ele>
        <time>2019-08-06T16:33:28Z</time>
      </trkpt>
      <trkpt lat="48.8496350" lon="13.9068100">
        <ele>749.4</ele>
        <time>2019-08-06T16:33:29Z</time>
      </trkpt>
      <trkpt lat="48.8496250" lon="13.9069020">
        <ele>749.4</ele>
        <time>2019-08-06T16:33:30Z</time>
      </trkpt>
      <trkpt lat="48.8496170" lon="13.9069920">
        <ele>749.4</ele>
        <time>2019-08-06T16:33:31Z</time>
      </trkpt>
      <trkpt lat="48.8496110" lon="13.9070910">
        <ele>749.4</ele>
        <time>2019-08-06T16:33:32Z</time>
      </trkpt>
      <trkpt lat="48.8496030" lon="13.9071950">
        <ele>749.4</ele>
        <time>2019-08-06T16:33:33Z</time>
      </trkpt>
      <trkpt lat="48.8495900" lon="13.9073040">
        <ele>749.4</ele>
        <time>2019-08-06T16:33:34Z</time>
      </trkpt>
      <trkpt lat="48.8495740" lon="13.9074120">
        <ele>749.2</ele>
        <time>2019-08-06T16:33:35Z</time>
      </trkpt>
      <trkpt lat="48.8495550" lon="13.9075180">
        <ele>749.2</ele>
        <time>2019-08-06T16:33:36Z</time>
      </trkpt>
      <trkpt lat="48.8495380" lon="13.9076200">
        <ele>749.2</ele>
        <time>2019-08-06T16:33:37Z</time>
      </trkpt>
      <trkpt lat="48.8495260" lon="13.9077180">
        <ele>749.2</ele>
        <time>2019-08-06T16:33:38Z</time>
      </trkpt>
      <trkpt lat="48.8495150" lon="13.9078210">
        <ele>749.2</ele>
        <time>2019-08-06T16:33:39Z</time>
      </trkpt>
      <trkpt lat="48.8494990" lon="13.9079230">
        <ele>749.0</ele>
        <time>2019-08-06T16:33:40Z</time>
      </trkpt>
      <trkpt lat="48.8494800" lon="13.9080160">
        <ele>749.0</ele>
        <time>2019-08-06T16:33:41Z</time>
      </trkpt>
      <trkpt lat="48.8494600" lon="13.9081080">
        <ele>749.0</ele>
        <time>2019-08-06T16:33:42Z</time>
      </trkpt>
      <trkpt lat="48.8494410" lon="13.9081990">
        <ele>749.0</ele>
        <time>2019-08-06T16:33:43Z</time>
      </trkpt>
      <trkpt lat="48.8494170" lon="13.9082920">
        <ele>748.8</ele>
        <time>2019-08-06T16:33:44Z</time>
      </trkpt>
      <trkpt lat="48.8493930" lon="13.9083780">
        <ele>748.8</ele>
        <time>2019-08-06T16:33:45Z</time>
      </trkpt>
      <trkpt lat="48.8493710" lon="13.9084620">
        <ele>748.8</ele>
        <time>2019-08-06T16:33:46Z</time>
      </trkpt>
      <trkpt lat="48.8493470" lon="13.9085460">
        <ele>748.6</ele>
        <time>2019-08-06T16:33:47Z</time>
      </trkpt>
      <trkpt lat="48.8493200" lon="13.9086350">
        <ele>748.6</ele>
        <time>2019-08-06T16:33:48Z</time>
      </trkpt>
      <trkpt lat="48.8492930" lon="13.9087350">
        <ele>748.6</ele>
        <time>2019-08-06T16:33:49Z</time>
      </trkpt>
      <trkpt lat="48.8492650" lon="13.9088320">
        <ele>748.6</ele>
        <time>2019-08-06T16:33:50Z</time>
      </trkpt>
      <trkpt lat="48.8492370" lon="13.9089160">
        <ele>748.6</ele>
        <time>2019-08-06T16:33:51Z</time>
      </trkpt>
      <trkpt lat="48.8492120" lon="13.9089930">
        <ele>748.6</ele>
        <time>2019-08-06T16:33:52Z</time>
      </trkpt>
      <trkpt lat="48.8491850" lon="13.9090740">
        <ele>748.6</ele>
        <time>2019-08-06T16:33:53Z</time>
      </trkpt>
      <trkpt lat="48.8491490" lon="13.9091600">
        <ele>748.4</ele>
        <time>2019-08-06T16:33:54Z</time>
      </trkpt>
      <trkpt lat="48.8491070" lon="13.9092410">
        <ele>748.4</ele>
        <time>2019-08-06T16:33:55Z</time>
      </trkpt>
      <trkpt lat="48.8490610" lon="13.9093130">
        <ele>748.6</ele>
        <time>2019-08-06T16:33:56Z</time>
      </trkpt>
      <trkpt lat="48.8490110" lon="13.9093780">
        <ele>748.6</ele>
        <time>2019-08-06T16:33:57Z</time>
      </trkpt>
      <trkpt lat="48.8489570" lon="13.9094390">
        <ele>748.6</ele>
        <time>2019-08-06T16:33:58Z</time>
      </trkpt>
      <trkpt lat="48.8489040" lon="13.9094890">
        <ele>748.6</ele>
        <time>2019-08-06T16:33:59Z</time>
      </trkpt>
      <trkpt lat="48.8488550" lon="13.9095300">
        <ele>748.8</ele>
        <time>2019-08-06T16:34:00Z</time>
      </trkpt>
      <trkpt lat="48.8488040" lon="13.9095710">
        <ele>748.8</ele>
        <time>2019-08-06T16:34:01Z</time>
      </trkpt>
      <trkpt lat="48.8487520" lon="13.9096090">
        <ele>749.0</ele>
        <time>2019-08-06T16:34:02Z</time>
      </trkpt>
      <trkpt lat="48.8486990" lon="13.9096420">
        <ele>749.2</ele>
        <time>2019-08-06T16:34:03Z</time>
      </trkpt>
      <trkpt lat="48.8486500" lon="13.9096640">
        <ele>749.2</ele>
        <time>2019-08-06T16:34:04Z</time>
      </trkpt>
      <trkpt lat="48.8486030" lon="13.9096830">
        <ele>749.4</ele>
        <time>2019-08-06T16:34:05Z</time>
      </trkpt>
      <trkpt lat="48.8485510" lon="13.9097090">
        <ele>749.6</ele>
        <time>2019-08-06T16:34:06Z</time>
      </trkpt>
      <trkpt lat="48.8484940" lon="13.9097410">
        <ele>749.8</ele>
        <time>2019-08-06T16:34:07Z</time>
      </trkpt>
      <trkpt lat="48.8484400" lon="13.9097780">
        <ele>749.8</ele>
        <time>2019-08-06T16:34:08Z</time>
      </trkpt>
      <trkpt lat="48.8483910" lon="13.9098210">
        <ele>749.8</ele>
        <time>2019-08-06T16:34:09Z</time>
      </trkpt>
      <trkpt lat="48.8483460" lon="13.9098660">
        <ele>749.8</ele>
        <time>2019-08-06T16:34:10Z</time>
      </trkpt>
      <trkpt lat="48.8483040" lon="13.9099140">
        <ele>750.0</ele>
        <time>2019-08-06T16:34:11Z</time>
      </trkpt>
      <trkpt lat="48.8482620" lon="13.9099620">
        <ele>750.0</ele>
        <time>2019-08-06T16:34:12Z</time>
      </trkpt>
      <trkpt lat="48.8482200" lon="13.9100100">
        <ele>750.2</ele>
        <time>2019-08-06T16:34:13Z</time>
      </trkpt>
      <trkpt lat="48.8481770" lon="13.9100580">
        <ele>750.2</ele>
        <time>2019-08-06T16:34:14Z</time>
      </trkpt>
      <trkpt lat="48.8481330" lon="13.9101090">
        <ele>750.4</ele>
        <time>2019-08-06T16:34:15Z</time>
      </trkpt>
      <trkpt lat="48.8480900" lon="13.9101580">
        <ele>750.4</ele>
        <time>2019-08-06T16:34:16Z</time>
      </trkpt>
      <trkpt lat="48.8480440" lon="13.9102100">
        <ele>750.4</ele>
        <time>2019-08-06T16:34:17Z</time>
      </trkpt>
      <trkpt lat="48.8480010" lon="13.9102650">
        <ele>750.4</ele>
        <time>2019-08-06T16:34:18Z</time>
      </trkpt>
      <trkpt lat="48.8479580" lon="13.9103180">
        <ele>750.4</ele>
        <time>2019-08-06T16:34:19Z</time>
      </trkpt>
      <trkpt lat="48.8479150" lon="13.9103710">
        <ele>750.4</ele>
        <time>2019-08-06T16:34:20Z</time>
      </trkpt>
      <trkpt lat="48.8478730" lon="13.9104280">
        <ele>750.4</ele>
        <time>2019-08-06T16:34:21Z</time>
      </trkpt>
      <trkpt lat="48.8478290" lon="13.9104890">
        <ele>750.4</ele>
        <time>2019-08-06T16:34:22Z</time>
      </trkpt>
      <trkpt lat="48.8477890" lon="13.9105500">
        <ele>750.4</ele>
        <time>2019-08-06T16:34:23Z</time>
      </trkpt>
      <trkpt lat="48.8477470" lon="13.9106110">
        <ele>750.4</ele>
        <time>2019-08-06T16:34:24Z</time>
      </trkpt>
      <trkpt lat="48.8477060" lon="13.9106750">
        <ele>750.4</ele>
        <time>2019-08-06T16:34:25Z</time>
      </trkpt>
      <trkpt lat="48.8476640" lon="13.9107390">
        <ele>750.4</ele>
        <time>2019-08-06T16:34:26Z</time>
      </trkpt>
      <trkpt lat="48.8476240" lon="13.9108000">
        <ele>750.2</ele>
        <time>2019-08-06T16:34:27Z</time>
      </trkpt>
      <trkpt lat="48.8475830" lon="13.9108610">
        <ele>750.4</ele>
        <time>2019-08-06T16:34:28Z</time>
      </trkpt>
      <trkpt lat="48.8475410" lon="13.9109240">
        <ele>750.4</ele>
        <time>2019-08-06T16:34:29Z</time>
      </trkpt>
      <trkpt lat="48.8475010" lon="13.9109860">
        <ele>750.4</ele>
        <time>2019-08-06T16:34:30Z</time>
      </trkpt>
      <trkpt lat="48.8474610" lon="13.9110470">
        <ele>750.4</ele>
        <time>2019-08-06T16:34:31Z</time>
      </trkpt>
      <trkpt lat="48.8474210" lon="13.9111090">
        <ele>750.4</ele>
        <time>2019-08-06T16:34:32Z</time>
      </trkpt>
      <trkpt lat="48.8473850" lon="13.9111690">
        <ele>750.4</ele>
        <time>2019-08-06T16:34:33Z</time>
      </trkpt>
      <trkpt lat="48.8473490" lon="13.9112260">
        <ele>750.4</ele>
        <time>2019-08-06T16:34:34Z</time>
      </trkpt>
      <trkpt lat="48.8473120" lon="13.9112840">
        <ele>750.4</ele>
        <time>2019-08-06T16:34:35Z</time>
      </trkpt>
      <trkpt lat="48.8472770" lon="13.9113410">
        <ele>750.4</ele>
        <time>2019-08-06T16:34:36Z</time>
      </trkpt>
      <trkpt lat="48.8472380" lon="13.9114000">
        <ele>750.4</ele>
        <time>2019-08-06T16:34:37Z</time>
      </trkpt>
      <trkpt lat="48.8472010" lon="13.9114590">
        <ele>750.4</ele>
        <time>2019-08-06T16:34:38Z</time>
      </trkpt>
      <trkpt lat="48.8471650" lon="13.9115180">
        <ele>750.6</ele>
        <time>2019-08-06T16:34:39Z</time>
      </trkpt>
      <trkpt lat="48.8471310" lon="13.9115800">
        <ele>750.6</ele>
        <time>2019-08-06T16:34:40Z</time>
      </trkpt>
      <trkpt lat="48.8471030" lon="13.9116450">
        <ele>750.6</ele>
        <time>2019-08-06T16:34:41Z</time>
      </trkpt>
      <trkpt lat="48.8470810" lon="13.9117090">
        <ele>750.8</ele>
        <time>2019-08-06T16:34:42Z</time>
      </trkpt>
      <trkpt lat="48.8470580" lon="13.9117750">
        <ele>750.8</ele>
        <time>2019-08-06T16:34:43Z</time>
      </trkpt>
      <trkpt lat="48.8470380" lon="13.9118390">
        <ele>751.0</ele>
        <time>2019-08-06T16:34:44Z</time>
      </trkpt>
      <trkpt lat="48.8470190" lon="13.9118950">
        <ele>751.0</ele>
        <time>2019-08-06T16:34:45Z</time>
      </trkpt>
      <trkpt lat="48.8470010" lon="13.9119510">
        <ele>751.0</ele>
        <time>2019-08-06T16:34:46Z</time>
      </trkpt>
      <trkpt lat="48.8469820" lon="13.9120110">
        <ele>751.2</ele>
        <time>2019-08-06T16:34:47Z</time>
      </trkpt>
      <trkpt lat="48.8469640" lon="13.9120700">
        <ele>751.2</ele>
        <time>2019-08-06T16:34:48Z</time>
      </trkpt>
      <trkpt lat="48.8469460" lon="13.9121330">
        <ele>751.2</ele>
        <time>2019-08-06T16:34:49Z</time>
      </trkpt>
      <trkpt lat="48.8469310" lon="13.9121960">
        <ele>751.2</ele>
        <time>2019-08-06T16:34:50Z</time>
      </trkpt>
      <trkpt lat="48.8469190" lon="13.9122580">
        <ele>751.4</ele>
        <time>2019-08-06T16:34:51Z</time>
      </trkpt>
      <trkpt lat="48.8469070" lon="13.9123220">
        <ele>751.4</ele>
        <time>2019-08-06T16:34:52Z</time>
      </trkpt>
      <trkpt lat="48.8468940" lon="13.9123830">
        <ele>751.4</ele>
        <time>2019-08-06T16:34:53Z</time>
      </trkpt>
      <trkpt lat="48.8468800" lon="13.9124470">
        <ele>751.4</ele>
        <time>2019-08-06T16:34:54Z</time>
      </trkpt>
      <trkpt lat="48.8468630" lon="13.9125170">
        <ele>751.4</ele>
        <time>2019-08-06T16:34:55Z</time>
      </trkpt>
      <trkpt lat="48.8468450" lon="13.9125900">
        <ele>751.4</ele>
        <time>2019-08-06T16:34:56Z</time>
      </trkpt>
      <trkpt lat="48.8468260" lon="13.9126580">
        <ele>751.4</ele>
        <time>2019-08-06T16:34:57Z</time>
      </trkpt>
      <trkpt lat="48.8468090" lon="13.9127180">
        <ele>751.4</ele>
        <time>2019-08-06T16:34:58Z</time>
      </trkpt>
      <trkpt lat="48.8467940" lon="13.9127670">
        <ele>751.4</ele>
        <time>2019-08-06T16:34:59Z</time>
      </trkpt>
      <trkpt lat="48.8467820" lon="13.9128120">
        <ele>751.4</ele>
        <time>2019-08-06T16:35:00Z</time>
      </trkpt>
      <trkpt lat="48.8467720" lon="13.9128600">
        <ele>751.2</ele>
        <time>2019-08-06T16:35:01Z</time>
      </trkpt>
      <trkpt lat="48.8467610" lon="13.9129120">
        <ele>751.2</ele>
        <time>2019-08-06T16:35:02Z</time>
      </trkpt>
      <trkpt lat="48.8467460" lon="13.9129680">
        <ele>751.0</ele>
        <time>2019-08-06T16:35:03Z</time>
      </trkpt>
      <trkpt lat="48.8467310" lon="13.9130300">
        <ele>751.0</ele>
        <time>2019-08-06T16:35:04Z</time>
      </trkpt>
      <trkpt lat="48.8467200" lon="13.9131030">
        <ele>751.0</ele>
        <time>2019-08-06T16:35:05Z</time>
      </trkpt>
      <trkpt lat="48.8467110" lon="13.9131790">
        <ele>750.8</ele>
        <time>2019-08-06T16:35:06Z</time>
      </trkpt>
      <trkpt lat="48.8466960" lon="13.9132610">
        <ele>750.8</ele>
        <time>2019-08-06T16:35:07Z</time>
      </trkpt>
      <trkpt lat="48.8466800" lon="13.9133380">
        <ele>750.8</ele>
        <time>2019-08-06T16:35:08Z</time>
      </trkpt>
      <trkpt lat="48.8466650" lon="13.9134040">
        <ele>750.6</ele>
        <time>2019-08-06T16:35:09Z</time>
      </trkpt>
      <trkpt lat="48.8466480" lon="13.9134730">
        <ele>750.6</ele>
        <time>2019-08-06T16:35:10Z</time>
      </trkpt>
      <trkpt lat="48.8466280" lon="13.9135380">
        <ele>750.8</ele>
        <time>2019-08-06T16:35:11Z</time>
      </trkpt>
      <trkpt lat="48.8466060" lon="13.9135950">
        <ele>750.8</ele>
        <time>2019-08-06T16:35:12Z</time>
      </trkpt>
      <trkpt lat="48.8465780" lon="13.9136560">
        <ele>750.8</ele>
        <time>2019-08-06T16:35:13Z</time>
      </trkpt>
      <trkpt lat="48.8465520" lon="13.9137260">
        <ele>750.8</ele>
        <time>2019-08-06T16:35:14Z</time>
      </trkpt>
      <trkpt lat="48.8465140" lon="13.9138050">
        <ele>750.8</ele>
        <time>2019-08-06T16:35:15Z</time>
      </trkpt>
      <trkpt lat="48.8464710" lon="13.9138850">
        <ele>750.8</ele>
        <time>2019-08-06T16:35:16Z</time>
      </trkpt>
      <trkpt lat="48.8464290" lon="13.9139610">
        <ele>750.8</ele>
        <time>2019-08-06T16:35:17Z</time>
      </trkpt>
      <trkpt lat="48.8463910" lon="13.9140400">
        <ele>750.8</ele>
        <time>2019-08-06T16:35:18Z</time>
      </trkpt>
      <trkpt lat="48.8463530" lon="13.9141240">
        <ele>750.8</ele>
        <time>2019-08-06T16:35:19Z</time>
      </trkpt>
      <trkpt lat="48.8463070" lon="13.9142060">
        <ele>750.8</ele>
        <time>2019-08-06T16:35:20Z</time>
      </trkpt>
      <trkpt lat="48.8462550" lon="13.9142910">
        <ele>750.6</ele>
        <time>2019-08-06T16:35:21Z</time>
      </trkpt>
      <trkpt lat="48.8462130" lon="13.9143740">
        <ele>750.6</ele>
        <time>2019-08-06T16:35:22Z</time>
      </trkpt>
      <trkpt lat="48.8461720" lon="13.9144590">
        <ele>750.8</ele>
        <time>2019-08-06T16:35:23Z</time>
      </trkpt>
      <trkpt lat="48.8461310" lon="13.9145530">
        <ele>750.8</ele>
        <time>2019-08-06T16:35:24Z</time>
      </trkpt>
      <trkpt lat="48.8460970" lon="13.9146470">
        <ele>750.8</ele>
        <time>2019-08-06T16:35:25Z</time>
      </trkpt>
      <trkpt lat="48.8460700" lon="13.9147270">
        <ele>750.8</ele>
        <time>2019-08-06T16:35:26Z</time>
      </trkpt>
      <trkpt lat="48.8460400" lon="13.9147990">
        <ele>750.8</ele>
        <time>2019-08-06T16:35:27Z</time>
      </trkpt>
      <trkpt lat="48.8460100" lon="13.9148680">
        <ele>751.0</ele>
        <time>2019-08-06T16:35:28Z</time>
      </trkpt>
      <trkpt lat="48.8459780" lon="13.9149490">
        <ele>751.0</ele>
        <time>2019-08-06T16:35:29Z</time>
      </trkpt>
      <trkpt lat="48.8459470" lon="13.9150320">
        <ele>751.0</ele>
        <time>2019-08-06T16:35:30Z</time>
      </trkpt>
      <trkpt lat="48.8459140" lon="13.9151100">
        <ele>751.0</ele>
        <time>2019-08-06T16:35:31Z</time>
      </trkpt>
      <trkpt lat="48.8458820" lon="13.9151830">
        <ele>751.0</ele>
        <time>2019-08-06T16:35:32Z</time>
      </trkpt>
      <trkpt lat="48.8458490" lon="13.9152680">
        <ele>751.0</ele>
        <time>2019-08-06T16:35:33Z</time>
      </trkpt>
      <trkpt lat="48.8458170" lon="13.9153610">
        <ele>751.0</ele>
        <time>2019-08-06T16:35:34Z</time>
      </trkpt>
      <trkpt lat="48.8457840" lon="13.9154500">
        <ele>751.0</ele>
        <time>2019-08-06T16:35:35Z</time>
      </trkpt>
      <trkpt lat="48.8457510" lon="13.9155320">
        <ele>751.0</ele>
        <time>2019-08-06T16:35:36Z</time>
      </trkpt>
      <trkpt lat="48.8457170" lon="13.9156170">
        <ele>751.0</ele>
        <time>2019-08-06T16:35:37Z</time>
      </trkpt>
      <trkpt lat="48.8456860" lon="13.9157070">
        <ele>751.0</ele>
        <time>2019-08-06T16:35:38Z</time>
      </trkpt>
      <trkpt lat="48.8456610" lon="13.9157910">
        <ele>751.2</ele>
        <time>2019-08-06T16:35:39Z</time>
      </trkpt>
      <trkpt lat="48.8456340" lon="13.9158660">
        <ele>751.2</ele>
        <time>2019-08-06T16:35:40Z</time>
      </trkpt>
      <trkpt lat="48.8456070" lon="13.9159350">
        <ele>751.2</ele>
        <time>2019-08-06T16:35:41Z</time>
      </trkpt>
      <trkpt lat="48.8455730" lon="13.9160130">
        <ele>751.4</ele>
        <time>2019-08-06T16:35:42Z</time>
      </trkpt>
      <trkpt lat="48.8455330" lon="13.9160880">
        <ele>751.4</ele>
        <time>2019-08-06T16:35:43Z</time>
      </trkpt>
      <trkpt lat="48.8454870" lon="13.9161620">
        <ele>751.4</ele>
        <time>2019-08-06T16:35:44Z</time>
      </trkpt>
      <trkpt lat="48.8454430" lon="13.9162330">
        <ele>751.6</ele>
        <time>2019-08-06T16:35:45Z</time>
      </trkpt>
      <trkpt lat="48.8454010" lon="13.9163020">
        <ele>751.6</ele>
        <time>2019-08-06T16:35:46Z</time>
      </trkpt>
      <trkpt lat="48.8453610" lon="13.9163710">
        <ele>751.8</ele>
        <time>2019-08-06T16:35:47Z</time>
      </trkpt>
      <trkpt lat="48.8453240" lon="13.9164420">
        <ele>751.8</ele>
        <time>2019-08-06T16:35:48Z</time>
      </trkpt>
      <trkpt lat="48.8452830" lon="13.9165110">
        <ele>752.0</ele>
        <time>2019-08-06T16:35:49Z</time>
      </trkpt>
      <trkpt lat="48.8452370" lon="13.9165740">
        <ele>752.0</ele>
        <time>2019-08-06T16:35:50Z</time>
      </trkpt>
      <trkpt lat="48.8451930" lon="13.9166350">
        <ele>752.0</ele>
        <time>2019-08-06T16:35:51Z</time>
      </trkpt>
      <trkpt lat="48.8451500" lon="13.9166970">
        <ele>752.2</ele>
        <time>2019-08-06T16:35:52Z</time>
      </trkpt>
      <trkpt lat="48.8451030" lon="13.9167640">
        <ele>752.2</ele>
        <time>2019-08-06T16:35:53Z</time>
      </trkpt>
      <trkpt lat="48.8450540" lon="13.9168300">
        <ele>752.4</ele>
        <time>2019-08-06T16:35:54Z</time>
      </trkpt>
      <trkpt lat="48.8450060" lon="13.9168960">
        <ele>752.4</ele>
        <time>2019-08-06T16:35:55Z</time>
      </trkpt>
      <trkpt lat="48.8449600" lon="13.9169570">
        <ele>752.4</ele>
        <time>2019-08-06T16:35:56Z</time>
      </trkpt>
      <trkpt lat="48.8449200" lon="13.9170130">
        <ele>752.6</ele>
        <time>2019-08-06T16:35:57Z</time>
      </trkpt>
      <trkpt lat="48.8448790" lon="13.9170660">
        <ele>752.6</ele>
        <time>2019-08-06T16:35:58Z</time>
      </trkpt>
      <trkpt lat="48.8448400" lon="13.9171190">
        <ele>752.8</ele>
        <time>2019-08-06T16:35:59Z</time>
      </trkpt>
      <trkpt lat="48.8448040" lon="13.9171750">
        <ele>753.0</ele>
        <time>2019-08-06T16:36:00Z</time>
      </trkpt>
      <trkpt lat="48.8447670" lon="13.9172250">
        <ele>753.0</ele>
        <time>2019-08-06T16:36:01Z</time>
      </trkpt>
      <trkpt lat="48.8447330" lon="13.9172660">
        <ele>753.2</ele>
        <time>2019-08-06T16:36:02Z</time>
      </trkpt>
      <trkpt lat="48.8447000" lon="13.9173040">
        <ele>753.4</ele>
        <time>2019-08-06T16:36:03Z</time>
      </trkpt>
      <trkpt lat="48.8446650" lon="13.9173460">
        <ele>753.6</ele>
        <time>2019-08-06T16:36:04Z</time>
      </trkpt>
      <trkpt lat="48.8446350" lon="13.9173930">
        <ele>753.6</ele>
        <time>2019-08-06T16:36:05Z</time>
      </trkpt>
      <trkpt lat="48.8446070" lon="13.9174450">
        <ele>753.8</ele>
        <time>2019-08-06T16:36:06Z</time>
      </trkpt>
      <trkpt lat="48.8445750" lon="13.9174990">
        <ele>754.0</ele>
        <time>2019-08-06T16:36:07Z</time>
      </trkpt>
      <trkpt lat="48.8445420" lon="13.9175550">
        <ele>754.0</ele>
        <time>2019-08-06T16:36:08Z</time>
      </trkpt>
      <trkpt lat="48.8445120" lon="13.9176090">
        <ele>754.2</ele>
        <time>2019-08-06T16:36:09Z</time>
      </trkpt>
      <trkpt lat="48.8444770" lon="13.9176620">
        <ele>754.2</ele>
        <time>2019-08-06T16:36:10Z</time>
      </trkpt>
      <trkpt lat="48.8444420" lon="13.9177180">
        <ele>754.2</ele>
        <time>2019-08-06T16:36:11Z</time>
      </trkpt>
      <trkpt lat="48.8444030" lon="13.9177700">
        <ele>754.4</ele>
        <time>2019-08-06T16:36:12Z</time>
      </trkpt>
      <trkpt lat="48.8443680" lon="13.9178180">
        <ele>754.4</ele>
        <time>2019-08-06T16:36:13Z</time>
      </trkpt>
      <trkpt lat="48.8443340" lon="13.9178630">
        <ele>754.4</ele>
        <time>2019-08-06T16:36:14Z</time>
      </trkpt>
      <trkpt lat="48.8443000" lon="13.9179090">
        <ele>754.6</ele>
        <time>2019-08-06T16:36:15Z</time>
      </trkpt>
      <trkpt lat="48.8442650" lon="13.9179600">
        <ele>754.6</ele>
        <time>2019-08-06T16:36:16Z</time>
      </trkpt>
      <trkpt lat="48.8442230" lon="13.9180170">
        <ele>754.6</ele>
        <time>2019-08-06T16:36:17Z</time>
      </trkpt>
      <trkpt lat="48.8441810" lon="13.9180720">
        <ele>754.8</ele>
        <time>2019-08-06T16:36:18Z</time>
      </trkpt>
      <trkpt lat="48.8441500" lon="13.9181220">
        <ele>754.8</ele>
        <time>2019-08-06T16:36:19Z</time>
      </trkpt>
      <trkpt lat="48.8441170" lon="13.9181770">
        <ele>755.0</ele>
        <time>2019-08-06T16:36:20Z</time>
      </trkpt>
      <trkpt lat="48.8440830" lon="13.9182300">
        <ele>755.0</ele>
        <time>2019-08-06T16:36:21Z</time>
      </trkpt>
      <trkpt lat="48.8440520" lon="13.9182820">
        <ele>755.2</ele>
        <time>2019-08-06T16:36:22Z</time>
      </trkpt>
      <trkpt lat="48.8440200" lon="13.9183380">
        <ele>755.4</ele>
        <time>2019-08-06T16:36:23Z</time>
      </trkpt>
      <trkpt lat="48.8439880" lon="13.9183870">
        <ele>755.6</ele>
        <time>2019-08-06T16:36:24Z</time>
      </trkpt>
      <trkpt lat="48.8439580" lon="13.9184310">
        <ele>755.6</ele>
        <time>2019-08-06T16:36:25Z</time>
      </trkpt>
      <trkpt lat="48.8439310" lon="13.9184710">
        <ele>755.8</ele>
        <time>2019-08-06T16:36:26Z</time>
      </trkpt>
      <trkpt lat="48.8439050" lon="13.9185080">
        <ele>756.0</ele>
        <time>2019-08-06T16:36:27Z</time>
      </trkpt>
      <trkpt lat="48.8438790" lon="13.9185470">
        <ele>756.0</ele>
        <time>2019-08-06T16:36:28Z</time>
      </trkpt>
      <trkpt lat="48.8438540" lon="13.9185840">
        <ele>756.0</ele>
        <time>2019-08-06T16:36:29Z</time>
      </trkpt>
      <trkpt lat="48.8438270" lon="13.9186310">
        <ele>756.0</ele>
        <time>2019-08-06T16:36:30Z</time>
      </trkpt>
      <trkpt lat="48.8437960" lon="13.9186830">
        <ele>756.2</ele>
        <time>2019-08-06T16:36:31Z</time>
      </trkpt>
      <trkpt lat="48.8437640" lon="13.9187340">
        <ele>756.2</ele>
        <time>2019-08-06T16:36:32Z</time>
      </trkpt>
      <trkpt lat="48.8437330" lon="13.9187860">
        <ele>756.2</ele>
        <time>2019-08-06T16:36:33Z</time>
      </trkpt>
      <trkpt lat="48.8437030" lon="13.9188390">
        <ele>756.0</ele>
        <time>2019-08-06T16:36:34Z</time>
      </trkpt>
      <trkpt lat="48.8436700" lon="13.9188900">
        <ele>756.0</ele>
        <time>2019-08-06T16:36:35Z</time>
      </trkpt>
      <trkpt lat="48.8436360" lon="13.9189420">
        <ele>756.0</ele>
        <time>2019-08-06T16:36:36Z</time>
      </trkpt>
      <trkpt lat="48.8436050" lon="13.9189940">
        <ele>756.0</ele>
        <time>2019-08-06T16:36:37Z</time>
      </trkpt>
      <trkpt lat="48.8435750" lon="13.9190450">
        <ele>756.0</ele>
        <time>2019-08-06T16:36:38Z</time>
      </trkpt>
      <trkpt lat="48.8435450" lon="13.9190940">
        <ele>756.0</ele>
        <time>2019-08-06T16:36:39Z</time>
      </trkpt>
      <trkpt lat="48.8435150" lon="13.9191500">
        <ele>756.0</ele>
        <time>2019-08-06T16:36:40Z</time>
      </trkpt>
      <trkpt lat="48.8434850" lon="13.9192110">
        <ele>756.0</ele>
        <time>2019-08-06T16:36:41Z</time>
      </trkpt>
      <trkpt lat="48.8434510" lon="13.9192720">
        <ele>756.2</ele>
        <time>2019-08-06T16:36:42Z</time>
      </trkpt>
      <trkpt lat="48.8434140" lon="13.9193330">
        <ele>756.2</ele>
        <time>2019-08-06T16:36:43Z</time>
      </trkpt>
      <trkpt lat="48.8433750" lon="13.9193990">
        <ele>756.2</ele>
        <time>2019-08-06T16:36:44Z</time>
      </trkpt>
      <trkpt lat="48.8433340" lon="13.9194660">
        <ele>756.2</ele>
        <time>2019-08-06T16:36:45Z</time>
      </trkpt>
      <trkpt lat="48.8432920" lon="13.9195300">
        <ele>756.4</ele>
        <time>2019-08-06T16:36:46Z</time>
      </trkpt>
      <trkpt lat="48.8432540" lon="13.9195940">
        <ele>756.4</ele>
        <time>2019-08-06T16:36:47Z</time>
      </trkpt>
      <trkpt lat="48.8432170" lon="13.9196580">
        <ele>756.4</ele>
        <time>2019-08-06T16:36:48Z</time>
      </trkpt>
      <trkpt lat="48.8431850" lon="13.9197250">
        <ele>756.6</ele>
        <time>2019-08-06T16:36:49Z</time>
      </trkpt>
      <trkpt lat="48.8431560" lon="13.9197940">
        <ele>756.6</ele>
        <time>2019-08-06T16:36:50Z</time>
      </trkpt>
      <trkpt lat="48.8431250" lon="13.9198610">
        <ele>756.6</ele>
        <time>2019-08-06T16:36:51Z</time>
      </trkpt>
      <trkpt lat="48.8430920" lon="13.9199290">
        <ele>756.6</ele>
        <time>2019-08-06T16:36:52Z</time>
      </trkpt>
      <trkpt lat="48.8430610" lon="13.9199990">
        <ele>756.6</ele>
        <time>2019-08-06T16:36:53Z</time>
      </trkpt>
      <trkpt lat="48.8430290" lon="13.9200740">
        <ele>756.6</ele>
        <time>2019-08-06T16:36:54Z</time>
      </trkpt>
      <trkpt lat="48.8429990" lon="13.9201510">
        <ele>756.6</ele>
        <time>2019-08-06T16:36:55Z</time>
      </trkpt>
      <trkpt lat="48.8429710" lon="13.9202260">
        <ele>756.6</ele>
        <time>2019-08-06T16:36:56Z</time>
      </trkpt>
      <trkpt lat="48.8429460" lon="13.9203010">
        <ele>756.6</ele>
        <time>2019-08-06T16:36:57Z</time>
      </trkpt>
      <trkpt lat="48.8429200" lon="13.9203750">
        <ele>756.6</ele>
        <time>2019-08-06T16:36:58Z</time>
      </trkpt>
      <trkpt lat="48.8428880" lon="13.9204480">
        <ele>756.6</ele>
        <time>2019-08-06T16:36:59Z</time>
      </trkpt>
      <trkpt lat="48.8428550" lon="13.9205210">
        <ele>756.6</ele>
        <time>2019-08-06T16:37:00Z</time>
      </trkpt>
      <trkpt lat="48.8428220" lon="13.9205910">
        <ele>756.4</ele>
        <time>2019-08-06T16:37:01Z</time>
      </trkpt>
      <trkpt lat="48.8427910" lon="13.9206610">
        <ele>756.4</ele>
        <time>2019-08-06T16:37:02Z</time>
      </trkpt>
      <trkpt lat="48.8427590" lon="13.9207300">
        <ele>756.4</ele>
        <time>2019-08-06T16:37:03Z</time>
      </trkpt>
      <trkpt lat="48.8427260" lon="13.9207980">
        <ele>756.4</ele>
        <time>2019-08-06T16:37:04Z</time>
      </trkpt>
      <trkpt lat="48.8426940" lon="13.9208680">
        <ele>756.4</ele>
        <time>2019-08-06T16:37:05Z</time>
      </trkpt>
      <trkpt lat="48.8426620" lon="13.9209430">
        <ele>756.4</ele>
        <time>2019-08-06T16:37:06Z</time>
      </trkpt>
      <trkpt lat="48.8426310" lon="13.9210190">
        <ele>756.4</ele>
        <time>2019-08-06T16:37:07Z</time>
      </trkpt>
      <trkpt lat="48.8425980" lon="13.9210940">
        <ele>756.4</ele>
        <time>2019-08-06T16:37:08Z</time>
      </trkpt>
      <trkpt lat="48.8425680" lon="13.9211700">
        <ele>756.6</ele>
        <time>2019-08-06T16:37:09Z</time>
      </trkpt>
      <trkpt lat="48.8425410" lon="13.9212520">
        <ele>756.4</ele>
        <time>2019-08-06T16:37:10Z</time>
      </trkpt>
      <trkpt lat="48.8425140" lon="13.9213340">
        <ele>756.4</ele>
        <time>2019-08-06T16:37:11Z</time>
      </trkpt>
      <trkpt lat="48.8424900" lon="13.9214170">
        <ele>756.4</ele>
        <time>2019-08-06T16:37:12Z</time>
      </trkpt>
      <trkpt lat="48.8424710" lon="13.9214970">
        <ele>756.4</ele>
        <time>2019-08-06T16:37:13Z</time>
      </trkpt>
      <trkpt lat="48.8424520" lon="13.9215790">
        <ele>756.2</ele>
        <time>2019-08-06T16:37:14Z</time>
      </trkpt>
      <trkpt lat="48.8424300" lon="13.9216730">
        <ele>756.0</ele>
        <time>2019-08-06T16:37:15Z</time>
      </trkpt>
      <trkpt lat="48.8424040" lon="13.9217770">
        <ele>755.8</ele>
        <time>2019-08-06T16:37:16Z</time>
      </trkpt>
      <trkpt lat="48.8423760" lon="13.9218850">
        <ele>755.6</ele>
        <time>2019-08-06T16:37:17Z</time>
      </trkpt>
      <trkpt lat="48.8423500" lon="13.9219990">
        <ele>755.4</ele>
        <time>2019-08-06T16:37:18Z</time>
      </trkpt>
      <trkpt lat="48.8423220" lon="13.9221130">
        <ele>755.4</ele>
        <time>2019-08-06T16:37:19Z</time>
      </trkpt>
      <trkpt lat="48.8422920" lon="13.9222260">
        <ele>755.2</ele>
        <time>2019-08-06T16:37:20Z</time>
      </trkpt>
      <trkpt lat="48.8422590" lon="13.9223390">
        <ele>755.0</ele>
        <time>2019-08-06T16:37:21Z</time>
      </trkpt>
      <trkpt lat="48.8422230" lon="13.9224470">
        <ele>755.0</ele>
        <time>2019-08-06T16:37:22Z</time>
      </trkpt>
      <trkpt lat="48.8421840" lon="13.9225510">
        <ele>755.0</ele>
        <time>2019-08-06T16:37:23Z</time>
      </trkpt>
      <trkpt lat="48.8421440" lon="13.9226500">
        <ele>755.0</ele>
        <time>2019-08-06T16:37:24Z</time>
      </trkpt>
      <trkpt lat="48.8421040" lon="13.9227430">
        <ele>755.0</ele>
        <time>2019-08-06T16:37:25Z</time>
      </trkpt>
      <trkpt lat="48.8420610" lon="13.9228320">
        <ele>754.8</ele>
        <time>2019-08-06T16:37:26Z</time>
      </trkpt>
      <trkpt lat="48.8420190" lon="13.9229170">
        <ele>754.8</ele>
        <time>2019-08-06T16:37:27Z</time>
      </trkpt>
      <trkpt lat="48.8419760" lon="13.9229970">
        <ele>754.6</ele>
        <time>2019-08-06T16:37:28Z</time>
      </trkpt>
      <trkpt lat="48.8419330" lon="13.9230740">
        <ele>754.6</ele>
        <time>2019-08-06T16:37:29Z</time>
      </trkpt>
      <trkpt lat="48.8418870" lon="13.9231470">
        <ele>754.4</ele>
        <time>2019-08-06T16:37:30Z</time>
      </trkpt>
      <trkpt lat="48.8418410" lon="13.9232160">
        <ele>754.4</ele>
        <time>2019-08-06T16:37:31Z</time>
      </trkpt>
      <trkpt lat="48.8417930" lon="13.9232840">
        <ele>754.2</ele>
        <time>2019-08-06T16:37:32Z</time>
      </trkpt>
      <trkpt lat="48.8417450" lon="13.9233510">
        <ele>754.2</ele>
        <time>2019-08-06T16:37:33Z</time>
      </trkpt>
      <trkpt lat="48.8416970" lon="13.9234190">
        <ele>754.0</ele>
        <time>2019-08-06T16:37:34Z</time>
      </trkpt>
      <trkpt lat="48.8416500" lon="13.9234900">
        <ele>753.6</ele>
        <time>2019-08-06T16:37:35Z</time>
      </trkpt>
      <trkpt lat="48.8415990" lon="13.9235620">
        <ele>753.4</ele>
        <time>2019-08-06T16:37:36Z</time>
      </trkpt>
      <trkpt lat="48.8415450" lon="13.9236380">
        <ele>753.2</ele>
        <time>2019-08-06T16:37:37Z</time>
      </trkpt>
      <trkpt lat="48.8414850" lon="13.9237130">
        <ele>752.8</ele>
        <time>2019-08-06T16:37:38Z</time>
      </trkpt>
      <trkpt lat="48.8414240" lon="13.9237860">
        <ele>752.4</ele>
        <time>2019-08-06T16:37:39Z</time>
      </trkpt>
      <trkpt lat="48.8413660" lon="13.9238590">
        <ele>752.2</ele>
        <time>2019-08-06T16:37:40Z</time>
      </trkpt>
      <trkpt lat="48.8413100" lon="13.9239320">
        <ele>752.0</ele>
        <time>2019-08-06T16:37:41Z</time>
      </trkpt>
      <trkpt lat="48.8412540" lon="13.9240070">
        <ele>751.8</ele>
        <time>2019-08-06T16:37:42Z</time>
      </trkpt>
      <trkpt lat="48.8411980" lon="13.9240800">
        <ele>751.6</ele>
        <time>2019-08-06T16:37:43Z</time>
      </trkpt>
      <trkpt lat="48.8411450" lon="13.9241420">
        <ele>751.4</ele>
        <time>2019-08-06T16:37:44Z</time>
      </trkpt>
      <trkpt lat="48.8410910" lon="13.9241910">
        <ele>751.4</ele>
        <time>2019-08-06T16:37:45Z</time>
      </trkpt>
      <trkpt lat="48.8410380" lon="13.9242410">
        <ele>751.4</ele>
        <time>2019-08-06T16:37:46Z</time>
      </trkpt>
      <trkpt lat="48.8409890" lon="13.9242960">
        <ele>751.2</ele>
        <time>2019-08-06T16:37:47Z</time>
      </trkpt>
      <trkpt lat="48.8409380" lon="13.9243530">
        <ele>751.0</ele>
        <time>2019-08-06T16:37:48Z</time>
      </trkpt>
      <trkpt lat="48.8408870" lon="13.9244080">
        <ele>751.0</ele>
        <time>2019-08-06T16:37:49Z</time>
      </trkpt>
      <trkpt lat="48.8408360" lon="13.9244660">
        <ele>750.8</ele>
        <time>2019-08-06T16:37:50Z</time>
      </trkpt>
      <trkpt lat="48.8407850" lon="13.9245270">
        <ele>750.6</ele>
        <time>2019-08-06T16:37:51Z</time>
      </trkpt>
      <trkpt lat="48.8407360" lon="13.9245940">
        <ele>750.6</ele>
        <time>2019-08-06T16:37:52Z</time>
      </trkpt>
      <trkpt lat="48.8406860" lon="13.9246690">
        <ele>750.4</ele>
        <time>2019-08-06T16:37:53Z</time>
      </trkpt>
      <trkpt lat="48.8406340" lon="13.9247450">
        <ele>750.2</ele>
        <time>2019-08-06T16:37:54Z</time>
      </trkpt>
      <trkpt lat="48.8405820" lon="13.9248190">
        <ele>750.2</ele>
        <time>2019-08-06T16:37:55Z</time>
      </trkpt>
      <trkpt lat="48.8405290" lon="13.9248920">
        <ele>750.2</ele>
        <time>2019-08-06T16:37:56Z</time>
      </trkpt>
      <trkpt lat="48.8404770" lon="13.9249650">
        <ele>750.2</ele>
        <time>2019-08-06T16:37:57Z</time>
      </trkpt>
      <trkpt lat="48.8404280" lon="13.9250370">
        <ele>750.0</ele>
        <time>2019-08-06T16:37:58Z</time>
      </trkpt>
      <trkpt lat="48.8403800" lon="13.9251040">
        <ele>750.0</ele>
        <time>2019-08-06T16:37:59Z</time>
      </trkpt>
      <trkpt lat="48.8403300" lon="13.9251680">
        <ele>749.8</ele>
        <time>2019-08-06T16:38:00Z</time>
      </trkpt>
      <trkpt lat="48.8402810" lon="13.9252340">
        <ele>749.8</ele>
        <time>2019-08-06T16:38:01Z</time>
      </trkpt>
      <trkpt lat="48.8402340" lon="13.9252960">
        <ele>749.8</ele>
        <time>2019-08-06T16:38:02Z</time>
      </trkpt>
      <trkpt lat="48.8401880" lon="13.9253580">
        <ele>749.8</ele>
        <time>2019-08-06T16:38:03Z</time>
      </trkpt>
      <trkpt lat="48.8401420" lon="13.9254170">
        <ele>749.8</ele>
        <time>2019-08-06T16:38:04Z</time>
      </trkpt>
      <trkpt lat="48.8400960" lon="13.9254720">
        <ele>749.8</ele>
        <time>2019-08-06T16:38:05Z</time>
      </trkpt>
      <trkpt lat="48.8400510" lon="13.9255270">
        <ele>749.8</ele>
        <time>2019-08-06T16:38:06Z</time>
      </trkpt>
      <trkpt lat="48.8400060" lon="13.9255820">
        <ele>749.8</ele>
        <time>2019-08-06T16:38:07Z</time>
      </trkpt>
      <trkpt lat="48.8399630" lon="13.9256360">
        <ele>750.0</ele>
        <time>2019-08-06T16:38:08Z</time>
      </trkpt>
      <trkpt lat="48.8399170" lon="13.9256910">
        <ele>750.0</ele>
        <time>2019-08-06T16:38:09Z</time>
      </trkpt>
      <trkpt lat="48.8398670" lon="13.9257440">
        <ele>750.0</ele>
        <time>2019-08-06T16:38:10Z</time>
      </trkpt>
      <trkpt lat="48.8398160" lon="13.9257980">
        <ele>750.0</ele>
        <time>2019-08-06T16:38:11Z</time>
      </trkpt>
      <trkpt lat="48.8397630" lon="13.9258510">
        <ele>750.0</ele>
        <time>2019-08-06T16:38:12Z</time>
      </trkpt>
      <trkpt lat="48.8397120" lon="13.9259030">
        <ele>750.0</ele>
        <time>2019-08-06T16:38:13Z</time>
      </trkpt>
      <trkpt lat="48.8396640" lon="13.9259590">
        <ele>749.8</ele>
        <time>2019-08-06T16:38:14Z</time>
      </trkpt>
      <trkpt lat="48.8396210" lon="13.9260170">
        <ele>749.8</ele>
        <time>2019-08-06T16:38:15Z</time>
      </trkpt>
      <trkpt lat="48.8395750" lon="13.9260770">
        <ele>750.0</ele>
        <time>2019-08-06T16:38:16Z</time>
      </trkpt>
      <trkpt lat="48.8395290" lon="13.9261360">
        <ele>750.0</ele>
        <time>2019-08-06T16:38:17Z</time>
      </trkpt>
      <trkpt lat="48.8394840" lon="13.9261940">
        <ele>750.0</ele>
        <time>2019-08-06T16:38:18Z</time>
      </trkpt>
      <trkpt lat="48.8394360" lon="13.9262510">
        <ele>750.0</ele>
        <time>2019-08-06T16:38:19Z</time>
      </trkpt>
      <trkpt lat="48.8393870" lon="13.9263070">
        <ele>750.0</ele>
        <time>2019-08-06T16:38:20Z</time>
      </trkpt>
      <trkpt lat="48.8393360" lon="13.9263630">
        <ele>750.2</ele>
        <time>2019-08-06T16:38:21Z</time>
      </trkpt>
      <trkpt lat="48.8392880" lon="13.9264150">
        <ele>750.2</ele>
        <time>2019-08-06T16:38:22Z</time>
      </trkpt>
      <trkpt lat="48.8392400" lon="13.9264610">
        <ele>750.2</ele>
        <time>2019-08-06T16:38:23Z</time>
      </trkpt>
      <trkpt lat="48.8391900" lon="13.9265070">
        <ele>750.4</ele>
        <time>2019-08-06T16:38:24Z</time>
      </trkpt>
      <trkpt lat="48.8391450" lon="13.9265560">
        <ele>750.4</ele>
        <time>2019-08-06T16:38:25Z</time>
      </trkpt>
      <trkpt lat="48.8391030" lon="13.9266080">
        <ele>750.4</ele>
        <time>2019-08-06T16:38:26Z</time>
      </trkpt>
      <trkpt lat="48.8390600" lon="13.9266640">
        <ele>750.4</ele>
        <time>2019-08-06T16:38:27Z</time>
      </trkpt>
      <trkpt lat="48.8390140" lon="13.9267200">
        <ele>750.4</ele>
        <time>2019-08-06T16:38:28Z</time>
      </trkpt>
      <trkpt lat="48.8389650" lon="13.9267760">
        <ele>750.6</ele>
        <time>2019-08-06T16:38:29Z</time>
      </trkpt>
      <trkpt lat="48.8389150" lon="13.9268340">
        <ele>750.6</ele>
        <time>2019-08-06T16:38:30Z</time>
      </trkpt>
      <trkpt lat="48.8388560" lon="13.9268880">
        <ele>750.4</ele>
        <time>2019-08-06T16:38:31Z</time>
      </trkpt>
      <trkpt lat="48.8388010" lon="13.9269450">
        <ele>750.4</ele>
        <time>2019-08-06T16:38:32Z</time>
      </trkpt>
      <trkpt lat="48.8387540" lon="13.9270080">
        <ele>750.4</ele>
        <time>2019-08-06T16:38:33Z</time>
      </trkpt>
      <trkpt lat="48.8387060" lon="13.9270690">
        <ele>750.4</ele>
        <time>2019-08-06T16:38:34Z</time>
      </trkpt>
      <trkpt lat="48.8386590" lon="13.9271230">
        <ele>750.4</ele>
        <time>2019-08-06T16:38:35Z</time>
      </trkpt>
      <trkpt lat="48.8386150" lon="13.9271750">
        <ele>750.4</ele>
        <time>2019-08-06T16:38:36Z</time>
      </trkpt>
      <trkpt lat="48.8385750" lon="13.9272280">
        <ele>750.4</ele>
        <time>2019-08-06T16:38:37Z</time>
      </trkpt>
      <trkpt lat="48.8385360" lon="13.9272810">
        <ele>750.6</ele>
        <time>2019-08-06T16:38:38Z</time>
      </trkpt>
      <trkpt lat="48.8385000" lon="13.9273280">
        <ele>750.6</ele>
        <time>2019-08-06T16:38:39Z</time>
      </trkpt>
      <trkpt lat="48.8384650" lon="13.9273730">
        <ele>750.8</ele>
        <time>2019-08-06T16:38:40Z</time>
      </trkpt>
      <trkpt lat="48.8384270" lon="13.9274190">
        <ele>750.8</ele>
        <time>2019-08-06T16:38:41Z</time>
      </trkpt>
      <trkpt lat="48.8383880" lon="13.9274670">
        <ele>750.8</ele>
        <time>2019-08-06T16:38:42Z</time>
      </trkpt>
      <trkpt lat="48.8383470" lon="13.9275160">
        <ele>751.0</ele>
        <time>2019-08-06T16:38:43Z</time>
      </trkpt>
      <trkpt lat="48.8383070" lon="13.9275650">
        <ele>751.0</ele>
        <time>2019-08-06T16:38:44Z</time>
      </trkpt>
      <trkpt lat="48.8382660" lon="13.9276130">
        <ele>751.0</ele>
        <time>2019-08-06T16:38:45Z</time>
      </trkpt>
      <trkpt lat="48.8382210" lon="13.9276560">
        <ele>751.2</ele>
        <time>2019-08-06T16:38:46Z</time>
      </trkpt>
      <trkpt lat="48.8381720" lon="13.9277000">
        <ele>751.2</ele>
        <time>2019-08-06T16:38:47Z</time>
      </trkpt>
      <trkpt lat="48.8381220" lon="13.9277460">
        <ele>751.2</ele>
        <time>2019-08-06T16:38:48Z</time>
      </trkpt>
      <trkpt lat="48.8380720" lon="13.9277940">
        <ele>751.2</ele>
        <time>2019-08-06T16:38:49Z</time>
      </trkpt>
      <trkpt lat="48.8380220" lon="13.9278420">
        <ele>751.2</ele>
        <time>2019-08-06T16:38:50Z</time>
      </trkpt>
      <trkpt lat="48.8379720" lon="13.9278910">
        <ele>751.2</ele>
        <time>2019-08-06T16:38:51Z</time>
      </trkpt>
      <trkpt lat="48.8379220" lon="13.9279380">
        <ele>751.4</ele>
        <time>2019-08-06T16:38:52Z</time>
      </trkpt>
      <trkpt lat="48.8378740" lon="13.9279840">
        <ele>751.4</ele>
        <time>2019-08-06T16:38:53Z</time>
      </trkpt>
      <trkpt lat="48.8378300" lon="13.9280330">
        <ele>751.4</ele>
        <time>2019-08-06T16:38:54Z</time>
      </trkpt>
      <trkpt lat="48.8377850" lon="13.9280840">
        <ele>751.4</ele>
        <time>2019-08-06T16:38:55Z</time>
      </trkpt>
      <trkpt lat="48.8377400" lon="13.9281360">
        <ele>751.4</ele>
        <time>2019-08-06T16:38:56Z</time>
      </trkpt>
      <trkpt lat="48.8376940" lon="13.9281890">
        <ele>751.6</ele>
        <time>2019-08-06T16:38:57Z</time>
      </trkpt>
      <trkpt lat="48.8376470" lon="13.9282410">
        <ele>751.6</ele>
        <time>2019-08-06T16:38:58Z</time>
      </trkpt>
      <trkpt lat="48.8376020" lon="13.9282890">
        <ele>751.6</ele>
        <time>2019-08-06T16:38:59Z</time>
      </trkpt>
      <trkpt lat="48.8375560" lon="13.9283360">
        <ele>751.6</ele>
        <time>2019-08-06T16:39:00Z</time>
      </trkpt>
      <trkpt lat="48.8375100" lon="13.9283850">
        <ele>751.8</ele>
        <time>2019-08-06T16:39:01Z</time>
      </trkpt>
      <trkpt lat="48.8374660" lon="13.9284320">
        <ele>751.8</ele>
        <time>2019-08-06T16:39:02Z</time>
      </trkpt>
      <trkpt lat="48.8374210" lon="13.9284790">
        <ele>751.8</ele>
        <time>2019-08-06T16:39:03Z</time>
      </trkpt>
      <trkpt lat="48.8373770" lon="13.9285260">
        <ele>752.0</ele>
        <time>2019-08-06T16:39:04Z</time>
      </trkpt>
      <trkpt lat="48.8373310" lon="13.9285700">
        <ele>752.0</ele>
        <time>2019-08-06T16:39:05Z</time>
      </trkpt>
      <trkpt lat="48.8372830" lon="13.9286130">
        <ele>752.0</ele>
        <time>2019-08-06T16:39:06Z</time>
      </trkpt>
      <trkpt lat="48.8372370" lon="13.9286540">
        <ele>752.0</ele>
        <time>2019-08-06T16:39:07Z</time>
      </trkpt>
      <trkpt lat="48.8371920" lon="13.9286970">
        <ele>752.0</ele>
        <time>2019-08-06T16:39:08Z</time>
      </trkpt>
      <trkpt lat="48.8371470" lon="13.9287410">
        <ele>752.2</ele>
        <time>2019-08-06T16:39:09Z</time>
      </trkpt>
      <trkpt lat="48.8371030" lon="13.9287860">
        <ele>752.2</ele>
        <time>2019-08-06T16:39:10Z</time>
      </trkpt>
      <trkpt lat="48.8370600" lon="13.9288290">
        <ele>752.2</ele>
        <time>2019-08-06T16:39:11Z</time>
      </trkpt>
      <trkpt lat="48.8370180" lon="13.9288720">
        <ele>752.2</ele>
        <time>2019-08-06T16:39:12Z</time>
      </trkpt>
      <trkpt lat="48.8369750" lon="13.9289140">
        <ele>752.2</ele>
        <time>2019-08-06T16:39:13Z</time>
      </trkpt>
      <trkpt lat="48.8369290" lon="13.9289540">
        <ele>752.2</ele>
        <time>2019-08-06T16:39:14Z</time>
      </trkpt>
      <trkpt lat="48.8368840" lon="13.9289930">
        <ele>752.4</ele>
        <time>2019-08-06T16:39:15Z</time>
      </trkpt>
      <trkpt lat="48.8368410" lon="13.9290340">
        <ele>752.4</ele>
        <time>2019-08-06T16:39:16Z</time>
      </trkpt>
      <trkpt lat="48.8367980" lon="13.9290770">
        <ele>752.4</ele>
        <time>2019-08-06T16:39:17Z</time>
      </trkpt>
      <trkpt lat="48.8367560" lon="13.9291190">
        <ele>752.4</ele>
        <time>2019-08-06T16:39:18Z</time>
      </trkpt>
      <trkpt lat="48.8367120" lon="13.9291570">
        <ele>752.4</ele>
        <time>2019-08-06T16:39:19Z</time>
      </trkpt>
      <trkpt lat="48.8366670" lon="13.9291930">
        <ele>752.4</ele>
        <time>2019-08-06T16:39:20Z</time>
      </trkpt>
      <trkpt lat="48.8366220" lon="13.9292320">
        <ele>752.4</ele>
        <time>2019-08-06T16:39:21Z</time>
      </trkpt>
      <trkpt lat="48.8365790" lon="13.9292750">
        <ele>752.4</ele>
        <time>2019-08-06T16:39:22Z</time>
      </trkpt>
      <trkpt lat="48.8365360" lon="13.9293190">
        <ele>752.4</ele>
        <time>2019-08-06T16:39:23Z</time>
      </trkpt>
      <trkpt lat="48.8364920" lon="13.9293600">
        <ele>752.4</ele>
        <time>2019-08-06T16:39:24Z</time>
      </trkpt>
      <trkpt lat="48.8364470" lon="13.9293990">
        <ele>752.4</ele>
        <time>2019-08-06T16:39:25Z</time>
      </trkpt>
      <trkpt lat="48.8363980" lon="13.9294360">
        <ele>752.4</ele>
        <time>2019-08-06T16:39:26Z</time>
      </trkpt>
      <trkpt lat="48.8363500" lon="13.9294760">
        <ele>752.4</ele>
        <time>2019-08-06T16:39:27Z</time>
      </trkpt>
      <trkpt lat="48.8363060" lon="13.9295200">
        <ele>752.4</ele>
        <time>2019-08-06T16:39:28Z</time>
      </trkpt>
      <trkpt lat="48.8362650" lon="13.9295680">
        <ele>752.2</ele>
        <time>2019-08-06T16:39:29Z</time>
      </trkpt>
      <trkpt lat="48.8362250" lon="13.9296180">
        <ele>752.2</ele>
        <time>2019-08-06T16:39:30Z</time>
      </trkpt>
      <trkpt lat="48.8361830" lon="13.9296650">
        <ele>752.0</ele>
        <time>2019-08-06T16:39:31Z</time>
      </trkpt>
      <trkpt lat="48.8361370" lon="13.9297060">
        <ele>752.0</ele>
        <time>2019-08-06T16:39:32Z</time>
      </trkpt>
      <trkpt lat="48.8360850" lon="13.9297530">
        <ele>751.8</ele>
        <time>2019-08-06T16:39:33Z</time>
      </trkpt>
      <trkpt lat="48.8360330" lon="13.9298020">
        <ele>751.6</ele>
        <time>2019-08-06T16:39:34Z</time>
      </trkpt>
      <trkpt lat="48.8359810" lon="13.9298530">
        <ele>751.6</ele>
        <time>2019-08-06T16:39:35Z</time>
      </trkpt>
      <trkpt lat="48.8359260" lon="13.9299070">
        <ele>751.4</ele>
        <time>2019-08-06T16:39:36Z</time>
      </trkpt>
      <trkpt lat="48.8358680" lon="13.9299650">
        <ele>751.2</ele>
        <time>2019-08-06T16:39:37Z</time>
      </trkpt>
      <trkpt lat="48.8358080" lon="13.9300250">
        <ele>751.0</ele>
        <time>2019-08-06T16:39:38Z</time>
      </trkpt>
      <trkpt lat="48.8357520" lon="13.9300850">
        <ele>750.8</ele>
        <time>2019-08-06T16:39:39Z</time>
      </trkpt>
      <trkpt lat="48.8356970" lon="13.9301510">
        <ele>750.6</ele>
        <time>2019-08-06T16:39:40Z</time>
      </trkpt>
      <trkpt lat="48.8356400" lon="13.9302200">
        <ele>750.2</ele>
        <time>2019-08-06T16:39:41Z</time>
      </trkpt>
      <trkpt lat="48.8355830" lon="13.9302900">
        <ele>750.0</ele>
        <time>2019-08-06T16:39:42Z</time>
      </trkpt>
      <trkpt lat="48.8355260" lon="13.9303610">
        <ele>749.8</ele>
        <time>2019-08-06T16:39:43Z</time>
      </trkpt>
      <trkpt lat="48.8354670" lon="13.9304270">
        <ele>749.6</ele>
        <time>2019-08-06T16:39:44Z</time>
      </trkpt>
      <trkpt lat="48.8354060" lon="13.9304930">
        <ele>749.4</ele>
        <time>2019-08-06T16:39:45Z</time>
      </trkpt>
      <trkpt lat="48.8353460" lon="13.9305550">
        <ele>749.0</ele>
        <time>2019-08-06T16:39:46Z</time>
      </trkpt>
      <trkpt lat="48.8352890" lon="13.9306130">
        <ele>748.8</ele>
        <time>2019-08-06T16:39:47Z</time>
      </trkpt>
      <trkpt lat="48.8352290" lon="13.9306690">
        <ele>748.4</ele>
        <time>2019-08-06T16:39:48Z</time>
      </trkpt>
      <trkpt lat="48.8351710" lon="13.9307140">
        <ele>748.2</ele>
        <time>2019-08-06T16:39:49Z</time>
      </trkpt>
      <trkpt lat="48.8351260" lon="13.9307430">
        <ele>748.0</ele>
        <time>2019-08-06T16:39:50Z</time>
      </trkpt>
      <trkpt lat="48.8350990" lon="13.9307630">
        <ele>747.8</ele>
        <time>2019-08-06T16:39:51Z</time>
      </trkpt>
      <trkpt lat="48.8350840" lon="13.9307730">
        <ele>747.6</ele>
        <time>2019-08-06T16:39:52Z</time>
      </trkpt>
      <trkpt lat="48.8350780" lon="13.9307770">
        <ele>747.4</ele>
        <time>2019-08-06T16:39:53Z</time>
      </trkpt>
      <trkpt lat="48.8350760" lon="13.9307790">
        <ele>747.2</ele>
        <time>2019-08-06T16:39:54Z</time>
      </trkpt>
      <trkpt lat="48.8350750" lon="13.9307800">
        <ele>747.2</ele>
        <time>2019-08-06T16:39:55Z</time>
      </trkpt>
      <trkpt lat="48.8350750" lon="13.9307800">
        <ele>747.2</ele>
        <time>2019-08-06T16:39:56Z</time>
      </trkpt>
      <trkpt lat="48.8350750" lon="13.9307800">
        <ele>746.8</ele>
        <time>2019-08-06T16:41:14Z</time>
      </trkpt>
      <trkpt lat="48.8350570" lon="13.9307960">
        <ele>746.8</ele>
        <time>2019-08-06T16:41:15Z</time>
      </trkpt>
      <trkpt lat="48.8350300" lon="13.9308120">
        <ele>746.8</ele>
        <time>2019-08-06T16:41:16Z</time>
      </trkpt>
      <trkpt lat="48.8349990" lon="13.9308250">
        <ele>746.8</ele>
        <time>2019-08-06T16:41:17Z</time>
      </trkpt>
      <trkpt lat="48.8349680" lon="13.9308430">
        <ele>746.8</ele>
        <time>2019-08-06T16:41:18Z</time>
      </trkpt>
      <trkpt lat="48.8349370" lon="13.9308650">
        <ele>746.8</ele>
        <time>2019-08-06T16:41:19Z</time>
      </trkpt>
      <trkpt lat="48.8349030" lon="13.9308850">
        <ele>746.8</ele>
        <time>2019-08-06T16:41:20Z</time>
      </trkpt>
      <trkpt lat="48.8348690" lon="13.9309030">
        <ele>746.8</ele>
        <time>2019-08-06T16:41:21Z</time>
      </trkpt>
      <trkpt lat="48.8348310" lon="13.9309190">
        <ele>746.8</ele>
        <time>2019-08-06T16:41:22Z</time>
      </trkpt>
      <trkpt lat="48.8347930" lon="13.9309370">
        <ele>746.8</ele>
        <time>2019-08-06T16:41:23Z</time>
      </trkpt>
      <trkpt lat="48.8347520" lon="13.9309570">
        <ele>746.8</ele>
        <time>2019-08-06T16:41:24Z</time>
      </trkpt>
      <trkpt lat="48.8347120" lon="13.9309780">
        <ele>746.8</ele>
        <time>2019-08-06T16:41:25Z</time>
      </trkpt>
      <trkpt lat="48.8346690" lon="13.9310030">
        <ele>746.8</ele>
        <time>2019-08-06T16:41:26Z</time>
      </trkpt>
      <trkpt lat="48.8346240" lon="13.9310260">
        <ele>746.8</ele>
        <time>2019-08-06T16:41:27Z</time>
      </trkpt>
      <trkpt lat="48.8345810" lon="13.9310500">
        <ele>746.8</ele>
        <time>2019-08-06T16:41:28Z</time>
      </trkpt>
      <trkpt lat="48.8345360" lon="13.9310720">
        <ele>746.8</ele>
        <time>2019-08-06T16:41:29Z</time>
      </trkpt>
      <trkpt lat="48.8344910" lon="13.9310940">
        <ele>746.8</ele>
        <time>2019-08-06T16:41:30Z</time>
      </trkpt>
      <trkpt lat="48.8344450" lon="13.9311140">
        <ele>746.8</ele>
        <time>2019-08-06T16:41:31Z</time>
      </trkpt>
      <trkpt lat="48.8343970" lon="13.9311320">
        <ele>746.8</ele>
        <time>2019-08-06T16:41:32Z</time>
      </trkpt>
      <trkpt lat="48.8343510" lon="13.9311540">
        <ele>746.8</ele>
        <time>2019-08-06T16:41:33Z</time>
      </trkpt>
      <trkpt lat="48.8343040" lon="13.9311770">
        <ele>746.8</ele>
        <time>2019-08-06T16:41:34Z</time>
      </trkpt>
      <trkpt lat="48.8342560" lon="13.9312010">
        <ele>746.8</ele>
        <time>2019-08-06T16:41:35Z</time>
      </trkpt>
      <trkpt lat="48.8342080" lon="13.9312200">
        <ele>746.8</ele>
        <time>2019-08-06T16:41:36Z</time>
      </trkpt>
      <trkpt lat="48.8341580" lon="13.9312380">
        <ele>746.8</ele>
        <time>2019-08-06T16:41:37Z</time>
      </trkpt>
      <trkpt lat="48.8341080" lon="13.9312540">
        <ele>746.8</ele>
        <time>2019-08-06T16:41:38Z</time>
      </trkpt>
      <trkpt lat="48.8340590" lon="13.9312680">
        <ele>747.0</ele>
        <time>2019-08-06T16:41:39Z</time>
      </trkpt>
      <trkpt lat="48.8340110" lon="13.9312790">
        <ele>747.0</ele>
        <time>2019-08-06T16:41:40Z</time>
      </trkpt>
      <trkpt lat="48.8339640" lon="13.9312870">
        <ele>747.0</ele>
        <time>2019-08-06T16:41:41Z</time>
      </trkpt>
      <trkpt lat="48.8339170" lon="13.9312890">
        <ele>746.8</ele>
        <time>2019-08-06T16:41:42Z</time>
      </trkpt>
      <trkpt lat="48.8338680" lon="13.9312870">
        <ele>746.8</ele>
        <time>2019-08-06T16:41:43Z</time>
      </trkpt>
      <trkpt lat="48.8338210" lon="13.9312810">
        <ele>746.8</ele>
        <time>2019-08-06T16:41:44Z</time>
      </trkpt>
      <trkpt lat="48.8337790" lon="13.9312720">
        <ele>746.8</ele>
        <time>2019-08-06T16:41:45Z</time>
      </trkpt>
      <trkpt lat="48.8337340" lon="13.9312580">
        <ele>746.8</ele>
        <time>2019-08-06T16:41:46Z</time>
      </trkpt>
      <trkpt lat="48.8336850" lon="13.9312440">
        <ele>746.8</ele>
        <time>2019-08-06T16:41:47Z</time>
      </trkpt>
      <trkpt lat="48.8336340" lon="13.9312300">
        <ele>746.8</ele>
        <time>2019-08-06T16:41:48Z</time>
      </trkpt>
      <trkpt lat="48.8335830" lon="13.9312200">
        <ele>746.8</ele>
        <time>2019-08-06T16:41:49Z</time>
      </trkpt>
      <trkpt lat="48.8335320" lon="13.9312120">
        <ele>746.8</ele>
        <time>2019-08-06T16:41:50Z</time>
      </trkpt>
      <trkpt lat="48.8334840" lon="13.9312070">
        <ele>746.8</ele>
        <time>2019-08-06T16:41:51Z</time>
      </trkpt>
      <trkpt lat="48.8334410" lon="13.9312010">
        <ele>746.8</ele>
        <time>2019-08-06T16:41:52Z</time>
      </trkpt>
      <trkpt lat="48.8333950" lon="13.9311960">
        <ele>746.8</ele>
        <time>2019-08-06T16:41:53Z</time>
      </trkpt>
      <trkpt lat="48.8333440" lon="13.9311950">
        <ele>747.0</ele>
        <time>2019-08-06T16:41:54Z</time>
      </trkpt>
      <trkpt lat="48.8332890" lon="13.9311950">
        <ele>747.0</ele>
        <time>2019-08-06T16:41:55Z</time>
      </trkpt>
      <trkpt lat="48.8332300" lon="13.9311990">
        <ele>747.0</ele>
        <time>2019-08-06T16:41:56Z</time>
      </trkpt>
      <trkpt lat="48.8331720" lon="13.9312080">
        <ele>747.0</ele>
        <time>2019-08-06T16:41:57Z</time>
      </trkpt>
      <trkpt lat="48.8331130" lon="13.9312140">
        <ele>747.2</ele>
        <time>2019-08-06T16:41:58Z</time>
      </trkpt>
      <trkpt lat="48.8330610" lon="13.9312160">
        <ele>747.2</ele>
        <time>2019-08-06T16:41:59Z</time>
      </trkpt>
      <trkpt lat="48.8330140" lon="13.9312180">
        <ele>747.2</ele>
        <time>2019-08-06T16:42:00Z</time>
      </trkpt>
      <trkpt lat="48.8329650" lon="13.9312230">
        <ele>747.2</ele>
        <time>2019-08-06T16:42:01Z</time>
      </trkpt>
      <trkpt lat="48.8329120" lon="13.9312310">
        <ele>747.2</ele>
        <time>2019-08-06T16:42:02Z</time>
      </trkpt>
      <trkpt lat="48.8328540" lon="13.9312390">
        <ele>747.2</ele>
        <time>2019-08-06T16:42:03Z</time>
      </trkpt>
      <trkpt lat="48.8327890" lon="13.9312550">
        <ele>747.0</ele>
        <time>2019-08-06T16:42:04Z</time>
      </trkpt>
      <trkpt lat="48.8327230" lon="13.9312770">
        <ele>746.8</ele>
        <time>2019-08-06T16:42:05Z</time>
      </trkpt>
      <trkpt lat="48.8326600" lon="13.9312990">
        <ele>746.8</ele>
        <time>2019-08-06T16:42:06Z</time>
      </trkpt>
      <trkpt lat="48.8325940" lon="13.9313220">
        <ele>746.6</ele>
        <time>2019-08-06T16:42:07Z</time>
      </trkpt>
      <trkpt lat="48.8325300" lon="13.9313490">
        <ele>746.6</ele>
        <time>2019-08-06T16:42:08Z</time>
      </trkpt>
      <trkpt lat="48.8324660" lon="13.9313770">
        <ele>746.6</ele>
        <time>2019-08-06T16:42:09Z</time>
      </trkpt>
      <trkpt lat="48.8324050" lon="13.9314030">
        <ele>746.6</ele>
        <time>2019-08-06T16:42:10Z</time>
      </trkpt>
      <trkpt lat="48.8323440" lon="13.9314260">
        <ele>746.6</ele>
        <time>2019-08-06T16:42:11Z</time>
      </trkpt>
      <trkpt lat="48.8322840" lon="13.9314480">
        <ele>746.6</ele>
        <time>2019-08-06T16:42:12Z</time>
      </trkpt>
      <trkpt lat="48.8322250" lon="13.9314660">
        <ele>746.6</ele>
        <time>2019-08-06T16:42:13Z</time>
      </trkpt>
      <trkpt lat="48.8321670" lon="13.9314800">
        <ele>746.6</ele>
        <time>2019-08-06T16:42:14Z</time>
      </trkpt>
      <trkpt lat="48.8321080" lon="13.9314880">
        <ele>746.6</ele>
        <time>2019-08-06T16:42:15Z</time>
      </trkpt>
      <trkpt lat="48.8320520" lon="13.9314990">
        <ele>746.6</ele>
        <time>2019-08-06T16:42:16Z</time>
      </trkpt>
      <trkpt lat="48.8319960" lon="13.9315110">
        <ele>746.8</ele>
        <time>2019-08-06T16:42:17Z</time>
      </trkpt>
      <trkpt lat="48.8319370" lon="13.9315230">
        <ele>746.8</ele>
        <time>2019-08-06T16:42:18Z</time>
      </trkpt>
      <trkpt lat="48.8318790" lon="13.9315370">
        <ele>746.8</ele>
        <time>2019-08-06T16:42:19Z</time>
      </trkpt>
      <trkpt lat="48.8318220" lon="13.9315620">
        <ele>747.0</ele>
        <time>2019-08-06T16:42:20Z</time>
      </trkpt>
      <trkpt lat="48.8317680" lon="13.9315900">
        <ele>747.0</ele>
        <time>2019-08-06T16:42:21Z</time>
      </trkpt>
      <trkpt lat="48.8317150" lon="13.9316150">
        <ele>747.2</ele>
        <time>2019-08-06T16:42:22Z</time>
      </trkpt>
      <trkpt lat="48.8316600" lon="13.9316390">
        <ele>747.2</ele>
        <time>2019-08-06T16:42:23Z</time>
      </trkpt>
      <trkpt lat="48.8316090" lon="13.9316640">
        <ele>747.4</ele>
        <time>2019-08-06T16:42:24Z</time>
      </trkpt>
      <trkpt lat="48.8315590" lon="13.9316850">
        <ele>747.4</ele>
        <time>2019-08-06T16:42:25Z</time>
      </trkpt>
      <trkpt lat="48.8315080" lon="13.9317060">
        <ele>747.6</ele>
        <time>2019-08-06T16:42:26Z</time>
      </trkpt>
      <trkpt lat="48.8314580" lon="13.9317280">
        <ele>747.8</ele>
        <time>2019-08-06T16:42:27Z</time>
      </trkpt>
      <trkpt lat="48.8314100" lon="13.9317490">
        <ele>748.0</ele>
        <time>2019-08-06T16:42:28Z</time>
      </trkpt>
      <trkpt lat="48.8313620" lon="13.9317730">
        <ele>748.0</ele>
        <time>2019-08-06T16:42:29Z</time>
      </trkpt>
      <trkpt lat="48.8313150" lon="13.9317940">
        <ele>748.2</ele>
        <time>2019-08-06T16:42:30Z</time>
      </trkpt>
      <trkpt lat="48.8312640" lon="13.9318110">
        <ele>748.4</ele>
        <time>2019-08-06T16:42:31Z</time>
      </trkpt>
      <trkpt lat="48.8312110" lon="13.9318310">
        <ele>748.6</ele>
        <time>2019-08-06T16:42:32Z</time>
      </trkpt>
      <trkpt lat="48.8311620" lon="13.9318540">
        <ele>748.8</ele>
        <time>2019-08-06T16:42:33Z</time>
      </trkpt>
      <trkpt lat="48.8311140" lon="13.9318780">
        <ele>749.0</ele>
        <time>2019-08-06T16:42:34Z</time>
      </trkpt>
      <trkpt lat="48.8310690" lon="13.9319050">
        <ele>749.2</ele>
        <time>2019-08-06T16:42:35Z</time>
      </trkpt>
      <trkpt lat="48.8310200" lon="13.9319300">
        <ele>749.4</ele>
        <time>2019-08-06T16:42:36Z</time>
      </trkpt>
      <trkpt lat="48.8309710" lon="13.9319530">
        <ele>749.6</ele>
        <time>2019-08-06T16:42:37Z</time>
      </trkpt>
      <trkpt lat="48.8309240" lon="13.9319750">
        <ele>749.8</ele>
        <time>2019-08-06T16:42:38Z</time>
      </trkpt>
      <trkpt lat="48.8308780" lon="13.9320010">
        <ele>750.0</ele>
        <time>2019-08-06T16:42:39Z</time>
      </trkpt>
      <trkpt lat="48.8308310" lon="13.9320310">
        <ele>750.2</ele>
        <time>2019-08-06T16:42:40Z</time>
      </trkpt>
      <trkpt lat="48.8307850" lon="13.9320630">
        <ele>750.4</ele>
        <time>2019-08-06T16:42:41Z</time>
      </trkpt>
      <trkpt lat="48.8307420" lon="13.9320940">
        <ele>750.4</ele>
        <time>2019-08-06T16:42:42Z</time>
      </trkpt>
      <trkpt lat="48.8306980" lon="13.9321250">
        <ele>750.6</ele>
        <time>2019-08-06T16:42:43Z</time>
      </trkpt>
      <trkpt lat="48.8306540" lon="13.9321570">
        <ele>750.8</ele>
        <time>2019-08-06T16:42:44Z</time>
      </trkpt>
      <trkpt lat="48.8306100" lon="13.9321910">
        <ele>751.0</ele>
        <time>2019-08-06T16:42:45Z</time>
      </trkpt>
      <trkpt lat="48.8305700" lon="13.9322240">
        <ele>751.0</ele>
        <time>2019-08-06T16:42:46Z</time>
      </trkpt>
      <trkpt lat="48.8305300" lon="13.9322520">
        <ele>751.2</ele>
        <time>2019-08-06T16:42:47Z</time>
      </trkpt>
      <trkpt lat="48.8304880" lon="13.9322800">
        <ele>751.4</ele>
        <time>2019-08-06T16:42:48Z</time>
      </trkpt>
      <trkpt lat="48.8304480" lon="13.9323090">
        <ele>751.4</ele>
        <time>2019-08-06T16:42:49Z</time>
      </trkpt>
      <trkpt lat="48.8304060" lon="13.9323390">
        <ele>751.4</ele>
        <time>2019-08-06T16:42:50Z</time>
      </trkpt>
      <trkpt lat="48.8303650" lon="13.9323760">
        <ele>751.4</ele>
        <time>2019-08-06T16:42:51Z</time>
      </trkpt>
      <trkpt lat="48.8303220" lon="13.9324200">
        <ele>751.4</ele>
        <time>2019-08-06T16:42:52Z</time>
      </trkpt>
      <trkpt lat="48.8302760" lon="13.9324620">
        <ele>751.6</ele>
        <time>2019-08-06T16:42:53Z</time>
      </trkpt>
      <trkpt lat="48.8302260" lon="13.9325050">
        <ele>751.6</ele>
        <time>2019-08-06T16:42:54Z</time>
      </trkpt>
      <trkpt lat="48.8301770" lon="13.9325460">
        <ele>751.4</ele>
        <time>2019-08-06T16:42:55Z</time>
      </trkpt>
      <trkpt lat="48.8301290" lon="13.9325840">
        <ele>751.4</ele>
        <time>2019-08-06T16:42:56Z</time>
      </trkpt>
      <trkpt lat="48.8300830" lon="13.9326200">
        <ele>751.4</ele>
        <time>2019-08-06T16:42:57Z</time>
      </trkpt>
      <trkpt lat="48.8300360" lon="13.9326580">
        <ele>751.4</ele>
        <time>2019-08-06T16:42:58Z</time>
      </trkpt>
      <trkpt lat="48.8299880" lon="13.9326950">
        <ele>751.4</ele>
        <time>2019-08-06T16:42:59Z</time>
      </trkpt>
      <trkpt lat="48.8299440" lon="13.9327250">
        <ele>751.4</ele>
        <time>2019-08-06T16:43:00Z</time>
      </trkpt>
      <trkpt lat="48.8298940" lon="13.9327580">
        <ele>751.2</ele>
        <time>2019-08-06T16:43:01Z</time>
      </trkpt>
      <trkpt lat="48.8298440" lon="13.9327900">
        <ele>751.2</ele>
        <time>2019-08-06T16:43:02Z</time>
      </trkpt>
      <trkpt lat="48.8298000" lon="13.9328210">
        <ele>751.2</ele>
        <time>2019-08-06T16:43:03Z</time>
      </trkpt>
      <trkpt lat="48.8297560" lon="13.9328580">
        <ele>751.0</ele>
        <time>2019-08-06T16:43:04Z</time>
      </trkpt>
      <trkpt lat="48.8297140" lon="13.9329020">
        <ele>751.0</ele>
        <time>2019-08-06T16:43:05Z</time>
      </trkpt>
      <trkpt lat="48.8296730" lon="13.9329480">
        <ele>750.8</ele>
        <time>2019-08-06T16:43:06Z</time>
      </trkpt>
      <trkpt lat="48.8296270" lon="13.9329990">
        <ele>750.8</ele>
        <time>2019-08-06T16:43:07Z</time>
      </trkpt>
      <trkpt lat="48.8295760" lon="13.9330510">
        <ele>750.6</ele>
        <time>2019-08-06T16:43:08Z</time>
      </trkpt>
      <trkpt lat="48.8295240" lon="13.9331010">
        <ele>750.4</ele>
        <time>2019-08-06T16:43:09Z</time>
      </trkpt>
      <trkpt lat="48.8294700" lon="13.9331540">
        <ele>750.2</ele>
        <time>2019-08-06T16:43:10Z</time>
      </trkpt>
      <trkpt lat="48.8294120" lon="13.9332070">
        <ele>750.0</ele>
        <time>2019-08-06T16:43:11Z</time>
      </trkpt>
      <trkpt lat="48.8293500" lon="13.9332620">
        <ele>749.6</ele>
        <time>2019-08-06T16:43:12Z</time>
      </trkpt>
      <trkpt lat="48.8292800" lon="13.9333190">
        <ele>749.4</ele>
        <time>2019-08-06T16:43:13Z</time>
      </trkpt>
      <trkpt lat="48.8292090" lon="13.9333740">
        <ele>749.0</ele>
        <time>2019-08-06T16:43:14Z</time>
      </trkpt>
      <trkpt lat="48.8291360" lon="13.9334280">
        <ele>748.8</ele>
        <time>2019-08-06T16:43:15Z</time>
      </trkpt>
      <trkpt lat="48.8290630" lon="13.9334820">
        <ele>748.6</ele>
        <time>2019-08-06T16:43:16Z</time>
      </trkpt>
      <trkpt lat="48.8289910" lon="13.9335320">
        <ele>748.4</ele>
        <time>2019-08-06T16:43:17Z</time>
      </trkpt>
      <trkpt lat="48.8289190" lon="13.9335800">
        <ele>748.2</ele>
        <time>2019-08-06T16:43:18Z</time>
      </trkpt>
      <trkpt lat="48.8288480" lon="13.9336260">
        <ele>748.2</ele>
        <time>2019-08-06T16:43:19Z</time>
      </trkpt>
      <trkpt lat="48.8287770" lon="13.9336720">
        <ele>748.2</ele>
        <time>2019-08-06T16:43:20Z</time>
      </trkpt>
      <trkpt lat="48.8287110" lon="13.9337190">
        <ele>748.2</ele>
        <time>2019-08-06T16:43:21Z</time>
      </trkpt>
      <trkpt lat="48.8286490" lon="13.9337690">
        <ele>748.4</ele>
        <time>2019-08-06T16:43:22Z</time>
      </trkpt>
      <trkpt lat="48.8285910" lon="13.9338220">
        <ele>748.4</ele>
        <time>2019-08-06T16:43:23Z</time>
      </trkpt>
      <trkpt lat="48.8285340" lon="13.9338750">
        <ele>748.4</ele>
        <time>2019-08-06T16:43:24Z</time>
      </trkpt>
      <trkpt lat="48.8284780" lon="13.9339300">
        <ele>748.6</ele>
        <time>2019-08-06T16:43:25Z</time>
      </trkpt>
      <trkpt lat="48.8284230" lon="13.9339860">
        <ele>748.6</ele>
        <time>2019-08-06T16:43:26Z</time>
      </trkpt>
      <trkpt lat="48.8283680" lon="13.9340380">
        <ele>748.6</ele>
        <time>2019-08-06T16:43:27Z</time>
      </trkpt>
      <trkpt lat="48.8283150" lon="13.9340860">
        <ele>748.8</ele>
        <time>2019-08-06T16:43:28Z</time>
      </trkpt>
      <trkpt lat="48.8282610" lon="13.9341300">
        <ele>748.8</ele>
        <time>2019-08-06T16:43:29Z</time>
      </trkpt>
      <trkpt lat="48.8282090" lon="13.9341770">
        <ele>748.8</ele>
        <time>2019-08-06T16:43:30Z</time>
      </trkpt>
      <trkpt lat="48.8281600" lon="13.9342280">
        <ele>748.8</ele>
        <time>2019-08-06T16:43:31Z</time>
      </trkpt>
      <trkpt lat="48.8281090" lon="13.9342760">
        <ele>749.0</ele>
        <time>2019-08-06T16:43:32Z</time>
      </trkpt>
      <trkpt lat="48.8280520" lon="13.9343140">
        <ele>749.0</ele>
        <time>2019-08-06T16:43:33Z</time>
      </trkpt>
      <trkpt lat="48.8279890" lon="13.9343440">
        <ele>749.0</ele>
        <time>2019-08-06T16:43:34Z</time>
      </trkpt>
      <trkpt lat="48.8279260" lon="13.9343680">
        <ele>749.0</ele>
        <time>2019-08-06T16:43:35Z</time>
      </trkpt>
      <trkpt lat="48.8278640" lon="13.9343870">
        <ele>749.0</ele>
        <time>2019-08-06T16:43:36Z</time>
      </trkpt>
      <trkpt lat="48.8278040" lon="13.9344000">
        <ele>749.0</ele>
        <time>2019-08-06T16:43:37Z</time>
      </trkpt>
      <trkpt lat="48.8277450" lon="13.9344010">
        <ele>749.2</ele>
        <time>2019-08-06T16:43:38Z</time>
      </trkpt>
      <trkpt lat="48.8276840" lon="13.9343980">
        <ele>749.2</ele>
        <time>2019-08-06T16:43:39Z</time>
      </trkpt>
      <trkpt lat="48.8276240" lon="13.9343950">
        <ele>749.4</ele>
        <time>2019-08-06T16:43:40Z</time>
      </trkpt>
      <trkpt lat="48.8275640" lon="13.9343890">
        <ele>749.4</ele>
        <time>2019-08-06T16:43:41Z</time>
      </trkpt>
      <trkpt lat="48.8275080" lon="13.9343790">
        <ele>749.4</ele>
        <time>2019-08-06T16:43:42Z</time>
      </trkpt>
      <trkpt lat="48.8274470" lon="13.9343710">
        <ele>749.6</ele>
        <time>2019-08-06T16:43:43Z</time>
      </trkpt>
      <trkpt lat="48.8273800" lon="13.9343590">
        <ele>749.8</ele>
        <time>2019-08-06T16:43:44Z</time>
      </trkpt>
      <trkpt lat="48.8273150" lon="13.9343450">
        <ele>749.8</ele>
        <time>2019-08-06T16:43:45Z</time>
      </trkpt>
      <trkpt lat="48.8272540" lon="13.9343320">
        <ele>750.0</ele>
        <time>2019-08-06T16:43:46Z</time>
      </trkpt>
      <trkpt lat="48.8271950" lon="13.9343230">
        <ele>750.0</ele>
        <time>2019-08-06T16:43:47Z</time>
      </trkpt>
      <trkpt lat="48.8271370" lon="13.9343160">
        <ele>750.2</ele>
        <time>2019-08-06T16:43:48Z</time>
      </trkpt>
      <trkpt lat="48.8270820" lon="13.9343060">
        <ele>750.4</ele>
        <time>2019-08-06T16:43:49Z</time>
      </trkpt>
      <trkpt lat="48.8270300" lon="13.9342920">
        <ele>750.4</ele>
        <time>2019-08-06T16:43:50Z</time>
      </trkpt>
      <trkpt lat="48.8269810" lon="13.9342800">
        <ele>750.4</ele>
        <time>2019-08-06T16:43:51Z</time>
      </trkpt>
      <trkpt lat="48.8269310" lon="13.9342690">
        <ele>750.6</ele>
        <time>2019-08-06T16:43:52Z</time>
      </trkpt>
      <trkpt lat="48.8268810" lon="13.9342560">
        <ele>750.6</ele>
        <time>2019-08-06T16:43:53Z</time>
      </trkpt>
      <trkpt lat="48.8268330" lon="13.9342420">
        <ele>750.6</ele>
        <time>2019-08-06T16:43:54Z</time>
      </trkpt>
      <trkpt lat="48.8267860" lon="13.9342300">
        <ele>750.6</ele>
        <time>2019-08-06T16:43:55Z</time>
      </trkpt>
      <trkpt lat="48.8267300" lon="13.9342230">
        <ele>750.6</ele>
        <time>2019-08-06T16:43:56Z</time>
      </trkpt>
      <trkpt lat="48.8266720" lon="13.9342140">
        <ele>750.4</ele>
        <time>2019-08-06T16:43:57Z</time>
      </trkpt>
      <trkpt lat="48.8266090" lon="13.9342040">
        <ele>750.4</ele>
        <time>2019-08-06T16:43:58Z</time>
      </trkpt>
      <trkpt lat="48.8265430" lon="13.9341950">
        <ele>750.2</ele>
        <time>2019-08-06T16:43:59Z</time>
      </trkpt>
      <trkpt lat="48.8264750" lon="13.9341860">
        <ele>750.0</ele>
        <time>2019-08-06T16:44:00Z</time>
      </trkpt>
      <trkpt lat="48.8264060" lon="13.9341770">
        <ele>749.8</ele>
        <time>2019-08-06T16:44:01Z</time>
      </trkpt>
      <trkpt lat="48.8263370" lon="13.9341680">
        <ele>749.6</ele>
        <time>2019-08-06T16:44:02Z</time>
      </trkpt>
      <trkpt lat="48.8262660" lon="13.9341590">
        <ele>749.4</ele>
        <time>2019-08-06T16:44:03Z</time>
      </trkpt>
      <trkpt lat="48.8261940" lon="13.9341500">
        <ele>749.2</ele>
        <time>2019-08-06T16:44:04Z</time>
      </trkpt>
      <trkpt lat="48.8261270" lon="13.9341420">
        <ele>749.2</ele>
        <time>2019-08-06T16:44:05Z</time>
      </trkpt>
      <trkpt lat="48.8260620" lon="13.9341400">
        <ele>749.2</ele>
        <time>2019-08-06T16:44:06Z</time>
      </trkpt>
      <trkpt lat="48.8259950" lon="13.9341390">
        <ele>749.2</ele>
        <time>2019-08-06T16:44:07Z</time>
      </trkpt>
      <trkpt lat="48.8259220" lon="13.9341380">
        <ele>749.2</ele>
        <time>2019-08-06T16:44:08Z</time>
      </trkpt>
      <trkpt lat="48.8258470" lon="13.9341410">
        <ele>749.2</ele>
        <time>2019-08-06T16:44:09Z</time>
      </trkpt>
      <trkpt lat="48.8257800" lon="13.9341430">
        <ele>749.4</ele>
        <time>2019-08-06T16:44:10Z</time>
      </trkpt>
      <trkpt lat="48.8257180" lon="13.9341430">
        <ele>749.6</ele>
        <time>2019-08-06T16:44:11Z</time>
      </trkpt>
      <trkpt lat="48.8256600" lon="13.9341450">
        <ele>749.6</ele>
        <time>2019-08-06T16:44:12Z</time>
      </trkpt>
      <trkpt lat="48.8256070" lon="13.9341520">
        <ele>749.8</ele>
        <time>2019-08-06T16:44:13Z</time>
      </trkpt>
      <trkpt lat="48.8255630" lon="13.9341600">
        <ele>750.0</ele>
        <time>2019-08-06T16:44:14Z</time>
      </trkpt>
      <trkpt lat="48.8255200" lon="13.9341660">
        <ele>750.4</ele>
        <time>2019-08-06T16:44:15Z</time>
      </trkpt>
      <trkpt lat="48.8254760" lon="13.9341680">
        <ele>750.6</ele>
        <time>2019-08-06T16:44:16Z</time>
      </trkpt>
      <trkpt lat="48.8254350" lon="13.9341730">
        <ele>750.8</ele>
        <time>2019-08-06T16:44:17Z</time>
      </trkpt>
      <trkpt lat="48.8253930" lon="13.9341830">
        <ele>751.0</ele>
        <time>2019-08-06T16:44:18Z</time>
      </trkpt>
      <trkpt lat="48.8253490" lon="13.9341980">
        <ele>751.2</ele>
        <time>2019-08-06T16:44:19Z</time>
      </trkpt>
      <trkpt lat="48.8253040" lon="13.9342110">
        <ele>751.6</ele>
        <time>2019-08-06T16:44:20Z</time>
      </trkpt>
      <trkpt lat="48.8252620" lon="13.9342260">
        <ele>751.8</ele>
        <time>2019-08-06T16:44:21Z</time>
      </trkpt>
      <trkpt lat="48.8252210" lon="13.9342440">
        <ele>752.0</ele>
        <time>2019-08-06T16:44:22Z</time>
      </trkpt>
      <trkpt lat="48.8251810" lon="13.9342570">
        <ele>752.2</ele>
        <time>2019-08-06T16:44:23Z</time>
      </trkpt>
      <trkpt lat="48.8251450" lon="13.9342620">
        <ele>752.4</ele>
        <time>2019-08-06T16:44:24Z</time>
      </trkpt>
      <trkpt lat="48.8251110" lon="13.9342670">
        <ele>752.6</ele>
        <time>2019-08-06T16:44:25Z</time>
      </trkpt>
      <trkpt lat="48.8250830" lon="13.9342770">
        <ele>752.8</ele>
        <time>2019-08-06T16:44:26Z</time>
      </trkpt>
      <trkpt lat="48.8250590" lon="13.9342940">
        <ele>753.0</ele>
        <time>2019-08-06T16:44:27Z</time>
      </trkpt>
      <trkpt lat="48.8250360" lon="13.9343130">
        <ele>753.2</ele>
        <time>2019-08-06T16:44:28Z</time>
      </trkpt>
      <trkpt lat="48.8250080" lon="13.9343330">
        <ele>753.4</ele>
        <time>2019-08-06T16:44:29Z</time>
      </trkpt>
      <trkpt lat="48.8249720" lon="13.9343510">
        <ele>753.6</ele>
        <time>2019-08-06T16:44:30Z</time>
      </trkpt>
      <trkpt lat="48.8249330" lon="13.9343690">
        <ele>753.8</ele>
        <time>2019-08-06T16:44:31Z</time>
      </trkpt>
      <trkpt lat="48.8248930" lon="13.9343880">
        <ele>754.0</ele>
        <time>2019-08-06T16:44:32Z</time>
      </trkpt>
      <trkpt lat="48.8248560" lon="13.9344040">
        <ele>754.0</ele>
        <time>2019-08-06T16:44:33Z</time>
      </trkpt>
      <trkpt lat="48.8248210" lon="13.9344200">
        <ele>754.2</ele>
        <time>2019-08-06T16:44:34Z</time>
      </trkpt>
      <trkpt lat="48.8247890" lon="13.9344370">
        <ele>754.2</ele>
        <time>2019-08-06T16:44:35Z</time>
      </trkpt>
      <trkpt lat="48.8247580" lon="13.9344500">
        <ele>754.4</ele>
        <time>2019-08-06T16:44:36Z</time>
      </trkpt>
      <trkpt lat="48.8247190" lon="13.9344650">
        <ele>754.4</ele>
        <time>2019-08-06T16:44:37Z</time>
      </trkpt>
      <trkpt lat="48.8246790" lon="13.9344800">
        <ele>754.4</ele>
        <time>2019-08-06T16:44:38Z</time>
      </trkpt>
      <trkpt lat="48.8246400" lon="13.9344960">
        <ele>754.6</ele>
        <time>2019-08-06T16:44:39Z</time>
      </trkpt>
      <trkpt lat="48.8246010" lon="13.9345100">
        <ele>754.6</ele>
        <time>2019-08-06T16:44:40Z</time>
      </trkpt>
      <trkpt lat="48.8245630" lon="13.9345230">
        <ele>754.6</ele>
        <time>2019-08-06T16:44:41Z</time>
      </trkpt>
      <trkpt lat="48.8245260" lon="13.9345340">
        <ele>754.6</ele>
        <time>2019-08-06T16:44:42Z</time>
      </trkpt>
      <trkpt lat="48.8244860" lon="13.9345460">
        <ele>754.6</ele>
        <time>2019-08-06T16:44:43Z</time>
      </trkpt>
      <trkpt lat="48.8244460" lon="13.9345510">
        <ele>754.6</ele>
        <time>2019-08-06T16:44:44Z</time>
      </trkpt>
      <trkpt lat="48.8244040" lon="13.9345550">
        <ele>754.6</ele>
        <time>2019-08-06T16:44:45Z</time>
      </trkpt>
      <trkpt lat="48.8243560" lon="13.9345680">
        <ele>754.4</ele>
        <time>2019-08-06T16:44:46Z</time>
      </trkpt>
      <trkpt lat="48.8243070" lon="13.9345800">
        <ele>754.4</ele>
        <time>2019-08-06T16:44:47Z</time>
      </trkpt>
      <trkpt lat="48.8242610" lon="13.9345880">
        <ele>754.2</ele>
        <time>2019-08-06T16:44:48Z</time>
      </trkpt>
      <trkpt lat="48.8242190" lon="13.9345910">
        <ele>754.2</ele>
        <time>2019-08-06T16:44:49Z</time>
      </trkpt>
      <trkpt lat="48.8241760" lon="13.9345940">
        <ele>754.0</ele>
        <time>2019-08-06T16:44:50Z</time>
      </trkpt>
      <trkpt lat="48.8241320" lon="13.9345980">
        <ele>753.8</ele>
        <time>2019-08-06T16:44:51Z</time>
      </trkpt>
      <trkpt lat="48.8240870" lon="13.9346120">
        <ele>753.8</ele>
        <time>2019-08-06T16:44:52Z</time>
      </trkpt>
      <trkpt lat="48.8240430" lon="13.9346330">
        <ele>753.6</ele>
        <time>2019-08-06T16:44:53Z</time>
      </trkpt>
      <trkpt lat="48.8239900" lon="13.9346620">
        <ele>753.4</ele>
        <time>2019-08-06T16:44:54Z</time>
      </trkpt>
      <trkpt lat="48.8239480" lon="13.9346900">
        <ele>753.2</ele>
        <time>2019-08-06T16:44:55Z</time>
      </trkpt>
      <trkpt lat="48.8239140" lon="13.9347170">
        <ele>753.2</ele>
        <time>2019-08-06T16:44:56Z</time>
      </trkpt>
      <trkpt lat="48.8238190" lon="13.9347930">
        <ele>752.8</ele>
        <time>2019-08-06T16:44:57Z</time>
      </trkpt>
      <trkpt lat="48.8237520" lon="13.9348440">
        <ele>752.6</ele>
        <time>2019-08-06T16:44:58Z</time>
      </trkpt>
      <trkpt lat="48.8236850" lon="13.9349040">
        <ele>752.2</ele>
        <time>2019-08-06T16:44:59Z</time>
      </trkpt>
      <trkpt lat="48.8236170" lon="13.9349670">
        <ele>752.0</ele>
        <time>2019-08-06T16:45:00Z</time>
      </trkpt>
      <trkpt lat="48.8235530" lon="13.9350200">
        <ele>751.8</ele>
        <time>2019-08-06T16:45:01Z</time>
      </trkpt>
      <trkpt lat="48.8234910" lon="13.9350650">
        <ele>751.4</ele>
        <time>2019-08-06T16:45:02Z</time>
      </trkpt>
      <trkpt lat="48.8234280" lon="13.9351110">
        <ele>751.0</ele>
        <time>2019-08-06T16:45:03Z</time>
      </trkpt>
      <trkpt lat="48.8233570" lon="13.9351510">
        <ele>750.6</ele>
        <time>2019-08-06T16:45:04Z</time>
      </trkpt>
      <trkpt lat="48.8232770" lon="13.9351870">
        <ele>750.2</ele>
        <time>2019-08-06T16:45:05Z</time>
      </trkpt>
      <trkpt lat="48.8231940" lon="13.9352250">
        <ele>750.0</ele>
        <time>2019-08-06T16:45:06Z</time>
      </trkpt>
      <trkpt lat="48.8231150" lon="13.9352640">
        <ele>749.6</ele>
        <time>2019-08-06T16:45:07Z</time>
      </trkpt>
      <trkpt lat="48.8230390" lon="13.9352990">
        <ele>749.4</ele>
        <time>2019-08-06T16:45:08Z</time>
      </trkpt>
      <trkpt lat="48.8229570" lon="13.9353380">
        <ele>749.4</ele>
        <time>2019-08-06T16:45:09Z</time>
      </trkpt>
      <trkpt lat="48.8228760" lon="13.9353760">
        <ele>749.2</ele>
        <time>2019-08-06T16:45:10Z</time>
      </trkpt>
      <trkpt lat="48.8227950" lon="13.9354120">
        <ele>749.0</ele>
        <time>2019-08-06T16:45:11Z</time>
      </trkpt>
      <trkpt lat="48.8227130" lon="13.9354470">
        <ele>749.0</ele>
        <time>2019-08-06T16:45:12Z</time>
      </trkpt>
      <trkpt lat="48.8226310" lon="13.9354850">
        <ele>749.0</ele>
        <time>2019-08-06T16:45:13Z</time>
      </trkpt>
      <trkpt lat="48.8225530" lon="13.9355250">
        <ele>749.0</ele>
        <time>2019-08-06T16:45:14Z</time>
      </trkpt>
      <trkpt lat="48.8224780" lon="13.9355660">
        <ele>749.0</ele>
        <time>2019-08-06T16:45:15Z</time>
      </trkpt>
      <trkpt lat="48.8224040" lon="13.9356110">
        <ele>749.2</ele>
        <time>2019-08-06T16:45:16Z</time>
      </trkpt>
      <trkpt lat="48.8223280" lon="13.9356530">
        <ele>749.2</ele>
        <time>2019-08-06T16:45:17Z</time>
      </trkpt>
      <trkpt lat="48.8222520" lon="13.9356950">
        <ele>749.2</ele>
        <time>2019-08-06T16:45:18Z</time>
      </trkpt>
      <trkpt lat="48.8221790" lon="13.9357420">
        <ele>749.4</ele>
        <time>2019-08-06T16:45:19Z</time>
      </trkpt>
      <trkpt lat="48.8221110" lon="13.9357900">
        <ele>749.4</ele>
        <time>2019-08-06T16:45:20Z</time>
      </trkpt>
      <trkpt lat="48.8220440" lon="13.9358410">
        <ele>749.4</ele>
        <time>2019-08-06T16:45:21Z</time>
      </trkpt>
      <trkpt lat="48.8219780" lon="13.9358940">
        <ele>749.6</ele>
        <time>2019-08-06T16:45:22Z</time>
      </trkpt>
      <trkpt lat="48.8219130" lon="13.9359450">
        <ele>749.6</ele>
        <time>2019-08-06T16:45:23Z</time>
      </trkpt>
      <trkpt lat="48.8218500" lon="13.9359910">
        <ele>749.8</ele>
        <time>2019-08-06T16:45:24Z</time>
      </trkpt>
      <trkpt lat="48.8217820" lon="13.9360350">
        <ele>749.8</ele>
        <time>2019-08-06T16:45:25Z</time>
      </trkpt>
      <trkpt lat="48.8217140" lon="13.9360790">
        <ele>750.0</ele>
        <time>2019-08-06T16:45:26Z</time>
      </trkpt>
      <trkpt lat="48.8216490" lon="13.9361210">
        <ele>750.0</ele>
        <time>2019-08-06T16:45:27Z</time>
      </trkpt>
      <trkpt lat="48.8215860" lon="13.9361580">
        <ele>750.2</ele>
        <time>2019-08-06T16:45:28Z</time>
      </trkpt>
      <trkpt lat="48.8215230" lon="13.9361890">
        <ele>750.2</ele>
        <time>2019-08-06T16:45:29Z</time>
      </trkpt>
      <trkpt lat="48.8214600" lon="13.9362180">
        <ele>750.2</ele>
        <time>2019-08-06T16:45:30Z</time>
      </trkpt>
      <trkpt lat="48.8213970" lon="13.9362470">
        <ele>750.4</ele>
        <time>2019-08-06T16:45:31Z</time>
      </trkpt>
      <trkpt lat="48.8213340" lon="13.9362770">
        <ele>750.6</ele>
        <time>2019-08-06T16:45:32Z</time>
      </trkpt>
      <trkpt lat="48.8212720" lon="13.9363070">
        <ele>750.6</ele>
        <time>2019-08-06T16:45:33Z</time>
      </trkpt>
      <trkpt lat="48.8212110" lon="13.9363310">
        <ele>750.8</ele>
        <time>2019-08-06T16:45:34Z</time>
      </trkpt>
      <trkpt lat="48.8211500" lon="13.9363440">
        <ele>750.8</ele>
        <time>2019-08-06T16:45:35Z</time>
      </trkpt>
      <trkpt lat="48.8210850" lon="13.9363480">
        <ele>751.0</ele>
        <time>2019-08-06T16:45:36Z</time>
      </trkpt>
      <trkpt lat="48.8210220" lon="13.9363540">
        <ele>751.0</ele>
        <time>2019-08-06T16:45:37Z</time>
      </trkpt>
      <trkpt lat="48.8209620" lon="13.9363630">
        <ele>751.2</ele>
        <time>2019-08-06T16:45:38Z</time>
      </trkpt>
      <trkpt lat="48.8209040" lon="13.9363730">
        <ele>751.2</ele>
        <time>2019-08-06T16:45:39Z</time>
      </trkpt>
      <trkpt lat="48.8208500" lon="13.9363800">
        <ele>751.4</ele>
        <time>2019-08-06T16:45:40Z</time>
      </trkpt>
      <trkpt lat="48.8207940" lon="13.9363820">
        <ele>751.4</ele>
        <time>2019-08-06T16:45:41Z</time>
      </trkpt>
      <trkpt lat="48.8207390" lon="13.9363810">
        <ele>751.6</ele>
        <time>2019-08-06T16:45:42Z</time>
      </trkpt>
      <trkpt lat="48.8206870" lon="13.9363780">
        <ele>751.8</ele>
        <time>2019-08-06T16:45:43Z</time>
      </trkpt>
      <trkpt lat="48.8206380" lon="13.9363770">
        <ele>751.8</ele>
        <time>2019-08-06T16:45:44Z</time>
      </trkpt>
      <trkpt lat="48.8205870" lon="13.9363760">
        <ele>752.0</ele>
        <time>2019-08-06T16:45:45Z</time>
      </trkpt>
      <trkpt lat="48.8205400" lon="13.9363750">
        <ele>752.2</ele>
        <time>2019-08-06T16:45:46Z</time>
      </trkpt>
      <trkpt lat="48.8204960" lon="13.9363750">
        <ele>752.4</ele>
        <time>2019-08-06T16:45:47Z</time>
      </trkpt>
      <trkpt lat="48.8204520" lon="13.9363720">
        <ele>752.6</ele>
        <time>2019-08-06T16:45:48Z</time>
      </trkpt>
      <trkpt lat="48.8204070" lon="13.9363670">
        <ele>752.6</ele>
        <time>2019-08-06T16:45:49Z</time>
      </trkpt>
      <trkpt lat="48.8203570" lon="13.9363630">
        <ele>752.6</ele>
        <time>2019-08-06T16:45:50Z</time>
      </trkpt>
      <trkpt lat="48.8203010" lon="13.9363610">
        <ele>752.6</ele>
        <time>2019-08-06T16:45:51Z</time>
      </trkpt>
      <trkpt lat="48.8202450" lon="13.9363610">
        <ele>752.8</ele>
        <time>2019-08-06T16:45:52Z</time>
      </trkpt>
      <trkpt lat="48.8201900" lon="13.9363630">
        <ele>752.8</ele>
        <time>2019-08-06T16:45:53Z</time>
      </trkpt>
      <trkpt lat="48.8201350" lon="13.9363630">
        <ele>752.8</ele>
        <time>2019-08-06T16:45:54Z</time>
      </trkpt>
      <trkpt lat="48.8200790" lon="13.9363640">
        <ele>752.8</ele>
        <time>2019-08-06T16:45:55Z</time>
      </trkpt>
      <trkpt lat="48.8200240" lon="13.9363690">
        <ele>753.0</ele>
        <time>2019-08-06T16:45:56Z</time>
      </trkpt>
      <trkpt lat="48.8199690" lon="13.9363730">
        <ele>753.0</ele>
        <time>2019-08-06T16:45:57Z</time>
      </trkpt>
      <trkpt lat="48.8199140" lon="13.9363750">
        <ele>753.0</ele>
        <time>2019-08-06T16:45:58Z</time>
      </trkpt>
      <trkpt lat="48.8198580" lon="13.9363770">
        <ele>753.0</ele>
        <time>2019-08-06T16:45:59Z</time>
      </trkpt>
      <trkpt lat="48.8198020" lon="13.9363730">
        <ele>753.2</ele>
        <time>2019-08-06T16:46:00Z</time>
      </trkpt>
      <trkpt lat="48.8197450" lon="13.9363670">
        <ele>753.2</ele>
        <time>2019-08-06T16:46:01Z</time>
      </trkpt>
      <trkpt lat="48.8196880" lon="13.9363650">
        <ele>753.2</ele>
        <time>2019-08-06T16:46:02Z</time>
      </trkpt>
      <trkpt lat="48.8196320" lon="13.9363660">
        <ele>753.2</ele>
        <time>2019-08-06T16:46:03Z</time>
      </trkpt>
      <trkpt lat="48.8195790" lon="13.9363720">
        <ele>753.4</ele>
        <time>2019-08-06T16:46:04Z</time>
      </trkpt>
      <trkpt lat="48.8195200" lon="13.9363820">
        <ele>753.4</ele>
        <time>2019-08-06T16:46:05Z</time>
      </trkpt>
      <trkpt lat="48.8194560" lon="13.9363860">
        <ele>753.4</ele>
        <time>2019-08-06T16:46:06Z</time>
      </trkpt>
      <trkpt lat="48.8193960" lon="13.9363860">
        <ele>753.4</ele>
        <time>2019-08-06T16:46:07Z</time>
      </trkpt>
      <trkpt lat="48.8193370" lon="13.9363820">
        <ele>753.4</ele>
        <time>2019-08-06T16:46:08Z</time>
      </trkpt>
      <trkpt lat="48.8192740" lon="13.9363760">
        <ele>753.4</ele>
        <time>2019-08-06T16:46:09Z</time>
      </trkpt>
      <trkpt lat="48.8192070" lon="13.9363690">
        <ele>753.2</ele>
        <time>2019-08-06T16:46:10Z</time>
      </trkpt>
      <trkpt lat="48.8191420" lon="13.9363590">
        <ele>753.2</ele>
        <time>2019-08-06T16:46:11Z</time>
      </trkpt>
      <trkpt lat="48.8190750" lon="13.9363500">
        <ele>753.0</ele>
        <time>2019-08-06T16:46:12Z</time>
      </trkpt>
      <trkpt lat="48.8190070" lon="13.9363430">
        <ele>753.0</ele>
        <time>2019-08-06T16:46:13Z</time>
      </trkpt>
      <trkpt lat="48.8189420" lon="13.9363390">
        <ele>752.8</ele>
        <time>2019-08-06T16:46:14Z</time>
      </trkpt>
      <trkpt lat="48.8188720" lon="13.9363310">
        <ele>752.8</ele>
        <time>2019-08-06T16:46:15Z</time>
      </trkpt>
      <trkpt lat="48.8188030" lon="13.9363220">
        <ele>752.6</ele>
        <time>2019-08-06T16:46:16Z</time>
      </trkpt>
      <trkpt lat="48.8187340" lon="13.9363170">
        <ele>752.6</ele>
        <time>2019-08-06T16:46:17Z</time>
      </trkpt>
      <trkpt lat="48.8186630" lon="13.9363140">
        <ele>752.4</ele>
        <time>2019-08-06T16:46:18Z</time>
      </trkpt>
      <trkpt lat="48.8185910" lon="13.9363080">
        <ele>752.2</ele>
        <time>2019-08-06T16:46:19Z</time>
      </trkpt>
      <trkpt lat="48.8185160" lon="13.9362970">
        <ele>752.0</ele>
        <time>2019-08-06T16:46:20Z</time>
      </trkpt>
      <trkpt lat="48.8184400" lon="13.9362870">
        <ele>751.8</ele>
        <time>2019-08-06T16:46:21Z</time>
      </trkpt>
      <trkpt lat="48.8183640" lon="13.9362800">
        <ele>751.4</ele>
        <time>2019-08-06T16:46:22Z</time>
      </trkpt>
      <trkpt lat="48.8182840" lon="13.9362760">
        <ele>751.2</ele>
        <time>2019-08-06T16:46:23Z</time>
      </trkpt>
      <trkpt lat="48.8182030" lon="13.9362740">
        <ele>751.0</ele>
        <time>2019-08-06T16:46:24Z</time>
      </trkpt>
      <trkpt lat="48.8181230" lon="13.9362720">
        <ele>750.8</ele>
        <time>2019-08-06T16:46:25Z</time>
      </trkpt>
      <trkpt lat="48.8180410" lon="13.9362720">
        <ele>750.6</ele>
        <time>2019-08-06T16:46:26Z</time>
      </trkpt>
      <trkpt lat="48.8179630" lon="13.9362790">
        <ele>750.4</ele>
        <time>2019-08-06T16:46:27Z</time>
      </trkpt>
      <trkpt lat="48.8178850" lon="13.9362980">
        <ele>750.2</ele>
        <time>2019-08-06T16:46:28Z</time>
      </trkpt>
      <trkpt lat="48.8178090" lon="13.9363260">
        <ele>750.0</ele>
        <time>2019-08-06T16:46:29Z</time>
      </trkpt>
      <trkpt lat="48.8177360" lon="13.9363640">
        <ele>749.8</ele>
        <time>2019-08-06T16:46:30Z</time>
      </trkpt>
      <trkpt lat="48.8176660" lon="13.9364070">
        <ele>749.8</ele>
        <time>2019-08-06T16:46:31Z</time>
      </trkpt>
      <trkpt lat="48.8176030" lon="13.9364510">
        <ele>749.8</ele>
        <time>2019-08-06T16:46:32Z</time>
      </trkpt>
      <trkpt lat="48.8175430" lon="13.9364990">
        <ele>750.0</ele>
        <time>2019-08-06T16:46:33Z</time>
      </trkpt>
      <trkpt lat="48.8174870" lon="13.9365510">
        <ele>750.0</ele>
        <time>2019-08-06T16:46:34Z</time>
      </trkpt>
      <trkpt lat="48.8174350" lon="13.9366090">
        <ele>750.2</ele>
        <time>2019-08-06T16:46:35Z</time>
      </trkpt>
      <trkpt lat="48.8173850" lon="13.9366670">
        <ele>750.2</ele>
        <time>2019-08-06T16:46:36Z</time>
      </trkpt>
      <trkpt lat="48.8173380" lon="13.9367220">
        <ele>750.4</ele>
        <time>2019-08-06T16:46:37Z</time>
      </trkpt>
      <trkpt lat="48.8172960" lon="13.9367770">
        <ele>750.6</ele>
        <time>2019-08-06T16:46:38Z</time>
      </trkpt>
      <trkpt lat="48.8172530" lon="13.9368330">
        <ele>750.6</ele>
        <time>2019-08-06T16:46:39Z</time>
      </trkpt>
      <trkpt lat="48.8172090" lon="13.9368860">
        <ele>750.8</ele>
        <time>2019-08-06T16:46:40Z</time>
      </trkpt>
      <trkpt lat="48.8171650" lon="13.9369320">
        <ele>751.0</ele>
        <time>2019-08-06T16:46:41Z</time>
      </trkpt>
      <trkpt lat="48.8171200" lon="13.9369720">
        <ele>751.2</ele>
        <time>2019-08-06T16:46:42Z</time>
      </trkpt>
      <trkpt lat="48.8170790" lon="13.9370070">
        <ele>751.4</ele>
        <time>2019-08-06T16:46:43Z</time>
      </trkpt>
      <trkpt lat="48.8170380" lon="13.9370360">
        <ele>751.6</ele>
        <time>2019-08-06T16:46:44Z</time>
      </trkpt>
      <trkpt lat="48.8169970" lon="13.9370580">
        <ele>751.8</ele>
        <time>2019-08-06T16:46:45Z</time>
      </trkpt>
      <trkpt lat="48.8169570" lon="13.9370770">
        <ele>752.0</ele>
        <time>2019-08-06T16:46:46Z</time>
      </trkpt>
      <trkpt lat="48.8169180" lon="13.9370940">
        <ele>752.2</ele>
        <time>2019-08-06T16:46:47Z</time>
      </trkpt>
      <trkpt lat="48.8168810" lon="13.9371100">
        <ele>752.4</ele>
        <time>2019-08-06T16:46:48Z</time>
      </trkpt>
      <trkpt lat="48.8168450" lon="13.9371250">
        <ele>752.8</ele>
        <time>2019-08-06T16:46:49Z</time>
      </trkpt>
      <trkpt lat="48.8168120" lon="13.9371400">
        <ele>753.0</ele>
        <time>2019-08-06T16:46:50Z</time>
      </trkpt>
      <trkpt lat="48.8167770" lon="13.9371550">
        <ele>753.2</ele>
        <time>2019-08-06T16:46:51Z</time>
      </trkpt>
      <trkpt lat="48.8167420" lon="13.9371730">
        <ele>753.2</ele>
        <time>2019-08-06T16:46:52Z</time>
      </trkpt>
      <trkpt lat="48.8167080" lon="13.9371940">
        <ele>753.4</ele>
        <time>2019-08-06T16:46:53Z</time>
      </trkpt>
      <trkpt lat="48.8166780" lon="13.9372180">
        <ele>753.6</ele>
        <time>2019-08-06T16:46:54Z</time>
      </trkpt>
      <trkpt lat="48.8166490" lon="13.9372450">
        <ele>753.8</ele>
        <time>2019-08-06T16:46:55Z</time>
      </trkpt>
      <trkpt lat="48.8166200" lon="13.9372700">
        <ele>754.0</ele>
        <time>2019-08-06T16:46:56Z</time>
      </trkpt>
      <trkpt lat="48.8165890" lon="13.9372980">
        <ele>754.2</ele>
        <time>2019-08-06T16:46:57Z</time>
      </trkpt>
      <trkpt lat="48.8165600" lon="13.9373340">
        <ele>754.4</ele>
        <time>2019-08-06T16:46:58Z</time>
      </trkpt>
      <trkpt lat="48.8165360" lon="13.9373700">
        <ele>754.4</ele>
        <time>2019-08-06T16:46:59Z</time>
      </trkpt>
      <trkpt lat="48.8165160" lon="13.9374080">
        <ele>754.6</ele>
        <time>2019-08-06T16:47:00Z</time>
      </trkpt>
      <trkpt lat="48.8164970" lon="13.9374470">
        <ele>754.8</ele>
        <time>2019-08-06T16:47:01Z</time>
      </trkpt>
      <trkpt lat="48.8164750" lon="13.9374840">
        <ele>755.0</ele>
        <time>2019-08-06T16:47:02Z</time>
      </trkpt>
      <trkpt lat="48.8164530" lon="13.9375200">
        <ele>755.2</ele>
        <time>2019-08-06T16:47:03Z</time>
      </trkpt>
      <trkpt lat="48.8164300" lon="13.9375560">
        <ele>755.4</ele>
        <time>2019-08-06T16:47:04Z</time>
      </trkpt>
      <trkpt lat="48.8164050" lon="13.9375900">
        <ele>755.6</ele>
        <time>2019-08-06T16:47:05Z</time>
      </trkpt>
      <trkpt lat="48.8163800" lon="13.9376220">
        <ele>755.8</ele>
        <time>2019-08-06T16:47:06Z</time>
      </trkpt>
      <trkpt lat="48.8163560" lon="13.9376560">
        <ele>756.0</ele>
        <time>2019-08-06T16:47:07Z</time>
      </trkpt>
      <trkpt lat="48.8163340" lon="13.9376920">
        <ele>756.0</ele>
        <time>2019-08-06T16:47:08Z</time>
      </trkpt>
      <trkpt lat="48.8163110" lon="13.9377250">
        <ele>756.2</ele>
        <time>2019-08-06T16:47:09Z</time>
      </trkpt>
      <trkpt lat="48.8162860" lon="13.9377580">
        <ele>756.4</ele>
        <time>2019-08-06T16:47:10Z</time>
      </trkpt>
      <trkpt lat="48.8162600" lon="13.9377910">
        <ele>756.6</ele>
        <time>2019-08-06T16:47:11Z</time>
      </trkpt>
      <trkpt lat="48.8162330" lon="13.9378200">
        <ele>756.8</ele>
        <time>2019-08-06T16:47:12Z</time>
      </trkpt>
      <trkpt lat="48.8162040" lon="13.9378490">
        <ele>756.8</ele>
        <time>2019-08-06T16:47:13Z</time>
      </trkpt>
      <trkpt lat="48.8161750" lon="13.9378770">
        <ele>757.0</ele>
        <time>2019-08-06T16:47:14Z</time>
      </trkpt>
      <trkpt lat="48.8161450" lon="13.9379050">
        <ele>757.2</ele>
        <time>2019-08-06T16:47:15Z</time>
      </trkpt>
      <trkpt lat="48.8161150" lon="13.9379340">
        <ele>757.2</ele>
        <time>2019-08-06T16:47:16Z</time>
      </trkpt>
      <trkpt lat="48.8160850" lon="13.9379640">
        <ele>757.4</ele>
        <time>2019-08-06T16:47:17Z</time>
      </trkpt>
      <trkpt lat="48.8160550" lon="13.9379960">
        <ele>757.4</ele>
        <time>2019-08-06T16:47:18Z</time>
      </trkpt>
      <trkpt lat="48.8160250" lon="13.9380290">
        <ele>757.6</ele>
        <time>2019-08-06T16:47:19Z</time>
      </trkpt>
      <trkpt lat="48.8159930" lon="13.9380590">
        <ele>757.6</ele>
        <time>2019-08-06T16:47:20Z</time>
      </trkpt>
      <trkpt lat="48.8159590" lon="13.9380870">
        <ele>757.8</ele>
        <time>2019-08-06T16:47:21Z</time>
      </trkpt>
      <trkpt lat="48.8159250" lon="13.9381120">
        <ele>757.8</ele>
        <time>2019-08-06T16:47:22Z</time>
      </trkpt>
      <trkpt lat="48.8158890" lon="13.9381350">
        <ele>757.8</ele>
        <time>2019-08-06T16:47:23Z</time>
      </trkpt>
      <trkpt lat="48.8158510" lon="13.9381590">
        <ele>758.0</ele>
        <time>2019-08-06T16:47:24Z</time>
      </trkpt>
      <trkpt lat="48.8157920" lon="13.9381960">
        <ele>758.0</ele>
        <time>2019-08-06T16:47:25Z</time>
      </trkpt>
      <trkpt lat="48.8157720" lon="13.9382090">
        <ele>758.0</ele>
        <time>2019-08-06T16:47:26Z</time>
      </trkpt>
      <trkpt lat="48.8157320" lon="13.9382390">
        <ele>758.2</ele>
        <time>2019-08-06T16:47:27Z</time>
      </trkpt>
      <trkpt lat="48.8156920" lon="13.9382650">
        <ele>758.2</ele>
        <time>2019-08-06T16:47:28Z</time>
      </trkpt>
      <trkpt lat="48.8156510" lon="13.9382890">
        <ele>758.2</ele>
        <time>2019-08-06T16:47:29Z</time>
      </trkpt>
      <trkpt lat="48.8156090" lon="13.9383110">
        <ele>758.2</ele>
        <time>2019-08-06T16:47:30Z</time>
      </trkpt>
      <trkpt lat="48.8155680" lon="13.9383320">
        <ele>758.4</ele>
        <time>2019-08-06T16:47:31Z</time>
      </trkpt>
      <trkpt lat="48.8155270" lon="13.9383540">
        <ele>758.4</ele>
        <time>2019-08-06T16:47:32Z</time>
      </trkpt>
      <trkpt lat="48.8154860" lon="13.9383740">
        <ele>758.4</ele>
        <time>2019-08-06T16:47:33Z</time>
      </trkpt>
      <trkpt lat="48.8154430" lon="13.9383900">
        <ele>758.4</ele>
        <time>2019-08-06T16:47:34Z</time>
      </trkpt>
      <trkpt lat="48.8154020" lon="13.9384050">
        <ele>758.6</ele>
        <time>2019-08-06T16:47:35Z</time>
      </trkpt>
      <trkpt lat="48.8153620" lon="13.9384220">
        <ele>758.6</ele>
        <time>2019-08-06T16:47:36Z</time>
      </trkpt>
      <trkpt lat="48.8153200" lon="13.9384390">
        <ele>758.6</ele>
        <time>2019-08-06T16:47:37Z</time>
      </trkpt>
      <trkpt lat="48.8152770" lon="13.9384540">
        <ele>758.8</ele>
        <time>2019-08-06T16:47:38Z</time>
      </trkpt>
      <trkpt lat="48.8152340" lon="13.9384670">
        <ele>758.8</ele>
        <time>2019-08-06T16:47:39Z</time>
      </trkpt>
      <trkpt lat="48.8151920" lon="13.9384820">
        <ele>758.8</ele>
        <time>2019-08-06T16:47:40Z</time>
      </trkpt>
      <trkpt lat="48.8151490" lon="13.9385000">
        <ele>758.8</ele>
        <time>2019-08-06T16:47:41Z</time>
      </trkpt>
      <trkpt lat="48.8151020" lon="13.9385170">
        <ele>758.8</ele>
        <time>2019-08-06T16:47:42Z</time>
      </trkpt>
      <trkpt lat="48.8150510" lon="13.9385320">
        <ele>758.8</ele>
        <time>2019-08-06T16:47:43Z</time>
      </trkpt>
      <trkpt lat="48.8150000" lon="13.9385480">
        <ele>758.8</ele>
        <time>2019-08-06T16:47:44Z</time>
      </trkpt>
      <trkpt lat="48.8149520" lon="13.9385650">
        <ele>758.8</ele>
        <time>2019-08-06T16:47:45Z</time>
      </trkpt>
      <trkpt lat="48.8149030" lon="13.9385840">
        <ele>758.8</ele>
        <time>2019-08-06T16:47:46Z</time>
      </trkpt>
      <trkpt lat="48.8148550" lon="13.9386010">
        <ele>759.0</ele>
        <time>2019-08-06T16:47:47Z</time>
      </trkpt>
      <trkpt lat="48.8148070" lon="13.9386150">
        <ele>759.0</ele>
        <time>2019-08-06T16:47:48Z</time>
      </trkpt>
      <trkpt lat="48.8147590" lon="13.9386300">
        <ele>759.0</ele>
        <time>2019-08-06T16:47:49Z</time>
      </trkpt>
      <trkpt lat="48.8147130" lon="13.9386450">
        <ele>759.0</ele>
        <time>2019-08-06T16:47:50Z</time>
      </trkpt>
      <trkpt lat="48.8146670" lon="13.9386610">
        <ele>759.2</ele>
        <time>2019-08-06T16:47:51Z</time>
      </trkpt>
      <trkpt lat="48.8146250" lon="13.9386810">
        <ele>759.2</ele>
        <time>2019-08-06T16:47:52Z</time>
      </trkpt>
      <trkpt lat="48.8145820" lon="13.9386990">
        <ele>759.4</ele>
        <time>2019-08-06T16:47:53Z</time>
      </trkpt>
      <trkpt lat="48.8145400" lon="13.9387150">
        <ele>759.4</ele>
        <time>2019-08-06T16:47:54Z</time>
      </trkpt>
      <trkpt lat="48.8145000" lon="13.9387320">
        <ele>759.6</ele>
        <time>2019-08-06T16:47:55Z</time>
      </trkpt>
      <trkpt lat="48.8144580" lon="13.9387480">
        <ele>759.6</ele>
        <time>2019-08-06T16:47:56Z</time>
      </trkpt>
      <trkpt lat="48.8144140" lon="13.9387590">
        <ele>759.8</ele>
        <time>2019-08-06T16:47:57Z</time>
      </trkpt>
      <trkpt lat="48.8143710" lon="13.9387690">
        <ele>759.8</ele>
        <time>2019-08-06T16:47:58Z</time>
      </trkpt>
      <trkpt lat="48.8143280" lon="13.9387830">
        <ele>759.8</ele>
        <time>2019-08-06T16:47:59Z</time>
      </trkpt>
      <trkpt lat="48.8142850" lon="13.9388000">
        <ele>759.8</ele>
        <time>2019-08-06T16:48:00Z</time>
      </trkpt>
      <trkpt lat="48.8142410" lon="13.9388200">
        <ele>759.8</ele>
        <time>2019-08-06T16:48:01Z</time>
      </trkpt>
      <trkpt lat="48.8141960" lon="13.9388380">
        <ele>759.8</ele>
        <time>2019-08-06T16:48:02Z</time>
      </trkpt>
      <trkpt lat="48.8141450" lon="13.9388550">
        <ele>759.8</ele>
        <time>2019-08-06T16:48:03Z</time>
      </trkpt>
      <trkpt lat="48.8140940" lon="13.9388690">
        <ele>759.8</ele>
        <time>2019-08-06T16:48:04Z</time>
      </trkpt>
      <trkpt lat="48.8140410" lon="13.9388780">
        <ele>759.8</ele>
        <time>2019-08-06T16:48:05Z</time>
      </trkpt>
      <trkpt lat="48.8139870" lon="13.9388820">
        <ele>759.8</ele>
        <time>2019-08-06T16:48:06Z</time>
      </trkpt>
      <trkpt lat="48.8139360" lon="13.9388840">
        <ele>759.8</ele>
        <time>2019-08-06T16:48:07Z</time>
      </trkpt>
      <trkpt lat="48.8138840" lon="13.9388810">
        <ele>759.8</ele>
        <time>2019-08-06T16:48:08Z</time>
      </trkpt>
      <trkpt lat="48.8138310" lon="13.9388720">
        <ele>759.8</ele>
        <time>2019-08-06T16:48:09Z</time>
      </trkpt>
      <trkpt lat="48.8137770" lon="13.9388610">
        <ele>759.8</ele>
        <time>2019-08-06T16:48:10Z</time>
      </trkpt>
      <trkpt lat="48.8137230" lon="13.9388510">
        <ele>759.8</ele>
        <time>2019-08-06T16:48:11Z</time>
      </trkpt>
      <trkpt lat="48.8136700" lon="13.9388400">
        <ele>759.8</ele>
        <time>2019-08-06T16:48:12Z</time>
      </trkpt>
      <trkpt lat="48.8136150" lon="13.9388260">
        <ele>759.8</ele>
        <time>2019-08-06T16:48:13Z</time>
      </trkpt>
      <trkpt lat="48.8135610" lon="13.9388140">
        <ele>759.8</ele>
        <time>2019-08-06T16:48:14Z</time>
      </trkpt>
      <trkpt lat="48.8135070" lon="13.9388030">
        <ele>759.8</ele>
        <time>2019-08-06T16:48:15Z</time>
      </trkpt>
      <trkpt lat="48.8134510" lon="13.9387930">
        <ele>759.6</ele>
        <time>2019-08-06T16:48:16Z</time>
      </trkpt>
      <trkpt lat="48.8133950" lon="13.9387790">
        <ele>759.6</ele>
        <time>2019-08-06T16:48:17Z</time>
      </trkpt>
      <trkpt lat="48.8133370" lon="13.9387600">
        <ele>759.4</ele>
        <time>2019-08-06T16:48:18Z</time>
      </trkpt>
      <trkpt lat="48.8132750" lon="13.9387410">
        <ele>759.0</ele>
        <time>2019-08-06T16:48:19Z</time>
      </trkpt>
      <trkpt lat="48.8132110" lon="13.9387210">
        <ele>758.8</ele>
        <time>2019-08-06T16:48:20Z</time>
      </trkpt>
      <trkpt lat="48.8131440" lon="13.9387020">
        <ele>758.6</ele>
        <time>2019-08-06T16:48:21Z</time>
      </trkpt>
      <trkpt lat="48.8130770" lon="13.9386880">
        <ele>758.4</ele>
        <time>2019-08-06T16:48:22Z</time>
      </trkpt>
      <trkpt lat="48.8130120" lon="13.9386710">
        <ele>758.4</ele>
        <time>2019-08-06T16:48:23Z</time>
      </trkpt>
      <trkpt lat="48.8129460" lon="13.9386560">
        <ele>758.2</ele>
        <time>2019-08-06T16:48:24Z</time>
      </trkpt>
      <trkpt lat="48.8128780" lon="13.9386430">
        <ele>758.0</ele>
        <time>2019-08-06T16:48:25Z</time>
      </trkpt>
      <trkpt lat="48.8128120" lon="13.9386280">
        <ele>758.0</ele>
        <time>2019-08-06T16:48:26Z</time>
      </trkpt>
      <trkpt lat="48.8127470" lon="13.9386110">
        <ele>757.8</ele>
        <time>2019-08-06T16:48:27Z</time>
      </trkpt>
      <trkpt lat="48.8126820" lon="13.9385960">
        <ele>757.8</ele>
        <time>2019-08-06T16:48:28Z</time>
      </trkpt>
      <trkpt lat="48.8126180" lon="13.9385870">
        <ele>757.8</ele>
        <time>2019-08-06T16:48:29Z</time>
      </trkpt>
      <trkpt lat="48.8125550" lon="13.9385810">
        <ele>757.8</ele>
        <time>2019-08-06T16:48:30Z</time>
      </trkpt>
      <trkpt lat="48.8124880" lon="13.9385710">
        <ele>757.6</ele>
        <time>2019-08-06T16:48:31Z</time>
      </trkpt>
      <trkpt lat="48.8124180" lon="13.9385560">
        <ele>757.6</ele>
        <time>2019-08-06T16:48:32Z</time>
      </trkpt>
      <trkpt lat="48.8123480" lon="13.9385360">
        <ele>757.4</ele>
        <time>2019-08-06T16:48:33Z</time>
      </trkpt>
      <trkpt lat="48.8122800" lon="13.9385120">
        <ele>757.2</ele>
        <time>2019-08-06T16:48:34Z</time>
      </trkpt>
      <trkpt lat="48.8122110" lon="13.9384870">
        <ele>757.0</ele>
        <time>2019-08-06T16:48:35Z</time>
      </trkpt>
      <trkpt lat="48.8121370" lon="13.9384650">
        <ele>756.8</ele>
        <time>2019-08-06T16:48:36Z</time>
      </trkpt>
      <trkpt lat="48.8120610" lon="13.9384440">
        <ele>756.6</ele>
        <time>2019-08-06T16:48:37Z</time>
      </trkpt>
      <trkpt lat="48.8119840" lon="13.9384240">
        <ele>756.4</ele>
        <time>2019-08-06T16:48:38Z</time>
      </trkpt>
      <trkpt lat="48.8119060" lon="13.9384020">
        <ele>756.4</ele>
        <time>2019-08-06T16:48:39Z</time>
      </trkpt>
      <trkpt lat="48.8118260" lon="13.9383820">
        <ele>756.2</ele>
        <time>2019-08-06T16:48:40Z</time>
      </trkpt>
      <trkpt lat="48.8117440" lon="13.9383650">
        <ele>756.0</ele>
        <time>2019-08-06T16:48:41Z</time>
      </trkpt>
      <trkpt lat="48.8116610" lon="13.9383510">
        <ele>756.0</ele>
        <time>2019-08-06T16:48:42Z</time>
      </trkpt>
      <trkpt lat="48.8115800" lon="13.9383310">
        <ele>756.0</ele>
        <time>2019-08-06T16:48:43Z</time>
      </trkpt>
      <trkpt lat="48.8115020" lon="13.9383090">
        <ele>755.8</ele>
        <time>2019-08-06T16:48:44Z</time>
      </trkpt>
      <trkpt lat="48.8114250" lon="13.9382840">
        <ele>755.8</ele>
        <time>2019-08-06T16:48:45Z</time>
      </trkpt>
      <trkpt lat="48.8113500" lon="13.9382590">
        <ele>755.6</ele>
        <time>2019-08-06T16:48:46Z</time>
      </trkpt>
      <trkpt lat="48.8112750" lon="13.9382300">
        <ele>755.6</ele>
        <time>2019-08-06T16:48:47Z</time>
      </trkpt>
      <trkpt lat="48.8112030" lon="13.9382000">
        <ele>755.4</ele>
        <time>2019-08-06T16:48:48Z</time>
      </trkpt>
      <trkpt lat="48.8111300" lon="13.9381690">
        <ele>755.4</ele>
        <time>2019-08-06T16:48:49Z</time>
      </trkpt>
      <trkpt lat="48.8110540" lon="13.9381410">
        <ele>755.2</ele>
        <time>2019-08-06T16:48:50Z</time>
      </trkpt>
      <trkpt lat="48.8109790" lon="13.9381130">
        <ele>755.0</ele>
        <time>2019-08-06T16:48:51Z</time>
      </trkpt>
      <trkpt lat="48.8109040" lon="13.9380870">
        <ele>755.0</ele>
        <time>2019-08-06T16:48:52Z</time>
      </trkpt>
      <trkpt lat="48.8108300" lon="13.9380670">
        <ele>755.0</ele>
        <time>2019-08-06T16:48:53Z</time>
      </trkpt>
      <trkpt lat="48.8107570" lon="13.9380550">
        <ele>755.0</ele>
        <time>2019-08-06T16:48:54Z</time>
      </trkpt>
      <trkpt lat="48.8106840" lon="13.9380470">
        <ele>754.8</ele>
        <time>2019-08-06T16:48:55Z</time>
      </trkpt>
      <trkpt lat="48.8106130" lon="13.9380470">
        <ele>754.8</ele>
        <time>2019-08-06T16:48:56Z</time>
      </trkpt>
      <trkpt lat="48.8105420" lon="13.9380630">
        <ele>754.8</ele>
        <time>2019-08-06T16:48:57Z</time>
      </trkpt>
      <trkpt lat="48.8104760" lon="13.9380900">
        <ele>754.8</ele>
        <time>2019-08-06T16:48:58Z</time>
      </trkpt>
      <trkpt lat="48.8104180" lon="13.9381240">
        <ele>754.8</ele>
        <time>2019-08-06T16:48:59Z</time>
      </trkpt>
      <trkpt lat="48.8103650" lon="13.9381620">
        <ele>755.2</ele>
        <time>2019-08-06T16:49:00Z</time>
      </trkpt>
      <trkpt lat="48.8103200" lon="13.9381950">
        <ele>755.4</ele>
        <time>2019-08-06T16:49:01Z</time>
      </trkpt>
      <trkpt lat="48.8102760" lon="13.9382160">
        <ele>755.6</ele>
        <time>2019-08-06T16:49:02Z</time>
      </trkpt>
      <trkpt lat="48.8102310" lon="13.9382350">
        <ele>755.8</ele>
        <time>2019-08-06T16:49:03Z</time>
      </trkpt>
      <trkpt lat="48.8101850" lon="13.9382500">
        <ele>756.2</ele>
        <time>2019-08-06T16:49:04Z</time>
      </trkpt>
      <trkpt lat="48.8101400" lon="13.9382630">
        <ele>756.4</ele>
        <time>2019-08-06T16:49:05Z</time>
      </trkpt>
      <trkpt lat="48.8100950" lon="13.9382680">
        <ele>756.6</ele>
        <time>2019-08-06T16:49:06Z</time>
      </trkpt>
      <trkpt lat="48.8100510" lon="13.9382660">
        <ele>756.8</ele>
        <time>2019-08-06T16:49:07Z</time>
      </trkpt>
      <trkpt lat="48.8100040" lon="13.9382640">
        <ele>757.0</ele>
        <time>2019-08-06T16:49:08Z</time>
      </trkpt>
      <trkpt lat="48.8099590" lon="13.9382600">
        <ele>757.2</ele>
        <time>2019-08-06T16:49:09Z</time>
      </trkpt>
      <trkpt lat="48.8099160" lon="13.9382510">
        <ele>757.4</ele>
        <time>2019-08-06T16:49:10Z</time>
      </trkpt>
      <trkpt lat="48.8098730" lon="13.9382330">
        <ele>757.4</ele>
        <time>2019-08-06T16:49:11Z</time>
      </trkpt>
      <trkpt lat="48.8098320" lon="13.9382100">
        <ele>757.6</ele>
        <time>2019-08-06T16:49:12Z</time>
      </trkpt>
      <trkpt lat="48.8097920" lon="13.9381820">
        <ele>757.6</ele>
        <time>2019-08-06T16:49:13Z</time>
      </trkpt>
      <trkpt lat="48.8097510" lon="13.9381510">
        <ele>757.8</ele>
        <time>2019-08-06T16:49:14Z</time>
      </trkpt>
      <trkpt lat="48.8097080" lon="13.9381170">
        <ele>757.8</ele>
        <time>2019-08-06T16:49:15Z</time>
      </trkpt>
      <trkpt lat="48.8096670" lon="13.9380760">
        <ele>757.8</ele>
        <time>2019-08-06T16:49:16Z</time>
      </trkpt>
      <trkpt lat="48.8096270" lon="13.9380320">
        <ele>757.8</ele>
        <time>2019-08-06T16:49:17Z</time>
      </trkpt>
      <trkpt lat="48.8095860" lon="13.9379890">
        <ele>757.8</ele>
        <time>2019-08-06T16:49:18Z</time>
      </trkpt>
      <trkpt lat="48.8095410" lon="13.9379500">
        <ele>757.8</ele>
        <time>2019-08-06T16:49:19Z</time>
      </trkpt>
      <trkpt lat="48.8094950" lon="13.9379110">
        <ele>758.0</ele>
        <time>2019-08-06T16:49:20Z</time>
      </trkpt>
      <trkpt lat="48.8094490" lon="13.9378790">
        <ele>758.0</ele>
        <time>2019-08-06T16:49:21Z</time>
      </trkpt>
      <trkpt lat="48.8094020" lon="13.9378530">
        <ele>758.0</ele>
        <time>2019-08-06T16:49:22Z</time>
      </trkpt>
      <trkpt lat="48.8093530" lon="13.9378300">
        <ele>758.0</ele>
        <time>2019-08-06T16:49:23Z</time>
      </trkpt>
      <trkpt lat="48.8093030" lon="13.9378110">
        <ele>758.0</ele>
        <time>2019-08-06T16:49:24Z</time>
      </trkpt>
      <trkpt lat="48.8092470" lon="13.9377960">
        <ele>757.8</ele>
        <time>2019-08-06T16:49:25Z</time>
      </trkpt>
      <trkpt lat="48.8091870" lon="13.9377850">
        <ele>757.8</ele>
        <time>2019-08-06T16:49:26Z</time>
      </trkpt>
      <trkpt lat="48.8091250" lon="13.9377760">
        <ele>757.6</ele>
        <time>2019-08-06T16:49:27Z</time>
      </trkpt>
      <trkpt lat="48.8090610" lon="13.9377730">
        <ele>757.4</ele>
        <time>2019-08-06T16:49:28Z</time>
      </trkpt>
      <trkpt lat="48.8089980" lon="13.9377790">
        <ele>757.2</ele>
        <time>2019-08-06T16:49:29Z</time>
      </trkpt>
      <trkpt lat="48.8089360" lon="13.9377890">
        <ele>757.2</ele>
        <time>2019-08-06T16:49:30Z</time>
      </trkpt>
      <trkpt lat="48.8088740" lon="13.9378040">
        <ele>757.0</ele>
        <time>2019-08-06T16:49:31Z</time>
      </trkpt>
      <trkpt lat="48.8088120" lon="13.9378260">
        <ele>756.8</ele>
        <time>2019-08-06T16:49:32Z</time>
      </trkpt>
      <trkpt lat="48.8087500" lon="13.9378560">
        <ele>756.8</ele>
        <time>2019-08-06T16:49:33Z</time>
      </trkpt>
      <trkpt lat="48.8086900" lon="13.9378910">
        <ele>756.8</ele>
        <time>2019-08-06T16:49:34Z</time>
      </trkpt>
      <trkpt lat="48.8086320" lon="13.9379310">
        <ele>756.8</ele>
        <time>2019-08-06T16:49:35Z</time>
      </trkpt>
      <trkpt lat="48.8085730" lon="13.9379740">
        <ele>756.8</ele>
        <time>2019-08-06T16:49:36Z</time>
      </trkpt>
      <trkpt lat="48.8085160" lon="13.9380220">
        <ele>756.6</ele>
        <time>2019-08-06T16:49:37Z</time>
      </trkpt>
      <trkpt lat="48.8084630" lon="13.9380780">
        <ele>756.6</ele>
        <time>2019-08-06T16:49:38Z</time>
      </trkpt>
      <trkpt lat="48.8084130" lon="13.9381390">
        <ele>756.6</ele>
        <time>2019-08-06T16:49:39Z</time>
      </trkpt>
      <trkpt lat="48.8083670" lon="13.9382070">
        <ele>756.6</ele>
        <time>2019-08-06T16:49:40Z</time>
      </trkpt>
      <trkpt lat="48.8083220" lon="13.9382840">
        <ele>756.6</ele>
        <time>2019-08-06T16:49:41Z</time>
      </trkpt>
      <trkpt lat="48.8082810" lon="13.9383620">
        <ele>756.6</ele>
        <time>2019-08-06T16:49:42Z</time>
      </trkpt>
      <trkpt lat="48.8082420" lon="13.9384390">
        <ele>756.4</ele>
        <time>2019-08-06T16:49:43Z</time>
      </trkpt>
      <trkpt lat="48.8082030" lon="13.9385100">
        <ele>756.4</ele>
        <time>2019-08-06T16:49:44Z</time>
      </trkpt>
      <trkpt lat="48.8081650" lon="13.9385780">
        <ele>756.4</ele>
        <time>2019-08-06T16:49:45Z</time>
      </trkpt>
      <trkpt lat="48.8081270" lon="13.9386440">
        <ele>756.4</ele>
        <time>2019-08-06T16:49:46Z</time>
      </trkpt>
      <trkpt lat="48.8080850" lon="13.9387090">
        <ele>756.4</ele>
        <time>2019-08-06T16:49:47Z</time>
      </trkpt>
      <trkpt lat="48.8080370" lon="13.9387750">
        <ele>756.2</ele>
        <time>2019-08-06T16:49:48Z</time>
      </trkpt>
      <trkpt lat="48.8079830" lon="13.9388390">
        <ele>756.2</ele>
        <time>2019-08-06T16:49:49Z</time>
      </trkpt>
      <trkpt lat="48.8079240" lon="13.9388990">
        <ele>756.2</ele>
        <time>2019-08-06T16:49:50Z</time>
      </trkpt>
      <trkpt lat="48.8078610" lon="13.9389550">
        <ele>756.2</ele>
        <time>2019-08-06T16:49:51Z</time>
      </trkpt>
      <trkpt lat="48.8077930" lon="13.9390010">
        <ele>756.0</ele>
        <time>2019-08-06T16:49:52Z</time>
      </trkpt>
      <trkpt lat="48.8077240" lon="13.9390340">
        <ele>756.0</ele>
        <time>2019-08-06T16:49:53Z</time>
      </trkpt>
      <trkpt lat="48.8076550" lon="13.9390560">
        <ele>756.0</ele>
        <time>2019-08-06T16:49:54Z</time>
      </trkpt>
      <trkpt lat="48.8075840" lon="13.9390760">
        <ele>756.0</ele>
        <time>2019-08-06T16:49:55Z</time>
      </trkpt>
      <trkpt lat="48.8075120" lon="13.9390940">
        <ele>756.0</ele>
        <time>2019-08-06T16:49:56Z</time>
      </trkpt>
      <trkpt lat="48.8074450" lon="13.9391120">
        <ele>755.8</ele>
        <time>2019-08-06T16:49:57Z</time>
      </trkpt>
      <trkpt lat="48.8073830" lon="13.9391350">
        <ele>755.8</ele>
        <time>2019-08-06T16:49:58Z</time>
      </trkpt>
      <trkpt lat="48.8073250" lon="13.9391640">
        <ele>755.6</ele>
        <time>2019-08-06T16:49:59Z</time>
      </trkpt>
      <trkpt lat="48.8072740" lon="13.9391990">
        <ele>755.4</ele>
        <time>2019-08-06T16:50:00Z</time>
      </trkpt>
      <trkpt lat="48.8072290" lon="13.9392440">
        <ele>755.2</ele>
        <time>2019-08-06T16:50:01Z</time>
      </trkpt>
      <trkpt lat="48.8071890" lon="13.9392970">
        <ele>755.0</ele>
        <time>2019-08-06T16:50:02Z</time>
      </trkpt>
      <trkpt lat="48.8071520" lon="13.9393540">
        <ele>754.8</ele>
        <time>2019-08-06T16:50:03Z</time>
      </trkpt>
      <trkpt lat="48.8071200" lon="13.9394140">
        <ele>754.8</ele>
        <time>2019-08-06T16:50:04Z</time>
      </trkpt>
      <trkpt lat="48.8070940" lon="13.9394750">
        <ele>754.8</ele>
        <time>2019-08-06T16:50:05Z</time>
      </trkpt>
      <trkpt lat="48.8070680" lon="13.9395330">
        <ele>754.6</ele>
        <time>2019-08-06T16:50:06Z</time>
      </trkpt>
      <trkpt lat="48.8070400" lon="13.9395890">
        <ele>754.6</ele>
        <time>2019-08-06T16:50:07Z</time>
      </trkpt>
      <trkpt lat="48.8070080" lon="13.9396450">
        <ele>754.6</ele>
        <time>2019-08-06T16:50:08Z</time>
      </trkpt>
      <trkpt lat="48.8069720" lon="13.9397050">
        <ele>754.4</ele>
        <time>2019-08-06T16:50:09Z</time>
      </trkpt>
      <trkpt lat="48.8069300" lon="13.9397620">
        <ele>754.0</ele>
        <time>2019-08-06T16:50:10Z</time>
      </trkpt>
      <trkpt lat="48.8068780" lon="13.9398160">
        <ele>753.8</ele>
        <time>2019-08-06T16:50:11Z</time>
      </trkpt>
      <trkpt lat="48.8068180" lon="13.9398690">
        <ele>753.4</ele>
        <time>2019-08-06T16:50:12Z</time>
      </trkpt>
      <trkpt lat="48.8067480" lon="13.9399260">
        <ele>753.0</ele>
        <time>2019-08-06T16:50:13Z</time>
      </trkpt>
      <trkpt lat="48.8066750" lon="13.9399810">
        <ele>752.4</ele>
        <time>2019-08-06T16:50:14Z</time>
      </trkpt>
      <trkpt lat="48.8065990" lon="13.9400380">
        <ele>752.0</ele>
        <time>2019-08-06T16:50:15Z</time>
      </trkpt>
      <trkpt lat="48.8065220" lon="13.9400990">
        <ele>751.6</ele>
        <time>2019-08-06T16:50:16Z</time>
      </trkpt>
      <trkpt lat="48.8064450" lon="13.9401580">
        <ele>751.2</ele>
        <time>2019-08-06T16:50:17Z</time>
      </trkpt>
      <trkpt lat="48.8063650" lon="13.9402220">
        <ele>750.6</ele>
        <time>2019-08-06T16:50:18Z</time>
      </trkpt>
      <trkpt lat="48.8062850" lon="13.9402900">
        <ele>750.2</ele>
        <time>2019-08-06T16:50:19Z</time>
      </trkpt>
      <trkpt lat="48.8062050" lon="13.9403540">
        <ele>749.8</ele>
        <time>2019-08-06T16:50:20Z</time>
      </trkpt>
      <trkpt lat="48.8061240" lon="13.9404170">
        <ele>749.6</ele>
        <time>2019-08-06T16:50:21Z</time>
      </trkpt>
      <trkpt lat="48.8060420" lon="13.9404790">
        <ele>749.2</ele>
        <time>2019-08-06T16:50:22Z</time>
      </trkpt>
      <trkpt lat="48.8059610" lon="13.9405400">
        <ele>749.0</ele>
        <time>2019-08-06T16:50:23Z</time>
      </trkpt>
      <trkpt lat="48.8058820" lon="13.9406010">
        <ele>748.6</ele>
        <time>2019-08-06T16:50:24Z</time>
      </trkpt>
      <trkpt lat="48.8058000" lon="13.9406610">
        <ele>748.4</ele>
        <time>2019-08-06T16:50:25Z</time>
      </trkpt>
      <trkpt lat="48.8057180" lon="13.9407230">
        <ele>748.2</ele>
        <time>2019-08-06T16:50:26Z</time>
      </trkpt>
      <trkpt lat="48.8056390" lon="13.9407870">
        <ele>748.0</ele>
        <time>2019-08-06T16:50:27Z</time>
      </trkpt>
      <trkpt lat="48.8055600" lon="13.9408530">
        <ele>747.8</ele>
        <time>2019-08-06T16:50:28Z</time>
      </trkpt>
      <trkpt lat="48.8054830" lon="13.9409160">
        <ele>747.4</ele>
        <time>2019-08-06T16:50:29Z</time>
      </trkpt>
      <trkpt lat="48.8054050" lon="13.9409770">
        <ele>747.4</ele>
        <time>2019-08-06T16:50:30Z</time>
      </trkpt>
      <trkpt lat="48.8053270" lon="13.9410320">
        <ele>747.2</ele>
        <time>2019-08-06T16:50:31Z</time>
      </trkpt>
      <trkpt lat="48.8052480" lon="13.9410920">
        <ele>747.0</ele>
        <time>2019-08-06T16:50:32Z</time>
      </trkpt>
      <trkpt lat="48.8051710" lon="13.9411540">
        <ele>746.8</ele>
        <time>2019-08-06T16:50:33Z</time>
      </trkpt>
      <trkpt lat="48.8051010" lon="13.9412100">
        <ele>746.6</ele>
        <time>2019-08-06T16:50:34Z</time>
      </trkpt>
      <trkpt lat="48.8050260" lon="13.9412700">
        <ele>746.4</ele>
        <time>2019-08-06T16:50:35Z</time>
      </trkpt>
      <trkpt lat="48.8049520" lon="13.9413270">
        <ele>746.2</ele>
        <time>2019-08-06T16:50:36Z</time>
      </trkpt>
      <trkpt lat="48.8048790" lon="13.9413810">
        <ele>746.0</ele>
        <time>2019-08-06T16:50:37Z</time>
      </trkpt>
      <trkpt lat="48.8048050" lon="13.9414360">
        <ele>745.8</ele>
        <time>2019-08-06T16:50:38Z</time>
      </trkpt>
      <trkpt lat="48.8047300" lon="13.9414890">
        <ele>745.6</ele>
        <time>2019-08-06T16:50:39Z</time>
      </trkpt>
      <trkpt lat="48.8046530" lon="13.9415360">
        <ele>745.4</ele>
        <time>2019-08-06T16:50:40Z</time>
      </trkpt>
      <trkpt lat="48.8045780" lon="13.9415700">
        <ele>745.2</ele>
        <time>2019-08-06T16:50:41Z</time>
      </trkpt>
      <trkpt lat="48.8045000" lon="13.9415880">
        <ele>745.2</ele>
        <time>2019-08-06T16:50:42Z</time>
      </trkpt>
      <trkpt lat="48.8044220" lon="13.9415950">
        <ele>745.0</ele>
        <time>2019-08-06T16:50:43Z</time>
      </trkpt>
      <trkpt lat="48.8043460" lon="13.9415930">
        <ele>744.8</ele>
        <time>2019-08-06T16:50:44Z</time>
      </trkpt>
      <trkpt lat="48.8042730" lon="13.9415860">
        <ele>744.8</ele>
        <time>2019-08-06T16:50:45Z</time>
      </trkpt>
      <trkpt lat="48.8042020" lon="13.9415750">
        <ele>744.6</ele>
        <time>2019-08-06T16:50:46Z</time>
      </trkpt>
      <trkpt lat="48.8041320" lon="13.9415610">
        <ele>744.6</ele>
        <time>2019-08-06T16:50:47Z</time>
      </trkpt>
      <trkpt lat="48.8040630" lon="13.9415450">
        <ele>744.6</ele>
        <time>2019-08-06T16:50:48Z</time>
      </trkpt>
      <trkpt lat="48.8039960" lon="13.9415270">
        <ele>744.4</ele>
        <time>2019-08-06T16:50:49Z</time>
      </trkpt>
      <trkpt lat="48.8039340" lon="13.9415060">
        <ele>744.4</ele>
        <time>2019-08-06T16:50:50Z</time>
      </trkpt>
      <trkpt lat="48.8038740" lon="13.9414810">
        <ele>744.4</ele>
        <time>2019-08-06T16:50:51Z</time>
      </trkpt>
      <trkpt lat="48.8038150" lon="13.9414530">
        <ele>744.4</ele>
        <time>2019-08-06T16:50:52Z</time>
      </trkpt>
      <trkpt lat="48.8037570" lon="13.9414220">
        <ele>744.4</ele>
        <time>2019-08-06T16:50:53Z</time>
      </trkpt>
      <trkpt lat="48.8036940" lon="13.9413890">
        <ele>744.4</ele>
        <time>2019-08-06T16:50:54Z</time>
      </trkpt>
      <trkpt lat="48.8036300" lon="13.9413540">
        <ele>744.4</ele>
        <time>2019-08-06T16:50:55Z</time>
      </trkpt>
      <trkpt lat="48.8035670" lon="13.9413170">
        <ele>744.2</ele>
        <time>2019-08-06T16:50:56Z</time>
      </trkpt>
      <trkpt lat="48.8035050" lon="13.9412800">
        <ele>744.2</ele>
        <time>2019-08-06T16:50:57Z</time>
      </trkpt>
      <trkpt lat="48.8034430" lon="13.9412400">
        <ele>744.2</ele>
        <time>2019-08-06T16:50:58Z</time>
      </trkpt>
      <trkpt lat="48.8033840" lon="13.9411950">
        <ele>744.2</ele>
        <time>2019-08-06T16:50:59Z</time>
      </trkpt>
      <trkpt lat="48.8033270" lon="13.9411480">
        <ele>744.2</ele>
        <time>2019-08-06T16:51:00Z</time>
      </trkpt>
      <trkpt lat="48.8032700" lon="13.9410980">
        <ele>744.4</ele>
        <time>2019-08-06T16:51:01Z</time>
      </trkpt>
      <trkpt lat="48.8032130" lon="13.9410490">
        <ele>744.4</ele>
        <time>2019-08-06T16:51:02Z</time>
      </trkpt>
      <trkpt lat="48.8031590" lon="13.9410020">
        <ele>744.4</ele>
        <time>2019-08-06T16:51:03Z</time>
      </trkpt>
      <trkpt lat="48.8031070" lon="13.9409550">
        <ele>744.4</ele>
        <time>2019-08-06T16:51:04Z</time>
      </trkpt>
      <trkpt lat="48.8030560" lon="13.9409090">
        <ele>744.6</ele>
        <time>2019-08-06T16:51:05Z</time>
      </trkpt>
      <trkpt lat="48.8030040" lon="13.9408620">
        <ele>744.6</ele>
        <time>2019-08-06T16:51:06Z</time>
      </trkpt>
      <trkpt lat="48.8029550" lon="13.9408160">
        <ele>744.6</ele>
        <time>2019-08-06T16:51:07Z</time>
      </trkpt>
      <trkpt lat="48.8029070" lon="13.9407670">
        <ele>744.8</ele>
        <time>2019-08-06T16:51:08Z</time>
      </trkpt>
      <trkpt lat="48.8028610" lon="13.9407190">
        <ele>744.8</ele>
        <time>2019-08-06T16:51:09Z</time>
      </trkpt>
      <trkpt lat="48.8028150" lon="13.9406750">
        <ele>744.8</ele>
        <time>2019-08-06T16:51:10Z</time>
      </trkpt>
      <trkpt lat="48.8027700" lon="13.9406300">
        <ele>745.0</ele>
        <time>2019-08-06T16:51:11Z</time>
      </trkpt>
      <trkpt lat="48.8027260" lon="13.9405880">
        <ele>745.0</ele>
        <time>2019-08-06T16:51:12Z</time>
      </trkpt>
      <trkpt lat="48.8026850" lon="13.9405490">
        <ele>745.2</ele>
        <time>2019-08-06T16:51:13Z</time>
      </trkpt>
      <trkpt lat="48.8026450" lon="13.9405080">
        <ele>745.4</ele>
        <time>2019-08-06T16:51:14Z</time>
      </trkpt>
      <trkpt lat="48.8026060" lon="13.9404710">
        <ele>745.4</ele>
        <time>2019-08-06T16:51:15Z</time>
      </trkpt>
      <trkpt lat="48.8025680" lon="13.9404350">
        <ele>745.6</ele>
        <time>2019-08-06T16:51:16Z</time>
      </trkpt>
      <trkpt lat="48.8025310" lon="13.9404010">
        <ele>745.8</ele>
        <time>2019-08-06T16:51:17Z</time>
      </trkpt>
      <trkpt lat="48.8024940" lon="13.9403660">
        <ele>745.8</ele>
        <time>2019-08-06T16:51:18Z</time>
      </trkpt>
      <trkpt lat="48.8024560" lon="13.9403300">
        <ele>746.0</ele>
        <time>2019-08-06T16:51:19Z</time>
      </trkpt>
      <trkpt lat="48.8024180" lon="13.9402960">
        <ele>746.0</ele>
        <time>2019-08-06T16:51:20Z</time>
      </trkpt>
      <trkpt lat="48.8023820" lon="13.9402620">
        <ele>746.2</ele>
        <time>2019-08-06T16:51:21Z</time>
      </trkpt>
      <trkpt lat="48.8023460" lon="13.9402270">
        <ele>746.2</ele>
        <time>2019-08-06T16:51:22Z</time>
      </trkpt>
      <trkpt lat="48.8023090" lon="13.9401910">
        <ele>746.4</ele>
        <time>2019-08-06T16:51:23Z</time>
      </trkpt>
      <trkpt lat="48.8022730" lon="13.9401550">
        <ele>746.6</ele>
        <time>2019-08-06T16:51:24Z</time>
      </trkpt>
      <trkpt lat="48.8022370" lon="13.9401200">
        <ele>746.6</ele>
        <time>2019-08-06T16:51:25Z</time>
      </trkpt>
      <trkpt lat="48.8022020" lon="13.9400870">
        <ele>746.8</ele>
        <time>2019-08-06T16:51:26Z</time>
      </trkpt>
      <trkpt lat="48.8021670" lon="13.9400520">
        <ele>747.0</ele>
        <time>2019-08-06T16:51:27Z</time>
      </trkpt>
      <trkpt lat="48.8021320" lon="13.9400180">
        <ele>747.0</ele>
        <time>2019-08-06T16:51:28Z</time>
      </trkpt>
      <trkpt lat="48.8020960" lon="13.9399880">
        <ele>747.2</ele>
        <time>2019-08-06T16:51:29Z</time>
      </trkpt>
      <trkpt lat="48.8020590" lon="13.9399610">
        <ele>747.2</ele>
        <time>2019-08-06T16:51:30Z</time>
      </trkpt>
      <trkpt lat="48.8020230" lon="13.9399330">
        <ele>747.4</ele>
        <time>2019-08-06T16:51:31Z</time>
      </trkpt>
      <trkpt lat="48.8019860" lon="13.9399040">
        <ele>747.4</ele>
        <time>2019-08-06T16:51:32Z</time>
      </trkpt>
      <trkpt lat="48.8019490" lon="13.9398760">
        <ele>747.6</ele>
        <time>2019-08-06T16:51:33Z</time>
      </trkpt>
      <trkpt lat="48.8019130" lon="13.9398520">
        <ele>747.8</ele>
        <time>2019-08-06T16:51:34Z</time>
      </trkpt>
      <trkpt lat="48.8018750" lon="13.9398320">
        <ele>747.8</ele>
        <time>2019-08-06T16:51:35Z</time>
      </trkpt>
      <trkpt lat="48.8018370" lon="13.9398140">
        <ele>748.0</ele>
        <time>2019-08-06T16:51:36Z</time>
      </trkpt>
      <trkpt lat="48.8018010" lon="13.9397970">
        <ele>748.0</ele>
        <time>2019-08-06T16:51:37Z</time>
      </trkpt>
      <trkpt lat="48.8017630" lon="13.9397800">
        <ele>748.2</ele>
        <time>2019-08-06T16:51:38Z</time>
      </trkpt>
      <trkpt lat="48.8017240" lon="13.9397620">
        <ele>748.2</ele>
        <time>2019-08-06T16:51:39Z</time>
      </trkpt>
      <trkpt lat="48.8016850" lon="13.9397420">
        <ele>748.2</ele>
        <time>2019-08-06T16:51:40Z</time>
      </trkpt>
      <trkpt lat="48.8016470" lon="13.9397220">
        <ele>748.4</ele>
        <time>2019-08-06T16:51:41Z</time>
      </trkpt>
      <trkpt lat="48.8016060" lon="13.9397020">
        <ele>748.4</ele>
        <time>2019-08-06T16:51:42Z</time>
      </trkpt>
      <trkpt lat="48.8015650" lon="13.9396830">
        <ele>748.4</ele>
        <time>2019-08-06T16:51:43Z</time>
      </trkpt>
      <trkpt lat="48.8015240" lon="13.9396640">
        <ele>748.6</ele>
        <time>2019-08-06T16:51:44Z</time>
      </trkpt>
      <trkpt lat="48.8014830" lon="13.9396410">
        <ele>748.6</ele>
        <time>2019-08-06T16:51:45Z</time>
      </trkpt>
      <trkpt lat="48.8014410" lon="13.9396180">
        <ele>748.6</ele>
        <time>2019-08-06T16:51:46Z</time>
      </trkpt>
      <trkpt lat="48.8013990" lon="13.9395950">
        <ele>748.6</ele>
        <time>2019-08-06T16:51:47Z</time>
      </trkpt>
      <trkpt lat="48.8013550" lon="13.9395720">
        <ele>748.8</ele>
        <time>2019-08-06T16:51:48Z</time>
      </trkpt>
      <trkpt lat="48.8013110" lon="13.9395500">
        <ele>748.8</ele>
        <time>2019-08-06T16:51:49Z</time>
      </trkpt>
      <trkpt lat="48.8012670" lon="13.9395270">
        <ele>748.8</ele>
        <time>2019-08-06T16:51:50Z</time>
      </trkpt>
      <trkpt lat="48.8012220" lon="13.9395040">
        <ele>748.8</ele>
        <time>2019-08-06T16:51:51Z</time>
      </trkpt>
      <trkpt lat="48.8011780" lon="13.9394800">
        <ele>748.8</ele>
        <time>2019-08-06T16:51:52Z</time>
      </trkpt>
      <trkpt lat="48.8011330" lon="13.9394590">
        <ele>748.8</ele>
        <time>2019-08-06T16:51:53Z</time>
      </trkpt>
      <trkpt lat="48.8010890" lon="13.9394400">
        <ele>748.8</ele>
        <time>2019-08-06T16:51:54Z</time>
      </trkpt>
      <trkpt lat="48.8010430" lon="13.9394210">
        <ele>749.0</ele>
        <time>2019-08-06T16:51:55Z</time>
      </trkpt>
      <trkpt lat="48.8009970" lon="13.9394000">
        <ele>749.0</ele>
        <time>2019-08-06T16:51:56Z</time>
      </trkpt>
      <trkpt lat="48.8009510" lon="13.9393810">
        <ele>749.0</ele>
        <time>2019-08-06T16:51:57Z</time>
      </trkpt>
      <trkpt lat="48.8009050" lon="13.9393630">
        <ele>749.0</ele>
        <time>2019-08-06T16:51:58Z</time>
      </trkpt>
      <trkpt lat="48.8008600" lon="13.9393450">
        <ele>749.0</ele>
        <time>2019-08-06T16:51:59Z</time>
      </trkpt>
      <trkpt lat="48.8008140" lon="13.9393270">
        <ele>749.2</ele>
        <time>2019-08-06T16:52:00Z</time>
      </trkpt>
      <trkpt lat="48.8007680" lon="13.9393080">
        <ele>749.2</ele>
        <time>2019-08-06T16:52:01Z</time>
      </trkpt>
      <trkpt lat="48.8007230" lon="13.9392880">
        <ele>749.2</ele>
        <time>2019-08-06T16:52:02Z</time>
      </trkpt>
      <trkpt lat="48.8006790" lon="13.9392680">
        <ele>749.4</ele>
        <time>2019-08-06T16:52:03Z</time>
      </trkpt>
      <trkpt lat="48.8006340" lon="13.9392480">
        <ele>749.4</ele>
        <time>2019-08-06T16:52:04Z</time>
      </trkpt>
      <trkpt lat="48.8005910" lon="13.9392290">
        <ele>749.4</ele>
        <time>2019-08-06T16:52:05Z</time>
      </trkpt>
      <trkpt lat="48.8005470" lon="13.9392110">
        <ele>749.6</ele>
        <time>2019-08-06T16:52:06Z</time>
      </trkpt>
      <trkpt lat="48.8005030" lon="13.9391970">
        <ele>749.6</ele>
        <time>2019-08-06T16:52:07Z</time>
      </trkpt>
      <trkpt lat="48.8004600" lon="13.9391900">
        <ele>749.6</ele>
        <time>2019-08-06T16:52:08Z</time>
      </trkpt>
      <trkpt lat="48.8004150" lon="13.9391850">
        <ele>749.8</ele>
        <time>2019-08-06T16:52:09Z</time>
      </trkpt>
      <trkpt lat="48.8003710" lon="13.9391800">
        <ele>749.8</ele>
        <time>2019-08-06T16:52:10Z</time>
      </trkpt>
      <trkpt lat="48.8003270" lon="13.9391780">
        <ele>749.8</ele>
        <time>2019-08-06T16:52:11Z</time>
      </trkpt>
      <trkpt lat="48.8002820" lon="13.9391800">
        <ele>749.8</ele>
        <time>2019-08-06T16:52:12Z</time>
      </trkpt>
      <trkpt lat="48.8002360" lon="13.9391840">
        <ele>749.8</ele>
        <time>2019-08-06T16:52:13Z</time>
      </trkpt>
      <trkpt lat="48.8001890" lon="13.9391850">
        <ele>749.8</ele>
        <time>2019-08-06T16:52:14Z</time>
      </trkpt>
      <trkpt lat="48.8001430" lon="13.9391870">
        <ele>749.8</ele>
        <time>2019-08-06T16:52:15Z</time>
      </trkpt>
      <trkpt lat="48.8000950" lon="13.9391930">
        <ele>749.8</ele>
        <time>2019-08-06T16:52:16Z</time>
      </trkpt>
      <trkpt lat="48.8000460" lon="13.9392040">
        <ele>749.8</ele>
        <time>2019-08-06T16:52:17Z</time>
      </trkpt>
      <trkpt lat="48.7999980" lon="13.9392170">
        <ele>749.8</ele>
        <time>2019-08-06T16:52:18Z</time>
      </trkpt>
      <trkpt lat="48.7999490" lon="13.9392300">
        <ele>749.8</ele>
        <time>2019-08-06T16:52:19Z</time>
      </trkpt>
      <trkpt lat="48.7998990" lon="13.9392450">
        <ele>749.6</ele>
        <time>2019-08-06T16:52:20Z</time>
      </trkpt>
      <trkpt lat="48.7998490" lon="13.9392650">
        <ele>749.6</ele>
        <time>2019-08-06T16:52:21Z</time>
      </trkpt>
      <trkpt lat="48.7997980" lon="13.9392930">
        <ele>749.4</ele>
        <time>2019-08-06T16:52:22Z</time>
      </trkpt>
      <trkpt lat="48.7997450" lon="13.9393250">
        <ele>749.4</ele>
        <time>2019-08-06T16:52:23Z</time>
      </trkpt>
      <trkpt lat="48.7996910" lon="13.9393610">
        <ele>749.2</ele>
        <time>2019-08-06T16:52:24Z</time>
      </trkpt>
      <trkpt lat="48.7996350" lon="13.9393990">
        <ele>749.2</ele>
        <time>2019-08-06T16:52:25Z</time>
      </trkpt>
      <trkpt lat="48.7995740" lon="13.9394380">
        <ele>749.0</ele>
        <time>2019-08-06T16:52:26Z</time>
      </trkpt>
      <trkpt lat="48.7995130" lon="13.9394790">
        <ele>748.8</ele>
        <time>2019-08-06T16:52:27Z</time>
      </trkpt>
      <trkpt lat="48.7994500" lon="13.9395230">
        <ele>748.6</ele>
        <time>2019-08-06T16:52:28Z</time>
      </trkpt>
      <trkpt lat="48.7993890" lon="13.9395700">
        <ele>748.2</ele>
        <time>2019-08-06T16:52:29Z</time>
      </trkpt>
      <trkpt lat="48.7993280" lon="13.9396220">
        <ele>748.0</ele>
        <time>2019-08-06T16:52:30Z</time>
      </trkpt>
      <trkpt lat="48.7992710" lon="13.9396750">
        <ele>747.8</ele>
        <time>2019-08-06T16:52:31Z</time>
      </trkpt>
      <trkpt lat="48.7992150" lon="13.9397320">
        <ele>747.6</ele>
        <time>2019-08-06T16:52:32Z</time>
      </trkpt>
      <trkpt lat="48.7991610" lon="13.9397910">
        <ele>747.4</ele>
        <time>2019-08-06T16:52:33Z</time>
      </trkpt>
      <trkpt lat="48.7991100" lon="13.9398550">
        <ele>747.4</ele>
        <time>2019-08-06T16:52:34Z</time>
      </trkpt>
      <trkpt lat="48.7990580" lon="13.9399190">
        <ele>747.2</ele>
        <time>2019-08-06T16:52:35Z</time>
      </trkpt>
      <trkpt lat="48.7990060" lon="13.9399840">
        <ele>747.0</ele>
        <time>2019-08-06T16:52:36Z</time>
      </trkpt>
      <trkpt lat="48.7989530" lon="13.9400500">
        <ele>747.0</ele>
        <time>2019-08-06T16:52:37Z</time>
      </trkpt>
      <trkpt lat="48.7988970" lon="13.9401150">
        <ele>746.8</ele>
        <time>2019-08-06T16:52:38Z</time>
      </trkpt>
      <trkpt lat="48.7988400" lon="13.9401810">
        <ele>746.6</ele>
        <time>2019-08-06T16:52:39Z</time>
      </trkpt>
      <trkpt lat="48.7987810" lon="13.9402450">
        <ele>746.6</ele>
        <time>2019-08-06T16:52:40Z</time>
      </trkpt>
      <trkpt lat="48.7987220" lon="13.9403100">
        <ele>746.4</ele>
        <time>2019-08-06T16:52:41Z</time>
      </trkpt>
      <trkpt lat="48.7986620" lon="13.9403800">
        <ele>746.2</ele>
        <time>2019-08-06T16:52:42Z</time>
      </trkpt>
      <trkpt lat="48.7986010" lon="13.9404480">
        <ele>746.0</ele>
        <time>2019-08-06T16:52:43Z</time>
      </trkpt>
      <trkpt lat="48.7985390" lon="13.9405170">
        <ele>746.0</ele>
        <time>2019-08-06T16:52:44Z</time>
      </trkpt>
      <trkpt lat="48.7984780" lon="13.9405860">
        <ele>745.8</ele>
        <time>2019-08-06T16:52:45Z</time>
      </trkpt>
      <trkpt lat="48.7984160" lon="13.9406560">
        <ele>745.6</ele>
        <time>2019-08-06T16:52:46Z</time>
      </trkpt>
      <trkpt lat="48.7983550" lon="13.9407240">
        <ele>745.6</ele>
        <time>2019-08-06T16:52:47Z</time>
      </trkpt>
      <trkpt lat="48.7982960" lon="13.9407920">
        <ele>745.4</ele>
        <time>2019-08-06T16:52:48Z</time>
      </trkpt>
      <trkpt lat="48.7982360" lon="13.9408640">
        <ele>745.4</ele>
        <time>2019-08-06T16:52:49Z</time>
      </trkpt>
      <trkpt lat="48.7981770" lon="13.9409350">
        <ele>745.2</ele>
        <time>2019-08-06T16:52:50Z</time>
      </trkpt>
      <trkpt lat="48.7981220" lon="13.9410030">
        <ele>745.2</ele>
        <time>2019-08-06T16:52:51Z</time>
      </trkpt>
      <trkpt lat="48.7980650" lon="13.9410720">
        <ele>745.0</ele>
        <time>2019-08-06T16:52:52Z</time>
      </trkpt>
      <trkpt lat="48.7980060" lon="13.9411420">
        <ele>745.0</ele>
        <time>2019-08-06T16:52:53Z</time>
      </trkpt>
      <trkpt lat="48.7979470" lon="13.9412080">
        <ele>745.0</ele>
        <time>2019-08-06T16:52:54Z</time>
      </trkpt>
      <trkpt lat="48.7978890" lon="13.9412720">
        <ele>745.0</ele>
        <time>2019-08-06T16:52:55Z</time>
      </trkpt>
      <trkpt lat="48.7978310" lon="13.9413370">
        <ele>744.8</ele>
        <time>2019-08-06T16:52:56Z</time>
      </trkpt>
      <trkpt lat="48.7977750" lon="13.9414050">
        <ele>744.8</ele>
        <time>2019-08-06T16:52:57Z</time>
      </trkpt>
      <trkpt lat="48.7977200" lon="13.9414710">
        <ele>744.8</ele>
        <time>2019-08-06T16:52:58Z</time>
      </trkpt>
      <trkpt lat="48.7976640" lon="13.9415380">
        <ele>744.8</ele>
        <time>2019-08-06T16:52:59Z</time>
      </trkpt>
      <trkpt lat="48.7976090" lon="13.9416070">
        <ele>744.8</ele>
        <time>2019-08-06T16:53:00Z</time>
      </trkpt>
      <trkpt lat="48.7975550" lon="13.9416740">
        <ele>744.8</ele>
        <time>2019-08-06T16:53:01Z</time>
      </trkpt>
      <trkpt lat="48.7974980" lon="13.9417420">
        <ele>744.8</ele>
        <time>2019-08-06T16:53:02Z</time>
      </trkpt>
      <trkpt lat="48.7974420" lon="13.9418100">
        <ele>744.8</ele>
        <time>2019-08-06T16:53:03Z</time>
      </trkpt>
      <trkpt lat="48.7973870" lon="13.9418770">
        <ele>744.8</ele>
        <time>2019-08-06T16:53:04Z</time>
      </trkpt>
      <trkpt lat="48.7973320" lon="13.9419440">
        <ele>744.8</ele>
        <time>2019-08-06T16:53:05Z</time>
      </trkpt>
      <trkpt lat="48.7972760" lon="13.9420100">
        <ele>744.8</ele>
        <time>2019-08-06T16:53:06Z</time>
      </trkpt>
      <trkpt lat="48.7972200" lon="13.9420760">
        <ele>744.8</ele>
        <time>2019-08-06T16:53:07Z</time>
      </trkpt>
      <trkpt lat="48.7971660" lon="13.9421420">
        <ele>744.8</ele>
        <time>2019-08-06T16:53:08Z</time>
      </trkpt>
      <trkpt lat="48.7971100" lon="13.9422090">
        <ele>744.8</ele>
        <time>2019-08-06T16:53:09Z</time>
      </trkpt>
      <trkpt lat="48.7970520" lon="13.9422720">
        <ele>744.8</ele>
        <time>2019-08-06T16:53:10Z</time>
      </trkpt>
      <trkpt lat="48.7969960" lon="13.9423370">
        <ele>744.6</ele>
        <time>2019-08-06T16:53:11Z</time>
      </trkpt>
      <trkpt lat="48.7969410" lon="13.9424010">
        <ele>744.6</ele>
        <time>2019-08-06T16:53:12Z</time>
      </trkpt>
      <trkpt lat="48.7968880" lon="13.9424690">
        <ele>744.8</ele>
        <time>2019-08-06T16:53:13Z</time>
      </trkpt>
      <trkpt lat="48.7968350" lon="13.9425380">
        <ele>744.8</ele>
        <time>2019-08-06T16:53:14Z</time>
      </trkpt>
      <trkpt lat="48.7967810" lon="13.9426050">
        <ele>744.8</ele>
        <time>2019-08-06T16:53:15Z</time>
      </trkpt>
      <trkpt lat="48.7967230" lon="13.9426700">
        <ele>744.8</ele>
        <time>2019-08-06T16:53:16Z</time>
      </trkpt>
      <trkpt lat="48.7966660" lon="13.9427350">
        <ele>744.8</ele>
        <time>2019-08-06T16:53:17Z</time>
      </trkpt>
      <trkpt lat="48.7966110" lon="13.9427990">
        <ele>744.8</ele>
        <time>2019-08-06T16:53:18Z</time>
      </trkpt>
      <trkpt lat="48.7965560" lon="13.9428640">
        <ele>744.8</ele>
        <time>2019-08-06T16:53:19Z</time>
      </trkpt>
      <trkpt lat="48.7965000" lon="13.9429240">
        <ele>744.8</ele>
        <time>2019-08-06T16:53:20Z</time>
      </trkpt>
      <trkpt lat="48.7964420" lon="13.9429800">
        <ele>744.8</ele>
        <time>2019-08-06T16:53:21Z</time>
      </trkpt>
      <trkpt lat="48.7963850" lon="13.9430400">
        <ele>744.8</ele>
        <time>2019-08-06T16:53:22Z</time>
      </trkpt>
      <trkpt lat="48.7963280" lon="13.9431020">
        <ele>744.8</ele>
        <time>2019-08-06T16:53:23Z</time>
      </trkpt>
      <trkpt lat="48.7962720" lon="13.9431640">
        <ele>744.8</ele>
        <time>2019-08-06T16:53:24Z</time>
      </trkpt>
      <trkpt lat="48.7962180" lon="13.9432260">
        <ele>744.8</ele>
        <time>2019-08-06T16:53:25Z</time>
      </trkpt>
      <trkpt lat="48.7961640" lon="13.9432880">
        <ele>745.0</ele>
        <time>2019-08-06T16:53:26Z</time>
      </trkpt>
      <trkpt lat="48.7961100" lon="13.9433490">
        <ele>744.8</ele>
        <time>2019-08-06T16:53:27Z</time>
      </trkpt>
      <trkpt lat="48.7960560" lon="13.9434120">
        <ele>744.8</ele>
        <time>2019-08-06T16:53:28Z</time>
      </trkpt>
      <trkpt lat="48.7960030" lon="13.9434760">
        <ele>744.8</ele>
        <time>2019-08-06T16:53:29Z</time>
      </trkpt>
      <trkpt lat="48.7959510" lon="13.9435380">
        <ele>744.8</ele>
        <time>2019-08-06T16:53:30Z</time>
      </trkpt>
      <trkpt lat="48.7958950" lon="13.9435980">
        <ele>744.8</ele>
        <time>2019-08-06T16:53:31Z</time>
      </trkpt>
      <trkpt lat="48.7958380" lon="13.9436600">
        <ele>744.8</ele>
        <time>2019-08-06T16:53:32Z</time>
      </trkpt>
      <trkpt lat="48.7957840" lon="13.9437250">
        <ele>744.8</ele>
        <time>2019-08-06T16:53:33Z</time>
      </trkpt>
      <trkpt lat="48.7957330" lon="13.9437870">
        <ele>744.8</ele>
        <time>2019-08-06T16:53:34Z</time>
      </trkpt>
      <trkpt lat="48.7956840" lon="13.9438450">
        <ele>744.8</ele>
        <time>2019-08-06T16:53:35Z</time>
      </trkpt>
      <trkpt lat="48.7956310" lon="13.9439100">
        <ele>744.8</ele>
        <time>2019-08-06T16:53:36Z</time>
      </trkpt>
      <trkpt lat="48.7955780" lon="13.9439770">
        <ele>744.8</ele>
        <time>2019-08-06T16:53:37Z</time>
      </trkpt>
      <trkpt lat="48.7955290" lon="13.9440420">
        <ele>744.8</ele>
        <time>2019-08-06T16:53:38Z</time>
      </trkpt>
      <trkpt lat="48.7954770" lon="13.9441090">
        <ele>744.8</ele>
        <time>2019-08-06T16:53:39Z</time>
      </trkpt>
      <trkpt lat="48.7954250" lon="13.9441740">
        <ele>744.8</ele>
        <time>2019-08-06T16:53:40Z</time>
      </trkpt>
      <trkpt lat="48.7953710" lon="13.9442390">
        <ele>744.8</ele>
        <time>2019-08-06T16:53:41Z</time>
      </trkpt>
      <trkpt lat="48.7953150" lon="13.9443000">
        <ele>744.8</ele>
        <time>2019-08-06T16:53:42Z</time>
      </trkpt>
      <trkpt lat="48.7952630" lon="13.9443600">
        <ele>744.8</ele>
        <time>2019-08-06T16:53:43Z</time>
      </trkpt>
      <trkpt lat="48.7952120" lon="13.9444210">
        <ele>744.8</ele>
        <time>2019-08-06T16:53:44Z</time>
      </trkpt>
      <trkpt lat="48.7951620" lon="13.9444860">
        <ele>744.8</ele>
        <time>2019-08-06T16:53:45Z</time>
      </trkpt>
      <trkpt lat="48.7951110" lon="13.9445510">
        <ele>744.8</ele>
        <time>2019-08-06T16:53:46Z</time>
      </trkpt>
      <trkpt lat="48.7950590" lon="13.9446160">
        <ele>745.0</ele>
        <time>2019-08-06T16:53:47Z</time>
      </trkpt>
      <trkpt lat="48.7950080" lon="13.9446790">
        <ele>745.0</ele>
        <time>2019-08-06T16:53:48Z</time>
      </trkpt>
      <trkpt lat="48.7949550" lon="13.9447370">
        <ele>745.0</ele>
        <time>2019-08-06T16:53:49Z</time>
      </trkpt>
      <trkpt lat="48.7949030" lon="13.9447950">
        <ele>745.0</ele>
        <time>2019-08-06T16:53:50Z</time>
      </trkpt>
      <trkpt lat="48.7948550" lon="13.9448540">
        <ele>745.0</ele>
        <time>2019-08-06T16:53:51Z</time>
      </trkpt>
      <trkpt lat="48.7948080" lon="13.9449130">
        <ele>745.0</ele>
        <time>2019-08-06T16:53:52Z</time>
      </trkpt>
      <trkpt lat="48.7947590" lon="13.9449740">
        <ele>745.0</ele>
        <time>2019-08-06T16:53:53Z</time>
      </trkpt>
      <trkpt lat="48.7947070" lon="13.9450370">
        <ele>745.0</ele>
        <time>2019-08-06T16:53:54Z</time>
      </trkpt>
      <trkpt lat="48.7946570" lon="13.9451000">
        <ele>745.0</ele>
        <time>2019-08-06T16:53:55Z</time>
      </trkpt>
      <trkpt lat="48.7946080" lon="13.9451630">
        <ele>745.0</ele>
        <time>2019-08-06T16:53:56Z</time>
      </trkpt>
      <trkpt lat="48.7945580" lon="13.9452270">
        <ele>745.0</ele>
        <time>2019-08-06T16:53:57Z</time>
      </trkpt>
      <trkpt lat="48.7945090" lon="13.9452900">
        <ele>745.0</ele>
        <time>2019-08-06T16:53:58Z</time>
      </trkpt>
      <trkpt lat="48.7944590" lon="13.9453530">
        <ele>745.0</ele>
        <time>2019-08-06T16:53:59Z</time>
      </trkpt>
      <trkpt lat="48.7944080" lon="13.9454120">
        <ele>745.0</ele>
        <time>2019-08-06T16:54:00Z</time>
      </trkpt>
      <trkpt lat="48.7943580" lon="13.9454700">
        <ele>745.0</ele>
        <time>2019-08-06T16:54:01Z</time>
      </trkpt>
      <trkpt lat="48.7943110" lon="13.9455270">
        <ele>745.0</ele>
        <time>2019-08-06T16:54:02Z</time>
      </trkpt>
      <trkpt lat="48.7942660" lon="13.9455830">
        <ele>745.0</ele>
        <time>2019-08-06T16:54:03Z</time>
      </trkpt>
      <trkpt lat="48.7942240" lon="13.9456380">
        <ele>745.0</ele>
        <time>2019-08-06T16:54:04Z</time>
      </trkpt>
      <trkpt lat="48.7941810" lon="13.9456950">
        <ele>745.0</ele>
        <time>2019-08-06T16:54:05Z</time>
      </trkpt>
      <trkpt lat="48.7941380" lon="13.9457520">
        <ele>745.0</ele>
        <time>2019-08-06T16:54:06Z</time>
      </trkpt>
      <trkpt lat="48.7940940" lon="13.9458090">
        <ele>745.2</ele>
        <time>2019-08-06T16:54:07Z</time>
      </trkpt>
      <trkpt lat="48.7940470" lon="13.9458650">
        <ele>745.2</ele>
        <time>2019-08-06T16:54:08Z</time>
      </trkpt>
      <trkpt lat="48.7940020" lon="13.9459220">
        <ele>745.2</ele>
        <time>2019-08-06T16:54:09Z</time>
      </trkpt>
      <trkpt lat="48.7939580" lon="13.9459800">
        <ele>745.2</ele>
        <time>2019-08-06T16:54:10Z</time>
      </trkpt>
      <trkpt lat="48.7939140" lon="13.9460350">
        <ele>745.2</ele>
        <time>2019-08-06T16:54:11Z</time>
      </trkpt>
      <trkpt lat="48.7938690" lon="13.9460870">
        <ele>745.2</ele>
        <time>2019-08-06T16:54:12Z</time>
      </trkpt>
      <trkpt lat="48.7938240" lon="13.9461390">
        <ele>745.2</ele>
        <time>2019-08-06T16:54:13Z</time>
      </trkpt>
      <trkpt lat="48.7937810" lon="13.9461900">
        <ele>745.2</ele>
        <time>2019-08-06T16:54:14Z</time>
      </trkpt>
      <trkpt lat="48.7937390" lon="13.9462380">
        <ele>745.2</ele>
        <time>2019-08-06T16:54:15Z</time>
      </trkpt>
      <trkpt lat="48.7936950" lon="13.9462890">
        <ele>745.2</ele>
        <time>2019-08-06T16:54:16Z</time>
      </trkpt>
      <trkpt lat="48.7936510" lon="13.9463420">
        <ele>745.2</ele>
        <time>2019-08-06T16:54:17Z</time>
      </trkpt>
      <trkpt lat="48.7936060" lon="13.9464000">
        <ele>745.2</ele>
        <time>2019-08-06T16:54:18Z</time>
      </trkpt>
      <trkpt lat="48.7935610" lon="13.9464570">
        <ele>745.2</ele>
        <time>2019-08-06T16:54:19Z</time>
      </trkpt>
      <trkpt lat="48.7935140" lon="13.9465120">
        <ele>745.2</ele>
        <time>2019-08-06T16:54:20Z</time>
      </trkpt>
      <trkpt lat="48.7934650" lon="13.9465630">
        <ele>745.2</ele>
        <time>2019-08-06T16:54:21Z</time>
      </trkpt>
      <trkpt lat="48.7934130" lon="13.9466170">
        <ele>745.2</ele>
        <time>2019-08-06T16:54:22Z</time>
      </trkpt>
      <trkpt lat="48.7933630" lon="13.9466720">
        <ele>745.2</ele>
        <time>2019-08-06T16:54:23Z</time>
      </trkpt>
      <trkpt lat="48.7933150" lon="13.9467250">
        <ele>745.2</ele>
        <time>2019-08-06T16:54:24Z</time>
      </trkpt>
      <trkpt lat="48.7932680" lon="13.9467800">
        <ele>745.2</ele>
        <time>2019-08-06T16:54:25Z</time>
      </trkpt>
      <trkpt lat="48.7932200" lon="13.9468330">
        <ele>745.0</ele>
        <time>2019-08-06T16:54:26Z</time>
      </trkpt>
      <trkpt lat="48.7931700" lon="13.9468850">
        <ele>745.0</ele>
        <time>2019-08-06T16:54:27Z</time>
      </trkpt>
      <trkpt lat="48.7931210" lon="13.9469400">
        <ele>745.2</ele>
        <time>2019-08-06T16:54:28Z</time>
      </trkpt>
      <trkpt lat="48.7930720" lon="13.9469980">
        <ele>745.2</ele>
        <time>2019-08-06T16:54:29Z</time>
      </trkpt>
      <trkpt lat="48.7930230" lon="13.9470580">
        <ele>745.2</ele>
        <time>2019-08-06T16:54:30Z</time>
      </trkpt>
      <trkpt lat="48.7929750" lon="13.9471160">
        <ele>745.2</ele>
        <time>2019-08-06T16:54:31Z</time>
      </trkpt>
      <trkpt lat="48.7929240" lon="13.9471700">
        <ele>745.0</ele>
        <time>2019-08-06T16:54:32Z</time>
      </trkpt>
      <trkpt lat="48.7928730" lon="13.9472240">
        <ele>745.2</ele>
        <time>2019-08-06T16:54:33Z</time>
      </trkpt>
      <trkpt lat="48.7928230" lon="13.9472760">
        <ele>745.2</ele>
        <time>2019-08-06T16:54:34Z</time>
      </trkpt>
      <trkpt lat="48.7927760" lon="13.9473290">
        <ele>745.2</ele>
        <time>2019-08-06T16:54:35Z</time>
      </trkpt>
      <trkpt lat="48.7927290" lon="13.9473850">
        <ele>745.2</ele>
        <time>2019-08-06T16:54:36Z</time>
      </trkpt>
      <trkpt lat="48.7926830" lon="13.9474440">
        <ele>745.2</ele>
        <time>2019-08-06T16:54:37Z</time>
      </trkpt>
      <trkpt lat="48.7926370" lon="13.9475010">
        <ele>745.2</ele>
        <time>2019-08-06T16:54:38Z</time>
      </trkpt>
      <trkpt lat="48.7925910" lon="13.9475590">
        <ele>745.0</ele>
        <time>2019-08-06T16:54:39Z</time>
      </trkpt>
      <trkpt lat="48.7925440" lon="13.9476170">
        <ele>745.0</ele>
        <time>2019-08-06T16:54:40Z</time>
      </trkpt>
      <trkpt lat="48.7924970" lon="13.9476740">
        <ele>745.0</ele>
        <time>2019-08-06T16:54:41Z</time>
      </trkpt>
      <trkpt lat="48.7924490" lon="13.9477310">
        <ele>745.0</ele>
        <time>2019-08-06T16:54:42Z</time>
      </trkpt>
      <trkpt lat="48.7924010" lon="13.9477890">
        <ele>745.0</ele>
        <time>2019-08-06T16:54:43Z</time>
      </trkpt>
      <trkpt lat="48.7923540" lon="13.9478450">
        <ele>745.0</ele>
        <time>2019-08-06T16:54:44Z</time>
      </trkpt>
      <trkpt lat="48.7923070" lon="13.9479000">
        <ele>745.0</ele>
        <time>2019-08-06T16:54:45Z</time>
      </trkpt>
      <trkpt lat="48.7922590" lon="13.9479540">
        <ele>745.0</ele>
        <time>2019-08-06T16:54:46Z</time>
      </trkpt>
      <trkpt lat="48.7922140" lon="13.9480080">
        <ele>745.0</ele>
        <time>2019-08-06T16:54:47Z</time>
      </trkpt>
      <trkpt lat="48.7921580" lon="13.9480640">
        <ele>745.0</ele>
        <time>2019-08-06T16:54:48Z</time>
      </trkpt>
      <trkpt lat="48.7920980" lon="13.9481210">
        <ele>745.0</ele>
        <time>2019-08-06T16:54:49Z</time>
      </trkpt>
      <trkpt lat="48.7920370" lon="13.9481780">
        <ele>745.0</ele>
        <time>2019-08-06T16:54:50Z</time>
      </trkpt>
      <trkpt lat="48.7920010" lon="13.9482320">
        <ele>745.0</ele>
        <time>2019-08-06T16:54:51Z</time>
      </trkpt>
      <trkpt lat="48.7919560" lon="13.9483000">
        <ele>745.0</ele>
        <time>2019-08-06T16:54:52Z</time>
      </trkpt>
      <trkpt lat="48.7919170" lon="13.9483510">
        <ele>745.0</ele>
        <time>2019-08-06T16:54:53Z</time>
      </trkpt>
      <trkpt lat="48.7918850" lon="13.9483920">
        <ele>745.0</ele>
        <time>2019-08-06T16:54:54Z</time>
      </trkpt>
      <trkpt lat="48.7918540" lon="13.9484350">
        <ele>745.0</ele>
        <time>2019-08-06T16:54:55Z</time>
      </trkpt>
      <trkpt lat="48.7918230" lon="13.9484830">
        <ele>745.0</ele>
        <time>2019-08-06T16:54:56Z</time>
      </trkpt>
      <trkpt lat="48.7917880" lon="13.9485280">
        <ele>745.0</ele>
        <time>2019-08-06T16:54:57Z</time>
      </trkpt>
      <trkpt lat="48.7917500" lon="13.9485730">
        <ele>745.0</ele>
        <time>2019-08-06T16:54:58Z</time>
      </trkpt>
      <trkpt lat="48.7917100" lon="13.9486180">
        <ele>745.0</ele>
        <time>2019-08-06T16:54:59Z</time>
      </trkpt>
      <trkpt lat="48.7916720" lon="13.9486580">
        <ele>745.0</ele>
        <time>2019-08-06T16:55:00Z</time>
      </trkpt>
      <trkpt lat="48.7916350" lon="13.9486900">
        <ele>745.0</ele>
        <time>2019-08-06T16:55:01Z</time>
      </trkpt>
      <trkpt lat="48.7916020" lon="13.9487170">
        <ele>745.0</ele>
        <time>2019-08-06T16:55:02Z</time>
      </trkpt>
      <trkpt lat="48.7915750" lon="13.9487410">
        <ele>745.0</ele>
        <time>2019-08-06T16:55:03Z</time>
      </trkpt>
      <trkpt lat="48.7915510" lon="13.9487620">
        <ele>745.0</ele>
        <time>2019-08-06T16:55:04Z</time>
      </trkpt>
      <trkpt lat="48.7915300" lon="13.9487810">
        <ele>745.0</ele>
        <time>2019-08-06T16:55:05Z</time>
      </trkpt>
      <trkpt lat="48.7915130" lon="13.9488000">
        <ele>745.0</ele>
        <time>2019-08-06T16:55:06Z</time>
      </trkpt>
      <trkpt lat="48.7914980" lon="13.9488190">
        <ele>745.0</ele>
        <time>2019-08-06T16:55:07Z</time>
      </trkpt>
      <trkpt lat="48.7914840" lon="13.9488330">
        <ele>745.0</ele>
        <time>2019-08-06T16:55:08Z</time>
      </trkpt>
      <trkpt lat="48.7914730" lon="13.9488410">
        <ele>745.0</ele>
        <time>2019-08-06T16:55:09Z</time>
      </trkpt>
      <trkpt lat="48.7914670" lon="13.9488440">
        <ele>745.0</ele>
        <time>2019-08-06T16:55:10Z</time>
      </trkpt>
      <trkpt lat="48.7914650" lon="13.9488460">
        <ele>745.0</ele>
        <time>2019-08-06T16:55:11Z</time>
      </trkpt>
      <trkpt lat="48.7914640" lon="13.9488480">
        <ele>745.0</ele>
        <time>2019-08-06T16:55:12Z</time>
      </trkpt>
      <trkpt lat="48.7914630" lon="13.9488480">
        <ele>745.0</ele>
        <time>2019-08-06T16:55:13Z</time>
      </trkpt>
      <trkpt lat="48.7914630" lon="13.9488490">
        <ele>745.0</ele>
        <time>2019-08-06T16:55:14Z</time>
      </trkpt>
      <trkpt lat="48.7914660" lon="13.9488590">
        <ele>745.0</ele>
        <time>2019-08-06T16:55:52Z</time>
      </trkpt>
      <trkpt lat="48.7914570" lon="13.9488690">
        <ele>745.0</ele>
        <time>2019-08-06T16:55:53Z</time>
      </trkpt>
      <trkpt lat="48.7914440" lon="13.9488860">
        <ele>745.0</ele>
        <time>2019-08-06T16:55:54Z</time>
      </trkpt>
      <trkpt lat="48.7914310" lon="13.9489040">
        <ele>745.0</ele>
        <time>2019-08-06T16:55:55Z</time>
      </trkpt>
      <trkpt lat="48.7914170" lon="13.9489230">
        <ele>745.0</ele>
        <time>2019-08-06T16:55:56Z</time>
      </trkpt>
      <trkpt lat="48.7913990" lon="13.9489430">
        <ele>745.0</ele>
        <time>2019-08-06T16:55:57Z</time>
      </trkpt>
      <trkpt lat="48.7913810" lon="13.9489630">
        <ele>745.0</ele>
        <time>2019-08-06T16:55:58Z</time>
      </trkpt>
      <trkpt lat="48.7913640" lon="13.9489850">
        <ele>745.2</ele>
        <time>2019-08-06T16:55:59Z</time>
      </trkpt>
      <trkpt lat="48.7913460" lon="13.9490060">
        <ele>745.2</ele>
        <time>2019-08-06T16:56:00Z</time>
      </trkpt>
      <trkpt lat="48.7913290" lon="13.9490280">
        <ele>745.2</ele>
        <time>2019-08-06T16:56:01Z</time>
      </trkpt>
      <trkpt lat="48.7913110" lon="13.9490480">
        <ele>745.2</ele>
        <time>2019-08-06T16:56:02Z</time>
      </trkpt>
      <trkpt lat="48.7912930" lon="13.9490670">
        <ele>745.2</ele>
        <time>2019-08-06T16:56:03Z</time>
      </trkpt>
      <trkpt lat="48.7912760" lon="13.9490860">
        <ele>745.2</ele>
        <time>2019-08-06T16:56:04Z</time>
      </trkpt>
      <trkpt lat="48.7912610" lon="13.9491040">
        <ele>745.2</ele>
        <time>2019-08-06T16:56:05Z</time>
      </trkpt>
      <trkpt lat="48.7912490" lon="13.9491200">
        <ele>745.2</ele>
        <time>2019-08-06T16:56:06Z</time>
      </trkpt>
      <trkpt lat="48.7912370" lon="13.9491310">
        <ele>745.2</ele>
        <time>2019-08-06T16:56:07Z</time>
      </trkpt>
      <trkpt lat="48.7912270" lon="13.9491380">
        <ele>745.4</ele>
        <time>2019-08-06T16:56:08Z</time>
      </trkpt>
      <trkpt lat="48.7912180" lon="13.9491440">
        <ele>745.4</ele>
        <time>2019-08-06T16:56:09Z</time>
      </trkpt>
      <trkpt lat="48.7912120" lon="13.9491500">
        <ele>745.4</ele>
        <time>2019-08-06T16:56:10Z</time>
      </trkpt>
      <trkpt lat="48.7912090" lon="13.9491520">
        <ele>745.4</ele>
        <time>2019-08-06T16:56:11Z</time>
      </trkpt>
      <trkpt lat="48.7912080" lon="13.9491520">
        <ele>745.4</ele>
        <time>2019-08-06T16:56:12Z</time>
      </trkpt>
      <trkpt lat="48.7912070" lon="13.9491530">
        <ele>745.4</ele>
        <time>2019-08-06T16:56:13Z</time>
      </trkpt>
      <trkpt lat="48.7912070" lon="13.9491530">
        <ele>745.4</ele>
        <time>2019-08-06T16:56:14Z</time>
      </trkpt>
      <trkpt lat="48.7912070" lon="13.9491530">
        <ele>745.4</ele>
        <time>2019-08-06T16:56:15Z</time>
      </trkpt>
      <trkpt lat="48.7912070" lon="13.9491530">
        <ele>745.4</ele>
        <time>2019-08-06T16:56:16Z</time>
      </trkpt>
      <trkpt lat="48.7912070" lon="13.9491530">
        <ele>745.4</ele>
        <time>2019-08-06T16:56:17Z</time>
      </trkpt>
      <trkpt lat="48.7912070" lon="13.9491530">
        <ele>745.4</ele>
        <time>2019-08-06T16:56:18Z</time>
      </trkpt>
      <trkpt lat="48.7913280" lon="13.9490780">
        <ele>745.4</ele>
        <time>2019-08-06T17:00:18Z</time>
      </trkpt>
      <trkpt lat="48.7913510" lon="13.9490560">
        <ele>745.4</ele>
        <time>2019-08-06T17:00:19Z</time>
      </trkpt>
      <trkpt lat="48.7913770" lon="13.9490380">
        <ele>745.4</ele>
        <time>2019-08-06T17:00:20Z</time>
      </trkpt>
      <trkpt lat="48.7914090" lon="13.9490280">
        <ele>745.2</ele>
        <time>2019-08-06T17:00:21Z</time>
      </trkpt>
      <trkpt lat="48.7914450" lon="13.9490340">
        <ele>745.2</ele>
        <time>2019-08-06T17:00:22Z</time>
      </trkpt>
      <trkpt lat="48.7914780" lon="13.9490590">
        <ele>745.2</ele>
        <time>2019-08-06T17:00:23Z</time>
      </trkpt>
      <trkpt lat="48.7915070" lon="13.9491010">
        <ele>745.2</ele>
        <time>2019-08-06T17:00:24Z</time>
      </trkpt>
      <trkpt lat="48.7915350" lon="13.9491520">
        <ele>745.2</ele>
        <time>2019-08-06T17:00:25Z</time>
      </trkpt>
      <trkpt lat="48.7915630" lon="13.9492070">
        <ele>745.2</ele>
        <time>2019-08-06T17:00:26Z</time>
      </trkpt>
      <trkpt lat="48.7915940" lon="13.9492640">
        <ele>745.2</ele>
        <time>2019-08-06T17:00:27Z</time>
      </trkpt>
      <trkpt lat="48.7916270" lon="13.9493210">
        <ele>745.2</ele>
        <time>2019-08-06T17:00:28Z</time>
      </trkpt>
      <trkpt lat="48.7916620" lon="13.9493780">
        <ele>745.2</ele>
        <time>2019-08-06T17:00:29Z</time>
      </trkpt>
      <trkpt lat="48.7916970" lon="13.9494330">
        <ele>745.2</ele>
        <time>2019-08-06T17:00:30Z</time>
      </trkpt>
      <trkpt lat="48.7917330" lon="13.9494880">
        <ele>745.2</ele>
        <time>2019-08-06T17:00:31Z</time>
      </trkpt>
      <trkpt lat="48.7917710" lon="13.9495420">
        <ele>745.2</ele>
        <time>2019-08-06T17:00:32Z</time>
      </trkpt>
      <trkpt lat="48.7918100" lon="13.9495940">
        <ele>745.2</ele>
        <time>2019-08-06T17:00:33Z</time>
      </trkpt>
      <trkpt lat="48.7918490" lon="13.9496440">
        <ele>745.2</ele>
        <time>2019-08-06T17:00:34Z</time>
      </trkpt>
      <trkpt lat="48.7918870" lon="13.9496890">
        <ele>745.4</ele>
        <time>2019-08-06T17:00:35Z</time>
      </trkpt>
      <trkpt lat="48.7919250" lon="13.9497290">
        <ele>745.4</ele>
        <time>2019-08-06T17:00:36Z</time>
      </trkpt>
      <trkpt lat="48.7919600" lon="13.9497660">
        <ele>745.4</ele>
        <time>2019-08-06T17:00:37Z</time>
      </trkpt>
      <trkpt lat="48.7919950" lon="13.9498030">
        <ele>745.6</ele>
        <time>2019-08-06T17:00:38Z</time>
      </trkpt>
      <trkpt lat="48.7920300" lon="13.9498390">
        <ele>745.6</ele>
        <time>2019-08-06T17:00:39Z</time>
      </trkpt>
      <trkpt lat="48.7920640" lon="13.9498750">
        <ele>745.8</ele>
        <time>2019-08-06T17:00:40Z</time>
      </trkpt>
      <trkpt lat="48.7920970" lon="13.9499090">
        <ele>745.8</ele>
        <time>2019-08-06T17:00:41Z</time>
      </trkpt>
      <trkpt lat="48.7921310" lon="13.9499430">
        <ele>746.0</ele>
        <time>2019-08-06T17:00:42Z</time>
      </trkpt>
      <trkpt lat="48.7921660" lon="13.9499780">
        <ele>746.2</ele>
        <time>2019-08-06T17:00:43Z</time>
      </trkpt>
      <trkpt lat="48.7922010" lon="13.9500120">
        <ele>746.2</ele>
        <time>2019-08-06T17:00:44Z</time>
      </trkpt>
      <trkpt lat="48.7922370" lon="13.9500450">
        <ele>746.4</ele>
        <time>2019-08-06T17:00:45Z</time>
      </trkpt>
      <trkpt lat="48.7922750" lon="13.9500760">
        <ele>746.4</ele>
        <time>2019-08-06T17:00:46Z</time>
      </trkpt>
      <trkpt lat="48.7923130" lon="13.9501080">
        <ele>746.6</ele>
        <time>2019-08-06T17:00:47Z</time>
      </trkpt>
      <trkpt lat="48.7923480" lon="13.9501380">
        <ele>746.6</ele>
        <time>2019-08-06T17:00:48Z</time>
      </trkpt>
      <trkpt lat="48.7923820" lon="13.9501670">
        <ele>746.8</ele>
        <time>2019-08-06T17:00:49Z</time>
      </trkpt>
      <trkpt lat="48.7924140" lon="13.9501940">
        <ele>746.8</ele>
        <time>2019-08-06T17:00:50Z</time>
      </trkpt>
      <trkpt lat="48.7924450" lon="13.9502200">
        <ele>747.0</ele>
        <time>2019-08-06T17:00:51Z</time>
      </trkpt>
      <trkpt lat="48.7924740" lon="13.9502450">
        <ele>747.0</ele>
        <time>2019-08-06T17:00:52Z</time>
      </trkpt>
      <trkpt lat="48.7925000" lon="13.9502700">
        <ele>747.0</ele>
        <time>2019-08-06T17:00:53Z</time>
      </trkpt>
      <trkpt lat="48.7925250" lon="13.9502940">
        <ele>747.2</ele>
        <time>2019-08-06T17:00:54Z</time>
      </trkpt>
      <trkpt lat="48.7925490" lon="13.9503160">
        <ele>747.2</ele>
        <time>2019-08-06T17:00:55Z</time>
      </trkpt>
      <trkpt lat="48.7925700" lon="13.9503340">
        <ele>747.2</ele>
        <time>2019-08-06T17:00:56Z</time>
      </trkpt>
      <trkpt lat="48.7925890" lon="13.9503500">
        <ele>747.2</ele>
        <time>2019-08-06T17:00:57Z</time>
      </trkpt>
      <trkpt lat="48.7926060" lon="13.9503650">
        <ele>747.2</ele>
        <time>2019-08-06T17:00:58Z</time>
      </trkpt>
      <trkpt lat="48.7926210" lon="13.9503780">
        <ele>747.4</ele>
        <time>2019-08-06T17:00:59Z</time>
      </trkpt>
      <trkpt lat="48.7926370" lon="13.9503940">
        <ele>747.4</ele>
        <time>2019-08-06T17:01:00Z</time>
      </trkpt>
      <trkpt lat="48.7926550" lon="13.9504100">
        <ele>747.4</ele>
        <time>2019-08-06T17:01:01Z</time>
      </trkpt>
      <trkpt lat="48.7926750" lon="13.9504250">
        <ele>747.4</ele>
        <time>2019-08-06T17:01:02Z</time>
      </trkpt>
      <trkpt lat="48.7926940" lon="13.9504390">
        <ele>747.4</ele>
        <time>2019-08-06T17:01:03Z</time>
      </trkpt>
      <trkpt lat="48.7927130" lon="13.9504520">
        <ele>747.4</ele>
        <time>2019-08-06T17:01:04Z</time>
      </trkpt>
      <trkpt lat="48.7927330" lon="13.9504640">
        <ele>747.4</ele>
        <time>2019-08-06T17:01:05Z</time>
      </trkpt>
      <trkpt lat="48.7927520" lon="13.9504780">
        <ele>747.4</ele>
        <time>2019-08-06T17:01:06Z</time>
      </trkpt>
      <trkpt lat="48.7927710" lon="13.9504970">
        <ele>747.6</ele>
        <time>2019-08-06T17:01:07Z</time>
      </trkpt>
      <trkpt lat="48.7927900" lon="13.9505180">
        <ele>747.6</ele>
        <time>2019-08-06T17:01:08Z</time>
      </trkpt>
      <trkpt lat="48.7928100" lon="13.9505380">
        <ele>747.6</ele>
        <time>2019-08-06T17:01:09Z</time>
      </trkpt>
      <trkpt lat="48.7928300" lon="13.9505580">
        <ele>747.6</ele>
        <time>2019-08-06T17:01:10Z</time>
      </trkpt>
      <trkpt lat="48.7928500" lon="13.9505780">
        <ele>747.6</ele>
        <time>2019-08-06T17:01:11Z</time>
      </trkpt>
      <trkpt lat="48.7928690" lon="13.9505970">
        <ele>747.6</ele>
        <time>2019-08-06T17:01:12Z</time>
      </trkpt>
      <trkpt lat="48.7928870" lon="13.9506160">
        <ele>747.6</ele>
        <time>2019-08-06T17:01:13Z</time>
      </trkpt>
      <trkpt lat="48.7929060" lon="13.9506340">
        <ele>747.6</ele>
        <time>2019-08-06T17:01:14Z</time>
      </trkpt>
      <trkpt lat="48.7929230" lon="13.9506500">
        <ele>747.6</ele>
        <time>2019-08-06T17:01:15Z</time>
      </trkpt>
      <trkpt lat="48.7929390" lon="13.9506660">
        <ele>747.6</ele>
        <time>2019-08-06T17:01:16Z</time>
      </trkpt>
      <trkpt lat="48.7929560" lon="13.9506820">
        <ele>747.6</ele>
        <time>2019-08-06T17:01:17Z</time>
      </trkpt>
      <trkpt lat="48.7929720" lon="13.9506990">
        <ele>747.6</ele>
        <time>2019-08-06T17:01:18Z</time>
      </trkpt>
      <trkpt lat="48.7929870" lon="13.9507170">
        <ele>747.6</ele>
        <time>2019-08-06T17:01:19Z</time>
      </trkpt>
      <trkpt lat="48.7930020" lon="13.9507360">
        <ele>747.6</ele>
        <time>2019-08-06T17:01:20Z</time>
      </trkpt>
      <trkpt lat="48.7930190" lon="13.9507540">
        <ele>747.8</ele>
        <time>2019-08-06T17:01:21Z</time>
      </trkpt>
      <trkpt lat="48.7930360" lon="13.9507710">
        <ele>747.8</ele>
        <time>2019-08-06T17:01:22Z</time>
      </trkpt>
      <trkpt lat="48.7930550" lon="13.9507880">
        <ele>747.8</ele>
        <time>2019-08-06T17:01:23Z</time>
      </trkpt>
      <trkpt lat="48.7930750" lon="13.9508050">
        <ele>747.8</ele>
        <time>2019-08-06T17:01:24Z</time>
      </trkpt>
      <trkpt lat="48.7930950" lon="13.9508210">
        <ele>747.8</ele>
        <time>2019-08-06T17:01:25Z</time>
      </trkpt>
      <trkpt lat="48.7931140" lon="13.9508390">
        <ele>747.8</ele>
        <time>2019-08-06T17:01:26Z</time>
      </trkpt>
      <trkpt lat="48.7931330" lon="13.9508590">
        <ele>747.8</ele>
        <time>2019-08-06T17:01:27Z</time>
      </trkpt>
      <trkpt lat="48.7931530" lon="13.9508790">
        <ele>747.8</ele>
        <time>2019-08-06T17:01:28Z</time>
      </trkpt>
      <trkpt lat="48.7931740" lon="13.9508970">
        <ele>747.8</ele>
        <time>2019-08-06T17:01:29Z</time>
      </trkpt>
      <trkpt lat="48.7931960" lon="13.9509190">
        <ele>747.8</ele>
        <time>2019-08-06T17:01:30Z</time>
      </trkpt>
      <trkpt lat="48.7932170" lon="13.9509410">
        <ele>747.8</ele>
        <time>2019-08-06T17:01:31Z</time>
      </trkpt>
      <trkpt lat="48.7932390" lon="13.9509590">
        <ele>747.8</ele>
        <time>2019-08-06T17:01:32Z</time>
      </trkpt>
      <trkpt lat="48.7932610" lon="13.9509760">
        <ele>747.8</ele>
        <time>2019-08-06T17:01:33Z</time>
      </trkpt>
      <trkpt lat="48.7932830" lon="13.9509950">
        <ele>748.0</ele>
        <time>2019-08-06T17:01:34Z</time>
      </trkpt>
      <trkpt lat="48.7933030" lon="13.9510170">
        <ele>748.0</ele>
        <time>2019-08-06T17:01:35Z</time>
      </trkpt>
      <trkpt lat="48.7933230" lon="13.9510390">
        <ele>748.0</ele>
        <time>2019-08-06T17:01:36Z</time>
      </trkpt>
      <trkpt lat="48.7933440" lon="13.9510590">
        <ele>748.0</ele>
        <time>2019-08-06T17:01:37Z</time>
      </trkpt>
      <trkpt lat="48.7933660" lon="13.9510770">
        <ele>748.0</ele>
        <time>2019-08-06T17:01:38Z</time>
      </trkpt>
      <trkpt lat="48.7933880" lon="13.9510970">
        <ele>748.0</ele>
        <time>2019-08-06T17:01:39Z</time>
      </trkpt>
      <trkpt lat="48.7934090" lon="13.9511170">
        <ele>748.0</ele>
        <time>2019-08-06T17:01:40Z</time>
      </trkpt>
      <trkpt lat="48.7934310" lon="13.9511360">
        <ele>748.0</ele>
        <time>2019-08-06T17:01:41Z</time>
      </trkpt>
      <trkpt lat="48.7934540" lon="13.9511540">
        <ele>748.0</ele>
        <time>2019-08-06T17:01:42Z</time>
      </trkpt>
      <trkpt lat="48.7934770" lon="13.9511740">
        <ele>748.0</ele>
        <time>2019-08-06T17:01:43Z</time>
      </trkpt>
      <trkpt lat="48.7934990" lon="13.9511970">
        <ele>748.0</ele>
        <time>2019-08-06T17:01:44Z</time>
      </trkpt>
      <trkpt lat="48.7935220" lon="13.9512200">
        <ele>748.0</ele>
        <time>2019-08-06T17:01:45Z</time>
      </trkpt>
      <trkpt lat="48.7935460" lon="13.9512420">
        <ele>748.0</ele>
        <time>2019-08-06T17:01:46Z</time>
      </trkpt>
      <trkpt lat="48.7935690" lon="13.9512630">
        <ele>748.0</ele>
        <time>2019-08-06T17:01:47Z</time>
      </trkpt>
      <trkpt lat="48.7935910" lon="13.9512860">
        <ele>748.0</ele>
        <time>2019-08-06T17:01:48Z</time>
      </trkpt>
      <trkpt lat="48.7936140" lon="13.9513070">
        <ele>748.0</ele>
        <time>2019-08-06T17:01:49Z</time>
      </trkpt>
      <trkpt lat="48.7936350" lon="13.9513270">
        <ele>748.0</ele>
        <time>2019-08-06T17:01:50Z</time>
      </trkpt>
      <trkpt lat="48.7936540" lon="13.9513480">
        <ele>748.2</ele>
        <time>2019-08-06T17:01:51Z</time>
      </trkpt>
      <trkpt lat="48.7936710" lon="13.9513710">
        <ele>748.2</ele>
        <time>2019-08-06T17:01:52Z</time>
      </trkpt>
      <trkpt lat="48.7936890" lon="13.9513930">
        <ele>748.2</ele>
        <time>2019-08-06T17:01:53Z</time>
      </trkpt>
      <trkpt lat="48.7937060" lon="13.9514120">
        <ele>748.2</ele>
        <time>2019-08-06T17:01:54Z</time>
      </trkpt>
      <trkpt lat="48.7937230" lon="13.9514320">
        <ele>748.2</ele>
        <time>2019-08-06T17:01:55Z</time>
      </trkpt>
      <trkpt lat="48.7937390" lon="13.9514540">
        <ele>748.2</ele>
        <time>2019-08-06T17:01:56Z</time>
      </trkpt>
      <trkpt lat="48.7937560" lon="13.9514760">
        <ele>748.2</ele>
        <time>2019-08-06T17:01:57Z</time>
      </trkpt>
      <trkpt lat="48.7937730" lon="13.9514990">
        <ele>748.2</ele>
        <time>2019-08-06T17:01:58Z</time>
      </trkpt>
      <trkpt lat="48.7937880" lon="13.9515230">
        <ele>748.2</ele>
        <time>2019-08-06T17:01:59Z</time>
      </trkpt>
      <trkpt lat="48.7938030" lon="13.9515460">
        <ele>748.2</ele>
        <time>2019-08-06T17:02:00Z</time>
      </trkpt>
      <trkpt lat="48.7938200" lon="13.9515660">
        <ele>748.2</ele>
        <time>2019-08-06T17:02:01Z</time>
      </trkpt>
      <trkpt lat="48.7938360" lon="13.9515770">
        <ele>748.2</ele>
        <time>2019-08-06T17:02:02Z</time>
      </trkpt>
      <trkpt lat="48.7938490" lon="13.9515770">
        <ele>748.4</ele>
        <time>2019-08-06T17:02:03Z</time>
      </trkpt>
      <trkpt lat="48.7938560" lon="13.9515640">
        <ele>748.4</ele>
        <time>2019-08-06T17:02:04Z</time>
      </trkpt>
      <trkpt lat="48.7938530" lon="13.9515420">
        <ele>748.4</ele>
        <time>2019-08-06T17:02:05Z</time>
      </trkpt>
      <trkpt lat="48.7938440" lon="13.9515180">
        <ele>748.4</ele>
        <time>2019-08-06T17:02:06Z</time>
      </trkpt>
      <trkpt lat="48.7938290" lon="13.9514930">
        <ele>748.4</ele>
        <time>2019-08-06T17:02:07Z</time>
      </trkpt>
      <trkpt lat="48.7938110" lon="13.9514690">
        <ele>748.6</ele>
        <time>2019-08-06T17:02:08Z</time>
      </trkpt>
      <trkpt lat="48.7937930" lon="13.9514450">
        <ele>748.6</ele>
        <time>2019-08-06T17:02:09Z</time>
      </trkpt>
      <trkpt lat="48.7937720" lon="13.9514190">
        <ele>748.6</ele>
        <time>2019-08-06T17:02:10Z</time>
      </trkpt>
      <trkpt lat="48.7937500" lon="13.9513910">
        <ele>748.6</ele>
        <time>2019-08-06T17:02:11Z</time>
      </trkpt>
      <trkpt lat="48.7937270" lon="13.9513630">
        <ele>748.6</ele>
        <time>2019-08-06T17:02:12Z</time>
      </trkpt>
      <trkpt lat="48.7937020" lon="13.9513340">
        <ele>748.6</ele>
        <time>2019-08-06T17:02:13Z</time>
      </trkpt>
      <trkpt lat="48.7936750" lon="13.9513030">
        <ele>748.6</ele>
        <time>2019-08-06T17:02:14Z</time>
      </trkpt>
      <trkpt lat="48.7936440" lon="13.9512740">
        <ele>748.6</ele>
        <time>2019-08-06T17:02:15Z</time>
      </trkpt>
      <trkpt lat="48.7936120" lon="13.9512460">
        <ele>748.6</ele>
        <time>2019-08-06T17:02:16Z</time>
      </trkpt>
      <trkpt lat="48.7935800" lon="13.9512180">
        <ele>748.6</ele>
        <time>2019-08-06T17:02:17Z</time>
      </trkpt>
      <trkpt lat="48.7935460" lon="13.9511880">
        <ele>748.6</ele>
        <time>2019-08-06T17:02:18Z</time>
      </trkpt>
      <trkpt lat="48.7935130" lon="13.9511590">
        <ele>748.6</ele>
        <time>2019-08-06T17:02:19Z</time>
      </trkpt>
      <trkpt lat="48.7934810" lon="13.9511320">
        <ele>748.6</ele>
        <time>2019-08-06T17:02:20Z</time>
      </trkpt>
      <trkpt lat="48.7934480" lon="13.9511060">
        <ele>748.4</ele>
        <time>2019-08-06T17:02:21Z</time>
      </trkpt>
      <trkpt lat="48.7934160" lon="13.9510780">
        <ele>748.4</ele>
        <time>2019-08-06T17:02:22Z</time>
      </trkpt>
      <trkpt lat="48.7933840" lon="13.9510500">
        <ele>748.4</ele>
        <time>2019-08-06T17:02:23Z</time>
      </trkpt>
      <trkpt lat="48.7933530" lon="13.9510210">
        <ele>748.4</ele>
        <time>2019-08-06T17:02:24Z</time>
      </trkpt>
      <trkpt lat="48.7933230" lon="13.9509920">
        <ele>748.4</ele>
        <time>2019-08-06T17:02:25Z</time>
      </trkpt>
      <trkpt lat="48.7932930" lon="13.9509630">
        <ele>748.2</ele>
        <time>2019-08-06T17:02:26Z</time>
      </trkpt>
      <trkpt lat="48.7932630" lon="13.9509340">
        <ele>748.2</ele>
        <time>2019-08-06T17:02:27Z</time>
      </trkpt>
      <trkpt lat="48.7932330" lon="13.9509070">
        <ele>748.4</ele>
        <time>2019-08-06T17:02:28Z</time>
      </trkpt>
      <trkpt lat="48.7932030" lon="13.9508800">
        <ele>748.4</ele>
        <time>2019-08-06T17:02:29Z</time>
      </trkpt>
      <trkpt lat="48.7931740" lon="13.9508530">
        <ele>748.4</ele>
        <time>2019-08-06T17:02:30Z</time>
      </trkpt>
      <trkpt lat="48.7931470" lon="13.9508260">
        <ele>748.4</ele>
        <time>2019-08-06T17:02:31Z</time>
      </trkpt>
      <trkpt lat="48.7931190" lon="13.9507990">
        <ele>748.4</ele>
        <time>2019-08-06T17:02:32Z</time>
      </trkpt>
      <trkpt lat="48.7930910" lon="13.9507730">
        <ele>748.4</ele>
        <time>2019-08-06T17:02:33Z</time>
      </trkpt>
      <trkpt lat="48.7930620" lon="13.9507460">
        <ele>748.4</ele>
        <time>2019-08-06T17:02:34Z</time>
      </trkpt>
      <trkpt lat="48.7930310" lon="13.9507180">
        <ele>748.4</ele>
        <time>2019-08-06T17:02:35Z</time>
      </trkpt>
      <trkpt lat="48.7929990" lon="13.9506900">
        <ele>748.2</ele>
        <time>2019-08-06T17:02:36Z</time>
      </trkpt>
      <trkpt lat="48.7929670" lon="13.9506600">
        <ele>748.4</ele>
        <time>2019-08-06T17:02:37Z</time>
      </trkpt>
      <trkpt lat="48.7929350" lon="13.9506300">
        <ele>748.4</ele>
        <time>2019-08-06T17:02:38Z</time>
      </trkpt>
      <trkpt lat="48.7929010" lon="13.9506000">
        <ele>748.2</ele>
        <time>2019-08-06T17:02:39Z</time>
      </trkpt>
      <trkpt lat="48.7928670" lon="13.9505700">
        <ele>748.2</ele>
        <time>2019-08-06T17:02:40Z</time>
      </trkpt>
      <trkpt lat="48.7928330" lon="13.9505410">
        <ele>748.2</ele>
        <time>2019-08-06T17:02:41Z</time>
      </trkpt>
      <trkpt lat="48.7927990" lon="13.9505120">
        <ele>748.2</ele>
        <time>2019-08-06T17:02:42Z</time>
      </trkpt>
      <trkpt lat="48.7927670" lon="13.9504830">
        <ele>748.2</ele>
        <time>2019-08-06T17:02:43Z</time>
      </trkpt>
      <trkpt lat="48.7927350" lon="13.9504580">
        <ele>748.0</ele>
        <time>2019-08-06T17:02:44Z</time>
      </trkpt>
      <trkpt lat="48.7927020" lon="13.9504310">
        <ele>748.0</ele>
        <time>2019-08-06T17:02:45Z</time>
      </trkpt>
      <trkpt lat="48.7926700" lon="13.9504000">
        <ele>748.0</ele>
        <time>2019-08-06T17:02:46Z</time>
      </trkpt>
      <trkpt lat="48.7926400" lon="13.9503690">
        <ele>748.0</ele>
        <time>2019-08-06T17:02:47Z</time>
      </trkpt>
      <trkpt lat="48.7926100" lon="13.9503370">
        <ele>748.0</ele>
        <time>2019-08-06T17:02:48Z</time>
      </trkpt>
      <trkpt lat="48.7925780" lon="13.9503100">
        <ele>748.0</ele>
        <time>2019-08-06T17:02:49Z</time>
      </trkpt>
      <trkpt lat="48.7925460" lon="13.9502870">
        <ele>747.8</ele>
        <time>2019-08-06T17:02:50Z</time>
      </trkpt>
      <trkpt lat="48.7925140" lon="13.9502610">
        <ele>747.8</ele>
        <time>2019-08-06T17:02:51Z</time>
      </trkpt>
      <trkpt lat="48.7924810" lon="13.9502330">
        <ele>747.8</ele>
        <time>2019-08-06T17:02:52Z</time>
      </trkpt>
      <trkpt lat="48.7924480" lon="13.9502030">
        <ele>747.8</ele>
        <time>2019-08-06T17:02:53Z</time>
      </trkpt>
      <trkpt lat="48.7924150" lon="13.9501750">
        <ele>747.6</ele>
        <time>2019-08-06T17:02:54Z</time>
      </trkpt>
      <trkpt lat="48.7923820" lon="13.9501490">
        <ele>747.6</ele>
        <time>2019-08-06T17:02:55Z</time>
      </trkpt>
      <trkpt lat="48.7923470" lon="13.9501220">
        <ele>747.6</ele>
        <time>2019-08-06T17:02:56Z</time>
      </trkpt>
      <trkpt lat="48.7923130" lon="13.9500930">
        <ele>747.6</ele>
        <time>2019-08-06T17:02:57Z</time>
      </trkpt>
      <trkpt lat="48.7922780" lon="13.9500620">
        <ele>747.4</ele>
        <time>2019-08-06T17:02:58Z</time>
      </trkpt>
      <trkpt lat="48.7922440" lon="13.9500300">
        <ele>747.4</ele>
        <time>2019-08-06T17:02:59Z</time>
      </trkpt>
      <trkpt lat="48.7922140" lon="13.9499990">
        <ele>747.2</ele>
        <time>2019-08-06T17:03:00Z</time>
      </trkpt>
      <trkpt lat="48.7921860" lon="13.9499710">
        <ele>747.2</ele>
        <time>2019-08-06T17:03:01Z</time>
      </trkpt>
      <trkpt lat="48.7921580" lon="13.9499450">
        <ele>747.0</ele>
        <time>2019-08-06T17:03:02Z</time>
      </trkpt>
      <trkpt lat="48.7921330" lon="13.9499200">
        <ele>747.0</ele>
        <time>2019-08-06T17:03:03Z</time>
      </trkpt>
      <trkpt lat="48.7921080" lon="13.9498960">
        <ele>747.0</ele>
        <time>2019-08-06T17:03:04Z</time>
      </trkpt>
      <trkpt lat="48.7920840" lon="13.9498720">
        <ele>746.8</ele>
        <time>2019-08-06T17:03:05Z</time>
      </trkpt>
      <trkpt lat="48.7920610" lon="13.9498500">
        <ele>746.8</ele>
        <time>2019-08-06T17:03:06Z</time>
      </trkpt>
      <trkpt lat="48.7920380" lon="13.9498360">
        <ele>746.8</ele>
        <time>2019-08-06T17:03:07Z</time>
      </trkpt>
      <trkpt lat="48.7920150" lon="13.9498340">
        <ele>746.6</ele>
        <time>2019-08-06T17:03:08Z</time>
      </trkpt>
      <trkpt lat="48.7919970" lon="13.9498470">
        <ele>746.6</ele>
        <time>2019-08-06T17:03:09Z</time>
      </trkpt>
      <trkpt lat="48.7919890" lon="13.9498690">
        <ele>746.4</ele>
        <time>2019-08-06T17:03:10Z</time>
      </trkpt>
      <trkpt lat="48.7919910" lon="13.9498940">
        <ele>746.2</ele>
        <time>2019-08-06T17:03:11Z</time>
      </trkpt>
      <trkpt lat="48.7919990" lon="13.9499250">
        <ele>746.2</ele>
        <time>2019-08-06T17:03:12Z</time>
      </trkpt>
      <trkpt lat="48.7920150" lon="13.9499570">
        <ele>746.0</ele>
        <time>2019-08-06T17:03:13Z</time>
      </trkpt>
      <trkpt lat="48.7920330" lon="13.9499930">
        <ele>745.8</ele>
        <time>2019-08-06T17:03:14Z</time>
      </trkpt>
      <trkpt lat="48.7920510" lon="13.9500310">
        <ele>745.6</ele>
        <time>2019-08-06T17:03:15Z</time>
      </trkpt>
      <trkpt lat="48.7920690" lon="13.9500690">
        <ele>745.4</ele>
        <time>2019-08-06T17:03:16Z</time>
      </trkpt>
      <trkpt lat="48.7920870" lon="13.9501060">
        <ele>745.2</ele>
        <time>2019-08-06T17:03:17Z</time>
      </trkpt>
      <trkpt lat="48.7921030" lon="13.9501400">
        <ele>745.0</ele>
        <time>2019-08-06T17:03:18Z</time>
      </trkpt>
      <trkpt lat="48.7921170" lon="13.9501740">
        <ele>744.8</ele>
        <time>2019-08-06T17:03:19Z</time>
      </trkpt>
      <trkpt lat="48.7921290" lon="13.9502050">
        <ele>744.6</ele>
        <time>2019-08-06T17:03:20Z</time>
      </trkpt>
      <trkpt lat="48.7921430" lon="13.9502330">
        <ele>744.6</ele>
        <time>2019-08-06T17:03:21Z</time>
      </trkpt>
      <trkpt lat="48.7921590" lon="13.9502610">
        <ele>744.4</ele>
        <time>2019-08-06T17:03:22Z</time>
      </trkpt>
      <trkpt lat="48.7921760" lon="13.9502880">
        <ele>744.4</ele>
        <time>2019-08-06T17:03:23Z</time>
      </trkpt>
      <trkpt lat="48.7921930" lon="13.9503170">
        <ele>744.2</ele>
        <time>2019-08-06T17:03:24Z</time>
      </trkpt>
      <trkpt lat="48.7922090" lon="13.9503470">
        <ele>744.2</ele>
        <time>2019-08-06T17:03:25Z</time>
      </trkpt>
      <trkpt lat="48.7922250" lon="13.9503740">
        <ele>744.0</ele>
        <time>2019-08-06T17:03:26Z</time>
      </trkpt>
      <trkpt lat="48.7922390" lon="13.9504010">
        <ele>744.0</ele>
        <time>2019-08-06T17:03:27Z</time>
      </trkpt>
      <trkpt lat="48.7922520" lon="13.9504280">
        <ele>743.8</ele>
        <time>2019-08-06T17:03:28Z</time>
      </trkpt>
      <trkpt lat="48.7922660" lon="13.9504540">
        <ele>743.8</ele>
        <time>2019-08-06T17:03:29Z</time>
      </trkpt>
      <trkpt lat="48.7922780" lon="13.9504810">
        <ele>743.8</ele>
        <time>2019-08-06T17:03:30Z</time>
      </trkpt>
      <trkpt lat="48.7922870" lon="13.9505070">
        <ele>743.6</ele>
        <time>2019-08-06T17:03:31Z</time>
      </trkpt>
      <trkpt lat="48.7922970" lon="13.9505300">
        <ele>743.6</ele>
        <time>2019-08-06T17:03:32Z</time>
      </trkpt>
      <trkpt lat="48.7923060" lon="13.9505480">
        <ele>743.6</ele>
        <time>2019-08-06T17:03:33Z</time>
      </trkpt>
      <trkpt lat="48.7923120" lon="13.9505610">
        <ele>743.6</ele>
        <time>2019-08-06T17:03:34Z</time>
      </trkpt>
      <trkpt lat="48.7923150" lon="13.9505690">
        <ele>743.6</ele>
        <time>2019-08-06T17:03:35Z</time>
      </trkpt>
      <trkpt lat="48.7923170" lon="13.9505720">
        <ele>743.4</ele>
        <time>2019-08-06T17:03:36Z</time>
      </trkpt>
      <trkpt lat="48.7923160" lon="13.9505730">
        <ele>743.4</ele>
        <time>2019-08-06T17:03:37Z</time>
      </trkpt>
      <trkpt lat="48.7923150" lon="13.9505730">
        <ele>743.4</ele>
        <time>2019-08-06T17:03:38Z</time>
      </trkpt>
      <trkpt lat="48.7923150" lon="13.9505730">
        <ele>743.4</ele>
        <time>2019-08-06T17:03:39Z</time>
      </trkpt>
      <trkpt lat="48.7920850" lon="13.9507950">
        <ele>733.2</ele>
        <time>2019-08-07T07:33:10Z</time>
      </trkpt>
      <trkpt lat="48.7921000" lon="13.9507840">
        <ele>733.2</ele>
        <time>2019-08-07T07:33:11Z</time>
      </trkpt>
      <trkpt lat="48.7921190" lon="13.9507690">
        <ele>733.2</ele>
        <time>2019-08-07T07:33:12Z</time>
      </trkpt>
      <trkpt lat="48.7921370" lon="13.9507470">
        <ele>733.2</ele>
        <time>2019-08-07T07:33:13Z</time>
      </trkpt>
      <trkpt lat="48.7921540" lon="13.9507230">
        <ele>733.2</ele>
        <time>2019-08-07T07:33:14Z</time>
      </trkpt>
      <trkpt lat="48.7921710" lon="13.9506940">
        <ele>733.0</ele>
        <time>2019-08-07T07:33:15Z</time>
      </trkpt>
      <trkpt lat="48.7921890" lon="13.9506650">
        <ele>733.0</ele>
        <time>2019-08-07T07:33:16Z</time>
      </trkpt>
      <trkpt lat="48.7922070" lon="13.9506360">
        <ele>733.0</ele>
        <time>2019-08-07T07:33:17Z</time>
      </trkpt>
      <trkpt lat="48.7922260" lon="13.9506070">
        <ele>733.0</ele>
        <time>2019-08-07T07:33:18Z</time>
      </trkpt>
      <trkpt lat="48.7922400" lon="13.9505760">
        <ele>733.0</ele>
        <time>2019-08-07T07:33:19Z</time>
      </trkpt>
      <trkpt lat="48.7922480" lon="13.9505380">
        <ele>733.0</ele>
        <time>2019-08-07T07:33:20Z</time>
      </trkpt>
      <trkpt lat="48.7922490" lon="13.9504980">
        <ele>733.0</ele>
        <time>2019-08-07T07:33:21Z</time>
      </trkpt>
      <trkpt lat="48.7922370" lon="13.9504580">
        <ele>733.0</ele>
        <time>2019-08-07T07:33:22Z</time>
      </trkpt>
      <trkpt lat="48.7922200" lon="13.9504220">
        <ele>733.0</ele>
        <time>2019-08-07T07:33:23Z</time>
      </trkpt>
      <trkpt lat="48.7922010" lon="13.9503880">
        <ele>733.0</ele>
        <time>2019-08-07T07:33:24Z</time>
      </trkpt>
      <trkpt lat="48.7921830" lon="13.9503560">
        <ele>733.0</ele>
        <time>2019-08-07T07:33:25Z</time>
      </trkpt>
      <trkpt lat="48.7921660" lon="13.9503230">
        <ele>733.0</ele>
        <time>2019-08-07T07:33:26Z</time>
      </trkpt>
      <trkpt lat="48.7921490" lon="13.9502870">
        <ele>733.2</ele>
        <time>2019-08-07T07:33:27Z</time>
      </trkpt>
      <trkpt lat="48.7921340" lon="13.9502530">
        <ele>733.2</ele>
        <time>2019-08-07T07:33:28Z</time>
      </trkpt>
      <trkpt lat="48.7921170" lon="13.9502160">
        <ele>733.2</ele>
        <time>2019-08-07T07:33:29Z</time>
      </trkpt>
      <trkpt lat="48.7920990" lon="13.9501770">
        <ele>733.4</ele>
        <time>2019-08-07T07:33:30Z</time>
      </trkpt>
      <trkpt lat="48.7920810" lon="13.9501390">
        <ele>733.4</ele>
        <time>2019-08-07T07:33:31Z</time>
      </trkpt>
      <trkpt lat="48.7920630" lon="13.9500990">
        <ele>733.6</ele>
        <time>2019-08-07T07:33:32Z</time>
      </trkpt>
      <trkpt lat="48.7920470" lon="13.9500630">
        <ele>733.6</ele>
        <time>2019-08-07T07:33:33Z</time>
      </trkpt>
      <trkpt lat="48.7920320" lon="13.9500300">
        <ele>733.8</ele>
        <time>2019-08-07T07:33:34Z</time>
      </trkpt>
      <trkpt lat="48.7920180" lon="13.9500000">
        <ele>734.0</ele>
        <time>2019-08-07T07:33:35Z</time>
      </trkpt>
      <trkpt lat="48.7920090" lon="13.9499760">
        <ele>734.2</ele>
        <time>2019-08-07T07:33:36Z</time>
      </trkpt>
      <trkpt lat="48.7919990" lon="13.9499560">
        <ele>734.2</ele>
        <time>2019-08-07T07:33:37Z</time>
      </trkpt>
      <trkpt lat="48.7919890" lon="13.9499400">
        <ele>734.4</ele>
        <time>2019-08-07T07:33:38Z</time>
      </trkpt>
      <trkpt lat="48.7919790" lon="13.9499240">
        <ele>734.6</ele>
        <time>2019-08-07T07:33:39Z</time>
      </trkpt>
      <trkpt lat="48.7919680" lon="13.9499060">
        <ele>734.6</ele>
        <time>2019-08-07T07:33:40Z</time>
      </trkpt>
      <trkpt lat="48.7919590" lon="13.9498880">
        <ele>734.8</ele>
        <time>2019-08-07T07:33:41Z</time>
      </trkpt>
      <trkpt lat="48.7919550" lon="13.9498650">
        <ele>735.0</ele>
        <time>2019-08-07T07:33:42Z</time>
      </trkpt>
      <trkpt lat="48.7919590" lon="13.9498410">
        <ele>735.0</ele>
        <time>2019-08-07T07:33:43Z</time>
      </trkpt>
      <trkpt lat="48.7919700" lon="13.9498200">
        <ele>735.2</ele>
        <time>2019-08-07T07:33:44Z</time>
      </trkpt>
      <trkpt lat="48.7919870" lon="13.9498090">
        <ele>735.2</ele>
        <time>2019-08-07T07:33:45Z</time>
      </trkpt>
      <trkpt lat="48.7920070" lon="13.9498140">
        <ele>735.4</ele>
        <time>2019-08-07T07:33:46Z</time>
      </trkpt>
      <trkpt lat="48.7920270" lon="13.9498370">
        <ele>735.4</ele>
        <time>2019-08-07T07:33:47Z</time>
      </trkpt>
      <trkpt lat="48.7920470" lon="13.9498680">
        <ele>735.6</ele>
        <time>2019-08-07T07:33:48Z</time>
      </trkpt>
      <trkpt lat="48.7920670" lon="13.9498970">
        <ele>735.6</ele>
        <time>2019-08-07T07:33:49Z</time>
      </trkpt>
      <trkpt lat="48.7920870" lon="13.9499250">
        <ele>735.8</ele>
        <time>2019-08-07T07:33:50Z</time>
      </trkpt>
      <trkpt lat="48.7921080" lon="13.9499510">
        <ele>735.8</ele>
        <time>2019-08-07T07:33:51Z</time>
      </trkpt>
      <trkpt lat="48.7921310" lon="13.9499760">
        <ele>736.0</ele>
        <time>2019-08-07T07:33:52Z</time>
      </trkpt>
      <trkpt lat="48.7921560" lon="13.9500020">
        <ele>736.0</ele>
        <time>2019-08-07T07:33:53Z</time>
      </trkpt>
      <trkpt lat="48.7921810" lon="13.9500260">
        <ele>736.0</ele>
        <time>2019-08-07T07:33:54Z</time>
      </trkpt>
      <trkpt lat="48.7922070" lon="13.9500490">
        <ele>736.2</ele>
        <time>2019-08-07T07:33:55Z</time>
      </trkpt>
      <trkpt lat="48.7922350" lon="13.9500740">
        <ele>736.2</ele>
        <time>2019-08-07T07:33:56Z</time>
      </trkpt>
      <trkpt lat="48.7922630" lon="13.9500990">
        <ele>736.4</ele>
        <time>2019-08-07T07:33:57Z</time>
      </trkpt>
      <trkpt lat="48.7922930" lon="13.9501240">
        <ele>736.4</ele>
        <time>2019-08-07T07:33:58Z</time>
      </trkpt>
      <trkpt lat="48.7923230" lon="13.9501500">
        <ele>736.6</ele>
        <time>2019-08-07T07:33:59Z</time>
      </trkpt>
      <trkpt lat="48.7923510" lon="13.9501750">
        <ele>736.6</ele>
        <time>2019-08-07T07:34:00Z</time>
      </trkpt>
      <trkpt lat="48.7923830" lon="13.9502030">
        <ele>736.6</ele>
        <time>2019-08-07T07:34:01Z</time>
      </trkpt>
      <trkpt lat="48.7924170" lon="13.9502300">
        <ele>736.8</ele>
        <time>2019-08-07T07:34:02Z</time>
      </trkpt>
      <trkpt lat="48.7924480" lon="13.9502580">
        <ele>736.8</ele>
        <time>2019-08-07T07:34:03Z</time>
      </trkpt>
      <trkpt lat="48.7924800" lon="13.9502850">
        <ele>736.8</ele>
        <time>2019-08-07T07:34:04Z</time>
      </trkpt>
      <trkpt lat="48.7925120" lon="13.9503130">
        <ele>736.8</ele>
        <time>2019-08-07T07:34:05Z</time>
      </trkpt>
      <trkpt lat="48.7925470" lon="13.9503440">
        <ele>737.0</ele>
        <time>2019-08-07T07:34:06Z</time>
      </trkpt>
      <trkpt lat="48.7925790" lon="13.9503760">
        <ele>737.0</ele>
        <time>2019-08-07T07:34:07Z</time>
      </trkpt>
      <trkpt lat="48.7926110" lon="13.9504060">
        <ele>737.0</ele>
        <time>2019-08-07T07:34:08Z</time>
      </trkpt>
      <trkpt lat="48.7926420" lon="13.9504340">
        <ele>737.0</ele>
        <time>2019-08-07T07:34:09Z</time>
      </trkpt>
      <trkpt lat="48.7926750" lon="13.9504650">
        <ele>737.2</ele>
        <time>2019-08-07T07:34:10Z</time>
      </trkpt>
      <trkpt lat="48.7927100" lon="13.9504950">
        <ele>737.2</ele>
        <time>2019-08-07T07:34:11Z</time>
      </trkpt>
      <trkpt lat="48.7927460" lon="13.9505250">
        <ele>737.2</ele>
        <time>2019-08-07T07:34:12Z</time>
      </trkpt>
      <trkpt lat="48.7927830" lon="13.9505550">
        <ele>737.4</ele>
        <time>2019-08-07T07:34:13Z</time>
      </trkpt>
      <trkpt lat="48.7928180" lon="13.9505860">
        <ele>737.4</ele>
        <time>2019-08-07T07:34:14Z</time>
      </trkpt>
      <trkpt lat="48.7928550" lon="13.9506190">
        <ele>737.6</ele>
        <time>2019-08-07T07:34:15Z</time>
      </trkpt>
      <trkpt lat="48.7928910" lon="13.9506530">
        <ele>737.6</ele>
        <time>2019-08-07T07:34:16Z</time>
      </trkpt>
      <trkpt lat="48.7929280" lon="13.9506860">
        <ele>737.6</ele>
        <time>2019-08-07T07:34:17Z</time>
      </trkpt>
      <trkpt lat="48.7929630" lon="13.9507190">
        <ele>737.8</ele>
        <time>2019-08-07T07:34:18Z</time>
      </trkpt>
      <trkpt lat="48.7929990" lon="13.9507530">
        <ele>737.8</ele>
        <time>2019-08-07T07:34:19Z</time>
      </trkpt>
      <trkpt lat="48.7930350" lon="13.9507850">
        <ele>738.0</ele>
        <time>2019-08-07T07:34:20Z</time>
      </trkpt>
      <trkpt lat="48.7930740" lon="13.9508180">
        <ele>738.0</ele>
        <time>2019-08-07T07:34:21Z</time>
      </trkpt>
      <trkpt lat="48.7931130" lon="13.9508550">
        <ele>738.0</ele>
        <time>2019-08-07T07:34:22Z</time>
      </trkpt>
      <trkpt lat="48.7931480" lon="13.9508900">
        <ele>738.0</ele>
        <time>2019-08-07T07:34:23Z</time>
      </trkpt>
      <trkpt lat="48.7931850" lon="13.9509240">
        <ele>738.0</ele>
        <time>2019-08-07T07:34:24Z</time>
      </trkpt>
      <trkpt lat="48.7932230" lon="13.9509570">
        <ele>738.0</ele>
        <time>2019-08-07T07:34:25Z</time>
      </trkpt>
      <trkpt lat="48.7932600" lon="13.9509920">
        <ele>738.0</ele>
        <time>2019-08-07T07:34:26Z</time>
      </trkpt>
      <trkpt lat="48.7932980" lon="13.9510290">
        <ele>738.2</ele>
        <time>2019-08-07T07:34:27Z</time>
      </trkpt>
      <trkpt lat="48.7933360" lon="13.9510660">
        <ele>738.2</ele>
        <time>2019-08-07T07:34:28Z</time>
      </trkpt>
      <trkpt lat="48.7933740" lon="13.9511020">
        <ele>738.2</ele>
        <time>2019-08-07T07:34:29Z</time>
      </trkpt>
      <trkpt lat="48.7934120" lon="13.9511360">
        <ele>738.2</ele>
        <time>2019-08-07T07:34:30Z</time>
      </trkpt>
      <trkpt lat="48.7934500" lon="13.9511730">
        <ele>738.2</ele>
        <time>2019-08-07T07:34:31Z</time>
      </trkpt>
      <trkpt lat="48.7934880" lon="13.9512120">
        <ele>738.2</ele>
        <time>2019-08-07T07:34:32Z</time>
      </trkpt>
      <trkpt lat="48.7935260" lon="13.9512520">
        <ele>738.2</ele>
        <time>2019-08-07T07:34:33Z</time>
      </trkpt>
      <trkpt lat="48.7935640" lon="13.9512920">
        <ele>738.2</ele>
        <time>2019-08-07T07:34:34Z</time>
      </trkpt>
      <trkpt lat="48.7936020" lon="13.9513340">
        <ele>738.2</ele>
        <time>2019-08-07T07:34:35Z</time>
      </trkpt>
      <trkpt lat="48.7936400" lon="13.9513780">
        <ele>738.2</ele>
        <time>2019-08-07T07:34:36Z</time>
      </trkpt>
      <trkpt lat="48.7936800" lon="13.9514240">
        <ele>738.2</ele>
        <time>2019-08-07T07:34:37Z</time>
      </trkpt>
      <trkpt lat="48.7937190" lon="13.9514700">
        <ele>738.0</ele>
        <time>2019-08-07T07:34:38Z</time>
      </trkpt>
      <trkpt lat="48.7937560" lon="13.9515190">
        <ele>738.0</ele>
        <time>2019-08-07T07:34:39Z</time>
      </trkpt>
      <trkpt lat="48.7937940" lon="13.9515700">
        <ele>738.0</ele>
        <time>2019-08-07T07:34:40Z</time>
      </trkpt>
      <trkpt lat="48.7938300" lon="13.9516200">
        <ele>738.0</ele>
        <time>2019-08-07T07:34:41Z</time>
      </trkpt>
      <trkpt lat="48.7938650" lon="13.9516740">
        <ele>738.2</ele>
        <time>2019-08-07T07:34:42Z</time>
      </trkpt>
      <trkpt lat="48.7939010" lon="13.9517280">
        <ele>738.0</ele>
        <time>2019-08-07T07:34:43Z</time>
      </trkpt>
      <trkpt lat="48.7939380" lon="13.9517840">
        <ele>738.0</ele>
        <time>2019-08-07T07:34:44Z</time>
      </trkpt>
      <trkpt lat="48.7939720" lon="13.9518430">
        <ele>738.0</ele>
        <time>2019-08-07T07:34:45Z</time>
      </trkpt>
      <trkpt lat="48.7940050" lon="13.9519010">
        <ele>738.0</ele>
        <time>2019-08-07T07:34:46Z</time>
      </trkpt>
      <trkpt lat="48.7940380" lon="13.9519610">
        <ele>738.0</ele>
        <time>2019-08-07T07:34:47Z</time>
      </trkpt>
      <trkpt lat="48.7940680" lon="13.9520220">
        <ele>738.0</ele>
        <time>2019-08-07T07:34:48Z</time>
      </trkpt>
      <trkpt lat="48.7940970" lon="13.9520840">
        <ele>738.0</ele>
        <time>2019-08-07T07:34:49Z</time>
      </trkpt>
      <trkpt lat="48.7941240" lon="13.9521460">
        <ele>738.0</ele>
        <time>2019-08-07T07:34:50Z</time>
      </trkpt>
      <trkpt lat="48.7941500" lon="13.9522100">
        <ele>738.2</ele>
        <time>2019-08-07T07:34:51Z</time>
      </trkpt>
      <trkpt lat="48.7941760" lon="13.9522770">
        <ele>738.2</ele>
        <time>2019-08-07T07:34:52Z</time>
      </trkpt>
      <trkpt lat="48.7942010" lon="13.9523440">
        <ele>738.2</ele>
        <time>2019-08-07T07:34:53Z</time>
      </trkpt>
      <trkpt lat="48.7942260" lon="13.9524140">
        <ele>738.2</ele>
        <time>2019-08-07T07:34:54Z</time>
      </trkpt>
      <trkpt lat="48.7942500" lon="13.9524820">
        <ele>738.2</ele>
        <time>2019-08-07T07:34:55Z</time>
      </trkpt>
      <trkpt lat="48.7942730" lon="13.9525500">
        <ele>738.2</ele>
        <time>2019-08-07T07:34:56Z</time>
      </trkpt>
      <trkpt lat="48.7942930" lon="13.9526210">
        <ele>738.2</ele>
        <time>2019-08-07T07:34:57Z</time>
      </trkpt>
      <trkpt lat="48.7943110" lon="13.9526930">
        <ele>738.2</ele>
        <time>2019-08-07T07:34:58Z</time>
      </trkpt>
      <trkpt lat="48.7943270" lon="13.9527630">
        <ele>738.2</ele>
        <time>2019-08-07T07:34:59Z</time>
      </trkpt>
      <trkpt lat="48.7943440" lon="13.9528360">
        <ele>738.2</ele>
        <time>2019-08-07T07:35:00Z</time>
      </trkpt>
      <trkpt lat="48.7943600" lon="13.9529090">
        <ele>738.4</ele>
        <time>2019-08-07T07:35:01Z</time>
      </trkpt>
      <trkpt lat="48.7943750" lon="13.9529810">
        <ele>738.4</ele>
        <time>2019-08-07T07:35:02Z</time>
      </trkpt>
      <trkpt lat="48.7943860" lon="13.9530530">
        <ele>738.4</ele>
        <time>2019-08-07T07:35:03Z</time>
      </trkpt>
      <trkpt lat="48.7943950" lon="13.9531280">
        <ele>738.4</ele>
        <time>2019-08-07T07:35:04Z</time>
      </trkpt>
      <trkpt lat="48.7944030" lon="13.9532070">
        <ele>738.4</ele>
        <time>2019-08-07T07:35:05Z</time>
      </trkpt>
      <trkpt lat="48.7944110" lon="13.9532840">
        <ele>738.6</ele>
        <time>2019-08-07T07:35:06Z</time>
      </trkpt>
      <trkpt lat="48.7944180" lon="13.9533620">
        <ele>738.6</ele>
        <time>2019-08-07T07:35:07Z</time>
      </trkpt>
      <trkpt lat="48.7944230" lon="13.9534390">
        <ele>738.6</ele>
        <time>2019-08-07T07:35:08Z</time>
      </trkpt>
      <trkpt lat="48.7944260" lon="13.9535170">
        <ele>738.6</ele>
        <time>2019-08-07T07:35:09Z</time>
      </trkpt>
      <trkpt lat="48.7944280" lon="13.9535980">
        <ele>738.8</ele>
        <time>2019-08-07T07:35:10Z</time>
      </trkpt>
      <trkpt lat="48.7944300" lon="13.9536770">
        <ele>738.8</ele>
        <time>2019-08-07T07:35:11Z</time>
      </trkpt>
      <trkpt lat="48.7944310" lon="13.9537520">
        <ele>738.8</ele>
        <time>2019-08-07T07:35:12Z</time>
      </trkpt>
      <trkpt lat="48.7944300" lon="13.9538280">
        <ele>739.0</ele>
        <time>2019-08-07T07:35:13Z</time>
      </trkpt>
      <trkpt lat="48.7944290" lon="13.9539030">
        <ele>739.0</ele>
        <time>2019-08-07T07:35:14Z</time>
      </trkpt>
      <trkpt lat="48.7944270" lon="13.9539770">
        <ele>739.0</ele>
        <time>2019-08-07T07:35:15Z</time>
      </trkpt>
      <trkpt lat="48.7944250" lon="13.9540520">
        <ele>739.2</ele>
        <time>2019-08-07T07:35:16Z</time>
      </trkpt>
      <trkpt lat="48.7944240" lon="13.9541260">
        <ele>739.4</ele>
        <time>2019-08-07T07:35:17Z</time>
      </trkpt>
      <trkpt lat="48.7944210" lon="13.9541990">
        <ele>739.6</ele>
        <time>2019-08-07T07:35:18Z</time>
      </trkpt>
      <trkpt lat="48.7944190" lon="13.9542690">
        <ele>739.8</ele>
        <time>2019-08-07T07:35:19Z</time>
      </trkpt>
      <trkpt lat="48.7944170" lon="13.9543400">
        <ele>740.0</ele>
        <time>2019-08-07T07:35:20Z</time>
      </trkpt>
      <trkpt lat="48.7944150" lon="13.9544080">
        <ele>740.2</ele>
        <time>2019-08-07T07:35:21Z</time>
      </trkpt>
      <trkpt lat="48.7944150" lon="13.9544740">
        <ele>740.2</ele>
        <time>2019-08-07T07:35:22Z</time>
      </trkpt>
      <trkpt lat="48.7944150" lon="13.9545410">
        <ele>740.4</ele>
        <time>2019-08-07T07:35:23Z</time>
      </trkpt>
      <trkpt lat="48.7944150" lon="13.9546080">
        <ele>740.6</ele>
        <time>2019-08-07T07:35:24Z</time>
      </trkpt>
      <trkpt lat="48.7944140" lon="13.9546750">
        <ele>740.8</ele>
        <time>2019-08-07T07:35:25Z</time>
      </trkpt>
      <trkpt lat="48.7944100" lon="13.9547400">
        <ele>740.8</ele>
        <time>2019-08-07T07:35:26Z</time>
      </trkpt>
      <trkpt lat="48.7944050" lon="13.9548030">
        <ele>741.0</ele>
        <time>2019-08-07T07:35:27Z</time>
      </trkpt>
      <trkpt lat="48.7943970" lon="13.9548670">
        <ele>741.0</ele>
        <time>2019-08-07T07:35:28Z</time>
      </trkpt>
      <trkpt lat="48.7943900" lon="13.9549300">
        <ele>741.2</ele>
        <time>2019-08-07T07:35:29Z</time>
      </trkpt>
      <trkpt lat="48.7943850" lon="13.9549920">
        <ele>741.2</ele>
        <time>2019-08-07T07:35:30Z</time>
      </trkpt>
      <trkpt lat="48.7943810" lon="13.9550560">
        <ele>741.4</ele>
        <time>2019-08-07T07:35:31Z</time>
      </trkpt>
      <trkpt lat="48.7943790" lon="13.9551280">
        <ele>741.4</ele>
        <time>2019-08-07T07:35:32Z</time>
      </trkpt>
      <trkpt lat="48.7943810" lon="13.9551990">
        <ele>741.4</ele>
        <time>2019-08-07T07:35:33Z</time>
      </trkpt>
      <trkpt lat="48.7943850" lon="13.9552700">
        <ele>741.6</ele>
        <time>2019-08-07T07:35:34Z</time>
      </trkpt>
      <trkpt lat="48.7943910" lon="13.9553400">
        <ele>741.6</ele>
        <time>2019-08-07T07:35:35Z</time>
      </trkpt>
      <trkpt lat="48.7943970" lon="13.9554100">
        <ele>741.6</ele>
        <time>2019-08-07T07:35:36Z</time>
      </trkpt>
      <trkpt lat="48.7944030" lon="13.9554780">
        <ele>741.8</ele>
        <time>2019-08-07T07:35:37Z</time>
      </trkpt>
      <trkpt lat="48.7944090" lon="13.9555450">
        <ele>741.8</ele>
        <time>2019-08-07T07:35:38Z</time>
      </trkpt>
      <trkpt lat="48.7944150" lon="13.9556110">
        <ele>742.0</ele>
        <time>2019-08-07T07:35:39Z</time>
      </trkpt>
      <trkpt lat="48.7944210" lon="13.9556760">
        <ele>742.0</ele>
        <time>2019-08-07T07:35:40Z</time>
      </trkpt>
      <trkpt lat="48.7944260" lon="13.9557400">
        <ele>742.2</ele>
        <time>2019-08-07T07:35:41Z</time>
      </trkpt>
      <trkpt lat="48.7944300" lon="13.9558020">
        <ele>742.2</ele>
        <time>2019-08-07T07:35:42Z</time>
      </trkpt>
      <trkpt lat="48.7944360" lon="13.9558610">
        <ele>742.4</ele>
        <time>2019-08-07T07:35:43Z</time>
      </trkpt>
      <trkpt lat="48.7944400" lon="13.9559180">
        <ele>742.4</ele>
        <time>2019-08-07T07:35:44Z</time>
      </trkpt>
      <trkpt lat="48.7944470" lon="13.9559720">
        <ele>742.6</ele>
        <time>2019-08-07T07:35:45Z</time>
      </trkpt>
      <trkpt lat="48.7944530" lon="13.9560270">
        <ele>742.6</ele>
        <time>2019-08-07T07:35:46Z</time>
      </trkpt>
      <trkpt lat="48.7944590" lon="13.9560800">
        <ele>742.8</ele>
        <time>2019-08-07T07:35:47Z</time>
      </trkpt>
      <trkpt lat="48.7944630" lon="13.9561320">
        <ele>743.0</ele>
        <time>2019-08-07T07:35:48Z</time>
      </trkpt>
      <trkpt lat="48.7944660" lon="13.9561840">
        <ele>743.0</ele>
        <time>2019-08-07T07:35:49Z</time>
      </trkpt>
      <trkpt lat="48.7944690" lon="13.9562360">
        <ele>743.2</ele>
        <time>2019-08-07T07:35:50Z</time>
      </trkpt>
      <trkpt lat="48.7944730" lon="13.9562870">
        <ele>743.4</ele>
        <time>2019-08-07T07:35:51Z</time>
      </trkpt>
      <trkpt lat="48.7944770" lon="13.9563370">
        <ele>743.6</ele>
        <time>2019-08-07T07:35:52Z</time>
      </trkpt>
      <trkpt lat="48.7944810" lon="13.9563830">
        <ele>743.8</ele>
        <time>2019-08-07T07:35:53Z</time>
      </trkpt>
      <trkpt lat="48.7944830" lon="13.9564260">
        <ele>744.0</ele>
        <time>2019-08-07T07:35:54Z</time>
      </trkpt>
      <trkpt lat="48.7944850" lon="13.9564640">
        <ele>744.2</ele>
        <time>2019-08-07T07:35:55Z</time>
      </trkpt>
      <trkpt lat="48.7944870" lon="13.9564980">
        <ele>744.4</ele>
        <time>2019-08-07T07:35:56Z</time>
      </trkpt>
      <trkpt lat="48.7944880" lon="13.9565310">
        <ele>744.6</ele>
        <time>2019-08-07T07:35:57Z</time>
      </trkpt>
      <trkpt lat="48.7944900" lon="13.9565640">
        <ele>744.8</ele>
        <time>2019-08-07T07:35:58Z</time>
      </trkpt>
      <trkpt lat="48.7944910" lon="13.9565970">
        <ele>745.0</ele>
        <time>2019-08-07T07:35:59Z</time>
      </trkpt>
      <trkpt lat="48.7944930" lon="13.9566320">
        <ele>745.2</ele>
        <time>2019-08-07T07:36:00Z</time>
      </trkpt>
      <trkpt lat="48.7944920" lon="13.9566670">
        <ele>745.4</ele>
        <time>2019-08-07T07:36:01Z</time>
      </trkpt>
      <trkpt lat="48.7944900" lon="13.9567000">
        <ele>745.4</ele>
        <time>2019-08-07T07:36:02Z</time>
      </trkpt>
      <trkpt lat="48.7944870" lon="13.9567330">
        <ele>745.6</ele>
        <time>2019-08-07T07:36:03Z</time>
      </trkpt>
      <trkpt lat="48.7944850" lon="13.9567660">
        <ele>745.8</ele>
        <time>2019-08-07T07:36:04Z</time>
      </trkpt>
      <trkpt lat="48.7944840" lon="13.9568000">
        <ele>746.0</ele>
        <time>2019-08-07T07:36:05Z</time>
      </trkpt>
      <trkpt lat="48.7944810" lon="13.9568350">
        <ele>746.2</ele>
        <time>2019-08-07T07:36:06Z</time>
      </trkpt>
      <trkpt lat="48.7944790" lon="13.9568690">
        <ele>746.4</ele>
        <time>2019-08-07T07:36:07Z</time>
      </trkpt>
      <trkpt lat="48.7944770" lon="13.9569030">
        <ele>746.4</ele>
        <time>2019-08-07T07:36:08Z</time>
      </trkpt>
      <trkpt lat="48.7944750" lon="13.9569400">
        <ele>746.6</ele>
        <time>2019-08-07T07:36:09Z</time>
      </trkpt>
      <trkpt lat="48.7944750" lon="13.9569750">
        <ele>746.8</ele>
        <time>2019-08-07T07:36:10Z</time>
      </trkpt>
      <trkpt lat="48.7944740" lon="13.9570100">
        <ele>747.0</ele>
        <time>2019-08-07T07:36:11Z</time>
      </trkpt>
      <trkpt lat="48.7944720" lon="13.9570460">
        <ele>747.2</ele>
        <time>2019-08-07T07:36:12Z</time>
      </trkpt>
      <trkpt lat="48.7944720" lon="13.9570820">
        <ele>747.2</ele>
        <time>2019-08-07T07:36:13Z</time>
      </trkpt>
      <trkpt lat="48.7944700" lon="13.9571180">
        <ele>747.4</ele>
        <time>2019-08-07T07:36:14Z</time>
      </trkpt>
      <trkpt lat="48.7944690" lon="13.9571530">
        <ele>747.6</ele>
        <time>2019-08-07T07:36:15Z</time>
      </trkpt>
      <trkpt lat="48.7944670" lon="13.9571880">
        <ele>747.8</ele>
        <time>2019-08-07T07:36:16Z</time>
      </trkpt>
      <trkpt lat="48.7944640" lon="13.9572210">
        <ele>748.0</ele>
        <time>2019-08-07T07:36:17Z</time>
      </trkpt>
      <trkpt lat="48.7944580" lon="13.9572520">
        <ele>748.0</ele>
        <time>2019-08-07T07:36:18Z</time>
      </trkpt>
      <trkpt lat="48.7944550" lon="13.9572840">
        <ele>748.2</ele>
        <time>2019-08-07T07:36:19Z</time>
      </trkpt>
      <trkpt lat="48.7944560" lon="13.9573170">
        <ele>748.4</ele>
        <time>2019-08-07T07:36:20Z</time>
      </trkpt>
      <trkpt lat="48.7944550" lon="13.9573490">
        <ele>748.6</ele>
        <time>2019-08-07T07:36:21Z</time>
      </trkpt>
      <trkpt lat="48.7944530" lon="13.9573820">
        <ele>748.8</ele>
        <time>2019-08-07T07:36:22Z</time>
      </trkpt>
      <trkpt lat="48.7944500" lon="13.9574140">
        <ele>749.0</ele>
        <time>2019-08-07T07:36:23Z</time>
      </trkpt>
      <trkpt lat="48.7944500" lon="13.9574460">
        <ele>749.2</ele>
        <time>2019-08-07T07:36:24Z</time>
      </trkpt>
      <trkpt lat="48.7944490" lon="13.9574800">
        <ele>749.4</ele>
        <time>2019-08-07T07:36:25Z</time>
      </trkpt>
      <trkpt lat="48.7944460" lon="13.9575120">
        <ele>749.4</ele>
        <time>2019-08-07T07:36:26Z</time>
      </trkpt>
      <trkpt lat="48.7944440" lon="13.9575470">
        <ele>749.6</ele>
        <time>2019-08-07T07:36:27Z</time>
      </trkpt>
      <trkpt lat="48.7944410" lon="13.9575810">
        <ele>749.8</ele>
        <time>2019-08-07T07:36:28Z</time>
      </trkpt>
      <trkpt lat="48.7944390" lon="13.9576150">
        <ele>750.0</ele>
        <time>2019-08-07T07:36:29Z</time>
      </trkpt>
      <trkpt lat="48.7944350" lon="13.9576490">
        <ele>750.2</ele>
        <time>2019-08-07T07:36:30Z</time>
      </trkpt>
      <trkpt lat="48.7944310" lon="13.9576850">
        <ele>750.4</ele>
        <time>2019-08-07T07:36:31Z</time>
      </trkpt>
      <trkpt lat="48.7944260" lon="13.9577200">
        <ele>750.4</ele>
        <time>2019-08-07T07:36:32Z</time>
      </trkpt>
      <trkpt lat="48.7944210" lon="13.9577560">
        <ele>750.6</ele>
        <time>2019-08-07T07:36:33Z</time>
      </trkpt>
      <trkpt lat="48.7944160" lon="13.9577920">
        <ele>750.8</ele>
        <time>2019-08-07T07:36:34Z</time>
      </trkpt>
      <trkpt lat="48.7944140" lon="13.9578280">
        <ele>750.8</ele>
        <time>2019-08-07T07:36:35Z</time>
      </trkpt>
      <trkpt lat="48.7944130" lon="13.9578650">
        <ele>751.0</ele>
        <time>2019-08-07T07:36:36Z</time>
      </trkpt>
      <trkpt lat="48.7944130" lon="13.9579020">
        <ele>751.2</ele>
        <time>2019-08-07T07:36:37Z</time>
      </trkpt>
      <trkpt lat="48.7944120" lon="13.9579390">
        <ele>751.4</ele>
        <time>2019-08-07T07:36:38Z</time>
      </trkpt>
      <trkpt lat="48.7944090" lon="13.9579760">
        <ele>751.4</ele>
        <time>2019-08-07T07:36:39Z</time>
      </trkpt>
      <trkpt lat="48.7944060" lon="13.9580130">
        <ele>751.6</ele>
        <time>2019-08-07T07:36:40Z</time>
      </trkpt>
      <trkpt lat="48.7944040" lon="13.9580510">
        <ele>751.8</ele>
        <time>2019-08-07T07:36:41Z</time>
      </trkpt>
      <trkpt lat="48.7944010" lon="13.9580890">
        <ele>751.8</ele>
        <time>2019-08-07T07:36:42Z</time>
      </trkpt>
      <trkpt lat="48.7943970" lon="13.9581280">
        <ele>752.0</ele>
        <time>2019-08-07T07:36:43Z</time>
      </trkpt>
      <trkpt lat="48.7943950" lon="13.9581650">
        <ele>752.2</ele>
        <time>2019-08-07T07:36:44Z</time>
      </trkpt>
      <trkpt lat="48.7943940" lon="13.9582030">
        <ele>752.2</ele>
        <time>2019-08-07T07:36:45Z</time>
      </trkpt>
      <trkpt lat="48.7943920" lon="13.9582410">
        <ele>752.4</ele>
        <time>2019-08-07T07:36:46Z</time>
      </trkpt>
      <trkpt lat="48.7943890" lon="13.9582790">
        <ele>752.6</ele>
        <time>2019-08-07T07:36:47Z</time>
      </trkpt>
      <trkpt lat="48.7943840" lon="13.9583180">
        <ele>752.6</ele>
        <time>2019-08-07T07:36:48Z</time>
      </trkpt>
      <trkpt lat="48.7943800" lon="13.9583560">
        <ele>752.8</ele>
        <time>2019-08-07T07:36:49Z</time>
      </trkpt>
      <trkpt lat="48.7943770" lon="13.9583940">
        <ele>752.8</ele>
        <time>2019-08-07T07:36:50Z</time>
      </trkpt>
      <trkpt lat="48.7943750" lon="13.9584350">
        <ele>753.0</ele>
        <time>2019-08-07T07:36:51Z</time>
      </trkpt>
      <trkpt lat="48.7943740" lon="13.9584770">
        <ele>753.2</ele>
        <time>2019-08-07T07:36:52Z</time>
      </trkpt>
      <trkpt lat="48.7943700" lon="13.9585180">
        <ele>753.2</ele>
        <time>2019-08-07T07:36:53Z</time>
      </trkpt>
      <trkpt lat="48.7943660" lon="13.9585590">
        <ele>753.4</ele>
        <time>2019-08-07T07:36:54Z</time>
      </trkpt>
      <trkpt lat="48.7943630" lon="13.9586030">
        <ele>753.4</ele>
        <time>2019-08-07T07:36:55Z</time>
      </trkpt>
      <trkpt lat="48.7943590" lon="13.9586460">
        <ele>753.6</ele>
        <time>2019-08-07T07:36:56Z</time>
      </trkpt>
      <trkpt lat="48.7943560" lon="13.9586900">
        <ele>753.6</ele>
        <time>2019-08-07T07:36:57Z</time>
      </trkpt>
      <trkpt lat="48.7943520" lon="13.9587310">
        <ele>753.6</ele>
        <time>2019-08-07T07:36:58Z</time>
      </trkpt>
      <trkpt lat="48.7943500" lon="13.9587730">
        <ele>753.8</ele>
        <time>2019-08-07T07:36:59Z</time>
      </trkpt>
      <trkpt lat="48.7943490" lon="13.9588150">
        <ele>753.8</ele>
        <time>2019-08-07T07:37:00Z</time>
      </trkpt>
      <trkpt lat="48.7943470" lon="13.9588590">
        <ele>753.8</ele>
        <time>2019-08-07T07:37:01Z</time>
      </trkpt>
      <trkpt lat="48.7943440" lon="13.9589030">
        <ele>754.0</ele>
        <time>2019-08-07T07:37:02Z</time>
      </trkpt>
      <trkpt lat="48.7943380" lon="13.9589490">
        <ele>754.0</ele>
        <time>2019-08-07T07:37:03Z</time>
      </trkpt>
      <trkpt lat="48.7943320" lon="13.9589960">
        <ele>754.0</ele>
        <time>2019-08-07T07:37:04Z</time>
      </trkpt>
      <trkpt lat="48.7943250" lon="13.9590420">
        <ele>754.2</ele>
        <time>2019-08-07T07:37:05Z</time>
      </trkpt>
      <trkpt lat="48.7943220" lon="13.9590920">
        <ele>754.2</ele>
        <time>2019-08-07T07:37:06Z</time>
      </trkpt>
      <trkpt lat="48.7943220" lon="13.9591420">
        <ele>754.2</ele>
        <time>2019-08-07T07:37:07Z</time>
      </trkpt>
      <trkpt lat="48.7943200" lon="13.9591910">
        <ele>754.2</ele>
        <time>2019-08-07T07:37:08Z</time>
      </trkpt>
      <trkpt lat="48.7943170" lon="13.9592420">
        <ele>754.4</ele>
        <time>2019-08-07T07:37:09Z</time>
      </trkpt>
      <trkpt lat="48.7943140" lon="13.9592890">
        <ele>754.4</ele>
        <time>2019-08-07T07:37:10Z</time>
      </trkpt>
      <trkpt lat="48.7943110" lon="13.9593370">
        <ele>754.4</ele>
        <time>2019-08-07T07:37:11Z</time>
      </trkpt>
      <trkpt lat="48.7943100" lon="13.9593850">
        <ele>754.4</ele>
        <time>2019-08-07T07:37:12Z</time>
      </trkpt>
      <trkpt lat="48.7943090" lon="13.9594360">
        <ele>754.4</ele>
        <time>2019-08-07T07:37:13Z</time>
      </trkpt>
      <trkpt lat="48.7943070" lon="13.9594850">
        <ele>754.6</ele>
        <time>2019-08-07T07:37:14Z</time>
      </trkpt>
      <trkpt lat="48.7943050" lon="13.9595360">
        <ele>754.6</ele>
        <time>2019-08-07T07:37:15Z</time>
      </trkpt>
      <trkpt lat="48.7943060" lon="13.9595880">
        <ele>754.6</ele>
        <time>2019-08-07T07:37:16Z</time>
      </trkpt>
      <trkpt lat="48.7943090" lon="13.9596380">
        <ele>754.6</ele>
        <time>2019-08-07T07:37:17Z</time>
      </trkpt>
      <trkpt lat="48.7943150" lon="13.9596880">
        <ele>754.8</ele>
        <time>2019-08-07T07:37:18Z</time>
      </trkpt>
      <trkpt lat="48.7943230" lon="13.9597360">
        <ele>754.8</ele>
        <time>2019-08-07T07:37:19Z</time>
      </trkpt>
      <trkpt lat="48.7943300" lon="13.9597800">
        <ele>754.8</ele>
        <time>2019-08-07T07:37:20Z</time>
      </trkpt>
      <trkpt lat="48.7943350" lon="13.9598280">
        <ele>754.8</ele>
        <time>2019-08-07T07:37:21Z</time>
      </trkpt>
      <trkpt lat="48.7943420" lon="13.9598770">
        <ele>755.0</ele>
        <time>2019-08-07T07:37:22Z</time>
      </trkpt>
      <trkpt lat="48.7943500" lon="13.9599230">
        <ele>755.0</ele>
        <time>2019-08-07T07:37:23Z</time>
      </trkpt>
      <trkpt lat="48.7943610" lon="13.9599680">
        <ele>755.0</ele>
        <time>2019-08-07T07:37:24Z</time>
      </trkpt>
      <trkpt lat="48.7943740" lon="13.9600100">
        <ele>755.0</ele>
        <time>2019-08-07T07:37:25Z</time>
      </trkpt>
      <trkpt lat="48.7943870" lon="13.9600500">
        <ele>755.2</ele>
        <time>2019-08-07T07:37:26Z</time>
      </trkpt>
      <trkpt lat="48.7943990" lon="13.9600910">
        <ele>755.2</ele>
        <time>2019-08-07T07:37:27Z</time>
      </trkpt>
      <trkpt lat="48.7944130" lon="13.9601280">
        <ele>755.4</ele>
        <time>2019-08-07T07:37:28Z</time>
      </trkpt>
      <trkpt lat="48.7944300" lon="13.9601600">
        <ele>755.4</ele>
        <time>2019-08-07T07:37:29Z</time>
      </trkpt>
      <trkpt lat="48.7944500" lon="13.9601910">
        <ele>755.4</ele>
        <time>2019-08-07T07:37:30Z</time>
      </trkpt>
      <trkpt lat="48.7944680" lon="13.9602220">
        <ele>755.6</ele>
        <time>2019-08-07T07:37:31Z</time>
      </trkpt>
      <trkpt lat="48.7944880" lon="13.9602540">
        <ele>755.6</ele>
        <time>2019-08-07T07:37:32Z</time>
      </trkpt>
      <trkpt lat="48.7945110" lon="13.9602850">
        <ele>755.6</ele>
        <time>2019-08-07T07:37:33Z</time>
      </trkpt>
      <trkpt lat="48.7945330" lon="13.9603120">
        <ele>755.6</ele>
        <time>2019-08-07T07:37:34Z</time>
      </trkpt>
      <trkpt lat="48.7945540" lon="13.9603370">
        <ele>755.8</ele>
        <time>2019-08-07T07:37:35Z</time>
      </trkpt>
      <trkpt lat="48.7945720" lon="13.9603600">
        <ele>755.8</ele>
        <time>2019-08-07T07:37:36Z</time>
      </trkpt>
      <trkpt lat="48.7945890" lon="13.9603780">
        <ele>755.8</ele>
        <time>2019-08-07T07:37:37Z</time>
      </trkpt>
      <trkpt lat="48.7946050" lon="13.9603880">
        <ele>755.8</ele>
        <time>2019-08-07T07:37:38Z</time>
      </trkpt>
      <trkpt lat="48.7946200" lon="13.9603950">
        <ele>755.8</ele>
        <time>2019-08-07T07:37:39Z</time>
      </trkpt>
      <trkpt lat="48.7946360" lon="13.9604070">
        <ele>756.0</ele>
        <time>2019-08-07T07:37:40Z</time>
      </trkpt>
      <trkpt lat="48.7946520" lon="13.9604220">
        <ele>756.0</ele>
        <time>2019-08-07T07:37:41Z</time>
      </trkpt>
      <trkpt lat="48.7946690" lon="13.9604390">
        <ele>756.0</ele>
        <time>2019-08-07T07:37:42Z</time>
      </trkpt>
      <trkpt lat="48.7946860" lon="13.9604580">
        <ele>756.0</ele>
        <time>2019-08-07T07:37:43Z</time>
      </trkpt>
      <trkpt lat="48.7947030" lon="13.9604770">
        <ele>756.0</ele>
        <time>2019-08-07T07:37:44Z</time>
      </trkpt>
      <trkpt lat="48.7947220" lon="13.9604940">
        <ele>756.0</ele>
        <time>2019-08-07T07:37:45Z</time>
      </trkpt>
      <trkpt lat="48.7947390" lon="13.9605110">
        <ele>756.0</ele>
        <time>2019-08-07T07:37:46Z</time>
      </trkpt>
      <trkpt lat="48.7947580" lon="13.9605240">
        <ele>756.0</ele>
        <time>2019-08-07T07:37:47Z</time>
      </trkpt>
      <trkpt lat="48.7947780" lon="13.9605410">
        <ele>756.0</ele>
        <time>2019-08-07T07:37:48Z</time>
      </trkpt>
      <trkpt lat="48.7947990" lon="13.9605560">
        <ele>755.8</ele>
        <time>2019-08-07T07:37:49Z</time>
      </trkpt>
      <trkpt lat="48.7948210" lon="13.9605740">
        <ele>755.8</ele>
        <time>2019-08-07T07:37:50Z</time>
      </trkpt>
      <trkpt lat="48.7948450" lon="13.9605920">
        <ele>755.8</ele>
        <time>2019-08-07T07:37:51Z</time>
      </trkpt>
      <trkpt lat="48.7948720" lon="13.9606130">
        <ele>755.8</ele>
        <time>2019-08-07T07:37:52Z</time>
      </trkpt>
      <trkpt lat="48.7949000" lon="13.9606360">
        <ele>755.6</ele>
        <time>2019-08-07T07:37:53Z</time>
      </trkpt>
      <trkpt lat="48.7949310" lon="13.9606620">
        <ele>755.6</ele>
        <time>2019-08-07T07:37:54Z</time>
      </trkpt>
      <trkpt lat="48.7949640" lon="13.9606900">
        <ele>755.6</ele>
        <time>2019-08-07T07:37:55Z</time>
      </trkpt>
      <trkpt lat="48.7950010" lon="13.9607210">
        <ele>755.4</ele>
        <time>2019-08-07T07:37:56Z</time>
      </trkpt>
      <trkpt lat="48.7950410" lon="13.9607540">
        <ele>755.2</ele>
        <time>2019-08-07T07:37:57Z</time>
      </trkpt>
      <trkpt lat="48.7950810" lon="13.9607840">
        <ele>755.0</ele>
        <time>2019-08-07T07:37:58Z</time>
      </trkpt>
      <trkpt lat="48.7951230" lon="13.9608170">
        <ele>754.8</ele>
        <time>2019-08-07T07:37:59Z</time>
      </trkpt>
      <trkpt lat="48.7951650" lon="13.9608590">
        <ele>754.4</ele>
        <time>2019-08-07T07:38:00Z</time>
      </trkpt>
      <trkpt lat="48.7952040" lon="13.9609120">
        <ele>754.2</ele>
        <time>2019-08-07T07:38:01Z</time>
      </trkpt>
      <trkpt lat="48.7952430" lon="13.9609730">
        <ele>754.0</ele>
        <time>2019-08-07T07:38:02Z</time>
      </trkpt>
      <trkpt lat="48.7952830" lon="13.9610440">
        <ele>753.6</ele>
        <time>2019-08-07T07:38:03Z</time>
      </trkpt>
      <trkpt lat="48.7953220" lon="13.9611230">
        <ele>753.2</ele>
        <time>2019-08-07T07:38:04Z</time>
      </trkpt>
      <trkpt lat="48.7953560" lon="13.9612070">
        <ele>752.6</ele>
        <time>2019-08-07T07:38:05Z</time>
      </trkpt>
      <trkpt lat="48.7953810" lon="13.9612970">
        <ele>752.0</ele>
        <time>2019-08-07T07:38:06Z</time>
      </trkpt>
      <trkpt lat="48.7953950" lon="13.9613990">
        <ele>751.2</ele>
        <time>2019-08-07T07:38:07Z</time>
      </trkpt>
      <trkpt lat="48.7954010" lon="13.9615090">
        <ele>750.6</ele>
        <time>2019-08-07T07:38:08Z</time>
      </trkpt>
      <trkpt lat="48.7954050" lon="13.9616230">
        <ele>750.2</ele>
        <time>2019-08-07T07:38:09Z</time>
      </trkpt>
      <trkpt lat="48.7954120" lon="13.9617440">
        <ele>749.6</ele>
        <time>2019-08-07T07:38:10Z</time>
      </trkpt>
      <trkpt lat="48.7954210" lon="13.9618750">
        <ele>749.2</ele>
        <time>2019-08-07T07:38:11Z</time>
      </trkpt>
      <trkpt lat="48.7954310" lon="13.9620110">
        <ele>748.6</ele>
        <time>2019-08-07T07:38:12Z</time>
      </trkpt>
      <trkpt lat="48.7954310" lon="13.9621680">
        <ele>748.0</ele>
        <time>2019-08-07T07:38:13Z</time>
      </trkpt>
      <trkpt lat="48.7954080" lon="13.9623200">
        <ele>747.4</ele>
        <time>2019-08-07T07:38:14Z</time>
      </trkpt>
      <trkpt lat="48.7953800" lon="13.9624620">
        <ele>747.0</ele>
        <time>2019-08-07T07:38:15Z</time>
      </trkpt>
      <trkpt lat="48.7953490" lon="13.9625890">
        <ele>746.4</ele>
        <time>2019-08-07T07:38:16Z</time>
      </trkpt>
      <trkpt lat="48.7953100" lon="13.9627270">
        <ele>746.0</ele>
        <time>2019-08-07T07:38:17Z</time>
      </trkpt>
      <trkpt lat="48.7952630" lon="13.9628520">
        <ele>745.2</ele>
        <time>2019-08-07T07:38:18Z</time>
      </trkpt>
      <trkpt lat="48.7952090" lon="13.9629590">
        <ele>744.8</ele>
        <time>2019-08-07T07:38:19Z</time>
      </trkpt>
      <trkpt lat="48.7951580" lon="13.9630620">
        <ele>744.4</ele>
        <time>2019-08-07T07:38:20Z</time>
      </trkpt>
      <trkpt lat="48.7951040" lon="13.9631620">
        <ele>744.2</ele>
        <time>2019-08-07T07:38:21Z</time>
      </trkpt>
      <trkpt lat="48.7950540" lon="13.9632630">
        <ele>744.0</ele>
        <time>2019-08-07T07:38:22Z</time>
      </trkpt>
      <trkpt lat="48.7950060" lon="13.9633630">
        <ele>744.0</ele>
        <time>2019-08-07T07:38:23Z</time>
      </trkpt>
      <trkpt lat="48.7949590" lon="13.9634590">
        <ele>744.0</ele>
        <time>2019-08-07T07:38:24Z</time>
      </trkpt>
      <trkpt lat="48.7949190" lon="13.9635520">
        <ele>744.0</ele>
        <time>2019-08-07T07:38:25Z</time>
      </trkpt>
      <trkpt lat="48.7948850" lon="13.9636330">
        <ele>744.2</ele>
        <time>2019-08-07T07:38:26Z</time>
      </trkpt>
      <trkpt lat="48.7948510" lon="13.9637140">
        <ele>744.2</ele>
        <time>2019-08-07T07:38:27Z</time>
      </trkpt>
      <trkpt lat="48.7948160" lon="13.9637870">
        <ele>744.2</ele>
        <time>2019-08-07T07:38:28Z</time>
      </trkpt>
      <trkpt lat="48.7947750" lon="13.9638540">
        <ele>744.2</ele>
        <time>2019-08-07T07:38:29Z</time>
      </trkpt>
      <trkpt lat="48.7947290" lon="13.9639130">
        <ele>744.2</ele>
        <time>2019-08-07T07:38:30Z</time>
      </trkpt>
      <trkpt lat="48.7946810" lon="13.9639620">
        <ele>744.4</ele>
        <time>2019-08-07T07:38:31Z</time>
      </trkpt>
      <trkpt lat="48.7946310" lon="13.9640050">
        <ele>744.4</ele>
        <time>2019-08-07T07:38:32Z</time>
      </trkpt>
      <trkpt lat="48.7945810" lon="13.9640350">
        <ele>744.6</ele>
        <time>2019-08-07T07:38:33Z</time>
      </trkpt>
      <trkpt lat="48.7945310" lon="13.9640620">
        <ele>744.8</ele>
        <time>2019-08-07T07:38:34Z</time>
      </trkpt>
      <trkpt lat="48.7944820" lon="13.9640870">
        <ele>745.0</ele>
        <time>2019-08-07T07:38:35Z</time>
      </trkpt>
      <trkpt lat="48.7944380" lon="13.9641110">
        <ele>745.2</ele>
        <time>2019-08-07T07:38:36Z</time>
      </trkpt>
      <trkpt lat="48.7943930" lon="13.9641390">
        <ele>745.2</ele>
        <time>2019-08-07T07:38:37Z</time>
      </trkpt>
      <trkpt lat="48.7943480" lon="13.9641730">
        <ele>745.4</ele>
        <time>2019-08-07T07:38:38Z</time>
      </trkpt>
      <trkpt lat="48.7943040" lon="13.9642070">
        <ele>745.6</ele>
        <time>2019-08-07T07:38:39Z</time>
      </trkpt>
      <trkpt lat="48.7942600" lon="13.9642400">
        <ele>745.6</ele>
        <time>2019-08-07T07:38:40Z</time>
      </trkpt>
      <trkpt lat="48.7942190" lon="13.9642730">
        <ele>745.8</ele>
        <time>2019-08-07T07:38:41Z</time>
      </trkpt>
      <trkpt lat="48.7941770" lon="13.9643070">
        <ele>746.0</ele>
        <time>2019-08-07T07:38:42Z</time>
      </trkpt>
      <trkpt lat="48.7941370" lon="13.9643400">
        <ele>746.0</ele>
        <time>2019-08-07T07:38:43Z</time>
      </trkpt>
      <trkpt lat="48.7941030" lon="13.9643680">
        <ele>746.2</ele>
        <time>2019-08-07T07:38:44Z</time>
      </trkpt>
      <trkpt lat="48.7940650" lon="13.9644010">
        <ele>746.4</ele>
        <time>2019-08-07T07:38:45Z</time>
      </trkpt>
      <trkpt lat="48.7940300" lon="13.9644330">
        <ele>746.6</ele>
        <time>2019-08-07T07:38:46Z</time>
      </trkpt>
      <trkpt lat="48.7939970" lon="13.9644610">
        <ele>746.6</ele>
        <time>2019-08-07T07:38:47Z</time>
      </trkpt>
      <trkpt lat="48.7939660" lon="13.9644880">
        <ele>746.8</ele>
        <time>2019-08-07T07:38:48Z</time>
      </trkpt>
      <trkpt lat="48.7939370" lon="13.9645150">
        <ele>747.0</ele>
        <time>2019-08-07T07:38:49Z</time>
      </trkpt>
      <trkpt lat="48.7939100" lon="13.9645390">
        <ele>747.2</ele>
        <time>2019-08-07T07:38:50Z</time>
      </trkpt>
      <trkpt lat="48.7938820" lon="13.9645630">
        <ele>747.4</ele>
        <time>2019-08-07T07:38:51Z</time>
      </trkpt>
      <trkpt lat="48.7938520" lon="13.9645830">
        <ele>747.6</ele>
        <time>2019-08-07T07:38:52Z</time>
      </trkpt>
      <trkpt lat="48.7938220" lon="13.9646030">
        <ele>747.6</ele>
        <time>2019-08-07T07:38:53Z</time>
      </trkpt>
      <trkpt lat="48.7937910" lon="13.9646250">
        <ele>747.8</ele>
        <time>2019-08-07T07:38:54Z</time>
      </trkpt>
      <trkpt lat="48.7937580" lon="13.9646450">
        <ele>747.8</ele>
        <time>2019-08-07T07:38:55Z</time>
      </trkpt>
      <trkpt lat="48.7937240" lon="13.9646680">
        <ele>747.8</ele>
        <time>2019-08-07T07:38:56Z</time>
      </trkpt>
      <trkpt lat="48.7936900" lon="13.9646930">
        <ele>747.8</ele>
        <time>2019-08-07T07:38:57Z</time>
      </trkpt>
      <trkpt lat="48.7936550" lon="13.9647210">
        <ele>747.8</ele>
        <time>2019-08-07T07:38:58Z</time>
      </trkpt>
      <trkpt lat="48.7936220" lon="13.9647520">
        <ele>747.8</ele>
        <time>2019-08-07T07:38:59Z</time>
      </trkpt>
      <trkpt lat="48.7935880" lon="13.9647840">
        <ele>747.8</ele>
        <time>2019-08-07T07:39:00Z</time>
      </trkpt>
      <trkpt lat="48.7935550" lon="13.9648150">
        <ele>747.8</ele>
        <time>2019-08-07T07:39:01Z</time>
      </trkpt>
      <trkpt lat="48.7935200" lon="13.9648470">
        <ele>747.8</ele>
        <time>2019-08-07T07:39:02Z</time>
      </trkpt>
      <trkpt lat="48.7934860" lon="13.9648760">
        <ele>747.6</ele>
        <time>2019-08-07T07:39:03Z</time>
      </trkpt>
      <trkpt lat="48.7934540" lon="13.9649060">
        <ele>747.6</ele>
        <time>2019-08-07T07:39:04Z</time>
      </trkpt>
      <trkpt lat="48.7934210" lon="13.9649350">
        <ele>747.6</ele>
        <time>2019-08-07T07:39:05Z</time>
      </trkpt>
      <trkpt lat="48.7933880" lon="13.9649590">
        <ele>747.6</ele>
        <time>2019-08-07T07:39:06Z</time>
      </trkpt>
      <trkpt lat="48.7933530" lon="13.9649800">
        <ele>747.6</ele>
        <time>2019-08-07T07:39:07Z</time>
      </trkpt>
      <trkpt lat="48.7933090" lon="13.9650010">
        <ele>747.4</ele>
        <time>2019-08-07T07:39:08Z</time>
      </trkpt>
      <trkpt lat="48.7932580" lon="13.9650270">
        <ele>747.2</ele>
        <time>2019-08-07T07:39:09Z</time>
      </trkpt>
      <trkpt lat="48.7932040" lon="13.9650560">
        <ele>747.0</ele>
        <time>2019-08-07T07:39:10Z</time>
      </trkpt>
      <trkpt lat="48.7931470" lon="13.9650870">
        <ele>746.8</ele>
        <time>2019-08-07T07:39:11Z</time>
      </trkpt>
      <trkpt lat="48.7930850" lon="13.9651210">
        <ele>746.6</ele>
        <time>2019-08-07T07:39:12Z</time>
      </trkpt>
      <trkpt lat="48.7930220" lon="13.9651540">
        <ele>746.4</ele>
        <time>2019-08-07T07:39:13Z</time>
      </trkpt>
      <trkpt lat="48.7929560" lon="13.9651860">
        <ele>746.0</ele>
        <time>2019-08-07T07:39:14Z</time>
      </trkpt>
      <trkpt lat="48.7928890" lon="13.9652150">
        <ele>745.8</ele>
        <time>2019-08-07T07:39:15Z</time>
      </trkpt>
      <trkpt lat="48.7928240" lon="13.9652440">
        <ele>745.4</ele>
        <time>2019-08-07T07:39:16Z</time>
      </trkpt>
      <trkpt lat="48.7927540" lon="13.9652720">
        <ele>745.2</ele>
        <time>2019-08-07T07:39:17Z</time>
      </trkpt>
      <trkpt lat="48.7926840" lon="13.9653010">
        <ele>745.0</ele>
        <time>2019-08-07T07:39:18Z</time>
      </trkpt>
      <trkpt lat="48.7926110" lon="13.9653300">
        <ele>744.8</ele>
        <time>2019-08-07T07:39:19Z</time>
      </trkpt>
      <trkpt lat="48.7925390" lon="13.9653590">
        <ele>744.6</ele>
        <time>2019-08-07T07:39:20Z</time>
      </trkpt>
      <trkpt lat="48.7924680" lon="13.9653900">
        <ele>744.4</ele>
        <time>2019-08-07T07:39:21Z</time>
      </trkpt>
      <trkpt lat="48.7923960" lon="13.9654200">
        <ele>744.0</ele>
        <time>2019-08-07T07:39:22Z</time>
      </trkpt>
      <trkpt lat="48.7923220" lon="13.9654480">
        <ele>743.8</ele>
        <time>2019-08-07T07:39:23Z</time>
      </trkpt>
      <trkpt lat="48.7922480" lon="13.9654760">
        <ele>743.6</ele>
        <time>2019-08-07T07:39:24Z</time>
      </trkpt>
      <trkpt lat="48.7921760" lon="13.9655040">
        <ele>743.4</ele>
        <time>2019-08-07T07:39:25Z</time>
      </trkpt>
      <trkpt lat="48.7921030" lon="13.9655310">
        <ele>743.2</ele>
        <time>2019-08-07T07:39:26Z</time>
      </trkpt>
      <trkpt lat="48.7920300" lon="13.9655590">
        <ele>743.0</ele>
        <time>2019-08-07T07:39:27Z</time>
      </trkpt>
      <trkpt lat="48.7919570" lon="13.9655860">
        <ele>743.0</ele>
        <time>2019-08-07T07:39:28Z</time>
      </trkpt>
      <trkpt lat="48.7918840" lon="13.9656110">
        <ele>742.8</ele>
        <time>2019-08-07T07:39:29Z</time>
      </trkpt>
      <trkpt lat="48.7918120" lon="13.9656390">
        <ele>742.6</ele>
        <time>2019-08-07T07:39:30Z</time>
      </trkpt>
      <trkpt lat="48.7917390" lon="13.9656720">
        <ele>742.4</ele>
        <time>2019-08-07T07:39:31Z</time>
      </trkpt>
      <trkpt lat="48.7916670" lon="13.9657120">
        <ele>742.2</ele>
        <time>2019-08-07T07:39:32Z</time>
      </trkpt>
      <trkpt lat="48.7916010" lon="13.9657560">
        <ele>742.0</ele>
        <time>2019-08-07T07:39:33Z</time>
      </trkpt>
      <trkpt lat="48.7915310" lon="13.9658140">
        <ele>741.8</ele>
        <time>2019-08-07T07:39:34Z</time>
      </trkpt>
      <trkpt lat="48.7914600" lon="13.9658740">
        <ele>741.6</ele>
        <time>2019-08-07T07:39:35Z</time>
      </trkpt>
      <trkpt lat="48.7913930" lon="13.9659330">
        <ele>741.4</ele>
        <time>2019-08-07T07:39:36Z</time>
      </trkpt>
      <trkpt lat="48.7913280" lon="13.9659930">
        <ele>741.2</ele>
        <time>2019-08-07T07:39:37Z</time>
      </trkpt>
      <trkpt lat="48.7912620" lon="13.9660590">
        <ele>741.0</ele>
        <time>2019-08-07T07:39:38Z</time>
      </trkpt>
      <trkpt lat="48.7911980" lon="13.9661260">
        <ele>740.8</ele>
        <time>2019-08-07T07:39:39Z</time>
      </trkpt>
      <trkpt lat="48.7911340" lon="13.9661940">
        <ele>740.6</ele>
        <time>2019-08-07T07:39:40Z</time>
      </trkpt>
      <trkpt lat="48.7910730" lon="13.9662600">
        <ele>740.4</ele>
        <time>2019-08-07T07:39:41Z</time>
      </trkpt>
      <trkpt lat="48.7910100" lon="13.9663290">
        <ele>740.4</ele>
        <time>2019-08-07T07:39:42Z</time>
      </trkpt>
      <trkpt lat="48.7909470" lon="13.9663970">
        <ele>740.4</ele>
        <time>2019-08-07T07:39:43Z</time>
      </trkpt>
      <trkpt lat="48.7908880" lon="13.9664630">
        <ele>740.2</ele>
        <time>2019-08-07T07:39:44Z</time>
      </trkpt>
      <trkpt lat="48.7908290" lon="13.9665340">
        <ele>740.2</ele>
        <time>2019-08-07T07:39:45Z</time>
      </trkpt>
      <trkpt lat="48.7907700" lon="13.9666010">
        <ele>740.0</ele>
        <time>2019-08-07T07:39:46Z</time>
      </trkpt>
      <trkpt lat="48.7907150" lon="13.9666660">
        <ele>739.8</ele>
        <time>2019-08-07T07:39:47Z</time>
      </trkpt>
      <trkpt lat="48.7906530" lon="13.9667410">
        <ele>739.8</ele>
        <time>2019-08-07T07:39:48Z</time>
      </trkpt>
      <trkpt lat="48.7905940" lon="13.9668170">
        <ele>739.6</ele>
        <time>2019-08-07T07:39:49Z</time>
      </trkpt>
      <trkpt lat="48.7905360" lon="13.9668900">
        <ele>739.6</ele>
        <time>2019-08-07T07:39:50Z</time>
      </trkpt>
      <trkpt lat="48.7904770" lon="13.9669620">
        <ele>739.4</ele>
        <time>2019-08-07T07:39:51Z</time>
      </trkpt>
      <trkpt lat="48.7904160" lon="13.9670340">
        <ele>739.2</ele>
        <time>2019-08-07T07:39:52Z</time>
      </trkpt>
      <trkpt lat="48.7903530" lon="13.9671080">
        <ele>739.0</ele>
        <time>2019-08-07T07:39:53Z</time>
      </trkpt>
      <trkpt lat="48.7902910" lon="13.9671840">
        <ele>739.0</ele>
        <time>2019-08-07T07:39:54Z</time>
      </trkpt>
      <trkpt lat="48.7902290" lon="13.9672600">
        <ele>738.8</ele>
        <time>2019-08-07T07:39:55Z</time>
      </trkpt>
      <trkpt lat="48.7901660" lon="13.9673390">
        <ele>738.6</ele>
        <time>2019-08-07T07:39:56Z</time>
      </trkpt>
      <trkpt lat="48.7901090" lon="13.9674150">
        <ele>738.4</ele>
        <time>2019-08-07T07:39:57Z</time>
      </trkpt>
      <trkpt lat="48.7900460" lon="13.9674980">
        <ele>738.2</ele>
        <time>2019-08-07T07:39:58Z</time>
      </trkpt>
      <trkpt lat="48.7899840" lon="13.9675810">
        <ele>738.0</ele>
        <time>2019-08-07T07:39:59Z</time>
      </trkpt>
      <trkpt lat="48.7899310" lon="13.9676510">
        <ele>737.8</ele>
        <time>2019-08-07T07:40:00Z</time>
      </trkpt>
      <trkpt lat="48.7898660" lon="13.9677340">
        <ele>737.8</ele>
        <time>2019-08-07T07:40:01Z</time>
      </trkpt>
      <trkpt lat="48.7898040" lon="13.9678140">
        <ele>737.8</ele>
        <time>2019-08-07T07:40:02Z</time>
      </trkpt>
      <trkpt lat="48.7897440" lon="13.9678920">
        <ele>737.8</ele>
        <time>2019-08-07T07:40:03Z</time>
      </trkpt>
      <trkpt lat="48.7896880" lon="13.9679710">
        <ele>737.6</ele>
        <time>2019-08-07T07:40:04Z</time>
      </trkpt>
      <trkpt lat="48.7896340" lon="13.9680480">
        <ele>737.6</ele>
        <time>2019-08-07T07:40:05Z</time>
      </trkpt>
      <trkpt lat="48.7895830" lon="13.9681230">
        <ele>737.8</ele>
        <time>2019-08-07T07:40:06Z</time>
      </trkpt>
      <trkpt lat="48.7895310" lon="13.9681990">
        <ele>737.8</ele>
        <time>2019-08-07T07:40:07Z</time>
      </trkpt>
      <trkpt lat="48.7894800" lon="13.9682730">
        <ele>737.8</ele>
        <time>2019-08-07T07:40:08Z</time>
      </trkpt>
      <trkpt lat="48.7894320" lon="13.9683410">
        <ele>737.8</ele>
        <time>2019-08-07T07:40:09Z</time>
      </trkpt>
      <trkpt lat="48.7893820" lon="13.9684110">
        <ele>737.6</ele>
        <time>2019-08-07T07:40:10Z</time>
      </trkpt>
      <trkpt lat="48.7893320" lon="13.9684870">
        <ele>737.8</ele>
        <time>2019-08-07T07:40:11Z</time>
      </trkpt>
      <trkpt lat="48.7892840" lon="13.9685590">
        <ele>737.8</ele>
        <time>2019-08-07T07:40:12Z</time>
      </trkpt>
      <trkpt lat="48.7892340" lon="13.9686300">
        <ele>737.8</ele>
        <time>2019-08-07T07:40:13Z</time>
      </trkpt>
      <trkpt lat="48.7891850" lon="13.9686950">
        <ele>737.6</ele>
        <time>2019-08-07T07:40:14Z</time>
      </trkpt>
      <trkpt lat="48.7891320" lon="13.9687630">
        <ele>737.6</ele>
        <time>2019-08-07T07:40:15Z</time>
      </trkpt>
      <trkpt lat="48.7890800" lon="13.9688290">
        <ele>737.6</ele>
        <time>2019-08-07T07:40:16Z</time>
      </trkpt>
      <trkpt lat="48.7890300" lon="13.9688970">
        <ele>737.6</ele>
        <time>2019-08-07T07:40:17Z</time>
      </trkpt>
      <trkpt lat="48.7889800" lon="13.9689660">
        <ele>737.6</ele>
        <time>2019-08-07T07:40:18Z</time>
      </trkpt>
      <trkpt lat="48.7889310" lon="13.9690340">
        <ele>737.6</ele>
        <time>2019-08-07T07:40:19Z</time>
      </trkpt>
      <trkpt lat="48.7888830" lon="13.9691000">
        <ele>737.6</ele>
        <time>2019-08-07T07:40:20Z</time>
      </trkpt>
      <trkpt lat="48.7888360" lon="13.9691640">
        <ele>737.6</ele>
        <time>2019-08-07T07:40:21Z</time>
      </trkpt>
      <trkpt lat="48.7887890" lon="13.9692270">
        <ele>737.6</ele>
        <time>2019-08-07T07:40:22Z</time>
      </trkpt>
      <trkpt lat="48.7887430" lon="13.9692880">
        <ele>737.8</ele>
        <time>2019-08-07T07:40:23Z</time>
      </trkpt>
      <trkpt lat="48.7887010" lon="13.9693480">
        <ele>737.8</ele>
        <time>2019-08-07T07:40:24Z</time>
      </trkpt>
      <trkpt lat="48.7886620" lon="13.9694070">
        <ele>738.0</ele>
        <time>2019-08-07T07:40:25Z</time>
      </trkpt>
      <trkpt lat="48.7886260" lon="13.9694670">
        <ele>738.2</ele>
        <time>2019-08-07T07:40:26Z</time>
      </trkpt>
      <trkpt lat="48.7885920" lon="13.9695230">
        <ele>738.4</ele>
        <time>2019-08-07T07:40:27Z</time>
      </trkpt>
      <trkpt lat="48.7885570" lon="13.9695800">
        <ele>738.4</ele>
        <time>2019-08-07T07:40:28Z</time>
      </trkpt>
      <trkpt lat="48.7885240" lon="13.9696340">
        <ele>738.6</ele>
        <time>2019-08-07T07:40:29Z</time>
      </trkpt>
      <trkpt lat="48.7884910" lon="13.9696860">
        <ele>738.6</ele>
        <time>2019-08-07T07:40:30Z</time>
      </trkpt>
      <trkpt lat="48.7884590" lon="13.9697380">
        <ele>738.8</ele>
        <time>2019-08-07T07:40:31Z</time>
      </trkpt>
      <trkpt lat="48.7884260" lon="13.9697910">
        <ele>738.8</ele>
        <time>2019-08-07T07:40:32Z</time>
      </trkpt>
      <trkpt lat="48.7883940" lon="13.9698420">
        <ele>739.0</ele>
        <time>2019-08-07T07:40:33Z</time>
      </trkpt>
      <trkpt lat="48.7883630" lon="13.9698920">
        <ele>739.0</ele>
        <time>2019-08-07T07:40:34Z</time>
      </trkpt>
      <trkpt lat="48.7883330" lon="13.9699410">
        <ele>739.0</ele>
        <time>2019-08-07T07:40:35Z</time>
      </trkpt>
      <trkpt lat="48.7883030" lon="13.9699880">
        <ele>739.2</ele>
        <time>2019-08-07T07:40:36Z</time>
      </trkpt>
      <trkpt lat="48.7882730" lon="13.9700370">
        <ele>739.2</ele>
        <time>2019-08-07T07:40:37Z</time>
      </trkpt>
      <trkpt lat="48.7882430" lon="13.9700880">
        <ele>739.2</ele>
        <time>2019-08-07T07:40:38Z</time>
      </trkpt>
      <trkpt lat="48.7882110" lon="13.9701410">
        <ele>739.2</ele>
        <time>2019-08-07T07:40:39Z</time>
      </trkpt>
      <trkpt lat="48.7881800" lon="13.9701980">
        <ele>739.0</ele>
        <time>2019-08-07T07:40:40Z</time>
      </trkpt>
      <trkpt lat="48.7881470" lon="13.9702580">
        <ele>739.0</ele>
        <time>2019-08-07T07:40:41Z</time>
      </trkpt>
      <trkpt lat="48.7881150" lon="13.9703220">
        <ele>738.8</ele>
        <time>2019-08-07T07:40:42Z</time>
      </trkpt>
      <trkpt lat="48.7880780" lon="13.9703930">
        <ele>738.6</ele>
        <time>2019-08-07T07:40:43Z</time>
      </trkpt>
      <trkpt lat="48.7880410" lon="13.9704670">
        <ele>738.6</ele>
        <time>2019-08-07T07:40:44Z</time>
      </trkpt>
      <trkpt lat="48.7880050" lon="13.9705420">
        <ele>738.4</ele>
        <time>2019-08-07T07:40:45Z</time>
      </trkpt>
      <trkpt lat="48.7879660" lon="13.9706170">
        <ele>738.2</ele>
        <time>2019-08-07T07:40:46Z</time>
      </trkpt>
      <trkpt lat="48.7879270" lon="13.9706930">
        <ele>738.0</ele>
        <time>2019-08-07T07:40:47Z</time>
      </trkpt>
      <trkpt lat="48.7878850" lon="13.9707700">
        <ele>738.0</ele>
        <time>2019-08-07T07:40:48Z</time>
      </trkpt>
      <trkpt lat="48.7878430" lon="13.9708470">
        <ele>737.8</ele>
        <time>2019-08-07T07:40:49Z</time>
      </trkpt>
      <trkpt lat="48.7878000" lon="13.9709240">
        <ele>737.6</ele>
        <time>2019-08-07T07:40:50Z</time>
      </trkpt>
      <trkpt lat="48.7877570" lon="13.9710050">
        <ele>737.6</ele>
        <time>2019-08-07T07:40:51Z</time>
      </trkpt>
      <trkpt lat="48.7877160" lon="13.9710840">
        <ele>737.4</ele>
        <time>2019-08-07T07:40:52Z</time>
      </trkpt>
      <trkpt lat="48.7876770" lon="13.9711660">
        <ele>737.4</ele>
        <time>2019-08-07T07:40:53Z</time>
      </trkpt>
      <trkpt lat="48.7876380" lon="13.9712510">
        <ele>737.2</ele>
        <time>2019-08-07T07:40:54Z</time>
      </trkpt>
      <trkpt lat="48.7876010" lon="13.9713340">
        <ele>737.2</ele>
        <time>2019-08-07T07:40:55Z</time>
      </trkpt>
      <trkpt lat="48.7875660" lon="13.9714210">
        <ele>737.0</ele>
        <time>2019-08-07T07:40:56Z</time>
      </trkpt>
      <trkpt lat="48.7875320" lon="13.9715060">
        <ele>737.0</ele>
        <time>2019-08-07T07:40:57Z</time>
      </trkpt>
      <trkpt lat="48.7874980" lon="13.9715970">
        <ele>737.0</ele>
        <time>2019-08-07T07:40:58Z</time>
      </trkpt>
      <trkpt lat="48.7874640" lon="13.9716880">
        <ele>737.0</ele>
        <time>2019-08-07T07:40:59Z</time>
      </trkpt>
      <trkpt lat="48.7874320" lon="13.9717760">
        <ele>737.0</ele>
        <time>2019-08-07T07:41:00Z</time>
      </trkpt>
      <trkpt lat="48.7873990" lon="13.9718660">
        <ele>737.0</ele>
        <time>2019-08-07T07:41:01Z</time>
      </trkpt>
      <trkpt lat="48.7873670" lon="13.9719570">
        <ele>736.8</ele>
        <time>2019-08-07T07:41:02Z</time>
      </trkpt>
      <trkpt lat="48.7873380" lon="13.9720430">
        <ele>736.8</ele>
        <time>2019-08-07T07:41:03Z</time>
      </trkpt>
      <trkpt lat="48.7873060" lon="13.9721330">
        <ele>736.8</ele>
        <time>2019-08-07T07:41:04Z</time>
      </trkpt>
      <trkpt lat="48.7872710" lon="13.9722240">
        <ele>736.6</ele>
        <time>2019-08-07T07:41:05Z</time>
      </trkpt>
      <trkpt lat="48.7872360" lon="13.9723130">
        <ele>736.6</ele>
        <time>2019-08-07T07:41:06Z</time>
      </trkpt>
      <trkpt lat="48.7872030" lon="13.9723990">
        <ele>736.6</ele>
        <time>2019-08-07T07:41:07Z</time>
      </trkpt>
      <trkpt lat="48.7871670" lon="13.9724900">
        <ele>736.4</ele>
        <time>2019-08-07T07:41:08Z</time>
      </trkpt>
      <trkpt lat="48.7871330" lon="13.9725810">
        <ele>736.2</ele>
        <time>2019-08-07T07:41:09Z</time>
      </trkpt>
      <trkpt lat="48.7870970" lon="13.9726720">
        <ele>736.0</ele>
        <time>2019-08-07T07:41:10Z</time>
      </trkpt>
      <trkpt lat="48.7870600" lon="13.9727640">
        <ele>736.0</ele>
        <time>2019-08-07T07:41:11Z</time>
      </trkpt>
      <trkpt lat="48.7870250" lon="13.9728510">
        <ele>735.8</ele>
        <time>2019-08-07T07:41:12Z</time>
      </trkpt>
      <trkpt lat="48.7869890" lon="13.9729350">
        <ele>735.8</ele>
        <time>2019-08-07T07:41:13Z</time>
      </trkpt>
      <trkpt lat="48.7869520" lon="13.9730190">
        <ele>735.8</ele>
        <time>2019-08-07T07:41:14Z</time>
      </trkpt>
      <trkpt lat="48.7869150" lon="13.9730980">
        <ele>735.8</ele>
        <time>2019-08-07T07:41:15Z</time>
      </trkpt>
      <trkpt lat="48.7868800" lon="13.9731750">
        <ele>735.8</ele>
        <time>2019-08-07T07:41:16Z</time>
      </trkpt>
      <trkpt lat="48.7868450" lon="13.9732520">
        <ele>735.8</ele>
        <time>2019-08-07T07:41:17Z</time>
      </trkpt>
      <trkpt lat="48.7868110" lon="13.9733280">
        <ele>736.0</ele>
        <time>2019-08-07T07:41:18Z</time>
      </trkpt>
      <trkpt lat="48.7867800" lon="13.9734000">
        <ele>736.2</ele>
        <time>2019-08-07T07:41:19Z</time>
      </trkpt>
      <trkpt lat="48.7867530" lon="13.9734670">
        <ele>736.2</ele>
        <time>2019-08-07T07:41:20Z</time>
      </trkpt>
      <trkpt lat="48.7867300" lon="13.9735290">
        <ele>736.4</ele>
        <time>2019-08-07T07:41:21Z</time>
      </trkpt>
      <trkpt lat="48.7867100" lon="13.9735840">
        <ele>736.6</ele>
        <time>2019-08-07T07:41:22Z</time>
      </trkpt>
      <trkpt lat="48.7866920" lon="13.9736320">
        <ele>737.0</ele>
        <time>2019-08-07T07:41:23Z</time>
      </trkpt>
      <trkpt lat="48.7866760" lon="13.9736780">
        <ele>737.2</ele>
        <time>2019-08-07T07:41:24Z</time>
      </trkpt>
      <trkpt lat="48.7866610" lon="13.9737160">
        <ele>737.4</ele>
        <time>2019-08-07T07:41:25Z</time>
      </trkpt>
      <trkpt lat="48.7866480" lon="13.9737530">
        <ele>737.8</ele>
        <time>2019-08-07T07:41:26Z</time>
      </trkpt>
      <trkpt lat="48.7866360" lon="13.9737870">
        <ele>738.0</ele>
        <time>2019-08-07T07:41:27Z</time>
      </trkpt>
      <trkpt lat="48.7866260" lon="13.9738200">
        <ele>738.2</ele>
        <time>2019-08-07T07:41:28Z</time>
      </trkpt>
      <trkpt lat="48.7866160" lon="13.9738540">
        <ele>738.6</ele>
        <time>2019-08-07T07:41:29Z</time>
      </trkpt>
      <trkpt lat="48.7866060" lon="13.9738870">
        <ele>738.8</ele>
        <time>2019-08-07T07:41:30Z</time>
      </trkpt>
      <trkpt lat="48.7865950" lon="13.9739190">
        <ele>739.2</ele>
        <time>2019-08-07T07:41:31Z</time>
      </trkpt>
      <trkpt lat="48.7865830" lon="13.9739490">
        <ele>739.4</ele>
        <time>2019-08-07T07:41:32Z</time>
      </trkpt>
      <trkpt lat="48.7865720" lon="13.9739810">
        <ele>739.6</ele>
        <time>2019-08-07T07:41:33Z</time>
      </trkpt>
      <trkpt lat="48.7865620" lon="13.9740130">
        <ele>739.8</ele>
        <time>2019-08-07T07:41:34Z</time>
      </trkpt>
      <trkpt lat="48.7865500" lon="13.9740430">
        <ele>740.0</ele>
        <time>2019-08-07T07:41:35Z</time>
      </trkpt>
      <trkpt lat="48.7865380" lon="13.9740730">
        <ele>740.2</ele>
        <time>2019-08-07T07:41:36Z</time>
      </trkpt>
      <trkpt lat="48.7865280" lon="13.9741040">
        <ele>740.4</ele>
        <time>2019-08-07T07:41:37Z</time>
      </trkpt>
      <trkpt lat="48.7865160" lon="13.9741340">
        <ele>740.6</ele>
        <time>2019-08-07T07:41:38Z</time>
      </trkpt>
      <trkpt lat="48.7865040" lon="13.9741660">
        <ele>740.8</ele>
        <time>2019-08-07T07:41:39Z</time>
      </trkpt>
      <trkpt lat="48.7864940" lon="13.9741990">
        <ele>740.8</ele>
        <time>2019-08-07T07:41:40Z</time>
      </trkpt>
      <trkpt lat="48.7864830" lon="13.9742290">
        <ele>741.0</ele>
        <time>2019-08-07T07:41:41Z</time>
      </trkpt>
      <trkpt lat="48.7864720" lon="13.9742610">
        <ele>741.2</ele>
        <time>2019-08-07T07:41:42Z</time>
      </trkpt>
      <trkpt lat="48.7864600" lon="13.9742930">
        <ele>741.4</ele>
        <time>2019-08-07T07:41:43Z</time>
      </trkpt>
      <trkpt lat="48.7864480" lon="13.9743240">
        <ele>741.4</ele>
        <time>2019-08-07T07:41:44Z</time>
      </trkpt>
      <trkpt lat="48.7864350" lon="13.9743530">
        <ele>741.6</ele>
        <time>2019-08-07T07:41:45Z</time>
      </trkpt>
      <trkpt lat="48.7864210" lon="13.9743830">
        <ele>741.6</ele>
        <time>2019-08-07T07:41:46Z</time>
      </trkpt>
      <trkpt lat="48.7864070" lon="13.9744130">
        <ele>741.8</ele>
        <time>2019-08-07T07:41:47Z</time>
      </trkpt>
      <trkpt lat="48.7863930" lon="13.9744430">
        <ele>742.0</ele>
        <time>2019-08-07T07:41:48Z</time>
      </trkpt>
      <trkpt lat="48.7863810" lon="13.9744740">
        <ele>742.0</ele>
        <time>2019-08-07T07:41:49Z</time>
      </trkpt>
      <trkpt lat="48.7863690" lon="13.9745050">
        <ele>742.2</ele>
        <time>2019-08-07T07:41:50Z</time>
      </trkpt>
      <trkpt lat="48.7863580" lon="13.9745360">
        <ele>742.2</ele>
        <time>2019-08-07T07:41:51Z</time>
      </trkpt>
      <trkpt lat="48.7863470" lon="13.9745670">
        <ele>742.4</ele>
        <time>2019-08-07T07:41:52Z</time>
      </trkpt>
      <trkpt lat="48.7863380" lon="13.9746000">
        <ele>742.4</ele>
        <time>2019-08-07T07:41:53Z</time>
      </trkpt>
      <trkpt lat="48.7863260" lon="13.9746350">
        <ele>742.4</ele>
        <time>2019-08-07T07:41:54Z</time>
      </trkpt>
      <trkpt lat="48.7863130" lon="13.9746740">
        <ele>742.6</ele>
        <time>2019-08-07T07:41:55Z</time>
      </trkpt>
      <trkpt lat="48.7863000" lon="13.9747130">
        <ele>742.6</ele>
        <time>2019-08-07T07:41:56Z</time>
      </trkpt>
      <trkpt lat="48.7862850" lon="13.9747550">
        <ele>742.8</ele>
        <time>2019-08-07T07:41:57Z</time>
      </trkpt>
      <trkpt lat="48.7862700" lon="13.9747950">
        <ele>742.8</ele>
        <time>2019-08-07T07:41:58Z</time>
      </trkpt>
      <trkpt lat="48.7862530" lon="13.9748350">
        <ele>743.0</ele>
        <time>2019-08-07T07:41:59Z</time>
      </trkpt>
      <trkpt lat="48.7862340" lon="13.9748770">
        <ele>743.0</ele>
        <time>2019-08-07T07:42:00Z</time>
      </trkpt>
      <trkpt lat="48.7862190" lon="13.9749210">
        <ele>743.2</ele>
        <time>2019-08-07T07:42:01Z</time>
      </trkpt>
      <trkpt lat="48.7862040" lon="13.9749640">
        <ele>743.2</ele>
        <time>2019-08-07T07:42:02Z</time>
      </trkpt>
      <trkpt lat="48.7861870" lon="13.9750080">
        <ele>743.2</ele>
        <time>2019-08-07T07:42:03Z</time>
      </trkpt>
      <trkpt lat="48.7861720" lon="13.9750530">
        <ele>743.4</ele>
        <time>2019-08-07T07:42:04Z</time>
      </trkpt>
      <trkpt lat="48.7861490" lon="13.9751180">
        <ele>743.4</ele>
        <time>2019-08-07T07:42:05Z</time>
      </trkpt>
      <trkpt lat="48.7861410" lon="13.9751390">
        <ele>743.6</ele>
        <time>2019-08-07T07:42:06Z</time>
      </trkpt>
      <trkpt lat="48.7861240" lon="13.9751800">
        <ele>743.6</ele>
        <time>2019-08-07T07:42:07Z</time>
      </trkpt>
      <trkpt lat="48.7861080" lon="13.9752210">
        <ele>743.8</ele>
        <time>2019-08-07T07:42:08Z</time>
      </trkpt>
      <trkpt lat="48.7860910" lon="13.9752640">
        <ele>743.8</ele>
        <time>2019-08-07T07:42:09Z</time>
      </trkpt>
      <trkpt lat="48.7860740" lon="13.9753080">
        <ele>743.8</ele>
        <time>2019-08-07T07:42:10Z</time>
      </trkpt>
      <trkpt lat="48.7860560" lon="13.9753510">
        <ele>744.0</ele>
        <time>2019-08-07T07:42:11Z</time>
      </trkpt>
      <trkpt lat="48.7860390" lon="13.9753960">
        <ele>744.0</ele>
        <time>2019-08-07T07:42:12Z</time>
      </trkpt>
      <trkpt lat="48.7860210" lon="13.9754420">
        <ele>744.2</ele>
        <time>2019-08-07T07:42:13Z</time>
      </trkpt>
      <trkpt lat="48.7860030" lon="13.9754880">
        <ele>744.2</ele>
        <time>2019-08-07T07:42:14Z</time>
      </trkpt>
      <trkpt lat="48.7859820" lon="13.9755370">
        <ele>744.2</ele>
        <time>2019-08-07T07:42:15Z</time>
      </trkpt>
      <trkpt lat="48.7859620" lon="13.9755840">
        <ele>744.4</ele>
        <time>2019-08-07T07:42:16Z</time>
      </trkpt>
      <trkpt lat="48.7859400" lon="13.9756330">
        <ele>744.4</ele>
        <time>2019-08-07T07:42:17Z</time>
      </trkpt>
      <trkpt lat="48.7859180" lon="13.9756830">
        <ele>744.6</ele>
        <time>2019-08-07T07:42:18Z</time>
      </trkpt>
      <trkpt lat="48.7858970" lon="13.9757330">
        <ele>744.6</ele>
        <time>2019-08-07T07:42:19Z</time>
      </trkpt>
      <trkpt lat="48.7858750" lon="13.9757850">
        <ele>744.8</ele>
        <time>2019-08-07T07:42:20Z</time>
      </trkpt>
      <trkpt lat="48.7858540" lon="13.9758350">
        <ele>744.8</ele>
        <time>2019-08-07T07:42:21Z</time>
      </trkpt>
      <trkpt lat="48.7858310" lon="13.9758900">
        <ele>745.0</ele>
        <time>2019-08-07T07:42:22Z</time>
      </trkpt>
      <trkpt lat="48.7858090" lon="13.9759430">
        <ele>745.0</ele>
        <time>2019-08-07T07:42:23Z</time>
      </trkpt>
      <trkpt lat="48.7857870" lon="13.9759930">
        <ele>745.2</ele>
        <time>2019-08-07T07:42:24Z</time>
      </trkpt>
      <trkpt lat="48.7857650" lon="13.9760440">
        <ele>745.2</ele>
        <time>2019-08-07T07:42:25Z</time>
      </trkpt>
      <trkpt lat="48.7857440" lon="13.9760960">
        <ele>745.4</ele>
        <time>2019-08-07T07:42:26Z</time>
      </trkpt>
      <trkpt lat="48.7857210" lon="13.9761490">
        <ele>745.6</ele>
        <time>2019-08-07T07:42:27Z</time>
      </trkpt>
      <trkpt lat="48.7856970" lon="13.9762010">
        <ele>745.6</ele>
        <time>2019-08-07T07:42:28Z</time>
      </trkpt>
      <trkpt lat="48.7856740" lon="13.9762530">
        <ele>745.8</ele>
        <time>2019-08-07T07:42:29Z</time>
      </trkpt>
      <trkpt lat="48.7856500" lon="13.9763060">
        <ele>745.8</ele>
        <time>2019-08-07T07:42:30Z</time>
      </trkpt>
      <trkpt lat="48.7856270" lon="13.9763580">
        <ele>746.0</ele>
        <time>2019-08-07T07:42:31Z</time>
      </trkpt>
      <trkpt lat="48.7856020" lon="13.9764110">
        <ele>746.2</ele>
        <time>2019-08-07T07:42:32Z</time>
      </trkpt>
      <trkpt lat="48.7855790" lon="13.9764630">
        <ele>746.2</ele>
        <time>2019-08-07T07:42:33Z</time>
      </trkpt>
      <trkpt lat="48.7855540" lon="13.9765120">
        <ele>746.4</ele>
        <time>2019-08-07T07:42:34Z</time>
      </trkpt>
      <trkpt lat="48.7855280" lon="13.9765620">
        <ele>746.4</ele>
        <time>2019-08-07T07:42:35Z</time>
      </trkpt>
      <trkpt lat="48.7855020" lon="13.9766100">
        <ele>746.6</ele>
        <time>2019-08-07T07:42:36Z</time>
      </trkpt>
      <trkpt lat="48.7854750" lon="13.9766580">
        <ele>746.6</ele>
        <time>2019-08-07T07:42:37Z</time>
      </trkpt>
      <trkpt lat="48.7854490" lon="13.9767080">
        <ele>746.8</ele>
        <time>2019-08-07T07:42:38Z</time>
      </trkpt>
      <trkpt lat="48.7854240" lon="13.9767610">
        <ele>746.8</ele>
        <time>2019-08-07T07:42:39Z</time>
      </trkpt>
      <trkpt lat="48.7854000" lon="13.9768130">
        <ele>746.8</ele>
        <time>2019-08-07T07:42:40Z</time>
      </trkpt>
      <trkpt lat="48.7853770" lon="13.9768640">
        <ele>747.0</ele>
        <time>2019-08-07T07:42:41Z</time>
      </trkpt>
      <trkpt lat="48.7853530" lon="13.9769160">
        <ele>747.0</ele>
        <time>2019-08-07T07:42:42Z</time>
      </trkpt>
      <trkpt lat="48.7853260" lon="13.9769640">
        <ele>747.2</ele>
        <time>2019-08-07T07:42:43Z</time>
      </trkpt>
      <trkpt lat="48.7853000" lon="13.9770120">
        <ele>747.2</ele>
        <time>2019-08-07T07:42:44Z</time>
      </trkpt>
      <trkpt lat="48.7852700" lon="13.9770600">
        <ele>747.2</ele>
        <time>2019-08-07T07:42:45Z</time>
      </trkpt>
      <trkpt lat="48.7852430" lon="13.9771070">
        <ele>747.4</ele>
        <time>2019-08-07T07:42:46Z</time>
      </trkpt>
      <trkpt lat="48.7852140" lon="13.9771540">
        <ele>747.4</ele>
        <time>2019-08-07T07:42:47Z</time>
      </trkpt>
      <trkpt lat="48.7851850" lon="13.9771950">
        <ele>747.4</ele>
        <time>2019-08-07T07:42:48Z</time>
      </trkpt>
      <trkpt lat="48.7851540" lon="13.9772390">
        <ele>747.4</ele>
        <time>2019-08-07T07:42:49Z</time>
      </trkpt>
      <trkpt lat="48.7851210" lon="13.9772830">
        <ele>747.6</ele>
        <time>2019-08-07T07:42:50Z</time>
      </trkpt>
      <trkpt lat="48.7850880" lon="13.9773240">
        <ele>747.6</ele>
        <time>2019-08-07T07:42:51Z</time>
      </trkpt>
      <trkpt lat="48.7850550" lon="13.9773650">
        <ele>747.6</ele>
        <time>2019-08-07T07:42:52Z</time>
      </trkpt>
      <trkpt lat="48.7850200" lon="13.9774060">
        <ele>747.6</ele>
        <time>2019-08-07T07:42:53Z</time>
      </trkpt>
      <trkpt lat="48.7849850" lon="13.9774480">
        <ele>747.6</ele>
        <time>2019-08-07T07:42:54Z</time>
      </trkpt>
      <trkpt lat="48.7849500" lon="13.9774910">
        <ele>747.6</ele>
        <time>2019-08-07T07:42:55Z</time>
      </trkpt>
      <trkpt lat="48.7849140" lon="13.9775320">
        <ele>747.6</ele>
        <time>2019-08-07T07:42:56Z</time>
      </trkpt>
      <trkpt lat="48.7848760" lon="13.9775710">
        <ele>747.8</ele>
        <time>2019-08-07T07:42:57Z</time>
      </trkpt>
      <trkpt lat="48.7848390" lon="13.9776080">
        <ele>747.8</ele>
        <time>2019-08-07T07:42:58Z</time>
      </trkpt>
      <trkpt lat="48.7848010" lon="13.9776460">
        <ele>747.8</ele>
        <time>2019-08-07T07:42:59Z</time>
      </trkpt>
      <trkpt lat="48.7847620" lon="13.9776830">
        <ele>747.8</ele>
        <time>2019-08-07T07:43:00Z</time>
      </trkpt>
      <trkpt lat="48.7847250" lon="13.9777180">
        <ele>747.8</ele>
        <time>2019-08-07T07:43:01Z</time>
      </trkpt>
      <trkpt lat="48.7846870" lon="13.9777530">
        <ele>747.8</ele>
        <time>2019-08-07T07:43:02Z</time>
      </trkpt>
      <trkpt lat="48.7846490" lon="13.9777900">
        <ele>747.6</ele>
        <time>2019-08-07T07:43:03Z</time>
      </trkpt>
      <trkpt lat="48.7846100" lon="13.9778240">
        <ele>747.6</ele>
        <time>2019-08-07T07:43:04Z</time>
      </trkpt>
      <trkpt lat="48.7845670" lon="13.9778580">
        <ele>747.6</ele>
        <time>2019-08-07T07:43:05Z</time>
      </trkpt>
      <trkpt lat="48.7845210" lon="13.9778930">
        <ele>747.4</ele>
        <time>2019-08-07T07:43:06Z</time>
      </trkpt>
      <trkpt lat="48.7844730" lon="13.9779300">
        <ele>747.4</ele>
        <time>2019-08-07T07:43:07Z</time>
      </trkpt>
      <trkpt lat="48.7844240" lon="13.9779660">
        <ele>747.2</ele>
        <time>2019-08-07T07:43:08Z</time>
      </trkpt>
      <trkpt lat="48.7843730" lon="13.9780050">
        <ele>747.2</ele>
        <time>2019-08-07T07:43:09Z</time>
      </trkpt>
      <trkpt lat="48.7843180" lon="13.9780440">
        <ele>747.0</ele>
        <time>2019-08-07T07:43:10Z</time>
      </trkpt>
      <trkpt lat="48.7842620" lon="13.9780840">
        <ele>746.8</ele>
        <time>2019-08-07T07:43:11Z</time>
      </trkpt>
      <trkpt lat="48.7842040" lon="13.9781240">
        <ele>746.6</ele>
        <time>2019-08-07T07:43:12Z</time>
      </trkpt>
      <trkpt lat="48.7841460" lon="13.9781660">
        <ele>746.4</ele>
        <time>2019-08-07T07:43:13Z</time>
      </trkpt>
      <trkpt lat="48.7840850" lon="13.9782110">
        <ele>746.2</ele>
        <time>2019-08-07T07:43:14Z</time>
      </trkpt>
      <trkpt lat="48.7840220" lon="13.9782600">
        <ele>745.8</ele>
        <time>2019-08-07T07:43:15Z</time>
      </trkpt>
      <trkpt lat="48.7839590" lon="13.9783120">
        <ele>745.6</ele>
        <time>2019-08-07T07:43:16Z</time>
      </trkpt>
      <trkpt lat="48.7838960" lon="13.9783660">
        <ele>745.2</ele>
        <time>2019-08-07T07:43:17Z</time>
      </trkpt>
      <trkpt lat="48.7838320" lon="13.9784240">
        <ele>745.0</ele>
        <time>2019-08-07T07:43:18Z</time>
      </trkpt>
      <trkpt lat="48.7837650" lon="13.9784890">
        <ele>744.6</ele>
        <time>2019-08-07T07:43:19Z</time>
      </trkpt>
      <trkpt lat="48.7836990" lon="13.9785580">
        <ele>744.0</ele>
        <time>2019-08-07T07:43:20Z</time>
      </trkpt>
      <trkpt lat="48.7836330" lon="13.9786410">
        <ele>743.6</ele>
        <time>2019-08-07T07:43:21Z</time>
      </trkpt>
      <trkpt lat="48.7835640" lon="13.9787450">
        <ele>743.0</ele>
        <time>2019-08-07T07:43:22Z</time>
      </trkpt>
      <trkpt lat="48.7835000" lon="13.9788610">
        <ele>742.6</ele>
        <time>2019-08-07T07:43:23Z</time>
      </trkpt>
      <trkpt lat="48.7834460" lon="13.9789880">
        <ele>742.0</ele>
        <time>2019-08-07T07:43:24Z</time>
      </trkpt>
      <trkpt lat="48.7834010" lon="13.9791230">
        <ele>741.8</ele>
        <time>2019-08-07T07:43:25Z</time>
      </trkpt>
      <trkpt lat="48.7833670" lon="13.9792600">
        <ele>741.4</ele>
        <time>2019-08-07T07:43:26Z</time>
      </trkpt>
      <trkpt lat="48.7833390" lon="13.9793930">
        <ele>741.2</ele>
        <time>2019-08-07T07:43:27Z</time>
      </trkpt>
      <trkpt lat="48.7833110" lon="13.9795300">
        <ele>740.8</ele>
        <time>2019-08-07T07:43:28Z</time>
      </trkpt>
      <trkpt lat="48.7832840" lon="13.9796610">
        <ele>740.8</ele>
        <time>2019-08-07T07:43:29Z</time>
      </trkpt>
      <trkpt lat="48.7832560" lon="13.9797900">
        <ele>740.6</ele>
        <time>2019-08-07T07:43:30Z</time>
      </trkpt>
      <trkpt lat="48.7832280" lon="13.9799130">
        <ele>740.6</ele>
        <time>2019-08-07T07:43:31Z</time>
      </trkpt>
      <trkpt lat="48.7832000" lon="13.9800320">
        <ele>740.4</ele>
        <time>2019-08-07T07:43:32Z</time>
      </trkpt>
      <trkpt lat="48.7831720" lon="13.9801490">
        <ele>740.4</ele>
        <time>2019-08-07T07:43:33Z</time>
      </trkpt>
      <trkpt lat="48.7831430" lon="13.9802630">
        <ele>740.4</ele>
        <time>2019-08-07T07:43:34Z</time>
      </trkpt>
      <trkpt lat="48.7831160" lon="13.9803740">
        <ele>740.6</ele>
        <time>2019-08-07T07:43:35Z</time>
      </trkpt>
      <trkpt lat="48.7830920" lon="13.9804810">
        <ele>740.6</ele>
        <time>2019-08-07T07:43:36Z</time>
      </trkpt>
      <trkpt lat="48.7830660" lon="13.9805860">
        <ele>740.6</ele>
        <time>2019-08-07T07:43:37Z</time>
      </trkpt>
      <trkpt lat="48.7830370" lon="13.9806900">
        <ele>740.6</ele>
        <time>2019-08-07T07:43:38Z</time>
      </trkpt>
      <trkpt lat="48.7830060" lon="13.9807950">
        <ele>740.6</ele>
        <time>2019-08-07T07:43:39Z</time>
      </trkpt>
      <trkpt lat="48.7829770" lon="13.9808940">
        <ele>740.8</ele>
        <time>2019-08-07T07:43:40Z</time>
      </trkpt>
      <trkpt lat="48.7829480" lon="13.9809930">
        <ele>740.8</ele>
        <time>2019-08-07T07:43:41Z</time>
      </trkpt>
      <trkpt lat="48.7829200" lon="13.9810910">
        <ele>741.0</ele>
        <time>2019-08-07T07:43:42Z</time>
      </trkpt>
      <trkpt lat="48.7828930" lon="13.9811870">
        <ele>741.0</ele>
        <time>2019-08-07T07:43:43Z</time>
      </trkpt>
      <trkpt lat="48.7828650" lon="13.9812810">
        <ele>741.0</ele>
        <time>2019-08-07T07:43:44Z</time>
      </trkpt>
      <trkpt lat="48.7828410" lon="13.9813710">
        <ele>741.0</ele>
        <time>2019-08-07T07:43:45Z</time>
      </trkpt>
      <trkpt lat="48.7828170" lon="13.9814660">
        <ele>741.0</ele>
        <time>2019-08-07T07:43:46Z</time>
      </trkpt>
      <trkpt lat="48.7827940" lon="13.9815590">
        <ele>741.0</ele>
        <time>2019-08-07T07:43:47Z</time>
      </trkpt>
      <trkpt lat="48.7827710" lon="13.9816530">
        <ele>741.0</ele>
        <time>2019-08-07T07:43:48Z</time>
      </trkpt>
      <trkpt lat="48.7827490" lon="13.9817440">
        <ele>741.0</ele>
        <time>2019-08-07T07:43:49Z</time>
      </trkpt>
      <trkpt lat="48.7827270" lon="13.9818340">
        <ele>741.2</ele>
        <time>2019-08-07T07:43:50Z</time>
      </trkpt>
      <trkpt lat="48.7827060" lon="13.9819240">
        <ele>741.2</ele>
        <time>2019-08-07T07:43:51Z</time>
      </trkpt>
      <trkpt lat="48.7826850" lon="13.9820110">
        <ele>741.2</ele>
        <time>2019-08-07T07:43:52Z</time>
      </trkpt>
      <trkpt lat="48.7826650" lon="13.9820950">
        <ele>741.2</ele>
        <time>2019-08-07T07:43:53Z</time>
      </trkpt>
      <trkpt lat="48.7826450" lon="13.9821770">
        <ele>741.2</ele>
        <time>2019-08-07T07:43:54Z</time>
      </trkpt>
      <trkpt lat="48.7826250" lon="13.9822580">
        <ele>741.2</ele>
        <time>2019-08-07T07:43:55Z</time>
      </trkpt>
      <trkpt lat="48.7826070" lon="13.9823330">
        <ele>741.0</ele>
        <time>2019-08-07T07:43:56Z</time>
      </trkpt>
      <trkpt lat="48.7825910" lon="13.9823980">
        <ele>741.0</ele>
        <time>2019-08-07T07:43:57Z</time>
      </trkpt>
      <trkpt lat="48.7825760" lon="13.9824570">
        <ele>741.0</ele>
        <time>2019-08-07T07:43:58Z</time>
      </trkpt>
      <trkpt lat="48.7825630" lon="13.9825100">
        <ele>740.8</ele>
        <time>2019-08-07T07:43:59Z</time>
      </trkpt>
      <trkpt lat="48.7825500" lon="13.9825600">
        <ele>740.8</ele>
        <time>2019-08-07T07:44:00Z</time>
      </trkpt>
      <trkpt lat="48.7825360" lon="13.9826100">
        <ele>740.8</ele>
        <time>2019-08-07T07:44:01Z</time>
      </trkpt>
      <trkpt lat="48.7825230" lon="13.9826600">
        <ele>740.8</ele>
        <time>2019-08-07T07:44:02Z</time>
      </trkpt>
      <trkpt lat="48.7825100" lon="13.9827070">
        <ele>740.6</ele>
        <time>2019-08-07T07:44:03Z</time>
      </trkpt>
      <trkpt lat="48.7824980" lon="13.9827540">
        <ele>740.6</ele>
        <time>2019-08-07T07:44:04Z</time>
      </trkpt>
      <trkpt lat="48.7824860" lon="13.9828030">
        <ele>740.6</ele>
        <time>2019-08-07T07:44:05Z</time>
      </trkpt>
      <trkpt lat="48.7824760" lon="13.9828500">
        <ele>740.6</ele>
        <time>2019-08-07T07:44:06Z</time>
      </trkpt>
      <trkpt lat="48.7824640" lon="13.9828960">
        <ele>740.4</ele>
        <time>2019-08-07T07:44:07Z</time>
      </trkpt>
      <trkpt lat="48.7824510" lon="13.9829410">
        <ele>740.4</ele>
        <time>2019-08-07T07:44:08Z</time>
      </trkpt>
      <trkpt lat="48.7824380" lon="13.9829860">
        <ele>740.4</ele>
        <time>2019-08-07T07:44:09Z</time>
      </trkpt>
      <trkpt lat="48.7824260" lon="13.9830290">
        <ele>740.4</ele>
        <time>2019-08-07T07:44:10Z</time>
      </trkpt>
      <trkpt lat="48.7824140" lon="13.9830720">
        <ele>740.4</ele>
        <time>2019-08-07T07:44:11Z</time>
      </trkpt>
      <trkpt lat="48.7824040" lon="13.9831130">
        <ele>740.4</ele>
        <time>2019-08-07T07:44:12Z</time>
      </trkpt>
      <trkpt lat="48.7823940" lon="13.9831550">
        <ele>740.2</ele>
        <time>2019-08-07T07:44:13Z</time>
      </trkpt>
      <trkpt lat="48.7823830" lon="13.9831980">
        <ele>740.2</ele>
        <time>2019-08-07T07:44:14Z</time>
      </trkpt>
      <trkpt lat="48.7823700" lon="13.9832410">
        <ele>740.2</ele>
        <time>2019-08-07T07:44:15Z</time>
      </trkpt>
      <trkpt lat="48.7823570" lon="13.9832860">
        <ele>740.2</ele>
        <time>2019-08-07T07:44:16Z</time>
      </trkpt>
      <trkpt lat="48.7823420" lon="13.9833360">
        <ele>740.2</ele>
        <time>2019-08-07T07:44:17Z</time>
      </trkpt>
      <trkpt lat="48.7823270" lon="13.9833860">
        <ele>740.0</ele>
        <time>2019-08-07T07:44:18Z</time>
      </trkpt>
      <trkpt lat="48.7823120" lon="13.9834390">
        <ele>740.0</ele>
        <time>2019-08-07T07:44:19Z</time>
      </trkpt>
      <trkpt lat="48.7822980" lon="13.9834910">
        <ele>740.0</ele>
        <time>2019-08-07T07:44:20Z</time>
      </trkpt>
      <trkpt lat="48.7822860" lon="13.9835390">
        <ele>740.0</ele>
        <time>2019-08-07T07:44:21Z</time>
      </trkpt>
      <trkpt lat="48.7822700" lon="13.9835950">
        <ele>740.0</ele>
        <time>2019-08-07T07:44:22Z</time>
      </trkpt>
      <trkpt lat="48.7822520" lon="13.9836500">
        <ele>740.0</ele>
        <time>2019-08-07T07:44:23Z</time>
      </trkpt>
      <trkpt lat="48.7822360" lon="13.9837030">
        <ele>739.8</ele>
        <time>2019-08-07T07:44:24Z</time>
      </trkpt>
      <trkpt lat="48.7822180" lon="13.9837550">
        <ele>739.8</ele>
        <time>2019-08-07T07:44:25Z</time>
      </trkpt>
      <trkpt lat="48.7822000" lon="13.9838100">
        <ele>739.8</ele>
        <time>2019-08-07T07:44:26Z</time>
      </trkpt>
      <trkpt lat="48.7821820" lon="13.9838650">
        <ele>739.8</ele>
        <time>2019-08-07T07:44:27Z</time>
      </trkpt>
      <trkpt lat="48.7821650" lon="13.9839210">
        <ele>739.6</ele>
        <time>2019-08-07T07:44:28Z</time>
      </trkpt>
      <trkpt lat="48.7821480" lon="13.9839740">
        <ele>739.6</ele>
        <time>2019-08-07T07:44:29Z</time>
      </trkpt>
      <trkpt lat="48.7821280" lon="13.9840280">
        <ele>739.6</ele>
        <time>2019-08-07T07:44:30Z</time>
      </trkpt>
      <trkpt lat="48.7821080" lon="13.9840840">
        <ele>739.6</ele>
        <time>2019-08-07T07:44:31Z</time>
      </trkpt>
      <trkpt lat="48.7820900" lon="13.9841380">
        <ele>739.6</ele>
        <time>2019-08-07T07:44:32Z</time>
      </trkpt>
      <trkpt lat="48.7820740" lon="13.9841910">
        <ele>739.4</ele>
        <time>2019-08-07T07:44:33Z</time>
      </trkpt>
      <trkpt lat="48.7820530" lon="13.9842440">
        <ele>739.4</ele>
        <time>2019-08-07T07:44:34Z</time>
      </trkpt>
      <trkpt lat="48.7820300" lon="13.9843010">
        <ele>739.4</ele>
        <time>2019-08-07T07:44:35Z</time>
      </trkpt>
      <trkpt lat="48.7820080" lon="13.9843580">
        <ele>739.2</ele>
        <time>2019-08-07T07:44:36Z</time>
      </trkpt>
      <trkpt lat="48.7819860" lon="13.9844150">
        <ele>739.2</ele>
        <time>2019-08-07T07:44:37Z</time>
      </trkpt>
      <trkpt lat="48.7819640" lon="13.9844750">
        <ele>739.2</ele>
        <time>2019-08-07T07:44:38Z</time>
      </trkpt>
      <trkpt lat="48.7819430" lon="13.9845360">
        <ele>739.2</ele>
        <time>2019-08-07T07:44:39Z</time>
      </trkpt>
      <trkpt lat="48.7819220" lon="13.9845940">
        <ele>739.0</ele>
        <time>2019-08-07T07:44:40Z</time>
      </trkpt>
      <trkpt lat="48.7818990" lon="13.9846510">
        <ele>739.0</ele>
        <time>2019-08-07T07:44:41Z</time>
      </trkpt>
      <trkpt lat="48.7818770" lon="13.9847110">
        <ele>739.0</ele>
        <time>2019-08-07T07:44:42Z</time>
      </trkpt>
      <trkpt lat="48.7818550" lon="13.9847720">
        <ele>739.0</ele>
        <time>2019-08-07T07:44:43Z</time>
      </trkpt>
      <trkpt lat="48.7818320" lon="13.9848340">
        <ele>739.0</ele>
        <time>2019-08-07T07:44:44Z</time>
      </trkpt>
      <trkpt lat="48.7818100" lon="13.9848980">
        <ele>739.0</ele>
        <time>2019-08-07T07:44:45Z</time>
      </trkpt>
      <trkpt lat="48.7817870" lon="13.9849630">
        <ele>739.0</ele>
        <time>2019-08-07T07:44:46Z</time>
      </trkpt>
      <trkpt lat="48.7817660" lon="13.9850320">
        <ele>739.0</ele>
        <time>2019-08-07T07:44:47Z</time>
      </trkpt>
      <trkpt lat="48.7817450" lon="13.9851020">
        <ele>739.0</ele>
        <time>2019-08-07T07:44:48Z</time>
      </trkpt>
      <trkpt lat="48.7817260" lon="13.9851750">
        <ele>739.0</ele>
        <time>2019-08-07T07:44:49Z</time>
      </trkpt>
      <trkpt lat="48.7817080" lon="13.9852480">
        <ele>739.0</ele>
        <time>2019-08-07T07:44:50Z</time>
      </trkpt>
      <trkpt lat="48.7816870" lon="13.9853220">
        <ele>738.8</ele>
        <time>2019-08-07T07:44:51Z</time>
      </trkpt>
      <trkpt lat="48.7816640" lon="13.9853950">
        <ele>738.8</ele>
        <time>2019-08-07T07:44:52Z</time>
      </trkpt>
      <trkpt lat="48.7816380" lon="13.9854670">
        <ele>738.8</ele>
        <time>2019-08-07T07:44:53Z</time>
      </trkpt>
      <trkpt lat="48.7816120" lon="13.9855390">
        <ele>738.8</ele>
        <time>2019-08-07T07:44:54Z</time>
      </trkpt>
      <trkpt lat="48.7815830" lon="13.9856140">
        <ele>738.8</ele>
        <time>2019-08-07T07:44:55Z</time>
      </trkpt>
      <trkpt lat="48.7815570" lon="13.9856860">
        <ele>738.8</ele>
        <time>2019-08-07T07:44:56Z</time>
      </trkpt>
      <trkpt lat="48.7815290" lon="13.9857620">
        <ele>738.8</ele>
        <time>2019-08-07T07:44:57Z</time>
      </trkpt>
      <trkpt lat="48.7815000" lon="13.9858380">
        <ele>738.8</ele>
        <time>2019-08-07T07:44:58Z</time>
      </trkpt>
      <trkpt lat="48.7814720" lon="13.9859130">
        <ele>738.6</ele>
        <time>2019-08-07T07:44:59Z</time>
      </trkpt>
      <trkpt lat="48.7814450" lon="13.9859910">
        <ele>738.8</ele>
        <time>2019-08-07T07:45:00Z</time>
      </trkpt>
      <trkpt lat="48.7814190" lon="13.9860700">
        <ele>738.8</ele>
        <time>2019-08-07T07:45:01Z</time>
      </trkpt>
      <trkpt lat="48.7813950" lon="13.9861440">
        <ele>738.8</ele>
        <time>2019-08-07T07:45:02Z</time>
      </trkpt>
      <trkpt lat="48.7813690" lon="13.9862190">
        <ele>739.0</ele>
        <time>2019-08-07T07:45:03Z</time>
      </trkpt>
      <trkpt lat="48.7813440" lon="13.9862920">
        <ele>739.2</ele>
        <time>2019-08-07T07:45:04Z</time>
      </trkpt>
      <trkpt lat="48.7813200" lon="13.9863620">
        <ele>739.2</ele>
        <time>2019-08-07T07:45:05Z</time>
      </trkpt>
      <trkpt lat="48.7812980" lon="13.9864310">
        <ele>739.4</ele>
        <time>2019-08-07T07:45:06Z</time>
      </trkpt>
      <trkpt lat="48.7812780" lon="13.9864990">
        <ele>739.4</ele>
        <time>2019-08-07T07:45:07Z</time>
      </trkpt>
      <trkpt lat="48.7812570" lon="13.9865670">
        <ele>739.6</ele>
        <time>2019-08-07T07:45:08Z</time>
      </trkpt>
      <trkpt lat="48.7812350" lon="13.9866370">
        <ele>739.6</ele>
        <time>2019-08-07T07:45:09Z</time>
      </trkpt>
      <trkpt lat="48.7812150" lon="13.9867040">
        <ele>739.6</ele>
        <time>2019-08-07T07:45:10Z</time>
      </trkpt>
      <trkpt lat="48.7811940" lon="13.9867720">
        <ele>739.6</ele>
        <time>2019-08-07T07:45:11Z</time>
      </trkpt>
      <trkpt lat="48.7811720" lon="13.9868420">
        <ele>739.6</ele>
        <time>2019-08-07T07:45:12Z</time>
      </trkpt>
      <trkpt lat="48.7811490" lon="13.9869120">
        <ele>739.8</ele>
        <time>2019-08-07T07:45:13Z</time>
      </trkpt>
      <trkpt lat="48.7811270" lon="13.9869820">
        <ele>739.8</ele>
        <time>2019-08-07T07:45:14Z</time>
      </trkpt>
      <trkpt lat="48.7811050" lon="13.9870520">
        <ele>739.8</ele>
        <time>2019-08-07T07:45:15Z</time>
      </trkpt>
      <trkpt lat="48.7810840" lon="13.9871220">
        <ele>739.8</ele>
        <time>2019-08-07T07:45:16Z</time>
      </trkpt>
      <trkpt lat="48.7810620" lon="13.9871930">
        <ele>740.0</ele>
        <time>2019-08-07T07:45:17Z</time>
      </trkpt>
      <trkpt lat="48.7810410" lon="13.9872640">
        <ele>740.0</ele>
        <time>2019-08-07T07:45:18Z</time>
      </trkpt>
      <trkpt lat="48.7810200" lon="13.9873340">
        <ele>740.0</ele>
        <time>2019-08-07T07:45:19Z</time>
      </trkpt>
      <trkpt lat="48.7809970" lon="13.9874050">
        <ele>740.0</ele>
        <time>2019-08-07T07:45:20Z</time>
      </trkpt>
      <trkpt lat="48.7809730" lon="13.9874770">
        <ele>740.0</ele>
        <time>2019-08-07T07:45:21Z</time>
      </trkpt>
      <trkpt lat="48.7809490" lon="13.9875510">
        <ele>740.0</ele>
        <time>2019-08-07T07:45:22Z</time>
      </trkpt>
      <trkpt lat="48.7809250" lon="13.9876240">
        <ele>740.0</ele>
        <time>2019-08-07T07:45:23Z</time>
      </trkpt>
      <trkpt lat="48.7809030" lon="13.9876990">
        <ele>740.0</ele>
        <time>2019-08-07T07:45:24Z</time>
      </trkpt>
      <trkpt lat="48.7808830" lon="13.9877740">
        <ele>740.0</ele>
        <time>2019-08-07T07:45:25Z</time>
      </trkpt>
      <trkpt lat="48.7808630" lon="13.9878480">
        <ele>740.0</ele>
        <time>2019-08-07T07:45:26Z</time>
      </trkpt>
      <trkpt lat="48.7808400" lon="13.9879240">
        <ele>739.8</ele>
        <time>2019-08-07T07:45:27Z</time>
      </trkpt>
      <trkpt lat="48.7808150" lon="13.9880010">
        <ele>739.8</ele>
        <time>2019-08-07T07:45:28Z</time>
      </trkpt>
      <trkpt lat="48.7807890" lon="13.9880800">
        <ele>739.8</ele>
        <time>2019-08-07T07:45:29Z</time>
      </trkpt>
      <trkpt lat="48.7807660" lon="13.9881570">
        <ele>739.8</ele>
        <time>2019-08-07T07:45:30Z</time>
      </trkpt>
      <trkpt lat="48.7807450" lon="13.9882340">
        <ele>739.8</ele>
        <time>2019-08-07T07:45:31Z</time>
      </trkpt>
      <trkpt lat="48.7807230" lon="13.9883120">
        <ele>739.8</ele>
        <time>2019-08-07T07:45:32Z</time>
      </trkpt>
      <trkpt lat="48.7806990" lon="13.9883880">
        <ele>739.8</ele>
        <time>2019-08-07T07:45:33Z</time>
      </trkpt>
      <trkpt lat="48.7806760" lon="13.9884610">
        <ele>739.8</ele>
        <time>2019-08-07T07:45:34Z</time>
      </trkpt>
      <trkpt lat="48.7806510" lon="13.9885400">
        <ele>739.8</ele>
        <time>2019-08-07T07:45:35Z</time>
      </trkpt>
      <trkpt lat="48.7806270" lon="13.9886150">
        <ele>739.8</ele>
        <time>2019-08-07T07:45:36Z</time>
      </trkpt>
      <trkpt lat="48.7806040" lon="13.9886890">
        <ele>739.8</ele>
        <time>2019-08-07T07:45:37Z</time>
      </trkpt>
      <trkpt lat="48.7805790" lon="13.9887640">
        <ele>739.8</ele>
        <time>2019-08-07T07:45:38Z</time>
      </trkpt>
      <trkpt lat="48.7805540" lon="13.9888400">
        <ele>739.8</ele>
        <time>2019-08-07T07:45:39Z</time>
      </trkpt>
      <trkpt lat="48.7805290" lon="13.9889180">
        <ele>739.8</ele>
        <time>2019-08-07T07:45:40Z</time>
      </trkpt>
      <trkpt lat="48.7805070" lon="13.9889940">
        <ele>739.8</ele>
        <time>2019-08-07T07:45:41Z</time>
      </trkpt>
      <trkpt lat="48.7804850" lon="13.9890660">
        <ele>739.8</ele>
        <time>2019-08-07T07:45:42Z</time>
      </trkpt>
      <trkpt lat="48.7804610" lon="13.9891390">
        <ele>739.8</ele>
        <time>2019-08-07T07:45:43Z</time>
      </trkpt>
      <trkpt lat="48.7804380" lon="13.9892160">
        <ele>739.8</ele>
        <time>2019-08-07T07:45:44Z</time>
      </trkpt>
      <trkpt lat="48.7804160" lon="13.9892920">
        <ele>739.8</ele>
        <time>2019-08-07T07:45:45Z</time>
      </trkpt>
      <trkpt lat="48.7803980" lon="13.9893700">
        <ele>739.8</ele>
        <time>2019-08-07T07:45:46Z</time>
      </trkpt>
      <trkpt lat="48.7803860" lon="13.9894490">
        <ele>739.8</ele>
        <time>2019-08-07T07:45:47Z</time>
      </trkpt>
      <trkpt lat="48.7803850" lon="13.9895310">
        <ele>739.8</ele>
        <time>2019-08-07T07:45:48Z</time>
      </trkpt>
      <trkpt lat="48.7803950" lon="13.9896110">
        <ele>739.8</ele>
        <time>2019-08-07T07:45:49Z</time>
      </trkpt>
      <trkpt lat="48.7804170" lon="13.9896860">
        <ele>739.8</ele>
        <time>2019-08-07T07:45:50Z</time>
      </trkpt>
      <trkpt lat="48.7804470" lon="13.9897490">
        <ele>740.0</ele>
        <time>2019-08-07T07:45:51Z</time>
      </trkpt>
      <trkpt lat="48.7804880" lon="13.9897990">
        <ele>740.0</ele>
        <time>2019-08-07T07:45:52Z</time>
      </trkpt>
      <trkpt lat="48.7805330" lon="13.9898330">
        <ele>740.2</ele>
        <time>2019-08-07T07:45:53Z</time>
      </trkpt>
      <trkpt lat="48.7805760" lon="13.9898540">
        <ele>740.4</ele>
        <time>2019-08-07T07:45:54Z</time>
      </trkpt>
      <trkpt lat="48.7806210" lon="13.9898660">
        <ele>740.6</ele>
        <time>2019-08-07T07:45:55Z</time>
      </trkpt>
      <trkpt lat="48.7806640" lon="13.9898730">
        <ele>740.8</ele>
        <time>2019-08-07T07:45:56Z</time>
      </trkpt>
      <trkpt lat="48.7807060" lon="13.9898790">
        <ele>741.0</ele>
        <time>2019-08-07T07:45:57Z</time>
      </trkpt>
      <trkpt lat="48.7807470" lon="13.9898830">
        <ele>741.2</ele>
        <time>2019-08-07T07:45:58Z</time>
      </trkpt>
      <trkpt lat="48.7807890" lon="13.9898850">
        <ele>741.2</ele>
        <time>2019-08-07T07:45:59Z</time>
      </trkpt>
      <trkpt lat="48.7808300" lon="13.9898880">
        <ele>741.4</ele>
        <time>2019-08-07T07:46:00Z</time>
      </trkpt>
      <trkpt lat="48.7808700" lon="13.9898920">
        <ele>741.6</ele>
        <time>2019-08-07T07:46:01Z</time>
      </trkpt>
      <trkpt lat="48.7809100" lon="13.9899010">
        <ele>741.6</ele>
        <time>2019-08-07T07:46:02Z</time>
      </trkpt>
      <trkpt lat="48.7809490" lon="13.9899110">
        <ele>741.8</ele>
        <time>2019-08-07T07:46:03Z</time>
      </trkpt>
      <trkpt lat="48.7809900" lon="13.9899200">
        <ele>742.0</ele>
        <time>2019-08-07T07:46:04Z</time>
      </trkpt>
      <trkpt lat="48.7810290" lon="13.9899290">
        <ele>742.0</ele>
        <time>2019-08-07T07:46:05Z</time>
      </trkpt>
      <trkpt lat="48.7810680" lon="13.9899440">
        <ele>742.0</ele>
        <time>2019-08-07T07:46:06Z</time>
      </trkpt>
      <trkpt lat="48.7811060" lon="13.9899610">
        <ele>742.2</ele>
        <time>2019-08-07T07:46:07Z</time>
      </trkpt>
      <trkpt lat="48.7811440" lon="13.9899780">
        <ele>742.2</ele>
        <time>2019-08-07T07:46:08Z</time>
      </trkpt>
      <trkpt lat="48.7811820" lon="13.9899970">
        <ele>742.4</ele>
        <time>2019-08-07T07:46:09Z</time>
      </trkpt>
      <trkpt lat="48.7812210" lon="13.9900140">
        <ele>742.4</ele>
        <time>2019-08-07T07:46:10Z</time>
      </trkpt>
      <trkpt lat="48.7812610" lon="13.9900320">
        <ele>742.4</ele>
        <time>2019-08-07T07:46:11Z</time>
      </trkpt>
      <trkpt lat="48.7813020" lon="13.9900520">
        <ele>742.6</ele>
        <time>2019-08-07T07:46:12Z</time>
      </trkpt>
      <trkpt lat="48.7813410" lon="13.9900740">
        <ele>742.6</ele>
        <time>2019-08-07T07:46:13Z</time>
      </trkpt>
      <trkpt lat="48.7813790" lon="13.9900960">
        <ele>742.6</ele>
        <time>2019-08-07T07:46:14Z</time>
      </trkpt>
      <trkpt lat="48.7814170" lon="13.9901180">
        <ele>742.8</ele>
        <time>2019-08-07T07:46:15Z</time>
      </trkpt>
      <trkpt lat="48.7814540" lon="13.9901370">
        <ele>742.8</ele>
        <time>2019-08-07T07:46:16Z</time>
      </trkpt>
      <trkpt lat="48.7814940" lon="13.9901540">
        <ele>743.0</ele>
        <time>2019-08-07T07:46:17Z</time>
      </trkpt>
      <trkpt lat="48.7815300" lon="13.9901720">
        <ele>743.0</ele>
        <time>2019-08-07T07:46:18Z</time>
      </trkpt>
      <trkpt lat="48.7815650" lon="13.9901930">
        <ele>743.2</ele>
        <time>2019-08-07T07:46:19Z</time>
      </trkpt>
      <trkpt lat="48.7815980" lon="13.9902120">
        <ele>743.2</ele>
        <time>2019-08-07T07:46:20Z</time>
      </trkpt>
      <trkpt lat="48.7816350" lon="13.9902320">
        <ele>743.4</ele>
        <time>2019-08-07T07:46:21Z</time>
      </trkpt>
      <trkpt lat="48.7816710" lon="13.9902520">
        <ele>743.4</ele>
        <time>2019-08-07T07:46:22Z</time>
      </trkpt>
      <trkpt lat="48.7817080" lon="13.9902720">
        <ele>743.6</ele>
        <time>2019-08-07T07:46:23Z</time>
      </trkpt>
      <trkpt lat="48.7817440" lon="13.9902880">
        <ele>743.8</ele>
        <time>2019-08-07T07:46:24Z</time>
      </trkpt>
      <trkpt lat="48.7817800" lon="13.9903030">
        <ele>743.8</ele>
        <time>2019-08-07T07:46:25Z</time>
      </trkpt>
      <trkpt lat="48.7818160" lon="13.9903180">
        <ele>744.0</ele>
        <time>2019-08-07T07:46:26Z</time>
      </trkpt>
      <trkpt lat="48.7818520" lon="13.9903310">
        <ele>744.0</ele>
        <time>2019-08-07T07:46:27Z</time>
      </trkpt>
      <trkpt lat="48.7818870" lon="13.9903440">
        <ele>744.2</ele>
        <time>2019-08-07T07:46:28Z</time>
      </trkpt>
      <trkpt lat="48.7819230" lon="13.9903570">
        <ele>744.2</ele>
        <time>2019-08-07T07:46:29Z</time>
      </trkpt>
      <trkpt lat="48.7819600" lon="13.9903690">
        <ele>744.4</ele>
        <time>2019-08-07T07:46:30Z</time>
      </trkpt>
      <trkpt lat="48.7819960" lon="13.9903810">
        <ele>744.4</ele>
        <time>2019-08-07T07:46:31Z</time>
      </trkpt>
      <trkpt lat="48.7820340" lon="13.9903920">
        <ele>744.6</ele>
        <time>2019-08-07T07:46:32Z</time>
      </trkpt>
      <trkpt lat="48.7820710" lon="13.9904040">
        <ele>744.6</ele>
        <time>2019-08-07T07:46:33Z</time>
      </trkpt>
      <trkpt lat="48.7821090" lon="13.9904180">
        <ele>744.6</ele>
        <time>2019-08-07T07:46:34Z</time>
      </trkpt>
      <trkpt lat="48.7821470" lon="13.9904330">
        <ele>744.6</ele>
        <time>2019-08-07T07:46:35Z</time>
      </trkpt>
      <trkpt lat="48.7821850" lon="13.9904480">
        <ele>744.6</ele>
        <time>2019-08-07T07:46:36Z</time>
      </trkpt>
      <trkpt lat="48.7822250" lon="13.9904660">
        <ele>744.6</ele>
        <time>2019-08-07T07:46:37Z</time>
      </trkpt>
      <trkpt lat="48.7822660" lon="13.9904840">
        <ele>744.6</ele>
        <time>2019-08-07T07:46:38Z</time>
      </trkpt>
      <trkpt lat="48.7823060" lon="13.9905020">
        <ele>744.6</ele>
        <time>2019-08-07T07:46:39Z</time>
      </trkpt>
      <trkpt lat="48.7823470" lon="13.9905220">
        <ele>744.6</ele>
        <time>2019-08-07T07:46:40Z</time>
      </trkpt>
      <trkpt lat="48.7823900" lon="13.9905420">
        <ele>744.6</ele>
        <time>2019-08-07T07:46:41Z</time>
      </trkpt>
      <trkpt lat="48.7824320" lon="13.9905610">
        <ele>744.6</ele>
        <time>2019-08-07T07:46:42Z</time>
      </trkpt>
      <trkpt lat="48.7824750" lon="13.9905780">
        <ele>744.6</ele>
        <time>2019-08-07T07:46:43Z</time>
      </trkpt>
      <trkpt lat="48.7825170" lon="13.9905970">
        <ele>744.8</ele>
        <time>2019-08-07T07:46:44Z</time>
      </trkpt>
      <trkpt lat="48.7825580" lon="13.9906160">
        <ele>744.8</ele>
        <time>2019-08-07T07:46:45Z</time>
      </trkpt>
      <trkpt lat="48.7826000" lon="13.9906340">
        <ele>744.6</ele>
        <time>2019-08-07T07:46:46Z</time>
      </trkpt>
      <trkpt lat="48.7826420" lon="13.9906540">
        <ele>744.6</ele>
        <time>2019-08-07T07:46:47Z</time>
      </trkpt>
      <trkpt lat="48.7826860" lon="13.9906750">
        <ele>744.6</ele>
        <time>2019-08-07T07:46:48Z</time>
      </trkpt>
      <trkpt lat="48.7827290" lon="13.9906980">
        <ele>744.4</ele>
        <time>2019-08-07T07:46:49Z</time>
      </trkpt>
      <trkpt lat="48.7827710" lon="13.9907240">
        <ele>744.2</ele>
        <time>2019-08-07T07:46:50Z</time>
      </trkpt>
      <trkpt lat="48.7828150" lon="13.9907490">
        <ele>744.2</ele>
        <time>2019-08-07T07:46:51Z</time>
      </trkpt>
      <trkpt lat="48.7828610" lon="13.9907760">
        <ele>744.0</ele>
        <time>2019-08-07T07:46:52Z</time>
      </trkpt>
      <trkpt lat="48.7829110" lon="13.9908030">
        <ele>743.8</ele>
        <time>2019-08-07T07:46:53Z</time>
      </trkpt>
      <trkpt lat="48.7829560" lon="13.9908290">
        <ele>743.4</ele>
        <time>2019-08-07T07:46:54Z</time>
      </trkpt>
      <trkpt lat="48.7830040" lon="13.9908590">
        <ele>743.2</ele>
        <time>2019-08-07T07:46:55Z</time>
      </trkpt>
      <trkpt lat="48.7830530" lon="13.9908950">
        <ele>743.0</ele>
        <time>2019-08-07T07:46:56Z</time>
      </trkpt>
      <trkpt lat="48.7831020" lon="13.9909290">
        <ele>742.8</ele>
        <time>2019-08-07T07:46:57Z</time>
      </trkpt>
      <trkpt lat="48.7831490" lon="13.9909620">
        <ele>742.4</ele>
        <time>2019-08-07T07:46:58Z</time>
      </trkpt>
      <trkpt lat="48.7831960" lon="13.9909930">
        <ele>742.2</ele>
        <time>2019-08-07T07:46:59Z</time>
      </trkpt>
      <trkpt lat="48.7832420" lon="13.9910220">
        <ele>742.2</ele>
        <time>2019-08-07T07:47:00Z</time>
      </trkpt>
      <trkpt lat="48.7832850" lon="13.9910510">
        <ele>742.0</ele>
        <time>2019-08-07T07:47:01Z</time>
      </trkpt>
      <trkpt lat="48.7833190" lon="13.9910930">
        <ele>741.8</ele>
        <time>2019-08-07T07:47:02Z</time>
      </trkpt>
      <trkpt lat="48.7833390" lon="13.9911500">
        <ele>741.8</ele>
        <time>2019-08-07T07:47:03Z</time>
      </trkpt>
      <trkpt lat="48.7833410" lon="13.9912120">
        <ele>741.8</ele>
        <time>2019-08-07T07:47:04Z</time>
      </trkpt>
      <trkpt lat="48.7833300" lon="13.9912710">
        <ele>741.8</ele>
        <time>2019-08-07T07:47:05Z</time>
      </trkpt>
      <trkpt lat="48.7833140" lon="13.9913330">
        <ele>741.8</ele>
        <time>2019-08-07T07:47:06Z</time>
      </trkpt>
      <trkpt lat="48.7832960" lon="13.9913960">
        <ele>741.8</ele>
        <time>2019-08-07T07:47:07Z</time>
      </trkpt>
      <trkpt lat="48.7832800" lon="13.9914630">
        <ele>741.8</ele>
        <time>2019-08-07T07:47:08Z</time>
      </trkpt>
      <trkpt lat="48.7832680" lon="13.9915320">
        <ele>741.8</ele>
        <time>2019-08-07T07:47:09Z</time>
      </trkpt>
      <trkpt lat="48.7832570" lon="13.9916020">
        <ele>741.8</ele>
        <time>2019-08-07T07:47:10Z</time>
      </trkpt>
      <trkpt lat="48.7832500" lon="13.9916720">
        <ele>741.8</ele>
        <time>2019-08-07T07:47:11Z</time>
      </trkpt>
      <trkpt lat="48.7832480" lon="13.9917440">
        <ele>741.8</ele>
        <time>2019-08-07T07:47:12Z</time>
      </trkpt>
      <trkpt lat="48.7832480" lon="13.9918180">
        <ele>741.8</ele>
        <time>2019-08-07T07:47:13Z</time>
      </trkpt>
      <trkpt lat="48.7832470" lon="13.9918900">
        <ele>741.8</ele>
        <time>2019-08-07T07:47:14Z</time>
      </trkpt>
      <trkpt lat="48.7832450" lon="13.9919640">
        <ele>741.8</ele>
        <time>2019-08-07T07:47:15Z</time>
      </trkpt>
      <trkpt lat="48.7832410" lon="13.9920410">
        <ele>741.6</ele>
        <time>2019-08-07T07:47:16Z</time>
      </trkpt>
      <trkpt lat="48.7832370" lon="13.9921250">
        <ele>741.6</ele>
        <time>2019-08-07T07:47:17Z</time>
      </trkpt>
      <trkpt lat="48.7832330" lon="13.9922110">
        <ele>741.4</ele>
        <time>2019-08-07T07:47:18Z</time>
      </trkpt>
      <trkpt lat="48.7832290" lon="13.9923020">
        <ele>741.2</ele>
        <time>2019-08-07T07:47:19Z</time>
      </trkpt>
      <trkpt lat="48.7832260" lon="13.9923960">
        <ele>741.2</ele>
        <time>2019-08-07T07:47:20Z</time>
      </trkpt>
      <trkpt lat="48.7832220" lon="13.9924950">
        <ele>741.0</ele>
        <time>2019-08-07T07:47:21Z</time>
      </trkpt>
      <trkpt lat="48.7832180" lon="13.9925930">
        <ele>740.8</ele>
        <time>2019-08-07T07:47:22Z</time>
      </trkpt>
      <trkpt lat="48.7832130" lon="13.9926950">
        <ele>740.6</ele>
        <time>2019-08-07T07:47:23Z</time>
      </trkpt>
      <trkpt lat="48.7832070" lon="13.9928000">
        <ele>740.4</ele>
        <time>2019-08-07T07:47:24Z</time>
      </trkpt>
      <trkpt lat="48.7832010" lon="13.9929080">
        <ele>740.0</ele>
        <time>2019-08-07T07:47:25Z</time>
      </trkpt>
      <trkpt lat="48.7831950" lon="13.9930180">
        <ele>739.8</ele>
        <time>2019-08-07T07:47:26Z</time>
      </trkpt>
      <trkpt lat="48.7831910" lon="13.9931290">
        <ele>739.8</ele>
        <time>2019-08-07T07:47:27Z</time>
      </trkpt>
      <trkpt lat="48.7831850" lon="13.9932420">
        <ele>739.6</ele>
        <time>2019-08-07T07:47:28Z</time>
      </trkpt>
      <trkpt lat="48.7831780" lon="13.9933550">
        <ele>739.6</ele>
        <time>2019-08-07T07:47:29Z</time>
      </trkpt>
      <trkpt lat="48.7831720" lon="13.9934670">
        <ele>739.4</ele>
        <time>2019-08-07T07:47:30Z</time>
      </trkpt>
      <trkpt lat="48.7831650" lon="13.9935800">
        <ele>739.2</ele>
        <time>2019-08-07T07:47:31Z</time>
      </trkpt>
      <trkpt lat="48.7831570" lon="13.9936940">
        <ele>739.0</ele>
        <time>2019-08-07T07:47:32Z</time>
      </trkpt>
      <trkpt lat="48.7831500" lon="13.9938090">
        <ele>738.8</ele>
        <time>2019-08-07T07:47:33Z</time>
      </trkpt>
      <trkpt lat="48.7831420" lon="13.9939250">
        <ele>738.6</ele>
        <time>2019-08-07T07:47:34Z</time>
      </trkpt>
      <trkpt lat="48.7831350" lon="13.9940400">
        <ele>738.6</ele>
        <time>2019-08-07T07:47:35Z</time>
      </trkpt>
      <trkpt lat="48.7831270" lon="13.9941560">
        <ele>738.4</ele>
        <time>2019-08-07T07:47:36Z</time>
      </trkpt>
      <trkpt lat="48.7831200" lon="13.9942720">
        <ele>738.2</ele>
        <time>2019-08-07T07:47:37Z</time>
      </trkpt>
      <trkpt lat="48.7831130" lon="13.9943890">
        <ele>738.0</ele>
        <time>2019-08-07T07:47:38Z</time>
      </trkpt>
      <trkpt lat="48.7831070" lon="13.9945100">
        <ele>738.0</ele>
        <time>2019-08-07T07:47:39Z</time>
      </trkpt>
      <trkpt lat="48.7831010" lon="13.9946280">
        <ele>737.8</ele>
        <time>2019-08-07T07:47:40Z</time>
      </trkpt>
      <trkpt lat="48.7830950" lon="13.9947480">
        <ele>737.8</ele>
        <time>2019-08-07T07:47:41Z</time>
      </trkpt>
      <trkpt lat="48.7830880" lon="13.9948680">
        <ele>737.6</ele>
        <time>2019-08-07T07:47:42Z</time>
      </trkpt>
      <trkpt lat="48.7830820" lon="13.9949880">
        <ele>737.6</ele>
        <time>2019-08-07T07:47:43Z</time>
      </trkpt>
      <trkpt lat="48.7830750" lon="13.9951080">
        <ele>737.4</ele>
        <time>2019-08-07T07:47:44Z</time>
      </trkpt>
      <trkpt lat="48.7830680" lon="13.9952290">
        <ele>737.4</ele>
        <time>2019-08-07T07:47:45Z</time>
      </trkpt>
      <trkpt lat="48.7830620" lon="13.9953470">
        <ele>737.2</ele>
        <time>2019-08-07T07:47:46Z</time>
      </trkpt>
      <trkpt lat="48.7830550" lon="13.9954690">
        <ele>737.0</ele>
        <time>2019-08-07T07:47:47Z</time>
      </trkpt>
      <trkpt lat="48.7830470" lon="13.9955890">
        <ele>737.0</ele>
        <time>2019-08-07T07:47:48Z</time>
      </trkpt>
      <trkpt lat="48.7830390" lon="13.9957080">
        <ele>737.0</ele>
        <time>2019-08-07T07:47:49Z</time>
      </trkpt>
      <trkpt lat="48.7830320" lon="13.9958310">
        <ele>736.8</ele>
        <time>2019-08-07T07:47:50Z</time>
      </trkpt>
      <trkpt lat="48.7830240" lon="13.9959490">
        <ele>736.8</ele>
        <time>2019-08-07T07:47:51Z</time>
      </trkpt>
      <trkpt lat="48.7830150" lon="13.9960700">
        <ele>736.6</ele>
        <time>2019-08-07T07:47:52Z</time>
      </trkpt>
      <trkpt lat="48.7830070" lon="13.9961880">
        <ele>736.6</ele>
        <time>2019-08-07T07:47:53Z</time>
      </trkpt>
      <trkpt lat="48.7830000" lon="13.9963030">
        <ele>736.4</ele>
        <time>2019-08-07T07:47:54Z</time>
      </trkpt>
      <trkpt lat="48.7829930" lon="13.9964190">
        <ele>736.4</ele>
        <time>2019-08-07T07:47:55Z</time>
      </trkpt>
      <trkpt lat="48.7829850" lon="13.9965350">
        <ele>736.4</ele>
        <time>2019-08-07T07:47:56Z</time>
      </trkpt>
      <trkpt lat="48.7829790" lon="13.9966530">
        <ele>736.2</ele>
        <time>2019-08-07T07:47:57Z</time>
      </trkpt>
      <trkpt lat="48.7829730" lon="13.9967690">
        <ele>736.2</ele>
        <time>2019-08-07T07:47:58Z</time>
      </trkpt>
      <trkpt lat="48.7829650" lon="13.9968850">
        <ele>736.2</ele>
        <time>2019-08-07T07:47:59Z</time>
      </trkpt>
      <trkpt lat="48.7829580" lon="13.9970020">
        <ele>736.0</ele>
        <time>2019-08-07T07:48:00Z</time>
      </trkpt>
      <trkpt lat="48.7829530" lon="13.9971180">
        <ele>736.0</ele>
        <time>2019-08-07T07:48:01Z</time>
      </trkpt>
      <trkpt lat="48.7829450" lon="13.9972300">
        <ele>736.0</ele>
        <time>2019-08-07T07:48:02Z</time>
      </trkpt>
      <trkpt lat="48.7829380" lon="13.9973420">
        <ele>735.8</ele>
        <time>2019-08-07T07:48:03Z</time>
      </trkpt>
      <trkpt lat="48.7829320" lon="13.9974580">
        <ele>735.8</ele>
        <time>2019-08-07T07:48:04Z</time>
      </trkpt>
      <trkpt lat="48.7829240" lon="13.9975720">
        <ele>735.6</ele>
        <time>2019-08-07T07:48:05Z</time>
      </trkpt>
      <trkpt lat="48.7829170" lon="13.9976840">
        <ele>735.6</ele>
        <time>2019-08-07T07:48:06Z</time>
      </trkpt>
      <trkpt lat="48.7829100" lon="13.9977970">
        <ele>735.4</ele>
        <time>2019-08-07T07:48:07Z</time>
      </trkpt>
      <trkpt lat="48.7829030" lon="13.9979100">
        <ele>735.4</ele>
        <time>2019-08-07T07:48:08Z</time>
      </trkpt>
      <trkpt lat="48.7828980" lon="13.9980230">
        <ele>735.2</ele>
        <time>2019-08-07T07:48:09Z</time>
      </trkpt>
      <trkpt lat="48.7828930" lon="13.9981370">
        <ele>735.0</ele>
        <time>2019-08-07T07:48:10Z</time>
      </trkpt>
      <trkpt lat="48.7828890" lon="13.9982510">
        <ele>735.0</ele>
        <time>2019-08-07T07:48:11Z</time>
      </trkpt>
      <trkpt lat="48.7828850" lon="13.9983630">
        <ele>734.8</ele>
        <time>2019-08-07T07:48:12Z</time>
      </trkpt>
      <trkpt lat="48.7828770" lon="13.9984760">
        <ele>734.8</ele>
        <time>2019-08-07T07:48:13Z</time>
      </trkpt>
      <trkpt lat="48.7828690" lon="13.9985900">
        <ele>734.6</ele>
        <time>2019-08-07T07:48:14Z</time>
      </trkpt>
      <trkpt lat="48.7828600" lon="13.9987030">
        <ele>734.6</ele>
        <time>2019-08-07T07:48:15Z</time>
      </trkpt>
      <trkpt lat="48.7828530" lon="13.9988150">
        <ele>734.6</ele>
        <time>2019-08-07T07:48:16Z</time>
      </trkpt>
      <trkpt lat="48.7828480" lon="13.9989260">
        <ele>734.4</ele>
        <time>2019-08-07T07:48:17Z</time>
      </trkpt>
      <trkpt lat="48.7828430" lon="13.9990390">
        <ele>734.4</ele>
        <time>2019-08-07T07:48:18Z</time>
      </trkpt>
      <trkpt lat="48.7828380" lon="13.9991520">
        <ele>734.4</ele>
        <time>2019-08-07T07:48:19Z</time>
      </trkpt>
      <trkpt lat="48.7828320" lon="13.9992650">
        <ele>734.4</ele>
        <time>2019-08-07T07:48:20Z</time>
      </trkpt>
      <trkpt lat="48.7828260" lon="13.9993790">
        <ele>734.2</ele>
        <time>2019-08-07T07:48:21Z</time>
      </trkpt>
      <trkpt lat="48.7828210" lon="13.9994920">
        <ele>734.2</ele>
        <time>2019-08-07T07:48:22Z</time>
      </trkpt>
      <trkpt lat="48.7828150" lon="13.9996050">
        <ele>734.0</ele>
        <time>2019-08-07T07:48:23Z</time>
      </trkpt>
      <trkpt lat="48.7828070" lon="13.9997150">
        <ele>734.0</ele>
        <time>2019-08-07T07:48:24Z</time>
      </trkpt>
      <trkpt lat="48.7827970" lon="13.9998280">
        <ele>734.0</ele>
        <time>2019-08-07T07:48:25Z</time>
      </trkpt>
      <trkpt lat="48.7827860" lon="13.9999400">
        <ele>733.8</ele>
        <time>2019-08-07T07:48:26Z</time>
      </trkpt>
      <trkpt lat="48.7827780" lon="14.0000530">
        <ele>733.8</ele>
        <time>2019-08-07T07:48:27Z</time>
      </trkpt>
      <trkpt lat="48.7827730" lon="14.0001660">
        <ele>733.6</ele>
        <time>2019-08-07T07:48:28Z</time>
      </trkpt>
      <trkpt lat="48.7827670" lon="14.0002780">
        <ele>733.6</ele>
        <time>2019-08-07T07:48:29Z</time>
      </trkpt>
      <trkpt lat="48.7827570" lon="14.0003900">
        <ele>733.6</ele>
        <time>2019-08-07T07:48:30Z</time>
      </trkpt>
      <trkpt lat="48.7827460" lon="14.0005000">
        <ele>733.4</ele>
        <time>2019-08-07T07:48:31Z</time>
      </trkpt>
      <trkpt lat="48.7827360" lon="14.0006110">
        <ele>733.4</ele>
        <time>2019-08-07T07:48:32Z</time>
      </trkpt>
      <trkpt lat="48.7827230" lon="14.0007200">
        <ele>733.4</ele>
        <time>2019-08-07T07:48:33Z</time>
      </trkpt>
      <trkpt lat="48.7827080" lon="14.0008260">
        <ele>733.6</ele>
        <time>2019-08-07T07:48:34Z</time>
      </trkpt>
      <trkpt lat="48.7826930" lon="14.0009320">
        <ele>733.6</ele>
        <time>2019-08-07T07:48:35Z</time>
      </trkpt>
      <trkpt lat="48.7826790" lon="14.0010380">
        <ele>733.8</ele>
        <time>2019-08-07T07:48:36Z</time>
      </trkpt>
      <trkpt lat="48.7826610" lon="14.0011420">
        <ele>733.8</ele>
        <time>2019-08-07T07:48:37Z</time>
      </trkpt>
      <trkpt lat="48.7826410" lon="14.0012440">
        <ele>733.6</ele>
        <time>2019-08-07T07:48:38Z</time>
      </trkpt>
      <trkpt lat="48.7826200" lon="14.0013430">
        <ele>733.6</ele>
        <time>2019-08-07T07:48:39Z</time>
      </trkpt>
      <trkpt lat="48.7825950" lon="14.0014420">
        <ele>733.4</ele>
        <time>2019-08-07T07:48:40Z</time>
      </trkpt>
      <trkpt lat="48.7825680" lon="14.0015380">
        <ele>733.4</ele>
        <time>2019-08-07T07:48:41Z</time>
      </trkpt>
      <trkpt lat="48.7825410" lon="14.0016330">
        <ele>733.4</ele>
        <time>2019-08-07T07:48:42Z</time>
      </trkpt>
      <trkpt lat="48.7825130" lon="14.0017270">
        <ele>733.4</ele>
        <time>2019-08-07T07:48:43Z</time>
      </trkpt>
      <trkpt lat="48.7824850" lon="14.0018170">
        <ele>733.4</ele>
        <time>2019-08-07T07:48:44Z</time>
      </trkpt>
      <trkpt lat="48.7824570" lon="14.0019060">
        <ele>733.6</ele>
        <time>2019-08-07T07:48:45Z</time>
      </trkpt>
      <trkpt lat="48.7824260" lon="14.0019910">
        <ele>733.6</ele>
        <time>2019-08-07T07:48:46Z</time>
      </trkpt>
      <trkpt lat="48.7823940" lon="14.0020730">
        <ele>733.6</ele>
        <time>2019-08-07T07:48:47Z</time>
      </trkpt>
      <trkpt lat="48.7823610" lon="14.0021530">
        <ele>733.8</ele>
        <time>2019-08-07T07:48:48Z</time>
      </trkpt>
      <trkpt lat="48.7823300" lon="14.0022290">
        <ele>733.8</ele>
        <time>2019-08-07T07:48:49Z</time>
      </trkpt>
      <trkpt lat="48.7822990" lon="14.0023060">
        <ele>734.0</ele>
        <time>2019-08-07T07:48:50Z</time>
      </trkpt>
      <trkpt lat="48.7822670" lon="14.0023840">
        <ele>734.0</ele>
        <time>2019-08-07T07:48:51Z</time>
      </trkpt>
      <trkpt lat="48.7822380" lon="14.0024600">
        <ele>734.2</ele>
        <time>2019-08-07T07:48:52Z</time>
      </trkpt>
      <trkpt lat="48.7822090" lon="14.0025340">
        <ele>734.2</ele>
        <time>2019-08-07T07:48:53Z</time>
      </trkpt>
      <trkpt lat="48.7821800" lon="14.0026070">
        <ele>734.4</ele>
        <time>2019-08-07T07:48:54Z</time>
      </trkpt>
      <trkpt lat="48.7821520" lon="14.0026780">
        <ele>734.4</ele>
        <time>2019-08-07T07:48:55Z</time>
      </trkpt>
      <trkpt lat="48.7821220" lon="14.0027450">
        <ele>734.6</ele>
        <time>2019-08-07T07:48:56Z</time>
      </trkpt>
      <trkpt lat="48.7820940" lon="14.0028100">
        <ele>734.6</ele>
        <time>2019-08-07T07:48:57Z</time>
      </trkpt>
      <trkpt lat="48.7820660" lon="14.0028760">
        <ele>734.8</ele>
        <time>2019-08-07T07:48:58Z</time>
      </trkpt>
      <trkpt lat="48.7820400" lon="14.0029420">
        <ele>735.0</ele>
        <time>2019-08-07T07:48:59Z</time>
      </trkpt>
      <trkpt lat="48.7820130" lon="14.0030050">
        <ele>735.0</ele>
        <time>2019-08-07T07:49:00Z</time>
      </trkpt>
      <trkpt lat="48.7819880" lon="14.0030690">
        <ele>735.2</ele>
        <time>2019-08-07T07:49:01Z</time>
      </trkpt>
      <trkpt lat="48.7819620" lon="14.0031320">
        <ele>735.2</ele>
        <time>2019-08-07T07:49:02Z</time>
      </trkpt>
      <trkpt lat="48.7819380" lon="14.0031930">
        <ele>735.4</ele>
        <time>2019-08-07T07:49:03Z</time>
      </trkpt>
      <trkpt lat="48.7819130" lon="14.0032570">
        <ele>735.4</ele>
        <time>2019-08-07T07:49:04Z</time>
      </trkpt>
      <trkpt lat="48.7818860" lon="14.0033180">
        <ele>735.6</ele>
        <time>2019-08-07T07:49:05Z</time>
      </trkpt>
      <trkpt lat="48.7818610" lon="14.0033760">
        <ele>735.8</ele>
        <time>2019-08-07T07:49:06Z</time>
      </trkpt>
      <trkpt lat="48.7818360" lon="14.0034370">
        <ele>735.8</ele>
        <time>2019-08-07T07:49:07Z</time>
      </trkpt>
      <trkpt lat="48.7818120" lon="14.0034970">
        <ele>736.0</ele>
        <time>2019-08-07T07:49:08Z</time>
      </trkpt>
      <trkpt lat="48.7817890" lon="14.0035590">
        <ele>736.0</ele>
        <time>2019-08-07T07:49:09Z</time>
      </trkpt>
      <trkpt lat="48.7817650" lon="14.0036200">
        <ele>736.2</ele>
        <time>2019-08-07T07:49:10Z</time>
      </trkpt>
      <trkpt lat="48.7817410" lon="14.0036780">
        <ele>736.2</ele>
        <time>2019-08-07T07:49:11Z</time>
      </trkpt>
      <trkpt lat="48.7817170" lon="14.0037360">
        <ele>736.4</ele>
        <time>2019-08-07T07:49:12Z</time>
      </trkpt>
      <trkpt lat="48.7816930" lon="14.0037950">
        <ele>736.4</ele>
        <time>2019-08-07T07:49:13Z</time>
      </trkpt>
      <trkpt lat="48.7816690" lon="14.0038530">
        <ele>736.6</ele>
        <time>2019-08-07T07:49:14Z</time>
      </trkpt>
      <trkpt lat="48.7816440" lon="14.0039110">
        <ele>736.6</ele>
        <time>2019-08-07T07:49:15Z</time>
      </trkpt>
      <trkpt lat="48.7816210" lon="14.0039690">
        <ele>736.8</ele>
        <time>2019-08-07T07:49:16Z</time>
      </trkpt>
      <trkpt lat="48.7815970" lon="14.0040280">
        <ele>736.8</ele>
        <time>2019-08-07T07:49:17Z</time>
      </trkpt>
      <trkpt lat="48.7815740" lon="14.0040850">
        <ele>737.0</ele>
        <time>2019-08-07T07:49:18Z</time>
      </trkpt>
      <trkpt lat="48.7815490" lon="14.0041430">
        <ele>737.0</ele>
        <time>2019-08-07T07:49:19Z</time>
      </trkpt>
      <trkpt lat="48.7815250" lon="14.0042000">
        <ele>737.2</ele>
        <time>2019-08-07T07:49:20Z</time>
      </trkpt>
      <trkpt lat="48.7815040" lon="14.0042580">
        <ele>737.4</ele>
        <time>2019-08-07T07:49:21Z</time>
      </trkpt>
      <trkpt lat="48.7814810" lon="14.0043150">
        <ele>737.4</ele>
        <time>2019-08-07T07:49:22Z</time>
      </trkpt>
      <trkpt lat="48.7814570" lon="14.0043710">
        <ele>737.4</ele>
        <time>2019-08-07T07:49:23Z</time>
      </trkpt>
      <trkpt lat="48.7814360" lon="14.0044290">
        <ele>737.6</ele>
        <time>2019-08-07T07:49:24Z</time>
      </trkpt>
      <trkpt lat="48.7814140" lon="14.0044860">
        <ele>737.6</ele>
        <time>2019-08-07T07:49:25Z</time>
      </trkpt>
      <trkpt lat="48.7813920" lon="14.0045450">
        <ele>737.6</ele>
        <time>2019-08-07T07:49:26Z</time>
      </trkpt>
      <trkpt lat="48.7813690" lon="14.0046030">
        <ele>737.6</ele>
        <time>2019-08-07T07:49:27Z</time>
      </trkpt>
      <trkpt lat="48.7813450" lon="14.0046600">
        <ele>737.6</ele>
        <time>2019-08-07T07:49:28Z</time>
      </trkpt>
      <trkpt lat="48.7813210" lon="14.0047170">
        <ele>737.8</ele>
        <time>2019-08-07T07:49:29Z</time>
      </trkpt>
      <trkpt lat="48.7812970" lon="14.0047780">
        <ele>737.8</ele>
        <time>2019-08-07T07:49:30Z</time>
      </trkpt>
      <trkpt lat="48.7812730" lon="14.0048360">
        <ele>737.8</ele>
        <time>2019-08-07T07:49:31Z</time>
      </trkpt>
      <trkpt lat="48.7812490" lon="14.0048960">
        <ele>737.8</ele>
        <time>2019-08-07T07:49:32Z</time>
      </trkpt>
      <trkpt lat="48.7812240" lon="14.0049550">
        <ele>737.8</ele>
        <time>2019-08-07T07:49:33Z</time>
      </trkpt>
      <trkpt lat="48.7812000" lon="14.0050130">
        <ele>737.8</ele>
        <time>2019-08-07T07:49:34Z</time>
      </trkpt>
      <trkpt lat="48.7811740" lon="14.0050740">
        <ele>737.8</ele>
        <time>2019-08-07T07:49:35Z</time>
      </trkpt>
      <trkpt lat="48.7811510" lon="14.0051350">
        <ele>738.0</ele>
        <time>2019-08-07T07:49:36Z</time>
      </trkpt>
      <trkpt lat="48.7811270" lon="14.0051960">
        <ele>738.0</ele>
        <time>2019-08-07T07:49:37Z</time>
      </trkpt>
      <trkpt lat="48.7811030" lon="14.0052590">
        <ele>738.0</ele>
        <time>2019-08-07T07:49:38Z</time>
      </trkpt>
      <trkpt lat="48.7810780" lon="14.0053220">
        <ele>738.0</ele>
        <time>2019-08-07T07:49:39Z</time>
      </trkpt>
      <trkpt lat="48.7810500" lon="14.0053840">
        <ele>738.0</ele>
        <time>2019-08-07T07:49:40Z</time>
      </trkpt>
      <trkpt lat="48.7810230" lon="14.0054480">
        <ele>738.0</ele>
        <time>2019-08-07T07:49:41Z</time>
      </trkpt>
      <trkpt lat="48.7809970" lon="14.0055120">
        <ele>738.2</ele>
        <time>2019-08-07T07:49:42Z</time>
      </trkpt>
      <trkpt lat="48.7809710" lon="14.0055780">
        <ele>738.2</ele>
        <time>2019-08-07T07:49:43Z</time>
      </trkpt>
      <trkpt lat="48.7809450" lon="14.0056440">
        <ele>738.2</ele>
        <time>2019-08-07T07:49:44Z</time>
      </trkpt>
      <trkpt lat="48.7809180" lon="14.0057110">
        <ele>738.2</ele>
        <time>2019-08-07T07:49:45Z</time>
      </trkpt>
      <trkpt lat="48.7808910" lon="14.0057770">
        <ele>738.2</ele>
        <time>2019-08-07T07:49:46Z</time>
      </trkpt>
      <trkpt lat="48.7808650" lon="14.0058410">
        <ele>738.2</ele>
        <time>2019-08-07T07:49:47Z</time>
      </trkpt>
      <trkpt lat="48.7808390" lon="14.0059090">
        <ele>738.2</ele>
        <time>2019-08-07T07:49:48Z</time>
      </trkpt>
      <trkpt lat="48.7808130" lon="14.0059770">
        <ele>738.2</ele>
        <time>2019-08-07T07:49:49Z</time>
      </trkpt>
      <trkpt lat="48.7807860" lon="14.0060450">
        <ele>738.2</ele>
        <time>2019-08-07T07:49:50Z</time>
      </trkpt>
      <trkpt lat="48.7807600" lon="14.0061140">
        <ele>738.2</ele>
        <time>2019-08-07T07:49:51Z</time>
      </trkpt>
      <trkpt lat="48.7807330" lon="14.0061830">
        <ele>738.2</ele>
        <time>2019-08-07T07:49:52Z</time>
      </trkpt>
      <trkpt lat="48.7807050" lon="14.0062540">
        <ele>738.2</ele>
        <time>2019-08-07T07:49:53Z</time>
      </trkpt>
      <trkpt lat="48.7806780" lon="14.0063240">
        <ele>738.2</ele>
        <time>2019-08-07T07:49:54Z</time>
      </trkpt>
      <trkpt lat="48.7806500" lon="14.0063950">
        <ele>738.2</ele>
        <time>2019-08-07T07:49:55Z</time>
      </trkpt>
      <trkpt lat="48.7806200" lon="14.0064660">
        <ele>738.0</ele>
        <time>2019-08-07T07:49:56Z</time>
      </trkpt>
      <trkpt lat="48.7805900" lon="14.0065360">
        <ele>738.0</ele>
        <time>2019-08-07T07:49:57Z</time>
      </trkpt>
      <trkpt lat="48.7805600" lon="14.0066050">
        <ele>738.0</ele>
        <time>2019-08-07T07:49:58Z</time>
      </trkpt>
      <trkpt lat="48.7805290" lon="14.0066750">
        <ele>738.0</ele>
        <time>2019-08-07T07:49:59Z</time>
      </trkpt>
      <trkpt lat="48.7804990" lon="14.0067470">
        <ele>738.0</ele>
        <time>2019-08-07T07:50:00Z</time>
      </trkpt>
      <trkpt lat="48.7804700" lon="14.0068190">
        <ele>738.0</ele>
        <time>2019-08-07T07:50:01Z</time>
      </trkpt>
      <trkpt lat="48.7804440" lon="14.0068910">
        <ele>738.0</ele>
        <time>2019-08-07T07:50:02Z</time>
      </trkpt>
      <trkpt lat="48.7804140" lon="14.0069700">
        <ele>737.8</ele>
        <time>2019-08-07T07:50:03Z</time>
      </trkpt>
      <trkpt lat="48.7803840" lon="14.0070490">
        <ele>737.8</ele>
        <time>2019-08-07T07:50:04Z</time>
      </trkpt>
      <trkpt lat="48.7803540" lon="14.0071280">
        <ele>737.8</ele>
        <time>2019-08-07T07:50:05Z</time>
      </trkpt>
      <trkpt lat="48.7803210" lon="14.0072090">
        <ele>737.6</ele>
        <time>2019-08-07T07:50:06Z</time>
      </trkpt>
      <trkpt lat="48.7802900" lon="14.0072950">
        <ele>737.4</ele>
        <time>2019-08-07T07:50:07Z</time>
      </trkpt>
      <trkpt lat="48.7802600" lon="14.0073830">
        <ele>737.4</ele>
        <time>2019-08-07T07:50:08Z</time>
      </trkpt>
      <trkpt lat="48.7802290" lon="14.0074730">
        <ele>737.2</ele>
        <time>2019-08-07T07:50:09Z</time>
      </trkpt>
      <trkpt lat="48.7802000" lon="14.0075700">
        <ele>737.0</ele>
        <time>2019-08-07T07:50:10Z</time>
      </trkpt>
      <trkpt lat="48.7801700" lon="14.0076740">
        <ele>736.8</ele>
        <time>2019-08-07T07:50:11Z</time>
      </trkpt>
      <trkpt lat="48.7801420" lon="14.0077820">
        <ele>736.6</ele>
        <time>2019-08-07T07:50:12Z</time>
      </trkpt>
      <trkpt lat="48.7801150" lon="14.0078960">
        <ele>736.4</ele>
        <time>2019-08-07T07:50:13Z</time>
      </trkpt>
      <trkpt lat="48.7800890" lon="14.0080140">
        <ele>736.0</ele>
        <time>2019-08-07T07:50:14Z</time>
      </trkpt>
      <trkpt lat="48.7800630" lon="14.0081330">
        <ele>735.8</ele>
        <time>2019-08-07T07:50:15Z</time>
      </trkpt>
      <trkpt lat="48.7800360" lon="14.0082530">
        <ele>735.6</ele>
        <time>2019-08-07T07:50:16Z</time>
      </trkpt>
      <trkpt lat="48.7800070" lon="14.0083670">
        <ele>735.4</ele>
        <time>2019-08-07T07:50:17Z</time>
      </trkpt>
      <trkpt lat="48.7799760" lon="14.0084780">
        <ele>735.2</ele>
        <time>2019-08-07T07:50:18Z</time>
      </trkpt>
      <trkpt lat="48.7799430" lon="14.0085900">
        <ele>735.0</ele>
        <time>2019-08-07T07:50:19Z</time>
      </trkpt>
      <trkpt lat="48.7799050" lon="14.0086980">
        <ele>734.8</ele>
        <time>2019-08-07T07:50:20Z</time>
      </trkpt>
      <trkpt lat="48.7798620" lon="14.0088060">
        <ele>734.8</ele>
        <time>2019-08-07T07:50:21Z</time>
      </trkpt>
      <trkpt lat="48.7798210" lon="14.0089120">
        <ele>734.8</ele>
        <time>2019-08-07T07:50:22Z</time>
      </trkpt>
      <trkpt lat="48.7797810" lon="14.0090130">
        <ele>734.6</ele>
        <time>2019-08-07T07:50:23Z</time>
      </trkpt>
      <trkpt lat="48.7797410" lon="14.0091110">
        <ele>734.6</ele>
        <time>2019-08-07T07:50:24Z</time>
      </trkpt>
      <trkpt lat="48.7797030" lon="14.0092040">
        <ele>734.4</ele>
        <time>2019-08-07T07:50:25Z</time>
      </trkpt>
      <trkpt lat="48.7796640" lon="14.0092980">
        <ele>734.4</ele>
        <time>2019-08-07T07:50:26Z</time>
      </trkpt>
      <trkpt lat="48.7796270" lon="14.0093900">
        <ele>734.4</ele>
        <time>2019-08-07T07:50:27Z</time>
      </trkpt>
      <trkpt lat="48.7795920" lon="14.0094790">
        <ele>734.4</ele>
        <time>2019-08-07T07:50:28Z</time>
      </trkpt>
      <trkpt lat="48.7795590" lon="14.0095670">
        <ele>734.4</ele>
        <time>2019-08-07T07:50:29Z</time>
      </trkpt>
      <trkpt lat="48.7795260" lon="14.0096490">
        <ele>734.6</ele>
        <time>2019-08-07T07:50:30Z</time>
      </trkpt>
      <trkpt lat="48.7794950" lon="14.0097300">
        <ele>734.6</ele>
        <time>2019-08-07T07:50:31Z</time>
      </trkpt>
      <trkpt lat="48.7794650" lon="14.0098060">
        <ele>734.8</ele>
        <time>2019-08-07T07:50:32Z</time>
      </trkpt>
      <trkpt lat="48.7794370" lon="14.0098780">
        <ele>735.0</ele>
        <time>2019-08-07T07:50:33Z</time>
      </trkpt>
      <trkpt lat="48.7794080" lon="14.0099460">
        <ele>735.0</ele>
        <time>2019-08-07T07:50:34Z</time>
      </trkpt>
      <trkpt lat="48.7793810" lon="14.0100090">
        <ele>735.2</ele>
        <time>2019-08-07T07:50:35Z</time>
      </trkpt>
      <trkpt lat="48.7793560" lon="14.0100710">
        <ele>735.4</ele>
        <time>2019-08-07T07:50:36Z</time>
      </trkpt>
      <trkpt lat="48.7793310" lon="14.0101290">
        <ele>735.6</ele>
        <time>2019-08-07T07:50:37Z</time>
      </trkpt>
      <trkpt lat="48.7793090" lon="14.0101860">
        <ele>735.8</ele>
        <time>2019-08-07T07:50:38Z</time>
      </trkpt>
      <trkpt lat="48.7792860" lon="14.0102390">
        <ele>736.0</ele>
        <time>2019-08-07T07:50:39Z</time>
      </trkpt>
      <trkpt lat="48.7792640" lon="14.0102930">
        <ele>736.2</ele>
        <time>2019-08-07T07:50:40Z</time>
      </trkpt>
      <trkpt lat="48.7792420" lon="14.0103430">
        <ele>736.4</ele>
        <time>2019-08-07T07:50:41Z</time>
      </trkpt>
      <trkpt lat="48.7792200" lon="14.0103880">
        <ele>736.6</ele>
        <time>2019-08-07T07:50:42Z</time>
      </trkpt>
      <trkpt lat="48.7791970" lon="14.0104290">
        <ele>736.8</ele>
        <time>2019-08-07T07:50:43Z</time>
      </trkpt>
      <trkpt lat="48.7791740" lon="14.0104650">
        <ele>737.0</ele>
        <time>2019-08-07T07:50:44Z</time>
      </trkpt>
      <trkpt lat="48.7791520" lon="14.0104920">
        <ele>737.2</ele>
        <time>2019-08-07T07:50:45Z</time>
      </trkpt>
      <trkpt lat="48.7791300" lon="14.0105110">
        <ele>737.2</ele>
        <time>2019-08-07T07:50:46Z</time>
      </trkpt>
      <trkpt lat="48.7791070" lon="14.0105250">
        <ele>737.4</ele>
        <time>2019-08-07T07:50:47Z</time>
      </trkpt>
      <trkpt lat="48.7790840" lon="14.0105380">
        <ele>737.4</ele>
        <time>2019-08-07T07:50:48Z</time>
      </trkpt>
      <trkpt lat="48.7790630" lon="14.0105490">
        <ele>737.4</ele>
        <time>2019-08-07T07:50:49Z</time>
      </trkpt>
      <trkpt lat="48.7790430" lon="14.0105580">
        <ele>737.2</ele>
        <time>2019-08-07T07:50:50Z</time>
      </trkpt>
      <trkpt lat="48.7790210" lon="14.0105630">
        <ele>737.2</ele>
        <time>2019-08-07T07:50:51Z</time>
      </trkpt>
      <trkpt lat="48.7789960" lon="14.0105540">
        <ele>737.2</ele>
        <time>2019-08-07T07:50:52Z</time>
      </trkpt>
      <trkpt lat="48.7789750" lon="14.0105290">
        <ele>737.0</ele>
        <time>2019-08-07T07:50:53Z</time>
      </trkpt>
      <trkpt lat="48.7789610" lon="14.0104900">
        <ele>737.0</ele>
        <time>2019-08-07T07:50:54Z</time>
      </trkpt>
      <trkpt lat="48.7789530" lon="14.0104460">
        <ele>736.8</ele>
        <time>2019-08-07T07:50:55Z</time>
      </trkpt>
      <trkpt lat="48.7789450" lon="14.0103980">
        <ele>736.8</ele>
        <time>2019-08-07T07:50:56Z</time>
      </trkpt>
      <trkpt lat="48.7789360" lon="14.0103460">
        <ele>736.6</ele>
        <time>2019-08-07T07:50:57Z</time>
      </trkpt>
      <trkpt lat="48.7789270" lon="14.0102940">
        <ele>736.6</ele>
        <time>2019-08-07T07:50:58Z</time>
      </trkpt>
      <trkpt lat="48.7789160" lon="14.0102450">
        <ele>736.6</ele>
        <time>2019-08-07T07:50:59Z</time>
      </trkpt>
      <trkpt lat="48.7788980" lon="14.0102040">
        <ele>736.4</ele>
        <time>2019-08-07T07:51:00Z</time>
      </trkpt>
      <trkpt lat="48.7788700" lon="14.0101860">
        <ele>736.2</ele>
        <time>2019-08-07T07:51:01Z</time>
      </trkpt>
      <trkpt lat="48.7788390" lon="14.0101950">
        <ele>736.2</ele>
        <time>2019-08-07T07:51:02Z</time>
      </trkpt>
      <trkpt lat="48.7788150" lon="14.0102250">
        <ele>736.0</ele>
        <time>2019-08-07T07:51:03Z</time>
      </trkpt>
      <trkpt lat="48.7787980" lon="14.0102720">
        <ele>736.0</ele>
        <time>2019-08-07T07:51:04Z</time>
      </trkpt>
      <trkpt lat="48.7787860" lon="14.0103260">
        <ele>736.0</ele>
        <time>2019-08-07T07:51:05Z</time>
      </trkpt>
      <trkpt lat="48.7787730" lon="14.0103820">
        <ele>736.0</ele>
        <time>2019-08-07T07:51:06Z</time>
      </trkpt>
      <trkpt lat="48.7787590" lon="14.0104400">
        <ele>736.0</ele>
        <time>2019-08-07T07:51:07Z</time>
      </trkpt>
      <trkpt lat="48.7787420" lon="14.0104980">
        <ele>736.0</ele>
        <time>2019-08-07T07:51:08Z</time>
      </trkpt>
      <trkpt lat="48.7787240" lon="14.0105560">
        <ele>736.2</ele>
        <time>2019-08-07T07:51:09Z</time>
      </trkpt>
      <trkpt lat="48.7787030" lon="14.0106150">
        <ele>736.2</ele>
        <time>2019-08-07T07:51:10Z</time>
      </trkpt>
      <trkpt lat="48.7786820" lon="14.0106720">
        <ele>736.4</ele>
        <time>2019-08-07T07:51:11Z</time>
      </trkpt>
      <trkpt lat="48.7786590" lon="14.0107290">
        <ele>736.4</ele>
        <time>2019-08-07T07:51:12Z</time>
      </trkpt>
      <trkpt lat="48.7786360" lon="14.0107860">
        <ele>736.4</ele>
        <time>2019-08-07T07:51:13Z</time>
      </trkpt>
      <trkpt lat="48.7786110" lon="14.0108420">
        <ele>736.6</ele>
        <time>2019-08-07T07:51:14Z</time>
      </trkpt>
      <trkpt lat="48.7785860" lon="14.0108970">
        <ele>736.6</ele>
        <time>2019-08-07T07:51:15Z</time>
      </trkpt>
      <trkpt lat="48.7785610" lon="14.0109530">
        <ele>736.8</ele>
        <time>2019-08-07T07:51:16Z</time>
      </trkpt>
      <trkpt lat="48.7785360" lon="14.0110090">
        <ele>736.8</ele>
        <time>2019-08-07T07:51:17Z</time>
      </trkpt>
      <trkpt lat="48.7785110" lon="14.0110680">
        <ele>736.8</ele>
        <time>2019-08-07T07:51:18Z</time>
      </trkpt>
      <trkpt lat="48.7784860" lon="14.0111260">
        <ele>737.0</ele>
        <time>2019-08-07T07:51:19Z</time>
      </trkpt>
      <trkpt lat="48.7784620" lon="14.0111840">
        <ele>737.0</ele>
        <time>2019-08-07T07:51:20Z</time>
      </trkpt>
      <trkpt lat="48.7784380" lon="14.0112430">
        <ele>737.2</ele>
        <time>2019-08-07T07:51:21Z</time>
      </trkpt>
      <trkpt lat="48.7784130" lon="14.0112980">
        <ele>737.2</ele>
        <time>2019-08-07T07:51:22Z</time>
      </trkpt>
      <trkpt lat="48.7783890" lon="14.0113570">
        <ele>737.4</ele>
        <time>2019-08-07T07:51:23Z</time>
      </trkpt>
      <trkpt lat="48.7783640" lon="14.0114140">
        <ele>737.4</ele>
        <time>2019-08-07T07:51:24Z</time>
      </trkpt>
      <trkpt lat="48.7783390" lon="14.0114700">
        <ele>737.6</ele>
        <time>2019-08-07T07:51:25Z</time>
      </trkpt>
      <trkpt lat="48.7783150" lon="14.0115250">
        <ele>737.6</ele>
        <time>2019-08-07T07:51:26Z</time>
      </trkpt>
      <trkpt lat="48.7782920" lon="14.0115800">
        <ele>737.6</ele>
        <time>2019-08-07T07:51:27Z</time>
      </trkpt>
      <trkpt lat="48.7782690" lon="14.0116350">
        <ele>737.6</ele>
        <time>2019-08-07T07:51:28Z</time>
      </trkpt>
      <trkpt lat="48.7782480" lon="14.0116920">
        <ele>737.8</ele>
        <time>2019-08-07T07:51:29Z</time>
      </trkpt>
      <trkpt lat="48.7782270" lon="14.0117500">
        <ele>737.8</ele>
        <time>2019-08-07T07:51:30Z</time>
      </trkpt>
      <trkpt lat="48.7782040" lon="14.0118070">
        <ele>737.8</ele>
        <time>2019-08-07T07:51:31Z</time>
      </trkpt>
      <trkpt lat="48.7781790" lon="14.0118610">
        <ele>738.0</ele>
        <time>2019-08-07T07:51:32Z</time>
      </trkpt>
      <trkpt lat="48.7781540" lon="14.0119170">
        <ele>738.0</ele>
        <time>2019-08-07T07:51:33Z</time>
      </trkpt>
      <trkpt lat="48.7781300" lon="14.0119730">
        <ele>738.0</ele>
        <time>2019-08-07T07:51:34Z</time>
      </trkpt>
      <trkpt lat="48.7781070" lon="14.0120330">
        <ele>738.0</ele>
        <time>2019-08-07T07:51:35Z</time>
      </trkpt>
      <trkpt lat="48.7780840" lon="14.0120940">
        <ele>738.0</ele>
        <time>2019-08-07T07:51:36Z</time>
      </trkpt>
      <trkpt lat="48.7780590" lon="14.0121570">
        <ele>738.0</ele>
        <time>2019-08-07T07:51:37Z</time>
      </trkpt>
      <trkpt lat="48.7780360" lon="14.0122210">
        <ele>738.0</ele>
        <time>2019-08-07T07:51:38Z</time>
      </trkpt>
      <trkpt lat="48.7780100" lon="14.0122860">
        <ele>738.0</ele>
        <time>2019-08-07T07:51:39Z</time>
      </trkpt>
      <trkpt lat="48.7779830" lon="14.0123570">
        <ele>737.8</ele>
        <time>2019-08-07T07:51:40Z</time>
      </trkpt>
      <trkpt lat="48.7779550" lon="14.0124310">
        <ele>737.8</ele>
        <time>2019-08-07T07:51:41Z</time>
      </trkpt>
      <trkpt lat="48.7779270" lon="14.0125080">
        <ele>737.6</ele>
        <time>2019-08-07T07:51:42Z</time>
      </trkpt>
      <trkpt lat="48.7779000" lon="14.0125900">
        <ele>737.4</ele>
        <time>2019-08-07T07:51:43Z</time>
      </trkpt>
      <trkpt lat="48.7778700" lon="14.0126760">
        <ele>737.2</ele>
        <time>2019-08-07T07:51:44Z</time>
      </trkpt>
      <trkpt lat="48.7778390" lon="14.0127670">
        <ele>737.0</ele>
        <time>2019-08-07T07:51:45Z</time>
      </trkpt>
      <trkpt lat="48.7778060" lon="14.0128610">
        <ele>736.8</ele>
        <time>2019-08-07T07:51:46Z</time>
      </trkpt>
      <trkpt lat="48.7777720" lon="14.0129570">
        <ele>736.6</ele>
        <time>2019-08-07T07:51:47Z</time>
      </trkpt>
      <trkpt lat="48.7777350" lon="14.0130540">
        <ele>736.4</ele>
        <time>2019-08-07T07:51:48Z</time>
      </trkpt>
      <trkpt lat="48.7776930" lon="14.0131550">
        <ele>736.2</ele>
        <time>2019-08-07T07:51:49Z</time>
      </trkpt>
      <trkpt lat="48.7776500" lon="14.0132530">
        <ele>736.0</ele>
        <time>2019-08-07T07:51:50Z</time>
      </trkpt>
      <trkpt lat="48.7776070" lon="14.0133490">
        <ele>735.8</ele>
        <time>2019-08-07T07:51:51Z</time>
      </trkpt>
      <trkpt lat="48.7775630" lon="14.0134450">
        <ele>735.6</ele>
        <time>2019-08-07T07:51:52Z</time>
      </trkpt>
      <trkpt lat="48.7775200" lon="14.0135370">
        <ele>735.6</ele>
        <time>2019-08-07T07:51:53Z</time>
      </trkpt>
      <trkpt lat="48.7774750" lon="14.0136260">
        <ele>735.6</ele>
        <time>2019-08-07T07:51:54Z</time>
      </trkpt>
      <trkpt lat="48.7774320" lon="14.0137110">
        <ele>735.6</ele>
        <time>2019-08-07T07:51:55Z</time>
      </trkpt>
      <trkpt lat="48.7773880" lon="14.0137910">
        <ele>735.6</ele>
        <time>2019-08-07T07:51:56Z</time>
      </trkpt>
      <trkpt lat="48.7773420" lon="14.0138720">
        <ele>735.6</ele>
        <time>2019-08-07T07:51:57Z</time>
      </trkpt>
      <trkpt lat="48.7772990" lon="14.0139470">
        <ele>735.6</ele>
        <time>2019-08-07T07:51:58Z</time>
      </trkpt>
      <trkpt lat="48.7772540" lon="14.0140240">
        <ele>735.6</ele>
        <time>2019-08-07T07:51:59Z</time>
      </trkpt>
      <trkpt lat="48.7772090" lon="14.0140950">
        <ele>735.6</ele>
        <time>2019-08-07T07:52:00Z</time>
      </trkpt>
      <trkpt lat="48.7771650" lon="14.0141640">
        <ele>735.8</ele>
        <time>2019-08-07T07:52:01Z</time>
      </trkpt>
      <trkpt lat="48.7771210" lon="14.0142300">
        <ele>735.8</ele>
        <time>2019-08-07T07:52:02Z</time>
      </trkpt>
      <trkpt lat="48.7770760" lon="14.0142950">
        <ele>735.8</ele>
        <time>2019-08-07T07:52:03Z</time>
      </trkpt>
      <trkpt lat="48.7770310" lon="14.0143580">
        <ele>736.0</ele>
        <time>2019-08-07T07:52:04Z</time>
      </trkpt>
      <trkpt lat="48.7769840" lon="14.0144220">
        <ele>736.0</ele>
        <time>2019-08-07T07:52:05Z</time>
      </trkpt>
      <trkpt lat="48.7769360" lon="14.0144830">
        <ele>736.0</ele>
        <time>2019-08-07T07:52:06Z</time>
      </trkpt>
      <trkpt lat="48.7768890" lon="14.0145410">
        <ele>736.2</ele>
        <time>2019-08-07T07:52:07Z</time>
      </trkpt>
      <trkpt lat="48.7768400" lon="14.0145980">
        <ele>736.2</ele>
        <time>2019-08-07T07:52:08Z</time>
      </trkpt>
      <trkpt lat="48.7767890" lon="14.0146500">
        <ele>736.4</ele>
        <time>2019-08-07T07:52:09Z</time>
      </trkpt>
      <trkpt lat="48.7767340" lon="14.0146950">
        <ele>736.4</ele>
        <time>2019-08-07T07:52:10Z</time>
      </trkpt>
      <trkpt lat="48.7766800" lon="14.0147360">
        <ele>736.4</ele>
        <time>2019-08-07T07:52:11Z</time>
      </trkpt>
      <trkpt lat="48.7766220" lon="14.0147760">
        <ele>736.6</ele>
        <time>2019-08-07T07:52:12Z</time>
      </trkpt>
      <trkpt lat="48.7765640" lon="14.0148160">
        <ele>736.6</ele>
        <time>2019-08-07T07:52:13Z</time>
      </trkpt>
      <trkpt lat="48.7765070" lon="14.0148570">
        <ele>736.6</ele>
        <time>2019-08-07T07:52:14Z</time>
      </trkpt>
      <trkpt lat="48.7764500" lon="14.0148990">
        <ele>736.8</ele>
        <time>2019-08-07T07:52:15Z</time>
      </trkpt>
      <trkpt lat="48.7763920" lon="14.0149400">
        <ele>736.8</ele>
        <time>2019-08-07T07:52:16Z</time>
      </trkpt>
      <trkpt lat="48.7763340" lon="14.0149820">
        <ele>736.8</ele>
        <time>2019-08-07T07:52:17Z</time>
      </trkpt>
      <trkpt lat="48.7762750" lon="14.0150210">
        <ele>736.8</ele>
        <time>2019-08-07T07:52:18Z</time>
      </trkpt>
      <trkpt lat="48.7762160" lon="14.0150590">
        <ele>737.0</ele>
        <time>2019-08-07T07:52:19Z</time>
      </trkpt>
      <trkpt lat="48.7761560" lon="14.0150950">
        <ele>737.0</ele>
        <time>2019-08-07T07:52:20Z</time>
      </trkpt>
      <trkpt lat="48.7760950" lon="14.0151290">
        <ele>737.0</ele>
        <time>2019-08-07T07:52:21Z</time>
      </trkpt>
      <trkpt lat="48.7760340" lon="14.0151640">
        <ele>737.0</ele>
        <time>2019-08-07T07:52:22Z</time>
      </trkpt>
      <trkpt lat="48.7759710" lon="14.0151990">
        <ele>737.0</ele>
        <time>2019-08-07T07:52:23Z</time>
      </trkpt>
      <trkpt lat="48.7759090" lon="14.0152320">
        <ele>737.2</ele>
        <time>2019-08-07T07:52:24Z</time>
      </trkpt>
      <trkpt lat="48.7758480" lon="14.0152630">
        <ele>737.2</ele>
        <time>2019-08-07T07:52:25Z</time>
      </trkpt>
      <trkpt lat="48.7757870" lon="14.0152920">
        <ele>737.2</ele>
        <time>2019-08-07T07:52:26Z</time>
      </trkpt>
      <trkpt lat="48.7757260" lon="14.0153200">
        <ele>737.2</ele>
        <time>2019-08-07T07:52:27Z</time>
      </trkpt>
      <trkpt lat="48.7756630" lon="14.0153510">
        <ele>737.4</ele>
        <time>2019-08-07T07:52:28Z</time>
      </trkpt>
      <trkpt lat="48.7756010" lon="14.0153830">
        <ele>737.4</ele>
        <time>2019-08-07T07:52:29Z</time>
      </trkpt>
      <trkpt lat="48.7755420" lon="14.0154110">
        <ele>737.4</ele>
        <time>2019-08-07T07:52:30Z</time>
      </trkpt>
      <trkpt lat="48.7754790" lon="14.0154400">
        <ele>737.4</ele>
        <time>2019-08-07T07:52:31Z</time>
      </trkpt>
      <trkpt lat="48.7754160" lon="14.0154650">
        <ele>737.4</ele>
        <time>2019-08-07T07:52:32Z</time>
      </trkpt>
      <trkpt lat="48.7753500" lon="14.0154900">
        <ele>737.6</ele>
        <time>2019-08-07T07:52:33Z</time>
      </trkpt>
      <trkpt lat="48.7752870" lon="14.0155170">
        <ele>737.6</ele>
        <time>2019-08-07T07:52:34Z</time>
      </trkpt>
      <trkpt lat="48.7752260" lon="14.0155470">
        <ele>737.6</ele>
        <time>2019-08-07T07:52:35Z</time>
      </trkpt>
      <trkpt lat="48.7751660" lon="14.0155790">
        <ele>737.8</ele>
        <time>2019-08-07T07:52:36Z</time>
      </trkpt>
      <trkpt lat="48.7751070" lon="14.0156130">
        <ele>737.8</ele>
        <time>2019-08-07T07:52:37Z</time>
      </trkpt>
      <trkpt lat="48.7750500" lon="14.0156470">
        <ele>738.0</ele>
        <time>2019-08-07T07:52:38Z</time>
      </trkpt>
      <trkpt lat="48.7749950" lon="14.0156790">
        <ele>738.0</ele>
        <time>2019-08-07T07:52:39Z</time>
      </trkpt>
      <trkpt lat="48.7749400" lon="14.0157130">
        <ele>738.0</ele>
        <time>2019-08-07T07:52:40Z</time>
      </trkpt>
      <trkpt lat="48.7748840" lon="14.0157510">
        <ele>738.0</ele>
        <time>2019-08-07T07:52:41Z</time>
      </trkpt>
      <trkpt lat="48.7748310" lon="14.0157890">
        <ele>738.2</ele>
        <time>2019-08-07T07:52:42Z</time>
      </trkpt>
      <trkpt lat="48.7747770" lon="14.0158250">
        <ele>738.2</ele>
        <time>2019-08-07T07:52:43Z</time>
      </trkpt>
      <trkpt lat="48.7747260" lon="14.0158590">
        <ele>738.4</ele>
        <time>2019-08-07T07:52:44Z</time>
      </trkpt>
      <trkpt lat="48.7746750" lon="14.0158930">
        <ele>738.4</ele>
        <time>2019-08-07T07:52:45Z</time>
      </trkpt>
      <trkpt lat="48.7746250" lon="14.0159320">
        <ele>738.6</ele>
        <time>2019-08-07T07:52:46Z</time>
      </trkpt>
      <trkpt lat="48.7745770" lon="14.0159720">
        <ele>738.6</ele>
        <time>2019-08-07T07:52:47Z</time>
      </trkpt>
      <trkpt lat="48.7745270" lon="14.0160130">
        <ele>738.8</ele>
        <time>2019-08-07T07:52:48Z</time>
      </trkpt>
      <trkpt lat="48.7744780" lon="14.0160560">
        <ele>738.8</ele>
        <time>2019-08-07T07:52:49Z</time>
      </trkpt>
      <trkpt lat="48.7744270" lon="14.0161000">
        <ele>739.0</ele>
        <time>2019-08-07T07:52:50Z</time>
      </trkpt>
      <trkpt lat="48.7743750" lon="14.0161430">
        <ele>739.0</ele>
        <time>2019-08-07T07:52:51Z</time>
      </trkpt>
      <trkpt lat="48.7743240" lon="14.0161890">
        <ele>739.2</ele>
        <time>2019-08-07T07:52:52Z</time>
      </trkpt>
      <trkpt lat="48.7742720" lon="14.0162360">
        <ele>739.2</ele>
        <time>2019-08-07T07:52:53Z</time>
      </trkpt>
      <trkpt lat="48.7742220" lon="14.0162830">
        <ele>739.2</ele>
        <time>2019-08-07T07:52:54Z</time>
      </trkpt>
      <trkpt lat="48.7741730" lon="14.0163310">
        <ele>739.4</ele>
        <time>2019-08-07T07:52:55Z</time>
      </trkpt>
      <trkpt lat="48.7741240" lon="14.0163800">
        <ele>739.4</ele>
        <time>2019-08-07T07:52:56Z</time>
      </trkpt>
      <trkpt lat="48.7740750" lon="14.0164310">
        <ele>739.4</ele>
        <time>2019-08-07T07:52:57Z</time>
      </trkpt>
      <trkpt lat="48.7740260" lon="14.0164800">
        <ele>739.4</ele>
        <time>2019-08-07T07:52:58Z</time>
      </trkpt>
      <trkpt lat="48.7739780" lon="14.0165290">
        <ele>739.4</ele>
        <time>2019-08-07T07:52:59Z</time>
      </trkpt>
      <trkpt lat="48.7739300" lon="14.0165760">
        <ele>739.4</ele>
        <time>2019-08-07T07:53:00Z</time>
      </trkpt>
      <trkpt lat="48.7738830" lon="14.0166260">
        <ele>739.4</ele>
        <time>2019-08-07T07:53:01Z</time>
      </trkpt>
      <trkpt lat="48.7738370" lon="14.0166770">
        <ele>739.6</ele>
        <time>2019-08-07T07:53:02Z</time>
      </trkpt>
      <trkpt lat="48.7737920" lon="14.0167270">
        <ele>739.6</ele>
        <time>2019-08-07T07:53:03Z</time>
      </trkpt>
      <trkpt lat="48.7737460" lon="14.0167760">
        <ele>739.6</ele>
        <time>2019-08-07T07:53:04Z</time>
      </trkpt>
      <trkpt lat="48.7736980" lon="14.0168250">
        <ele>739.6</ele>
        <time>2019-08-07T07:53:05Z</time>
      </trkpt>
      <trkpt lat="48.7736480" lon="14.0168750">
        <ele>739.6</ele>
        <time>2019-08-07T07:53:06Z</time>
      </trkpt>
      <trkpt lat="48.7736010" lon="14.0169260">
        <ele>739.6</ele>
        <time>2019-08-07T07:53:07Z</time>
      </trkpt>
      <trkpt lat="48.7735530" lon="14.0169780">
        <ele>739.6</ele>
        <time>2019-08-07T07:53:08Z</time>
      </trkpt>
      <trkpt lat="48.7735050" lon="14.0170310">
        <ele>739.4</ele>
        <time>2019-08-07T07:53:09Z</time>
      </trkpt>
      <trkpt lat="48.7734570" lon="14.0170820">
        <ele>739.4</ele>
        <time>2019-08-07T07:53:10Z</time>
      </trkpt>
      <trkpt lat="48.7734080" lon="14.0171340">
        <ele>739.4</ele>
        <time>2019-08-07T07:53:11Z</time>
      </trkpt>
      <trkpt lat="48.7733610" lon="14.0171850">
        <ele>739.4</ele>
        <time>2019-08-07T07:53:12Z</time>
      </trkpt>
      <trkpt lat="48.7733120" lon="14.0172390">
        <ele>739.2</ele>
        <time>2019-08-07T07:53:13Z</time>
      </trkpt>
      <trkpt lat="48.7732620" lon="14.0172910">
        <ele>739.2</ele>
        <time>2019-08-07T07:53:14Z</time>
      </trkpt>
      <trkpt lat="48.7732100" lon="14.0173430">
        <ele>739.2</ele>
        <time>2019-08-07T07:53:15Z</time>
      </trkpt>
      <trkpt lat="48.7731610" lon="14.0173950">
        <ele>739.0</ele>
        <time>2019-08-07T07:53:16Z</time>
      </trkpt>
      <trkpt lat="48.7731090" lon="14.0174490">
        <ele>739.0</ele>
        <time>2019-08-07T07:53:17Z</time>
      </trkpt>
      <trkpt lat="48.7730570" lon="14.0175030">
        <ele>739.0</ele>
        <time>2019-08-07T07:53:18Z</time>
      </trkpt>
      <trkpt lat="48.7730060" lon="14.0175570">
        <ele>739.0</ele>
        <time>2019-08-07T07:53:19Z</time>
      </trkpt>
      <trkpt lat="48.7729540" lon="14.0176120">
        <ele>738.8</ele>
        <time>2019-08-07T07:53:20Z</time>
      </trkpt>
      <trkpt lat="48.7729030" lon="14.0176690">
        <ele>738.8</ele>
        <time>2019-08-07T07:53:21Z</time>
      </trkpt>
      <trkpt lat="48.7728490" lon="14.0177270">
        <ele>738.8</ele>
        <time>2019-08-07T07:53:22Z</time>
      </trkpt>
      <trkpt lat="48.7727970" lon="14.0177840">
        <ele>738.6</ele>
        <time>2019-08-07T07:53:23Z</time>
      </trkpt>
      <trkpt lat="48.7727440" lon="14.0178400">
        <ele>738.6</ele>
        <time>2019-08-07T07:53:24Z</time>
      </trkpt>
      <trkpt lat="48.7726910" lon="14.0178990">
        <ele>738.6</ele>
        <time>2019-08-07T07:53:25Z</time>
      </trkpt>
      <trkpt lat="48.7726380" lon="14.0179580">
        <ele>738.6</ele>
        <time>2019-08-07T07:53:26Z</time>
      </trkpt>
      <trkpt lat="48.7725830" lon="14.0180160">
        <ele>738.4</ele>
        <time>2019-08-07T07:53:27Z</time>
      </trkpt>
      <trkpt lat="48.7725290" lon="14.0180710">
        <ele>738.4</ele>
        <time>2019-08-07T07:53:28Z</time>
      </trkpt>
      <trkpt lat="48.7724720" lon="14.0181290">
        <ele>738.2</ele>
        <time>2019-08-07T07:53:29Z</time>
      </trkpt>
      <trkpt lat="48.7724120" lon="14.0181880">
        <ele>738.0</ele>
        <time>2019-08-07T07:53:30Z</time>
      </trkpt>
      <trkpt lat="48.7723550" lon="14.0182440">
        <ele>738.0</ele>
        <time>2019-08-07T07:53:31Z</time>
      </trkpt>
      <trkpt lat="48.7722980" lon="14.0183010">
        <ele>737.8</ele>
        <time>2019-08-07T07:53:32Z</time>
      </trkpt>
      <trkpt lat="48.7722410" lon="14.0183580">
        <ele>737.8</ele>
        <time>2019-08-07T07:53:33Z</time>
      </trkpt>
      <trkpt lat="48.7721850" lon="14.0184140">
        <ele>737.6</ele>
        <time>2019-08-07T07:53:34Z</time>
      </trkpt>
      <trkpt lat="48.7721270" lon="14.0184690">
        <ele>737.6</ele>
        <time>2019-08-07T07:53:35Z</time>
      </trkpt>
      <trkpt lat="48.7720700" lon="14.0185250">
        <ele>737.4</ele>
        <time>2019-08-07T07:53:36Z</time>
      </trkpt>
      <trkpt lat="48.7720130" lon="14.0185820">
        <ele>737.4</ele>
        <time>2019-08-07T07:53:37Z</time>
      </trkpt>
      <trkpt lat="48.7719550" lon="14.0186390">
        <ele>737.4</ele>
        <time>2019-08-07T07:53:38Z</time>
      </trkpt>
      <trkpt lat="48.7718980" lon="14.0186960">
        <ele>737.2</ele>
        <time>2019-08-07T07:53:39Z</time>
      </trkpt>
      <trkpt lat="48.7718450" lon="14.0187500">
        <ele>737.2</ele>
        <time>2019-08-07T07:53:40Z</time>
      </trkpt>
      <trkpt lat="48.7717900" lon="14.0188040">
        <ele>737.2</ele>
        <time>2019-08-07T07:53:41Z</time>
      </trkpt>
      <trkpt lat="48.7717360" lon="14.0188590">
        <ele>737.2</ele>
        <time>2019-08-07T07:53:42Z</time>
      </trkpt>
      <trkpt lat="48.7716830" lon="14.0189140">
        <ele>737.2</ele>
        <time>2019-08-07T07:53:43Z</time>
      </trkpt>
      <trkpt lat="48.7716320" lon="14.0189670">
        <ele>737.2</ele>
        <time>2019-08-07T07:53:44Z</time>
      </trkpt>
      <trkpt lat="48.7715820" lon="14.0190200">
        <ele>737.4</ele>
        <time>2019-08-07T07:53:45Z</time>
      </trkpt>
      <trkpt lat="48.7715320" lon="14.0190690">
        <ele>737.4</ele>
        <time>2019-08-07T07:53:46Z</time>
      </trkpt>
      <trkpt lat="48.7714840" lon="14.0191200">
        <ele>737.6</ele>
        <time>2019-08-07T07:53:47Z</time>
      </trkpt>
      <trkpt lat="48.7714380" lon="14.0191700">
        <ele>737.6</ele>
        <time>2019-08-07T07:53:48Z</time>
      </trkpt>
      <trkpt lat="48.7713930" lon="14.0192200">
        <ele>737.8</ele>
        <time>2019-08-07T07:53:49Z</time>
      </trkpt>
      <trkpt lat="48.7713500" lon="14.0192700">
        <ele>738.0</ele>
        <time>2019-08-07T07:53:50Z</time>
      </trkpt>
      <trkpt lat="48.7713090" lon="14.0193190">
        <ele>738.0</ele>
        <time>2019-08-07T07:53:51Z</time>
      </trkpt>
      <trkpt lat="48.7712680" lon="14.0193640">
        <ele>738.2</ele>
        <time>2019-08-07T07:53:52Z</time>
      </trkpt>
      <trkpt lat="48.7712280" lon="14.0194120">
        <ele>738.4</ele>
        <time>2019-08-07T07:53:53Z</time>
      </trkpt>
      <trkpt lat="48.7711860" lon="14.0194590">
        <ele>738.6</ele>
        <time>2019-08-07T07:53:54Z</time>
      </trkpt>
      <trkpt lat="48.7711470" lon="14.0195060">
        <ele>738.6</ele>
        <time>2019-08-07T07:53:55Z</time>
      </trkpt>
      <trkpt lat="48.7711090" lon="14.0195550">
        <ele>738.8</ele>
        <time>2019-08-07T07:53:56Z</time>
      </trkpt>
      <trkpt lat="48.7710710" lon="14.0196040">
        <ele>739.0</ele>
        <time>2019-08-07T07:53:57Z</time>
      </trkpt>
      <trkpt lat="48.7710320" lon="14.0196480">
        <ele>739.0</ele>
        <time>2019-08-07T07:53:58Z</time>
      </trkpt>
      <trkpt lat="48.7709930" lon="14.0196950">
        <ele>739.2</ele>
        <time>2019-08-07T07:53:59Z</time>
      </trkpt>
      <trkpt lat="48.7709540" lon="14.0197400">
        <ele>739.2</ele>
        <time>2019-08-07T07:54:00Z</time>
      </trkpt>
      <trkpt lat="48.7709140" lon="14.0197850">
        <ele>739.4</ele>
        <time>2019-08-07T07:54:01Z</time>
      </trkpt>
      <trkpt lat="48.7708740" lon="14.0198270">
        <ele>739.6</ele>
        <time>2019-08-07T07:54:02Z</time>
      </trkpt>
      <trkpt lat="48.7708340" lon="14.0198690">
        <ele>739.6</ele>
        <time>2019-08-07T07:54:03Z</time>
      </trkpt>
      <trkpt lat="48.7707930" lon="14.0199130">
        <ele>739.8</ele>
        <time>2019-08-07T07:54:04Z</time>
      </trkpt>
      <trkpt lat="48.7707540" lon="14.0199560">
        <ele>739.8</ele>
        <time>2019-08-07T07:54:05Z</time>
      </trkpt>
      <trkpt lat="48.7707150" lon="14.0200020">
        <ele>739.8</ele>
        <time>2019-08-07T07:54:06Z</time>
      </trkpt>
      <trkpt lat="48.7706760" lon="14.0200490">
        <ele>739.8</ele>
        <time>2019-08-07T07:54:07Z</time>
      </trkpt>
      <trkpt lat="48.7706370" lon="14.0200940">
        <ele>740.0</ele>
        <time>2019-08-07T07:54:08Z</time>
      </trkpt>
      <trkpt lat="48.7705980" lon="14.0201380">
        <ele>740.0</ele>
        <time>2019-08-07T07:54:09Z</time>
      </trkpt>
      <trkpt lat="48.7705580" lon="14.0201800">
        <ele>740.0</ele>
        <time>2019-08-07T07:54:10Z</time>
      </trkpt>
      <trkpt lat="48.7705190" lon="14.0202230">
        <ele>740.0</ele>
        <time>2019-08-07T07:54:11Z</time>
      </trkpt>
      <trkpt lat="48.7704780" lon="14.0202650">
        <ele>740.2</ele>
        <time>2019-08-07T07:54:12Z</time>
      </trkpt>
      <trkpt lat="48.7704380" lon="14.0203070">
        <ele>740.2</ele>
        <time>2019-08-07T07:54:13Z</time>
      </trkpt>
      <trkpt lat="48.7703990" lon="14.0203510">
        <ele>740.2</ele>
        <time>2019-08-07T07:54:14Z</time>
      </trkpt>
      <trkpt lat="48.7703610" lon="14.0203990">
        <ele>740.2</ele>
        <time>2019-08-07T07:54:15Z</time>
      </trkpt>
      <trkpt lat="48.7703220" lon="14.0204470">
        <ele>740.2</ele>
        <time>2019-08-07T07:54:16Z</time>
      </trkpt>
      <trkpt lat="48.7702840" lon="14.0204940">
        <ele>740.2</ele>
        <time>2019-08-07T07:54:17Z</time>
      </trkpt>
      <trkpt lat="48.7702450" lon="14.0205380">
        <ele>740.4</ele>
        <time>2019-08-07T07:54:18Z</time>
      </trkpt>
      <trkpt lat="48.7702030" lon="14.0205790">
        <ele>740.4</ele>
        <time>2019-08-07T07:54:19Z</time>
      </trkpt>
      <trkpt lat="48.7701610" lon="14.0206190">
        <ele>740.4</ele>
        <time>2019-08-07T07:54:20Z</time>
      </trkpt>
      <trkpt lat="48.7701210" lon="14.0206620">
        <ele>740.4</ele>
        <time>2019-08-07T07:54:21Z</time>
      </trkpt>
      <trkpt lat="48.7700810" lon="14.0207040">
        <ele>740.4</ele>
        <time>2019-08-07T07:54:22Z</time>
      </trkpt>
      <trkpt lat="48.7700400" lon="14.0207500">
        <ele>740.4</ele>
        <time>2019-08-07T07:54:23Z</time>
      </trkpt>
      <trkpt lat="48.7700000" lon="14.0207980">
        <ele>740.6</ele>
        <time>2019-08-07T07:54:24Z</time>
      </trkpt>
      <trkpt lat="48.7699600" lon="14.0208470">
        <ele>740.6</ele>
        <time>2019-08-07T07:54:25Z</time>
      </trkpt>
      <trkpt lat="48.7699190" lon="14.0208940">
        <ele>740.6</ele>
        <time>2019-08-07T07:54:26Z</time>
      </trkpt>
      <trkpt lat="48.7698810" lon="14.0209390">
        <ele>740.6</ele>
        <time>2019-08-07T07:54:27Z</time>
      </trkpt>
      <trkpt lat="48.7698420" lon="14.0209870">
        <ele>740.6</ele>
        <time>2019-08-07T07:54:28Z</time>
      </trkpt>
      <trkpt lat="48.7698030" lon="14.0210340">
        <ele>740.8</ele>
        <time>2019-08-07T07:54:29Z</time>
      </trkpt>
      <trkpt lat="48.7697630" lon="14.0210810">
        <ele>740.8</ele>
        <time>2019-08-07T07:54:30Z</time>
      </trkpt>
      <trkpt lat="48.7697230" lon="14.0211270">
        <ele>740.8</ele>
        <time>2019-08-07T07:54:31Z</time>
      </trkpt>
      <trkpt lat="48.7696820" lon="14.0211740">
        <ele>740.6</ele>
        <time>2019-08-07T07:54:32Z</time>
      </trkpt>
      <trkpt lat="48.7696400" lon="14.0212200">
        <ele>740.6</ele>
        <time>2019-08-07T07:54:33Z</time>
      </trkpt>
      <trkpt lat="48.7695950" lon="14.0212650">
        <ele>740.6</ele>
        <time>2019-08-07T07:54:34Z</time>
      </trkpt>
      <trkpt lat="48.7695500" lon="14.0213150">
        <ele>740.6</ele>
        <time>2019-08-07T07:54:35Z</time>
      </trkpt>
      <trkpt lat="48.7695090" lon="14.0213660">
        <ele>740.6</ele>
        <time>2019-08-07T07:54:36Z</time>
      </trkpt>
      <trkpt lat="48.7694680" lon="14.0214180">
        <ele>740.4</ele>
        <time>2019-08-07T07:54:37Z</time>
      </trkpt>
      <trkpt lat="48.7694280" lon="14.0214680">
        <ele>740.4</ele>
        <time>2019-08-07T07:54:38Z</time>
      </trkpt>
      <trkpt lat="48.7693860" lon="14.0215160">
        <ele>740.4</ele>
        <time>2019-08-07T07:54:39Z</time>
      </trkpt>
      <trkpt lat="48.7693450" lon="14.0215610">
        <ele>740.4</ele>
        <time>2019-08-07T07:54:40Z</time>
      </trkpt>
      <trkpt lat="48.7692990" lon="14.0216060">
        <ele>740.4</ele>
        <time>2019-08-07T07:54:41Z</time>
      </trkpt>
      <trkpt lat="48.7692550" lon="14.0216460">
        <ele>740.4</ele>
        <time>2019-08-07T07:54:42Z</time>
      </trkpt>
      <trkpt lat="48.7692100" lon="14.0216860">
        <ele>740.4</ele>
        <time>2019-08-07T07:54:43Z</time>
      </trkpt>
      <trkpt lat="48.7691660" lon="14.0217270">
        <ele>740.4</ele>
        <time>2019-08-07T07:54:44Z</time>
      </trkpt>
      <trkpt lat="48.7691230" lon="14.0217710">
        <ele>740.4</ele>
        <time>2019-08-07T07:54:45Z</time>
      </trkpt>
      <trkpt lat="48.7690800" lon="14.0218170">
        <ele>740.4</ele>
        <time>2019-08-07T07:54:46Z</time>
      </trkpt>
      <trkpt lat="48.7690390" lon="14.0218630">
        <ele>740.4</ele>
        <time>2019-08-07T07:54:47Z</time>
      </trkpt>
      <trkpt lat="48.7689960" lon="14.0219130">
        <ele>740.4</ele>
        <time>2019-08-07T07:54:48Z</time>
      </trkpt>
      <trkpt lat="48.7689540" lon="14.0219630">
        <ele>740.4</ele>
        <time>2019-08-07T07:54:49Z</time>
      </trkpt>
      <trkpt lat="48.7689100" lon="14.0220130">
        <ele>740.4</ele>
        <time>2019-08-07T07:54:50Z</time>
      </trkpt>
      <trkpt lat="48.7688640" lon="14.0220620">
        <ele>740.2</ele>
        <time>2019-08-07T07:54:51Z</time>
      </trkpt>
      <trkpt lat="48.7688160" lon="14.0221080">
        <ele>740.4</ele>
        <time>2019-08-07T07:54:52Z</time>
      </trkpt>
      <trkpt lat="48.7687680" lon="14.0221520">
        <ele>740.2</ele>
        <time>2019-08-07T07:54:53Z</time>
      </trkpt>
      <trkpt lat="48.7687200" lon="14.0221970">
        <ele>740.2</ele>
        <time>2019-08-07T07:54:54Z</time>
      </trkpt>
      <trkpt lat="48.7686710" lon="14.0222440">
        <ele>740.2</ele>
        <time>2019-08-07T07:54:55Z</time>
      </trkpt>
      <trkpt lat="48.7686250" lon="14.0222900">
        <ele>740.2</ele>
        <time>2019-08-07T07:54:56Z</time>
      </trkpt>
      <trkpt lat="48.7685750" lon="14.0223370">
        <ele>740.2</ele>
        <time>2019-08-07T07:54:57Z</time>
      </trkpt>
      <trkpt lat="48.7685260" lon="14.0223810">
        <ele>740.2</ele>
        <time>2019-08-07T07:54:58Z</time>
      </trkpt>
      <trkpt lat="48.7684780" lon="14.0224270">
        <ele>740.2</ele>
        <time>2019-08-07T07:54:59Z</time>
      </trkpt>
      <trkpt lat="48.7684370" lon="14.0224710">
        <ele>740.2</ele>
        <time>2019-08-07T07:55:00Z</time>
      </trkpt>
      <trkpt lat="48.7683860" lon="14.0225270">
        <ele>740.2</ele>
        <time>2019-08-07T07:55:01Z</time>
      </trkpt>
      <trkpt lat="48.7683350" lon="14.0225810">
        <ele>740.2</ele>
        <time>2019-08-07T07:55:02Z</time>
      </trkpt>
      <trkpt lat="48.7682850" lon="14.0226330">
        <ele>740.2</ele>
        <time>2019-08-07T07:55:03Z</time>
      </trkpt>
      <trkpt lat="48.7682350" lon="14.0226830">
        <ele>740.0</ele>
        <time>2019-08-07T07:55:04Z</time>
      </trkpt>
      <trkpt lat="48.7681860" lon="14.0227330">
        <ele>740.0</ele>
        <time>2019-08-07T07:55:05Z</time>
      </trkpt>
      <trkpt lat="48.7681370" lon="14.0227810">
        <ele>740.0</ele>
        <time>2019-08-07T07:55:06Z</time>
      </trkpt>
      <trkpt lat="48.7680880" lon="14.0228290">
        <ele>740.0</ele>
        <time>2019-08-07T07:55:07Z</time>
      </trkpt>
      <trkpt lat="48.7680380" lon="14.0228770">
        <ele>740.0</ele>
        <time>2019-08-07T07:55:08Z</time>
      </trkpt>
      <trkpt lat="48.7679890" lon="14.0229270">
        <ele>740.0</ele>
        <time>2019-08-07T07:55:09Z</time>
      </trkpt>
      <trkpt lat="48.7679420" lon="14.0229760">
        <ele>740.0</ele>
        <time>2019-08-07T07:55:10Z</time>
      </trkpt>
      <trkpt lat="48.7678940" lon="14.0230260">
        <ele>740.0</ele>
        <time>2019-08-07T07:55:11Z</time>
      </trkpt>
      <trkpt lat="48.7678480" lon="14.0230750">
        <ele>740.2</ele>
        <time>2019-08-07T07:55:12Z</time>
      </trkpt>
      <trkpt lat="48.7678020" lon="14.0231240">
        <ele>740.2</ele>
        <time>2019-08-07T07:55:13Z</time>
      </trkpt>
      <trkpt lat="48.7677570" lon="14.0231730">
        <ele>740.2</ele>
        <time>2019-08-07T07:55:14Z</time>
      </trkpt>
      <trkpt lat="48.7677140" lon="14.0232210">
        <ele>740.2</ele>
        <time>2019-08-07T07:55:15Z</time>
      </trkpt>
      <trkpt lat="48.7676680" lon="14.0232660">
        <ele>740.2</ele>
        <time>2019-08-07T07:55:16Z</time>
      </trkpt>
      <trkpt lat="48.7676220" lon="14.0233120">
        <ele>740.2</ele>
        <time>2019-08-07T07:55:17Z</time>
      </trkpt>
      <trkpt lat="48.7675770" lon="14.0233580">
        <ele>740.4</ele>
        <time>2019-08-07T07:55:18Z</time>
      </trkpt>
      <trkpt lat="48.7675310" lon="14.0234040">
        <ele>740.4</ele>
        <time>2019-08-07T07:55:19Z</time>
      </trkpt>
      <trkpt lat="48.7674830" lon="14.0234490">
        <ele>740.4</ele>
        <time>2019-08-07T07:55:20Z</time>
      </trkpt>
      <trkpt lat="48.7674360" lon="14.0234940">
        <ele>740.6</ele>
        <time>2019-08-07T07:55:21Z</time>
      </trkpt>
      <trkpt lat="48.7673900" lon="14.0235400">
        <ele>740.6</ele>
        <time>2019-08-07T07:55:22Z</time>
      </trkpt>
      <trkpt lat="48.7673440" lon="14.0235870">
        <ele>740.8</ele>
        <time>2019-08-07T07:55:23Z</time>
      </trkpt>
      <trkpt lat="48.7672990" lon="14.0236380">
        <ele>740.8</ele>
        <time>2019-08-07T07:55:24Z</time>
      </trkpt>
      <trkpt lat="48.7672550" lon="14.0236900">
        <ele>740.8</ele>
        <time>2019-08-07T07:55:25Z</time>
      </trkpt>
      <trkpt lat="48.7672110" lon="14.0237380">
        <ele>740.8</ele>
        <time>2019-08-07T07:55:26Z</time>
      </trkpt>
      <trkpt lat="48.7671640" lon="14.0237840">
        <ele>741.0</ele>
        <time>2019-08-07T07:55:27Z</time>
      </trkpt>
      <trkpt lat="48.7671150" lon="14.0238260">
        <ele>741.0</ele>
        <time>2019-08-07T07:55:28Z</time>
      </trkpt>
      <trkpt lat="48.7670690" lon="14.0238640">
        <ele>741.0</ele>
        <time>2019-08-07T07:55:29Z</time>
      </trkpt>
      <trkpt lat="48.7670230" lon="14.0239060">
        <ele>741.0</ele>
        <time>2019-08-07T07:55:30Z</time>
      </trkpt>
      <trkpt lat="48.7669770" lon="14.0239490">
        <ele>741.0</ele>
        <time>2019-08-07T07:55:31Z</time>
      </trkpt>
      <trkpt lat="48.7669320" lon="14.0239960">
        <ele>741.0</ele>
        <time>2019-08-07T07:55:32Z</time>
      </trkpt>
      <trkpt lat="48.7668870" lon="14.0240410">
        <ele>741.0</ele>
        <time>2019-08-07T07:55:33Z</time>
      </trkpt>
      <trkpt lat="48.7668420" lon="14.0240850">
        <ele>741.0</ele>
        <time>2019-08-07T07:55:34Z</time>
      </trkpt>
      <trkpt lat="48.7667950" lon="14.0241300">
        <ele>741.0</ele>
        <time>2019-08-07T07:55:35Z</time>
      </trkpt>
      <trkpt lat="48.7667480" lon="14.0241720">
        <ele>741.0</ele>
        <time>2019-08-07T07:55:36Z</time>
      </trkpt>
      <trkpt lat="48.7666980" lon="14.0242100">
        <ele>741.2</ele>
        <time>2019-08-07T07:55:37Z</time>
      </trkpt>
      <trkpt lat="48.7666490" lon="14.0242440">
        <ele>741.2</ele>
        <time>2019-08-07T07:55:38Z</time>
      </trkpt>
      <trkpt lat="48.7665980" lon="14.0242770">
        <ele>741.2</ele>
        <time>2019-08-07T07:55:39Z</time>
      </trkpt>
      <trkpt lat="48.7665450" lon="14.0243110">
        <ele>741.2</ele>
        <time>2019-08-07T07:55:40Z</time>
      </trkpt>
      <trkpt lat="48.7664950" lon="14.0243450">
        <ele>741.2</ele>
        <time>2019-08-07T07:55:41Z</time>
      </trkpt>
      <trkpt lat="48.7664440" lon="14.0243830">
        <ele>741.2</ele>
        <time>2019-08-07T07:55:42Z</time>
      </trkpt>
      <trkpt lat="48.7663940" lon="14.0244200">
        <ele>741.2</ele>
        <time>2019-08-07T07:55:43Z</time>
      </trkpt>
      <trkpt lat="48.7663420" lon="14.0244600">
        <ele>741.2</ele>
        <time>2019-08-07T07:55:44Z</time>
      </trkpt>
      <trkpt lat="48.7662900" lon="14.0245020">
        <ele>741.2</ele>
        <time>2019-08-07T07:55:45Z</time>
      </trkpt>
      <trkpt lat="48.7662400" lon="14.0245470">
        <ele>741.2</ele>
        <time>2019-08-07T07:55:46Z</time>
      </trkpt>
      <trkpt lat="48.7661900" lon="14.0245950">
        <ele>741.2</ele>
        <time>2019-08-07T07:55:47Z</time>
      </trkpt>
      <trkpt lat="48.7661410" lon="14.0246460">
        <ele>741.0</ele>
        <time>2019-08-07T07:55:48Z</time>
      </trkpt>
      <trkpt lat="48.7660910" lon="14.0246960">
        <ele>741.0</ele>
        <time>2019-08-07T07:55:49Z</time>
      </trkpt>
      <trkpt lat="48.7660400" lon="14.0247480">
        <ele>741.0</ele>
        <time>2019-08-07T07:55:50Z</time>
      </trkpt>
      <trkpt lat="48.7659900" lon="14.0247990">
        <ele>741.0</ele>
        <time>2019-08-07T07:55:51Z</time>
      </trkpt>
      <trkpt lat="48.7659400" lon="14.0248520">
        <ele>741.0</ele>
        <time>2019-08-07T07:55:52Z</time>
      </trkpt>
      <trkpt lat="48.7658910" lon="14.0249060">
        <ele>741.0</ele>
        <time>2019-08-07T07:55:53Z</time>
      </trkpt>
      <trkpt lat="48.7658430" lon="14.0249570">
        <ele>740.8</ele>
        <time>2019-08-07T07:55:54Z</time>
      </trkpt>
      <trkpt lat="48.7657960" lon="14.0250070">
        <ele>740.8</ele>
        <time>2019-08-07T07:55:55Z</time>
      </trkpt>
      <trkpt lat="48.7657500" lon="14.0250580">
        <ele>740.8</ele>
        <time>2019-08-07T07:55:56Z</time>
      </trkpt>
      <trkpt lat="48.7657030" lon="14.0251090">
        <ele>740.8</ele>
        <time>2019-08-07T07:55:57Z</time>
      </trkpt>
      <trkpt lat="48.7656590" lon="14.0251610">
        <ele>740.8</ele>
        <time>2019-08-07T07:55:58Z</time>
      </trkpt>
      <trkpt lat="48.7656150" lon="14.0252120">
        <ele>740.8</ele>
        <time>2019-08-07T07:55:59Z</time>
      </trkpt>
      <trkpt lat="48.7655740" lon="14.0252580">
        <ele>740.8</ele>
        <time>2019-08-07T07:56:00Z</time>
      </trkpt>
      <trkpt lat="48.7655290" lon="14.0253080">
        <ele>740.8</ele>
        <time>2019-08-07T07:56:01Z</time>
      </trkpt>
      <trkpt lat="48.7654830" lon="14.0253560">
        <ele>741.0</ele>
        <time>2019-08-07T07:56:02Z</time>
      </trkpt>
      <trkpt lat="48.7654390" lon="14.0253990">
        <ele>741.0</ele>
        <time>2019-08-07T07:56:03Z</time>
      </trkpt>
      <trkpt lat="48.7653940" lon="14.0254390">
        <ele>740.8</ele>
        <time>2019-08-07T07:56:04Z</time>
      </trkpt>
      <trkpt lat="48.7653480" lon="14.0254790">
        <ele>740.8</ele>
        <time>2019-08-07T07:56:05Z</time>
      </trkpt>
      <trkpt lat="48.7653020" lon="14.0255140">
        <ele>740.8</ele>
        <time>2019-08-07T07:56:06Z</time>
      </trkpt>
      <trkpt lat="48.7652530" lon="14.0255330">
        <ele>740.6</ele>
        <time>2019-08-07T07:56:07Z</time>
      </trkpt>
      <trkpt lat="48.7652020" lon="14.0255290">
        <ele>740.6</ele>
        <time>2019-08-07T07:56:08Z</time>
      </trkpt>
      <trkpt lat="48.7651510" lon="14.0255030">
        <ele>740.4</ele>
        <time>2019-08-07T07:56:09Z</time>
      </trkpt>
      <trkpt lat="48.7650980" lon="14.0254530">
        <ele>740.2</ele>
        <time>2019-08-07T07:56:10Z</time>
      </trkpt>
      <trkpt lat="48.7650430" lon="14.0253860">
        <ele>740.0</ele>
        <time>2019-08-07T07:56:11Z</time>
      </trkpt>
      <trkpt lat="48.7649880" lon="14.0253120">
        <ele>739.6</ele>
        <time>2019-08-07T07:56:12Z</time>
      </trkpt>
      <trkpt lat="48.7649320" lon="14.0252300">
        <ele>739.4</ele>
        <time>2019-08-07T07:56:13Z</time>
      </trkpt>
      <trkpt lat="48.7648740" lon="14.0251450">
        <ele>739.2</ele>
        <time>2019-08-07T07:56:14Z</time>
      </trkpt>
      <trkpt lat="48.7648140" lon="14.0250560">
        <ele>738.8</ele>
        <time>2019-08-07T07:56:15Z</time>
      </trkpt>
      <trkpt lat="48.7647530" lon="14.0249660">
        <ele>738.4</ele>
        <time>2019-08-07T07:56:16Z</time>
      </trkpt>
      <trkpt lat="48.7646880" lon="14.0248730">
        <ele>737.8</ele>
        <time>2019-08-07T07:56:17Z</time>
      </trkpt>
      <trkpt lat="48.7646210" lon="14.0247790">
        <ele>737.4</ele>
        <time>2019-08-07T07:56:18Z</time>
      </trkpt>
      <trkpt lat="48.7645530" lon="14.0246830">
        <ele>737.0</ele>
        <time>2019-08-07T07:56:19Z</time>
      </trkpt>
      <trkpt lat="48.7644850" lon="14.0245880">
        <ele>736.4</ele>
        <time>2019-08-07T07:56:20Z</time>
      </trkpt>
      <trkpt lat="48.7644190" lon="14.0244950">
        <ele>735.8</ele>
        <time>2019-08-07T07:56:21Z</time>
      </trkpt>
      <trkpt lat="48.7643540" lon="14.0244010">
        <ele>735.4</ele>
        <time>2019-08-07T07:56:22Z</time>
      </trkpt>
      <trkpt lat="48.7642920" lon="14.0243110">
        <ele>734.8</ele>
        <time>2019-08-07T07:56:23Z</time>
      </trkpt>
      <trkpt lat="48.7642360" lon="14.0242220">
        <ele>734.4</ele>
        <time>2019-08-07T07:56:24Z</time>
      </trkpt>
      <trkpt lat="48.7641850" lon="14.0241380">
        <ele>734.0</ele>
        <time>2019-08-07T07:56:25Z</time>
      </trkpt>
      <trkpt lat="48.7641410" lon="14.0240610">
        <ele>733.6</ele>
        <time>2019-08-07T07:56:26Z</time>
      </trkpt>
      <trkpt lat="48.7641030" lon="14.0239940">
        <ele>733.2</ele>
        <time>2019-08-07T07:56:27Z</time>
      </trkpt>
      <trkpt lat="48.7640620" lon="14.0239480">
        <ele>732.8</ele>
        <time>2019-08-07T07:56:28Z</time>
      </trkpt>
      <trkpt lat="48.7640150" lon="14.0239360">
        <ele>732.6</ele>
        <time>2019-08-07T07:56:29Z</time>
      </trkpt>
      <trkpt lat="48.7639710" lon="14.0239550">
        <ele>732.4</ele>
        <time>2019-08-07T07:56:30Z</time>
      </trkpt>
      <trkpt lat="48.7639310" lon="14.0239940">
        <ele>732.2</ele>
        <time>2019-08-07T07:56:31Z</time>
      </trkpt>
      <trkpt lat="48.7638910" lon="14.0240420">
        <ele>732.0</ele>
        <time>2019-08-07T07:56:32Z</time>
      </trkpt>
      <trkpt lat="48.7638500" lon="14.0240890">
        <ele>731.8</ele>
        <time>2019-08-07T07:56:33Z</time>
      </trkpt>
      <trkpt lat="48.7638070" lon="14.0241370">
        <ele>731.8</ele>
        <time>2019-08-07T07:56:34Z</time>
      </trkpt>
      <trkpt lat="48.7637640" lon="14.0241870">
        <ele>731.6</ele>
        <time>2019-08-07T07:56:35Z</time>
      </trkpt>
      <trkpt lat="48.7637190" lon="14.0242360">
        <ele>731.6</ele>
        <time>2019-08-07T07:56:36Z</time>
      </trkpt>
      <trkpt lat="48.7636730" lon="14.0242880">
        <ele>731.6</ele>
        <time>2019-08-07T07:56:37Z</time>
      </trkpt>
      <trkpt lat="48.7636260" lon="14.0243410">
        <ele>731.6</ele>
        <time>2019-08-07T07:56:38Z</time>
      </trkpt>
      <trkpt lat="48.7635790" lon="14.0243940">
        <ele>731.6</ele>
        <time>2019-08-07T07:56:39Z</time>
      </trkpt>
      <trkpt lat="48.7635340" lon="14.0244490">
        <ele>731.6</ele>
        <time>2019-08-07T07:56:40Z</time>
      </trkpt>
      <trkpt lat="48.7634860" lon="14.0245040">
        <ele>731.6</ele>
        <time>2019-08-07T07:56:41Z</time>
      </trkpt>
      <trkpt lat="48.7634380" lon="14.0245600">
        <ele>731.6</ele>
        <time>2019-08-07T07:56:42Z</time>
      </trkpt>
      <trkpt lat="48.7633910" lon="14.0246140">
        <ele>731.6</ele>
        <time>2019-08-07T07:56:43Z</time>
      </trkpt>
      <trkpt lat="48.7633430" lon="14.0246680">
        <ele>731.6</ele>
        <time>2019-08-07T07:56:44Z</time>
      </trkpt>
      <trkpt lat="48.7632920" lon="14.0247230">
        <ele>731.6</ele>
        <time>2019-08-07T07:56:45Z</time>
      </trkpt>
      <trkpt lat="48.7632420" lon="14.0247770">
        <ele>731.6</ele>
        <time>2019-08-07T07:56:46Z</time>
      </trkpt>
      <trkpt lat="48.7631900" lon="14.0248290">
        <ele>731.6</ele>
        <time>2019-08-07T07:56:47Z</time>
      </trkpt>
      <trkpt lat="48.7631410" lon="14.0248790">
        <ele>731.6</ele>
        <time>2019-08-07T07:56:48Z</time>
      </trkpt>
      <trkpt lat="48.7630880" lon="14.0249280">
        <ele>731.6</ele>
        <time>2019-08-07T07:56:49Z</time>
      </trkpt>
      <trkpt lat="48.7630330" lon="14.0249730">
        <ele>731.6</ele>
        <time>2019-08-07T07:56:50Z</time>
      </trkpt>
      <trkpt lat="48.7629760" lon="14.0250140">
        <ele>731.4</ele>
        <time>2019-08-07T07:56:51Z</time>
      </trkpt>
      <trkpt lat="48.7629200" lon="14.0250530">
        <ele>731.6</ele>
        <time>2019-08-07T07:56:52Z</time>
      </trkpt>
      <trkpt lat="48.7628620" lon="14.0250880">
        <ele>731.6</ele>
        <time>2019-08-07T07:56:53Z</time>
      </trkpt>
      <trkpt lat="48.7628040" lon="14.0251240">
        <ele>731.6</ele>
        <time>2019-08-07T07:56:54Z</time>
      </trkpt>
      <trkpt lat="48.7627450" lon="14.0251560">
        <ele>731.4</ele>
        <time>2019-08-07T07:56:55Z</time>
      </trkpt>
      <trkpt lat="48.7626880" lon="14.0251880">
        <ele>731.4</ele>
        <time>2019-08-07T07:56:56Z</time>
      </trkpt>
      <trkpt lat="48.7626290" lon="14.0252200">
        <ele>731.4</ele>
        <time>2019-08-07T07:56:57Z</time>
      </trkpt>
      <trkpt lat="48.7625700" lon="14.0252480">
        <ele>731.4</ele>
        <time>2019-08-07T07:56:58Z</time>
      </trkpt>
      <trkpt lat="48.7625120" lon="14.0252770">
        <ele>731.4</ele>
        <time>2019-08-07T07:56:59Z</time>
      </trkpt>
      <trkpt lat="48.7624540" lon="14.0253020">
        <ele>731.4</ele>
        <time>2019-08-07T07:57:00Z</time>
      </trkpt>
      <trkpt lat="48.7623950" lon="14.0253220">
        <ele>731.4</ele>
        <time>2019-08-07T07:57:01Z</time>
      </trkpt>
      <trkpt lat="48.7623340" lon="14.0253320">
        <ele>731.4</ele>
        <time>2019-08-07T07:57:02Z</time>
      </trkpt>
      <trkpt lat="48.7622730" lon="14.0253260">
        <ele>731.4</ele>
        <time>2019-08-07T07:57:03Z</time>
      </trkpt>
      <trkpt lat="48.7622140" lon="14.0253090">
        <ele>731.4</ele>
        <time>2019-08-07T07:57:04Z</time>
      </trkpt>
      <trkpt lat="48.7621570" lon="14.0252830">
        <ele>731.4</ele>
        <time>2019-08-07T07:57:05Z</time>
      </trkpt>
      <trkpt lat="48.7621010" lon="14.0252540">
        <ele>731.4</ele>
        <time>2019-08-07T07:57:06Z</time>
      </trkpt>
      <trkpt lat="48.7620470" lon="14.0252190">
        <ele>731.4</ele>
        <time>2019-08-07T07:57:07Z</time>
      </trkpt>
      <trkpt lat="48.7619930" lon="14.0251830">
        <ele>731.4</ele>
        <time>2019-08-07T07:57:08Z</time>
      </trkpt>
      <trkpt lat="48.7619390" lon="14.0251490">
        <ele>731.4</ele>
        <time>2019-08-07T07:57:09Z</time>
      </trkpt>
      <trkpt lat="48.7618860" lon="14.0251160">
        <ele>731.4</ele>
        <time>2019-08-07T07:57:10Z</time>
      </trkpt>
      <trkpt lat="48.7618340" lon="14.0250840">
        <ele>731.6</ele>
        <time>2019-08-07T07:57:11Z</time>
      </trkpt>
      <trkpt lat="48.7617850" lon="14.0250540">
        <ele>731.6</ele>
        <time>2019-08-07T07:57:12Z</time>
      </trkpt>
      <trkpt lat="48.7617380" lon="14.0250250">
        <ele>731.8</ele>
        <time>2019-08-07T07:57:13Z</time>
      </trkpt>
      <trkpt lat="48.7616940" lon="14.0249990">
        <ele>731.8</ele>
        <time>2019-08-07T07:57:14Z</time>
      </trkpt>
      <trkpt lat="48.7616530" lon="14.0249820">
        <ele>732.0</ele>
        <time>2019-08-07T07:57:15Z</time>
      </trkpt>
      <trkpt lat="48.7616140" lon="14.0249770">
        <ele>732.0</ele>
        <time>2019-08-07T07:57:16Z</time>
      </trkpt>
      <trkpt lat="48.7615830" lon="14.0249840">
        <ele>732.2</ele>
        <time>2019-08-07T07:57:17Z</time>
      </trkpt>
      <trkpt lat="48.7615590" lon="14.0250010">
        <ele>732.2</ele>
        <time>2019-08-07T07:57:18Z</time>
      </trkpt>
      <trkpt lat="48.7615410" lon="14.0250270">
        <ele>732.2</ele>
        <time>2019-08-07T07:57:19Z</time>
      </trkpt>
      <trkpt lat="48.7615320" lon="14.0250640">
        <ele>732.2</ele>
        <time>2019-08-07T07:57:20Z</time>
      </trkpt>
      <trkpt lat="48.7615310" lon="14.0251100">
        <ele>732.4</ele>
        <time>2019-08-07T07:57:21Z</time>
      </trkpt>
      <trkpt lat="48.7615350" lon="14.0251640">
        <ele>732.4</ele>
        <time>2019-08-07T07:57:22Z</time>
      </trkpt>
      <trkpt lat="48.7615440" lon="14.0252230">
        <ele>732.4</ele>
        <time>2019-08-07T07:57:23Z</time>
      </trkpt>
      <trkpt lat="48.7615540" lon="14.0252820">
        <ele>732.2</ele>
        <time>2019-08-07T07:57:24Z</time>
      </trkpt>
      <trkpt lat="48.7615670" lon="14.0253450">
        <ele>732.2</ele>
        <time>2019-08-07T07:57:25Z</time>
      </trkpt>
      <trkpt lat="48.7615810" lon="14.0254090">
        <ele>732.2</ele>
        <time>2019-08-07T07:57:26Z</time>
      </trkpt>
      <trkpt lat="48.7615980" lon="14.0254760">
        <ele>732.2</ele>
        <time>2019-08-07T07:57:27Z</time>
      </trkpt>
      <trkpt lat="48.7616140" lon="14.0255430">
        <ele>732.2</ele>
        <time>2019-08-07T07:57:28Z</time>
      </trkpt>
      <trkpt lat="48.7616320" lon="14.0256100">
        <ele>732.2</ele>
        <time>2019-08-07T07:57:29Z</time>
      </trkpt>
      <trkpt lat="48.7616530" lon="14.0256780">
        <ele>732.0</ele>
        <time>2019-08-07T07:57:30Z</time>
      </trkpt>
      <trkpt lat="48.7616740" lon="14.0257440">
        <ele>732.2</ele>
        <time>2019-08-07T07:57:31Z</time>
      </trkpt>
      <trkpt lat="48.7616950" lon="14.0258100">
        <ele>732.2</ele>
        <time>2019-08-07T07:57:32Z</time>
      </trkpt>
      <trkpt lat="48.7617170" lon="14.0258750">
        <ele>732.2</ele>
        <time>2019-08-07T07:57:33Z</time>
      </trkpt>
      <trkpt lat="48.7617380" lon="14.0259370">
        <ele>732.2</ele>
        <time>2019-08-07T07:57:34Z</time>
      </trkpt>
      <trkpt lat="48.7617590" lon="14.0259990">
        <ele>732.2</ele>
        <time>2019-08-07T07:57:35Z</time>
      </trkpt>
      <trkpt lat="48.7617790" lon="14.0260580">
        <ele>732.2</ele>
        <time>2019-08-07T07:57:36Z</time>
      </trkpt>
      <trkpt lat="48.7618000" lon="14.0261150">
        <ele>732.4</ele>
        <time>2019-08-07T07:57:37Z</time>
      </trkpt>
      <trkpt lat="48.7618200" lon="14.0261710">
        <ele>732.4</ele>
        <time>2019-08-07T07:57:38Z</time>
      </trkpt>
      <trkpt lat="48.7618390" lon="14.0262260">
        <ele>732.4</ele>
        <time>2019-08-07T07:57:39Z</time>
      </trkpt>
      <trkpt lat="48.7618570" lon="14.0262790">
        <ele>732.6</ele>
        <time>2019-08-07T07:57:40Z</time>
      </trkpt>
      <trkpt lat="48.7618770" lon="14.0263300">
        <ele>732.8</ele>
        <time>2019-08-07T07:57:41Z</time>
      </trkpt>
      <trkpt lat="48.7618980" lon="14.0263770">
        <ele>732.8</ele>
        <time>2019-08-07T07:57:42Z</time>
      </trkpt>
      <trkpt lat="48.7619170" lon="14.0264240">
        <ele>733.0</ele>
        <time>2019-08-07T07:57:43Z</time>
      </trkpt>
      <trkpt lat="48.7619370" lon="14.0264740">
        <ele>733.0</ele>
        <time>2019-08-07T07:57:44Z</time>
      </trkpt>
      <trkpt lat="48.7619570" lon="14.0265220">
        <ele>733.2</ele>
        <time>2019-08-07T07:57:45Z</time>
      </trkpt>
      <trkpt lat="48.7619760" lon="14.0265720">
        <ele>733.4</ele>
        <time>2019-08-07T07:57:46Z</time>
      </trkpt>
      <trkpt lat="48.7619950" lon="14.0266190">
        <ele>733.4</ele>
        <time>2019-08-07T07:57:47Z</time>
      </trkpt>
      <trkpt lat="48.7620140" lon="14.0266660">
        <ele>733.6</ele>
        <time>2019-08-07T07:57:48Z</time>
      </trkpt>
      <trkpt lat="48.7620310" lon="14.0267090">
        <ele>733.6</ele>
        <time>2019-08-07T07:57:49Z</time>
      </trkpt>
      <trkpt lat="48.7620450" lon="14.0267560">
        <ele>733.8</ele>
        <time>2019-08-07T07:57:50Z</time>
      </trkpt>
      <trkpt lat="48.7620560" lon="14.0268050">
        <ele>733.8</ele>
        <time>2019-08-07T07:57:51Z</time>
      </trkpt>
      <trkpt lat="48.7620650" lon="14.0268540">
        <ele>734.0</ele>
        <time>2019-08-07T07:57:52Z</time>
      </trkpt>
      <trkpt lat="48.7620680" lon="14.0269020">
        <ele>734.0</ele>
        <time>2019-08-07T07:57:53Z</time>
      </trkpt>
      <trkpt lat="48.7620630" lon="14.0269480">
        <ele>734.2</ele>
        <time>2019-08-07T07:57:54Z</time>
      </trkpt>
      <trkpt lat="48.7620570" lon="14.0269900">
        <ele>734.2</ele>
        <time>2019-08-07T07:57:55Z</time>
      </trkpt>
      <trkpt lat="48.7620510" lon="14.0270290">
        <ele>734.4</ele>
        <time>2019-08-07T07:57:56Z</time>
      </trkpt>
      <trkpt lat="48.7620450" lon="14.0270700">
        <ele>734.4</ele>
        <time>2019-08-07T07:57:57Z</time>
      </trkpt>
      <trkpt lat="48.7620320" lon="14.0271120">
        <ele>734.4</ele>
        <time>2019-08-07T07:57:58Z</time>
      </trkpt>
      <trkpt lat="48.7620120" lon="14.0271510">
        <ele>734.4</ele>
        <time>2019-08-07T07:57:59Z</time>
      </trkpt>
      <trkpt lat="48.7619890" lon="14.0271860">
        <ele>734.6</ele>
        <time>2019-08-07T07:58:00Z</time>
      </trkpt>
      <trkpt lat="48.7619630" lon="14.0272210">
        <ele>734.6</ele>
        <time>2019-08-07T07:58:01Z</time>
      </trkpt>
      <trkpt lat="48.7619370" lon="14.0272560">
        <ele>734.6</ele>
        <time>2019-08-07T07:58:02Z</time>
      </trkpt>
      <trkpt lat="48.7619100" lon="14.0272890">
        <ele>734.6</ele>
        <time>2019-08-07T07:58:03Z</time>
      </trkpt>
      <trkpt lat="48.7618830" lon="14.0273230">
        <ele>734.8</ele>
        <time>2019-08-07T07:58:04Z</time>
      </trkpt>
      <trkpt lat="48.7618560" lon="14.0273600">
        <ele>734.8</ele>
        <time>2019-08-07T07:58:05Z</time>
      </trkpt>
      <trkpt lat="48.7618310" lon="14.0273980">
        <ele>734.8</ele>
        <time>2019-08-07T07:58:06Z</time>
      </trkpt>
      <trkpt lat="48.7618070" lon="14.0274350">
        <ele>734.8</ele>
        <time>2019-08-07T07:58:07Z</time>
      </trkpt>
      <trkpt lat="48.7617840" lon="14.0274740">
        <ele>735.0</ele>
        <time>2019-08-07T07:58:08Z</time>
      </trkpt>
      <trkpt lat="48.7617610" lon="14.0275160">
        <ele>735.0</ele>
        <time>2019-08-07T07:58:09Z</time>
      </trkpt>
      <trkpt lat="48.7617390" lon="14.0275570">
        <ele>735.0</ele>
        <time>2019-08-07T07:58:10Z</time>
      </trkpt>
      <trkpt lat="48.7617140" lon="14.0275960">
        <ele>735.2</ele>
        <time>2019-08-07T07:58:11Z</time>
      </trkpt>
      <trkpt lat="48.7616900" lon="14.0276330">
        <ele>735.2</ele>
        <time>2019-08-07T07:58:12Z</time>
      </trkpt>
      <trkpt lat="48.7616660" lon="14.0276710">
        <ele>735.2</ele>
        <time>2019-08-07T07:58:13Z</time>
      </trkpt>
      <trkpt lat="48.7616450" lon="14.0277120">
        <ele>735.4</ele>
        <time>2019-08-07T07:58:14Z</time>
      </trkpt>
      <trkpt lat="48.7616250" lon="14.0277570">
        <ele>735.4</ele>
        <time>2019-08-07T07:58:15Z</time>
      </trkpt>
      <trkpt lat="48.7616090" lon="14.0278060">
        <ele>735.4</ele>
        <time>2019-08-07T07:58:16Z</time>
      </trkpt>
      <trkpt lat="48.7615940" lon="14.0278570">
        <ele>735.4</ele>
        <time>2019-08-07T07:58:17Z</time>
      </trkpt>
      <trkpt lat="48.7615810" lon="14.0279080">
        <ele>735.6</ele>
        <time>2019-08-07T07:58:18Z</time>
      </trkpt>
      <trkpt lat="48.7615720" lon="14.0279600">
        <ele>735.6</ele>
        <time>2019-08-07T07:58:19Z</time>
      </trkpt>
      <trkpt lat="48.7615640" lon="14.0280150">
        <ele>735.6</ele>
        <time>2019-08-07T07:58:20Z</time>
      </trkpt>
      <trkpt lat="48.7615550" lon="14.0280730">
        <ele>735.8</ele>
        <time>2019-08-07T07:58:21Z</time>
      </trkpt>
      <trkpt lat="48.7615480" lon="14.0281300">
        <ele>735.8</ele>
        <time>2019-08-07T07:58:22Z</time>
      </trkpt>
      <trkpt lat="48.7615420" lon="14.0281840">
        <ele>735.8</ele>
        <time>2019-08-07T07:58:23Z</time>
      </trkpt>
      <trkpt lat="48.7615360" lon="14.0282380">
        <ele>736.0</ele>
        <time>2019-08-07T07:58:24Z</time>
      </trkpt>
      <trkpt lat="48.7615300" lon="14.0282940">
        <ele>736.0</ele>
        <time>2019-08-07T07:58:25Z</time>
      </trkpt>
      <trkpt lat="48.7615240" lon="14.0283490">
        <ele>736.2</ele>
        <time>2019-08-07T07:58:26Z</time>
      </trkpt>
      <trkpt lat="48.7615220" lon="14.0284020">
        <ele>736.2</ele>
        <time>2019-08-07T07:58:27Z</time>
      </trkpt>
      <trkpt lat="48.7615180" lon="14.0284570">
        <ele>736.2</ele>
        <time>2019-08-07T07:58:28Z</time>
      </trkpt>
      <trkpt lat="48.7615090" lon="14.0285130">
        <ele>736.2</ele>
        <time>2019-08-07T07:58:29Z</time>
      </trkpt>
      <trkpt lat="48.7615000" lon="14.0285650">
        <ele>736.4</ele>
        <time>2019-08-07T07:58:30Z</time>
      </trkpt>
      <trkpt lat="48.7614890" lon="14.0286190">
        <ele>736.4</ele>
        <time>2019-08-07T07:58:31Z</time>
      </trkpt>
      <trkpt lat="48.7614820" lon="14.0286740">
        <ele>736.4</ele>
        <time>2019-08-07T07:58:32Z</time>
      </trkpt>
      <trkpt lat="48.7614740" lon="14.0287280">
        <ele>736.4</ele>
        <time>2019-08-07T07:58:33Z</time>
      </trkpt>
      <trkpt lat="48.7614650" lon="14.0287830">
        <ele>736.6</ele>
        <time>2019-08-07T07:58:34Z</time>
      </trkpt>
      <trkpt lat="48.7614580" lon="14.0288390">
        <ele>736.6</ele>
        <time>2019-08-07T07:58:35Z</time>
      </trkpt>
      <trkpt lat="48.7614520" lon="14.0288950">
        <ele>736.6</ele>
        <time>2019-08-07T07:58:36Z</time>
      </trkpt>
      <trkpt lat="48.7614460" lon="14.0289520">
        <ele>736.8</ele>
        <time>2019-08-07T07:58:37Z</time>
      </trkpt>
      <trkpt lat="48.7614400" lon="14.0290110">
        <ele>736.8</ele>
        <time>2019-08-07T07:58:38Z</time>
      </trkpt>
      <trkpt lat="48.7614350" lon="14.0290700">
        <ele>736.8</ele>
        <time>2019-08-07T07:58:39Z</time>
      </trkpt>
      <trkpt lat="48.7614300" lon="14.0291260">
        <ele>736.8</ele>
        <time>2019-08-07T07:58:40Z</time>
      </trkpt>
      <trkpt lat="48.7614230" lon="14.0291840">
        <ele>737.0</ele>
        <time>2019-08-07T07:58:41Z</time>
      </trkpt>
      <trkpt lat="48.7614180" lon="14.0292410">
        <ele>737.0</ele>
        <time>2019-08-07T07:58:42Z</time>
      </trkpt>
      <trkpt lat="48.7614130" lon="14.0292950">
        <ele>737.0</ele>
        <time>2019-08-07T07:58:43Z</time>
      </trkpt>
      <trkpt lat="48.7614080" lon="14.0293530">
        <ele>737.0</ele>
        <time>2019-08-07T07:58:44Z</time>
      </trkpt>
      <trkpt lat="48.7613990" lon="14.0294120">
        <ele>737.2</ele>
        <time>2019-08-07T07:58:45Z</time>
      </trkpt>
      <trkpt lat="48.7613890" lon="14.0294720">
        <ele>737.2</ele>
        <time>2019-08-07T07:58:46Z</time>
      </trkpt>
      <trkpt lat="48.7613790" lon="14.0295310">
        <ele>737.2</ele>
        <time>2019-08-07T07:58:47Z</time>
      </trkpt>
      <trkpt lat="48.7613680" lon="14.0295900">
        <ele>737.2</ele>
        <time>2019-08-07T07:58:48Z</time>
      </trkpt>
      <trkpt lat="48.7613560" lon="14.0296470">
        <ele>737.2</ele>
        <time>2019-08-07T07:58:49Z</time>
      </trkpt>
      <trkpt lat="48.7613410" lon="14.0297030">
        <ele>737.4</ele>
        <time>2019-08-07T07:58:50Z</time>
      </trkpt>
      <trkpt lat="48.7613190" lon="14.0297560">
        <ele>737.4</ele>
        <time>2019-08-07T07:58:51Z</time>
      </trkpt>
      <trkpt lat="48.7612900" lon="14.0298030">
        <ele>737.4</ele>
        <time>2019-08-07T07:58:52Z</time>
      </trkpt>
      <trkpt lat="48.7612540" lon="14.0298390">
        <ele>737.4</ele>
        <time>2019-08-07T07:58:53Z</time>
      </trkpt>
      <trkpt lat="48.7612120" lon="14.0298620">
        <ele>737.4</ele>
        <time>2019-08-07T07:58:54Z</time>
      </trkpt>
      <trkpt lat="48.7611660" lon="14.0298740">
        <ele>737.4</ele>
        <time>2019-08-07T07:58:55Z</time>
      </trkpt>
      <trkpt lat="48.7611190" lon="14.0298790">
        <ele>737.2</ele>
        <time>2019-08-07T07:58:56Z</time>
      </trkpt>
      <trkpt lat="48.7610690" lon="14.0298790">
        <ele>737.2</ele>
        <time>2019-08-07T07:58:57Z</time>
      </trkpt>
      <trkpt lat="48.7610180" lon="14.0298730">
        <ele>737.2</ele>
        <time>2019-08-07T07:58:58Z</time>
      </trkpt>
      <trkpt lat="48.7609660" lon="14.0298670">
        <ele>737.0</ele>
        <time>2019-08-07T07:58:59Z</time>
      </trkpt>
      <trkpt lat="48.7609130" lon="14.0298610">
        <ele>737.0</ele>
        <time>2019-08-07T07:59:00Z</time>
      </trkpt>
      <trkpt lat="48.7608590" lon="14.0298570">
        <ele>737.0</ele>
        <time>2019-08-07T07:59:01Z</time>
      </trkpt>
      <trkpt lat="48.7608060" lon="14.0298550">
        <ele>736.8</ele>
        <time>2019-08-07T07:59:02Z</time>
      </trkpt>
      <trkpt lat="48.7607530" lon="14.0298530">
        <ele>736.8</ele>
        <time>2019-08-07T07:59:03Z</time>
      </trkpt>
      <trkpt lat="48.7606980" lon="14.0298470">
        <ele>736.6</ele>
        <time>2019-08-07T07:59:04Z</time>
      </trkpt>
      <trkpt lat="48.7606450" lon="14.0298460">
        <ele>736.6</ele>
        <time>2019-08-07T07:59:05Z</time>
      </trkpt>
      <trkpt lat="48.7605910" lon="14.0298590">
        <ele>736.4</ele>
        <time>2019-08-07T07:59:06Z</time>
      </trkpt>
      <trkpt lat="48.7605490" lon="14.0298950">
        <ele>736.4</ele>
        <time>2019-08-07T07:59:07Z</time>
      </trkpt>
      <trkpt lat="48.7605200" lon="14.0299530">
        <ele>736.2</ele>
        <time>2019-08-07T07:59:08Z</time>
      </trkpt>
      <trkpt lat="48.7605040" lon="14.0300250">
        <ele>736.2</ele>
        <time>2019-08-07T07:59:09Z</time>
      </trkpt>
      <trkpt lat="48.7604970" lon="14.0301030">
        <ele>736.0</ele>
        <time>2019-08-07T07:59:10Z</time>
      </trkpt>
      <trkpt lat="48.7604940" lon="14.0301820">
        <ele>736.0</ele>
        <time>2019-08-07T07:59:11Z</time>
      </trkpt>
      <trkpt lat="48.7604910" lon="14.0302600">
        <ele>736.0</ele>
        <time>2019-08-07T07:59:12Z</time>
      </trkpt>
      <trkpt lat="48.7604890" lon="14.0303380">
        <ele>736.0</ele>
        <time>2019-08-07T07:59:13Z</time>
      </trkpt>
      <trkpt lat="48.7604870" lon="14.0304170">
        <ele>736.0</ele>
        <time>2019-08-07T07:59:14Z</time>
      </trkpt>
      <trkpt lat="48.7604900" lon="14.0304950">
        <ele>736.2</ele>
        <time>2019-08-07T07:59:15Z</time>
      </trkpt>
      <trkpt lat="48.7604990" lon="14.0305690">
        <ele>736.2</ele>
        <time>2019-08-07T07:59:16Z</time>
      </trkpt>
      <trkpt lat="48.7605190" lon="14.0306380">
        <ele>736.4</ele>
        <time>2019-08-07T07:59:17Z</time>
      </trkpt>
      <trkpt lat="48.7605490" lon="14.0306900">
        <ele>736.4</ele>
        <time>2019-08-07T07:59:18Z</time>
      </trkpt>
      <trkpt lat="48.7605870" lon="14.0307170">
        <ele>736.4</ele>
        <time>2019-08-07T07:59:19Z</time>
      </trkpt>
      <trkpt lat="48.7606300" lon="14.0307310">
        <ele>736.6</ele>
        <time>2019-08-07T07:59:20Z</time>
      </trkpt>
      <trkpt lat="48.7606730" lon="14.0307330">
        <ele>736.6</ele>
        <time>2019-08-07T07:59:21Z</time>
      </trkpt>
      <trkpt lat="48.7607180" lon="14.0307350">
        <ele>736.8</ele>
        <time>2019-08-07T07:59:22Z</time>
      </trkpt>
      <trkpt lat="48.7607610" lon="14.0307350">
        <ele>736.8</ele>
        <time>2019-08-07T07:59:23Z</time>
      </trkpt>
      <trkpt lat="48.7608050" lon="14.0307350">
        <ele>737.0</ele>
        <time>2019-08-07T07:59:24Z</time>
      </trkpt>
      <trkpt lat="48.7608470" lon="14.0307390">
        <ele>737.0</ele>
        <time>2019-08-07T07:59:25Z</time>
      </trkpt>
      <trkpt lat="48.7608900" lon="14.0307450">
        <ele>737.2</ele>
        <time>2019-08-07T07:59:26Z</time>
      </trkpt>
      <trkpt lat="48.7609330" lon="14.0307490">
        <ele>737.2</ele>
        <time>2019-08-07T07:59:27Z</time>
      </trkpt>
      <trkpt lat="48.7609750" lon="14.0307550">
        <ele>737.2</ele>
        <time>2019-08-07T07:59:28Z</time>
      </trkpt>
      <trkpt lat="48.7610160" lon="14.0307630">
        <ele>737.4</ele>
        <time>2019-08-07T07:59:29Z</time>
      </trkpt>
      <trkpt lat="48.7610520" lon="14.0307850">
        <ele>737.4</ele>
        <time>2019-08-07T07:59:30Z</time>
      </trkpt>
      <trkpt lat="48.7610800" lon="14.0308260">
        <ele>737.6</ele>
        <time>2019-08-07T07:59:31Z</time>
      </trkpt>
      <trkpt lat="48.7610940" lon="14.0308800">
        <ele>737.8</ele>
        <time>2019-08-07T07:59:32Z</time>
      </trkpt>
      <trkpt lat="48.7610980" lon="14.0309380">
        <ele>737.8</ele>
        <time>2019-08-07T07:59:33Z</time>
      </trkpt>
      <trkpt lat="48.7610960" lon="14.0310000">
        <ele>737.8</ele>
        <time>2019-08-07T07:59:34Z</time>
      </trkpt>
      <trkpt lat="48.7610910" lon="14.0310660">
        <ele>737.8</ele>
        <time>2019-08-07T07:59:35Z</time>
      </trkpt>
      <trkpt lat="48.7610820" lon="14.0311330">
        <ele>737.8</ele>
        <time>2019-08-07T07:59:36Z</time>
      </trkpt>
      <trkpt lat="48.7610710" lon="14.0312020">
        <ele>737.8</ele>
        <time>2019-08-07T07:59:37Z</time>
      </trkpt>
      <trkpt lat="48.7610580" lon="14.0312720">
        <ele>737.8</ele>
        <time>2019-08-07T07:59:38Z</time>
      </trkpt>
      <trkpt lat="48.7610460" lon="14.0313430">
        <ele>737.8</ele>
        <time>2019-08-07T07:59:39Z</time>
      </trkpt>
      <trkpt lat="48.7610330" lon="14.0314140">
        <ele>737.8</ele>
        <time>2019-08-07T07:59:40Z</time>
      </trkpt>
      <trkpt lat="48.7610170" lon="14.0314870">
        <ele>737.8</ele>
        <time>2019-08-07T07:59:41Z</time>
      </trkpt>
      <trkpt lat="48.7610030" lon="14.0315580">
        <ele>737.8</ele>
        <time>2019-08-07T07:59:42Z</time>
      </trkpt>
      <trkpt lat="48.7609900" lon="14.0316260">
        <ele>738.0</ele>
        <time>2019-08-07T07:59:43Z</time>
      </trkpt>
      <trkpt lat="48.7609770" lon="14.0316880">
        <ele>738.0</ele>
        <time>2019-08-07T07:59:44Z</time>
      </trkpt>
      <trkpt lat="48.7609660" lon="14.0317470">
        <ele>738.2</ele>
        <time>2019-08-07T07:59:45Z</time>
      </trkpt>
      <trkpt lat="48.7609560" lon="14.0317980">
        <ele>738.4</ele>
        <time>2019-08-07T07:59:46Z</time>
      </trkpt>
      <trkpt lat="48.7609470" lon="14.0318460">
        <ele>738.6</ele>
        <time>2019-08-07T07:59:47Z</time>
      </trkpt>
      <trkpt lat="48.7609360" lon="14.0318880">
        <ele>738.8</ele>
        <time>2019-08-07T07:59:48Z</time>
      </trkpt>
      <trkpt lat="48.7609240" lon="14.0319320">
        <ele>739.0</ele>
        <time>2019-08-07T07:59:49Z</time>
      </trkpt>
      <trkpt lat="48.7609100" lon="14.0319740">
        <ele>739.2</ele>
        <time>2019-08-07T07:59:50Z</time>
      </trkpt>
      <trkpt lat="48.7608970" lon="14.0320140">
        <ele>739.4</ele>
        <time>2019-08-07T07:59:51Z</time>
      </trkpt>
      <trkpt lat="48.7608830" lon="14.0320550">
        <ele>739.6</ele>
        <time>2019-08-07T07:59:52Z</time>
      </trkpt>
      <trkpt lat="48.7608710" lon="14.0320970">
        <ele>740.0</ele>
        <time>2019-08-07T07:59:53Z</time>
      </trkpt>
      <trkpt lat="48.7608590" lon="14.0321370">
        <ele>740.2</ele>
        <time>2019-08-07T07:59:54Z</time>
      </trkpt>
      <trkpt lat="48.7608490" lon="14.0321750">
        <ele>740.4</ele>
        <time>2019-08-07T07:59:55Z</time>
      </trkpt>
      <trkpt lat="48.7608400" lon="14.0322120">
        <ele>740.8</ele>
        <time>2019-08-07T07:59:56Z</time>
      </trkpt>
      <trkpt lat="48.7608280" lon="14.0322450">
        <ele>741.0</ele>
        <time>2019-08-07T07:59:57Z</time>
      </trkpt>
      <trkpt lat="48.7608160" lon="14.0322730">
        <ele>741.2</ele>
        <time>2019-08-07T07:59:58Z</time>
      </trkpt>
      <trkpt lat="48.7608020" lon="14.0323040">
        <ele>741.4</ele>
        <time>2019-08-07T07:59:59Z</time>
      </trkpt>
      <trkpt lat="48.7607890" lon="14.0323330">
        <ele>741.8</ele>
        <time>2019-08-07T08:00:00Z</time>
      </trkpt>
      <trkpt lat="48.7607730" lon="14.0323600">
        <ele>741.8</ele>
        <time>2019-08-07T08:00:01Z</time>
      </trkpt>
      <trkpt lat="48.7607550" lon="14.0323880">
        <ele>742.0</ele>
        <time>2019-08-07T08:00:02Z</time>
      </trkpt>
      <trkpt lat="48.7607360" lon="14.0324200">
        <ele>742.2</ele>
        <time>2019-08-07T08:00:03Z</time>
      </trkpt>
      <trkpt lat="48.7607190" lon="14.0324560">
        <ele>742.2</ele>
        <time>2019-08-07T08:00:04Z</time>
      </trkpt>
      <trkpt lat="48.7607010" lon="14.0324920">
        <ele>742.2</ele>
        <time>2019-08-07T08:00:05Z</time>
      </trkpt>
      <trkpt lat="48.7606800" lon="14.0325260">
        <ele>742.4</ele>
        <time>2019-08-07T08:00:06Z</time>
      </trkpt>
      <trkpt lat="48.7606590" lon="14.0325650">
        <ele>742.4</ele>
        <time>2019-08-07T08:00:07Z</time>
      </trkpt>
      <trkpt lat="48.7606330" lon="14.0326040">
        <ele>742.4</ele>
        <time>2019-08-07T08:00:08Z</time>
      </trkpt>
      <trkpt lat="48.7606060" lon="14.0326410">
        <ele>742.4</ele>
        <time>2019-08-07T08:00:09Z</time>
      </trkpt>
      <trkpt lat="48.7605780" lon="14.0326780">
        <ele>742.4</ele>
        <time>2019-08-07T08:00:10Z</time>
      </trkpt>
      <trkpt lat="48.7605470" lon="14.0327170">
        <ele>742.4</ele>
        <time>2019-08-07T08:00:11Z</time>
      </trkpt>
      <trkpt lat="48.7605160" lon="14.0327560">
        <ele>742.4</ele>
        <time>2019-08-07T08:00:12Z</time>
      </trkpt>
      <trkpt lat="48.7604840" lon="14.0327950">
        <ele>742.4</ele>
        <time>2019-08-07T08:00:13Z</time>
      </trkpt>
      <trkpt lat="48.7604500" lon="14.0328340">
        <ele>742.4</ele>
        <time>2019-08-07T08:00:14Z</time>
      </trkpt>
      <trkpt lat="48.7604120" lon="14.0328710">
        <ele>742.4</ele>
        <time>2019-08-07T08:00:15Z</time>
      </trkpt>
      <trkpt lat="48.7603740" lon="14.0329090">
        <ele>742.4</ele>
        <time>2019-08-07T08:00:16Z</time>
      </trkpt>
      <trkpt lat="48.7603360" lon="14.0329450">
        <ele>742.4</ele>
        <time>2019-08-07T08:00:17Z</time>
      </trkpt>
      <trkpt lat="48.7602950" lon="14.0329800">
        <ele>742.4</ele>
        <time>2019-08-07T08:00:18Z</time>
      </trkpt>
      <trkpt lat="48.7602520" lon="14.0330110">
        <ele>742.4</ele>
        <time>2019-08-07T08:00:19Z</time>
      </trkpt>
      <trkpt lat="48.7602070" lon="14.0330440">
        <ele>742.4</ele>
        <time>2019-08-07T08:00:20Z</time>
      </trkpt>
      <trkpt lat="48.7601630" lon="14.0330770">
        <ele>742.4</ele>
        <time>2019-08-07T08:00:21Z</time>
      </trkpt>
      <trkpt lat="48.7601200" lon="14.0331060">
        <ele>742.4</ele>
        <time>2019-08-07T08:00:22Z</time>
      </trkpt>
      <trkpt lat="48.7600730" lon="14.0331350">
        <ele>742.4</ele>
        <time>2019-08-07T08:00:23Z</time>
      </trkpt>
      <trkpt lat="48.7600260" lon="14.0331610">
        <ele>742.2</ele>
        <time>2019-08-07T08:00:24Z</time>
      </trkpt>
      <trkpt lat="48.7599780" lon="14.0331880">
        <ele>742.2</ele>
        <time>2019-08-07T08:00:25Z</time>
      </trkpt>
      <trkpt lat="48.7599300" lon="14.0332170">
        <ele>742.2</ele>
        <time>2019-08-07T08:00:26Z</time>
      </trkpt>
      <trkpt lat="48.7598810" lon="14.0332490">
        <ele>742.2</ele>
        <time>2019-08-07T08:00:27Z</time>
      </trkpt>
      <trkpt lat="48.7598300" lon="14.0332810">
        <ele>742.2</ele>
        <time>2019-08-07T08:00:28Z</time>
      </trkpt>
      <trkpt lat="48.7597810" lon="14.0333120">
        <ele>742.2</ele>
        <time>2019-08-07T08:00:29Z</time>
      </trkpt>
      <trkpt lat="48.7597330" lon="14.0333440">
        <ele>742.2</ele>
        <time>2019-08-07T08:00:30Z</time>
      </trkpt>
      <trkpt lat="48.7596860" lon="14.0333730">
        <ele>742.4</ele>
        <time>2019-08-07T08:00:31Z</time>
      </trkpt>
      <trkpt lat="48.7596420" lon="14.0334000">
        <ele>742.4</ele>
        <time>2019-08-07T08:00:32Z</time>
      </trkpt>
      <trkpt lat="48.7595970" lon="14.0334280">
        <ele>742.4</ele>
        <time>2019-08-07T08:00:33Z</time>
      </trkpt>
      <trkpt lat="48.7595520" lon="14.0334590">
        <ele>742.4</ele>
        <time>2019-08-07T08:00:34Z</time>
      </trkpt>
      <trkpt lat="48.7595070" lon="14.0334880">
        <ele>742.6</ele>
        <time>2019-08-07T08:00:35Z</time>
      </trkpt>
      <trkpt lat="48.7594620" lon="14.0335160">
        <ele>742.6</ele>
        <time>2019-08-07T08:00:36Z</time>
      </trkpt>
      <trkpt lat="48.7594140" lon="14.0335450">
        <ele>742.6</ele>
        <time>2019-08-07T08:00:37Z</time>
      </trkpt>
      <trkpt lat="48.7593680" lon="14.0335710">
        <ele>742.6</ele>
        <time>2019-08-07T08:00:38Z</time>
      </trkpt>
      <trkpt lat="48.7593210" lon="14.0335970">
        <ele>742.8</ele>
        <time>2019-08-07T08:00:39Z</time>
      </trkpt>
      <trkpt lat="48.7592730" lon="14.0336250">
        <ele>742.8</ele>
        <time>2019-08-07T08:00:40Z</time>
      </trkpt>
      <trkpt lat="48.7592260" lon="14.0336520">
        <ele>742.8</ele>
        <time>2019-08-07T08:00:41Z</time>
      </trkpt>
      <trkpt lat="48.7591800" lon="14.0336770">
        <ele>742.8</ele>
        <time>2019-08-07T08:00:42Z</time>
      </trkpt>
      <trkpt lat="48.7591330" lon="14.0337010">
        <ele>742.8</ele>
        <time>2019-08-07T08:00:43Z</time>
      </trkpt>
      <trkpt lat="48.7590880" lon="14.0337240">
        <ele>742.8</ele>
        <time>2019-08-07T08:00:44Z</time>
      </trkpt>
      <trkpt lat="48.7590420" lon="14.0337490">
        <ele>742.8</ele>
        <time>2019-08-07T08:00:45Z</time>
      </trkpt>
      <trkpt lat="48.7589970" lon="14.0337740">
        <ele>742.8</ele>
        <time>2019-08-07T08:00:46Z</time>
      </trkpt>
      <trkpt lat="48.7589540" lon="14.0338000">
        <ele>742.8</ele>
        <time>2019-08-07T08:00:47Z</time>
      </trkpt>
      <trkpt lat="48.7589120" lon="14.0338280">
        <ele>742.8</ele>
        <time>2019-08-07T08:00:48Z</time>
      </trkpt>
      <trkpt lat="48.7588690" lon="14.0338550">
        <ele>742.8</ele>
        <time>2019-08-07T08:00:49Z</time>
      </trkpt>
      <trkpt lat="48.7588240" lon="14.0338810">
        <ele>742.6</ele>
        <time>2019-08-07T08:00:50Z</time>
      </trkpt>
      <trkpt lat="48.7587820" lon="14.0339030">
        <ele>742.6</ele>
        <time>2019-08-07T08:00:51Z</time>
      </trkpt>
      <trkpt lat="48.7587340" lon="14.0339230">
        <ele>742.6</ele>
        <time>2019-08-07T08:00:52Z</time>
      </trkpt>
      <trkpt lat="48.7586860" lon="14.0339420">
        <ele>742.6</ele>
        <time>2019-08-07T08:00:53Z</time>
      </trkpt>
      <trkpt lat="48.7586380" lon="14.0339590">
        <ele>742.4</ele>
        <time>2019-08-07T08:00:54Z</time>
      </trkpt>
      <trkpt lat="48.7585880" lon="14.0339720">
        <ele>742.4</ele>
        <time>2019-08-07T08:00:55Z</time>
      </trkpt>
      <trkpt lat="48.7585370" lon="14.0339810">
        <ele>742.2</ele>
        <time>2019-08-07T08:00:56Z</time>
      </trkpt>
      <trkpt lat="48.7584900" lon="14.0339860">
        <ele>742.2</ele>
        <time>2019-08-07T08:00:57Z</time>
      </trkpt>
      <trkpt lat="48.7584470" lon="14.0339880">
        <ele>742.0</ele>
        <time>2019-08-07T08:00:58Z</time>
      </trkpt>
      <trkpt lat="48.7584040" lon="14.0339920">
        <ele>742.0</ele>
        <time>2019-08-07T08:00:59Z</time>
      </trkpt>
      <trkpt lat="48.7583620" lon="14.0340020">
        <ele>742.0</ele>
        <time>2019-08-07T08:01:00Z</time>
      </trkpt>
      <trkpt lat="48.7583210" lon="14.0340160">
        <ele>741.8</ele>
        <time>2019-08-07T08:01:01Z</time>
      </trkpt>
      <trkpt lat="48.7582840" lon="14.0340380">
        <ele>741.8</ele>
        <time>2019-08-07T08:01:02Z</time>
      </trkpt>
      <trkpt lat="48.7582500" lon="14.0340650">
        <ele>741.8</ele>
        <time>2019-08-07T08:01:03Z</time>
      </trkpt>
      <trkpt lat="48.7582190" lon="14.0340930">
        <ele>741.8</ele>
        <time>2019-08-07T08:01:04Z</time>
      </trkpt>
      <trkpt lat="48.7581910" lon="14.0341200">
        <ele>741.8</ele>
        <time>2019-08-07T08:01:05Z</time>
      </trkpt>
      <trkpt lat="48.7581630" lon="14.0341430">
        <ele>741.8</ele>
        <time>2019-08-07T08:01:06Z</time>
      </trkpt>
      <trkpt lat="48.7581320" lon="14.0341640">
        <ele>741.8</ele>
        <time>2019-08-07T08:01:07Z</time>
      </trkpt>
      <trkpt lat="48.7580970" lon="14.0341820">
        <ele>741.8</ele>
        <time>2019-08-07T08:01:08Z</time>
      </trkpt>
      <trkpt lat="48.7580560" lon="14.0342010">
        <ele>741.8</ele>
        <time>2019-08-07T08:01:09Z</time>
      </trkpt>
      <trkpt lat="48.7580120" lon="14.0342220">
        <ele>741.6</ele>
        <time>2019-08-07T08:01:10Z</time>
      </trkpt>
      <trkpt lat="48.7579630" lon="14.0342500">
        <ele>741.6</ele>
        <time>2019-08-07T08:01:11Z</time>
      </trkpt>
      <trkpt lat="48.7579140" lon="14.0342790">
        <ele>741.4</ele>
        <time>2019-08-07T08:01:12Z</time>
      </trkpt>
      <trkpt lat="48.7578610" lon="14.0343140">
        <ele>741.4</ele>
        <time>2019-08-07T08:01:13Z</time>
      </trkpt>
      <trkpt lat="48.7578070" lon="14.0343510">
        <ele>741.2</ele>
        <time>2019-08-07T08:01:14Z</time>
      </trkpt>
      <trkpt lat="48.7577540" lon="14.0343870">
        <ele>741.2</ele>
        <time>2019-08-07T08:01:15Z</time>
      </trkpt>
      <trkpt lat="48.7577010" lon="14.0344240">
        <ele>741.0</ele>
        <time>2019-08-07T08:01:16Z</time>
      </trkpt>
      <trkpt lat="48.7576470" lon="14.0344600">
        <ele>741.0</ele>
        <time>2019-08-07T08:01:17Z</time>
      </trkpt>
      <trkpt lat="48.7575930" lon="14.0344960">
        <ele>740.8</ele>
        <time>2019-08-07T08:01:18Z</time>
      </trkpt>
      <trkpt lat="48.7575400" lon="14.0345330">
        <ele>740.8</ele>
        <time>2019-08-07T08:01:19Z</time>
      </trkpt>
      <trkpt lat="48.7574840" lon="14.0345690">
        <ele>740.6</ele>
        <time>2019-08-07T08:01:20Z</time>
      </trkpt>
      <trkpt lat="48.7574350" lon="14.0346030">
        <ele>740.6</ele>
        <time>2019-08-07T08:01:21Z</time>
      </trkpt>
      <trkpt lat="48.7573920" lon="14.0346390">
        <ele>740.6</ele>
        <time>2019-08-07T08:01:22Z</time>
      </trkpt>
      <trkpt lat="48.7573460" lon="14.0346810">
        <ele>740.6</ele>
        <time>2019-08-07T08:01:23Z</time>
      </trkpt>
      <trkpt lat="48.7572970" lon="14.0347200">
        <ele>740.4</ele>
        <time>2019-08-07T08:01:24Z</time>
      </trkpt>
      <trkpt lat="48.7572460" lon="14.0347630">
        <ele>740.4</ele>
        <time>2019-08-07T08:01:25Z</time>
      </trkpt>
      <trkpt lat="48.7571930" lon="14.0348090">
        <ele>740.4</ele>
        <time>2019-08-07T08:01:26Z</time>
      </trkpt>
      <trkpt lat="48.7571400" lon="14.0348540">
        <ele>740.4</ele>
        <time>2019-08-07T08:01:27Z</time>
      </trkpt>
      <trkpt lat="48.7570860" lon="14.0349000">
        <ele>740.4</ele>
        <time>2019-08-07T08:01:28Z</time>
      </trkpt>
      <trkpt lat="48.7570340" lon="14.0349490">
        <ele>740.4</ele>
        <time>2019-08-07T08:01:29Z</time>
      </trkpt>
      <trkpt lat="48.7569850" lon="14.0350020">
        <ele>740.4</ele>
        <time>2019-08-07T08:01:30Z</time>
      </trkpt>
      <trkpt lat="48.7569370" lon="14.0350550">
        <ele>740.4</ele>
        <time>2019-08-07T08:01:31Z</time>
      </trkpt>
      <trkpt lat="48.7568900" lon="14.0351100">
        <ele>740.4</ele>
        <time>2019-08-07T08:01:32Z</time>
      </trkpt>
      <trkpt lat="48.7568430" lon="14.0351650">
        <ele>740.4</ele>
        <time>2019-08-07T08:01:33Z</time>
      </trkpt>
      <trkpt lat="48.7567990" lon="14.0352200">
        <ele>740.2</ele>
        <time>2019-08-07T08:01:34Z</time>
      </trkpt>
      <trkpt lat="48.7567550" lon="14.0352760">
        <ele>740.4</ele>
        <time>2019-08-07T08:01:35Z</time>
      </trkpt>
      <trkpt lat="48.7567130" lon="14.0353340">
        <ele>740.4</ele>
        <time>2019-08-07T08:01:36Z</time>
      </trkpt>
      <trkpt lat="48.7566690" lon="14.0353960">
        <ele>740.4</ele>
        <time>2019-08-07T08:01:37Z</time>
      </trkpt>
      <trkpt lat="48.7566280" lon="14.0354610">
        <ele>740.2</ele>
        <time>2019-08-07T08:01:38Z</time>
      </trkpt>
      <trkpt lat="48.7565890" lon="14.0355290">
        <ele>740.4</ele>
        <time>2019-08-07T08:01:39Z</time>
      </trkpt>
      <trkpt lat="48.7565510" lon="14.0355980">
        <ele>740.4</ele>
        <time>2019-08-07T08:01:40Z</time>
      </trkpt>
      <trkpt lat="48.7565130" lon="14.0356660">
        <ele>740.4</ele>
        <time>2019-08-07T08:01:41Z</time>
      </trkpt>
      <trkpt lat="48.7564740" lon="14.0357290">
        <ele>740.4</ele>
        <time>2019-08-07T08:01:42Z</time>
      </trkpt>
      <trkpt lat="48.7564350" lon="14.0357980">
        <ele>740.4</ele>
        <time>2019-08-07T08:01:43Z</time>
      </trkpt>
      <trkpt lat="48.7563980" lon="14.0358640">
        <ele>740.4</ele>
        <time>2019-08-07T08:01:44Z</time>
      </trkpt>
      <trkpt lat="48.7563600" lon="14.0359270">
        <ele>740.6</ele>
        <time>2019-08-07T08:01:45Z</time>
      </trkpt>
      <trkpt lat="48.7563230" lon="14.0359890">
        <ele>740.6</ele>
        <time>2019-08-07T08:01:46Z</time>
      </trkpt>
      <trkpt lat="48.7562860" lon="14.0360510">
        <ele>740.6</ele>
        <time>2019-08-07T08:01:47Z</time>
      </trkpt>
      <trkpt lat="48.7562520" lon="14.0361100">
        <ele>740.8</ele>
        <time>2019-08-07T08:01:48Z</time>
      </trkpt>
      <trkpt lat="48.7562190" lon="14.0361720">
        <ele>740.8</ele>
        <time>2019-08-07T08:01:49Z</time>
      </trkpt>
      <trkpt lat="48.7561870" lon="14.0362350">
        <ele>741.0</ele>
        <time>2019-08-07T08:01:50Z</time>
      </trkpt>
      <trkpt lat="48.7561580" lon="14.0362910">
        <ele>741.0</ele>
        <time>2019-08-07T08:01:51Z</time>
      </trkpt>
      <trkpt lat="48.7561250" lon="14.0363530">
        <ele>741.2</ele>
        <time>2019-08-07T08:01:52Z</time>
      </trkpt>
      <trkpt lat="48.7560920" lon="14.0364130">
        <ele>741.2</ele>
        <time>2019-08-07T08:01:53Z</time>
      </trkpt>
      <trkpt lat="48.7560610" lon="14.0364680">
        <ele>741.4</ele>
        <time>2019-08-07T08:01:54Z</time>
      </trkpt>
      <trkpt lat="48.7560270" lon="14.0365210">
        <ele>741.4</ele>
        <time>2019-08-07T08:01:55Z</time>
      </trkpt>
      <trkpt lat="48.7559950" lon="14.0365760">
        <ele>741.4</ele>
        <time>2019-08-07T08:01:56Z</time>
      </trkpt>
      <trkpt lat="48.7559640" lon="14.0366330">
        <ele>741.6</ele>
        <time>2019-08-07T08:01:57Z</time>
      </trkpt>
      <trkpt lat="48.7559370" lon="14.0366910">
        <ele>741.6</ele>
        <time>2019-08-07T08:01:58Z</time>
      </trkpt>
      <trkpt lat="48.7559110" lon="14.0367510">
        <ele>741.8</ele>
        <time>2019-08-07T08:01:59Z</time>
      </trkpt>
      <trkpt lat="48.7558860" lon="14.0368070">
        <ele>741.8</ele>
        <time>2019-08-07T08:02:00Z</time>
      </trkpt>
      <trkpt lat="48.7558580" lon="14.0368610">
        <ele>742.0</ele>
        <time>2019-08-07T08:02:01Z</time>
      </trkpt>
      <trkpt lat="48.7558260" lon="14.0369130">
        <ele>742.2</ele>
        <time>2019-08-07T08:02:02Z</time>
      </trkpt>
      <trkpt lat="48.7557920" lon="14.0369580">
        <ele>742.2</ele>
        <time>2019-08-07T08:02:03Z</time>
      </trkpt>
      <trkpt lat="48.7557560" lon="14.0369950">
        <ele>742.4</ele>
        <time>2019-08-07T08:02:04Z</time>
      </trkpt>
      <trkpt lat="48.7557180" lon="14.0370230">
        <ele>742.6</ele>
        <time>2019-08-07T08:02:05Z</time>
      </trkpt>
      <trkpt lat="48.7556780" lon="14.0370450">
        <ele>742.8</ele>
        <time>2019-08-07T08:02:06Z</time>
      </trkpt>
      <trkpt lat="48.7556380" lon="14.0370630">
        <ele>742.8</ele>
        <time>2019-08-07T08:02:07Z</time>
      </trkpt>
      <trkpt lat="48.7555970" lon="14.0370760">
        <ele>743.0</ele>
        <time>2019-08-07T08:02:08Z</time>
      </trkpt>
      <trkpt lat="48.7555550" lon="14.0370830">
        <ele>743.2</ele>
        <time>2019-08-07T08:02:09Z</time>
      </trkpt>
      <trkpt lat="48.7555130" lon="14.0370890">
        <ele>743.2</ele>
        <time>2019-08-07T08:02:10Z</time>
      </trkpt>
      <trkpt lat="48.7554690" lon="14.0370870">
        <ele>743.2</ele>
        <time>2019-08-07T08:02:11Z</time>
      </trkpt>
      <trkpt lat="48.7554250" lon="14.0370800">
        <ele>743.4</ele>
        <time>2019-08-07T08:02:12Z</time>
      </trkpt>
      <trkpt lat="48.7553820" lon="14.0370710">
        <ele>743.4</ele>
        <time>2019-08-07T08:02:13Z</time>
      </trkpt>
      <trkpt lat="48.7553370" lon="14.0370590">
        <ele>743.4</ele>
        <time>2019-08-07T08:02:14Z</time>
      </trkpt>
      <trkpt lat="48.7552930" lon="14.0370470">
        <ele>743.4</ele>
        <time>2019-08-07T08:02:15Z</time>
      </trkpt>
      <trkpt lat="48.7552490" lon="14.0370290">
        <ele>743.2</ele>
        <time>2019-08-07T08:02:16Z</time>
      </trkpt>
      <trkpt lat="48.7552030" lon="14.0370070">
        <ele>743.2</ele>
        <time>2019-08-07T08:02:17Z</time>
      </trkpt>
      <trkpt lat="48.7551580" lon="14.0369840">
        <ele>743.4</ele>
        <time>2019-08-07T08:02:18Z</time>
      </trkpt>
      <trkpt lat="48.7551130" lon="14.0369630">
        <ele>743.2</ele>
        <time>2019-08-07T08:02:19Z</time>
      </trkpt>
      <trkpt lat="48.7550650" lon="14.0369420">
        <ele>743.2</ele>
        <time>2019-08-07T08:02:20Z</time>
      </trkpt>
      <trkpt lat="48.7550160" lon="14.0369240">
        <ele>743.2</ele>
        <time>2019-08-07T08:02:21Z</time>
      </trkpt>
      <trkpt lat="48.7549670" lon="14.0369150">
        <ele>743.2</ele>
        <time>2019-08-07T08:02:22Z</time>
      </trkpt>
      <trkpt lat="48.7549200" lon="14.0369110">
        <ele>743.2</ele>
        <time>2019-08-07T08:02:23Z</time>
      </trkpt>
      <trkpt lat="48.7548750" lon="14.0369090">
        <ele>743.2</ele>
        <time>2019-08-07T08:02:24Z</time>
      </trkpt>
      <trkpt lat="48.7548300" lon="14.0369110">
        <ele>743.4</ele>
        <time>2019-08-07T08:02:25Z</time>
      </trkpt>
      <trkpt lat="48.7547880" lon="14.0369170">
        <ele>743.4</ele>
        <time>2019-08-07T08:02:26Z</time>
      </trkpt>
      <trkpt lat="48.7547480" lon="14.0369200">
        <ele>743.6</ele>
        <time>2019-08-07T08:02:27Z</time>
      </trkpt>
      <trkpt lat="48.7547100" lon="14.0369180">
        <ele>743.6</ele>
        <time>2019-08-07T08:02:28Z</time>
      </trkpt>
      <trkpt lat="48.7546730" lon="14.0369090">
        <ele>743.8</ele>
        <time>2019-08-07T08:02:29Z</time>
      </trkpt>
      <trkpt lat="48.7546340" lon="14.0369000">
        <ele>744.0</ele>
        <time>2019-08-07T08:02:30Z</time>
      </trkpt>
      <trkpt lat="48.7545970" lon="14.0368910">
        <ele>744.2</ele>
        <time>2019-08-07T08:02:31Z</time>
      </trkpt>
      <trkpt lat="48.7545610" lon="14.0368760">
        <ele>744.4</ele>
        <time>2019-08-07T08:02:32Z</time>
      </trkpt>
      <trkpt lat="48.7545250" lon="14.0368580">
        <ele>744.6</ele>
        <time>2019-08-07T08:02:33Z</time>
      </trkpt>
      <trkpt lat="48.7544890" lon="14.0368420">
        <ele>744.8</ele>
        <time>2019-08-07T08:02:34Z</time>
      </trkpt>
      <trkpt lat="48.7544520" lon="14.0368270">
        <ele>744.8</ele>
        <time>2019-08-07T08:02:35Z</time>
      </trkpt>
      <trkpt lat="48.7544170" lon="14.0368120">
        <ele>745.0</ele>
        <time>2019-08-07T08:02:36Z</time>
      </trkpt>
      <trkpt lat="48.7543830" lon="14.0367930">
        <ele>745.2</ele>
        <time>2019-08-07T08:02:37Z</time>
      </trkpt>
      <trkpt lat="48.7543510" lon="14.0367730">
        <ele>745.4</ele>
        <time>2019-08-07T08:02:38Z</time>
      </trkpt>
      <trkpt lat="48.7543180" lon="14.0367530">
        <ele>745.6</ele>
        <time>2019-08-07T08:02:39Z</time>
      </trkpt>
      <trkpt lat="48.7542860" lon="14.0367360">
        <ele>745.6</ele>
        <time>2019-08-07T08:02:40Z</time>
      </trkpt>
      <trkpt lat="48.7542520" lon="14.0367200">
        <ele>745.8</ele>
        <time>2019-08-07T08:02:41Z</time>
      </trkpt>
      <trkpt lat="48.7542170" lon="14.0367070">
        <ele>746.0</ele>
        <time>2019-08-07T08:02:42Z</time>
      </trkpt>
      <trkpt lat="48.7541840" lon="14.0366940">
        <ele>746.2</ele>
        <time>2019-08-07T08:02:43Z</time>
      </trkpt>
      <trkpt lat="48.7541540" lon="14.0366810">
        <ele>746.4</ele>
        <time>2019-08-07T08:02:44Z</time>
      </trkpt>
      <trkpt lat="48.7541240" lon="14.0366670">
        <ele>746.6</ele>
        <time>2019-08-07T08:02:45Z</time>
      </trkpt>
      <trkpt lat="48.7540950" lon="14.0366510">
        <ele>746.8</ele>
        <time>2019-08-07T08:02:46Z</time>
      </trkpt>
      <trkpt lat="48.7540700" lon="14.0366290">
        <ele>747.2</ele>
        <time>2019-08-07T08:02:47Z</time>
      </trkpt>
      <trkpt lat="48.7540480" lon="14.0366000">
        <ele>747.4</ele>
        <time>2019-08-07T08:02:48Z</time>
      </trkpt>
      <trkpt lat="48.7540320" lon="14.0365680">
        <ele>747.6</ele>
        <time>2019-08-07T08:02:49Z</time>
      </trkpt>
      <trkpt lat="48.7540160" lon="14.0365320">
        <ele>747.8</ele>
        <time>2019-08-07T08:02:50Z</time>
      </trkpt>
      <trkpt lat="48.7539990" lon="14.0364970">
        <ele>748.0</ele>
        <time>2019-08-07T08:02:51Z</time>
      </trkpt>
      <trkpt lat="48.7539840" lon="14.0364620">
        <ele>748.0</ele>
        <time>2019-08-07T08:02:52Z</time>
      </trkpt>
      <trkpt lat="48.7539720" lon="14.0364240">
        <ele>748.2</ele>
        <time>2019-08-07T08:02:53Z</time>
      </trkpt>
      <trkpt lat="48.7539610" lon="14.0363870">
        <ele>748.4</ele>
        <time>2019-08-07T08:02:54Z</time>
      </trkpt>
      <trkpt lat="48.7539500" lon="14.0363520">
        <ele>748.4</ele>
        <time>2019-08-07T08:02:55Z</time>
      </trkpt>
      <trkpt lat="48.7539370" lon="14.0363120">
        <ele>748.6</ele>
        <time>2019-08-07T08:02:56Z</time>
      </trkpt>
      <trkpt lat="48.7539250" lon="14.0362720">
        <ele>748.6</ele>
        <time>2019-08-07T08:02:57Z</time>
      </trkpt>
      <trkpt lat="48.7539150" lon="14.0362340">
        <ele>748.8</ele>
        <time>2019-08-07T08:02:58Z</time>
      </trkpt>
      <trkpt lat="48.7539080" lon="14.0361940">
        <ele>748.8</ele>
        <time>2019-08-07T08:02:59Z</time>
      </trkpt>
      <trkpt lat="48.7538980" lon="14.0361480">
        <ele>749.0</ele>
        <time>2019-08-07T08:03:00Z</time>
      </trkpt>
      <trkpt lat="48.7538870" lon="14.0360960">
        <ele>749.0</ele>
        <time>2019-08-07T08:03:01Z</time>
      </trkpt>
      <trkpt lat="48.7538750" lon="14.0360360">
        <ele>749.0</ele>
        <time>2019-08-07T08:03:02Z</time>
      </trkpt>
      <trkpt lat="48.7538600" lon="14.0359740">
        <ele>749.0</ele>
        <time>2019-08-07T08:03:03Z</time>
      </trkpt>
      <trkpt lat="48.7538470" lon="14.0359120">
        <ele>749.2</ele>
        <time>2019-08-07T08:03:04Z</time>
      </trkpt>
      <trkpt lat="48.7538340" lon="14.0358460">
        <ele>749.2</ele>
        <time>2019-08-07T08:03:05Z</time>
      </trkpt>
      <trkpt lat="48.7538180" lon="14.0357870">
        <ele>749.4</ele>
        <time>2019-08-07T08:03:06Z</time>
      </trkpt>
      <trkpt lat="48.7537980" lon="14.0357350">
        <ele>749.4</ele>
        <time>2019-08-07T08:03:07Z</time>
      </trkpt>
      <trkpt lat="48.7537760" lon="14.0356920">
        <ele>749.6</ele>
        <time>2019-08-07T08:03:08Z</time>
      </trkpt>
      <trkpt lat="48.7537470" lon="14.0356480">
        <ele>749.8</ele>
        <time>2019-08-07T08:03:09Z</time>
      </trkpt>
      <trkpt lat="48.7537220" lon="14.0356060">
        <ele>750.0</ele>
        <time>2019-08-07T08:03:10Z</time>
      </trkpt>
      <trkpt lat="48.7536970" lon="14.0355670">
        <ele>750.2</ele>
        <time>2019-08-07T08:03:11Z</time>
      </trkpt>
      <trkpt lat="48.7536740" lon="14.0355320">
        <ele>750.4</ele>
        <time>2019-08-07T08:03:12Z</time>
      </trkpt>
      <trkpt lat="48.7536500" lon="14.0354960">
        <ele>750.6</ele>
        <time>2019-08-07T08:03:13Z</time>
      </trkpt>
      <trkpt lat="48.7536230" lon="14.0354600">
        <ele>750.8</ele>
        <time>2019-08-07T08:03:14Z</time>
      </trkpt>
      <trkpt lat="48.7535960" lon="14.0354250">
        <ele>751.0</ele>
        <time>2019-08-07T08:03:15Z</time>
      </trkpt>
      <trkpt lat="48.7535710" lon="14.0353810">
        <ele>751.2</ele>
        <time>2019-08-07T08:03:16Z</time>
      </trkpt>
      <trkpt lat="48.7535460" lon="14.0353380">
        <ele>751.4</ele>
        <time>2019-08-07T08:03:17Z</time>
      </trkpt>
      <trkpt lat="48.7535240" lon="14.0353010">
        <ele>751.6</ele>
        <time>2019-08-07T08:03:18Z</time>
      </trkpt>
      <trkpt lat="48.7535030" lon="14.0352610">
        <ele>751.8</ele>
        <time>2019-08-07T08:03:19Z</time>
      </trkpt>
      <trkpt lat="48.7534820" lon="14.0352200">
        <ele>752.0</ele>
        <time>2019-08-07T08:03:20Z</time>
      </trkpt>
      <trkpt lat="48.7534600" lon="14.0351810">
        <ele>752.2</ele>
        <time>2019-08-07T08:03:21Z</time>
      </trkpt>
      <trkpt lat="48.7534400" lon="14.0351440">
        <ele>752.4</ele>
        <time>2019-08-07T08:03:22Z</time>
      </trkpt>
      <trkpt lat="48.7534190" lon="14.0351050">
        <ele>752.4</ele>
        <time>2019-08-07T08:03:23Z</time>
      </trkpt>
      <trkpt lat="48.7533970" lon="14.0350650">
        <ele>752.6</ele>
        <time>2019-08-07T08:03:24Z</time>
      </trkpt>
      <trkpt lat="48.7533750" lon="14.0350250">
        <ele>752.8</ele>
        <time>2019-08-07T08:03:25Z</time>
      </trkpt>
      <trkpt lat="48.7533550" lon="14.0349830">
        <ele>752.8</ele>
        <time>2019-08-07T08:03:26Z</time>
      </trkpt>
      <trkpt lat="48.7533340" lon="14.0349440">
        <ele>753.0</ele>
        <time>2019-08-07T08:03:27Z</time>
      </trkpt>
      <trkpt lat="48.7533100" lon="14.0349090">
        <ele>753.0</ele>
        <time>2019-08-07T08:03:28Z</time>
      </trkpt>
      <trkpt lat="48.7532870" lon="14.0348730">
        <ele>753.2</ele>
        <time>2019-08-07T08:03:29Z</time>
      </trkpt>
      <trkpt lat="48.7532650" lon="14.0348420">
        <ele>753.2</ele>
        <time>2019-08-07T08:03:30Z</time>
      </trkpt>
      <trkpt lat="48.7532420" lon="14.0348110">
        <ele>753.2</ele>
        <time>2019-08-07T08:03:31Z</time>
      </trkpt>
      <trkpt lat="48.7532200" lon="14.0347810">
        <ele>753.2</ele>
        <time>2019-08-07T08:03:32Z</time>
      </trkpt>
      <trkpt lat="48.7531970" lon="14.0347490">
        <ele>753.4</ele>
        <time>2019-08-07T08:03:33Z</time>
      </trkpt>
      <trkpt lat="48.7531740" lon="14.0347220">
        <ele>753.4</ele>
        <time>2019-08-07T08:03:34Z</time>
      </trkpt>
      <trkpt lat="48.7531520" lon="14.0346900">
        <ele>753.4</ele>
        <time>2019-08-07T08:03:35Z</time>
      </trkpt>
      <trkpt lat="48.7531320" lon="14.0346560">
        <ele>753.6</ele>
        <time>2019-08-07T08:03:36Z</time>
      </trkpt>
      <trkpt lat="48.7531130" lon="14.0346180">
        <ele>753.6</ele>
        <time>2019-08-07T08:03:37Z</time>
      </trkpt>
      <trkpt lat="48.7530920" lon="14.0345780">
        <ele>753.6</ele>
        <time>2019-08-07T08:03:38Z</time>
      </trkpt>
      <trkpt lat="48.7530650" lon="14.0345420">
        <ele>753.6</ele>
        <time>2019-08-07T08:03:39Z</time>
      </trkpt>
      <trkpt lat="48.7530380" lon="14.0345120">
        <ele>753.6</ele>
        <time>2019-08-07T08:03:40Z</time>
      </trkpt>
      <trkpt lat="48.7530090" lon="14.0344860">
        <ele>753.6</ele>
        <time>2019-08-07T08:03:41Z</time>
      </trkpt>
      <trkpt lat="48.7529790" lon="14.0344600">
        <ele>753.4</ele>
        <time>2019-08-07T08:03:42Z</time>
      </trkpt>
      <trkpt lat="48.7529490" lon="14.0344340">
        <ele>753.4</ele>
        <time>2019-08-07T08:03:43Z</time>
      </trkpt>
      <trkpt lat="48.7529170" lon="14.0344080">
        <ele>753.4</ele>
        <time>2019-08-07T08:03:44Z</time>
      </trkpt>
      <trkpt lat="48.7528820" lon="14.0343840">
        <ele>753.2</ele>
        <time>2019-08-07T08:03:45Z</time>
      </trkpt>
      <trkpt lat="48.7528460" lon="14.0343600">
        <ele>753.2</ele>
        <time>2019-08-07T08:03:46Z</time>
      </trkpt>
      <trkpt lat="48.7528060" lon="14.0343330">
        <ele>753.0</ele>
        <time>2019-08-07T08:03:47Z</time>
      </trkpt>
      <trkpt lat="48.7527640" lon="14.0343030">
        <ele>752.8</ele>
        <time>2019-08-07T08:03:48Z</time>
      </trkpt>
      <trkpt lat="48.7527190" lon="14.0342720">
        <ele>752.6</ele>
        <time>2019-08-07T08:03:49Z</time>
      </trkpt>
      <trkpt lat="48.7526730" lon="14.0342430">
        <ele>752.4</ele>
        <time>2019-08-07T08:03:50Z</time>
      </trkpt>
      <trkpt lat="48.7526200" lon="14.0342150">
        <ele>752.2</ele>
        <time>2019-08-07T08:03:51Z</time>
      </trkpt>
      <trkpt lat="48.7525610" lon="14.0341870">
        <ele>751.8</ele>
        <time>2019-08-07T08:03:52Z</time>
      </trkpt>
      <trkpt lat="48.7524980" lon="14.0341580">
        <ele>751.6</ele>
        <time>2019-08-07T08:03:53Z</time>
      </trkpt>
      <trkpt lat="48.7524350" lon="14.0341280">
        <ele>751.2</ele>
        <time>2019-08-07T08:03:54Z</time>
      </trkpt>
      <trkpt lat="48.7523690" lon="14.0340950">
        <ele>750.8</ele>
        <time>2019-08-07T08:03:55Z</time>
      </trkpt>
      <trkpt lat="48.7523000" lon="14.0340610">
        <ele>750.2</ele>
        <time>2019-08-07T08:03:56Z</time>
      </trkpt>
      <trkpt lat="48.7522350" lon="14.0340240">
        <ele>749.6</ele>
        <time>2019-08-07T08:03:57Z</time>
      </trkpt>
      <trkpt lat="48.7521730" lon="14.0339820">
        <ele>749.0</ele>
        <time>2019-08-07T08:03:58Z</time>
      </trkpt>
      <trkpt lat="48.7521130" lon="14.0339290">
        <ele>748.4</ele>
        <time>2019-08-07T08:03:59Z</time>
      </trkpt>
      <trkpt lat="48.7520610" lon="14.0338720">
        <ele>747.8</ele>
        <time>2019-08-07T08:04:00Z</time>
      </trkpt>
      <trkpt lat="48.7520030" lon="14.0338030">
        <ele>747.4</ele>
        <time>2019-08-07T08:04:01Z</time>
      </trkpt>
      <trkpt lat="48.7519470" lon="14.0337410">
        <ele>747.0</ele>
        <time>2019-08-07T08:04:02Z</time>
      </trkpt>
      <trkpt lat="48.7518890" lon="14.0337000">
        <ele>746.6</ele>
        <time>2019-08-07T08:04:03Z</time>
      </trkpt>
      <trkpt lat="48.7518250" lon="14.0336790">
        <ele>746.2</ele>
        <time>2019-08-07T08:04:04Z</time>
      </trkpt>
      <trkpt lat="48.7517620" lon="14.0336850">
        <ele>745.6</ele>
        <time>2019-08-07T08:04:05Z</time>
      </trkpt>
      <trkpt lat="48.7517100" lon="14.0337220">
        <ele>745.2</ele>
        <time>2019-08-07T08:04:06Z</time>
      </trkpt>
      <trkpt lat="48.7516640" lon="14.0337730">
        <ele>745.0</ele>
        <time>2019-08-07T08:04:07Z</time>
      </trkpt>
      <trkpt lat="48.7516190" lon="14.0338260">
        <ele>744.8</ele>
        <time>2019-08-07T08:04:08Z</time>
      </trkpt>
      <trkpt lat="48.7515750" lon="14.0338790">
        <ele>744.6</ele>
        <time>2019-08-07T08:04:09Z</time>
      </trkpt>
      <trkpt lat="48.7515290" lon="14.0339270">
        <ele>744.4</ele>
        <time>2019-08-07T08:04:10Z</time>
      </trkpt>
      <trkpt lat="48.7514830" lon="14.0339730">
        <ele>744.2</ele>
        <time>2019-08-07T08:04:11Z</time>
      </trkpt>
      <trkpt lat="48.7514400" lon="14.0340220">
        <ele>744.0</ele>
        <time>2019-08-07T08:04:12Z</time>
      </trkpt>
      <trkpt lat="48.7514020" lon="14.0340750">
        <ele>744.0</ele>
        <time>2019-08-07T08:04:13Z</time>
      </trkpt>
      <trkpt lat="48.7513720" lon="14.0341330">
        <ele>743.8</ele>
        <time>2019-08-07T08:04:14Z</time>
      </trkpt>
      <trkpt lat="48.7513420" lon="14.0341900">
        <ele>743.8</ele>
        <time>2019-08-07T08:04:15Z</time>
      </trkpt>
      <trkpt lat="48.7513120" lon="14.0342450">
        <ele>743.8</ele>
        <time>2019-08-07T08:04:16Z</time>
      </trkpt>
      <trkpt lat="48.7512820" lon="14.0342960">
        <ele>743.8</ele>
        <time>2019-08-07T08:04:17Z</time>
      </trkpt>
      <trkpt lat="48.7512550" lon="14.0343460">
        <ele>743.8</ele>
        <time>2019-08-07T08:04:18Z</time>
      </trkpt>
      <trkpt lat="48.7512240" lon="14.0343970">
        <ele>744.0</ele>
        <time>2019-08-07T08:04:19Z</time>
      </trkpt>
      <trkpt lat="48.7511940" lon="14.0344510">
        <ele>744.0</ele>
        <time>2019-08-07T08:04:20Z</time>
      </trkpt>
      <trkpt lat="48.7511610" lon="14.0345070">
        <ele>744.0</ele>
        <time>2019-08-07T08:04:21Z</time>
      </trkpt>
      <trkpt lat="48.7511280" lon="14.0345630">
        <ele>744.0</ele>
        <time>2019-08-07T08:04:22Z</time>
      </trkpt>
      <trkpt lat="48.7510940" lon="14.0346190">
        <ele>744.0</ele>
        <time>2019-08-07T08:04:23Z</time>
      </trkpt>
      <trkpt lat="48.7510620" lon="14.0346740">
        <ele>744.2</ele>
        <time>2019-08-07T08:04:24Z</time>
      </trkpt>
      <trkpt lat="48.7510300" lon="14.0347290">
        <ele>744.2</ele>
        <time>2019-08-07T08:04:25Z</time>
      </trkpt>
      <trkpt lat="48.7509960" lon="14.0347820">
        <ele>744.2</ele>
        <time>2019-08-07T08:04:26Z</time>
      </trkpt>
      <trkpt lat="48.7509620" lon="14.0348330">
        <ele>744.2</ele>
        <time>2019-08-07T08:04:27Z</time>
      </trkpt>
      <trkpt lat="48.7509280" lon="14.0348860">
        <ele>744.4</ele>
        <time>2019-08-07T08:04:28Z</time>
      </trkpt>
      <trkpt lat="48.7508940" lon="14.0349390">
        <ele>744.4</ele>
        <time>2019-08-07T08:04:29Z</time>
      </trkpt>
      <trkpt lat="48.7508600" lon="14.0349930">
        <ele>744.4</ele>
        <time>2019-08-07T08:04:30Z</time>
      </trkpt>
      <trkpt lat="48.7508280" lon="14.0350500">
        <ele>744.4</ele>
        <time>2019-08-07T08:04:31Z</time>
      </trkpt>
      <trkpt lat="48.7507970" lon="14.0351060">
        <ele>744.4</ele>
        <time>2019-08-07T08:04:32Z</time>
      </trkpt>
      <trkpt lat="48.7507670" lon="14.0351620">
        <ele>744.4</ele>
        <time>2019-08-07T08:04:33Z</time>
      </trkpt>
      <trkpt lat="48.7507360" lon="14.0352180">
        <ele>744.4</ele>
        <time>2019-08-07T08:04:34Z</time>
      </trkpt>
      <trkpt lat="48.7507050" lon="14.0352710">
        <ele>744.2</ele>
        <time>2019-08-07T08:04:35Z</time>
      </trkpt>
      <trkpt lat="48.7506750" lon="14.0353240">
        <ele>744.4</ele>
        <time>2019-08-07T08:04:36Z</time>
      </trkpt>
      <trkpt lat="48.7506440" lon="14.0353790">
        <ele>744.4</ele>
        <time>2019-08-07T08:04:37Z</time>
      </trkpt>
      <trkpt lat="48.7506110" lon="14.0354360">
        <ele>744.4</ele>
        <time>2019-08-07T08:04:38Z</time>
      </trkpt>
      <trkpt lat="48.7505800" lon="14.0354910">
        <ele>744.2</ele>
        <time>2019-08-07T08:04:39Z</time>
      </trkpt>
      <trkpt lat="48.7505490" lon="14.0355460">
        <ele>744.2</ele>
        <time>2019-08-07T08:04:40Z</time>
      </trkpt>
      <trkpt lat="48.7505170" lon="14.0356010">
        <ele>744.2</ele>
        <time>2019-08-07T08:04:41Z</time>
      </trkpt>
      <trkpt lat="48.7504830" lon="14.0356580">
        <ele>744.2</ele>
        <time>2019-08-07T08:04:42Z</time>
      </trkpt>
      <trkpt lat="48.7504500" lon="14.0357140">
        <ele>744.2</ele>
        <time>2019-08-07T08:04:43Z</time>
      </trkpt>
      <trkpt lat="48.7504180" lon="14.0357710">
        <ele>744.2</ele>
        <time>2019-08-07T08:04:44Z</time>
      </trkpt>
      <trkpt lat="48.7503870" lon="14.0358230">
        <ele>744.2</ele>
        <time>2019-08-07T08:04:45Z</time>
      </trkpt>
      <trkpt lat="48.7503530" lon="14.0358790">
        <ele>744.0</ele>
        <time>2019-08-07T08:04:46Z</time>
      </trkpt>
      <trkpt lat="48.7503200" lon="14.0359390">
        <ele>744.0</ele>
        <time>2019-08-07T08:04:47Z</time>
      </trkpt>
      <trkpt lat="48.7502880" lon="14.0360000">
        <ele>744.0</ele>
        <time>2019-08-07T08:04:48Z</time>
      </trkpt>
      <trkpt lat="48.7502540" lon="14.0360580">
        <ele>744.0</ele>
        <time>2019-08-07T08:04:49Z</time>
      </trkpt>
      <trkpt lat="48.7502170" lon="14.0361170">
        <ele>744.0</ele>
        <time>2019-08-07T08:04:50Z</time>
      </trkpt>
      <trkpt lat="48.7501820" lon="14.0361790">
        <ele>744.0</ele>
        <time>2019-08-07T08:04:51Z</time>
      </trkpt>
      <trkpt lat="48.7501450" lon="14.0362410">
        <ele>743.8</ele>
        <time>2019-08-07T08:04:52Z</time>
      </trkpt>
      <trkpt lat="48.7501070" lon="14.0363030">
        <ele>743.6</ele>
        <time>2019-08-07T08:04:53Z</time>
      </trkpt>
      <trkpt lat="48.7500690" lon="14.0363660">
        <ele>743.6</ele>
        <time>2019-08-07T08:04:54Z</time>
      </trkpt>
      <trkpt lat="48.7500300" lon="14.0364300">
        <ele>743.4</ele>
        <time>2019-08-07T08:04:55Z</time>
      </trkpt>
      <trkpt lat="48.7499930" lon="14.0364950">
        <ele>743.2</ele>
        <time>2019-08-07T08:04:56Z</time>
      </trkpt>
      <trkpt lat="48.7499530" lon="14.0365660">
        <ele>743.2</ele>
        <time>2019-08-07T08:04:57Z</time>
      </trkpt>
      <trkpt lat="48.7499140" lon="14.0366390">
        <ele>743.0</ele>
        <time>2019-08-07T08:04:58Z</time>
      </trkpt>
      <trkpt lat="48.7498750" lon="14.0367110">
        <ele>742.8</ele>
        <time>2019-08-07T08:04:59Z</time>
      </trkpt>
      <trkpt lat="48.7498390" lon="14.0367830">
        <ele>742.8</ele>
        <time>2019-08-07T08:05:00Z</time>
      </trkpt>
      <trkpt lat="48.7498020" lon="14.0368570">
        <ele>742.6</ele>
        <time>2019-08-07T08:05:01Z</time>
      </trkpt>
      <trkpt lat="48.7497650" lon="14.0369350">
        <ele>742.2</ele>
        <time>2019-08-07T08:05:02Z</time>
      </trkpt>
      <trkpt lat="48.7497290" lon="14.0370160">
        <ele>742.0</ele>
        <time>2019-08-07T08:05:03Z</time>
      </trkpt>
      <trkpt lat="48.7496920" lon="14.0370980">
        <ele>741.8</ele>
        <time>2019-08-07T08:05:04Z</time>
      </trkpt>
      <trkpt lat="48.7496570" lon="14.0371830">
        <ele>741.6</ele>
        <time>2019-08-07T08:05:05Z</time>
      </trkpt>
      <trkpt lat="48.7496220" lon="14.0372720">
        <ele>741.4</ele>
        <time>2019-08-07T08:05:06Z</time>
      </trkpt>
      <trkpt lat="48.7495900" lon="14.0373610">
        <ele>741.4</ele>
        <time>2019-08-07T08:05:07Z</time>
      </trkpt>
      <trkpt lat="48.7495610" lon="14.0374520">
        <ele>741.2</ele>
        <time>2019-08-07T08:05:08Z</time>
      </trkpt>
      <trkpt lat="48.7495360" lon="14.0375440">
        <ele>741.0</ele>
        <time>2019-08-07T08:05:09Z</time>
      </trkpt>
      <trkpt lat="48.7495080" lon="14.0376390">
        <ele>740.8</ele>
        <time>2019-08-07T08:05:10Z</time>
      </trkpt>
      <trkpt lat="48.7494810" lon="14.0377340">
        <ele>740.8</ele>
        <time>2019-08-07T08:05:11Z</time>
      </trkpt>
      <trkpt lat="48.7494550" lon="14.0378280">
        <ele>740.6</ele>
        <time>2019-08-07T08:05:12Z</time>
      </trkpt>
      <trkpt lat="48.7494300" lon="14.0379240">
        <ele>740.4</ele>
        <time>2019-08-07T08:05:13Z</time>
      </trkpt>
      <trkpt lat="48.7494100" lon="14.0380210">
        <ele>740.2</ele>
        <time>2019-08-07T08:05:14Z</time>
      </trkpt>
      <trkpt lat="48.7493910" lon="14.0381210">
        <ele>740.0</ele>
        <time>2019-08-07T08:05:15Z</time>
      </trkpt>
      <trkpt lat="48.7493740" lon="14.0382180">
        <ele>740.0</ele>
        <time>2019-08-07T08:05:16Z</time>
      </trkpt>
      <trkpt lat="48.7493600" lon="14.0383160">
        <ele>739.8</ele>
        <time>2019-08-07T08:05:17Z</time>
      </trkpt>
      <trkpt lat="48.7493490" lon="14.0384130">
        <ele>739.6</ele>
        <time>2019-08-07T08:05:18Z</time>
      </trkpt>
      <trkpt lat="48.7493410" lon="14.0385080">
        <ele>739.6</ele>
        <time>2019-08-07T08:05:19Z</time>
      </trkpt>
      <trkpt lat="48.7493290" lon="14.0386060">
        <ele>739.4</ele>
        <time>2019-08-07T08:05:20Z</time>
      </trkpt>
      <trkpt lat="48.7493190" lon="14.0387000">
        <ele>739.4</ele>
        <time>2019-08-07T08:05:21Z</time>
      </trkpt>
      <trkpt lat="48.7493110" lon="14.0387900">
        <ele>739.4</ele>
        <time>2019-08-07T08:05:22Z</time>
      </trkpt>
      <trkpt lat="48.7493050" lon="14.0388830">
        <ele>739.2</ele>
        <time>2019-08-07T08:05:23Z</time>
      </trkpt>
      <trkpt lat="48.7493010" lon="14.0389760">
        <ele>739.2</ele>
        <time>2019-08-07T08:05:24Z</time>
      </trkpt>
      <trkpt lat="48.7492960" lon="14.0390670">
        <ele>739.2</ele>
        <time>2019-08-07T08:05:25Z</time>
      </trkpt>
      <trkpt lat="48.7492910" lon="14.0391560">
        <ele>739.2</ele>
        <time>2019-08-07T08:05:26Z</time>
      </trkpt>
      <trkpt lat="48.7492860" lon="14.0392480">
        <ele>739.0</ele>
        <time>2019-08-07T08:05:27Z</time>
      </trkpt>
      <trkpt lat="48.7492810" lon="14.0393340">
        <ele>739.0</ele>
        <time>2019-08-07T08:05:28Z</time>
      </trkpt>
      <trkpt lat="48.7492780" lon="14.0394230">
        <ele>739.0</ele>
        <time>2019-08-07T08:05:29Z</time>
      </trkpt>
      <trkpt lat="48.7492740" lon="14.0395080">
        <ele>739.0</ele>
        <time>2019-08-07T08:05:30Z</time>
      </trkpt>
      <trkpt lat="48.7492710" lon="14.0395960">
        <ele>739.0</ele>
        <time>2019-08-07T08:05:31Z</time>
      </trkpt>
      <trkpt lat="48.7492690" lon="14.0396870">
        <ele>739.0</ele>
        <time>2019-08-07T08:05:32Z</time>
      </trkpt>
      <trkpt lat="48.7492700" lon="14.0397850">
        <ele>738.8</ele>
        <time>2019-08-07T08:05:33Z</time>
      </trkpt>
      <trkpt lat="48.7492720" lon="14.0398800">
        <ele>738.8</ele>
        <time>2019-08-07T08:05:34Z</time>
      </trkpt>
      <trkpt lat="48.7492770" lon="14.0399770">
        <ele>738.6</ele>
        <time>2019-08-07T08:05:35Z</time>
      </trkpt>
      <trkpt lat="48.7492820" lon="14.0400740">
        <ele>738.6</ele>
        <time>2019-08-07T08:05:36Z</time>
      </trkpt>
      <trkpt lat="48.7492880" lon="14.0401720">
        <ele>738.6</ele>
        <time>2019-08-07T08:05:37Z</time>
      </trkpt>
      <trkpt lat="48.7492960" lon="14.0402680">
        <ele>738.6</ele>
        <time>2019-08-07T08:05:38Z</time>
      </trkpt>
      <trkpt lat="48.7493110" lon="14.0403600">
        <ele>738.4</ele>
        <time>2019-08-07T08:05:39Z</time>
      </trkpt>
      <trkpt lat="48.7493320" lon="14.0404490">
        <ele>738.4</ele>
        <time>2019-08-07T08:05:40Z</time>
      </trkpt>
      <trkpt lat="48.7493560" lon="14.0405360">
        <ele>738.4</ele>
        <time>2019-08-07T08:05:41Z</time>
      </trkpt>
      <trkpt lat="48.7493830" lon="14.0406240">
        <ele>738.4</ele>
        <time>2019-08-07T08:05:42Z</time>
      </trkpt>
      <trkpt lat="48.7494150" lon="14.0407140">
        <ele>738.2</ele>
        <time>2019-08-07T08:05:43Z</time>
      </trkpt>
      <trkpt lat="48.7494500" lon="14.0408000">
        <ele>738.2</ele>
        <time>2019-08-07T08:05:44Z</time>
      </trkpt>
      <trkpt lat="48.7494850" lon="14.0408860">
        <ele>738.2</ele>
        <time>2019-08-07T08:05:45Z</time>
      </trkpt>
      <trkpt lat="48.7495220" lon="14.0409680">
        <ele>738.2</ele>
        <time>2019-08-07T08:05:46Z</time>
      </trkpt>
      <trkpt lat="48.7495620" lon="14.0410450">
        <ele>738.2</ele>
        <time>2019-08-07T08:05:47Z</time>
      </trkpt>
      <trkpt lat="48.7496040" lon="14.0411190">
        <ele>738.2</ele>
        <time>2019-08-07T08:05:48Z</time>
      </trkpt>
      <trkpt lat="48.7496480" lon="14.0411880">
        <ele>738.2</ele>
        <time>2019-08-07T08:05:49Z</time>
      </trkpt>
      <trkpt lat="48.7496940" lon="14.0412540">
        <ele>738.2</ele>
        <time>2019-08-07T08:05:50Z</time>
      </trkpt>
      <trkpt lat="48.7497410" lon="14.0413170">
        <ele>738.2</ele>
        <time>2019-08-07T08:05:51Z</time>
      </trkpt>
      <trkpt lat="48.7497870" lon="14.0413770">
        <ele>738.2</ele>
        <time>2019-08-07T08:05:52Z</time>
      </trkpt>
      <trkpt lat="48.7498330" lon="14.0414390">
        <ele>738.2</ele>
        <time>2019-08-07T08:05:53Z</time>
      </trkpt>
      <trkpt lat="48.7498780" lon="14.0414990">
        <ele>738.2</ele>
        <time>2019-08-07T08:05:54Z</time>
      </trkpt>
      <trkpt lat="48.7499250" lon="14.0415550">
        <ele>738.2</ele>
        <time>2019-08-07T08:05:55Z</time>
      </trkpt>
      <trkpt lat="48.7499720" lon="14.0416100">
        <ele>738.2</ele>
        <time>2019-08-07T08:05:56Z</time>
      </trkpt>
      <trkpt lat="48.7500200" lon="14.0416610">
        <ele>738.2</ele>
        <time>2019-08-07T08:05:57Z</time>
      </trkpt>
      <trkpt lat="48.7500670" lon="14.0417100">
        <ele>738.4</ele>
        <time>2019-08-07T08:05:58Z</time>
      </trkpt>
      <trkpt lat="48.7501130" lon="14.0417560">
        <ele>738.4</ele>
        <time>2019-08-07T08:05:59Z</time>
      </trkpt>
      <trkpt lat="48.7501590" lon="14.0418020">
        <ele>738.4</ele>
        <time>2019-08-07T08:06:00Z</time>
      </trkpt>
      <trkpt lat="48.7502020" lon="14.0418490">
        <ele>738.6</ele>
        <time>2019-08-07T08:06:01Z</time>
      </trkpt>
      <trkpt lat="48.7502420" lon="14.0418960">
        <ele>738.6</ele>
        <time>2019-08-07T08:06:02Z</time>
      </trkpt>
      <trkpt lat="48.7502790" lon="14.0419410">
        <ele>738.8</ele>
        <time>2019-08-07T08:06:03Z</time>
      </trkpt>
      <trkpt lat="48.7503150" lon="14.0419840">
        <ele>738.8</ele>
        <time>2019-08-07T08:06:04Z</time>
      </trkpt>
      <trkpt lat="48.7503520" lon="14.0420270">
        <ele>739.0</ele>
        <time>2019-08-07T08:06:05Z</time>
      </trkpt>
      <trkpt lat="48.7503900" lon="14.0420700">
        <ele>739.0</ele>
        <time>2019-08-07T08:06:06Z</time>
      </trkpt>
      <trkpt lat="48.7504250" lon="14.0421130">
        <ele>739.2</ele>
        <time>2019-08-07T08:06:07Z</time>
      </trkpt>
      <trkpt lat="48.7504590" lon="14.0421540">
        <ele>739.2</ele>
        <time>2019-08-07T08:06:08Z</time>
      </trkpt>
      <trkpt lat="48.7504910" lon="14.0421910">
        <ele>739.4</ele>
        <time>2019-08-07T08:06:09Z</time>
      </trkpt>
      <trkpt lat="48.7505240" lon="14.0422250">
        <ele>739.4</ele>
        <time>2019-08-07T08:06:10Z</time>
      </trkpt>
      <trkpt lat="48.7505550" lon="14.0422590">
        <ele>739.6</ele>
        <time>2019-08-07T08:06:11Z</time>
      </trkpt>
      <trkpt lat="48.7505880" lon="14.0422950">
        <ele>739.6</ele>
        <time>2019-08-07T08:06:12Z</time>
      </trkpt>
      <trkpt lat="48.7506220" lon="14.0423350">
        <ele>739.8</ele>
        <time>2019-08-07T08:06:13Z</time>
      </trkpt>
      <trkpt lat="48.7506590" lon="14.0423730">
        <ele>739.8</ele>
        <time>2019-08-07T08:06:14Z</time>
      </trkpt>
      <trkpt lat="48.7506930" lon="14.0424090">
        <ele>740.0</ele>
        <time>2019-08-07T08:06:15Z</time>
      </trkpt>
      <trkpt lat="48.7507290" lon="14.0424490">
        <ele>740.0</ele>
        <time>2019-08-07T08:06:16Z</time>
      </trkpt>
      <trkpt lat="48.7507630" lon="14.0424880">
        <ele>740.2</ele>
        <time>2019-08-07T08:06:17Z</time>
      </trkpt>
      <trkpt lat="48.7507980" lon="14.0425270">
        <ele>740.2</ele>
        <time>2019-08-07T08:06:18Z</time>
      </trkpt>
      <trkpt lat="48.7508300" lon="14.0425670">
        <ele>740.4</ele>
        <time>2019-08-07T08:06:19Z</time>
      </trkpt>
      <trkpt lat="48.7508640" lon="14.0426100">
        <ele>740.4</ele>
        <time>2019-08-07T08:06:20Z</time>
      </trkpt>
      <trkpt lat="48.7508970" lon="14.0426490">
        <ele>740.6</ele>
        <time>2019-08-07T08:06:21Z</time>
      </trkpt>
      <trkpt lat="48.7509300" lon="14.0426860">
        <ele>740.6</ele>
        <time>2019-08-07T08:06:22Z</time>
      </trkpt>
      <trkpt lat="48.7509630" lon="14.0427220">
        <ele>740.6</ele>
        <time>2019-08-07T08:06:23Z</time>
      </trkpt>
      <trkpt lat="48.7509990" lon="14.0427610">
        <ele>740.6</ele>
        <time>2019-08-07T08:06:24Z</time>
      </trkpt>
      <trkpt lat="48.7510340" lon="14.0428000">
        <ele>740.6</ele>
        <time>2019-08-07T08:06:25Z</time>
      </trkpt>
      <trkpt lat="48.7510700" lon="14.0428400">
        <ele>740.6</ele>
        <time>2019-08-07T08:06:26Z</time>
      </trkpt>
      <trkpt lat="48.7511050" lon="14.0428830">
        <ele>740.8</ele>
        <time>2019-08-07T08:06:27Z</time>
      </trkpt>
      <trkpt lat="48.7511380" lon="14.0429270">
        <ele>740.8</ele>
        <time>2019-08-07T08:06:28Z</time>
      </trkpt>
      <trkpt lat="48.7511730" lon="14.0429710">
        <ele>740.8</ele>
        <time>2019-08-07T08:06:29Z</time>
      </trkpt>
      <trkpt lat="48.7512100" lon="14.0430130">
        <ele>740.8</ele>
        <time>2019-08-07T08:06:30Z</time>
      </trkpt>
      <trkpt lat="48.7512450" lon="14.0430550">
        <ele>740.8</ele>
        <time>2019-08-07T08:06:31Z</time>
      </trkpt>
      <trkpt lat="48.7512830" lon="14.0430970">
        <ele>740.8</ele>
        <time>2019-08-07T08:06:32Z</time>
      </trkpt>
      <trkpt lat="48.7513230" lon="14.0431380">
        <ele>740.8</ele>
        <time>2019-08-07T08:06:33Z</time>
      </trkpt>
      <trkpt lat="48.7513630" lon="14.0431800">
        <ele>740.8</ele>
        <time>2019-08-07T08:06:34Z</time>
      </trkpt>
      <trkpt lat="48.7514030" lon="14.0432190">
        <ele>741.0</ele>
        <time>2019-08-07T08:06:35Z</time>
      </trkpt>
      <trkpt lat="48.7514430" lon="14.0432600">
        <ele>741.0</ele>
        <time>2019-08-07T08:06:36Z</time>
      </trkpt>
      <trkpt lat="48.7514850" lon="14.0433040">
        <ele>741.0</ele>
        <time>2019-08-07T08:06:37Z</time>
      </trkpt>
      <trkpt lat="48.7515280" lon="14.0433450">
        <ele>741.0</ele>
        <time>2019-08-07T08:06:38Z</time>
      </trkpt>
      <trkpt lat="48.7515710" lon="14.0433830">
        <ele>741.0</ele>
        <time>2019-08-07T08:06:39Z</time>
      </trkpt>
      <trkpt lat="48.7516130" lon="14.0434180">
        <ele>741.0</ele>
        <time>2019-08-07T08:06:40Z</time>
      </trkpt>
      <trkpt lat="48.7516580" lon="14.0434490">
        <ele>741.0</ele>
        <time>2019-08-07T08:06:41Z</time>
      </trkpt>
      <trkpt lat="48.7517030" lon="14.0434780">
        <ele>741.2</ele>
        <time>2019-08-07T08:06:42Z</time>
      </trkpt>
      <trkpt lat="48.7517470" lon="14.0435040">
        <ele>741.2</ele>
        <time>2019-08-07T08:06:43Z</time>
      </trkpt>
      <trkpt lat="48.7517910" lon="14.0435270">
        <ele>741.2</ele>
        <time>2019-08-07T08:06:44Z</time>
      </trkpt>
      <trkpt lat="48.7518370" lon="14.0435460">
        <ele>741.4</ele>
        <time>2019-08-07T08:06:45Z</time>
      </trkpt>
      <trkpt lat="48.7518830" lon="14.0435640">
        <ele>741.4</ele>
        <time>2019-08-07T08:06:46Z</time>
      </trkpt>
      <trkpt lat="48.7519280" lon="14.0435810">
        <ele>741.4</ele>
        <time>2019-08-07T08:06:47Z</time>
      </trkpt>
      <trkpt lat="48.7519720" lon="14.0435970">
        <ele>741.4</ele>
        <time>2019-08-07T08:06:48Z</time>
      </trkpt>
      <trkpt lat="48.7520150" lon="14.0436140">
        <ele>741.6</ele>
        <time>2019-08-07T08:06:49Z</time>
      </trkpt>
      <trkpt lat="48.7520550" lon="14.0436300">
        <ele>741.6</ele>
        <time>2019-08-07T08:06:50Z</time>
      </trkpt>
      <trkpt lat="48.7520980" lon="14.0436500">
        <ele>741.6</ele>
        <time>2019-08-07T08:06:51Z</time>
      </trkpt>
      <trkpt lat="48.7521400" lon="14.0436690">
        <ele>741.8</ele>
        <time>2019-08-07T08:06:52Z</time>
      </trkpt>
      <trkpt lat="48.7521800" lon="14.0436860">
        <ele>741.8</ele>
        <time>2019-08-07T08:06:53Z</time>
      </trkpt>
      <trkpt lat="48.7522180" lon="14.0436990">
        <ele>741.8</ele>
        <time>2019-08-07T08:06:54Z</time>
      </trkpt>
      <trkpt lat="48.7522580" lon="14.0437080">
        <ele>742.0</ele>
        <time>2019-08-07T08:06:55Z</time>
      </trkpt>
      <trkpt lat="48.7522970" lon="14.0437160">
        <ele>742.0</ele>
        <time>2019-08-07T08:06:56Z</time>
      </trkpt>
      <trkpt lat="48.7523350" lon="14.0437270">
        <ele>742.2</ele>
        <time>2019-08-07T08:06:57Z</time>
      </trkpt>
      <trkpt lat="48.7523730" lon="14.0437410">
        <ele>742.2</ele>
        <time>2019-08-07T08:06:58Z</time>
      </trkpt>
      <trkpt lat="48.7524110" lon="14.0437580">
        <ele>742.4</ele>
        <time>2019-08-07T08:06:59Z</time>
      </trkpt>
      <trkpt lat="48.7524490" lon="14.0437740">
        <ele>742.6</ele>
        <time>2019-08-07T08:07:00Z</time>
      </trkpt>
      <trkpt lat="48.7524890" lon="14.0437870">
        <ele>742.6</ele>
        <time>2019-08-07T08:07:01Z</time>
      </trkpt>
      <trkpt lat="48.7525300" lon="14.0437910">
        <ele>742.8</ele>
        <time>2019-08-07T08:07:02Z</time>
      </trkpt>
      <trkpt lat="48.7525710" lon="14.0437880">
        <ele>742.8</ele>
        <time>2019-08-07T08:07:03Z</time>
      </trkpt>
      <trkpt lat="48.7526070" lon="14.0437770">
        <ele>743.0</ele>
        <time>2019-08-07T08:07:04Z</time>
      </trkpt>
      <trkpt lat="48.7526400" lon="14.0437580">
        <ele>743.0</ele>
        <time>2019-08-07T08:07:05Z</time>
      </trkpt>
      <trkpt lat="48.7526720" lon="14.0437350">
        <ele>743.2</ele>
        <time>2019-08-07T08:07:06Z</time>
      </trkpt>
      <trkpt lat="48.7527010" lon="14.0437060">
        <ele>743.4</ele>
        <time>2019-08-07T08:07:07Z</time>
      </trkpt>
      <trkpt lat="48.7527260" lon="14.0436690">
        <ele>743.4</ele>
        <time>2019-08-07T08:07:08Z</time>
      </trkpt>
      <trkpt lat="48.7527500" lon="14.0436290">
        <ele>743.6</ele>
        <time>2019-08-07T08:07:09Z</time>
      </trkpt>
      <trkpt lat="48.7527730" lon="14.0435900">
        <ele>743.6</ele>
        <time>2019-08-07T08:07:10Z</time>
      </trkpt>
      <trkpt lat="48.7527980" lon="14.0435460">
        <ele>743.6</ele>
        <time>2019-08-07T08:07:11Z</time>
      </trkpt>
      <trkpt lat="48.7528240" lon="14.0435030">
        <ele>743.8</ele>
        <time>2019-08-07T08:07:12Z</time>
      </trkpt>
      <trkpt lat="48.7528490" lon="14.0434610">
        <ele>743.8</ele>
        <time>2019-08-07T08:07:13Z</time>
      </trkpt>
      <trkpt lat="48.7528770" lon="14.0434150">
        <ele>743.8</ele>
        <time>2019-08-07T08:07:14Z</time>
      </trkpt>
      <trkpt lat="48.7529040" lon="14.0433700">
        <ele>744.0</ele>
        <time>2019-08-07T08:07:15Z</time>
      </trkpt>
      <trkpt lat="48.7529300" lon="14.0433290">
        <ele>744.0</ele>
        <time>2019-08-07T08:07:16Z</time>
      </trkpt>
      <trkpt lat="48.7529580" lon="14.0432860">
        <ele>744.0</ele>
        <time>2019-08-07T08:07:17Z</time>
      </trkpt>
      <trkpt lat="48.7529840" lon="14.0432400">
        <ele>744.2</ele>
        <time>2019-08-07T08:07:18Z</time>
      </trkpt>
      <trkpt lat="48.7530100" lon="14.0431930">
        <ele>744.2</ele>
        <time>2019-08-07T08:07:19Z</time>
      </trkpt>
      <trkpt lat="48.7530340" lon="14.0431470">
        <ele>744.4</ele>
        <time>2019-08-07T08:07:20Z</time>
      </trkpt>
      <trkpt lat="48.7530590" lon="14.0431010">
        <ele>744.4</ele>
        <time>2019-08-07T08:07:21Z</time>
      </trkpt>
      <trkpt lat="48.7530830" lon="14.0430560">
        <ele>744.6</ele>
        <time>2019-08-07T08:07:22Z</time>
      </trkpt>
      <trkpt lat="48.7531090" lon="14.0430120">
        <ele>744.6</ele>
        <time>2019-08-07T08:07:23Z</time>
      </trkpt>
      <trkpt lat="48.7531350" lon="14.0429710">
        <ele>744.8</ele>
        <time>2019-08-07T08:07:24Z</time>
      </trkpt>
      <trkpt lat="48.7531620" lon="14.0429280">
        <ele>745.0</ele>
        <time>2019-08-07T08:07:25Z</time>
      </trkpt>
      <trkpt lat="48.7531870" lon="14.0428850">
        <ele>745.2</ele>
        <time>2019-08-07T08:07:26Z</time>
      </trkpt>
      <trkpt lat="48.7532120" lon="14.0428420">
        <ele>745.2</ele>
        <time>2019-08-07T08:07:27Z</time>
      </trkpt>
      <trkpt lat="48.7532380" lon="14.0427990">
        <ele>745.4</ele>
        <time>2019-08-07T08:07:28Z</time>
      </trkpt>
      <trkpt lat="48.7532650" lon="14.0427570">
        <ele>745.6</ele>
        <time>2019-08-07T08:07:29Z</time>
      </trkpt>
      <trkpt lat="48.7532910" lon="14.0427130">
        <ele>745.8</ele>
        <time>2019-08-07T08:07:30Z</time>
      </trkpt>
      <trkpt lat="48.7533160" lon="14.0426660">
        <ele>745.8</ele>
        <time>2019-08-07T08:07:31Z</time>
      </trkpt>
      <trkpt lat="48.7533430" lon="14.0426210">
        <ele>746.0</ele>
        <time>2019-08-07T08:07:32Z</time>
      </trkpt>
      <trkpt lat="48.7533730" lon="14.0425760">
        <ele>746.2</ele>
        <time>2019-08-07T08:07:33Z</time>
      </trkpt>
      <trkpt lat="48.7534030" lon="14.0425310">
        <ele>746.2</ele>
        <time>2019-08-07T08:07:34Z</time>
      </trkpt>
      <trkpt lat="48.7534330" lon="14.0424870">
        <ele>746.4</ele>
        <time>2019-08-07T08:07:35Z</time>
      </trkpt>
      <trkpt lat="48.7534620" lon="14.0424420">
        <ele>746.6</ele>
        <time>2019-08-07T08:07:36Z</time>
      </trkpt>
      <trkpt lat="48.7534910" lon="14.0423960">
        <ele>746.8</ele>
        <time>2019-08-07T08:07:37Z</time>
      </trkpt>
      <trkpt lat="48.7535200" lon="14.0423480">
        <ele>747.0</ele>
        <time>2019-08-07T08:07:38Z</time>
      </trkpt>
      <trkpt lat="48.7535470" lon="14.0422970">
        <ele>747.2</ele>
        <time>2019-08-07T08:07:39Z</time>
      </trkpt>
      <trkpt lat="48.7535750" lon="14.0422520">
        <ele>747.4</ele>
        <time>2019-08-07T08:07:40Z</time>
      </trkpt>
      <trkpt lat="48.7536050" lon="14.0422080">
        <ele>747.8</ele>
        <time>2019-08-07T08:07:41Z</time>
      </trkpt>
      <trkpt lat="48.7536370" lon="14.0421660">
        <ele>748.0</ele>
        <time>2019-08-07T08:07:42Z</time>
      </trkpt>
      <trkpt lat="48.7536690" lon="14.0421240">
        <ele>748.2</ele>
        <time>2019-08-07T08:07:43Z</time>
      </trkpt>
      <trkpt lat="48.7536990" lon="14.0420800">
        <ele>748.4</ele>
        <time>2019-08-07T08:07:44Z</time>
      </trkpt>
      <trkpt lat="48.7537280" lon="14.0420330">
        <ele>748.4</ele>
        <time>2019-08-07T08:07:45Z</time>
      </trkpt>
      <trkpt lat="48.7537560" lon="14.0419850">
        <ele>748.6</ele>
        <time>2019-08-07T08:07:46Z</time>
      </trkpt>
      <trkpt lat="48.7537840" lon="14.0419380">
        <ele>748.8</ele>
        <time>2019-08-07T08:07:47Z</time>
      </trkpt>
      <trkpt lat="48.7538120" lon="14.0418910">
        <ele>748.8</ele>
        <time>2019-08-07T08:07:48Z</time>
      </trkpt>
      <trkpt lat="48.7538390" lon="14.0418420">
        <ele>749.0</ele>
        <time>2019-08-07T08:07:49Z</time>
      </trkpt>
      <trkpt lat="48.7538660" lon="14.0417930">
        <ele>749.2</ele>
        <time>2019-08-07T08:07:50Z</time>
      </trkpt>
      <trkpt lat="48.7538920" lon="14.0417460">
        <ele>749.4</ele>
        <time>2019-08-07T08:07:51Z</time>
      </trkpt>
      <trkpt lat="48.7539170" lon="14.0417020">
        <ele>749.6</ele>
        <time>2019-08-07T08:07:52Z</time>
      </trkpt>
      <trkpt lat="48.7539440" lon="14.0416570">
        <ele>749.8</ele>
        <time>2019-08-07T08:07:53Z</time>
      </trkpt>
      <trkpt lat="48.7539680" lon="14.0416110">
        <ele>749.8</ele>
        <time>2019-08-07T08:07:54Z</time>
      </trkpt>
      <trkpt lat="48.7539920" lon="14.0415620">
        <ele>750.0</ele>
        <time>2019-08-07T08:07:55Z</time>
      </trkpt>
      <trkpt lat="48.7540160" lon="14.0415120">
        <ele>750.2</ele>
        <time>2019-08-07T08:07:56Z</time>
      </trkpt>
      <trkpt lat="48.7540390" lon="14.0414610">
        <ele>750.2</ele>
        <time>2019-08-07T08:07:57Z</time>
      </trkpt>
      <trkpt lat="48.7540640" lon="14.0414100">
        <ele>750.4</ele>
        <time>2019-08-07T08:07:58Z</time>
      </trkpt>
      <trkpt lat="48.7540890" lon="14.0413600">
        <ele>750.4</ele>
        <time>2019-08-07T08:07:59Z</time>
      </trkpt>
      <trkpt lat="48.7541180" lon="14.0413150">
        <ele>750.4</ele>
        <time>2019-08-07T08:08:00Z</time>
      </trkpt>
      <trkpt lat="48.7541540" lon="14.0412710">
        <ele>750.6</ele>
        <time>2019-08-07T08:08:01Z</time>
      </trkpt>
      <trkpt lat="48.7541880" lon="14.0412340">
        <ele>750.6</ele>
        <time>2019-08-07T08:08:02Z</time>
      </trkpt>
      <trkpt lat="48.7542250" lon="14.0412000">
        <ele>750.6</ele>
        <time>2019-08-07T08:08:03Z</time>
      </trkpt>
      <trkpt lat="48.7542640" lon="14.0411690">
        <ele>750.8</ele>
        <time>2019-08-07T08:08:04Z</time>
      </trkpt>
      <trkpt lat="48.7543040" lon="14.0411440">
        <ele>751.0</ele>
        <time>2019-08-07T08:08:05Z</time>
      </trkpt>
      <trkpt lat="48.7543470" lon="14.0411260">
        <ele>751.0</ele>
        <time>2019-08-07T08:08:06Z</time>
      </trkpt>
      <trkpt lat="48.7543900" lon="14.0411130">
        <ele>751.2</ele>
        <time>2019-08-07T08:08:07Z</time>
      </trkpt>
      <trkpt lat="48.7544380" lon="14.0411050">
        <ele>751.4</ele>
        <time>2019-08-07T08:08:08Z</time>
      </trkpt>
      <trkpt lat="48.7544820" lon="14.0411030">
        <ele>751.4</ele>
        <time>2019-08-07T08:08:09Z</time>
      </trkpt>
      <trkpt lat="48.7545300" lon="14.0411070">
        <ele>751.6</ele>
        <time>2019-08-07T08:08:10Z</time>
      </trkpt>
      <trkpt lat="48.7545770" lon="14.0411150">
        <ele>751.8</ele>
        <time>2019-08-07T08:08:11Z</time>
      </trkpt>
      <trkpt lat="48.7546230" lon="14.0411260">
        <ele>752.0</ele>
        <time>2019-08-07T08:08:12Z</time>
      </trkpt>
      <trkpt lat="48.7546680" lon="14.0411410">
        <ele>752.2</ele>
        <time>2019-08-07T08:08:13Z</time>
      </trkpt>
      <trkpt lat="48.7547100" lon="14.0411590">
        <ele>752.4</ele>
        <time>2019-08-07T08:08:14Z</time>
      </trkpt>
      <trkpt lat="48.7547500" lon="14.0411760">
        <ele>752.6</ele>
        <time>2019-08-07T08:08:15Z</time>
      </trkpt>
      <trkpt lat="48.7547890" lon="14.0411940">
        <ele>752.8</ele>
        <time>2019-08-07T08:08:16Z</time>
      </trkpt>
      <trkpt lat="48.7548270" lon="14.0412130">
        <ele>753.2</ele>
        <time>2019-08-07T08:08:17Z</time>
      </trkpt>
      <trkpt lat="48.7548660" lon="14.0412350">
        <ele>753.4</ele>
        <time>2019-08-07T08:08:18Z</time>
      </trkpt>
      <trkpt lat="48.7549040" lon="14.0412580">
        <ele>753.6</ele>
        <time>2019-08-07T08:08:19Z</time>
      </trkpt>
      <trkpt lat="48.7549400" lon="14.0412780">
        <ele>753.8</ele>
        <time>2019-08-07T08:08:20Z</time>
      </trkpt>
      <trkpt lat="48.7549740" lon="14.0412960">
        <ele>754.0</ele>
        <time>2019-08-07T08:08:21Z</time>
      </trkpt>
      <trkpt lat="48.7550080" lon="14.0413110">
        <ele>754.2</ele>
        <time>2019-08-07T08:08:22Z</time>
      </trkpt>
      <trkpt lat="48.7550430" lon="14.0413250">
        <ele>754.4</ele>
        <time>2019-08-07T08:08:23Z</time>
      </trkpt>
      <trkpt lat="48.7550760" lon="14.0413410">
        <ele>754.6</ele>
        <time>2019-08-07T08:08:24Z</time>
      </trkpt>
      <trkpt lat="48.7551090" lon="14.0413580">
        <ele>754.8</ele>
        <time>2019-08-07T08:08:25Z</time>
      </trkpt>
      <trkpt lat="48.7551410" lon="14.0413760">
        <ele>755.0</ele>
        <time>2019-08-07T08:08:26Z</time>
      </trkpt>
      <trkpt lat="48.7551680" lon="14.0413930">
        <ele>755.0</ele>
        <time>2019-08-07T08:08:27Z</time>
      </trkpt>
      <trkpt lat="48.7551950" lon="14.0414070">
        <ele>755.2</ele>
        <time>2019-08-07T08:08:28Z</time>
      </trkpt>
      <trkpt lat="48.7552210" lon="14.0414200">
        <ele>755.6</ele>
        <time>2019-08-07T08:08:29Z</time>
      </trkpt>
      <trkpt lat="48.7552440" lon="14.0414340">
        <ele>755.8</ele>
        <time>2019-08-07T08:08:30Z</time>
      </trkpt>
      <trkpt lat="48.7552680" lon="14.0414480">
        <ele>756.0</ele>
        <time>2019-08-07T08:08:31Z</time>
      </trkpt>
      <trkpt lat="48.7552880" lon="14.0414650">
        <ele>756.2</ele>
        <time>2019-08-07T08:08:32Z</time>
      </trkpt>
      <trkpt lat="48.7553060" lon="14.0414840">
        <ele>756.4</ele>
        <time>2019-08-07T08:08:33Z</time>
      </trkpt>
      <trkpt lat="48.7553240" lon="14.0415050">
        <ele>756.6</ele>
        <time>2019-08-07T08:08:34Z</time>
      </trkpt>
      <trkpt lat="48.7553380" lon="14.0415280">
        <ele>757.0</ele>
        <time>2019-08-07T08:08:35Z</time>
      </trkpt>
      <trkpt lat="48.7553470" lon="14.0415540">
        <ele>757.2</ele>
        <time>2019-08-07T08:08:36Z</time>
      </trkpt>
      <trkpt lat="48.7553510" lon="14.0415870">
        <ele>757.4</ele>
        <time>2019-08-07T08:08:37Z</time>
      </trkpt>
      <trkpt lat="48.7553480" lon="14.0416230">
        <ele>757.8</ele>
        <time>2019-08-07T08:08:38Z</time>
      </trkpt>
      <trkpt lat="48.7553400" lon="14.0416590">
        <ele>758.0</ele>
        <time>2019-08-07T08:08:39Z</time>
      </trkpt>
      <trkpt lat="48.7553320" lon="14.0416960">
        <ele>758.0</ele>
        <time>2019-08-07T08:08:40Z</time>
      </trkpt>
      <trkpt lat="48.7553210" lon="14.0417350">
        <ele>758.2</ele>
        <time>2019-08-07T08:08:41Z</time>
      </trkpt>
      <trkpt lat="48.7553110" lon="14.0417750">
        <ele>758.4</ele>
        <time>2019-08-07T08:08:42Z</time>
      </trkpt>
      <trkpt lat="48.7553010" lon="14.0418160">
        <ele>758.4</ele>
        <time>2019-08-07T08:08:43Z</time>
      </trkpt>
      <trkpt lat="48.7552890" lon="14.0418640">
        <ele>758.6</ele>
        <time>2019-08-07T08:08:44Z</time>
      </trkpt>
      <trkpt lat="48.7552790" lon="14.0419130">
        <ele>758.6</ele>
        <time>2019-08-07T08:08:45Z</time>
      </trkpt>
      <trkpt lat="48.7552690" lon="14.0419650">
        <ele>758.8</ele>
        <time>2019-08-07T08:08:46Z</time>
      </trkpt>
      <trkpt lat="48.7552630" lon="14.0420190">
        <ele>758.8</ele>
        <time>2019-08-07T08:08:47Z</time>
      </trkpt>
      <trkpt lat="48.7552550" lon="14.0420750">
        <ele>758.8</ele>
        <time>2019-08-07T08:08:48Z</time>
      </trkpt>
      <trkpt lat="48.7552480" lon="14.0421310">
        <ele>759.0</ele>
        <time>2019-08-07T08:08:49Z</time>
      </trkpt>
      <trkpt lat="48.7552400" lon="14.0421870">
        <ele>759.0</ele>
        <time>2019-08-07T08:08:50Z</time>
      </trkpt>
      <trkpt lat="48.7552310" lon="14.0422450">
        <ele>759.0</ele>
        <time>2019-08-07T08:08:51Z</time>
      </trkpt>
      <trkpt lat="48.7552220" lon="14.0423050">
        <ele>759.2</ele>
        <time>2019-08-07T08:08:52Z</time>
      </trkpt>
      <trkpt lat="48.7552100" lon="14.0423650">
        <ele>759.2</ele>
        <time>2019-08-07T08:08:53Z</time>
      </trkpt>
      <trkpt lat="48.7551980" lon="14.0424240">
        <ele>759.2</ele>
        <time>2019-08-07T08:08:54Z</time>
      </trkpt>
      <trkpt lat="48.7551860" lon="14.0424850">
        <ele>759.2</ele>
        <time>2019-08-07T08:08:55Z</time>
      </trkpt>
      <trkpt lat="48.7551720" lon="14.0425440">
        <ele>759.2</ele>
        <time>2019-08-07T08:08:56Z</time>
      </trkpt>
      <trkpt lat="48.7551560" lon="14.0426090">
        <ele>759.4</ele>
        <time>2019-08-07T08:08:57Z</time>
      </trkpt>
      <trkpt lat="48.7551380" lon="14.0426740">
        <ele>759.4</ele>
        <time>2019-08-07T08:08:58Z</time>
      </trkpt>
      <trkpt lat="48.7551180" lon="14.0427410">
        <ele>759.4</ele>
        <time>2019-08-07T08:08:59Z</time>
      </trkpt>
      <trkpt lat="48.7550980" lon="14.0428090">
        <ele>759.2</ele>
        <time>2019-08-07T08:09:00Z</time>
      </trkpt>
      <trkpt lat="48.7550770" lon="14.0428790">
        <ele>759.2</ele>
        <time>2019-08-07T08:09:01Z</time>
      </trkpt>
      <trkpt lat="48.7550540" lon="14.0429510">
        <ele>759.0</ele>
        <time>2019-08-07T08:09:02Z</time>
      </trkpt>
      <trkpt lat="48.7550310" lon="14.0430200">
        <ele>759.0</ele>
        <time>2019-08-07T08:09:03Z</time>
      </trkpt>
      <trkpt lat="48.7550060" lon="14.0431030">
        <ele>759.0</ele>
        <time>2019-08-07T08:09:04Z</time>
      </trkpt>
      <trkpt lat="48.7549790" lon="14.0431900">
        <ele>758.8</ele>
        <time>2019-08-07T08:09:05Z</time>
      </trkpt>
      <trkpt lat="48.7549550" lon="14.0432730">
        <ele>758.8</ele>
        <time>2019-08-07T08:09:06Z</time>
      </trkpt>
      <trkpt lat="48.7549310" lon="14.0433620">
        <ele>758.6</ele>
        <time>2019-08-07T08:09:07Z</time>
      </trkpt>
      <trkpt lat="48.7549090" lon="14.0434530">
        <ele>758.6</ele>
        <time>2019-08-07T08:09:08Z</time>
      </trkpt>
      <trkpt lat="48.7548870" lon="14.0435460">
        <ele>758.4</ele>
        <time>2019-08-07T08:09:09Z</time>
      </trkpt>
      <trkpt lat="48.7548670" lon="14.0436420">
        <ele>758.4</ele>
        <time>2019-08-07T08:09:10Z</time>
      </trkpt>
      <trkpt lat="48.7548490" lon="14.0437410">
        <ele>758.4</ele>
        <time>2019-08-07T08:09:11Z</time>
      </trkpt>
      <trkpt lat="48.7548320" lon="14.0438410">
        <ele>758.2</ele>
        <time>2019-08-07T08:09:12Z</time>
      </trkpt>
      <trkpt lat="48.7548170" lon="14.0439390">
        <ele>758.2</ele>
        <time>2019-08-07T08:09:13Z</time>
      </trkpt>
      <trkpt lat="48.7548030" lon="14.0440420">
        <ele>758.2</ele>
        <time>2019-08-07T08:09:14Z</time>
      </trkpt>
      <trkpt lat="48.7547910" lon="14.0441430">
        <ele>758.2</ele>
        <time>2019-08-07T08:09:15Z</time>
      </trkpt>
      <trkpt lat="48.7547820" lon="14.0442460">
        <ele>758.2</ele>
        <time>2019-08-07T08:09:16Z</time>
      </trkpt>
      <trkpt lat="48.7547760" lon="14.0443480">
        <ele>758.0</ele>
        <time>2019-08-07T08:09:17Z</time>
      </trkpt>
      <trkpt lat="48.7547700" lon="14.0444490">
        <ele>757.8</ele>
        <time>2019-08-07T08:09:18Z</time>
      </trkpt>
      <trkpt lat="48.7547650" lon="14.0445510">
        <ele>757.8</ele>
        <time>2019-08-07T08:09:19Z</time>
      </trkpt>
      <trkpt lat="48.7547580" lon="14.0446490">
        <ele>757.8</ele>
        <time>2019-08-07T08:09:20Z</time>
      </trkpt>
      <trkpt lat="48.7547530" lon="14.0447430">
        <ele>757.8</ele>
        <time>2019-08-07T08:09:21Z</time>
      </trkpt>
      <trkpt lat="48.7547470" lon="14.0448330">
        <ele>757.8</ele>
        <time>2019-08-07T08:09:22Z</time>
      </trkpt>
      <trkpt lat="48.7547400" lon="14.0449220">
        <ele>758.0</ele>
        <time>2019-08-07T08:09:23Z</time>
      </trkpt>
      <trkpt lat="48.7547330" lon="14.0450080">
        <ele>758.0</ele>
        <time>2019-08-07T08:09:24Z</time>
      </trkpt>
      <trkpt lat="48.7547280" lon="14.0450920">
        <ele>758.2</ele>
        <time>2019-08-07T08:09:25Z</time>
      </trkpt>
      <trkpt lat="48.7547250" lon="14.0451710">
        <ele>758.2</ele>
        <time>2019-08-07T08:09:26Z</time>
      </trkpt>
      <trkpt lat="48.7547240" lon="14.0452480">
        <ele>758.4</ele>
        <time>2019-08-07T08:09:27Z</time>
      </trkpt>
      <trkpt lat="48.7547210" lon="14.0453240">
        <ele>758.6</ele>
        <time>2019-08-07T08:09:28Z</time>
      </trkpt>
      <trkpt lat="48.7547170" lon="14.0453940">
        <ele>758.8</ele>
        <time>2019-08-07T08:09:29Z</time>
      </trkpt>
      <trkpt lat="48.7547140" lon="14.0454660">
        <ele>759.0</ele>
        <time>2019-08-07T08:09:30Z</time>
      </trkpt>
      <trkpt lat="48.7547110" lon="14.0455430">
        <ele>759.0</ele>
        <time>2019-08-07T08:09:31Z</time>
      </trkpt>
      <trkpt lat="48.7547060" lon="14.0456100">
        <ele>759.4</ele>
        <time>2019-08-07T08:09:32Z</time>
      </trkpt>
      <trkpt lat="48.7547020" lon="14.0456710">
        <ele>759.6</ele>
        <time>2019-08-07T08:09:33Z</time>
      </trkpt>
      <trkpt lat="48.7546980" lon="14.0457280">
        <ele>759.8</ele>
        <time>2019-08-07T08:09:34Z</time>
      </trkpt>
      <trkpt lat="48.7546950" lon="14.0457800">
        <ele>760.0</ele>
        <time>2019-08-07T08:09:35Z</time>
      </trkpt>
      <trkpt lat="48.7546940" lon="14.0458320">
        <ele>760.2</ele>
        <time>2019-08-07T08:09:36Z</time>
      </trkpt>
      <trkpt lat="48.7546930" lon="14.0458860">
        <ele>760.4</ele>
        <time>2019-08-07T08:09:37Z</time>
      </trkpt>
      <trkpt lat="48.7546950" lon="14.0459360">
        <ele>760.6</ele>
        <time>2019-08-07T08:09:38Z</time>
      </trkpt>
      <trkpt lat="48.7546940" lon="14.0459860">
        <ele>760.8</ele>
        <time>2019-08-07T08:09:39Z</time>
      </trkpt>
      <trkpt lat="48.7546910" lon="14.0460350">
        <ele>761.0</ele>
        <time>2019-08-07T08:09:40Z</time>
      </trkpt>
      <trkpt lat="48.7546870" lon="14.0460840">
        <ele>761.2</ele>
        <time>2019-08-07T08:09:41Z</time>
      </trkpt>
      <trkpt lat="48.7546830" lon="14.0461300">
        <ele>761.4</ele>
        <time>2019-08-07T08:09:42Z</time>
      </trkpt>
      <trkpt lat="48.7546800" lon="14.0461740">
        <ele>761.8</ele>
        <time>2019-08-07T08:09:43Z</time>
      </trkpt>
      <trkpt lat="48.7546790" lon="14.0462200">
        <ele>762.0</ele>
        <time>2019-08-07T08:09:44Z</time>
      </trkpt>
      <trkpt lat="48.7546770" lon="14.0462640">
        <ele>762.2</ele>
        <time>2019-08-07T08:09:45Z</time>
      </trkpt>
      <trkpt lat="48.7546730" lon="14.0463070">
        <ele>762.4</ele>
        <time>2019-08-07T08:09:46Z</time>
      </trkpt>
      <trkpt lat="48.7546640" lon="14.0463490">
        <ele>762.6</ele>
        <time>2019-08-07T08:09:47Z</time>
      </trkpt>
      <trkpt lat="48.7546550" lon="14.0463910">
        <ele>762.8</ele>
        <time>2019-08-07T08:09:48Z</time>
      </trkpt>
      <trkpt lat="48.7546490" lon="14.0464330">
        <ele>763.2</ele>
        <time>2019-08-07T08:09:49Z</time>
      </trkpt>
      <trkpt lat="48.7546480" lon="14.0464680">
        <ele>763.4</ele>
        <time>2019-08-07T08:09:50Z</time>
      </trkpt>
      <trkpt lat="48.7546480" lon="14.0465080">
        <ele>763.6</ele>
        <time>2019-08-07T08:09:51Z</time>
      </trkpt>
      <trkpt lat="48.7546450" lon="14.0465520">
        <ele>763.8</ele>
        <time>2019-08-07T08:09:52Z</time>
      </trkpt>
      <trkpt lat="48.7546390" lon="14.0465950">
        <ele>764.0</ele>
        <time>2019-08-07T08:09:53Z</time>
      </trkpt>
      <trkpt lat="48.7546350" lon="14.0466390">
        <ele>764.2</ele>
        <time>2019-08-07T08:09:54Z</time>
      </trkpt>
      <trkpt lat="48.7546310" lon="14.0466810">
        <ele>764.6</ele>
        <time>2019-08-07T08:09:55Z</time>
      </trkpt>
      <trkpt lat="48.7546240" lon="14.0467220">
        <ele>764.8</ele>
        <time>2019-08-07T08:09:56Z</time>
      </trkpt>
      <trkpt lat="48.7546160" lon="14.0467660">
        <ele>765.0</ele>
        <time>2019-08-07T08:09:57Z</time>
      </trkpt>
      <trkpt lat="48.7546070" lon="14.0468100">
        <ele>765.2</ele>
        <time>2019-08-07T08:09:58Z</time>
      </trkpt>
      <trkpt lat="48.7545960" lon="14.0468570">
        <ele>765.6</ele>
        <time>2019-08-07T08:09:59Z</time>
      </trkpt>
      <trkpt lat="48.7545890" lon="14.0468900">
        <ele>765.8</ele>
        <time>2019-08-07T08:10:00Z</time>
      </trkpt>
      <trkpt lat="48.7545820" lon="14.0469330">
        <ele>766.0</ele>
        <time>2019-08-07T08:10:01Z</time>
      </trkpt>
      <trkpt lat="48.7545740" lon="14.0469820">
        <ele>766.2</ele>
        <time>2019-08-07T08:10:02Z</time>
      </trkpt>
      <trkpt lat="48.7545640" lon="14.0470310">
        <ele>766.4</ele>
        <time>2019-08-07T08:10:03Z</time>
      </trkpt>
      <trkpt lat="48.7545540" lon="14.0470740">
        <ele>766.6</ele>
        <time>2019-08-07T08:10:04Z</time>
      </trkpt>
      <trkpt lat="48.7545440" lon="14.0471160">
        <ele>767.0</ele>
        <time>2019-08-07T08:10:05Z</time>
      </trkpt>
      <trkpt lat="48.7545340" lon="14.0471580">
        <ele>767.2</ele>
        <time>2019-08-07T08:10:06Z</time>
      </trkpt>
      <trkpt lat="48.7545200" lon="14.0472040">
        <ele>767.4</ele>
        <time>2019-08-07T08:10:07Z</time>
      </trkpt>
      <trkpt lat="48.7545080" lon="14.0472440">
        <ele>767.6</ele>
        <time>2019-08-07T08:10:08Z</time>
      </trkpt>
      <trkpt lat="48.7544960" lon="14.0472880">
        <ele>767.8</ele>
        <time>2019-08-07T08:10:09Z</time>
      </trkpt>
      <trkpt lat="48.7544830" lon="14.0473310">
        <ele>768.0</ele>
        <time>2019-08-07T08:10:10Z</time>
      </trkpt>
      <trkpt lat="48.7544690" lon="14.0473740">
        <ele>768.2</ele>
        <time>2019-08-07T08:10:11Z</time>
      </trkpt>
      <trkpt lat="48.7544530" lon="14.0474170">
        <ele>768.4</ele>
        <time>2019-08-07T08:10:12Z</time>
      </trkpt>
      <trkpt lat="48.7544370" lon="14.0474600">
        <ele>768.4</ele>
        <time>2019-08-07T08:10:13Z</time>
      </trkpt>
      <trkpt lat="48.7544210" lon="14.0475020">
        <ele>768.6</ele>
        <time>2019-08-07T08:10:14Z</time>
      </trkpt>
      <trkpt lat="48.7544040" lon="14.0475460">
        <ele>768.8</ele>
        <time>2019-08-07T08:10:15Z</time>
      </trkpt>
      <trkpt lat="48.7543880" lon="14.0475880">
        <ele>769.0</ele>
        <time>2019-08-07T08:10:16Z</time>
      </trkpt>
      <trkpt lat="48.7543720" lon="14.0476310">
        <ele>769.0</ele>
        <time>2019-08-07T08:10:17Z</time>
      </trkpt>
      <trkpt lat="48.7543530" lon="14.0476720">
        <ele>769.2</ele>
        <time>2019-08-07T08:10:18Z</time>
      </trkpt>
      <trkpt lat="48.7543330" lon="14.0477150">
        <ele>769.2</ele>
        <time>2019-08-07T08:10:19Z</time>
      </trkpt>
      <trkpt lat="48.7543150" lon="14.0477570">
        <ele>769.4</ele>
        <time>2019-08-07T08:10:20Z</time>
      </trkpt>
      <trkpt lat="48.7542970" lon="14.0478010">
        <ele>769.4</ele>
        <time>2019-08-07T08:10:21Z</time>
      </trkpt>
      <trkpt lat="48.7542800" lon="14.0478470">
        <ele>769.4</ele>
        <time>2019-08-07T08:10:22Z</time>
      </trkpt>
      <trkpt lat="48.7542600" lon="14.0478910">
        <ele>769.4</ele>
        <time>2019-08-07T08:10:23Z</time>
      </trkpt>
      <trkpt lat="48.7542400" lon="14.0479330">
        <ele>769.4</ele>
        <time>2019-08-07T08:10:24Z</time>
      </trkpt>
      <trkpt lat="48.7542190" lon="14.0479880">
        <ele>769.4</ele>
        <time>2019-08-07T08:10:25Z</time>
      </trkpt>
      <trkpt lat="48.7541940" lon="14.0480470">
        <ele>769.4</ele>
        <time>2019-08-07T08:10:26Z</time>
      </trkpt>
      <trkpt lat="48.7541670" lon="14.0481030">
        <ele>769.4</ele>
        <time>2019-08-07T08:10:27Z</time>
      </trkpt>
      <trkpt lat="48.7541350" lon="14.0481640">
        <ele>769.4</ele>
        <time>2019-08-07T08:10:28Z</time>
      </trkpt>
      <trkpt lat="48.7541040" lon="14.0482300">
        <ele>769.2</ele>
        <time>2019-08-07T08:10:29Z</time>
      </trkpt>
      <trkpt lat="48.7540720" lon="14.0482980">
        <ele>769.2</ele>
        <time>2019-08-07T08:10:30Z</time>
      </trkpt>
      <trkpt lat="48.7540390" lon="14.0483670">
        <ele>769.0</ele>
        <time>2019-08-07T08:10:31Z</time>
      </trkpt>
      <trkpt lat="48.7540010" lon="14.0484380">
        <ele>768.8</ele>
        <time>2019-08-07T08:10:32Z</time>
      </trkpt>
      <trkpt lat="48.7539630" lon="14.0485120">
        <ele>768.8</ele>
        <time>2019-08-07T08:10:33Z</time>
      </trkpt>
      <trkpt lat="48.7539260" lon="14.0485900">
        <ele>768.6</ele>
        <time>2019-08-07T08:10:34Z</time>
      </trkpt>
      <trkpt lat="48.7538920" lon="14.0486730">
        <ele>768.4</ele>
        <time>2019-08-07T08:10:35Z</time>
      </trkpt>
      <trkpt lat="48.7538610" lon="14.0487590">
        <ele>768.4</ele>
        <time>2019-08-07T08:10:36Z</time>
      </trkpt>
      <trkpt lat="48.7538350" lon="14.0488550">
        <ele>768.2</ele>
        <time>2019-08-07T08:10:37Z</time>
      </trkpt>
      <trkpt lat="48.7538110" lon="14.0489530">
        <ele>768.0</ele>
        <time>2019-08-07T08:10:38Z</time>
      </trkpt>
      <trkpt lat="48.7537900" lon="14.0490420">
        <ele>768.0</ele>
        <time>2019-08-07T08:10:39Z</time>
      </trkpt>
      <trkpt lat="48.7537710" lon="14.0491260">
        <ele>767.8</ele>
        <time>2019-08-07T08:10:40Z</time>
      </trkpt>
      <trkpt lat="48.7537510" lon="14.0492130">
        <ele>767.8</ele>
        <time>2019-08-07T08:10:41Z</time>
      </trkpt>
      <trkpt lat="48.7537280" lon="14.0493040">
        <ele>767.8</ele>
        <time>2019-08-07T08:10:42Z</time>
      </trkpt>
      <trkpt lat="48.7537020" lon="14.0493940">
        <ele>767.8</ele>
        <time>2019-08-07T08:10:43Z</time>
      </trkpt>
      <trkpt lat="48.7536730" lon="14.0494800">
        <ele>767.6</ele>
        <time>2019-08-07T08:10:44Z</time>
      </trkpt>
      <trkpt lat="48.7536400" lon="14.0495650">
        <ele>767.6</ele>
        <time>2019-08-07T08:10:45Z</time>
      </trkpt>
      <trkpt lat="48.7536100" lon="14.0496450">
        <ele>767.6</ele>
        <time>2019-08-07T08:10:46Z</time>
      </trkpt>
      <trkpt lat="48.7535840" lon="14.0497230">
        <ele>767.6</ele>
        <time>2019-08-07T08:10:47Z</time>
      </trkpt>
      <trkpt lat="48.7535580" lon="14.0498020">
        <ele>767.6</ele>
        <time>2019-08-07T08:10:48Z</time>
      </trkpt>
      <trkpt lat="48.7535360" lon="14.0498870">
        <ele>767.6</ele>
        <time>2019-08-07T08:10:49Z</time>
      </trkpt>
      <trkpt lat="48.7535160" lon="14.0499720">
        <ele>767.6</ele>
        <time>2019-08-07T08:10:50Z</time>
      </trkpt>
      <trkpt lat="48.7534980" lon="14.0500620">
        <ele>767.6</ele>
        <time>2019-08-07T08:10:51Z</time>
      </trkpt>
      <trkpt lat="48.7534820" lon="14.0501510">
        <ele>767.6</ele>
        <time>2019-08-07T08:10:52Z</time>
      </trkpt>
      <trkpt lat="48.7534720" lon="14.0502410">
        <ele>767.4</ele>
        <time>2019-08-07T08:10:53Z</time>
      </trkpt>
      <trkpt lat="48.7534650" lon="14.0503330">
        <ele>767.4</ele>
        <time>2019-08-07T08:10:54Z</time>
      </trkpt>
      <trkpt lat="48.7534530" lon="14.0504300">
        <ele>767.4</ele>
        <time>2019-08-07T08:10:55Z</time>
      </trkpt>
      <trkpt lat="48.7534400" lon="14.0505250">
        <ele>767.4</ele>
        <time>2019-08-07T08:10:56Z</time>
      </trkpt>
      <trkpt lat="48.7534260" lon="14.0506100">
        <ele>767.4</ele>
        <time>2019-08-07T08:10:57Z</time>
      </trkpt>
      <trkpt lat="48.7534090" lon="14.0506960">
        <ele>767.4</ele>
        <time>2019-08-07T08:10:58Z</time>
      </trkpt>
      <trkpt lat="48.7533940" lon="14.0507940">
        <ele>767.4</ele>
        <time>2019-08-07T08:10:59Z</time>
      </trkpt>
      <trkpt lat="48.7533800" lon="14.0508850">
        <ele>767.4</ele>
        <time>2019-08-07T08:11:00Z</time>
      </trkpt>
      <trkpt lat="48.7533720" lon="14.0509730">
        <ele>767.4</ele>
        <time>2019-08-07T08:11:01Z</time>
      </trkpt>
      <trkpt lat="48.7533630" lon="14.0510590">
        <ele>767.4</ele>
        <time>2019-08-07T08:11:02Z</time>
      </trkpt>
      <trkpt lat="48.7533490" lon="14.0511410">
        <ele>767.4</ele>
        <time>2019-08-07T08:11:03Z</time>
      </trkpt>
      <trkpt lat="48.7533340" lon="14.0512200">
        <ele>767.4</ele>
        <time>2019-08-07T08:11:04Z</time>
      </trkpt>
      <trkpt lat="48.7533200" lon="14.0512980">
        <ele>767.2</ele>
        <time>2019-08-07T08:11:05Z</time>
      </trkpt>
      <trkpt lat="48.7533090" lon="14.0513790">
        <ele>767.2</ele>
        <time>2019-08-07T08:11:06Z</time>
      </trkpt>
      <trkpt lat="48.7532960" lon="14.0514690">
        <ele>767.2</ele>
        <time>2019-08-07T08:11:07Z</time>
      </trkpt>
      <trkpt lat="48.7532820" lon="14.0515670">
        <ele>767.0</ele>
        <time>2019-08-07T08:11:08Z</time>
      </trkpt>
      <trkpt lat="48.7532710" lon="14.0516670">
        <ele>766.8</ele>
        <time>2019-08-07T08:11:09Z</time>
      </trkpt>
      <trkpt lat="48.7532610" lon="14.0517660">
        <ele>766.8</ele>
        <time>2019-08-07T08:11:10Z</time>
      </trkpt>
      <trkpt lat="48.7532550" lon="14.0518710">
        <ele>766.8</ele>
        <time>2019-08-07T08:11:11Z</time>
      </trkpt>
      <trkpt lat="48.7532560" lon="14.0519730">
        <ele>766.6</ele>
        <time>2019-08-07T08:11:12Z</time>
      </trkpt>
      <trkpt lat="48.7532620" lon="14.0520760">
        <ele>766.6</ele>
        <time>2019-08-07T08:11:13Z</time>
      </trkpt>
      <trkpt lat="48.7532650" lon="14.0521770">
        <ele>766.6</ele>
        <time>2019-08-07T08:11:14Z</time>
      </trkpt>
      <trkpt lat="48.7532610" lon="14.0522710">
        <ele>766.6</ele>
        <time>2019-08-07T08:11:15Z</time>
      </trkpt>
      <trkpt lat="48.7532530" lon="14.0523650">
        <ele>766.6</ele>
        <time>2019-08-07T08:11:16Z</time>
      </trkpt>
      <trkpt lat="48.7532410" lon="14.0524720">
        <ele>766.4</ele>
        <time>2019-08-07T08:11:17Z</time>
      </trkpt>
      <trkpt lat="48.7532290" lon="14.0525730">
        <ele>766.4</ele>
        <time>2019-08-07T08:11:18Z</time>
      </trkpt>
      <trkpt lat="48.7532140" lon="14.0526850">
        <ele>766.4</ele>
        <time>2019-08-07T08:11:19Z</time>
      </trkpt>
      <trkpt lat="48.7532070" lon="14.0528100">
        <ele>766.2</ele>
        <time>2019-08-07T08:11:20Z</time>
      </trkpt>
      <trkpt lat="48.7532050" lon="14.0529220">
        <ele>766.2</ele>
        <time>2019-08-07T08:11:21Z</time>
      </trkpt>
      <trkpt lat="48.7532090" lon="14.0530330">
        <ele>766.2</ele>
        <time>2019-08-07T08:11:22Z</time>
      </trkpt>
      <trkpt lat="48.7532070" lon="14.0531460">
        <ele>766.0</ele>
        <time>2019-08-07T08:11:23Z</time>
      </trkpt>
      <trkpt lat="48.7532080" lon="14.0532760">
        <ele>765.8</ele>
        <time>2019-08-07T08:11:24Z</time>
      </trkpt>
      <trkpt lat="48.7532100" lon="14.0533970">
        <ele>765.6</ele>
        <time>2019-08-07T08:11:25Z</time>
      </trkpt>
      <trkpt lat="48.7532190" lon="14.0535170">
        <ele>765.6</ele>
        <time>2019-08-07T08:11:26Z</time>
      </trkpt>
      <trkpt lat="48.7532330" lon="14.0536370">
        <ele>765.6</ele>
        <time>2019-08-07T08:11:27Z</time>
      </trkpt>
      <trkpt lat="48.7532500" lon="14.0537490">
        <ele>765.6</ele>
        <time>2019-08-07T08:11:28Z</time>
      </trkpt>
      <trkpt lat="48.7532680" lon="14.0538520">
        <ele>765.4</ele>
        <time>2019-08-07T08:11:29Z</time>
      </trkpt>
      <trkpt lat="48.7532870" lon="14.0539770">
        <ele>765.2</ele>
        <time>2019-08-07T08:11:30Z</time>
      </trkpt>
      <trkpt lat="48.7532980" lon="14.0541020">
        <ele>765.0</ele>
        <time>2019-08-07T08:11:31Z</time>
      </trkpt>
      <trkpt lat="48.7533020" lon="14.0542300">
        <ele>764.8</ele>
        <time>2019-08-07T08:11:32Z</time>
      </trkpt>
      <trkpt lat="48.7533050" lon="14.0543630">
        <ele>764.6</ele>
        <time>2019-08-07T08:11:33Z</time>
      </trkpt>
      <trkpt lat="48.7533090" lon="14.0544880">
        <ele>764.6</ele>
        <time>2019-08-07T08:11:34Z</time>
      </trkpt>
      <trkpt lat="48.7533150" lon="14.0546160">
        <ele>764.4</ele>
        <time>2019-08-07T08:11:35Z</time>
      </trkpt>
      <trkpt lat="48.7533220" lon="14.0547430">
        <ele>764.2</ele>
        <time>2019-08-07T08:11:36Z</time>
      </trkpt>
      <trkpt lat="48.7533370" lon="14.0548760">
        <ele>764.0</ele>
        <time>2019-08-07T08:11:37Z</time>
      </trkpt>
      <trkpt lat="48.7533520" lon="14.0550080">
        <ele>763.8</ele>
        <time>2019-08-07T08:11:38Z</time>
      </trkpt>
      <trkpt lat="48.7533620" lon="14.0551340">
        <ele>763.6</ele>
        <time>2019-08-07T08:11:39Z</time>
      </trkpt>
      <trkpt lat="48.7533720" lon="14.0552590">
        <ele>763.4</ele>
        <time>2019-08-07T08:11:40Z</time>
      </trkpt>
      <trkpt lat="48.7533760" lon="14.0553840">
        <ele>763.2</ele>
        <time>2019-08-07T08:11:41Z</time>
      </trkpt>
      <trkpt lat="48.7533750" lon="14.0555030">
        <ele>763.0</ele>
        <time>2019-08-07T08:11:42Z</time>
      </trkpt>
      <trkpt lat="48.7533730" lon="14.0556210">
        <ele>762.8</ele>
        <time>2019-08-07T08:11:43Z</time>
      </trkpt>
      <trkpt lat="48.7533720" lon="14.0557320">
        <ele>762.6</ele>
        <time>2019-08-07T08:11:44Z</time>
      </trkpt>
      <trkpt lat="48.7533730" lon="14.0558310">
        <ele>762.4</ele>
        <time>2019-08-07T08:11:45Z</time>
      </trkpt>
      <trkpt lat="48.7533760" lon="14.0559190">
        <ele>762.4</ele>
        <time>2019-08-07T08:11:46Z</time>
      </trkpt>
      <trkpt lat="48.7533780" lon="14.0559980">
        <ele>762.2</ele>
        <time>2019-08-07T08:11:47Z</time>
      </trkpt>
      <trkpt lat="48.7533830" lon="14.0560590">
        <ele>762.2</ele>
        <time>2019-08-07T08:11:48Z</time>
      </trkpt>
      <trkpt lat="48.7533910" lon="14.0560980">
        <ele>762.0</ele>
        <time>2019-08-07T08:11:49Z</time>
      </trkpt>
      <trkpt lat="48.7533970" lon="14.0561210">
        <ele>761.8</ele>
        <time>2019-08-07T08:11:50Z</time>
      </trkpt>
      <trkpt lat="48.7534020" lon="14.0561400">
        <ele>761.8</ele>
        <time>2019-08-07T08:11:51Z</time>
      </trkpt>
      <trkpt lat="48.7534110" lon="14.0561580">
        <ele>761.8</ele>
        <time>2019-08-07T08:11:52Z</time>
      </trkpt>
      <trkpt lat="48.7534220" lon="14.0561700">
        <ele>761.8</ele>
        <time>2019-08-07T08:11:53Z</time>
      </trkpt>
      <trkpt lat="48.7534400" lon="14.0561810">
        <ele>761.8</ele>
        <time>2019-08-07T08:11:54Z</time>
      </trkpt>
      <trkpt lat="48.7534610" lon="14.0561830">
        <ele>762.0</ele>
        <time>2019-08-07T08:11:55Z</time>
      </trkpt>
      <trkpt lat="48.7534840" lon="14.0561850">
        <ele>762.2</ele>
        <time>2019-08-07T08:11:56Z</time>
      </trkpt>
      <trkpt lat="48.7535070" lon="14.0561910">
        <ele>762.2</ele>
        <time>2019-08-07T08:11:57Z</time>
      </trkpt>
      <trkpt lat="48.7535320" lon="14.0562000">
        <ele>762.6</ele>
        <time>2019-08-07T08:11:58Z</time>
      </trkpt>
      <trkpt lat="48.7535580" lon="14.0562070">
        <ele>762.8</ele>
        <time>2019-08-07T08:11:59Z</time>
      </trkpt>
      <trkpt lat="48.7535800" lon="14.0562210">
        <ele>763.0</ele>
        <time>2019-08-07T08:12:00Z</time>
      </trkpt>
      <trkpt lat="48.7535990" lon="14.0562420">
        <ele>763.4</ele>
        <time>2019-08-07T08:12:01Z</time>
      </trkpt>
      <trkpt lat="48.7536170" lon="14.0562690">
        <ele>763.6</ele>
        <time>2019-08-07T08:12:02Z</time>
      </trkpt>
      <trkpt lat="48.7536350" lon="14.0562990">
        <ele>763.8</ele>
        <time>2019-08-07T08:12:03Z</time>
      </trkpt>
      <trkpt lat="48.7536530" lon="14.0563330">
        <ele>764.0</ele>
        <time>2019-08-07T08:12:04Z</time>
      </trkpt>
      <trkpt lat="48.7536690" lon="14.0563700">
        <ele>764.2</ele>
        <time>2019-08-07T08:12:05Z</time>
      </trkpt>
      <trkpt lat="48.7536870" lon="14.0564100">
        <ele>764.4</ele>
        <time>2019-08-07T08:12:06Z</time>
      </trkpt>
      <trkpt lat="48.7537030" lon="14.0564500">
        <ele>764.6</ele>
        <time>2019-08-07T08:12:07Z</time>
      </trkpt>
      <trkpt lat="48.7537210" lon="14.0564910">
        <ele>764.6</ele>
        <time>2019-08-07T08:12:08Z</time>
      </trkpt>
      <trkpt lat="48.7537370" lon="14.0565300">
        <ele>764.8</ele>
        <time>2019-08-07T08:12:09Z</time>
      </trkpt>
      <trkpt lat="48.7537530" lon="14.0565680">
        <ele>765.0</ele>
        <time>2019-08-07T08:12:10Z</time>
      </trkpt>
      <trkpt lat="48.7537680" lon="14.0566070">
        <ele>765.2</ele>
        <time>2019-08-07T08:12:11Z</time>
      </trkpt>
      <trkpt lat="48.7537810" lon="14.0566440">
        <ele>765.4</ele>
        <time>2019-08-07T08:12:12Z</time>
      </trkpt>
      <trkpt lat="48.7537920" lon="14.0566830">
        <ele>765.6</ele>
        <time>2019-08-07T08:12:13Z</time>
      </trkpt>
      <trkpt lat="48.7538000" lon="14.0567230">
        <ele>765.6</ele>
        <time>2019-08-07T08:12:14Z</time>
      </trkpt>
      <trkpt lat="48.7538060" lon="14.0567600">
        <ele>765.8</ele>
        <time>2019-08-07T08:12:15Z</time>
      </trkpt>
      <trkpt lat="48.7538130" lon="14.0568010">
        <ele>765.8</ele>
        <time>2019-08-07T08:12:16Z</time>
      </trkpt>
      <trkpt lat="48.7538170" lon="14.0568410">
        <ele>766.0</ele>
        <time>2019-08-07T08:12:17Z</time>
      </trkpt>
      <trkpt lat="48.7538180" lon="14.0568830">
        <ele>766.0</ele>
        <time>2019-08-07T08:12:18Z</time>
      </trkpt>
      <trkpt lat="48.7538130" lon="14.0569240">
        <ele>766.0</ele>
        <time>2019-08-07T08:12:19Z</time>
      </trkpt>
      <trkpt lat="48.7537950" lon="14.0569650">
        <ele>765.8</ele>
        <time>2019-08-07T08:12:20Z</time>
      </trkpt>
      <trkpt lat="48.7537630" lon="14.0570050">
        <ele>765.6</ele>
        <time>2019-08-07T08:12:21Z</time>
      </trkpt>
      <trkpt lat="48.7537140" lon="14.0570370">
        <ele>765.2</ele>
        <time>2019-08-07T08:12:22Z</time>
      </trkpt>
      <trkpt lat="48.7536530" lon="14.0570520">
        <ele>764.8</ele>
        <time>2019-08-07T08:12:23Z</time>
      </trkpt>
      <trkpt lat="48.7535930" lon="14.0570670">
        <ele>764.4</ele>
        <time>2019-08-07T08:12:24Z</time>
      </trkpt>
      <trkpt lat="48.7535340" lon="14.0570950">
        <ele>763.8</ele>
        <time>2019-08-07T08:12:25Z</time>
      </trkpt>
      <trkpt lat="48.7534740" lon="14.0571420">
        <ele>763.2</ele>
        <time>2019-08-07T08:12:26Z</time>
      </trkpt>
      <trkpt lat="48.7534130" lon="14.0572110">
        <ele>762.6</ele>
        <time>2019-08-07T08:12:27Z</time>
      </trkpt>
      <trkpt lat="48.7533540" lon="14.0572900">
        <ele>761.8</ele>
        <time>2019-08-07T08:12:28Z</time>
      </trkpt>
      <trkpt lat="48.7532950" lon="14.0573720">
        <ele>761.2</ele>
        <time>2019-08-07T08:12:29Z</time>
      </trkpt>
      <trkpt lat="48.7532380" lon="14.0574570">
        <ele>760.6</ele>
        <time>2019-08-07T08:12:30Z</time>
      </trkpt>
      <trkpt lat="48.7531800" lon="14.0575490">
        <ele>759.8</ele>
        <time>2019-08-07T08:12:31Z</time>
      </trkpt>
      <trkpt lat="48.7531260" lon="14.0576470">
        <ele>759.2</ele>
        <time>2019-08-07T08:12:32Z</time>
      </trkpt>
      <trkpt lat="48.7530750" lon="14.0577500">
        <ele>758.4</ele>
        <time>2019-08-07T08:12:33Z</time>
      </trkpt>
      <trkpt lat="48.7530260" lon="14.0578680">
        <ele>757.8</ele>
        <time>2019-08-07T08:12:34Z</time>
      </trkpt>
      <trkpt lat="48.7529850" lon="14.0579940">
        <ele>757.2</ele>
        <time>2019-08-07T08:12:35Z</time>
      </trkpt>
      <trkpt lat="48.7529540" lon="14.0581330">
        <ele>756.4</ele>
        <time>2019-08-07T08:12:36Z</time>
      </trkpt>
      <trkpt lat="48.7529270" lon="14.0582870">
        <ele>755.6</ele>
        <time>2019-08-07T08:12:37Z</time>
      </trkpt>
      <trkpt lat="48.7529010" lon="14.0584480">
        <ele>754.8</ele>
        <time>2019-08-07T08:12:38Z</time>
      </trkpt>
      <trkpt lat="48.7528730" lon="14.0586100">
        <ele>753.8</ele>
        <time>2019-08-07T08:12:39Z</time>
      </trkpt>
      <trkpt lat="48.7528370" lon="14.0587740">
        <ele>752.8</ele>
        <time>2019-08-07T08:12:40Z</time>
      </trkpt>
      <trkpt lat="48.7527910" lon="14.0589390">
        <ele>751.8</ele>
        <time>2019-08-07T08:12:41Z</time>
      </trkpt>
      <trkpt lat="48.7527380" lon="14.0591070">
        <ele>751.0</ele>
        <time>2019-08-07T08:12:42Z</time>
      </trkpt>
      <trkpt lat="48.7526850" lon="14.0592610">
        <ele>750.0</ele>
        <time>2019-08-07T08:12:43Z</time>
      </trkpt>
      <trkpt lat="48.7526230" lon="14.0594160">
        <ele>749.0</ele>
        <time>2019-08-07T08:12:44Z</time>
      </trkpt>
      <trkpt lat="48.7525530" lon="14.0595670">
        <ele>747.8</ele>
        <time>2019-08-07T08:12:45Z</time>
      </trkpt>
      <trkpt lat="48.7524850" lon="14.0596950">
        <ele>746.6</ele>
        <time>2019-08-07T08:12:46Z</time>
      </trkpt>
      <trkpt lat="48.7524230" lon="14.0597950">
        <ele>745.4</ele>
        <time>2019-08-07T08:12:47Z</time>
      </trkpt>
      <trkpt lat="48.7523690" lon="14.0598760">
        <ele>744.4</ele>
        <time>2019-08-07T08:12:48Z</time>
      </trkpt>
      <trkpt lat="48.7523220" lon="14.0599410">
        <ele>743.6</ele>
        <time>2019-08-07T08:12:49Z</time>
      </trkpt>
      <trkpt lat="48.7522790" lon="14.0600020">
        <ele>742.8</ele>
        <time>2019-08-07T08:12:50Z</time>
      </trkpt>
      <trkpt lat="48.7522420" lon="14.0600740">
        <ele>742.2</ele>
        <time>2019-08-07T08:12:51Z</time>
      </trkpt>
      <trkpt lat="48.7522150" lon="14.0601580">
        <ele>741.6</ele>
        <time>2019-08-07T08:12:52Z</time>
      </trkpt>
      <trkpt lat="48.7522090" lon="14.0602410">
        <ele>741.2</ele>
        <time>2019-08-07T08:12:53Z</time>
      </trkpt>
      <trkpt lat="48.7522250" lon="14.0603290">
        <ele>740.8</ele>
        <time>2019-08-07T08:12:54Z</time>
      </trkpt>
      <trkpt lat="48.7522490" lon="14.0604150">
        <ele>740.4</ele>
        <time>2019-08-07T08:12:55Z</time>
      </trkpt>
      <trkpt lat="48.7522760" lon="14.0604980">
        <ele>740.0</ele>
        <time>2019-08-07T08:12:56Z</time>
      </trkpt>
      <trkpt lat="48.7523020" lon="14.0605840">
        <ele>739.8</ele>
        <time>2019-08-07T08:12:57Z</time>
      </trkpt>
      <trkpt lat="48.7523250" lon="14.0606760">
        <ele>739.6</ele>
        <time>2019-08-07T08:12:58Z</time>
      </trkpt>
      <trkpt lat="48.7523450" lon="14.0607690">
        <ele>739.4</ele>
        <time>2019-08-07T08:12:59Z</time>
      </trkpt>
      <trkpt lat="48.7523640" lon="14.0608620">
        <ele>739.2</ele>
        <time>2019-08-07T08:13:00Z</time>
      </trkpt>
      <trkpt lat="48.7523840" lon="14.0609600">
        <ele>739.2</ele>
        <time>2019-08-07T08:13:01Z</time>
      </trkpt>
      <trkpt lat="48.7524020" lon="14.0610620">
        <ele>739.0</ele>
        <time>2019-08-07T08:13:02Z</time>
      </trkpt>
      <trkpt lat="48.7524180" lon="14.0611680">
        <ele>738.8</ele>
        <time>2019-08-07T08:13:03Z</time>
      </trkpt>
      <trkpt lat="48.7524330" lon="14.0612750">
        <ele>738.8</ele>
        <time>2019-08-07T08:13:04Z</time>
      </trkpt>
      <trkpt lat="48.7524470" lon="14.0613840">
        <ele>738.8</ele>
        <time>2019-08-07T08:13:05Z</time>
      </trkpt>
      <trkpt lat="48.7524560" lon="14.0614920">
        <ele>738.6</ele>
        <time>2019-08-07T08:13:06Z</time>
      </trkpt>
      <trkpt lat="48.7524660" lon="14.0616010">
        <ele>738.4</ele>
        <time>2019-08-07T08:13:07Z</time>
      </trkpt>
      <trkpt lat="48.7524730" lon="14.0617130">
        <ele>738.2</ele>
        <time>2019-08-07T08:13:08Z</time>
      </trkpt>
      <trkpt lat="48.7524790" lon="14.0618220">
        <ele>738.2</ele>
        <time>2019-08-07T08:13:09Z</time>
      </trkpt>
      <trkpt lat="48.7524810" lon="14.0619340">
        <ele>738.0</ele>
        <time>2019-08-07T08:13:10Z</time>
      </trkpt>
      <trkpt lat="48.7524800" lon="14.0620280">
        <ele>737.8</ele>
        <time>2019-08-07T08:13:11Z</time>
      </trkpt>
      <trkpt lat="48.7524760" lon="14.0621410">
        <ele>737.8</ele>
        <time>2019-08-07T08:13:12Z</time>
      </trkpt>
      <trkpt lat="48.7524710" lon="14.0622650">
        <ele>737.6</ele>
        <time>2019-08-07T08:13:13Z</time>
      </trkpt>
      <trkpt lat="48.7524660" lon="14.0623730">
        <ele>737.6</ele>
        <time>2019-08-07T08:13:14Z</time>
      </trkpt>
      <trkpt lat="48.7524590" lon="14.0624810">
        <ele>737.6</ele>
        <time>2019-08-07T08:13:15Z</time>
      </trkpt>
      <trkpt lat="48.7524480" lon="14.0625860">
        <ele>737.6</ele>
        <time>2019-08-07T08:13:16Z</time>
      </trkpt>
      <trkpt lat="48.7524350" lon="14.0626930">
        <ele>737.6</ele>
        <time>2019-08-07T08:13:17Z</time>
      </trkpt>
      <trkpt lat="48.7524210" lon="14.0627930">
        <ele>737.8</ele>
        <time>2019-08-07T08:13:18Z</time>
      </trkpt>
      <trkpt lat="48.7524050" lon="14.0628900">
        <ele>738.0</ele>
        <time>2019-08-07T08:13:19Z</time>
      </trkpt>
      <trkpt lat="48.7523870" lon="14.0629870">
        <ele>738.0</ele>
        <time>2019-08-07T08:13:20Z</time>
      </trkpt>
      <trkpt lat="48.7523690" lon="14.0630800">
        <ele>738.0</ele>
        <time>2019-08-07T08:13:21Z</time>
      </trkpt>
      <trkpt lat="48.7523480" lon="14.0631710">
        <ele>738.0</ele>
        <time>2019-08-07T08:13:22Z</time>
      </trkpt>
      <trkpt lat="48.7523270" lon="14.0632600">
        <ele>738.0</ele>
        <time>2019-08-07T08:13:23Z</time>
      </trkpt>
      <trkpt lat="48.7523050" lon="14.0633450">
        <ele>738.2</ele>
        <time>2019-08-07T08:13:24Z</time>
      </trkpt>
      <trkpt lat="48.7522810" lon="14.0634280">
        <ele>738.2</ele>
        <time>2019-08-07T08:13:25Z</time>
      </trkpt>
      <trkpt lat="48.7522580" lon="14.0635100">
        <ele>738.2</ele>
        <time>2019-08-07T08:13:26Z</time>
      </trkpt>
      <trkpt lat="48.7522360" lon="14.0635910">
        <ele>738.4</ele>
        <time>2019-08-07T08:13:27Z</time>
      </trkpt>
      <trkpt lat="48.7522160" lon="14.0636760">
        <ele>738.4</ele>
        <time>2019-08-07T08:13:28Z</time>
      </trkpt>
      <trkpt lat="48.7521970" lon="14.0637540">
        <ele>738.6</ele>
        <time>2019-08-07T08:13:29Z</time>
      </trkpt>
      <trkpt lat="48.7521760" lon="14.0638300">
        <ele>738.6</ele>
        <time>2019-08-07T08:13:30Z</time>
      </trkpt>
      <trkpt lat="48.7521570" lon="14.0639120">
        <ele>738.6</ele>
        <time>2019-08-07T08:13:31Z</time>
      </trkpt>
      <trkpt lat="48.7521400" lon="14.0639940">
        <ele>738.8</ele>
        <time>2019-08-07T08:13:32Z</time>
      </trkpt>
      <trkpt lat="48.7521230" lon="14.0640740">
        <ele>738.8</ele>
        <time>2019-08-07T08:13:33Z</time>
      </trkpt>
      <trkpt lat="48.7521060" lon="14.0641510">
        <ele>738.8</ele>
        <time>2019-08-07T08:13:34Z</time>
      </trkpt>
      <trkpt lat="48.7520860" lon="14.0642280">
        <ele>738.8</ele>
        <time>2019-08-07T08:13:35Z</time>
      </trkpt>
      <trkpt lat="48.7520640" lon="14.0643070">
        <ele>738.8</ele>
        <time>2019-08-07T08:13:36Z</time>
      </trkpt>
      <trkpt lat="48.7520400" lon="14.0643840">
        <ele>738.8</ele>
        <time>2019-08-07T08:13:37Z</time>
      </trkpt>
      <trkpt lat="48.7520160" lon="14.0644570">
        <ele>739.0</ele>
        <time>2019-08-07T08:13:38Z</time>
      </trkpt>
      <trkpt lat="48.7519900" lon="14.0645260">
        <ele>739.0</ele>
        <time>2019-08-07T08:13:39Z</time>
      </trkpt>
      <trkpt lat="48.7519590" lon="14.0646010">
        <ele>739.0</ele>
        <time>2019-08-07T08:13:40Z</time>
      </trkpt>
      <trkpt lat="48.7519270" lon="14.0646750">
        <ele>739.2</ele>
        <time>2019-08-07T08:13:41Z</time>
      </trkpt>
      <trkpt lat="48.7518970" lon="14.0647470">
        <ele>739.2</ele>
        <time>2019-08-07T08:13:42Z</time>
      </trkpt>
      <trkpt lat="48.7518650" lon="14.0648200">
        <ele>739.2</ele>
        <time>2019-08-07T08:13:43Z</time>
      </trkpt>
      <trkpt lat="48.7518350" lon="14.0648920">
        <ele>739.2</ele>
        <time>2019-08-07T08:13:44Z</time>
      </trkpt>
      <trkpt lat="48.7518040" lon="14.0649630">
        <ele>739.2</ele>
        <time>2019-08-07T08:13:45Z</time>
      </trkpt>
      <trkpt lat="48.7517720" lon="14.0650360">
        <ele>739.4</ele>
        <time>2019-08-07T08:13:46Z</time>
      </trkpt>
      <trkpt lat="48.7517400" lon="14.0651090">
        <ele>739.2</ele>
        <time>2019-08-07T08:13:47Z</time>
      </trkpt>
      <trkpt lat="48.7517060" lon="14.0651840">
        <ele>739.2</ele>
        <time>2019-08-07T08:13:48Z</time>
      </trkpt>
      <trkpt lat="48.7516730" lon="14.0652580">
        <ele>739.2</ele>
        <time>2019-08-07T08:13:49Z</time>
      </trkpt>
      <trkpt lat="48.7516400" lon="14.0653350">
        <ele>739.2</ele>
        <time>2019-08-07T08:13:50Z</time>
      </trkpt>
      <trkpt lat="48.7516070" lon="14.0654130">
        <ele>739.2</ele>
        <time>2019-08-07T08:13:51Z</time>
      </trkpt>
      <trkpt lat="48.7515730" lon="14.0654930">
        <ele>739.2</ele>
        <time>2019-08-07T08:13:52Z</time>
      </trkpt>
      <trkpt lat="48.7515400" lon="14.0655700">
        <ele>739.2</ele>
        <time>2019-08-07T08:13:53Z</time>
      </trkpt>
      <trkpt lat="48.7515070" lon="14.0656500">
        <ele>739.2</ele>
        <time>2019-08-07T08:13:54Z</time>
      </trkpt>
      <trkpt lat="48.7514740" lon="14.0657300">
        <ele>739.0</ele>
        <time>2019-08-07T08:13:55Z</time>
      </trkpt>
      <trkpt lat="48.7514420" lon="14.0658100">
        <ele>739.0</ele>
        <time>2019-08-07T08:13:56Z</time>
      </trkpt>
      <trkpt lat="48.7514100" lon="14.0658930">
        <ele>739.0</ele>
        <time>2019-08-07T08:13:57Z</time>
      </trkpt>
      <trkpt lat="48.7513810" lon="14.0659750">
        <ele>738.8</ele>
        <time>2019-08-07T08:13:58Z</time>
      </trkpt>
      <trkpt lat="48.7513530" lon="14.0660580">
        <ele>738.8</ele>
        <time>2019-08-07T08:13:59Z</time>
      </trkpt>
      <trkpt lat="48.7513240" lon="14.0661430">
        <ele>738.8</ele>
        <time>2019-08-07T08:14:00Z</time>
      </trkpt>
      <trkpt lat="48.7512960" lon="14.0662260">
        <ele>738.8</ele>
        <time>2019-08-07T08:14:01Z</time>
      </trkpt>
      <trkpt lat="48.7512700" lon="14.0663070">
        <ele>738.8</ele>
        <time>2019-08-07T08:14:02Z</time>
      </trkpt>
      <trkpt lat="48.7512470" lon="14.0663900">
        <ele>738.8</ele>
        <time>2019-08-07T08:14:03Z</time>
      </trkpt>
      <trkpt lat="48.7512250" lon="14.0664720">
        <ele>738.8</ele>
        <time>2019-08-07T08:14:04Z</time>
      </trkpt>
      <trkpt lat="48.7512040" lon="14.0665590">
        <ele>738.8</ele>
        <time>2019-08-07T08:14:05Z</time>
      </trkpt>
      <trkpt lat="48.7511840" lon="14.0666460">
        <ele>738.8</ele>
        <time>2019-08-07T08:14:06Z</time>
      </trkpt>
      <trkpt lat="48.7511640" lon="14.0667340">
        <ele>738.8</ele>
        <time>2019-08-07T08:14:07Z</time>
      </trkpt>
      <trkpt lat="48.7511460" lon="14.0668170">
        <ele>738.8</ele>
        <time>2019-08-07T08:14:08Z</time>
      </trkpt>
      <trkpt lat="48.7511260" lon="14.0669080">
        <ele>738.6</ele>
        <time>2019-08-07T08:14:09Z</time>
      </trkpt>
      <trkpt lat="48.7511070" lon="14.0669990">
        <ele>738.6</ele>
        <time>2019-08-07T08:14:10Z</time>
      </trkpt>
      <trkpt lat="48.7510870" lon="14.0670870">
        <ele>738.4</ele>
        <time>2019-08-07T08:14:11Z</time>
      </trkpt>
      <trkpt lat="48.7510680" lon="14.0671750">
        <ele>738.4</ele>
        <time>2019-08-07T08:14:12Z</time>
      </trkpt>
      <trkpt lat="48.7510500" lon="14.0672670">
        <ele>738.4</ele>
        <time>2019-08-07T08:14:13Z</time>
      </trkpt>
      <trkpt lat="48.7510310" lon="14.0673550">
        <ele>738.4</ele>
        <time>2019-08-07T08:14:14Z</time>
      </trkpt>
      <trkpt lat="48.7510120" lon="14.0674430">
        <ele>738.2</ele>
        <time>2019-08-07T08:14:15Z</time>
      </trkpt>
      <trkpt lat="48.7509930" lon="14.0675330">
        <ele>738.2</ele>
        <time>2019-08-07T08:14:16Z</time>
      </trkpt>
      <trkpt lat="48.7509740" lon="14.0676260">
        <ele>738.2</ele>
        <time>2019-08-07T08:14:17Z</time>
      </trkpt>
      <trkpt lat="48.7509560" lon="14.0677170">
        <ele>738.2</ele>
        <time>2019-08-07T08:14:18Z</time>
      </trkpt>
      <trkpt lat="48.7509400" lon="14.0678070">
        <ele>738.0</ele>
        <time>2019-08-07T08:14:19Z</time>
      </trkpt>
      <trkpt lat="48.7509230" lon="14.0679000">
        <ele>738.0</ele>
        <time>2019-08-07T08:14:20Z</time>
      </trkpt>
      <trkpt lat="48.7509050" lon="14.0679900">
        <ele>738.0</ele>
        <time>2019-08-07T08:14:21Z</time>
      </trkpt>
      <trkpt lat="48.7508870" lon="14.0680790">
        <ele>738.0</ele>
        <time>2019-08-07T08:14:22Z</time>
      </trkpt>
      <trkpt lat="48.7508680" lon="14.0681660">
        <ele>738.0</ele>
        <time>2019-08-07T08:14:23Z</time>
      </trkpt>
      <trkpt lat="48.7508510" lon="14.0682500">
        <ele>737.8</ele>
        <time>2019-08-07T08:14:24Z</time>
      </trkpt>
      <trkpt lat="48.7508360" lon="14.0683270">
        <ele>737.8</ele>
        <time>2019-08-07T08:14:25Z</time>
      </trkpt>
      <trkpt lat="48.7508220" lon="14.0684040">
        <ele>737.8</ele>
        <time>2019-08-07T08:14:26Z</time>
      </trkpt>
      <trkpt lat="48.7508180" lon="14.0684780">
        <ele>738.0</ele>
        <time>2019-08-07T08:14:27Z</time>
      </trkpt>
      <trkpt lat="48.7508250" lon="14.0685450">
        <ele>738.0</ele>
        <time>2019-08-07T08:14:28Z</time>
      </trkpt>
      <trkpt lat="48.7508470" lon="14.0685990">
        <ele>738.0</ele>
        <time>2019-08-07T08:14:29Z</time>
      </trkpt>
      <trkpt lat="48.7508770" lon="14.0686390">
        <ele>738.0</ele>
        <time>2019-08-07T08:14:30Z</time>
      </trkpt>
      <trkpt lat="48.7509160" lon="14.0686810">
        <ele>738.0</ele>
        <time>2019-08-07T08:14:31Z</time>
      </trkpt>
      <trkpt lat="48.7509550" lon="14.0687240">
        <ele>738.2</ele>
        <time>2019-08-07T08:14:32Z</time>
      </trkpt>
      <trkpt lat="48.7509940" lon="14.0687700">
        <ele>738.2</ele>
        <time>2019-08-07T08:14:33Z</time>
      </trkpt>
      <trkpt lat="48.7510300" lon="14.0688140">
        <ele>738.4</ele>
        <time>2019-08-07T08:14:34Z</time>
      </trkpt>
      <trkpt lat="48.7510660" lon="14.0688580">
        <ele>738.4</ele>
        <time>2019-08-07T08:14:35Z</time>
      </trkpt>
      <trkpt lat="48.7511050" lon="14.0689010">
        <ele>738.6</ele>
        <time>2019-08-07T08:14:36Z</time>
      </trkpt>
      <trkpt lat="48.7511450" lon="14.0689330">
        <ele>738.6</ele>
        <time>2019-08-07T08:14:37Z</time>
      </trkpt>
      <trkpt lat="48.7511770" lon="14.0689630">
        <ele>738.8</ele>
        <time>2019-08-07T08:14:38Z</time>
      </trkpt>
      <trkpt lat="48.7511950" lon="14.0690060">
        <ele>738.8</ele>
        <time>2019-08-07T08:14:39Z</time>
      </trkpt>
      <trkpt lat="48.7512020" lon="14.0690610">
        <ele>739.0</ele>
        <time>2019-08-07T08:14:40Z</time>
      </trkpt>
      <trkpt lat="48.7512090" lon="14.0691160">
        <ele>739.0</ele>
        <time>2019-08-07T08:14:41Z</time>
      </trkpt>
      <trkpt lat="48.7512170" lon="14.0691750">
        <ele>739.0</ele>
        <time>2019-08-07T08:14:42Z</time>
      </trkpt>
      <trkpt lat="48.7512250" lon="14.0692310">
        <ele>739.0</ele>
        <time>2019-08-07T08:14:43Z</time>
      </trkpt>
      <trkpt lat="48.7512370" lon="14.0692930">
        <ele>739.2</ele>
        <time>2019-08-07T08:14:44Z</time>
      </trkpt>
      <trkpt lat="48.7512470" lon="14.0693570">
        <ele>739.2</ele>
        <time>2019-08-07T08:14:45Z</time>
      </trkpt>
      <trkpt lat="48.7512580" lon="14.0694230">
        <ele>739.4</ele>
        <time>2019-08-07T08:14:46Z</time>
      </trkpt>
      <trkpt lat="48.7512710" lon="14.0694900">
        <ele>739.4</ele>
        <time>2019-08-07T08:14:47Z</time>
      </trkpt>
      <trkpt lat="48.7512860" lon="14.0695560">
        <ele>739.6</ele>
        <time>2019-08-07T08:14:48Z</time>
      </trkpt>
      <trkpt lat="48.7513010" lon="14.0696230">
        <ele>739.6</ele>
        <time>2019-08-07T08:14:49Z</time>
      </trkpt>
      <trkpt lat="48.7513120" lon="14.0696920">
        <ele>739.8</ele>
        <time>2019-08-07T08:14:50Z</time>
      </trkpt>
      <trkpt lat="48.7513190" lon="14.0697600">
        <ele>739.8</ele>
        <time>2019-08-07T08:14:51Z</time>
      </trkpt>
      <trkpt lat="48.7513200" lon="14.0698290">
        <ele>740.0</ele>
        <time>2019-08-07T08:14:52Z</time>
      </trkpt>
      <trkpt lat="48.7513180" lon="14.0698940">
        <ele>740.0</ele>
        <time>2019-08-07T08:14:53Z</time>
      </trkpt>
      <trkpt lat="48.7513120" lon="14.0699630">
        <ele>740.0</ele>
        <time>2019-08-07T08:14:54Z</time>
      </trkpt>
      <trkpt lat="48.7513040" lon="14.0700300">
        <ele>740.2</ele>
        <time>2019-08-07T08:14:55Z</time>
      </trkpt>
      <trkpt lat="48.7512960" lon="14.0700980">
        <ele>740.2</ele>
        <time>2019-08-07T08:14:56Z</time>
      </trkpt>
      <trkpt lat="48.7512890" lon="14.0701680">
        <ele>740.2</ele>
        <time>2019-08-07T08:14:57Z</time>
      </trkpt>
      <trkpt lat="48.7512800" lon="14.0702380">
        <ele>740.2</ele>
        <time>2019-08-07T08:14:58Z</time>
      </trkpt>
      <trkpt lat="48.7512710" lon="14.0703090">
        <ele>740.0</ele>
        <time>2019-08-07T08:14:59Z</time>
      </trkpt>
      <trkpt lat="48.7512620" lon="14.0703830">
        <ele>740.0</ele>
        <time>2019-08-07T08:15:00Z</time>
      </trkpt>
      <trkpt lat="48.7512560" lon="14.0704540">
        <ele>740.0</ele>
        <time>2019-08-07T08:15:01Z</time>
      </trkpt>
      <trkpt lat="48.7512520" lon="14.0705210">
        <ele>740.0</ele>
        <time>2019-08-07T08:15:02Z</time>
      </trkpt>
      <trkpt lat="48.7512440" lon="14.0705960">
        <ele>740.0</ele>
        <time>2019-08-07T08:15:03Z</time>
      </trkpt>
      <trkpt lat="48.7512300" lon="14.0706610">
        <ele>740.0</ele>
        <time>2019-08-07T08:15:04Z</time>
      </trkpt>
      <trkpt lat="48.7512080" lon="14.0707180">
        <ele>740.0</ele>
        <time>2019-08-07T08:15:05Z</time>
      </trkpt>
      <trkpt lat="48.7511750" lon="14.0707710">
        <ele>740.0</ele>
        <time>2019-08-07T08:15:06Z</time>
      </trkpt>
      <trkpt lat="48.7511390" lon="14.0708110">
        <ele>739.8</ele>
        <time>2019-08-07T08:15:07Z</time>
      </trkpt>
      <trkpt lat="48.7510980" lon="14.0708440">
        <ele>739.8</ele>
        <time>2019-08-07T08:15:08Z</time>
      </trkpt>
      <trkpt lat="48.7510570" lon="14.0708720">
        <ele>739.8</ele>
        <time>2019-08-07T08:15:09Z</time>
      </trkpt>
      <trkpt lat="48.7510160" lon="14.0709010">
        <ele>739.6</ele>
        <time>2019-08-07T08:15:10Z</time>
      </trkpt>
      <trkpt lat="48.7509730" lon="14.0709310">
        <ele>739.6</ele>
        <time>2019-08-07T08:15:11Z</time>
      </trkpt>
      <trkpt lat="48.7509270" lon="14.0709630">
        <ele>739.4</ele>
        <time>2019-08-07T08:15:12Z</time>
      </trkpt>
      <trkpt lat="48.7508790" lon="14.0709970">
        <ele>739.4</ele>
        <time>2019-08-07T08:15:13Z</time>
      </trkpt>
      <trkpt lat="48.7508310" lon="14.0710310">
        <ele>739.2</ele>
        <time>2019-08-07T08:15:14Z</time>
      </trkpt>
      <trkpt lat="48.7507820" lon="14.0710640">
        <ele>739.2</ele>
        <time>2019-08-07T08:15:15Z</time>
      </trkpt>
      <trkpt lat="48.7507340" lon="14.0710940">
        <ele>739.0</ele>
        <time>2019-08-07T08:15:16Z</time>
      </trkpt>
      <trkpt lat="48.7506890" lon="14.0711220">
        <ele>739.0</ele>
        <time>2019-08-07T08:15:17Z</time>
      </trkpt>
      <trkpt lat="48.7506480" lon="14.0711500">
        <ele>738.8</ele>
        <time>2019-08-07T08:15:18Z</time>
      </trkpt>
      <trkpt lat="48.7506160" lon="14.0711830">
        <ele>738.6</ele>
        <time>2019-08-07T08:15:19Z</time>
      </trkpt>
      <trkpt lat="48.7505990" lon="14.0712240">
        <ele>738.6</ele>
        <time>2019-08-07T08:15:20Z</time>
      </trkpt>
      <trkpt lat="48.7505950" lon="14.0712750">
        <ele>738.4</ele>
        <time>2019-08-07T08:15:21Z</time>
      </trkpt>
      <trkpt lat="48.7506020" lon="14.0713210">
        <ele>738.4</ele>
        <time>2019-08-07T08:15:22Z</time>
      </trkpt>
      <trkpt lat="48.7506150" lon="14.0713630">
        <ele>738.4</ele>
        <time>2019-08-07T08:15:23Z</time>
      </trkpt>
      <trkpt lat="48.7506280" lon="14.0714020">
        <ele>738.4</ele>
        <time>2019-08-07T08:15:24Z</time>
      </trkpt>
      <trkpt lat="48.7506390" lon="14.0714440">
        <ele>738.4</ele>
        <time>2019-08-07T08:15:25Z</time>
      </trkpt>
      <trkpt lat="48.7506490" lon="14.0714850">
        <ele>738.6</ele>
        <time>2019-08-07T08:15:26Z</time>
      </trkpt>
      <trkpt lat="48.7506600" lon="14.0715260">
        <ele>738.6</ele>
        <time>2019-08-07T08:15:27Z</time>
      </trkpt>
      <trkpt lat="48.7506700" lon="14.0715630">
        <ele>738.6</ele>
        <time>2019-08-07T08:15:28Z</time>
      </trkpt>
      <trkpt lat="48.7506800" lon="14.0716000">
        <ele>738.8</ele>
        <time>2019-08-07T08:15:29Z</time>
      </trkpt>
      <trkpt lat="48.7506910" lon="14.0716350">
        <ele>738.8</ele>
        <time>2019-08-07T08:15:30Z</time>
      </trkpt>
      <trkpt lat="48.7506990" lon="14.0716700">
        <ele>738.8</ele>
        <time>2019-08-07T08:15:31Z</time>
      </trkpt>
      <trkpt lat="48.7507090" lon="14.0716950">
        <ele>738.8</ele>
        <time>2019-08-07T08:15:32Z</time>
      </trkpt>
      <trkpt lat="48.7507210" lon="14.0717090">
        <ele>738.8</ele>
        <time>2019-08-07T08:15:33Z</time>
      </trkpt>
      <trkpt lat="48.7507320" lon="14.0717080">
        <ele>738.8</ele>
        <time>2019-08-07T08:15:34Z</time>
      </trkpt>
      <trkpt lat="48.7507370" lon="14.0716960">
        <ele>738.8</ele>
        <time>2019-08-07T08:15:35Z</time>
      </trkpt>
      <trkpt lat="48.7507360" lon="14.0716770">
        <ele>738.8</ele>
        <time>2019-08-07T08:15:36Z</time>
      </trkpt>
      <trkpt lat="48.7507260" lon="14.0716610">
        <ele>738.8</ele>
        <time>2019-08-07T08:15:37Z</time>
      </trkpt>
      <trkpt lat="48.7507130" lon="14.0716490">
        <ele>739.0</ele>
        <time>2019-08-07T08:15:38Z</time>
      </trkpt>
      <trkpt lat="48.7506980" lon="14.0716300">
        <ele>739.0</ele>
        <time>2019-08-07T08:15:39Z</time>
      </trkpt>
      <trkpt lat="48.7506810" lon="14.0715960">
        <ele>739.0</ele>
        <time>2019-08-07T08:15:40Z</time>
      </trkpt>
      <trkpt lat="48.7506670" lon="14.0715530">
        <ele>739.0</ele>
        <time>2019-08-07T08:15:41Z</time>
      </trkpt>
      <trkpt lat="48.7506560" lon="14.0715000">
        <ele>739.0</ele>
        <time>2019-08-07T08:15:42Z</time>
      </trkpt>
      <trkpt lat="48.7506480" lon="14.0714410">
        <ele>739.0</ele>
        <time>2019-08-07T08:15:43Z</time>
      </trkpt>
      <trkpt lat="48.7506380" lon="14.0713780">
        <ele>739.0</ele>
        <time>2019-08-07T08:15:44Z</time>
      </trkpt>
      <trkpt lat="48.7506220" lon="14.0713170">
        <ele>739.0</ele>
        <time>2019-08-07T08:15:45Z</time>
      </trkpt>
      <trkpt lat="48.7505930" lon="14.0712660">
        <ele>738.8</ele>
        <time>2019-08-07T08:15:46Z</time>
      </trkpt>
      <trkpt lat="48.7505540" lon="14.0712340">
        <ele>738.8</ele>
        <time>2019-08-07T08:15:47Z</time>
      </trkpt>
      <trkpt lat="48.7505090" lon="14.0712270">
        <ele>738.8</ele>
        <time>2019-08-07T08:15:48Z</time>
      </trkpt>
      <trkpt lat="48.7504630" lon="14.0712440">
        <ele>738.6</ele>
        <time>2019-08-07T08:15:49Z</time>
      </trkpt>
      <trkpt lat="48.7504200" lon="14.0712800">
        <ele>738.6</ele>
        <time>2019-08-07T08:15:50Z</time>
      </trkpt>
      <trkpt lat="48.7503850" lon="14.0713300">
        <ele>738.4</ele>
        <time>2019-08-07T08:15:51Z</time>
      </trkpt>
      <trkpt lat="48.7503540" lon="14.0713880">
        <ele>738.2</ele>
        <time>2019-08-07T08:15:52Z</time>
      </trkpt>
      <trkpt lat="48.7503320" lon="14.0714600">
        <ele>738.0</ele>
        <time>2019-08-07T08:15:53Z</time>
      </trkpt>
      <trkpt lat="48.7503200" lon="14.0715430">
        <ele>738.0</ele>
        <time>2019-08-07T08:15:54Z</time>
      </trkpt>
      <trkpt lat="48.7503130" lon="14.0716310">
        <ele>737.8</ele>
        <time>2019-08-07T08:15:55Z</time>
      </trkpt>
      <trkpt lat="48.7503110" lon="14.0717160">
        <ele>737.8</ele>
        <time>2019-08-07T08:15:56Z</time>
      </trkpt>
      <trkpt lat="48.7503090" lon="14.0718140">
        <ele>737.6</ele>
        <time>2019-08-07T08:15:57Z</time>
      </trkpt>
      <trkpt lat="48.7503060" lon="14.0719160">
        <ele>737.6</ele>
        <time>2019-08-07T08:15:58Z</time>
      </trkpt>
      <trkpt lat="48.7503030" lon="14.0720180">
        <ele>737.4</ele>
        <time>2019-08-07T08:15:59Z</time>
      </trkpt>
      <trkpt lat="48.7502980" lon="14.0721190">
        <ele>737.4</ele>
        <time>2019-08-07T08:16:00Z</time>
      </trkpt>
      <trkpt lat="48.7502940" lon="14.0722230">
        <ele>737.2</ele>
        <time>2019-08-07T08:16:01Z</time>
      </trkpt>
      <trkpt lat="48.7502910" lon="14.0723310">
        <ele>737.0</ele>
        <time>2019-08-07T08:16:02Z</time>
      </trkpt>
      <trkpt lat="48.7502880" lon="14.0724360">
        <ele>736.8</ele>
        <time>2019-08-07T08:16:03Z</time>
      </trkpt>
      <trkpt lat="48.7502830" lon="14.0725440">
        <ele>736.6</ele>
        <time>2019-08-07T08:16:04Z</time>
      </trkpt>
      <trkpt lat="48.7502800" lon="14.0726490">
        <ele>736.4</ele>
        <time>2019-08-07T08:16:05Z</time>
      </trkpt>
      <trkpt lat="48.7502780" lon="14.0727510">
        <ele>736.4</ele>
        <time>2019-08-07T08:16:06Z</time>
      </trkpt>
      <trkpt lat="48.7502740" lon="14.0728560">
        <ele>736.2</ele>
        <time>2019-08-07T08:16:07Z</time>
      </trkpt>
      <trkpt lat="48.7502700" lon="14.0729590">
        <ele>736.2</ele>
        <time>2019-08-07T08:16:08Z</time>
      </trkpt>
      <trkpt lat="48.7502610" lon="14.0730610">
        <ele>736.0</ele>
        <time>2019-08-07T08:16:09Z</time>
      </trkpt>
      <trkpt lat="48.7502510" lon="14.0731660">
        <ele>736.0</ele>
        <time>2019-08-07T08:16:10Z</time>
      </trkpt>
      <trkpt lat="48.7502410" lon="14.0732630">
        <ele>736.0</ele>
        <time>2019-08-07T08:16:11Z</time>
      </trkpt>
      <trkpt lat="48.7502310" lon="14.0733600">
        <ele>736.0</ele>
        <time>2019-08-07T08:16:12Z</time>
      </trkpt>
      <trkpt lat="48.7502180" lon="14.0734610">
        <ele>736.0</ele>
        <time>2019-08-07T08:16:13Z</time>
      </trkpt>
      <trkpt lat="48.7502050" lon="14.0735560">
        <ele>735.8</ele>
        <time>2019-08-07T08:16:14Z</time>
      </trkpt>
      <trkpt lat="48.7501890" lon="14.0736510">
        <ele>735.8</ele>
        <time>2019-08-07T08:16:15Z</time>
      </trkpt>
      <trkpt lat="48.7501710" lon="14.0737460">
        <ele>735.8</ele>
        <time>2019-08-07T08:16:16Z</time>
      </trkpt>
      <trkpt lat="48.7501530" lon="14.0738360">
        <ele>735.6</ele>
        <time>2019-08-07T08:16:17Z</time>
      </trkpt>
      <trkpt lat="48.7501330" lon="14.0739290">
        <ele>735.6</ele>
        <time>2019-08-07T08:16:18Z</time>
      </trkpt>
      <trkpt lat="48.7501120" lon="14.0740200">
        <ele>735.6</ele>
        <time>2019-08-07T08:16:19Z</time>
      </trkpt>
      <trkpt lat="48.7500910" lon="14.0741080">
        <ele>735.6</ele>
        <time>2019-08-07T08:16:20Z</time>
      </trkpt>
      <trkpt lat="48.7500690" lon="14.0742050">
        <ele>735.6</ele>
        <time>2019-08-07T08:16:21Z</time>
      </trkpt>
      <trkpt lat="48.7500490" lon="14.0742990">
        <ele>735.6</ele>
        <time>2019-08-07T08:16:22Z</time>
      </trkpt>
      <trkpt lat="48.7500310" lon="14.0743900">
        <ele>735.6</ele>
        <time>2019-08-07T08:16:23Z</time>
      </trkpt>
      <trkpt lat="48.7500130" lon="14.0744780">
        <ele>735.6</ele>
        <time>2019-08-07T08:16:24Z</time>
      </trkpt>
      <trkpt lat="48.7499930" lon="14.0745680">
        <ele>735.6</ele>
        <time>2019-08-07T08:16:25Z</time>
      </trkpt>
      <trkpt lat="48.7499740" lon="14.0746580">
        <ele>735.6</ele>
        <time>2019-08-07T08:16:26Z</time>
      </trkpt>
      <trkpt lat="48.7499530" lon="14.0747470">
        <ele>735.6</ele>
        <time>2019-08-07T08:16:27Z</time>
      </trkpt>
      <trkpt lat="48.7499330" lon="14.0748340">
        <ele>735.6</ele>
        <time>2019-08-07T08:16:28Z</time>
      </trkpt>
      <trkpt lat="48.7499120" lon="14.0749200">
        <ele>735.6</ele>
        <time>2019-08-07T08:16:29Z</time>
      </trkpt>
      <trkpt lat="48.7498900" lon="14.0750060">
        <ele>735.6</ele>
        <time>2019-08-07T08:16:30Z</time>
      </trkpt>
      <trkpt lat="48.7498660" lon="14.0750910">
        <ele>735.6</ele>
        <time>2019-08-07T08:16:31Z</time>
      </trkpt>
      <trkpt lat="48.7498390" lon="14.0751720">
        <ele>735.6</ele>
        <time>2019-08-07T08:16:32Z</time>
      </trkpt>
      <trkpt lat="48.7498100" lon="14.0752510">
        <ele>735.8</ele>
        <time>2019-08-07T08:16:33Z</time>
      </trkpt>
      <trkpt lat="48.7497790" lon="14.0753290">
        <ele>735.8</ele>
        <time>2019-08-07T08:16:34Z</time>
      </trkpt>
      <trkpt lat="48.7497480" lon="14.0754060">
        <ele>735.8</ele>
        <time>2019-08-07T08:16:35Z</time>
      </trkpt>
      <trkpt lat="48.7497140" lon="14.0754800">
        <ele>735.8</ele>
        <time>2019-08-07T08:16:36Z</time>
      </trkpt>
      <trkpt lat="48.7496800" lon="14.0755500">
        <ele>735.8</ele>
        <time>2019-08-07T08:16:37Z</time>
      </trkpt>
      <trkpt lat="48.7496440" lon="14.0756170">
        <ele>735.8</ele>
        <time>2019-08-07T08:16:38Z</time>
      </trkpt>
      <trkpt lat="48.7496080" lon="14.0756840">
        <ele>735.8</ele>
        <time>2019-08-07T08:16:39Z</time>
      </trkpt>
      <trkpt lat="48.7495730" lon="14.0757470">
        <ele>735.8</ele>
        <time>2019-08-07T08:16:40Z</time>
      </trkpt>
      <trkpt lat="48.7495370" lon="14.0758060">
        <ele>736.0</ele>
        <time>2019-08-07T08:16:41Z</time>
      </trkpt>
      <trkpt lat="48.7494990" lon="14.0758650">
        <ele>736.0</ele>
        <time>2019-08-07T08:16:42Z</time>
      </trkpt>
      <trkpt lat="48.7494610" lon="14.0759240">
        <ele>736.0</ele>
        <time>2019-08-07T08:16:43Z</time>
      </trkpt>
      <trkpt lat="48.7494220" lon="14.0759820">
        <ele>736.2</ele>
        <time>2019-08-07T08:16:44Z</time>
      </trkpt>
      <trkpt lat="48.7493840" lon="14.0760390">
        <ele>736.2</ele>
        <time>2019-08-07T08:16:45Z</time>
      </trkpt>
      <trkpt lat="48.7493460" lon="14.0760950">
        <ele>736.4</ele>
        <time>2019-08-07T08:16:46Z</time>
      </trkpt>
      <trkpt lat="48.7493080" lon="14.0761470">
        <ele>736.4</ele>
        <time>2019-08-07T08:16:47Z</time>
      </trkpt>
      <trkpt lat="48.7492700" lon="14.0762020">
        <ele>736.6</ele>
        <time>2019-08-07T08:16:48Z</time>
      </trkpt>
      <trkpt lat="48.7492350" lon="14.0762600">
        <ele>736.8</ele>
        <time>2019-08-07T08:16:49Z</time>
      </trkpt>
      <trkpt lat="48.7492010" lon="14.0763130">
        <ele>736.8</ele>
        <time>2019-08-07T08:16:50Z</time>
      </trkpt>
      <trkpt lat="48.7491680" lon="14.0763640">
        <ele>737.0</ele>
        <time>2019-08-07T08:16:51Z</time>
      </trkpt>
      <trkpt lat="48.7491350" lon="14.0764160">
        <ele>737.0</ele>
        <time>2019-08-07T08:16:52Z</time>
      </trkpt>
      <trkpt lat="48.7491010" lon="14.0764640">
        <ele>737.2</ele>
        <time>2019-08-07T08:16:53Z</time>
      </trkpt>
      <trkpt lat="48.7490690" lon="14.0765130">
        <ele>737.4</ele>
        <time>2019-08-07T08:16:54Z</time>
      </trkpt>
      <trkpt lat="48.7490370" lon="14.0765610">
        <ele>737.4</ele>
        <time>2019-08-07T08:16:55Z</time>
      </trkpt>
      <trkpt lat="48.7490070" lon="14.0766060">
        <ele>737.6</ele>
        <time>2019-08-07T08:16:56Z</time>
      </trkpt>
      <trkpt lat="48.7489750" lon="14.0766480">
        <ele>737.6</ele>
        <time>2019-08-07T08:16:57Z</time>
      </trkpt>
      <trkpt lat="48.7489440" lon="14.0766910">
        <ele>737.8</ele>
        <time>2019-08-07T08:16:58Z</time>
      </trkpt>
      <trkpt lat="48.7489150" lon="14.0767330">
        <ele>738.0</ele>
        <time>2019-08-07T08:16:59Z</time>
      </trkpt>
      <trkpt lat="48.7488850" lon="14.0767730">
        <ele>738.0</ele>
        <time>2019-08-07T08:17:00Z</time>
      </trkpt>
      <trkpt lat="48.7488560" lon="14.0768160">
        <ele>738.2</ele>
        <time>2019-08-07T08:17:01Z</time>
      </trkpt>
      <trkpt lat="48.7488270" lon="14.0768600">
        <ele>738.2</ele>
        <time>2019-08-07T08:17:02Z</time>
      </trkpt>
      <trkpt lat="48.7487980" lon="14.0769040">
        <ele>738.4</ele>
        <time>2019-08-07T08:17:03Z</time>
      </trkpt>
      <trkpt lat="48.7487710" lon="14.0769490">
        <ele>738.4</ele>
        <time>2019-08-07T08:17:04Z</time>
      </trkpt>
      <trkpt lat="48.7487420" lon="14.0769940">
        <ele>738.6</ele>
        <time>2019-08-07T08:17:05Z</time>
      </trkpt>
      <trkpt lat="48.7487150" lon="14.0770370">
        <ele>738.6</ele>
        <time>2019-08-07T08:17:06Z</time>
      </trkpt>
      <trkpt lat="48.7486870" lon="14.0770810">
        <ele>738.8</ele>
        <time>2019-08-07T08:17:07Z</time>
      </trkpt>
      <trkpt lat="48.7486590" lon="14.0771230">
        <ele>738.8</ele>
        <time>2019-08-07T08:17:08Z</time>
      </trkpt>
      <trkpt lat="48.7486290" lon="14.0771640">
        <ele>739.0</ele>
        <time>2019-08-07T08:17:09Z</time>
      </trkpt>
      <trkpt lat="48.7485990" lon="14.0772040">
        <ele>739.0</ele>
        <time>2019-08-07T08:17:10Z</time>
      </trkpt>
      <trkpt lat="48.7485700" lon="14.0772460">
        <ele>739.2</ele>
        <time>2019-08-07T08:17:11Z</time>
      </trkpt>
      <trkpt lat="48.7485400" lon="14.0772880">
        <ele>739.2</ele>
        <time>2019-08-07T08:17:12Z</time>
      </trkpt>
      <trkpt lat="48.7485120" lon="14.0773300">
        <ele>739.4</ele>
        <time>2019-08-07T08:17:13Z</time>
      </trkpt>
      <trkpt lat="48.7484820" lon="14.0773720">
        <ele>739.4</ele>
        <time>2019-08-07T08:17:14Z</time>
      </trkpt>
      <trkpt lat="48.7484530" lon="14.0774140">
        <ele>739.4</ele>
        <time>2019-08-07T08:17:15Z</time>
      </trkpt>
      <trkpt lat="48.7484250" lon="14.0774550">
        <ele>739.6</ele>
        <time>2019-08-07T08:17:16Z</time>
      </trkpt>
      <trkpt lat="48.7483980" lon="14.0774980">
        <ele>739.6</ele>
        <time>2019-08-07T08:17:17Z</time>
      </trkpt>
      <trkpt lat="48.7483730" lon="14.0775380">
        <ele>739.8</ele>
        <time>2019-08-07T08:17:18Z</time>
      </trkpt>
      <trkpt lat="48.7483460" lon="14.0775790">
        <ele>739.8</ele>
        <time>2019-08-07T08:17:19Z</time>
      </trkpt>
      <trkpt lat="48.7483200" lon="14.0776200">
        <ele>740.0</ele>
        <time>2019-08-07T08:17:20Z</time>
      </trkpt>
      <trkpt lat="48.7482950" lon="14.0776590">
        <ele>740.0</ele>
        <time>2019-08-07T08:17:21Z</time>
      </trkpt>
      <trkpt lat="48.7482680" lon="14.0777030">
        <ele>740.0</ele>
        <time>2019-08-07T08:17:22Z</time>
      </trkpt>
      <trkpt lat="48.7482410" lon="14.0777470">
        <ele>740.2</ele>
        <time>2019-08-07T08:17:23Z</time>
      </trkpt>
      <trkpt lat="48.7482150" lon="14.0777870">
        <ele>740.2</ele>
        <time>2019-08-07T08:17:24Z</time>
      </trkpt>
      <trkpt lat="48.7481870" lon="14.0778270">
        <ele>740.2</ele>
        <time>2019-08-07T08:17:25Z</time>
      </trkpt>
      <trkpt lat="48.7481580" lon="14.0778660">
        <ele>740.4</ele>
        <time>2019-08-07T08:17:26Z</time>
      </trkpt>
      <trkpt lat="48.7481310" lon="14.0779040">
        <ele>740.4</ele>
        <time>2019-08-07T08:17:27Z</time>
      </trkpt>
      <trkpt lat="48.7481060" lon="14.0779440">
        <ele>740.4</ele>
        <time>2019-08-07T08:17:28Z</time>
      </trkpt>
      <trkpt lat="48.7480800" lon="14.0779820">
        <ele>740.4</ele>
        <time>2019-08-07T08:17:29Z</time>
      </trkpt>
      <trkpt lat="48.7480530" lon="14.0780210">
        <ele>740.6</ele>
        <time>2019-08-07T08:17:30Z</time>
      </trkpt>
      <trkpt lat="48.7480260" lon="14.0780580">
        <ele>740.6</ele>
        <time>2019-08-07T08:17:31Z</time>
      </trkpt>
      <trkpt lat="48.7479980" lon="14.0780960">
        <ele>740.6</ele>
        <time>2019-08-07T08:17:32Z</time>
      </trkpt>
      <trkpt lat="48.7479700" lon="14.0781370">
        <ele>740.6</ele>
        <time>2019-08-07T08:17:33Z</time>
      </trkpt>
      <trkpt lat="48.7479390" lon="14.0781780">
        <ele>740.6</ele>
        <time>2019-08-07T08:17:34Z</time>
      </trkpt>
      <trkpt lat="48.7479090" lon="14.0782200">
        <ele>740.6</ele>
        <time>2019-08-07T08:17:35Z</time>
      </trkpt>
      <trkpt lat="48.7478790" lon="14.0782580">
        <ele>740.6</ele>
        <time>2019-08-07T08:17:36Z</time>
      </trkpt>
      <trkpt lat="48.7478470" lon="14.0782960">
        <ele>740.8</ele>
        <time>2019-08-07T08:17:37Z</time>
      </trkpt>
      <trkpt lat="48.7478150" lon="14.0783320">
        <ele>740.8</ele>
        <time>2019-08-07T08:17:38Z</time>
      </trkpt>
      <trkpt lat="48.7477810" lon="14.0783690">
        <ele>740.8</ele>
        <time>2019-08-07T08:17:39Z</time>
      </trkpt>
      <trkpt lat="48.7477470" lon="14.0784060">
        <ele>740.8</ele>
        <time>2019-08-07T08:17:40Z</time>
      </trkpt>
      <trkpt lat="48.7477120" lon="14.0784430">
        <ele>740.8</ele>
        <time>2019-08-07T08:17:41Z</time>
      </trkpt>
      <trkpt lat="48.7476750" lon="14.0784780">
        <ele>740.8</ele>
        <time>2019-08-07T08:17:42Z</time>
      </trkpt>
      <trkpt lat="48.7476370" lon="14.0785130">
        <ele>740.8</ele>
        <time>2019-08-07T08:17:43Z</time>
      </trkpt>
      <trkpt lat="48.7475950" lon="14.0785550">
        <ele>740.8</ele>
        <time>2019-08-07T08:17:44Z</time>
      </trkpt>
      <trkpt lat="48.7475540" lon="14.0785950">
        <ele>740.6</ele>
        <time>2019-08-07T08:17:45Z</time>
      </trkpt>
      <trkpt lat="48.7475100" lon="14.0786350">
        <ele>740.6</ele>
        <time>2019-08-07T08:17:46Z</time>
      </trkpt>
      <trkpt lat="48.7474700" lon="14.0786740">
        <ele>740.6</ele>
        <time>2019-08-07T08:17:47Z</time>
      </trkpt>
      <trkpt lat="48.7474290" lon="14.0787120">
        <ele>740.6</ele>
        <time>2019-08-07T08:17:48Z</time>
      </trkpt>
      <trkpt lat="48.7473870" lon="14.0787530">
        <ele>740.6</ele>
        <time>2019-08-07T08:17:49Z</time>
      </trkpt>
      <trkpt lat="48.7473450" lon="14.0787950">
        <ele>740.6</ele>
        <time>2019-08-07T08:17:50Z</time>
      </trkpt>
      <trkpt lat="48.7473020" lon="14.0788360">
        <ele>740.4</ele>
        <time>2019-08-07T08:17:51Z</time>
      </trkpt>
      <trkpt lat="48.7472570" lon="14.0788740">
        <ele>740.4</ele>
        <time>2019-08-07T08:17:52Z</time>
      </trkpt>
      <trkpt lat="48.7472130" lon="14.0789160">
        <ele>740.4</ele>
        <time>2019-08-07T08:17:53Z</time>
      </trkpt>
      <trkpt lat="48.7471670" lon="14.0789620">
        <ele>740.4</ele>
        <time>2019-08-07T08:17:54Z</time>
      </trkpt>
      <trkpt lat="48.7471240" lon="14.0790100">
        <ele>740.2</ele>
        <time>2019-08-07T08:17:55Z</time>
      </trkpt>
      <trkpt lat="48.7470790" lon="14.0790610">
        <ele>740.2</ele>
        <time>2019-08-07T08:17:56Z</time>
      </trkpt>
      <trkpt lat="48.7470340" lon="14.0791190">
        <ele>740.0</ele>
        <time>2019-08-07T08:17:57Z</time>
      </trkpt>
      <trkpt lat="48.7469920" lon="14.0791780">
        <ele>740.0</ele>
        <time>2019-08-07T08:17:58Z</time>
      </trkpt>
      <trkpt lat="48.7469520" lon="14.0792400">
        <ele>739.8</ele>
        <time>2019-08-07T08:17:59Z</time>
      </trkpt>
      <trkpt lat="48.7469130" lon="14.0793040">
        <ele>739.8</ele>
        <time>2019-08-07T08:18:00Z</time>
      </trkpt>
      <trkpt lat="48.7468740" lon="14.0793690">
        <ele>739.8</ele>
        <time>2019-08-07T08:18:01Z</time>
      </trkpt>
      <trkpt lat="48.7468370" lon="14.0794350">
        <ele>739.8</ele>
        <time>2019-08-07T08:18:02Z</time>
      </trkpt>
      <trkpt lat="48.7468020" lon="14.0795020">
        <ele>739.8</ele>
        <time>2019-08-07T08:18:03Z</time>
      </trkpt>
      <trkpt lat="48.7467670" lon="14.0795710">
        <ele>739.6</ele>
        <time>2019-08-07T08:18:04Z</time>
      </trkpt>
      <trkpt lat="48.7467330" lon="14.0796390">
        <ele>739.6</ele>
        <time>2019-08-07T08:18:05Z</time>
      </trkpt>
      <trkpt lat="48.7467010" lon="14.0797060">
        <ele>739.6</ele>
        <time>2019-08-07T08:18:06Z</time>
      </trkpt>
      <trkpt lat="48.7466690" lon="14.0797730">
        <ele>739.6</ele>
        <time>2019-08-07T08:18:07Z</time>
      </trkpt>
      <trkpt lat="48.7466380" lon="14.0798380">
        <ele>739.6</ele>
        <time>2019-08-07T08:18:08Z</time>
      </trkpt>
      <trkpt lat="48.7466060" lon="14.0799060">
        <ele>739.6</ele>
        <time>2019-08-07T08:18:09Z</time>
      </trkpt>
      <trkpt lat="48.7465750" lon="14.0799740">
        <ele>739.6</ele>
        <time>2019-08-07T08:18:10Z</time>
      </trkpt>
      <trkpt lat="48.7465450" lon="14.0800410">
        <ele>739.6</ele>
        <time>2019-08-07T08:18:11Z</time>
      </trkpt>
      <trkpt lat="48.7465140" lon="14.0801080">
        <ele>739.4</ele>
        <time>2019-08-07T08:18:12Z</time>
      </trkpt>
      <trkpt lat="48.7464830" lon="14.0801730">
        <ele>739.4</ele>
        <time>2019-08-07T08:18:13Z</time>
      </trkpt>
      <trkpt lat="48.7464520" lon="14.0802400">
        <ele>739.4</ele>
        <time>2019-08-07T08:18:14Z</time>
      </trkpt>
      <trkpt lat="48.7464210" lon="14.0803080">
        <ele>739.4</ele>
        <time>2019-08-07T08:18:15Z</time>
      </trkpt>
      <trkpt lat="48.7463910" lon="14.0803780">
        <ele>739.2</ele>
        <time>2019-08-07T08:18:16Z</time>
      </trkpt>
      <trkpt lat="48.7463600" lon="14.0804500">
        <ele>739.2</ele>
        <time>2019-08-07T08:18:17Z</time>
      </trkpt>
      <trkpt lat="48.7463290" lon="14.0805210">
        <ele>739.0</ele>
        <time>2019-08-07T08:18:18Z</time>
      </trkpt>
      <trkpt lat="48.7462970" lon="14.0805940">
        <ele>739.0</ele>
        <time>2019-08-07T08:18:19Z</time>
      </trkpt>
      <trkpt lat="48.7462640" lon="14.0806670">
        <ele>738.8</ele>
        <time>2019-08-07T08:18:20Z</time>
      </trkpt>
      <trkpt lat="48.7462320" lon="14.0807420">
        <ele>738.8</ele>
        <time>2019-08-07T08:18:21Z</time>
      </trkpt>
      <trkpt lat="48.7461990" lon="14.0808180">
        <ele>738.6</ele>
        <time>2019-08-07T08:18:22Z</time>
      </trkpt>
      <trkpt lat="48.7461680" lon="14.0808940">
        <ele>738.6</ele>
        <time>2019-08-07T08:18:23Z</time>
      </trkpt>
      <trkpt lat="48.7461370" lon="14.0809730">
        <ele>738.4</ele>
        <time>2019-08-07T08:18:24Z</time>
      </trkpt>
      <trkpt lat="48.7461060" lon="14.0810530">
        <ele>738.4</ele>
        <time>2019-08-07T08:18:25Z</time>
      </trkpt>
      <trkpt lat="48.7460750" lon="14.0811340">
        <ele>738.2</ele>
        <time>2019-08-07T08:18:26Z</time>
      </trkpt>
      <trkpt lat="48.7460460" lon="14.0812120">
        <ele>738.2</ele>
        <time>2019-08-07T08:18:27Z</time>
      </trkpt>
      <trkpt lat="48.7460160" lon="14.0812920">
        <ele>738.2</ele>
        <time>2019-08-07T08:18:28Z</time>
      </trkpt>
      <trkpt lat="48.7459850" lon="14.0813760">
        <ele>738.0</ele>
        <time>2019-08-07T08:18:29Z</time>
      </trkpt>
      <trkpt lat="48.7459560" lon="14.0814600">
        <ele>738.0</ele>
        <time>2019-08-07T08:18:30Z</time>
      </trkpt>
      <trkpt lat="48.7459240" lon="14.0815440">
        <ele>737.8</ele>
        <time>2019-08-07T08:18:31Z</time>
      </trkpt>
      <trkpt lat="48.7458930" lon="14.0816280">
        <ele>737.8</ele>
        <time>2019-08-07T08:18:32Z</time>
      </trkpt>
      <trkpt lat="48.7458610" lon="14.0817130">
        <ele>737.6</ele>
        <time>2019-08-07T08:18:33Z</time>
      </trkpt>
      <trkpt lat="48.7458290" lon="14.0817980">
        <ele>737.6</ele>
        <time>2019-08-07T08:18:34Z</time>
      </trkpt>
      <trkpt lat="48.7457990" lon="14.0818830">
        <ele>737.4</ele>
        <time>2019-08-07T08:18:35Z</time>
      </trkpt>
      <trkpt lat="48.7457700" lon="14.0819700">
        <ele>737.4</ele>
        <time>2019-08-07T08:18:36Z</time>
      </trkpt>
      <trkpt lat="48.7457420" lon="14.0820580">
        <ele>737.4</ele>
        <time>2019-08-07T08:18:37Z</time>
      </trkpt>
      <trkpt lat="48.7457120" lon="14.0821470">
        <ele>737.2</ele>
        <time>2019-08-07T08:18:38Z</time>
      </trkpt>
      <trkpt lat="48.7456830" lon="14.0822350">
        <ele>737.2</ele>
        <time>2019-08-07T08:18:39Z</time>
      </trkpt>
      <trkpt lat="48.7456560" lon="14.0823240">
        <ele>737.0</ele>
        <time>2019-08-07T08:18:40Z</time>
      </trkpt>
      <trkpt lat="48.7456270" lon="14.0824110">
        <ele>737.0</ele>
        <time>2019-08-07T08:18:41Z</time>
      </trkpt>
      <trkpt lat="48.7455990" lon="14.0824970">
        <ele>737.0</ele>
        <time>2019-08-07T08:18:42Z</time>
      </trkpt>
      <trkpt lat="48.7455710" lon="14.0825840">
        <ele>736.8</ele>
        <time>2019-08-07T08:18:43Z</time>
      </trkpt>
      <trkpt lat="48.7455410" lon="14.0826720">
        <ele>736.8</ele>
        <time>2019-08-07T08:18:44Z</time>
      </trkpt>
      <trkpt lat="48.7455130" lon="14.0827610">
        <ele>736.8</ele>
        <time>2019-08-07T08:18:45Z</time>
      </trkpt>
      <trkpt lat="48.7454850" lon="14.0828480">
        <ele>736.6</ele>
        <time>2019-08-07T08:18:46Z</time>
      </trkpt>
      <trkpt lat="48.7454580" lon="14.0829360">
        <ele>736.6</ele>
        <time>2019-08-07T08:18:47Z</time>
      </trkpt>
      <trkpt lat="48.7454310" lon="14.0830220">
        <ele>736.4</ele>
        <time>2019-08-07T08:18:48Z</time>
      </trkpt>
      <trkpt lat="48.7454030" lon="14.0831080">
        <ele>736.4</ele>
        <time>2019-08-07T08:18:49Z</time>
      </trkpt>
      <trkpt lat="48.7453760" lon="14.0831950">
        <ele>736.2</ele>
        <time>2019-08-07T08:18:50Z</time>
      </trkpt>
      <trkpt lat="48.7453500" lon="14.0832800">
        <ele>736.2</ele>
        <time>2019-08-07T08:18:51Z</time>
      </trkpt>
      <trkpt lat="48.7453240" lon="14.0833620">
        <ele>736.2</ele>
        <time>2019-08-07T08:18:52Z</time>
      </trkpt>
      <trkpt lat="48.7452980" lon="14.0834450">
        <ele>736.2</ele>
        <time>2019-08-07T08:18:53Z</time>
      </trkpt>
      <trkpt lat="48.7452700" lon="14.0835280">
        <ele>736.0</ele>
        <time>2019-08-07T08:18:54Z</time>
      </trkpt>
      <trkpt lat="48.7452400" lon="14.0836080">
        <ele>736.0</ele>
        <time>2019-08-07T08:18:55Z</time>
      </trkpt>
      <trkpt lat="48.7452110" lon="14.0836860">
        <ele>736.0</ele>
        <time>2019-08-07T08:18:56Z</time>
      </trkpt>
      <trkpt lat="48.7451790" lon="14.0837640">
        <ele>736.0</ele>
        <time>2019-08-07T08:18:57Z</time>
      </trkpt>
      <trkpt lat="48.7451490" lon="14.0838400">
        <ele>736.0</ele>
        <time>2019-08-07T08:18:58Z</time>
      </trkpt>
      <trkpt lat="48.7451180" lon="14.0839130">
        <ele>736.0</ele>
        <time>2019-08-07T08:18:59Z</time>
      </trkpt>
      <trkpt lat="48.7450860" lon="14.0839820">
        <ele>736.0</ele>
        <time>2019-08-07T08:19:00Z</time>
      </trkpt>
      <trkpt lat="48.7450540" lon="14.0840480">
        <ele>736.0</ele>
        <time>2019-08-07T08:19:01Z</time>
      </trkpt>
      <trkpt lat="48.7450220" lon="14.0841120">
        <ele>736.0</ele>
        <time>2019-08-07T08:19:02Z</time>
      </trkpt>
      <trkpt lat="48.7449900" lon="14.0841730">
        <ele>735.8</ele>
        <time>2019-08-07T08:19:03Z</time>
      </trkpt>
      <trkpt lat="48.7449540" lon="14.0842350">
        <ele>735.8</ele>
        <time>2019-08-07T08:19:04Z</time>
      </trkpt>
      <trkpt lat="48.7449170" lon="14.0842950">
        <ele>735.8</ele>
        <time>2019-08-07T08:19:05Z</time>
      </trkpt>
      <trkpt lat="48.7448790" lon="14.0843490">
        <ele>735.8</ele>
        <time>2019-08-07T08:19:06Z</time>
      </trkpt>
      <trkpt lat="48.7448410" lon="14.0844000">
        <ele>735.8</ele>
        <time>2019-08-07T08:19:07Z</time>
      </trkpt>
      <trkpt lat="48.7448040" lon="14.0844510">
        <ele>735.6</ele>
        <time>2019-08-07T08:19:08Z</time>
      </trkpt>
      <trkpt lat="48.7447660" lon="14.0845000">
        <ele>735.6</ele>
        <time>2019-08-07T08:19:09Z</time>
      </trkpt>
      <trkpt lat="48.7447280" lon="14.0845500">
        <ele>735.6</ele>
        <time>2019-08-07T08:19:10Z</time>
      </trkpt>
      <trkpt lat="48.7446880" lon="14.0846010">
        <ele>735.6</ele>
        <time>2019-08-07T08:19:11Z</time>
      </trkpt>
      <trkpt lat="48.7446460" lon="14.0846480">
        <ele>735.6</ele>
        <time>2019-08-07T08:19:12Z</time>
      </trkpt>
      <trkpt lat="48.7446040" lon="14.0846900">
        <ele>735.4</ele>
        <time>2019-08-07T08:19:13Z</time>
      </trkpt>
      <trkpt lat="48.7445600" lon="14.0847360">
        <ele>735.4</ele>
        <time>2019-08-07T08:19:14Z</time>
      </trkpt>
      <trkpt lat="48.7445190" lon="14.0847820">
        <ele>735.4</ele>
        <time>2019-08-07T08:19:15Z</time>
      </trkpt>
      <trkpt lat="48.7444770" lon="14.0848270">
        <ele>735.4</ele>
        <time>2019-08-07T08:19:16Z</time>
      </trkpt>
      <trkpt lat="48.7444340" lon="14.0848710">
        <ele>735.4</ele>
        <time>2019-08-07T08:19:17Z</time>
      </trkpt>
      <trkpt lat="48.7443880" lon="14.0849140">
        <ele>735.4</ele>
        <time>2019-08-07T08:19:18Z</time>
      </trkpt>
      <trkpt lat="48.7443410" lon="14.0849550">
        <ele>735.2</ele>
        <time>2019-08-07T08:19:19Z</time>
      </trkpt>
      <trkpt lat="48.7442930" lon="14.0849910">
        <ele>735.2</ele>
        <time>2019-08-07T08:19:20Z</time>
      </trkpt>
      <trkpt lat="48.7442440" lon="14.0850260">
        <ele>735.2</ele>
        <time>2019-08-07T08:19:21Z</time>
      </trkpt>
      <trkpt lat="48.7441950" lon="14.0850620">
        <ele>735.2</ele>
        <time>2019-08-07T08:19:22Z</time>
      </trkpt>
      <trkpt lat="48.7441470" lon="14.0850970">
        <ele>735.2</ele>
        <time>2019-08-07T08:19:23Z</time>
      </trkpt>
      <trkpt lat="48.7440980" lon="14.0851300">
        <ele>735.2</ele>
        <time>2019-08-07T08:19:24Z</time>
      </trkpt>
      <trkpt lat="48.7440470" lon="14.0851640">
        <ele>735.0</ele>
        <time>2019-08-07T08:19:25Z</time>
      </trkpt>
      <trkpt lat="48.7439950" lon="14.0851970">
        <ele>735.0</ele>
        <time>2019-08-07T08:19:26Z</time>
      </trkpt>
      <trkpt lat="48.7439440" lon="14.0852290">
        <ele>735.0</ele>
        <time>2019-08-07T08:19:27Z</time>
      </trkpt>
      <trkpt lat="48.7438920" lon="14.0852620">
        <ele>734.8</ele>
        <time>2019-08-07T08:19:28Z</time>
      </trkpt>
      <trkpt lat="48.7438410" lon="14.0852930">
        <ele>734.8</ele>
        <time>2019-08-07T08:19:29Z</time>
      </trkpt>
      <trkpt lat="48.7437870" lon="14.0853200">
        <ele>734.8</ele>
        <time>2019-08-07T08:19:30Z</time>
      </trkpt>
      <trkpt lat="48.7437360" lon="14.0853460">
        <ele>734.8</ele>
        <time>2019-08-07T08:19:31Z</time>
      </trkpt>
      <trkpt lat="48.7436850" lon="14.0853720">
        <ele>734.8</ele>
        <time>2019-08-07T08:19:32Z</time>
      </trkpt>
      <trkpt lat="48.7436380" lon="14.0854000">
        <ele>734.6</ele>
        <time>2019-08-07T08:19:33Z</time>
      </trkpt>
      <trkpt lat="48.7435900" lon="14.0854250">
        <ele>734.6</ele>
        <time>2019-08-07T08:19:34Z</time>
      </trkpt>
      <trkpt lat="48.7435450" lon="14.0854520">
        <ele>734.6</ele>
        <time>2019-08-07T08:19:35Z</time>
      </trkpt>
      <trkpt lat="48.7435010" lon="14.0854730">
        <ele>734.6</ele>
        <time>2019-08-07T08:19:36Z</time>
      </trkpt>
      <trkpt lat="48.7434600" lon="14.0854830">
        <ele>734.4</ele>
        <time>2019-08-07T08:19:37Z</time>
      </trkpt>
      <trkpt lat="48.7434210" lon="14.0854910">
        <ele>734.4</ele>
        <time>2019-08-07T08:19:38Z</time>
      </trkpt>
      <trkpt lat="48.7433850" lon="14.0854980">
        <ele>734.4</ele>
        <time>2019-08-07T08:19:39Z</time>
      </trkpt>
      <trkpt lat="48.7433520" lon="14.0855040">
        <ele>734.4</ele>
        <time>2019-08-07T08:19:40Z</time>
      </trkpt>
      <trkpt lat="48.7433200" lon="14.0855110">
        <ele>734.4</ele>
        <time>2019-08-07T08:19:41Z</time>
      </trkpt>
      <trkpt lat="48.7432880" lon="14.0855230">
        <ele>734.4</ele>
        <time>2019-08-07T08:19:42Z</time>
      </trkpt>
      <trkpt lat="48.7432570" lon="14.0855370">
        <ele>734.4</ele>
        <time>2019-08-07T08:19:43Z</time>
      </trkpt>
      <trkpt lat="48.7432270" lon="14.0855480">
        <ele>734.4</ele>
        <time>2019-08-07T08:19:44Z</time>
      </trkpt>
      <trkpt lat="48.7431950" lon="14.0855510">
        <ele>734.4</ele>
        <time>2019-08-07T08:19:45Z</time>
      </trkpt>
      <trkpt lat="48.7431610" lon="14.0855490">
        <ele>734.4</ele>
        <time>2019-08-07T08:19:46Z</time>
      </trkpt>
      <trkpt lat="48.7431260" lon="14.0855530">
        <ele>734.4</ele>
        <time>2019-08-07T08:19:47Z</time>
      </trkpt>
      <trkpt lat="48.7430900" lon="14.0855690">
        <ele>734.6</ele>
        <time>2019-08-07T08:19:48Z</time>
      </trkpt>
      <trkpt lat="48.7430540" lon="14.0855920">
        <ele>734.6</ele>
        <time>2019-08-07T08:19:49Z</time>
      </trkpt>
      <trkpt lat="48.7430190" lon="14.0856190">
        <ele>734.8</ele>
        <time>2019-08-07T08:19:50Z</time>
      </trkpt>
      <trkpt lat="48.7429860" lon="14.0856500">
        <ele>734.8</ele>
        <time>2019-08-07T08:19:51Z</time>
      </trkpt>
      <trkpt lat="48.7429560" lon="14.0856850">
        <ele>734.8</ele>
        <time>2019-08-07T08:19:52Z</time>
      </trkpt>
      <trkpt lat="48.7429250" lon="14.0857280">
        <ele>734.8</ele>
        <time>2019-08-07T08:19:53Z</time>
      </trkpt>
      <trkpt lat="48.7428920" lon="14.0857780">
        <ele>734.8</ele>
        <time>2019-08-07T08:19:54Z</time>
      </trkpt>
      <trkpt lat="48.7428620" lon="14.0858300">
        <ele>734.8</ele>
        <time>2019-08-07T08:19:55Z</time>
      </trkpt>
      <trkpt lat="48.7428340" lon="14.0858850">
        <ele>734.8</ele>
        <time>2019-08-07T08:19:56Z</time>
      </trkpt>
      <trkpt lat="48.7428080" lon="14.0859410">
        <ele>734.8</ele>
        <time>2019-08-07T08:19:57Z</time>
      </trkpt>
      <trkpt lat="48.7427850" lon="14.0859950">
        <ele>735.0</ele>
        <time>2019-08-07T08:19:58Z</time>
      </trkpt>
      <trkpt lat="48.7427650" lon="14.0860490">
        <ele>735.0</ele>
        <time>2019-08-07T08:19:59Z</time>
      </trkpt>
      <trkpt lat="48.7427440" lon="14.0861040">
        <ele>735.0</ele>
        <time>2019-08-07T08:20:00Z</time>
      </trkpt>
      <trkpt lat="48.7427230" lon="14.0861620">
        <ele>735.0</ele>
        <time>2019-08-07T08:20:01Z</time>
      </trkpt>
      <trkpt lat="48.7427030" lon="14.0862220">
        <ele>735.0</ele>
        <time>2019-08-07T08:20:02Z</time>
      </trkpt>
      <trkpt lat="48.7426830" lon="14.0862810">
        <ele>735.0</ele>
        <time>2019-08-07T08:20:03Z</time>
      </trkpt>
      <trkpt lat="48.7426660" lon="14.0863400">
        <ele>735.0</ele>
        <time>2019-08-07T08:20:04Z</time>
      </trkpt>
      <trkpt lat="48.7426470" lon="14.0863970">
        <ele>735.0</ele>
        <time>2019-08-07T08:20:05Z</time>
      </trkpt>
      <trkpt lat="48.7426280" lon="14.0864560">
        <ele>735.2</ele>
        <time>2019-08-07T08:20:06Z</time>
      </trkpt>
      <trkpt lat="48.7426110" lon="14.0865190">
        <ele>735.2</ele>
        <time>2019-08-07T08:20:07Z</time>
      </trkpt>
      <trkpt lat="48.7425940" lon="14.0865860">
        <ele>735.2</ele>
        <time>2019-08-07T08:20:08Z</time>
      </trkpt>
      <trkpt lat="48.7425730" lon="14.0866500">
        <ele>735.0</ele>
        <time>2019-08-07T08:20:09Z</time>
      </trkpt>
      <trkpt lat="48.7425580" lon="14.0867200">
        <ele>735.0</ele>
        <time>2019-08-07T08:20:10Z</time>
      </trkpt>
      <trkpt lat="48.7425410" lon="14.0867840">
        <ele>735.2</ele>
        <time>2019-08-07T08:20:11Z</time>
      </trkpt>
      <trkpt lat="48.7425230" lon="14.0868460">
        <ele>735.2</ele>
        <time>2019-08-07T08:20:12Z</time>
      </trkpt>
      <trkpt lat="48.7425050" lon="14.0869060">
        <ele>735.2</ele>
        <time>2019-08-07T08:20:13Z</time>
      </trkpt>
      <trkpt lat="48.7424860" lon="14.0869670">
        <ele>735.2</ele>
        <time>2019-08-07T08:20:14Z</time>
      </trkpt>
      <trkpt lat="48.7424730" lon="14.0870260">
        <ele>735.2</ele>
        <time>2019-08-07T08:20:15Z</time>
      </trkpt>
      <trkpt lat="48.7424610" lon="14.0870870">
        <ele>735.2</ele>
        <time>2019-08-07T08:20:16Z</time>
      </trkpt>
      <trkpt lat="48.7424420" lon="14.0871510">
        <ele>735.2</ele>
        <time>2019-08-07T08:20:17Z</time>
      </trkpt>
      <trkpt lat="48.7424230" lon="14.0872150">
        <ele>735.4</ele>
        <time>2019-08-07T08:20:18Z</time>
      </trkpt>
      <trkpt lat="48.7424030" lon="14.0872780">
        <ele>735.4</ele>
        <time>2019-08-07T08:20:19Z</time>
      </trkpt>
      <trkpt lat="48.7423830" lon="14.0873400">
        <ele>735.4</ele>
        <time>2019-08-07T08:20:20Z</time>
      </trkpt>
      <trkpt lat="48.7423630" lon="14.0873970">
        <ele>735.4</ele>
        <time>2019-08-07T08:20:21Z</time>
      </trkpt>
      <trkpt lat="48.7423420" lon="14.0874580">
        <ele>735.4</ele>
        <time>2019-08-07T08:20:22Z</time>
      </trkpt>
      <trkpt lat="48.7423210" lon="14.0875260">
        <ele>735.4</ele>
        <time>2019-08-07T08:20:23Z</time>
      </trkpt>
      <trkpt lat="48.7423000" lon="14.0875940">
        <ele>735.4</ele>
        <time>2019-08-07T08:20:24Z</time>
      </trkpt>
      <trkpt lat="48.7422770" lon="14.0876580">
        <ele>735.6</ele>
        <time>2019-08-07T08:20:25Z</time>
      </trkpt>
      <trkpt lat="48.7422540" lon="14.0877220">
        <ele>735.6</ele>
        <time>2019-08-07T08:20:26Z</time>
      </trkpt>
      <trkpt lat="48.7422320" lon="14.0877880">
        <ele>735.6</ele>
        <time>2019-08-07T08:20:27Z</time>
      </trkpt>
      <trkpt lat="48.7422090" lon="14.0878530">
        <ele>735.6</ele>
        <time>2019-08-07T08:20:28Z</time>
      </trkpt>
      <trkpt lat="48.7421870" lon="14.0879180">
        <ele>735.6</ele>
        <time>2019-08-07T08:20:29Z</time>
      </trkpt>
      <trkpt lat="48.7421650" lon="14.0879830">
        <ele>735.8</ele>
        <time>2019-08-07T08:20:30Z</time>
      </trkpt>
      <trkpt lat="48.7421450" lon="14.0880480">
        <ele>735.8</ele>
        <time>2019-08-07T08:20:31Z</time>
      </trkpt>
      <trkpt lat="48.7421280" lon="14.0881090">
        <ele>735.8</ele>
        <time>2019-08-07T08:20:32Z</time>
      </trkpt>
      <trkpt lat="48.7421110" lon="14.0881720">
        <ele>735.8</ele>
        <time>2019-08-07T08:20:33Z</time>
      </trkpt>
      <trkpt lat="48.7420960" lon="14.0882350">
        <ele>736.0</ele>
        <time>2019-08-07T08:20:34Z</time>
      </trkpt>
      <trkpt lat="48.7420830" lon="14.0882970">
        <ele>736.0</ele>
        <time>2019-08-07T08:20:35Z</time>
      </trkpt>
      <trkpt lat="48.7420710" lon="14.0883580">
        <ele>736.2</ele>
        <time>2019-08-07T08:20:36Z</time>
      </trkpt>
      <trkpt lat="48.7420580" lon="14.0884200">
        <ele>736.2</ele>
        <time>2019-08-07T08:20:37Z</time>
      </trkpt>
      <trkpt lat="48.7420490" lon="14.0884820">
        <ele>736.2</ele>
        <time>2019-08-07T08:20:38Z</time>
      </trkpt>
      <trkpt lat="48.7420430" lon="14.0885460">
        <ele>736.2</ele>
        <time>2019-08-07T08:20:39Z</time>
      </trkpt>
      <trkpt lat="48.7420380" lon="14.0886130">
        <ele>736.2</ele>
        <time>2019-08-07T08:20:40Z</time>
      </trkpt>
      <trkpt lat="48.7420330" lon="14.0886810">
        <ele>736.2</ele>
        <time>2019-08-07T08:20:41Z</time>
      </trkpt>
      <trkpt lat="48.7420270" lon="14.0887500">
        <ele>736.2</ele>
        <time>2019-08-07T08:20:42Z</time>
      </trkpt>
      <trkpt lat="48.7420190" lon="14.0888200">
        <ele>736.2</ele>
        <time>2019-08-07T08:20:43Z</time>
      </trkpt>
      <trkpt lat="48.7420120" lon="14.0888900">
        <ele>736.2</ele>
        <time>2019-08-07T08:20:44Z</time>
      </trkpt>
      <trkpt lat="48.7420050" lon="14.0889620">
        <ele>736.2</ele>
        <time>2019-08-07T08:20:45Z</time>
      </trkpt>
      <trkpt lat="48.7419970" lon="14.0890340">
        <ele>736.2</ele>
        <time>2019-08-07T08:20:46Z</time>
      </trkpt>
      <trkpt lat="48.7419890" lon="14.0891080">
        <ele>736.0</ele>
        <time>2019-08-07T08:20:47Z</time>
      </trkpt>
      <trkpt lat="48.7419800" lon="14.0891830">
        <ele>736.0</ele>
        <time>2019-08-07T08:20:48Z</time>
      </trkpt>
      <trkpt lat="48.7419730" lon="14.0892610">
        <ele>736.0</ele>
        <time>2019-08-07T08:20:49Z</time>
      </trkpt>
      <trkpt lat="48.7419670" lon="14.0893400">
        <ele>736.0</ele>
        <time>2019-08-07T08:20:50Z</time>
      </trkpt>
      <trkpt lat="48.7419600" lon="14.0894210">
        <ele>735.8</ele>
        <time>2019-08-07T08:20:51Z</time>
      </trkpt>
      <trkpt lat="48.7419540" lon="14.0895040">
        <ele>735.8</ele>
        <time>2019-08-07T08:20:52Z</time>
      </trkpt>
      <trkpt lat="48.7419480" lon="14.0895880">
        <ele>735.6</ele>
        <time>2019-08-07T08:20:53Z</time>
      </trkpt>
      <trkpt lat="48.7419420" lon="14.0896730">
        <ele>735.6</ele>
        <time>2019-08-07T08:20:54Z</time>
      </trkpt>
      <trkpt lat="48.7419340" lon="14.0897600">
        <ele>735.6</ele>
        <time>2019-08-07T08:20:55Z</time>
      </trkpt>
      <trkpt lat="48.7419240" lon="14.0898480">
        <ele>735.4</ele>
        <time>2019-08-07T08:20:56Z</time>
      </trkpt>
      <trkpt lat="48.7419140" lon="14.0899390">
        <ele>735.2</ele>
        <time>2019-08-07T08:20:57Z</time>
      </trkpt>
      <trkpt lat="48.7419040" lon="14.0900310">
        <ele>735.2</ele>
        <time>2019-08-07T08:20:58Z</time>
      </trkpt>
      <trkpt lat="48.7418970" lon="14.0901240">
        <ele>735.0</ele>
        <time>2019-08-07T08:20:59Z</time>
      </trkpt>
      <trkpt lat="48.7418900" lon="14.0902220">
        <ele>735.0</ele>
        <time>2019-08-07T08:21:00Z</time>
      </trkpt>
      <trkpt lat="48.7418850" lon="14.0903180">
        <ele>734.8</ele>
        <time>2019-08-07T08:21:01Z</time>
      </trkpt>
      <trkpt lat="48.7418810" lon="14.0904160">
        <ele>734.6</ele>
        <time>2019-08-07T08:21:02Z</time>
      </trkpt>
      <trkpt lat="48.7418790" lon="14.0905150">
        <ele>734.6</ele>
        <time>2019-08-07T08:21:03Z</time>
      </trkpt>
      <trkpt lat="48.7418780" lon="14.0906150">
        <ele>734.6</ele>
        <time>2019-08-07T08:21:04Z</time>
      </trkpt>
      <trkpt lat="48.7418800" lon="14.0907150">
        <ele>734.4</ele>
        <time>2019-08-07T08:21:05Z</time>
      </trkpt>
      <trkpt lat="48.7418850" lon="14.0908190">
        <ele>734.4</ele>
        <time>2019-08-07T08:21:06Z</time>
      </trkpt>
      <trkpt lat="48.7418940" lon="14.0909210">
        <ele>734.4</ele>
        <time>2019-08-07T08:21:07Z</time>
      </trkpt>
      <trkpt lat="48.7419050" lon="14.0910240">
        <ele>734.2</ele>
        <time>2019-08-07T08:21:08Z</time>
      </trkpt>
      <trkpt lat="48.7419180" lon="14.0911270">
        <ele>734.2</ele>
        <time>2019-08-07T08:21:09Z</time>
      </trkpt>
      <trkpt lat="48.7419330" lon="14.0912280">
        <ele>734.2</ele>
        <time>2019-08-07T08:21:10Z</time>
      </trkpt>
      <trkpt lat="48.7419510" lon="14.0913270">
        <ele>734.0</ele>
        <time>2019-08-07T08:21:11Z</time>
      </trkpt>
      <trkpt lat="48.7419700" lon="14.0914240">
        <ele>734.0</ele>
        <time>2019-08-07T08:21:12Z</time>
      </trkpt>
      <trkpt lat="48.7419930" lon="14.0915190">
        <ele>734.0</ele>
        <time>2019-08-07T08:21:13Z</time>
      </trkpt>
      <trkpt lat="48.7420170" lon="14.0916120">
        <ele>734.0</ele>
        <time>2019-08-07T08:21:14Z</time>
      </trkpt>
      <trkpt lat="48.7420440" lon="14.0917040">
        <ele>734.0</ele>
        <time>2019-08-07T08:21:15Z</time>
      </trkpt>
      <trkpt lat="48.7420720" lon="14.0917950">
        <ele>734.0</ele>
        <time>2019-08-07T08:21:16Z</time>
      </trkpt>
      <trkpt lat="48.7421010" lon="14.0918890">
        <ele>734.0</ele>
        <time>2019-08-07T08:21:17Z</time>
      </trkpt>
      <trkpt lat="48.7421300" lon="14.0919810">
        <ele>734.0</ele>
        <time>2019-08-07T08:21:18Z</time>
      </trkpt>
      <trkpt lat="48.7421600" lon="14.0920720">
        <ele>734.0</ele>
        <time>2019-08-07T08:21:19Z</time>
      </trkpt>
      <trkpt lat="48.7421900" lon="14.0921630">
        <ele>734.0</ele>
        <time>2019-08-07T08:21:20Z</time>
      </trkpt>
      <trkpt lat="48.7422200" lon="14.0922550">
        <ele>734.0</ele>
        <time>2019-08-07T08:21:21Z</time>
      </trkpt>
      <trkpt lat="48.7422490" lon="14.0923460">
        <ele>734.0</ele>
        <time>2019-08-07T08:21:22Z</time>
      </trkpt>
      <trkpt lat="48.7422780" lon="14.0924350">
        <ele>734.0</ele>
        <time>2019-08-07T08:21:23Z</time>
      </trkpt>
      <trkpt lat="48.7423080" lon="14.0925260">
        <ele>733.8</ele>
        <time>2019-08-07T08:21:24Z</time>
      </trkpt>
      <trkpt lat="48.7423370" lon="14.0926170">
        <ele>733.8</ele>
        <time>2019-08-07T08:21:25Z</time>
      </trkpt>
      <trkpt lat="48.7423650" lon="14.0927060">
        <ele>733.8</ele>
        <time>2019-08-07T08:21:26Z</time>
      </trkpt>
      <trkpt lat="48.7423930" lon="14.0927950">
        <ele>733.8</ele>
        <time>2019-08-07T08:21:27Z</time>
      </trkpt>
      <trkpt lat="48.7424210" lon="14.0928850">
        <ele>733.8</ele>
        <time>2019-08-07T08:21:28Z</time>
      </trkpt>
      <trkpt lat="48.7424500" lon="14.0929770">
        <ele>733.8</ele>
        <time>2019-08-07T08:21:29Z</time>
      </trkpt>
      <trkpt lat="48.7424770" lon="14.0930690">
        <ele>733.8</ele>
        <time>2019-08-07T08:21:30Z</time>
      </trkpt>
      <trkpt lat="48.7425020" lon="14.0931600">
        <ele>733.8</ele>
        <time>2019-08-07T08:21:31Z</time>
      </trkpt>
      <trkpt lat="48.7425260" lon="14.0932530">
        <ele>733.8</ele>
        <time>2019-08-07T08:21:32Z</time>
      </trkpt>
      <trkpt lat="48.7425480" lon="14.0933460">
        <ele>733.8</ele>
        <time>2019-08-07T08:21:33Z</time>
      </trkpt>
      <trkpt lat="48.7425690" lon="14.0934410">
        <ele>733.8</ele>
        <time>2019-08-07T08:21:34Z</time>
      </trkpt>
      <trkpt lat="48.7425870" lon="14.0935360">
        <ele>733.8</ele>
        <time>2019-08-07T08:21:35Z</time>
      </trkpt>
      <trkpt lat="48.7426030" lon="14.0936330">
        <ele>733.8</ele>
        <time>2019-08-07T08:21:36Z</time>
      </trkpt>
      <trkpt lat="48.7426180" lon="14.0937330">
        <ele>733.6</ele>
        <time>2019-08-07T08:21:37Z</time>
      </trkpt>
      <trkpt lat="48.7426290" lon="14.0938270">
        <ele>733.6</ele>
        <time>2019-08-07T08:21:38Z</time>
      </trkpt>
      <trkpt lat="48.7426380" lon="14.0939270">
        <ele>733.6</ele>
        <time>2019-08-07T08:21:39Z</time>
      </trkpt>
      <trkpt lat="48.7426460" lon="14.0940280">
        <ele>733.8</ele>
        <time>2019-08-07T08:21:40Z</time>
      </trkpt>
      <trkpt lat="48.7426530" lon="14.0941270">
        <ele>733.6</ele>
        <time>2019-08-07T08:21:41Z</time>
      </trkpt>
      <trkpt lat="48.7426570" lon="14.0942240">
        <ele>733.6</ele>
        <time>2019-08-07T08:21:42Z</time>
      </trkpt>
      <trkpt lat="48.7426570" lon="14.0943230">
        <ele>733.6</ele>
        <time>2019-08-07T08:21:43Z</time>
      </trkpt>
      <trkpt lat="48.7426540" lon="14.0944210">
        <ele>733.6</ele>
        <time>2019-08-07T08:21:44Z</time>
      </trkpt>
      <trkpt lat="48.7426480" lon="14.0945180">
        <ele>733.6</ele>
        <time>2019-08-07T08:21:45Z</time>
      </trkpt>
      <trkpt lat="48.7426400" lon="14.0946160">
        <ele>733.8</ele>
        <time>2019-08-07T08:21:46Z</time>
      </trkpt>
      <trkpt lat="48.7426310" lon="14.0947140">
        <ele>733.8</ele>
        <time>2019-08-07T08:21:47Z</time>
      </trkpt>
      <trkpt lat="48.7426180" lon="14.0948060">
        <ele>733.8</ele>
        <time>2019-08-07T08:21:48Z</time>
      </trkpt>
      <trkpt lat="48.7426040" lon="14.0948970">
        <ele>734.0</ele>
        <time>2019-08-07T08:21:49Z</time>
      </trkpt>
      <trkpt lat="48.7425860" lon="14.0949830">
        <ele>734.0</ele>
        <time>2019-08-07T08:21:50Z</time>
      </trkpt>
      <trkpt lat="48.7425660" lon="14.0950660">
        <ele>734.2</ele>
        <time>2019-08-07T08:21:51Z</time>
      </trkpt>
      <trkpt lat="48.7425450" lon="14.0951450">
        <ele>734.2</ele>
        <time>2019-08-07T08:21:52Z</time>
      </trkpt>
      <trkpt lat="48.7425220" lon="14.0952220">
        <ele>734.4</ele>
        <time>2019-08-07T08:21:53Z</time>
      </trkpt>
      <trkpt lat="48.7424990" lon="14.0952980">
        <ele>734.4</ele>
        <time>2019-08-07T08:21:54Z</time>
      </trkpt>
      <trkpt lat="48.7424750" lon="14.0953710">
        <ele>734.6</ele>
        <time>2019-08-07T08:21:55Z</time>
      </trkpt>
      <trkpt lat="48.7424480" lon="14.0954470">
        <ele>734.6</ele>
        <time>2019-08-07T08:21:56Z</time>
      </trkpt>
      <trkpt lat="48.7424220" lon="14.0955190">
        <ele>734.8</ele>
        <time>2019-08-07T08:21:57Z</time>
      </trkpt>
      <trkpt lat="48.7423930" lon="14.0955910">
        <ele>735.0</ele>
        <time>2019-08-07T08:21:58Z</time>
      </trkpt>
      <trkpt lat="48.7423670" lon="14.0956600">
        <ele>735.0</ele>
        <time>2019-08-07T08:21:59Z</time>
      </trkpt>
      <trkpt lat="48.7423370" lon="14.0957290">
        <ele>735.2</ele>
        <time>2019-08-07T08:22:00Z</time>
      </trkpt>
      <trkpt lat="48.7423060" lon="14.0957930">
        <ele>735.2</ele>
        <time>2019-08-07T08:22:01Z</time>
      </trkpt>
      <trkpt lat="48.7422730" lon="14.0958570">
        <ele>735.4</ele>
        <time>2019-08-07T08:22:02Z</time>
      </trkpt>
      <trkpt lat="48.7422400" lon="14.0959190">
        <ele>735.4</ele>
        <time>2019-08-07T08:22:03Z</time>
      </trkpt>
      <trkpt lat="48.7422060" lon="14.0959790">
        <ele>735.6</ele>
        <time>2019-08-07T08:22:04Z</time>
      </trkpt>
      <trkpt lat="48.7421730" lon="14.0960410">
        <ele>735.6</ele>
        <time>2019-08-07T08:22:05Z</time>
      </trkpt>
      <trkpt lat="48.7421390" lon="14.0961020">
        <ele>735.6</ele>
        <time>2019-08-07T08:22:06Z</time>
      </trkpt>
      <trkpt lat="48.7421040" lon="14.0961670">
        <ele>735.6</ele>
        <time>2019-08-07T08:22:07Z</time>
      </trkpt>
      <trkpt lat="48.7420690" lon="14.0962310">
        <ele>735.6</ele>
        <time>2019-08-07T08:22:08Z</time>
      </trkpt>
      <trkpt lat="48.7420350" lon="14.0962970">
        <ele>735.8</ele>
        <time>2019-08-07T08:22:09Z</time>
      </trkpt>
      <trkpt lat="48.7420020" lon="14.0963620">
        <ele>735.8</ele>
        <time>2019-08-07T08:22:10Z</time>
      </trkpt>
      <trkpt lat="48.7419680" lon="14.0964280">
        <ele>735.8</ele>
        <time>2019-08-07T08:22:11Z</time>
      </trkpt>
      <trkpt lat="48.7419330" lon="14.0964930">
        <ele>735.8</ele>
        <time>2019-08-07T08:22:12Z</time>
      </trkpt>
      <trkpt lat="48.7419000" lon="14.0965560">
        <ele>735.8</ele>
        <time>2019-08-07T08:22:13Z</time>
      </trkpt>
      <trkpt lat="48.7418670" lon="14.0966220">
        <ele>735.8</ele>
        <time>2019-08-07T08:22:14Z</time>
      </trkpt>
      <trkpt lat="48.7418320" lon="14.0966870">
        <ele>735.8</ele>
        <time>2019-08-07T08:22:15Z</time>
      </trkpt>
      <trkpt lat="48.7417970" lon="14.0967510">
        <ele>735.8</ele>
        <time>2019-08-07T08:22:16Z</time>
      </trkpt>
      <trkpt lat="48.7417620" lon="14.0968180">
        <ele>735.8</ele>
        <time>2019-08-07T08:22:17Z</time>
      </trkpt>
      <trkpt lat="48.7417270" lon="14.0968840">
        <ele>736.0</ele>
        <time>2019-08-07T08:22:18Z</time>
      </trkpt>
      <trkpt lat="48.7416930" lon="14.0969510">
        <ele>735.8</ele>
        <time>2019-08-07T08:22:19Z</time>
      </trkpt>
      <trkpt lat="48.7416570" lon="14.0970190">
        <ele>735.8</ele>
        <time>2019-08-07T08:22:20Z</time>
      </trkpt>
      <trkpt lat="48.7416220" lon="14.0970870">
        <ele>736.0</ele>
        <time>2019-08-07T08:22:21Z</time>
      </trkpt>
      <trkpt lat="48.7415870" lon="14.0971570">
        <ele>736.0</ele>
        <time>2019-08-07T08:22:22Z</time>
      </trkpt>
      <trkpt lat="48.7415520" lon="14.0972250">
        <ele>736.0</ele>
        <time>2019-08-07T08:22:23Z</time>
      </trkpt>
      <trkpt lat="48.7415170" lon="14.0972960">
        <ele>736.0</ele>
        <time>2019-08-07T08:22:24Z</time>
      </trkpt>
      <trkpt lat="48.7414820" lon="14.0973660">
        <ele>736.0</ele>
        <time>2019-08-07T08:22:25Z</time>
      </trkpt>
      <trkpt lat="48.7414470" lon="14.0974360">
        <ele>736.0</ele>
        <time>2019-08-07T08:22:26Z</time>
      </trkpt>
      <trkpt lat="48.7414130" lon="14.0975060">
        <ele>736.0</ele>
        <time>2019-08-07T08:22:27Z</time>
      </trkpt>
      <trkpt lat="48.7413800" lon="14.0975760">
        <ele>736.0</ele>
        <time>2019-08-07T08:22:28Z</time>
      </trkpt>
      <trkpt lat="48.7413460" lon="14.0976480">
        <ele>736.0</ele>
        <time>2019-08-07T08:22:29Z</time>
      </trkpt>
      <trkpt lat="48.7413140" lon="14.0977170">
        <ele>736.0</ele>
        <time>2019-08-07T08:22:30Z</time>
      </trkpt>
      <trkpt lat="48.7412800" lon="14.0977880">
        <ele>736.0</ele>
        <time>2019-08-07T08:22:31Z</time>
      </trkpt>
      <trkpt lat="48.7412460" lon="14.0978610">
        <ele>736.0</ele>
        <time>2019-08-07T08:22:32Z</time>
      </trkpt>
      <trkpt lat="48.7412140" lon="14.0979320">
        <ele>736.0</ele>
        <time>2019-08-07T08:22:33Z</time>
      </trkpt>
      <trkpt lat="48.7411810" lon="14.0980030">
        <ele>736.0</ele>
        <time>2019-08-07T08:22:34Z</time>
      </trkpt>
      <trkpt lat="48.7411480" lon="14.0980730">
        <ele>736.0</ele>
        <time>2019-08-07T08:22:35Z</time>
      </trkpt>
      <trkpt lat="48.7411140" lon="14.0981450">
        <ele>736.0</ele>
        <time>2019-08-07T08:22:36Z</time>
      </trkpt>
      <trkpt lat="48.7410820" lon="14.0982150">
        <ele>736.0</ele>
        <time>2019-08-07T08:22:37Z</time>
      </trkpt>
      <trkpt lat="48.7410490" lon="14.0982870">
        <ele>736.0</ele>
        <time>2019-08-07T08:22:38Z</time>
      </trkpt>
      <trkpt lat="48.7410170" lon="14.0983610">
        <ele>736.0</ele>
        <time>2019-08-07T08:22:39Z</time>
      </trkpt>
      <trkpt lat="48.7409840" lon="14.0984360">
        <ele>736.2</ele>
        <time>2019-08-07T08:22:40Z</time>
      </trkpt>
      <trkpt lat="48.7409540" lon="14.0985090">
        <ele>736.2</ele>
        <time>2019-08-07T08:22:41Z</time>
      </trkpt>
      <trkpt lat="48.7409230" lon="14.0985800">
        <ele>736.2</ele>
        <time>2019-08-07T08:22:42Z</time>
      </trkpt>
      <trkpt lat="48.7408910" lon="14.0986520">
        <ele>736.2</ele>
        <time>2019-08-07T08:22:43Z</time>
      </trkpt>
      <trkpt lat="48.7408600" lon="14.0987220">
        <ele>736.2</ele>
        <time>2019-08-07T08:22:44Z</time>
      </trkpt>
      <trkpt lat="48.7408300" lon="14.0987930">
        <ele>736.2</ele>
        <time>2019-08-07T08:22:45Z</time>
      </trkpt>
      <trkpt lat="48.7407990" lon="14.0988670">
        <ele>736.2</ele>
        <time>2019-08-07T08:22:46Z</time>
      </trkpt>
      <trkpt lat="48.7407680" lon="14.0989390">
        <ele>736.2</ele>
        <time>2019-08-07T08:22:47Z</time>
      </trkpt>
      <trkpt lat="48.7407360" lon="14.0990100">
        <ele>736.2</ele>
        <time>2019-08-07T08:22:48Z</time>
      </trkpt>
      <trkpt lat="48.7407040" lon="14.0990810">
        <ele>736.2</ele>
        <time>2019-08-07T08:22:49Z</time>
      </trkpt>
      <trkpt lat="48.7406730" lon="14.0991510">
        <ele>736.0</ele>
        <time>2019-08-07T08:22:50Z</time>
      </trkpt>
      <trkpt lat="48.7406420" lon="14.0992230">
        <ele>736.0</ele>
        <time>2019-08-07T08:22:51Z</time>
      </trkpt>
      <trkpt lat="48.7406130" lon="14.0992920">
        <ele>736.2</ele>
        <time>2019-08-07T08:22:52Z</time>
      </trkpt>
      <trkpt lat="48.7405860" lon="14.0993590">
        <ele>736.2</ele>
        <time>2019-08-07T08:22:53Z</time>
      </trkpt>
      <trkpt lat="48.7405580" lon="14.0994230">
        <ele>736.2</ele>
        <time>2019-08-07T08:22:54Z</time>
      </trkpt>
      <trkpt lat="48.7405310" lon="14.0994860">
        <ele>736.2</ele>
        <time>2019-08-07T08:22:55Z</time>
      </trkpt>
      <trkpt lat="48.7405050" lon="14.0995470">
        <ele>736.2</ele>
        <time>2019-08-07T08:22:56Z</time>
      </trkpt>
      <trkpt lat="48.7404800" lon="14.0996090">
        <ele>736.0</ele>
        <time>2019-08-07T08:22:57Z</time>
      </trkpt>
      <trkpt lat="48.7404580" lon="14.0996810">
        <ele>736.0</ele>
        <time>2019-08-07T08:22:58Z</time>
      </trkpt>
      <trkpt lat="48.7404370" lon="14.0997580">
        <ele>736.0</ele>
        <time>2019-08-07T08:22:59Z</time>
      </trkpt>
      <trkpt lat="48.7404160" lon="14.0998340">
        <ele>736.0</ele>
        <time>2019-08-07T08:23:00Z</time>
      </trkpt>
      <trkpt lat="48.7403950" lon="14.0999100">
        <ele>736.0</ele>
        <time>2019-08-07T08:23:01Z</time>
      </trkpt>
      <trkpt lat="48.7403670" lon="14.0999350">
        <ele>736.0</ele>
        <time>2019-08-07T08:23:02Z</time>
      </trkpt>
      <trkpt lat="48.7403460" lon="14.0999740">
        <ele>736.0</ele>
        <time>2019-08-07T08:23:03Z</time>
      </trkpt>
      <trkpt lat="48.7403250" lon="14.1000160">
        <ele>736.0</ele>
        <time>2019-08-07T08:23:04Z</time>
      </trkpt>
      <trkpt lat="48.7403130" lon="14.1000690">
        <ele>736.0</ele>
        <time>2019-08-07T08:23:05Z</time>
      </trkpt>
      <trkpt lat="48.7402960" lon="14.1001070">
        <ele>736.0</ele>
        <time>2019-08-07T08:23:06Z</time>
      </trkpt>
      <trkpt lat="48.7402780" lon="14.1001510">
        <ele>736.0</ele>
        <time>2019-08-07T08:23:07Z</time>
      </trkpt>
      <trkpt lat="48.7402600" lon="14.1001870">
        <ele>736.0</ele>
        <time>2019-08-07T08:23:08Z</time>
      </trkpt>
      <trkpt lat="48.7402470" lon="14.1002230">
        <ele>736.0</ele>
        <time>2019-08-07T08:23:09Z</time>
      </trkpt>
      <trkpt lat="48.7402330" lon="14.1002590">
        <ele>736.0</ele>
        <time>2019-08-07T08:23:10Z</time>
      </trkpt>
      <trkpt lat="48.7402200" lon="14.1002900">
        <ele>736.0</ele>
        <time>2019-08-07T08:23:11Z</time>
      </trkpt>
      <trkpt lat="48.7402070" lon="14.1003190">
        <ele>736.0</ele>
        <time>2019-08-07T08:23:12Z</time>
      </trkpt>
      <trkpt lat="48.7401970" lon="14.1003410">
        <ele>736.0</ele>
        <time>2019-08-07T08:23:13Z</time>
      </trkpt>
      <trkpt lat="48.7401890" lon="14.1003600">
        <ele>736.0</ele>
        <time>2019-08-07T08:23:14Z</time>
      </trkpt>
      <trkpt lat="48.7401810" lon="14.1003740">
        <ele>736.0</ele>
        <time>2019-08-07T08:23:15Z</time>
      </trkpt>
      <trkpt lat="48.7401750" lon="14.1003840">
        <ele>736.0</ele>
        <time>2019-08-07T08:23:16Z</time>
      </trkpt>
      <trkpt lat="48.7401730" lon="14.1003870">
        <ele>736.0</ele>
        <time>2019-08-07T08:23:17Z</time>
      </trkpt>
      <trkpt lat="48.7401740" lon="14.1003870">
        <ele>736.0</ele>
        <time>2019-08-07T08:23:18Z</time>
      </trkpt>
      <trkpt lat="48.7401750" lon="14.1003850">
        <ele>736.0</ele>
        <time>2019-08-07T08:23:19Z</time>
      </trkpt>
      <trkpt lat="48.7401750" lon="14.1003850">
        <ele>736.0</ele>
        <time>2019-08-07T08:23:20Z</time>
      </trkpt>
      <trkpt lat="48.7401720" lon="14.1003960">
        <ele>736.0</ele>
        <time>2019-08-07T08:24:22Z</time>
      </trkpt>
      <trkpt lat="48.7401640" lon="14.1004210">
        <ele>736.0</ele>
        <time>2019-08-07T08:24:23Z</time>
      </trkpt>
      <trkpt lat="48.7401520" lon="14.1004560">
        <ele>736.0</ele>
        <time>2019-08-07T08:24:24Z</time>
      </trkpt>
      <trkpt lat="48.7401360" lon="14.1004970">
        <ele>736.0</ele>
        <time>2019-08-07T08:24:25Z</time>
      </trkpt>
      <trkpt lat="48.7401160" lon="14.1005420">
        <ele>736.0</ele>
        <time>2019-08-07T08:24:26Z</time>
      </trkpt>
      <trkpt lat="48.7400920" lon="14.1005930">
        <ele>736.0</ele>
        <time>2019-08-07T08:24:27Z</time>
      </trkpt>
      <trkpt lat="48.7400670" lon="14.1006470">
        <ele>736.0</ele>
        <time>2019-08-07T08:24:28Z</time>
      </trkpt>
      <trkpt lat="48.7400420" lon="14.1007060">
        <ele>736.2</ele>
        <time>2019-08-07T08:24:29Z</time>
      </trkpt>
      <trkpt lat="48.7400150" lon="14.1007670">
        <ele>736.2</ele>
        <time>2019-08-07T08:24:30Z</time>
      </trkpt>
      <trkpt lat="48.7399870" lon="14.1008310">
        <ele>736.2</ele>
        <time>2019-08-07T08:24:31Z</time>
      </trkpt>
      <trkpt lat="48.7399590" lon="14.1008960">
        <ele>736.2</ele>
        <time>2019-08-07T08:24:32Z</time>
      </trkpt>
      <trkpt lat="48.7399330" lon="14.1009630">
        <ele>736.2</ele>
        <time>2019-08-07T08:24:33Z</time>
      </trkpt>
      <trkpt lat="48.7399070" lon="14.1010340">
        <ele>736.2</ele>
        <time>2019-08-07T08:24:34Z</time>
      </trkpt>
      <trkpt lat="48.7398780" lon="14.1011050">
        <ele>736.2</ele>
        <time>2019-08-07T08:24:35Z</time>
      </trkpt>
      <trkpt lat="48.7398500" lon="14.1011750">
        <ele>736.2</ele>
        <time>2019-08-07T08:24:36Z</time>
      </trkpt>
      <trkpt lat="48.7398200" lon="14.1012450">
        <ele>736.2</ele>
        <time>2019-08-07T08:24:37Z</time>
      </trkpt>
      <trkpt lat="48.7397900" lon="14.1013150">
        <ele>736.2</ele>
        <time>2019-08-07T08:24:38Z</time>
      </trkpt>
      <trkpt lat="48.7397600" lon="14.1013860">
        <ele>736.2</ele>
        <time>2019-08-07T08:24:39Z</time>
      </trkpt>
      <trkpt lat="48.7397300" lon="14.1014580">
        <ele>736.2</ele>
        <time>2019-08-07T08:24:40Z</time>
      </trkpt>
      <trkpt lat="48.7397000" lon="14.1015300">
        <ele>736.2</ele>
        <time>2019-08-07T08:24:41Z</time>
      </trkpt>
      <trkpt lat="48.7396700" lon="14.1016040">
        <ele>736.2</ele>
        <time>2019-08-07T08:24:42Z</time>
      </trkpt>
      <trkpt lat="48.7396380" lon="14.1016760">
        <ele>736.2</ele>
        <time>2019-08-07T08:24:43Z</time>
      </trkpt>
      <trkpt lat="48.7396050" lon="14.1017460">
        <ele>736.2</ele>
        <time>2019-08-07T08:24:44Z</time>
      </trkpt>
      <trkpt lat="48.7395730" lon="14.1018170">
        <ele>736.2</ele>
        <time>2019-08-07T08:24:45Z</time>
      </trkpt>
      <trkpt lat="48.7395430" lon="14.1018880">
        <ele>736.2</ele>
        <time>2019-08-07T08:24:46Z</time>
      </trkpt>
      <trkpt lat="48.7395150" lon="14.1019620">
        <ele>736.2</ele>
        <time>2019-08-07T08:24:47Z</time>
      </trkpt>
      <trkpt lat="48.7394850" lon="14.1020330">
        <ele>736.2</ele>
        <time>2019-08-07T08:24:48Z</time>
      </trkpt>
      <trkpt lat="48.7394550" lon="14.1021050">
        <ele>736.2</ele>
        <time>2019-08-07T08:24:49Z</time>
      </trkpt>
      <trkpt lat="48.7394250" lon="14.1021730">
        <ele>736.2</ele>
        <time>2019-08-07T08:24:50Z</time>
      </trkpt>
      <trkpt lat="48.7393950" lon="14.1022460">
        <ele>736.4</ele>
        <time>2019-08-07T08:24:51Z</time>
      </trkpt>
      <trkpt lat="48.7393660" lon="14.1023170">
        <ele>736.4</ele>
        <time>2019-08-07T08:24:52Z</time>
      </trkpt>
      <trkpt lat="48.7393390" lon="14.1023880">
        <ele>736.4</ele>
        <time>2019-08-07T08:24:53Z</time>
      </trkpt>
      <trkpt lat="48.7393140" lon="14.1024600">
        <ele>736.4</ele>
        <time>2019-08-07T08:24:54Z</time>
      </trkpt>
      <trkpt lat="48.7392890" lon="14.1025330">
        <ele>736.2</ele>
        <time>2019-08-07T08:24:55Z</time>
      </trkpt>
      <trkpt lat="48.7392660" lon="14.1026070">
        <ele>736.4</ele>
        <time>2019-08-07T08:24:56Z</time>
      </trkpt>
      <trkpt lat="48.7392430" lon="14.1026780">
        <ele>736.2</ele>
        <time>2019-08-07T08:24:57Z</time>
      </trkpt>
      <trkpt lat="48.7392250" lon="14.1027540">
        <ele>736.2</ele>
        <time>2019-08-07T08:24:58Z</time>
      </trkpt>
      <trkpt lat="48.7392060" lon="14.1028320">
        <ele>736.0</ele>
        <time>2019-08-07T08:24:59Z</time>
      </trkpt>
      <trkpt lat="48.7391880" lon="14.1029110">
        <ele>736.0</ele>
        <time>2019-08-07T08:25:00Z</time>
      </trkpt>
      <trkpt lat="48.7391690" lon="14.1029900">
        <ele>735.8</ele>
        <time>2019-08-07T08:25:01Z</time>
      </trkpt>
      <trkpt lat="48.7391520" lon="14.1030790">
        <ele>735.8</ele>
        <time>2019-08-07T08:25:02Z</time>
      </trkpt>
      <trkpt lat="48.7391380" lon="14.1031640">
        <ele>735.6</ele>
        <time>2019-08-07T08:25:03Z</time>
      </trkpt>
      <trkpt lat="48.7391250" lon="14.1032530">
        <ele>735.4</ele>
        <time>2019-08-07T08:25:04Z</time>
      </trkpt>
      <trkpt lat="48.7391140" lon="14.1033430">
        <ele>735.4</ele>
        <time>2019-08-07T08:25:05Z</time>
      </trkpt>
      <trkpt lat="48.7391000" lon="14.1034360">
        <ele>735.0</ele>
        <time>2019-08-07T08:25:06Z</time>
      </trkpt>
      <trkpt lat="48.7390850" lon="14.1035310">
        <ele>734.8</ele>
        <time>2019-08-07T08:25:07Z</time>
      </trkpt>
      <trkpt lat="48.7390700" lon="14.1036230">
        <ele>734.8</ele>
        <time>2019-08-07T08:25:08Z</time>
      </trkpt>
      <trkpt lat="48.7390570" lon="14.1037170">
        <ele>734.6</ele>
        <time>2019-08-07T08:25:09Z</time>
      </trkpt>
      <trkpt lat="48.7390420" lon="14.1038110">
        <ele>734.6</ele>
        <time>2019-08-07T08:25:10Z</time>
      </trkpt>
      <trkpt lat="48.7390300" lon="14.1039070">
        <ele>734.6</ele>
        <time>2019-08-07T08:25:11Z</time>
      </trkpt>
      <trkpt lat="48.7390150" lon="14.1040000">
        <ele>734.4</ele>
        <time>2019-08-07T08:25:12Z</time>
      </trkpt>
      <trkpt lat="48.7390020" lon="14.1040920">
        <ele>734.4</ele>
        <time>2019-08-07T08:25:13Z</time>
      </trkpt>
      <trkpt lat="48.7389870" lon="14.1041850">
        <ele>734.4</ele>
        <time>2019-08-07T08:25:14Z</time>
      </trkpt>
      <trkpt lat="48.7389730" lon="14.1042760">
        <ele>734.4</ele>
        <time>2019-08-07T08:25:15Z</time>
      </trkpt>
      <trkpt lat="48.7389580" lon="14.1043670">
        <ele>734.6</ele>
        <time>2019-08-07T08:25:16Z</time>
      </trkpt>
      <trkpt lat="48.7389450" lon="14.1044570">
        <ele>734.6</ele>
        <time>2019-08-07T08:25:17Z</time>
      </trkpt>
      <trkpt lat="48.7389320" lon="14.1045490">
        <ele>734.6</ele>
        <time>2019-08-07T08:25:18Z</time>
      </trkpt>
      <trkpt lat="48.7389190" lon="14.1046380">
        <ele>734.6</ele>
        <time>2019-08-07T08:25:19Z</time>
      </trkpt>
      <trkpt lat="48.7389050" lon="14.1047250">
        <ele>734.8</ele>
        <time>2019-08-07T08:25:20Z</time>
      </trkpt>
      <trkpt lat="48.7388920" lon="14.1048110">
        <ele>734.8</ele>
        <time>2019-08-07T08:25:21Z</time>
      </trkpt>
      <trkpt lat="48.7388780" lon="14.1049020">
        <ele>735.0</ele>
        <time>2019-08-07T08:25:22Z</time>
      </trkpt>
      <trkpt lat="48.7388660" lon="14.1049860">
        <ele>735.0</ele>
        <time>2019-08-07T08:25:23Z</time>
      </trkpt>
      <trkpt lat="48.7388520" lon="14.1050760">
        <ele>735.0</ele>
        <time>2019-08-07T08:25:24Z</time>
      </trkpt>
      <trkpt lat="48.7388390" lon="14.1051640">
        <ele>735.2</ele>
        <time>2019-08-07T08:25:25Z</time>
      </trkpt>
      <trkpt lat="48.7388270" lon="14.1052550">
        <ele>735.2</ele>
        <time>2019-08-07T08:25:26Z</time>
      </trkpt>
      <trkpt lat="48.7388140" lon="14.1053430">
        <ele>735.2</ele>
        <time>2019-08-07T08:25:27Z</time>
      </trkpt>
      <trkpt lat="48.7388040" lon="14.1054310">
        <ele>735.2</ele>
        <time>2019-08-07T08:25:28Z</time>
      </trkpt>
      <trkpt lat="48.7387920" lon="14.1055200">
        <ele>735.2</ele>
        <time>2019-08-07T08:25:29Z</time>
      </trkpt>
      <trkpt lat="48.7387790" lon="14.1056090">
        <ele>735.4</ele>
        <time>2019-08-07T08:25:30Z</time>
      </trkpt>
      <trkpt lat="48.7387670" lon="14.1056970">
        <ele>735.4</ele>
        <time>2019-08-07T08:25:31Z</time>
      </trkpt>
      <trkpt lat="48.7387520" lon="14.1057840">
        <ele>735.4</ele>
        <time>2019-08-07T08:25:32Z</time>
      </trkpt>
      <trkpt lat="48.7387380" lon="14.1058700">
        <ele>735.4</ele>
        <time>2019-08-07T08:25:33Z</time>
      </trkpt>
      <trkpt lat="48.7387240" lon="14.1059550">
        <ele>735.4</ele>
        <time>2019-08-07T08:25:34Z</time>
      </trkpt>
      <trkpt lat="48.7387100" lon="14.1060440">
        <ele>735.4</ele>
        <time>2019-08-07T08:25:35Z</time>
      </trkpt>
      <trkpt lat="48.7386970" lon="14.1061330">
        <ele>735.4</ele>
        <time>2019-08-07T08:25:36Z</time>
      </trkpt>
      <trkpt lat="48.7386850" lon="14.1062230">
        <ele>735.6</ele>
        <time>2019-08-07T08:25:37Z</time>
      </trkpt>
      <trkpt lat="48.7386720" lon="14.1063090">
        <ele>735.6</ele>
        <time>2019-08-07T08:25:38Z</time>
      </trkpt>
      <trkpt lat="48.7386600" lon="14.1063930">
        <ele>735.6</ele>
        <time>2019-08-07T08:25:39Z</time>
      </trkpt>
      <trkpt lat="48.7386470" lon="14.1064870">
        <ele>735.6</ele>
        <time>2019-08-07T08:25:40Z</time>
      </trkpt>
      <trkpt lat="48.7386330" lon="14.1065780">
        <ele>735.6</ele>
        <time>2019-08-07T08:25:41Z</time>
      </trkpt>
      <trkpt lat="48.7386180" lon="14.1066670">
        <ele>735.6</ele>
        <time>2019-08-07T08:25:42Z</time>
      </trkpt>
      <trkpt lat="48.7386050" lon="14.1067570">
        <ele>735.6</ele>
        <time>2019-08-07T08:25:43Z</time>
      </trkpt>
      <trkpt lat="48.7385920" lon="14.1068450">
        <ele>735.6</ele>
        <time>2019-08-07T08:25:44Z</time>
      </trkpt>
      <trkpt lat="48.7385780" lon="14.1069350">
        <ele>735.6</ele>
        <time>2019-08-07T08:25:45Z</time>
      </trkpt>
      <trkpt lat="48.7385630" lon="14.1070260">
        <ele>735.6</ele>
        <time>2019-08-07T08:25:46Z</time>
      </trkpt>
      <trkpt lat="48.7385500" lon="14.1071150">
        <ele>735.6</ele>
        <time>2019-08-07T08:25:47Z</time>
      </trkpt>
      <trkpt lat="48.7385370" lon="14.1072040">
        <ele>735.6</ele>
        <time>2019-08-07T08:25:48Z</time>
      </trkpt>
      <trkpt lat="48.7385240" lon="14.1072970">
        <ele>735.6</ele>
        <time>2019-08-07T08:25:49Z</time>
      </trkpt>
      <trkpt lat="48.7385120" lon="14.1073910">
        <ele>735.4</ele>
        <time>2019-08-07T08:25:50Z</time>
      </trkpt>
      <trkpt lat="48.7384970" lon="14.1074820">
        <ele>735.6</ele>
        <time>2019-08-07T08:25:51Z</time>
      </trkpt>
      <trkpt lat="48.7384840" lon="14.1075710">
        <ele>735.6</ele>
        <time>2019-08-07T08:25:52Z</time>
      </trkpt>
      <trkpt lat="48.7384700" lon="14.1076640">
        <ele>735.6</ele>
        <time>2019-08-07T08:25:53Z</time>
      </trkpt>
      <trkpt lat="48.7384570" lon="14.1077530">
        <ele>735.4</ele>
        <time>2019-08-07T08:25:54Z</time>
      </trkpt>
      <trkpt lat="48.7384440" lon="14.1078420">
        <ele>735.4</ele>
        <time>2019-08-07T08:25:55Z</time>
      </trkpt>
      <trkpt lat="48.7384290" lon="14.1079320">
        <ele>735.4</ele>
        <time>2019-08-07T08:25:56Z</time>
      </trkpt>
      <trkpt lat="48.7384150" lon="14.1080230">
        <ele>735.2</ele>
        <time>2019-08-07T08:25:57Z</time>
      </trkpt>
      <trkpt lat="48.7384040" lon="14.1081120">
        <ele>735.2</ele>
        <time>2019-08-07T08:25:58Z</time>
      </trkpt>
      <trkpt lat="48.7383920" lon="14.1082040">
        <ele>735.2</ele>
        <time>2019-08-07T08:25:59Z</time>
      </trkpt>
      <trkpt lat="48.7383770" lon="14.1082920">
        <ele>735.2</ele>
        <time>2019-08-07T08:26:00Z</time>
      </trkpt>
      <trkpt lat="48.7383610" lon="14.1083810">
        <ele>735.2</ele>
        <time>2019-08-07T08:26:01Z</time>
      </trkpt>
      <trkpt lat="48.7383460" lon="14.1084700">
        <ele>735.0</ele>
        <time>2019-08-07T08:26:02Z</time>
      </trkpt>
      <trkpt lat="48.7383300" lon="14.1085590">
        <ele>735.0</ele>
        <time>2019-08-07T08:26:03Z</time>
      </trkpt>
      <trkpt lat="48.7383150" lon="14.1086480">
        <ele>735.0</ele>
        <time>2019-08-07T08:26:04Z</time>
      </trkpt>
      <trkpt lat="48.7383000" lon="14.1087390">
        <ele>734.8</ele>
        <time>2019-08-07T08:26:05Z</time>
      </trkpt>
      <trkpt lat="48.7382870" lon="14.1088280">
        <ele>734.8</ele>
        <time>2019-08-07T08:26:06Z</time>
      </trkpt>
      <trkpt lat="48.7382740" lon="14.1089170">
        <ele>734.8</ele>
        <time>2019-08-07T08:26:07Z</time>
      </trkpt>
      <trkpt lat="48.7382600" lon="14.1090080">
        <ele>734.8</ele>
        <time>2019-08-07T08:26:08Z</time>
      </trkpt>
      <trkpt lat="48.7382450" lon="14.1090970">
        <ele>734.8</ele>
        <time>2019-08-07T08:26:09Z</time>
      </trkpt>
      <trkpt lat="48.7382320" lon="14.1091830">
        <ele>734.8</ele>
        <time>2019-08-07T08:26:10Z</time>
      </trkpt>
      <trkpt lat="48.7382200" lon="14.1092700">
        <ele>734.8</ele>
        <time>2019-08-07T08:26:11Z</time>
      </trkpt>
      <trkpt lat="48.7382090" lon="14.1093510">
        <ele>734.8</ele>
        <time>2019-08-07T08:26:12Z</time>
      </trkpt>
      <trkpt lat="48.7381950" lon="14.1094320">
        <ele>734.8</ele>
        <time>2019-08-07T08:26:13Z</time>
      </trkpt>
      <trkpt lat="48.7381840" lon="14.1095100">
        <ele>735.0</ele>
        <time>2019-08-07T08:26:14Z</time>
      </trkpt>
      <trkpt lat="48.7381730" lon="14.1095870">
        <ele>735.0</ele>
        <time>2019-08-07T08:26:15Z</time>
      </trkpt>
      <trkpt lat="48.7381600" lon="14.1096630">
        <ele>735.0</ele>
        <time>2019-08-07T08:26:16Z</time>
      </trkpt>
      <trkpt lat="48.7381490" lon="14.1097370">
        <ele>735.0</ele>
        <time>2019-08-07T08:26:17Z</time>
      </trkpt>
      <trkpt lat="48.7381390" lon="14.1098100">
        <ele>734.8</ele>
        <time>2019-08-07T08:26:18Z</time>
      </trkpt>
      <trkpt lat="48.7381270" lon="14.1098830">
        <ele>734.8</ele>
        <time>2019-08-07T08:26:19Z</time>
      </trkpt>
      <trkpt lat="48.7381160" lon="14.1099520">
        <ele>734.8</ele>
        <time>2019-08-07T08:26:20Z</time>
      </trkpt>
      <trkpt lat="48.7381060" lon="14.1100220">
        <ele>734.8</ele>
        <time>2019-08-07T08:26:21Z</time>
      </trkpt>
      <trkpt lat="48.7380960" lon="14.1100900">
        <ele>734.8</ele>
        <time>2019-08-07T08:26:22Z</time>
      </trkpt>
      <trkpt lat="48.7380870" lon="14.1101610">
        <ele>734.8</ele>
        <time>2019-08-07T08:26:23Z</time>
      </trkpt>
      <trkpt lat="48.7380790" lon="14.1102290">
        <ele>734.8</ele>
        <time>2019-08-07T08:26:24Z</time>
      </trkpt>
      <trkpt lat="48.7380740" lon="14.1102940">
        <ele>735.0</ele>
        <time>2019-08-07T08:26:25Z</time>
      </trkpt>
      <trkpt lat="48.7380680" lon="14.1103590">
        <ele>735.0</ele>
        <time>2019-08-07T08:26:26Z</time>
      </trkpt>
      <trkpt lat="48.7380650" lon="14.1104270">
        <ele>735.0</ele>
        <time>2019-08-07T08:26:27Z</time>
      </trkpt>
      <trkpt lat="48.7380640" lon="14.1104980">
        <ele>735.0</ele>
        <time>2019-08-07T08:26:28Z</time>
      </trkpt>
      <trkpt lat="48.7380690" lon="14.1105700">
        <ele>735.0</ele>
        <time>2019-08-07T08:26:29Z</time>
      </trkpt>
      <trkpt lat="48.7380750" lon="14.1106410">
        <ele>735.0</ele>
        <time>2019-08-07T08:26:30Z</time>
      </trkpt>
      <trkpt lat="48.7380920" lon="14.1107100">
        <ele>735.0</ele>
        <time>2019-08-07T08:26:31Z</time>
      </trkpt>
      <trkpt lat="48.7381160" lon="14.1107810">
        <ele>734.8</ele>
        <time>2019-08-07T08:26:32Z</time>
      </trkpt>
      <trkpt lat="48.7381410" lon="14.1108500">
        <ele>734.8</ele>
        <time>2019-08-07T08:26:33Z</time>
      </trkpt>
      <trkpt lat="48.7381680" lon="14.1109200">
        <ele>734.8</ele>
        <time>2019-08-07T08:26:34Z</time>
      </trkpt>
      <trkpt lat="48.7382020" lon="14.1109910">
        <ele>734.6</ele>
        <time>2019-08-07T08:26:35Z</time>
      </trkpt>
      <trkpt lat="48.7382370" lon="14.1110570">
        <ele>734.6</ele>
        <time>2019-08-07T08:26:36Z</time>
      </trkpt>
      <trkpt lat="48.7382740" lon="14.1111220">
        <ele>734.4</ele>
        <time>2019-08-07T08:26:37Z</time>
      </trkpt>
      <trkpt lat="48.7383120" lon="14.1111870">
        <ele>734.4</ele>
        <time>2019-08-07T08:26:38Z</time>
      </trkpt>
      <trkpt lat="48.7383510" lon="14.1112540">
        <ele>734.4</ele>
        <time>2019-08-07T08:26:39Z</time>
      </trkpt>
      <trkpt lat="48.7383890" lon="14.1113170">
        <ele>734.2</ele>
        <time>2019-08-07T08:26:40Z</time>
      </trkpt>
      <trkpt lat="48.7384280" lon="14.1113810">
        <ele>734.2</ele>
        <time>2019-08-07T08:26:41Z</time>
      </trkpt>
      <trkpt lat="48.7384700" lon="14.1114420">
        <ele>734.2</ele>
        <time>2019-08-07T08:26:42Z</time>
      </trkpt>
      <trkpt lat="48.7385100" lon="14.1114980">
        <ele>734.2</ele>
        <time>2019-08-07T08:26:43Z</time>
      </trkpt>
      <trkpt lat="48.7385530" lon="14.1115500">
        <ele>734.2</ele>
        <time>2019-08-07T08:26:44Z</time>
      </trkpt>
      <trkpt lat="48.7385980" lon="14.1115960">
        <ele>734.2</ele>
        <time>2019-08-07T08:26:45Z</time>
      </trkpt>
      <trkpt lat="48.7386410" lon="14.1116390">
        <ele>734.4</ele>
        <time>2019-08-07T08:26:46Z</time>
      </trkpt>
      <trkpt lat="48.7386850" lon="14.1116790">
        <ele>734.4</ele>
        <time>2019-08-07T08:26:47Z</time>
      </trkpt>
      <trkpt lat="48.7387260" lon="14.1117180">
        <ele>734.4</ele>
        <time>2019-08-07T08:26:48Z</time>
      </trkpt>
      <trkpt lat="48.7387640" lon="14.1117560">
        <ele>734.6</ele>
        <time>2019-08-07T08:26:49Z</time>
      </trkpt>
      <trkpt lat="48.7387980" lon="14.1117940">
        <ele>734.6</ele>
        <time>2019-08-07T08:26:50Z</time>
      </trkpt>
      <trkpt lat="48.7388310" lon="14.1118320">
        <ele>734.6</ele>
        <time>2019-08-07T08:26:51Z</time>
      </trkpt>
      <trkpt lat="48.7388620" lon="14.1118710">
        <ele>734.8</ele>
        <time>2019-08-07T08:26:52Z</time>
      </trkpt>
      <trkpt lat="48.7388910" lon="14.1119130">
        <ele>734.8</ele>
        <time>2019-08-07T08:26:53Z</time>
      </trkpt>
      <trkpt lat="48.7389190" lon="14.1119580">
        <ele>735.0</ele>
        <time>2019-08-07T08:26:54Z</time>
      </trkpt>
      <trkpt lat="48.7389460" lon="14.1120030">
        <ele>735.2</ele>
        <time>2019-08-07T08:26:55Z</time>
      </trkpt>
      <trkpt lat="48.7389690" lon="14.1120500">
        <ele>735.2</ele>
        <time>2019-08-07T08:26:56Z</time>
      </trkpt>
      <trkpt lat="48.7389890" lon="14.1120970">
        <ele>735.4</ele>
        <time>2019-08-07T08:26:57Z</time>
      </trkpt>
      <trkpt lat="48.7390070" lon="14.1121430">
        <ele>735.6</ele>
        <time>2019-08-07T08:26:58Z</time>
      </trkpt>
      <trkpt lat="48.7390230" lon="14.1121870">
        <ele>735.8</ele>
        <time>2019-08-07T08:26:59Z</time>
      </trkpt>
      <trkpt lat="48.7390380" lon="14.1122320">
        <ele>735.8</ele>
        <time>2019-08-07T08:27:00Z</time>
      </trkpt>
      <trkpt lat="48.7390520" lon="14.1122730">
        <ele>736.0</ele>
        <time>2019-08-07T08:27:01Z</time>
      </trkpt>
      <trkpt lat="48.7390650" lon="14.1123140">
        <ele>736.2</ele>
        <time>2019-08-07T08:27:02Z</time>
      </trkpt>
      <trkpt lat="48.7390760" lon="14.1123560">
        <ele>736.6</ele>
        <time>2019-08-07T08:27:03Z</time>
      </trkpt>
      <trkpt lat="48.7390860" lon="14.1124000">
        <ele>736.8</ele>
        <time>2019-08-07T08:27:04Z</time>
      </trkpt>
      <trkpt lat="48.7390940" lon="14.1124410">
        <ele>736.8</ele>
        <time>2019-08-07T08:27:05Z</time>
      </trkpt>
      <trkpt lat="48.7391030" lon="14.1124830">
        <ele>737.0</ele>
        <time>2019-08-07T08:27:06Z</time>
      </trkpt>
      <trkpt lat="48.7391130" lon="14.1125250">
        <ele>737.0</ele>
        <time>2019-08-07T08:27:07Z</time>
      </trkpt>
      <trkpt lat="48.7391230" lon="14.1125660">
        <ele>737.2</ele>
        <time>2019-08-07T08:27:08Z</time>
      </trkpt>
      <trkpt lat="48.7391310" lon="14.1126080">
        <ele>737.4</ele>
        <time>2019-08-07T08:27:09Z</time>
      </trkpt>
      <trkpt lat="48.7391390" lon="14.1126490">
        <ele>737.4</ele>
        <time>2019-08-07T08:27:10Z</time>
      </trkpt>
      <trkpt lat="48.7391470" lon="14.1126930">
        <ele>737.6</ele>
        <time>2019-08-07T08:27:11Z</time>
      </trkpt>
      <trkpt lat="48.7391540" lon="14.1127350">
        <ele>737.8</ele>
        <time>2019-08-07T08:27:12Z</time>
      </trkpt>
      <trkpt lat="48.7391640" lon="14.1127740">
        <ele>737.8</ele>
        <time>2019-08-07T08:27:13Z</time>
      </trkpt>
      <trkpt lat="48.7391720" lon="14.1128130">
        <ele>738.0</ele>
        <time>2019-08-07T08:27:14Z</time>
      </trkpt>
      <trkpt lat="48.7391790" lon="14.1128480">
        <ele>738.2</ele>
        <time>2019-08-07T08:27:15Z</time>
      </trkpt>
      <trkpt lat="48.7391860" lon="14.1128800">
        <ele>738.4</ele>
        <time>2019-08-07T08:27:16Z</time>
      </trkpt>
      <trkpt lat="48.7391940" lon="14.1129100">
        <ele>738.6</ele>
        <time>2019-08-07T08:27:17Z</time>
      </trkpt>
      <trkpt lat="48.7392020" lon="14.1129400">
        <ele>738.8</ele>
        <time>2019-08-07T08:27:18Z</time>
      </trkpt>
      <trkpt lat="48.7392090" lon="14.1129680">
        <ele>738.8</ele>
        <time>2019-08-07T08:27:19Z</time>
      </trkpt>
      <trkpt lat="48.7392180" lon="14.1129960">
        <ele>739.0</ele>
        <time>2019-08-07T08:27:20Z</time>
      </trkpt>
      <trkpt lat="48.7392300" lon="14.1130250">
        <ele>739.2</ele>
        <time>2019-08-07T08:27:21Z</time>
      </trkpt>
      <trkpt lat="48.7392430" lon="14.1130550">
        <ele>739.4</ele>
        <time>2019-08-07T08:27:22Z</time>
      </trkpt>
      <trkpt lat="48.7392600" lon="14.1130850">
        <ele>739.6</ele>
        <time>2019-08-07T08:27:23Z</time>
      </trkpt>
      <trkpt lat="48.7392790" lon="14.1131130">
        <ele>739.8</ele>
        <time>2019-08-07T08:27:24Z</time>
      </trkpt>
      <trkpt lat="48.7392970" lon="14.1131410">
        <ele>739.8</ele>
        <time>2019-08-07T08:27:25Z</time>
      </trkpt>
      <trkpt lat="48.7393170" lon="14.1131670">
        <ele>740.0</ele>
        <time>2019-08-07T08:27:26Z</time>
      </trkpt>
      <trkpt lat="48.7393370" lon="14.1131840">
        <ele>740.2</ele>
        <time>2019-08-07T08:27:27Z</time>
      </trkpt>
      <trkpt lat="48.7393540" lon="14.1131880">
        <ele>740.4</ele>
        <time>2019-08-07T08:27:28Z</time>
      </trkpt>
      <trkpt lat="48.7393670" lon="14.1131800">
        <ele>740.6</ele>
        <time>2019-08-07T08:27:29Z</time>
      </trkpt>
      <trkpt lat="48.7393710" lon="14.1131610">
        <ele>740.8</ele>
        <time>2019-08-07T08:27:30Z</time>
      </trkpt>
      <trkpt lat="48.7393690" lon="14.1131370">
        <ele>740.8</ele>
        <time>2019-08-07T08:27:31Z</time>
      </trkpt>
      <trkpt lat="48.7393650" lon="14.1131110">
        <ele>741.0</ele>
        <time>2019-08-07T08:27:32Z</time>
      </trkpt>
      <trkpt lat="48.7393610" lon="14.1130820">
        <ele>741.0</ele>
        <time>2019-08-07T08:27:33Z</time>
      </trkpt>
      <trkpt lat="48.7393560" lon="14.1130540">
        <ele>741.0</ele>
        <time>2019-08-07T08:27:34Z</time>
      </trkpt>
      <trkpt lat="48.7393500" lon="14.1130300">
        <ele>741.0</ele>
        <time>2019-08-07T08:27:35Z</time>
      </trkpt>
      <trkpt lat="48.7393460" lon="14.1130100">
        <ele>741.0</ele>
        <time>2019-08-07T08:27:36Z</time>
      </trkpt>
      <trkpt lat="48.7393430" lon="14.1129990">
        <ele>741.0</ele>
        <time>2019-08-07T08:27:37Z</time>
      </trkpt>
      <trkpt lat="48.7393420" lon="14.1129950">
        <ele>741.0</ele>
        <time>2019-08-07T08:27:38Z</time>
      </trkpt>
      <trkpt lat="48.7393400" lon="14.1129930">
        <ele>741.0</ele>
        <time>2019-08-07T08:27:39Z</time>
      </trkpt>
      <trkpt lat="48.7393690" lon="14.1131210">
        <ele>740.8</ele>
        <time>2019-08-07T08:38:52Z</time>
      </trkpt>
      <trkpt lat="48.7393720" lon="14.1131330">
        <ele>740.8</ele>
        <time>2019-08-07T08:38:53Z</time>
      </trkpt>
      <trkpt lat="48.7393700" lon="14.1131490">
        <ele>740.8</ele>
        <time>2019-08-07T08:38:54Z</time>
      </trkpt>
      <trkpt lat="48.7393630" lon="14.1131600">
        <ele>740.8</ele>
        <time>2019-08-07T08:38:55Z</time>
      </trkpt>
      <trkpt lat="48.7393630" lon="14.1131600">
        <ele>740.8</ele>
        <time>2019-08-07T08:38:56Z</time>
      </trkpt>
      <trkpt lat="48.7393630" lon="14.1131600">
        <ele>740.8</ele>
        <time>2019-08-07T08:38:57Z</time>
      </trkpt>
      <trkpt lat="48.7393630" lon="14.1131600">
        <ele>740.8</ele>
        <time>2019-08-07T08:38:58Z</time>
      </trkpt>
      <trkpt lat="48.7393600" lon="14.1131600">
        <ele>740.8</ele>
        <time>2019-08-07T08:38:59Z</time>
      </trkpt>
      <trkpt lat="48.7393320" lon="14.1131570">
        <ele>740.6</ele>
        <time>2019-08-07T08:39:00Z</time>
      </trkpt>
      <trkpt lat="48.7393170" lon="14.1131310">
        <ele>740.6</ele>
        <time>2019-08-07T08:39:01Z</time>
      </trkpt>
      <trkpt lat="48.7393020" lon="14.1130950">
        <ele>740.6</ele>
        <time>2019-08-07T08:39:02Z</time>
      </trkpt>
      <trkpt lat="48.7392870" lon="14.1130470">
        <ele>740.4</ele>
        <time>2019-08-07T08:39:03Z</time>
      </trkpt>
      <trkpt lat="48.7392710" lon="14.1129910">
        <ele>740.2</ele>
        <time>2019-08-07T08:39:04Z</time>
      </trkpt>
      <trkpt lat="48.7392550" lon="14.1129280">
        <ele>740.2</ele>
        <time>2019-08-07T08:39:05Z</time>
      </trkpt>
      <trkpt lat="48.7392390" lon="14.1128580">
        <ele>740.0</ele>
        <time>2019-08-07T08:39:06Z</time>
      </trkpt>
      <trkpt lat="48.7392220" lon="14.1127810">
        <ele>739.8</ele>
        <time>2019-08-07T08:39:07Z</time>
      </trkpt>
      <trkpt lat="48.7392060" lon="14.1126980">
        <ele>739.4</ele>
        <time>2019-08-07T08:39:08Z</time>
      </trkpt>
      <trkpt lat="48.7391880" lon="14.1126100">
        <ele>739.2</ele>
        <time>2019-08-07T08:39:09Z</time>
      </trkpt>
      <trkpt lat="48.7391670" lon="14.1125160">
        <ele>739.2</ele>
        <time>2019-08-07T08:39:10Z</time>
      </trkpt>
      <trkpt lat="48.7391440" lon="14.1124190">
        <ele>739.0</ele>
        <time>2019-08-07T08:39:11Z</time>
      </trkpt>
      <trkpt lat="48.7391220" lon="14.1123210">
        <ele>738.8</ele>
        <time>2019-08-07T08:39:12Z</time>
      </trkpt>
      <trkpt lat="48.7390940" lon="14.1122290">
        <ele>738.6</ele>
        <time>2019-08-07T08:39:13Z</time>
      </trkpt>
      <trkpt lat="48.7390570" lon="14.1121230">
        <ele>738.4</ele>
        <time>2019-08-07T08:39:14Z</time>
      </trkpt>
      <trkpt lat="48.7390170" lon="14.1120280">
        <ele>738.2</ele>
        <time>2019-08-07T08:39:15Z</time>
      </trkpt>
      <trkpt lat="48.7389710" lon="14.1119350">
        <ele>738.0</ele>
        <time>2019-08-07T08:39:16Z</time>
      </trkpt>
      <trkpt lat="48.7389200" lon="14.1118470">
        <ele>737.6</ele>
        <time>2019-08-07T08:39:17Z</time>
      </trkpt>
      <trkpt lat="48.7388620" lon="14.1117690">
        <ele>737.6</ele>
        <time>2019-08-07T08:39:18Z</time>
      </trkpt>
      <trkpt lat="48.7387990" lon="14.1117010">
        <ele>737.2</ele>
        <time>2019-08-07T08:39:19Z</time>
      </trkpt>
      <trkpt lat="48.7387290" lon="14.1116430">
        <ele>737.0</ele>
        <time>2019-08-07T08:39:20Z</time>
      </trkpt>
      <trkpt lat="48.7386550" lon="14.1115960">
        <ele>736.6</ele>
        <time>2019-08-07T08:39:21Z</time>
      </trkpt>
      <trkpt lat="48.7385760" lon="14.1115580">
        <ele>736.2</ele>
        <time>2019-08-07T08:39:22Z</time>
      </trkpt>
      <trkpt lat="48.7385000" lon="14.1115230">
        <ele>736.0</ele>
        <time>2019-08-07T08:39:23Z</time>
      </trkpt>
      <trkpt lat="48.7384250" lon="14.1114940">
        <ele>735.6</ele>
        <time>2019-08-07T08:39:24Z</time>
      </trkpt>
      <trkpt lat="48.7383510" lon="14.1114700">
        <ele>735.4</ele>
        <time>2019-08-07T08:39:25Z</time>
      </trkpt>
      <trkpt lat="48.7382780" lon="14.1114500">
        <ele>735.4</ele>
        <time>2019-08-07T08:39:26Z</time>
      </trkpt>
      <trkpt lat="48.7382090" lon="14.1114350">
        <ele>735.2</ele>
        <time>2019-08-07T08:39:27Z</time>
      </trkpt>
      <trkpt lat="48.7381420" lon="14.1114240">
        <ele>735.2</ele>
        <time>2019-08-07T08:39:28Z</time>
      </trkpt>
      <trkpt lat="48.7380780" lon="14.1114120">
        <ele>735.2</ele>
        <time>2019-08-07T08:39:29Z</time>
      </trkpt>
      <trkpt lat="48.7380170" lon="14.1114010">
        <ele>735.2</ele>
        <time>2019-08-07T08:39:30Z</time>
      </trkpt>
      <trkpt lat="48.7379580" lon="14.1113940">
        <ele>735.4</ele>
        <time>2019-08-07T08:39:31Z</time>
      </trkpt>
      <trkpt lat="48.7378990" lon="14.1113850">
        <ele>735.4</ele>
        <time>2019-08-07T08:39:32Z</time>
      </trkpt>
      <trkpt lat="48.7378480" lon="14.1113730">
        <ele>735.4</ele>
        <time>2019-08-07T08:39:33Z</time>
      </trkpt>
      <trkpt lat="48.7377910" lon="14.1113530">
        <ele>735.4</ele>
        <time>2019-08-07T08:39:34Z</time>
      </trkpt>
      <trkpt lat="48.7377410" lon="14.1113350">
        <ele>735.4</ele>
        <time>2019-08-07T08:39:35Z</time>
      </trkpt>
      <trkpt lat="48.7376910" lon="14.1113230">
        <ele>735.4</ele>
        <time>2019-08-07T08:39:36Z</time>
      </trkpt>
      <trkpt lat="48.7376410" lon="14.1113160">
        <ele>735.4</ele>
        <time>2019-08-07T08:39:37Z</time>
      </trkpt>
      <trkpt lat="48.7375930" lon="14.1113150">
        <ele>735.6</ele>
        <time>2019-08-07T08:39:38Z</time>
      </trkpt>
      <trkpt lat="48.7375450" lon="14.1113150">
        <ele>735.6</ele>
        <time>2019-08-07T08:39:39Z</time>
      </trkpt>
      <trkpt lat="48.7374950" lon="14.1113130">
        <ele>735.8</ele>
        <time>2019-08-07T08:39:40Z</time>
      </trkpt>
      <trkpt lat="48.7374480" lon="14.1113090">
        <ele>736.0</ele>
        <time>2019-08-07T08:39:41Z</time>
      </trkpt>
      <trkpt lat="48.7374020" lon="14.1113040">
        <ele>736.2</ele>
        <time>2019-08-07T08:39:42Z</time>
      </trkpt>
      <trkpt lat="48.7373570" lon="14.1112940">
        <ele>736.4</ele>
        <time>2019-08-07T08:39:43Z</time>
      </trkpt>
      <trkpt lat="48.7373100" lon="14.1112820">
        <ele>736.4</ele>
        <time>2019-08-07T08:39:44Z</time>
      </trkpt>
      <trkpt lat="48.7372660" lon="14.1112680">
        <ele>736.4</ele>
        <time>2019-08-07T08:39:45Z</time>
      </trkpt>
      <trkpt lat="48.7372200" lon="14.1112490">
        <ele>736.6</ele>
        <time>2019-08-07T08:39:46Z</time>
      </trkpt>
      <trkpt lat="48.7371770" lon="14.1112260">
        <ele>736.6</ele>
        <time>2019-08-07T08:39:47Z</time>
      </trkpt>
      <trkpt lat="48.7371350" lon="14.1112010">
        <ele>736.8</ele>
        <time>2019-08-07T08:39:48Z</time>
      </trkpt>
      <trkpt lat="48.7370920" lon="14.1111740">
        <ele>737.0</ele>
        <time>2019-08-07T08:39:49Z</time>
      </trkpt>
      <trkpt lat="48.7370500" lon="14.1111490">
        <ele>737.2</ele>
        <time>2019-08-07T08:39:50Z</time>
      </trkpt>
      <trkpt lat="48.7370090" lon="14.1111240">
        <ele>737.2</ele>
        <time>2019-08-07T08:39:51Z</time>
      </trkpt>
      <trkpt lat="48.7369700" lon="14.1110990">
        <ele>737.4</ele>
        <time>2019-08-07T08:39:52Z</time>
      </trkpt>
      <trkpt lat="48.7369340" lon="14.1110760">
        <ele>737.6</ele>
        <time>2019-08-07T08:39:53Z</time>
      </trkpt>
      <trkpt lat="48.7368930" lon="14.1110470">
        <ele>737.8</ele>
        <time>2019-08-07T08:39:54Z</time>
      </trkpt>
      <trkpt lat="48.7368560" lon="14.1110240">
        <ele>737.8</ele>
        <time>2019-08-07T08:39:55Z</time>
      </trkpt>
      <trkpt lat="48.7368180" lon="14.1110010">
        <ele>738.2</ele>
        <time>2019-08-07T08:39:56Z</time>
      </trkpt>
      <trkpt lat="48.7367810" lon="14.1109760">
        <ele>738.2</ele>
        <time>2019-08-07T08:39:57Z</time>
      </trkpt>
      <trkpt lat="48.7367440" lon="14.1109540">
        <ele>738.4</ele>
        <time>2019-08-07T08:39:58Z</time>
      </trkpt>
      <trkpt lat="48.7367080" lon="14.1109330">
        <ele>738.6</ele>
        <time>2019-08-07T08:39:59Z</time>
      </trkpt>
      <trkpt lat="48.7366700" lon="14.1109090">
        <ele>738.8</ele>
        <time>2019-08-07T08:40:00Z</time>
      </trkpt>
      <trkpt lat="48.7366310" lon="14.1108860">
        <ele>739.0</ele>
        <time>2019-08-07T08:40:01Z</time>
      </trkpt>
      <trkpt lat="48.7365940" lon="14.1108610">
        <ele>739.0</ele>
        <time>2019-08-07T08:40:02Z</time>
      </trkpt>
      <trkpt lat="48.7365560" lon="14.1108370">
        <ele>739.2</ele>
        <time>2019-08-07T08:40:03Z</time>
      </trkpt>
      <trkpt lat="48.7365170" lon="14.1108100">
        <ele>739.2</ele>
        <time>2019-08-07T08:40:04Z</time>
      </trkpt>
      <trkpt lat="48.7364770" lon="14.1107840">
        <ele>739.4</ele>
        <time>2019-08-07T08:40:05Z</time>
      </trkpt>
      <trkpt lat="48.7364380" lon="14.1107610">
        <ele>739.4</ele>
        <time>2019-08-07T08:40:06Z</time>
      </trkpt>
      <trkpt lat="48.7363950" lon="14.1107390">
        <ele>739.6</ele>
        <time>2019-08-07T08:40:07Z</time>
      </trkpt>
      <trkpt lat="48.7363540" lon="14.1107190">
        <ele>739.6</ele>
        <time>2019-08-07T08:40:08Z</time>
      </trkpt>
      <trkpt lat="48.7363120" lon="14.1107000">
        <ele>739.6</ele>
        <time>2019-08-07T08:40:09Z</time>
      </trkpt>
      <trkpt lat="48.7362700" lon="14.1106810">
        <ele>739.8</ele>
        <time>2019-08-07T08:40:10Z</time>
      </trkpt>
      <trkpt lat="48.7362290" lon="14.1106610">
        <ele>739.8</ele>
        <time>2019-08-07T08:40:11Z</time>
      </trkpt>
      <trkpt lat="48.7361870" lon="14.1106410">
        <ele>739.8</ele>
        <time>2019-08-07T08:40:12Z</time>
      </trkpt>
      <trkpt lat="48.7361510" lon="14.1106250">
        <ele>740.0</ele>
        <time>2019-08-07T08:40:13Z</time>
      </trkpt>
      <trkpt lat="48.7361070" lon="14.1106030">
        <ele>740.0</ele>
        <time>2019-08-07T08:40:14Z</time>
      </trkpt>
      <trkpt lat="48.7360690" lon="14.1105840">
        <ele>740.2</ele>
        <time>2019-08-07T08:40:15Z</time>
      </trkpt>
      <trkpt lat="48.7360300" lon="14.1105650">
        <ele>740.2</ele>
        <time>2019-08-07T08:40:16Z</time>
      </trkpt>
      <trkpt lat="48.7359910" lon="14.1105440">
        <ele>740.4</ele>
        <time>2019-08-07T08:40:17Z</time>
      </trkpt>
      <trkpt lat="48.7359560" lon="14.1105240">
        <ele>740.4</ele>
        <time>2019-08-07T08:40:18Z</time>
      </trkpt>
      <trkpt lat="48.7359180" lon="14.1105030">
        <ele>740.6</ele>
        <time>2019-08-07T08:40:19Z</time>
      </trkpt>
      <trkpt lat="48.7358820" lon="14.1104830">
        <ele>740.8</ele>
        <time>2019-08-07T08:40:20Z</time>
      </trkpt>
      <trkpt lat="48.7358440" lon="14.1104640">
        <ele>741.0</ele>
        <time>2019-08-07T08:40:21Z</time>
      </trkpt>
      <trkpt lat="48.7358070" lon="14.1104440">
        <ele>741.0</ele>
        <time>2019-08-07T08:40:22Z</time>
      </trkpt>
      <trkpt lat="48.7357710" lon="14.1104250">
        <ele>741.2</ele>
        <time>2019-08-07T08:40:23Z</time>
      </trkpt>
      <trkpt lat="48.7357380" lon="14.1104090">
        <ele>741.4</ele>
        <time>2019-08-07T08:40:24Z</time>
      </trkpt>
      <trkpt lat="48.7357070" lon="14.1103970">
        <ele>741.6</ele>
        <time>2019-08-07T08:40:25Z</time>
      </trkpt>
      <trkpt lat="48.7356780" lon="14.1103850">
        <ele>741.6</ele>
        <time>2019-08-07T08:40:26Z</time>
      </trkpt>
      <trkpt lat="48.7356490" lon="14.1103720">
        <ele>741.8</ele>
        <time>2019-08-07T08:40:27Z</time>
      </trkpt>
      <trkpt lat="48.7356200" lon="14.1103560">
        <ele>742.0</ele>
        <time>2019-08-07T08:40:28Z</time>
      </trkpt>
      <trkpt lat="48.7355920" lon="14.1103400">
        <ele>742.2</ele>
        <time>2019-08-07T08:40:29Z</time>
      </trkpt>
      <trkpt lat="48.7355620" lon="14.1103250">
        <ele>742.4</ele>
        <time>2019-08-07T08:40:30Z</time>
      </trkpt>
      <trkpt lat="48.7355320" lon="14.1103120">
        <ele>742.6</ele>
        <time>2019-08-07T08:40:31Z</time>
      </trkpt>
      <trkpt lat="48.7355040" lon="14.1103000">
        <ele>742.8</ele>
        <time>2019-08-07T08:40:32Z</time>
      </trkpt>
      <trkpt lat="48.7354760" lon="14.1102860">
        <ele>743.0</ele>
        <time>2019-08-07T08:40:33Z</time>
      </trkpt>
      <trkpt lat="48.7354450" lon="14.1102700">
        <ele>743.2</ele>
        <time>2019-08-07T08:40:34Z</time>
      </trkpt>
      <trkpt lat="48.7354170" lon="14.1102570">
        <ele>743.4</ele>
        <time>2019-08-07T08:40:35Z</time>
      </trkpt>
      <trkpt lat="48.7353870" lon="14.1102400">
        <ele>743.6</ele>
        <time>2019-08-07T08:40:36Z</time>
      </trkpt>
      <trkpt lat="48.7353570" lon="14.1102270">
        <ele>743.8</ele>
        <time>2019-08-07T08:40:37Z</time>
      </trkpt>
      <trkpt lat="48.7353270" lon="14.1102120">
        <ele>743.8</ele>
        <time>2019-08-07T08:40:38Z</time>
      </trkpt>
      <trkpt lat="48.7352970" lon="14.1101970">
        <ele>744.0</ele>
        <time>2019-08-07T08:40:39Z</time>
      </trkpt>
      <trkpt lat="48.7352670" lon="14.1101820">
        <ele>744.2</ele>
        <time>2019-08-07T08:40:40Z</time>
      </trkpt>
      <trkpt lat="48.7352360" lon="14.1101670">
        <ele>744.4</ele>
        <time>2019-08-07T08:40:41Z</time>
      </trkpt>
      <trkpt lat="48.7352050" lon="14.1101520">
        <ele>744.6</ele>
        <time>2019-08-07T08:40:42Z</time>
      </trkpt>
      <trkpt lat="48.7351750" lon="14.1101400">
        <ele>744.6</ele>
        <time>2019-08-07T08:40:43Z</time>
      </trkpt>
      <trkpt lat="48.7351460" lon="14.1101290">
        <ele>744.8</ele>
        <time>2019-08-07T08:40:44Z</time>
      </trkpt>
      <trkpt lat="48.7351150" lon="14.1101130">
        <ele>745.0</ele>
        <time>2019-08-07T08:40:45Z</time>
      </trkpt>
      <trkpt lat="48.7350850" lon="14.1100960">
        <ele>745.2</ele>
        <time>2019-08-07T08:40:46Z</time>
      </trkpt>
      <trkpt lat="48.7350570" lon="14.1100800">
        <ele>745.2</ele>
        <time>2019-08-07T08:40:47Z</time>
      </trkpt>
      <trkpt lat="48.7350270" lon="14.1100640">
        <ele>745.4</ele>
        <time>2019-08-07T08:40:48Z</time>
      </trkpt>
      <trkpt lat="48.7349950" lon="14.1100490">
        <ele>745.4</ele>
        <time>2019-08-07T08:40:49Z</time>
      </trkpt>
      <trkpt lat="48.7349630" lon="14.1100370">
        <ele>745.6</ele>
        <time>2019-08-07T08:40:50Z</time>
      </trkpt>
      <trkpt lat="48.7349340" lon="14.1100220">
        <ele>745.6</ele>
        <time>2019-08-07T08:40:51Z</time>
      </trkpt>
      <trkpt lat="48.7349020" lon="14.1100070">
        <ele>745.8</ele>
        <time>2019-08-07T08:40:52Z</time>
      </trkpt>
      <trkpt lat="48.7348740" lon="14.1099930">
        <ele>746.0</ele>
        <time>2019-08-07T08:40:53Z</time>
      </trkpt>
      <trkpt lat="48.7348400" lon="14.1099770">
        <ele>746.0</ele>
        <time>2019-08-07T08:40:54Z</time>
      </trkpt>
      <trkpt lat="48.7348080" lon="14.1099620">
        <ele>746.2</ele>
        <time>2019-08-07T08:40:55Z</time>
      </trkpt>
      <trkpt lat="48.7347780" lon="14.1099470">
        <ele>746.2</ele>
        <time>2019-08-07T08:40:56Z</time>
      </trkpt>
      <trkpt lat="48.7347470" lon="14.1099320">
        <ele>746.4</ele>
        <time>2019-08-07T08:40:57Z</time>
      </trkpt>
      <trkpt lat="48.7347160" lon="14.1099190">
        <ele>746.6</ele>
        <time>2019-08-07T08:40:58Z</time>
      </trkpt>
      <trkpt lat="48.7346850" lon="14.1099050">
        <ele>746.8</ele>
        <time>2019-08-07T08:40:59Z</time>
      </trkpt>
      <trkpt lat="48.7346550" lon="14.1098900">
        <ele>747.0</ele>
        <time>2019-08-07T08:41:00Z</time>
      </trkpt>
      <trkpt lat="48.7346260" lon="14.1098770">
        <ele>747.2</ele>
        <time>2019-08-07T08:41:01Z</time>
      </trkpt>
      <trkpt lat="48.7345970" lon="14.1098620">
        <ele>747.4</ele>
        <time>2019-08-07T08:41:02Z</time>
      </trkpt>
      <trkpt lat="48.7345680" lon="14.1098490">
        <ele>747.6</ele>
        <time>2019-08-07T08:41:03Z</time>
      </trkpt>
      <trkpt lat="48.7345390" lon="14.1098350">
        <ele>747.6</ele>
        <time>2019-08-07T08:41:04Z</time>
      </trkpt>
      <trkpt lat="48.7345100" lon="14.1098200">
        <ele>747.8</ele>
        <time>2019-08-07T08:41:05Z</time>
      </trkpt>
      <trkpt lat="48.7344820" lon="14.1098090">
        <ele>748.0</ele>
        <time>2019-08-07T08:41:06Z</time>
      </trkpt>
      <trkpt lat="48.7344540" lon="14.1097950">
        <ele>748.2</ele>
        <time>2019-08-07T08:41:07Z</time>
      </trkpt>
      <trkpt lat="48.7344250" lon="14.1097840">
        <ele>748.4</ele>
        <time>2019-08-07T08:41:08Z</time>
      </trkpt>
      <trkpt lat="48.7343970" lon="14.1097700">
        <ele>748.6</ele>
        <time>2019-08-07T08:41:09Z</time>
      </trkpt>
      <trkpt lat="48.7343700" lon="14.1097570">
        <ele>748.8</ele>
        <time>2019-08-07T08:41:10Z</time>
      </trkpt>
      <trkpt lat="48.7343440" lon="14.1097440">
        <ele>748.8</ele>
        <time>2019-08-07T08:41:11Z</time>
      </trkpt>
      <trkpt lat="48.7343180" lon="14.1097310">
        <ele>749.2</ele>
        <time>2019-08-07T08:41:12Z</time>
      </trkpt>
      <trkpt lat="48.7342930" lon="14.1097170">
        <ele>749.4</ele>
        <time>2019-08-07T08:41:13Z</time>
      </trkpt>
      <trkpt lat="48.7342620" lon="14.1097020">
        <ele>749.6</ele>
        <time>2019-08-07T08:41:14Z</time>
      </trkpt>
      <trkpt lat="48.7342360" lon="14.1096880">
        <ele>749.8</ele>
        <time>2019-08-07T08:41:15Z</time>
      </trkpt>
      <trkpt lat="48.7342090" lon="14.1096720">
        <ele>750.0</ele>
        <time>2019-08-07T08:41:16Z</time>
      </trkpt>
      <trkpt lat="48.7341820" lon="14.1096560">
        <ele>750.2</ele>
        <time>2019-08-07T08:41:17Z</time>
      </trkpt>
      <trkpt lat="48.7341570" lon="14.1096400">
        <ele>750.4</ele>
        <time>2019-08-07T08:41:18Z</time>
      </trkpt>
      <trkpt lat="48.7341330" lon="14.1096230">
        <ele>750.6</ele>
        <time>2019-08-07T08:41:19Z</time>
      </trkpt>
      <trkpt lat="48.7341080" lon="14.1096070">
        <ele>750.8</ele>
        <time>2019-08-07T08:41:20Z</time>
      </trkpt>
      <trkpt lat="48.7340810" lon="14.1095880">
        <ele>751.0</ele>
        <time>2019-08-07T08:41:21Z</time>
      </trkpt>
      <trkpt lat="48.7340570" lon="14.1095680">
        <ele>751.2</ele>
        <time>2019-08-07T08:41:22Z</time>
      </trkpt>
      <trkpt lat="48.7340320" lon="14.1095500">
        <ele>751.4</ele>
        <time>2019-08-07T08:41:23Z</time>
      </trkpt>
      <trkpt lat="48.7340060" lon="14.1095310">
        <ele>751.6</ele>
        <time>2019-08-07T08:41:24Z</time>
      </trkpt>
      <trkpt lat="48.7339790" lon="14.1095130">
        <ele>751.8</ele>
        <time>2019-08-07T08:41:25Z</time>
      </trkpt>
      <trkpt lat="48.7339520" lon="14.1094950">
        <ele>752.0</ele>
        <time>2019-08-07T08:41:26Z</time>
      </trkpt>
      <trkpt lat="48.7339250" lon="14.1094780">
        <ele>752.2</ele>
        <time>2019-08-07T08:41:27Z</time>
      </trkpt>
      <trkpt lat="48.7338990" lon="14.1094590">
        <ele>752.4</ele>
        <time>2019-08-07T08:41:28Z</time>
      </trkpt>
      <trkpt lat="48.7338740" lon="14.1094390">
        <ele>752.6</ele>
        <time>2019-08-07T08:41:29Z</time>
      </trkpt>
      <trkpt lat="48.7338470" lon="14.1094190">
        <ele>752.8</ele>
        <time>2019-08-07T08:41:30Z</time>
      </trkpt>
      <trkpt lat="48.7338230" lon="14.1094000">
        <ele>753.0</ele>
        <time>2019-08-07T08:41:31Z</time>
      </trkpt>
      <trkpt lat="48.7337990" lon="14.1093800">
        <ele>753.2</ele>
        <time>2019-08-07T08:41:32Z</time>
      </trkpt>
      <trkpt lat="48.7337770" lon="14.1093590">
        <ele>753.4</ele>
        <time>2019-08-07T08:41:33Z</time>
      </trkpt>
      <trkpt lat="48.7337510" lon="14.1093360">
        <ele>753.6</ele>
        <time>2019-08-07T08:41:34Z</time>
      </trkpt>
      <trkpt lat="48.7337270" lon="14.1093160">
        <ele>753.8</ele>
        <time>2019-08-07T08:41:35Z</time>
      </trkpt>
      <trkpt lat="48.7337040" lon="14.1092980">
        <ele>753.8</ele>
        <time>2019-08-07T08:41:36Z</time>
      </trkpt>
      <trkpt lat="48.7336790" lon="14.1092790">
        <ele>754.0</ele>
        <time>2019-08-07T08:41:37Z</time>
      </trkpt>
      <trkpt lat="48.7336540" lon="14.1092600">
        <ele>754.2</ele>
        <time>2019-08-07T08:41:38Z</time>
      </trkpt>
      <trkpt lat="48.7336300" lon="14.1092420">
        <ele>754.4</ele>
        <time>2019-08-07T08:41:39Z</time>
      </trkpt>
      <trkpt lat="48.7336060" lon="14.1092230">
        <ele>754.6</ele>
        <time>2019-08-07T08:41:40Z</time>
      </trkpt>
      <trkpt lat="48.7335810" lon="14.1092040">
        <ele>754.8</ele>
        <time>2019-08-07T08:41:41Z</time>
      </trkpt>
      <trkpt lat="48.7335580" lon="14.1091850">
        <ele>755.0</ele>
        <time>2019-08-07T08:41:42Z</time>
      </trkpt>
      <trkpt lat="48.7335340" lon="14.1091640">
        <ele>755.2</ele>
        <time>2019-08-07T08:41:43Z</time>
      </trkpt>
      <trkpt lat="48.7335090" lon="14.1091450">
        <ele>755.4</ele>
        <time>2019-08-07T08:41:44Z</time>
      </trkpt>
      <trkpt lat="48.7334840" lon="14.1091270">
        <ele>755.6</ele>
        <time>2019-08-07T08:41:45Z</time>
      </trkpt>
      <trkpt lat="48.7334590" lon="14.1091090">
        <ele>755.8</ele>
        <time>2019-08-07T08:41:46Z</time>
      </trkpt>
      <trkpt lat="48.7334350" lon="14.1090870">
        <ele>756.0</ele>
        <time>2019-08-07T08:41:47Z</time>
      </trkpt>
      <trkpt lat="48.7334110" lon="14.1090660">
        <ele>756.0</ele>
        <time>2019-08-07T08:41:48Z</time>
      </trkpt>
      <trkpt lat="48.7333880" lon="14.1090460">
        <ele>756.2</ele>
        <time>2019-08-07T08:41:49Z</time>
      </trkpt>
      <trkpt lat="48.7333630" lon="14.1090270">
        <ele>756.4</ele>
        <time>2019-08-07T08:41:50Z</time>
      </trkpt>
      <trkpt lat="48.7333390" lon="14.1090080">
        <ele>756.6</ele>
        <time>2019-08-07T08:41:51Z</time>
      </trkpt>
      <trkpt lat="48.7333140" lon="14.1089880">
        <ele>756.8</ele>
        <time>2019-08-07T08:41:52Z</time>
      </trkpt>
      <trkpt lat="48.7332930" lon="14.1089700">
        <ele>757.0</ele>
        <time>2019-08-07T08:41:53Z</time>
      </trkpt>
      <trkpt lat="48.7332670" lon="14.1089500">
        <ele>757.2</ele>
        <time>2019-08-07T08:41:54Z</time>
      </trkpt>
      <trkpt lat="48.7332410" lon="14.1089310">
        <ele>757.4</ele>
        <time>2019-08-07T08:41:55Z</time>
      </trkpt>
      <trkpt lat="48.7332170" lon="14.1089130">
        <ele>757.6</ele>
        <time>2019-08-07T08:41:56Z</time>
      </trkpt>
      <trkpt lat="48.7331930" lon="14.1088910">
        <ele>757.6</ele>
        <time>2019-08-07T08:41:57Z</time>
      </trkpt>
      <trkpt lat="48.7331690" lon="14.1088710">
        <ele>757.8</ele>
        <time>2019-08-07T08:41:58Z</time>
      </trkpt>
      <trkpt lat="48.7331440" lon="14.1088510">
        <ele>758.0</ele>
        <time>2019-08-07T08:41:59Z</time>
      </trkpt>
      <trkpt lat="48.7331200" lon="14.1088330">
        <ele>758.2</ele>
        <time>2019-08-07T08:42:00Z</time>
      </trkpt>
      <trkpt lat="48.7330960" lon="14.1088140">
        <ele>758.4</ele>
        <time>2019-08-07T08:42:01Z</time>
      </trkpt>
      <trkpt lat="48.7330720" lon="14.1087940">
        <ele>758.6</ele>
        <time>2019-08-07T08:42:02Z</time>
      </trkpt>
      <trkpt lat="48.7330470" lon="14.1087750">
        <ele>758.8</ele>
        <time>2019-08-07T08:42:03Z</time>
      </trkpt>
      <trkpt lat="48.7330220" lon="14.1087550">
        <ele>759.0</ele>
        <time>2019-08-07T08:42:04Z</time>
      </trkpt>
      <trkpt lat="48.7329970" lon="14.1087360">
        <ele>759.2</ele>
        <time>2019-08-07T08:42:05Z</time>
      </trkpt>
      <trkpt lat="48.7329730" lon="14.1087180">
        <ele>759.4</ele>
        <time>2019-08-07T08:42:06Z</time>
      </trkpt>
      <trkpt lat="48.7329490" lon="14.1087010">
        <ele>759.6</ele>
        <time>2019-08-07T08:42:07Z</time>
      </trkpt>
      <trkpt lat="48.7329260" lon="14.1086830">
        <ele>759.8</ele>
        <time>2019-08-07T08:42:08Z</time>
      </trkpt>
      <trkpt lat="48.7329020" lon="14.1086630">
        <ele>760.0</ele>
        <time>2019-08-07T08:42:09Z</time>
      </trkpt>
      <trkpt lat="48.7328790" lon="14.1086430">
        <ele>760.2</ele>
        <time>2019-08-07T08:42:10Z</time>
      </trkpt>
      <trkpt lat="48.7328560" lon="14.1086230">
        <ele>760.4</ele>
        <time>2019-08-07T08:42:11Z</time>
      </trkpt>
      <trkpt lat="48.7328330" lon="14.1086050">
        <ele>760.6</ele>
        <time>2019-08-07T08:42:12Z</time>
      </trkpt>
      <trkpt lat="48.7328110" lon="14.1085880">
        <ele>760.8</ele>
        <time>2019-08-07T08:42:13Z</time>
      </trkpt>
      <trkpt lat="48.7327840" lon="14.1085680">
        <ele>761.2</ele>
        <time>2019-08-07T08:42:14Z</time>
      </trkpt>
      <trkpt lat="48.7327610" lon="14.1085460">
        <ele>761.4</ele>
        <time>2019-08-07T08:42:15Z</time>
      </trkpt>
      <trkpt lat="48.7327370" lon="14.1085260">
        <ele>761.4</ele>
        <time>2019-08-07T08:42:16Z</time>
      </trkpt>
      <trkpt lat="48.7327140" lon="14.1085060">
        <ele>761.6</ele>
        <time>2019-08-07T08:42:17Z</time>
      </trkpt>
      <trkpt lat="48.7326890" lon="14.1084880">
        <ele>761.8</ele>
        <time>2019-08-07T08:42:18Z</time>
      </trkpt>
      <trkpt lat="48.7326640" lon="14.1084700">
        <ele>762.0</ele>
        <time>2019-08-07T08:42:19Z</time>
      </trkpt>
      <trkpt lat="48.7326410" lon="14.1084480">
        <ele>762.2</ele>
        <time>2019-08-07T08:42:20Z</time>
      </trkpt>
      <trkpt lat="48.7326160" lon="14.1084280">
        <ele>762.4</ele>
        <time>2019-08-07T08:42:21Z</time>
      </trkpt>
      <trkpt lat="48.7325920" lon="14.1084100">
        <ele>762.6</ele>
        <time>2019-08-07T08:42:22Z</time>
      </trkpt>
      <trkpt lat="48.7325690" lon="14.1083910">
        <ele>762.8</ele>
        <time>2019-08-07T08:42:23Z</time>
      </trkpt>
      <trkpt lat="48.7325440" lon="14.1083740">
        <ele>763.0</ele>
        <time>2019-08-07T08:42:24Z</time>
      </trkpt>
      <trkpt lat="48.7325190" lon="14.1083540">
        <ele>763.2</ele>
        <time>2019-08-07T08:42:25Z</time>
      </trkpt>
      <trkpt lat="48.7324940" lon="14.1083350">
        <ele>763.4</ele>
        <time>2019-08-07T08:42:26Z</time>
      </trkpt>
      <trkpt lat="48.7324710" lon="14.1083180">
        <ele>763.6</ele>
        <time>2019-08-07T08:42:27Z</time>
      </trkpt>
      <trkpt lat="48.7324460" lon="14.1083030">
        <ele>763.8</ele>
        <time>2019-08-07T08:42:28Z</time>
      </trkpt>
      <trkpt lat="48.7324210" lon="14.1082840">
        <ele>764.0</ele>
        <time>2019-08-07T08:42:29Z</time>
      </trkpt>
      <trkpt lat="48.7323970" lon="14.1082630">
        <ele>764.0</ele>
        <time>2019-08-07T08:42:30Z</time>
      </trkpt>
      <trkpt lat="48.7323720" lon="14.1082410">
        <ele>764.2</ele>
        <time>2019-08-07T08:42:31Z</time>
      </trkpt>
      <trkpt lat="48.7323490" lon="14.1082180">
        <ele>764.4</ele>
        <time>2019-08-07T08:42:32Z</time>
      </trkpt>
      <trkpt lat="48.7323280" lon="14.1082000">
        <ele>764.6</ele>
        <time>2019-08-07T08:42:33Z</time>
      </trkpt>
      <trkpt lat="48.7323020" lon="14.1081780">
        <ele>764.8</ele>
        <time>2019-08-07T08:42:34Z</time>
      </trkpt>
      <trkpt lat="48.7322780" lon="14.1081580">
        <ele>765.0</ele>
        <time>2019-08-07T08:42:35Z</time>
      </trkpt>
      <trkpt lat="48.7322530" lon="14.1081400">
        <ele>765.4</ele>
        <time>2019-08-07T08:42:36Z</time>
      </trkpt>
      <trkpt lat="48.7322280" lon="14.1081220">
        <ele>765.6</ele>
        <time>2019-08-07T08:42:37Z</time>
      </trkpt>
      <trkpt lat="48.7322040" lon="14.1081050">
        <ele>765.8</ele>
        <time>2019-08-07T08:42:38Z</time>
      </trkpt>
      <trkpt lat="48.7321800" lon="14.1080870">
        <ele>766.0</ele>
        <time>2019-08-07T08:42:39Z</time>
      </trkpt>
      <trkpt lat="48.7321540" lon="14.1080660">
        <ele>766.2</ele>
        <time>2019-08-07T08:42:40Z</time>
      </trkpt>
      <trkpt lat="48.7321290" lon="14.1080460">
        <ele>766.4</ele>
        <time>2019-08-07T08:42:41Z</time>
      </trkpt>
      <trkpt lat="48.7321060" lon="14.1080260">
        <ele>766.6</ele>
        <time>2019-08-07T08:42:42Z</time>
      </trkpt>
      <trkpt lat="48.7320820" lon="14.1080040">
        <ele>766.8</ele>
        <time>2019-08-07T08:42:43Z</time>
      </trkpt>
      <trkpt lat="48.7320590" lon="14.1079830">
        <ele>767.0</ele>
        <time>2019-08-07T08:42:44Z</time>
      </trkpt>
      <trkpt lat="48.7320340" lon="14.1079630">
        <ele>767.2</ele>
        <time>2019-08-07T08:42:45Z</time>
      </trkpt>
      <trkpt lat="48.7320090" lon="14.1079410">
        <ele>767.4</ele>
        <time>2019-08-07T08:42:46Z</time>
      </trkpt>
      <trkpt lat="48.7319860" lon="14.1079210">
        <ele>767.6</ele>
        <time>2019-08-07T08:42:47Z</time>
      </trkpt>
      <trkpt lat="48.7319620" lon="14.1079010">
        <ele>767.8</ele>
        <time>2019-08-07T08:42:48Z</time>
      </trkpt>
      <trkpt lat="48.7319390" lon="14.1078810">
        <ele>768.0</ele>
        <time>2019-08-07T08:42:49Z</time>
      </trkpt>
      <trkpt lat="48.7319150" lon="14.1078640">
        <ele>768.2</ele>
        <time>2019-08-07T08:42:50Z</time>
      </trkpt>
      <trkpt lat="48.7318910" lon="14.1078450">
        <ele>768.4</ele>
        <time>2019-08-07T08:42:51Z</time>
      </trkpt>
      <trkpt lat="48.7318680" lon="14.1078260">
        <ele>768.6</ele>
        <time>2019-08-07T08:42:52Z</time>
      </trkpt>
      <trkpt lat="48.7318470" lon="14.1078070">
        <ele>768.8</ele>
        <time>2019-08-07T08:42:53Z</time>
      </trkpt>
      <trkpt lat="48.7318220" lon="14.1077880">
        <ele>769.0</ele>
        <time>2019-08-07T08:42:54Z</time>
      </trkpt>
      <trkpt lat="48.7317970" lon="14.1077710">
        <ele>769.2</ele>
        <time>2019-08-07T08:42:55Z</time>
      </trkpt>
      <trkpt lat="48.7317720" lon="14.1077540">
        <ele>769.4</ele>
        <time>2019-08-07T08:42:56Z</time>
      </trkpt>
      <trkpt lat="48.7317480" lon="14.1077350">
        <ele>769.6</ele>
        <time>2019-08-07T08:42:57Z</time>
      </trkpt>
      <trkpt lat="48.7317240" lon="14.1077140">
        <ele>769.8</ele>
        <time>2019-08-07T08:42:58Z</time>
      </trkpt>
      <trkpt lat="48.7316990" lon="14.1076940">
        <ele>770.0</ele>
        <time>2019-08-07T08:42:59Z</time>
      </trkpt>
      <trkpt lat="48.7316720" lon="14.1076730">
        <ele>770.2</ele>
        <time>2019-08-07T08:43:00Z</time>
      </trkpt>
      <trkpt lat="48.7316480" lon="14.1076500">
        <ele>770.4</ele>
        <time>2019-08-07T08:43:01Z</time>
      </trkpt>
      <trkpt lat="48.7316210" lon="14.1076300">
        <ele>770.4</ele>
        <time>2019-08-07T08:43:02Z</time>
      </trkpt>
      <trkpt lat="48.7315940" lon="14.1076090">
        <ele>770.6</ele>
        <time>2019-08-07T08:43:03Z</time>
      </trkpt>
      <trkpt lat="48.7315670" lon="14.1075900">
        <ele>770.8</ele>
        <time>2019-08-07T08:43:04Z</time>
      </trkpt>
      <trkpt lat="48.7315390" lon="14.1075710">
        <ele>771.0</ele>
        <time>2019-08-07T08:43:05Z</time>
      </trkpt>
      <trkpt lat="48.7315120" lon="14.1075510">
        <ele>771.0</ele>
        <time>2019-08-07T08:43:06Z</time>
      </trkpt>
      <trkpt lat="48.7314860" lon="14.1075280">
        <ele>771.2</ele>
        <time>2019-08-07T08:43:07Z</time>
      </trkpt>
      <trkpt lat="48.7314590" lon="14.1075040">
        <ele>771.4</ele>
        <time>2019-08-07T08:43:08Z</time>
      </trkpt>
      <trkpt lat="48.7314320" lon="14.1074850">
        <ele>771.6</ele>
        <time>2019-08-07T08:43:09Z</time>
      </trkpt>
      <trkpt lat="48.7314060" lon="14.1074660">
        <ele>771.8</ele>
        <time>2019-08-07T08:43:10Z</time>
      </trkpt>
      <trkpt lat="48.7313790" lon="14.1074460">
        <ele>772.0</ele>
        <time>2019-08-07T08:43:11Z</time>
      </trkpt>
      <trkpt lat="48.7313520" lon="14.1074250">
        <ele>772.2</ele>
        <time>2019-08-07T08:43:12Z</time>
      </trkpt>
      <trkpt lat="48.7313270" lon="14.1074080">
        <ele>772.4</ele>
        <time>2019-08-07T08:43:13Z</time>
      </trkpt>
      <trkpt lat="48.7312990" lon="14.1073880">
        <ele>772.6</ele>
        <time>2019-08-07T08:43:14Z</time>
      </trkpt>
      <trkpt lat="48.7312720" lon="14.1073690">
        <ele>772.6</ele>
        <time>2019-08-07T08:43:15Z</time>
      </trkpt>
      <trkpt lat="48.7312470" lon="14.1073490">
        <ele>772.8</ele>
        <time>2019-08-07T08:43:16Z</time>
      </trkpt>
      <trkpt lat="48.7312220" lon="14.1073300">
        <ele>773.0</ele>
        <time>2019-08-07T08:43:17Z</time>
      </trkpt>
      <trkpt lat="48.7311960" lon="14.1073120">
        <ele>773.2</ele>
        <time>2019-08-07T08:43:18Z</time>
      </trkpt>
      <trkpt lat="48.7311670" lon="14.1072920">
        <ele>773.4</ele>
        <time>2019-08-07T08:43:19Z</time>
      </trkpt>
      <trkpt lat="48.7311410" lon="14.1072710">
        <ele>773.6</ele>
        <time>2019-08-07T08:43:20Z</time>
      </trkpt>
      <trkpt lat="48.7311150" lon="14.1072530">
        <ele>773.8</ele>
        <time>2019-08-07T08:43:21Z</time>
      </trkpt>
      <trkpt lat="48.7310870" lon="14.1072350">
        <ele>774.0</ele>
        <time>2019-08-07T08:43:22Z</time>
      </trkpt>
      <trkpt lat="48.7310600" lon="14.1072180">
        <ele>774.2</ele>
        <time>2019-08-07T08:43:23Z</time>
      </trkpt>
      <trkpt lat="48.7310340" lon="14.1071990">
        <ele>774.4</ele>
        <time>2019-08-07T08:43:24Z</time>
      </trkpt>
      <trkpt lat="48.7310070" lon="14.1071780">
        <ele>774.6</ele>
        <time>2019-08-07T08:43:25Z</time>
      </trkpt>
      <trkpt lat="48.7309820" lon="14.1071560">
        <ele>774.8</ele>
        <time>2019-08-07T08:43:26Z</time>
      </trkpt>
      <trkpt lat="48.7309550" lon="14.1071360">
        <ele>775.0</ele>
        <time>2019-08-07T08:43:27Z</time>
      </trkpt>
      <trkpt lat="48.7309290" lon="14.1071180">
        <ele>775.2</ele>
        <time>2019-08-07T08:43:28Z</time>
      </trkpt>
      <trkpt lat="48.7309040" lon="14.1071000">
        <ele>775.4</ele>
        <time>2019-08-07T08:43:29Z</time>
      </trkpt>
      <trkpt lat="48.7308770" lon="14.1070830">
        <ele>775.6</ele>
        <time>2019-08-07T08:43:30Z</time>
      </trkpt>
      <trkpt lat="48.7308520" lon="14.1070670">
        <ele>775.8</ele>
        <time>2019-08-07T08:43:31Z</time>
      </trkpt>
      <trkpt lat="48.7308270" lon="14.1070500">
        <ele>776.2</ele>
        <time>2019-08-07T08:43:32Z</time>
      </trkpt>
      <trkpt lat="48.7308040" lon="14.1070350">
        <ele>776.4</ele>
        <time>2019-08-07T08:43:33Z</time>
      </trkpt>
      <trkpt lat="48.7307770" lon="14.1070150">
        <ele>776.6</ele>
        <time>2019-08-07T08:43:34Z</time>
      </trkpt>
      <trkpt lat="48.7307540" lon="14.1069970">
        <ele>776.8</ele>
        <time>2019-08-07T08:43:35Z</time>
      </trkpt>
      <trkpt lat="48.7307290" lon="14.1069800">
        <ele>777.0</ele>
        <time>2019-08-07T08:43:36Z</time>
      </trkpt>
      <trkpt lat="48.7307040" lon="14.1069610">
        <ele>777.2</ele>
        <time>2019-08-07T08:43:37Z</time>
      </trkpt>
      <trkpt lat="48.7306770" lon="14.1069450">
        <ele>777.4</ele>
        <time>2019-08-07T08:43:38Z</time>
      </trkpt>
      <trkpt lat="48.7306520" lon="14.1069280">
        <ele>777.6</ele>
        <time>2019-08-07T08:43:39Z</time>
      </trkpt>
      <trkpt lat="48.7306260" lon="14.1069110">
        <ele>777.8</ele>
        <time>2019-08-07T08:43:40Z</time>
      </trkpt>
      <trkpt lat="48.7306000" lon="14.1068910">
        <ele>778.0</ele>
        <time>2019-08-07T08:43:41Z</time>
      </trkpt>
      <trkpt lat="48.7305720" lon="14.1068720">
        <ele>778.0</ele>
        <time>2019-08-07T08:43:42Z</time>
      </trkpt>
      <trkpt lat="48.7305450" lon="14.1068560">
        <ele>778.2</ele>
        <time>2019-08-07T08:43:43Z</time>
      </trkpt>
      <trkpt lat="48.7305170" lon="14.1068370">
        <ele>778.6</ele>
        <time>2019-08-07T08:43:44Z</time>
      </trkpt>
      <trkpt lat="48.7304890" lon="14.1068200">
        <ele>778.6</ele>
        <time>2019-08-07T08:43:45Z</time>
      </trkpt>
      <trkpt lat="48.7304620" lon="14.1068030">
        <ele>778.8</ele>
        <time>2019-08-07T08:43:46Z</time>
      </trkpt>
      <trkpt lat="48.7304340" lon="14.1067840">
        <ele>778.8</ele>
        <time>2019-08-07T08:43:47Z</time>
      </trkpt>
      <trkpt lat="48.7304070" lon="14.1067630">
        <ele>778.8</ele>
        <time>2019-08-07T08:43:48Z</time>
      </trkpt>
      <trkpt lat="48.7303790" lon="14.1067410">
        <ele>779.0</ele>
        <time>2019-08-07T08:43:49Z</time>
      </trkpt>
      <trkpt lat="48.7303520" lon="14.1067250">
        <ele>779.0</ele>
        <time>2019-08-07T08:43:50Z</time>
      </trkpt>
      <trkpt lat="48.7303250" lon="14.1067090">
        <ele>779.0</ele>
        <time>2019-08-07T08:43:51Z</time>
      </trkpt>
      <trkpt lat="48.7302970" lon="14.1066880">
        <ele>779.2</ele>
        <time>2019-08-07T08:43:52Z</time>
      </trkpt>
      <trkpt lat="48.7302720" lon="14.1066720">
        <ele>779.2</ele>
        <time>2019-08-07T08:43:53Z</time>
      </trkpt>
      <trkpt lat="48.7302390" lon="14.1066530">
        <ele>779.4</ele>
        <time>2019-08-07T08:43:54Z</time>
      </trkpt>
      <trkpt lat="48.7302080" lon="14.1066340">
        <ele>779.6</ele>
        <time>2019-08-07T08:43:55Z</time>
      </trkpt>
      <trkpt lat="48.7301800" lon="14.1066150">
        <ele>779.6</ele>
        <time>2019-08-07T08:43:56Z</time>
      </trkpt>
      <trkpt lat="48.7301550" lon="14.1065960">
        <ele>779.6</ele>
        <time>2019-08-07T08:43:57Z</time>
      </trkpt>
      <trkpt lat="48.7301200" lon="14.1065720">
        <ele>779.6</ele>
        <time>2019-08-07T08:43:58Z</time>
      </trkpt>
      <trkpt lat="48.7300880" lon="14.1065490">
        <ele>779.6</ele>
        <time>2019-08-07T08:43:59Z</time>
      </trkpt>
      <trkpt lat="48.7300560" lon="14.1065260">
        <ele>779.8</ele>
        <time>2019-08-07T08:44:00Z</time>
      </trkpt>
      <trkpt lat="48.7300250" lon="14.1065020">
        <ele>779.8</ele>
        <time>2019-08-07T08:44:01Z</time>
      </trkpt>
      <trkpt lat="48.7299910" lon="14.1064750">
        <ele>780.0</ele>
        <time>2019-08-07T08:44:02Z</time>
      </trkpt>
      <trkpt lat="48.7299560" lon="14.1064470">
        <ele>780.0</ele>
        <time>2019-08-07T08:44:03Z</time>
      </trkpt>
      <trkpt lat="48.7299210" lon="14.1064150">
        <ele>780.0</ele>
        <time>2019-08-07T08:44:04Z</time>
      </trkpt>
      <trkpt lat="48.7298840" lon="14.1063830">
        <ele>779.8</ele>
        <time>2019-08-07T08:44:05Z</time>
      </trkpt>
      <trkpt lat="48.7298440" lon="14.1063480">
        <ele>779.8</ele>
        <time>2019-08-07T08:44:06Z</time>
      </trkpt>
      <trkpt lat="48.7298050" lon="14.1063100">
        <ele>780.0</ele>
        <time>2019-08-07T08:44:07Z</time>
      </trkpt>
      <trkpt lat="48.7297640" lon="14.1062690">
        <ele>780.0</ele>
        <time>2019-08-07T08:44:08Z</time>
      </trkpt>
      <trkpt lat="48.7297220" lon="14.1062260">
        <ele>780.2</ele>
        <time>2019-08-07T08:44:09Z</time>
      </trkpt>
      <trkpt lat="48.7296760" lon="14.1061800">
        <ele>780.0</ele>
        <time>2019-08-07T08:44:10Z</time>
      </trkpt>
      <trkpt lat="48.7296300" lon="14.1061330">
        <ele>780.0</ele>
        <time>2019-08-07T08:44:11Z</time>
      </trkpt>
      <trkpt lat="48.7295830" lon="14.1060850">
        <ele>780.0</ele>
        <time>2019-08-07T08:44:12Z</time>
      </trkpt>
      <trkpt lat="48.7295380" lon="14.1060410">
        <ele>779.6</ele>
        <time>2019-08-07T08:44:13Z</time>
      </trkpt>
      <trkpt lat="48.7294810" lon="14.1059830">
        <ele>779.4</ele>
        <time>2019-08-07T08:44:14Z</time>
      </trkpt>
      <trkpt lat="48.7294260" lon="14.1059330">
        <ele>779.0</ele>
        <time>2019-08-07T08:44:15Z</time>
      </trkpt>
      <trkpt lat="48.7293680" lon="14.1058810">
        <ele>778.8</ele>
        <time>2019-08-07T08:44:16Z</time>
      </trkpt>
      <trkpt lat="48.7293080" lon="14.1058290">
        <ele>778.6</ele>
        <time>2019-08-07T08:44:17Z</time>
      </trkpt>
      <trkpt lat="48.7292480" lon="14.1057740">
        <ele>778.2</ele>
        <time>2019-08-07T08:44:18Z</time>
      </trkpt>
      <trkpt lat="48.7291830" lon="14.1057190">
        <ele>778.0</ele>
        <time>2019-08-07T08:44:19Z</time>
      </trkpt>
      <trkpt lat="48.7291180" lon="14.1056620">
        <ele>777.6</ele>
        <time>2019-08-07T08:44:20Z</time>
      </trkpt>
      <trkpt lat="48.7290490" lon="14.1056020">
        <ele>777.4</ele>
        <time>2019-08-07T08:44:21Z</time>
      </trkpt>
      <trkpt lat="48.7289780" lon="14.1055410">
        <ele>777.0</ele>
        <time>2019-08-07T08:44:22Z</time>
      </trkpt>
      <trkpt lat="48.7289050" lon="14.1054780">
        <ele>776.8</ele>
        <time>2019-08-07T08:44:23Z</time>
      </trkpt>
      <trkpt lat="48.7288340" lon="14.1054180">
        <ele>776.6</ele>
        <time>2019-08-07T08:44:24Z</time>
      </trkpt>
      <trkpt lat="48.7287510" lon="14.1053510">
        <ele>776.4</ele>
        <time>2019-08-07T08:44:25Z</time>
      </trkpt>
      <trkpt lat="48.7286710" lon="14.1052880">
        <ele>776.4</ele>
        <time>2019-08-07T08:44:26Z</time>
      </trkpt>
      <trkpt lat="48.7285890" lon="14.1052260">
        <ele>776.2</ele>
        <time>2019-08-07T08:44:27Z</time>
      </trkpt>
      <trkpt lat="48.7285060" lon="14.1051590">
        <ele>776.0</ele>
        <time>2019-08-07T08:44:28Z</time>
      </trkpt>
      <trkpt lat="48.7284220" lon="14.1050940">
        <ele>775.6</ele>
        <time>2019-08-07T08:44:29Z</time>
      </trkpt>
      <trkpt lat="48.7283370" lon="14.1050270">
        <ele>775.2</ele>
        <time>2019-08-07T08:44:30Z</time>
      </trkpt>
      <trkpt lat="48.7282520" lon="14.1049590">
        <ele>774.6</ele>
        <time>2019-08-07T08:44:31Z</time>
      </trkpt>
      <trkpt lat="48.7281660" lon="14.1048890">
        <ele>774.2</ele>
        <time>2019-08-07T08:44:32Z</time>
      </trkpt>
      <trkpt lat="48.7280850" lon="14.1048240">
        <ele>773.8</ele>
        <time>2019-08-07T08:44:33Z</time>
      </trkpt>
      <trkpt lat="48.7279920" lon="14.1047490">
        <ele>773.6</ele>
        <time>2019-08-07T08:44:34Z</time>
      </trkpt>
      <trkpt lat="48.7279030" lon="14.1046770">
        <ele>773.0</ele>
        <time>2019-08-07T08:44:35Z</time>
      </trkpt>
      <trkpt lat="48.7278150" lon="14.1046070">
        <ele>772.6</ele>
        <time>2019-08-07T08:44:36Z</time>
      </trkpt>
      <trkpt lat="48.7277270" lon="14.1045370">
        <ele>772.0</ele>
        <time>2019-08-07T08:44:37Z</time>
      </trkpt>
      <trkpt lat="48.7276370" lon="14.1044690">
        <ele>771.8</ele>
        <time>2019-08-07T08:44:38Z</time>
      </trkpt>
      <trkpt lat="48.7275470" lon="14.1044030">
        <ele>771.6</ele>
        <time>2019-08-07T08:44:39Z</time>
      </trkpt>
      <trkpt lat="48.7274560" lon="14.1043410">
        <ele>771.2</ele>
        <time>2019-08-07T08:44:40Z</time>
      </trkpt>
      <trkpt lat="48.7273640" lon="14.1042780">
        <ele>770.8</ele>
        <time>2019-08-07T08:44:41Z</time>
      </trkpt>
      <trkpt lat="48.7272730" lon="14.1042150">
        <ele>770.6</ele>
        <time>2019-08-07T08:44:42Z</time>
      </trkpt>
      <trkpt lat="48.7271830" lon="14.1041530">
        <ele>770.4</ele>
        <time>2019-08-07T08:44:43Z</time>
      </trkpt>
      <trkpt lat="48.7270950" lon="14.1040900">
        <ele>770.2</ele>
        <time>2019-08-07T08:44:44Z</time>
      </trkpt>
      <trkpt lat="48.7270070" lon="14.1040300">
        <ele>770.0</ele>
        <time>2019-08-07T08:44:45Z</time>
      </trkpt>
      <trkpt lat="48.7269200" lon="14.1039700">
        <ele>769.8</ele>
        <time>2019-08-07T08:44:46Z</time>
      </trkpt>
      <trkpt lat="48.7268370" lon="14.1039120">
        <ele>769.4</ele>
        <time>2019-08-07T08:44:47Z</time>
      </trkpt>
      <trkpt lat="48.7267550" lon="14.1038540">
        <ele>769.2</ele>
        <time>2019-08-07T08:44:48Z</time>
      </trkpt>
      <trkpt lat="48.7266730" lon="14.1037940">
        <ele>768.8</ele>
        <time>2019-08-07T08:44:49Z</time>
      </trkpt>
      <trkpt lat="48.7265930" lon="14.1037310">
        <ele>768.6</ele>
        <time>2019-08-07T08:44:50Z</time>
      </trkpt>
      <trkpt lat="48.7265150" lon="14.1036650">
        <ele>768.4</ele>
        <time>2019-08-07T08:44:51Z</time>
      </trkpt>
      <trkpt lat="48.7264450" lon="14.1036000">
        <ele>768.6</ele>
        <time>2019-08-07T08:44:52Z</time>
      </trkpt>
      <trkpt lat="48.7263770" lon="14.1035320">
        <ele>768.8</ele>
        <time>2019-08-07T08:44:53Z</time>
      </trkpt>
      <trkpt lat="48.7263010" lon="14.1034510">
        <ele>769.0</ele>
        <time>2019-08-07T08:44:54Z</time>
      </trkpt>
      <trkpt lat="48.7262320" lon="14.1033750">
        <ele>769.0</ele>
        <time>2019-08-07T08:44:55Z</time>
      </trkpt>
      <trkpt lat="48.7261650" lon="14.1033010">
        <ele>769.0</ele>
        <time>2019-08-07T08:44:56Z</time>
      </trkpt>
      <trkpt lat="48.7260970" lon="14.1032260">
        <ele>768.8</ele>
        <time>2019-08-07T08:44:57Z</time>
      </trkpt>
      <trkpt lat="48.7260270" lon="14.1031520">
        <ele>768.6</ele>
        <time>2019-08-07T08:44:58Z</time>
      </trkpt>
      <trkpt lat="48.7259590" lon="14.1030760">
        <ele>768.4</ele>
        <time>2019-08-07T08:44:59Z</time>
      </trkpt>
      <trkpt lat="48.7258910" lon="14.1029980">
        <ele>768.4</ele>
        <time>2019-08-07T08:45:00Z</time>
      </trkpt>
      <trkpt lat="48.7258230" lon="14.1029200">
        <ele>768.2</ele>
        <time>2019-08-07T08:45:01Z</time>
      </trkpt>
      <trkpt lat="48.7257540" lon="14.1028430">
        <ele>768.0</ele>
        <time>2019-08-07T08:45:02Z</time>
      </trkpt>
      <trkpt lat="48.7256850" lon="14.1027650">
        <ele>767.8</ele>
        <time>2019-08-07T08:45:03Z</time>
      </trkpt>
      <trkpt lat="48.7256180" lon="14.1026840">
        <ele>767.4</ele>
        <time>2019-08-07T08:45:04Z</time>
      </trkpt>
      <trkpt lat="48.7255490" lon="14.1025960">
        <ele>767.0</ele>
        <time>2019-08-07T08:45:05Z</time>
      </trkpt>
      <trkpt lat="48.7254850" lon="14.1025090">
        <ele>767.0</ele>
        <time>2019-08-07T08:45:06Z</time>
      </trkpt>
      <trkpt lat="48.7254220" lon="14.1024180">
        <ele>766.8</ele>
        <time>2019-08-07T08:45:07Z</time>
      </trkpt>
      <trkpt lat="48.7253590" lon="14.1023190">
        <ele>766.6</ele>
        <time>2019-08-07T08:45:08Z</time>
      </trkpt>
      <trkpt lat="48.7253020" lon="14.1022180">
        <ele>766.6</ele>
        <time>2019-08-07T08:45:09Z</time>
      </trkpt>
      <trkpt lat="48.7252490" lon="14.1021150">
        <ele>766.6</ele>
        <time>2019-08-07T08:45:10Z</time>
      </trkpt>
      <trkpt lat="48.7252000" lon="14.1020090">
        <ele>766.6</ele>
        <time>2019-08-07T08:45:11Z</time>
      </trkpt>
      <trkpt lat="48.7251540" lon="14.1019070">
        <ele>766.6</ele>
        <time>2019-08-07T08:45:12Z</time>
      </trkpt>
      <trkpt lat="48.7251110" lon="14.1018100">
        <ele>766.6</ele>
        <time>2019-08-07T08:45:13Z</time>
      </trkpt>
      <trkpt lat="48.7250600" lon="14.1016990">
        <ele>766.4</ele>
        <time>2019-08-07T08:45:14Z</time>
      </trkpt>
      <trkpt lat="48.7250120" lon="14.1016010">
        <ele>766.2</ele>
        <time>2019-08-07T08:45:15Z</time>
      </trkpt>
      <trkpt lat="48.7249630" lon="14.1015020">
        <ele>766.2</ele>
        <time>2019-08-07T08:45:16Z</time>
      </trkpt>
      <trkpt lat="48.7249140" lon="14.1014050">
        <ele>765.8</ele>
        <time>2019-08-07T08:45:17Z</time>
      </trkpt>
      <trkpt lat="48.7248670" lon="14.1013070">
        <ele>765.8</ele>
        <time>2019-08-07T08:45:18Z</time>
      </trkpt>
      <trkpt lat="48.7248250" lon="14.1012100">
        <ele>765.6</ele>
        <time>2019-08-07T08:45:19Z</time>
      </trkpt>
      <trkpt lat="48.7247790" lon="14.1011100">
        <ele>765.8</ele>
        <time>2019-08-07T08:45:20Z</time>
      </trkpt>
      <trkpt lat="48.7247360" lon="14.1010140">
        <ele>766.0</ele>
        <time>2019-08-07T08:45:21Z</time>
      </trkpt>
      <trkpt lat="48.7246920" lon="14.1009150">
        <ele>766.0</ele>
        <time>2019-08-07T08:45:22Z</time>
      </trkpt>
      <trkpt lat="48.7246490" lon="14.1008230">
        <ele>766.0</ele>
        <time>2019-08-07T08:45:23Z</time>
      </trkpt>
      <trkpt lat="48.7246040" lon="14.1007310">
        <ele>766.2</ele>
        <time>2019-08-07T08:45:24Z</time>
      </trkpt>
      <trkpt lat="48.7245620" lon="14.1006400">
        <ele>766.2</ele>
        <time>2019-08-07T08:45:25Z</time>
      </trkpt>
      <trkpt lat="48.7245200" lon="14.1005500">
        <ele>766.2</ele>
        <time>2019-08-07T08:45:26Z</time>
      </trkpt>
      <trkpt lat="48.7244790" lon="14.1004620">
        <ele>766.2</ele>
        <time>2019-08-07T08:45:27Z</time>
      </trkpt>
      <trkpt lat="48.7244390" lon="14.1003790">
        <ele>766.2</ele>
        <time>2019-08-07T08:45:28Z</time>
      </trkpt>
      <trkpt lat="48.7244030" lon="14.1002970">
        <ele>766.4</ele>
        <time>2019-08-07T08:45:29Z</time>
      </trkpt>
      <trkpt lat="48.7243640" lon="14.1002150">
        <ele>766.4</ele>
        <time>2019-08-07T08:45:30Z</time>
      </trkpt>
      <trkpt lat="48.7243280" lon="14.1001320">
        <ele>766.4</ele>
        <time>2019-08-07T08:45:31Z</time>
      </trkpt>
      <trkpt lat="48.7242930" lon="14.1000500">
        <ele>766.4</ele>
        <time>2019-08-07T08:45:32Z</time>
      </trkpt>
      <trkpt lat="48.7242630" lon="14.0999730">
        <ele>766.4</ele>
        <time>2019-08-07T08:45:33Z</time>
      </trkpt>
      <trkpt lat="48.7242270" lon="14.0998820">
        <ele>766.6</ele>
        <time>2019-08-07T08:45:34Z</time>
      </trkpt>
      <trkpt lat="48.7241970" lon="14.0997990">
        <ele>766.8</ele>
        <time>2019-08-07T08:45:35Z</time>
      </trkpt>
      <trkpt lat="48.7241690" lon="14.0997170">
        <ele>767.0</ele>
        <time>2019-08-07T08:45:36Z</time>
      </trkpt>
      <trkpt lat="48.7241420" lon="14.0996360">
        <ele>767.0</ele>
        <time>2019-08-07T08:45:37Z</time>
      </trkpt>
      <trkpt lat="48.7241160" lon="14.0995580">
        <ele>767.2</ele>
        <time>2019-08-07T08:45:38Z</time>
      </trkpt>
      <trkpt lat="48.7240920" lon="14.0994790">
        <ele>767.4</ele>
        <time>2019-08-07T08:45:39Z</time>
      </trkpt>
      <trkpt lat="48.7240710" lon="14.0994010">
        <ele>767.4</ele>
        <time>2019-08-07T08:45:40Z</time>
      </trkpt>
      <trkpt lat="48.7240490" lon="14.0993220">
        <ele>767.6</ele>
        <time>2019-08-07T08:45:41Z</time>
      </trkpt>
      <trkpt lat="48.7240280" lon="14.0992450">
        <ele>767.6</ele>
        <time>2019-08-07T08:45:42Z</time>
      </trkpt>
      <trkpt lat="48.7240080" lon="14.0991710">
        <ele>767.8</ele>
        <time>2019-08-07T08:45:43Z</time>
      </trkpt>
      <trkpt lat="48.7239880" lon="14.0990970">
        <ele>767.8</ele>
        <time>2019-08-07T08:45:44Z</time>
      </trkpt>
      <trkpt lat="48.7239680" lon="14.0990260">
        <ele>768.2</ele>
        <time>2019-08-07T08:45:45Z</time>
      </trkpt>
      <trkpt lat="48.7239460" lon="14.0989560">
        <ele>768.4</ele>
        <time>2019-08-07T08:45:46Z</time>
      </trkpt>
      <trkpt lat="48.7239250" lon="14.0988900">
        <ele>768.6</ele>
        <time>2019-08-07T08:45:47Z</time>
      </trkpt>
      <trkpt lat="48.7239030" lon="14.0988230">
        <ele>768.8</ele>
        <time>2019-08-07T08:45:48Z</time>
      </trkpt>
      <trkpt lat="48.7238830" lon="14.0987580">
        <ele>769.0</ele>
        <time>2019-08-07T08:45:49Z</time>
      </trkpt>
      <trkpt lat="48.7238630" lon="14.0986950">
        <ele>769.4</ele>
        <time>2019-08-07T08:45:50Z</time>
      </trkpt>
      <trkpt lat="48.7238430" lon="14.0986340">
        <ele>769.6</ele>
        <time>2019-08-07T08:45:51Z</time>
      </trkpt>
      <trkpt lat="48.7238250" lon="14.0985740">
        <ele>770.0</ele>
        <time>2019-08-07T08:45:52Z</time>
      </trkpt>
      <trkpt lat="48.7238070" lon="14.0985240">
        <ele>770.0</ele>
        <time>2019-08-07T08:45:53Z</time>
      </trkpt>
      <trkpt lat="48.7237820" lon="14.0984640">
        <ele>770.2</ele>
        <time>2019-08-07T08:45:54Z</time>
      </trkpt>
      <trkpt lat="48.7237590" lon="14.0984160">
        <ele>770.4</ele>
        <time>2019-08-07T08:45:55Z</time>
      </trkpt>
      <trkpt lat="48.7237360" lon="14.0983650">
        <ele>770.6</ele>
        <time>2019-08-07T08:45:56Z</time>
      </trkpt>
      <trkpt lat="48.7237120" lon="14.0983140">
        <ele>771.0</ele>
        <time>2019-08-07T08:45:57Z</time>
      </trkpt>
      <trkpt lat="48.7236880" lon="14.0982650">
        <ele>771.2</ele>
        <time>2019-08-07T08:45:58Z</time>
      </trkpt>
      <trkpt lat="48.7236640" lon="14.0982170">
        <ele>771.4</ele>
        <time>2019-08-07T08:45:59Z</time>
      </trkpt>
      <trkpt lat="48.7236390" lon="14.0981680">
        <ele>771.6</ele>
        <time>2019-08-07T08:46:00Z</time>
      </trkpt>
      <trkpt lat="48.7236150" lon="14.0981200">
        <ele>771.8</ele>
        <time>2019-08-07T08:46:01Z</time>
      </trkpt>
      <trkpt lat="48.7235900" lon="14.0980750">
        <ele>772.0</ele>
        <time>2019-08-07T08:46:02Z</time>
      </trkpt>
      <trkpt lat="48.7235640" lon="14.0980300">
        <ele>772.2</ele>
        <time>2019-08-07T08:46:03Z</time>
      </trkpt>
      <trkpt lat="48.7235370" lon="14.0979840">
        <ele>772.4</ele>
        <time>2019-08-07T08:46:04Z</time>
      </trkpt>
      <trkpt lat="48.7235080" lon="14.0979380">
        <ele>772.4</ele>
        <time>2019-08-07T08:46:05Z</time>
      </trkpt>
      <trkpt lat="48.7234800" lon="14.0978910">
        <ele>772.6</ele>
        <time>2019-08-07T08:46:06Z</time>
      </trkpt>
      <trkpt lat="48.7234530" lon="14.0978430">
        <ele>772.6</ele>
        <time>2019-08-07T08:46:07Z</time>
      </trkpt>
      <trkpt lat="48.7234250" lon="14.0977940">
        <ele>772.6</ele>
        <time>2019-08-07T08:46:08Z</time>
      </trkpt>
      <trkpt lat="48.7233950" lon="14.0977420">
        <ele>772.8</ele>
        <time>2019-08-07T08:46:09Z</time>
      </trkpt>
      <trkpt lat="48.7233650" lon="14.0976900">
        <ele>772.8</ele>
        <time>2019-08-07T08:46:10Z</time>
      </trkpt>
      <trkpt lat="48.7233310" lon="14.0976370">
        <ele>772.6</ele>
        <time>2019-08-07T08:46:11Z</time>
      </trkpt>
      <trkpt lat="48.7232980" lon="14.0975810">
        <ele>772.6</ele>
        <time>2019-08-07T08:46:12Z</time>
      </trkpt>
      <trkpt lat="48.7232660" lon="14.0975300">
        <ele>772.4</ele>
        <time>2019-08-07T08:46:13Z</time>
      </trkpt>
      <trkpt lat="48.7232250" lon="14.0974640">
        <ele>772.2</ele>
        <time>2019-08-07T08:46:14Z</time>
      </trkpt>
      <trkpt lat="48.7231860" lon="14.0974000">
        <ele>772.0</ele>
        <time>2019-08-07T08:46:15Z</time>
      </trkpt>
      <trkpt lat="48.7231490" lon="14.0973390">
        <ele>771.8</ele>
        <time>2019-08-07T08:46:16Z</time>
      </trkpt>
      <trkpt lat="48.7231050" lon="14.0972730">
        <ele>771.6</ele>
        <time>2019-08-07T08:46:17Z</time>
      </trkpt>
      <trkpt lat="48.7230600" lon="14.0972120">
        <ele>771.6</ele>
        <time>2019-08-07T08:46:18Z</time>
      </trkpt>
      <trkpt lat="48.7230130" lon="14.0971520">
        <ele>771.6</ele>
        <time>2019-08-07T08:46:19Z</time>
      </trkpt>
      <trkpt lat="48.7229630" lon="14.0970920">
        <ele>771.4</ele>
        <time>2019-08-07T08:46:20Z</time>
      </trkpt>
      <trkpt lat="48.7229090" lon="14.0970360">
        <ele>771.6</ele>
        <time>2019-08-07T08:46:21Z</time>
      </trkpt>
      <trkpt lat="48.7228530" lon="14.0969820">
        <ele>771.4</ele>
        <time>2019-08-07T08:46:22Z</time>
      </trkpt>
      <trkpt lat="48.7227950" lon="14.0969330">
        <ele>771.2</ele>
        <time>2019-08-07T08:46:23Z</time>
      </trkpt>
      <trkpt lat="48.7227370" lon="14.0968850">
        <ele>771.0</ele>
        <time>2019-08-07T08:46:24Z</time>
      </trkpt>
      <trkpt lat="48.7226750" lon="14.0968370">
        <ele>770.8</ele>
        <time>2019-08-07T08:46:25Z</time>
      </trkpt>
      <trkpt lat="48.7226140" lon="14.0967930">
        <ele>770.6</ele>
        <time>2019-08-07T08:46:26Z</time>
      </trkpt>
      <trkpt lat="48.7225500" lon="14.0967510">
        <ele>770.4</ele>
        <time>2019-08-07T08:46:27Z</time>
      </trkpt>
      <trkpt lat="48.7224840" lon="14.0967150">
        <ele>770.0</ele>
        <time>2019-08-07T08:46:28Z</time>
      </trkpt>
      <trkpt lat="48.7224150" lon="14.0966840">
        <ele>769.8</ele>
        <time>2019-08-07T08:46:29Z</time>
      </trkpt>
      <trkpt lat="48.7223430" lon="14.0966640">
        <ele>769.6</ele>
        <time>2019-08-07T08:46:30Z</time>
      </trkpt>
      <trkpt lat="48.7222680" lon="14.0966550">
        <ele>769.4</ele>
        <time>2019-08-07T08:46:31Z</time>
      </trkpt>
      <trkpt lat="48.7221920" lon="14.0966580">
        <ele>769.0</ele>
        <time>2019-08-07T08:46:32Z</time>
      </trkpt>
      <trkpt lat="48.7221200" lon="14.0966650">
        <ele>768.6</ele>
        <time>2019-08-07T08:46:33Z</time>
      </trkpt>
      <trkpt lat="48.7220270" lon="14.0966860">
        <ele>768.4</ele>
        <time>2019-08-07T08:46:34Z</time>
      </trkpt>
      <trkpt lat="48.7219420" lon="14.0967090">
        <ele>768.0</ele>
        <time>2019-08-07T08:46:35Z</time>
      </trkpt>
      <trkpt lat="48.7218570" lon="14.0967340">
        <ele>767.6</ele>
        <time>2019-08-07T08:46:36Z</time>
      </trkpt>
      <trkpt lat="48.7217700" lon="14.0967530">
        <ele>767.4</ele>
        <time>2019-08-07T08:46:37Z</time>
      </trkpt>
      <trkpt lat="48.7216810" lon="14.0967630">
        <ele>767.2</ele>
        <time>2019-08-07T08:46:38Z</time>
      </trkpt>
      <trkpt lat="48.7215940" lon="14.0967620">
        <ele>767.0</ele>
        <time>2019-08-07T08:46:39Z</time>
      </trkpt>
      <trkpt lat="48.7215090" lon="14.0967530">
        <ele>766.8</ele>
        <time>2019-08-07T08:46:40Z</time>
      </trkpt>
      <trkpt lat="48.7214270" lon="14.0967380">
        <ele>766.6</ele>
        <time>2019-08-07T08:46:41Z</time>
      </trkpt>
      <trkpt lat="48.7213380" lon="14.0967150">
        <ele>766.4</ele>
        <time>2019-08-07T08:46:42Z</time>
      </trkpt>
      <trkpt lat="48.7212540" lon="14.0966810">
        <ele>766.0</ele>
        <time>2019-08-07T08:46:43Z</time>
      </trkpt>
      <trkpt lat="48.7211710" lon="14.0966340">
        <ele>765.8</ele>
        <time>2019-08-07T08:46:44Z</time>
      </trkpt>
      <trkpt lat="48.7210930" lon="14.0965820">
        <ele>765.8</ele>
        <time>2019-08-07T08:46:45Z</time>
      </trkpt>
      <trkpt lat="48.7210170" lon="14.0965230">
        <ele>765.6</ele>
        <time>2019-08-07T08:46:46Z</time>
      </trkpt>
      <trkpt lat="48.7209440" lon="14.0964580">
        <ele>765.4</ele>
        <time>2019-08-07T08:46:47Z</time>
      </trkpt>
      <trkpt lat="48.7208700" lon="14.0963950">
        <ele>765.2</ele>
        <time>2019-08-07T08:46:48Z</time>
      </trkpt>
      <trkpt lat="48.7207990" lon="14.0963330">
        <ele>765.2</ele>
        <time>2019-08-07T08:46:49Z</time>
      </trkpt>
      <trkpt lat="48.7207290" lon="14.0962660">
        <ele>765.0</ele>
        <time>2019-08-07T08:46:50Z</time>
      </trkpt>
      <trkpt lat="48.7206610" lon="14.0962010">
        <ele>764.8</ele>
        <time>2019-08-07T08:46:51Z</time>
      </trkpt>
      <trkpt lat="48.7205930" lon="14.0961350">
        <ele>764.8</ele>
        <time>2019-08-07T08:46:52Z</time>
      </trkpt>
      <trkpt lat="48.7205290" lon="14.0960780">
        <ele>764.6</ele>
        <time>2019-08-07T08:46:53Z</time>
      </trkpt>
      <trkpt lat="48.7204450" lon="14.0960140">
        <ele>764.4</ele>
        <time>2019-08-07T08:46:54Z</time>
      </trkpt>
      <trkpt lat="48.7203680" lon="14.0959590">
        <ele>764.4</ele>
        <time>2019-08-07T08:46:55Z</time>
      </trkpt>
      <trkpt lat="48.7202870" lon="14.0959060">
        <ele>764.6</ele>
        <time>2019-08-07T08:46:56Z</time>
      </trkpt>
      <trkpt lat="48.7202060" lon="14.0958570">
        <ele>764.6</ele>
        <time>2019-08-07T08:46:57Z</time>
      </trkpt>
      <trkpt lat="48.7201220" lon="14.0958140">
        <ele>764.6</ele>
        <time>2019-08-07T08:46:58Z</time>
      </trkpt>
      <trkpt lat="48.7200370" lon="14.0957760">
        <ele>764.2</ele>
        <time>2019-08-07T08:46:59Z</time>
      </trkpt>
      <trkpt lat="48.7199500" lon="14.0957460">
        <ele>763.8</ele>
        <time>2019-08-07T08:47:00Z</time>
      </trkpt>
      <trkpt lat="48.7198610" lon="14.0957230">
        <ele>763.4</ele>
        <time>2019-08-07T08:47:01Z</time>
      </trkpt>
      <trkpt lat="48.7197710" lon="14.0957070">
        <ele>763.0</ele>
        <time>2019-08-07T08:47:02Z</time>
      </trkpt>
      <trkpt lat="48.7196820" lon="14.0956960">
        <ele>762.6</ele>
        <time>2019-08-07T08:47:03Z</time>
      </trkpt>
      <trkpt lat="48.7195950" lon="14.0956920">
        <ele>762.4</ele>
        <time>2019-08-07T08:47:04Z</time>
      </trkpt>
      <trkpt lat="48.7194950" lon="14.0956900">
        <ele>762.0</ele>
        <time>2019-08-07T08:47:05Z</time>
      </trkpt>
      <trkpt lat="48.7194020" lon="14.0956860">
        <ele>761.4</ele>
        <time>2019-08-07T08:47:06Z</time>
      </trkpt>
      <trkpt lat="48.7193080" lon="14.0956830">
        <ele>761.0</ele>
        <time>2019-08-07T08:47:07Z</time>
      </trkpt>
      <trkpt lat="48.7192190" lon="14.0956760">
        <ele>760.6</ele>
        <time>2019-08-07T08:47:08Z</time>
      </trkpt>
      <trkpt lat="48.7191180" lon="14.0956700">
        <ele>760.2</ele>
        <time>2019-08-07T08:47:09Z</time>
      </trkpt>
      <trkpt lat="48.7190210" lon="14.0956630">
        <ele>759.8</ele>
        <time>2019-08-07T08:47:10Z</time>
      </trkpt>
      <trkpt lat="48.7189250" lon="14.0956600">
        <ele>759.6</ele>
        <time>2019-08-07T08:47:11Z</time>
      </trkpt>
      <trkpt lat="48.7188230" lon="14.0956540">
        <ele>759.2</ele>
        <time>2019-08-07T08:47:12Z</time>
      </trkpt>
      <trkpt lat="48.7187330" lon="14.0956470">
        <ele>758.8</ele>
        <time>2019-08-07T08:47:13Z</time>
      </trkpt>
      <trkpt lat="48.7186230" lon="14.0956340">
        <ele>758.4</ele>
        <time>2019-08-07T08:47:14Z</time>
      </trkpt>
      <trkpt lat="48.7185240" lon="14.0956180">
        <ele>758.0</ele>
        <time>2019-08-07T08:47:15Z</time>
      </trkpt>
      <trkpt lat="48.7184230" lon="14.0955990">
        <ele>757.6</ele>
        <time>2019-08-07T08:47:16Z</time>
      </trkpt>
      <trkpt lat="48.7183230" lon="14.0955710">
        <ele>757.4</ele>
        <time>2019-08-07T08:47:17Z</time>
      </trkpt>
      <trkpt lat="48.7182260" lon="14.0955290">
        <ele>757.0</ele>
        <time>2019-08-07T08:47:18Z</time>
      </trkpt>
      <trkpt lat="48.7181320" lon="14.0954820">
        <ele>756.8</ele>
        <time>2019-08-07T08:47:19Z</time>
      </trkpt>
      <trkpt lat="48.7180320" lon="14.0954320">
        <ele>756.4</ele>
        <time>2019-08-07T08:47:20Z</time>
      </trkpt>
      <trkpt lat="48.7179350" lon="14.0953860">
        <ele>756.0</ele>
        <time>2019-08-07T08:47:21Z</time>
      </trkpt>
      <trkpt lat="48.7178360" lon="14.0953380">
        <ele>755.6</ele>
        <time>2019-08-07T08:47:22Z</time>
      </trkpt>
      <trkpt lat="48.7177340" lon="14.0952880">
        <ele>755.0</ele>
        <time>2019-08-07T08:47:23Z</time>
      </trkpt>
      <trkpt lat="48.7176360" lon="14.0952400">
        <ele>754.8</ele>
        <time>2019-08-07T08:47:24Z</time>
      </trkpt>
      <trkpt lat="48.7175340" lon="14.0951910">
        <ele>754.4</ele>
        <time>2019-08-07T08:47:25Z</time>
      </trkpt>
      <trkpt lat="48.7174350" lon="14.0951430">
        <ele>753.8</ele>
        <time>2019-08-07T08:47:26Z</time>
      </trkpt>
      <trkpt lat="48.7173340" lon="14.0950930">
        <ele>753.2</ele>
        <time>2019-08-07T08:47:27Z</time>
      </trkpt>
      <trkpt lat="48.7172310" lon="14.0950440">
        <ele>752.6</ele>
        <time>2019-08-07T08:47:28Z</time>
      </trkpt>
      <trkpt lat="48.7171310" lon="14.0949940">
        <ele>752.2</ele>
        <time>2019-08-07T08:47:29Z</time>
      </trkpt>
      <trkpt lat="48.7170320" lon="14.0949450">
        <ele>751.8</ele>
        <time>2019-08-07T08:47:30Z</time>
      </trkpt>
      <trkpt lat="48.7169280" lon="14.0948970">
        <ele>751.2</ele>
        <time>2019-08-07T08:47:31Z</time>
      </trkpt>
      <trkpt lat="48.7168290" lon="14.0948550">
        <ele>750.4</ele>
        <time>2019-08-07T08:47:32Z</time>
      </trkpt>
      <trkpt lat="48.7167410" lon="14.0948180">
        <ele>749.8</ele>
        <time>2019-08-07T08:47:33Z</time>
      </trkpt>
      <trkpt lat="48.7166210" lon="14.0947640">
        <ele>749.2</ele>
        <time>2019-08-07T08:47:34Z</time>
      </trkpt>
      <trkpt lat="48.7165200" lon="14.0947160">
        <ele>748.8</ele>
        <time>2019-08-07T08:47:35Z</time>
      </trkpt>
      <trkpt lat="48.7164200" lon="14.0946670">
        <ele>748.4</ele>
        <time>2019-08-07T08:47:36Z</time>
      </trkpt>
      <trkpt lat="48.7163170" lon="14.0946170">
        <ele>748.0</ele>
        <time>2019-08-07T08:47:37Z</time>
      </trkpt>
      <trkpt lat="48.7162180" lon="14.0945690">
        <ele>747.6</ele>
        <time>2019-08-07T08:47:38Z</time>
      </trkpt>
      <trkpt lat="48.7161230" lon="14.0945240">
        <ele>747.2</ele>
        <time>2019-08-07T08:47:39Z</time>
      </trkpt>
      <trkpt lat="48.7160240" lon="14.0944750">
        <ele>747.0</ele>
        <time>2019-08-07T08:47:40Z</time>
      </trkpt>
      <trkpt lat="48.7159280" lon="14.0944290">
        <ele>746.6</ele>
        <time>2019-08-07T08:47:41Z</time>
      </trkpt>
      <trkpt lat="48.7158290" lon="14.0943840">
        <ele>746.2</ele>
        <time>2019-08-07T08:47:42Z</time>
      </trkpt>
      <trkpt lat="48.7157300" lon="14.0943350">
        <ele>745.8</ele>
        <time>2019-08-07T08:47:43Z</time>
      </trkpt>
      <trkpt lat="48.7156320" lon="14.0942860">
        <ele>745.6</ele>
        <time>2019-08-07T08:47:44Z</time>
      </trkpt>
      <trkpt lat="48.7155360" lon="14.0942420">
        <ele>745.2</ele>
        <time>2019-08-07T08:47:45Z</time>
      </trkpt>
      <trkpt lat="48.7154350" lon="14.0941960">
        <ele>745.0</ele>
        <time>2019-08-07T08:47:46Z</time>
      </trkpt>
      <trkpt lat="48.7153360" lon="14.0941470">
        <ele>744.6</ele>
        <time>2019-08-07T08:47:47Z</time>
      </trkpt>
      <trkpt lat="48.7152390" lon="14.0940980">
        <ele>744.4</ele>
        <time>2019-08-07T08:47:48Z</time>
      </trkpt>
      <trkpt lat="48.7151400" lon="14.0940490">
        <ele>744.0</ele>
        <time>2019-08-07T08:47:49Z</time>
      </trkpt>
      <trkpt lat="48.7150410" lon="14.0940000">
        <ele>743.8</ele>
        <time>2019-08-07T08:47:50Z</time>
      </trkpt>
      <trkpt lat="48.7149390" lon="14.0939530">
        <ele>743.4</ele>
        <time>2019-08-07T08:47:51Z</time>
      </trkpt>
      <trkpt lat="48.7148370" lon="14.0939020">
        <ele>743.2</ele>
        <time>2019-08-07T08:47:52Z</time>
      </trkpt>
      <trkpt lat="48.7147360" lon="14.0938520">
        <ele>742.8</ele>
        <time>2019-08-07T08:47:53Z</time>
      </trkpt>
      <trkpt lat="48.7146370" lon="14.0938030">
        <ele>742.6</ele>
        <time>2019-08-07T08:47:54Z</time>
      </trkpt>
      <trkpt lat="48.7145370" lon="14.0937560">
        <ele>742.4</ele>
        <time>2019-08-07T08:47:55Z</time>
      </trkpt>
      <trkpt lat="48.7144400" lon="14.0937110">
        <ele>742.4</ele>
        <time>2019-08-07T08:47:56Z</time>
      </trkpt>
      <trkpt lat="48.7143450" lon="14.0936690">
        <ele>742.2</ele>
        <time>2019-08-07T08:47:57Z</time>
      </trkpt>
      <trkpt lat="48.7142450" lon="14.0936250">
        <ele>742.2</ele>
        <time>2019-08-07T08:47:58Z</time>
      </trkpt>
      <trkpt lat="48.7141550" lon="14.0935790">
        <ele>742.0</ele>
        <time>2019-08-07T08:47:59Z</time>
      </trkpt>
      <trkpt lat="48.7140610" lon="14.0935290">
        <ele>741.8</ele>
        <time>2019-08-07T08:48:00Z</time>
      </trkpt>
      <trkpt lat="48.7139710" lon="14.0934820">
        <ele>741.6</ele>
        <time>2019-08-07T08:48:01Z</time>
      </trkpt>
      <trkpt lat="48.7138790" lon="14.0934360">
        <ele>741.4</ele>
        <time>2019-08-07T08:48:02Z</time>
      </trkpt>
      <trkpt lat="48.7137950" lon="14.0933930">
        <ele>741.2</ele>
        <time>2019-08-07T08:48:03Z</time>
      </trkpt>
      <trkpt lat="48.7137050" lon="14.0933490">
        <ele>741.4</ele>
        <time>2019-08-07T08:48:04Z</time>
      </trkpt>
      <trkpt lat="48.7136200" lon="14.0933070">
        <ele>741.4</ele>
        <time>2019-08-07T08:48:05Z</time>
      </trkpt>
      <trkpt lat="48.7135360" lon="14.0932670">
        <ele>741.2</ele>
        <time>2019-08-07T08:48:06Z</time>
      </trkpt>
      <trkpt lat="48.7134520" lon="14.0932240">
        <ele>741.0</ele>
        <time>2019-08-07T08:48:07Z</time>
      </trkpt>
      <trkpt lat="48.7133690" lon="14.0931840">
        <ele>741.0</ele>
        <time>2019-08-07T08:48:08Z</time>
      </trkpt>
      <trkpt lat="48.7132890" lon="14.0931420">
        <ele>741.0</ele>
        <time>2019-08-07T08:48:09Z</time>
      </trkpt>
      <trkpt lat="48.7132110" lon="14.0931060">
        <ele>741.0</ele>
        <time>2019-08-07T08:48:10Z</time>
      </trkpt>
      <trkpt lat="48.7131350" lon="14.0930690">
        <ele>741.0</ele>
        <time>2019-08-07T08:48:11Z</time>
      </trkpt>
      <trkpt lat="48.7130610" lon="14.0930340">
        <ele>741.0</ele>
        <time>2019-08-07T08:48:12Z</time>
      </trkpt>
      <trkpt lat="48.7129870" lon="14.0929960">
        <ele>741.0</ele>
        <time>2019-08-07T08:48:13Z</time>
      </trkpt>
      <trkpt lat="48.7129140" lon="14.0929610">
        <ele>741.2</ele>
        <time>2019-08-07T08:48:14Z</time>
      </trkpt>
      <trkpt lat="48.7128490" lon="14.0929300">
        <ele>741.2</ele>
        <time>2019-08-07T08:48:15Z</time>
      </trkpt>
      <trkpt lat="48.7127830" lon="14.0929030">
        <ele>741.4</ele>
        <time>2019-08-07T08:48:16Z</time>
      </trkpt>
      <trkpt lat="48.7127210" lon="14.0928780">
        <ele>741.6</ele>
        <time>2019-08-07T08:48:17Z</time>
      </trkpt>
      <trkpt lat="48.7126650" lon="14.0928560">
        <ele>741.8</ele>
        <time>2019-08-07T08:48:18Z</time>
      </trkpt>
      <trkpt lat="48.7126090" lon="14.0928360">
        <ele>742.0</ele>
        <time>2019-08-07T08:48:19Z</time>
      </trkpt>
      <trkpt lat="48.7125580" lon="14.0928120">
        <ele>742.4</ele>
        <time>2019-08-07T08:48:20Z</time>
      </trkpt>
      <trkpt lat="48.7125110" lon="14.0927920">
        <ele>742.6</ele>
        <time>2019-08-07T08:48:21Z</time>
      </trkpt>
      <trkpt lat="48.7124720" lon="14.0927790">
        <ele>743.0</ele>
        <time>2019-08-07T08:48:22Z</time>
      </trkpt>
      <trkpt lat="48.7124360" lon="14.0927690">
        <ele>743.2</ele>
        <time>2019-08-07T08:48:23Z</time>
      </trkpt>
      <trkpt lat="48.7124020" lon="14.0927550">
        <ele>743.6</ele>
        <time>2019-08-07T08:48:24Z</time>
      </trkpt>
      <trkpt lat="48.7123670" lon="14.0927370">
        <ele>743.8</ele>
        <time>2019-08-07T08:48:25Z</time>
      </trkpt>
      <trkpt lat="48.7123380" lon="14.0927210">
        <ele>744.2</ele>
        <time>2019-08-07T08:48:26Z</time>
      </trkpt>
      <trkpt lat="48.7123110" lon="14.0927050">
        <ele>744.4</ele>
        <time>2019-08-07T08:48:27Z</time>
      </trkpt>
      <trkpt lat="48.7122810" lon="14.0926890">
        <ele>744.8</ele>
        <time>2019-08-07T08:48:28Z</time>
      </trkpt>
      <trkpt lat="48.7122560" lon="14.0926760">
        <ele>745.0</ele>
        <time>2019-08-07T08:48:29Z</time>
      </trkpt>
      <trkpt lat="48.7122340" lon="14.0926660">
        <ele>745.2</ele>
        <time>2019-08-07T08:48:30Z</time>
      </trkpt>
      <trkpt lat="48.7122080" lon="14.0926510">
        <ele>745.6</ele>
        <time>2019-08-07T08:48:31Z</time>
      </trkpt>
      <trkpt lat="48.7121850" lon="14.0926330">
        <ele>745.8</ele>
        <time>2019-08-07T08:48:32Z</time>
      </trkpt>
      <trkpt lat="48.7121620" lon="14.0926210">
        <ele>746.0</ele>
        <time>2019-08-07T08:48:33Z</time>
      </trkpt>
      <trkpt lat="48.7121350" lon="14.0926080">
        <ele>746.4</ele>
        <time>2019-08-07T08:48:34Z</time>
      </trkpt>
      <trkpt lat="48.7121050" lon="14.0925960">
        <ele>746.6</ele>
        <time>2019-08-07T08:48:35Z</time>
      </trkpt>
      <trkpt lat="48.7120820" lon="14.0925820">
        <ele>746.8</ele>
        <time>2019-08-07T08:48:36Z</time>
      </trkpt>
      <trkpt lat="48.7120600" lon="14.0925690">
        <ele>747.0</ele>
        <time>2019-08-07T08:48:37Z</time>
      </trkpt>
      <trkpt lat="48.7120370" lon="14.0925560">
        <ele>747.4</ele>
        <time>2019-08-07T08:48:38Z</time>
      </trkpt>
      <trkpt lat="48.7120140" lon="14.0925420">
        <ele>747.6</ele>
        <time>2019-08-07T08:48:39Z</time>
      </trkpt>
      <trkpt lat="48.7119920" lon="14.0925240">
        <ele>747.8</ele>
        <time>2019-08-07T08:48:40Z</time>
      </trkpt>
      <trkpt lat="48.7119720" lon="14.0925110">
        <ele>748.0</ele>
        <time>2019-08-07T08:48:41Z</time>
      </trkpt>
      <trkpt lat="48.7119530" lon="14.0925020">
        <ele>748.4</ele>
        <time>2019-08-07T08:48:42Z</time>
      </trkpt>
      <trkpt lat="48.7119300" lon="14.0924870">
        <ele>748.6</ele>
        <time>2019-08-07T08:48:43Z</time>
      </trkpt>
      <trkpt lat="48.7119090" lon="14.0924760">
        <ele>748.8</ele>
        <time>2019-08-07T08:48:44Z</time>
      </trkpt>
      <trkpt lat="48.7118890" lon="14.0924710">
        <ele>749.2</ele>
        <time>2019-08-07T08:48:45Z</time>
      </trkpt>
      <trkpt lat="48.7118680" lon="14.0924610">
        <ele>749.4</ele>
        <time>2019-08-07T08:48:46Z</time>
      </trkpt>
      <trkpt lat="48.7118480" lon="14.0924520">
        <ele>749.8</ele>
        <time>2019-08-07T08:48:47Z</time>
      </trkpt>
      <trkpt lat="48.7118290" lon="14.0924420">
        <ele>750.0</ele>
        <time>2019-08-07T08:48:48Z</time>
      </trkpt>
      <trkpt lat="48.7118150" lon="14.0924290">
        <ele>750.2</ele>
        <time>2019-08-07T08:48:49Z</time>
      </trkpt>
      <trkpt lat="48.7117940" lon="14.0924210">
        <ele>750.6</ele>
        <time>2019-08-07T08:48:50Z</time>
      </trkpt>
      <trkpt lat="48.7117680" lon="14.0924080">
        <ele>750.8</ele>
        <time>2019-08-07T08:48:51Z</time>
      </trkpt>
      <trkpt lat="48.7117420" lon="14.0923950">
        <ele>751.0</ele>
        <time>2019-08-07T08:48:52Z</time>
      </trkpt>
      <trkpt lat="48.7117190" lon="14.0923850">
        <ele>751.4</ele>
        <time>2019-08-07T08:48:53Z</time>
      </trkpt>
      <trkpt lat="48.7116930" lon="14.0923690">
        <ele>751.6</ele>
        <time>2019-08-07T08:48:54Z</time>
      </trkpt>
      <trkpt lat="48.7116670" lon="14.0923530">
        <ele>751.8</ele>
        <time>2019-08-07T08:48:55Z</time>
      </trkpt>
      <trkpt lat="48.7116450" lon="14.0923390">
        <ele>752.2</ele>
        <time>2019-08-07T08:48:56Z</time>
      </trkpt>
      <trkpt lat="48.7116230" lon="14.0923260">
        <ele>752.4</ele>
        <time>2019-08-07T08:48:57Z</time>
      </trkpt>
      <trkpt lat="48.7116020" lon="14.0923190">
        <ele>752.6</ele>
        <time>2019-08-07T08:48:58Z</time>
      </trkpt>
      <trkpt lat="48.7115800" lon="14.0923120">
        <ele>752.8</ele>
        <time>2019-08-07T08:48:59Z</time>
      </trkpt>
      <trkpt lat="48.7115590" lon="14.0923030">
        <ele>753.2</ele>
        <time>2019-08-07T08:49:00Z</time>
      </trkpt>
      <trkpt lat="48.7115340" lon="14.0922890">
        <ele>753.4</ele>
        <time>2019-08-07T08:49:01Z</time>
      </trkpt>
      <trkpt lat="48.7115110" lon="14.0922820">
        <ele>753.6</ele>
        <time>2019-08-07T08:49:02Z</time>
      </trkpt>
      <trkpt lat="48.7114870" lon="14.0922710">
        <ele>754.0</ele>
        <time>2019-08-07T08:49:03Z</time>
      </trkpt>
      <trkpt lat="48.7114650" lon="14.0922640">
        <ele>754.2</ele>
        <time>2019-08-07T08:49:04Z</time>
      </trkpt>
      <trkpt lat="48.7114330" lon="14.0922510">
        <ele>754.4</ele>
        <time>2019-08-07T08:49:05Z</time>
      </trkpt>
      <trkpt lat="48.7114130" lon="14.0922490">
        <ele>754.6</ele>
        <time>2019-08-07T08:49:06Z</time>
      </trkpt>
      <trkpt lat="48.7113930" lon="14.0922460">
        <ele>755.0</ele>
        <time>2019-08-07T08:49:07Z</time>
      </trkpt>
      <trkpt lat="48.7113730" lon="14.0922400">
        <ele>755.2</ele>
        <time>2019-08-07T08:49:08Z</time>
      </trkpt>
      <trkpt lat="48.7113430" lon="14.0922260">
        <ele>755.4</ele>
        <time>2019-08-07T08:49:09Z</time>
      </trkpt>
      <trkpt lat="48.7113130" lon="14.0922100">
        <ele>755.8</ele>
        <time>2019-08-07T08:49:10Z</time>
      </trkpt>
      <trkpt lat="48.7112850" lon="14.0921830">
        <ele>756.0</ele>
        <time>2019-08-07T08:49:11Z</time>
      </trkpt>
      <trkpt lat="48.7112570" lon="14.0921680">
        <ele>756.2</ele>
        <time>2019-08-07T08:49:12Z</time>
      </trkpt>
      <trkpt lat="48.7112330" lon="14.0921610">
        <ele>756.6</ele>
        <time>2019-08-07T08:49:13Z</time>
      </trkpt>
      <trkpt lat="48.7112090" lon="14.0921550">
        <ele>756.8</ele>
        <time>2019-08-07T08:49:14Z</time>
      </trkpt>
      <trkpt lat="48.7111870" lon="14.0921590">
        <ele>757.0</ele>
        <time>2019-08-07T08:49:15Z</time>
      </trkpt>
      <trkpt lat="48.7111650" lon="14.0921630">
        <ele>757.4</ele>
        <time>2019-08-07T08:49:16Z</time>
      </trkpt>
      <trkpt lat="48.7111460" lon="14.0921700">
        <ele>757.6</ele>
        <time>2019-08-07T08:49:17Z</time>
      </trkpt>
      <trkpt lat="48.7111150" lon="14.0921670">
        <ele>757.8</ele>
        <time>2019-08-07T08:49:18Z</time>
      </trkpt>
      <trkpt lat="48.7110840" lon="14.0921650">
        <ele>758.0</ele>
        <time>2019-08-07T08:49:19Z</time>
      </trkpt>
      <trkpt lat="48.7110570" lon="14.0921650">
        <ele>758.4</ele>
        <time>2019-08-07T08:49:20Z</time>
      </trkpt>
      <trkpt lat="48.7110290" lon="14.0921490">
        <ele>758.6</ele>
        <time>2019-08-07T08:49:21Z</time>
      </trkpt>
      <trkpt lat="48.7109980" lon="14.0921440">
        <ele>758.8</ele>
        <time>2019-08-07T08:49:22Z</time>
      </trkpt>
      <trkpt lat="48.7109650" lon="14.0921330">
        <ele>759.0</ele>
        <time>2019-08-07T08:49:23Z</time>
      </trkpt>
      <trkpt lat="48.7109340" lon="14.0921260">
        <ele>759.2</ele>
        <time>2019-08-07T08:49:24Z</time>
      </trkpt>
      <trkpt lat="48.7109040" lon="14.0921200">
        <ele>759.4</ele>
        <time>2019-08-07T08:49:25Z</time>
      </trkpt>
      <trkpt lat="48.7108770" lon="14.0921200">
        <ele>759.6</ele>
        <time>2019-08-07T08:49:26Z</time>
      </trkpt>
      <trkpt lat="48.7108480" lon="14.0921240">
        <ele>760.0</ele>
        <time>2019-08-07T08:49:27Z</time>
      </trkpt>
      <trkpt lat="48.7108200" lon="14.0921270">
        <ele>760.2</ele>
        <time>2019-08-07T08:49:28Z</time>
      </trkpt>
      <trkpt lat="48.7107880" lon="14.0921260">
        <ele>760.2</ele>
        <time>2019-08-07T08:49:29Z</time>
      </trkpt>
      <trkpt lat="48.7107570" lon="14.0921250">
        <ele>760.4</ele>
        <time>2019-08-07T08:49:30Z</time>
      </trkpt>
      <trkpt lat="48.7107270" lon="14.0921210">
        <ele>760.6</ele>
        <time>2019-08-07T08:49:31Z</time>
      </trkpt>
      <trkpt lat="48.7106970" lon="14.0921200">
        <ele>760.8</ele>
        <time>2019-08-07T08:49:32Z</time>
      </trkpt>
      <trkpt lat="48.7106680" lon="14.0921200">
        <ele>760.8</ele>
        <time>2019-08-07T08:49:33Z</time>
      </trkpt>
      <trkpt lat="48.7106380" lon="14.0921200">
        <ele>761.0</ele>
        <time>2019-08-07T08:49:34Z</time>
      </trkpt>
      <trkpt lat="48.7106050" lon="14.0921200">
        <ele>761.0</ele>
        <time>2019-08-07T08:49:35Z</time>
      </trkpt>
      <trkpt lat="48.7105750" lon="14.0921200">
        <ele>761.2</ele>
        <time>2019-08-07T08:49:36Z</time>
      </trkpt>
      <trkpt lat="48.7105430" lon="14.0921180">
        <ele>761.2</ele>
        <time>2019-08-07T08:49:37Z</time>
      </trkpt>
      <trkpt lat="48.7105080" lon="14.0921130">
        <ele>761.4</ele>
        <time>2019-08-07T08:49:38Z</time>
      </trkpt>
      <trkpt lat="48.7104730" lon="14.0921080">
        <ele>761.6</ele>
        <time>2019-08-07T08:49:39Z</time>
      </trkpt>
      <trkpt lat="48.7104370" lon="14.0921060">
        <ele>761.6</ele>
        <time>2019-08-07T08:49:40Z</time>
      </trkpt>
      <trkpt lat="48.7103990" lon="14.0921120">
        <ele>761.6</ele>
        <time>2019-08-07T08:49:41Z</time>
      </trkpt>
      <trkpt lat="48.7103600" lon="14.0921170">
        <ele>761.6</ele>
        <time>2019-08-07T08:49:42Z</time>
      </trkpt>
      <trkpt lat="48.7103160" lon="14.0921160">
        <ele>761.8</ele>
        <time>2019-08-07T08:49:43Z</time>
      </trkpt>
      <trkpt lat="48.7102700" lon="14.0921150">
        <ele>761.6</ele>
        <time>2019-08-07T08:49:44Z</time>
      </trkpt>
      <trkpt lat="48.7102230" lon="14.0921120">
        <ele>761.6</ele>
        <time>2019-08-07T08:49:45Z</time>
      </trkpt>
      <trkpt lat="48.7101750" lon="14.0921090">
        <ele>761.6</ele>
        <time>2019-08-07T08:49:46Z</time>
      </trkpt>
      <trkpt lat="48.7101270" lon="14.0921030">
        <ele>761.6</ele>
        <time>2019-08-07T08:49:47Z</time>
      </trkpt>
      <trkpt lat="48.7100800" lon="14.0920990">
        <ele>761.8</ele>
        <time>2019-08-07T08:49:48Z</time>
      </trkpt>
      <trkpt lat="48.7100330" lon="14.0920920">
        <ele>762.0</ele>
        <time>2019-08-07T08:49:49Z</time>
      </trkpt>
      <trkpt lat="48.7099880" lon="14.0920840">
        <ele>762.0</ele>
        <time>2019-08-07T08:49:50Z</time>
      </trkpt>
      <trkpt lat="48.7099420" lon="14.0920760">
        <ele>762.0</ele>
        <time>2019-08-07T08:49:51Z</time>
      </trkpt>
      <trkpt lat="48.7098970" lon="14.0920670">
        <ele>762.2</ele>
        <time>2019-08-07T08:49:52Z</time>
      </trkpt>
      <trkpt lat="48.7098530" lon="14.0920560">
        <ele>762.4</ele>
        <time>2019-08-07T08:49:53Z</time>
      </trkpt>
      <trkpt lat="48.7098090" lon="14.0920450">
        <ele>762.6</ele>
        <time>2019-08-07T08:49:54Z</time>
      </trkpt>
      <trkpt lat="48.7097650" lon="14.0920340">
        <ele>762.6</ele>
        <time>2019-08-07T08:49:55Z</time>
      </trkpt>
      <trkpt lat="48.7097220" lon="14.0920240">
        <ele>762.8</ele>
        <time>2019-08-07T08:49:56Z</time>
      </trkpt>
      <trkpt lat="48.7096800" lon="14.0920120">
        <ele>762.8</ele>
        <time>2019-08-07T08:49:57Z</time>
      </trkpt>
      <trkpt lat="48.7096390" lon="14.0920000">
        <ele>763.0</ele>
        <time>2019-08-07T08:49:58Z</time>
      </trkpt>
      <trkpt lat="48.7095980" lon="14.0919890">
        <ele>763.2</ele>
        <time>2019-08-07T08:49:59Z</time>
      </trkpt>
      <trkpt lat="48.7095540" lon="14.0919770">
        <ele>763.2</ele>
        <time>2019-08-07T08:50:00Z</time>
      </trkpt>
      <trkpt lat="48.7095130" lon="14.0919660">
        <ele>763.4</ele>
        <time>2019-08-07T08:50:01Z</time>
      </trkpt>
      <trkpt lat="48.7094710" lon="14.0919540">
        <ele>763.6</ele>
        <time>2019-08-07T08:50:02Z</time>
      </trkpt>
      <trkpt lat="48.7094280" lon="14.0919400">
        <ele>763.8</ele>
        <time>2019-08-07T08:50:03Z</time>
      </trkpt>
      <trkpt lat="48.7093860" lon="14.0919270">
        <ele>764.0</ele>
        <time>2019-08-07T08:50:04Z</time>
      </trkpt>
      <trkpt lat="48.7093420" lon="14.0919100">
        <ele>764.0</ele>
        <time>2019-08-07T08:50:05Z</time>
      </trkpt>
      <trkpt lat="48.7092960" lon="14.0918910">
        <ele>764.0</ele>
        <time>2019-08-07T08:50:06Z</time>
      </trkpt>
      <trkpt lat="48.7092480" lon="14.0918730">
        <ele>764.0</ele>
        <time>2019-08-07T08:50:07Z</time>
      </trkpt>
      <trkpt lat="48.7091990" lon="14.0918540">
        <ele>764.0</ele>
        <time>2019-08-07T08:50:08Z</time>
      </trkpt>
      <trkpt lat="48.7091480" lon="14.0918350">
        <ele>764.0</ele>
        <time>2019-08-07T08:50:09Z</time>
      </trkpt>
      <trkpt lat="48.7090940" lon="14.0918160">
        <ele>764.0</ele>
        <time>2019-08-07T08:50:10Z</time>
      </trkpt>
      <trkpt lat="48.7090360" lon="14.0917940">
        <ele>763.8</ele>
        <time>2019-08-07T08:50:11Z</time>
      </trkpt>
      <trkpt lat="48.7089780" lon="14.0917720">
        <ele>763.6</ele>
        <time>2019-08-07T08:50:12Z</time>
      </trkpt>
      <trkpt lat="48.7089190" lon="14.0917490">
        <ele>763.6</ele>
        <time>2019-08-07T08:50:13Z</time>
      </trkpt>
      <trkpt lat="48.7088690" lon="14.0917270">
        <ele>763.4</ele>
        <time>2019-08-07T08:50:14Z</time>
      </trkpt>
      <trkpt lat="48.7087850" lon="14.0916880">
        <ele>763.0</ele>
        <time>2019-08-07T08:50:15Z</time>
      </trkpt>
      <trkpt lat="48.7087120" lon="14.0916530">
        <ele>762.4</ele>
        <time>2019-08-07T08:50:16Z</time>
      </trkpt>
      <trkpt lat="48.7086300" lon="14.0916120">
        <ele>762.0</ele>
        <time>2019-08-07T08:50:17Z</time>
      </trkpt>
      <trkpt lat="48.7085470" lon="14.0915670">
        <ele>761.6</ele>
        <time>2019-08-07T08:50:18Z</time>
      </trkpt>
      <trkpt lat="48.7084570" lon="14.0915190">
        <ele>761.2</ele>
        <time>2019-08-07T08:50:19Z</time>
      </trkpt>
      <trkpt lat="48.7083590" lon="14.0914660">
        <ele>761.0</ele>
        <time>2019-08-07T08:50:20Z</time>
      </trkpt>
      <trkpt lat="48.7082600" lon="14.0914120">
        <ele>760.4</ele>
        <time>2019-08-07T08:50:21Z</time>
      </trkpt>
      <trkpt lat="48.7081600" lon="14.0913590">
        <ele>759.6</ele>
        <time>2019-08-07T08:50:22Z</time>
      </trkpt>
      <trkpt lat="48.7080550" lon="14.0913030">
        <ele>759.0</ele>
        <time>2019-08-07T08:50:23Z</time>
      </trkpt>
      <trkpt lat="48.7079500" lon="14.0912450">
        <ele>758.4</ele>
        <time>2019-08-07T08:50:24Z</time>
      </trkpt>
      <trkpt lat="48.7078460" lon="14.0911850">
        <ele>758.0</ele>
        <time>2019-08-07T08:50:25Z</time>
      </trkpt>
      <trkpt lat="48.7077380" lon="14.0911210">
        <ele>757.4</ele>
        <time>2019-08-07T08:50:26Z</time>
      </trkpt>
      <trkpt lat="48.7076320" lon="14.0910560">
        <ele>756.8</ele>
        <time>2019-08-07T08:50:27Z</time>
      </trkpt>
      <trkpt lat="48.7075270" lon="14.0909930">
        <ele>756.2</ele>
        <time>2019-08-07T08:50:28Z</time>
      </trkpt>
      <trkpt lat="48.7074220" lon="14.0909320">
        <ele>755.4</ele>
        <time>2019-08-07T08:50:29Z</time>
      </trkpt>
      <trkpt lat="48.7073190" lon="14.0908740">
        <ele>754.8</ele>
        <time>2019-08-07T08:50:30Z</time>
      </trkpt>
      <trkpt lat="48.7072150" lon="14.0908190">
        <ele>754.4</ele>
        <time>2019-08-07T08:50:31Z</time>
      </trkpt>
      <trkpt lat="48.7071140" lon="14.0907640">
        <ele>754.0</ele>
        <time>2019-08-07T08:50:32Z</time>
      </trkpt>
      <trkpt lat="48.7070170" lon="14.0907100">
        <ele>753.8</ele>
        <time>2019-08-07T08:50:33Z</time>
      </trkpt>
      <trkpt lat="48.7069170" lon="14.0906540">
        <ele>753.4</ele>
        <time>2019-08-07T08:50:34Z</time>
      </trkpt>
      <trkpt lat="48.7068230" lon="14.0906010">
        <ele>753.0</ele>
        <time>2019-08-07T08:50:35Z</time>
      </trkpt>
      <trkpt lat="48.7067280" lon="14.0905480">
        <ele>752.8</ele>
        <time>2019-08-07T08:50:36Z</time>
      </trkpt>
      <trkpt lat="48.7066330" lon="14.0904960">
        <ele>752.4</ele>
        <time>2019-08-07T08:50:37Z</time>
      </trkpt>
      <trkpt lat="48.7065420" lon="14.0904440">
        <ele>752.0</ele>
        <time>2019-08-07T08:50:38Z</time>
      </trkpt>
      <trkpt lat="48.7064510" lon="14.0903950">
        <ele>751.8</ele>
        <time>2019-08-07T08:50:39Z</time>
      </trkpt>
      <trkpt lat="48.7063600" lon="14.0903480">
        <ele>751.6</ele>
        <time>2019-08-07T08:50:40Z</time>
      </trkpt>
      <trkpt lat="48.7062720" lon="14.0903020">
        <ele>751.2</ele>
        <time>2019-08-07T08:50:41Z</time>
      </trkpt>
      <trkpt lat="48.7061840" lon="14.0902570">
        <ele>751.0</ele>
        <time>2019-08-07T08:50:42Z</time>
      </trkpt>
      <trkpt lat="48.7061010" lon="14.0902140">
        <ele>751.0</ele>
        <time>2019-08-07T08:50:43Z</time>
      </trkpt>
      <trkpt lat="48.7060150" lon="14.0901710">
        <ele>750.8</ele>
        <time>2019-08-07T08:50:44Z</time>
      </trkpt>
      <trkpt lat="48.7059310" lon="14.0901280">
        <ele>750.8</ele>
        <time>2019-08-07T08:50:45Z</time>
      </trkpt>
      <trkpt lat="48.7058460" lon="14.0900820">
        <ele>750.8</ele>
        <time>2019-08-07T08:50:46Z</time>
      </trkpt>
      <trkpt lat="48.7057640" lon="14.0900390">
        <ele>750.8</ele>
        <time>2019-08-07T08:50:47Z</time>
      </trkpt>
      <trkpt lat="48.7056840" lon="14.0899970">
        <ele>750.6</ele>
        <time>2019-08-07T08:50:48Z</time>
      </trkpt>
      <trkpt lat="48.7056020" lon="14.0899530">
        <ele>750.4</ele>
        <time>2019-08-07T08:50:49Z</time>
      </trkpt>
      <trkpt lat="48.7055220" lon="14.0899090">
        <ele>750.4</ele>
        <time>2019-08-07T08:50:50Z</time>
      </trkpt>
      <trkpt lat="48.7054430" lon="14.0898640">
        <ele>750.4</ele>
        <time>2019-08-07T08:50:51Z</time>
      </trkpt>
      <trkpt lat="48.7053640" lon="14.0898220">
        <ele>750.4</ele>
        <time>2019-08-07T08:50:52Z</time>
      </trkpt>
      <trkpt lat="48.7052880" lon="14.0897780">
        <ele>750.4</ele>
        <time>2019-08-07T08:50:53Z</time>
      </trkpt>
      <trkpt lat="48.7052110" lon="14.0897330">
        <ele>750.4</ele>
        <time>2019-08-07T08:50:54Z</time>
      </trkpt>
      <trkpt lat="48.7051350" lon="14.0896870">
        <ele>750.4</ele>
        <time>2019-08-07T08:50:55Z</time>
      </trkpt>
      <trkpt lat="48.7050610" lon="14.0896440">
        <ele>750.2</ele>
        <time>2019-08-07T08:50:56Z</time>
      </trkpt>
      <trkpt lat="48.7049860" lon="14.0895970">
        <ele>750.2</ele>
        <time>2019-08-07T08:50:57Z</time>
      </trkpt>
      <trkpt lat="48.7049130" lon="14.0895500">
        <ele>749.8</ele>
        <time>2019-08-07T08:50:58Z</time>
      </trkpt>
      <trkpt lat="48.7048330" lon="14.0894900">
        <ele>749.6</ele>
        <time>2019-08-07T08:50:59Z</time>
      </trkpt>
      <trkpt lat="48.7047560" lon="14.0894320">
        <ele>749.6</ele>
        <time>2019-08-07T08:51:00Z</time>
      </trkpt>
      <trkpt lat="48.7046760" lon="14.0893730">
        <ele>749.4</ele>
        <time>2019-08-07T08:51:01Z</time>
      </trkpt>
      <trkpt lat="48.7045980" lon="14.0893110">
        <ele>749.2</ele>
        <time>2019-08-07T08:51:02Z</time>
      </trkpt>
      <trkpt lat="48.7045200" lon="14.0892500">
        <ele>749.0</ele>
        <time>2019-08-07T08:51:03Z</time>
      </trkpt>
      <trkpt lat="48.7044420" lon="14.0891880">
        <ele>749.0</ele>
        <time>2019-08-07T08:51:04Z</time>
      </trkpt>
      <trkpt lat="48.7043630" lon="14.0891230">
        <ele>748.8</ele>
        <time>2019-08-07T08:51:05Z</time>
      </trkpt>
      <trkpt lat="48.7042870" lon="14.0890540">
        <ele>748.8</ele>
        <time>2019-08-07T08:51:06Z</time>
      </trkpt>
      <trkpt lat="48.7042110" lon="14.0889830">
        <ele>748.6</ele>
        <time>2019-08-07T08:51:07Z</time>
      </trkpt>
      <trkpt lat="48.7041380" lon="14.0889130">
        <ele>748.4</ele>
        <time>2019-08-07T08:51:08Z</time>
      </trkpt>
      <trkpt lat="48.7040660" lon="14.0888410">
        <ele>748.2</ele>
        <time>2019-08-07T08:51:09Z</time>
      </trkpt>
      <trkpt lat="48.7039920" lon="14.0887650">
        <ele>748.0</ele>
        <time>2019-08-07T08:51:10Z</time>
      </trkpt>
      <trkpt lat="48.7039220" lon="14.0886880">
        <ele>748.0</ele>
        <time>2019-08-07T08:51:11Z</time>
      </trkpt>
      <trkpt lat="48.7038520" lon="14.0886100">
        <ele>747.8</ele>
        <time>2019-08-07T08:51:12Z</time>
      </trkpt>
      <trkpt lat="48.7037810" lon="14.0885350">
        <ele>747.8</ele>
        <time>2019-08-07T08:51:13Z</time>
      </trkpt>
      <trkpt lat="48.7037110" lon="14.0884580">
        <ele>747.8</ele>
        <time>2019-08-07T08:51:14Z</time>
      </trkpt>
      <trkpt lat="48.7036420" lon="14.0883750">
        <ele>748.0</ele>
        <time>2019-08-07T08:51:15Z</time>
      </trkpt>
      <trkpt lat="48.7035740" lon="14.0882920">
        <ele>748.2</ele>
        <time>2019-08-07T08:51:16Z</time>
      </trkpt>
      <trkpt lat="48.7035080" lon="14.0882050">
        <ele>748.2</ele>
        <time>2019-08-07T08:51:17Z</time>
      </trkpt>
      <trkpt lat="48.7034430" lon="14.0881160">
        <ele>748.4</ele>
        <time>2019-08-07T08:51:18Z</time>
      </trkpt>
      <trkpt lat="48.7033820" lon="14.0880270">
        <ele>748.6</ele>
        <time>2019-08-07T08:51:19Z</time>
      </trkpt>
      <trkpt lat="48.7033230" lon="14.0879370">
        <ele>748.6</ele>
        <time>2019-08-07T08:51:20Z</time>
      </trkpt>
      <trkpt lat="48.7032630" lon="14.0878490">
        <ele>748.6</ele>
        <time>2019-08-07T08:51:21Z</time>
      </trkpt>
      <trkpt lat="48.7032050" lon="14.0877610">
        <ele>748.8</ele>
        <time>2019-08-07T08:51:22Z</time>
      </trkpt>
      <trkpt lat="48.7031500" lon="14.0876730">
        <ele>748.6</ele>
        <time>2019-08-07T08:51:23Z</time>
      </trkpt>
      <trkpt lat="48.7030970" lon="14.0875850">
        <ele>748.8</ele>
        <time>2019-08-07T08:51:24Z</time>
      </trkpt>
      <trkpt lat="48.7030440" lon="14.0874940">
        <ele>749.0</ele>
        <time>2019-08-07T08:51:25Z</time>
      </trkpt>
      <trkpt lat="48.7029910" lon="14.0874050">
        <ele>748.8</ele>
        <time>2019-08-07T08:51:26Z</time>
      </trkpt>
      <trkpt lat="48.7029410" lon="14.0873160">
        <ele>748.8</ele>
        <time>2019-08-07T08:51:27Z</time>
      </trkpt>
      <trkpt lat="48.7028950" lon="14.0872250">
        <ele>748.6</ele>
        <time>2019-08-07T08:51:28Z</time>
      </trkpt>
      <trkpt lat="48.7028520" lon="14.0871310">
        <ele>748.6</ele>
        <time>2019-08-07T08:51:29Z</time>
      </trkpt>
      <trkpt lat="48.7028080" lon="14.0870380">
        <ele>748.6</ele>
        <time>2019-08-07T08:51:30Z</time>
      </trkpt>
      <trkpt lat="48.7027650" lon="14.0869480">
        <ele>748.6</ele>
        <time>2019-08-07T08:51:31Z</time>
      </trkpt>
      <trkpt lat="48.7027220" lon="14.0868560">
        <ele>748.6</ele>
        <time>2019-08-07T08:51:32Z</time>
      </trkpt>
      <trkpt lat="48.7026770" lon="14.0867670">
        <ele>748.4</ele>
        <time>2019-08-07T08:51:33Z</time>
      </trkpt>
      <trkpt lat="48.7026350" lon="14.0866780">
        <ele>748.8</ele>
        <time>2019-08-07T08:51:34Z</time>
      </trkpt>
      <trkpt lat="48.7025920" lon="14.0865920">
        <ele>748.6</ele>
        <time>2019-08-07T08:51:35Z</time>
      </trkpt>
      <trkpt lat="48.7025510" lon="14.0865090">
        <ele>748.8</ele>
        <time>2019-08-07T08:51:36Z</time>
      </trkpt>
      <trkpt lat="48.7025070" lon="14.0864240">
        <ele>749.0</ele>
        <time>2019-08-07T08:51:37Z</time>
      </trkpt>
      <trkpt lat="48.7024650" lon="14.0863410">
        <ele>749.0</ele>
        <time>2019-08-07T08:51:38Z</time>
      </trkpt>
      <trkpt lat="48.7024220" lon="14.0862610">
        <ele>748.8</ele>
        <time>2019-08-07T08:51:39Z</time>
      </trkpt>
      <trkpt lat="48.7023800" lon="14.0861790">
        <ele>748.8</ele>
        <time>2019-08-07T08:51:40Z</time>
      </trkpt>
      <trkpt lat="48.7023390" lon="14.0860970">
        <ele>748.8</ele>
        <time>2019-08-07T08:51:41Z</time>
      </trkpt>
      <trkpt lat="48.7022990" lon="14.0860160">
        <ele>749.0</ele>
        <time>2019-08-07T08:51:42Z</time>
      </trkpt>
      <trkpt lat="48.7022600" lon="14.0859340">
        <ele>749.2</ele>
        <time>2019-08-07T08:51:43Z</time>
      </trkpt>
      <trkpt lat="48.7022200" lon="14.0858500">
        <ele>749.4</ele>
        <time>2019-08-07T08:51:44Z</time>
      </trkpt>
      <trkpt lat="48.7021820" lon="14.0857690">
        <ele>749.4</ele>
        <time>2019-08-07T08:51:45Z</time>
      </trkpt>
      <trkpt lat="48.7021420" lon="14.0856880">
        <ele>749.2</ele>
        <time>2019-08-07T08:51:46Z</time>
      </trkpt>
      <trkpt lat="48.7021040" lon="14.0856080">
        <ele>749.2</ele>
        <time>2019-08-07T08:51:47Z</time>
      </trkpt>
      <trkpt lat="48.7020660" lon="14.0855280">
        <ele>749.2</ele>
        <time>2019-08-07T08:51:48Z</time>
      </trkpt>
      <trkpt lat="48.7020260" lon="14.0854480">
        <ele>749.2</ele>
        <time>2019-08-07T08:51:49Z</time>
      </trkpt>
      <trkpt lat="48.7019870" lon="14.0853700">
        <ele>749.0</ele>
        <time>2019-08-07T08:51:50Z</time>
      </trkpt>
      <trkpt lat="48.7019490" lon="14.0852900">
        <ele>749.0</ele>
        <time>2019-08-07T08:51:51Z</time>
      </trkpt>
      <trkpt lat="48.7019110" lon="14.0852120">
        <ele>749.0</ele>
        <time>2019-08-07T08:51:52Z</time>
      </trkpt>
      <trkpt lat="48.7018740" lon="14.0851330">
        <ele>749.0</ele>
        <time>2019-08-07T08:51:53Z</time>
      </trkpt>
      <trkpt lat="48.7018370" lon="14.0850540">
        <ele>749.0</ele>
        <time>2019-08-07T08:51:54Z</time>
      </trkpt>
      <trkpt lat="48.7017990" lon="14.0849760">
        <ele>749.2</ele>
        <time>2019-08-07T08:51:55Z</time>
      </trkpt>
      <trkpt lat="48.7017640" lon="14.0848970">
        <ele>749.2</ele>
        <time>2019-08-07T08:51:56Z</time>
      </trkpt>
      <trkpt lat="48.7017310" lon="14.0848180">
        <ele>749.6</ele>
        <time>2019-08-07T08:51:57Z</time>
      </trkpt>
      <trkpt lat="48.7016960" lon="14.0847410">
        <ele>749.8</ele>
        <time>2019-08-07T08:51:58Z</time>
      </trkpt>
      <trkpt lat="48.7016610" lon="14.0846650">
        <ele>749.6</ele>
        <time>2019-08-07T08:51:59Z</time>
      </trkpt>
      <trkpt lat="48.7016260" lon="14.0845900">
        <ele>749.6</ele>
        <time>2019-08-07T08:52:00Z</time>
      </trkpt>
      <trkpt lat="48.7015910" lon="14.0845170">
        <ele>749.4</ele>
        <time>2019-08-07T08:52:01Z</time>
      </trkpt>
      <trkpt lat="48.7015540" lon="14.0844450">
        <ele>749.4</ele>
        <time>2019-08-07T08:52:02Z</time>
      </trkpt>
      <trkpt lat="48.7015190" lon="14.0843760">
        <ele>749.4</ele>
        <time>2019-08-07T08:52:03Z</time>
      </trkpt>
      <trkpt lat="48.7014810" lon="14.0843060">
        <ele>749.6</ele>
        <time>2019-08-07T08:52:04Z</time>
      </trkpt>
      <trkpt lat="48.7014430" lon="14.0842420">
        <ele>749.6</ele>
        <time>2019-08-07T08:52:05Z</time>
      </trkpt>
      <trkpt lat="48.7014060" lon="14.0841790">
        <ele>749.8</ele>
        <time>2019-08-07T08:52:06Z</time>
      </trkpt>
      <trkpt lat="48.7013700" lon="14.0841220">
        <ele>750.0</ele>
        <time>2019-08-07T08:52:07Z</time>
      </trkpt>
      <trkpt lat="48.7013360" lon="14.0840670">
        <ele>750.2</ele>
        <time>2019-08-07T08:52:08Z</time>
      </trkpt>
      <trkpt lat="48.7013010" lon="14.0840160">
        <ele>750.4</ele>
        <time>2019-08-07T08:52:09Z</time>
      </trkpt>
      <trkpt lat="48.7012660" lon="14.0839640">
        <ele>750.6</ele>
        <time>2019-08-07T08:52:10Z</time>
      </trkpt>
      <trkpt lat="48.7012310" lon="14.0839140">
        <ele>750.6</ele>
        <time>2019-08-07T08:52:11Z</time>
      </trkpt>
      <trkpt lat="48.7011940" lon="14.0838600">
        <ele>750.8</ele>
        <time>2019-08-07T08:52:12Z</time>
      </trkpt>
      <trkpt lat="48.7011610" lon="14.0838060">
        <ele>751.0</ele>
        <time>2019-08-07T08:52:13Z</time>
      </trkpt>
      <trkpt lat="48.7011250" lon="14.0837530">
        <ele>751.2</ele>
        <time>2019-08-07T08:52:14Z</time>
      </trkpt>
      <trkpt lat="48.7010870" lon="14.0836950">
        <ele>751.4</ele>
        <time>2019-08-07T08:52:15Z</time>
      </trkpt>
      <trkpt lat="48.7010510" lon="14.0836410">
        <ele>751.4</ele>
        <time>2019-08-07T08:52:16Z</time>
      </trkpt>
      <trkpt lat="48.7010120" lon="14.0835860">
        <ele>751.6</ele>
        <time>2019-08-07T08:52:17Z</time>
      </trkpt>
      <trkpt lat="48.7009720" lon="14.0835320">
        <ele>751.6</ele>
        <time>2019-08-07T08:52:18Z</time>
      </trkpt>
      <trkpt lat="48.7009320" lon="14.0834750">
        <ele>751.8</ele>
        <time>2019-08-07T08:52:19Z</time>
      </trkpt>
      <trkpt lat="48.7008940" lon="14.0834190">
        <ele>751.8</ele>
        <time>2019-08-07T08:52:20Z</time>
      </trkpt>
      <trkpt lat="48.7008560" lon="14.0833610">
        <ele>752.0</ele>
        <time>2019-08-07T08:52:21Z</time>
      </trkpt>
      <trkpt lat="48.7008160" lon="14.0833050">
        <ele>752.0</ele>
        <time>2019-08-07T08:52:22Z</time>
      </trkpt>
      <trkpt lat="48.7007750" lon="14.0832460">
        <ele>752.2</ele>
        <time>2019-08-07T08:52:23Z</time>
      </trkpt>
      <trkpt lat="48.7007340" lon="14.0831870">
        <ele>752.2</ele>
        <time>2019-08-07T08:52:24Z</time>
      </trkpt>
      <trkpt lat="48.7006920" lon="14.0831300">
        <ele>752.2</ele>
        <time>2019-08-07T08:52:25Z</time>
      </trkpt>
      <trkpt lat="48.7006520" lon="14.0830720">
        <ele>752.4</ele>
        <time>2019-08-07T08:52:26Z</time>
      </trkpt>
      <trkpt lat="48.7006150" lon="14.0830110">
        <ele>752.4</ele>
        <time>2019-08-07T08:52:27Z</time>
      </trkpt>
      <trkpt lat="48.7005780" lon="14.0829470">
        <ele>752.4</ele>
        <time>2019-08-07T08:52:28Z</time>
      </trkpt>
      <trkpt lat="48.7005430" lon="14.0828800">
        <ele>752.4</ele>
        <time>2019-08-07T08:52:29Z</time>
      </trkpt>
      <trkpt lat="48.7005080" lon="14.0828100">
        <ele>752.6</ele>
        <time>2019-08-07T08:52:30Z</time>
      </trkpt>
      <trkpt lat="48.7004730" lon="14.0827400">
        <ele>752.6</ele>
        <time>2019-08-07T08:52:31Z</time>
      </trkpt>
      <trkpt lat="48.7004380" lon="14.0826680">
        <ele>752.8</ele>
        <time>2019-08-07T08:52:32Z</time>
      </trkpt>
      <trkpt lat="48.7004040" lon="14.0825970">
        <ele>752.8</ele>
        <time>2019-08-07T08:52:33Z</time>
      </trkpt>
      <trkpt lat="48.7003710" lon="14.0825250">
        <ele>753.0</ele>
        <time>2019-08-07T08:52:34Z</time>
      </trkpt>
      <trkpt lat="48.7003380" lon="14.0824500">
        <ele>753.0</ele>
        <time>2019-08-07T08:52:35Z</time>
      </trkpt>
      <trkpt lat="48.7003060" lon="14.0823750">
        <ele>753.0</ele>
        <time>2019-08-07T08:52:36Z</time>
      </trkpt>
      <trkpt lat="48.7002750" lon="14.0822970">
        <ele>753.2</ele>
        <time>2019-08-07T08:52:37Z</time>
      </trkpt>
      <trkpt lat="48.7002470" lon="14.0822180">
        <ele>753.4</ele>
        <time>2019-08-07T08:52:38Z</time>
      </trkpt>
      <trkpt lat="48.7002190" lon="14.0821400">
        <ele>753.6</ele>
        <time>2019-08-07T08:52:39Z</time>
      </trkpt>
      <trkpt lat="48.7001900" lon="14.0820590">
        <ele>753.8</ele>
        <time>2019-08-07T08:52:40Z</time>
      </trkpt>
      <trkpt lat="48.7001590" lon="14.0819810">
        <ele>754.0</ele>
        <time>2019-08-07T08:52:41Z</time>
      </trkpt>
      <trkpt lat="48.7001260" lon="14.0819050">
        <ele>754.2</ele>
        <time>2019-08-07T08:52:42Z</time>
      </trkpt>
      <trkpt lat="48.7000930" lon="14.0818330">
        <ele>754.4</ele>
        <time>2019-08-07T08:52:43Z</time>
      </trkpt>
      <trkpt lat="48.7000600" lon="14.0817600">
        <ele>754.4</ele>
        <time>2019-08-07T08:52:44Z</time>
      </trkpt>
      <trkpt lat="48.7000260" lon="14.0816870">
        <ele>754.6</ele>
        <time>2019-08-07T08:52:45Z</time>
      </trkpt>
      <trkpt lat="48.6999960" lon="14.0816180">
        <ele>754.6</ele>
        <time>2019-08-07T08:52:46Z</time>
      </trkpt>
      <trkpt lat="48.6999630" lon="14.0815450">
        <ele>754.8</ele>
        <time>2019-08-07T08:52:47Z</time>
      </trkpt>
      <trkpt lat="48.6999310" lon="14.0814760">
        <ele>754.8</ele>
        <time>2019-08-07T08:52:48Z</time>
      </trkpt>
      <trkpt lat="48.6998980" lon="14.0814090">
        <ele>755.0</ele>
        <time>2019-08-07T08:52:49Z</time>
      </trkpt>
      <trkpt lat="48.6998640" lon="14.0813430">
        <ele>755.2</ele>
        <time>2019-08-07T08:52:50Z</time>
      </trkpt>
      <trkpt lat="48.6998290" lon="14.0812780">
        <ele>755.2</ele>
        <time>2019-08-07T08:52:51Z</time>
      </trkpt>
      <trkpt lat="48.6997910" lon="14.0812170">
        <ele>755.2</ele>
        <time>2019-08-07T08:52:52Z</time>
      </trkpt>
      <trkpt lat="48.6997540" lon="14.0811560">
        <ele>755.0</ele>
        <time>2019-08-07T08:52:53Z</time>
      </trkpt>
      <trkpt lat="48.6997160" lon="14.0810970">
        <ele>755.0</ele>
        <time>2019-08-07T08:52:54Z</time>
      </trkpt>
      <trkpt lat="48.6996750" lon="14.0810390">
        <ele>755.0</ele>
        <time>2019-08-07T08:52:55Z</time>
      </trkpt>
      <trkpt lat="48.6996350" lon="14.0809840">
        <ele>755.0</ele>
        <time>2019-08-07T08:52:56Z</time>
      </trkpt>
      <trkpt lat="48.6995900" lon="14.0809310">
        <ele>755.0</ele>
        <time>2019-08-07T08:52:57Z</time>
      </trkpt>
      <trkpt lat="48.6995460" lon="14.0808810">
        <ele>755.0</ele>
        <time>2019-08-07T08:52:58Z</time>
      </trkpt>
      <trkpt lat="48.6995000" lon="14.0808350">
        <ele>755.0</ele>
        <time>2019-08-07T08:52:59Z</time>
      </trkpt>
      <trkpt lat="48.6994540" lon="14.0807880">
        <ele>755.2</ele>
        <time>2019-08-07T08:53:00Z</time>
      </trkpt>
      <trkpt lat="48.6994060" lon="14.0807410">
        <ele>755.2</ele>
        <time>2019-08-07T08:53:01Z</time>
      </trkpt>
      <trkpt lat="48.6993610" lon="14.0806940">
        <ele>755.4</ele>
        <time>2019-08-07T08:53:02Z</time>
      </trkpt>
      <trkpt lat="48.6993120" lon="14.0806480">
        <ele>755.4</ele>
        <time>2019-08-07T08:53:03Z</time>
      </trkpt>
      <trkpt lat="48.6992630" lon="14.0806040">
        <ele>755.6</ele>
        <time>2019-08-07T08:53:04Z</time>
      </trkpt>
      <trkpt lat="48.6992130" lon="14.0805600">
        <ele>755.6</ele>
        <time>2019-08-07T08:53:05Z</time>
      </trkpt>
      <trkpt lat="48.6991640" lon="14.0805150">
        <ele>755.6</ele>
        <time>2019-08-07T08:53:06Z</time>
      </trkpt>
      <trkpt lat="48.6991150" lon="14.0804700">
        <ele>755.8</ele>
        <time>2019-08-07T08:53:07Z</time>
      </trkpt>
      <trkpt lat="48.6990680" lon="14.0804290">
        <ele>756.0</ele>
        <time>2019-08-07T08:53:08Z</time>
      </trkpt>
      <trkpt lat="48.6990200" lon="14.0803910">
        <ele>756.0</ele>
        <time>2019-08-07T08:53:09Z</time>
      </trkpt>
      <trkpt lat="48.6989750" lon="14.0803520">
        <ele>756.2</ele>
        <time>2019-08-07T08:53:10Z</time>
      </trkpt>
      <trkpt lat="48.6989300" lon="14.0803110">
        <ele>756.4</ele>
        <time>2019-08-07T08:53:11Z</time>
      </trkpt>
      <trkpt lat="48.6988890" lon="14.0802710">
        <ele>756.6</ele>
        <time>2019-08-07T08:53:12Z</time>
      </trkpt>
      <trkpt lat="48.6988450" lon="14.0802330">
        <ele>756.6</ele>
        <time>2019-08-07T08:53:13Z</time>
      </trkpt>
      <trkpt lat="48.6988030" lon="14.0801970">
        <ele>756.8</ele>
        <time>2019-08-07T08:53:14Z</time>
      </trkpt>
      <trkpt lat="48.6987590" lon="14.0801610">
        <ele>756.8</ele>
        <time>2019-08-07T08:53:15Z</time>
      </trkpt>
      <trkpt lat="48.6987150" lon="14.0801270">
        <ele>757.0</ele>
        <time>2019-08-07T08:53:16Z</time>
      </trkpt>
      <trkpt lat="48.6986670" lon="14.0800870">
        <ele>757.0</ele>
        <time>2019-08-07T08:53:17Z</time>
      </trkpt>
      <trkpt lat="48.6986190" lon="14.0800490">
        <ele>757.0</ele>
        <time>2019-08-07T08:53:18Z</time>
      </trkpt>
      <trkpt lat="48.6985670" lon="14.0800090">
        <ele>757.0</ele>
        <time>2019-08-07T08:53:19Z</time>
      </trkpt>
      <trkpt lat="48.6985120" lon="14.0799680">
        <ele>756.8</ele>
        <time>2019-08-07T08:53:20Z</time>
      </trkpt>
      <trkpt lat="48.6984570" lon="14.0799220">
        <ele>756.6</ele>
        <time>2019-08-07T08:53:21Z</time>
      </trkpt>
      <trkpt lat="48.6983960" lon="14.0798690">
        <ele>756.4</ele>
        <time>2019-08-07T08:53:22Z</time>
      </trkpt>
      <trkpt lat="48.6983340" lon="14.0798160">
        <ele>756.2</ele>
        <time>2019-08-07T08:53:23Z</time>
      </trkpt>
      <trkpt lat="48.6982680" lon="14.0797580">
        <ele>755.8</ele>
        <time>2019-08-07T08:53:24Z</time>
      </trkpt>
      <trkpt lat="48.6982010" lon="14.0796920">
        <ele>755.4</ele>
        <time>2019-08-07T08:53:25Z</time>
      </trkpt>
      <trkpt lat="48.6981340" lon="14.0796220">
        <ele>755.0</ele>
        <time>2019-08-07T08:53:26Z</time>
      </trkpt>
      <trkpt lat="48.6980690" lon="14.0795450">
        <ele>754.4</ele>
        <time>2019-08-07T08:53:27Z</time>
      </trkpt>
      <trkpt lat="48.6980000" lon="14.0794610">
        <ele>753.6</ele>
        <time>2019-08-07T08:53:28Z</time>
      </trkpt>
      <trkpt lat="48.6979310" lon="14.0793660">
        <ele>753.0</ele>
        <time>2019-08-07T08:53:29Z</time>
      </trkpt>
      <trkpt lat="48.6978590" lon="14.0792600">
        <ele>752.2</ele>
        <time>2019-08-07T08:53:30Z</time>
      </trkpt>
      <trkpt lat="48.6977870" lon="14.0791390">
        <ele>751.6</ele>
        <time>2019-08-07T08:53:31Z</time>
      </trkpt>
      <trkpt lat="48.6977150" lon="14.0790090">
        <ele>750.8</ele>
        <time>2019-08-07T08:53:32Z</time>
      </trkpt>
      <trkpt lat="48.6976460" lon="14.0788700">
        <ele>749.8</ele>
        <time>2019-08-07T08:53:33Z</time>
      </trkpt>
      <trkpt lat="48.6975860" lon="14.0787400">
        <ele>748.6</ele>
        <time>2019-08-07T08:53:34Z</time>
      </trkpt>
      <trkpt lat="48.6975330" lon="14.0786220">
        <ele>747.6</ele>
        <time>2019-08-07T08:53:35Z</time>
      </trkpt>
      <trkpt lat="48.6974830" lon="14.0785150">
        <ele>746.2</ele>
        <time>2019-08-07T08:53:36Z</time>
      </trkpt>
      <trkpt lat="48.6974340" lon="14.0784180">
        <ele>745.2</ele>
        <time>2019-08-07T08:53:37Z</time>
      </trkpt>
      <trkpt lat="48.6973810" lon="14.0783260">
        <ele>744.0</ele>
        <time>2019-08-07T08:53:38Z</time>
      </trkpt>
      <trkpt lat="48.6973210" lon="14.0782380">
        <ele>743.0</ele>
        <time>2019-08-07T08:53:39Z</time>
      </trkpt>
      <trkpt lat="48.6972570" lon="14.0781590">
        <ele>742.0</ele>
        <time>2019-08-07T08:53:40Z</time>
      </trkpt>
      <trkpt lat="48.6971910" lon="14.0780940">
        <ele>741.0</ele>
        <time>2019-08-07T08:53:41Z</time>
      </trkpt>
      <trkpt lat="48.6971270" lon="14.0780380">
        <ele>740.2</ele>
        <time>2019-08-07T08:53:42Z</time>
      </trkpt>
      <trkpt lat="48.6970670" lon="14.0779860">
        <ele>739.4</ele>
        <time>2019-08-07T08:53:43Z</time>
      </trkpt>
      <trkpt lat="48.6970110" lon="14.0779430">
        <ele>738.6</ele>
        <time>2019-08-07T08:53:44Z</time>
      </trkpt>
      <trkpt lat="48.6969600" lon="14.0779060">
        <ele>738.2</ele>
        <time>2019-08-07T08:53:45Z</time>
      </trkpt>
      <trkpt lat="48.6969160" lon="14.0778680">
        <ele>737.6</ele>
        <time>2019-08-07T08:53:46Z</time>
      </trkpt>
      <trkpt lat="48.6968800" lon="14.0778330">
        <ele>737.0</ele>
        <time>2019-08-07T08:53:47Z</time>
      </trkpt>
      <trkpt lat="48.6968500" lon="14.0778060">
        <ele>736.6</ele>
        <time>2019-08-07T08:53:48Z</time>
      </trkpt>
      <trkpt lat="48.6968220" lon="14.0777830">
        <ele>736.2</ele>
        <time>2019-08-07T08:53:49Z</time>
      </trkpt>
      <trkpt lat="48.6967950" lon="14.0777640">
        <ele>735.8</ele>
        <time>2019-08-07T08:53:50Z</time>
      </trkpt>
      <trkpt lat="48.6967660" lon="14.0777570">
        <ele>735.4</ele>
        <time>2019-08-07T08:53:51Z</time>
      </trkpt>
      <trkpt lat="48.6967330" lon="14.0777450">
        <ele>735.0</ele>
        <time>2019-08-07T08:53:52Z</time>
      </trkpt>
      <trkpt lat="48.6966970" lon="14.0777290">
        <ele>734.6</ele>
        <time>2019-08-07T08:53:53Z</time>
      </trkpt>
      <trkpt lat="48.6966630" lon="14.0777050">
        <ele>734.4</ele>
        <time>2019-08-07T08:53:54Z</time>
      </trkpt>
      <trkpt lat="48.6966280" lon="14.0776800">
        <ele>734.2</ele>
        <time>2019-08-07T08:53:55Z</time>
      </trkpt>
      <trkpt lat="48.6965920" lon="14.0776540">
        <ele>733.8</ele>
        <time>2019-08-07T08:53:56Z</time>
      </trkpt>
      <trkpt lat="48.6965640" lon="14.0776360">
        <ele>733.4</ele>
        <time>2019-08-07T08:53:57Z</time>
      </trkpt>
      <trkpt lat="48.6965390" lon="14.0776340">
        <ele>733.0</ele>
        <time>2019-08-07T08:53:58Z</time>
      </trkpt>
      <trkpt lat="48.6965170" lon="14.0776460">
        <ele>732.8</ele>
        <time>2019-08-07T08:53:59Z</time>
      </trkpt>
      <trkpt lat="48.6964920" lon="14.0776700">
        <ele>732.4</ele>
        <time>2019-08-07T08:54:00Z</time>
      </trkpt>
      <trkpt lat="48.6964700" lon="14.0776960">
        <ele>732.2</ele>
        <time>2019-08-07T08:54:01Z</time>
      </trkpt>
      <trkpt lat="48.6964520" lon="14.0777220">
        <ele>732.0</ele>
        <time>2019-08-07T08:54:02Z</time>
      </trkpt>
      <trkpt lat="48.6964360" lon="14.0777390">
        <ele>731.8</ele>
        <time>2019-08-07T08:54:03Z</time>
      </trkpt>
      <trkpt lat="48.6964280" lon="14.0777450">
        <ele>731.8</ele>
        <time>2019-08-07T08:54:04Z</time>
      </trkpt>
      <trkpt lat="48.6964280" lon="14.0777470">
        <ele>731.6</ele>
        <time>2019-08-07T08:54:05Z</time>
      </trkpt>
      <trkpt lat="48.6964280" lon="14.0777470">
        <ele>731.6</ele>
        <time>2019-08-07T08:54:06Z</time>
      </trkpt>
      <trkpt lat="48.6964280" lon="14.0777470">
        <ele>731.6</ele>
        <time>2019-08-07T08:54:07Z</time>
      </trkpt>
      <trkpt lat="48.6964280" lon="14.0777470">
        <ele>731.4</ele>
        <time>2019-08-07T08:54:08Z</time>
      </trkpt>
      <trkpt lat="48.6964060" lon="14.0776110">
        <ele>731.4</ele>
        <time>2019-08-07T09:00:32Z</time>
      </trkpt>
      <trkpt lat="48.6964030" lon="14.0776050">
        <ele>731.2</ele>
        <time>2019-08-07T09:00:33Z</time>
      </trkpt>
      <trkpt lat="48.6878130" lon="14.0678880">
        <ele>731.0</ele>
        <time>2019-08-07T09:15:14Z</time>
      </trkpt>
      <trkpt lat="48.6877900" lon="14.0678650">
        <ele>731.0</ele>
        <time>2019-08-07T09:15:15Z</time>
      </trkpt>
      <trkpt lat="48.6877710" lon="14.0678480">
        <ele>731.0</ele>
        <time>2019-08-07T09:15:16Z</time>
      </trkpt>
      <trkpt lat="48.6877530" lon="14.0678280">
        <ele>731.0</ele>
        <time>2019-08-07T09:15:17Z</time>
      </trkpt>
      <trkpt lat="48.6877350" lon="14.0678050">
        <ele>731.0</ele>
        <time>2019-08-07T09:15:18Z</time>
      </trkpt>
      <trkpt lat="48.6877130" lon="14.0677770">
        <ele>731.0</ele>
        <time>2019-08-07T09:15:19Z</time>
      </trkpt>
      <trkpt lat="48.6876910" lon="14.0677520">
        <ele>731.0</ele>
        <time>2019-08-07T09:15:20Z</time>
      </trkpt>
      <trkpt lat="48.6876680" lon="14.0677220">
        <ele>731.2</ele>
        <time>2019-08-07T09:15:21Z</time>
      </trkpt>
      <trkpt lat="48.6876440" lon="14.0676860">
        <ele>731.2</ele>
        <time>2019-08-07T09:15:22Z</time>
      </trkpt>
      <trkpt lat="48.6876210" lon="14.0676510">
        <ele>731.2</ele>
        <time>2019-08-07T09:15:23Z</time>
      </trkpt>
      <trkpt lat="48.6875970" lon="14.0676140">
        <ele>731.2</ele>
        <time>2019-08-07T09:15:24Z</time>
      </trkpt>
      <trkpt lat="48.6875740" lon="14.0675750">
        <ele>731.2</ele>
        <time>2019-08-07T09:15:25Z</time>
      </trkpt>
      <trkpt lat="48.6875540" lon="14.0675340">
        <ele>731.2</ele>
        <time>2019-08-07T09:15:26Z</time>
      </trkpt>
      <trkpt lat="48.6875350" lon="14.0674900">
        <ele>731.2</ele>
        <time>2019-08-07T09:15:27Z</time>
      </trkpt>
      <trkpt lat="48.6875170" lon="14.0674430">
        <ele>731.2</ele>
        <time>2019-08-07T09:15:28Z</time>
      </trkpt>
      <trkpt lat="48.6875000" lon="14.0673930">
        <ele>731.2</ele>
        <time>2019-08-07T09:15:29Z</time>
      </trkpt>
      <trkpt lat="48.6874870" lon="14.0673440">
        <ele>731.2</ele>
        <time>2019-08-07T09:15:30Z</time>
      </trkpt>
      <trkpt lat="48.6874720" lon="14.0672880">
        <ele>731.4</ele>
        <time>2019-08-07T09:15:31Z</time>
      </trkpt>
      <trkpt lat="48.6874590" lon="14.0672340">
        <ele>731.4</ele>
        <time>2019-08-07T09:15:32Z</time>
      </trkpt>
      <trkpt lat="48.6874470" lon="14.0671770">
        <ele>731.4</ele>
        <time>2019-08-07T09:15:33Z</time>
      </trkpt>
      <trkpt lat="48.6874390" lon="14.0671220">
        <ele>731.4</ele>
        <time>2019-08-07T09:15:34Z</time>
      </trkpt>
      <trkpt lat="48.6874310" lon="14.0670650">
        <ele>731.2</ele>
        <time>2019-08-07T09:15:35Z</time>
      </trkpt>
      <trkpt lat="48.6874260" lon="14.0670090">
        <ele>731.2</ele>
        <time>2019-08-07T09:15:36Z</time>
      </trkpt>
      <trkpt lat="48.6874210" lon="14.0669480">
        <ele>731.2</ele>
        <time>2019-08-07T09:15:37Z</time>
      </trkpt>
      <trkpt lat="48.6874160" lon="14.0668880">
        <ele>731.2</ele>
        <time>2019-08-07T09:15:38Z</time>
      </trkpt>
      <trkpt lat="48.6874100" lon="14.0668310">
        <ele>731.2</ele>
        <time>2019-08-07T09:15:39Z</time>
      </trkpt>
      <trkpt lat="48.6874040" lon="14.0667710">
        <ele>731.2</ele>
        <time>2019-08-07T09:15:40Z</time>
      </trkpt>
      <trkpt lat="48.6874000" lon="14.0667120">
        <ele>731.4</ele>
        <time>2019-08-07T09:15:41Z</time>
      </trkpt>
      <trkpt lat="48.6873960" lon="14.0666500">
        <ele>731.4</ele>
        <time>2019-08-07T09:15:42Z</time>
      </trkpt>
      <trkpt lat="48.6873910" lon="14.0665880">
        <ele>731.6</ele>
        <time>2019-08-07T09:15:43Z</time>
      </trkpt>
      <trkpt lat="48.6873880" lon="14.0665280">
        <ele>731.6</ele>
        <time>2019-08-07T09:15:44Z</time>
      </trkpt>
      <trkpt lat="48.6873850" lon="14.0664680">
        <ele>731.8</ele>
        <time>2019-08-07T09:15:45Z</time>
      </trkpt>
      <trkpt lat="48.6873800" lon="14.0664080">
        <ele>731.8</ele>
        <time>2019-08-07T09:15:46Z</time>
      </trkpt>
      <trkpt lat="48.6873760" lon="14.0663460">
        <ele>731.8</ele>
        <time>2019-08-07T09:15:47Z</time>
      </trkpt>
      <trkpt lat="48.6873740" lon="14.0662840">
        <ele>731.8</ele>
        <time>2019-08-07T09:15:48Z</time>
      </trkpt>
      <trkpt lat="48.6873680" lon="14.0662240">
        <ele>731.6</ele>
        <time>2019-08-07T09:15:49Z</time>
      </trkpt>
      <trkpt lat="48.6873610" lon="14.0661620">
        <ele>731.6</ele>
        <time>2019-08-07T09:15:50Z</time>
      </trkpt>
      <trkpt lat="48.6873550" lon="14.0661020">
        <ele>731.6</ele>
        <time>2019-08-07T09:15:51Z</time>
      </trkpt>
      <trkpt lat="48.6873490" lon="14.0660400">
        <ele>731.4</ele>
        <time>2019-08-07T09:15:52Z</time>
      </trkpt>
      <trkpt lat="48.6873440" lon="14.0659800">
        <ele>731.4</ele>
        <time>2019-08-07T09:15:53Z</time>
      </trkpt>
      <trkpt lat="48.6873390" lon="14.0659210">
        <ele>731.4</ele>
        <time>2019-08-07T09:15:54Z</time>
      </trkpt>
      <trkpt lat="48.6873310" lon="14.0658560">
        <ele>731.4</ele>
        <time>2019-08-07T09:15:55Z</time>
      </trkpt>
      <trkpt lat="48.6873260" lon="14.0657920">
        <ele>731.4</ele>
        <time>2019-08-07T09:15:56Z</time>
      </trkpt>
      <trkpt lat="48.6873230" lon="14.0657280">
        <ele>731.4</ele>
        <time>2019-08-07T09:15:57Z</time>
      </trkpt>
      <trkpt lat="48.6873200" lon="14.0656640">
        <ele>731.4</ele>
        <time>2019-08-07T09:15:58Z</time>
      </trkpt>
      <trkpt lat="48.6873180" lon="14.0655990">
        <ele>731.6</ele>
        <time>2019-08-07T09:15:59Z</time>
      </trkpt>
      <trkpt lat="48.6873160" lon="14.0655330">
        <ele>731.6</ele>
        <time>2019-08-07T09:16:00Z</time>
      </trkpt>
      <trkpt lat="48.6873130" lon="14.0654680">
        <ele>731.6</ele>
        <time>2019-08-07T09:16:01Z</time>
      </trkpt>
      <trkpt lat="48.6873060" lon="14.0654020">
        <ele>731.6</ele>
        <time>2019-08-07T09:16:02Z</time>
      </trkpt>
      <trkpt lat="48.6873010" lon="14.0653360">
        <ele>731.6</ele>
        <time>2019-08-07T09:16:03Z</time>
      </trkpt>
      <trkpt lat="48.6872950" lon="14.0652710">
        <ele>731.6</ele>
        <time>2019-08-07T09:16:04Z</time>
      </trkpt>
      <trkpt lat="48.6872910" lon="14.0652030">
        <ele>731.6</ele>
        <time>2019-08-07T09:16:05Z</time>
      </trkpt>
      <trkpt lat="48.6872880" lon="14.0651360">
        <ele>731.6</ele>
        <time>2019-08-07T09:16:06Z</time>
      </trkpt>
      <trkpt lat="48.6872860" lon="14.0650720">
        <ele>731.6</ele>
        <time>2019-08-07T09:16:07Z</time>
      </trkpt>
      <trkpt lat="48.6872830" lon="14.0650060">
        <ele>731.6</ele>
        <time>2019-08-07T09:16:08Z</time>
      </trkpt>
      <trkpt lat="48.6872800" lon="14.0649420">
        <ele>731.6</ele>
        <time>2019-08-07T09:16:09Z</time>
      </trkpt>
      <trkpt lat="48.6872760" lon="14.0648760">
        <ele>731.6</ele>
        <time>2019-08-07T09:16:10Z</time>
      </trkpt>
      <trkpt lat="48.6872710" lon="14.0648110">
        <ele>731.8</ele>
        <time>2019-08-07T09:16:11Z</time>
      </trkpt>
      <trkpt lat="48.6872680" lon="14.0647420">
        <ele>731.8</ele>
        <time>2019-08-07T09:16:12Z</time>
      </trkpt>
      <trkpt lat="48.6872660" lon="14.0646740">
        <ele>731.8</ele>
        <time>2019-08-07T09:16:13Z</time>
      </trkpt>
      <trkpt lat="48.6872600" lon="14.0646100">
        <ele>731.8</ele>
        <time>2019-08-07T09:16:14Z</time>
      </trkpt>
      <trkpt lat="48.6872550" lon="14.0645430">
        <ele>731.8</ele>
        <time>2019-08-07T09:16:15Z</time>
      </trkpt>
      <trkpt lat="48.6872530" lon="14.0644780">
        <ele>731.8</ele>
        <time>2019-08-07T09:16:16Z</time>
      </trkpt>
      <trkpt lat="48.6872490" lon="14.0644120">
        <ele>731.8</ele>
        <time>2019-08-07T09:16:17Z</time>
      </trkpt>
      <trkpt lat="48.6872430" lon="14.0643450">
        <ele>731.8</ele>
        <time>2019-08-07T09:16:18Z</time>
      </trkpt>
      <trkpt lat="48.6872360" lon="14.0642760">
        <ele>731.8</ele>
        <time>2019-08-07T09:16:19Z</time>
      </trkpt>
      <trkpt lat="48.6872290" lon="14.0642070">
        <ele>732.0</ele>
        <time>2019-08-07T09:16:20Z</time>
      </trkpt>
      <trkpt lat="48.6872210" lon="14.0641400">
        <ele>732.0</ele>
        <time>2019-08-07T09:16:21Z</time>
      </trkpt>
      <trkpt lat="48.6872180" lon="14.0640730">
        <ele>732.0</ele>
        <time>2019-08-07T09:16:22Z</time>
      </trkpt>
      <trkpt lat="48.6872150" lon="14.0640090">
        <ele>732.0</ele>
        <time>2019-08-07T09:16:23Z</time>
      </trkpt>
      <trkpt lat="48.6872150" lon="14.0639430">
        <ele>732.0</ele>
        <time>2019-08-07T09:16:24Z</time>
      </trkpt>
      <trkpt lat="48.6872150" lon="14.0638790">
        <ele>732.0</ele>
        <time>2019-08-07T09:16:25Z</time>
      </trkpt>
      <trkpt lat="48.6872130" lon="14.0638140">
        <ele>731.8</ele>
        <time>2019-08-07T09:16:26Z</time>
      </trkpt>
      <trkpt lat="48.6872090" lon="14.0637420">
        <ele>731.8</ele>
        <time>2019-08-07T09:16:27Z</time>
      </trkpt>
      <trkpt lat="48.6872040" lon="14.0636720">
        <ele>731.8</ele>
        <time>2019-08-07T09:16:28Z</time>
      </trkpt>
      <trkpt lat="48.6871960" lon="14.0635970">
        <ele>731.8</ele>
        <time>2019-08-07T09:16:29Z</time>
      </trkpt>
      <trkpt lat="48.6871890" lon="14.0635240">
        <ele>731.8</ele>
        <time>2019-08-07T09:16:30Z</time>
      </trkpt>
      <trkpt lat="48.6871850" lon="14.0634570">
        <ele>731.8</ele>
        <time>2019-08-07T09:16:31Z</time>
      </trkpt>
      <trkpt lat="48.6871810" lon="14.0633910">
        <ele>731.8</ele>
        <time>2019-08-07T09:16:32Z</time>
      </trkpt>
      <trkpt lat="48.6871760" lon="14.0633240">
        <ele>731.8</ele>
        <time>2019-08-07T09:16:33Z</time>
      </trkpt>
      <trkpt lat="48.6871730" lon="14.0632570">
        <ele>731.8</ele>
        <time>2019-08-07T09:16:34Z</time>
      </trkpt>
      <trkpt lat="48.6871730" lon="14.0631900">
        <ele>731.8</ele>
        <time>2019-08-07T09:16:35Z</time>
      </trkpt>
      <trkpt lat="48.6871720" lon="14.0631210">
        <ele>732.0</ele>
        <time>2019-08-07T09:16:36Z</time>
      </trkpt>
      <trkpt lat="48.6871720" lon="14.0630520">
        <ele>732.0</ele>
        <time>2019-08-07T09:16:37Z</time>
      </trkpt>
      <trkpt lat="48.6871690" lon="14.0629770">
        <ele>732.0</ele>
        <time>2019-08-07T09:16:38Z</time>
      </trkpt>
      <trkpt lat="48.6871650" lon="14.0629040">
        <ele>732.0</ele>
        <time>2019-08-07T09:16:39Z</time>
      </trkpt>
      <trkpt lat="48.6871600" lon="14.0628280">
        <ele>732.2</ele>
        <time>2019-08-07T09:16:40Z</time>
      </trkpt>
      <trkpt lat="48.6871560" lon="14.0627530">
        <ele>732.2</ele>
        <time>2019-08-07T09:16:41Z</time>
      </trkpt>
      <trkpt lat="48.6871490" lon="14.0626810">
        <ele>732.4</ele>
        <time>2019-08-07T09:16:42Z</time>
      </trkpt>
      <trkpt lat="48.6871410" lon="14.0626090">
        <ele>732.4</ele>
        <time>2019-08-07T09:16:43Z</time>
      </trkpt>
      <trkpt lat="48.6871310" lon="14.0625370">
        <ele>732.4</ele>
        <time>2019-08-07T09:16:44Z</time>
      </trkpt>
      <trkpt lat="48.6871220" lon="14.0624730">
        <ele>732.6</ele>
        <time>2019-08-07T09:16:45Z</time>
      </trkpt>
      <trkpt lat="48.6871130" lon="14.0624060">
        <ele>732.6</ele>
        <time>2019-08-07T09:16:46Z</time>
      </trkpt>
      <trkpt lat="48.6870990" lon="14.0623380">
        <ele>732.8</ele>
        <time>2019-08-07T09:16:47Z</time>
      </trkpt>
      <trkpt lat="48.6870830" lon="14.0622710">
        <ele>733.0</ele>
        <time>2019-08-07T09:16:48Z</time>
      </trkpt>
      <trkpt lat="48.6870700" lon="14.0622050">
        <ele>733.0</ele>
        <time>2019-08-07T09:16:49Z</time>
      </trkpt>
      <trkpt lat="48.6870510" lon="14.0621430">
        <ele>733.2</ele>
        <time>2019-08-07T09:16:50Z</time>
      </trkpt>
      <trkpt lat="48.6870290" lon="14.0620820">
        <ele>733.2</ele>
        <time>2019-08-07T09:16:51Z</time>
      </trkpt>
      <trkpt lat="48.6870050" lon="14.0620260">
        <ele>733.4</ele>
        <time>2019-08-07T09:16:52Z</time>
      </trkpt>
      <trkpt lat="48.6869770" lon="14.0619690">
        <ele>733.4</ele>
        <time>2019-08-07T09:16:53Z</time>
      </trkpt>
      <trkpt lat="48.6869460" lon="14.0619140">
        <ele>733.6</ele>
        <time>2019-08-07T09:16:54Z</time>
      </trkpt>
      <trkpt lat="48.6869170" lon="14.0618620">
        <ele>733.6</ele>
        <time>2019-08-07T09:16:55Z</time>
      </trkpt>
      <trkpt lat="48.6868850" lon="14.0618080">
        <ele>733.6</ele>
        <time>2019-08-07T09:16:56Z</time>
      </trkpt>
      <trkpt lat="48.6868510" lon="14.0617600">
        <ele>733.6</ele>
        <time>2019-08-07T09:16:57Z</time>
      </trkpt>
      <trkpt lat="48.6868130" lon="14.0617120">
        <ele>733.6</ele>
        <time>2019-08-07T09:16:58Z</time>
      </trkpt>
      <trkpt lat="48.6867780" lon="14.0616670">
        <ele>733.6</ele>
        <time>2019-08-07T09:16:59Z</time>
      </trkpt>
      <trkpt lat="48.6867410" lon="14.0616150">
        <ele>733.6</ele>
        <time>2019-08-07T09:17:00Z</time>
      </trkpt>
      <trkpt lat="48.6867020" lon="14.0615590">
        <ele>733.6</ele>
        <time>2019-08-07T09:17:01Z</time>
      </trkpt>
      <trkpt lat="48.6866640" lon="14.0615010">
        <ele>733.4</ele>
        <time>2019-08-07T09:17:02Z</time>
      </trkpt>
      <trkpt lat="48.6866200" lon="14.0614370">
        <ele>733.4</ele>
        <time>2019-08-07T09:17:03Z</time>
      </trkpt>
      <trkpt lat="48.6865770" lon="14.0613750">
        <ele>733.4</ele>
        <time>2019-08-07T09:17:04Z</time>
      </trkpt>
      <trkpt lat="48.6865320" lon="14.0613140">
        <ele>733.2</ele>
        <time>2019-08-07T09:17:05Z</time>
      </trkpt>
      <trkpt lat="48.6864840" lon="14.0612510">
        <ele>733.2</ele>
        <time>2019-08-07T09:17:06Z</time>
      </trkpt>
      <trkpt lat="48.6864370" lon="14.0611850">
        <ele>733.2</ele>
        <time>2019-08-07T09:17:07Z</time>
      </trkpt>
      <trkpt lat="48.6863960" lon="14.0611220">
        <ele>733.2</ele>
        <time>2019-08-07T09:17:08Z</time>
      </trkpt>
      <trkpt lat="48.6863530" lon="14.0610600">
        <ele>733.4</ele>
        <time>2019-08-07T09:17:09Z</time>
      </trkpt>
      <trkpt lat="48.6863090" lon="14.0609970">
        <ele>733.4</ele>
        <time>2019-08-07T09:17:10Z</time>
      </trkpt>
      <trkpt lat="48.6862700" lon="14.0609350">
        <ele>733.4</ele>
        <time>2019-08-07T09:17:11Z</time>
      </trkpt>
      <trkpt lat="48.6862290" lon="14.0608730">
        <ele>733.4</ele>
        <time>2019-08-07T09:17:12Z</time>
      </trkpt>
      <trkpt lat="48.6861890" lon="14.0608140">
        <ele>733.6</ele>
        <time>2019-08-07T09:17:13Z</time>
      </trkpt>
      <trkpt lat="48.6861490" lon="14.0607530">
        <ele>733.6</ele>
        <time>2019-08-07T09:17:14Z</time>
      </trkpt>
      <trkpt lat="48.6861070" lon="14.0606920">
        <ele>733.6</ele>
        <time>2019-08-07T09:17:15Z</time>
      </trkpt>
      <trkpt lat="48.6860660" lon="14.0606330">
        <ele>733.4</ele>
        <time>2019-08-07T09:17:16Z</time>
      </trkpt>
      <trkpt lat="48.6860240" lon="14.0605700">
        <ele>733.4</ele>
        <time>2019-08-07T09:17:17Z</time>
      </trkpt>
      <trkpt lat="48.6859860" lon="14.0605110">
        <ele>733.2</ele>
        <time>2019-08-07T09:17:18Z</time>
      </trkpt>
      <trkpt lat="48.6859420" lon="14.0604480">
        <ele>733.2</ele>
        <time>2019-08-07T09:17:19Z</time>
      </trkpt>
      <trkpt lat="48.6859020" lon="14.0603900">
        <ele>733.2</ele>
        <time>2019-08-07T09:17:20Z</time>
      </trkpt>
      <trkpt lat="48.6858610" lon="14.0603330">
        <ele>733.0</ele>
        <time>2019-08-07T09:17:21Z</time>
      </trkpt>
      <trkpt lat="48.6858200" lon="14.0602750">
        <ele>733.0</ele>
        <time>2019-08-07T09:17:22Z</time>
      </trkpt>
      <trkpt lat="48.6857790" lon="14.0602180">
        <ele>733.0</ele>
        <time>2019-08-07T09:17:23Z</time>
      </trkpt>
      <trkpt lat="48.6857410" lon="14.0601600">
        <ele>733.0</ele>
        <time>2019-08-07T09:17:24Z</time>
      </trkpt>
      <trkpt lat="48.6857030" lon="14.0601000">
        <ele>733.0</ele>
        <time>2019-08-07T09:17:25Z</time>
      </trkpt>
      <trkpt lat="48.6856670" lon="14.0600420">
        <ele>733.0</ele>
        <time>2019-08-07T09:17:26Z</time>
      </trkpt>
      <trkpt lat="48.6856290" lon="14.0599850">
        <ele>733.2</ele>
        <time>2019-08-07T09:17:27Z</time>
      </trkpt>
      <trkpt lat="48.6855920" lon="14.0599270">
        <ele>733.2</ele>
        <time>2019-08-07T09:17:28Z</time>
      </trkpt>
      <trkpt lat="48.6855540" lon="14.0598750">
        <ele>733.2</ele>
        <time>2019-08-07T09:17:29Z</time>
      </trkpt>
      <trkpt lat="48.6855160" lon="14.0598220">
        <ele>733.2</ele>
        <time>2019-08-07T09:17:30Z</time>
      </trkpt>
      <trkpt lat="48.6854800" lon="14.0597710">
        <ele>733.2</ele>
        <time>2019-08-07T09:17:31Z</time>
      </trkpt>
      <trkpt lat="48.6854460" lon="14.0597200">
        <ele>733.2</ele>
        <time>2019-08-07T09:17:32Z</time>
      </trkpt>
      <trkpt lat="48.6854130" lon="14.0596640">
        <ele>733.4</ele>
        <time>2019-08-07T09:17:33Z</time>
      </trkpt>
      <trkpt lat="48.6853800" lon="14.0596090">
        <ele>733.4</ele>
        <time>2019-08-07T09:17:34Z</time>
      </trkpt>
      <trkpt lat="48.6853470" lon="14.0595600">
        <ele>733.4</ele>
        <time>2019-08-07T09:17:35Z</time>
      </trkpt>
      <trkpt lat="48.6853140" lon="14.0595110">
        <ele>733.6</ele>
        <time>2019-08-07T09:17:36Z</time>
      </trkpt>
      <trkpt lat="48.6852800" lon="14.0594610">
        <ele>733.6</ele>
        <time>2019-08-07T09:17:37Z</time>
      </trkpt>
      <trkpt lat="48.6852460" lon="14.0594110">
        <ele>733.6</ele>
        <time>2019-08-07T09:17:38Z</time>
      </trkpt>
      <trkpt lat="48.6852120" lon="14.0593600">
        <ele>733.6</ele>
        <time>2019-08-07T09:17:39Z</time>
      </trkpt>
      <trkpt lat="48.6851750" lon="14.0593030">
        <ele>733.6</ele>
        <time>2019-08-07T09:17:40Z</time>
      </trkpt>
      <trkpt lat="48.6851400" lon="14.0592500">
        <ele>733.8</ele>
        <time>2019-08-07T09:17:41Z</time>
      </trkpt>
      <trkpt lat="48.6851040" lon="14.0591940">
        <ele>733.8</ele>
        <time>2019-08-07T09:17:42Z</time>
      </trkpt>
      <trkpt lat="48.6850690" lon="14.0591410">
        <ele>733.8</ele>
        <time>2019-08-07T09:17:43Z</time>
      </trkpt>
      <trkpt lat="48.6850360" lon="14.0590860">
        <ele>734.0</ele>
        <time>2019-08-07T09:17:44Z</time>
      </trkpt>
      <trkpt lat="48.6850010" lon="14.0590290">
        <ele>734.0</ele>
        <time>2019-08-07T09:17:45Z</time>
      </trkpt>
      <trkpt lat="48.6849640" lon="14.0589760">
        <ele>734.0</ele>
        <time>2019-08-07T09:17:46Z</time>
      </trkpt>
      <trkpt lat="48.6849280" lon="14.0589260">
        <ele>734.2</ele>
        <time>2019-08-07T09:17:47Z</time>
      </trkpt>
      <trkpt lat="48.6848930" lon="14.0588740">
        <ele>734.2</ele>
        <time>2019-08-07T09:17:48Z</time>
      </trkpt>
      <trkpt lat="48.6848580" lon="14.0588210">
        <ele>734.4</ele>
        <time>2019-08-07T09:17:49Z</time>
      </trkpt>
      <trkpt lat="48.6848230" lon="14.0587680">
        <ele>734.4</ele>
        <time>2019-08-07T09:17:50Z</time>
      </trkpt>
      <trkpt lat="48.6847900" lon="14.0587180">
        <ele>734.6</ele>
        <time>2019-08-07T09:17:51Z</time>
      </trkpt>
      <trkpt lat="48.6847550" lon="14.0586680">
        <ele>734.6</ele>
        <time>2019-08-07T09:17:52Z</time>
      </trkpt>
      <trkpt lat="48.6847210" lon="14.0586210">
        <ele>734.8</ele>
        <time>2019-08-07T09:17:53Z</time>
      </trkpt>
      <trkpt lat="48.6846870" lon="14.0585750">
        <ele>734.8</ele>
        <time>2019-08-07T09:17:54Z</time>
      </trkpt>
      <trkpt lat="48.6846560" lon="14.0585260">
        <ele>734.8</ele>
        <time>2019-08-07T09:17:55Z</time>
      </trkpt>
      <trkpt lat="48.6846250" lon="14.0584730">
        <ele>735.0</ele>
        <time>2019-08-07T09:17:56Z</time>
      </trkpt>
      <trkpt lat="48.6845900" lon="14.0584270">
        <ele>735.0</ele>
        <time>2019-08-07T09:17:57Z</time>
      </trkpt>
      <trkpt lat="48.6845560" lon="14.0583810">
        <ele>735.0</ele>
        <time>2019-08-07T09:17:58Z</time>
      </trkpt>
      <trkpt lat="48.6845220" lon="14.0583320">
        <ele>735.0</ele>
        <time>2019-08-07T09:17:59Z</time>
      </trkpt>
      <trkpt lat="48.6844880" lon="14.0582820">
        <ele>735.0</ele>
        <time>2019-08-07T09:18:00Z</time>
      </trkpt>
      <trkpt lat="48.6844540" lon="14.0582340">
        <ele>735.0</ele>
        <time>2019-08-07T09:18:01Z</time>
      </trkpt>
      <trkpt lat="48.6844180" lon="14.0581850">
        <ele>735.2</ele>
        <time>2019-08-07T09:18:02Z</time>
      </trkpt>
      <trkpt lat="48.6843830" lon="14.0581370">
        <ele>735.2</ele>
        <time>2019-08-07T09:18:03Z</time>
      </trkpt>
      <trkpt lat="48.6843480" lon="14.0580880">
        <ele>735.2</ele>
        <time>2019-08-07T09:18:04Z</time>
      </trkpt>
      <trkpt lat="48.6843160" lon="14.0580390">
        <ele>735.2</ele>
        <time>2019-08-07T09:18:05Z</time>
      </trkpt>
      <trkpt lat="48.6842830" lon="14.0579930">
        <ele>735.4</ele>
        <time>2019-08-07T09:18:06Z</time>
      </trkpt>
      <trkpt lat="48.6842480" lon="14.0579450">
        <ele>735.4</ele>
        <time>2019-08-07T09:18:07Z</time>
      </trkpt>
      <trkpt lat="48.6842150" lon="14.0578990">
        <ele>735.4</ele>
        <time>2019-08-07T09:18:08Z</time>
      </trkpt>
      <trkpt lat="48.6841820" lon="14.0578510">
        <ele>735.4</ele>
        <time>2019-08-07T09:18:09Z</time>
      </trkpt>
      <trkpt lat="48.6841500" lon="14.0578040">
        <ele>735.6</ele>
        <time>2019-08-07T09:18:10Z</time>
      </trkpt>
      <trkpt lat="48.6841190" lon="14.0577570">
        <ele>735.6</ele>
        <time>2019-08-07T09:18:11Z</time>
      </trkpt>
      <trkpt lat="48.6840880" lon="14.0577080">
        <ele>735.6</ele>
        <time>2019-08-07T09:18:12Z</time>
      </trkpt>
      <trkpt lat="48.6840550" lon="14.0576620">
        <ele>735.6</ele>
        <time>2019-08-07T09:18:13Z</time>
      </trkpt>
      <trkpt lat="48.6840220" lon="14.0576180">
        <ele>735.8</ele>
        <time>2019-08-07T09:18:14Z</time>
      </trkpt>
      <trkpt lat="48.6839880" lon="14.0575700">
        <ele>735.8</ele>
        <time>2019-08-07T09:18:15Z</time>
      </trkpt>
      <trkpt lat="48.6839550" lon="14.0575230">
        <ele>735.8</ele>
        <time>2019-08-07T09:18:16Z</time>
      </trkpt>
      <trkpt lat="48.6839230" lon="14.0574750">
        <ele>735.8</ele>
        <time>2019-08-07T09:18:17Z</time>
      </trkpt>
      <trkpt lat="48.6838920" lon="14.0574280">
        <ele>736.0</ele>
        <time>2019-08-07T09:18:18Z</time>
      </trkpt>
      <trkpt lat="48.6838620" lon="14.0573800">
        <ele>736.0</ele>
        <time>2019-08-07T09:18:19Z</time>
      </trkpt>
      <trkpt lat="48.6838300" lon="14.0573330">
        <ele>736.0</ele>
        <time>2019-08-07T09:18:20Z</time>
      </trkpt>
      <trkpt lat="48.6837960" lon="14.0572850">
        <ele>736.0</ele>
        <time>2019-08-07T09:18:21Z</time>
      </trkpt>
      <trkpt lat="48.6837650" lon="14.0572370">
        <ele>736.0</ele>
        <time>2019-08-07T09:18:22Z</time>
      </trkpt>
      <trkpt lat="48.6837330" lon="14.0571880">
        <ele>736.2</ele>
        <time>2019-08-07T09:18:23Z</time>
      </trkpt>
      <trkpt lat="48.6837010" lon="14.0571450">
        <ele>736.2</ele>
        <time>2019-08-07T09:18:24Z</time>
      </trkpt>
      <trkpt lat="48.6836690" lon="14.0570990">
        <ele>736.2</ele>
        <time>2019-08-07T09:18:25Z</time>
      </trkpt>
      <trkpt lat="48.6836370" lon="14.0570530">
        <ele>736.4</ele>
        <time>2019-08-07T09:18:26Z</time>
      </trkpt>
      <trkpt lat="48.6836070" lon="14.0570090">
        <ele>736.4</ele>
        <time>2019-08-07T09:18:27Z</time>
      </trkpt>
      <trkpt lat="48.6835770" lon="14.0569670">
        <ele>736.4</ele>
        <time>2019-08-07T09:18:28Z</time>
      </trkpt>
      <trkpt lat="48.6835450" lon="14.0569240">
        <ele>736.4</ele>
        <time>2019-08-07T09:18:29Z</time>
      </trkpt>
      <trkpt lat="48.6835130" lon="14.0568900">
        <ele>736.6</ele>
        <time>2019-08-07T09:18:30Z</time>
      </trkpt>
      <trkpt lat="48.6834800" lon="14.0568590">
        <ele>736.6</ele>
        <time>2019-08-07T09:18:31Z</time>
      </trkpt>
      <trkpt lat="48.6834470" lon="14.0568370">
        <ele>736.8</ele>
        <time>2019-08-07T09:18:32Z</time>
      </trkpt>
      <trkpt lat="48.6834120" lon="14.0568250">
        <ele>736.8</ele>
        <time>2019-08-07T09:18:33Z</time>
      </trkpt>
      <trkpt lat="48.6833780" lon="14.0568220">
        <ele>737.0</ele>
        <time>2019-08-07T09:18:34Z</time>
      </trkpt>
      <trkpt lat="48.6833490" lon="14.0568280">
        <ele>737.0</ele>
        <time>2019-08-07T09:18:35Z</time>
      </trkpt>
      <trkpt lat="48.6833220" lon="14.0568380">
        <ele>737.0</ele>
        <time>2019-08-07T09:18:36Z</time>
      </trkpt>
      <trkpt lat="48.6832990" lon="14.0568520">
        <ele>737.2</ele>
        <time>2019-08-07T09:18:37Z</time>
      </trkpt>
      <trkpt lat="48.6832740" lon="14.0568720">
        <ele>737.2</ele>
        <time>2019-08-07T09:18:38Z</time>
      </trkpt>
      <trkpt lat="48.6832460" lon="14.0568900">
        <ele>737.4</ele>
        <time>2019-08-07T09:18:39Z</time>
      </trkpt>
      <trkpt lat="48.6832150" lon="14.0569070">
        <ele>737.4</ele>
        <time>2019-08-07T09:18:40Z</time>
      </trkpt>
      <trkpt lat="48.6831830" lon="14.0569260">
        <ele>737.6</ele>
        <time>2019-08-07T09:18:41Z</time>
      </trkpt>
      <trkpt lat="48.6831500" lon="14.0569480">
        <ele>737.6</ele>
        <time>2019-08-07T09:18:42Z</time>
      </trkpt>
      <trkpt lat="48.6831160" lon="14.0569730">
        <ele>737.6</ele>
        <time>2019-08-07T09:18:43Z</time>
      </trkpt>
      <trkpt lat="48.6830810" lon="14.0570010">
        <ele>737.8</ele>
        <time>2019-08-07T09:18:44Z</time>
      </trkpt>
      <trkpt lat="48.6830440" lon="14.0570280">
        <ele>738.0</ele>
        <time>2019-08-07T09:18:45Z</time>
      </trkpt>
      <trkpt lat="48.6830060" lon="14.0570580">
        <ele>738.0</ele>
        <time>2019-08-07T09:18:46Z</time>
      </trkpt>
      <trkpt lat="48.6829690" lon="14.0570840">
        <ele>738.0</ele>
        <time>2019-08-07T09:18:47Z</time>
      </trkpt>
      <trkpt lat="48.6829290" lon="14.0571110">
        <ele>738.2</ele>
        <time>2019-08-07T09:18:48Z</time>
      </trkpt>
      <trkpt lat="48.6828900" lon="14.0571340">
        <ele>738.2</ele>
        <time>2019-08-07T09:18:49Z</time>
      </trkpt>
      <trkpt lat="48.6828510" lon="14.0571590">
        <ele>738.2</ele>
        <time>2019-08-07T09:18:50Z</time>
      </trkpt>
      <trkpt lat="48.6828090" lon="14.0571810">
        <ele>738.2</ele>
        <time>2019-08-07T09:18:51Z</time>
      </trkpt>
      <trkpt lat="48.6827670" lon="14.0572040">
        <ele>738.4</ele>
        <time>2019-08-07T09:18:52Z</time>
      </trkpt>
      <trkpt lat="48.6827260" lon="14.0572260">
        <ele>738.4</ele>
        <time>2019-08-07T09:18:53Z</time>
      </trkpt>
      <trkpt lat="48.6826840" lon="14.0572470">
        <ele>738.6</ele>
        <time>2019-08-07T09:18:54Z</time>
      </trkpt>
      <trkpt lat="48.6826400" lon="14.0572700">
        <ele>738.6</ele>
        <time>2019-08-07T09:18:55Z</time>
      </trkpt>
      <trkpt lat="48.6825990" lon="14.0572950">
        <ele>738.6</ele>
        <time>2019-08-07T09:18:56Z</time>
      </trkpt>
      <trkpt lat="48.6825570" lon="14.0573210">
        <ele>738.8</ele>
        <time>2019-08-07T09:18:57Z</time>
      </trkpt>
      <trkpt lat="48.6825160" lon="14.0573480">
        <ele>738.8</ele>
        <time>2019-08-07T09:18:58Z</time>
      </trkpt>
      <trkpt lat="48.6824740" lon="14.0573780">
        <ele>739.0</ele>
        <time>2019-08-07T09:18:59Z</time>
      </trkpt>
      <trkpt lat="48.6824340" lon="14.0574060">
        <ele>739.0</ele>
        <time>2019-08-07T09:19:00Z</time>
      </trkpt>
      <trkpt lat="48.6823940" lon="14.0574330">
        <ele>739.2</ele>
        <time>2019-08-07T09:19:01Z</time>
      </trkpt>
      <trkpt lat="48.6823520" lon="14.0574600">
        <ele>739.2</ele>
        <time>2019-08-07T09:19:02Z</time>
      </trkpt>
      <trkpt lat="48.6823100" lon="14.0574870">
        <ele>739.4</ele>
        <time>2019-08-07T09:19:03Z</time>
      </trkpt>
      <trkpt lat="48.6822690" lon="14.0575090">
        <ele>739.4</ele>
        <time>2019-08-07T09:19:04Z</time>
      </trkpt>
      <trkpt lat="48.6822280" lon="14.0575290">
        <ele>739.6</ele>
        <time>2019-08-07T09:19:05Z</time>
      </trkpt>
      <trkpt lat="48.6821880" lon="14.0575520">
        <ele>739.6</ele>
        <time>2019-08-07T09:19:06Z</time>
      </trkpt>
      <trkpt lat="48.6821480" lon="14.0575790">
        <ele>739.8</ele>
        <time>2019-08-07T09:19:07Z</time>
      </trkpt>
      <trkpt lat="48.6821090" lon="14.0576080">
        <ele>739.8</ele>
        <time>2019-08-07T09:19:08Z</time>
      </trkpt>
      <trkpt lat="48.6820670" lon="14.0576320">
        <ele>740.0</ele>
        <time>2019-08-07T09:19:09Z</time>
      </trkpt>
      <trkpt lat="48.6820250" lon="14.0576540">
        <ele>740.2</ele>
        <time>2019-08-07T09:19:10Z</time>
      </trkpt>
      <trkpt lat="48.6819650" lon="14.0576900">
        <ele>740.4</ele>
        <time>2019-08-07T09:19:11Z</time>
      </trkpt>
      <trkpt lat="48.6819440" lon="14.0577010">
        <ele>740.4</ele>
        <time>2019-08-07T09:19:12Z</time>
      </trkpt>
      <trkpt lat="48.6819040" lon="14.0577250">
        <ele>740.6</ele>
        <time>2019-08-07T09:19:13Z</time>
      </trkpt>
      <trkpt lat="48.6818640" lon="14.0577510">
        <ele>740.8</ele>
        <time>2019-08-07T09:19:14Z</time>
      </trkpt>
      <trkpt lat="48.6818250" lon="14.0577750">
        <ele>740.8</ele>
        <time>2019-08-07T09:19:15Z</time>
      </trkpt>
      <trkpt lat="48.6817860" lon="14.0578000">
        <ele>741.0</ele>
        <time>2019-08-07T09:19:16Z</time>
      </trkpt>
      <trkpt lat="48.6817470" lon="14.0578240">
        <ele>741.2</ele>
        <time>2019-08-07T09:19:17Z</time>
      </trkpt>
      <trkpt lat="48.6817060" lon="14.0578500">
        <ele>741.4</ele>
        <time>2019-08-07T09:19:18Z</time>
      </trkpt>
      <trkpt lat="48.6816660" lon="14.0578760">
        <ele>741.6</ele>
        <time>2019-08-07T09:19:19Z</time>
      </trkpt>
      <trkpt lat="48.6816250" lon="14.0579030">
        <ele>741.6</ele>
        <time>2019-08-07T09:19:20Z</time>
      </trkpt>
      <trkpt lat="48.6815840" lon="14.0579260">
        <ele>741.8</ele>
        <time>2019-08-07T09:19:21Z</time>
      </trkpt>
      <trkpt lat="48.6815450" lon="14.0579500">
        <ele>742.0</ele>
        <time>2019-08-07T09:19:22Z</time>
      </trkpt>
      <trkpt lat="48.6815020" lon="14.0579750">
        <ele>742.0</ele>
        <time>2019-08-07T09:19:23Z</time>
      </trkpt>
      <trkpt lat="48.6814600" lon="14.0580010">
        <ele>742.2</ele>
        <time>2019-08-07T09:19:24Z</time>
      </trkpt>
      <trkpt lat="48.6814190" lon="14.0580260">
        <ele>742.2</ele>
        <time>2019-08-07T09:19:25Z</time>
      </trkpt>
      <trkpt lat="48.6813780" lon="14.0580520">
        <ele>742.4</ele>
        <time>2019-08-07T09:19:26Z</time>
      </trkpt>
      <trkpt lat="48.6813350" lon="14.0580800">
        <ele>742.6</ele>
        <time>2019-08-07T09:19:27Z</time>
      </trkpt>
      <trkpt lat="48.6812940" lon="14.0581060">
        <ele>742.6</ele>
        <time>2019-08-07T09:19:28Z</time>
      </trkpt>
      <trkpt lat="48.6812540" lon="14.0581330">
        <ele>742.8</ele>
        <time>2019-08-07T09:19:29Z</time>
      </trkpt>
      <trkpt lat="48.6812150" lon="14.0581590">
        <ele>742.8</ele>
        <time>2019-08-07T09:19:30Z</time>
      </trkpt>
      <trkpt lat="48.6811750" lon="14.0581830">
        <ele>743.0</ele>
        <time>2019-08-07T09:19:31Z</time>
      </trkpt>
      <trkpt lat="48.6811330" lon="14.0582070">
        <ele>743.0</ele>
        <time>2019-08-07T09:19:32Z</time>
      </trkpt>
      <trkpt lat="48.6810930" lon="14.0582290">
        <ele>743.2</ele>
        <time>2019-08-07T09:19:33Z</time>
      </trkpt>
      <trkpt lat="48.6810530" lon="14.0582510">
        <ele>743.2</ele>
        <time>2019-08-07T09:19:34Z</time>
      </trkpt>
      <trkpt lat="48.6810140" lon="14.0582750">
        <ele>743.4</ele>
        <time>2019-08-07T09:19:35Z</time>
      </trkpt>
      <trkpt lat="48.6809720" lon="14.0583030">
        <ele>743.4</ele>
        <time>2019-08-07T09:19:36Z</time>
      </trkpt>
      <trkpt lat="48.6809340" lon="14.0583280">
        <ele>743.4</ele>
        <time>2019-08-07T09:19:37Z</time>
      </trkpt>
      <trkpt lat="48.6808960" lon="14.0583510">
        <ele>743.6</ele>
        <time>2019-08-07T09:19:38Z</time>
      </trkpt>
      <trkpt lat="48.6808570" lon="14.0583720">
        <ele>743.6</ele>
        <time>2019-08-07T09:19:39Z</time>
      </trkpt>
      <trkpt lat="48.6808160" lon="14.0584010">
        <ele>743.6</ele>
        <time>2019-08-07T09:19:40Z</time>
      </trkpt>
      <trkpt lat="48.6807760" lon="14.0584290">
        <ele>743.6</ele>
        <time>2019-08-07T09:19:41Z</time>
      </trkpt>
      <trkpt lat="48.6807350" lon="14.0584530">
        <ele>743.6</ele>
        <time>2019-08-07T09:19:42Z</time>
      </trkpt>
      <trkpt lat="48.6806940" lon="14.0584770">
        <ele>743.8</ele>
        <time>2019-08-07T09:19:43Z</time>
      </trkpt>
      <trkpt lat="48.6806540" lon="14.0584970">
        <ele>743.8</ele>
        <time>2019-08-07T09:19:44Z</time>
      </trkpt>
      <trkpt lat="48.6806140" lon="14.0585160">
        <ele>743.8</ele>
        <time>2019-08-07T09:19:45Z</time>
      </trkpt>
      <trkpt lat="48.6805740" lon="14.0585400">
        <ele>743.8</ele>
        <time>2019-08-07T09:19:46Z</time>
      </trkpt>
      <trkpt lat="48.6805330" lon="14.0585680">
        <ele>743.8</ele>
        <time>2019-08-07T09:19:47Z</time>
      </trkpt>
      <trkpt lat="48.6804950" lon="14.0585950">
        <ele>743.8</ele>
        <time>2019-08-07T09:19:48Z</time>
      </trkpt>
      <trkpt lat="48.6804610" lon="14.0586230">
        <ele>744.0</ele>
        <time>2019-08-07T09:19:49Z</time>
      </trkpt>
      <trkpt lat="48.6804280" lon="14.0586500">
        <ele>743.8</ele>
        <time>2019-08-07T09:19:50Z</time>
      </trkpt>
      <trkpt lat="48.6803940" lon="14.0586760">
        <ele>743.8</ele>
        <time>2019-08-07T09:19:51Z</time>
      </trkpt>
      <trkpt lat="48.6803580" lon="14.0587020">
        <ele>743.8</ele>
        <time>2019-08-07T09:19:52Z</time>
      </trkpt>
      <trkpt lat="48.6803240" lon="14.0587300">
        <ele>743.8</ele>
        <time>2019-08-07T09:19:53Z</time>
      </trkpt>
      <trkpt lat="48.6802870" lon="14.0587570">
        <ele>743.8</ele>
        <time>2019-08-07T09:19:54Z</time>
      </trkpt>
      <trkpt lat="48.6802520" lon="14.0587790">
        <ele>743.6</ele>
        <time>2019-08-07T09:19:55Z</time>
      </trkpt>
      <trkpt lat="48.6802170" lon="14.0588060">
        <ele>743.6</ele>
        <time>2019-08-07T09:19:56Z</time>
      </trkpt>
      <trkpt lat="48.6801840" lon="14.0588340">
        <ele>743.6</ele>
        <time>2019-08-07T09:19:57Z</time>
      </trkpt>
      <trkpt lat="48.6801460" lon="14.0588600">
        <ele>743.6</ele>
        <time>2019-08-07T09:19:58Z</time>
      </trkpt>
      <trkpt lat="48.6801040" lon="14.0588880">
        <ele>743.6</ele>
        <time>2019-08-07T09:19:59Z</time>
      </trkpt>
      <trkpt lat="48.6800570" lon="14.0589140">
        <ele>743.4</ele>
        <time>2019-08-07T09:20:00Z</time>
      </trkpt>
      <trkpt lat="48.6800110" lon="14.0589400">
        <ele>743.4</ele>
        <time>2019-08-07T09:20:01Z</time>
      </trkpt>
      <trkpt lat="48.6799590" lon="14.0589690">
        <ele>743.2</ele>
        <time>2019-08-07T09:20:02Z</time>
      </trkpt>
      <trkpt lat="48.6799090" lon="14.0590010">
        <ele>743.2</ele>
        <time>2019-08-07T09:20:03Z</time>
      </trkpt>
      <trkpt lat="48.6798530" lon="14.0590350">
        <ele>743.2</ele>
        <time>2019-08-07T09:20:04Z</time>
      </trkpt>
      <trkpt lat="48.6797960" lon="14.0590650">
        <ele>743.0</ele>
        <time>2019-08-07T09:20:05Z</time>
      </trkpt>
      <trkpt lat="48.6797350" lon="14.0590990">
        <ele>743.0</ele>
        <time>2019-08-07T09:20:06Z</time>
      </trkpt>
      <trkpt lat="48.6796770" lon="14.0591300">
        <ele>743.0</ele>
        <time>2019-08-07T09:20:07Z</time>
      </trkpt>
      <trkpt lat="48.6796150" lon="14.0591690">
        <ele>742.8</ele>
        <time>2019-08-07T09:20:08Z</time>
      </trkpt>
      <trkpt lat="48.6795490" lon="14.0592050">
        <ele>742.8</ele>
        <time>2019-08-07T09:20:09Z</time>
      </trkpt>
      <trkpt lat="48.6794860" lon="14.0592380">
        <ele>742.6</ele>
        <time>2019-08-07T09:20:10Z</time>
      </trkpt>
      <trkpt lat="48.6794240" lon="14.0592660">
        <ele>742.4</ele>
        <time>2019-08-07T09:20:11Z</time>
      </trkpt>
      <trkpt lat="48.6793580" lon="14.0593010">
        <ele>742.4</ele>
        <time>2019-08-07T09:20:12Z</time>
      </trkpt>
      <trkpt lat="48.6792950" lon="14.0593400">
        <ele>742.2</ele>
        <time>2019-08-07T09:20:13Z</time>
      </trkpt>
      <trkpt lat="48.6792290" lon="14.0593840">
        <ele>742.0</ele>
        <time>2019-08-07T09:20:14Z</time>
      </trkpt>
      <trkpt lat="48.6791640" lon="14.0594300">
        <ele>741.8</ele>
        <time>2019-08-07T09:20:15Z</time>
      </trkpt>
      <trkpt lat="48.6790960" lon="14.0594710">
        <ele>741.8</ele>
        <time>2019-08-07T09:20:16Z</time>
      </trkpt>
      <trkpt lat="48.6790270" lon="14.0595100">
        <ele>741.4</ele>
        <time>2019-08-07T09:20:17Z</time>
      </trkpt>
      <trkpt lat="48.6789570" lon="14.0595530">
        <ele>741.2</ele>
        <time>2019-08-07T09:20:18Z</time>
      </trkpt>
      <trkpt lat="48.6788820" lon="14.0595950">
        <ele>741.0</ele>
        <time>2019-08-07T09:20:19Z</time>
      </trkpt>
      <trkpt lat="48.6788050" lon="14.0596400">
        <ele>740.8</ele>
        <time>2019-08-07T09:20:20Z</time>
      </trkpt>
      <trkpt lat="48.6787290" lon="14.0596810">
        <ele>740.6</ele>
        <time>2019-08-07T09:20:21Z</time>
      </trkpt>
      <trkpt lat="48.6786510" lon="14.0597230">
        <ele>740.4</ele>
        <time>2019-08-07T09:20:22Z</time>
      </trkpt>
      <trkpt lat="48.6785760" lon="14.0597650">
        <ele>740.2</ele>
        <time>2019-08-07T09:20:23Z</time>
      </trkpt>
      <trkpt lat="48.6784990" lon="14.0598100">
        <ele>739.8</ele>
        <time>2019-08-07T09:20:24Z</time>
      </trkpt>
      <trkpt lat="48.6784180" lon="14.0598580">
        <ele>739.6</ele>
        <time>2019-08-07T09:20:25Z</time>
      </trkpt>
      <trkpt lat="48.6783390" lon="14.0599030">
        <ele>739.4</ele>
        <time>2019-08-07T09:20:26Z</time>
      </trkpt>
      <trkpt lat="48.6782590" lon="14.0599500">
        <ele>739.0</ele>
        <time>2019-08-07T09:20:27Z</time>
      </trkpt>
      <trkpt lat="48.6781790" lon="14.0600020">
        <ele>738.8</ele>
        <time>2019-08-07T09:20:28Z</time>
      </trkpt>
      <trkpt lat="48.6780990" lon="14.0600510">
        <ele>738.6</ele>
        <time>2019-08-07T09:20:29Z</time>
      </trkpt>
      <trkpt lat="48.6780200" lon="14.0600980">
        <ele>738.6</ele>
        <time>2019-08-07T09:20:30Z</time>
      </trkpt>
      <trkpt lat="48.6779340" lon="14.0601470">
        <ele>738.2</ele>
        <time>2019-08-07T09:20:31Z</time>
      </trkpt>
      <trkpt lat="48.6778530" lon="14.0601970">
        <ele>738.0</ele>
        <time>2019-08-07T09:20:32Z</time>
      </trkpt>
      <trkpt lat="48.6777720" lon="14.0602460">
        <ele>737.8</ele>
        <time>2019-08-07T09:20:33Z</time>
      </trkpt>
      <trkpt lat="48.6776880" lon="14.0602990">
        <ele>737.6</ele>
        <time>2019-08-07T09:20:34Z</time>
      </trkpt>
      <trkpt lat="48.6776070" lon="14.0603490">
        <ele>737.6</ele>
        <time>2019-08-07T09:20:35Z</time>
      </trkpt>
      <trkpt lat="48.6775240" lon="14.0603970">
        <ele>737.6</ele>
        <time>2019-08-07T09:20:36Z</time>
      </trkpt>
      <trkpt lat="48.6774400" lon="14.0604450">
        <ele>737.8</ele>
        <time>2019-08-07T09:20:37Z</time>
      </trkpt>
      <trkpt lat="48.6773560" lon="14.0604930">
        <ele>737.6</ele>
        <time>2019-08-07T09:20:38Z</time>
      </trkpt>
      <trkpt lat="48.6772750" lon="14.0605330">
        <ele>737.2</ele>
        <time>2019-08-07T09:20:39Z</time>
      </trkpt>
      <trkpt lat="48.6771920" lon="14.0605770">
        <ele>736.8</ele>
        <time>2019-08-07T09:20:40Z</time>
      </trkpt>
      <trkpt lat="48.6771130" lon="14.0606240">
        <ele>736.2</ele>
        <time>2019-08-07T09:20:41Z</time>
      </trkpt>
      <trkpt lat="48.6770350" lon="14.0606740">
        <ele>735.8</ele>
        <time>2019-08-07T09:20:42Z</time>
      </trkpt>
      <trkpt lat="48.6769580" lon="14.0607220">
        <ele>735.4</ele>
        <time>2019-08-07T09:20:43Z</time>
      </trkpt>
      <trkpt lat="48.6768850" lon="14.0607680">
        <ele>735.2</ele>
        <time>2019-08-07T09:20:44Z</time>
      </trkpt>
      <trkpt lat="48.6768100" lon="14.0608150">
        <ele>735.0</ele>
        <time>2019-08-07T09:20:45Z</time>
      </trkpt>
      <trkpt lat="48.6767350" lon="14.0608620">
        <ele>735.0</ele>
        <time>2019-08-07T09:20:46Z</time>
      </trkpt>
      <trkpt lat="48.6766620" lon="14.0609070">
        <ele>734.8</ele>
        <time>2019-08-07T09:20:47Z</time>
      </trkpt>
      <trkpt lat="48.6765930" lon="14.0609520">
        <ele>734.6</ele>
        <time>2019-08-07T09:20:48Z</time>
      </trkpt>
      <trkpt lat="48.6765210" lon="14.0609960">
        <ele>734.6</ele>
        <time>2019-08-07T09:20:49Z</time>
      </trkpt>
      <trkpt lat="48.6764510" lon="14.0610400">
        <ele>734.6</ele>
        <time>2019-08-07T09:20:50Z</time>
      </trkpt>
      <trkpt lat="48.6763830" lon="14.0610830">
        <ele>734.6</ele>
        <time>2019-08-07T09:20:51Z</time>
      </trkpt>
      <trkpt lat="48.6763170" lon="14.0611260">
        <ele>734.4</ele>
        <time>2019-08-07T09:20:52Z</time>
      </trkpt>
      <trkpt lat="48.6762470" lon="14.0611700">
        <ele>734.4</ele>
        <time>2019-08-07T09:20:53Z</time>
      </trkpt>
      <trkpt lat="48.6761810" lon="14.0612110">
        <ele>734.4</ele>
        <time>2019-08-07T09:20:54Z</time>
      </trkpt>
      <trkpt lat="48.6761150" lon="14.0612520">
        <ele>734.4</ele>
        <time>2019-08-07T09:20:55Z</time>
      </trkpt>
      <trkpt lat="48.6760520" lon="14.0612890">
        <ele>734.4</ele>
        <time>2019-08-07T09:20:56Z</time>
      </trkpt>
      <trkpt lat="48.6759910" lon="14.0613270">
        <ele>734.4</ele>
        <time>2019-08-07T09:20:57Z</time>
      </trkpt>
      <trkpt lat="48.6759240" lon="14.0613660">
        <ele>734.4</ele>
        <time>2019-08-07T09:20:58Z</time>
      </trkpt>
      <trkpt lat="48.6758620" lon="14.0614040">
        <ele>734.4</ele>
        <time>2019-08-07T09:20:59Z</time>
      </trkpt>
      <trkpt lat="48.6758000" lon="14.0614440">
        <ele>734.4</ele>
        <time>2019-08-07T09:21:00Z</time>
      </trkpt>
      <trkpt lat="48.6757400" lon="14.0614830">
        <ele>734.6</ele>
        <time>2019-08-07T09:21:01Z</time>
      </trkpt>
      <trkpt lat="48.6756810" lon="14.0615200">
        <ele>734.6</ele>
        <time>2019-08-07T09:21:02Z</time>
      </trkpt>
      <trkpt lat="48.6756220" lon="14.0615610">
        <ele>734.6</ele>
        <time>2019-08-07T09:21:03Z</time>
      </trkpt>
      <trkpt lat="48.6755630" lon="14.0616030">
        <ele>734.4</ele>
        <time>2019-08-07T09:21:04Z</time>
      </trkpt>
      <trkpt lat="48.6755050" lon="14.0616460">
        <ele>734.4</ele>
        <time>2019-08-07T09:21:05Z</time>
      </trkpt>
      <trkpt lat="48.6754480" lon="14.0616840">
        <ele>734.4</ele>
        <time>2019-08-07T09:21:06Z</time>
      </trkpt>
      <trkpt lat="48.6753900" lon="14.0617210">
        <ele>734.4</ele>
        <time>2019-08-07T09:21:07Z</time>
      </trkpt>
      <trkpt lat="48.6753350" lon="14.0617550">
        <ele>734.4</ele>
        <time>2019-08-07T09:21:08Z</time>
      </trkpt>
      <trkpt lat="48.6752770" lon="14.0617900">
        <ele>734.4</ele>
        <time>2019-08-07T09:21:09Z</time>
      </trkpt>
      <trkpt lat="48.6752220" lon="14.0618200">
        <ele>734.4</ele>
        <time>2019-08-07T09:21:10Z</time>
      </trkpt>
      <trkpt lat="48.6751640" lon="14.0618540">
        <ele>734.4</ele>
        <time>2019-08-07T09:21:11Z</time>
      </trkpt>
      <trkpt lat="48.6751070" lon="14.0618900">
        <ele>734.4</ele>
        <time>2019-08-07T09:21:12Z</time>
      </trkpt>
      <trkpt lat="48.6750510" lon="14.0619250">
        <ele>734.4</ele>
        <time>2019-08-07T09:21:13Z</time>
      </trkpt>
      <trkpt lat="48.6749950" lon="14.0619610">
        <ele>734.4</ele>
        <time>2019-08-07T09:21:14Z</time>
      </trkpt>
      <trkpt lat="48.6749370" lon="14.0620010">
        <ele>734.4</ele>
        <time>2019-08-07T09:21:15Z</time>
      </trkpt>
      <trkpt lat="48.6748790" lon="14.0620390">
        <ele>734.4</ele>
        <time>2019-08-07T09:21:16Z</time>
      </trkpt>
      <trkpt lat="48.6748200" lon="14.0620790">
        <ele>734.4</ele>
        <time>2019-08-07T09:21:17Z</time>
      </trkpt>
      <trkpt lat="48.6747630" lon="14.0621160">
        <ele>734.4</ele>
        <time>2019-08-07T09:21:18Z</time>
      </trkpt>
      <trkpt lat="48.6747070" lon="14.0621520">
        <ele>734.2</ele>
        <time>2019-08-07T09:21:19Z</time>
      </trkpt>
      <trkpt lat="48.6746520" lon="14.0621870">
        <ele>734.2</ele>
        <time>2019-08-07T09:21:20Z</time>
      </trkpt>
      <trkpt lat="48.6745940" lon="14.0622260">
        <ele>734.2</ele>
        <time>2019-08-07T09:21:21Z</time>
      </trkpt>
      <trkpt lat="48.6745380" lon="14.0622640">
        <ele>734.0</ele>
        <time>2019-08-07T09:21:22Z</time>
      </trkpt>
      <trkpt lat="48.6744810" lon="14.0623030">
        <ele>734.0</ele>
        <time>2019-08-07T09:21:23Z</time>
      </trkpt>
      <trkpt lat="48.6744260" lon="14.0623410">
        <ele>734.2</ele>
        <time>2019-08-07T09:21:24Z</time>
      </trkpt>
      <trkpt lat="48.6743700" lon="14.0623810">
        <ele>734.2</ele>
        <time>2019-08-07T09:21:25Z</time>
      </trkpt>
      <trkpt lat="48.6743170" lon="14.0624230">
        <ele>734.2</ele>
        <time>2019-08-07T09:21:26Z</time>
      </trkpt>
      <trkpt lat="48.6742640" lon="14.0624650">
        <ele>734.2</ele>
        <time>2019-08-07T09:21:27Z</time>
      </trkpt>
      <trkpt lat="48.6742130" lon="14.0625070">
        <ele>734.2</ele>
        <time>2019-08-07T09:21:28Z</time>
      </trkpt>
      <trkpt lat="48.6741610" lon="14.0625500">
        <ele>734.2</ele>
        <time>2019-08-07T09:21:29Z</time>
      </trkpt>
      <trkpt lat="48.6741120" lon="14.0625900">
        <ele>734.2</ele>
        <time>2019-08-07T09:21:30Z</time>
      </trkpt>
      <trkpt lat="48.6740630" lon="14.0626310">
        <ele>734.2</ele>
        <time>2019-08-07T09:21:31Z</time>
      </trkpt>
      <trkpt lat="48.6740150" lon="14.0626730">
        <ele>734.2</ele>
        <time>2019-08-07T09:21:32Z</time>
      </trkpt>
      <trkpt lat="48.6739700" lon="14.0627170">
        <ele>734.2</ele>
        <time>2019-08-07T09:21:33Z</time>
      </trkpt>
      <trkpt lat="48.6739260" lon="14.0627640">
        <ele>734.0</ele>
        <time>2019-08-07T09:21:34Z</time>
      </trkpt>
      <trkpt lat="48.6738840" lon="14.0628170">
        <ele>734.0</ele>
        <time>2019-08-07T09:21:35Z</time>
      </trkpt>
      <trkpt lat="48.6738480" lon="14.0628670">
        <ele>734.0</ele>
        <time>2019-08-07T09:21:36Z</time>
      </trkpt>
      <trkpt lat="48.6738090" lon="14.0629130">
        <ele>734.0</ele>
        <time>2019-08-07T09:21:37Z</time>
      </trkpt>
      <trkpt lat="48.6737670" lon="14.0629640">
        <ele>734.0</ele>
        <time>2019-08-07T09:21:38Z</time>
      </trkpt>
      <trkpt lat="48.6737290" lon="14.0630150">
        <ele>734.0</ele>
        <time>2019-08-07T09:21:39Z</time>
      </trkpt>
      <trkpt lat="48.6736890" lon="14.0630730">
        <ele>734.0</ele>
        <time>2019-08-07T09:21:40Z</time>
      </trkpt>
      <trkpt lat="48.6736530" lon="14.0631360">
        <ele>734.0</ele>
        <time>2019-08-07T09:21:41Z</time>
      </trkpt>
      <trkpt lat="48.6736160" lon="14.0632040">
        <ele>734.2</ele>
        <time>2019-08-07T09:21:42Z</time>
      </trkpt>
      <trkpt lat="48.6735800" lon="14.0632720">
        <ele>734.2</ele>
        <time>2019-08-07T09:21:43Z</time>
      </trkpt>
      <trkpt lat="48.6735430" lon="14.0633390">
        <ele>734.2</ele>
        <time>2019-08-07T09:21:44Z</time>
      </trkpt>
      <trkpt lat="48.6735080" lon="14.0634040">
        <ele>734.2</ele>
        <time>2019-08-07T09:21:45Z</time>
      </trkpt>
      <trkpt lat="48.6734720" lon="14.0634740">
        <ele>734.2</ele>
        <time>2019-08-07T09:21:46Z</time>
      </trkpt>
      <trkpt lat="48.6734420" lon="14.0635440">
        <ele>734.2</ele>
        <time>2019-08-07T09:21:47Z</time>
      </trkpt>
      <trkpt lat="48.6734100" lon="14.0636210">
        <ele>734.2</ele>
        <time>2019-08-07T09:21:48Z</time>
      </trkpt>
      <trkpt lat="48.6733800" lon="14.0637010">
        <ele>734.2</ele>
        <time>2019-08-07T09:21:49Z</time>
      </trkpt>
      <trkpt lat="48.6733500" lon="14.0637860">
        <ele>734.2</ele>
        <time>2019-08-07T09:21:50Z</time>
      </trkpt>
      <trkpt lat="48.6733220" lon="14.0638700">
        <ele>734.2</ele>
        <time>2019-08-07T09:21:51Z</time>
      </trkpt>
      <trkpt lat="48.6732900" lon="14.0639570">
        <ele>734.2</ele>
        <time>2019-08-07T09:21:52Z</time>
      </trkpt>
      <trkpt lat="48.6732580" lon="14.0640440">
        <ele>734.2</ele>
        <time>2019-08-07T09:21:53Z</time>
      </trkpt>
      <trkpt lat="48.6732290" lon="14.0641300">
        <ele>734.2</ele>
        <time>2019-08-07T09:21:54Z</time>
      </trkpt>
      <trkpt lat="48.6732050" lon="14.0642100">
        <ele>734.2</ele>
        <time>2019-08-07T09:21:55Z</time>
      </trkpt>
      <trkpt lat="48.6731800" lon="14.0642920">
        <ele>734.4</ele>
        <time>2019-08-07T09:21:56Z</time>
      </trkpt>
      <trkpt lat="48.6731610" lon="14.0643730">
        <ele>734.4</ele>
        <time>2019-08-07T09:21:57Z</time>
      </trkpt>
      <trkpt lat="48.6731430" lon="14.0644580">
        <ele>734.2</ele>
        <time>2019-08-07T09:21:58Z</time>
      </trkpt>
      <trkpt lat="48.6731260" lon="14.0645410">
        <ele>734.2</ele>
        <time>2019-08-07T09:21:59Z</time>
      </trkpt>
      <trkpt lat="48.6731080" lon="14.0646280">
        <ele>734.2</ele>
        <time>2019-08-07T09:22:00Z</time>
      </trkpt>
      <trkpt lat="48.6730890" lon="14.0647260">
        <ele>734.2</ele>
        <time>2019-08-07T09:22:01Z</time>
      </trkpt>
      <trkpt lat="48.6730700" lon="14.0648280">
        <ele>734.2</ele>
        <time>2019-08-07T09:22:02Z</time>
      </trkpt>
      <trkpt lat="48.6730530" lon="14.0649290">
        <ele>734.2</ele>
        <time>2019-08-07T09:22:03Z</time>
      </trkpt>
      <trkpt lat="48.6730370" lon="14.0650280">
        <ele>734.2</ele>
        <time>2019-08-07T09:22:04Z</time>
      </trkpt>
      <trkpt lat="48.6730220" lon="14.0651300">
        <ele>734.2</ele>
        <time>2019-08-07T09:22:05Z</time>
      </trkpt>
      <trkpt lat="48.6730070" lon="14.0652320">
        <ele>734.4</ele>
        <time>2019-08-07T09:22:06Z</time>
      </trkpt>
      <trkpt lat="48.6729940" lon="14.0653350">
        <ele>734.4</ele>
        <time>2019-08-07T09:22:07Z</time>
      </trkpt>
      <trkpt lat="48.6729800" lon="14.0654390">
        <ele>734.4</ele>
        <time>2019-08-07T09:22:08Z</time>
      </trkpt>
      <trkpt lat="48.6729610" lon="14.0655370">
        <ele>734.2</ele>
        <time>2019-08-07T09:22:09Z</time>
      </trkpt>
      <trkpt lat="48.6729430" lon="14.0656330">
        <ele>734.4</ele>
        <time>2019-08-07T09:22:10Z</time>
      </trkpt>
      <trkpt lat="48.6729230" lon="14.0657300">
        <ele>734.4</ele>
        <time>2019-08-07T09:22:11Z</time>
      </trkpt>
      <trkpt lat="48.6729050" lon="14.0658290">
        <ele>734.4</ele>
        <time>2019-08-07T09:22:12Z</time>
      </trkpt>
      <trkpt lat="48.6728880" lon="14.0659250">
        <ele>734.6</ele>
        <time>2019-08-07T09:22:13Z</time>
      </trkpt>
      <trkpt lat="48.6728750" lon="14.0660220">
        <ele>734.6</ele>
        <time>2019-08-07T09:22:14Z</time>
      </trkpt>
      <trkpt lat="48.6728600" lon="14.0661190">
        <ele>734.6</ele>
        <time>2019-08-07T09:22:15Z</time>
      </trkpt>
      <trkpt lat="48.6728450" lon="14.0662140">
        <ele>734.8</ele>
        <time>2019-08-07T09:22:16Z</time>
      </trkpt>
      <trkpt lat="48.6728280" lon="14.0663110">
        <ele>734.8</ele>
        <time>2019-08-07T09:22:17Z</time>
      </trkpt>
      <trkpt lat="48.6728140" lon="14.0664070">
        <ele>734.8</ele>
        <time>2019-08-07T09:22:18Z</time>
      </trkpt>
      <trkpt lat="48.6728020" lon="14.0665010">
        <ele>734.8</ele>
        <time>2019-08-07T09:22:19Z</time>
      </trkpt>
      <trkpt lat="48.6727870" lon="14.0665910">
        <ele>735.0</ele>
        <time>2019-08-07T09:22:20Z</time>
      </trkpt>
      <trkpt lat="48.6727700" lon="14.0666840">
        <ele>735.0</ele>
        <time>2019-08-07T09:22:21Z</time>
      </trkpt>
      <trkpt lat="48.6727530" lon="14.0667770">
        <ele>735.0</ele>
        <time>2019-08-07T09:22:22Z</time>
      </trkpt>
      <trkpt lat="48.6727390" lon="14.0668670">
        <ele>735.2</ele>
        <time>2019-08-07T09:22:23Z</time>
      </trkpt>
      <trkpt lat="48.6727220" lon="14.0669570">
        <ele>735.2</ele>
        <time>2019-08-07T09:22:24Z</time>
      </trkpt>
      <trkpt lat="48.6727090" lon="14.0670480">
        <ele>735.2</ele>
        <time>2019-08-07T09:22:25Z</time>
      </trkpt>
      <trkpt lat="48.6726970" lon="14.0671390">
        <ele>735.2</ele>
        <time>2019-08-07T09:22:26Z</time>
      </trkpt>
      <trkpt lat="48.6726810" lon="14.0672330">
        <ele>735.2</ele>
        <time>2019-08-07T09:22:27Z</time>
      </trkpt>
      <trkpt lat="48.6726630" lon="14.0673230">
        <ele>735.0</ele>
        <time>2019-08-07T09:22:28Z</time>
      </trkpt>
      <trkpt lat="48.6726450" lon="14.0674120">
        <ele>735.0</ele>
        <time>2019-08-07T09:22:29Z</time>
      </trkpt>
      <trkpt lat="48.6726280" lon="14.0675020">
        <ele>734.8</ele>
        <time>2019-08-07T09:22:30Z</time>
      </trkpt>
      <trkpt lat="48.6726120" lon="14.0675890">
        <ele>734.8</ele>
        <time>2019-08-07T09:22:31Z</time>
      </trkpt>
      <trkpt lat="48.6726000" lon="14.0676800">
        <ele>734.8</ele>
        <time>2019-08-07T09:22:32Z</time>
      </trkpt>
      <trkpt lat="48.6725890" lon="14.0677720">
        <ele>734.8</ele>
        <time>2019-08-07T09:22:33Z</time>
      </trkpt>
      <trkpt lat="48.6725790" lon="14.0678600">
        <ele>735.0</ele>
        <time>2019-08-07T09:22:34Z</time>
      </trkpt>
      <trkpt lat="48.6725720" lon="14.0679450">
        <ele>735.0</ele>
        <time>2019-08-07T09:22:35Z</time>
      </trkpt>
      <trkpt lat="48.6725620" lon="14.0680340">
        <ele>735.0</ele>
        <time>2019-08-07T09:22:36Z</time>
      </trkpt>
      <trkpt lat="48.6725520" lon="14.0681140">
        <ele>735.0</ele>
        <time>2019-08-07T09:22:37Z</time>
      </trkpt>
      <trkpt lat="48.6725440" lon="14.0681950">
        <ele>735.2</ele>
        <time>2019-08-07T09:22:38Z</time>
      </trkpt>
      <trkpt lat="48.6725320" lon="14.0682720">
        <ele>735.2</ele>
        <time>2019-08-07T09:22:39Z</time>
      </trkpt>
      <trkpt lat="48.6725220" lon="14.0683500">
        <ele>735.4</ele>
        <time>2019-08-07T09:22:40Z</time>
      </trkpt>
      <trkpt lat="48.6725110" lon="14.0684300">
        <ele>735.4</ele>
        <time>2019-08-07T09:22:41Z</time>
      </trkpt>
      <trkpt lat="48.6724920" lon="14.0685080">
        <ele>735.4</ele>
        <time>2019-08-07T09:22:42Z</time>
      </trkpt>
      <trkpt lat="48.6724680" lon="14.0685850">
        <ele>735.4</ele>
        <time>2019-08-07T09:22:43Z</time>
      </trkpt>
      <trkpt lat="48.6724440" lon="14.0686630">
        <ele>735.6</ele>
        <time>2019-08-07T09:22:44Z</time>
      </trkpt>
      <trkpt lat="48.6724250" lon="14.0687400">
        <ele>735.6</ele>
        <time>2019-08-07T09:22:45Z</time>
      </trkpt>
      <trkpt lat="48.6724100" lon="14.0688180">
        <ele>735.6</ele>
        <time>2019-08-07T09:22:46Z</time>
      </trkpt>
      <trkpt lat="48.6723950" lon="14.0688940">
        <ele>735.8</ele>
        <time>2019-08-07T09:22:47Z</time>
      </trkpt>
      <trkpt lat="48.6723820" lon="14.0689700">
        <ele>735.8</ele>
        <time>2019-08-07T09:22:48Z</time>
      </trkpt>
      <trkpt lat="48.6723700" lon="14.0690450">
        <ele>735.8</ele>
        <time>2019-08-07T09:22:49Z</time>
      </trkpt>
      <trkpt lat="48.6723550" lon="14.0691280">
        <ele>735.8</ele>
        <time>2019-08-07T09:22:50Z</time>
      </trkpt>
      <trkpt lat="48.6723440" lon="14.0692050">
        <ele>735.8</ele>
        <time>2019-08-07T09:22:51Z</time>
      </trkpt>
      <trkpt lat="48.6723390" lon="14.0692780">
        <ele>735.8</ele>
        <time>2019-08-07T09:22:52Z</time>
      </trkpt>
      <trkpt lat="48.6723310" lon="14.0693530">
        <ele>735.8</ele>
        <time>2019-08-07T09:22:53Z</time>
      </trkpt>
      <trkpt lat="48.6723240" lon="14.0694250">
        <ele>736.0</ele>
        <time>2019-08-07T09:22:54Z</time>
      </trkpt>
      <trkpt lat="48.6723140" lon="14.0694890">
        <ele>736.0</ele>
        <time>2019-08-07T09:22:55Z</time>
      </trkpt>
      <trkpt lat="48.6723020" lon="14.0695580">
        <ele>736.0</ele>
        <time>2019-08-07T09:22:56Z</time>
      </trkpt>
      <trkpt lat="48.6722950" lon="14.0696330">
        <ele>736.2</ele>
        <time>2019-08-07T09:22:57Z</time>
      </trkpt>
      <trkpt lat="48.6722890" lon="14.0697120">
        <ele>736.2</ele>
        <time>2019-08-07T09:22:58Z</time>
      </trkpt>
      <trkpt lat="48.6722800" lon="14.0697860">
        <ele>736.2</ele>
        <time>2019-08-07T09:22:59Z</time>
      </trkpt>
      <trkpt lat="48.6722670" lon="14.0698610">
        <ele>736.4</ele>
        <time>2019-08-07T09:23:00Z</time>
      </trkpt>
      <trkpt lat="48.6722420" lon="14.0699480">
        <ele>736.4</ele>
        <time>2019-08-07T09:23:01Z</time>
      </trkpt>
      <trkpt lat="48.6722160" lon="14.0700360">
        <ele>736.6</ele>
        <time>2019-08-07T09:23:02Z</time>
      </trkpt>
      <trkpt lat="48.6721910" lon="14.0701230">
        <ele>736.6</ele>
        <time>2019-08-07T09:23:03Z</time>
      </trkpt>
      <trkpt lat="48.6721690" lon="14.0701880">
        <ele>736.8</ele>
        <time>2019-08-07T09:23:04Z</time>
      </trkpt>
      <trkpt lat="48.6721710" lon="14.0702540">
        <ele>736.8</ele>
        <time>2019-08-07T09:23:05Z</time>
      </trkpt>
      <trkpt lat="48.6721730" lon="14.0703210">
        <ele>737.0</ele>
        <time>2019-08-07T09:23:06Z</time>
      </trkpt>
      <trkpt lat="48.6721660" lon="14.0703850">
        <ele>737.0</ele>
        <time>2019-08-07T09:23:07Z</time>
      </trkpt>
      <trkpt lat="48.6721590" lon="14.0704450">
        <ele>737.2</ele>
        <time>2019-08-07T09:23:08Z</time>
      </trkpt>
      <trkpt lat="48.6721340" lon="14.0704740">
        <ele>737.2</ele>
        <time>2019-08-07T09:23:09Z</time>
      </trkpt>
      <trkpt lat="48.6721150" lon="14.0705410">
        <ele>737.4</ele>
        <time>2019-08-07T09:23:10Z</time>
      </trkpt>
      <trkpt lat="48.6720990" lon="14.0706020">
        <ele>737.6</ele>
        <time>2019-08-07T09:23:11Z</time>
      </trkpt>
      <trkpt lat="48.6720900" lon="14.0706620">
        <ele>737.6</ele>
        <time>2019-08-07T09:23:12Z</time>
      </trkpt>
      <trkpt lat="48.6720600" lon="14.0707250">
        <ele>737.8</ele>
        <time>2019-08-07T09:23:13Z</time>
      </trkpt>
      <trkpt lat="48.6720320" lon="14.0707810">
        <ele>738.0</ele>
        <time>2019-08-07T09:23:14Z</time>
      </trkpt>
      <trkpt lat="48.6720100" lon="14.0708360">
        <ele>738.2</ele>
        <time>2019-08-07T09:23:15Z</time>
      </trkpt>
      <trkpt lat="48.6719930" lon="14.0708950">
        <ele>738.2</ele>
        <time>2019-08-07T09:23:16Z</time>
      </trkpt>
      <trkpt lat="48.6719760" lon="14.0709610">
        <ele>738.4</ele>
        <time>2019-08-07T09:23:17Z</time>
      </trkpt>
      <trkpt lat="48.6719600" lon="14.0710250">
        <ele>738.6</ele>
        <time>2019-08-07T09:23:18Z</time>
      </trkpt>
      <trkpt lat="48.6719440" lon="14.0710810">
        <ele>738.6</ele>
        <time>2019-08-07T09:23:19Z</time>
      </trkpt>
      <trkpt lat="48.6719260" lon="14.0711380">
        <ele>738.8</ele>
        <time>2019-08-07T09:23:20Z</time>
      </trkpt>
      <trkpt lat="48.6719080" lon="14.0711880">
        <ele>739.0</ele>
        <time>2019-08-07T09:23:21Z</time>
      </trkpt>
      <trkpt lat="48.6718920" lon="14.0712570">
        <ele>739.0</ele>
        <time>2019-08-07T09:23:22Z</time>
      </trkpt>
      <trkpt lat="48.6718760" lon="14.0713280">
        <ele>739.2</ele>
        <time>2019-08-07T09:23:23Z</time>
      </trkpt>
      <trkpt lat="48.6718530" lon="14.0714100">
        <ele>739.2</ele>
        <time>2019-08-07T09:23:24Z</time>
      </trkpt>
      <trkpt lat="48.6718240" lon="14.0714900">
        <ele>739.4</ele>
        <time>2019-08-07T09:23:25Z</time>
      </trkpt>
      <trkpt lat="48.6718070" lon="14.0715550">
        <ele>739.4</ele>
        <time>2019-08-07T09:23:26Z</time>
      </trkpt>
      <trkpt lat="48.6717910" lon="14.0716140">
        <ele>739.6</ele>
        <time>2019-08-07T09:23:27Z</time>
      </trkpt>
      <trkpt lat="48.6717720" lon="14.0716720">
        <ele>739.6</ele>
        <time>2019-08-07T09:23:28Z</time>
      </trkpt>
      <trkpt lat="48.6717580" lon="14.0717290">
        <ele>739.8</ele>
        <time>2019-08-07T09:23:29Z</time>
      </trkpt>
      <trkpt lat="48.6717460" lon="14.0717840">
        <ele>739.8</ele>
        <time>2019-08-07T09:23:30Z</time>
      </trkpt>
      <trkpt lat="48.6717360" lon="14.0718310">
        <ele>740.0</ele>
        <time>2019-08-07T09:23:31Z</time>
      </trkpt>
      <trkpt lat="48.6717160" lon="14.0718870">
        <ele>740.0</ele>
        <time>2019-08-07T09:23:32Z</time>
      </trkpt>
      <trkpt lat="48.6716980" lon="14.0719510">
        <ele>740.0</ele>
        <time>2019-08-07T09:23:33Z</time>
      </trkpt>
      <trkpt lat="48.6716810" lon="14.0720100">
        <ele>740.2</ele>
        <time>2019-08-07T09:23:34Z</time>
      </trkpt>
      <trkpt lat="48.6716650" lon="14.0720730">
        <ele>740.2</ele>
        <time>2019-08-07T09:23:35Z</time>
      </trkpt>
      <trkpt lat="48.6716530" lon="14.0721330">
        <ele>740.2</ele>
        <time>2019-08-07T09:23:36Z</time>
      </trkpt>
      <trkpt lat="48.6716370" lon="14.0721880">
        <ele>740.4</ele>
        <time>2019-08-07T09:23:37Z</time>
      </trkpt>
      <trkpt lat="48.6716200" lon="14.0722480">
        <ele>740.4</ele>
        <time>2019-08-07T09:23:38Z</time>
      </trkpt>
      <trkpt lat="48.6716070" lon="14.0723100">
        <ele>740.4</ele>
        <time>2019-08-07T09:23:39Z</time>
      </trkpt>
      <trkpt lat="48.6715810" lon="14.0723860">
        <ele>740.4</ele>
        <time>2019-08-07T09:23:40Z</time>
      </trkpt>
      <trkpt lat="48.6715520" lon="14.0724640">
        <ele>740.4</ele>
        <time>2019-08-07T09:23:41Z</time>
      </trkpt>
      <trkpt lat="48.6715240" lon="14.0725490">
        <ele>740.4</ele>
        <time>2019-08-07T09:23:42Z</time>
      </trkpt>
      <trkpt lat="48.6714970" lon="14.0726290">
        <ele>740.4</ele>
        <time>2019-08-07T09:23:43Z</time>
      </trkpt>
      <trkpt lat="48.6714700" lon="14.0727090">
        <ele>740.4</ele>
        <time>2019-08-07T09:23:44Z</time>
      </trkpt>
      <trkpt lat="48.6714470" lon="14.0727930">
        <ele>740.4</ele>
        <time>2019-08-07T09:23:45Z</time>
      </trkpt>
      <trkpt lat="48.6714250" lon="14.0728850">
        <ele>740.2</ele>
        <time>2019-08-07T09:23:46Z</time>
      </trkpt>
      <trkpt lat="48.6713970" lon="14.0729840">
        <ele>740.2</ele>
        <time>2019-08-07T09:23:47Z</time>
      </trkpt>
      <trkpt lat="48.6713760" lon="14.0730740">
        <ele>740.2</ele>
        <time>2019-08-07T09:23:48Z</time>
      </trkpt>
      <trkpt lat="48.6713590" lon="14.0731640">
        <ele>740.0</ele>
        <time>2019-08-07T09:23:49Z</time>
      </trkpt>
      <trkpt lat="48.6713480" lon="14.0732530">
        <ele>739.8</ele>
        <time>2019-08-07T09:23:50Z</time>
      </trkpt>
      <trkpt lat="48.6713350" lon="14.0733470">
        <ele>739.8</ele>
        <time>2019-08-07T09:23:51Z</time>
      </trkpt>
      <trkpt lat="48.6713230" lon="14.0734460">
        <ele>739.6</ele>
        <time>2019-08-07T09:23:52Z</time>
      </trkpt>
      <trkpt lat="48.6713060" lon="14.0735520">
        <ele>739.4</ele>
        <time>2019-08-07T09:23:53Z</time>
      </trkpt>
      <trkpt lat="48.6712860" lon="14.0736640">
        <ele>739.2</ele>
        <time>2019-08-07T09:23:54Z</time>
      </trkpt>
      <trkpt lat="48.6712630" lon="14.0737660">
        <ele>739.0</ele>
        <time>2019-08-07T09:23:55Z</time>
      </trkpt>
      <trkpt lat="48.6712300" lon="14.0738810">
        <ele>738.8</ele>
        <time>2019-08-07T09:23:56Z</time>
      </trkpt>
      <trkpt lat="48.6711850" lon="14.0740170">
        <ele>738.6</ele>
        <time>2019-08-07T09:23:57Z</time>
      </trkpt>
      <trkpt lat="48.6711430" lon="14.0741580">
        <ele>738.4</ele>
        <time>2019-08-07T09:23:58Z</time>
      </trkpt>
      <trkpt lat="48.6710930" lon="14.0743110">
        <ele>738.2</ele>
        <time>2019-08-07T09:23:59Z</time>
      </trkpt>
      <trkpt lat="48.6710280" lon="14.0744690">
        <ele>737.8</ele>
        <time>2019-08-07T09:24:00Z</time>
      </trkpt>
      <trkpt lat="48.6709720" lon="14.0746120">
        <ele>737.6</ele>
        <time>2019-08-07T09:24:01Z</time>
      </trkpt>
      <trkpt lat="48.6709130" lon="14.0747630">
        <ele>737.4</ele>
        <time>2019-08-07T09:24:02Z</time>
      </trkpt>
      <trkpt lat="48.6708610" lon="14.0749050">
        <ele>737.2</ele>
        <time>2019-08-07T09:24:03Z</time>
      </trkpt>
      <trkpt lat="48.6708130" lon="14.0750500">
        <ele>737.0</ele>
        <time>2019-08-07T09:24:04Z</time>
      </trkpt>
      <trkpt lat="48.6707690" lon="14.0751970">
        <ele>736.6</ele>
        <time>2019-08-07T09:24:05Z</time>
      </trkpt>
      <trkpt lat="48.6707290" lon="14.0753360">
        <ele>736.6</ele>
        <time>2019-08-07T09:24:06Z</time>
      </trkpt>
      <trkpt lat="48.6706920" lon="14.0754760">
        <ele>736.4</ele>
        <time>2019-08-07T09:24:07Z</time>
      </trkpt>
      <trkpt lat="48.6706560" lon="14.0756140">
        <ele>736.4</ele>
        <time>2019-08-07T09:24:08Z</time>
      </trkpt>
      <trkpt lat="48.6706180" lon="14.0757550">
        <ele>736.2</ele>
        <time>2019-08-07T09:24:09Z</time>
      </trkpt>
      <trkpt lat="48.6705860" lon="14.0758820">
        <ele>736.2</ele>
        <time>2019-08-07T09:24:10Z</time>
      </trkpt>
      <trkpt lat="48.6705430" lon="14.0760180">
        <ele>736.0</ele>
        <time>2019-08-07T09:24:11Z</time>
      </trkpt>
      <trkpt lat="48.6705050" lon="14.0761450">
        <ele>735.8</ele>
        <time>2019-08-07T09:24:12Z</time>
      </trkpt>
      <trkpt lat="48.6704750" lon="14.0762700">
        <ele>735.6</ele>
        <time>2019-08-07T09:24:13Z</time>
      </trkpt>
      <trkpt lat="48.6704510" lon="14.0763900">
        <ele>735.6</ele>
        <time>2019-08-07T09:24:14Z</time>
      </trkpt>
      <trkpt lat="48.6704270" lon="14.0765010">
        <ele>735.4</ele>
        <time>2019-08-07T09:24:15Z</time>
      </trkpt>
      <trkpt lat="48.6704020" lon="14.0766090">
        <ele>735.2</ele>
        <time>2019-08-07T09:24:16Z</time>
      </trkpt>
      <trkpt lat="48.6703770" lon="14.0767210">
        <ele>735.2</ele>
        <time>2019-08-07T09:24:17Z</time>
      </trkpt>
      <trkpt lat="48.6703520" lon="14.0768300">
        <ele>735.0</ele>
        <time>2019-08-07T09:24:18Z</time>
      </trkpt>
      <trkpt lat="48.6703240" lon="14.0769410">
        <ele>735.0</ele>
        <time>2019-08-07T09:24:19Z</time>
      </trkpt>
      <trkpt lat="48.6702970" lon="14.0770530">
        <ele>735.0</ele>
        <time>2019-08-07T09:24:20Z</time>
      </trkpt>
      <trkpt lat="48.6702700" lon="14.0771670">
        <ele>735.0</ele>
        <time>2019-08-07T09:24:21Z</time>
      </trkpt>
      <trkpt lat="48.6702380" lon="14.0772800">
        <ele>735.0</ele>
        <time>2019-08-07T09:24:22Z</time>
      </trkpt>
      <trkpt lat="48.6702070" lon="14.0773980">
        <ele>735.0</ele>
        <time>2019-08-07T09:24:23Z</time>
      </trkpt>
      <trkpt lat="48.6701720" lon="14.0775250">
        <ele>735.0</ele>
        <time>2019-08-07T09:24:24Z</time>
      </trkpt>
      <trkpt lat="48.6701480" lon="14.0776440">
        <ele>735.0</ele>
        <time>2019-08-07T09:24:25Z</time>
      </trkpt>
      <trkpt lat="48.6701180" lon="14.0777640">
        <ele>735.0</ele>
        <time>2019-08-07T09:24:26Z</time>
      </trkpt>
      <trkpt lat="48.6700890" lon="14.0778810">
        <ele>735.0</ele>
        <time>2019-08-07T09:24:27Z</time>
      </trkpt>
      <trkpt lat="48.6700600" lon="14.0779940">
        <ele>735.0</ele>
        <time>2019-08-07T09:24:28Z</time>
      </trkpt>
      <trkpt lat="48.6700320" lon="14.0781130">
        <ele>735.0</ele>
        <time>2019-08-07T09:24:29Z</time>
      </trkpt>
      <trkpt lat="48.6700030" lon="14.0782340">
        <ele>735.2</ele>
        <time>2019-08-07T09:24:30Z</time>
      </trkpt>
      <trkpt lat="48.6699720" lon="14.0783490">
        <ele>735.2</ele>
        <time>2019-08-07T09:24:31Z</time>
      </trkpt>
      <trkpt lat="48.6699360" lon="14.0784630">
        <ele>735.2</ele>
        <time>2019-08-07T09:24:32Z</time>
      </trkpt>
      <trkpt lat="48.6698970" lon="14.0785810">
        <ele>735.4</ele>
        <time>2019-08-07T09:24:33Z</time>
      </trkpt>
      <trkpt lat="48.6698570" lon="14.0786900">
        <ele>735.4</ele>
        <time>2019-08-07T09:24:34Z</time>
      </trkpt>
      <trkpt lat="48.6698190" lon="14.0788040">
        <ele>735.4</ele>
        <time>2019-08-07T09:24:35Z</time>
      </trkpt>
      <trkpt lat="48.6697850" lon="14.0789220">
        <ele>735.4</ele>
        <time>2019-08-07T09:24:36Z</time>
      </trkpt>
      <trkpt lat="48.6697540" lon="14.0790300">
        <ele>735.4</ele>
        <time>2019-08-07T09:24:37Z</time>
      </trkpt>
      <trkpt lat="48.6697270" lon="14.0791420">
        <ele>735.4</ele>
        <time>2019-08-07T09:24:38Z</time>
      </trkpt>
      <trkpt lat="48.6696990" lon="14.0792490">
        <ele>735.4</ele>
        <time>2019-08-07T09:24:39Z</time>
      </trkpt>
      <trkpt lat="48.6696700" lon="14.0793630">
        <ele>735.4</ele>
        <time>2019-08-07T09:24:40Z</time>
      </trkpt>
      <trkpt lat="48.6696400" lon="14.0794730">
        <ele>735.6</ele>
        <time>2019-08-07T09:24:41Z</time>
      </trkpt>
      <trkpt lat="48.6696090" lon="14.0795820">
        <ele>735.6</ele>
        <time>2019-08-07T09:24:42Z</time>
      </trkpt>
      <trkpt lat="48.6695800" lon="14.0796960">
        <ele>735.6</ele>
        <time>2019-08-07T09:24:43Z</time>
      </trkpt>
      <trkpt lat="48.6695520" lon="14.0798020">
        <ele>735.6</ele>
        <time>2019-08-07T09:24:44Z</time>
      </trkpt>
      <trkpt lat="48.6695230" lon="14.0799110">
        <ele>735.6</ele>
        <time>2019-08-07T09:24:45Z</time>
      </trkpt>
      <trkpt lat="48.6694900" lon="14.0800400">
        <ele>735.8</ele>
        <time>2019-08-07T09:24:46Z</time>
      </trkpt>
      <trkpt lat="48.6694620" lon="14.0801680">
        <ele>735.8</ele>
        <time>2019-08-07T09:24:47Z</time>
      </trkpt>
      <trkpt lat="48.6694340" lon="14.0803010">
        <ele>735.8</ele>
        <time>2019-08-07T09:24:48Z</time>
      </trkpt>
      <trkpt lat="48.6694060" lon="14.0804410">
        <ele>736.0</ele>
        <time>2019-08-07T09:24:49Z</time>
      </trkpt>
      <trkpt lat="48.6693820" lon="14.0805650">
        <ele>736.0</ele>
        <time>2019-08-07T09:24:50Z</time>
      </trkpt>
      <trkpt lat="48.6693610" lon="14.0806890">
        <ele>736.0</ele>
        <time>2019-08-07T09:24:51Z</time>
      </trkpt>
      <trkpt lat="48.6693410" lon="14.0808050">
        <ele>736.2</ele>
        <time>2019-08-07T09:24:52Z</time>
      </trkpt>
      <trkpt lat="48.6693210" lon="14.0809210">
        <ele>736.0</ele>
        <time>2019-08-07T09:24:53Z</time>
      </trkpt>
      <trkpt lat="48.6693050" lon="14.0810360">
        <ele>736.0</ele>
        <time>2019-08-07T09:24:54Z</time>
      </trkpt>
      <trkpt lat="48.6692890" lon="14.0811440">
        <ele>736.0</ele>
        <time>2019-08-07T09:24:55Z</time>
      </trkpt>
      <trkpt lat="48.6692750" lon="14.0812490">
        <ele>736.0</ele>
        <time>2019-08-07T09:24:56Z</time>
      </trkpt>
      <trkpt lat="48.6692600" lon="14.0813630">
        <ele>736.0</ele>
        <time>2019-08-07T09:24:57Z</time>
      </trkpt>
      <trkpt lat="48.6692450" lon="14.0814720">
        <ele>736.2</ele>
        <time>2019-08-07T09:24:58Z</time>
      </trkpt>
      <trkpt lat="48.6692320" lon="14.0815800">
        <ele>736.2</ele>
        <time>2019-08-07T09:24:59Z</time>
      </trkpt>
      <trkpt lat="48.6692200" lon="14.0816920">
        <ele>736.2</ele>
        <time>2019-08-07T09:25:00Z</time>
      </trkpt>
      <trkpt lat="48.6692090" lon="14.0818030">
        <ele>736.4</ele>
        <time>2019-08-07T09:25:01Z</time>
      </trkpt>
      <trkpt lat="48.6692010" lon="14.0819110">
        <ele>736.6</ele>
        <time>2019-08-07T09:25:02Z</time>
      </trkpt>
      <trkpt lat="48.6691920" lon="14.0820210">
        <ele>736.6</ele>
        <time>2019-08-07T09:25:03Z</time>
      </trkpt>
      <trkpt lat="48.6691840" lon="14.0821330">
        <ele>736.6</ele>
        <time>2019-08-07T09:25:04Z</time>
      </trkpt>
      <trkpt lat="48.6691770" lon="14.0822370">
        <ele>736.8</ele>
        <time>2019-08-07T09:25:05Z</time>
      </trkpt>
      <trkpt lat="48.6691660" lon="14.0823410">
        <ele>737.0</ele>
        <time>2019-08-07T09:25:06Z</time>
      </trkpt>
      <trkpt lat="48.6691580" lon="14.0824400">
        <ele>737.2</ele>
        <time>2019-08-07T09:25:07Z</time>
      </trkpt>
      <trkpt lat="48.6691490" lon="14.0825460">
        <ele>737.4</ele>
        <time>2019-08-07T09:25:08Z</time>
      </trkpt>
      <trkpt lat="48.6691390" lon="14.0826530">
        <ele>737.6</ele>
        <time>2019-08-07T09:25:09Z</time>
      </trkpt>
      <trkpt lat="48.6691290" lon="14.0827570">
        <ele>737.8</ele>
        <time>2019-08-07T09:25:10Z</time>
      </trkpt>
      <trkpt lat="48.6691190" lon="14.0828600">
        <ele>738.0</ele>
        <time>2019-08-07T09:25:11Z</time>
      </trkpt>
      <trkpt lat="48.6691090" lon="14.0829650">
        <ele>738.2</ele>
        <time>2019-08-07T09:25:12Z</time>
      </trkpt>
      <trkpt lat="48.6690960" lon="14.0830690">
        <ele>738.4</ele>
        <time>2019-08-07T09:25:13Z</time>
      </trkpt>
      <trkpt lat="48.6690890" lon="14.0831690">
        <ele>738.6</ele>
        <time>2019-08-07T09:25:14Z</time>
      </trkpt>
      <trkpt lat="48.6690780" lon="14.0832710">
        <ele>738.8</ele>
        <time>2019-08-07T09:25:15Z</time>
      </trkpt>
      <trkpt lat="48.6690710" lon="14.0833720">
        <ele>738.8</ele>
        <time>2019-08-07T09:25:16Z</time>
      </trkpt>
      <trkpt lat="48.6690660" lon="14.0834670">
        <ele>739.0</ele>
        <time>2019-08-07T09:25:17Z</time>
      </trkpt>
      <trkpt lat="48.6690600" lon="14.0835620">
        <ele>739.2</ele>
        <time>2019-08-07T09:25:18Z</time>
      </trkpt>
      <trkpt lat="48.6690560" lon="14.0836540">
        <ele>739.2</ele>
        <time>2019-08-07T09:25:19Z</time>
      </trkpt>
      <trkpt lat="48.6690530" lon="14.0837490">
        <ele>739.4</ele>
        <time>2019-08-07T09:25:20Z</time>
      </trkpt>
      <trkpt lat="48.6690470" lon="14.0838400">
        <ele>739.6</ele>
        <time>2019-08-07T09:25:21Z</time>
      </trkpt>
      <trkpt lat="48.6690450" lon="14.0839330">
        <ele>739.8</ele>
        <time>2019-08-07T09:25:22Z</time>
      </trkpt>
      <trkpt lat="48.6690450" lon="14.0840300">
        <ele>739.8</ele>
        <time>2019-08-07T09:25:23Z</time>
      </trkpt>
      <trkpt lat="48.6690440" lon="14.0841250">
        <ele>740.0</ele>
        <time>2019-08-07T09:25:24Z</time>
      </trkpt>
      <trkpt lat="48.6690400" lon="14.0842210">
        <ele>740.2</ele>
        <time>2019-08-07T09:25:25Z</time>
      </trkpt>
      <trkpt lat="48.6690360" lon="14.0843100">
        <ele>740.2</ele>
        <time>2019-08-07T09:25:26Z</time>
      </trkpt>
      <trkpt lat="48.6690280" lon="14.0844020">
        <ele>740.4</ele>
        <time>2019-08-07T09:25:27Z</time>
      </trkpt>
      <trkpt lat="48.6690230" lon="14.0844970">
        <ele>740.4</ele>
        <time>2019-08-07T09:25:28Z</time>
      </trkpt>
      <trkpt lat="48.6690200" lon="14.0845970">
        <ele>740.6</ele>
        <time>2019-08-07T09:25:29Z</time>
      </trkpt>
      <trkpt lat="48.6690160" lon="14.0846910">
        <ele>740.6</ele>
        <time>2019-08-07T09:25:30Z</time>
      </trkpt>
      <trkpt lat="48.6690120" lon="14.0847880">
        <ele>740.8</ele>
        <time>2019-08-07T09:25:31Z</time>
      </trkpt>
      <trkpt lat="48.6690020" lon="14.0848900">
        <ele>741.0</ele>
        <time>2019-08-07T09:25:32Z</time>
      </trkpt>
      <trkpt lat="48.6689920" lon="14.0849900">
        <ele>741.0</ele>
        <time>2019-08-07T09:25:33Z</time>
      </trkpt>
      <trkpt lat="48.6689780" lon="14.0850940">
        <ele>741.2</ele>
        <time>2019-08-07T09:25:34Z</time>
      </trkpt>
      <trkpt lat="48.6689630" lon="14.0851940">
        <ele>741.2</ele>
        <time>2019-08-07T09:25:35Z</time>
      </trkpt>
      <trkpt lat="48.6689470" lon="14.0852950">
        <ele>741.4</ele>
        <time>2019-08-07T09:25:36Z</time>
      </trkpt>
      <trkpt lat="48.6689330" lon="14.0853970">
        <ele>741.4</ele>
        <time>2019-08-07T09:25:37Z</time>
      </trkpt>
      <trkpt lat="48.6689180" lon="14.0854990">
        <ele>741.6</ele>
        <time>2019-08-07T09:25:38Z</time>
      </trkpt>
      <trkpt lat="48.6689050" lon="14.0855970">
        <ele>741.6</ele>
        <time>2019-08-07T09:25:39Z</time>
      </trkpt>
      <trkpt lat="48.6688930" lon="14.0856970">
        <ele>741.8</ele>
        <time>2019-08-07T09:25:40Z</time>
      </trkpt>
      <trkpt lat="48.6688810" lon="14.0857960">
        <ele>742.0</ele>
        <time>2019-08-07T09:25:41Z</time>
      </trkpt>
      <trkpt lat="48.6688720" lon="14.0858950">
        <ele>742.0</ele>
        <time>2019-08-07T09:25:42Z</time>
      </trkpt>
      <trkpt lat="48.6688730" lon="14.0859940">
        <ele>742.0</ele>
        <time>2019-08-07T09:25:43Z</time>
      </trkpt>
      <trkpt lat="48.6688660" lon="14.0860960">
        <ele>742.2</ele>
        <time>2019-08-07T09:25:44Z</time>
      </trkpt>
      <trkpt lat="48.6688570" lon="14.0861900">
        <ele>742.2</ele>
        <time>2019-08-07T09:25:45Z</time>
      </trkpt>
      <trkpt lat="48.6688460" lon="14.0862850">
        <ele>742.2</ele>
        <time>2019-08-07T09:25:46Z</time>
      </trkpt>
      <trkpt lat="48.6688300" lon="14.0863780">
        <ele>742.2</ele>
        <time>2019-08-07T09:25:47Z</time>
      </trkpt>
      <trkpt lat="48.6688150" lon="14.0864710">
        <ele>742.2</ele>
        <time>2019-08-07T09:25:48Z</time>
      </trkpt>
      <trkpt lat="48.6687980" lon="14.0865640">
        <ele>742.4</ele>
        <time>2019-08-07T09:25:49Z</time>
      </trkpt>
      <trkpt lat="48.6687790" lon="14.0866610">
        <ele>742.4</ele>
        <time>2019-08-07T09:25:50Z</time>
      </trkpt>
      <trkpt lat="48.6687590" lon="14.0867570">
        <ele>742.4</ele>
        <time>2019-08-07T09:25:51Z</time>
      </trkpt>
      <trkpt lat="48.6687410" lon="14.0868510">
        <ele>742.4</ele>
        <time>2019-08-07T09:25:52Z</time>
      </trkpt>
      <trkpt lat="48.6687210" lon="14.0869460">
        <ele>742.4</ele>
        <time>2019-08-07T09:25:53Z</time>
      </trkpt>
      <trkpt lat="48.6687060" lon="14.0870410">
        <ele>742.4</ele>
        <time>2019-08-07T09:25:54Z</time>
      </trkpt>
      <trkpt lat="48.6686950" lon="14.0871410">
        <ele>742.4</ele>
        <time>2019-08-07T09:25:55Z</time>
      </trkpt>
      <trkpt lat="48.6686760" lon="14.0872400">
        <ele>742.4</ele>
        <time>2019-08-07T09:25:56Z</time>
      </trkpt>
      <trkpt lat="48.6686570" lon="14.0873340">
        <ele>742.2</ele>
        <time>2019-08-07T09:25:57Z</time>
      </trkpt>
      <trkpt lat="48.6686440" lon="14.0874320">
        <ele>742.2</ele>
        <time>2019-08-07T09:25:58Z</time>
      </trkpt>
      <trkpt lat="48.6686320" lon="14.0875310">
        <ele>742.2</ele>
        <time>2019-08-07T09:25:59Z</time>
      </trkpt>
      <trkpt lat="48.6686220" lon="14.0876290">
        <ele>742.2</ele>
        <time>2019-08-07T09:26:00Z</time>
      </trkpt>
      <trkpt lat="48.6686110" lon="14.0877340">
        <ele>742.2</ele>
        <time>2019-08-07T09:26:01Z</time>
      </trkpt>
      <trkpt lat="48.6685960" lon="14.0878330">
        <ele>742.2</ele>
        <time>2019-08-07T09:26:02Z</time>
      </trkpt>
      <trkpt lat="48.6685780" lon="14.0879280">
        <ele>742.2</ele>
        <time>2019-08-07T09:26:03Z</time>
      </trkpt>
      <trkpt lat="48.6685570" lon="14.0880230">
        <ele>742.2</ele>
        <time>2019-08-07T09:26:04Z</time>
      </trkpt>
      <trkpt lat="48.6685410" lon="14.0881160">
        <ele>742.2</ele>
        <time>2019-08-07T09:26:05Z</time>
      </trkpt>
      <trkpt lat="48.6685220" lon="14.0882090">
        <ele>742.2</ele>
        <time>2019-08-07T09:26:06Z</time>
      </trkpt>
      <trkpt lat="48.6685010" lon="14.0883010">
        <ele>742.2</ele>
        <time>2019-08-07T09:26:07Z</time>
      </trkpt>
      <trkpt lat="48.6684810" lon="14.0883920">
        <ele>742.2</ele>
        <time>2019-08-07T09:26:08Z</time>
      </trkpt>
      <trkpt lat="48.6684610" lon="14.0884850">
        <ele>742.4</ele>
        <time>2019-08-07T09:26:09Z</time>
      </trkpt>
      <trkpt lat="48.6684420" lon="14.0885750">
        <ele>742.4</ele>
        <time>2019-08-07T09:26:10Z</time>
      </trkpt>
      <trkpt lat="48.6684250" lon="14.0886670">
        <ele>742.4</ele>
        <time>2019-08-07T09:26:11Z</time>
      </trkpt>
      <trkpt lat="48.6684090" lon="14.0887570">
        <ele>742.6</ele>
        <time>2019-08-07T09:26:12Z</time>
      </trkpt>
      <trkpt lat="48.6683910" lon="14.0888430">
        <ele>742.6</ele>
        <time>2019-08-07T09:26:13Z</time>
      </trkpt>
      <trkpt lat="48.6683690" lon="14.0889280">
        <ele>742.8</ele>
        <time>2019-08-07T09:26:14Z</time>
      </trkpt>
      <trkpt lat="48.6683500" lon="14.0890180">
        <ele>742.8</ele>
        <time>2019-08-07T09:26:15Z</time>
      </trkpt>
      <trkpt lat="48.6683330" lon="14.0891060">
        <ele>742.8</ele>
        <time>2019-08-07T09:26:16Z</time>
      </trkpt>
      <trkpt lat="48.6683160" lon="14.0891970">
        <ele>742.8</ele>
        <time>2019-08-07T09:26:17Z</time>
      </trkpt>
      <trkpt lat="48.6682950" lon="14.0892860">
        <ele>742.8</ele>
        <time>2019-08-07T09:26:18Z</time>
      </trkpt>
      <trkpt lat="48.6682750" lon="14.0893790">
        <ele>742.8</ele>
        <time>2019-08-07T09:26:19Z</time>
      </trkpt>
      <trkpt lat="48.6682580" lon="14.0894700">
        <ele>742.8</ele>
        <time>2019-08-07T09:26:20Z</time>
      </trkpt>
      <trkpt lat="48.6682420" lon="14.0895590">
        <ele>742.8</ele>
        <time>2019-08-07T09:26:21Z</time>
      </trkpt>
      <trkpt lat="48.6682260" lon="14.0896500">
        <ele>742.8</ele>
        <time>2019-08-07T09:26:22Z</time>
      </trkpt>
      <trkpt lat="48.6682090" lon="14.0897440">
        <ele>742.6</ele>
        <time>2019-08-07T09:26:23Z</time>
      </trkpt>
      <trkpt lat="48.6681880" lon="14.0898390">
        <ele>742.6</ele>
        <time>2019-08-07T09:26:24Z</time>
      </trkpt>
      <trkpt lat="48.6681680" lon="14.0899320">
        <ele>742.6</ele>
        <time>2019-08-07T09:26:25Z</time>
      </trkpt>
      <trkpt lat="48.6681520" lon="14.0900290">
        <ele>742.6</ele>
        <time>2019-08-07T09:26:26Z</time>
      </trkpt>
      <trkpt lat="48.6681330" lon="14.0901330">
        <ele>742.6</ele>
        <time>2019-08-07T09:26:27Z</time>
      </trkpt>
      <trkpt lat="48.6681140" lon="14.0902270">
        <ele>742.4</ele>
        <time>2019-08-07T09:26:28Z</time>
      </trkpt>
      <trkpt lat="48.6680990" lon="14.0903210">
        <ele>742.4</ele>
        <time>2019-08-07T09:26:29Z</time>
      </trkpt>
      <trkpt lat="48.6680840" lon="14.0904190">
        <ele>742.4</ele>
        <time>2019-08-07T09:26:30Z</time>
      </trkpt>
      <trkpt lat="48.6680740" lon="14.0905240">
        <ele>742.2</ele>
        <time>2019-08-07T09:26:31Z</time>
      </trkpt>
      <trkpt lat="48.6680650" lon="14.0906290">
        <ele>742.2</ele>
        <time>2019-08-07T09:26:32Z</time>
      </trkpt>
      <trkpt lat="48.6680540" lon="14.0907340">
        <ele>742.0</ele>
        <time>2019-08-07T09:26:33Z</time>
      </trkpt>
      <trkpt lat="48.6680410" lon="14.0908340">
        <ele>742.0</ele>
        <time>2019-08-07T09:26:34Z</time>
      </trkpt>
      <trkpt lat="48.6680300" lon="14.0909490">
        <ele>742.0</ele>
        <time>2019-08-07T09:26:35Z</time>
      </trkpt>
      <trkpt lat="48.6680150" lon="14.0910610">
        <ele>741.8</ele>
        <time>2019-08-07T09:26:36Z</time>
      </trkpt>
      <trkpt lat="48.6680020" lon="14.0911730">
        <ele>741.6</ele>
        <time>2019-08-07T09:26:37Z</time>
      </trkpt>
      <trkpt lat="48.6679910" lon="14.0912910">
        <ele>741.6</ele>
        <time>2019-08-07T09:26:38Z</time>
      </trkpt>
      <trkpt lat="48.6679830" lon="14.0914070">
        <ele>741.4</ele>
        <time>2019-08-07T09:26:39Z</time>
      </trkpt>
      <trkpt lat="48.6679760" lon="14.0915250">
        <ele>741.2</ele>
        <time>2019-08-07T09:26:40Z</time>
      </trkpt>
      <trkpt lat="48.6679680" lon="14.0916390">
        <ele>741.0</ele>
        <time>2019-08-07T09:26:41Z</time>
      </trkpt>
      <trkpt lat="48.6679620" lon="14.0917600">
        <ele>740.8</ele>
        <time>2019-08-07T09:26:42Z</time>
      </trkpt>
      <trkpt lat="48.6679610" lon="14.0918830">
        <ele>740.6</ele>
        <time>2019-08-07T09:26:43Z</time>
      </trkpt>
      <trkpt lat="48.6679600" lon="14.0920070">
        <ele>740.4</ele>
        <time>2019-08-07T09:26:44Z</time>
      </trkpt>
      <trkpt lat="48.6679590" lon="14.0921350">
        <ele>740.2</ele>
        <time>2019-08-07T09:26:45Z</time>
      </trkpt>
      <trkpt lat="48.6679520" lon="14.0922620">
        <ele>740.0</ele>
        <time>2019-08-07T09:26:46Z</time>
      </trkpt>
      <trkpt lat="48.6679510" lon="14.0923870">
        <ele>739.8</ele>
        <time>2019-08-07T09:26:47Z</time>
      </trkpt>
      <trkpt lat="48.6679480" lon="14.0925150">
        <ele>739.6</ele>
        <time>2019-08-07T09:26:48Z</time>
      </trkpt>
      <trkpt lat="48.6679440" lon="14.0926420">
        <ele>739.4</ele>
        <time>2019-08-07T09:26:49Z</time>
      </trkpt>
      <trkpt lat="48.6679450" lon="14.0927640">
        <ele>739.4</ele>
        <time>2019-08-07T09:26:50Z</time>
      </trkpt>
      <trkpt lat="48.6679440" lon="14.0928930">
        <ele>739.2</ele>
        <time>2019-08-07T09:26:51Z</time>
      </trkpt>
      <trkpt lat="48.6679470" lon="14.0930140">
        <ele>739.0</ele>
        <time>2019-08-07T09:26:52Z</time>
      </trkpt>
      <trkpt lat="48.6679490" lon="14.0931380">
        <ele>739.0</ele>
        <time>2019-08-07T09:26:53Z</time>
      </trkpt>
      <trkpt lat="48.6679440" lon="14.0932600">
        <ele>738.8</ele>
        <time>2019-08-07T09:26:54Z</time>
      </trkpt>
      <trkpt lat="48.6679380" lon="14.0933830">
        <ele>738.8</ele>
        <time>2019-08-07T09:26:55Z</time>
      </trkpt>
      <trkpt lat="48.6679370" lon="14.0935000">
        <ele>738.6</ele>
        <time>2019-08-07T09:26:56Z</time>
      </trkpt>
      <trkpt lat="48.6679370" lon="14.0936230">
        <ele>738.6</ele>
        <time>2019-08-07T09:26:57Z</time>
      </trkpt>
      <trkpt lat="48.6679360" lon="14.0937410">
        <ele>738.8</ele>
        <time>2019-08-07T09:26:58Z</time>
      </trkpt>
      <trkpt lat="48.6679310" lon="14.0938580">
        <ele>738.8</ele>
        <time>2019-08-07T09:26:59Z</time>
      </trkpt>
      <trkpt lat="48.6679280" lon="14.0939750">
        <ele>738.8</ele>
        <time>2019-08-07T09:27:00Z</time>
      </trkpt>
      <trkpt lat="48.6679210" lon="14.0940830">
        <ele>738.8</ele>
        <time>2019-08-07T09:27:01Z</time>
      </trkpt>
      <trkpt lat="48.6679140" lon="14.0941890">
        <ele>738.8</ele>
        <time>2019-08-07T09:27:02Z</time>
      </trkpt>
      <trkpt lat="48.6679020" lon="14.0942920">
        <ele>738.8</ele>
        <time>2019-08-07T09:27:03Z</time>
      </trkpt>
      <trkpt lat="48.6678950" lon="14.0943930">
        <ele>738.8</ele>
        <time>2019-08-07T09:27:04Z</time>
      </trkpt>
      <trkpt lat="48.6678910" lon="14.0944940">
        <ele>739.0</ele>
        <time>2019-08-07T09:27:05Z</time>
      </trkpt>
      <trkpt lat="48.6678850" lon="14.0945910">
        <ele>739.0</ele>
        <time>2019-08-07T09:27:06Z</time>
      </trkpt>
      <trkpt lat="48.6678860" lon="14.0946870">
        <ele>739.2</ele>
        <time>2019-08-07T09:27:07Z</time>
      </trkpt>
      <trkpt lat="48.6678830" lon="14.0947820">
        <ele>739.2</ele>
        <time>2019-08-07T09:27:08Z</time>
      </trkpt>
      <trkpt lat="48.6678840" lon="14.0948760">
        <ele>739.4</ele>
        <time>2019-08-07T09:27:09Z</time>
      </trkpt>
      <trkpt lat="48.6678870" lon="14.0949720">
        <ele>739.6</ele>
        <time>2019-08-07T09:27:10Z</time>
      </trkpt>
      <trkpt lat="48.6678900" lon="14.0950590">
        <ele>739.8</ele>
        <time>2019-08-07T09:27:11Z</time>
      </trkpt>
      <trkpt lat="48.6678860" lon="14.0951410">
        <ele>740.2</ele>
        <time>2019-08-07T09:27:12Z</time>
      </trkpt>
      <trkpt lat="48.6678800" lon="14.0952210">
        <ele>740.4</ele>
        <time>2019-08-07T09:27:13Z</time>
      </trkpt>
      <trkpt lat="48.6678790" lon="14.0952960">
        <ele>740.8</ele>
        <time>2019-08-07T09:27:14Z</time>
      </trkpt>
      <trkpt lat="48.6678740" lon="14.0953660">
        <ele>741.0</ele>
        <time>2019-08-07T09:27:15Z</time>
      </trkpt>
      <trkpt lat="48.6678640" lon="14.0954320">
        <ele>741.2</ele>
        <time>2019-08-07T09:27:16Z</time>
      </trkpt>
      <trkpt lat="48.6678550" lon="14.0954960">
        <ele>741.4</ele>
        <time>2019-08-07T09:27:17Z</time>
      </trkpt>
      <trkpt lat="48.6678530" lon="14.0955630">
        <ele>741.6</ele>
        <time>2019-08-07T09:27:18Z</time>
      </trkpt>
      <trkpt lat="48.6678510" lon="14.0956290">
        <ele>741.8</ele>
        <time>2019-08-07T09:27:19Z</time>
      </trkpt>
      <trkpt lat="48.6678480" lon="14.0956930">
        <ele>742.0</ele>
        <time>2019-08-07T09:27:20Z</time>
      </trkpt>
      <trkpt lat="48.6678460" lon="14.0957560">
        <ele>742.2</ele>
        <time>2019-08-07T09:27:21Z</time>
      </trkpt>
      <trkpt lat="48.6678450" lon="14.0958200">
        <ele>742.4</ele>
        <time>2019-08-07T09:27:22Z</time>
      </trkpt>
      <trkpt lat="48.6678430" lon="14.0958830">
        <ele>742.6</ele>
        <time>2019-08-07T09:27:23Z</time>
      </trkpt>
      <trkpt lat="48.6678420" lon="14.0959480">
        <ele>742.8</ele>
        <time>2019-08-07T09:27:24Z</time>
      </trkpt>
      <trkpt lat="48.6678420" lon="14.0960110">
        <ele>743.0</ele>
        <time>2019-08-07T09:27:25Z</time>
      </trkpt>
      <trkpt lat="48.6678440" lon="14.0960740">
        <ele>743.2</ele>
        <time>2019-08-07T09:27:26Z</time>
      </trkpt>
      <trkpt lat="48.6678450" lon="14.0961350">
        <ele>743.4</ele>
        <time>2019-08-07T09:27:27Z</time>
      </trkpt>
      <trkpt lat="48.6678480" lon="14.0961950">
        <ele>743.6</ele>
        <time>2019-08-07T09:27:28Z</time>
      </trkpt>
      <trkpt lat="48.6678500" lon="14.0962560">
        <ele>743.8</ele>
        <time>2019-08-07T09:27:29Z</time>
      </trkpt>
      <trkpt lat="48.6678520" lon="14.0963170">
        <ele>744.0</ele>
        <time>2019-08-07T09:27:30Z</time>
      </trkpt>
      <trkpt lat="48.6678570" lon="14.0963800">
        <ele>744.2</ele>
        <time>2019-08-07T09:27:31Z</time>
      </trkpt>
      <trkpt lat="48.6678590" lon="14.0964420">
        <ele>744.4</ele>
        <time>2019-08-07T09:27:32Z</time>
      </trkpt>
      <trkpt lat="48.6678600" lon="14.0965080">
        <ele>744.6</ele>
        <time>2019-08-07T09:27:33Z</time>
      </trkpt>
      <trkpt lat="48.6678620" lon="14.0965740">
        <ele>744.8</ele>
        <time>2019-08-07T09:27:34Z</time>
      </trkpt>
      <trkpt lat="48.6678650" lon="14.0966390">
        <ele>745.0</ele>
        <time>2019-08-07T09:27:35Z</time>
      </trkpt>
      <trkpt lat="48.6678670" lon="14.0967040">
        <ele>745.0</ele>
        <time>2019-08-07T09:27:36Z</time>
      </trkpt>
      <trkpt lat="48.6678660" lon="14.0967660">
        <ele>745.2</ele>
        <time>2019-08-07T09:27:37Z</time>
      </trkpt>
      <trkpt lat="48.6678610" lon="14.0968290">
        <ele>745.4</ele>
        <time>2019-08-07T09:27:38Z</time>
      </trkpt>
      <trkpt lat="48.6678570" lon="14.0968910">
        <ele>745.6</ele>
        <time>2019-08-07T09:27:39Z</time>
      </trkpt>
      <trkpt lat="48.6678550" lon="14.0969590">
        <ele>745.8</ele>
        <time>2019-08-07T09:27:40Z</time>
      </trkpt>
      <trkpt lat="48.6678530" lon="14.0970200">
        <ele>746.0</ele>
        <time>2019-08-07T09:27:41Z</time>
      </trkpt>
      <trkpt lat="48.6678480" lon="14.0970870">
        <ele>746.2</ele>
        <time>2019-08-07T09:27:42Z</time>
      </trkpt>
      <trkpt lat="48.6678410" lon="14.0971560">
        <ele>746.2</ele>
        <time>2019-08-07T09:27:43Z</time>
      </trkpt>
      <trkpt lat="48.6678400" lon="14.0972190">
        <ele>746.4</ele>
        <time>2019-08-07T09:27:44Z</time>
      </trkpt>
      <trkpt lat="48.6678400" lon="14.0972840">
        <ele>746.6</ele>
        <time>2019-08-07T09:27:45Z</time>
      </trkpt>
      <trkpt lat="48.6678440" lon="14.0973440">
        <ele>746.6</ele>
        <time>2019-08-07T09:27:46Z</time>
      </trkpt>
      <trkpt lat="48.6678470" lon="14.0974030">
        <ele>746.8</ele>
        <time>2019-08-07T09:27:47Z</time>
      </trkpt>
      <trkpt lat="48.6678500" lon="14.0974700">
        <ele>746.8</ele>
        <time>2019-08-07T09:27:48Z</time>
      </trkpt>
      <trkpt lat="48.6678540" lon="14.0975330">
        <ele>747.0</ele>
        <time>2019-08-07T09:27:49Z</time>
      </trkpt>
      <trkpt lat="48.6678570" lon="14.0975960">
        <ele>747.0</ele>
        <time>2019-08-07T09:27:50Z</time>
      </trkpt>
      <trkpt lat="48.6678600" lon="14.0976590">
        <ele>747.2</ele>
        <time>2019-08-07T09:27:51Z</time>
      </trkpt>
      <trkpt lat="48.6678650" lon="14.0977200">
        <ele>747.2</ele>
        <time>2019-08-07T09:27:52Z</time>
      </trkpt>
      <trkpt lat="48.6678610" lon="14.0977900">
        <ele>747.2</ele>
        <time>2019-08-07T09:27:53Z</time>
      </trkpt>
      <trkpt lat="48.6678610" lon="14.0978580">
        <ele>747.4</ele>
        <time>2019-08-07T09:27:54Z</time>
      </trkpt>
      <trkpt lat="48.6678660" lon="14.0979260">
        <ele>747.4</ele>
        <time>2019-08-07T09:27:55Z</time>
      </trkpt>
      <trkpt lat="48.6678720" lon="14.0979980">
        <ele>747.4</ele>
        <time>2019-08-07T09:27:56Z</time>
      </trkpt>
      <trkpt lat="48.6678770" lon="14.0980670">
        <ele>747.6</ele>
        <time>2019-08-07T09:27:57Z</time>
      </trkpt>
      <trkpt lat="48.6678800" lon="14.0981380">
        <ele>747.6</ele>
        <time>2019-08-07T09:27:58Z</time>
      </trkpt>
      <trkpt lat="48.6678840" lon="14.0982120">
        <ele>747.6</ele>
        <time>2019-08-07T09:27:59Z</time>
      </trkpt>
      <trkpt lat="48.6678870" lon="14.0982820">
        <ele>747.8</ele>
        <time>2019-08-07T09:28:00Z</time>
      </trkpt>
      <trkpt lat="48.6678870" lon="14.0983540">
        <ele>747.8</ele>
        <time>2019-08-07T09:28:01Z</time>
      </trkpt>
      <trkpt lat="48.6678870" lon="14.0984250">
        <ele>747.8</ele>
        <time>2019-08-07T09:28:02Z</time>
      </trkpt>
      <trkpt lat="48.6678900" lon="14.0984950">
        <ele>748.0</ele>
        <time>2019-08-07T09:28:03Z</time>
      </trkpt>
      <trkpt lat="48.6678870" lon="14.0985680">
        <ele>748.0</ele>
        <time>2019-08-07T09:28:04Z</time>
      </trkpt>
      <trkpt lat="48.6678880" lon="14.0986380">
        <ele>748.0</ele>
        <time>2019-08-07T09:28:05Z</time>
      </trkpt>
      <trkpt lat="48.6678860" lon="14.0987120">
        <ele>748.2</ele>
        <time>2019-08-07T09:28:06Z</time>
      </trkpt>
      <trkpt lat="48.6678850" lon="14.0987840">
        <ele>748.2</ele>
        <time>2019-08-07T09:28:07Z</time>
      </trkpt>
      <trkpt lat="48.6678810" lon="14.0988570">
        <ele>748.2</ele>
        <time>2019-08-07T09:28:08Z</time>
      </trkpt>
      <trkpt lat="48.6678760" lon="14.0989340">
        <ele>748.4</ele>
        <time>2019-08-07T09:28:09Z</time>
      </trkpt>
      <trkpt lat="48.6678710" lon="14.0990070">
        <ele>748.4</ele>
        <time>2019-08-07T09:28:10Z</time>
      </trkpt>
      <trkpt lat="48.6678690" lon="14.0990810">
        <ele>748.4</ele>
        <time>2019-08-07T09:28:11Z</time>
      </trkpt>
      <trkpt lat="48.6678650" lon="14.0991540">
        <ele>748.4</ele>
        <time>2019-08-07T09:28:12Z</time>
      </trkpt>
      <trkpt lat="48.6678650" lon="14.0992290">
        <ele>748.6</ele>
        <time>2019-08-07T09:28:13Z</time>
      </trkpt>
      <trkpt lat="48.6678650" lon="14.0993040">
        <ele>748.6</ele>
        <time>2019-08-07T09:28:14Z</time>
      </trkpt>
      <trkpt lat="48.6678610" lon="14.0993770">
        <ele>748.6</ele>
        <time>2019-08-07T09:28:15Z</time>
      </trkpt>
      <trkpt lat="48.6678580" lon="14.0994530">
        <ele>748.6</ele>
        <time>2019-08-07T09:28:16Z</time>
      </trkpt>
      <trkpt lat="48.6678530" lon="14.0995280">
        <ele>748.8</ele>
        <time>2019-08-07T09:28:17Z</time>
      </trkpt>
      <trkpt lat="48.6678490" lon="14.0996030">
        <ele>748.8</ele>
        <time>2019-08-07T09:28:18Z</time>
      </trkpt>
      <trkpt lat="48.6678420" lon="14.0996790">
        <ele>748.8</ele>
        <time>2019-08-07T09:28:19Z</time>
      </trkpt>
      <trkpt lat="48.6678340" lon="14.0997510">
        <ele>749.0</ele>
        <time>2019-08-07T09:28:20Z</time>
      </trkpt>
      <trkpt lat="48.6678220" lon="14.0998220">
        <ele>749.0</ele>
        <time>2019-08-07T09:28:21Z</time>
      </trkpt>
      <trkpt lat="48.6678110" lon="14.0998950">
        <ele>749.0</ele>
        <time>2019-08-07T09:28:22Z</time>
      </trkpt>
      <trkpt lat="48.6678080" lon="14.0999730">
        <ele>749.0</ele>
        <time>2019-08-07T09:28:23Z</time>
      </trkpt>
      <trkpt lat="48.6678040" lon="14.1000440">
        <ele>749.0</ele>
        <time>2019-08-07T09:28:24Z</time>
      </trkpt>
      <trkpt lat="48.6677970" lon="14.1001180">
        <ele>749.2</ele>
        <time>2019-08-07T09:28:25Z</time>
      </trkpt>
      <trkpt lat="48.6677870" lon="14.1001870">
        <ele>749.2</ele>
        <time>2019-08-07T09:28:26Z</time>
      </trkpt>
      <trkpt lat="48.6677790" lon="14.1002500">
        <ele>749.2</ele>
        <time>2019-08-07T09:28:27Z</time>
      </trkpt>
      <trkpt lat="48.6677740" lon="14.1003190">
        <ele>749.4</ele>
        <time>2019-08-07T09:28:28Z</time>
      </trkpt>
      <trkpt lat="48.6677670" lon="14.1003890">
        <ele>749.4</ele>
        <time>2019-08-07T09:28:29Z</time>
      </trkpt>
      <trkpt lat="48.6677650" lon="14.1004610">
        <ele>749.6</ele>
        <time>2019-08-07T09:28:30Z</time>
      </trkpt>
      <trkpt lat="48.6677610" lon="14.1005360">
        <ele>749.6</ele>
        <time>2019-08-07T09:28:31Z</time>
      </trkpt>
      <trkpt lat="48.6677510" lon="14.1006070">
        <ele>749.8</ele>
        <time>2019-08-07T09:28:32Z</time>
      </trkpt>
      <trkpt lat="48.6677430" lon="14.1006800">
        <ele>749.8</ele>
        <time>2019-08-07T09:28:33Z</time>
      </trkpt>
      <trkpt lat="48.6677350" lon="14.1007520">
        <ele>749.8</ele>
        <time>2019-08-07T09:28:34Z</time>
      </trkpt>
      <trkpt lat="48.6677240" lon="14.1008180">
        <ele>750.0</ele>
        <time>2019-08-07T09:28:35Z</time>
      </trkpt>
      <trkpt lat="48.6677150" lon="14.1008810">
        <ele>750.0</ele>
        <time>2019-08-07T09:28:36Z</time>
      </trkpt>
      <trkpt lat="48.6677110" lon="14.1009440">
        <ele>750.0</ele>
        <time>2019-08-07T09:28:37Z</time>
      </trkpt>
      <trkpt lat="48.6677050" lon="14.1010110">
        <ele>750.2</ele>
        <time>2019-08-07T09:28:38Z</time>
      </trkpt>
      <trkpt lat="48.6677030" lon="14.1010800">
        <ele>750.2</ele>
        <time>2019-08-07T09:28:39Z</time>
      </trkpt>
      <trkpt lat="48.6676960" lon="14.1011480">
        <ele>750.2</ele>
        <time>2019-08-07T09:28:40Z</time>
      </trkpt>
      <trkpt lat="48.6676850" lon="14.1012140">
        <ele>750.2</ele>
        <time>2019-08-07T09:28:41Z</time>
      </trkpt>
      <trkpt lat="48.6676740" lon="14.1012750">
        <ele>750.4</ele>
        <time>2019-08-07T09:28:42Z</time>
      </trkpt>
      <trkpt lat="48.6676600" lon="14.1013380">
        <ele>750.4</ele>
        <time>2019-08-07T09:28:43Z</time>
      </trkpt>
      <trkpt lat="48.6676450" lon="14.1014090">
        <ele>750.4</ele>
        <time>2019-08-07T09:28:44Z</time>
      </trkpt>
      <trkpt lat="48.6676290" lon="14.1014760">
        <ele>750.4</ele>
        <time>2019-08-07T09:28:45Z</time>
      </trkpt>
      <trkpt lat="48.6676130" lon="14.1015470">
        <ele>750.6</ele>
        <time>2019-08-07T09:28:46Z</time>
      </trkpt>
      <trkpt lat="48.6675970" lon="14.1016140">
        <ele>750.6</ele>
        <time>2019-08-07T09:28:47Z</time>
      </trkpt>
      <trkpt lat="48.6675820" lon="14.1016820">
        <ele>750.8</ele>
        <time>2019-08-07T09:28:48Z</time>
      </trkpt>
      <trkpt lat="48.6675740" lon="14.1017550">
        <ele>750.8</ele>
        <time>2019-08-07T09:28:49Z</time>
      </trkpt>
      <trkpt lat="48.6675630" lon="14.1018340">
        <ele>750.8</ele>
        <time>2019-08-07T09:28:50Z</time>
      </trkpt>
      <trkpt lat="48.6675450" lon="14.1019010">
        <ele>751.0</ele>
        <time>2019-08-07T09:28:51Z</time>
      </trkpt>
      <trkpt lat="48.6675260" lon="14.1019680">
        <ele>751.0</ele>
        <time>2019-08-07T09:28:52Z</time>
      </trkpt>
      <trkpt lat="48.6675080" lon="14.1020360">
        <ele>751.2</ele>
        <time>2019-08-07T09:28:53Z</time>
      </trkpt>
      <trkpt lat="48.6674900" lon="14.1021070">
        <ele>751.2</ele>
        <time>2019-08-07T09:28:54Z</time>
      </trkpt>
      <trkpt lat="48.6674750" lon="14.1021760">
        <ele>751.4</ele>
        <time>2019-08-07T09:28:55Z</time>
      </trkpt>
      <trkpt lat="48.6674630" lon="14.1022430">
        <ele>751.6</ele>
        <time>2019-08-07T09:28:56Z</time>
      </trkpt>
      <trkpt lat="48.6674480" lon="14.1023120">
        <ele>751.6</ele>
        <time>2019-08-07T09:28:57Z</time>
      </trkpt>
      <trkpt lat="48.6674330" lon="14.1023820">
        <ele>751.8</ele>
        <time>2019-08-07T09:28:58Z</time>
      </trkpt>
      <trkpt lat="48.6674180" lon="14.1024510">
        <ele>751.8</ele>
        <time>2019-08-07T09:28:59Z</time>
      </trkpt>
      <trkpt lat="48.6674000" lon="14.1025180">
        <ele>752.0</ele>
        <time>2019-08-07T09:29:00Z</time>
      </trkpt>
      <trkpt lat="48.6673840" lon="14.1025890">
        <ele>752.0</ele>
        <time>2019-08-07T09:29:01Z</time>
      </trkpt>
      <trkpt lat="48.6673700" lon="14.1026560">
        <ele>752.2</ele>
        <time>2019-08-07T09:29:02Z</time>
      </trkpt>
      <trkpt lat="48.6673550" lon="14.1027210">
        <ele>752.2</ele>
        <time>2019-08-07T09:29:03Z</time>
      </trkpt>
      <trkpt lat="48.6673400" lon="14.1027830">
        <ele>752.4</ele>
        <time>2019-08-07T09:29:04Z</time>
      </trkpt>
      <trkpt lat="48.6673300" lon="14.1028410">
        <ele>752.4</ele>
        <time>2019-08-07T09:29:05Z</time>
      </trkpt>
      <trkpt lat="48.6673200" lon="14.1029040">
        <ele>752.4</ele>
        <time>2019-08-07T09:29:06Z</time>
      </trkpt>
      <trkpt lat="48.6673090" lon="14.1029680">
        <ele>752.6</ele>
        <time>2019-08-07T09:29:07Z</time>
      </trkpt>
      <trkpt lat="48.6673010" lon="14.1030320">
        <ele>752.6</ele>
        <time>2019-08-07T09:29:08Z</time>
      </trkpt>
      <trkpt lat="48.6672930" lon="14.1030890">
        <ele>752.8</ele>
        <time>2019-08-07T09:29:09Z</time>
      </trkpt>
      <trkpt lat="48.6672880" lon="14.1031380">
        <ele>752.8</ele>
        <time>2019-08-07T09:29:10Z</time>
      </trkpt>
      <trkpt lat="48.6672810" lon="14.1031890">
        <ele>752.8</ele>
        <time>2019-08-07T09:29:11Z</time>
      </trkpt>
      <trkpt lat="48.6672780" lon="14.1032450">
        <ele>753.0</ele>
        <time>2019-08-07T09:29:12Z</time>
      </trkpt>
      <trkpt lat="48.6672710" lon="14.1033060">
        <ele>753.0</ele>
        <time>2019-08-07T09:29:13Z</time>
      </trkpt>
      <trkpt lat="48.6672590" lon="14.1033720">
        <ele>753.0</ele>
        <time>2019-08-07T09:29:14Z</time>
      </trkpt>
      <trkpt lat="48.6672490" lon="14.1034290">
        <ele>753.2</ele>
        <time>2019-08-07T09:29:15Z</time>
      </trkpt>
      <trkpt lat="48.6672370" lon="14.1034840">
        <ele>753.2</ele>
        <time>2019-08-07T09:29:16Z</time>
      </trkpt>
      <trkpt lat="48.6672290" lon="14.1035350">
        <ele>753.2</ele>
        <time>2019-08-07T09:29:17Z</time>
      </trkpt>
      <trkpt lat="48.6672170" lon="14.1035910">
        <ele>753.4</ele>
        <time>2019-08-07T09:29:18Z</time>
      </trkpt>
      <trkpt lat="48.6672060" lon="14.1036430">
        <ele>753.4</ele>
        <time>2019-08-07T09:29:19Z</time>
      </trkpt>
      <trkpt lat="48.6672010" lon="14.1037040">
        <ele>753.6</ele>
        <time>2019-08-07T09:29:20Z</time>
      </trkpt>
      <trkpt lat="48.6671910" lon="14.1037670">
        <ele>753.6</ele>
        <time>2019-08-07T09:29:21Z</time>
      </trkpt>
      <trkpt lat="48.6671810" lon="14.1038280">
        <ele>753.8</ele>
        <time>2019-08-07T09:29:22Z</time>
      </trkpt>
      <trkpt lat="48.6671650" lon="14.1038880">
        <ele>753.8</ele>
        <time>2019-08-07T09:29:23Z</time>
      </trkpt>
      <trkpt lat="48.6671510" lon="14.1039390">
        <ele>754.0</ele>
        <time>2019-08-07T09:29:24Z</time>
      </trkpt>
      <trkpt lat="48.6671440" lon="14.1039800">
        <ele>754.0</ele>
        <time>2019-08-07T09:29:25Z</time>
      </trkpt>
      <trkpt lat="48.6671360" lon="14.1040250">
        <ele>754.0</ele>
        <time>2019-08-07T09:29:26Z</time>
      </trkpt>
      <trkpt lat="48.6671240" lon="14.1040860">
        <ele>754.2</ele>
        <time>2019-08-07T09:29:27Z</time>
      </trkpt>
      <trkpt lat="48.6671130" lon="14.1041360">
        <ele>754.2</ele>
        <time>2019-08-07T09:29:28Z</time>
      </trkpt>
      <trkpt lat="48.6671000" lon="14.1041910">
        <ele>754.4</ele>
        <time>2019-08-07T09:29:29Z</time>
      </trkpt>
      <trkpt lat="48.6670870" lon="14.1042430">
        <ele>754.4</ele>
        <time>2019-08-07T09:29:30Z</time>
      </trkpt>
      <trkpt lat="48.6670720" lon="14.1043010">
        <ele>754.6</ele>
        <time>2019-08-07T09:29:31Z</time>
      </trkpt>
      <trkpt lat="48.6670600" lon="14.1043560">
        <ele>754.6</ele>
        <time>2019-08-07T09:29:32Z</time>
      </trkpt>
      <trkpt lat="48.6670430" lon="14.1044210">
        <ele>754.6</ele>
        <time>2019-08-07T09:29:33Z</time>
      </trkpt>
      <trkpt lat="48.6670260" lon="14.1044840">
        <ele>754.8</ele>
        <time>2019-08-07T09:29:34Z</time>
      </trkpt>
      <trkpt lat="48.6670060" lon="14.1045480">
        <ele>755.0</ele>
        <time>2019-08-07T09:29:35Z</time>
      </trkpt>
      <trkpt lat="48.6669800" lon="14.1046220">
        <ele>755.0</ele>
        <time>2019-08-07T09:29:36Z</time>
      </trkpt>
      <trkpt lat="48.6669540" lon="14.1047000">
        <ele>755.0</ele>
        <time>2019-08-07T09:29:37Z</time>
      </trkpt>
      <trkpt lat="48.6669270" lon="14.1047800">
        <ele>755.2</ele>
        <time>2019-08-07T09:29:38Z</time>
      </trkpt>
      <trkpt lat="48.6669000" lon="14.1048600">
        <ele>755.2</ele>
        <time>2019-08-07T09:29:39Z</time>
      </trkpt>
      <trkpt lat="48.6668670" lon="14.1049540">
        <ele>755.4</ele>
        <time>2019-08-07T09:29:40Z</time>
      </trkpt>
      <trkpt lat="48.6668390" lon="14.1050330">
        <ele>755.4</ele>
        <time>2019-08-07T09:29:41Z</time>
      </trkpt>
      <trkpt lat="48.6668150" lon="14.1051060">
        <ele>755.4</ele>
        <time>2019-08-07T09:29:42Z</time>
      </trkpt>
      <trkpt lat="48.6667880" lon="14.1051860">
        <ele>755.6</ele>
        <time>2019-08-07T09:29:43Z</time>
      </trkpt>
      <trkpt lat="48.6667600" lon="14.1052720">
        <ele>755.6</ele>
        <time>2019-08-07T09:29:44Z</time>
      </trkpt>
      <trkpt lat="48.6667400" lon="14.1053340">
        <ele>755.8</ele>
        <time>2019-08-07T09:29:45Z</time>
      </trkpt>
      <trkpt lat="48.6667140" lon="14.1054100">
        <ele>755.8</ele>
        <time>2019-08-07T09:29:46Z</time>
      </trkpt>
      <trkpt lat="48.6666890" lon="14.1054810">
        <ele>755.8</ele>
        <time>2019-08-07T09:29:47Z</time>
      </trkpt>
      <trkpt lat="48.6666620" lon="14.1055540">
        <ele>756.0</ele>
        <time>2019-08-07T09:29:48Z</time>
      </trkpt>
      <trkpt lat="48.6666370" lon="14.1056200">
        <ele>756.0</ele>
        <time>2019-08-07T09:29:49Z</time>
      </trkpt>
      <trkpt lat="48.6666100" lon="14.1056890">
        <ele>756.0</ele>
        <time>2019-08-07T09:29:50Z</time>
      </trkpt>
      <trkpt lat="48.6665800" lon="14.1057560">
        <ele>756.0</ele>
        <time>2019-08-07T09:29:51Z</time>
      </trkpt>
      <trkpt lat="48.6665500" lon="14.1058330">
        <ele>756.0</ele>
        <time>2019-08-07T09:29:52Z</time>
      </trkpt>
      <trkpt lat="48.6665230" lon="14.1059050">
        <ele>756.2</ele>
        <time>2019-08-07T09:29:53Z</time>
      </trkpt>
      <trkpt lat="48.6664940" lon="14.1059750">
        <ele>756.2</ele>
        <time>2019-08-07T09:29:54Z</time>
      </trkpt>
      <trkpt lat="48.6664610" lon="14.1060490">
        <ele>756.2</ele>
        <time>2019-08-07T09:29:55Z</time>
      </trkpt>
      <trkpt lat="48.6664260" lon="14.1061270">
        <ele>756.2</ele>
        <time>2019-08-07T09:29:56Z</time>
      </trkpt>
      <trkpt lat="48.6663920" lon="14.1062040">
        <ele>756.2</ele>
        <time>2019-08-07T09:29:57Z</time>
      </trkpt>
      <trkpt lat="48.6663650" lon="14.1062820">
        <ele>756.2</ele>
        <time>2019-08-07T09:29:58Z</time>
      </trkpt>
      <trkpt lat="48.6663380" lon="14.1063510">
        <ele>756.2</ele>
        <time>2019-08-07T09:29:59Z</time>
      </trkpt>
      <trkpt lat="48.6663090" lon="14.1064240">
        <ele>756.4</ele>
        <time>2019-08-07T09:30:00Z</time>
      </trkpt>
      <trkpt lat="48.6662780" lon="14.1064990">
        <ele>756.4</ele>
        <time>2019-08-07T09:30:01Z</time>
      </trkpt>
      <trkpt lat="48.6662460" lon="14.1065750">
        <ele>756.4</ele>
        <time>2019-08-07T09:30:02Z</time>
      </trkpt>
      <trkpt lat="48.6662120" lon="14.1066470">
        <ele>756.4</ele>
        <time>2019-08-07T09:30:03Z</time>
      </trkpt>
      <trkpt lat="48.6661790" lon="14.1067230">
        <ele>756.4</ele>
        <time>2019-08-07T09:30:04Z</time>
      </trkpt>
      <trkpt lat="48.6661470" lon="14.1067890">
        <ele>756.4</ele>
        <time>2019-08-07T09:30:05Z</time>
      </trkpt>
      <trkpt lat="48.6661100" lon="14.1068610">
        <ele>756.4</ele>
        <time>2019-08-07T09:30:06Z</time>
      </trkpt>
      <trkpt lat="48.6660730" lon="14.1069350">
        <ele>756.4</ele>
        <time>2019-08-07T09:30:07Z</time>
      </trkpt>
      <trkpt lat="48.6660390" lon="14.1070000">
        <ele>756.6</ele>
        <time>2019-08-07T09:30:08Z</time>
      </trkpt>
      <trkpt lat="48.6659990" lon="14.1070790">
        <ele>756.6</ele>
        <time>2019-08-07T09:30:09Z</time>
      </trkpt>
      <trkpt lat="48.6659520" lon="14.1071630">
        <ele>756.6</ele>
        <time>2019-08-07T09:30:10Z</time>
      </trkpt>
      <trkpt lat="48.6659050" lon="14.1072390">
        <ele>756.6</ele>
        <time>2019-08-07T09:30:11Z</time>
      </trkpt>
      <trkpt lat="48.6658670" lon="14.1072970">
        <ele>756.6</ele>
        <time>2019-08-07T09:30:12Z</time>
      </trkpt>
      <trkpt lat="48.6658290" lon="14.1073570">
        <ele>756.6</ele>
        <time>2019-08-07T09:30:13Z</time>
      </trkpt>
      <trkpt lat="48.6657890" lon="14.1074120">
        <ele>756.6</ele>
        <time>2019-08-07T09:30:14Z</time>
      </trkpt>
      <trkpt lat="48.6657490" lon="14.1074670">
        <ele>756.6</ele>
        <time>2019-08-07T09:30:15Z</time>
      </trkpt>
      <trkpt lat="48.6657140" lon="14.1075250">
        <ele>756.6</ele>
        <time>2019-08-07T09:30:16Z</time>
      </trkpt>
      <trkpt lat="48.6656780" lon="14.1075780">
        <ele>756.6</ele>
        <time>2019-08-07T09:30:17Z</time>
      </trkpt>
      <trkpt lat="48.6656500" lon="14.1076330">
        <ele>756.6</ele>
        <time>2019-08-07T09:30:18Z</time>
      </trkpt>
      <trkpt lat="48.6656240" lon="14.1076850">
        <ele>756.6</ele>
        <time>2019-08-07T09:30:19Z</time>
      </trkpt>
      <trkpt lat="48.6656050" lon="14.1077370">
        <ele>756.6</ele>
        <time>2019-08-07T09:30:20Z</time>
      </trkpt>
      <trkpt lat="48.6655870" lon="14.1077820">
        <ele>756.6</ele>
        <time>2019-08-07T09:30:21Z</time>
      </trkpt>
      <trkpt lat="48.6655710" lon="14.1078250">
        <ele>756.6</ele>
        <time>2019-08-07T09:30:22Z</time>
      </trkpt>
      <trkpt lat="48.6655490" lon="14.1078610">
        <ele>756.6</ele>
        <time>2019-08-07T09:30:23Z</time>
      </trkpt>
      <trkpt lat="48.6655250" lon="14.1079120">
        <ele>756.6</ele>
        <time>2019-08-07T09:30:24Z</time>
      </trkpt>
      <trkpt lat="48.6655050" lon="14.1079700">
        <ele>756.6</ele>
        <time>2019-08-07T09:30:25Z</time>
      </trkpt>
      <trkpt lat="48.6654870" lon="14.1080190">
        <ele>756.4</ele>
        <time>2019-08-07T09:30:26Z</time>
      </trkpt>
      <trkpt lat="48.6654580" lon="14.1080600">
        <ele>756.4</ele>
        <time>2019-08-07T09:30:27Z</time>
      </trkpt>
      <trkpt lat="48.6654290" lon="14.1081120">
        <ele>756.4</ele>
        <time>2019-08-07T09:30:28Z</time>
      </trkpt>
      <trkpt lat="48.6653920" lon="14.1081580">
        <ele>756.2</ele>
        <time>2019-08-07T09:30:29Z</time>
      </trkpt>
      <trkpt lat="48.6653480" lon="14.1082110">
        <ele>756.0</ele>
        <time>2019-08-07T09:30:30Z</time>
      </trkpt>
      <trkpt lat="48.6653010" lon="14.1082800">
        <ele>755.8</ele>
        <time>2019-08-07T09:30:31Z</time>
      </trkpt>
      <trkpt lat="48.6652520" lon="14.1083480">
        <ele>755.6</ele>
        <time>2019-08-07T09:30:32Z</time>
      </trkpt>
      <trkpt lat="48.6651970" lon="14.1084230">
        <ele>755.4</ele>
        <time>2019-08-07T09:30:33Z</time>
      </trkpt>
      <trkpt lat="48.6651420" lon="14.1084970">
        <ele>755.2</ele>
        <time>2019-08-07T09:30:34Z</time>
      </trkpt>
      <trkpt lat="48.6650720" lon="14.1085840">
        <ele>755.0</ele>
        <time>2019-08-07T09:30:35Z</time>
      </trkpt>
      <trkpt lat="48.6650110" lon="14.1086750">
        <ele>754.6</ele>
        <time>2019-08-07T09:30:36Z</time>
      </trkpt>
      <trkpt lat="48.6649500" lon="14.1087540">
        <ele>754.4</ele>
        <time>2019-08-07T09:30:37Z</time>
      </trkpt>
      <trkpt lat="48.6648920" lon="14.1088300">
        <ele>754.2</ele>
        <time>2019-08-07T09:30:38Z</time>
      </trkpt>
      <trkpt lat="48.6648240" lon="14.1089240">
        <ele>753.8</ele>
        <time>2019-08-07T09:30:39Z</time>
      </trkpt>
      <trkpt lat="48.6647620" lon="14.1090020">
        <ele>753.6</ele>
        <time>2019-08-07T09:30:40Z</time>
      </trkpt>
      <trkpt lat="48.6646990" lon="14.1090690">
        <ele>753.4</ele>
        <time>2019-08-07T09:30:41Z</time>
      </trkpt>
      <trkpt lat="48.6646340" lon="14.1091440">
        <ele>753.2</ele>
        <time>2019-08-07T09:30:42Z</time>
      </trkpt>
      <trkpt lat="48.6645660" lon="14.1092330">
        <ele>752.8</ele>
        <time>2019-08-07T09:30:43Z</time>
      </trkpt>
      <trkpt lat="48.6645030" lon="14.1093190">
        <ele>752.6</ele>
        <time>2019-08-07T09:30:44Z</time>
      </trkpt>
      <trkpt lat="48.6644390" lon="14.1094140">
        <ele>752.4</ele>
        <time>2019-08-07T09:30:45Z</time>
      </trkpt>
      <trkpt lat="48.6643750" lon="14.1095020">
        <ele>752.2</ele>
        <time>2019-08-07T09:30:46Z</time>
      </trkpt>
      <trkpt lat="48.6643160" lon="14.1095930">
        <ele>752.2</ele>
        <time>2019-08-07T09:30:47Z</time>
      </trkpt>
      <trkpt lat="48.6642600" lon="14.1096850">
        <ele>752.0</ele>
        <time>2019-08-07T09:30:48Z</time>
      </trkpt>
      <trkpt lat="48.6642020" lon="14.1097830">
        <ele>752.0</ele>
        <time>2019-08-07T09:30:49Z</time>
      </trkpt>
      <trkpt lat="48.6641480" lon="14.1098830">
        <ele>752.0</ele>
        <time>2019-08-07T09:30:50Z</time>
      </trkpt>
      <trkpt lat="48.6640980" lon="14.1099880">
        <ele>752.2</ele>
        <time>2019-08-07T09:30:51Z</time>
      </trkpt>
      <trkpt lat="48.6640460" lon="14.1100920">
        <ele>752.4</ele>
        <time>2019-08-07T09:30:52Z</time>
      </trkpt>
      <trkpt lat="48.6639960" lon="14.1101900">
        <ele>752.4</ele>
        <time>2019-08-07T09:30:53Z</time>
      </trkpt>
      <trkpt lat="48.6639450" lon="14.1102940">
        <ele>752.6</ele>
        <time>2019-08-07T09:30:54Z</time>
      </trkpt>
      <trkpt lat="48.6639050" lon="14.1103900">
        <ele>752.8</ele>
        <time>2019-08-07T09:30:55Z</time>
      </trkpt>
      <trkpt lat="48.6638660" lon="14.1104920">
        <ele>753.0</ele>
        <time>2019-08-07T09:30:56Z</time>
      </trkpt>
      <trkpt lat="48.6638350" lon="14.1105790">
        <ele>753.0</ele>
        <time>2019-08-07T09:30:57Z</time>
      </trkpt>
      <trkpt lat="48.6638050" lon="14.1106570">
        <ele>753.0</ele>
        <time>2019-08-07T09:30:58Z</time>
      </trkpt>
      <trkpt lat="48.6637790" lon="14.1107420">
        <ele>753.0</ele>
        <time>2019-08-07T09:30:59Z</time>
      </trkpt>
      <trkpt lat="48.6637560" lon="14.1108160">
        <ele>753.0</ele>
        <time>2019-08-07T09:31:00Z</time>
      </trkpt>
      <trkpt lat="48.6637320" lon="14.1108980">
        <ele>753.0</ele>
        <time>2019-08-07T09:31:01Z</time>
      </trkpt>
      <trkpt lat="48.6637110" lon="14.1109890">
        <ele>752.8</ele>
        <time>2019-08-07T09:31:02Z</time>
      </trkpt>
      <trkpt lat="48.6636900" lon="14.1110880">
        <ele>753.0</ele>
        <time>2019-08-07T09:31:03Z</time>
      </trkpt>
      <trkpt lat="48.6636680" lon="14.1112020">
        <ele>753.0</ele>
        <time>2019-08-07T09:31:04Z</time>
      </trkpt>
      <trkpt lat="48.6636420" lon="14.1113030">
        <ele>753.0</ele>
        <time>2019-08-07T09:31:05Z</time>
      </trkpt>
      <trkpt lat="48.6636120" lon="14.1114120">
        <ele>752.8</ele>
        <time>2019-08-07T09:31:06Z</time>
      </trkpt>
      <trkpt lat="48.6635770" lon="14.1115280">
        <ele>753.0</ele>
        <time>2019-08-07T09:31:07Z</time>
      </trkpt>
      <trkpt lat="48.6635500" lon="14.1116360">
        <ele>753.2</ele>
        <time>2019-08-07T09:31:08Z</time>
      </trkpt>
      <trkpt lat="48.6635170" lon="14.1117500">
        <ele>753.2</ele>
        <time>2019-08-07T09:31:09Z</time>
      </trkpt>
      <trkpt lat="48.6634890" lon="14.1118650">
        <ele>753.2</ele>
        <time>2019-08-07T09:31:10Z</time>
      </trkpt>
      <trkpt lat="48.6634680" lon="14.1119790">
        <ele>753.2</ele>
        <time>2019-08-07T09:31:11Z</time>
      </trkpt>
      <trkpt lat="48.6634490" lon="14.1121030">
        <ele>753.2</ele>
        <time>2019-08-07T09:31:12Z</time>
      </trkpt>
      <trkpt lat="48.6634370" lon="14.1122140">
        <ele>753.2</ele>
        <time>2019-08-07T09:31:13Z</time>
      </trkpt>
      <trkpt lat="48.6634270" lon="14.1123280">
        <ele>753.2</ele>
        <time>2019-08-07T09:31:14Z</time>
      </trkpt>
      <trkpt lat="48.6634140" lon="14.1124460">
        <ele>753.0</ele>
        <time>2019-08-07T09:31:15Z</time>
      </trkpt>
      <trkpt lat="48.6634160" lon="14.1125580">
        <ele>753.0</ele>
        <time>2019-08-07T09:31:16Z</time>
      </trkpt>
      <trkpt lat="48.6634130" lon="14.1126720">
        <ele>753.0</ele>
        <time>2019-08-07T09:31:17Z</time>
      </trkpt>
      <trkpt lat="48.6634090" lon="14.1127800">
        <ele>753.0</ele>
        <time>2019-08-07T09:31:18Z</time>
      </trkpt>
      <trkpt lat="48.6633970" lon="14.1129090">
        <ele>753.2</ele>
        <time>2019-08-07T09:31:19Z</time>
      </trkpt>
      <trkpt lat="48.6633890" lon="14.1130280">
        <ele>753.2</ele>
        <time>2019-08-07T09:31:20Z</time>
      </trkpt>
      <trkpt lat="48.6633760" lon="14.1131330">
        <ele>753.2</ele>
        <time>2019-08-07T09:31:21Z</time>
      </trkpt>
      <trkpt lat="48.6633690" lon="14.1132390">
        <ele>753.4</ele>
        <time>2019-08-07T09:31:22Z</time>
      </trkpt>
      <trkpt lat="48.6633630" lon="14.1133440">
        <ele>753.4</ele>
        <time>2019-08-07T09:31:23Z</time>
      </trkpt>
      <trkpt lat="48.6633640" lon="14.1134510">
        <ele>753.4</ele>
        <time>2019-08-07T09:31:24Z</time>
      </trkpt>
      <trkpt lat="48.6633650" lon="14.1135640">
        <ele>753.4</ele>
        <time>2019-08-07T09:31:25Z</time>
      </trkpt>
      <trkpt lat="48.6633670" lon="14.1136720">
        <ele>753.4</ele>
        <time>2019-08-07T09:31:26Z</time>
      </trkpt>
      <trkpt lat="48.6633670" lon="14.1137840">
        <ele>753.4</ele>
        <time>2019-08-07T09:31:27Z</time>
      </trkpt>
      <trkpt lat="48.6633670" lon="14.1139000">
        <ele>753.4</ele>
        <time>2019-08-07T09:31:28Z</time>
      </trkpt>
      <trkpt lat="48.6633740" lon="14.1140110">
        <ele>753.6</ele>
        <time>2019-08-07T09:31:29Z</time>
      </trkpt>
      <trkpt lat="48.6633770" lon="14.1141230">
        <ele>753.6</ele>
        <time>2019-08-07T09:31:30Z</time>
      </trkpt>
      <trkpt lat="48.6633820" lon="14.1142410">
        <ele>753.6</ele>
        <time>2019-08-07T09:31:31Z</time>
      </trkpt>
      <trkpt lat="48.6633880" lon="14.1143590">
        <ele>753.6</ele>
        <time>2019-08-07T09:31:32Z</time>
      </trkpt>
      <trkpt lat="48.6633880" lon="14.1144710">
        <ele>753.6</ele>
        <time>2019-08-07T09:31:33Z</time>
      </trkpt>
      <trkpt lat="48.6633880" lon="14.1145870">
        <ele>753.6</ele>
        <time>2019-08-07T09:31:34Z</time>
      </trkpt>
      <trkpt lat="48.6633890" lon="14.1147020">
        <ele>753.6</ele>
        <time>2019-08-07T09:31:35Z</time>
      </trkpt>
      <trkpt lat="48.6633920" lon="14.1148170">
        <ele>753.6</ele>
        <time>2019-08-07T09:31:36Z</time>
      </trkpt>
      <trkpt lat="48.6633920" lon="14.1149290">
        <ele>753.4</ele>
        <time>2019-08-07T09:31:37Z</time>
      </trkpt>
      <trkpt lat="48.6633920" lon="14.1150410">
        <ele>753.4</ele>
        <time>2019-08-07T09:31:38Z</time>
      </trkpt>
      <trkpt lat="48.6633930" lon="14.1151530">
        <ele>753.4</ele>
        <time>2019-08-07T09:31:39Z</time>
      </trkpt>
      <trkpt lat="48.6633920" lon="14.1152670">
        <ele>753.2</ele>
        <time>2019-08-07T09:31:40Z</time>
      </trkpt>
      <trkpt lat="48.6633920" lon="14.1153790">
        <ele>753.2</ele>
        <time>2019-08-07T09:31:41Z</time>
      </trkpt>
      <trkpt lat="48.6633940" lon="14.1154950">
        <ele>753.2</ele>
        <time>2019-08-07T09:31:42Z</time>
      </trkpt>
      <trkpt lat="48.6633970" lon="14.1156080">
        <ele>753.0</ele>
        <time>2019-08-07T09:31:43Z</time>
      </trkpt>
      <trkpt lat="48.6633990" lon="14.1157180">
        <ele>753.0</ele>
        <time>2019-08-07T09:31:44Z</time>
      </trkpt>
      <trkpt lat="48.6634050" lon="14.1158340">
        <ele>752.8</ele>
        <time>2019-08-07T09:31:45Z</time>
      </trkpt>
      <trkpt lat="48.6634100" lon="14.1159490">
        <ele>752.8</ele>
        <time>2019-08-07T09:31:46Z</time>
      </trkpt>
      <trkpt lat="48.6634100" lon="14.1160650">
        <ele>752.6</ele>
        <time>2019-08-07T09:31:47Z</time>
      </trkpt>
      <trkpt lat="48.6634100" lon="14.1161790">
        <ele>752.6</ele>
        <time>2019-08-07T09:31:48Z</time>
      </trkpt>
      <trkpt lat="48.6634120" lon="14.1162960">
        <ele>752.4</ele>
        <time>2019-08-07T09:31:49Z</time>
      </trkpt>
      <trkpt lat="48.6634110" lon="14.1164140">
        <ele>752.4</ele>
        <time>2019-08-07T09:31:50Z</time>
      </trkpt>
      <trkpt lat="48.6634110" lon="14.1165290">
        <ele>752.4</ele>
        <time>2019-08-07T09:31:51Z</time>
      </trkpt>
      <trkpt lat="48.6634150" lon="14.1166540">
        <ele>752.2</ele>
        <time>2019-08-07T09:31:52Z</time>
      </trkpt>
      <trkpt lat="48.6634140" lon="14.1167820">
        <ele>752.0</ele>
        <time>2019-08-07T09:31:53Z</time>
      </trkpt>
      <trkpt lat="48.6634100" lon="14.1169130">
        <ele>751.6</ele>
        <time>2019-08-07T09:31:54Z</time>
      </trkpt>
      <trkpt lat="48.6634070" lon="14.1170450">
        <ele>751.4</ele>
        <time>2019-08-07T09:31:55Z</time>
      </trkpt>
      <trkpt lat="48.6634100" lon="14.1171800">
        <ele>751.2</ele>
        <time>2019-08-07T09:31:56Z</time>
      </trkpt>
      <trkpt lat="48.6634120" lon="14.1173130">
        <ele>750.8</ele>
        <time>2019-08-07T09:31:57Z</time>
      </trkpt>
      <trkpt lat="48.6634140" lon="14.1174560">
        <ele>750.4</ele>
        <time>2019-08-07T09:31:58Z</time>
      </trkpt>
      <trkpt lat="48.6634170" lon="14.1176040">
        <ele>750.0</ele>
        <time>2019-08-07T09:31:59Z</time>
      </trkpt>
      <trkpt lat="48.6634200" lon="14.1177600">
        <ele>749.6</ele>
        <time>2019-08-07T09:32:00Z</time>
      </trkpt>
      <trkpt lat="48.6634210" lon="14.1179120">
        <ele>749.2</ele>
        <time>2019-08-07T09:32:01Z</time>
      </trkpt>
      <trkpt lat="48.6634180" lon="14.1180700">
        <ele>748.6</ele>
        <time>2019-08-07T09:32:02Z</time>
      </trkpt>
      <trkpt lat="48.6634130" lon="14.1182300">
        <ele>748.0</ele>
        <time>2019-08-07T09:32:03Z</time>
      </trkpt>
      <trkpt lat="48.6634100" lon="14.1183870">
        <ele>747.6</ele>
        <time>2019-08-07T09:32:04Z</time>
      </trkpt>
      <trkpt lat="48.6634100" lon="14.1185470">
        <ele>747.2</ele>
        <time>2019-08-07T09:32:05Z</time>
      </trkpt>
      <trkpt lat="48.6634140" lon="14.1187010">
        <ele>746.8</ele>
        <time>2019-08-07T09:32:06Z</time>
      </trkpt>
      <trkpt lat="48.6634200" lon="14.1188520">
        <ele>746.6</ele>
        <time>2019-08-07T09:32:07Z</time>
      </trkpt>
      <trkpt lat="48.6634160" lon="14.1189980">
        <ele>746.6</ele>
        <time>2019-08-07T09:32:08Z</time>
      </trkpt>
      <trkpt lat="48.6634140" lon="14.1191330">
        <ele>746.6</ele>
        <time>2019-08-07T09:32:09Z</time>
      </trkpt>
      <trkpt lat="48.6634150" lon="14.1192570">
        <ele>746.6</ele>
        <time>2019-08-07T09:32:10Z</time>
      </trkpt>
      <trkpt lat="48.6634130" lon="14.1193800">
        <ele>746.8</ele>
        <time>2019-08-07T09:32:11Z</time>
      </trkpt>
      <trkpt lat="48.6634050" lon="14.1194980">
        <ele>747.0</ele>
        <time>2019-08-07T09:32:12Z</time>
      </trkpt>
      <trkpt lat="48.6633960" lon="14.1196060">
        <ele>747.2</ele>
        <time>2019-08-07T09:32:13Z</time>
      </trkpt>
      <trkpt lat="48.6633920" lon="14.1197010">
        <ele>747.4</ele>
        <time>2019-08-07T09:32:14Z</time>
      </trkpt>
      <trkpt lat="48.6633840" lon="14.1197880">
        <ele>747.6</ele>
        <time>2019-08-07T09:32:15Z</time>
      </trkpt>
      <trkpt lat="48.6633740" lon="14.1198760">
        <ele>747.8</ele>
        <time>2019-08-07T09:32:16Z</time>
      </trkpt>
      <trkpt lat="48.6633650" lon="14.1199560">
        <ele>748.2</ele>
        <time>2019-08-07T09:32:17Z</time>
      </trkpt>
      <trkpt lat="48.6633530" lon="14.1200310">
        <ele>748.4</ele>
        <time>2019-08-07T09:32:18Z</time>
      </trkpt>
      <trkpt lat="48.6633460" lon="14.1201050">
        <ele>748.6</ele>
        <time>2019-08-07T09:32:19Z</time>
      </trkpt>
      <trkpt lat="48.6633450" lon="14.1201690">
        <ele>748.8</ele>
        <time>2019-08-07T09:32:20Z</time>
      </trkpt>
      <trkpt lat="48.6633430" lon="14.1202270">
        <ele>749.2</ele>
        <time>2019-08-07T09:32:21Z</time>
      </trkpt>
      <trkpt lat="48.6633380" lon="14.1202880">
        <ele>749.4</ele>
        <time>2019-08-07T09:32:22Z</time>
      </trkpt>
      <trkpt lat="48.6633350" lon="14.1203440">
        <ele>749.6</ele>
        <time>2019-08-07T09:32:23Z</time>
      </trkpt>
      <trkpt lat="48.6633300" lon="14.1204000">
        <ele>750.0</ele>
        <time>2019-08-07T09:32:24Z</time>
      </trkpt>
      <trkpt lat="48.6633260" lon="14.1204480">
        <ele>750.2</ele>
        <time>2019-08-07T09:32:25Z</time>
      </trkpt>
      <trkpt lat="48.6633200" lon="14.1204960">
        <ele>750.4</ele>
        <time>2019-08-07T09:32:26Z</time>
      </trkpt>
      <trkpt lat="48.6633070" lon="14.1205440">
        <ele>750.6</ele>
        <time>2019-08-07T09:32:27Z</time>
      </trkpt>
      <trkpt lat="48.6632940" lon="14.1205940">
        <ele>750.8</ele>
        <time>2019-08-07T09:32:28Z</time>
      </trkpt>
      <trkpt lat="48.6632820" lon="14.1206460">
        <ele>751.2</ele>
        <time>2019-08-07T09:32:29Z</time>
      </trkpt>
      <trkpt lat="48.6632680" lon="14.1207030">
        <ele>751.4</ele>
        <time>2019-08-07T09:32:30Z</time>
      </trkpt>
      <trkpt lat="48.6632510" lon="14.1207550">
        <ele>751.6</ele>
        <time>2019-08-07T09:32:31Z</time>
      </trkpt>
      <trkpt lat="48.6632250" lon="14.1208080">
        <ele>751.8</ele>
        <time>2019-08-07T09:32:32Z</time>
      </trkpt>
      <trkpt lat="48.6631970" lon="14.1208570">
        <ele>752.0</ele>
        <time>2019-08-07T09:32:33Z</time>
      </trkpt>
      <trkpt lat="48.6631680" lon="14.1209050">
        <ele>752.2</ele>
        <time>2019-08-07T09:32:34Z</time>
      </trkpt>
      <trkpt lat="48.6631380" lon="14.1209460">
        <ele>752.4</ele>
        <time>2019-08-07T09:32:35Z</time>
      </trkpt>
      <trkpt lat="48.6631100" lon="14.1209940">
        <ele>752.6</ele>
        <time>2019-08-07T09:32:36Z</time>
      </trkpt>
      <trkpt lat="48.6630800" lon="14.1210400">
        <ele>752.6</ele>
        <time>2019-08-07T09:32:37Z</time>
      </trkpt>
      <trkpt lat="48.6630550" lon="14.1210850">
        <ele>752.8</ele>
        <time>2019-08-07T09:32:38Z</time>
      </trkpt>
      <trkpt lat="48.6630310" lon="14.1211270">
        <ele>753.0</ele>
        <time>2019-08-07T09:32:39Z</time>
      </trkpt>
      <trkpt lat="48.6630070" lon="14.1211760">
        <ele>753.0</ele>
        <time>2019-08-07T09:32:40Z</time>
      </trkpt>
      <trkpt lat="48.6629820" lon="14.1212220">
        <ele>753.2</ele>
        <time>2019-08-07T09:32:41Z</time>
      </trkpt>
      <trkpt lat="48.6629570" lon="14.1212670">
        <ele>753.2</ele>
        <time>2019-08-07T09:32:42Z</time>
      </trkpt>
      <trkpt lat="48.6629280" lon="14.1213090">
        <ele>753.4</ele>
        <time>2019-08-07T09:32:43Z</time>
      </trkpt>
      <trkpt lat="48.6629030" lon="14.1213500">
        <ele>753.6</ele>
        <time>2019-08-07T09:32:44Z</time>
      </trkpt>
      <trkpt lat="48.6628790" lon="14.1213960">
        <ele>753.6</ele>
        <time>2019-08-07T09:32:45Z</time>
      </trkpt>
      <trkpt lat="48.6628560" lon="14.1214450">
        <ele>753.8</ele>
        <time>2019-08-07T09:32:46Z</time>
      </trkpt>
      <trkpt lat="48.6628330" lon="14.1214880">
        <ele>753.8</ele>
        <time>2019-08-07T09:32:47Z</time>
      </trkpt>
      <trkpt lat="48.6628130" lon="14.1215300">
        <ele>753.8</ele>
        <time>2019-08-07T09:32:48Z</time>
      </trkpt>
      <trkpt lat="48.6627920" lon="14.1215730">
        <ele>754.0</ele>
        <time>2019-08-07T09:32:49Z</time>
      </trkpt>
      <trkpt lat="48.6627690" lon="14.1216210">
        <ele>754.0</ele>
        <time>2019-08-07T09:32:50Z</time>
      </trkpt>
      <trkpt lat="48.6627430" lon="14.1216630">
        <ele>754.0</ele>
        <time>2019-08-07T09:32:51Z</time>
      </trkpt>
      <trkpt lat="48.6627160" lon="14.1217100">
        <ele>754.0</ele>
        <time>2019-08-07T09:32:52Z</time>
      </trkpt>
      <trkpt lat="48.6626900" lon="14.1217530">
        <ele>754.0</ele>
        <time>2019-08-07T09:32:53Z</time>
      </trkpt>
      <trkpt lat="48.6626630" lon="14.1217980">
        <ele>754.0</ele>
        <time>2019-08-07T09:32:54Z</time>
      </trkpt>
      <trkpt lat="48.6626370" lon="14.1218410">
        <ele>754.0</ele>
        <time>2019-08-07T09:32:55Z</time>
      </trkpt>
      <trkpt lat="48.6626110" lon="14.1218810">
        <ele>754.2</ele>
        <time>2019-08-07T09:32:56Z</time>
      </trkpt>
      <trkpt lat="48.6625800" lon="14.1219160">
        <ele>754.2</ele>
        <time>2019-08-07T09:32:57Z</time>
      </trkpt>
      <trkpt lat="48.6625520" lon="14.1219530">
        <ele>754.0</ele>
        <time>2019-08-07T09:32:58Z</time>
      </trkpt>
      <trkpt lat="48.6625230" lon="14.1219910">
        <ele>754.0</ele>
        <time>2019-08-07T09:32:59Z</time>
      </trkpt>
      <trkpt lat="48.6624900" lon="14.1220290">
        <ele>754.0</ele>
        <time>2019-08-07T09:33:00Z</time>
      </trkpt>
      <trkpt lat="48.6624580" lon="14.1220680">
        <ele>754.0</ele>
        <time>2019-08-07T09:33:01Z</time>
      </trkpt>
      <trkpt lat="48.6624270" lon="14.1221100">
        <ele>754.0</ele>
        <time>2019-08-07T09:33:02Z</time>
      </trkpt>
      <trkpt lat="48.6623980" lon="14.1221570">
        <ele>754.0</ele>
        <time>2019-08-07T09:33:03Z</time>
      </trkpt>
      <trkpt lat="48.6623670" lon="14.1222100">
        <ele>754.0</ele>
        <time>2019-08-07T09:33:04Z</time>
      </trkpt>
      <trkpt lat="48.6623350" lon="14.1222680">
        <ele>754.0</ele>
        <time>2019-08-07T09:33:05Z</time>
      </trkpt>
      <trkpt lat="48.6623010" lon="14.1223260">
        <ele>754.0</ele>
        <time>2019-08-07T09:33:06Z</time>
      </trkpt>
      <trkpt lat="48.6622680" lon="14.1223900">
        <ele>753.8</ele>
        <time>2019-08-07T09:33:07Z</time>
      </trkpt>
      <trkpt lat="48.6622310" lon="14.1224580">
        <ele>753.8</ele>
        <time>2019-08-07T09:33:08Z</time>
      </trkpt>
      <trkpt lat="48.6621960" lon="14.1225350">
        <ele>753.8</ele>
        <time>2019-08-07T09:33:09Z</time>
      </trkpt>
      <trkpt lat="48.6621630" lon="14.1226100">
        <ele>753.8</ele>
        <time>2019-08-07T09:33:10Z</time>
      </trkpt>
      <trkpt lat="48.6621280" lon="14.1226790">
        <ele>753.8</ele>
        <time>2019-08-07T09:33:11Z</time>
      </trkpt>
      <trkpt lat="48.6620930" lon="14.1227540">
        <ele>753.8</ele>
        <time>2019-08-07T09:33:12Z</time>
      </trkpt>
      <trkpt lat="48.6620600" lon="14.1228300">
        <ele>753.8</ele>
        <time>2019-08-07T09:33:13Z</time>
      </trkpt>
      <trkpt lat="48.6620280" lon="14.1229050">
        <ele>753.6</ele>
        <time>2019-08-07T09:33:14Z</time>
      </trkpt>
      <trkpt lat="48.6619920" lon="14.1229790">
        <ele>753.6</ele>
        <time>2019-08-07T09:33:15Z</time>
      </trkpt>
      <trkpt lat="48.6619560" lon="14.1230530">
        <ele>753.4</ele>
        <time>2019-08-07T09:33:16Z</time>
      </trkpt>
      <trkpt lat="48.6619190" lon="14.1231260">
        <ele>753.4</ele>
        <time>2019-08-07T09:33:17Z</time>
      </trkpt>
      <trkpt lat="48.6618860" lon="14.1232020">
        <ele>753.2</ele>
        <time>2019-08-07T09:33:18Z</time>
      </trkpt>
      <trkpt lat="48.6618560" lon="14.1232780">
        <ele>753.0</ele>
        <time>2019-08-07T09:33:19Z</time>
      </trkpt>
      <trkpt lat="48.6618230" lon="14.1233610">
        <ele>753.0</ele>
        <time>2019-08-07T09:33:20Z</time>
      </trkpt>
      <trkpt lat="48.6617920" lon="14.1234410">
        <ele>753.0</ele>
        <time>2019-08-07T09:33:21Z</time>
      </trkpt>
      <trkpt lat="48.6617580" lon="14.1235190">
        <ele>752.8</ele>
        <time>2019-08-07T09:33:22Z</time>
      </trkpt>
      <trkpt lat="48.6617280" lon="14.1235990">
        <ele>752.8</ele>
        <time>2019-08-07T09:33:23Z</time>
      </trkpt>
      <trkpt lat="48.6616930" lon="14.1236760">
        <ele>752.6</ele>
        <time>2019-08-07T09:33:24Z</time>
      </trkpt>
      <trkpt lat="48.6616580" lon="14.1237540">
        <ele>752.6</ele>
        <time>2019-08-07T09:33:25Z</time>
      </trkpt>
      <trkpt lat="48.6616240" lon="14.1238350">
        <ele>752.6</ele>
        <time>2019-08-07T09:33:26Z</time>
      </trkpt>
      <trkpt lat="48.6615910" lon="14.1239170">
        <ele>752.6</ele>
        <time>2019-08-07T09:33:27Z</time>
      </trkpt>
      <trkpt lat="48.6615580" lon="14.1240050">
        <ele>752.4</ele>
        <time>2019-08-07T09:33:28Z</time>
      </trkpt>
      <trkpt lat="48.6615230" lon="14.1240920">
        <ele>752.4</ele>
        <time>2019-08-07T09:33:29Z</time>
      </trkpt>
      <trkpt lat="48.6614880" lon="14.1241790">
        <ele>752.4</ele>
        <time>2019-08-07T09:33:30Z</time>
      </trkpt>
      <trkpt lat="48.6614480" lon="14.1242650">
        <ele>752.4</ele>
        <time>2019-08-07T09:33:31Z</time>
      </trkpt>
      <trkpt lat="48.6614070" lon="14.1243480">
        <ele>752.4</ele>
        <time>2019-08-07T09:33:32Z</time>
      </trkpt>
      <trkpt lat="48.6613650" lon="14.1244310">
        <ele>752.2</ele>
        <time>2019-08-07T09:33:33Z</time>
      </trkpt>
      <trkpt lat="48.6613240" lon="14.1245110">
        <ele>752.2</ele>
        <time>2019-08-07T09:33:34Z</time>
      </trkpt>
      <trkpt lat="48.6612870" lon="14.1245930">
        <ele>752.2</ele>
        <time>2019-08-07T09:33:35Z</time>
      </trkpt>
      <trkpt lat="48.6612510" lon="14.1246750">
        <ele>752.2</ele>
        <time>2019-08-07T09:33:36Z</time>
      </trkpt>
      <trkpt lat="48.6612160" lon="14.1247540">
        <ele>752.2</ele>
        <time>2019-08-07T09:33:37Z</time>
      </trkpt>
      <trkpt lat="48.6611790" lon="14.1248330">
        <ele>752.2</ele>
        <time>2019-08-07T09:33:38Z</time>
      </trkpt>
      <trkpt lat="48.6611430" lon="14.1249100">
        <ele>752.2</ele>
        <time>2019-08-07T09:33:39Z</time>
      </trkpt>
      <trkpt lat="48.6611120" lon="14.1249910">
        <ele>752.2</ele>
        <time>2019-08-07T09:33:40Z</time>
      </trkpt>
      <trkpt lat="48.6610790" lon="14.1250720">
        <ele>752.2</ele>
        <time>2019-08-07T09:33:41Z</time>
      </trkpt>
      <trkpt lat="48.6610460" lon="14.1251500">
        <ele>752.2</ele>
        <time>2019-08-07T09:33:42Z</time>
      </trkpt>
      <trkpt lat="48.6610150" lon="14.1252230">
        <ele>752.2</ele>
        <time>2019-08-07T09:33:43Z</time>
      </trkpt>
      <trkpt lat="48.6609810" lon="14.1252950">
        <ele>752.4</ele>
        <time>2019-08-07T09:33:44Z</time>
      </trkpt>
      <trkpt lat="48.6609500" lon="14.1253650">
        <ele>752.4</ele>
        <time>2019-08-07T09:33:45Z</time>
      </trkpt>
      <trkpt lat="48.6609190" lon="14.1254330">
        <ele>752.4</ele>
        <time>2019-08-07T09:33:46Z</time>
      </trkpt>
      <trkpt lat="48.6608890" lon="14.1255000">
        <ele>752.6</ele>
        <time>2019-08-07T09:33:47Z</time>
      </trkpt>
      <trkpt lat="48.6608580" lon="14.1255690">
        <ele>752.6</ele>
        <time>2019-08-07T09:33:48Z</time>
      </trkpt>
      <trkpt lat="48.6608290" lon="14.1256370">
        <ele>752.8</ele>
        <time>2019-08-07T09:33:49Z</time>
      </trkpt>
      <trkpt lat="48.6608020" lon="14.1257040">
        <ele>753.0</ele>
        <time>2019-08-07T09:33:50Z</time>
      </trkpt>
      <trkpt lat="48.6607770" lon="14.1257740">
        <ele>753.0</ele>
        <time>2019-08-07T09:33:51Z</time>
      </trkpt>
      <trkpt lat="48.6607480" lon="14.1258420">
        <ele>753.0</ele>
        <time>2019-08-07T09:33:52Z</time>
      </trkpt>
      <trkpt lat="48.6607180" lon="14.1259090">
        <ele>753.2</ele>
        <time>2019-08-07T09:33:53Z</time>
      </trkpt>
      <trkpt lat="48.6606860" lon="14.1259750">
        <ele>753.2</ele>
        <time>2019-08-07T09:33:54Z</time>
      </trkpt>
      <trkpt lat="48.6606620" lon="14.1260460">
        <ele>753.2</ele>
        <time>2019-08-07T09:33:55Z</time>
      </trkpt>
      <trkpt lat="48.6606370" lon="14.1261120">
        <ele>753.4</ele>
        <time>2019-08-07T09:33:56Z</time>
      </trkpt>
      <trkpt lat="48.6606120" lon="14.1261830">
        <ele>753.4</ele>
        <time>2019-08-07T09:33:57Z</time>
      </trkpt>
      <trkpt lat="48.6605900" lon="14.1262480">
        <ele>753.6</ele>
        <time>2019-08-07T09:33:58Z</time>
      </trkpt>
      <trkpt lat="48.6605620" lon="14.1263130">
        <ele>753.6</ele>
        <time>2019-08-07T09:33:59Z</time>
      </trkpt>
      <trkpt lat="48.6605390" lon="14.1263790">
        <ele>753.6</ele>
        <time>2019-08-07T09:34:00Z</time>
      </trkpt>
      <trkpt lat="48.6605160" lon="14.1264490">
        <ele>753.6</ele>
        <time>2019-08-07T09:34:01Z</time>
      </trkpt>
      <trkpt lat="48.6604910" lon="14.1265150">
        <ele>753.6</ele>
        <time>2019-08-07T09:34:02Z</time>
      </trkpt>
      <trkpt lat="48.6604670" lon="14.1265920">
        <ele>753.6</ele>
        <time>2019-08-07T09:34:03Z</time>
      </trkpt>
      <trkpt lat="48.6604400" lon="14.1266600">
        <ele>753.6</ele>
        <time>2019-08-07T09:34:04Z</time>
      </trkpt>
      <trkpt lat="48.6604150" lon="14.1267280">
        <ele>753.8</ele>
        <time>2019-08-07T09:34:05Z</time>
      </trkpt>
      <trkpt lat="48.6603870" lon="14.1267920">
        <ele>753.8</ele>
        <time>2019-08-07T09:34:06Z</time>
      </trkpt>
      <trkpt lat="48.6603570" lon="14.1268550">
        <ele>753.8</ele>
        <time>2019-08-07T09:34:07Z</time>
      </trkpt>
      <trkpt lat="48.6603320" lon="14.1269200">
        <ele>754.0</ele>
        <time>2019-08-07T09:34:08Z</time>
      </trkpt>
      <trkpt lat="48.6603090" lon="14.1269880">
        <ele>754.0</ele>
        <time>2019-08-07T09:34:09Z</time>
      </trkpt>
      <trkpt lat="48.6602830" lon="14.1270520">
        <ele>754.0</ele>
        <time>2019-08-07T09:34:10Z</time>
      </trkpt>
      <trkpt lat="48.6602570" lon="14.1271150">
        <ele>754.0</ele>
        <time>2019-08-07T09:34:11Z</time>
      </trkpt>
      <trkpt lat="48.6602280" lon="14.1271770">
        <ele>754.2</ele>
        <time>2019-08-07T09:34:12Z</time>
      </trkpt>
      <trkpt lat="48.6602010" lon="14.1272350">
        <ele>754.2</ele>
        <time>2019-08-07T09:34:13Z</time>
      </trkpt>
      <trkpt lat="48.6601740" lon="14.1272960">
        <ele>754.4</ele>
        <time>2019-08-07T09:34:14Z</time>
      </trkpt>
      <trkpt lat="48.6601470" lon="14.1273560">
        <ele>754.4</ele>
        <time>2019-08-07T09:34:15Z</time>
      </trkpt>
      <trkpt lat="48.6601200" lon="14.1274210">
        <ele>754.6</ele>
        <time>2019-08-07T09:34:16Z</time>
      </trkpt>
      <trkpt lat="48.6600920" lon="14.1274880">
        <ele>754.6</ele>
        <time>2019-08-07T09:34:17Z</time>
      </trkpt>
      <trkpt lat="48.6600650" lon="14.1275510">
        <ele>754.6</ele>
        <time>2019-08-07T09:34:18Z</time>
      </trkpt>
      <trkpt lat="48.6600380" lon="14.1276160">
        <ele>754.8</ele>
        <time>2019-08-07T09:34:19Z</time>
      </trkpt>
      <trkpt lat="48.6600100" lon="14.1276810">
        <ele>754.8</ele>
        <time>2019-08-07T09:34:20Z</time>
      </trkpt>
      <trkpt lat="48.6599840" lon="14.1277490">
        <ele>755.0</ele>
        <time>2019-08-07T09:34:21Z</time>
      </trkpt>
      <trkpt lat="48.6599570" lon="14.1278130">
        <ele>755.0</ele>
        <time>2019-08-07T09:34:22Z</time>
      </trkpt>
      <trkpt lat="48.6599330" lon="14.1278710">
        <ele>755.0</ele>
        <time>2019-08-07T09:34:23Z</time>
      </trkpt>
      <trkpt lat="48.6599090" lon="14.1279230">
        <ele>755.2</ele>
        <time>2019-08-07T09:34:24Z</time>
      </trkpt>
      <trkpt lat="48.6598830" lon="14.1279760">
        <ele>755.2</ele>
        <time>2019-08-07T09:34:25Z</time>
      </trkpt>
      <trkpt lat="48.6598510" lon="14.1280290">
        <ele>755.4</ele>
        <time>2019-08-07T09:34:26Z</time>
      </trkpt>
      <trkpt lat="48.6598210" lon="14.1280750">
        <ele>755.4</ele>
        <time>2019-08-07T09:34:27Z</time>
      </trkpt>
      <trkpt lat="48.6597870" lon="14.1281190">
        <ele>755.4</ele>
        <time>2019-08-07T09:34:28Z</time>
      </trkpt>
      <trkpt lat="48.6597520" lon="14.1281680">
        <ele>755.6</ele>
        <time>2019-08-07T09:34:29Z</time>
      </trkpt>
      <trkpt lat="48.6597160" lon="14.1282200">
        <ele>755.6</ele>
        <time>2019-08-07T09:34:30Z</time>
      </trkpt>
      <trkpt lat="48.6596780" lon="14.1282650">
        <ele>755.8</ele>
        <time>2019-08-07T09:34:31Z</time>
      </trkpt>
      <trkpt lat="48.6596440" lon="14.1283080">
        <ele>755.8</ele>
        <time>2019-08-07T09:34:32Z</time>
      </trkpt>
      <trkpt lat="48.6596090" lon="14.1283440">
        <ele>756.0</ele>
        <time>2019-08-07T09:34:33Z</time>
      </trkpt>
      <trkpt lat="48.6595760" lon="14.1283770">
        <ele>756.2</ele>
        <time>2019-08-07T09:34:34Z</time>
      </trkpt>
      <trkpt lat="48.6595430" lon="14.1284100">
        <ele>756.2</ele>
        <time>2019-08-07T09:34:35Z</time>
      </trkpt>
      <trkpt lat="48.6595090" lon="14.1284400">
        <ele>756.4</ele>
        <time>2019-08-07T09:34:36Z</time>
      </trkpt>
      <trkpt lat="48.6594760" lon="14.1284820">
        <ele>756.4</ele>
        <time>2019-08-07T09:34:37Z</time>
      </trkpt>
      <trkpt lat="48.6594430" lon="14.1285250">
        <ele>756.6</ele>
        <time>2019-08-07T09:34:38Z</time>
      </trkpt>
      <trkpt lat="48.6594080" lon="14.1285690">
        <ele>756.6</ele>
        <time>2019-08-07T09:34:39Z</time>
      </trkpt>
      <trkpt lat="48.6593750" lon="14.1286050">
        <ele>756.8</ele>
        <time>2019-08-07T09:34:40Z</time>
      </trkpt>
      <trkpt lat="48.6593350" lon="14.1286430">
        <ele>757.0</ele>
        <time>2019-08-07T09:34:41Z</time>
      </trkpt>
      <trkpt lat="48.6592970" lon="14.1286700">
        <ele>757.0</ele>
        <time>2019-08-07T09:34:42Z</time>
      </trkpt>
      <trkpt lat="48.6592610" lon="14.1287010">
        <ele>757.2</ele>
        <time>2019-08-07T09:34:43Z</time>
      </trkpt>
      <trkpt lat="48.6592200" lon="14.1287460">
        <ele>757.2</ele>
        <time>2019-08-07T09:34:44Z</time>
      </trkpt>
      <trkpt lat="48.6591830" lon="14.1287850">
        <ele>757.4</ele>
        <time>2019-08-07T09:34:45Z</time>
      </trkpt>
      <trkpt lat="48.6591420" lon="14.1288160">
        <ele>757.4</ele>
        <time>2019-08-07T09:34:46Z</time>
      </trkpt>
      <trkpt lat="48.6591040" lon="14.1288550">
        <ele>757.6</ele>
        <time>2019-08-07T09:34:47Z</time>
      </trkpt>
      <trkpt lat="48.6590620" lon="14.1288960">
        <ele>757.6</ele>
        <time>2019-08-07T09:34:48Z</time>
      </trkpt>
      <trkpt lat="48.6590220" lon="14.1289340">
        <ele>757.6</ele>
        <time>2019-08-07T09:34:49Z</time>
      </trkpt>
      <trkpt lat="48.6589840" lon="14.1289660">
        <ele>757.8</ele>
        <time>2019-08-07T09:34:50Z</time>
      </trkpt>
      <trkpt lat="48.6589400" lon="14.1290090">
        <ele>757.8</ele>
        <time>2019-08-07T09:34:51Z</time>
      </trkpt>
      <trkpt lat="48.6588990" lon="14.1290430">
        <ele>757.8</ele>
        <time>2019-08-07T09:34:52Z</time>
      </trkpt>
      <trkpt lat="48.6588550" lon="14.1290760">
        <ele>757.8</ele>
        <time>2019-08-07T09:34:53Z</time>
      </trkpt>
      <trkpt lat="48.6588170" lon="14.1291130">
        <ele>758.0</ele>
        <time>2019-08-07T09:34:54Z</time>
      </trkpt>
      <trkpt lat="48.6587770" lon="14.1291490">
        <ele>757.8</ele>
        <time>2019-08-07T09:34:55Z</time>
      </trkpt>
      <trkpt lat="48.6587350" lon="14.1291840">
        <ele>758.0</ele>
        <time>2019-08-07T09:34:56Z</time>
      </trkpt>
      <trkpt lat="48.6586940" lon="14.1292150">
        <ele>757.8</ele>
        <time>2019-08-07T09:34:57Z</time>
      </trkpt>
      <trkpt lat="48.6586520" lon="14.1292470">
        <ele>757.8</ele>
        <time>2019-08-07T09:34:58Z</time>
      </trkpt>
      <trkpt lat="48.6586090" lon="14.1292820">
        <ele>757.8</ele>
        <time>2019-08-07T09:34:59Z</time>
      </trkpt>
      <trkpt lat="48.6585670" lon="14.1293150">
        <ele>757.8</ele>
        <time>2019-08-07T09:35:00Z</time>
      </trkpt>
      <trkpt lat="48.6585260" lon="14.1293490">
        <ele>757.8</ele>
        <time>2019-08-07T09:35:01Z</time>
      </trkpt>
      <trkpt lat="48.6584900" lon="14.1293840">
        <ele>757.8</ele>
        <time>2019-08-07T09:35:02Z</time>
      </trkpt>
      <trkpt lat="48.6584480" lon="14.1294200">
        <ele>757.8</ele>
        <time>2019-08-07T09:35:03Z</time>
      </trkpt>
      <trkpt lat="48.6584070" lon="14.1294570">
        <ele>757.6</ele>
        <time>2019-08-07T09:35:04Z</time>
      </trkpt>
      <trkpt lat="48.6583660" lon="14.1294950">
        <ele>757.6</ele>
        <time>2019-08-07T09:35:05Z</time>
      </trkpt>
      <trkpt lat="48.6583190" lon="14.1295400">
        <ele>757.6</ele>
        <time>2019-08-07T09:35:06Z</time>
      </trkpt>
      <trkpt lat="48.6582730" lon="14.1295860">
        <ele>757.4</ele>
        <time>2019-08-07T09:35:07Z</time>
      </trkpt>
      <trkpt lat="48.6582240" lon="14.1296390">
        <ele>757.2</ele>
        <time>2019-08-07T09:35:08Z</time>
      </trkpt>
      <trkpt lat="48.6581720" lon="14.1296820">
        <ele>757.2</ele>
        <time>2019-08-07T09:35:09Z</time>
      </trkpt>
      <trkpt lat="48.6581220" lon="14.1297300">
        <ele>757.0</ele>
        <time>2019-08-07T09:35:10Z</time>
      </trkpt>
      <trkpt lat="48.6580670" lon="14.1297900">
        <ele>756.8</ele>
        <time>2019-08-07T09:35:11Z</time>
      </trkpt>
      <trkpt lat="48.6580120" lon="14.1298480">
        <ele>756.6</ele>
        <time>2019-08-07T09:35:12Z</time>
      </trkpt>
      <trkpt lat="48.6579570" lon="14.1299010">
        <ele>756.4</ele>
        <time>2019-08-07T09:35:13Z</time>
      </trkpt>
      <trkpt lat="48.6578980" lon="14.1299560">
        <ele>756.0</ele>
        <time>2019-08-07T09:35:14Z</time>
      </trkpt>
      <trkpt lat="48.6578360" lon="14.1300090">
        <ele>755.6</ele>
        <time>2019-08-07T09:35:15Z</time>
      </trkpt>
      <trkpt lat="48.6577730" lon="14.1300700">
        <ele>755.2</ele>
        <time>2019-08-07T09:35:16Z</time>
      </trkpt>
      <trkpt lat="48.6577090" lon="14.1301400">
        <ele>755.0</ele>
        <time>2019-08-07T09:35:17Z</time>
      </trkpt>
      <trkpt lat="48.6576420" lon="14.1302230">
        <ele>754.6</ele>
        <time>2019-08-07T09:35:18Z</time>
      </trkpt>
      <trkpt lat="48.6575730" lon="14.1303150">
        <ele>754.2</ele>
        <time>2019-08-07T09:35:19Z</time>
      </trkpt>
      <trkpt lat="48.6575020" lon="14.1304120">
        <ele>753.8</ele>
        <time>2019-08-07T09:35:20Z</time>
      </trkpt>
      <trkpt lat="48.6574360" lon="14.1305290">
        <ele>753.2</ele>
        <time>2019-08-07T09:35:21Z</time>
      </trkpt>
      <trkpt lat="48.6573740" lon="14.1306630">
        <ele>752.6</ele>
        <time>2019-08-07T09:35:22Z</time>
      </trkpt>
      <trkpt lat="48.6573100" lon="14.1308150">
        <ele>751.8</ele>
        <time>2019-08-07T09:35:23Z</time>
      </trkpt>
      <trkpt lat="48.6572610" lon="14.1309590">
        <ele>751.0</ele>
        <time>2019-08-07T09:35:24Z</time>
      </trkpt>
      <trkpt lat="48.6572120" lon="14.1311010">
        <ele>750.2</ele>
        <time>2019-08-07T09:35:25Z</time>
      </trkpt>
      <trkpt lat="48.6571550" lon="14.1312390">
        <ele>749.6</ele>
        <time>2019-08-07T09:35:26Z</time>
      </trkpt>
      <trkpt lat="48.6571080" lon="14.1313890">
        <ele>748.8</ele>
        <time>2019-08-07T09:35:27Z</time>
      </trkpt>
      <trkpt lat="48.6570520" lon="14.1315610">
        <ele>748.2</ele>
        <time>2019-08-07T09:35:28Z</time>
      </trkpt>
      <trkpt lat="48.6569850" lon="14.1317700">
        <ele>747.6</ele>
        <time>2019-08-07T09:35:29Z</time>
      </trkpt>
      <trkpt lat="48.6569450" lon="14.1319700">
        <ele>747.0</ele>
        <time>2019-08-07T09:35:30Z</time>
      </trkpt>
      <trkpt lat="48.6569150" lon="14.1321520">
        <ele>746.6</ele>
        <time>2019-08-07T09:35:31Z</time>
      </trkpt>
      <trkpt lat="48.6568930" lon="14.1323540">
        <ele>746.2</ele>
        <time>2019-08-07T09:35:32Z</time>
      </trkpt>
      <trkpt lat="48.6568900" lon="14.1325240">
        <ele>746.0</ele>
        <time>2019-08-07T09:35:33Z</time>
      </trkpt>
      <trkpt lat="48.6568880" lon="14.1327000">
        <ele>745.6</ele>
        <time>2019-08-07T09:35:34Z</time>
      </trkpt>
      <trkpt lat="48.6568970" lon="14.1328580">
        <ele>745.4</ele>
        <time>2019-08-07T09:35:35Z</time>
      </trkpt>
      <trkpt lat="48.6569100" lon="14.1330060">
        <ele>745.2</ele>
        <time>2019-08-07T09:35:36Z</time>
      </trkpt>
      <trkpt lat="48.6569290" lon="14.1331570">
        <ele>745.0</ele>
        <time>2019-08-07T09:35:37Z</time>
      </trkpt>
      <trkpt lat="48.6569540" lon="14.1332950">
        <ele>745.0</ele>
        <time>2019-08-07T09:35:38Z</time>
      </trkpt>
      <trkpt lat="48.6569860" lon="14.1334330">
        <ele>744.8</ele>
        <time>2019-08-07T09:35:39Z</time>
      </trkpt>
      <trkpt lat="48.6570250" lon="14.1335620">
        <ele>744.4</ele>
        <time>2019-08-07T09:35:40Z</time>
      </trkpt>
      <trkpt lat="48.6570680" lon="14.1336840">
        <ele>744.0</ele>
        <time>2019-08-07T09:35:41Z</time>
      </trkpt>
      <trkpt lat="48.6571110" lon="14.1338000">
        <ele>743.8</ele>
        <time>2019-08-07T09:35:42Z</time>
      </trkpt>
      <trkpt lat="48.6571550" lon="14.1339260">
        <ele>743.4</ele>
        <time>2019-08-07T09:35:43Z</time>
      </trkpt>
      <trkpt lat="48.6571940" lon="14.1340480">
        <ele>743.4</ele>
        <time>2019-08-07T09:35:44Z</time>
      </trkpt>
      <trkpt lat="48.6572350" lon="14.1341680">
        <ele>743.2</ele>
        <time>2019-08-07T09:35:45Z</time>
      </trkpt>
      <trkpt lat="48.6572780" lon="14.1342940">
        <ele>743.2</ele>
        <time>2019-08-07T09:35:46Z</time>
      </trkpt>
      <trkpt lat="48.6573200" lon="14.1344200">
        <ele>743.2</ele>
        <time>2019-08-07T09:35:47Z</time>
      </trkpt>
      <trkpt lat="48.6573640" lon="14.1345520">
        <ele>743.0</ele>
        <time>2019-08-07T09:35:48Z</time>
      </trkpt>
      <trkpt lat="48.6574080" lon="14.1346780">
        <ele>743.0</ele>
        <time>2019-08-07T09:35:49Z</time>
      </trkpt>
      <trkpt lat="48.6574470" lon="14.1347930">
        <ele>743.0</ele>
        <time>2019-08-07T09:35:50Z</time>
      </trkpt>
      <trkpt lat="48.6574890" lon="14.1349120">
        <ele>743.0</ele>
        <time>2019-08-07T09:35:51Z</time>
      </trkpt>
      <trkpt lat="48.6575280" lon="14.1350240">
        <ele>743.0</ele>
        <time>2019-08-07T09:35:52Z</time>
      </trkpt>
      <trkpt lat="48.6575680" lon="14.1351430">
        <ele>742.8</ele>
        <time>2019-08-07T09:35:53Z</time>
      </trkpt>
      <trkpt lat="48.6576050" lon="14.1352580">
        <ele>742.8</ele>
        <time>2019-08-07T09:35:54Z</time>
      </trkpt>
      <trkpt lat="48.6576370" lon="14.1353610">
        <ele>742.6</ele>
        <time>2019-08-07T09:35:55Z</time>
      </trkpt>
      <trkpt lat="48.6576700" lon="14.1354620">
        <ele>742.2</ele>
        <time>2019-08-07T09:35:56Z</time>
      </trkpt>
      <trkpt lat="48.6576990" lon="14.1355680">
        <ele>742.2</ele>
        <time>2019-08-07T09:35:57Z</time>
      </trkpt>
      <trkpt lat="48.6577300" lon="14.1356750">
        <ele>742.0</ele>
        <time>2019-08-07T09:35:58Z</time>
      </trkpt>
      <trkpt lat="48.6577620" lon="14.1357850">
        <ele>741.8</ele>
        <time>2019-08-07T09:35:59Z</time>
      </trkpt>
      <trkpt lat="48.6577890" lon="14.1358960">
        <ele>741.6</ele>
        <time>2019-08-07T09:36:00Z</time>
      </trkpt>
      <trkpt lat="48.6578110" lon="14.1360030">
        <ele>741.6</ele>
        <time>2019-08-07T09:36:01Z</time>
      </trkpt>
      <trkpt lat="48.6578390" lon="14.1361040">
        <ele>741.6</ele>
        <time>2019-08-07T09:36:02Z</time>
      </trkpt>
      <trkpt lat="48.6578700" lon="14.1362100">
        <ele>741.4</ele>
        <time>2019-08-07T09:36:03Z</time>
      </trkpt>
      <trkpt lat="48.6578960" lon="14.1363110">
        <ele>741.4</ele>
        <time>2019-08-07T09:36:04Z</time>
      </trkpt>
      <trkpt lat="48.6579220" lon="14.1364240">
        <ele>741.4</ele>
        <time>2019-08-07T09:36:05Z</time>
      </trkpt>
      <trkpt lat="48.6579440" lon="14.1365310">
        <ele>741.4</ele>
        <time>2019-08-07T09:36:06Z</time>
      </trkpt>
      <trkpt lat="48.6579640" lon="14.1366420">
        <ele>741.2</ele>
        <time>2019-08-07T09:36:07Z</time>
      </trkpt>
      <trkpt lat="48.6579850" lon="14.1367550">
        <ele>741.2</ele>
        <time>2019-08-07T09:36:08Z</time>
      </trkpt>
      <trkpt lat="48.6580050" lon="14.1368660">
        <ele>741.2</ele>
        <time>2019-08-07T09:36:09Z</time>
      </trkpt>
      <trkpt lat="48.6580240" lon="14.1369620">
        <ele>741.2</ele>
        <time>2019-08-07T09:36:10Z</time>
      </trkpt>
      <trkpt lat="48.6580430" lon="14.1370550">
        <ele>741.0</ele>
        <time>2019-08-07T09:36:11Z</time>
      </trkpt>
      <trkpt lat="48.6580510" lon="14.1371560">
        <ele>741.0</ele>
        <time>2019-08-07T09:36:12Z</time>
      </trkpt>
      <trkpt lat="48.6580590" lon="14.1372630">
        <ele>741.0</ele>
        <time>2019-08-07T09:36:13Z</time>
      </trkpt>
      <trkpt lat="48.6580650" lon="14.1373670">
        <ele>741.0</ele>
        <time>2019-08-07T09:36:14Z</time>
      </trkpt>
      <trkpt lat="48.6580670" lon="14.1374730">
        <ele>741.0</ele>
        <time>2019-08-07T09:36:15Z</time>
      </trkpt>
      <trkpt lat="48.6580700" lon="14.1375830">
        <ele>741.0</ele>
        <time>2019-08-07T09:36:16Z</time>
      </trkpt>
      <trkpt lat="48.6580680" lon="14.1376890">
        <ele>741.2</ele>
        <time>2019-08-07T09:36:17Z</time>
      </trkpt>
      <trkpt lat="48.6580650" lon="14.1377950">
        <ele>741.2</ele>
        <time>2019-08-07T09:36:18Z</time>
      </trkpt>
      <trkpt lat="48.6580640" lon="14.1379020">
        <ele>741.2</ele>
        <time>2019-08-07T09:36:19Z</time>
      </trkpt>
      <trkpt lat="48.6580660" lon="14.1380060">
        <ele>741.2</ele>
        <time>2019-08-07T09:36:20Z</time>
      </trkpt>
      <trkpt lat="48.6580650" lon="14.1380980">
        <ele>741.2</ele>
        <time>2019-08-07T09:36:21Z</time>
      </trkpt>
      <trkpt lat="48.6580640" lon="14.1381890">
        <ele>741.2</ele>
        <time>2019-08-07T09:36:22Z</time>
      </trkpt>
      <trkpt lat="48.6580600" lon="14.1382800">
        <ele>741.2</ele>
        <time>2019-08-07T09:36:23Z</time>
      </trkpt>
      <trkpt lat="48.6580640" lon="14.1383700">
        <ele>741.2</ele>
        <time>2019-08-07T09:36:24Z</time>
      </trkpt>
      <trkpt lat="48.6580700" lon="14.1384630">
        <ele>741.4</ele>
        <time>2019-08-07T09:36:25Z</time>
      </trkpt>
      <trkpt lat="48.6580730" lon="14.1385490">
        <ele>741.4</ele>
        <time>2019-08-07T09:36:26Z</time>
      </trkpt>
      <trkpt lat="48.6580740" lon="14.1386380">
        <ele>741.4</ele>
        <time>2019-08-07T09:36:27Z</time>
      </trkpt>
      <trkpt lat="48.6580790" lon="14.1387310">
        <ele>741.4</ele>
        <time>2019-08-07T09:36:28Z</time>
      </trkpt>
      <trkpt lat="48.6580800" lon="14.1388200">
        <ele>741.4</ele>
        <time>2019-08-07T09:36:29Z</time>
      </trkpt>
      <trkpt lat="48.6580760" lon="14.1389050">
        <ele>741.6</ele>
        <time>2019-08-07T09:36:30Z</time>
      </trkpt>
      <trkpt lat="48.6580730" lon="14.1389930">
        <ele>741.6</ele>
        <time>2019-08-07T09:36:31Z</time>
      </trkpt>
      <trkpt lat="48.6580700" lon="14.1390750">
        <ele>741.6</ele>
        <time>2019-08-07T09:36:32Z</time>
      </trkpt>
      <trkpt lat="48.6580580" lon="14.1391590">
        <ele>741.6</ele>
        <time>2019-08-07T09:36:33Z</time>
      </trkpt>
      <trkpt lat="48.6580430" lon="14.1392330">
        <ele>741.8</ele>
        <time>2019-08-07T09:36:34Z</time>
      </trkpt>
      <trkpt lat="48.6580240" lon="14.1393100">
        <ele>741.8</ele>
        <time>2019-08-07T09:36:35Z</time>
      </trkpt>
      <trkpt lat="48.6580030" lon="14.1393930">
        <ele>741.8</ele>
        <time>2019-08-07T09:36:36Z</time>
      </trkpt>
      <trkpt lat="48.6579820" lon="14.1394760">
        <ele>741.8</ele>
        <time>2019-08-07T09:36:37Z</time>
      </trkpt>
      <trkpt lat="48.6579670" lon="14.1395570">
        <ele>742.0</ele>
        <time>2019-08-07T09:36:38Z</time>
      </trkpt>
      <trkpt lat="48.6579520" lon="14.1396390">
        <ele>742.0</ele>
        <time>2019-08-07T09:36:39Z</time>
      </trkpt>
      <trkpt lat="48.6579350" lon="14.1397130">
        <ele>742.0</ele>
        <time>2019-08-07T09:36:40Z</time>
      </trkpt>
      <trkpt lat="48.6579070" lon="14.1397920">
        <ele>742.0</ele>
        <time>2019-08-07T09:36:41Z</time>
      </trkpt>
      <trkpt lat="48.6578860" lon="14.1398810">
        <ele>742.0</ele>
        <time>2019-08-07T09:36:42Z</time>
      </trkpt>
      <trkpt lat="48.6578630" lon="14.1399700">
        <ele>742.0</ele>
        <time>2019-08-07T09:36:43Z</time>
      </trkpt>
      <trkpt lat="48.6578440" lon="14.1400550">
        <ele>742.2</ele>
        <time>2019-08-07T09:36:44Z</time>
      </trkpt>
      <trkpt lat="48.6578190" lon="14.1401340">
        <ele>742.2</ele>
        <time>2019-08-07T09:36:45Z</time>
      </trkpt>
      <trkpt lat="48.6577950" lon="14.1402130">
        <ele>742.4</ele>
        <time>2019-08-07T09:36:46Z</time>
      </trkpt>
      <trkpt lat="48.6577670" lon="14.1402910">
        <ele>742.4</ele>
        <time>2019-08-07T09:36:47Z</time>
      </trkpt>
      <trkpt lat="48.6577430" lon="14.1403660">
        <ele>742.4</ele>
        <time>2019-08-07T09:36:48Z</time>
      </trkpt>
      <trkpt lat="48.6577220" lon="14.1404410">
        <ele>742.6</ele>
        <time>2019-08-07T09:36:49Z</time>
      </trkpt>
      <trkpt lat="48.6576970" lon="14.1405050">
        <ele>742.6</ele>
        <time>2019-08-07T09:36:50Z</time>
      </trkpt>
      <trkpt lat="48.6576630" lon="14.1405730">
        <ele>742.8</ele>
        <time>2019-08-07T09:36:51Z</time>
      </trkpt>
      <trkpt lat="48.6576340" lon="14.1406550">
        <ele>742.8</ele>
        <time>2019-08-07T09:36:52Z</time>
      </trkpt>
      <trkpt lat="48.6576120" lon="14.1407460">
        <ele>742.8</ele>
        <time>2019-08-07T09:36:53Z</time>
      </trkpt>
      <trkpt lat="48.6575880" lon="14.1408260">
        <ele>742.8</ele>
        <time>2019-08-07T09:36:54Z</time>
      </trkpt>
      <trkpt lat="48.6575670" lon="14.1409110">
        <ele>742.8</ele>
        <time>2019-08-07T09:36:55Z</time>
      </trkpt>
      <trkpt lat="48.6575530" lon="14.1409900">
        <ele>742.8</ele>
        <time>2019-08-07T09:36:56Z</time>
      </trkpt>
      <trkpt lat="48.6575320" lon="14.1410820">
        <ele>742.8</ele>
        <time>2019-08-07T09:36:57Z</time>
      </trkpt>
      <trkpt lat="48.6575090" lon="14.1411700">
        <ele>742.8</ele>
        <time>2019-08-07T09:36:58Z</time>
      </trkpt>
      <trkpt lat="48.6574780" lon="14.1412560">
        <ele>742.8</ele>
        <time>2019-08-07T09:36:59Z</time>
      </trkpt>
      <trkpt lat="48.6574450" lon="14.1413460">
        <ele>742.6</ele>
        <time>2019-08-07T09:37:00Z</time>
      </trkpt>
      <trkpt lat="48.6574120" lon="14.1414350">
        <ele>742.6</ele>
        <time>2019-08-07T09:37:01Z</time>
      </trkpt>
      <trkpt lat="48.6573760" lon="14.1415200">
        <ele>742.6</ele>
        <time>2019-08-07T09:37:02Z</time>
      </trkpt>
      <trkpt lat="48.6573400" lon="14.1416000">
        <ele>742.4</ele>
        <time>2019-08-07T09:37:03Z</time>
      </trkpt>
      <trkpt lat="48.6573070" lon="14.1416750">
        <ele>742.4</ele>
        <time>2019-08-07T09:37:04Z</time>
      </trkpt>
      <trkpt lat="48.6572780" lon="14.1417500">
        <ele>742.4</ele>
        <time>2019-08-07T09:37:05Z</time>
      </trkpt>
      <trkpt lat="48.6572470" lon="14.1418210">
        <ele>742.2</ele>
        <time>2019-08-07T09:37:06Z</time>
      </trkpt>
      <trkpt lat="48.6572090" lon="14.1418960">
        <ele>742.2</ele>
        <time>2019-08-07T09:37:07Z</time>
      </trkpt>
      <trkpt lat="48.6571690" lon="14.1419740">
        <ele>742.0</ele>
        <time>2019-08-07T09:37:08Z</time>
      </trkpt>
      <trkpt lat="48.6571280" lon="14.1420480">
        <ele>742.0</ele>
        <time>2019-08-07T09:37:09Z</time>
      </trkpt>
      <trkpt lat="48.6570870" lon="14.1421170">
        <ele>741.8</ele>
        <time>2019-08-07T09:37:10Z</time>
      </trkpt>
      <trkpt lat="48.6570460" lon="14.1421890">
        <ele>741.8</ele>
        <time>2019-08-07T09:37:11Z</time>
      </trkpt>
      <trkpt lat="48.6570070" lon="14.1422670">
        <ele>741.8</ele>
        <time>2019-08-07T09:37:12Z</time>
      </trkpt>
      <trkpt lat="48.6569680" lon="14.1423450">
        <ele>741.6</ele>
        <time>2019-08-07T09:37:13Z</time>
      </trkpt>
      <trkpt lat="48.6569320" lon="14.1424320">
        <ele>741.6</ele>
        <time>2019-08-07T09:37:14Z</time>
      </trkpt>
      <trkpt lat="48.6568960" lon="14.1425200">
        <ele>741.4</ele>
        <time>2019-08-07T09:37:15Z</time>
      </trkpt>
      <trkpt lat="48.6568610" lon="14.1426000">
        <ele>741.4</ele>
        <time>2019-08-07T09:37:16Z</time>
      </trkpt>
      <trkpt lat="48.6568230" lon="14.1426760">
        <ele>741.2</ele>
        <time>2019-08-07T09:37:17Z</time>
      </trkpt>
      <trkpt lat="48.6567920" lon="14.1427640">
        <ele>741.2</ele>
        <time>2019-08-07T09:37:18Z</time>
      </trkpt>
      <trkpt lat="48.6567620" lon="14.1428460">
        <ele>741.2</ele>
        <time>2019-08-07T09:37:19Z</time>
      </trkpt>
      <trkpt lat="48.6567340" lon="14.1429310">
        <ele>741.0</ele>
        <time>2019-08-07T09:37:20Z</time>
      </trkpt>
      <trkpt lat="48.6567090" lon="14.1430190">
        <ele>741.0</ele>
        <time>2019-08-07T09:37:21Z</time>
      </trkpt>
      <trkpt lat="48.6566820" lon="14.1431070">
        <ele>741.0</ele>
        <time>2019-08-07T09:37:22Z</time>
      </trkpt>
      <trkpt lat="48.6566540" lon="14.1431890">
        <ele>740.8</ele>
        <time>2019-08-07T09:37:23Z</time>
      </trkpt>
      <trkpt lat="48.6566280" lon="14.1432630">
        <ele>740.8</ele>
        <time>2019-08-07T09:37:24Z</time>
      </trkpt>
      <trkpt lat="48.6566010" lon="14.1433340">
        <ele>740.8</ele>
        <time>2019-08-07T09:37:25Z</time>
      </trkpt>
      <trkpt lat="48.6565840" lon="14.1434150">
        <ele>740.8</ele>
        <time>2019-08-07T09:37:26Z</time>
      </trkpt>
      <trkpt lat="48.6565600" lon="14.1435030">
        <ele>740.8</ele>
        <time>2019-08-07T09:37:27Z</time>
      </trkpt>
      <trkpt lat="48.6565360" lon="14.1435850">
        <ele>740.6</ele>
        <time>2019-08-07T09:37:28Z</time>
      </trkpt>
      <trkpt lat="48.6565070" lon="14.1436710">
        <ele>740.6</ele>
        <time>2019-08-07T09:37:29Z</time>
      </trkpt>
      <trkpt lat="48.6564790" lon="14.1437580">
        <ele>740.6</ele>
        <time>2019-08-07T09:37:30Z</time>
      </trkpt>
      <trkpt lat="48.6564540" lon="14.1438510">
        <ele>740.6</ele>
        <time>2019-08-07T09:37:31Z</time>
      </trkpt>
      <trkpt lat="48.6564260" lon="14.1439500">
        <ele>740.6</ele>
        <time>2019-08-07T09:37:32Z</time>
      </trkpt>
      <trkpt lat="48.6564030" lon="14.1440420">
        <ele>740.6</ele>
        <time>2019-08-07T09:37:33Z</time>
      </trkpt>
      <trkpt lat="48.6563830" lon="14.1441380">
        <ele>740.4</ele>
        <time>2019-08-07T09:37:34Z</time>
      </trkpt>
      <trkpt lat="48.6563650" lon="14.1442360">
        <ele>740.6</ele>
        <time>2019-08-07T09:37:35Z</time>
      </trkpt>
      <trkpt lat="48.6563460" lon="14.1443240">
        <ele>740.8</ele>
        <time>2019-08-07T09:37:36Z</time>
      </trkpt>
      <trkpt lat="48.6563310" lon="14.1444260">
        <ele>740.8</ele>
        <time>2019-08-07T09:37:37Z</time>
      </trkpt>
      <trkpt lat="48.6563220" lon="14.1445320">
        <ele>740.8</ele>
        <time>2019-08-07T09:37:38Z</time>
      </trkpt>
      <trkpt lat="48.6563060" lon="14.1446370">
        <ele>740.8</ele>
        <time>2019-08-07T09:37:39Z</time>
      </trkpt>
      <trkpt lat="48.6562870" lon="14.1447460">
        <ele>740.6</ele>
        <time>2019-08-07T09:37:40Z</time>
      </trkpt>
      <trkpt lat="48.6562660" lon="14.1448480">
        <ele>740.6</ele>
        <time>2019-08-07T09:37:41Z</time>
      </trkpt>
      <trkpt lat="48.6562460" lon="14.1449450">
        <ele>740.6</ele>
        <time>2019-08-07T09:37:42Z</time>
      </trkpt>
      <trkpt lat="48.6562270" lon="14.1450470">
        <ele>740.6</ele>
        <time>2019-08-07T09:37:43Z</time>
      </trkpt>
      <trkpt lat="48.6562070" lon="14.1451450">
        <ele>740.6</ele>
        <time>2019-08-07T09:37:44Z</time>
      </trkpt>
      <trkpt lat="48.6561900" lon="14.1452390">
        <ele>740.6</ele>
        <time>2019-08-07T09:37:45Z</time>
      </trkpt>
      <trkpt lat="48.6561710" lon="14.1453300">
        <ele>740.6</ele>
        <time>2019-08-07T09:37:46Z</time>
      </trkpt>
      <trkpt lat="48.6561460" lon="14.1454250">
        <ele>740.4</ele>
        <time>2019-08-07T09:37:47Z</time>
      </trkpt>
      <trkpt lat="48.6561280" lon="14.1455230">
        <ele>740.4</ele>
        <time>2019-08-07T09:37:48Z</time>
      </trkpt>
      <trkpt lat="48.6561130" lon="14.1456150">
        <ele>740.4</ele>
        <time>2019-08-07T09:37:49Z</time>
      </trkpt>
      <trkpt lat="48.6560960" lon="14.1457060">
        <ele>740.4</ele>
        <time>2019-08-07T09:37:50Z</time>
      </trkpt>
      <trkpt lat="48.6560800" lon="14.1457910">
        <ele>740.2</ele>
        <time>2019-08-07T09:37:51Z</time>
      </trkpt>
      <trkpt lat="48.6560610" lon="14.1458790">
        <ele>740.2</ele>
        <time>2019-08-07T09:37:52Z</time>
      </trkpt>
      <trkpt lat="48.6560430" lon="14.1459650">
        <ele>740.4</ele>
        <time>2019-08-07T09:37:53Z</time>
      </trkpt>
      <trkpt lat="48.6560260" lon="14.1460520">
        <ele>740.4</ele>
        <time>2019-08-07T09:37:54Z</time>
      </trkpt>
      <trkpt lat="48.6560100" lon="14.1461360">
        <ele>740.4</ele>
        <time>2019-08-07T09:37:55Z</time>
      </trkpt>
      <trkpt lat="48.6559960" lon="14.1462220">
        <ele>740.4</ele>
        <time>2019-08-07T09:37:56Z</time>
      </trkpt>
      <trkpt lat="48.6559780" lon="14.1463050">
        <ele>740.6</ele>
        <time>2019-08-07T09:37:57Z</time>
      </trkpt>
      <trkpt lat="48.6559620" lon="14.1463850">
        <ele>740.6</ele>
        <time>2019-08-07T09:37:58Z</time>
      </trkpt>
      <trkpt lat="48.6559470" lon="14.1464670">
        <ele>740.8</ele>
        <time>2019-08-07T09:37:59Z</time>
      </trkpt>
      <trkpt lat="48.6559320" lon="14.1465470">
        <ele>740.8</ele>
        <time>2019-08-07T09:38:00Z</time>
      </trkpt>
      <trkpt lat="48.6559190" lon="14.1466250">
        <ele>740.8</ele>
        <time>2019-08-07T09:38:01Z</time>
      </trkpt>
      <trkpt lat="48.6559100" lon="14.1467040">
        <ele>741.0</ele>
        <time>2019-08-07T09:38:02Z</time>
      </trkpt>
      <trkpt lat="48.6559010" lon="14.1467820">
        <ele>741.0</ele>
        <time>2019-08-07T09:38:03Z</time>
      </trkpt>
      <trkpt lat="48.6558960" lon="14.1468620">
        <ele>741.2</ele>
        <time>2019-08-07T09:38:04Z</time>
      </trkpt>
      <trkpt lat="48.6558880" lon="14.1469410">
        <ele>741.2</ele>
        <time>2019-08-07T09:38:05Z</time>
      </trkpt>
      <trkpt lat="48.6558850" lon="14.1470190">
        <ele>741.2</ele>
        <time>2019-08-07T09:38:06Z</time>
      </trkpt>
      <trkpt lat="48.6558820" lon="14.1470950">
        <ele>741.4</ele>
        <time>2019-08-07T09:38:07Z</time>
      </trkpt>
      <trkpt lat="48.6558660" lon="14.1471610">
        <ele>741.4</ele>
        <time>2019-08-07T09:38:08Z</time>
      </trkpt>
      <trkpt lat="48.6558500" lon="14.1472340">
        <ele>741.4</ele>
        <time>2019-08-07T09:38:09Z</time>
      </trkpt>
      <trkpt lat="48.6558440" lon="14.1473120">
        <ele>741.6</ele>
        <time>2019-08-07T09:38:10Z</time>
      </trkpt>
      <trkpt lat="48.6558320" lon="14.1473840">
        <ele>741.8</ele>
        <time>2019-08-07T09:38:11Z</time>
      </trkpt>
      <trkpt lat="48.6558220" lon="14.1474530">
        <ele>741.8</ele>
        <time>2019-08-07T09:38:12Z</time>
      </trkpt>
      <trkpt lat="48.6558130" lon="14.1475230">
        <ele>742.0</ele>
        <time>2019-08-07T09:38:13Z</time>
      </trkpt>
      <trkpt lat="48.6558080" lon="14.1475920">
        <ele>742.2</ele>
        <time>2019-08-07T09:38:14Z</time>
      </trkpt>
      <trkpt lat="48.6558020" lon="14.1476650">
        <ele>742.2</ele>
        <time>2019-08-07T09:38:15Z</time>
      </trkpt>
      <trkpt lat="48.6557920" lon="14.1477360">
        <ele>742.4</ele>
        <time>2019-08-07T09:38:16Z</time>
      </trkpt>
      <trkpt lat="48.6557820" lon="14.1478080">
        <ele>742.4</ele>
        <time>2019-08-07T09:38:17Z</time>
      </trkpt>
      <trkpt lat="48.6557720" lon="14.1478790">
        <ele>742.6</ele>
        <time>2019-08-07T09:38:18Z</time>
      </trkpt>
      <trkpt lat="48.6557580" lon="14.1479480">
        <ele>742.6</ele>
        <time>2019-08-07T09:38:19Z</time>
      </trkpt>
      <trkpt lat="48.6557500" lon="14.1480190">
        <ele>742.6</ele>
        <time>2019-08-07T09:38:20Z</time>
      </trkpt>
      <trkpt lat="48.6557340" lon="14.1480940">
        <ele>742.8</ele>
        <time>2019-08-07T09:38:21Z</time>
      </trkpt>
      <trkpt lat="48.6557150" lon="14.1481710">
        <ele>742.8</ele>
        <time>2019-08-07T09:38:22Z</time>
      </trkpt>
      <trkpt lat="48.6556980" lon="14.1482520">
        <ele>742.8</ele>
        <time>2019-08-07T09:38:23Z</time>
      </trkpt>
      <trkpt lat="48.6556800" lon="14.1483360">
        <ele>743.0</ele>
        <time>2019-08-07T09:38:24Z</time>
      </trkpt>
      <trkpt lat="48.6556680" lon="14.1484160">
        <ele>742.8</ele>
        <time>2019-08-07T09:38:25Z</time>
      </trkpt>
      <trkpt lat="48.6556530" lon="14.1484940">
        <ele>742.8</ele>
        <time>2019-08-07T09:38:26Z</time>
      </trkpt>
      <trkpt lat="48.6556350" lon="14.1485690">
        <ele>742.8</ele>
        <time>2019-08-07T09:38:27Z</time>
      </trkpt>
      <trkpt lat="48.6556210" lon="14.1486540">
        <ele>742.8</ele>
        <time>2019-08-07T09:38:28Z</time>
      </trkpt>
      <trkpt lat="48.6556180" lon="14.1487340">
        <ele>742.8</ele>
        <time>2019-08-07T09:38:29Z</time>
      </trkpt>
      <trkpt lat="48.6556130" lon="14.1488140">
        <ele>742.6</ele>
        <time>2019-08-07T09:38:30Z</time>
      </trkpt>
      <trkpt lat="48.6556090" lon="14.1488920">
        <ele>742.6</ele>
        <time>2019-08-07T09:38:31Z</time>
      </trkpt>
      <trkpt lat="48.6556120" lon="14.1489720">
        <ele>742.6</ele>
        <time>2019-08-07T09:38:32Z</time>
      </trkpt>
      <trkpt lat="48.6556140" lon="14.1490580">
        <ele>742.4</ele>
        <time>2019-08-07T09:38:33Z</time>
      </trkpt>
      <trkpt lat="48.6556150" lon="14.1491440">
        <ele>742.4</ele>
        <time>2019-08-07T09:38:34Z</time>
      </trkpt>
      <trkpt lat="48.6556190" lon="14.1492290">
        <ele>742.2</ele>
        <time>2019-08-07T09:38:35Z</time>
      </trkpt>
      <trkpt lat="48.6556240" lon="14.1493160">
        <ele>742.0</ele>
        <time>2019-08-07T09:38:36Z</time>
      </trkpt>
      <trkpt lat="48.6556330" lon="14.1494080">
        <ele>742.0</ele>
        <time>2019-08-07T09:38:37Z</time>
      </trkpt>
      <trkpt lat="48.6556430" lon="14.1495010">
        <ele>741.8</ele>
        <time>2019-08-07T09:38:38Z</time>
      </trkpt>
      <trkpt lat="48.6556560" lon="14.1495940">
        <ele>741.8</ele>
        <time>2019-08-07T09:38:39Z</time>
      </trkpt>
      <trkpt lat="48.6556680" lon="14.1496880">
        <ele>741.6</ele>
        <time>2019-08-07T09:38:40Z</time>
      </trkpt>
      <trkpt lat="48.6556780" lon="14.1497860">
        <ele>741.6</ele>
        <time>2019-08-07T09:38:41Z</time>
      </trkpt>
      <trkpt lat="48.6556940" lon="14.1498770">
        <ele>741.4</ele>
        <time>2019-08-07T09:38:42Z</time>
      </trkpt>
      <trkpt lat="48.6557100" lon="14.1499700">
        <ele>741.4</ele>
        <time>2019-08-07T09:38:43Z</time>
      </trkpt>
      <trkpt lat="48.6557270" lon="14.1500640">
        <ele>741.2</ele>
        <time>2019-08-07T09:38:44Z</time>
      </trkpt>
      <trkpt lat="48.6557430" lon="14.1501560">
        <ele>741.2</ele>
        <time>2019-08-07T09:38:45Z</time>
      </trkpt>
      <trkpt lat="48.6557600" lon="14.1502480">
        <ele>741.2</ele>
        <time>2019-08-07T09:38:46Z</time>
      </trkpt>
      <trkpt lat="48.6557780" lon="14.1503390">
        <ele>741.2</ele>
        <time>2019-08-07T09:38:47Z</time>
      </trkpt>
      <trkpt lat="48.6557990" lon="14.1504310">
        <ele>741.0</ele>
        <time>2019-08-07T09:38:48Z</time>
      </trkpt>
      <trkpt lat="48.6558210" lon="14.1505240">
        <ele>741.0</ele>
        <time>2019-08-07T09:38:49Z</time>
      </trkpt>
      <trkpt lat="48.6558390" lon="14.1506160">
        <ele>741.0</ele>
        <time>2019-08-07T09:38:50Z</time>
      </trkpt>
      <trkpt lat="48.6558610" lon="14.1507130">
        <ele>741.0</ele>
        <time>2019-08-07T09:38:51Z</time>
      </trkpt>
      <trkpt lat="48.6558840" lon="14.1508020">
        <ele>741.2</ele>
        <time>2019-08-07T09:38:52Z</time>
      </trkpt>
      <trkpt lat="48.6559030" lon="14.1508880">
        <ele>741.2</ele>
        <time>2019-08-07T09:38:53Z</time>
      </trkpt>
      <trkpt lat="48.6559150" lon="14.1509730">
        <ele>741.2</ele>
        <time>2019-08-07T09:38:54Z</time>
      </trkpt>
      <trkpt lat="48.6559330" lon="14.1510560">
        <ele>741.2</ele>
        <time>2019-08-07T09:38:55Z</time>
      </trkpt>
      <trkpt lat="48.6559490" lon="14.1511410">
        <ele>741.2</ele>
        <time>2019-08-07T09:38:56Z</time>
      </trkpt>
      <trkpt lat="48.6559670" lon="14.1512280">
        <ele>741.2</ele>
        <time>2019-08-07T09:38:57Z</time>
      </trkpt>
      <trkpt lat="48.6559840" lon="14.1513080">
        <ele>741.2</ele>
        <time>2019-08-07T09:38:58Z</time>
      </trkpt>
      <trkpt lat="48.6560050" lon="14.1513860">
        <ele>741.2</ele>
        <time>2019-08-07T09:38:59Z</time>
      </trkpt>
      <trkpt lat="48.6560310" lon="14.1514640">
        <ele>741.4</ele>
        <time>2019-08-07T09:39:00Z</time>
      </trkpt>
      <trkpt lat="48.6560540" lon="14.1515370">
        <ele>741.4</ele>
        <time>2019-08-07T09:39:01Z</time>
      </trkpt>
      <trkpt lat="48.6560760" lon="14.1516200">
        <ele>741.6</ele>
        <time>2019-08-07T09:39:02Z</time>
      </trkpt>
      <trkpt lat="48.6561000" lon="14.1517030">
        <ele>741.6</ele>
        <time>2019-08-07T09:39:03Z</time>
      </trkpt>
      <trkpt lat="48.6561240" lon="14.1517840">
        <ele>741.8</ele>
        <time>2019-08-07T09:39:04Z</time>
      </trkpt>
      <trkpt lat="48.6561440" lon="14.1518640">
        <ele>741.8</ele>
        <time>2019-08-07T09:39:05Z</time>
      </trkpt>
      <trkpt lat="48.6561640" lon="14.1519420">
        <ele>741.8</ele>
        <time>2019-08-07T09:39:06Z</time>
      </trkpt>
      <trkpt lat="48.6561890" lon="14.1520170">
        <ele>742.0</ele>
        <time>2019-08-07T09:39:07Z</time>
      </trkpt>
      <trkpt lat="48.6562160" lon="14.1520920">
        <ele>742.0</ele>
        <time>2019-08-07T09:39:08Z</time>
      </trkpt>
      <trkpt lat="48.6562390" lon="14.1521670">
        <ele>742.0</ele>
        <time>2019-08-07T09:39:09Z</time>
      </trkpt>
      <trkpt lat="48.6562600" lon="14.1522450">
        <ele>742.0</ele>
        <time>2019-08-07T09:39:10Z</time>
      </trkpt>
      <trkpt lat="48.6562780" lon="14.1523280">
        <ele>742.0</ele>
        <time>2019-08-07T09:39:11Z</time>
      </trkpt>
      <trkpt lat="48.6562900" lon="14.1524070">
        <ele>742.0</ele>
        <time>2019-08-07T09:39:12Z</time>
      </trkpt>
      <trkpt lat="48.6563120" lon="14.1524830">
        <ele>742.0</ele>
        <time>2019-08-07T09:39:13Z</time>
      </trkpt>
      <trkpt lat="48.6563340" lon="14.1525610">
        <ele>742.0</ele>
        <time>2019-08-07T09:39:14Z</time>
      </trkpt>
      <trkpt lat="48.6563540" lon="14.1526390">
        <ele>742.0</ele>
        <time>2019-08-07T09:39:15Z</time>
      </trkpt>
      <trkpt lat="48.6563740" lon="14.1527190">
        <ele>742.0</ele>
        <time>2019-08-07T09:39:16Z</time>
      </trkpt>
      <trkpt lat="48.6563910" lon="14.1527960">
        <ele>742.0</ele>
        <time>2019-08-07T09:39:17Z</time>
      </trkpt>
      <trkpt lat="48.6564080" lon="14.1528730">
        <ele>742.0</ele>
        <time>2019-08-07T09:39:18Z</time>
      </trkpt>
      <trkpt lat="48.6564220" lon="14.1529520">
        <ele>742.0</ele>
        <time>2019-08-07T09:39:19Z</time>
      </trkpt>
      <trkpt lat="48.6564430" lon="14.1530270">
        <ele>742.0</ele>
        <time>2019-08-07T09:39:20Z</time>
      </trkpt>
      <trkpt lat="48.6564660" lon="14.1531050">
        <ele>742.0</ele>
        <time>2019-08-07T09:39:21Z</time>
      </trkpt>
      <trkpt lat="48.6564850" lon="14.1531730">
        <ele>742.0</ele>
        <time>2019-08-07T09:39:22Z</time>
      </trkpt>
      <trkpt lat="48.6564970" lon="14.1532430">
        <ele>742.0</ele>
        <time>2019-08-07T09:39:23Z</time>
      </trkpt>
      <trkpt lat="48.6565040" lon="14.1533190">
        <ele>742.0</ele>
        <time>2019-08-07T09:39:24Z</time>
      </trkpt>
      <trkpt lat="48.6565130" lon="14.1533950">
        <ele>741.8</ele>
        <time>2019-08-07T09:39:25Z</time>
      </trkpt>
      <trkpt lat="48.6565220" lon="14.1534730">
        <ele>741.8</ele>
        <time>2019-08-07T09:39:26Z</time>
      </trkpt>
      <trkpt lat="48.6565440" lon="14.1535530">
        <ele>741.8</ele>
        <time>2019-08-07T09:39:27Z</time>
      </trkpt>
      <trkpt lat="48.6565620" lon="14.1536300">
        <ele>741.8</ele>
        <time>2019-08-07T09:39:28Z</time>
      </trkpt>
      <trkpt lat="48.6565820" lon="14.1537070">
        <ele>741.8</ele>
        <time>2019-08-07T09:39:29Z</time>
      </trkpt>
      <trkpt lat="48.6566030" lon="14.1537840">
        <ele>741.8</ele>
        <time>2019-08-07T09:39:30Z</time>
      </trkpt>
      <trkpt lat="48.6566180" lon="14.1538600">
        <ele>741.8</ele>
        <time>2019-08-07T09:39:31Z</time>
      </trkpt>
      <trkpt lat="48.6566340" lon="14.1539370">
        <ele>741.8</ele>
        <time>2019-08-07T09:39:32Z</time>
      </trkpt>
      <trkpt lat="48.6566500" lon="14.1540100">
        <ele>741.8</ele>
        <time>2019-08-07T09:39:33Z</time>
      </trkpt>
      <trkpt lat="48.6566650" lon="14.1540870">
        <ele>741.6</ele>
        <time>2019-08-07T09:39:34Z</time>
      </trkpt>
      <trkpt lat="48.6566840" lon="14.1541650">
        <ele>741.6</ele>
        <time>2019-08-07T09:39:35Z</time>
      </trkpt>
      <trkpt lat="48.6567040" lon="14.1542490">
        <ele>741.6</ele>
        <time>2019-08-07T09:39:36Z</time>
      </trkpt>
      <trkpt lat="48.6567260" lon="14.1543260">
        <ele>741.6</ele>
        <time>2019-08-07T09:39:37Z</time>
      </trkpt>
      <trkpt lat="48.6567450" lon="14.1543920">
        <ele>741.4</ele>
        <time>2019-08-07T09:39:38Z</time>
      </trkpt>
      <trkpt lat="48.6567680" lon="14.1544790">
        <ele>741.4</ele>
        <time>2019-08-07T09:39:39Z</time>
      </trkpt>
      <trkpt lat="48.6567880" lon="14.1545580">
        <ele>741.4</ele>
        <time>2019-08-07T09:39:40Z</time>
      </trkpt>
      <trkpt lat="48.6568030" lon="14.1546410">
        <ele>741.2</ele>
        <time>2019-08-07T09:39:41Z</time>
      </trkpt>
      <trkpt lat="48.6568130" lon="14.1547190">
        <ele>741.2</ele>
        <time>2019-08-07T09:39:42Z</time>
      </trkpt>
      <trkpt lat="48.6568320" lon="14.1548040">
        <ele>741.0</ele>
        <time>2019-08-07T09:39:43Z</time>
      </trkpt>
      <trkpt lat="48.6568520" lon="14.1548920">
        <ele>741.2</ele>
        <time>2019-08-07T09:39:44Z</time>
      </trkpt>
      <trkpt lat="48.6568740" lon="14.1549820">
        <ele>741.2</ele>
        <time>2019-08-07T09:39:45Z</time>
      </trkpt>
      <trkpt lat="48.6568960" lon="14.1550680">
        <ele>741.2</ele>
        <time>2019-08-07T09:39:46Z</time>
      </trkpt>
      <trkpt lat="48.6569140" lon="14.1551520">
        <ele>741.2</ele>
        <time>2019-08-07T09:39:47Z</time>
      </trkpt>
      <trkpt lat="48.6569340" lon="14.1552290">
        <ele>741.2</ele>
        <time>2019-08-07T09:39:48Z</time>
      </trkpt>
      <trkpt lat="48.6569510" lon="14.1553070">
        <ele>741.2</ele>
        <time>2019-08-07T09:39:49Z</time>
      </trkpt>
      <trkpt lat="48.6569690" lon="14.1553830">
        <ele>741.2</ele>
        <time>2019-08-07T09:39:50Z</time>
      </trkpt>
      <trkpt lat="48.6569870" lon="14.1554580">
        <ele>741.2</ele>
        <time>2019-08-07T09:39:51Z</time>
      </trkpt>
      <trkpt lat="48.6570050" lon="14.1555320">
        <ele>741.2</ele>
        <time>2019-08-07T09:39:52Z</time>
      </trkpt>
      <trkpt lat="48.6570240" lon="14.1556090">
        <ele>741.2</ele>
        <time>2019-08-07T09:39:53Z</time>
      </trkpt>
      <trkpt lat="48.6570420" lon="14.1556810">
        <ele>741.2</ele>
        <time>2019-08-07T09:39:54Z</time>
      </trkpt>
      <trkpt lat="48.6570660" lon="14.1557580">
        <ele>741.2</ele>
        <time>2019-08-07T09:39:55Z</time>
      </trkpt>
      <trkpt lat="48.6570870" lon="14.1558320">
        <ele>741.4</ele>
        <time>2019-08-07T09:39:56Z</time>
      </trkpt>
      <trkpt lat="48.6571050" lon="14.1559090">
        <ele>741.4</ele>
        <time>2019-08-07T09:39:57Z</time>
      </trkpt>
      <trkpt lat="48.6571230" lon="14.1559830">
        <ele>741.4</ele>
        <time>2019-08-07T09:39:58Z</time>
      </trkpt>
      <trkpt lat="48.6571390" lon="14.1560590">
        <ele>741.2</ele>
        <time>2019-08-07T09:39:59Z</time>
      </trkpt>
      <trkpt lat="48.6571570" lon="14.1561350">
        <ele>741.2</ele>
        <time>2019-08-07T09:40:00Z</time>
      </trkpt>
      <trkpt lat="48.6571770" lon="14.1562080">
        <ele>741.2</ele>
        <time>2019-08-07T09:40:01Z</time>
      </trkpt>
      <trkpt lat="48.6571990" lon="14.1562780">
        <ele>741.2</ele>
        <time>2019-08-07T09:40:02Z</time>
      </trkpt>
      <trkpt lat="48.6572180" lon="14.1563460">
        <ele>741.2</ele>
        <time>2019-08-07T09:40:03Z</time>
      </trkpt>
      <trkpt lat="48.6572340" lon="14.1564130">
        <ele>741.2</ele>
        <time>2019-08-07T09:40:04Z</time>
      </trkpt>
      <trkpt lat="48.6572510" lon="14.1564860">
        <ele>741.2</ele>
        <time>2019-08-07T09:40:05Z</time>
      </trkpt>
      <trkpt lat="48.6572650" lon="14.1565560">
        <ele>741.2</ele>
        <time>2019-08-07T09:40:06Z</time>
      </trkpt>
      <trkpt lat="48.6572830" lon="14.1566240">
        <ele>741.2</ele>
        <time>2019-08-07T09:40:07Z</time>
      </trkpt>
      <trkpt lat="48.6573000" lon="14.1566930">
        <ele>741.2</ele>
        <time>2019-08-07T09:40:08Z</time>
      </trkpt>
      <trkpt lat="48.6573210" lon="14.1567650">
        <ele>741.2</ele>
        <time>2019-08-07T09:40:09Z</time>
      </trkpt>
      <trkpt lat="48.6573410" lon="14.1568330">
        <ele>741.4</ele>
        <time>2019-08-07T09:40:10Z</time>
      </trkpt>
      <trkpt lat="48.6573580" lon="14.1569000">
        <ele>741.4</ele>
        <time>2019-08-07T09:40:11Z</time>
      </trkpt>
      <trkpt lat="48.6573730" lon="14.1569700">
        <ele>741.4</ele>
        <time>2019-08-07T09:40:12Z</time>
      </trkpt>
      <trkpt lat="48.6573890" lon="14.1570360">
        <ele>741.4</ele>
        <time>2019-08-07T09:40:13Z</time>
      </trkpt>
      <trkpt lat="48.6574070" lon="14.1571040">
        <ele>741.4</ele>
        <time>2019-08-07T09:40:14Z</time>
      </trkpt>
      <trkpt lat="48.6574250" lon="14.1571670">
        <ele>741.4</ele>
        <time>2019-08-07T09:40:15Z</time>
      </trkpt>
      <trkpt lat="48.6574430" lon="14.1572340">
        <ele>741.6</ele>
        <time>2019-08-07T09:40:16Z</time>
      </trkpt>
      <trkpt lat="48.6574600" lon="14.1573030">
        <ele>741.6</ele>
        <time>2019-08-07T09:40:17Z</time>
      </trkpt>
      <trkpt lat="48.6574730" lon="14.1573680">
        <ele>741.6</ele>
        <time>2019-08-07T09:40:18Z</time>
      </trkpt>
      <trkpt lat="48.6574880" lon="14.1574370">
        <ele>741.6</ele>
        <time>2019-08-07T09:40:19Z</time>
      </trkpt>
      <trkpt lat="48.6575030" lon="14.1575000">
        <ele>741.6</ele>
        <time>2019-08-07T09:40:20Z</time>
      </trkpt>
      <trkpt lat="48.6575150" lon="14.1575690">
        <ele>741.6</ele>
        <time>2019-08-07T09:40:21Z</time>
      </trkpt>
      <trkpt lat="48.6575270" lon="14.1576360">
        <ele>741.6</ele>
        <time>2019-08-07T09:40:22Z</time>
      </trkpt>
      <trkpt lat="48.6575450" lon="14.1577000">
        <ele>741.6</ele>
        <time>2019-08-07T09:40:23Z</time>
      </trkpt>
      <trkpt lat="48.6575630" lon="14.1577670">
        <ele>741.6</ele>
        <time>2019-08-07T09:40:24Z</time>
      </trkpt>
      <trkpt lat="48.6575780" lon="14.1578320">
        <ele>741.8</ele>
        <time>2019-08-07T09:40:25Z</time>
      </trkpt>
      <trkpt lat="48.6575900" lon="14.1578980">
        <ele>741.8</ele>
        <time>2019-08-07T09:40:26Z</time>
      </trkpt>
      <trkpt lat="48.6576010" lon="14.1579630">
        <ele>741.8</ele>
        <time>2019-08-07T09:40:27Z</time>
      </trkpt>
      <trkpt lat="48.6576130" lon="14.1580310">
        <ele>741.8</ele>
        <time>2019-08-07T09:40:28Z</time>
      </trkpt>
      <trkpt lat="48.6576230" lon="14.1580960">
        <ele>741.8</ele>
        <time>2019-08-07T09:40:29Z</time>
      </trkpt>
      <trkpt lat="48.6576310" lon="14.1581610">
        <ele>741.8</ele>
        <time>2019-08-07T09:40:30Z</time>
      </trkpt>
      <trkpt lat="48.6576410" lon="14.1582270">
        <ele>741.8</ele>
        <time>2019-08-07T09:40:31Z</time>
      </trkpt>
      <trkpt lat="48.6576510" lon="14.1582930">
        <ele>741.8</ele>
        <time>2019-08-07T09:40:32Z</time>
      </trkpt>
      <trkpt lat="48.6576610" lon="14.1583570">
        <ele>741.8</ele>
        <time>2019-08-07T09:40:33Z</time>
      </trkpt>
      <trkpt lat="48.6576670" lon="14.1584190">
        <ele>741.8</ele>
        <time>2019-08-07T09:40:34Z</time>
      </trkpt>
      <trkpt lat="48.6576720" lon="14.1584830">
        <ele>741.8</ele>
        <time>2019-08-07T09:40:35Z</time>
      </trkpt>
      <trkpt lat="48.6576790" lon="14.1585510">
        <ele>741.8</ele>
        <time>2019-08-07T09:40:36Z</time>
      </trkpt>
      <trkpt lat="48.6576840" lon="14.1586150">
        <ele>741.8</ele>
        <time>2019-08-07T09:40:37Z</time>
      </trkpt>
      <trkpt lat="48.6576870" lon="14.1586810">
        <ele>741.8</ele>
        <time>2019-08-07T09:40:38Z</time>
      </trkpt>
      <trkpt lat="48.6576900" lon="14.1587430">
        <ele>741.8</ele>
        <time>2019-08-07T09:40:39Z</time>
      </trkpt>
      <trkpt lat="48.6576920" lon="14.1588070">
        <ele>741.8</ele>
        <time>2019-08-07T09:40:40Z</time>
      </trkpt>
      <trkpt lat="48.6576910" lon="14.1588690">
        <ele>741.8</ele>
        <time>2019-08-07T09:40:41Z</time>
      </trkpt>
      <trkpt lat="48.6576880" lon="14.1589300">
        <ele>741.8</ele>
        <time>2019-08-07T09:40:42Z</time>
      </trkpt>
      <trkpt lat="48.6576840" lon="14.1589900">
        <ele>741.8</ele>
        <time>2019-08-07T09:40:43Z</time>
      </trkpt>
      <trkpt lat="48.6576800" lon="14.1590480">
        <ele>742.0</ele>
        <time>2019-08-07T09:40:44Z</time>
      </trkpt>
      <trkpt lat="48.6576760" lon="14.1591060">
        <ele>741.8</ele>
        <time>2019-08-07T09:40:45Z</time>
      </trkpt>
      <trkpt lat="48.6576690" lon="14.1591610">
        <ele>742.0</ele>
        <time>2019-08-07T09:40:46Z</time>
      </trkpt>
      <trkpt lat="48.6576630" lon="14.1592180">
        <ele>742.0</ele>
        <time>2019-08-07T09:40:47Z</time>
      </trkpt>
      <trkpt lat="48.6576560" lon="14.1592690">
        <ele>742.0</ele>
        <time>2019-08-07T09:40:48Z</time>
      </trkpt>
      <trkpt lat="48.6576500" lon="14.1593180">
        <ele>742.0</ele>
        <time>2019-08-07T09:40:49Z</time>
      </trkpt>
      <trkpt lat="48.6576470" lon="14.1593660">
        <ele>742.0</ele>
        <time>2019-08-07T09:40:50Z</time>
      </trkpt>
      <trkpt lat="48.6576450" lon="14.1594110">
        <ele>742.0</ele>
        <time>2019-08-07T09:40:51Z</time>
      </trkpt>
      <trkpt lat="48.6576490" lon="14.1594560">
        <ele>742.0</ele>
        <time>2019-08-07T09:40:52Z</time>
      </trkpt>
      <trkpt lat="48.6576550" lon="14.1594960">
        <ele>742.0</ele>
        <time>2019-08-07T09:40:53Z</time>
      </trkpt>
      <trkpt lat="48.6576640" lon="14.1595320">
        <ele>742.0</ele>
        <time>2019-08-07T09:40:54Z</time>
      </trkpt>
      <trkpt lat="48.6576750" lon="14.1595650">
        <ele>742.0</ele>
        <time>2019-08-07T09:40:55Z</time>
      </trkpt>
      <trkpt lat="48.6576860" lon="14.1595930">
        <ele>742.0</ele>
        <time>2019-08-07T09:40:56Z</time>
      </trkpt>
      <trkpt lat="48.6576980" lon="14.1596190">
        <ele>741.8</ele>
        <time>2019-08-07T09:40:57Z</time>
      </trkpt>
      <trkpt lat="48.6577140" lon="14.1596440">
        <ele>741.8</ele>
        <time>2019-08-07T09:40:58Z</time>
      </trkpt>
      <trkpt lat="48.6577320" lon="14.1596670">
        <ele>741.8</ele>
        <time>2019-08-07T09:40:59Z</time>
      </trkpt>
      <trkpt lat="48.6577560" lon="14.1596890">
        <ele>741.6</ele>
        <time>2019-08-07T09:41:00Z</time>
      </trkpt>
      <trkpt lat="48.6577830" lon="14.1597070">
        <ele>741.6</ele>
        <time>2019-08-07T09:41:01Z</time>
      </trkpt>
      <trkpt lat="48.6578130" lon="14.1597250">
        <ele>741.4</ele>
        <time>2019-08-07T09:41:02Z</time>
      </trkpt>
      <trkpt lat="48.6578460" lon="14.1597420">
        <ele>741.4</ele>
        <time>2019-08-07T09:41:03Z</time>
      </trkpt>
      <trkpt lat="48.6578800" lon="14.1597610">
        <ele>741.2</ele>
        <time>2019-08-07T09:41:04Z</time>
      </trkpt>
      <trkpt lat="48.6579100" lon="14.1597840">
        <ele>741.0</ele>
        <time>2019-08-07T09:41:05Z</time>
      </trkpt>
      <trkpt lat="48.6579380" lon="14.1598080">
        <ele>741.0</ele>
        <time>2019-08-07T09:41:06Z</time>
      </trkpt>
      <trkpt lat="48.6579680" lon="14.1598310">
        <ele>740.8</ele>
        <time>2019-08-07T09:41:07Z</time>
      </trkpt>
      <trkpt lat="48.6580000" lon="14.1598530">
        <ele>740.6</ele>
        <time>2019-08-07T09:41:08Z</time>
      </trkpt>
      <trkpt lat="48.6580300" lon="14.1598780">
        <ele>740.4</ele>
        <time>2019-08-07T09:41:09Z</time>
      </trkpt>
      <trkpt lat="48.6580610" lon="14.1599020">
        <ele>740.2</ele>
        <time>2019-08-07T09:41:10Z</time>
      </trkpt>
      <trkpt lat="48.6580890" lon="14.1599250">
        <ele>740.0</ele>
        <time>2019-08-07T09:41:11Z</time>
      </trkpt>
      <trkpt lat="48.6581140" lon="14.1599470">
        <ele>739.8</ele>
        <time>2019-08-07T09:41:12Z</time>
      </trkpt>
      <trkpt lat="48.6581370" lon="14.1599670">
        <ele>739.4</ele>
        <time>2019-08-07T09:41:13Z</time>
      </trkpt>
      <trkpt lat="48.6581550" lon="14.1599850">
        <ele>739.2</ele>
        <time>2019-08-07T09:41:14Z</time>
      </trkpt>
      <trkpt lat="48.6581710" lon="14.1600010">
        <ele>739.0</ele>
        <time>2019-08-07T09:41:15Z</time>
      </trkpt>
      <trkpt lat="48.6581840" lon="14.1600130">
        <ele>738.8</ele>
        <time>2019-08-07T09:41:16Z</time>
      </trkpt>
      <trkpt lat="48.6581940" lon="14.1600280">
        <ele>738.6</ele>
        <time>2019-08-07T09:41:17Z</time>
      </trkpt>
      <trkpt lat="48.6582020" lon="14.1600430">
        <ele>738.4</ele>
        <time>2019-08-07T09:41:18Z</time>
      </trkpt>
      <trkpt lat="48.6582090" lon="14.1600600">
        <ele>738.2</ele>
        <time>2019-08-07T09:41:19Z</time>
      </trkpt>
      <trkpt lat="48.6582120" lon="14.1600770">
        <ele>738.0</ele>
        <time>2019-08-07T09:41:20Z</time>
      </trkpt>
      <trkpt lat="48.6582170" lon="14.1600950">
        <ele>738.0</ele>
        <time>2019-08-07T09:41:21Z</time>
      </trkpt>
      <trkpt lat="48.6582190" lon="14.1601100">
        <ele>737.8</ele>
        <time>2019-08-07T09:41:22Z</time>
      </trkpt>
      <trkpt lat="48.6582220" lon="14.1601250">
        <ele>737.6</ele>
        <time>2019-08-07T09:41:23Z</time>
      </trkpt>
      <trkpt lat="48.6582240" lon="14.1601380">
        <ele>737.6</ele>
        <time>2019-08-07T09:41:24Z</time>
      </trkpt>
      <trkpt lat="48.6582270" lon="14.1601460">
        <ele>737.4</ele>
        <time>2019-08-07T09:41:25Z</time>
      </trkpt>
      <trkpt lat="48.6582330" lon="14.1601520">
        <ele>737.4</ele>
        <time>2019-08-07T09:41:26Z</time>
      </trkpt>
      <trkpt lat="48.6582330" lon="14.1601520">
        <ele>737.4</ele>
        <time>2019-08-07T09:41:27Z</time>
      </trkpt>
      <trkpt lat="48.6582360" lon="14.1601530">
        <ele>737.2</ele>
        <time>2019-08-07T09:41:28Z</time>
      </trkpt>
      <trkpt lat="48.6582630" lon="14.1601640">
        <ele>737.2</ele>
        <time>2019-08-07T09:41:29Z</time>
      </trkpt>
      <trkpt lat="48.6582780" lon="14.1601530">
        <ele>737.0</ele>
        <time>2019-08-07T09:41:30Z</time>
      </trkpt>
      <trkpt lat="48.6582920" lon="14.1601350">
        <ele>737.0</ele>
        <time>2019-08-07T09:41:31Z</time>
      </trkpt>
      <trkpt lat="48.6582980" lon="14.1601100">
        <ele>737.0</ele>
        <time>2019-08-07T09:41:32Z</time>
      </trkpt>
      <trkpt lat="48.6582940" lon="14.1600870">
        <ele>736.8</ele>
        <time>2019-08-07T09:41:33Z</time>
      </trkpt>
      <trkpt lat="48.6582900" lon="14.1600700">
        <ele>736.8</ele>
        <time>2019-08-07T09:41:34Z</time>
      </trkpt>
      <trkpt lat="48.6582870" lon="14.1600550">
        <ele>736.8</ele>
        <time>2019-08-07T09:41:35Z</time>
      </trkpt>
      <trkpt lat="48.6582850" lon="14.1600450">
        <ele>736.8</ele>
        <time>2019-08-07T09:41:36Z</time>
      </trkpt>
      <trkpt lat="48.6582830" lon="14.1600430">
        <ele>736.8</ele>
        <time>2019-08-07T09:41:37Z</time>
      </trkpt>
      <trkpt lat="48.6582820" lon="14.1600400">
        <ele>736.8</ele>
        <time>2019-08-07T09:41:38Z</time>
      </trkpt>
      <trkpt lat="48.6582820" lon="14.1600400">
        <ele>737.0</ele>
        <time>2019-08-07T09:41:39Z</time>
      </trkpt>
      <trkpt lat="48.6582820" lon="14.1600400">
        <ele>737.0</ele>
        <time>2019-08-07T09:41:40Z</time>
      </trkpt>
      <trkpt lat="48.6582820" lon="14.1600400">
        <ele>737.0</ele>
        <time>2019-08-07T09:41:41Z</time>
      </trkpt>
      <trkpt lat="48.6582820" lon="14.1600400">
        <ele>737.0</ele>
        <time>2019-08-07T09:41:42Z</time>
      </trkpt>
      <trkpt lat="48.6582820" lon="14.1600400">
        <ele>737.0</ele>
        <time>2019-08-07T09:41:43Z</time>
      </trkpt>
      <trkpt lat="48.6582820" lon="14.1600400">
        <ele>737.0</ele>
        <time>2019-08-07T09:41:44Z</time>
      </trkpt>
      <trkpt lat="48.6582280" lon="14.1600060">
        <ele>737.0</ele>
        <time>2019-08-07T09:45:57Z</time>
      </trkpt>
      <trkpt lat="48.6582150" lon="14.1599980">
        <ele>737.0</ele>
        <time>2019-08-07T09:45:58Z</time>
      </trkpt>
      <trkpt lat="48.6582020" lon="14.1599910">
        <ele>737.0</ele>
        <time>2019-08-07T09:45:59Z</time>
      </trkpt>
      <trkpt lat="48.6581890" lon="14.1599850">
        <ele>737.2</ele>
        <time>2019-08-07T09:46:00Z</time>
      </trkpt>
      <trkpt lat="48.6581770" lon="14.1599790">
        <ele>737.2</ele>
        <time>2019-08-07T09:46:01Z</time>
      </trkpt>
      <trkpt lat="48.6581650" lon="14.1599720">
        <ele>737.4</ele>
        <time>2019-08-07T09:46:02Z</time>
      </trkpt>
      <trkpt lat="48.6581540" lon="14.1599620">
        <ele>737.4</ele>
        <time>2019-08-07T09:46:03Z</time>
      </trkpt>
      <trkpt lat="48.6581440" lon="14.1599510">
        <ele>737.6</ele>
        <time>2019-08-07T09:46:04Z</time>
      </trkpt>
      <trkpt lat="48.6581320" lon="14.1599390">
        <ele>737.6</ele>
        <time>2019-08-07T09:46:05Z</time>
      </trkpt>
      <trkpt lat="48.6581180" lon="14.1599290">
        <ele>737.8</ele>
        <time>2019-08-07T09:46:06Z</time>
      </trkpt>
      <trkpt lat="48.6581050" lon="14.1599170">
        <ele>737.8</ele>
        <time>2019-08-07T09:46:07Z</time>
      </trkpt>
      <trkpt lat="48.6580900" lon="14.1599070">
        <ele>738.0</ele>
        <time>2019-08-07T09:46:08Z</time>
      </trkpt>
      <trkpt lat="48.6580770" lon="14.1598940">
        <ele>738.0</ele>
        <time>2019-08-07T09:46:09Z</time>
      </trkpt>
      <trkpt lat="48.6580600" lon="14.1598880">
        <ele>738.2</ele>
        <time>2019-08-07T09:46:10Z</time>
      </trkpt>
      <trkpt lat="48.6580450" lon="14.1598810">
        <ele>738.4</ele>
        <time>2019-08-07T09:46:11Z</time>
      </trkpt>
      <trkpt lat="48.6580280" lon="14.1598720">
        <ele>738.4</ele>
        <time>2019-08-07T09:46:12Z</time>
      </trkpt>
      <trkpt lat="48.6580130" lon="14.1598620">
        <ele>738.6</ele>
        <time>2019-08-07T09:46:13Z</time>
      </trkpt>
      <trkpt lat="48.6579980" lon="14.1598500">
        <ele>738.6</ele>
        <time>2019-08-07T09:46:14Z</time>
      </trkpt>
      <trkpt lat="48.6579850" lon="14.1598350">
        <ele>738.8</ele>
        <time>2019-08-07T09:46:15Z</time>
      </trkpt>
      <trkpt lat="48.6579720" lon="14.1598200">
        <ele>739.0</ele>
        <time>2019-08-07T09:46:16Z</time>
      </trkpt>
      <trkpt lat="48.6579580" lon="14.1598090">
        <ele>739.0</ele>
        <time>2019-08-07T09:46:17Z</time>
      </trkpt>
      <trkpt lat="48.6579430" lon="14.1597970">
        <ele>739.2</ele>
        <time>2019-08-07T09:46:18Z</time>
      </trkpt>
      <trkpt lat="48.6579280" lon="14.1597870">
        <ele>739.4</ele>
        <time>2019-08-07T09:46:19Z</time>
      </trkpt>
      <trkpt lat="48.6579130" lon="14.1597770">
        <ele>739.4</ele>
        <time>2019-08-07T09:46:20Z</time>
      </trkpt>
      <trkpt lat="48.6578970" lon="14.1597690">
        <ele>739.6</ele>
        <time>2019-08-07T09:46:21Z</time>
      </trkpt>
      <trkpt lat="48.6578820" lon="14.1597620">
        <ele>739.6</ele>
        <time>2019-08-07T09:46:22Z</time>
      </trkpt>
      <trkpt lat="48.6578660" lon="14.1597540">
        <ele>739.8</ele>
        <time>2019-08-07T09:46:23Z</time>
      </trkpt>
      <trkpt lat="48.6578500" lon="14.1597480">
        <ele>739.8</ele>
        <time>2019-08-07T09:46:24Z</time>
      </trkpt>
      <trkpt lat="48.6578320" lon="14.1597420">
        <ele>740.0</ele>
        <time>2019-08-07T09:46:25Z</time>
      </trkpt>
      <trkpt lat="48.6578170" lon="14.1597340">
        <ele>740.0</ele>
        <time>2019-08-07T09:46:26Z</time>
      </trkpt>
      <trkpt lat="48.6578030" lon="14.1597240">
        <ele>740.2</ele>
        <time>2019-08-07T09:46:27Z</time>
      </trkpt>
      <trkpt lat="48.6577890" lon="14.1597120">
        <ele>740.2</ele>
        <time>2019-08-07T09:46:28Z</time>
      </trkpt>
      <trkpt lat="48.6577750" lon="14.1596990">
        <ele>740.4</ele>
        <time>2019-08-07T09:46:29Z</time>
      </trkpt>
      <trkpt lat="48.6577620" lon="14.1596870">
        <ele>740.4</ele>
        <time>2019-08-07T09:46:30Z</time>
      </trkpt>
      <trkpt lat="48.6577470" lon="14.1596790">
        <ele>740.6</ele>
        <time>2019-08-07T09:46:31Z</time>
      </trkpt>
      <trkpt lat="48.6577330" lon="14.1596720">
        <ele>740.6</ele>
        <time>2019-08-07T09:46:32Z</time>
      </trkpt>
      <trkpt lat="48.6577180" lon="14.1596660">
        <ele>740.6</ele>
        <time>2019-08-07T09:46:33Z</time>
      </trkpt>
      <trkpt lat="48.6577050" lon="14.1596610">
        <ele>740.8</ele>
        <time>2019-08-07T09:46:34Z</time>
      </trkpt>
      <trkpt lat="48.6576920" lon="14.1596580">
        <ele>740.8</ele>
        <time>2019-08-07T09:46:35Z</time>
      </trkpt>
      <trkpt lat="48.6576770" lon="14.1596530">
        <ele>741.0</ele>
        <time>2019-08-07T09:46:36Z</time>
      </trkpt>
      <trkpt lat="48.6576620" lon="14.1596520">
        <ele>741.0</ele>
        <time>2019-08-07T09:46:37Z</time>
      </trkpt>
      <trkpt lat="48.6576470" lon="14.1596540">
        <ele>741.0</ele>
        <time>2019-08-07T09:46:38Z</time>
      </trkpt>
      <trkpt lat="48.6576300" lon="14.1596610">
        <ele>741.2</ele>
        <time>2019-08-07T09:46:39Z</time>
      </trkpt>
      <trkpt lat="48.6576110" lon="14.1596680">
        <ele>741.2</ele>
        <time>2019-08-07T09:46:40Z</time>
      </trkpt>
      <trkpt lat="48.6575930" lon="14.1596800">
        <ele>741.2</ele>
        <time>2019-08-07T09:46:41Z</time>
      </trkpt>
      <trkpt lat="48.6575760" lon="14.1596950">
        <ele>741.2</ele>
        <time>2019-08-07T09:46:42Z</time>
      </trkpt>
      <trkpt lat="48.6575580" lon="14.1597130">
        <ele>741.4</ele>
        <time>2019-08-07T09:46:43Z</time>
      </trkpt>
      <trkpt lat="48.6575400" lon="14.1597370">
        <ele>741.4</ele>
        <time>2019-08-07T09:46:44Z</time>
      </trkpt>
      <trkpt lat="48.6575230" lon="14.1597650">
        <ele>741.2</ele>
        <time>2019-08-07T09:46:45Z</time>
      </trkpt>
      <trkpt lat="48.6575080" lon="14.1597980">
        <ele>741.2</ele>
        <time>2019-08-07T09:46:46Z</time>
      </trkpt>
      <trkpt lat="48.6574910" lon="14.1598360">
        <ele>741.2</ele>
        <time>2019-08-07T09:46:47Z</time>
      </trkpt>
      <trkpt lat="48.6574730" lon="14.1598710">
        <ele>741.2</ele>
        <time>2019-08-07T09:46:48Z</time>
      </trkpt>
      <trkpt lat="48.6574550" lon="14.1599090">
        <ele>741.2</ele>
        <time>2019-08-07T09:46:49Z</time>
      </trkpt>
      <trkpt lat="48.6574380" lon="14.1599420">
        <ele>741.2</ele>
        <time>2019-08-07T09:46:50Z</time>
      </trkpt>
      <trkpt lat="48.6574160" lon="14.1599770">
        <ele>741.2</ele>
        <time>2019-08-07T09:46:51Z</time>
      </trkpt>
      <trkpt lat="48.6573920" lon="14.1600090">
        <ele>741.2</ele>
        <time>2019-08-07T09:46:52Z</time>
      </trkpt>
      <trkpt lat="48.6573690" lon="14.1600400">
        <ele>741.4</ele>
        <time>2019-08-07T09:46:53Z</time>
      </trkpt>
      <trkpt lat="48.6573440" lon="14.1600740">
        <ele>741.4</ele>
        <time>2019-08-07T09:46:54Z</time>
      </trkpt>
      <trkpt lat="48.6573190" lon="14.1601070">
        <ele>741.4</ele>
        <time>2019-08-07T09:46:55Z</time>
      </trkpt>
      <trkpt lat="48.6572940" lon="14.1601400">
        <ele>741.4</ele>
        <time>2019-08-07T09:46:56Z</time>
      </trkpt>
      <trkpt lat="48.6572670" lon="14.1601680">
        <ele>741.4</ele>
        <time>2019-08-07T09:46:57Z</time>
      </trkpt>
      <trkpt lat="48.6572370" lon="14.1601950">
        <ele>741.6</ele>
        <time>2019-08-07T09:46:58Z</time>
      </trkpt>
      <trkpt lat="48.6572080" lon="14.1602220">
        <ele>741.6</ele>
        <time>2019-08-07T09:46:59Z</time>
      </trkpt>
      <trkpt lat="48.6571800" lon="14.1602500">
        <ele>741.6</ele>
        <time>2019-08-07T09:47:00Z</time>
      </trkpt>
      <trkpt lat="48.6571520" lon="14.1602740">
        <ele>741.8</ele>
        <time>2019-08-07T09:47:01Z</time>
      </trkpt>
      <trkpt lat="48.6571190" lon="14.1602930">
        <ele>741.8</ele>
        <time>2019-08-07T09:47:02Z</time>
      </trkpt>
      <trkpt lat="48.6570870" lon="14.1603090">
        <ele>742.0</ele>
        <time>2019-08-07T09:47:03Z</time>
      </trkpt>
      <trkpt lat="48.6570540" lon="14.1603290">
        <ele>742.0</ele>
        <time>2019-08-07T09:47:04Z</time>
      </trkpt>
      <trkpt lat="48.6570210" lon="14.1603520">
        <ele>742.2</ele>
        <time>2019-08-07T09:47:05Z</time>
      </trkpt>
      <trkpt lat="48.6569860" lon="14.1603780">
        <ele>742.2</ele>
        <time>2019-08-07T09:47:06Z</time>
      </trkpt>
      <trkpt lat="48.6569530" lon="14.1604010">
        <ele>742.2</ele>
        <time>2019-08-07T09:47:07Z</time>
      </trkpt>
      <trkpt lat="48.6569200" lon="14.1604220">
        <ele>742.4</ele>
        <time>2019-08-07T09:47:08Z</time>
      </trkpt>
      <trkpt lat="48.6568880" lon="14.1604390">
        <ele>742.4</ele>
        <time>2019-08-07T09:47:09Z</time>
      </trkpt>
      <trkpt lat="48.6568590" lon="14.1604540">
        <ele>742.6</ele>
        <time>2019-08-07T09:47:10Z</time>
      </trkpt>
      <trkpt lat="48.6568300" lon="14.1604640">
        <ele>742.6</ele>
        <time>2019-08-07T09:47:11Z</time>
      </trkpt>
      <trkpt lat="48.6568020" lon="14.1604730">
        <ele>742.8</ele>
        <time>2019-08-07T09:47:12Z</time>
      </trkpt>
      <trkpt lat="48.6567720" lon="14.1604810">
        <ele>742.8</ele>
        <time>2019-08-07T09:47:13Z</time>
      </trkpt>
      <trkpt lat="48.6567430" lon="14.1604910">
        <ele>743.0</ele>
        <time>2019-08-07T09:47:14Z</time>
      </trkpt>
      <trkpt lat="48.6567150" lon="14.1605030">
        <ele>743.2</ele>
        <time>2019-08-07T09:47:15Z</time>
      </trkpt>
      <trkpt lat="48.6566850" lon="14.1605120">
        <ele>743.2</ele>
        <time>2019-08-07T09:47:16Z</time>
      </trkpt>
      <trkpt lat="48.6566570" lon="14.1605190">
        <ele>743.4</ele>
        <time>2019-08-07T09:47:17Z</time>
      </trkpt>
      <trkpt lat="48.6566270" lon="14.1605250">
        <ele>743.4</ele>
        <time>2019-08-07T09:47:18Z</time>
      </trkpt>
      <trkpt lat="48.6566000" lon="14.1605290">
        <ele>743.6</ele>
        <time>2019-08-07T09:47:19Z</time>
      </trkpt>
      <trkpt lat="48.6565740" lon="14.1605320">
        <ele>743.8</ele>
        <time>2019-08-07T09:47:20Z</time>
      </trkpt>
      <trkpt lat="48.6565490" lon="14.1605360">
        <ele>743.8</ele>
        <time>2019-08-07T09:47:21Z</time>
      </trkpt>
      <trkpt lat="48.6565220" lon="14.1605420">
        <ele>744.0</ele>
        <time>2019-08-07T09:47:22Z</time>
      </trkpt>
      <trkpt lat="48.6564960" lon="14.1605420">
        <ele>744.2</ele>
        <time>2019-08-07T09:47:23Z</time>
      </trkpt>
      <trkpt lat="48.6564690" lon="14.1605490">
        <ele>744.4</ele>
        <time>2019-08-07T09:47:24Z</time>
      </trkpt>
      <trkpt lat="48.6564400" lon="14.1605520">
        <ele>744.4</ele>
        <time>2019-08-07T09:47:25Z</time>
      </trkpt>
      <trkpt lat="48.6564140" lon="14.1605560">
        <ele>744.6</ele>
        <time>2019-08-07T09:47:26Z</time>
      </trkpt>
      <trkpt lat="48.6563860" lon="14.1605600">
        <ele>744.8</ele>
        <time>2019-08-07T09:47:27Z</time>
      </trkpt>
      <trkpt lat="48.6563570" lon="14.1605640">
        <ele>744.8</ele>
        <time>2019-08-07T09:47:28Z</time>
      </trkpt>
      <trkpt lat="48.6563280" lon="14.1605710">
        <ele>745.0</ele>
        <time>2019-08-07T09:47:29Z</time>
      </trkpt>
      <trkpt lat="48.6562980" lon="14.1605790">
        <ele>745.2</ele>
        <time>2019-08-07T09:47:30Z</time>
      </trkpt>
      <trkpt lat="48.6562700" lon="14.1605870">
        <ele>745.2</ele>
        <time>2019-08-07T09:47:31Z</time>
      </trkpt>
      <trkpt lat="48.6562400" lon="14.1605910">
        <ele>745.4</ele>
        <time>2019-08-07T09:47:32Z</time>
      </trkpt>
      <trkpt lat="48.6562120" lon="14.1606010">
        <ele>745.6</ele>
        <time>2019-08-07T09:47:33Z</time>
      </trkpt>
      <trkpt lat="48.6561840" lon="14.1606110">
        <ele>745.6</ele>
        <time>2019-08-07T09:47:34Z</time>
      </trkpt>
      <trkpt lat="48.6561550" lon="14.1606210">
        <ele>745.8</ele>
        <time>2019-08-07T09:47:35Z</time>
      </trkpt>
      <trkpt lat="48.6561280" lon="14.1606220">
        <ele>746.0</ele>
        <time>2019-08-07T09:47:36Z</time>
      </trkpt>
      <trkpt lat="48.6561020" lon="14.1606370">
        <ele>746.0</ele>
        <time>2019-08-07T09:47:37Z</time>
      </trkpt>
      <trkpt lat="48.6560750" lon="14.1606500">
        <ele>746.2</ele>
        <time>2019-08-07T09:47:38Z</time>
      </trkpt>
      <trkpt lat="48.6560500" lon="14.1606650">
        <ele>746.4</ele>
        <time>2019-08-07T09:47:39Z</time>
      </trkpt>
      <trkpt lat="48.6560240" lon="14.1606770">
        <ele>746.4</ele>
        <time>2019-08-07T09:47:40Z</time>
      </trkpt>
      <trkpt lat="48.6560010" lon="14.1606840">
        <ele>746.6</ele>
        <time>2019-08-07T09:47:41Z</time>
      </trkpt>
      <trkpt lat="48.6559770" lon="14.1606930">
        <ele>746.8</ele>
        <time>2019-08-07T09:47:42Z</time>
      </trkpt>
      <trkpt lat="48.6559520" lon="14.1607080">
        <ele>746.8</ele>
        <time>2019-08-07T09:47:43Z</time>
      </trkpt>
      <trkpt lat="48.6559260" lon="14.1607160">
        <ele>747.0</ele>
        <time>2019-08-07T09:47:44Z</time>
      </trkpt>
      <trkpt lat="48.6558970" lon="14.1607280">
        <ele>747.2</ele>
        <time>2019-08-07T09:47:45Z</time>
      </trkpt>
      <trkpt lat="48.6558680" lon="14.1607370">
        <ele>747.2</ele>
        <time>2019-08-07T09:47:46Z</time>
      </trkpt>
      <trkpt lat="48.6558400" lon="14.1607440">
        <ele>747.4</ele>
        <time>2019-08-07T09:47:47Z</time>
      </trkpt>
      <trkpt lat="48.6558110" lon="14.1607470">
        <ele>747.4</ele>
        <time>2019-08-07T09:47:48Z</time>
      </trkpt>
      <trkpt lat="48.6557840" lon="14.1607550">
        <ele>747.6</ele>
        <time>2019-08-07T09:47:49Z</time>
      </trkpt>
      <trkpt lat="48.6557580" lon="14.1607680">
        <ele>747.8</ele>
        <time>2019-08-07T09:47:50Z</time>
      </trkpt>
      <trkpt lat="48.6557300" lon="14.1607780">
        <ele>747.8</ele>
        <time>2019-08-07T09:47:51Z</time>
      </trkpt>
      <trkpt lat="48.6557040" lon="14.1607880">
        <ele>748.0</ele>
        <time>2019-08-07T09:47:52Z</time>
      </trkpt>
      <trkpt lat="48.6556790" lon="14.1608000">
        <ele>748.2</ele>
        <time>2019-08-07T09:47:53Z</time>
      </trkpt>
      <trkpt lat="48.6556530" lon="14.1608140">
        <ele>748.4</ele>
        <time>2019-08-07T09:47:54Z</time>
      </trkpt>
      <trkpt lat="48.6556270" lon="14.1608230">
        <ele>748.4</ele>
        <time>2019-08-07T09:47:55Z</time>
      </trkpt>
      <trkpt lat="48.6556010" lon="14.1608350">
        <ele>748.6</ele>
        <time>2019-08-07T09:47:56Z</time>
      </trkpt>
      <trkpt lat="48.6555750" lon="14.1608470">
        <ele>748.8</ele>
        <time>2019-08-07T09:47:57Z</time>
      </trkpt>
      <trkpt lat="48.6555510" lon="14.1608650">
        <ele>749.0</ele>
        <time>2019-08-07T09:47:58Z</time>
      </trkpt>
      <trkpt lat="48.6555270" lon="14.1608840">
        <ele>749.0</ele>
        <time>2019-08-07T09:47:59Z</time>
      </trkpt>
      <trkpt lat="48.6555050" lon="14.1609030">
        <ele>749.2</ele>
        <time>2019-08-07T09:48:00Z</time>
      </trkpt>
      <trkpt lat="48.6554810" lon="14.1609220">
        <ele>749.4</ele>
        <time>2019-08-07T09:48:01Z</time>
      </trkpt>
      <trkpt lat="48.6554610" lon="14.1609370">
        <ele>749.6</ele>
        <time>2019-08-07T09:48:02Z</time>
      </trkpt>
      <trkpt lat="48.6554370" lon="14.1609570">
        <ele>749.6</ele>
        <time>2019-08-07T09:48:03Z</time>
      </trkpt>
      <trkpt lat="48.6554140" lon="14.1609740">
        <ele>749.8</ele>
        <time>2019-08-07T09:48:04Z</time>
      </trkpt>
      <trkpt lat="48.6553900" lon="14.1609920">
        <ele>750.0</ele>
        <time>2019-08-07T09:48:05Z</time>
      </trkpt>
      <trkpt lat="48.6553660" lon="14.1610140">
        <ele>750.0</ele>
        <time>2019-08-07T09:48:06Z</time>
      </trkpt>
      <trkpt lat="48.6553420" lon="14.1610300">
        <ele>750.2</ele>
        <time>2019-08-07T09:48:07Z</time>
      </trkpt>
      <trkpt lat="48.6553170" lon="14.1610490">
        <ele>750.4</ele>
        <time>2019-08-07T09:48:08Z</time>
      </trkpt>
      <trkpt lat="48.6552940" lon="14.1610690">
        <ele>750.4</ele>
        <time>2019-08-07T09:48:09Z</time>
      </trkpt>
      <trkpt lat="48.6552730" lon="14.1610900">
        <ele>750.6</ele>
        <time>2019-08-07T09:48:10Z</time>
      </trkpt>
      <trkpt lat="48.6552490" lon="14.1611110">
        <ele>750.8</ele>
        <time>2019-08-07T09:48:11Z</time>
      </trkpt>
      <trkpt lat="48.6552250" lon="14.1611300">
        <ele>750.8</ele>
        <time>2019-08-07T09:48:12Z</time>
      </trkpt>
      <trkpt lat="48.6552010" lon="14.1611460">
        <ele>751.0</ele>
        <time>2019-08-07T09:48:13Z</time>
      </trkpt>
      <trkpt lat="48.6551770" lon="14.1611680">
        <ele>751.2</ele>
        <time>2019-08-07T09:48:14Z</time>
      </trkpt>
      <trkpt lat="48.6551530" lon="14.1611910">
        <ele>751.4</ele>
        <time>2019-08-07T09:48:15Z</time>
      </trkpt>
      <trkpt lat="48.6551290" lon="14.1612140">
        <ele>751.4</ele>
        <time>2019-08-07T09:48:16Z</time>
      </trkpt>
      <trkpt lat="48.6551080" lon="14.1612340">
        <ele>751.6</ele>
        <time>2019-08-07T09:48:17Z</time>
      </trkpt>
      <trkpt lat="48.6550820" lon="14.1612620">
        <ele>751.6</ele>
        <time>2019-08-07T09:48:18Z</time>
      </trkpt>
      <trkpt lat="48.6550590" lon="14.1612840">
        <ele>751.8</ele>
        <time>2019-08-07T09:48:19Z</time>
      </trkpt>
      <trkpt lat="48.6550340" lon="14.1613060">
        <ele>751.8</ele>
        <time>2019-08-07T09:48:20Z</time>
      </trkpt>
      <trkpt lat="48.6550070" lon="14.1613310">
        <ele>752.0</ele>
        <time>2019-08-07T09:48:21Z</time>
      </trkpt>
      <trkpt lat="48.6549840" lon="14.1613540">
        <ele>752.0</ele>
        <time>2019-08-07T09:48:22Z</time>
      </trkpt>
      <trkpt lat="48.6549610" lon="14.1613730">
        <ele>752.0</ele>
        <time>2019-08-07T09:48:23Z</time>
      </trkpt>
      <trkpt lat="48.6549390" lon="14.1613850">
        <ele>752.2</ele>
        <time>2019-08-07T09:48:24Z</time>
      </trkpt>
      <trkpt lat="48.6549140" lon="14.1614040">
        <ele>752.2</ele>
        <time>2019-08-07T09:48:25Z</time>
      </trkpt>
      <trkpt lat="48.6548890" lon="14.1614220">
        <ele>752.4</ele>
        <time>2019-08-07T09:48:26Z</time>
      </trkpt>
      <trkpt lat="48.6548640" lon="14.1614370">
        <ele>752.4</ele>
        <time>2019-08-07T09:48:27Z</time>
      </trkpt>
      <trkpt lat="48.6548390" lon="14.1614550">
        <ele>752.4</ele>
        <time>2019-08-07T09:48:28Z</time>
      </trkpt>
      <trkpt lat="48.6548140" lon="14.1614720">
        <ele>752.6</ele>
        <time>2019-08-07T09:48:29Z</time>
      </trkpt>
      <trkpt lat="48.6547880" lon="14.1614900">
        <ele>752.6</ele>
        <time>2019-08-07T09:48:30Z</time>
      </trkpt>
      <trkpt lat="48.6547620" lon="14.1615110">
        <ele>752.6</ele>
        <time>2019-08-07T09:48:31Z</time>
      </trkpt>
      <trkpt lat="48.6547350" lon="14.1615240">
        <ele>752.6</ele>
        <time>2019-08-07T09:48:32Z</time>
      </trkpt>
      <trkpt lat="48.6547110" lon="14.1615440">
        <ele>752.8</ele>
        <time>2019-08-07T09:48:33Z</time>
      </trkpt>
      <trkpt lat="48.6546830" lon="14.1615620">
        <ele>752.8</ele>
        <time>2019-08-07T09:48:34Z</time>
      </trkpt>
      <trkpt lat="48.6546530" lon="14.1615840">
        <ele>752.8</ele>
        <time>2019-08-07T09:48:35Z</time>
      </trkpt>
      <trkpt lat="48.6546220" lon="14.1616040">
        <ele>752.8</ele>
        <time>2019-08-07T09:48:36Z</time>
      </trkpt>
      <trkpt lat="48.6545880" lon="14.1616240">
        <ele>752.8</ele>
        <time>2019-08-07T09:48:37Z</time>
      </trkpt>
      <trkpt lat="48.6545550" lon="14.1616480">
        <ele>752.8</ele>
        <time>2019-08-07T09:48:38Z</time>
      </trkpt>
      <trkpt lat="48.6545190" lon="14.1616720">
        <ele>752.8</ele>
        <time>2019-08-07T09:48:39Z</time>
      </trkpt>
      <trkpt lat="48.6544860" lon="14.1616900">
        <ele>753.0</ele>
        <time>2019-08-07T09:48:40Z</time>
      </trkpt>
      <trkpt lat="48.6544510" lon="14.1617070">
        <ele>753.0</ele>
        <time>2019-08-07T09:48:41Z</time>
      </trkpt>
      <trkpt lat="48.6544150" lon="14.1617240">
        <ele>753.0</ele>
        <time>2019-08-07T09:48:42Z</time>
      </trkpt>
      <trkpt lat="48.6543790" lon="14.1617440">
        <ele>753.0</ele>
        <time>2019-08-07T09:48:43Z</time>
      </trkpt>
      <trkpt lat="48.6543440" lon="14.1617630">
        <ele>753.0</ele>
        <time>2019-08-07T09:48:44Z</time>
      </trkpt>
      <trkpt lat="48.6543030" lon="14.1617810">
        <ele>753.0</ele>
        <time>2019-08-07T09:48:45Z</time>
      </trkpt>
      <trkpt lat="48.6542620" lon="14.1617980">
        <ele>753.0</ele>
        <time>2019-08-07T09:48:46Z</time>
      </trkpt>
      <trkpt lat="48.6542200" lon="14.1618110">
        <ele>753.0</ele>
        <time>2019-08-07T09:48:47Z</time>
      </trkpt>
      <trkpt lat="48.6541790" lon="14.1618190">
        <ele>753.0</ele>
        <time>2019-08-07T09:48:48Z</time>
      </trkpt>
      <trkpt lat="48.6541370" lon="14.1618270">
        <ele>753.0</ele>
        <time>2019-08-07T09:48:49Z</time>
      </trkpt>
      <trkpt lat="48.6540970" lon="14.1618320">
        <ele>753.0</ele>
        <time>2019-08-07T09:48:50Z</time>
      </trkpt>
      <trkpt lat="48.6540550" lon="14.1618390">
        <ele>753.0</ele>
        <time>2019-08-07T09:48:51Z</time>
      </trkpt>
      <trkpt lat="48.6540140" lon="14.1618480">
        <ele>753.0</ele>
        <time>2019-08-07T09:48:52Z</time>
      </trkpt>
      <trkpt lat="48.6539730" lon="14.1618560">
        <ele>753.0</ele>
        <time>2019-08-07T09:48:53Z</time>
      </trkpt>
      <trkpt lat="48.6539300" lon="14.1618600">
        <ele>753.0</ele>
        <time>2019-08-07T09:48:54Z</time>
      </trkpt>
      <trkpt lat="48.6538890" lon="14.1618620">
        <ele>753.0</ele>
        <time>2019-08-07T09:48:55Z</time>
      </trkpt>
      <trkpt lat="48.6538450" lon="14.1618680">
        <ele>752.8</ele>
        <time>2019-08-07T09:48:56Z</time>
      </trkpt>
      <trkpt lat="48.6538030" lon="14.1618770">
        <ele>752.8</ele>
        <time>2019-08-07T09:48:57Z</time>
      </trkpt>
      <trkpt lat="48.6537580" lon="14.1618890">
        <ele>752.8</ele>
        <time>2019-08-07T09:48:58Z</time>
      </trkpt>
      <trkpt lat="48.6537110" lon="14.1618990">
        <ele>752.6</ele>
        <time>2019-08-07T09:48:59Z</time>
      </trkpt>
      <trkpt lat="48.6536630" lon="14.1619040">
        <ele>752.6</ele>
        <time>2019-08-07T09:49:00Z</time>
      </trkpt>
      <trkpt lat="48.6536110" lon="14.1619130">
        <ele>752.4</ele>
        <time>2019-08-07T09:49:01Z</time>
      </trkpt>
      <trkpt lat="48.6535610" lon="14.1619250">
        <ele>752.4</ele>
        <time>2019-08-07T09:49:02Z</time>
      </trkpt>
      <trkpt lat="48.6535070" lon="14.1619420">
        <ele>752.2</ele>
        <time>2019-08-07T09:49:03Z</time>
      </trkpt>
      <trkpt lat="48.6534550" lon="14.1619600">
        <ele>752.2</ele>
        <time>2019-08-07T09:49:04Z</time>
      </trkpt>
      <trkpt lat="48.6534020" lon="14.1619820">
        <ele>752.0</ele>
        <time>2019-08-07T09:49:05Z</time>
      </trkpt>
      <trkpt lat="48.6533470" lon="14.1620060">
        <ele>751.8</ele>
        <time>2019-08-07T09:49:06Z</time>
      </trkpt>
      <trkpt lat="48.6532920" lon="14.1620310">
        <ele>751.6</ele>
        <time>2019-08-07T09:49:07Z</time>
      </trkpt>
      <trkpt lat="48.6532380" lon="14.1620530">
        <ele>751.4</ele>
        <time>2019-08-07T09:49:08Z</time>
      </trkpt>
      <trkpt lat="48.6531830" lon="14.1620790">
        <ele>751.2</ele>
        <time>2019-08-07T09:49:09Z</time>
      </trkpt>
      <trkpt lat="48.6531270" lon="14.1621040">
        <ele>751.0</ele>
        <time>2019-08-07T09:49:10Z</time>
      </trkpt>
      <trkpt lat="48.6530700" lon="14.1621380">
        <ele>750.8</ele>
        <time>2019-08-07T09:49:11Z</time>
      </trkpt>
      <trkpt lat="48.6530150" lon="14.1621740">
        <ele>750.6</ele>
        <time>2019-08-07T09:49:12Z</time>
      </trkpt>
      <trkpt lat="48.6529590" lon="14.1622110">
        <ele>750.6</ele>
        <time>2019-08-07T09:49:13Z</time>
      </trkpt>
      <trkpt lat="48.6529060" lon="14.1622470">
        <ele>750.4</ele>
        <time>2019-08-07T09:49:14Z</time>
      </trkpt>
      <trkpt lat="48.6528490" lon="14.1622870">
        <ele>750.2</ele>
        <time>2019-08-07T09:49:15Z</time>
      </trkpt>
      <trkpt lat="48.6527940" lon="14.1623260">
        <ele>750.0</ele>
        <time>2019-08-07T09:49:16Z</time>
      </trkpt>
      <trkpt lat="48.6527400" lon="14.1623640">
        <ele>749.8</ele>
        <time>2019-08-07T09:49:17Z</time>
      </trkpt>
      <trkpt lat="48.6526860" lon="14.1624060">
        <ele>749.6</ele>
        <time>2019-08-07T09:49:18Z</time>
      </trkpt>
      <trkpt lat="48.6526310" lon="14.1624580">
        <ele>749.4</ele>
        <time>2019-08-07T09:49:19Z</time>
      </trkpt>
      <trkpt lat="48.6525770" lon="14.1625090">
        <ele>749.0</ele>
        <time>2019-08-07T09:49:20Z</time>
      </trkpt>
      <trkpt lat="48.6525200" lon="14.1625630">
        <ele>748.8</ele>
        <time>2019-08-07T09:49:21Z</time>
      </trkpt>
      <trkpt lat="48.6524630" lon="14.1626180">
        <ele>748.6</ele>
        <time>2019-08-07T09:49:22Z</time>
      </trkpt>
      <trkpt lat="48.6524050" lon="14.1626760">
        <ele>748.6</ele>
        <time>2019-08-07T09:49:23Z</time>
      </trkpt>
      <trkpt lat="48.6523430" lon="14.1627440">
        <ele>748.4</ele>
        <time>2019-08-07T09:49:24Z</time>
      </trkpt>
      <trkpt lat="48.6522820" lon="14.1628100">
        <ele>748.0</ele>
        <time>2019-08-07T09:49:25Z</time>
      </trkpt>
      <trkpt lat="48.6522240" lon="14.1628730">
        <ele>747.8</ele>
        <time>2019-08-07T09:49:26Z</time>
      </trkpt>
      <trkpt lat="48.6521650" lon="14.1629340">
        <ele>747.6</ele>
        <time>2019-08-07T09:49:27Z</time>
      </trkpt>
      <trkpt lat="48.6521050" lon="14.1629960">
        <ele>747.4</ele>
        <time>2019-08-07T09:49:28Z</time>
      </trkpt>
      <trkpt lat="48.6520480" lon="14.1630500">
        <ele>747.0</ele>
        <time>2019-08-07T09:49:29Z</time>
      </trkpt>
      <trkpt lat="48.6519880" lon="14.1631060">
        <ele>746.8</ele>
        <time>2019-08-07T09:49:30Z</time>
      </trkpt>
      <trkpt lat="48.6519300" lon="14.1631640">
        <ele>746.6</ele>
        <time>2019-08-07T09:49:31Z</time>
      </trkpt>
      <trkpt lat="48.6518700" lon="14.1632370">
        <ele>746.4</ele>
        <time>2019-08-07T09:49:32Z</time>
      </trkpt>
      <trkpt lat="48.6518130" lon="14.1633020">
        <ele>746.2</ele>
        <time>2019-08-07T09:49:33Z</time>
      </trkpt>
      <trkpt lat="48.6517530" lon="14.1633710">
        <ele>746.0</ele>
        <time>2019-08-07T09:49:34Z</time>
      </trkpt>
      <trkpt lat="48.6516960" lon="14.1634340">
        <ele>745.6</ele>
        <time>2019-08-07T09:49:35Z</time>
      </trkpt>
      <trkpt lat="48.6516390" lon="14.1634950">
        <ele>745.4</ele>
        <time>2019-08-07T09:49:36Z</time>
      </trkpt>
      <trkpt lat="48.6515780" lon="14.1635650">
        <ele>745.2</ele>
        <time>2019-08-07T09:49:37Z</time>
      </trkpt>
      <trkpt lat="48.6515190" lon="14.1636430">
        <ele>745.0</ele>
        <time>2019-08-07T09:49:38Z</time>
      </trkpt>
      <trkpt lat="48.6514620" lon="14.1637070">
        <ele>744.6</ele>
        <time>2019-08-07T09:49:39Z</time>
      </trkpt>
      <trkpt lat="48.6514070" lon="14.1637690">
        <ele>744.4</ele>
        <time>2019-08-07T09:49:40Z</time>
      </trkpt>
      <trkpt lat="48.6513480" lon="14.1638380">
        <ele>744.2</ele>
        <time>2019-08-07T09:49:41Z</time>
      </trkpt>
      <trkpt lat="48.6512910" lon="14.1639040">
        <ele>743.8</ele>
        <time>2019-08-07T09:49:42Z</time>
      </trkpt>
      <trkpt lat="48.6512360" lon="14.1639700">
        <ele>743.6</ele>
        <time>2019-08-07T09:49:43Z</time>
      </trkpt>
      <trkpt lat="48.6511740" lon="14.1640300">
        <ele>743.4</ele>
        <time>2019-08-07T09:49:44Z</time>
      </trkpt>
      <trkpt lat="48.6511190" lon="14.1641020">
        <ele>743.2</ele>
        <time>2019-08-07T09:49:45Z</time>
      </trkpt>
      <trkpt lat="48.6510570" lon="14.1641700">
        <ele>743.0</ele>
        <time>2019-08-07T09:49:46Z</time>
      </trkpt>
      <trkpt lat="48.6509990" lon="14.1642440">
        <ele>742.8</ele>
        <time>2019-08-07T09:49:47Z</time>
      </trkpt>
      <trkpt lat="48.6509380" lon="14.1643160">
        <ele>742.6</ele>
        <time>2019-08-07T09:49:48Z</time>
      </trkpt>
      <trkpt lat="48.6508790" lon="14.1643810">
        <ele>742.4</ele>
        <time>2019-08-07T09:49:49Z</time>
      </trkpt>
      <trkpt lat="48.6508100" lon="14.1644430">
        <ele>742.2</ele>
        <time>2019-08-07T09:49:50Z</time>
      </trkpt>
      <trkpt lat="48.6507410" lon="14.1644960">
        <ele>742.0</ele>
        <time>2019-08-07T09:49:51Z</time>
      </trkpt>
      <trkpt lat="48.6506680" lon="14.1645510">
        <ele>741.8</ele>
        <time>2019-08-07T09:49:52Z</time>
      </trkpt>
      <trkpt lat="48.6505970" lon="14.1646010">
        <ele>741.6</ele>
        <time>2019-08-07T09:49:53Z</time>
      </trkpt>
      <trkpt lat="48.6505280" lon="14.1646510">
        <ele>741.4</ele>
        <time>2019-08-07T09:49:54Z</time>
      </trkpt>
      <trkpt lat="48.6504580" lon="14.1647050">
        <ele>741.4</ele>
        <time>2019-08-07T09:49:55Z</time>
      </trkpt>
      <trkpt lat="48.6503640" lon="14.1647610">
        <ele>741.4</ele>
        <time>2019-08-07T09:49:56Z</time>
      </trkpt>
      <trkpt lat="48.6502920" lon="14.1648180">
        <ele>741.2</ele>
        <time>2019-08-07T09:49:57Z</time>
      </trkpt>
      <trkpt lat="48.6502170" lon="14.1648750">
        <ele>741.2</ele>
        <time>2019-08-07T09:49:58Z</time>
      </trkpt>
      <trkpt lat="48.6501320" lon="14.1649040">
        <ele>741.2</ele>
        <time>2019-08-07T09:49:59Z</time>
      </trkpt>
      <trkpt lat="48.6500510" lon="14.1649490">
        <ele>741.0</ele>
        <time>2019-08-07T09:50:00Z</time>
      </trkpt>
      <trkpt lat="48.6499790" lon="14.1649840">
        <ele>741.0</ele>
        <time>2019-08-07T09:50:01Z</time>
      </trkpt>
      <trkpt lat="48.6498990" lon="14.1650280">
        <ele>740.8</ele>
        <time>2019-08-07T09:50:02Z</time>
      </trkpt>
      <trkpt lat="48.6498200" lon="14.1650480">
        <ele>740.8</ele>
        <time>2019-08-07T09:50:03Z</time>
      </trkpt>
      <trkpt lat="48.6497430" lon="14.1650620">
        <ele>740.8</ele>
        <time>2019-08-07T09:50:04Z</time>
      </trkpt>
      <trkpt lat="48.6496700" lon="14.1650660">
        <ele>740.8</ele>
        <time>2019-08-07T09:50:05Z</time>
      </trkpt>
      <trkpt lat="48.6495960" lon="14.1650590">
        <ele>740.6</ele>
        <time>2019-08-07T09:50:06Z</time>
      </trkpt>
      <trkpt lat="48.6495170" lon="14.1650480">
        <ele>740.6</ele>
        <time>2019-08-07T09:50:07Z</time>
      </trkpt>
      <trkpt lat="48.6494430" lon="14.1650400">
        <ele>740.6</ele>
        <time>2019-08-07T09:50:08Z</time>
      </trkpt>
      <trkpt lat="48.6493730" lon="14.1650290">
        <ele>740.6</ele>
        <time>2019-08-07T09:50:09Z</time>
      </trkpt>
      <trkpt lat="48.6493040" lon="14.1650140">
        <ele>740.6</ele>
        <time>2019-08-07T09:50:10Z</time>
      </trkpt>
      <trkpt lat="48.6492350" lon="14.1650020">
        <ele>740.6</ele>
        <time>2019-08-07T09:50:11Z</time>
      </trkpt>
      <trkpt lat="48.6491630" lon="14.1649850">
        <ele>740.6</ele>
        <time>2019-08-07T09:50:12Z</time>
      </trkpt>
      <trkpt lat="48.6490930" lon="14.1649590">
        <ele>740.4</ele>
        <time>2019-08-07T09:50:13Z</time>
      </trkpt>
      <trkpt lat="48.6490210" lon="14.1649330">
        <ele>740.4</ele>
        <time>2019-08-07T09:50:14Z</time>
      </trkpt>
      <trkpt lat="48.6489480" lon="14.1649040">
        <ele>740.4</ele>
        <time>2019-08-07T09:50:15Z</time>
      </trkpt>
      <trkpt lat="48.6488780" lon="14.1648700">
        <ele>740.4</ele>
        <time>2019-08-07T09:50:16Z</time>
      </trkpt>
      <trkpt lat="48.6488110" lon="14.1648280">
        <ele>740.4</ele>
        <time>2019-08-07T09:50:17Z</time>
      </trkpt>
      <trkpt lat="48.6487470" lon="14.1647860">
        <ele>740.4</ele>
        <time>2019-08-07T09:50:18Z</time>
      </trkpt>
      <trkpt lat="48.6486840" lon="14.1647440">
        <ele>740.4</ele>
        <time>2019-08-07T09:50:19Z</time>
      </trkpt>
      <trkpt lat="48.6486160" lon="14.1647060">
        <ele>740.4</ele>
        <time>2019-08-07T09:50:20Z</time>
      </trkpt>
      <trkpt lat="48.6485540" lon="14.1646600">
        <ele>740.4</ele>
        <time>2019-08-07T09:50:21Z</time>
      </trkpt>
      <trkpt lat="48.6484920" lon="14.1646100">
        <ele>740.2</ele>
        <time>2019-08-07T09:50:22Z</time>
      </trkpt>
      <trkpt lat="48.6484280" lon="14.1645710">
        <ele>740.2</ele>
        <time>2019-08-07T09:50:23Z</time>
      </trkpt>
      <trkpt lat="48.6483650" lon="14.1645280">
        <ele>740.2</ele>
        <time>2019-08-07T09:50:24Z</time>
      </trkpt>
      <trkpt lat="48.6483040" lon="14.1644810">
        <ele>740.0</ele>
        <time>2019-08-07T09:50:25Z</time>
      </trkpt>
      <trkpt lat="48.6482450" lon="14.1644360">
        <ele>740.0</ele>
        <time>2019-08-07T09:50:26Z</time>
      </trkpt>
      <trkpt lat="48.6481830" lon="14.1643860">
        <ele>740.0</ele>
        <time>2019-08-07T09:50:27Z</time>
      </trkpt>
      <trkpt lat="48.6481240" lon="14.1643390">
        <ele>740.0</ele>
        <time>2019-08-07T09:50:28Z</time>
      </trkpt>
      <trkpt lat="48.6480590" lon="14.1643030">
        <ele>740.0</ele>
        <time>2019-08-07T09:50:29Z</time>
      </trkpt>
      <trkpt lat="48.6479950" lon="14.1642640">
        <ele>739.8</ele>
        <time>2019-08-07T09:50:30Z</time>
      </trkpt>
      <trkpt lat="48.6479340" lon="14.1642290">
        <ele>739.8</ele>
        <time>2019-08-07T09:50:31Z</time>
      </trkpt>
      <trkpt lat="48.6478770" lon="14.1641870">
        <ele>739.8</ele>
        <time>2019-08-07T09:50:32Z</time>
      </trkpt>
      <trkpt lat="48.6478160" lon="14.1641420">
        <ele>739.8</ele>
        <time>2019-08-07T09:50:33Z</time>
      </trkpt>
      <trkpt lat="48.6477510" lon="14.1640990">
        <ele>739.8</ele>
        <time>2019-08-07T09:50:34Z</time>
      </trkpt>
      <trkpt lat="48.6476910" lon="14.1640600">
        <ele>739.6</ele>
        <time>2019-08-07T09:50:35Z</time>
      </trkpt>
      <trkpt lat="48.6476320" lon="14.1640170">
        <ele>739.6</ele>
        <time>2019-08-07T09:50:36Z</time>
      </trkpt>
      <trkpt lat="48.6475760" lon="14.1639750">
        <ele>739.6</ele>
        <time>2019-08-07T09:50:37Z</time>
      </trkpt>
      <trkpt lat="48.6475150" lon="14.1639420">
        <ele>739.6</ele>
        <time>2019-08-07T09:50:38Z</time>
      </trkpt>
      <trkpt lat="48.6474520" lon="14.1639140">
        <ele>739.6</ele>
        <time>2019-08-07T09:50:39Z</time>
      </trkpt>
      <trkpt lat="48.6473910" lon="14.1638850">
        <ele>739.6</ele>
        <time>2019-08-07T09:50:40Z</time>
      </trkpt>
      <trkpt lat="48.6473300" lon="14.1638590">
        <ele>739.6</ele>
        <time>2019-08-07T09:50:41Z</time>
      </trkpt>
      <trkpt lat="48.6472680" lon="14.1638360">
        <ele>739.6</ele>
        <time>2019-08-07T09:50:42Z</time>
      </trkpt>
      <trkpt lat="48.6472090" lon="14.1638150">
        <ele>739.6</ele>
        <time>2019-08-07T09:50:43Z</time>
      </trkpt>
      <trkpt lat="48.6471460" lon="14.1637950">
        <ele>739.6</ele>
        <time>2019-08-07T09:50:44Z</time>
      </trkpt>
      <trkpt lat="48.6470880" lon="14.1637820">
        <ele>739.6</ele>
        <time>2019-08-07T09:50:45Z</time>
      </trkpt>
      <trkpt lat="48.6470300" lon="14.1637690">
        <ele>739.6</ele>
        <time>2019-08-07T09:50:46Z</time>
      </trkpt>
      <trkpt lat="48.6469680" lon="14.1637590">
        <ele>739.6</ele>
        <time>2019-08-07T09:50:47Z</time>
      </trkpt>
      <trkpt lat="48.6469070" lon="14.1637540">
        <ele>739.8</ele>
        <time>2019-08-07T09:50:48Z</time>
      </trkpt>
      <trkpt lat="48.6468460" lon="14.1637480">
        <ele>739.8</ele>
        <time>2019-08-07T09:50:49Z</time>
      </trkpt>
      <trkpt lat="48.6467850" lon="14.1637440">
        <ele>739.8</ele>
        <time>2019-08-07T09:50:50Z</time>
      </trkpt>
      <trkpt lat="48.6467250" lon="14.1637480">
        <ele>739.8</ele>
        <time>2019-08-07T09:50:51Z</time>
      </trkpt>
      <trkpt lat="48.6466640" lon="14.1637560">
        <ele>739.8</ele>
        <time>2019-08-07T09:50:52Z</time>
      </trkpt>
      <trkpt lat="48.6466050" lon="14.1637690">
        <ele>739.8</ele>
        <time>2019-08-07T09:50:53Z</time>
      </trkpt>
      <trkpt lat="48.6465480" lon="14.1637870">
        <ele>739.8</ele>
        <time>2019-08-07T09:50:54Z</time>
      </trkpt>
      <trkpt lat="48.6464880" lon="14.1638060">
        <ele>739.8</ele>
        <time>2019-08-07T09:50:55Z</time>
      </trkpt>
      <trkpt lat="48.6464320" lon="14.1638260">
        <ele>739.8</ele>
        <time>2019-08-07T09:50:56Z</time>
      </trkpt>
      <trkpt lat="48.6463750" lon="14.1638510">
        <ele>739.8</ele>
        <time>2019-08-07T09:50:57Z</time>
      </trkpt>
      <trkpt lat="48.6463200" lon="14.1638790">
        <ele>739.8</ele>
        <time>2019-08-07T09:50:58Z</time>
      </trkpt>
      <trkpt lat="48.6462650" lon="14.1639160">
        <ele>739.8</ele>
        <time>2019-08-07T09:50:59Z</time>
      </trkpt>
      <trkpt lat="48.6462120" lon="14.1639540">
        <ele>740.0</ele>
        <time>2019-08-07T09:51:00Z</time>
      </trkpt>
      <trkpt lat="48.6461590" lon="14.1639910">
        <ele>740.0</ele>
        <time>2019-08-07T09:51:01Z</time>
      </trkpt>
      <trkpt lat="48.6461100" lon="14.1640290">
        <ele>740.0</ele>
        <time>2019-08-07T09:51:02Z</time>
      </trkpt>
      <trkpt lat="48.6460630" lon="14.1640690">
        <ele>740.2</ele>
        <time>2019-08-07T09:51:03Z</time>
      </trkpt>
      <trkpt lat="48.6460170" lon="14.1641040">
        <ele>740.2</ele>
        <time>2019-08-07T09:51:04Z</time>
      </trkpt>
      <trkpt lat="48.6459680" lon="14.1641470">
        <ele>740.2</ele>
        <time>2019-08-07T09:51:05Z</time>
      </trkpt>
      <trkpt lat="48.6459210" lon="14.1641930">
        <ele>740.2</ele>
        <time>2019-08-07T09:51:06Z</time>
      </trkpt>
      <trkpt lat="48.6458750" lon="14.1642370">
        <ele>740.2</ele>
        <time>2019-08-07T09:51:07Z</time>
      </trkpt>
      <trkpt lat="48.6458280" lon="14.1642890">
        <ele>740.2</ele>
        <time>2019-08-07T09:51:08Z</time>
      </trkpt>
      <trkpt lat="48.6457850" lon="14.1643370">
        <ele>740.2</ele>
        <time>2019-08-07T09:51:09Z</time>
      </trkpt>
      <trkpt lat="48.6457400" lon="14.1643870">
        <ele>740.2</ele>
        <time>2019-08-07T09:51:10Z</time>
      </trkpt>
      <trkpt lat="48.6456950" lon="14.1644360">
        <ele>740.2</ele>
        <time>2019-08-07T09:51:11Z</time>
      </trkpt>
      <trkpt lat="48.6456500" lon="14.1644840">
        <ele>740.2</ele>
        <time>2019-08-07T09:51:12Z</time>
      </trkpt>
      <trkpt lat="48.6456070" lon="14.1645340">
        <ele>740.0</ele>
        <time>2019-08-07T09:51:13Z</time>
      </trkpt>
      <trkpt lat="48.6455640" lon="14.1645840">
        <ele>740.2</ele>
        <time>2019-08-07T09:51:14Z</time>
      </trkpt>
      <trkpt lat="48.6455190" lon="14.1646310">
        <ele>740.2</ele>
        <time>2019-08-07T09:51:15Z</time>
      </trkpt>
      <trkpt lat="48.6454740" lon="14.1646800">
        <ele>740.2</ele>
        <time>2019-08-07T09:51:16Z</time>
      </trkpt>
      <trkpt lat="48.6454300" lon="14.1647270">
        <ele>740.2</ele>
        <time>2019-08-07T09:51:17Z</time>
      </trkpt>
      <trkpt lat="48.6453850" lon="14.1647750">
        <ele>740.2</ele>
        <time>2019-08-07T09:51:18Z</time>
      </trkpt>
      <trkpt lat="48.6453420" lon="14.1648210">
        <ele>740.2</ele>
        <time>2019-08-07T09:51:19Z</time>
      </trkpt>
      <trkpt lat="48.6452960" lon="14.1648670">
        <ele>740.2</ele>
        <time>2019-08-07T09:51:20Z</time>
      </trkpt>
      <trkpt lat="48.6452510" lon="14.1649080">
        <ele>740.2</ele>
        <time>2019-08-07T09:51:21Z</time>
      </trkpt>
      <trkpt lat="48.6452040" lon="14.1649500">
        <ele>740.2</ele>
        <time>2019-08-07T09:51:22Z</time>
      </trkpt>
      <trkpt lat="48.6451580" lon="14.1649910">
        <ele>740.2</ele>
        <time>2019-08-07T09:51:23Z</time>
      </trkpt>
      <trkpt lat="48.6451150" lon="14.1650300">
        <ele>740.2</ele>
        <time>2019-08-07T09:51:24Z</time>
      </trkpt>
      <trkpt lat="48.6450700" lon="14.1650680">
        <ele>740.4</ele>
        <time>2019-08-07T09:51:25Z</time>
      </trkpt>
      <trkpt lat="48.6450250" lon="14.1651080">
        <ele>740.4</ele>
        <time>2019-08-07T09:51:26Z</time>
      </trkpt>
      <trkpt lat="48.6449820" lon="14.1651470">
        <ele>740.6</ele>
        <time>2019-08-07T09:51:27Z</time>
      </trkpt>
      <trkpt lat="48.6449410" lon="14.1651750">
        <ele>740.6</ele>
        <time>2019-08-07T09:51:28Z</time>
      </trkpt>
      <trkpt lat="48.6448960" lon="14.1652060">
        <ele>740.6</ele>
        <time>2019-08-07T09:51:29Z</time>
      </trkpt>
      <trkpt lat="48.6448500" lon="14.1652470">
        <ele>740.6</ele>
        <time>2019-08-07T09:51:30Z</time>
      </trkpt>
      <trkpt lat="48.6448030" lon="14.1652840">
        <ele>740.6</ele>
        <time>2019-08-07T09:51:31Z</time>
      </trkpt>
      <trkpt lat="48.6447560" lon="14.1653230">
        <ele>740.6</ele>
        <time>2019-08-07T09:51:32Z</time>
      </trkpt>
      <trkpt lat="48.6447100" lon="14.1653620">
        <ele>740.6</ele>
        <time>2019-08-07T09:51:33Z</time>
      </trkpt>
      <trkpt lat="48.6446630" lon="14.1654010">
        <ele>740.6</ele>
        <time>2019-08-07T09:51:34Z</time>
      </trkpt>
      <trkpt lat="48.6446180" lon="14.1654350">
        <ele>740.6</ele>
        <time>2019-08-07T09:51:35Z</time>
      </trkpt>
      <trkpt lat="48.6445710" lon="14.1654750">
        <ele>740.6</ele>
        <time>2019-08-07T09:51:36Z</time>
      </trkpt>
      <trkpt lat="48.6445230" lon="14.1655160">
        <ele>740.6</ele>
        <time>2019-08-07T09:51:37Z</time>
      </trkpt>
      <trkpt lat="48.6444740" lon="14.1655550">
        <ele>740.6</ele>
        <time>2019-08-07T09:51:38Z</time>
      </trkpt>
      <trkpt lat="48.6444240" lon="14.1656000">
        <ele>740.6</ele>
        <time>2019-08-07T09:51:39Z</time>
      </trkpt>
      <trkpt lat="48.6443760" lon="14.1656430">
        <ele>740.8</ele>
        <time>2019-08-07T09:51:40Z</time>
      </trkpt>
      <trkpt lat="48.6443280" lon="14.1656850">
        <ele>740.8</ele>
        <time>2019-08-07T09:51:41Z</time>
      </trkpt>
      <trkpt lat="48.6442810" lon="14.1657280">
        <ele>740.6</ele>
        <time>2019-08-07T09:51:42Z</time>
      </trkpt>
      <trkpt lat="48.6442360" lon="14.1657670">
        <ele>740.8</ele>
        <time>2019-08-07T09:51:43Z</time>
      </trkpt>
      <trkpt lat="48.6441930" lon="14.1657990">
        <ele>740.8</ele>
        <time>2019-08-07T09:51:44Z</time>
      </trkpt>
      <trkpt lat="48.6441460" lon="14.1658360">
        <ele>740.8</ele>
        <time>2019-08-07T09:51:45Z</time>
      </trkpt>
      <trkpt lat="48.6440980" lon="14.1658750">
        <ele>740.8</ele>
        <time>2019-08-07T09:51:46Z</time>
      </trkpt>
      <trkpt lat="48.6440520" lon="14.1659120">
        <ele>740.8</ele>
        <time>2019-08-07T09:51:47Z</time>
      </trkpt>
      <trkpt lat="48.6440040" lon="14.1659460">
        <ele>740.8</ele>
        <time>2019-08-07T09:51:48Z</time>
      </trkpt>
      <trkpt lat="48.6439580" lon="14.1659870">
        <ele>740.8</ele>
        <time>2019-08-07T09:51:49Z</time>
      </trkpt>
      <trkpt lat="48.6439100" lon="14.1660280">
        <ele>740.8</ele>
        <time>2019-08-07T09:51:50Z</time>
      </trkpt>
      <trkpt lat="48.6438650" lon="14.1660690">
        <ele>740.8</ele>
        <time>2019-08-07T09:51:51Z</time>
      </trkpt>
      <trkpt lat="48.6438230" lon="14.1661050">
        <ele>740.8</ele>
        <time>2019-08-07T09:51:52Z</time>
      </trkpt>
      <trkpt lat="48.6437780" lon="14.1661490">
        <ele>740.8</ele>
        <time>2019-08-07T09:51:53Z</time>
      </trkpt>
      <trkpt lat="48.6437340" lon="14.1661920">
        <ele>740.8</ele>
        <time>2019-08-07T09:51:54Z</time>
      </trkpt>
      <trkpt lat="48.6436860" lon="14.1662260">
        <ele>740.8</ele>
        <time>2019-08-07T09:51:55Z</time>
      </trkpt>
      <trkpt lat="48.6436400" lon="14.1662650">
        <ele>740.8</ele>
        <time>2019-08-07T09:51:56Z</time>
      </trkpt>
      <trkpt lat="48.6435950" lon="14.1663060">
        <ele>740.8</ele>
        <time>2019-08-07T09:51:57Z</time>
      </trkpt>
      <trkpt lat="48.6435520" lon="14.1663430">
        <ele>740.8</ele>
        <time>2019-08-07T09:51:58Z</time>
      </trkpt>
      <trkpt lat="48.6435070" lon="14.1663870">
        <ele>740.8</ele>
        <time>2019-08-07T09:51:59Z</time>
      </trkpt>
      <trkpt lat="48.6434640" lon="14.1664320">
        <ele>740.8</ele>
        <time>2019-08-07T09:52:00Z</time>
      </trkpt>
      <trkpt lat="48.6434220" lon="14.1664710">
        <ele>740.8</ele>
        <time>2019-08-07T09:52:01Z</time>
      </trkpt>
      <trkpt lat="48.6433780" lon="14.1665250">
        <ele>741.0</ele>
        <time>2019-08-07T09:52:02Z</time>
      </trkpt>
      <trkpt lat="48.6433290" lon="14.1665850">
        <ele>741.0</ele>
        <time>2019-08-07T09:52:03Z</time>
      </trkpt>
      <trkpt lat="48.6432790" lon="14.1666400">
        <ele>741.0</ele>
        <time>2019-08-07T09:52:04Z</time>
      </trkpt>
      <trkpt lat="48.6432280" lon="14.1666950">
        <ele>741.0</ele>
        <time>2019-08-07T09:52:05Z</time>
      </trkpt>
      <trkpt lat="48.6431780" lon="14.1667480">
        <ele>741.0</ele>
        <time>2019-08-07T09:52:06Z</time>
      </trkpt>
      <trkpt lat="48.6431310" lon="14.1667970">
        <ele>741.0</ele>
        <time>2019-08-07T09:52:07Z</time>
      </trkpt>
      <trkpt lat="48.6430840" lon="14.1668450">
        <ele>741.0</ele>
        <time>2019-08-07T09:52:08Z</time>
      </trkpt>
      <trkpt lat="48.6430380" lon="14.1668920">
        <ele>741.0</ele>
        <time>2019-08-07T09:52:09Z</time>
      </trkpt>
      <trkpt lat="48.6429920" lon="14.1669340">
        <ele>741.0</ele>
        <time>2019-08-07T09:52:10Z</time>
      </trkpt>
      <trkpt lat="48.6429430" lon="14.1669680">
        <ele>741.0</ele>
        <time>2019-08-07T09:52:11Z</time>
      </trkpt>
      <trkpt lat="48.6428940" lon="14.1669970">
        <ele>741.0</ele>
        <time>2019-08-07T09:52:12Z</time>
      </trkpt>
      <trkpt lat="48.6428450" lon="14.1670360">
        <ele>741.0</ele>
        <time>2019-08-07T09:52:13Z</time>
      </trkpt>
      <trkpt lat="48.6427980" lon="14.1670840">
        <ele>740.8</ele>
        <time>2019-08-07T09:52:14Z</time>
      </trkpt>
      <trkpt lat="48.6427510" lon="14.1671340">
        <ele>740.8</ele>
        <time>2019-08-07T09:52:15Z</time>
      </trkpt>
      <trkpt lat="48.6427050" lon="14.1671810">
        <ele>740.8</ele>
        <time>2019-08-07T09:52:16Z</time>
      </trkpt>
      <trkpt lat="48.6426580" lon="14.1672360">
        <ele>740.8</ele>
        <time>2019-08-07T09:52:17Z</time>
      </trkpt>
      <trkpt lat="48.6426100" lon="14.1672880">
        <ele>740.8</ele>
        <time>2019-08-07T09:52:18Z</time>
      </trkpt>
      <trkpt lat="48.6425630" lon="14.1673360">
        <ele>740.8</ele>
        <time>2019-08-07T09:52:19Z</time>
      </trkpt>
      <trkpt lat="48.6425200" lon="14.1673840">
        <ele>740.8</ele>
        <time>2019-08-07T09:52:20Z</time>
      </trkpt>
      <trkpt lat="48.6424730" lon="14.1674400">
        <ele>740.8</ele>
        <time>2019-08-07T09:52:21Z</time>
      </trkpt>
      <trkpt lat="48.6424260" lon="14.1675000">
        <ele>740.6</ele>
        <time>2019-08-07T09:52:22Z</time>
      </trkpt>
      <trkpt lat="48.6423840" lon="14.1675530">
        <ele>740.6</ele>
        <time>2019-08-07T09:52:23Z</time>
      </trkpt>
      <trkpt lat="48.6423440" lon="14.1676080">
        <ele>740.6</ele>
        <time>2019-08-07T09:52:24Z</time>
      </trkpt>
      <trkpt lat="48.6423060" lon="14.1676700">
        <ele>740.6</ele>
        <time>2019-08-07T09:52:25Z</time>
      </trkpt>
      <trkpt lat="48.6422690" lon="14.1677340">
        <ele>740.4</ele>
        <time>2019-08-07T09:52:26Z</time>
      </trkpt>
      <trkpt lat="48.6422330" lon="14.1677980">
        <ele>740.4</ele>
        <time>2019-08-07T09:52:27Z</time>
      </trkpt>
      <trkpt lat="48.6421990" lon="14.1678640">
        <ele>740.4</ele>
        <time>2019-08-07T09:52:28Z</time>
      </trkpt>
      <trkpt lat="48.6421660" lon="14.1679270">
        <ele>740.4</ele>
        <time>2019-08-07T09:52:29Z</time>
      </trkpt>
      <trkpt lat="48.6421290" lon="14.1679960">
        <ele>740.4</ele>
        <time>2019-08-07T09:52:30Z</time>
      </trkpt>
      <trkpt lat="48.6420990" lon="14.1680690">
        <ele>740.4</ele>
        <time>2019-08-07T09:52:31Z</time>
      </trkpt>
      <trkpt lat="48.6420700" lon="14.1681430">
        <ele>740.4</ele>
        <time>2019-08-07T09:52:32Z</time>
      </trkpt>
      <trkpt lat="48.6420400" lon="14.1682130">
        <ele>740.2</ele>
        <time>2019-08-07T09:52:33Z</time>
      </trkpt>
      <trkpt lat="48.6420120" lon="14.1682800">
        <ele>740.2</ele>
        <time>2019-08-07T09:52:34Z</time>
      </trkpt>
      <trkpt lat="48.6419830" lon="14.1683540">
        <ele>740.2</ele>
        <time>2019-08-07T09:52:35Z</time>
      </trkpt>
      <trkpt lat="48.6419570" lon="14.1684270">
        <ele>740.0</ele>
        <time>2019-08-07T09:52:36Z</time>
      </trkpt>
      <trkpt lat="48.6419250" lon="14.1685050">
        <ele>740.0</ele>
        <time>2019-08-07T09:52:37Z</time>
      </trkpt>
      <trkpt lat="48.6418940" lon="14.1685820">
        <ele>739.8</ele>
        <time>2019-08-07T09:52:38Z</time>
      </trkpt>
      <trkpt lat="48.6418570" lon="14.1686540">
        <ele>739.8</ele>
        <time>2019-08-07T09:52:39Z</time>
      </trkpt>
      <trkpt lat="48.6418280" lon="14.1687300">
        <ele>740.0</ele>
        <time>2019-08-07T09:52:40Z</time>
      </trkpt>
      <trkpt lat="48.6417990" lon="14.1688000">
        <ele>740.0</ele>
        <time>2019-08-07T09:52:41Z</time>
      </trkpt>
      <trkpt lat="48.6417740" lon="14.1688660">
        <ele>740.0</ele>
        <time>2019-08-07T09:52:42Z</time>
      </trkpt>
      <trkpt lat="48.6417460" lon="14.1689380">
        <ele>740.0</ele>
        <time>2019-08-07T09:52:43Z</time>
      </trkpt>
      <trkpt lat="48.6417150" lon="14.1690030">
        <ele>740.0</ele>
        <time>2019-08-07T09:52:44Z</time>
      </trkpt>
      <trkpt lat="48.6416810" lon="14.1690700">
        <ele>740.0</ele>
        <time>2019-08-07T09:52:45Z</time>
      </trkpt>
      <trkpt lat="48.6416510" lon="14.1691380">
        <ele>739.8</ele>
        <time>2019-08-07T09:52:46Z</time>
      </trkpt>
      <trkpt lat="48.6416290" lon="14.1692070">
        <ele>740.0</ele>
        <time>2019-08-07T09:52:47Z</time>
      </trkpt>
      <trkpt lat="48.6416050" lon="14.1692670">
        <ele>739.8</ele>
        <time>2019-08-07T09:52:48Z</time>
      </trkpt>
      <trkpt lat="48.6415810" lon="14.1693260">
        <ele>740.0</ele>
        <time>2019-08-07T09:52:49Z</time>
      </trkpt>
      <trkpt lat="48.6415610" lon="14.1693850">
        <ele>740.0</ele>
        <time>2019-08-07T09:52:50Z</time>
      </trkpt>
      <trkpt lat="48.6415400" lon="14.1694410">
        <ele>740.0</ele>
        <time>2019-08-07T09:52:51Z</time>
      </trkpt>
      <trkpt lat="48.6415180" lon="14.1695010">
        <ele>740.0</ele>
        <time>2019-08-07T09:52:52Z</time>
      </trkpt>
      <trkpt lat="48.6414900" lon="14.1695640">
        <ele>740.0</ele>
        <time>2019-08-07T09:52:53Z</time>
      </trkpt>
      <trkpt lat="48.6414620" lon="14.1696320">
        <ele>740.0</ele>
        <time>2019-08-07T09:52:54Z</time>
      </trkpt>
      <trkpt lat="48.6414380" lon="14.1696950">
        <ele>740.0</ele>
        <time>2019-08-07T09:52:55Z</time>
      </trkpt>
      <trkpt lat="48.6414150" lon="14.1697610">
        <ele>740.0</ele>
        <time>2019-08-07T09:52:56Z</time>
      </trkpt>
      <trkpt lat="48.6413910" lon="14.1698310">
        <ele>740.0</ele>
        <time>2019-08-07T09:52:57Z</time>
      </trkpt>
      <trkpt lat="48.6413590" lon="14.1699100">
        <ele>740.0</ele>
        <time>2019-08-07T09:52:58Z</time>
      </trkpt>
      <trkpt lat="48.6413260" lon="14.1699840">
        <ele>740.0</ele>
        <time>2019-08-07T09:52:59Z</time>
      </trkpt>
      <trkpt lat="48.6412960" lon="14.1700550">
        <ele>740.0</ele>
        <time>2019-08-07T09:53:00Z</time>
      </trkpt>
      <trkpt lat="48.6412580" lon="14.1701310">
        <ele>740.0</ele>
        <time>2019-08-07T09:53:01Z</time>
      </trkpt>
      <trkpt lat="48.6412260" lon="14.1702050">
        <ele>740.0</ele>
        <time>2019-08-07T09:53:02Z</time>
      </trkpt>
      <trkpt lat="48.6411890" lon="14.1702780">
        <ele>740.0</ele>
        <time>2019-08-07T09:53:03Z</time>
      </trkpt>
      <trkpt lat="48.6411520" lon="14.1703460">
        <ele>740.0</ele>
        <time>2019-08-07T09:53:04Z</time>
      </trkpt>
      <trkpt lat="48.6411140" lon="14.1704130">
        <ele>740.0</ele>
        <time>2019-08-07T09:53:05Z</time>
      </trkpt>
      <trkpt lat="48.6410790" lon="14.1704810">
        <ele>740.0</ele>
        <time>2019-08-07T09:53:06Z</time>
      </trkpt>
      <trkpt lat="48.6410400" lon="14.1705540">
        <ele>740.0</ele>
        <time>2019-08-07T09:53:07Z</time>
      </trkpt>
      <trkpt lat="48.6409980" lon="14.1706240">
        <ele>740.0</ele>
        <time>2019-08-07T09:53:08Z</time>
      </trkpt>
      <trkpt lat="48.6409440" lon="14.1706930">
        <ele>740.0</ele>
        <time>2019-08-07T09:53:09Z</time>
      </trkpt>
      <trkpt lat="48.6408870" lon="14.1707530">
        <ele>740.0</ele>
        <time>2019-08-07T09:53:10Z</time>
      </trkpt>
      <trkpt lat="48.6408230" lon="14.1708080">
        <ele>740.0</ele>
        <time>2019-08-07T09:53:11Z</time>
      </trkpt>
      <trkpt lat="48.6407650" lon="14.1708510">
        <ele>740.0</ele>
        <time>2019-08-07T09:53:12Z</time>
      </trkpt>
      <trkpt lat="48.6407030" lon="14.1709020">
        <ele>740.0</ele>
        <time>2019-08-07T09:53:13Z</time>
      </trkpt>
      <trkpt lat="48.6406440" lon="14.1709580">
        <ele>740.0</ele>
        <time>2019-08-07T09:53:14Z</time>
      </trkpt>
      <trkpt lat="48.6405840" lon="14.1710040">
        <ele>740.0</ele>
        <time>2019-08-07T09:53:15Z</time>
      </trkpt>
      <trkpt lat="48.6405230" lon="14.1710480">
        <ele>740.0</ele>
        <time>2019-08-07T09:53:16Z</time>
      </trkpt>
      <trkpt lat="48.6404630" lon="14.1710920">
        <ele>740.0</ele>
        <time>2019-08-07T09:53:17Z</time>
      </trkpt>
      <trkpt lat="48.6404080" lon="14.1711380">
        <ele>740.0</ele>
        <time>2019-08-07T09:53:18Z</time>
      </trkpt>
      <trkpt lat="48.6403480" lon="14.1711780">
        <ele>740.0</ele>
        <time>2019-08-07T09:53:19Z</time>
      </trkpt>
      <trkpt lat="48.6402920" lon="14.1712200">
        <ele>740.0</ele>
        <time>2019-08-07T09:53:20Z</time>
      </trkpt>
      <trkpt lat="48.6402320" lon="14.1712560">
        <ele>740.0</ele>
        <time>2019-08-07T09:53:21Z</time>
      </trkpt>
      <trkpt lat="48.6401750" lon="14.1712950">
        <ele>740.0</ele>
        <time>2019-08-07T09:53:22Z</time>
      </trkpt>
      <trkpt lat="48.6401180" lon="14.1713300">
        <ele>740.0</ele>
        <time>2019-08-07T09:53:23Z</time>
      </trkpt>
      <trkpt lat="48.6400610" lon="14.1713730">
        <ele>740.0</ele>
        <time>2019-08-07T09:53:24Z</time>
      </trkpt>
      <trkpt lat="48.6400040" lon="14.1714150">
        <ele>740.0</ele>
        <time>2019-08-07T09:53:25Z</time>
      </trkpt>
      <trkpt lat="48.6399430" lon="14.1714490">
        <ele>740.0</ele>
        <time>2019-08-07T09:53:26Z</time>
      </trkpt>
      <trkpt lat="48.6398810" lon="14.1714820">
        <ele>740.0</ele>
        <time>2019-08-07T09:53:27Z</time>
      </trkpt>
      <trkpt lat="48.6398190" lon="14.1715120">
        <ele>740.0</ele>
        <time>2019-08-07T09:53:28Z</time>
      </trkpt>
      <trkpt lat="48.6397560" lon="14.1715450">
        <ele>740.0</ele>
        <time>2019-08-07T09:53:29Z</time>
      </trkpt>
      <trkpt lat="48.6396980" lon="14.1715830">
        <ele>740.0</ele>
        <time>2019-08-07T09:53:30Z</time>
      </trkpt>
      <trkpt lat="48.6396420" lon="14.1716220">
        <ele>740.0</ele>
        <time>2019-08-07T09:53:31Z</time>
      </trkpt>
      <trkpt lat="48.6395860" lon="14.1716590">
        <ele>740.0</ele>
        <time>2019-08-07T09:53:32Z</time>
      </trkpt>
      <trkpt lat="48.6395270" lon="14.1716970">
        <ele>740.0</ele>
        <time>2019-08-07T09:53:33Z</time>
      </trkpt>
      <trkpt lat="48.6394710" lon="14.1717300">
        <ele>739.8</ele>
        <time>2019-08-07T09:53:34Z</time>
      </trkpt>
      <trkpt lat="48.6394110" lon="14.1717590">
        <ele>739.8</ele>
        <time>2019-08-07T09:53:35Z</time>
      </trkpt>
      <trkpt lat="48.6393540" lon="14.1717940">
        <ele>739.8</ele>
        <time>2019-08-07T09:53:36Z</time>
      </trkpt>
      <trkpt lat="48.6392960" lon="14.1718270">
        <ele>739.8</ele>
        <time>2019-08-07T09:53:37Z</time>
      </trkpt>
      <trkpt lat="48.6392360" lon="14.1718570">
        <ele>739.6</ele>
        <time>2019-08-07T09:53:38Z</time>
      </trkpt>
      <trkpt lat="48.6391790" lon="14.1718900">
        <ele>739.6</ele>
        <time>2019-08-07T09:53:39Z</time>
      </trkpt>
      <trkpt lat="48.6391200" lon="14.1719270">
        <ele>739.6</ele>
        <time>2019-08-07T09:53:40Z</time>
      </trkpt>
      <trkpt lat="48.6390590" lon="14.1719630">
        <ele>739.6</ele>
        <time>2019-08-07T09:53:41Z</time>
      </trkpt>
      <trkpt lat="48.6390000" lon="14.1719990">
        <ele>739.6</ele>
        <time>2019-08-07T09:53:42Z</time>
      </trkpt>
      <trkpt lat="48.6389420" lon="14.1720350">
        <ele>739.6</ele>
        <time>2019-08-07T09:53:43Z</time>
      </trkpt>
      <trkpt lat="48.6388860" lon="14.1720660">
        <ele>739.6</ele>
        <time>2019-08-07T09:53:44Z</time>
      </trkpt>
      <trkpt lat="48.6388270" lon="14.1721040">
        <ele>739.4</ele>
        <time>2019-08-07T09:53:45Z</time>
      </trkpt>
      <trkpt lat="48.6387730" lon="14.1721420">
        <ele>739.4</ele>
        <time>2019-08-07T09:53:46Z</time>
      </trkpt>
      <trkpt lat="48.6387150" lon="14.1721730">
        <ele>739.4</ele>
        <time>2019-08-07T09:53:47Z</time>
      </trkpt>
      <trkpt lat="48.6386520" lon="14.1722050">
        <ele>739.4</ele>
        <time>2019-08-07T09:53:48Z</time>
      </trkpt>
      <trkpt lat="48.6385900" lon="14.1722340">
        <ele>739.6</ele>
        <time>2019-08-07T09:53:49Z</time>
      </trkpt>
      <trkpt lat="48.6385280" lon="14.1722590">
        <ele>739.6</ele>
        <time>2019-08-07T09:53:50Z</time>
      </trkpt>
      <trkpt lat="48.6384680" lon="14.1722840">
        <ele>739.6</ele>
        <time>2019-08-07T09:53:51Z</time>
      </trkpt>
      <trkpt lat="48.6384060" lon="14.1723110">
        <ele>739.4</ele>
        <time>2019-08-07T09:53:52Z</time>
      </trkpt>
      <trkpt lat="48.6383450" lon="14.1723360">
        <ele>739.4</ele>
        <time>2019-08-07T09:53:53Z</time>
      </trkpt>
      <trkpt lat="48.6382850" lon="14.1723580">
        <ele>739.4</ele>
        <time>2019-08-07T09:53:54Z</time>
      </trkpt>
      <trkpt lat="48.6382240" lon="14.1723800">
        <ele>739.4</ele>
        <time>2019-08-07T09:53:55Z</time>
      </trkpt>
      <trkpt lat="48.6381600" lon="14.1724030">
        <ele>739.4</ele>
        <time>2019-08-07T09:53:56Z</time>
      </trkpt>
      <trkpt lat="48.6380960" lon="14.1724160">
        <ele>739.2</ele>
        <time>2019-08-07T09:53:57Z</time>
      </trkpt>
      <trkpt lat="48.6380330" lon="14.1724270">
        <ele>739.4</ele>
        <time>2019-08-07T09:53:58Z</time>
      </trkpt>
      <trkpt lat="48.6379700" lon="14.1724490">
        <ele>739.2</ele>
        <time>2019-08-07T09:53:59Z</time>
      </trkpt>
      <trkpt lat="48.6379080" lon="14.1724650">
        <ele>739.2</ele>
        <time>2019-08-07T09:54:00Z</time>
      </trkpt>
      <trkpt lat="48.6378480" lon="14.1724750">
        <ele>739.2</ele>
        <time>2019-08-07T09:54:01Z</time>
      </trkpt>
      <trkpt lat="48.6377920" lon="14.1724860">
        <ele>739.2</ele>
        <time>2019-08-07T09:54:02Z</time>
      </trkpt>
      <trkpt lat="48.6377340" lon="14.1724970">
        <ele>739.2</ele>
        <time>2019-08-07T09:54:03Z</time>
      </trkpt>
      <trkpt lat="48.6376720" lon="14.1725060">
        <ele>739.0</ele>
        <time>2019-08-07T09:54:04Z</time>
      </trkpt>
      <trkpt lat="48.6376080" lon="14.1725140">
        <ele>739.0</ele>
        <time>2019-08-07T09:54:05Z</time>
      </trkpt>
      <trkpt lat="48.6375450" lon="14.1725210">
        <ele>739.0</ele>
        <time>2019-08-07T09:54:06Z</time>
      </trkpt>
      <trkpt lat="48.6374790" lon="14.1725320">
        <ele>739.0</ele>
        <time>2019-08-07T09:54:07Z</time>
      </trkpt>
      <trkpt lat="48.6374170" lon="14.1725400">
        <ele>739.0</ele>
        <time>2019-08-07T09:54:08Z</time>
      </trkpt>
      <trkpt lat="48.6373540" lon="14.1725510">
        <ele>739.0</ele>
        <time>2019-08-07T09:54:09Z</time>
      </trkpt>
      <trkpt lat="48.6372900" lon="14.1725580">
        <ele>739.0</ele>
        <time>2019-08-07T09:54:10Z</time>
      </trkpt>
      <trkpt lat="48.6372250" lon="14.1725580">
        <ele>739.0</ele>
        <time>2019-08-07T09:54:11Z</time>
      </trkpt>
      <trkpt lat="48.6371570" lon="14.1725580">
        <ele>739.2</ele>
        <time>2019-08-07T09:54:12Z</time>
      </trkpt>
      <trkpt lat="48.6370940" lon="14.1725680">
        <ele>739.2</ele>
        <time>2019-08-07T09:54:13Z</time>
      </trkpt>
      <trkpt lat="48.6370340" lon="14.1725750">
        <ele>739.2</ele>
        <time>2019-08-07T09:54:14Z</time>
      </trkpt>
      <trkpt lat="48.6369710" lon="14.1725760">
        <ele>739.0</ele>
        <time>2019-08-07T09:54:15Z</time>
      </trkpt>
      <trkpt lat="48.6369130" lon="14.1725750">
        <ele>739.0</ele>
        <time>2019-08-07T09:54:16Z</time>
      </trkpt>
      <trkpt lat="48.6368500" lon="14.1725770">
        <ele>739.0</ele>
        <time>2019-08-07T09:54:17Z</time>
      </trkpt>
      <trkpt lat="48.6367880" lon="14.1725800">
        <ele>739.0</ele>
        <time>2019-08-07T09:54:18Z</time>
      </trkpt>
      <trkpt lat="48.6367250" lon="14.1725830">
        <ele>739.0</ele>
        <time>2019-08-07T09:54:19Z</time>
      </trkpt>
      <trkpt lat="48.6366640" lon="14.1725820">
        <ele>739.0</ele>
        <time>2019-08-07T09:54:20Z</time>
      </trkpt>
      <trkpt lat="48.6365990" lon="14.1725860">
        <ele>738.8</ele>
        <time>2019-08-07T09:54:21Z</time>
      </trkpt>
      <trkpt lat="48.6365330" lon="14.1725840">
        <ele>738.8</ele>
        <time>2019-08-07T09:54:22Z</time>
      </trkpt>
      <trkpt lat="48.6364730" lon="14.1725900">
        <ele>739.0</ele>
        <time>2019-08-07T09:54:23Z</time>
      </trkpt>
      <trkpt lat="48.6364120" lon="14.1725860">
        <ele>738.8</ele>
        <time>2019-08-07T09:54:24Z</time>
      </trkpt>
      <trkpt lat="48.6363520" lon="14.1725810">
        <ele>738.8</ele>
        <time>2019-08-07T09:54:25Z</time>
      </trkpt>
      <trkpt lat="48.6362960" lon="14.1725730">
        <ele>738.8</ele>
        <time>2019-08-07T09:54:26Z</time>
      </trkpt>
      <trkpt lat="48.6362400" lon="14.1725700">
        <ele>738.8</ele>
        <time>2019-08-07T09:54:27Z</time>
      </trkpt>
      <trkpt lat="48.6361800" lon="14.1725710">
        <ele>739.0</ele>
        <time>2019-08-07T09:54:28Z</time>
      </trkpt>
      <trkpt lat="48.6361240" lon="14.1725700">
        <ele>739.0</ele>
        <time>2019-08-07T09:54:29Z</time>
      </trkpt>
      <trkpt lat="48.6360680" lon="14.1725730">
        <ele>739.0</ele>
        <time>2019-08-07T09:54:30Z</time>
      </trkpt>
      <trkpt lat="48.6360140" lon="14.1725750">
        <ele>739.2</ele>
        <time>2019-08-07T09:54:31Z</time>
      </trkpt>
      <trkpt lat="48.6359630" lon="14.1725710">
        <ele>739.2</ele>
        <time>2019-08-07T09:54:32Z</time>
      </trkpt>
      <trkpt lat="48.6359120" lon="14.1725670">
        <ele>739.2</ele>
        <time>2019-08-07T09:54:33Z</time>
      </trkpt>
      <trkpt lat="48.6358620" lon="14.1725600">
        <ele>739.4</ele>
        <time>2019-08-07T09:54:34Z</time>
      </trkpt>
      <trkpt lat="48.6358110" lon="14.1725630">
        <ele>739.4</ele>
        <time>2019-08-07T09:54:35Z</time>
      </trkpt>
      <trkpt lat="48.6357630" lon="14.1725620">
        <ele>739.6</ele>
        <time>2019-08-07T09:54:36Z</time>
      </trkpt>
      <trkpt lat="48.6357160" lon="14.1725510">
        <ele>739.6</ele>
        <time>2019-08-07T09:54:37Z</time>
      </trkpt>
      <trkpt lat="48.6356690" lon="14.1725430">
        <ele>739.8</ele>
        <time>2019-08-07T09:54:38Z</time>
      </trkpt>
      <trkpt lat="48.6356230" lon="14.1725410">
        <ele>739.8</ele>
        <time>2019-08-07T09:54:39Z</time>
      </trkpt>
      <trkpt lat="48.6355750" lon="14.1725400">
        <ele>740.0</ele>
        <time>2019-08-07T09:54:40Z</time>
      </trkpt>
      <trkpt lat="48.6355310" lon="14.1725380">
        <ele>740.2</ele>
        <time>2019-08-07T09:54:41Z</time>
      </trkpt>
      <trkpt lat="48.6354870" lon="14.1725360">
        <ele>740.2</ele>
        <time>2019-08-07T09:54:42Z</time>
      </trkpt>
      <trkpt lat="48.6354440" lon="14.1725400">
        <ele>740.4</ele>
        <time>2019-08-07T09:54:43Z</time>
      </trkpt>
      <trkpt lat="48.6354020" lon="14.1725420">
        <ele>740.4</ele>
        <time>2019-08-07T09:54:44Z</time>
      </trkpt>
      <trkpt lat="48.6353610" lon="14.1725440">
        <ele>740.6</ele>
        <time>2019-08-07T09:54:45Z</time>
      </trkpt>
      <trkpt lat="48.6353180" lon="14.1725400">
        <ele>740.6</ele>
        <time>2019-08-07T09:54:46Z</time>
      </trkpt>
      <trkpt lat="48.6352780" lon="14.1725380">
        <ele>740.8</ele>
        <time>2019-08-07T09:54:47Z</time>
      </trkpt>
      <trkpt lat="48.6352370" lon="14.1725330">
        <ele>740.8</ele>
        <time>2019-08-07T09:54:48Z</time>
      </trkpt>
      <trkpt lat="48.6351950" lon="14.1725280">
        <ele>741.0</ele>
        <time>2019-08-07T09:54:49Z</time>
      </trkpt>
      <trkpt lat="48.6351540" lon="14.1725280">
        <ele>741.0</ele>
        <time>2019-08-07T09:54:50Z</time>
      </trkpt>
      <trkpt lat="48.6351120" lon="14.1725300">
        <ele>741.0</ele>
        <time>2019-08-07T09:54:51Z</time>
      </trkpt>
      <trkpt lat="48.6350720" lon="14.1725310">
        <ele>741.2</ele>
        <time>2019-08-07T09:54:52Z</time>
      </trkpt>
      <trkpt lat="48.6350350" lon="14.1725280">
        <ele>741.2</ele>
        <time>2019-08-07T09:54:53Z</time>
      </trkpt>
      <trkpt lat="48.6349960" lon="14.1725270">
        <ele>741.4</ele>
        <time>2019-08-07T09:54:54Z</time>
      </trkpt>
      <trkpt lat="48.6349550" lon="14.1725260">
        <ele>741.4</ele>
        <time>2019-08-07T09:54:55Z</time>
      </trkpt>
      <trkpt lat="48.6349140" lon="14.1725190">
        <ele>741.6</ele>
        <time>2019-08-07T09:54:56Z</time>
      </trkpt>
      <trkpt lat="48.6348760" lon="14.1725140">
        <ele>741.8</ele>
        <time>2019-08-07T09:54:57Z</time>
      </trkpt>
      <trkpt lat="48.6348370" lon="14.1725090">
        <ele>741.8</ele>
        <time>2019-08-07T09:54:58Z</time>
      </trkpt>
      <trkpt lat="48.6347980" lon="14.1725020">
        <ele>741.8</ele>
        <time>2019-08-07T09:54:59Z</time>
      </trkpt>
      <trkpt lat="48.6347550" lon="14.1724940">
        <ele>742.0</ele>
        <time>2019-08-07T09:55:00Z</time>
      </trkpt>
      <trkpt lat="48.6347120" lon="14.1724820">
        <ele>742.0</ele>
        <time>2019-08-07T09:55:01Z</time>
      </trkpt>
      <trkpt lat="48.6346710" lon="14.1724670">
        <ele>742.2</ele>
        <time>2019-08-07T09:55:02Z</time>
      </trkpt>
      <trkpt lat="48.6346320" lon="14.1724520">
        <ele>742.2</ele>
        <time>2019-08-07T09:55:03Z</time>
      </trkpt>
      <trkpt lat="48.6345930" lon="14.1724380">
        <ele>742.2</ele>
        <time>2019-08-07T09:55:04Z</time>
      </trkpt>
      <trkpt lat="48.6345550" lon="14.1724220">
        <ele>742.4</ele>
        <time>2019-08-07T09:55:05Z</time>
      </trkpt>
      <trkpt lat="48.6345180" lon="14.1724050">
        <ele>742.6</ele>
        <time>2019-08-07T09:55:06Z</time>
      </trkpt>
      <trkpt lat="48.6344790" lon="14.1723840">
        <ele>742.6</ele>
        <time>2019-08-07T09:55:07Z</time>
      </trkpt>
      <trkpt lat="48.6344430" lon="14.1723630">
        <ele>742.8</ele>
        <time>2019-08-07T09:55:08Z</time>
      </trkpt>
      <trkpt lat="48.6344050" lon="14.1723410">
        <ele>742.8</ele>
        <time>2019-08-07T09:55:09Z</time>
      </trkpt>
      <trkpt lat="48.6343700" lon="14.1723160">
        <ele>743.0</ele>
        <time>2019-08-07T09:55:10Z</time>
      </trkpt>
      <trkpt lat="48.6343330" lon="14.1722920">
        <ele>743.0</ele>
        <time>2019-08-07T09:55:11Z</time>
      </trkpt>
      <trkpt lat="48.6343000" lon="14.1722660">
        <ele>743.2</ele>
        <time>2019-08-07T09:55:12Z</time>
      </trkpt>
      <trkpt lat="48.6342660" lon="14.1722330">
        <ele>743.2</ele>
        <time>2019-08-07T09:55:13Z</time>
      </trkpt>
      <trkpt lat="48.6342330" lon="14.1722020">
        <ele>743.2</ele>
        <time>2019-08-07T09:55:14Z</time>
      </trkpt>
      <trkpt lat="48.6342020" lon="14.1721710">
        <ele>743.4</ele>
        <time>2019-08-07T09:55:15Z</time>
      </trkpt>
      <trkpt lat="48.6341700" lon="14.1721370">
        <ele>743.4</ele>
        <time>2019-08-07T09:55:16Z</time>
      </trkpt>
      <trkpt lat="48.6341380" lon="14.1721030">
        <ele>743.6</ele>
        <time>2019-08-07T09:55:17Z</time>
      </trkpt>
      <trkpt lat="48.6341060" lon="14.1720660">
        <ele>743.6</ele>
        <time>2019-08-07T09:55:18Z</time>
      </trkpt>
      <trkpt lat="48.6340760" lon="14.1720310">
        <ele>743.8</ele>
        <time>2019-08-07T09:55:19Z</time>
      </trkpt>
      <trkpt lat="48.6340450" lon="14.1719960">
        <ele>743.8</ele>
        <time>2019-08-07T09:55:20Z</time>
      </trkpt>
      <trkpt lat="48.6340160" lon="14.1719580">
        <ele>743.8</ele>
        <time>2019-08-07T09:55:21Z</time>
      </trkpt>
      <trkpt lat="48.6339870" lon="14.1719170">
        <ele>743.8</ele>
        <time>2019-08-07T09:55:22Z</time>
      </trkpt>
      <trkpt lat="48.6339600" lon="14.1718730">
        <ele>743.8</ele>
        <time>2019-08-07T09:55:23Z</time>
      </trkpt>
      <trkpt lat="48.6339360" lon="14.1718320">
        <ele>743.8</ele>
        <time>2019-08-07T09:55:24Z</time>
      </trkpt>
      <trkpt lat="48.6339120" lon="14.1717890">
        <ele>743.8</ele>
        <time>2019-08-07T09:55:25Z</time>
      </trkpt>
      <trkpt lat="48.6338860" lon="14.1717400">
        <ele>743.8</ele>
        <time>2019-08-07T09:55:26Z</time>
      </trkpt>
      <trkpt lat="48.6338630" lon="14.1716920">
        <ele>743.8</ele>
        <time>2019-08-07T09:55:27Z</time>
      </trkpt>
      <trkpt lat="48.6338410" lon="14.1716430">
        <ele>743.8</ele>
        <time>2019-08-07T09:55:28Z</time>
      </trkpt>
      <trkpt lat="48.6338210" lon="14.1715930">
        <ele>743.8</ele>
        <time>2019-08-07T09:55:29Z</time>
      </trkpt>
      <trkpt lat="48.6338030" lon="14.1715400">
        <ele>743.8</ele>
        <time>2019-08-07T09:55:30Z</time>
      </trkpt>
      <trkpt lat="48.6337830" lon="14.1714840">
        <ele>743.8</ele>
        <time>2019-08-07T09:55:31Z</time>
      </trkpt>
      <trkpt lat="48.6337630" lon="14.1714290">
        <ele>743.8</ele>
        <time>2019-08-07T09:55:32Z</time>
      </trkpt>
      <trkpt lat="48.6337410" lon="14.1713720">
        <ele>743.8</ele>
        <time>2019-08-07T09:55:33Z</time>
      </trkpt>
      <trkpt lat="48.6337190" lon="14.1713200">
        <ele>743.8</ele>
        <time>2019-08-07T09:55:34Z</time>
      </trkpt>
      <trkpt lat="48.6336960" lon="14.1712620">
        <ele>743.8</ele>
        <time>2019-08-07T09:55:35Z</time>
      </trkpt>
      <trkpt lat="48.6336720" lon="14.1712080">
        <ele>743.8</ele>
        <time>2019-08-07T09:55:36Z</time>
      </trkpt>
      <trkpt lat="48.6336460" lon="14.1711490">
        <ele>743.6</ele>
        <time>2019-08-07T09:55:37Z</time>
      </trkpt>
      <trkpt lat="48.6336240" lon="14.1710970">
        <ele>743.6</ele>
        <time>2019-08-07T09:55:38Z</time>
      </trkpt>
      <trkpt lat="48.6336030" lon="14.1710430">
        <ele>743.6</ele>
        <time>2019-08-07T09:55:39Z</time>
      </trkpt>
      <trkpt lat="48.6335790" lon="14.1709890">
        <ele>743.6</ele>
        <time>2019-08-07T09:55:40Z</time>
      </trkpt>
      <trkpt lat="48.6335550" lon="14.1709360">
        <ele>743.6</ele>
        <time>2019-08-07T09:55:41Z</time>
      </trkpt>
      <trkpt lat="48.6335300" lon="14.1708840">
        <ele>743.4</ele>
        <time>2019-08-07T09:55:42Z</time>
      </trkpt>
      <trkpt lat="48.6335040" lon="14.1708330">
        <ele>743.4</ele>
        <time>2019-08-07T09:55:43Z</time>
      </trkpt>
      <trkpt lat="48.6334770" lon="14.1707830">
        <ele>743.2</ele>
        <time>2019-08-07T09:55:44Z</time>
      </trkpt>
      <trkpt lat="48.6334500" lon="14.1707310">
        <ele>743.2</ele>
        <time>2019-08-07T09:55:45Z</time>
      </trkpt>
      <trkpt lat="48.6334210" lon="14.1706790">
        <ele>743.2</ele>
        <time>2019-08-07T09:55:46Z</time>
      </trkpt>
      <trkpt lat="48.6333890" lon="14.1706290">
        <ele>743.0</ele>
        <time>2019-08-07T09:55:47Z</time>
      </trkpt>
      <trkpt lat="48.6333530" lon="14.1705820">
        <ele>742.8</ele>
        <time>2019-08-07T09:55:48Z</time>
      </trkpt>
      <trkpt lat="48.6333170" lon="14.1705300">
        <ele>742.8</ele>
        <time>2019-08-07T09:55:49Z</time>
      </trkpt>
      <trkpt lat="48.6332810" lon="14.1704730">
        <ele>742.6</ele>
        <time>2019-08-07T09:55:50Z</time>
      </trkpt>
      <trkpt lat="48.6332440" lon="14.1704190">
        <ele>742.4</ele>
        <time>2019-08-07T09:55:51Z</time>
      </trkpt>
      <trkpt lat="48.6332030" lon="14.1703650">
        <ele>742.4</ele>
        <time>2019-08-07T09:55:52Z</time>
      </trkpt>
      <trkpt lat="48.6331580" lon="14.1703130">
        <ele>742.2</ele>
        <time>2019-08-07T09:55:53Z</time>
      </trkpt>
      <trkpt lat="48.6331130" lon="14.1702670">
        <ele>742.2</ele>
        <time>2019-08-07T09:55:54Z</time>
      </trkpt>
      <trkpt lat="48.6330620" lon="14.1702200">
        <ele>742.0</ele>
        <time>2019-08-07T09:55:55Z</time>
      </trkpt>
      <trkpt lat="48.6330090" lon="14.1701800">
        <ele>741.8</ele>
        <time>2019-08-07T09:55:56Z</time>
      </trkpt>
      <trkpt lat="48.6329530" lon="14.1701500">
        <ele>741.6</ele>
        <time>2019-08-07T09:55:57Z</time>
      </trkpt>
      <trkpt lat="48.6328930" lon="14.1701260">
        <ele>741.2</ele>
        <time>2019-08-07T09:55:58Z</time>
      </trkpt>
      <trkpt lat="48.6328320" lon="14.1701030">
        <ele>741.0</ele>
        <time>2019-08-07T09:55:59Z</time>
      </trkpt>
      <trkpt lat="48.6327670" lon="14.1700830">
        <ele>740.8</ele>
        <time>2019-08-07T09:56:00Z</time>
      </trkpt>
      <trkpt lat="48.6327000" lon="14.1700710">
        <ele>740.6</ele>
        <time>2019-08-07T09:56:01Z</time>
      </trkpt>
      <trkpt lat="48.6326320" lon="14.1700630">
        <ele>740.4</ele>
        <time>2019-08-07T09:56:02Z</time>
      </trkpt>
      <trkpt lat="48.6325640" lon="14.1700590">
        <ele>740.2</ele>
        <time>2019-08-07T09:56:03Z</time>
      </trkpt>
      <trkpt lat="48.6324950" lon="14.1700550">
        <ele>740.0</ele>
        <time>2019-08-07T09:56:04Z</time>
      </trkpt>
      <trkpt lat="48.6324250" lon="14.1700520">
        <ele>739.8</ele>
        <time>2019-08-07T09:56:05Z</time>
      </trkpt>
      <trkpt lat="48.6323560" lon="14.1700500">
        <ele>739.6</ele>
        <time>2019-08-07T09:56:06Z</time>
      </trkpt>
      <trkpt lat="48.6322840" lon="14.1700500">
        <ele>739.4</ele>
        <time>2019-08-07T09:56:07Z</time>
      </trkpt>
      <trkpt lat="48.6322130" lon="14.1700510">
        <ele>739.2</ele>
        <time>2019-08-07T09:56:08Z</time>
      </trkpt>
      <trkpt lat="48.6321440" lon="14.1700560">
        <ele>739.0</ele>
        <time>2019-08-07T09:56:09Z</time>
      </trkpt>
      <trkpt lat="48.6320750" lon="14.1700620">
        <ele>738.8</ele>
        <time>2019-08-07T09:56:10Z</time>
      </trkpt>
      <trkpt lat="48.6320070" lon="14.1700690">
        <ele>738.6</ele>
        <time>2019-08-07T09:56:11Z</time>
      </trkpt>
      <trkpt lat="48.6319390" lon="14.1700750">
        <ele>738.6</ele>
        <time>2019-08-07T09:56:12Z</time>
      </trkpt>
      <trkpt lat="48.6318730" lon="14.1700790">
        <ele>738.4</ele>
        <time>2019-08-07T09:56:13Z</time>
      </trkpt>
      <trkpt lat="48.6318070" lon="14.1700820">
        <ele>738.4</ele>
        <time>2019-08-07T09:56:14Z</time>
      </trkpt>
      <trkpt lat="48.6317440" lon="14.1700820">
        <ele>738.4</ele>
        <time>2019-08-07T09:56:15Z</time>
      </trkpt>
      <trkpt lat="48.6316780" lon="14.1700810">
        <ele>738.4</ele>
        <time>2019-08-07T09:56:16Z</time>
      </trkpt>
      <trkpt lat="48.6316170" lon="14.1700790">
        <ele>738.4</ele>
        <time>2019-08-07T09:56:17Z</time>
      </trkpt>
      <trkpt lat="48.6315560" lon="14.1700870">
        <ele>738.2</ele>
        <time>2019-08-07T09:56:18Z</time>
      </trkpt>
      <trkpt lat="48.6314960" lon="14.1701170">
        <ele>738.2</ele>
        <time>2019-08-07T09:56:19Z</time>
      </trkpt>
      <trkpt lat="48.6314510" lon="14.1701690">
        <ele>738.0</ele>
        <time>2019-08-07T09:56:20Z</time>
      </trkpt>
      <trkpt lat="48.6314230" lon="14.1702430">
        <ele>737.8</ele>
        <time>2019-08-07T09:56:21Z</time>
      </trkpt>
      <trkpt lat="48.6314070" lon="14.1703240">
        <ele>737.8</ele>
        <time>2019-08-07T09:56:22Z</time>
      </trkpt>
      <trkpt lat="48.6313980" lon="14.1704060">
        <ele>737.6</ele>
        <time>2019-08-07T09:56:23Z</time>
      </trkpt>
      <trkpt lat="48.6313910" lon="14.1704890">
        <ele>737.4</ele>
        <time>2019-08-07T09:56:24Z</time>
      </trkpt>
      <trkpt lat="48.6313800" lon="14.1705720">
        <ele>737.4</ele>
        <time>2019-08-07T09:56:25Z</time>
      </trkpt>
      <trkpt lat="48.6313680" lon="14.1706560">
        <ele>737.4</ele>
        <time>2019-08-07T09:56:26Z</time>
      </trkpt>
      <trkpt lat="48.6313550" lon="14.1707380">
        <ele>737.2</ele>
        <time>2019-08-07T09:56:27Z</time>
      </trkpt>
      <trkpt lat="48.6313420" lon="14.1708180">
        <ele>737.2</ele>
        <time>2019-08-07T09:56:28Z</time>
      </trkpt>
      <trkpt lat="48.6313300" lon="14.1708990">
        <ele>737.0</ele>
        <time>2019-08-07T09:56:29Z</time>
      </trkpt>
      <trkpt lat="48.6313190" lon="14.1709780">
        <ele>737.0</ele>
        <time>2019-08-07T09:56:30Z</time>
      </trkpt>
      <trkpt lat="48.6313100" lon="14.1710600">
        <ele>737.0</ele>
        <time>2019-08-07T09:56:31Z</time>
      </trkpt>
      <trkpt lat="48.6312990" lon="14.1711390">
        <ele>736.8</ele>
        <time>2019-08-07T09:56:32Z</time>
      </trkpt>
      <trkpt lat="48.6312870" lon="14.1712160">
        <ele>736.8</ele>
        <time>2019-08-07T09:56:33Z</time>
      </trkpt>
      <trkpt lat="48.6312760" lon="14.1712950">
        <ele>736.8</ele>
        <time>2019-08-07T09:56:34Z</time>
      </trkpt>
      <trkpt lat="48.6312640" lon="14.1713730">
        <ele>736.8</ele>
        <time>2019-08-07T09:56:35Z</time>
      </trkpt>
      <trkpt lat="48.6312520" lon="14.1714440">
        <ele>736.6</ele>
        <time>2019-08-07T09:56:36Z</time>
      </trkpt>
      <trkpt lat="48.6312360" lon="14.1715040">
        <ele>736.6</ele>
        <time>2019-08-07T09:56:37Z</time>
      </trkpt>
      <trkpt lat="48.6312200" lon="14.1715530">
        <ele>736.4</ele>
        <time>2019-08-07T09:56:38Z</time>
      </trkpt>
      <trkpt lat="48.6312040" lon="14.1715970">
        <ele>736.4</ele>
        <time>2019-08-07T09:56:39Z</time>
      </trkpt>
      <trkpt lat="48.6311960" lon="14.1716430">
        <ele>736.4</ele>
        <time>2019-08-07T09:56:40Z</time>
      </trkpt>
      <trkpt lat="48.6311900" lon="14.1716910">
        <ele>736.4</ele>
        <time>2019-08-07T09:56:41Z</time>
      </trkpt>
      <trkpt lat="48.6311790" lon="14.1717390">
        <ele>736.4</ele>
        <time>2019-08-07T09:56:42Z</time>
      </trkpt>
      <trkpt lat="48.6311670" lon="14.1717890">
        <ele>736.2</ele>
        <time>2019-08-07T09:56:43Z</time>
      </trkpt>
      <trkpt lat="48.6311550" lon="14.1718370">
        <ele>736.2</ele>
        <time>2019-08-07T09:56:44Z</time>
      </trkpt>
      <trkpt lat="48.6311440" lon="14.1718840">
        <ele>736.2</ele>
        <time>2019-08-07T09:56:45Z</time>
      </trkpt>
      <trkpt lat="48.6311320" lon="14.1719300">
        <ele>736.0</ele>
        <time>2019-08-07T09:56:46Z</time>
      </trkpt>
      <trkpt lat="48.6311240" lon="14.1719770">
        <ele>736.0</ele>
        <time>2019-08-07T09:56:47Z</time>
      </trkpt>
      <trkpt lat="48.6311160" lon="14.1720240">
        <ele>736.0</ele>
        <time>2019-08-07T09:56:48Z</time>
      </trkpt>
      <trkpt lat="48.6311070" lon="14.1720680">
        <ele>736.0</ele>
        <time>2019-08-07T09:56:49Z</time>
      </trkpt>
      <trkpt lat="48.6310990" lon="14.1721110">
        <ele>736.0</ele>
        <time>2019-08-07T09:56:50Z</time>
      </trkpt>
      <trkpt lat="48.6310910" lon="14.1721510">
        <ele>736.0</ele>
        <time>2019-08-07T09:56:51Z</time>
      </trkpt>
      <trkpt lat="48.6310810" lon="14.1721850">
        <ele>736.0</ele>
        <time>2019-08-07T09:56:52Z</time>
      </trkpt>
      <trkpt lat="48.6310690" lon="14.1722210">
        <ele>736.2</ele>
        <time>2019-08-07T09:56:53Z</time>
      </trkpt>
      <trkpt lat="48.6310570" lon="14.1722560">
        <ele>736.2</ele>
        <time>2019-08-07T09:56:54Z</time>
      </trkpt>
      <trkpt lat="48.6310440" lon="14.1722950">
        <ele>736.2</ele>
        <time>2019-08-07T09:56:55Z</time>
      </trkpt>
      <trkpt lat="48.6310340" lon="14.1723350">
        <ele>736.2</ele>
        <time>2019-08-07T09:56:56Z</time>
      </trkpt>
      <trkpt lat="48.6310220" lon="14.1723790">
        <ele>736.4</ele>
        <time>2019-08-07T09:56:57Z</time>
      </trkpt>
      <trkpt lat="48.6310100" lon="14.1724230">
        <ele>736.4</ele>
        <time>2019-08-07T09:56:58Z</time>
      </trkpt>
      <trkpt lat="48.6309970" lon="14.1724690">
        <ele>736.4</ele>
        <time>2019-08-07T09:56:59Z</time>
      </trkpt>
      <trkpt lat="48.6309820" lon="14.1725140">
        <ele>736.4</ele>
        <time>2019-08-07T09:57:00Z</time>
      </trkpt>
      <trkpt lat="48.6309670" lon="14.1725620">
        <ele>736.4</ele>
        <time>2019-08-07T09:57:01Z</time>
      </trkpt>
      <trkpt lat="48.6309540" lon="14.1726100">
        <ele>736.2</ele>
        <time>2019-08-07T09:57:02Z</time>
      </trkpt>
      <trkpt lat="48.6309400" lon="14.1726610">
        <ele>736.2</ele>
        <time>2019-08-07T09:57:03Z</time>
      </trkpt>
      <trkpt lat="48.6309250" lon="14.1727110">
        <ele>736.2</ele>
        <time>2019-08-07T09:57:04Z</time>
      </trkpt>
      <trkpt lat="48.6309080" lon="14.1727630">
        <ele>736.2</ele>
        <time>2019-08-07T09:57:05Z</time>
      </trkpt>
      <trkpt lat="48.6308930" lon="14.1728160">
        <ele>736.2</ele>
        <time>2019-08-07T09:57:06Z</time>
      </trkpt>
      <trkpt lat="48.6308760" lon="14.1728700">
        <ele>736.2</ele>
        <time>2019-08-07T09:57:07Z</time>
      </trkpt>
      <trkpt lat="48.6308600" lon="14.1729220">
        <ele>736.0</ele>
        <time>2019-08-07T09:57:08Z</time>
      </trkpt>
      <trkpt lat="48.6308430" lon="14.1729750">
        <ele>736.0</ele>
        <time>2019-08-07T09:57:09Z</time>
      </trkpt>
      <trkpt lat="48.6308280" lon="14.1730290">
        <ele>736.0</ele>
        <time>2019-08-07T09:57:10Z</time>
      </trkpt>
      <trkpt lat="48.6308150" lon="14.1730810">
        <ele>736.0</ele>
        <time>2019-08-07T09:57:11Z</time>
      </trkpt>
      <trkpt lat="48.6308000" lon="14.1731320">
        <ele>736.0</ele>
        <time>2019-08-07T09:57:12Z</time>
      </trkpt>
      <trkpt lat="48.6307870" lon="14.1731820">
        <ele>736.0</ele>
        <time>2019-08-07T09:57:13Z</time>
      </trkpt>
      <trkpt lat="48.6307740" lon="14.1732300">
        <ele>736.0</ele>
        <time>2019-08-07T09:57:14Z</time>
      </trkpt>
      <trkpt lat="48.6307620" lon="14.1732800">
        <ele>736.0</ele>
        <time>2019-08-07T09:57:15Z</time>
      </trkpt>
      <trkpt lat="48.6307520" lon="14.1733330">
        <ele>736.0</ele>
        <time>2019-08-07T09:57:16Z</time>
      </trkpt>
      <trkpt lat="48.6307420" lon="14.1733870">
        <ele>735.8</ele>
        <time>2019-08-07T09:57:17Z</time>
      </trkpt>
      <trkpt lat="48.6307300" lon="14.1734470">
        <ele>735.6</ele>
        <time>2019-08-07T09:57:18Z</time>
      </trkpt>
      <trkpt lat="48.6307130" lon="14.1735120">
        <ele>735.6</ele>
        <time>2019-08-07T09:57:19Z</time>
      </trkpt>
      <trkpt lat="48.6306960" lon="14.1735790">
        <ele>735.4</ele>
        <time>2019-08-07T09:57:20Z</time>
      </trkpt>
      <trkpt lat="48.6306780" lon="14.1736440">
        <ele>735.2</ele>
        <time>2019-08-07T09:57:21Z</time>
      </trkpt>
      <trkpt lat="48.6306600" lon="14.1737090">
        <ele>735.2</ele>
        <time>2019-08-07T09:57:22Z</time>
      </trkpt>
      <trkpt lat="48.6306410" lon="14.1737730">
        <ele>735.2</ele>
        <time>2019-08-07T09:57:23Z</time>
      </trkpt>
      <trkpt lat="48.6306230" lon="14.1738320">
        <ele>735.0</ele>
        <time>2019-08-07T09:57:24Z</time>
      </trkpt>
      <trkpt lat="48.6306070" lon="14.1738910">
        <ele>735.0</ele>
        <time>2019-08-07T09:57:25Z</time>
      </trkpt>
      <trkpt lat="48.6305900" lon="14.1739480">
        <ele>735.0</ele>
        <time>2019-08-07T09:57:26Z</time>
      </trkpt>
      <trkpt lat="48.6305750" lon="14.1740010">
        <ele>735.0</ele>
        <time>2019-08-07T09:57:27Z</time>
      </trkpt>
      <trkpt lat="48.6305600" lon="14.1740520">
        <ele>734.8</ele>
        <time>2019-08-07T09:57:28Z</time>
      </trkpt>
      <trkpt lat="48.6305410" lon="14.1741020">
        <ele>735.0</ele>
        <time>2019-08-07T09:57:29Z</time>
      </trkpt>
      <trkpt lat="48.6305210" lon="14.1741460">
        <ele>735.0</ele>
        <time>2019-08-07T09:57:30Z</time>
      </trkpt>
      <trkpt lat="48.6305000" lon="14.1741800">
        <ele>735.0</ele>
        <time>2019-08-07T09:57:31Z</time>
      </trkpt>
      <trkpt lat="48.6304810" lon="14.1742140">
        <ele>735.0</ele>
        <time>2019-08-07T09:57:32Z</time>
      </trkpt>
      <trkpt lat="48.6304650" lon="14.1742440">
        <ele>735.0</ele>
        <time>2019-08-07T09:57:33Z</time>
      </trkpt>
      <trkpt lat="48.6304500" lon="14.1742780">
        <ele>735.0</ele>
        <time>2019-08-07T09:57:34Z</time>
      </trkpt>
      <trkpt lat="48.6304350" lon="14.1743200">
        <ele>735.0</ele>
        <time>2019-08-07T09:57:35Z</time>
      </trkpt>
      <trkpt lat="48.6304240" lon="14.1743640">
        <ele>735.0</ele>
        <time>2019-08-07T09:57:36Z</time>
      </trkpt>
      <trkpt lat="48.6304150" lon="14.1744090">
        <ele>735.0</ele>
        <time>2019-08-07T09:57:37Z</time>
      </trkpt>
      <trkpt lat="48.6304060" lon="14.1744560">
        <ele>735.0</ele>
        <time>2019-08-07T09:57:38Z</time>
      </trkpt>
      <trkpt lat="48.6303980" lon="14.1745060">
        <ele>735.0</ele>
        <time>2019-08-07T09:57:39Z</time>
      </trkpt>
      <trkpt lat="48.6303920" lon="14.1745580">
        <ele>735.0</ele>
        <time>2019-08-07T09:57:40Z</time>
      </trkpt>
      <trkpt lat="48.6303920" lon="14.1746090">
        <ele>735.0</ele>
        <time>2019-08-07T09:57:41Z</time>
      </trkpt>
      <trkpt lat="48.6303940" lon="14.1746560">
        <ele>735.0</ele>
        <time>2019-08-07T09:57:42Z</time>
      </trkpt>
      <trkpt lat="48.6303980" lon="14.1747100">
        <ele>735.0</ele>
        <time>2019-08-07T09:57:43Z</time>
      </trkpt>
      <trkpt lat="48.6304000" lon="14.1747640">
        <ele>735.0</ele>
        <time>2019-08-07T09:57:44Z</time>
      </trkpt>
      <trkpt lat="48.6304000" lon="14.1748180">
        <ele>734.8</ele>
        <time>2019-08-07T09:57:45Z</time>
      </trkpt>
      <trkpt lat="48.6303970" lon="14.1748750">
        <ele>734.8</ele>
        <time>2019-08-07T09:57:46Z</time>
      </trkpt>
      <trkpt lat="48.6303860" lon="14.1749300">
        <ele>734.8</ele>
        <time>2019-08-07T09:57:47Z</time>
      </trkpt>
      <trkpt lat="48.6303680" lon="14.1749860">
        <ele>734.8</ele>
        <time>2019-08-07T09:57:48Z</time>
      </trkpt>
      <trkpt lat="48.6303480" lon="14.1750440">
        <ele>734.8</ele>
        <time>2019-08-07T09:57:49Z</time>
      </trkpt>
      <trkpt lat="48.6303280" lon="14.1751020">
        <ele>734.8</ele>
        <time>2019-08-07T09:57:50Z</time>
      </trkpt>
      <trkpt lat="48.6303130" lon="14.1751620">
        <ele>734.8</ele>
        <time>2019-08-07T09:57:51Z</time>
      </trkpt>
      <trkpt lat="48.6303000" lon="14.1752190">
        <ele>734.8</ele>
        <time>2019-08-07T09:57:52Z</time>
      </trkpt>
      <trkpt lat="48.6302880" lon="14.1752710">
        <ele>734.6</ele>
        <time>2019-08-07T09:57:53Z</time>
      </trkpt>
      <trkpt lat="48.6302800" lon="14.1753220">
        <ele>734.6</ele>
        <time>2019-08-07T09:57:54Z</time>
      </trkpt>
      <trkpt lat="48.6302790" lon="14.1753760">
        <ele>734.6</ele>
        <time>2019-08-07T09:57:55Z</time>
      </trkpt>
      <trkpt lat="48.6302810" lon="14.1754370">
        <ele>734.6</ele>
        <time>2019-08-07T09:57:56Z</time>
      </trkpt>
      <trkpt lat="48.6302790" lon="14.1755010">
        <ele>734.6</ele>
        <time>2019-08-07T09:57:57Z</time>
      </trkpt>
      <trkpt lat="48.6302680" lon="14.1755690">
        <ele>734.6</ele>
        <time>2019-08-07T09:57:58Z</time>
      </trkpt>
      <trkpt lat="48.6302450" lon="14.1756300">
        <ele>734.6</ele>
        <time>2019-08-07T09:57:59Z</time>
      </trkpt>
      <trkpt lat="48.6302200" lon="14.1756840">
        <ele>734.8</ele>
        <time>2019-08-07T09:58:00Z</time>
      </trkpt>
      <trkpt lat="48.6301920" lon="14.1757340">
        <ele>734.8</ele>
        <time>2019-08-07T09:58:01Z</time>
      </trkpt>
      <trkpt lat="48.6301660" lon="14.1757840">
        <ele>735.0</ele>
        <time>2019-08-07T09:58:02Z</time>
      </trkpt>
      <trkpt lat="48.6301480" lon="14.1758380">
        <ele>735.0</ele>
        <time>2019-08-07T09:58:03Z</time>
      </trkpt>
      <trkpt lat="48.6301360" lon="14.1758920">
        <ele>735.2</ele>
        <time>2019-08-07T09:58:04Z</time>
      </trkpt>
      <trkpt lat="48.6301260" lon="14.1759450">
        <ele>735.2</ele>
        <time>2019-08-07T09:58:05Z</time>
      </trkpt>
      <trkpt lat="48.6301220" lon="14.1760000">
        <ele>735.2</ele>
        <time>2019-08-07T09:58:06Z</time>
      </trkpt>
      <trkpt lat="48.6301280" lon="14.1760590">
        <ele>735.2</ele>
        <time>2019-08-07T09:58:07Z</time>
      </trkpt>
      <trkpt lat="48.6301380" lon="14.1761210">
        <ele>735.2</ele>
        <time>2019-08-07T09:58:08Z</time>
      </trkpt>
      <trkpt lat="48.6301520" lon="14.1761950">
        <ele>735.2</ele>
        <time>2019-08-07T09:58:09Z</time>
      </trkpt>
      <trkpt lat="48.6301660" lon="14.1762660">
        <ele>735.2</ele>
        <time>2019-08-07T09:58:10Z</time>
      </trkpt>
      <trkpt lat="48.6301770" lon="14.1763380">
        <ele>735.2</ele>
        <time>2019-08-07T09:58:11Z</time>
      </trkpt>
      <trkpt lat="48.6301800" lon="14.1764150">
        <ele>735.2</ele>
        <time>2019-08-07T09:58:12Z</time>
      </trkpt>
      <trkpt lat="48.6301670" lon="14.1764880">
        <ele>735.0</ele>
        <time>2019-08-07T09:58:13Z</time>
      </trkpt>
      <trkpt lat="48.6301520" lon="14.1765690">
        <ele>735.0</ele>
        <time>2019-08-07T09:58:14Z</time>
      </trkpt>
      <trkpt lat="48.6301330" lon="14.1766560">
        <ele>735.0</ele>
        <time>2019-08-07T09:58:15Z</time>
      </trkpt>
      <trkpt lat="48.6301130" lon="14.1767400">
        <ele>735.0</ele>
        <time>2019-08-07T09:58:16Z</time>
      </trkpt>
      <trkpt lat="48.6300940" lon="14.1768230">
        <ele>734.8</ele>
        <time>2019-08-07T09:58:17Z</time>
      </trkpt>
      <trkpt lat="48.6300750" lon="14.1769080">
        <ele>734.8</ele>
        <time>2019-08-07T09:58:18Z</time>
      </trkpt>
      <trkpt lat="48.6300560" lon="14.1769920">
        <ele>734.8</ele>
        <time>2019-08-07T09:58:19Z</time>
      </trkpt>
      <trkpt lat="48.6300400" lon="14.1770760">
        <ele>734.6</ele>
        <time>2019-08-07T09:58:20Z</time>
      </trkpt>
      <trkpt lat="48.6300250" lon="14.1771640">
        <ele>734.6</ele>
        <time>2019-08-07T09:58:21Z</time>
      </trkpt>
      <trkpt lat="48.6300100" lon="14.1772520">
        <ele>734.6</ele>
        <time>2019-08-07T09:58:22Z</time>
      </trkpt>
      <trkpt lat="48.6299970" lon="14.1773380">
        <ele>734.6</ele>
        <time>2019-08-07T09:58:23Z</time>
      </trkpt>
      <trkpt lat="48.6299860" lon="14.1774210">
        <ele>734.6</ele>
        <time>2019-08-07T09:58:24Z</time>
      </trkpt>
      <trkpt lat="48.6299720" lon="14.1775100">
        <ele>734.6</ele>
        <time>2019-08-07T09:58:25Z</time>
      </trkpt>
      <trkpt lat="48.6299600" lon="14.1775950">
        <ele>734.6</ele>
        <time>2019-08-07T09:58:26Z</time>
      </trkpt>
      <trkpt lat="48.6299490" lon="14.1776820">
        <ele>734.6</ele>
        <time>2019-08-07T09:58:27Z</time>
      </trkpt>
      <trkpt lat="48.6299400" lon="14.1777660">
        <ele>734.6</ele>
        <time>2019-08-07T09:58:28Z</time>
      </trkpt>
      <trkpt lat="48.6299380" lon="14.1778510">
        <ele>734.6</ele>
        <time>2019-08-07T09:58:29Z</time>
      </trkpt>
      <trkpt lat="48.6299320" lon="14.1779340">
        <ele>734.6</ele>
        <time>2019-08-07T09:58:30Z</time>
      </trkpt>
      <trkpt lat="48.6299220" lon="14.1780120">
        <ele>734.6</ele>
        <time>2019-08-07T09:58:31Z</time>
      </trkpt>
      <trkpt lat="48.6299120" lon="14.1780930">
        <ele>734.6</ele>
        <time>2019-08-07T09:58:32Z</time>
      </trkpt>
      <trkpt lat="48.6299020" lon="14.1781800">
        <ele>734.6</ele>
        <time>2019-08-07T09:58:33Z</time>
      </trkpt>
      <trkpt lat="48.6298890" lon="14.1782670">
        <ele>734.6</ele>
        <time>2019-08-07T09:58:34Z</time>
      </trkpt>
      <trkpt lat="48.6298830" lon="14.1783550">
        <ele>734.6</ele>
        <time>2019-08-07T09:58:35Z</time>
      </trkpt>
      <trkpt lat="48.6298780" lon="14.1784390">
        <ele>734.4</ele>
        <time>2019-08-07T09:58:36Z</time>
      </trkpt>
      <trkpt lat="48.6298710" lon="14.1785290">
        <ele>734.4</ele>
        <time>2019-08-07T09:58:37Z</time>
      </trkpt>
      <trkpt lat="48.6298680" lon="14.1786150">
        <ele>734.4</ele>
        <time>2019-08-07T09:58:38Z</time>
      </trkpt>
      <trkpt lat="48.6298670" lon="14.1786940">
        <ele>734.4</ele>
        <time>2019-08-07T09:58:39Z</time>
      </trkpt>
      <trkpt lat="48.6298680" lon="14.1787830">
        <ele>734.4</ele>
        <time>2019-08-07T09:58:40Z</time>
      </trkpt>
      <trkpt lat="48.6298640" lon="14.1788790">
        <ele>734.4</ele>
        <time>2019-08-07T09:58:41Z</time>
      </trkpt>
      <trkpt lat="48.6298540" lon="14.1789720">
        <ele>734.2</ele>
        <time>2019-08-07T09:58:42Z</time>
      </trkpt>
      <trkpt lat="48.6298410" lon="14.1790640">
        <ele>734.2</ele>
        <time>2019-08-07T09:58:43Z</time>
      </trkpt>
      <trkpt lat="48.6298310" lon="14.1791590">
        <ele>734.2</ele>
        <time>2019-08-07T09:58:44Z</time>
      </trkpt>
      <trkpt lat="48.6298190" lon="14.1792560">
        <ele>734.2</ele>
        <time>2019-08-07T09:58:45Z</time>
      </trkpt>
      <trkpt lat="48.6298110" lon="14.1793440">
        <ele>734.2</ele>
        <time>2019-08-07T09:58:46Z</time>
      </trkpt>
      <trkpt lat="48.6298010" lon="14.1794330">
        <ele>734.2</ele>
        <time>2019-08-07T09:58:47Z</time>
      </trkpt>
      <trkpt lat="48.6297930" lon="14.1795170">
        <ele>734.2</ele>
        <time>2019-08-07T09:58:48Z</time>
      </trkpt>
      <trkpt lat="48.6297860" lon="14.1796060">
        <ele>734.2</ele>
        <time>2019-08-07T09:58:49Z</time>
      </trkpt>
      <trkpt lat="48.6297800" lon="14.1796980">
        <ele>734.2</ele>
        <time>2019-08-07T09:58:50Z</time>
      </trkpt>
      <trkpt lat="48.6297760" lon="14.1797950">
        <ele>734.2</ele>
        <time>2019-08-07T09:58:51Z</time>
      </trkpt>
      <trkpt lat="48.6297740" lon="14.1798870">
        <ele>734.2</ele>
        <time>2019-08-07T09:58:52Z</time>
      </trkpt>
      <trkpt lat="48.6297680" lon="14.1799760">
        <ele>734.2</ele>
        <time>2019-08-07T09:58:53Z</time>
      </trkpt>
      <trkpt lat="48.6297600" lon="14.1800660">
        <ele>734.2</ele>
        <time>2019-08-07T09:58:54Z</time>
      </trkpt>
      <trkpt lat="48.6297530" lon="14.1801650">
        <ele>734.0</ele>
        <time>2019-08-07T09:58:55Z</time>
      </trkpt>
      <trkpt lat="48.6297520" lon="14.1802610">
        <ele>734.0</ele>
        <time>2019-08-07T09:58:56Z</time>
      </trkpt>
      <trkpt lat="48.6297520" lon="14.1803580">
        <ele>734.0</ele>
        <time>2019-08-07T09:58:57Z</time>
      </trkpt>
      <trkpt lat="48.6297520" lon="14.1804530">
        <ele>734.0</ele>
        <time>2019-08-07T09:58:58Z</time>
      </trkpt>
      <trkpt lat="48.6297510" lon="14.1805500">
        <ele>734.0</ele>
        <time>2019-08-07T09:58:59Z</time>
      </trkpt>
      <trkpt lat="48.6297490" lon="14.1806470">
        <ele>733.8</ele>
        <time>2019-08-07T09:59:00Z</time>
      </trkpt>
      <trkpt lat="48.6297410" lon="14.1807420">
        <ele>733.8</ele>
        <time>2019-08-07T09:59:01Z</time>
      </trkpt>
      <trkpt lat="48.6297310" lon="14.1808380">
        <ele>733.8</ele>
        <time>2019-08-07T09:59:02Z</time>
      </trkpt>
      <trkpt lat="48.6297200" lon="14.1809340">
        <ele>733.6</ele>
        <time>2019-08-07T09:59:03Z</time>
      </trkpt>
      <trkpt lat="48.6297070" lon="14.1810250">
        <ele>733.6</ele>
        <time>2019-08-07T09:59:04Z</time>
      </trkpt>
      <trkpt lat="48.6296940" lon="14.1811150">
        <ele>733.6</ele>
        <time>2019-08-07T09:59:05Z</time>
      </trkpt>
      <trkpt lat="48.6296830" lon="14.1811980">
        <ele>733.8</ele>
        <time>2019-08-07T09:59:06Z</time>
      </trkpt>
      <trkpt lat="48.6296800" lon="14.1812790">
        <ele>733.8</ele>
        <time>2019-08-07T09:59:07Z</time>
      </trkpt>
      <trkpt lat="48.6296840" lon="14.1813610">
        <ele>733.8</ele>
        <time>2019-08-07T09:59:08Z</time>
      </trkpt>
      <trkpt lat="48.6296870" lon="14.1814440">
        <ele>734.0</ele>
        <time>2019-08-07T09:59:09Z</time>
      </trkpt>
      <trkpt lat="48.6296890" lon="14.1815270">
        <ele>734.0</ele>
        <time>2019-08-07T09:59:10Z</time>
      </trkpt>
      <trkpt lat="48.6296900" lon="14.1816110">
        <ele>734.0</ele>
        <time>2019-08-07T09:59:11Z</time>
      </trkpt>
      <trkpt lat="48.6296900" lon="14.1816910">
        <ele>734.0</ele>
        <time>2019-08-07T09:59:12Z</time>
      </trkpt>
      <trkpt lat="48.6296860" lon="14.1817730">
        <ele>734.0</ele>
        <time>2019-08-07T09:59:13Z</time>
      </trkpt>
      <trkpt lat="48.6296770" lon="14.1818520">
        <ele>734.0</ele>
        <time>2019-08-07T09:59:14Z</time>
      </trkpt>
      <trkpt lat="48.6296680" lon="14.1819260">
        <ele>734.0</ele>
        <time>2019-08-07T09:59:15Z</time>
      </trkpt>
      <trkpt lat="48.6296640" lon="14.1819980">
        <ele>734.0</ele>
        <time>2019-08-07T09:59:16Z</time>
      </trkpt>
      <trkpt lat="48.6296670" lon="14.1820720">
        <ele>734.0</ele>
        <time>2019-08-07T09:59:17Z</time>
      </trkpt>
      <trkpt lat="48.6296710" lon="14.1821460">
        <ele>733.8</ele>
        <time>2019-08-07T09:59:18Z</time>
      </trkpt>
      <trkpt lat="48.6296780" lon="14.1822240">
        <ele>733.8</ele>
        <time>2019-08-07T09:59:19Z</time>
      </trkpt>
      <trkpt lat="48.6296870" lon="14.1823010">
        <ele>733.8</ele>
        <time>2019-08-07T09:59:20Z</time>
      </trkpt>
      <trkpt lat="48.6296950" lon="14.1823850">
        <ele>733.6</ele>
        <time>2019-08-07T09:59:21Z</time>
      </trkpt>
      <trkpt lat="48.6296950" lon="14.1824660">
        <ele>733.6</ele>
        <time>2019-08-07T09:59:22Z</time>
      </trkpt>
      <trkpt lat="48.6296920" lon="14.1825440">
        <ele>733.6</ele>
        <time>2019-08-07T09:59:23Z</time>
      </trkpt>
      <trkpt lat="48.6296990" lon="14.1826220">
        <ele>733.4</ele>
        <time>2019-08-07T09:59:24Z</time>
      </trkpt>
      <trkpt lat="48.6297080" lon="14.1827100">
        <ele>733.4</ele>
        <time>2019-08-07T09:59:25Z</time>
      </trkpt>
      <trkpt lat="48.6297160" lon="14.1827980">
        <ele>733.4</ele>
        <time>2019-08-07T09:59:26Z</time>
      </trkpt>
      <trkpt lat="48.6297220" lon="14.1828800">
        <ele>733.4</ele>
        <time>2019-08-07T09:59:27Z</time>
      </trkpt>
      <trkpt lat="48.6297210" lon="14.1829610">
        <ele>733.4</ele>
        <time>2019-08-07T09:59:28Z</time>
      </trkpt>
      <trkpt lat="48.6297170" lon="14.1830490">
        <ele>733.2</ele>
        <time>2019-08-07T09:59:29Z</time>
      </trkpt>
      <trkpt lat="48.6297090" lon="14.1831410">
        <ele>733.2</ele>
        <time>2019-08-07T09:59:30Z</time>
      </trkpt>
      <trkpt lat="48.6296950" lon="14.1832320">
        <ele>733.2</ele>
        <time>2019-08-07T09:59:31Z</time>
      </trkpt>
      <trkpt lat="48.6296800" lon="14.1833200">
        <ele>733.0</ele>
        <time>2019-08-07T09:59:32Z</time>
      </trkpt>
      <trkpt lat="48.6296620" lon="14.1834050">
        <ele>733.0</ele>
        <time>2019-08-07T09:59:33Z</time>
      </trkpt>
      <trkpt lat="48.6296410" lon="14.1834870">
        <ele>733.2</ele>
        <time>2019-08-07T09:59:34Z</time>
      </trkpt>
      <trkpt lat="48.6296160" lon="14.1835600">
        <ele>733.2</ele>
        <time>2019-08-07T09:59:35Z</time>
      </trkpt>
      <trkpt lat="48.6295910" lon="14.1836310">
        <ele>733.2</ele>
        <time>2019-08-07T09:59:36Z</time>
      </trkpt>
      <trkpt lat="48.6295680" lon="14.1836980">
        <ele>733.4</ele>
        <time>2019-08-07T09:59:37Z</time>
      </trkpt>
      <trkpt lat="48.6295400" lon="14.1837610">
        <ele>733.4</ele>
        <time>2019-08-07T09:59:38Z</time>
      </trkpt>
      <trkpt lat="48.6295060" lon="14.1838190">
        <ele>733.4</ele>
        <time>2019-08-07T09:59:39Z</time>
      </trkpt>
      <trkpt lat="48.6294700" lon="14.1838640">
        <ele>733.4</ele>
        <time>2019-08-07T09:59:40Z</time>
      </trkpt>
      <trkpt lat="48.6294320" lon="14.1839070">
        <ele>733.6</ele>
        <time>2019-08-07T09:59:41Z</time>
      </trkpt>
      <trkpt lat="48.6294010" lon="14.1839590">
        <ele>733.6</ele>
        <time>2019-08-07T09:59:42Z</time>
      </trkpt>
      <trkpt lat="48.6293700" lon="14.1840090">
        <ele>733.6</ele>
        <time>2019-08-07T09:59:43Z</time>
      </trkpt>
      <trkpt lat="48.6293360" lon="14.1840670">
        <ele>733.8</ele>
        <time>2019-08-07T09:59:44Z</time>
      </trkpt>
      <trkpt lat="48.6292990" lon="14.1841240">
        <ele>733.8</ele>
        <time>2019-08-07T09:59:45Z</time>
      </trkpt>
      <trkpt lat="48.6292660" lon="14.1841860">
        <ele>733.8</ele>
        <time>2019-08-07T09:59:46Z</time>
      </trkpt>
      <trkpt lat="48.6292310" lon="14.1842460">
        <ele>733.8</ele>
        <time>2019-08-07T09:59:47Z</time>
      </trkpt>
      <trkpt lat="48.6291930" lon="14.1843090">
        <ele>733.8</ele>
        <time>2019-08-07T09:59:48Z</time>
      </trkpt>
      <trkpt lat="48.6291550" lon="14.1843700">
        <ele>733.6</ele>
        <time>2019-08-07T09:59:49Z</time>
      </trkpt>
      <trkpt lat="48.6291190" lon="14.1844300">
        <ele>733.6</ele>
        <time>2019-08-07T09:59:50Z</time>
      </trkpt>
      <trkpt lat="48.6290810" lon="14.1844940">
        <ele>733.6</ele>
        <time>2019-08-07T09:59:51Z</time>
      </trkpt>
      <trkpt lat="48.6290460" lon="14.1845570">
        <ele>733.6</ele>
        <time>2019-08-07T09:59:52Z</time>
      </trkpt>
      <trkpt lat="48.6290100" lon="14.1846160">
        <ele>733.6</ele>
        <time>2019-08-07T09:59:53Z</time>
      </trkpt>
      <trkpt lat="48.6289710" lon="14.1846690">
        <ele>733.6</ele>
        <time>2019-08-07T09:59:54Z</time>
      </trkpt>
      <trkpt lat="48.6289270" lon="14.1847180">
        <ele>733.6</ele>
        <time>2019-08-07T09:59:55Z</time>
      </trkpt>
      <trkpt lat="48.6288850" lon="14.1847570">
        <ele>733.6</ele>
        <time>2019-08-07T09:59:56Z</time>
      </trkpt>
      <trkpt lat="48.6288450" lon="14.1847840">
        <ele>733.8</ele>
        <time>2019-08-07T09:59:57Z</time>
      </trkpt>
      <trkpt lat="48.6288010" lon="14.1848030">
        <ele>733.8</ele>
        <time>2019-08-07T09:59:58Z</time>
      </trkpt>
      <trkpt lat="48.6287560" lon="14.1848280">
        <ele>733.8</ele>
        <time>2019-08-07T09:59:59Z</time>
      </trkpt>
      <trkpt lat="48.6287110" lon="14.1848540">
        <ele>734.0</ele>
        <time>2019-08-07T10:00:00Z</time>
      </trkpt>
      <trkpt lat="48.6286670" lon="14.1848720">
        <ele>734.0</ele>
        <time>2019-08-07T10:00:01Z</time>
      </trkpt>
      <trkpt lat="48.6286240" lon="14.1848930">
        <ele>734.2</ele>
        <time>2019-08-07T10:00:02Z</time>
      </trkpt>
      <trkpt lat="48.6285880" lon="14.1849160">
        <ele>734.2</ele>
        <time>2019-08-07T10:00:03Z</time>
      </trkpt>
      <trkpt lat="48.6285500" lon="14.1849240">
        <ele>734.4</ele>
        <time>2019-08-07T10:00:04Z</time>
      </trkpt>
      <trkpt lat="48.6285120" lon="14.1849360">
        <ele>734.6</ele>
        <time>2019-08-07T10:00:05Z</time>
      </trkpt>
      <trkpt lat="48.6284750" lon="14.1849490">
        <ele>734.8</ele>
        <time>2019-08-07T10:00:06Z</time>
      </trkpt>
      <trkpt lat="48.6284420" lon="14.1849690">
        <ele>735.0</ele>
        <time>2019-08-07T10:00:07Z</time>
      </trkpt>
      <trkpt lat="48.6284130" lon="14.1849940">
        <ele>735.0</ele>
        <time>2019-08-07T10:00:08Z</time>
      </trkpt>
      <trkpt lat="48.6283820" lon="14.1850230">
        <ele>735.2</ele>
        <time>2019-08-07T10:00:09Z</time>
      </trkpt>
      <trkpt lat="48.6283510" lon="14.1850570">
        <ele>735.4</ele>
        <time>2019-08-07T10:00:10Z</time>
      </trkpt>
      <trkpt lat="48.6283200" lon="14.1850920">
        <ele>735.4</ele>
        <time>2019-08-07T10:00:11Z</time>
      </trkpt>
      <trkpt lat="48.6282860" lon="14.1851280">
        <ele>735.4</ele>
        <time>2019-08-07T10:00:12Z</time>
      </trkpt>
      <trkpt lat="48.6282550" lon="14.1851640">
        <ele>735.4</ele>
        <time>2019-08-07T10:00:13Z</time>
      </trkpt>
      <trkpt lat="48.6282170" lon="14.1852010">
        <ele>735.6</ele>
        <time>2019-08-07T10:00:14Z</time>
      </trkpt>
      <trkpt lat="48.6281790" lon="14.1852370">
        <ele>735.4</ele>
        <time>2019-08-07T10:00:15Z</time>
      </trkpt>
      <trkpt lat="48.6281390" lon="14.1852700">
        <ele>735.4</ele>
        <time>2019-08-07T10:00:16Z</time>
      </trkpt>
      <trkpt lat="48.6280970" lon="14.1853020">
        <ele>735.4</ele>
        <time>2019-08-07T10:00:17Z</time>
      </trkpt>
      <trkpt lat="48.6280560" lon="14.1853330">
        <ele>735.2</ele>
        <time>2019-08-07T10:00:18Z</time>
      </trkpt>
      <trkpt lat="48.6280090" lon="14.1853700">
        <ele>735.2</ele>
        <time>2019-08-07T10:00:19Z</time>
      </trkpt>
      <trkpt lat="48.6279630" lon="14.1854110">
        <ele>735.0</ele>
        <time>2019-08-07T10:00:20Z</time>
      </trkpt>
      <trkpt lat="48.6279140" lon="14.1854580">
        <ele>734.8</ele>
        <time>2019-08-07T10:00:21Z</time>
      </trkpt>
      <trkpt lat="48.6278620" lon="14.1855080">
        <ele>734.6</ele>
        <time>2019-08-07T10:00:22Z</time>
      </trkpt>
      <trkpt lat="48.6278090" lon="14.1855590">
        <ele>734.4</ele>
        <time>2019-08-07T10:00:23Z</time>
      </trkpt>
      <trkpt lat="48.6277560" lon="14.1856090">
        <ele>734.4</ele>
        <time>2019-08-07T10:00:24Z</time>
      </trkpt>
      <trkpt lat="48.6277020" lon="14.1856590">
        <ele>734.4</ele>
        <time>2019-08-07T10:00:25Z</time>
      </trkpt>
      <trkpt lat="48.6276520" lon="14.1857080">
        <ele>734.4</ele>
        <time>2019-08-07T10:00:26Z</time>
      </trkpt>
      <trkpt lat="48.6276020" lon="14.1857560">
        <ele>734.2</ele>
        <time>2019-08-07T10:00:27Z</time>
      </trkpt>
      <trkpt lat="48.6275530" lon="14.1858010">
        <ele>734.4</ele>
        <time>2019-08-07T10:00:28Z</time>
      </trkpt>
      <trkpt lat="48.6275030" lon="14.1858430">
        <ele>734.4</ele>
        <time>2019-08-07T10:00:29Z</time>
      </trkpt>
      <trkpt lat="48.6274550" lon="14.1858830">
        <ele>734.4</ele>
        <time>2019-08-07T10:00:30Z</time>
      </trkpt>
      <trkpt lat="48.6274120" lon="14.1859260">
        <ele>734.4</ele>
        <time>2019-08-07T10:00:31Z</time>
      </trkpt>
      <trkpt lat="48.6273740" lon="14.1859750">
        <ele>734.6</ele>
        <time>2019-08-07T10:00:32Z</time>
      </trkpt>
      <trkpt lat="48.6273400" lon="14.1860340">
        <ele>734.6</ele>
        <time>2019-08-07T10:00:33Z</time>
      </trkpt>
      <trkpt lat="48.6273160" lon="14.1860960">
        <ele>734.6</ele>
        <time>2019-08-07T10:00:34Z</time>
      </trkpt>
      <trkpt lat="48.6272930" lon="14.1861610">
        <ele>734.6</ele>
        <time>2019-08-07T10:00:35Z</time>
      </trkpt>
      <trkpt lat="48.6272730" lon="14.1862250">
        <ele>734.8</ele>
        <time>2019-08-07T10:00:36Z</time>
      </trkpt>
      <trkpt lat="48.6272520" lon="14.1862930">
        <ele>734.6</ele>
        <time>2019-08-07T10:00:37Z</time>
      </trkpt>
      <trkpt lat="48.6272290" lon="14.1863610">
        <ele>734.6</ele>
        <time>2019-08-07T10:00:38Z</time>
      </trkpt>
      <trkpt lat="48.6272020" lon="14.1864290">
        <ele>734.6</ele>
        <time>2019-08-07T10:00:39Z</time>
      </trkpt>
      <trkpt lat="48.6271740" lon="14.1864950">
        <ele>734.6</ele>
        <time>2019-08-07T10:00:40Z</time>
      </trkpt>
      <trkpt lat="48.6271490" lon="14.1865640">
        <ele>734.6</ele>
        <time>2019-08-07T10:00:41Z</time>
      </trkpt>
      <trkpt lat="48.6271230" lon="14.1866270">
        <ele>734.4</ele>
        <time>2019-08-07T10:00:42Z</time>
      </trkpt>
      <trkpt lat="48.6270950" lon="14.1866870">
        <ele>734.4</ele>
        <time>2019-08-07T10:00:43Z</time>
      </trkpt>
      <trkpt lat="48.6270580" lon="14.1867450">
        <ele>734.4</ele>
        <time>2019-08-07T10:00:44Z</time>
      </trkpt>
      <trkpt lat="48.6270270" lon="14.1868080">
        <ele>734.2</ele>
        <time>2019-08-07T10:00:45Z</time>
      </trkpt>
      <trkpt lat="48.6269970" lon="14.1868790">
        <ele>734.2</ele>
        <time>2019-08-07T10:00:46Z</time>
      </trkpt>
      <trkpt lat="48.6269670" lon="14.1869530">
        <ele>734.2</ele>
        <time>2019-08-07T10:00:47Z</time>
      </trkpt>
      <trkpt lat="48.6269380" lon="14.1870300">
        <ele>734.2</ele>
        <time>2019-08-07T10:00:48Z</time>
      </trkpt>
      <trkpt lat="48.6269070" lon="14.1871050">
        <ele>734.0</ele>
        <time>2019-08-07T10:00:49Z</time>
      </trkpt>
      <trkpt lat="48.6268810" lon="14.1871870">
        <ele>734.0</ele>
        <time>2019-08-07T10:00:50Z</time>
      </trkpt>
      <trkpt lat="48.6268530" lon="14.1872710">
        <ele>734.0</ele>
        <time>2019-08-07T10:00:51Z</time>
      </trkpt>
      <trkpt lat="48.6268240" lon="14.1873480">
        <ele>734.0</ele>
        <time>2019-08-07T10:00:52Z</time>
      </trkpt>
      <trkpt lat="48.6267930" lon="14.1874240">
        <ele>734.0</ele>
        <time>2019-08-07T10:00:53Z</time>
      </trkpt>
      <trkpt lat="48.6267650" lon="14.1874950">
        <ele>733.8</ele>
        <time>2019-08-07T10:00:54Z</time>
      </trkpt>
      <trkpt lat="48.6267330" lon="14.1875740">
        <ele>733.8</ele>
        <time>2019-08-07T10:00:55Z</time>
      </trkpt>
      <trkpt lat="48.6267030" lon="14.1876530">
        <ele>733.8</ele>
        <time>2019-08-07T10:00:56Z</time>
      </trkpt>
      <trkpt lat="48.6266710" lon="14.1877310">
        <ele>733.6</ele>
        <time>2019-08-07T10:00:57Z</time>
      </trkpt>
      <trkpt lat="48.6266370" lon="14.1878040">
        <ele>733.6</ele>
        <time>2019-08-07T10:00:58Z</time>
      </trkpt>
      <trkpt lat="48.6266060" lon="14.1878710">
        <ele>733.6</ele>
        <time>2019-08-07T10:00:59Z</time>
      </trkpt>
      <trkpt lat="48.6265760" lon="14.1879400">
        <ele>733.8</ele>
        <time>2019-08-07T10:01:00Z</time>
      </trkpt>
      <trkpt lat="48.6265530" lon="14.1880110">
        <ele>733.8</ele>
        <time>2019-08-07T10:01:01Z</time>
      </trkpt>
      <trkpt lat="48.6265320" lon="14.1880790">
        <ele>733.8</ele>
        <time>2019-08-07T10:01:02Z</time>
      </trkpt>
      <trkpt lat="48.6265110" lon="14.1881380">
        <ele>733.8</ele>
        <time>2019-08-07T10:01:03Z</time>
      </trkpt>
      <trkpt lat="48.6264900" lon="14.1881970">
        <ele>734.0</ele>
        <time>2019-08-07T10:01:04Z</time>
      </trkpt>
      <trkpt lat="48.6264660" lon="14.1882530">
        <ele>734.0</ele>
        <time>2019-08-07T10:01:05Z</time>
      </trkpt>
      <trkpt lat="48.6264390" lon="14.1883120">
        <ele>734.2</ele>
        <time>2019-08-07T10:01:06Z</time>
      </trkpt>
      <trkpt lat="48.6264130" lon="14.1883670">
        <ele>734.2</ele>
        <time>2019-08-07T10:01:07Z</time>
      </trkpt>
      <trkpt lat="48.6263860" lon="14.1884280">
        <ele>734.4</ele>
        <time>2019-08-07T10:01:08Z</time>
      </trkpt>
      <trkpt lat="48.6263700" lon="14.1884960">
        <ele>734.4</ele>
        <time>2019-08-07T10:01:09Z</time>
      </trkpt>
      <trkpt lat="48.6263590" lon="14.1885630">
        <ele>734.4</ele>
        <time>2019-08-07T10:01:10Z</time>
      </trkpt>
      <trkpt lat="48.6263470" lon="14.1886260">
        <ele>734.6</ele>
        <time>2019-08-07T10:01:11Z</time>
      </trkpt>
      <trkpt lat="48.6263370" lon="14.1886870">
        <ele>734.6</ele>
        <time>2019-08-07T10:01:12Z</time>
      </trkpt>
      <trkpt lat="48.6263250" lon="14.1887460">
        <ele>734.6</ele>
        <time>2019-08-07T10:01:13Z</time>
      </trkpt>
      <trkpt lat="48.6263090" lon="14.1888110">
        <ele>734.6</ele>
        <time>2019-08-07T10:01:14Z</time>
      </trkpt>
      <trkpt lat="48.6262940" lon="14.1888920">
        <ele>734.6</ele>
        <time>2019-08-07T10:01:15Z</time>
      </trkpt>
      <trkpt lat="48.6262850" lon="14.1889750">
        <ele>734.6</ele>
        <time>2019-08-07T10:01:16Z</time>
      </trkpt>
      <trkpt lat="48.6262730" lon="14.1890540">
        <ele>734.6</ele>
        <time>2019-08-07T10:01:17Z</time>
      </trkpt>
      <trkpt lat="48.6262560" lon="14.1891310">
        <ele>734.6</ele>
        <time>2019-08-07T10:01:18Z</time>
      </trkpt>
      <trkpt lat="48.6262370" lon="14.1892010">
        <ele>734.6</ele>
        <time>2019-08-07T10:01:19Z</time>
      </trkpt>
      <trkpt lat="48.6262160" lon="14.1892640">
        <ele>734.6</ele>
        <time>2019-08-07T10:01:20Z</time>
      </trkpt>
      <trkpt lat="48.6261960" lon="14.1893360">
        <ele>734.8</ele>
        <time>2019-08-07T10:01:21Z</time>
      </trkpt>
      <trkpt lat="48.6261760" lon="14.1894050">
        <ele>734.8</ele>
        <time>2019-08-07T10:01:22Z</time>
      </trkpt>
      <trkpt lat="48.6261560" lon="14.1894730">
        <ele>734.8</ele>
        <time>2019-08-07T10:01:23Z</time>
      </trkpt>
      <trkpt lat="48.6261390" lon="14.1895440">
        <ele>734.8</ele>
        <time>2019-08-07T10:01:24Z</time>
      </trkpt>
      <trkpt lat="48.6261160" lon="14.1896180">
        <ele>734.6</ele>
        <time>2019-08-07T10:01:25Z</time>
      </trkpt>
      <trkpt lat="48.6260980" lon="14.1896950">
        <ele>734.6</ele>
        <time>2019-08-07T10:01:26Z</time>
      </trkpt>
      <trkpt lat="48.6260770" lon="14.1897750">
        <ele>734.6</ele>
        <time>2019-08-07T10:01:27Z</time>
      </trkpt>
      <trkpt lat="48.6260540" lon="14.1898570">
        <ele>734.6</ele>
        <time>2019-08-07T10:01:28Z</time>
      </trkpt>
      <trkpt lat="48.6260270" lon="14.1899330">
        <ele>734.6</ele>
        <time>2019-08-07T10:01:29Z</time>
      </trkpt>
      <trkpt lat="48.6259980" lon="14.1900090">
        <ele>734.6</ele>
        <time>2019-08-07T10:01:30Z</time>
      </trkpt>
      <trkpt lat="48.6259680" lon="14.1900830">
        <ele>734.6</ele>
        <time>2019-08-07T10:01:31Z</time>
      </trkpt>
      <trkpt lat="48.6259390" lon="14.1901610">
        <ele>734.6</ele>
        <time>2019-08-07T10:01:32Z</time>
      </trkpt>
      <trkpt lat="48.6259130" lon="14.1902360">
        <ele>734.6</ele>
        <time>2019-08-07T10:01:33Z</time>
      </trkpt>
      <trkpt lat="48.6258880" lon="14.1903090">
        <ele>734.6</ele>
        <time>2019-08-07T10:01:34Z</time>
      </trkpt>
      <trkpt lat="48.6258720" lon="14.1903740">
        <ele>734.8</ele>
        <time>2019-08-07T10:01:35Z</time>
      </trkpt>
      <trkpt lat="48.6258590" lon="14.1904370">
        <ele>734.8</ele>
        <time>2019-08-07T10:01:36Z</time>
      </trkpt>
      <trkpt lat="48.6258510" lon="14.1905110">
        <ele>735.0</ele>
        <time>2019-08-07T10:01:37Z</time>
      </trkpt>
      <trkpt lat="48.6258460" lon="14.1905890">
        <ele>735.0</ele>
        <time>2019-08-07T10:01:38Z</time>
      </trkpt>
      <trkpt lat="48.6258430" lon="14.1906650">
        <ele>735.0</ele>
        <time>2019-08-07T10:01:39Z</time>
      </trkpt>
      <trkpt lat="48.6258360" lon="14.1907450">
        <ele>735.0</ele>
        <time>2019-08-07T10:01:40Z</time>
      </trkpt>
      <trkpt lat="48.6258290" lon="14.1908290">
        <ele>735.0</ele>
        <time>2019-08-07T10:01:41Z</time>
      </trkpt>
      <trkpt lat="48.6258230" lon="14.1909140">
        <ele>735.0</ele>
        <time>2019-08-07T10:01:42Z</time>
      </trkpt>
      <trkpt lat="48.6258200" lon="14.1910050">
        <ele>734.8</ele>
        <time>2019-08-07T10:01:43Z</time>
      </trkpt>
      <trkpt lat="48.6258160" lon="14.1910930">
        <ele>734.8</ele>
        <time>2019-08-07T10:01:44Z</time>
      </trkpt>
      <trkpt lat="48.6258090" lon="14.1911830">
        <ele>734.8</ele>
        <time>2019-08-07T10:01:45Z</time>
      </trkpt>
      <trkpt lat="48.6258030" lon="14.1912680">
        <ele>734.6</ele>
        <time>2019-08-07T10:01:46Z</time>
      </trkpt>
      <trkpt lat="48.6257990" lon="14.1913530">
        <ele>734.6</ele>
        <time>2019-08-07T10:01:47Z</time>
      </trkpt>
      <trkpt lat="48.6257890" lon="14.1914410">
        <ele>734.6</ele>
        <time>2019-08-07T10:01:48Z</time>
      </trkpt>
      <trkpt lat="48.6257790" lon="14.1915290">
        <ele>734.6</ele>
        <time>2019-08-07T10:01:49Z</time>
      </trkpt>
      <trkpt lat="48.6257670" lon="14.1916200">
        <ele>734.4</ele>
        <time>2019-08-07T10:01:50Z</time>
      </trkpt>
      <trkpt lat="48.6257520" lon="14.1917160">
        <ele>734.4</ele>
        <time>2019-08-07T10:01:51Z</time>
      </trkpt>
      <trkpt lat="48.6257420" lon="14.1918120">
        <ele>734.4</ele>
        <time>2019-08-07T10:01:52Z</time>
      </trkpt>
      <trkpt lat="48.6257310" lon="14.1919130">
        <ele>734.2</ele>
        <time>2019-08-07T10:01:53Z</time>
      </trkpt>
      <trkpt lat="48.6257130" lon="14.1920090">
        <ele>734.2</ele>
        <time>2019-08-07T10:01:54Z</time>
      </trkpt>
      <trkpt lat="48.6256910" lon="14.1920970">
        <ele>734.2</ele>
        <time>2019-08-07T10:01:55Z</time>
      </trkpt>
      <trkpt lat="48.6256630" lon="14.1921790">
        <ele>734.2</ele>
        <time>2019-08-07T10:01:56Z</time>
      </trkpt>
      <trkpt lat="48.6256430" lon="14.1922570">
        <ele>734.4</ele>
        <time>2019-08-07T10:01:57Z</time>
      </trkpt>
      <trkpt lat="48.6256270" lon="14.1923330">
        <ele>734.4</ele>
        <time>2019-08-07T10:01:58Z</time>
      </trkpt>
      <trkpt lat="48.6256140" lon="14.1924090">
        <ele>734.6</ele>
        <time>2019-08-07T10:01:59Z</time>
      </trkpt>
      <trkpt lat="48.6256100" lon="14.1924860">
        <ele>734.6</ele>
        <time>2019-08-07T10:02:00Z</time>
      </trkpt>
      <trkpt lat="48.6256080" lon="14.1925670">
        <ele>734.6</ele>
        <time>2019-08-07T10:02:01Z</time>
      </trkpt>
      <trkpt lat="48.6256020" lon="14.1926430">
        <ele>734.6</ele>
        <time>2019-08-07T10:02:02Z</time>
      </trkpt>
      <trkpt lat="48.6255920" lon="14.1927100">
        <ele>734.6</ele>
        <time>2019-08-07T10:02:03Z</time>
      </trkpt>
      <trkpt lat="48.6255730" lon="14.1927680">
        <ele>734.6</ele>
        <time>2019-08-07T10:02:04Z</time>
      </trkpt>
      <trkpt lat="48.6255530" lon="14.1928210">
        <ele>734.6</ele>
        <time>2019-08-07T10:02:05Z</time>
      </trkpt>
      <trkpt lat="48.6255360" lon="14.1928730">
        <ele>734.8</ele>
        <time>2019-08-07T10:02:06Z</time>
      </trkpt>
      <trkpt lat="48.6255200" lon="14.1929300">
        <ele>734.8</ele>
        <time>2019-08-07T10:02:07Z</time>
      </trkpt>
      <trkpt lat="48.6255080" lon="14.1929880">
        <ele>734.8</ele>
        <time>2019-08-07T10:02:08Z</time>
      </trkpt>
      <trkpt lat="48.6255020" lon="14.1930490">
        <ele>734.8</ele>
        <time>2019-08-07T10:02:09Z</time>
      </trkpt>
      <trkpt lat="48.6255020" lon="14.1931310">
        <ele>734.8</ele>
        <time>2019-08-07T10:02:10Z</time>
      </trkpt>
      <trkpt lat="48.6255100" lon="14.1932110">
        <ele>734.6</ele>
        <time>2019-08-07T10:02:11Z</time>
      </trkpt>
      <trkpt lat="48.6255290" lon="14.1932800">
        <ele>734.6</ele>
        <time>2019-08-07T10:02:12Z</time>
      </trkpt>
      <trkpt lat="48.6255460" lon="14.1933500">
        <ele>734.6</ele>
        <time>2019-08-07T10:02:13Z</time>
      </trkpt>
      <trkpt lat="48.6255570" lon="14.1934260">
        <ele>734.6</ele>
        <time>2019-08-07T10:02:14Z</time>
      </trkpt>
      <trkpt lat="48.6255570" lon="14.1935030">
        <ele>734.8</ele>
        <time>2019-08-07T10:02:15Z</time>
      </trkpt>
      <trkpt lat="48.6255560" lon="14.1935670">
        <ele>734.8</ele>
        <time>2019-08-07T10:02:16Z</time>
      </trkpt>
      <trkpt lat="48.6255460" lon="14.1936320">
        <ele>734.8</ele>
        <time>2019-08-07T10:02:17Z</time>
      </trkpt>
      <trkpt lat="48.6255390" lon="14.1937070">
        <ele>734.8</ele>
        <time>2019-08-07T10:02:18Z</time>
      </trkpt>
      <trkpt lat="48.6255330" lon="14.1937880">
        <ele>734.6</ele>
        <time>2019-08-07T10:02:19Z</time>
      </trkpt>
      <trkpt lat="48.6255280" lon="14.1938630">
        <ele>734.6</ele>
        <time>2019-08-07T10:02:20Z</time>
      </trkpt>
      <trkpt lat="48.6255250" lon="14.1939360">
        <ele>734.6</ele>
        <time>2019-08-07T10:02:21Z</time>
      </trkpt>
      <trkpt lat="48.6255210" lon="14.1939990">
        <ele>734.6</ele>
        <time>2019-08-07T10:02:22Z</time>
      </trkpt>
      <trkpt lat="48.6255170" lon="14.1940590">
        <ele>734.8</ele>
        <time>2019-08-07T10:02:23Z</time>
      </trkpt>
      <trkpt lat="48.6255190" lon="14.1941230">
        <ele>734.8</ele>
        <time>2019-08-07T10:02:24Z</time>
      </trkpt>
      <trkpt lat="48.6255230" lon="14.1941950">
        <ele>734.8</ele>
        <time>2019-08-07T10:02:25Z</time>
      </trkpt>
      <trkpt lat="48.6255330" lon="14.1942680">
        <ele>735.0</ele>
        <time>2019-08-07T10:02:26Z</time>
      </trkpt>
      <trkpt lat="48.6255460" lon="14.1943380">
        <ele>735.0</ele>
        <time>2019-08-07T10:02:27Z</time>
      </trkpt>
      <trkpt lat="48.6255630" lon="14.1944030">
        <ele>735.2</ele>
        <time>2019-08-07T10:02:28Z</time>
      </trkpt>
      <trkpt lat="48.6255780" lon="14.1944730">
        <ele>735.2</ele>
        <time>2019-08-07T10:02:29Z</time>
      </trkpt>
      <trkpt lat="48.6255990" lon="14.1945470">
        <ele>735.2</ele>
        <time>2019-08-07T10:02:30Z</time>
      </trkpt>
      <trkpt lat="48.6256170" lon="14.1946190">
        <ele>735.2</ele>
        <time>2019-08-07T10:02:31Z</time>
      </trkpt>
      <trkpt lat="48.6256360" lon="14.1946900">
        <ele>735.2</ele>
        <time>2019-08-07T10:02:32Z</time>
      </trkpt>
      <trkpt lat="48.6256570" lon="14.1947600">
        <ele>735.2</ele>
        <time>2019-08-07T10:02:33Z</time>
      </trkpt>
      <trkpt lat="48.6256750" lon="14.1948430">
        <ele>735.2</ele>
        <time>2019-08-07T10:02:34Z</time>
      </trkpt>
      <trkpt lat="48.6256940" lon="14.1949270">
        <ele>735.0</ele>
        <time>2019-08-07T10:02:35Z</time>
      </trkpt>
      <trkpt lat="48.6257130" lon="14.1950110">
        <ele>734.8</ele>
        <time>2019-08-07T10:02:36Z</time>
      </trkpt>
      <trkpt lat="48.6257300" lon="14.1951010">
        <ele>734.8</ele>
        <time>2019-08-07T10:02:37Z</time>
      </trkpt>
      <trkpt lat="48.6257460" lon="14.1952010">
        <ele>734.6</ele>
        <time>2019-08-07T10:02:38Z</time>
      </trkpt>
      <trkpt lat="48.6257650" lon="14.1952890">
        <ele>734.6</ele>
        <time>2019-08-07T10:02:39Z</time>
      </trkpt>
      <trkpt lat="48.6257890" lon="14.1953620">
        <ele>734.4</ele>
        <time>2019-08-07T10:02:40Z</time>
      </trkpt>
      <trkpt lat="48.6258140" lon="14.1954430">
        <ele>734.4</ele>
        <time>2019-08-07T10:02:41Z</time>
      </trkpt>
      <trkpt lat="48.6258360" lon="14.1955190">
        <ele>734.4</ele>
        <time>2019-08-07T10:02:42Z</time>
      </trkpt>
      <trkpt lat="48.6258580" lon="14.1955880">
        <ele>734.2</ele>
        <time>2019-08-07T10:02:43Z</time>
      </trkpt>
      <trkpt lat="48.6258810" lon="14.1956550">
        <ele>734.2</ele>
        <time>2019-08-07T10:02:44Z</time>
      </trkpt>
      <trkpt lat="48.6259020" lon="14.1957330">
        <ele>734.2</ele>
        <time>2019-08-07T10:02:45Z</time>
      </trkpt>
      <trkpt lat="48.6259200" lon="14.1958100">
        <ele>734.2</ele>
        <time>2019-08-07T10:02:46Z</time>
      </trkpt>
      <trkpt lat="48.6259300" lon="14.1958800">
        <ele>734.2</ele>
        <time>2019-08-07T10:02:47Z</time>
      </trkpt>
      <trkpt lat="48.6259390" lon="14.1959520">
        <ele>734.4</ele>
        <time>2019-08-07T10:02:48Z</time>
      </trkpt>
      <trkpt lat="48.6259490" lon="14.1960270">
        <ele>734.4</ele>
        <time>2019-08-07T10:02:49Z</time>
      </trkpt>
      <trkpt lat="48.6259560" lon="14.1960970">
        <ele>734.6</ele>
        <time>2019-08-07T10:02:50Z</time>
      </trkpt>
      <trkpt lat="48.6259690" lon="14.1961680">
        <ele>734.6</ele>
        <time>2019-08-07T10:02:51Z</time>
      </trkpt>
      <trkpt lat="48.6259860" lon="14.1962400">
        <ele>734.6</ele>
        <time>2019-08-07T10:02:52Z</time>
      </trkpt>
      <trkpt lat="48.6260080" lon="14.1963060">
        <ele>734.8</ele>
        <time>2019-08-07T10:02:53Z</time>
      </trkpt>
      <trkpt lat="48.6260300" lon="14.1963660">
        <ele>734.8</ele>
        <time>2019-08-07T10:02:54Z</time>
      </trkpt>
      <trkpt lat="48.6260440" lon="14.1964270">
        <ele>734.8</ele>
        <time>2019-08-07T10:02:55Z</time>
      </trkpt>
      <trkpt lat="48.6260660" lon="14.1964930">
        <ele>734.8</ele>
        <time>2019-08-07T10:02:56Z</time>
      </trkpt>
      <trkpt lat="48.6260870" lon="14.1965600">
        <ele>734.8</ele>
        <time>2019-08-07T10:02:57Z</time>
      </trkpt>
      <trkpt lat="48.6261070" lon="14.1966270">
        <ele>734.8</ele>
        <time>2019-08-07T10:02:58Z</time>
      </trkpt>
      <trkpt lat="48.6261250" lon="14.1966900">
        <ele>734.6</ele>
        <time>2019-08-07T10:02:59Z</time>
      </trkpt>
      <trkpt lat="48.6261400" lon="14.1967500">
        <ele>734.6</ele>
        <time>2019-08-07T10:03:00Z</time>
      </trkpt>
      <trkpt lat="48.6261560" lon="14.1968110">
        <ele>734.6</ele>
        <time>2019-08-07T10:03:01Z</time>
      </trkpt>
      <trkpt lat="48.6261700" lon="14.1968830">
        <ele>734.6</ele>
        <time>2019-08-07T10:03:02Z</time>
      </trkpt>
      <trkpt lat="48.6261810" lon="14.1969460">
        <ele>734.6</ele>
        <time>2019-08-07T10:03:03Z</time>
      </trkpt>
      <trkpt lat="48.6261940" lon="14.1970060">
        <ele>734.6</ele>
        <time>2019-08-07T10:03:04Z</time>
      </trkpt>
      <trkpt lat="48.6262070" lon="14.1970620">
        <ele>734.6</ele>
        <time>2019-08-07T10:03:05Z</time>
      </trkpt>
      <trkpt lat="48.6262230" lon="14.1971150">
        <ele>734.6</ele>
        <time>2019-08-07T10:03:06Z</time>
      </trkpt>
      <trkpt lat="48.6262370" lon="14.1971680">
        <ele>734.6</ele>
        <time>2019-08-07T10:03:07Z</time>
      </trkpt>
      <trkpt lat="48.6262490" lon="14.1972200">
        <ele>734.6</ele>
        <time>2019-08-07T10:03:08Z</time>
      </trkpt>
      <trkpt lat="48.6262600" lon="14.1972790">
        <ele>734.6</ele>
        <time>2019-08-07T10:03:09Z</time>
      </trkpt>
      <trkpt lat="48.6262700" lon="14.1973310">
        <ele>734.6</ele>
        <time>2019-08-07T10:03:10Z</time>
      </trkpt>
      <trkpt lat="48.6262810" lon="14.1973820">
        <ele>734.6</ele>
        <time>2019-08-07T10:03:11Z</time>
      </trkpt>
      <trkpt lat="48.6262920" lon="14.1974310">
        <ele>734.6</ele>
        <time>2019-08-07T10:03:12Z</time>
      </trkpt>
      <trkpt lat="48.6263070" lon="14.1974790">
        <ele>734.6</ele>
        <time>2019-08-07T10:03:13Z</time>
      </trkpt>
      <trkpt lat="48.6263260" lon="14.1975230">
        <ele>734.6</ele>
        <time>2019-08-07T10:03:14Z</time>
      </trkpt>
      <trkpt lat="48.6263480" lon="14.1975640">
        <ele>734.6</ele>
        <time>2019-08-07T10:03:15Z</time>
      </trkpt>
      <trkpt lat="48.6263690" lon="14.1976100">
        <ele>734.6</ele>
        <time>2019-08-07T10:03:16Z</time>
      </trkpt>
      <trkpt lat="48.6263870" lon="14.1976490">
        <ele>734.6</ele>
        <time>2019-08-07T10:03:17Z</time>
      </trkpt>
      <trkpt lat="48.6264040" lon="14.1976810">
        <ele>734.4</ele>
        <time>2019-08-07T10:03:18Z</time>
      </trkpt>
      <trkpt lat="48.6264190" lon="14.1977160">
        <ele>734.4</ele>
        <time>2019-08-07T10:03:19Z</time>
      </trkpt>
      <trkpt lat="48.6264350" lon="14.1977480">
        <ele>734.4</ele>
        <time>2019-08-07T10:03:20Z</time>
      </trkpt>
      <trkpt lat="48.6264510" lon="14.1977780">
        <ele>734.4</ele>
        <time>2019-08-07T10:03:21Z</time>
      </trkpt>
      <trkpt lat="48.6264610" lon="14.1978060">
        <ele>734.2</ele>
        <time>2019-08-07T10:03:22Z</time>
      </trkpt>
      <trkpt lat="48.6264670" lon="14.1978260">
        <ele>734.2</ele>
        <time>2019-08-07T10:03:23Z</time>
      </trkpt>
      <trkpt lat="48.6264700" lon="14.1978370">
        <ele>734.2</ele>
        <time>2019-08-07T10:03:24Z</time>
      </trkpt>
      <trkpt lat="48.6264700" lon="14.1978380">
        <ele>734.2</ele>
        <time>2019-08-07T10:03:25Z</time>
      </trkpt>
      <trkpt lat="48.6264700" lon="14.1978400">
        <ele>734.2</ele>
        <time>2019-08-07T10:03:26Z</time>
      </trkpt>
      <trkpt lat="48.6264700" lon="14.1978400">
        <ele>734.2</ele>
        <time>2019-08-07T10:03:27Z</time>
      </trkpt>
      <trkpt lat="48.6264440" lon="14.1977810">
        <ele>734.2</ele>
        <time>2019-08-07T10:03:52Z</time>
      </trkpt>
      <trkpt lat="48.6264340" lon="14.1977630">
        <ele>734.2</ele>
        <time>2019-08-07T10:03:53Z</time>
      </trkpt>
      <trkpt lat="48.6264200" lon="14.1977410">
        <ele>734.2</ele>
        <time>2019-08-07T10:03:54Z</time>
      </trkpt>
      <trkpt lat="48.6264030" lon="14.1977190">
        <ele>734.4</ele>
        <time>2019-08-07T10:03:55Z</time>
      </trkpt>
      <trkpt lat="48.6263890" lon="14.1976960">
        <ele>734.4</ele>
        <time>2019-08-07T10:03:56Z</time>
      </trkpt>
      <trkpt lat="48.6263740" lon="14.1976670">
        <ele>734.4</ele>
        <time>2019-08-07T10:03:57Z</time>
      </trkpt>
      <trkpt lat="48.6263600" lon="14.1976380">
        <ele>734.4</ele>
        <time>2019-08-07T10:03:58Z</time>
      </trkpt>
      <trkpt lat="48.6263470" lon="14.1976040">
        <ele>734.6</ele>
        <time>2019-08-07T10:03:59Z</time>
      </trkpt>
      <trkpt lat="48.6263320" lon="14.1975680">
        <ele>734.6</ele>
        <time>2019-08-07T10:04:00Z</time>
      </trkpt>
      <trkpt lat="48.6263180" lon="14.1975270">
        <ele>734.6</ele>
        <time>2019-08-07T10:04:01Z</time>
      </trkpt>
      <trkpt lat="48.6263010" lon="14.1974870">
        <ele>734.6</ele>
        <time>2019-08-07T10:04:02Z</time>
      </trkpt>
      <trkpt lat="48.6262840" lon="14.1974470">
        <ele>734.6</ele>
        <time>2019-08-07T10:04:03Z</time>
      </trkpt>
      <trkpt lat="48.6262700" lon="14.1974070">
        <ele>734.6</ele>
        <time>2019-08-07T10:04:04Z</time>
      </trkpt>
      <trkpt lat="48.6262540" lon="14.1973670">
        <ele>734.6</ele>
        <time>2019-08-07T10:04:05Z</time>
      </trkpt>
      <trkpt lat="48.6262410" lon="14.1973270">
        <ele>734.6</ele>
        <time>2019-08-07T10:04:06Z</time>
      </trkpt>
      <trkpt lat="48.6262250" lon="14.1972840">
        <ele>734.6</ele>
        <time>2019-08-07T10:04:07Z</time>
      </trkpt>
      <trkpt lat="48.6262120" lon="14.1972440">
        <ele>734.6</ele>
        <time>2019-08-07T10:04:08Z</time>
      </trkpt>
      <trkpt lat="48.6262020" lon="14.1972010">
        <ele>734.6</ele>
        <time>2019-08-07T10:04:09Z</time>
      </trkpt>
      <trkpt lat="48.6261900" lon="14.1971470">
        <ele>734.6</ele>
        <time>2019-08-07T10:04:10Z</time>
      </trkpt>
      <trkpt lat="48.6261770" lon="14.1970950">
        <ele>734.6</ele>
        <time>2019-08-07T10:04:11Z</time>
      </trkpt>
      <trkpt lat="48.6261650" lon="14.1970470">
        <ele>734.6</ele>
        <time>2019-08-07T10:04:12Z</time>
      </trkpt>
      <trkpt lat="48.6261480" lon="14.1970130">
        <ele>734.6</ele>
        <time>2019-08-07T10:04:13Z</time>
      </trkpt>
      <trkpt lat="48.6261340" lon="14.1969850">
        <ele>734.6</ele>
        <time>2019-08-07T10:04:14Z</time>
      </trkpt>
      <trkpt lat="48.6261240" lon="14.1969630">
        <ele>734.6</ele>
        <time>2019-08-07T10:04:15Z</time>
      </trkpt>
      <trkpt lat="48.6261190" lon="14.1969450">
        <ele>734.6</ele>
        <time>2019-08-07T10:04:16Z</time>
      </trkpt>
      <trkpt lat="48.6261150" lon="14.1969320">
        <ele>734.6</ele>
        <time>2019-08-07T10:04:17Z</time>
      </trkpt>
      <trkpt lat="48.6261120" lon="14.1969230">
        <ele>734.6</ele>
        <time>2019-08-07T10:04:18Z</time>
      </trkpt>
      <trkpt lat="48.6261120" lon="14.1969230">
        <ele>734.6</ele>
        <time>2019-08-07T10:04:19Z</time>
      </trkpt>
      <trkpt lat="48.6261120" lon="14.1969230">
        <ele>734.6</ele>
        <time>2019-08-07T10:04:20Z</time>
      </trkpt>
      <trkpt lat="48.6261120" lon="14.1969230">
        <ele>734.6</ele>
        <time>2019-08-07T10:04:21Z</time>
      </trkpt>
      <trkpt lat="48.6261720" lon="14.1970210">
        <ele>734.6</ele>
        <time>2019-08-07T10:55:46Z</time>
      </trkpt>
      <trkpt lat="48.6261810" lon="14.1970500">
        <ele>734.6</ele>
        <time>2019-08-07T10:55:47Z</time>
      </trkpt>
      <trkpt lat="48.6261890" lon="14.1970820">
        <ele>734.6</ele>
        <time>2019-08-07T10:55:48Z</time>
      </trkpt>
      <trkpt lat="48.6261980" lon="14.1971150">
        <ele>734.8</ele>
        <time>2019-08-07T10:55:49Z</time>
      </trkpt>
      <trkpt lat="48.6262080" lon="14.1971540">
        <ele>734.8</ele>
        <time>2019-08-07T10:55:50Z</time>
      </trkpt>
      <trkpt lat="48.6262210" lon="14.1971900">
        <ele>734.8</ele>
        <time>2019-08-07T10:55:51Z</time>
      </trkpt>
      <trkpt lat="48.6262340" lon="14.1972240">
        <ele>734.8</ele>
        <time>2019-08-07T10:55:52Z</time>
      </trkpt>
      <trkpt lat="48.6262480" lon="14.1972600">
        <ele>734.8</ele>
        <time>2019-08-07T10:55:53Z</time>
      </trkpt>
      <trkpt lat="48.6262610" lon="14.1972980">
        <ele>734.8</ele>
        <time>2019-08-07T10:55:54Z</time>
      </trkpt>
      <trkpt lat="48.6262780" lon="14.1973400">
        <ele>735.0</ele>
        <time>2019-08-07T10:55:55Z</time>
      </trkpt>
      <trkpt lat="48.6262930" lon="14.1973870">
        <ele>735.0</ele>
        <time>2019-08-07T10:55:56Z</time>
      </trkpt>
      <trkpt lat="48.6263100" lon="14.1974340">
        <ele>735.0</ele>
        <time>2019-08-07T10:55:57Z</time>
      </trkpt>
      <trkpt lat="48.6263250" lon="14.1974820">
        <ele>735.0</ele>
        <time>2019-08-07T10:55:58Z</time>
      </trkpt>
      <trkpt lat="48.6263430" lon="14.1975310">
        <ele>735.0</ele>
        <time>2019-08-07T10:55:59Z</time>
      </trkpt>
      <trkpt lat="48.6263620" lon="14.1975780">
        <ele>735.0</ele>
        <time>2019-08-07T10:56:00Z</time>
      </trkpt>
      <trkpt lat="48.6263820" lon="14.1976180">
        <ele>735.0</ele>
        <time>2019-08-07T10:56:01Z</time>
      </trkpt>
      <trkpt lat="48.6264040" lon="14.1976550">
        <ele>735.0</ele>
        <time>2019-08-07T10:56:02Z</time>
      </trkpt>
      <trkpt lat="48.6264300" lon="14.1977000">
        <ele>735.0</ele>
        <time>2019-08-07T10:56:03Z</time>
      </trkpt>
      <trkpt lat="48.6264570" lon="14.1977490">
        <ele>735.0</ele>
        <time>2019-08-07T10:56:04Z</time>
      </trkpt>
      <trkpt lat="48.6264820" lon="14.1978000">
        <ele>735.0</ele>
        <time>2019-08-07T10:56:05Z</time>
      </trkpt>
      <trkpt lat="48.6265050" lon="14.1978550">
        <ele>735.0</ele>
        <time>2019-08-07T10:56:06Z</time>
      </trkpt>
      <trkpt lat="48.6265230" lon="14.1979160">
        <ele>735.0</ele>
        <time>2019-08-07T10:56:07Z</time>
      </trkpt>
      <trkpt lat="48.6265400" lon="14.1979750">
        <ele>735.0</ele>
        <time>2019-08-07T10:56:08Z</time>
      </trkpt>
      <trkpt lat="48.6265570" lon="14.1980300">
        <ele>735.0</ele>
        <time>2019-08-07T10:56:09Z</time>
      </trkpt>
      <trkpt lat="48.6265780" lon="14.1980880">
        <ele>735.0</ele>
        <time>2019-08-07T10:56:10Z</time>
      </trkpt>
      <trkpt lat="48.6265960" lon="14.1981480">
        <ele>735.0</ele>
        <time>2019-08-07T10:56:11Z</time>
      </trkpt>
      <trkpt lat="48.6266130" lon="14.1982090">
        <ele>735.2</ele>
        <time>2019-08-07T10:56:12Z</time>
      </trkpt>
      <trkpt lat="48.6266300" lon="14.1982670">
        <ele>735.2</ele>
        <time>2019-08-07T10:56:13Z</time>
      </trkpt>
      <trkpt lat="48.6266450" lon="14.1983250">
        <ele>735.2</ele>
        <time>2019-08-07T10:56:14Z</time>
      </trkpt>
      <trkpt lat="48.6266670" lon="14.1983840">
        <ele>735.2</ele>
        <time>2019-08-07T10:56:15Z</time>
      </trkpt>
      <trkpt lat="48.6266920" lon="14.1984400">
        <ele>735.4</ele>
        <time>2019-08-07T10:56:16Z</time>
      </trkpt>
      <trkpt lat="48.6267190" lon="14.1984920">
        <ele>735.4</ele>
        <time>2019-08-07T10:56:17Z</time>
      </trkpt>
      <trkpt lat="48.6267480" lon="14.1985440">
        <ele>735.4</ele>
        <time>2019-08-07T10:56:18Z</time>
      </trkpt>
      <trkpt lat="48.6267770" lon="14.1985990">
        <ele>735.2</ele>
        <time>2019-08-07T10:56:19Z</time>
      </trkpt>
      <trkpt lat="48.6268030" lon="14.1986640">
        <ele>735.2</ele>
        <time>2019-08-07T10:56:20Z</time>
      </trkpt>
      <trkpt lat="48.6268240" lon="14.1987320">
        <ele>735.2</ele>
        <time>2019-08-07T10:56:21Z</time>
      </trkpt>
      <trkpt lat="48.6268410" lon="14.1988060">
        <ele>735.2</ele>
        <time>2019-08-07T10:56:22Z</time>
      </trkpt>
      <trkpt lat="48.6268560" lon="14.1988720">
        <ele>735.2</ele>
        <time>2019-08-07T10:56:23Z</time>
      </trkpt>
      <trkpt lat="48.6268750" lon="14.1989410">
        <ele>735.2</ele>
        <time>2019-08-07T10:56:24Z</time>
      </trkpt>
      <trkpt lat="48.6268950" lon="14.1990090">
        <ele>735.2</ele>
        <time>2019-08-07T10:56:25Z</time>
      </trkpt>
      <trkpt lat="48.6269160" lon="14.1990780">
        <ele>735.2</ele>
        <time>2019-08-07T10:56:26Z</time>
      </trkpt>
      <trkpt lat="48.6269370" lon="14.1991460">
        <ele>735.2</ele>
        <time>2019-08-07T10:56:27Z</time>
      </trkpt>
      <trkpt lat="48.6269570" lon="14.1992320">
        <ele>735.2</ele>
        <time>2019-08-07T10:56:28Z</time>
      </trkpt>
      <trkpt lat="48.6269740" lon="14.1993050">
        <ele>735.2</ele>
        <time>2019-08-07T10:56:29Z</time>
      </trkpt>
      <trkpt lat="48.6269920" lon="14.1993830">
        <ele>735.2</ele>
        <time>2019-08-07T10:56:30Z</time>
      </trkpt>
      <trkpt lat="48.6270120" lon="14.1994580">
        <ele>735.2</ele>
        <time>2019-08-07T10:56:31Z</time>
      </trkpt>
      <trkpt lat="48.6270340" lon="14.1995290">
        <ele>735.2</ele>
        <time>2019-08-07T10:56:32Z</time>
      </trkpt>
      <trkpt lat="48.6270590" lon="14.1995970">
        <ele>735.2</ele>
        <time>2019-08-07T10:56:33Z</time>
      </trkpt>
      <trkpt lat="48.6270810" lon="14.1996680">
        <ele>735.2</ele>
        <time>2019-08-07T10:56:34Z</time>
      </trkpt>
      <trkpt lat="48.6271030" lon="14.1997440">
        <ele>735.2</ele>
        <time>2019-08-07T10:56:35Z</time>
      </trkpt>
      <trkpt lat="48.6271200" lon="14.1998160">
        <ele>735.2</ele>
        <time>2019-08-07T10:56:36Z</time>
      </trkpt>
      <trkpt lat="48.6271360" lon="14.1998840">
        <ele>735.0</ele>
        <time>2019-08-07T10:56:37Z</time>
      </trkpt>
      <trkpt lat="48.6271590" lon="14.1999550">
        <ele>735.0</ele>
        <time>2019-08-07T10:56:38Z</time>
      </trkpt>
      <trkpt lat="48.6271840" lon="14.2000190">
        <ele>735.0</ele>
        <time>2019-08-07T10:56:39Z</time>
      </trkpt>
      <trkpt lat="48.6272110" lon="14.2000850">
        <ele>734.8</ele>
        <time>2019-08-07T10:56:40Z</time>
      </trkpt>
      <trkpt lat="48.6272370" lon="14.2001620">
        <ele>734.8</ele>
        <time>2019-08-07T10:56:41Z</time>
      </trkpt>
      <trkpt lat="48.6272560" lon="14.2002420">
        <ele>734.8</ele>
        <time>2019-08-07T10:56:42Z</time>
      </trkpt>
      <trkpt lat="48.6272670" lon="14.2003250">
        <ele>734.8</ele>
        <time>2019-08-07T10:56:43Z</time>
      </trkpt>
      <trkpt lat="48.6272760" lon="14.2004100">
        <ele>734.8</ele>
        <time>2019-08-07T10:56:44Z</time>
      </trkpt>
      <trkpt lat="48.6272840" lon="14.2004960">
        <ele>734.8</ele>
        <time>2019-08-07T10:56:45Z</time>
      </trkpt>
      <trkpt lat="48.6272940" lon="14.2005790">
        <ele>734.8</ele>
        <time>2019-08-07T10:56:46Z</time>
      </trkpt>
      <trkpt lat="48.6273020" lon="14.2006580">
        <ele>734.8</ele>
        <time>2019-08-07T10:56:47Z</time>
      </trkpt>
      <trkpt lat="48.6273070" lon="14.2007310">
        <ele>735.0</ele>
        <time>2019-08-07T10:56:48Z</time>
      </trkpt>
      <trkpt lat="48.6273140" lon="14.2008020">
        <ele>735.0</ele>
        <time>2019-08-07T10:56:49Z</time>
      </trkpt>
      <trkpt lat="48.6273240" lon="14.2008740">
        <ele>735.0</ele>
        <time>2019-08-07T10:56:50Z</time>
      </trkpt>
      <trkpt lat="48.6273410" lon="14.2009460">
        <ele>735.2</ele>
        <time>2019-08-07T10:56:51Z</time>
      </trkpt>
      <trkpt lat="48.6273560" lon="14.2010140">
        <ele>735.2</ele>
        <time>2019-08-07T10:56:52Z</time>
      </trkpt>
      <trkpt lat="48.6273720" lon="14.2010810">
        <ele>735.4</ele>
        <time>2019-08-07T10:56:53Z</time>
      </trkpt>
      <trkpt lat="48.6273930" lon="14.2011480">
        <ele>735.2</ele>
        <time>2019-08-07T10:56:54Z</time>
      </trkpt>
      <trkpt lat="48.6274160" lon="14.2012340">
        <ele>735.2</ele>
        <time>2019-08-07T10:56:55Z</time>
      </trkpt>
      <trkpt lat="48.6274320" lon="14.2013150">
        <ele>735.2</ele>
        <time>2019-08-07T10:56:56Z</time>
      </trkpt>
      <trkpt lat="48.6274460" lon="14.2013970">
        <ele>735.2</ele>
        <time>2019-08-07T10:56:57Z</time>
      </trkpt>
      <trkpt lat="48.6274580" lon="14.2014850">
        <ele>735.0</ele>
        <time>2019-08-07T10:56:58Z</time>
      </trkpt>
      <trkpt lat="48.6274690" lon="14.2015740">
        <ele>735.0</ele>
        <time>2019-08-07T10:56:59Z</time>
      </trkpt>
      <trkpt lat="48.6274770" lon="14.2016590">
        <ele>735.0</ele>
        <time>2019-08-07T10:57:00Z</time>
      </trkpt>
      <trkpt lat="48.6274840" lon="14.2017440">
        <ele>735.0</ele>
        <time>2019-08-07T10:57:01Z</time>
      </trkpt>
      <trkpt lat="48.6274930" lon="14.2018310">
        <ele>735.0</ele>
        <time>2019-08-07T10:57:02Z</time>
      </trkpt>
      <trkpt lat="48.6275020" lon="14.2019220">
        <ele>735.0</ele>
        <time>2019-08-07T10:57:03Z</time>
      </trkpt>
      <trkpt lat="48.6275120" lon="14.2020130">
        <ele>735.0</ele>
        <time>2019-08-07T10:57:04Z</time>
      </trkpt>
      <trkpt lat="48.6275200" lon="14.2021010">
        <ele>735.2</ele>
        <time>2019-08-07T10:57:05Z</time>
      </trkpt>
      <trkpt lat="48.6275250" lon="14.2021870">
        <ele>735.2</ele>
        <time>2019-08-07T10:57:06Z</time>
      </trkpt>
      <trkpt lat="48.6275310" lon="14.2022780">
        <ele>735.2</ele>
        <time>2019-08-07T10:57:07Z</time>
      </trkpt>
      <trkpt lat="48.6275360" lon="14.2023650">
        <ele>735.2</ele>
        <time>2019-08-07T10:57:08Z</time>
      </trkpt>
      <trkpt lat="48.6275350" lon="14.2024440">
        <ele>735.2</ele>
        <time>2019-08-07T10:57:09Z</time>
      </trkpt>
      <trkpt lat="48.6275310" lon="14.2025220">
        <ele>735.4</ele>
        <time>2019-08-07T10:57:10Z</time>
      </trkpt>
      <trkpt lat="48.6275270" lon="14.2026000">
        <ele>735.4</ele>
        <time>2019-08-07T10:57:11Z</time>
      </trkpt>
      <trkpt lat="48.6275290" lon="14.2026760">
        <ele>735.4</ele>
        <time>2019-08-07T10:57:12Z</time>
      </trkpt>
      <trkpt lat="48.6275320" lon="14.2027520">
        <ele>735.4</ele>
        <time>2019-08-07T10:57:13Z</time>
      </trkpt>
      <trkpt lat="48.6275330" lon="14.2028320">
        <ele>735.6</ele>
        <time>2019-08-07T10:57:14Z</time>
      </trkpt>
      <trkpt lat="48.6275330" lon="14.2029090">
        <ele>735.6</ele>
        <time>2019-08-07T10:57:15Z</time>
      </trkpt>
      <trkpt lat="48.6275350" lon="14.2029870">
        <ele>735.6</ele>
        <time>2019-08-07T10:57:16Z</time>
      </trkpt>
      <trkpt lat="48.6275380" lon="14.2030650">
        <ele>735.6</ele>
        <time>2019-08-07T10:57:17Z</time>
      </trkpt>
      <trkpt lat="48.6275380" lon="14.2031430">
        <ele>735.6</ele>
        <time>2019-08-07T10:57:18Z</time>
      </trkpt>
      <trkpt lat="48.6275350" lon="14.2032050">
        <ele>735.4</ele>
        <time>2019-08-07T10:57:19Z</time>
      </trkpt>
      <trkpt lat="48.6275290" lon="14.2032910">
        <ele>735.4</ele>
        <time>2019-08-07T10:57:20Z</time>
      </trkpt>
      <trkpt lat="48.6275230" lon="14.2033630">
        <ele>735.6</ele>
        <time>2019-08-07T10:57:21Z</time>
      </trkpt>
      <trkpt lat="48.6275160" lon="14.2034430">
        <ele>735.6</ele>
        <time>2019-08-07T10:57:22Z</time>
      </trkpt>
      <trkpt lat="48.6275100" lon="14.2035150">
        <ele>735.6</ele>
        <time>2019-08-07T10:57:23Z</time>
      </trkpt>
      <trkpt lat="48.6275050" lon="14.2035880">
        <ele>735.6</ele>
        <time>2019-08-07T10:57:24Z</time>
      </trkpt>
      <trkpt lat="48.6275020" lon="14.2036590">
        <ele>735.6</ele>
        <time>2019-08-07T10:57:25Z</time>
      </trkpt>
      <trkpt lat="48.6275000" lon="14.2037350">
        <ele>735.6</ele>
        <time>2019-08-07T10:57:26Z</time>
      </trkpt>
      <trkpt lat="48.6274980" lon="14.2038100">
        <ele>735.6</ele>
        <time>2019-08-07T10:57:27Z</time>
      </trkpt>
      <trkpt lat="48.6274910" lon="14.2038820">
        <ele>735.6</ele>
        <time>2019-08-07T10:57:28Z</time>
      </trkpt>
      <trkpt lat="48.6274830" lon="14.2039510">
        <ele>735.6</ele>
        <time>2019-08-07T10:57:29Z</time>
      </trkpt>
      <trkpt lat="48.6274770" lon="14.2040200">
        <ele>735.6</ele>
        <time>2019-08-07T10:57:30Z</time>
      </trkpt>
      <trkpt lat="48.6274790" lon="14.2040920">
        <ele>735.6</ele>
        <time>2019-08-07T10:57:31Z</time>
      </trkpt>
      <trkpt lat="48.6274840" lon="14.2041640">
        <ele>735.6</ele>
        <time>2019-08-07T10:57:32Z</time>
      </trkpt>
      <trkpt lat="48.6274860" lon="14.2042500">
        <ele>735.6</ele>
        <time>2019-08-07T10:57:33Z</time>
      </trkpt>
      <trkpt lat="48.6274830" lon="14.2043290">
        <ele>735.6</ele>
        <time>2019-08-07T10:57:34Z</time>
      </trkpt>
      <trkpt lat="48.6274740" lon="14.2044130">
        <ele>735.6</ele>
        <time>2019-08-07T10:57:35Z</time>
      </trkpt>
      <trkpt lat="48.6274660" lon="14.2044970">
        <ele>735.6</ele>
        <time>2019-08-07T10:57:36Z</time>
      </trkpt>
      <trkpt lat="48.6274560" lon="14.2045770">
        <ele>735.6</ele>
        <time>2019-08-07T10:57:37Z</time>
      </trkpt>
      <trkpt lat="48.6274460" lon="14.2046610">
        <ele>735.6</ele>
        <time>2019-08-07T10:57:38Z</time>
      </trkpt>
      <trkpt lat="48.6274360" lon="14.2047420">
        <ele>735.6</ele>
        <time>2019-08-07T10:57:39Z</time>
      </trkpt>
      <trkpt lat="48.6274260" lon="14.2048210">
        <ele>735.6</ele>
        <time>2019-08-07T10:57:40Z</time>
      </trkpt>
      <trkpt lat="48.6274190" lon="14.2048980">
        <ele>735.6</ele>
        <time>2019-08-07T10:57:41Z</time>
      </trkpt>
      <trkpt lat="48.6274130" lon="14.2049710">
        <ele>735.6</ele>
        <time>2019-08-07T10:57:42Z</time>
      </trkpt>
      <trkpt lat="48.6274050" lon="14.2050440">
        <ele>735.6</ele>
        <time>2019-08-07T10:57:43Z</time>
      </trkpt>
      <trkpt lat="48.6273990" lon="14.2051150">
        <ele>735.8</ele>
        <time>2019-08-07T10:57:44Z</time>
      </trkpt>
      <trkpt lat="48.6273930" lon="14.2051830">
        <ele>735.8</ele>
        <time>2019-08-07T10:57:45Z</time>
      </trkpt>
      <trkpt lat="48.6273900" lon="14.2052540">
        <ele>735.8</ele>
        <time>2019-08-07T10:57:46Z</time>
      </trkpt>
      <trkpt lat="48.6273900" lon="14.2053270">
        <ele>735.8</ele>
        <time>2019-08-07T10:57:47Z</time>
      </trkpt>
      <trkpt lat="48.6273860" lon="14.2054040">
        <ele>735.8</ele>
        <time>2019-08-07T10:57:48Z</time>
      </trkpt>
      <trkpt lat="48.6273760" lon="14.2054720">
        <ele>736.0</ele>
        <time>2019-08-07T10:57:49Z</time>
      </trkpt>
      <trkpt lat="48.6273660" lon="14.2055390">
        <ele>736.0</ele>
        <time>2019-08-07T10:57:50Z</time>
      </trkpt>
      <trkpt lat="48.6273560" lon="14.2056050">
        <ele>736.0</ele>
        <time>2019-08-07T10:57:51Z</time>
      </trkpt>
      <trkpt lat="48.6273480" lon="14.2056690">
        <ele>736.0</ele>
        <time>2019-08-07T10:57:52Z</time>
      </trkpt>
      <trkpt lat="48.6273440" lon="14.2057330">
        <ele>736.2</ele>
        <time>2019-08-07T10:57:53Z</time>
      </trkpt>
      <trkpt lat="48.6273490" lon="14.2057950">
        <ele>736.2</ele>
        <time>2019-08-07T10:57:54Z</time>
      </trkpt>
      <trkpt lat="48.6273570" lon="14.2058670">
        <ele>736.2</ele>
        <time>2019-08-07T10:57:55Z</time>
      </trkpt>
      <trkpt lat="48.6273660" lon="14.2059440">
        <ele>736.0</ele>
        <time>2019-08-07T10:57:56Z</time>
      </trkpt>
      <trkpt lat="48.6273740" lon="14.2060280">
        <ele>736.0</ele>
        <time>2019-08-07T10:57:57Z</time>
      </trkpt>
      <trkpt lat="48.6273770" lon="14.2061140">
        <ele>736.0</ele>
        <time>2019-08-07T10:57:58Z</time>
      </trkpt>
      <trkpt lat="48.6273820" lon="14.2061910">
        <ele>736.0</ele>
        <time>2019-08-07T10:57:59Z</time>
      </trkpt>
      <trkpt lat="48.6273900" lon="14.2062800">
        <ele>735.8</ele>
        <time>2019-08-07T10:58:00Z</time>
      </trkpt>
      <trkpt lat="48.6273970" lon="14.2063650">
        <ele>735.8</ele>
        <time>2019-08-07T10:58:01Z</time>
      </trkpt>
      <trkpt lat="48.6274040" lon="14.2064610">
        <ele>735.8</ele>
        <time>2019-08-07T10:58:02Z</time>
      </trkpt>
      <trkpt lat="48.6274120" lon="14.2065550">
        <ele>735.6</ele>
        <time>2019-08-07T10:58:03Z</time>
      </trkpt>
      <trkpt lat="48.6274200" lon="14.2066500">
        <ele>735.6</ele>
        <time>2019-08-07T10:58:04Z</time>
      </trkpt>
      <trkpt lat="48.6274210" lon="14.2067500">
        <ele>735.4</ele>
        <time>2019-08-07T10:58:05Z</time>
      </trkpt>
      <trkpt lat="48.6274140" lon="14.2068410">
        <ele>735.4</ele>
        <time>2019-08-07T10:58:06Z</time>
      </trkpt>
      <trkpt lat="48.6273980" lon="14.2069250">
        <ele>735.4</ele>
        <time>2019-08-07T10:58:07Z</time>
      </trkpt>
      <trkpt lat="48.6273720" lon="14.2069930">
        <ele>735.6</ele>
        <time>2019-08-07T10:58:08Z</time>
      </trkpt>
      <trkpt lat="48.6273440" lon="14.2070460">
        <ele>735.6</ele>
        <time>2019-08-07T10:58:09Z</time>
      </trkpt>
      <trkpt lat="48.6273130" lon="14.2071050">
        <ele>735.8</ele>
        <time>2019-08-07T10:58:10Z</time>
      </trkpt>
      <trkpt lat="48.6272920" lon="14.2071630">
        <ele>735.8</ele>
        <time>2019-08-07T10:58:11Z</time>
      </trkpt>
      <trkpt lat="48.6272760" lon="14.2072180">
        <ele>736.0</ele>
        <time>2019-08-07T10:58:12Z</time>
      </trkpt>
      <trkpt lat="48.6272680" lon="14.2072780">
        <ele>736.0</ele>
        <time>2019-08-07T10:58:13Z</time>
      </trkpt>
      <trkpt lat="48.6272610" lon="14.2073460">
        <ele>736.2</ele>
        <time>2019-08-07T10:58:14Z</time>
      </trkpt>
      <trkpt lat="48.6272580" lon="14.2074120">
        <ele>736.2</ele>
        <time>2019-08-07T10:58:15Z</time>
      </trkpt>
      <trkpt lat="48.6272580" lon="14.2074790">
        <ele>736.2</ele>
        <time>2019-08-07T10:58:16Z</time>
      </trkpt>
      <trkpt lat="48.6272570" lon="14.2075580">
        <ele>736.2</ele>
        <time>2019-08-07T10:58:17Z</time>
      </trkpt>
      <trkpt lat="48.6272580" lon="14.2076310">
        <ele>736.2</ele>
        <time>2019-08-07T10:58:18Z</time>
      </trkpt>
      <trkpt lat="48.6272600" lon="14.2077090">
        <ele>736.2</ele>
        <time>2019-08-07T10:58:19Z</time>
      </trkpt>
      <trkpt lat="48.6272600" lon="14.2077870">
        <ele>736.0</ele>
        <time>2019-08-07T10:58:20Z</time>
      </trkpt>
      <trkpt lat="48.6272560" lon="14.2078640">
        <ele>736.0</ele>
        <time>2019-08-07T10:58:21Z</time>
      </trkpt>
      <trkpt lat="48.6272510" lon="14.2079440">
        <ele>736.0</ele>
        <time>2019-08-07T10:58:22Z</time>
      </trkpt>
      <trkpt lat="48.6272500" lon="14.2080220">
        <ele>736.0</ele>
        <time>2019-08-07T10:58:23Z</time>
      </trkpt>
      <trkpt lat="48.6272460" lon="14.2081020">
        <ele>735.8</ele>
        <time>2019-08-07T10:58:24Z</time>
      </trkpt>
      <trkpt lat="48.6272400" lon="14.2081800">
        <ele>735.8</ele>
        <time>2019-08-07T10:58:25Z</time>
      </trkpt>
      <trkpt lat="48.6272350" lon="14.2082570">
        <ele>735.8</ele>
        <time>2019-08-07T10:58:26Z</time>
      </trkpt>
      <trkpt lat="48.6272310" lon="14.2083320">
        <ele>735.8</ele>
        <time>2019-08-07T10:58:27Z</time>
      </trkpt>
      <trkpt lat="48.6272190" lon="14.2084090">
        <ele>735.8</ele>
        <time>2019-08-07T10:58:28Z</time>
      </trkpt>
      <trkpt lat="48.6272050" lon="14.2084850">
        <ele>735.8</ele>
        <time>2019-08-07T10:58:29Z</time>
      </trkpt>
      <trkpt lat="48.6271900" lon="14.2085570">
        <ele>735.8</ele>
        <time>2019-08-07T10:58:30Z</time>
      </trkpt>
      <trkpt lat="48.6271720" lon="14.2086280">
        <ele>735.8</ele>
        <time>2019-08-07T10:58:31Z</time>
      </trkpt>
      <trkpt lat="48.6271570" lon="14.2087030">
        <ele>735.6</ele>
        <time>2019-08-07T10:58:32Z</time>
      </trkpt>
      <trkpt lat="48.6271440" lon="14.2087790">
        <ele>735.6</ele>
        <time>2019-08-07T10:58:33Z</time>
      </trkpt>
      <trkpt lat="48.6271290" lon="14.2088530">
        <ele>735.6</ele>
        <time>2019-08-07T10:58:34Z</time>
      </trkpt>
      <trkpt lat="48.6271140" lon="14.2089260">
        <ele>735.6</ele>
        <time>2019-08-07T10:58:35Z</time>
      </trkpt>
      <trkpt lat="48.6270950" lon="14.2090020">
        <ele>735.6</ele>
        <time>2019-08-07T10:58:36Z</time>
      </trkpt>
      <trkpt lat="48.6270800" lon="14.2090730">
        <ele>735.6</ele>
        <time>2019-08-07T10:58:37Z</time>
      </trkpt>
      <trkpt lat="48.6270650" lon="14.2091440">
        <ele>735.6</ele>
        <time>2019-08-07T10:58:38Z</time>
      </trkpt>
      <trkpt lat="48.6270510" lon="14.2092150">
        <ele>735.6</ele>
        <time>2019-08-07T10:58:39Z</time>
      </trkpt>
      <trkpt lat="48.6270370" lon="14.2092820">
        <ele>735.6</ele>
        <time>2019-08-07T10:58:40Z</time>
      </trkpt>
      <trkpt lat="48.6270240" lon="14.2093490">
        <ele>735.6</ele>
        <time>2019-08-07T10:58:41Z</time>
      </trkpt>
      <trkpt lat="48.6270070" lon="14.2094210">
        <ele>735.6</ele>
        <time>2019-08-07T10:58:42Z</time>
      </trkpt>
      <trkpt lat="48.6269940" lon="14.2094930">
        <ele>735.6</ele>
        <time>2019-08-07T10:58:43Z</time>
      </trkpt>
      <trkpt lat="48.6269810" lon="14.2095650">
        <ele>735.6</ele>
        <time>2019-08-07T10:58:44Z</time>
      </trkpt>
      <trkpt lat="48.6269670" lon="14.2096350">
        <ele>735.6</ele>
        <time>2019-08-07T10:58:45Z</time>
      </trkpt>
      <trkpt lat="48.6269540" lon="14.2097060">
        <ele>735.8</ele>
        <time>2019-08-07T10:58:46Z</time>
      </trkpt>
      <trkpt lat="48.6269400" lon="14.2097740">
        <ele>735.8</ele>
        <time>2019-08-07T10:58:47Z</time>
      </trkpt>
      <trkpt lat="48.6269200" lon="14.2098430">
        <ele>735.8</ele>
        <time>2019-08-07T10:58:48Z</time>
      </trkpt>
      <trkpt lat="48.6268990" lon="14.2099150">
        <ele>735.8</ele>
        <time>2019-08-07T10:58:49Z</time>
      </trkpt>
      <trkpt lat="48.6268730" lon="14.2100040">
        <ele>735.6</ele>
        <time>2019-08-07T10:58:50Z</time>
      </trkpt>
      <trkpt lat="48.6268460" lon="14.2100780">
        <ele>735.6</ele>
        <time>2019-08-07T10:58:51Z</time>
      </trkpt>
      <trkpt lat="48.6268200" lon="14.2101470">
        <ele>735.6</ele>
        <time>2019-08-07T10:58:52Z</time>
      </trkpt>
      <trkpt lat="48.6267940" lon="14.2102160">
        <ele>735.8</ele>
        <time>2019-08-07T10:58:53Z</time>
      </trkpt>
      <trkpt lat="48.6267720" lon="14.2102800">
        <ele>735.8</ele>
        <time>2019-08-07T10:58:54Z</time>
      </trkpt>
      <trkpt lat="48.6267560" lon="14.2103470">
        <ele>735.8</ele>
        <time>2019-08-07T10:58:55Z</time>
      </trkpt>
      <trkpt lat="48.6267400" lon="14.2104180">
        <ele>736.0</ele>
        <time>2019-08-07T10:58:56Z</time>
      </trkpt>
      <trkpt lat="48.6267250" lon="14.2104880">
        <ele>736.2</ele>
        <time>2019-08-07T10:58:57Z</time>
      </trkpt>
      <trkpt lat="48.6267090" lon="14.2105550">
        <ele>736.2</ele>
        <time>2019-08-07T10:58:58Z</time>
      </trkpt>
      <trkpt lat="48.6266900" lon="14.2106220">
        <ele>736.4</ele>
        <time>2019-08-07T10:58:59Z</time>
      </trkpt>
      <trkpt lat="48.6266720" lon="14.2106850">
        <ele>736.6</ele>
        <time>2019-08-07T10:59:00Z</time>
      </trkpt>
      <trkpt lat="48.6266580" lon="14.2107480">
        <ele>736.6</ele>
        <time>2019-08-07T10:59:01Z</time>
      </trkpt>
      <trkpt lat="48.6266520" lon="14.2108130">
        <ele>736.6</ele>
        <time>2019-08-07T10:59:02Z</time>
      </trkpt>
      <trkpt lat="48.6266540" lon="14.2108820">
        <ele>736.6</ele>
        <time>2019-08-07T10:59:03Z</time>
      </trkpt>
      <trkpt lat="48.6266590" lon="14.2109520">
        <ele>736.4</ele>
        <time>2019-08-07T10:59:04Z</time>
      </trkpt>
      <trkpt lat="48.6266720" lon="14.2110280">
        <ele>736.6</ele>
        <time>2019-08-07T10:59:05Z</time>
      </trkpt>
      <trkpt lat="48.6266940" lon="14.2110960">
        <ele>736.6</ele>
        <time>2019-08-07T10:59:06Z</time>
      </trkpt>
      <trkpt lat="48.6267160" lon="14.2111530">
        <ele>736.6</ele>
        <time>2019-08-07T10:59:07Z</time>
      </trkpt>
      <trkpt lat="48.6267410" lon="14.2112110">
        <ele>736.8</ele>
        <time>2019-08-07T10:59:08Z</time>
      </trkpt>
      <trkpt lat="48.6267690" lon="14.2112660">
        <ele>736.8</ele>
        <time>2019-08-07T10:59:09Z</time>
      </trkpt>
      <trkpt lat="48.6267970" lon="14.2113150">
        <ele>736.8</ele>
        <time>2019-08-07T10:59:10Z</time>
      </trkpt>
      <trkpt lat="48.6268260" lon="14.2113640">
        <ele>736.8</ele>
        <time>2019-08-07T10:59:11Z</time>
      </trkpt>
      <trkpt lat="48.6268520" lon="14.2114060">
        <ele>736.8</ele>
        <time>2019-08-07T10:59:12Z</time>
      </trkpt>
      <trkpt lat="48.6268770" lon="14.2114490">
        <ele>736.8</ele>
        <time>2019-08-07T10:59:13Z</time>
      </trkpt>
      <trkpt lat="48.6269060" lon="14.2114940">
        <ele>736.8</ele>
        <time>2019-08-07T10:59:14Z</time>
      </trkpt>
      <trkpt lat="48.6269380" lon="14.2115410">
        <ele>737.0</ele>
        <time>2019-08-07T10:59:15Z</time>
      </trkpt>
      <trkpt lat="48.6269710" lon="14.2115870">
        <ele>737.0</ele>
        <time>2019-08-07T10:59:16Z</time>
      </trkpt>
      <trkpt lat="48.6270020" lon="14.2116320">
        <ele>737.0</ele>
        <time>2019-08-07T10:59:17Z</time>
      </trkpt>
      <trkpt lat="48.6270290" lon="14.2116720">
        <ele>737.0</ele>
        <time>2019-08-07T10:59:18Z</time>
      </trkpt>
      <trkpt lat="48.6270510" lon="14.2117090">
        <ele>737.0</ele>
        <time>2019-08-07T10:59:19Z</time>
      </trkpt>
      <trkpt lat="48.6270770" lon="14.2117520">
        <ele>737.0</ele>
        <time>2019-08-07T10:59:20Z</time>
      </trkpt>
      <trkpt lat="48.6271050" lon="14.2117990">
        <ele>737.0</ele>
        <time>2019-08-07T10:59:21Z</time>
      </trkpt>
      <trkpt lat="48.6271380" lon="14.2118500">
        <ele>737.0</ele>
        <time>2019-08-07T10:59:22Z</time>
      </trkpt>
      <trkpt lat="48.6271710" lon="14.2119000">
        <ele>736.8</ele>
        <time>2019-08-07T10:59:23Z</time>
      </trkpt>
      <trkpt lat="48.6272010" lon="14.2119590">
        <ele>736.8</ele>
        <time>2019-08-07T10:59:24Z</time>
      </trkpt>
      <trkpt lat="48.6272290" lon="14.2120220">
        <ele>736.6</ele>
        <time>2019-08-07T10:59:25Z</time>
      </trkpt>
      <trkpt lat="48.6272610" lon="14.2120860">
        <ele>736.4</ele>
        <time>2019-08-07T10:59:26Z</time>
      </trkpt>
      <trkpt lat="48.6272950" lon="14.2121540">
        <ele>736.4</ele>
        <time>2019-08-07T10:59:27Z</time>
      </trkpt>
      <trkpt lat="48.6273330" lon="14.2122220">
        <ele>736.2</ele>
        <time>2019-08-07T10:59:28Z</time>
      </trkpt>
      <trkpt lat="48.6273710" lon="14.2122850">
        <ele>736.2</ele>
        <time>2019-08-07T10:59:29Z</time>
      </trkpt>
      <trkpt lat="48.6274140" lon="14.2123470">
        <ele>736.2</ele>
        <time>2019-08-07T10:59:30Z</time>
      </trkpt>
      <trkpt lat="48.6274560" lon="14.2124010">
        <ele>736.0</ele>
        <time>2019-08-07T10:59:31Z</time>
      </trkpt>
      <trkpt lat="48.6275060" lon="14.2124540">
        <ele>736.0</ele>
        <time>2019-08-07T10:59:32Z</time>
      </trkpt>
      <trkpt lat="48.6275500" lon="14.2125190">
        <ele>735.8</ele>
        <time>2019-08-07T10:59:33Z</time>
      </trkpt>
      <trkpt lat="48.6275880" lon="14.2125890">
        <ele>735.6</ele>
        <time>2019-08-07T10:59:34Z</time>
      </trkpt>
      <trkpt lat="48.6276250" lon="14.2126680">
        <ele>735.4</ele>
        <time>2019-08-07T10:59:35Z</time>
      </trkpt>
      <trkpt lat="48.6276600" lon="14.2127450">
        <ele>735.4</ele>
        <time>2019-08-07T10:59:36Z</time>
      </trkpt>
      <trkpt lat="48.6276940" lon="14.2128220">
        <ele>735.2</ele>
        <time>2019-08-07T10:59:37Z</time>
      </trkpt>
      <trkpt lat="48.6277290" lon="14.2129030">
        <ele>735.2</ele>
        <time>2019-08-07T10:59:38Z</time>
      </trkpt>
      <trkpt lat="48.6277610" lon="14.2129820">
        <ele>735.2</ele>
        <time>2019-08-07T10:59:39Z</time>
      </trkpt>
      <trkpt lat="48.6277960" lon="14.2130570">
        <ele>735.2</ele>
        <time>2019-08-07T10:59:40Z</time>
      </trkpt>
      <trkpt lat="48.6278350" lon="14.2131320">
        <ele>735.2</ele>
        <time>2019-08-07T10:59:41Z</time>
      </trkpt>
      <trkpt lat="48.6278710" lon="14.2131970">
        <ele>735.0</ele>
        <time>2019-08-07T10:59:42Z</time>
      </trkpt>
      <trkpt lat="48.6279100" lon="14.2132640">
        <ele>735.0</ele>
        <time>2019-08-07T10:59:43Z</time>
      </trkpt>
      <trkpt lat="48.6279460" lon="14.2133320">
        <ele>735.0</ele>
        <time>2019-08-07T10:59:44Z</time>
      </trkpt>
      <trkpt lat="48.6279820" lon="14.2134000">
        <ele>735.0</ele>
        <time>2019-08-07T10:59:45Z</time>
      </trkpt>
      <trkpt lat="48.6280150" lon="14.2134660">
        <ele>734.8</ele>
        <time>2019-08-07T10:59:46Z</time>
      </trkpt>
      <trkpt lat="48.6280460" lon="14.2135290">
        <ele>734.8</ele>
        <time>2019-08-07T10:59:47Z</time>
      </trkpt>
      <trkpt lat="48.6280800" lon="14.2135940">
        <ele>735.0</ele>
        <time>2019-08-07T10:59:48Z</time>
      </trkpt>
      <trkpt lat="48.6281130" lon="14.2136550">
        <ele>735.0</ele>
        <time>2019-08-07T10:59:49Z</time>
      </trkpt>
      <trkpt lat="48.6281480" lon="14.2137150">
        <ele>735.0</ele>
        <time>2019-08-07T10:59:50Z</time>
      </trkpt>
      <trkpt lat="48.6281850" lon="14.2137770">
        <ele>735.0</ele>
        <time>2019-08-07T10:59:51Z</time>
      </trkpt>
      <trkpt lat="48.6282210" lon="14.2138390">
        <ele>735.0</ele>
        <time>2019-08-07T10:59:52Z</time>
      </trkpt>
      <trkpt lat="48.6282560" lon="14.2139040">
        <ele>734.8</ele>
        <time>2019-08-07T10:59:53Z</time>
      </trkpt>
      <trkpt lat="48.6282890" lon="14.2139670">
        <ele>734.8</ele>
        <time>2019-08-07T10:59:54Z</time>
      </trkpt>
      <trkpt lat="48.6283230" lon="14.2140300">
        <ele>734.6</ele>
        <time>2019-08-07T10:59:55Z</time>
      </trkpt>
      <trkpt lat="48.6283570" lon="14.2140950">
        <ele>734.6</ele>
        <time>2019-08-07T10:59:56Z</time>
      </trkpt>
      <trkpt lat="48.6283900" lon="14.2141620">
        <ele>734.6</ele>
        <time>2019-08-07T10:59:57Z</time>
      </trkpt>
      <trkpt lat="48.6284200" lon="14.2142290">
        <ele>734.6</ele>
        <time>2019-08-07T10:59:58Z</time>
      </trkpt>
      <trkpt lat="48.6284450" lon="14.2142980">
        <ele>734.6</ele>
        <time>2019-08-07T10:59:59Z</time>
      </trkpt>
      <trkpt lat="48.6284690" lon="14.2143710">
        <ele>734.8</ele>
        <time>2019-08-07T11:00:00Z</time>
      </trkpt>
      <trkpt lat="48.6284880" lon="14.2144380">
        <ele>734.8</ele>
        <time>2019-08-07T11:00:01Z</time>
      </trkpt>
      <trkpt lat="48.6285050" lon="14.2145040">
        <ele>735.0</ele>
        <time>2019-08-07T11:00:02Z</time>
      </trkpt>
      <trkpt lat="48.6285250" lon="14.2145690">
        <ele>735.0</ele>
        <time>2019-08-07T11:00:03Z</time>
      </trkpt>
      <trkpt lat="48.6285490" lon="14.2146320">
        <ele>735.0</ele>
        <time>2019-08-07T11:00:04Z</time>
      </trkpt>
      <trkpt lat="48.6285720" lon="14.2146940">
        <ele>735.0</ele>
        <time>2019-08-07T11:00:05Z</time>
      </trkpt>
      <trkpt lat="48.6285920" lon="14.2147600">
        <ele>735.0</ele>
        <time>2019-08-07T11:00:06Z</time>
      </trkpt>
      <trkpt lat="48.6286150" lon="14.2148300">
        <ele>735.0</ele>
        <time>2019-08-07T11:00:07Z</time>
      </trkpt>
      <trkpt lat="48.6286390" lon="14.2148950">
        <ele>735.0</ele>
        <time>2019-08-07T11:00:08Z</time>
      </trkpt>
      <trkpt lat="48.6286660" lon="14.2149600">
        <ele>734.8</ele>
        <time>2019-08-07T11:00:09Z</time>
      </trkpt>
      <trkpt lat="48.6286920" lon="14.2150270">
        <ele>734.8</ele>
        <time>2019-08-07T11:00:10Z</time>
      </trkpt>
      <trkpt lat="48.6287150" lon="14.2150940">
        <ele>734.8</ele>
        <time>2019-08-07T11:00:11Z</time>
      </trkpt>
      <trkpt lat="48.6287350" lon="14.2151650">
        <ele>734.8</ele>
        <time>2019-08-07T11:00:12Z</time>
      </trkpt>
      <trkpt lat="48.6287550" lon="14.2152340">
        <ele>734.8</ele>
        <time>2019-08-07T11:00:13Z</time>
      </trkpt>
      <trkpt lat="48.6287750" lon="14.2153030">
        <ele>734.8</ele>
        <time>2019-08-07T11:00:14Z</time>
      </trkpt>
      <trkpt lat="48.6287980" lon="14.2153690">
        <ele>734.8</ele>
        <time>2019-08-07T11:00:15Z</time>
      </trkpt>
      <trkpt lat="48.6288260" lon="14.2154350">
        <ele>735.0</ele>
        <time>2019-08-07T11:00:16Z</time>
      </trkpt>
      <trkpt lat="48.6288530" lon="14.2154920">
        <ele>735.0</ele>
        <time>2019-08-07T11:00:17Z</time>
      </trkpt>
      <trkpt lat="48.6288820" lon="14.2155510">
        <ele>735.0</ele>
        <time>2019-08-07T11:00:18Z</time>
      </trkpt>
      <trkpt lat="48.6289080" lon="14.2156050">
        <ele>735.0</ele>
        <time>2019-08-07T11:00:19Z</time>
      </trkpt>
      <trkpt lat="48.6289390" lon="14.2156620">
        <ele>735.0</ele>
        <time>2019-08-07T11:00:20Z</time>
      </trkpt>
      <trkpt lat="48.6289640" lon="14.2157190">
        <ele>735.0</ele>
        <time>2019-08-07T11:00:21Z</time>
      </trkpt>
      <trkpt lat="48.6289930" lon="14.2157720">
        <ele>735.0</ele>
        <time>2019-08-07T11:00:22Z</time>
      </trkpt>
      <trkpt lat="48.6290260" lon="14.2158300">
        <ele>735.0</ele>
        <time>2019-08-07T11:00:23Z</time>
      </trkpt>
      <trkpt lat="48.6290580" lon="14.2158850">
        <ele>735.0</ele>
        <time>2019-08-07T11:00:24Z</time>
      </trkpt>
      <trkpt lat="48.6290870" lon="14.2159370">
        <ele>735.2</ele>
        <time>2019-08-07T11:00:25Z</time>
      </trkpt>
      <trkpt lat="48.6291110" lon="14.2159810">
        <ele>735.2</ele>
        <time>2019-08-07T11:00:26Z</time>
      </trkpt>
      <trkpt lat="48.6291420" lon="14.2160350">
        <ele>735.2</ele>
        <time>2019-08-07T11:00:27Z</time>
      </trkpt>
      <trkpt lat="48.6291700" lon="14.2160850">
        <ele>735.2</ele>
        <time>2019-08-07T11:00:28Z</time>
      </trkpt>
      <trkpt lat="48.6292030" lon="14.2161410">
        <ele>735.0</ele>
        <time>2019-08-07T11:00:29Z</time>
      </trkpt>
      <trkpt lat="48.6292400" lon="14.2161960">
        <ele>735.0</ele>
        <time>2019-08-07T11:00:30Z</time>
      </trkpt>
      <trkpt lat="48.6292730" lon="14.2162580">
        <ele>735.0</ele>
        <time>2019-08-07T11:00:31Z</time>
      </trkpt>
      <trkpt lat="48.6293110" lon="14.2163190">
        <ele>734.8</ele>
        <time>2019-08-07T11:00:32Z</time>
      </trkpt>
      <trkpt lat="48.6293520" lon="14.2163870">
        <ele>734.8</ele>
        <time>2019-08-07T11:00:33Z</time>
      </trkpt>
      <trkpt lat="48.6293910" lon="14.2164540">
        <ele>734.8</ele>
        <time>2019-08-07T11:00:34Z</time>
      </trkpt>
      <trkpt lat="48.6294240" lon="14.2165190">
        <ele>735.0</ele>
        <time>2019-08-07T11:00:35Z</time>
      </trkpt>
      <trkpt lat="48.6294520" lon="14.2165770">
        <ele>735.0</ele>
        <time>2019-08-07T11:00:36Z</time>
      </trkpt>
      <trkpt lat="48.6294810" lon="14.2166290">
        <ele>735.2</ele>
        <time>2019-08-07T11:00:37Z</time>
      </trkpt>
      <trkpt lat="48.6295100" lon="14.2166760">
        <ele>735.4</ele>
        <time>2019-08-07T11:00:38Z</time>
      </trkpt>
      <trkpt lat="48.6295410" lon="14.2167190">
        <ele>735.4</ele>
        <time>2019-08-07T11:00:39Z</time>
      </trkpt>
      <trkpt lat="48.6295730" lon="14.2167640">
        <ele>735.4</ele>
        <time>2019-08-07T11:00:40Z</time>
      </trkpt>
      <trkpt lat="48.6296060" lon="14.2168090">
        <ele>735.4</ele>
        <time>2019-08-07T11:00:41Z</time>
      </trkpt>
      <trkpt lat="48.6296400" lon="14.2168580">
        <ele>735.4</ele>
        <time>2019-08-07T11:00:42Z</time>
      </trkpt>
      <trkpt lat="48.6296770" lon="14.2169070">
        <ele>735.4</ele>
        <time>2019-08-07T11:00:43Z</time>
      </trkpt>
      <trkpt lat="48.6297140" lon="14.2169610">
        <ele>735.4</ele>
        <time>2019-08-07T11:00:44Z</time>
      </trkpt>
      <trkpt lat="48.6297480" lon="14.2170160">
        <ele>735.4</ele>
        <time>2019-08-07T11:00:45Z</time>
      </trkpt>
      <trkpt lat="48.6297790" lon="14.2170700">
        <ele>735.4</ele>
        <time>2019-08-07T11:00:46Z</time>
      </trkpt>
      <trkpt lat="48.6298120" lon="14.2171220">
        <ele>735.4</ele>
        <time>2019-08-07T11:00:47Z</time>
      </trkpt>
      <trkpt lat="48.6298450" lon="14.2171760">
        <ele>735.6</ele>
        <time>2019-08-07T11:00:48Z</time>
      </trkpt>
      <trkpt lat="48.6298740" lon="14.2172310">
        <ele>735.6</ele>
        <time>2019-08-07T11:00:49Z</time>
      </trkpt>
      <trkpt lat="48.6299010" lon="14.2172910">
        <ele>735.6</ele>
        <time>2019-08-07T11:00:50Z</time>
      </trkpt>
      <trkpt lat="48.6299300" lon="14.2173450">
        <ele>735.6</ele>
        <time>2019-08-07T11:00:51Z</time>
      </trkpt>
      <trkpt lat="48.6299600" lon="14.2173980">
        <ele>735.8</ele>
        <time>2019-08-07T11:00:52Z</time>
      </trkpt>
      <trkpt lat="48.6299910" lon="14.2174540">
        <ele>735.8</ele>
        <time>2019-08-07T11:00:53Z</time>
      </trkpt>
      <trkpt lat="48.6300220" lon="14.2175110">
        <ele>735.8</ele>
        <time>2019-08-07T11:00:54Z</time>
      </trkpt>
      <trkpt lat="48.6300540" lon="14.2175740">
        <ele>735.8</ele>
        <time>2019-08-07T11:00:55Z</time>
      </trkpt>
      <trkpt lat="48.6300860" lon="14.2176320">
        <ele>735.8</ele>
        <time>2019-08-07T11:00:56Z</time>
      </trkpt>
      <trkpt lat="48.6301210" lon="14.2176920">
        <ele>735.8</ele>
        <time>2019-08-07T11:00:57Z</time>
      </trkpt>
      <trkpt lat="48.6301550" lon="14.2177520">
        <ele>735.8</ele>
        <time>2019-08-07T11:00:58Z</time>
      </trkpt>
      <trkpt lat="48.6301870" lon="14.2178120">
        <ele>736.0</ele>
        <time>2019-08-07T11:00:59Z</time>
      </trkpt>
      <trkpt lat="48.6302120" lon="14.2178700">
        <ele>736.0</ele>
        <time>2019-08-07T11:01:00Z</time>
      </trkpt>
      <trkpt lat="48.6302340" lon="14.2179280">
        <ele>736.2</ele>
        <time>2019-08-07T11:01:01Z</time>
      </trkpt>
      <trkpt lat="48.6302570" lon="14.2179930">
        <ele>736.2</ele>
        <time>2019-08-07T11:01:02Z</time>
      </trkpt>
      <trkpt lat="48.6302820" lon="14.2180530">
        <ele>736.2</ele>
        <time>2019-08-07T11:01:03Z</time>
      </trkpt>
      <trkpt lat="48.6303070" lon="14.2181150">
        <ele>736.2</ele>
        <time>2019-08-07T11:01:04Z</time>
      </trkpt>
      <trkpt lat="48.6303340" lon="14.2181830">
        <ele>736.0</ele>
        <time>2019-08-07T11:01:05Z</time>
      </trkpt>
      <trkpt lat="48.6303660" lon="14.2182520">
        <ele>736.0</ele>
        <time>2019-08-07T11:01:06Z</time>
      </trkpt>
      <trkpt lat="48.6303990" lon="14.2183250">
        <ele>736.0</ele>
        <time>2019-08-07T11:01:07Z</time>
      </trkpt>
      <trkpt lat="48.6304330" lon="14.2183890">
        <ele>736.0</ele>
        <time>2019-08-07T11:01:08Z</time>
      </trkpt>
      <trkpt lat="48.6304600" lon="14.2184480">
        <ele>736.0</ele>
        <time>2019-08-07T11:01:09Z</time>
      </trkpt>
      <trkpt lat="48.6304850" lon="14.2185080">
        <ele>736.2</ele>
        <time>2019-08-07T11:01:10Z</time>
      </trkpt>
      <trkpt lat="48.6305060" lon="14.2185720">
        <ele>736.2</ele>
        <time>2019-08-07T11:01:11Z</time>
      </trkpt>
      <trkpt lat="48.6305320" lon="14.2186430">
        <ele>736.2</ele>
        <time>2019-08-07T11:01:12Z</time>
      </trkpt>
      <trkpt lat="48.6305540" lon="14.2187200">
        <ele>736.2</ele>
        <time>2019-08-07T11:01:13Z</time>
      </trkpt>
      <trkpt lat="48.6305770" lon="14.2187990">
        <ele>736.2</ele>
        <time>2019-08-07T11:01:14Z</time>
      </trkpt>
      <trkpt lat="48.6306010" lon="14.2188780">
        <ele>736.2</ele>
        <time>2019-08-07T11:01:15Z</time>
      </trkpt>
      <trkpt lat="48.6306290" lon="14.2189500">
        <ele>736.2</ele>
        <time>2019-08-07T11:01:16Z</time>
      </trkpt>
      <trkpt lat="48.6306600" lon="14.2190190">
        <ele>736.2</ele>
        <time>2019-08-07T11:01:17Z</time>
      </trkpt>
      <trkpt lat="48.6306940" lon="14.2190840">
        <ele>736.2</ele>
        <time>2019-08-07T11:01:18Z</time>
      </trkpt>
      <trkpt lat="48.6307250" lon="14.2191410">
        <ele>736.2</ele>
        <time>2019-08-07T11:01:19Z</time>
      </trkpt>
      <trkpt lat="48.6307620" lon="14.2191980">
        <ele>736.2</ele>
        <time>2019-08-07T11:01:20Z</time>
      </trkpt>
      <trkpt lat="48.6308010" lon="14.2192540">
        <ele>736.2</ele>
        <time>2019-08-07T11:01:21Z</time>
      </trkpt>
      <trkpt lat="48.6308370" lon="14.2193010">
        <ele>736.0</ele>
        <time>2019-08-07T11:01:22Z</time>
      </trkpt>
      <trkpt lat="48.6308730" lon="14.2193480">
        <ele>736.0</ele>
        <time>2019-08-07T11:01:23Z</time>
      </trkpt>
      <trkpt lat="48.6309060" lon="14.2193920">
        <ele>735.8</ele>
        <time>2019-08-07T11:01:24Z</time>
      </trkpt>
      <trkpt lat="48.6309420" lon="14.2194340">
        <ele>735.6</ele>
        <time>2019-08-07T11:01:25Z</time>
      </trkpt>
      <trkpt lat="48.6309750" lon="14.2194780">
        <ele>735.4</ele>
        <time>2019-08-07T11:01:26Z</time>
      </trkpt>
      <trkpt lat="48.6310050" lon="14.2195250">
        <ele>735.2</ele>
        <time>2019-08-07T11:01:27Z</time>
      </trkpt>
      <trkpt lat="48.6310290" lon="14.2195690">
        <ele>735.0</ele>
        <time>2019-08-07T11:01:28Z</time>
      </trkpt>
      <trkpt lat="48.6310500" lon="14.2196100">
        <ele>734.8</ele>
        <time>2019-08-07T11:01:29Z</time>
      </trkpt>
      <trkpt lat="48.6310800" lon="14.2196520">
        <ele>734.8</ele>
        <time>2019-08-07T11:01:30Z</time>
      </trkpt>
      <trkpt lat="48.6311110" lon="14.2196910">
        <ele>734.6</ele>
        <time>2019-08-07T11:01:31Z</time>
      </trkpt>
      <trkpt lat="48.6311480" lon="14.2197290">
        <ele>734.6</ele>
        <time>2019-08-07T11:01:32Z</time>
      </trkpt>
      <trkpt lat="48.6311860" lon="14.2197680">
        <ele>734.6</ele>
        <time>2019-08-07T11:01:33Z</time>
      </trkpt>
      <trkpt lat="48.6312210" lon="14.2198210">
        <ele>734.6</ele>
        <time>2019-08-07T11:01:34Z</time>
      </trkpt>
      <trkpt lat="48.6312560" lon="14.2198760">
        <ele>734.6</ele>
        <time>2019-08-07T11:01:35Z</time>
      </trkpt>
      <trkpt lat="48.6312940" lon="14.2199400">
        <ele>734.6</ele>
        <time>2019-08-07T11:01:36Z</time>
      </trkpt>
      <trkpt lat="48.6313300" lon="14.2200030">
        <ele>734.6</ele>
        <time>2019-08-07T11:01:37Z</time>
      </trkpt>
      <trkpt lat="48.6313650" lon="14.2200650">
        <ele>734.8</ele>
        <time>2019-08-07T11:01:38Z</time>
      </trkpt>
      <trkpt lat="48.6314020" lon="14.2201270">
        <ele>734.8</ele>
        <time>2019-08-07T11:01:39Z</time>
      </trkpt>
      <trkpt lat="48.6314420" lon="14.2201910">
        <ele>734.6</ele>
        <time>2019-08-07T11:01:40Z</time>
      </trkpt>
      <trkpt lat="48.6314870" lon="14.2202590">
        <ele>734.6</ele>
        <time>2019-08-07T11:01:41Z</time>
      </trkpt>
      <trkpt lat="48.6315280" lon="14.2203300">
        <ele>734.6</ele>
        <time>2019-08-07T11:01:42Z</time>
      </trkpt>
      <trkpt lat="48.6315640" lon="14.2204030">
        <ele>734.6</ele>
        <time>2019-08-07T11:01:43Z</time>
      </trkpt>
      <trkpt lat="48.6315970" lon="14.2204740">
        <ele>734.6</ele>
        <time>2019-08-07T11:01:44Z</time>
      </trkpt>
      <trkpt lat="48.6316280" lon="14.2205480">
        <ele>734.8</ele>
        <time>2019-08-07T11:01:45Z</time>
      </trkpt>
      <trkpt lat="48.6316570" lon="14.2206190">
        <ele>734.8</ele>
        <time>2019-08-07T11:01:46Z</time>
      </trkpt>
      <trkpt lat="48.6316830" lon="14.2206800">
        <ele>735.0</ele>
        <time>2019-08-07T11:01:47Z</time>
      </trkpt>
      <trkpt lat="48.6317190" lon="14.2207650">
        <ele>734.8</ele>
        <time>2019-08-07T11:01:48Z</time>
      </trkpt>
      <trkpt lat="48.6317490" lon="14.2208410">
        <ele>734.8</ele>
        <time>2019-08-07T11:01:49Z</time>
      </trkpt>
      <trkpt lat="48.6317760" lon="14.2209190">
        <ele>734.8</ele>
        <time>2019-08-07T11:01:50Z</time>
      </trkpt>
      <trkpt lat="48.6318040" lon="14.2209930">
        <ele>734.8</ele>
        <time>2019-08-07T11:01:51Z</time>
      </trkpt>
      <trkpt lat="48.6318290" lon="14.2210700">
        <ele>734.8</ele>
        <time>2019-08-07T11:01:52Z</time>
      </trkpt>
      <trkpt lat="48.6318530" lon="14.2211460">
        <ele>735.0</ele>
        <time>2019-08-07T11:01:53Z</time>
      </trkpt>
      <trkpt lat="48.6318790" lon="14.2212290">
        <ele>735.0</ele>
        <time>2019-08-07T11:01:54Z</time>
      </trkpt>
      <trkpt lat="48.6319070" lon="14.2213050">
        <ele>735.0</ele>
        <time>2019-08-07T11:01:55Z</time>
      </trkpt>
      <trkpt lat="48.6319420" lon="14.2213820">
        <ele>735.0</ele>
        <time>2019-08-07T11:01:56Z</time>
      </trkpt>
      <trkpt lat="48.6319760" lon="14.2214530">
        <ele>735.0</ele>
        <time>2019-08-07T11:01:57Z</time>
      </trkpt>
      <trkpt lat="48.6320120" lon="14.2215210">
        <ele>735.2</ele>
        <time>2019-08-07T11:01:58Z</time>
      </trkpt>
      <trkpt lat="48.6320460" lon="14.2215890">
        <ele>735.2</ele>
        <time>2019-08-07T11:01:59Z</time>
      </trkpt>
      <trkpt lat="48.6320720" lon="14.2216540">
        <ele>735.0</ele>
        <time>2019-08-07T11:02:00Z</time>
      </trkpt>
      <trkpt lat="48.6321000" lon="14.2217200">
        <ele>735.0</ele>
        <time>2019-08-07T11:02:01Z</time>
      </trkpt>
      <trkpt lat="48.6321340" lon="14.2217870">
        <ele>735.0</ele>
        <time>2019-08-07T11:02:02Z</time>
      </trkpt>
      <trkpt lat="48.6321710" lon="14.2218610">
        <ele>734.8</ele>
        <time>2019-08-07T11:02:03Z</time>
      </trkpt>
      <trkpt lat="48.6322040" lon="14.2219370">
        <ele>734.8</ele>
        <time>2019-08-07T11:02:04Z</time>
      </trkpt>
      <trkpt lat="48.6322330" lon="14.2220160">
        <ele>734.8</ele>
        <time>2019-08-07T11:02:05Z</time>
      </trkpt>
      <trkpt lat="48.6322600" lon="14.2220970">
        <ele>734.6</ele>
        <time>2019-08-07T11:02:06Z</time>
      </trkpt>
      <trkpt lat="48.6322800" lon="14.2221820">
        <ele>734.8</ele>
        <time>2019-08-07T11:02:07Z</time>
      </trkpt>
      <trkpt lat="48.6322960" lon="14.2222690">
        <ele>734.8</ele>
        <time>2019-08-07T11:02:08Z</time>
      </trkpt>
      <trkpt lat="48.6323090" lon="14.2223510">
        <ele>734.8</ele>
        <time>2019-08-07T11:02:09Z</time>
      </trkpt>
      <trkpt lat="48.6323230" lon="14.2224340">
        <ele>734.8</ele>
        <time>2019-08-07T11:02:10Z</time>
      </trkpt>
      <trkpt lat="48.6323400" lon="14.2225140">
        <ele>735.0</ele>
        <time>2019-08-07T11:02:11Z</time>
      </trkpt>
      <trkpt lat="48.6323560" lon="14.2225910">
        <ele>735.0</ele>
        <time>2019-08-07T11:02:12Z</time>
      </trkpt>
      <trkpt lat="48.6323750" lon="14.2226720">
        <ele>734.8</ele>
        <time>2019-08-07T11:02:13Z</time>
      </trkpt>
      <trkpt lat="48.6323950" lon="14.2227460">
        <ele>734.8</ele>
        <time>2019-08-07T11:02:14Z</time>
      </trkpt>
      <trkpt lat="48.6324230" lon="14.2228260">
        <ele>734.8</ele>
        <time>2019-08-07T11:02:15Z</time>
      </trkpt>
      <trkpt lat="48.6324480" lon="14.2229200">
        <ele>734.8</ele>
        <time>2019-08-07T11:02:16Z</time>
      </trkpt>
      <trkpt lat="48.6324690" lon="14.2230040">
        <ele>734.8</ele>
        <time>2019-08-07T11:02:17Z</time>
      </trkpt>
      <trkpt lat="48.6324940" lon="14.2230830">
        <ele>735.0</ele>
        <time>2019-08-07T11:02:18Z</time>
      </trkpt>
      <trkpt lat="48.6325170" lon="14.2231600">
        <ele>735.0</ele>
        <time>2019-08-07T11:02:19Z</time>
      </trkpt>
      <trkpt lat="48.6325400" lon="14.2232370">
        <ele>735.0</ele>
        <time>2019-08-07T11:02:20Z</time>
      </trkpt>
      <trkpt lat="48.6325620" lon="14.2233140">
        <ele>735.0</ele>
        <time>2019-08-07T11:02:21Z</time>
      </trkpt>
      <trkpt lat="48.6325860" lon="14.2233910">
        <ele>735.0</ele>
        <time>2019-08-07T11:02:22Z</time>
      </trkpt>
      <trkpt lat="48.6326130" lon="14.2234710">
        <ele>735.0</ele>
        <time>2019-08-07T11:02:23Z</time>
      </trkpt>
      <trkpt lat="48.6326340" lon="14.2235500">
        <ele>735.0</ele>
        <time>2019-08-07T11:02:24Z</time>
      </trkpt>
      <trkpt lat="48.6326520" lon="14.2236310">
        <ele>735.0</ele>
        <time>2019-08-07T11:02:25Z</time>
      </trkpt>
      <trkpt lat="48.6326730" lon="14.2237240">
        <ele>734.8</ele>
        <time>2019-08-07T11:02:26Z</time>
      </trkpt>
      <trkpt lat="48.6326860" lon="14.2238120">
        <ele>734.8</ele>
        <time>2019-08-07T11:02:27Z</time>
      </trkpt>
      <trkpt lat="48.6327050" lon="14.2239010">
        <ele>734.8</ele>
        <time>2019-08-07T11:02:28Z</time>
      </trkpt>
      <trkpt lat="48.6327250" lon="14.2239900">
        <ele>734.8</ele>
        <time>2019-08-07T11:02:29Z</time>
      </trkpt>
      <trkpt lat="48.6327430" lon="14.2240780">
        <ele>734.6</ele>
        <time>2019-08-07T11:02:30Z</time>
      </trkpt>
      <trkpt lat="48.6327540" lon="14.2241660">
        <ele>734.6</ele>
        <time>2019-08-07T11:02:31Z</time>
      </trkpt>
      <trkpt lat="48.6327570" lon="14.2242560">
        <ele>734.6</ele>
        <time>2019-08-07T11:02:32Z</time>
      </trkpt>
      <trkpt lat="48.6327620" lon="14.2243520">
        <ele>734.6</ele>
        <time>2019-08-07T11:02:33Z</time>
      </trkpt>
      <trkpt lat="48.6327690" lon="14.2244490">
        <ele>734.6</ele>
        <time>2019-08-07T11:02:34Z</time>
      </trkpt>
      <trkpt lat="48.6327720" lon="14.2245440">
        <ele>734.6</ele>
        <time>2019-08-07T11:02:35Z</time>
      </trkpt>
      <trkpt lat="48.6327800" lon="14.2246360">
        <ele>734.8</ele>
        <time>2019-08-07T11:02:36Z</time>
      </trkpt>
      <trkpt lat="48.6327850" lon="14.2247220">
        <ele>734.8</ele>
        <time>2019-08-07T11:02:37Z</time>
      </trkpt>
      <trkpt lat="48.6327920" lon="14.2248080">
        <ele>735.0</ele>
        <time>2019-08-07T11:02:38Z</time>
      </trkpt>
      <trkpt lat="48.6328000" lon="14.2248750">
        <ele>735.0</ele>
        <time>2019-08-07T11:02:39Z</time>
      </trkpt>
      <trkpt lat="48.6328090" lon="14.2249560">
        <ele>735.2</ele>
        <time>2019-08-07T11:02:40Z</time>
      </trkpt>
      <trkpt lat="48.6328200" lon="14.2250270">
        <ele>735.2</ele>
        <time>2019-08-07T11:02:41Z</time>
      </trkpt>
      <trkpt lat="48.6328350" lon="14.2251190">
        <ele>735.2</ele>
        <time>2019-08-07T11:02:42Z</time>
      </trkpt>
      <trkpt lat="48.6328490" lon="14.2252060">
        <ele>735.0</ele>
        <time>2019-08-07T11:02:43Z</time>
      </trkpt>
      <trkpt lat="48.6328620" lon="14.2252970">
        <ele>735.0</ele>
        <time>2019-08-07T11:02:44Z</time>
      </trkpt>
      <trkpt lat="48.6328720" lon="14.2253820">
        <ele>735.0</ele>
        <time>2019-08-07T11:02:45Z</time>
      </trkpt>
      <trkpt lat="48.6328820" lon="14.2254650">
        <ele>735.0</ele>
        <time>2019-08-07T11:02:46Z</time>
      </trkpt>
      <trkpt lat="48.6328890" lon="14.2255490">
        <ele>735.0</ele>
        <time>2019-08-07T11:02:47Z</time>
      </trkpt>
      <trkpt lat="48.6328940" lon="14.2256380">
        <ele>735.0</ele>
        <time>2019-08-07T11:02:48Z</time>
      </trkpt>
      <trkpt lat="48.6329020" lon="14.2257250">
        <ele>735.0</ele>
        <time>2019-08-07T11:02:49Z</time>
      </trkpt>
      <trkpt lat="48.6329100" lon="14.2258090">
        <ele>735.0</ele>
        <time>2019-08-07T11:02:50Z</time>
      </trkpt>
      <trkpt lat="48.6329100" lon="14.2258980">
        <ele>734.8</ele>
        <time>2019-08-07T11:02:51Z</time>
      </trkpt>
      <trkpt lat="48.6329140" lon="14.2259850">
        <ele>734.8</ele>
        <time>2019-08-07T11:02:52Z</time>
      </trkpt>
      <trkpt lat="48.6329190" lon="14.2260800">
        <ele>734.8</ele>
        <time>2019-08-07T11:02:53Z</time>
      </trkpt>
      <trkpt lat="48.6329250" lon="14.2261660">
        <ele>734.8</ele>
        <time>2019-08-07T11:02:54Z</time>
      </trkpt>
      <trkpt lat="48.6329310" lon="14.2262620">
        <ele>734.8</ele>
        <time>2019-08-07T11:02:55Z</time>
      </trkpt>
      <trkpt lat="48.6329400" lon="14.2263470">
        <ele>734.8</ele>
        <time>2019-08-07T11:02:56Z</time>
      </trkpt>
      <trkpt lat="48.6329470" lon="14.2264300">
        <ele>734.8</ele>
        <time>2019-08-07T11:02:57Z</time>
      </trkpt>
      <trkpt lat="48.6329520" lon="14.2265160">
        <ele>734.8</ele>
        <time>2019-08-07T11:02:58Z</time>
      </trkpt>
      <trkpt lat="48.6329540" lon="14.2266000">
        <ele>734.8</ele>
        <time>2019-08-07T11:02:59Z</time>
      </trkpt>
      <trkpt lat="48.6329590" lon="14.2266820">
        <ele>734.8</ele>
        <time>2019-08-07T11:03:00Z</time>
      </trkpt>
      <trkpt lat="48.6329700" lon="14.2267680">
        <ele>734.8</ele>
        <time>2019-08-07T11:03:01Z</time>
      </trkpt>
      <trkpt lat="48.6329860" lon="14.2268540">
        <ele>734.8</ele>
        <time>2019-08-07T11:03:02Z</time>
      </trkpt>
      <trkpt lat="48.6330030" lon="14.2269370">
        <ele>734.8</ele>
        <time>2019-08-07T11:03:03Z</time>
      </trkpt>
      <trkpt lat="48.6330160" lon="14.2270220">
        <ele>734.8</ele>
        <time>2019-08-07T11:03:04Z</time>
      </trkpt>
      <trkpt lat="48.6330260" lon="14.2271120">
        <ele>734.8</ele>
        <time>2019-08-07T11:03:05Z</time>
      </trkpt>
      <trkpt lat="48.6330340" lon="14.2271990">
        <ele>734.8</ele>
        <time>2019-08-07T11:03:06Z</time>
      </trkpt>
      <trkpt lat="48.6330420" lon="14.2272720">
        <ele>734.8</ele>
        <time>2019-08-07T11:03:07Z</time>
      </trkpt>
      <trkpt lat="48.6330540" lon="14.2273820">
        <ele>734.8</ele>
        <time>2019-08-07T11:03:08Z</time>
      </trkpt>
      <trkpt lat="48.6330620" lon="14.2274720">
        <ele>734.8</ele>
        <time>2019-08-07T11:03:09Z</time>
      </trkpt>
      <trkpt lat="48.6330730" lon="14.2275610">
        <ele>734.8</ele>
        <time>2019-08-07T11:03:10Z</time>
      </trkpt>
      <trkpt lat="48.6330820" lon="14.2276500">
        <ele>734.8</ele>
        <time>2019-08-07T11:03:11Z</time>
      </trkpt>
      <trkpt lat="48.6330920" lon="14.2277350">
        <ele>734.8</ele>
        <time>2019-08-07T11:03:12Z</time>
      </trkpt>
      <trkpt lat="48.6330980" lon="14.2278190">
        <ele>734.8</ele>
        <time>2019-08-07T11:03:13Z</time>
      </trkpt>
      <trkpt lat="48.6331000" lon="14.2279040">
        <ele>734.8</ele>
        <time>2019-08-07T11:03:14Z</time>
      </trkpt>
      <trkpt lat="48.6331060" lon="14.2279930">
        <ele>734.8</ele>
        <time>2019-08-07T11:03:15Z</time>
      </trkpt>
      <trkpt lat="48.6331140" lon="14.2280770">
        <ele>734.8</ele>
        <time>2019-08-07T11:03:16Z</time>
      </trkpt>
      <trkpt lat="48.6331180" lon="14.2281630">
        <ele>734.8</ele>
        <time>2019-08-07T11:03:17Z</time>
      </trkpt>
      <trkpt lat="48.6331150" lon="14.2282440">
        <ele>735.0</ele>
        <time>2019-08-07T11:03:18Z</time>
      </trkpt>
      <trkpt lat="48.6331150" lon="14.2283270">
        <ele>735.0</ele>
        <time>2019-08-07T11:03:19Z</time>
      </trkpt>
      <trkpt lat="48.6331150" lon="14.2284110">
        <ele>735.0</ele>
        <time>2019-08-07T11:03:20Z</time>
      </trkpt>
      <trkpt lat="48.6331190" lon="14.2284920">
        <ele>735.2</ele>
        <time>2019-08-07T11:03:21Z</time>
      </trkpt>
      <trkpt lat="48.6331220" lon="14.2285740">
        <ele>735.2</ele>
        <time>2019-08-07T11:03:22Z</time>
      </trkpt>
      <trkpt lat="48.6331200" lon="14.2286520">
        <ele>735.2</ele>
        <time>2019-08-07T11:03:23Z</time>
      </trkpt>
      <trkpt lat="48.6331170" lon="14.2287360">
        <ele>735.4</ele>
        <time>2019-08-07T11:03:24Z</time>
      </trkpt>
      <trkpt lat="48.6331160" lon="14.2288160">
        <ele>735.4</ele>
        <time>2019-08-07T11:03:25Z</time>
      </trkpt>
      <trkpt lat="48.6331130" lon="14.2288970">
        <ele>735.4</ele>
        <time>2019-08-07T11:03:26Z</time>
      </trkpt>
      <trkpt lat="48.6331080" lon="14.2289750">
        <ele>735.4</ele>
        <time>2019-08-07T11:03:27Z</time>
      </trkpt>
      <trkpt lat="48.6331070" lon="14.2290490">
        <ele>735.6</ele>
        <time>2019-08-07T11:03:28Z</time>
      </trkpt>
      <trkpt lat="48.6331100" lon="14.2291270">
        <ele>735.6</ele>
        <time>2019-08-07T11:03:29Z</time>
      </trkpt>
      <trkpt lat="48.6331100" lon="14.2292050">
        <ele>735.8</ele>
        <time>2019-08-07T11:03:30Z</time>
      </trkpt>
      <trkpt lat="48.6331100" lon="14.2292820">
        <ele>735.8</ele>
        <time>2019-08-07T11:03:31Z</time>
      </trkpt>
      <trkpt lat="48.6331100" lon="14.2293590">
        <ele>736.0</ele>
        <time>2019-08-07T11:03:32Z</time>
      </trkpt>
      <trkpt lat="48.6331100" lon="14.2294280">
        <ele>736.0</ele>
        <time>2019-08-07T11:03:33Z</time>
      </trkpt>
      <trkpt lat="48.6331100" lon="14.2295070">
        <ele>736.2</ele>
        <time>2019-08-07T11:03:34Z</time>
      </trkpt>
      <trkpt lat="48.6331080" lon="14.2295890">
        <ele>736.2</ele>
        <time>2019-08-07T11:03:35Z</time>
      </trkpt>
      <trkpt lat="48.6331030" lon="14.2296690">
        <ele>736.0</ele>
        <time>2019-08-07T11:03:36Z</time>
      </trkpt>
      <trkpt lat="48.6331050" lon="14.2297480">
        <ele>736.0</ele>
        <time>2019-08-07T11:03:37Z</time>
      </trkpt>
      <trkpt lat="48.6331070" lon="14.2298270">
        <ele>736.0</ele>
        <time>2019-08-07T11:03:38Z</time>
      </trkpt>
      <trkpt lat="48.6331120" lon="14.2299090">
        <ele>736.2</ele>
        <time>2019-08-07T11:03:39Z</time>
      </trkpt>
      <trkpt lat="48.6331170" lon="14.2299910">
        <ele>736.2</ele>
        <time>2019-08-07T11:03:40Z</time>
      </trkpt>
      <trkpt lat="48.6331220" lon="14.2300680">
        <ele>736.2</ele>
        <time>2019-08-07T11:03:41Z</time>
      </trkpt>
      <trkpt lat="48.6331230" lon="14.2301440">
        <ele>736.2</ele>
        <time>2019-08-07T11:03:42Z</time>
      </trkpt>
      <trkpt lat="48.6331230" lon="14.2302200">
        <ele>736.2</ele>
        <time>2019-08-07T11:03:43Z</time>
      </trkpt>
      <trkpt lat="48.6331220" lon="14.2302940">
        <ele>736.2</ele>
        <time>2019-08-07T11:03:44Z</time>
      </trkpt>
      <trkpt lat="48.6331220" lon="14.2303690">
        <ele>736.4</ele>
        <time>2019-08-07T11:03:45Z</time>
      </trkpt>
      <trkpt lat="48.6331230" lon="14.2304460">
        <ele>736.4</ele>
        <time>2019-08-07T11:03:46Z</time>
      </trkpt>
      <trkpt lat="48.6331230" lon="14.2305260">
        <ele>736.4</ele>
        <time>2019-08-07T11:03:47Z</time>
      </trkpt>
      <trkpt lat="48.6331250" lon="14.2306060">
        <ele>736.4</ele>
        <time>2019-08-07T11:03:48Z</time>
      </trkpt>
      <trkpt lat="48.6331270" lon="14.2306890">
        <ele>736.4</ele>
        <time>2019-08-07T11:03:49Z</time>
      </trkpt>
      <trkpt lat="48.6331250" lon="14.2307680">
        <ele>736.4</ele>
        <time>2019-08-07T11:03:50Z</time>
      </trkpt>
      <trkpt lat="48.6331160" lon="14.2308520">
        <ele>736.4</ele>
        <time>2019-08-07T11:03:51Z</time>
      </trkpt>
      <trkpt lat="48.6331120" lon="14.2309320">
        <ele>736.4</ele>
        <time>2019-08-07T11:03:52Z</time>
      </trkpt>
      <trkpt lat="48.6330990" lon="14.2310220">
        <ele>736.2</ele>
        <time>2019-08-07T11:03:53Z</time>
      </trkpt>
      <trkpt lat="48.6330910" lon="14.2311120">
        <ele>736.2</ele>
        <time>2019-08-07T11:03:54Z</time>
      </trkpt>
      <trkpt lat="48.6330810" lon="14.2312050">
        <ele>736.0</ele>
        <time>2019-08-07T11:03:55Z</time>
      </trkpt>
      <trkpt lat="48.6330790" lon="14.2312980">
        <ele>736.0</ele>
        <time>2019-08-07T11:03:56Z</time>
      </trkpt>
      <trkpt lat="48.6330820" lon="14.2313880">
        <ele>736.0</ele>
        <time>2019-08-07T11:03:57Z</time>
      </trkpt>
      <trkpt lat="48.6330920" lon="14.2314740">
        <ele>735.8</ele>
        <time>2019-08-07T11:03:58Z</time>
      </trkpt>
      <trkpt lat="48.6331020" lon="14.2315580">
        <ele>735.8</ele>
        <time>2019-08-07T11:03:59Z</time>
      </trkpt>
      <trkpt lat="48.6331100" lon="14.2316470">
        <ele>735.6</ele>
        <time>2019-08-07T11:04:00Z</time>
      </trkpt>
      <trkpt lat="48.6331110" lon="14.2317380">
        <ele>735.4</ele>
        <time>2019-08-07T11:04:01Z</time>
      </trkpt>
      <trkpt lat="48.6331020" lon="14.2318340">
        <ele>735.2</ele>
        <time>2019-08-07T11:04:02Z</time>
      </trkpt>
      <trkpt lat="48.6330850" lon="14.2319230">
        <ele>735.2</ele>
        <time>2019-08-07T11:04:03Z</time>
      </trkpt>
      <trkpt lat="48.6330580" lon="14.2320160">
        <ele>735.0</ele>
        <time>2019-08-07T11:04:04Z</time>
      </trkpt>
      <trkpt lat="48.6330280" lon="14.2321020">
        <ele>734.8</ele>
        <time>2019-08-07T11:04:05Z</time>
      </trkpt>
      <trkpt lat="48.6329930" lon="14.2321770">
        <ele>734.8</ele>
        <time>2019-08-07T11:04:06Z</time>
      </trkpt>
      <trkpt lat="48.6329560" lon="14.2322300">
        <ele>734.8</ele>
        <time>2019-08-07T11:04:07Z</time>
      </trkpt>
      <trkpt lat="48.6329200" lon="14.2322670">
        <ele>734.8</ele>
        <time>2019-08-07T11:04:08Z</time>
      </trkpt>
      <trkpt lat="48.6328880" lon="14.2322910">
        <ele>735.0</ele>
        <time>2019-08-07T11:04:09Z</time>
      </trkpt>
      <trkpt lat="48.6328620" lon="14.2323120">
        <ele>735.2</ele>
        <time>2019-08-07T11:04:10Z</time>
      </trkpt>
      <trkpt lat="48.6328400" lon="14.2323360">
        <ele>735.4</ele>
        <time>2019-08-07T11:04:11Z</time>
      </trkpt>
      <trkpt lat="48.6328240" lon="14.2323720">
        <ele>735.6</ele>
        <time>2019-08-07T11:04:12Z</time>
      </trkpt>
      <trkpt lat="48.6328150" lon="14.2324190">
        <ele>735.8</ele>
        <time>2019-08-07T11:04:13Z</time>
      </trkpt>
      <trkpt lat="48.6328160" lon="14.2324750">
        <ele>736.0</ele>
        <time>2019-08-07T11:04:14Z</time>
      </trkpt>
      <trkpt lat="48.6328130" lon="14.2325250">
        <ele>736.0</ele>
        <time>2019-08-07T11:04:15Z</time>
      </trkpt>
      <trkpt lat="48.6328130" lon="14.2325810">
        <ele>736.2</ele>
        <time>2019-08-07T11:04:16Z</time>
      </trkpt>
      <trkpt lat="48.6328120" lon="14.2326330">
        <ele>736.4</ele>
        <time>2019-08-07T11:04:17Z</time>
      </trkpt>
      <trkpt lat="48.6328060" lon="14.2326920">
        <ele>736.4</ele>
        <time>2019-08-07T11:04:18Z</time>
      </trkpt>
      <trkpt lat="48.6328010" lon="14.2327510">
        <ele>736.4</ele>
        <time>2019-08-07T11:04:19Z</time>
      </trkpt>
      <trkpt lat="48.6327910" lon="14.2328110">
        <ele>736.6</ele>
        <time>2019-08-07T11:04:20Z</time>
      </trkpt>
      <trkpt lat="48.6327790" lon="14.2328690">
        <ele>736.6</ele>
        <time>2019-08-07T11:04:21Z</time>
      </trkpt>
      <trkpt lat="48.6327670" lon="14.2329270">
        <ele>736.6</ele>
        <time>2019-08-07T11:04:22Z</time>
      </trkpt>
      <trkpt lat="48.6327560" lon="14.2329840">
        <ele>736.6</ele>
        <time>2019-08-07T11:04:23Z</time>
      </trkpt>
      <trkpt lat="48.6327440" lon="14.2330400">
        <ele>736.6</ele>
        <time>2019-08-07T11:04:24Z</time>
      </trkpt>
      <trkpt lat="48.6327310" lon="14.2330990">
        <ele>736.8</ele>
        <time>2019-08-07T11:04:25Z</time>
      </trkpt>
      <trkpt lat="48.6327170" lon="14.2331570">
        <ele>736.8</ele>
        <time>2019-08-07T11:04:26Z</time>
      </trkpt>
      <trkpt lat="48.6327040" lon="14.2332140">
        <ele>736.6</ele>
        <time>2019-08-07T11:04:27Z</time>
      </trkpt>
      <trkpt lat="48.6326830" lon="14.2332690">
        <ele>736.6</ele>
        <time>2019-08-07T11:04:28Z</time>
      </trkpt>
      <trkpt lat="48.6326580" lon="14.2333200">
        <ele>736.6</ele>
        <time>2019-08-07T11:04:29Z</time>
      </trkpt>
      <trkpt lat="48.6326290" lon="14.2333600">
        <ele>736.6</ele>
        <time>2019-08-07T11:04:30Z</time>
      </trkpt>
      <trkpt lat="48.6325980" lon="14.2333990">
        <ele>736.6</ele>
        <time>2019-08-07T11:04:31Z</time>
      </trkpt>
      <trkpt lat="48.6325680" lon="14.2334400">
        <ele>736.6</ele>
        <time>2019-08-07T11:04:32Z</time>
      </trkpt>
      <trkpt lat="48.6325420" lon="14.2334770">
        <ele>736.6</ele>
        <time>2019-08-07T11:04:33Z</time>
      </trkpt>
      <trkpt lat="48.6325130" lon="14.2335170">
        <ele>736.6</ele>
        <time>2019-08-07T11:04:34Z</time>
      </trkpt>
      <trkpt lat="48.6324870" lon="14.2335610">
        <ele>736.6</ele>
        <time>2019-08-07T11:04:35Z</time>
      </trkpt>
      <trkpt lat="48.6324630" lon="14.2336130">
        <ele>736.4</ele>
        <time>2019-08-07T11:04:36Z</time>
      </trkpt>
      <trkpt lat="48.6324440" lon="14.2336680">
        <ele>736.4</ele>
        <time>2019-08-07T11:04:37Z</time>
      </trkpt>
      <trkpt lat="48.6324270" lon="14.2337370">
        <ele>736.2</ele>
        <time>2019-08-07T11:04:38Z</time>
      </trkpt>
      <trkpt lat="48.6324090" lon="14.2338030">
        <ele>736.0</ele>
        <time>2019-08-07T11:04:39Z</time>
      </trkpt>
      <trkpt lat="48.6323870" lon="14.2338650">
        <ele>736.0</ele>
        <time>2019-08-07T11:04:40Z</time>
      </trkpt>
      <trkpt lat="48.6323560" lon="14.2339310">
        <ele>735.8</ele>
        <time>2019-08-07T11:04:41Z</time>
      </trkpt>
      <trkpt lat="48.6323220" lon="14.2339860">
        <ele>735.8</ele>
        <time>2019-08-07T11:04:42Z</time>
      </trkpt>
      <trkpt lat="48.6322830" lon="14.2340320">
        <ele>735.8</ele>
        <time>2019-08-07T11:04:43Z</time>
      </trkpt>
      <trkpt lat="48.6322420" lon="14.2340790">
        <ele>735.8</ele>
        <time>2019-08-07T11:04:44Z</time>
      </trkpt>
      <trkpt lat="48.6322040" lon="14.2341220">
        <ele>736.0</ele>
        <time>2019-08-07T11:04:45Z</time>
      </trkpt>
      <trkpt lat="48.6321640" lon="14.2341570">
        <ele>736.0</ele>
        <time>2019-08-07T11:04:46Z</time>
      </trkpt>
      <trkpt lat="48.6321250" lon="14.2341850">
        <ele>736.2</ele>
        <time>2019-08-07T11:04:47Z</time>
      </trkpt>
      <trkpt lat="48.6320900" lon="14.2342200">
        <ele>736.2</ele>
        <time>2019-08-07T11:04:48Z</time>
      </trkpt>
      <trkpt lat="48.6320550" lon="14.2342610">
        <ele>736.2</ele>
        <time>2019-08-07T11:04:49Z</time>
      </trkpt>
      <trkpt lat="48.6320190" lon="14.2343060">
        <ele>736.4</ele>
        <time>2019-08-07T11:04:50Z</time>
      </trkpt>
      <trkpt lat="48.6319870" lon="14.2343490">
        <ele>736.4</ele>
        <time>2019-08-07T11:04:51Z</time>
      </trkpt>
      <trkpt lat="48.6319550" lon="14.2343940">
        <ele>736.6</ele>
        <time>2019-08-07T11:04:52Z</time>
      </trkpt>
      <trkpt lat="48.6319210" lon="14.2344380">
        <ele>736.6</ele>
        <time>2019-08-07T11:04:53Z</time>
      </trkpt>
      <trkpt lat="48.6318880" lon="14.2344840">
        <ele>736.8</ele>
        <time>2019-08-07T11:04:54Z</time>
      </trkpt>
      <trkpt lat="48.6318550" lon="14.2345290">
        <ele>736.8</ele>
        <time>2019-08-07T11:04:55Z</time>
      </trkpt>
      <trkpt lat="48.6318240" lon="14.2345690">
        <ele>737.0</ele>
        <time>2019-08-07T11:04:56Z</time>
      </trkpt>
      <trkpt lat="48.6317920" lon="14.2346170">
        <ele>737.0</ele>
        <time>2019-08-07T11:04:57Z</time>
      </trkpt>
      <trkpt lat="48.6317610" lon="14.2346700">
        <ele>737.2</ele>
        <time>2019-08-07T11:04:58Z</time>
      </trkpt>
      <trkpt lat="48.6317330" lon="14.2347260">
        <ele>737.2</ele>
        <time>2019-08-07T11:04:59Z</time>
      </trkpt>
      <trkpt lat="48.6317060" lon="14.2347850">
        <ele>737.4</ele>
        <time>2019-08-07T11:05:00Z</time>
      </trkpt>
      <trkpt lat="48.6316830" lon="14.2348460">
        <ele>737.4</ele>
        <time>2019-08-07T11:05:01Z</time>
      </trkpt>
      <trkpt lat="48.6316590" lon="14.2349010">
        <ele>737.4</ele>
        <time>2019-08-07T11:05:02Z</time>
      </trkpt>
      <trkpt lat="48.6316310" lon="14.2349640">
        <ele>737.4</ele>
        <time>2019-08-07T11:05:03Z</time>
      </trkpt>
      <trkpt lat="48.6316110" lon="14.2350260">
        <ele>737.4</ele>
        <time>2019-08-07T11:05:04Z</time>
      </trkpt>
      <trkpt lat="48.6315890" lon="14.2350920">
        <ele>737.4</ele>
        <time>2019-08-07T11:05:05Z</time>
      </trkpt>
      <trkpt lat="48.6315710" lon="14.2351590">
        <ele>737.6</ele>
        <time>2019-08-07T11:05:06Z</time>
      </trkpt>
      <trkpt lat="48.6315560" lon="14.2352260">
        <ele>737.6</ele>
        <time>2019-08-07T11:05:07Z</time>
      </trkpt>
      <trkpt lat="48.6315410" lon="14.2352900">
        <ele>737.6</ele>
        <time>2019-08-07T11:05:08Z</time>
      </trkpt>
      <trkpt lat="48.6315330" lon="14.2353510">
        <ele>737.6</ele>
        <time>2019-08-07T11:05:09Z</time>
      </trkpt>
      <trkpt lat="48.6315230" lon="14.2354170">
        <ele>737.6</ele>
        <time>2019-08-07T11:05:10Z</time>
      </trkpt>
      <trkpt lat="48.6315130" lon="14.2354810">
        <ele>737.4</ele>
        <time>2019-08-07T11:05:11Z</time>
      </trkpt>
      <trkpt lat="48.6315070" lon="14.2355470">
        <ele>737.4</ele>
        <time>2019-08-07T11:05:12Z</time>
      </trkpt>
      <trkpt lat="48.6315050" lon="14.2356120">
        <ele>737.4</ele>
        <time>2019-08-07T11:05:13Z</time>
      </trkpt>
      <trkpt lat="48.6315020" lon="14.2356740">
        <ele>737.4</ele>
        <time>2019-08-07T11:05:14Z</time>
      </trkpt>
      <trkpt lat="48.6315020" lon="14.2357400">
        <ele>737.4</ele>
        <time>2019-08-07T11:05:15Z</time>
      </trkpt>
      <trkpt lat="48.6315040" lon="14.2358030">
        <ele>737.4</ele>
        <time>2019-08-07T11:05:16Z</time>
      </trkpt>
      <trkpt lat="48.6315110" lon="14.2358720">
        <ele>737.2</ele>
        <time>2019-08-07T11:05:17Z</time>
      </trkpt>
      <trkpt lat="48.6315230" lon="14.2359340">
        <ele>737.2</ele>
        <time>2019-08-07T11:05:18Z</time>
      </trkpt>
      <trkpt lat="48.6315380" lon="14.2359930">
        <ele>737.4</ele>
        <time>2019-08-07T11:05:19Z</time>
      </trkpt>
      <trkpt lat="48.6315560" lon="14.2360440">
        <ele>737.4</ele>
        <time>2019-08-07T11:05:20Z</time>
      </trkpt>
      <trkpt lat="48.6315770" lon="14.2360950">
        <ele>737.4</ele>
        <time>2019-08-07T11:05:21Z</time>
      </trkpt>
      <trkpt lat="48.6315980" lon="14.2361390">
        <ele>737.6</ele>
        <time>2019-08-07T11:05:22Z</time>
      </trkpt>
      <trkpt lat="48.6316200" lon="14.2361820">
        <ele>737.8</ele>
        <time>2019-08-07T11:05:23Z</time>
      </trkpt>
      <trkpt lat="48.6316410" lon="14.2362180">
        <ele>737.8</ele>
        <time>2019-08-07T11:05:24Z</time>
      </trkpt>
      <trkpt lat="48.6316670" lon="14.2362590">
        <ele>737.8</ele>
        <time>2019-08-07T11:05:25Z</time>
      </trkpt>
      <trkpt lat="48.6316870" lon="14.2362900">
        <ele>737.8</ele>
        <time>2019-08-07T11:05:26Z</time>
      </trkpt>
      <trkpt lat="48.6317160" lon="14.2363240">
        <ele>737.8</ele>
        <time>2019-08-07T11:05:27Z</time>
      </trkpt>
      <trkpt lat="48.6317410" lon="14.2363530">
        <ele>737.8</ele>
        <time>2019-08-07T11:05:28Z</time>
      </trkpt>
      <trkpt lat="48.6317700" lon="14.2363800">
        <ele>737.8</ele>
        <time>2019-08-07T11:05:29Z</time>
      </trkpt>
      <trkpt lat="48.6317980" lon="14.2364030">
        <ele>737.8</ele>
        <time>2019-08-07T11:05:30Z</time>
      </trkpt>
      <trkpt lat="48.6318290" lon="14.2364210">
        <ele>737.8</ele>
        <time>2019-08-07T11:05:31Z</time>
      </trkpt>
      <trkpt lat="48.6318600" lon="14.2364390">
        <ele>737.6</ele>
        <time>2019-08-07T11:05:32Z</time>
      </trkpt>
      <trkpt lat="48.6318910" lon="14.2364570">
        <ele>737.6</ele>
        <time>2019-08-07T11:05:33Z</time>
      </trkpt>
      <trkpt lat="48.6319220" lon="14.2364780">
        <ele>737.6</ele>
        <time>2019-08-07T11:05:34Z</time>
      </trkpt>
      <trkpt lat="48.6319520" lon="14.2365010">
        <ele>737.6</ele>
        <time>2019-08-07T11:05:35Z</time>
      </trkpt>
      <trkpt lat="48.6319810" lon="14.2365210">
        <ele>737.6</ele>
        <time>2019-08-07T11:05:36Z</time>
      </trkpt>
      <trkpt lat="48.6320120" lon="14.2365400">
        <ele>737.6</ele>
        <time>2019-08-07T11:05:37Z</time>
      </trkpt>
      <trkpt lat="48.6320410" lon="14.2365600">
        <ele>737.6</ele>
        <time>2019-08-07T11:05:38Z</time>
      </trkpt>
      <trkpt lat="48.6320710" lon="14.2365820">
        <ele>737.6</ele>
        <time>2019-08-07T11:05:39Z</time>
      </trkpt>
      <trkpt lat="48.6320990" lon="14.2366020">
        <ele>737.6</ele>
        <time>2019-08-07T11:05:40Z</time>
      </trkpt>
      <trkpt lat="48.6321290" lon="14.2366210">
        <ele>737.6</ele>
        <time>2019-08-07T11:05:41Z</time>
      </trkpt>
      <trkpt lat="48.6321560" lon="14.2366390">
        <ele>737.6</ele>
        <time>2019-08-07T11:05:42Z</time>
      </trkpt>
      <trkpt lat="48.6321870" lon="14.2366580">
        <ele>737.4</ele>
        <time>2019-08-07T11:05:43Z</time>
      </trkpt>
      <trkpt lat="48.6322130" lon="14.2366740">
        <ele>737.4</ele>
        <time>2019-08-07T11:05:44Z</time>
      </trkpt>
      <trkpt lat="48.6322380" lon="14.2366910">
        <ele>737.4</ele>
        <time>2019-08-07T11:05:45Z</time>
      </trkpt>
      <trkpt lat="48.6322590" lon="14.2367040">
        <ele>737.4</ele>
        <time>2019-08-07T11:05:46Z</time>
      </trkpt>
      <trkpt lat="48.6322780" lon="14.2367180">
        <ele>737.4</ele>
        <time>2019-08-07T11:05:47Z</time>
      </trkpt>
      <trkpt lat="48.6322990" lon="14.2367320">
        <ele>737.4</ele>
        <time>2019-08-07T11:05:48Z</time>
      </trkpt>
      <trkpt lat="48.6323240" lon="14.2367490">
        <ele>737.4</ele>
        <time>2019-08-07T11:05:49Z</time>
      </trkpt>
      <trkpt lat="48.6323490" lon="14.2367640">
        <ele>737.2</ele>
        <time>2019-08-07T11:05:50Z</time>
      </trkpt>
      <trkpt lat="48.6323800" lon="14.2367840">
        <ele>737.2</ele>
        <time>2019-08-07T11:05:51Z</time>
      </trkpt>
      <trkpt lat="48.6324110" lon="14.2368040">
        <ele>737.4</ele>
        <time>2019-08-07T11:05:52Z</time>
      </trkpt>
      <trkpt lat="48.6324420" lon="14.2368250">
        <ele>737.4</ele>
        <time>2019-08-07T11:05:53Z</time>
      </trkpt>
      <trkpt lat="48.6324720" lon="14.2368430">
        <ele>737.4</ele>
        <time>2019-08-07T11:05:54Z</time>
      </trkpt>
      <trkpt lat="48.6325040" lon="14.2368610">
        <ele>737.4</ele>
        <time>2019-08-07T11:05:55Z</time>
      </trkpt>
      <trkpt lat="48.6325350" lon="14.2368780">
        <ele>737.4</ele>
        <time>2019-08-07T11:05:56Z</time>
      </trkpt>
      <trkpt lat="48.6325670" lon="14.2368970">
        <ele>737.4</ele>
        <time>2019-08-07T11:05:57Z</time>
      </trkpt>
      <trkpt lat="48.6326000" lon="14.2369180">
        <ele>737.4</ele>
        <time>2019-08-07T11:05:58Z</time>
      </trkpt>
      <trkpt lat="48.6326320" lon="14.2369400">
        <ele>737.4</ele>
        <time>2019-08-07T11:05:59Z</time>
      </trkpt>
      <trkpt lat="48.6326630" lon="14.2369610">
        <ele>737.6</ele>
        <time>2019-08-07T11:06:00Z</time>
      </trkpt>
      <trkpt lat="48.6326960" lon="14.2369830">
        <ele>737.6</ele>
        <time>2019-08-07T11:06:01Z</time>
      </trkpt>
      <trkpt lat="48.6327280" lon="14.2370040">
        <ele>737.6</ele>
        <time>2019-08-07T11:06:02Z</time>
      </trkpt>
      <trkpt lat="48.6327590" lon="14.2370250">
        <ele>737.6</ele>
        <time>2019-08-07T11:06:03Z</time>
      </trkpt>
      <trkpt lat="48.6327890" lon="14.2370440">
        <ele>737.6</ele>
        <time>2019-08-07T11:06:04Z</time>
      </trkpt>
      <trkpt lat="48.6328220" lon="14.2370640">
        <ele>737.6</ele>
        <time>2019-08-07T11:06:05Z</time>
      </trkpt>
      <trkpt lat="48.6328540" lon="14.2370840">
        <ele>737.6</ele>
        <time>2019-08-07T11:06:06Z</time>
      </trkpt>
      <trkpt lat="48.6328870" lon="14.2371040">
        <ele>737.6</ele>
        <time>2019-08-07T11:06:07Z</time>
      </trkpt>
      <trkpt lat="48.6329180" lon="14.2371260">
        <ele>737.6</ele>
        <time>2019-08-07T11:06:08Z</time>
      </trkpt>
      <trkpt lat="48.6329500" lon="14.2371460">
        <ele>737.8</ele>
        <time>2019-08-07T11:06:09Z</time>
      </trkpt>
      <trkpt lat="48.6329790" lon="14.2371640">
        <ele>737.8</ele>
        <time>2019-08-07T11:06:10Z</time>
      </trkpt>
      <trkpt lat="48.6330110" lon="14.2371810">
        <ele>737.6</ele>
        <time>2019-08-07T11:06:11Z</time>
      </trkpt>
      <trkpt lat="48.6330390" lon="14.2371990">
        <ele>737.6</ele>
        <time>2019-08-07T11:06:12Z</time>
      </trkpt>
      <trkpt lat="48.6330700" lon="14.2372200">
        <ele>737.6</ele>
        <time>2019-08-07T11:06:13Z</time>
      </trkpt>
      <trkpt lat="48.6330980" lon="14.2372360">
        <ele>737.6</ele>
        <time>2019-08-07T11:06:14Z</time>
      </trkpt>
      <trkpt lat="48.6331300" lon="14.2372580">
        <ele>737.6</ele>
        <time>2019-08-07T11:06:15Z</time>
      </trkpt>
      <trkpt lat="48.6331570" lon="14.2372760">
        <ele>737.6</ele>
        <time>2019-08-07T11:06:16Z</time>
      </trkpt>
      <trkpt lat="48.6331890" lon="14.2372980">
        <ele>737.4</ele>
        <time>2019-08-07T11:06:17Z</time>
      </trkpt>
      <trkpt lat="48.6332180" lon="14.2373140">
        <ele>737.4</ele>
        <time>2019-08-07T11:06:18Z</time>
      </trkpt>
      <trkpt lat="48.6332480" lon="14.2373320">
        <ele>737.4</ele>
        <time>2019-08-07T11:06:19Z</time>
      </trkpt>
      <trkpt lat="48.6332790" lon="14.2373520">
        <ele>737.4</ele>
        <time>2019-08-07T11:06:20Z</time>
      </trkpt>
      <trkpt lat="48.6333070" lon="14.2373730">
        <ele>737.4</ele>
        <time>2019-08-07T11:06:21Z</time>
      </trkpt>
      <trkpt lat="48.6333370" lon="14.2373930">
        <ele>737.4</ele>
        <time>2019-08-07T11:06:22Z</time>
      </trkpt>
      <trkpt lat="48.6333650" lon="14.2374130">
        <ele>737.4</ele>
        <time>2019-08-07T11:06:23Z</time>
      </trkpt>
      <trkpt lat="48.6333920" lon="14.2374300">
        <ele>737.4</ele>
        <time>2019-08-07T11:06:24Z</time>
      </trkpt>
      <trkpt lat="48.6334220" lon="14.2374500">
        <ele>737.4</ele>
        <time>2019-08-07T11:06:25Z</time>
      </trkpt>
      <trkpt lat="48.6334530" lon="14.2374690">
        <ele>737.4</ele>
        <time>2019-08-07T11:06:26Z</time>
      </trkpt>
      <trkpt lat="48.6334820" lon="14.2374900">
        <ele>737.4</ele>
        <time>2019-08-07T11:06:27Z</time>
      </trkpt>
      <trkpt lat="48.6335100" lon="14.2375060">
        <ele>737.4</ele>
        <time>2019-08-07T11:06:28Z</time>
      </trkpt>
      <trkpt lat="48.6335400" lon="14.2375250">
        <ele>737.4</ele>
        <time>2019-08-07T11:06:29Z</time>
      </trkpt>
      <trkpt lat="48.6335660" lon="14.2375420">
        <ele>737.4</ele>
        <time>2019-08-07T11:06:30Z</time>
      </trkpt>
      <trkpt lat="48.6335950" lon="14.2375590">
        <ele>737.4</ele>
        <time>2019-08-07T11:06:31Z</time>
      </trkpt>
      <trkpt lat="48.6336210" lon="14.2375760">
        <ele>737.4</ele>
        <time>2019-08-07T11:06:32Z</time>
      </trkpt>
      <trkpt lat="48.6336480" lon="14.2375920">
        <ele>737.4</ele>
        <time>2019-08-07T11:06:33Z</time>
      </trkpt>
      <trkpt lat="48.6336710" lon="14.2375980">
        <ele>737.4</ele>
        <time>2019-08-07T11:06:34Z</time>
      </trkpt>
      <trkpt lat="48.6336870" lon="14.2376000">
        <ele>737.4</ele>
        <time>2019-08-07T11:06:35Z</time>
      </trkpt>
      <trkpt lat="48.6337010" lon="14.2376000">
        <ele>737.4</ele>
        <time>2019-08-07T11:06:36Z</time>
      </trkpt>
      <trkpt lat="48.6337160" lon="14.2375950">
        <ele>737.4</ele>
        <time>2019-08-07T11:06:37Z</time>
      </trkpt>
      <trkpt lat="48.6337350" lon="14.2375960">
        <ele>737.2</ele>
        <time>2019-08-07T11:06:38Z</time>
      </trkpt>
      <trkpt lat="48.6337520" lon="14.2376170">
        <ele>737.2</ele>
        <time>2019-08-07T11:06:39Z</time>
      </trkpt>
      <trkpt lat="48.6337600" lon="14.2376460">
        <ele>737.2</ele>
        <time>2019-08-07T11:06:40Z</time>
      </trkpt>
      <trkpt lat="48.6337600" lon="14.2376770">
        <ele>737.2</ele>
        <time>2019-08-07T11:06:41Z</time>
      </trkpt>
      <trkpt lat="48.6337530" lon="14.2377070">
        <ele>737.2</ele>
        <time>2019-08-07T11:06:42Z</time>
      </trkpt>
      <trkpt lat="48.6337420" lon="14.2377270">
        <ele>737.2</ele>
        <time>2019-08-07T11:06:43Z</time>
      </trkpt>
      <trkpt lat="48.6337240" lon="14.2377520">
        <ele>737.2</ele>
        <time>2019-08-07T11:06:44Z</time>
      </trkpt>
      <trkpt lat="48.6337070" lon="14.2377770">
        <ele>737.2</ele>
        <time>2019-08-07T11:06:45Z</time>
      </trkpt>
      <trkpt lat="48.6336890" lon="14.2378050">
        <ele>737.2</ele>
        <time>2019-08-07T11:06:46Z</time>
      </trkpt>
      <trkpt lat="48.6336720" lon="14.2378340">
        <ele>737.2</ele>
        <time>2019-08-07T11:06:47Z</time>
      </trkpt>
      <trkpt lat="48.6336620" lon="14.2378600">
        <ele>737.2</ele>
        <time>2019-08-07T11:06:48Z</time>
      </trkpt>
      <trkpt lat="48.6336510" lon="14.2378910">
        <ele>737.2</ele>
        <time>2019-08-07T11:06:49Z</time>
      </trkpt>
      <trkpt lat="48.6336430" lon="14.2379230">
        <ele>737.2</ele>
        <time>2019-08-07T11:06:50Z</time>
      </trkpt>
      <trkpt lat="48.6336350" lon="14.2379550">
        <ele>737.2</ele>
        <time>2019-08-07T11:06:51Z</time>
      </trkpt>
      <trkpt lat="48.6336250" lon="14.2379870">
        <ele>737.2</ele>
        <time>2019-08-07T11:06:52Z</time>
      </trkpt>
      <trkpt lat="48.6336180" lon="14.2380180">
        <ele>737.2</ele>
        <time>2019-08-07T11:06:53Z</time>
      </trkpt>
      <trkpt lat="48.6336110" lon="14.2380490">
        <ele>737.2</ele>
        <time>2019-08-07T11:06:54Z</time>
      </trkpt>
      <trkpt lat="48.6336060" lon="14.2380770">
        <ele>737.2</ele>
        <time>2019-08-07T11:06:55Z</time>
      </trkpt>
      <trkpt lat="48.6336010" lon="14.2381050">
        <ele>737.2</ele>
        <time>2019-08-07T11:06:56Z</time>
      </trkpt>
      <trkpt lat="48.6335950" lon="14.2381320">
        <ele>737.2</ele>
        <time>2019-08-07T11:06:57Z</time>
      </trkpt>
      <trkpt lat="48.6335880" lon="14.2381550">
        <ele>737.2</ele>
        <time>2019-08-07T11:06:58Z</time>
      </trkpt>
      <trkpt lat="48.6335830" lon="14.2381810">
        <ele>737.2</ele>
        <time>2019-08-07T11:06:59Z</time>
      </trkpt>
      <trkpt lat="48.6335780" lon="14.2382050">
        <ele>737.2</ele>
        <time>2019-08-07T11:07:00Z</time>
      </trkpt>
      <trkpt lat="48.6335750" lon="14.2382260">
        <ele>737.2</ele>
        <time>2019-08-07T11:07:01Z</time>
      </trkpt>
      <trkpt lat="48.6335720" lon="14.2382420">
        <ele>737.2</ele>
        <time>2019-08-07T11:07:02Z</time>
      </trkpt>
      <trkpt lat="48.6335660" lon="14.2382630">
        <ele>737.2</ele>
        <time>2019-08-07T11:07:03Z</time>
      </trkpt>
      <trkpt lat="48.6335590" lon="14.2382880">
        <ele>737.2</ele>
        <time>2019-08-07T11:07:04Z</time>
      </trkpt>
      <trkpt lat="48.6335510" lon="14.2383150">
        <ele>737.2</ele>
        <time>2019-08-07T11:07:05Z</time>
      </trkpt>
      <trkpt lat="48.6335450" lon="14.2383380">
        <ele>737.2</ele>
        <time>2019-08-07T11:07:06Z</time>
      </trkpt>
      <trkpt lat="48.6335360" lon="14.2383650">
        <ele>737.2</ele>
        <time>2019-08-07T11:07:07Z</time>
      </trkpt>
      <trkpt lat="48.6335310" lon="14.2383920">
        <ele>737.2</ele>
        <time>2019-08-07T11:07:08Z</time>
      </trkpt>
      <trkpt lat="48.6335240" lon="14.2384210">
        <ele>737.2</ele>
        <time>2019-08-07T11:07:09Z</time>
      </trkpt>
      <trkpt lat="48.6335140" lon="14.2384630">
        <ele>737.0</ele>
        <time>2019-08-07T11:07:10Z</time>
      </trkpt>
      <trkpt lat="48.6335050" lon="14.2385030">
        <ele>737.0</ele>
        <time>2019-08-07T11:07:11Z</time>
      </trkpt>
      <trkpt lat="48.6334930" lon="14.2385420">
        <ele>736.8</ele>
        <time>2019-08-07T11:07:12Z</time>
      </trkpt>
      <trkpt lat="48.6334800" lon="14.2385800">
        <ele>736.6</ele>
        <time>2019-08-07T11:07:13Z</time>
      </trkpt>
      <trkpt lat="48.6334700" lon="14.2386200">
        <ele>736.4</ele>
        <time>2019-08-07T11:07:14Z</time>
      </trkpt>
      <trkpt lat="48.6334630" lon="14.2386620">
        <ele>736.2</ele>
        <time>2019-08-07T11:07:15Z</time>
      </trkpt>
      <trkpt lat="48.6334560" lon="14.2387100">
        <ele>736.0</ele>
        <time>2019-08-07T11:07:16Z</time>
      </trkpt>
      <trkpt lat="48.6334520" lon="14.2387590">
        <ele>735.8</ele>
        <time>2019-08-07T11:07:17Z</time>
      </trkpt>
      <trkpt lat="48.6334500" lon="14.2388180">
        <ele>735.6</ele>
        <time>2019-08-07T11:07:18Z</time>
      </trkpt>
      <trkpt lat="48.6334530" lon="14.2388760">
        <ele>735.2</ele>
        <time>2019-08-07T11:07:19Z</time>
      </trkpt>
      <trkpt lat="48.6334530" lon="14.2389290">
        <ele>735.0</ele>
        <time>2019-08-07T11:07:20Z</time>
      </trkpt>
      <trkpt lat="48.6334500" lon="14.2389730">
        <ele>734.6</ele>
        <time>2019-08-07T11:07:21Z</time>
      </trkpt>
      <trkpt lat="48.6334470" lon="14.2390090">
        <ele>734.4</ele>
        <time>2019-08-07T11:07:22Z</time>
      </trkpt>
      <trkpt lat="48.6334470" lon="14.2390360">
        <ele>734.0</ele>
        <time>2019-08-07T11:07:23Z</time>
      </trkpt>
      <trkpt lat="48.6334470" lon="14.2390540">
        <ele>733.8</ele>
        <time>2019-08-07T11:07:24Z</time>
      </trkpt>
      <trkpt lat="48.6334470" lon="14.2390690">
        <ele>733.6</ele>
        <time>2019-08-07T11:07:25Z</time>
      </trkpt>
      <trkpt lat="48.6334480" lon="14.2390990">
        <ele>733.4</ele>
        <time>2019-08-07T11:07:26Z</time>
      </trkpt>
      <trkpt lat="48.6334480" lon="14.2391180">
        <ele>733.4</ele>
        <time>2019-08-07T11:07:27Z</time>
      </trkpt>
      <trkpt lat="48.6334490" lon="14.2391380">
        <ele>733.2</ele>
        <time>2019-08-07T11:07:28Z</time>
      </trkpt>
      <trkpt lat="48.6334500" lon="14.2391580">
        <ele>733.0</ele>
        <time>2019-08-07T11:07:29Z</time>
      </trkpt>
      <trkpt lat="48.6334510" lon="14.2391780">
        <ele>732.8</ele>
        <time>2019-08-07T11:07:30Z</time>
      </trkpt>
      <trkpt lat="48.6334510" lon="14.2391970">
        <ele>732.8</ele>
        <time>2019-08-07T11:07:31Z</time>
      </trkpt>
      <trkpt lat="48.6334520" lon="14.2392170">
        <ele>732.6</ele>
        <time>2019-08-07T11:07:32Z</time>
      </trkpt>
      <trkpt lat="48.6334550" lon="14.2392550">
        <ele>732.4</ele>
        <time>2019-08-07T11:07:33Z</time>
      </trkpt>
      <trkpt lat="48.6334530" lon="14.2392960">
        <ele>732.2</ele>
        <time>2019-08-07T11:07:34Z</time>
      </trkpt>
      <trkpt lat="48.6334520" lon="14.2393450">
        <ele>732.0</ele>
        <time>2019-08-07T11:07:35Z</time>
      </trkpt>
      <trkpt lat="48.6334520" lon="14.2393970">
        <ele>731.8</ele>
        <time>2019-08-07T11:07:36Z</time>
      </trkpt>
      <trkpt lat="48.6334540" lon="14.2394540">
        <ele>731.4</ele>
        <time>2019-08-07T11:07:37Z</time>
      </trkpt>
      <trkpt lat="48.6334590" lon="14.2395140">
        <ele>731.2</ele>
        <time>2019-08-07T11:07:38Z</time>
      </trkpt>
      <trkpt lat="48.6334650" lon="14.2395890">
        <ele>731.0</ele>
        <time>2019-08-07T11:07:39Z</time>
      </trkpt>
      <trkpt lat="48.6334680" lon="14.2396680">
        <ele>730.6</ele>
        <time>2019-08-07T11:07:40Z</time>
      </trkpt>
      <trkpt lat="48.6334700" lon="14.2397620">
        <ele>730.2</ele>
        <time>2019-08-07T11:07:41Z</time>
      </trkpt>
      <trkpt lat="48.6334700" lon="14.2398580">
        <ele>729.8</ele>
        <time>2019-08-07T11:07:42Z</time>
      </trkpt>
      <trkpt lat="48.6334700" lon="14.2399460">
        <ele>729.4</ele>
        <time>2019-08-07T11:07:43Z</time>
      </trkpt>
      <trkpt lat="48.6334680" lon="14.2400410">
        <ele>729.0</ele>
        <time>2019-08-07T11:07:44Z</time>
      </trkpt>
      <trkpt lat="48.6334680" lon="14.2401360">
        <ele>728.4</ele>
        <time>2019-08-07T11:07:45Z</time>
      </trkpt>
      <trkpt lat="48.6334680" lon="14.2402430">
        <ele>728.0</ele>
        <time>2019-08-07T11:07:46Z</time>
      </trkpt>
      <trkpt lat="48.6334680" lon="14.2403530">
        <ele>727.4</ele>
        <time>2019-08-07T11:07:47Z</time>
      </trkpt>
      <trkpt lat="48.6334680" lon="14.2404690">
        <ele>727.0</ele>
        <time>2019-08-07T11:07:48Z</time>
      </trkpt>
      <trkpt lat="48.6334680" lon="14.2405850">
        <ele>726.4</ele>
        <time>2019-08-07T11:07:49Z</time>
      </trkpt>
      <trkpt lat="48.6334680" lon="14.2407040">
        <ele>725.8</ele>
        <time>2019-08-07T11:07:50Z</time>
      </trkpt>
      <trkpt lat="48.6334650" lon="14.2408100">
        <ele>725.2</ele>
        <time>2019-08-07T11:07:51Z</time>
      </trkpt>
      <trkpt lat="48.6334580" lon="14.2409100">
        <ele>724.4</ele>
        <time>2019-08-07T11:07:52Z</time>
      </trkpt>
      <trkpt lat="48.6334480" lon="14.2409980">
        <ele>723.8</ele>
        <time>2019-08-07T11:07:53Z</time>
      </trkpt>
      <trkpt lat="48.6334340" lon="14.2410900">
        <ele>723.2</ele>
        <time>2019-08-07T11:07:54Z</time>
      </trkpt>
      <trkpt lat="48.6334130" lon="14.2411740">
        <ele>722.6</ele>
        <time>2019-08-07T11:07:55Z</time>
      </trkpt>
      <trkpt lat="48.6333890" lon="14.2412500">
        <ele>722.0</ele>
        <time>2019-08-07T11:07:56Z</time>
      </trkpt>
      <trkpt lat="48.6333680" lon="14.2413080">
        <ele>721.6</ele>
        <time>2019-08-07T11:07:57Z</time>
      </trkpt>
      <trkpt lat="48.6333490" lon="14.2413620">
        <ele>721.2</ele>
        <time>2019-08-07T11:07:58Z</time>
      </trkpt>
      <trkpt lat="48.6333310" lon="14.2414030">
        <ele>721.0</ele>
        <time>2019-08-07T11:07:59Z</time>
      </trkpt>
      <trkpt lat="48.6333120" lon="14.2414440">
        <ele>720.6</ele>
        <time>2019-08-07T11:08:00Z</time>
      </trkpt>
      <trkpt lat="48.6332950" lon="14.2414780">
        <ele>720.4</ele>
        <time>2019-08-07T11:08:01Z</time>
      </trkpt>
      <trkpt lat="48.6332740" lon="14.2415090">
        <ele>720.2</ele>
        <time>2019-08-07T11:08:02Z</time>
      </trkpt>
      <trkpt lat="48.6332580" lon="14.2415330">
        <ele>720.0</ele>
        <time>2019-08-07T11:08:03Z</time>
      </trkpt>
      <trkpt lat="48.6332420" lon="14.2415520">
        <ele>719.8</ele>
        <time>2019-08-07T11:08:04Z</time>
      </trkpt>
      <trkpt lat="48.6332310" lon="14.2415740">
        <ele>719.8</ele>
        <time>2019-08-07T11:08:05Z</time>
      </trkpt>
      <trkpt lat="48.6332250" lon="14.2416020">
        <ele>719.6</ele>
        <time>2019-08-07T11:08:06Z</time>
      </trkpt>
      <trkpt lat="48.6332220" lon="14.2416320">
        <ele>719.6</ele>
        <time>2019-08-07T11:08:07Z</time>
      </trkpt>
      <trkpt lat="48.6332240" lon="14.2416600">
        <ele>719.4</ele>
        <time>2019-08-07T11:08:08Z</time>
      </trkpt>
      <trkpt lat="48.6332290" lon="14.2416870">
        <ele>719.4</ele>
        <time>2019-08-07T11:08:09Z</time>
      </trkpt>
      <trkpt lat="48.6332370" lon="14.2417150">
        <ele>719.4</ele>
        <time>2019-08-07T11:08:10Z</time>
      </trkpt>
      <trkpt lat="48.6332480" lon="14.2417450">
        <ele>719.2</ele>
        <time>2019-08-07T11:08:11Z</time>
      </trkpt>
      <trkpt lat="48.6332610" lon="14.2417790">
        <ele>719.2</ele>
        <time>2019-08-07T11:08:12Z</time>
      </trkpt>
      <trkpt lat="48.6332760" lon="14.2418230">
        <ele>719.0</ele>
        <time>2019-08-07T11:08:13Z</time>
      </trkpt>
      <trkpt lat="48.6332880" lon="14.2418830">
        <ele>718.8</ele>
        <time>2019-08-07T11:08:14Z</time>
      </trkpt>
      <trkpt lat="48.6332970" lon="14.2419500">
        <ele>718.6</ele>
        <time>2019-08-07T11:08:15Z</time>
      </trkpt>
      <trkpt lat="48.6333070" lon="14.2420350">
        <ele>718.4</ele>
        <time>2019-08-07T11:08:16Z</time>
      </trkpt>
      <trkpt lat="48.6333130" lon="14.2421230">
        <ele>718.2</ele>
        <time>2019-08-07T11:08:17Z</time>
      </trkpt>
      <trkpt lat="48.6333150" lon="14.2422190">
        <ele>717.8</ele>
        <time>2019-08-07T11:08:18Z</time>
      </trkpt>
      <trkpt lat="48.6333110" lon="14.2423380">
        <ele>717.4</ele>
        <time>2019-08-07T11:08:19Z</time>
      </trkpt>
      <trkpt lat="48.6333040" lon="14.2424600">
        <ele>717.2</ele>
        <time>2019-08-07T11:08:20Z</time>
      </trkpt>
      <trkpt lat="48.6332980" lon="14.2425850">
        <ele>716.4</ele>
        <time>2019-08-07T11:08:21Z</time>
      </trkpt>
      <trkpt lat="48.6332850" lon="14.2427360">
        <ele>715.8</ele>
        <time>2019-08-07T11:08:22Z</time>
      </trkpt>
      <trkpt lat="48.6332620" lon="14.2429020">
        <ele>714.8</ele>
        <time>2019-08-07T11:08:23Z</time>
      </trkpt>
      <trkpt lat="48.6332290" lon="14.2430500">
        <ele>714.4</ele>
        <time>2019-08-07T11:08:24Z</time>
      </trkpt>
      <trkpt lat="48.6332030" lon="14.2432180">
        <ele>714.0</ele>
        <time>2019-08-07T11:08:25Z</time>
      </trkpt>
      <trkpt lat="48.6331830" lon="14.2433780">
        <ele>713.4</ele>
        <time>2019-08-07T11:08:26Z</time>
      </trkpt>
      <trkpt lat="48.6331670" lon="14.2435350">
        <ele>713.0</ele>
        <time>2019-08-07T11:08:27Z</time>
      </trkpt>
      <trkpt lat="48.6331520" lon="14.2436890">
        <ele>712.6</ele>
        <time>2019-08-07T11:08:28Z</time>
      </trkpt>
      <trkpt lat="48.6331410" lon="14.2438390">
        <ele>712.2</ele>
        <time>2019-08-07T11:08:29Z</time>
      </trkpt>
      <trkpt lat="48.6331270" lon="14.2439990">
        <ele>712.0</ele>
        <time>2019-08-07T11:08:30Z</time>
      </trkpt>
      <trkpt lat="48.6331140" lon="14.2441510">
        <ele>711.8</ele>
        <time>2019-08-07T11:08:31Z</time>
      </trkpt>
      <trkpt lat="48.6330990" lon="14.2442970">
        <ele>711.4</ele>
        <time>2019-08-07T11:08:32Z</time>
      </trkpt>
      <trkpt lat="48.6330850" lon="14.2444400">
        <ele>711.0</ele>
        <time>2019-08-07T11:08:33Z</time>
      </trkpt>
      <trkpt lat="48.6330800" lon="14.2445650">
        <ele>710.8</ele>
        <time>2019-08-07T11:08:34Z</time>
      </trkpt>
      <trkpt lat="48.6330840" lon="14.2446750">
        <ele>710.4</ele>
        <time>2019-08-07T11:08:35Z</time>
      </trkpt>
      <trkpt lat="48.6330930" lon="14.2447790">
        <ele>710.0</ele>
        <time>2019-08-07T11:08:36Z</time>
      </trkpt>
      <trkpt lat="48.6331050" lon="14.2448690">
        <ele>709.4</ele>
        <time>2019-08-07T11:08:37Z</time>
      </trkpt>
      <trkpt lat="48.6331160" lon="14.2449430">
        <ele>709.0</ele>
        <time>2019-08-07T11:08:38Z</time>
      </trkpt>
      <trkpt lat="48.6331140" lon="14.2450170">
        <ele>708.6</ele>
        <time>2019-08-07T11:08:39Z</time>
      </trkpt>
      <trkpt lat="48.6331000" lon="14.2450950">
        <ele>708.2</ele>
        <time>2019-08-07T11:08:40Z</time>
      </trkpt>
      <trkpt lat="48.6330810" lon="14.2451620">
        <ele>708.0</ele>
        <time>2019-08-07T11:08:41Z</time>
      </trkpt>
      <trkpt lat="48.6330600" lon="14.2452310">
        <ele>707.6</ele>
        <time>2019-08-07T11:08:42Z</time>
      </trkpt>
      <trkpt lat="48.6330400" lon="14.2452960">
        <ele>707.4</ele>
        <time>2019-08-07T11:08:43Z</time>
      </trkpt>
      <trkpt lat="48.6330180" lon="14.2453590">
        <ele>707.4</ele>
        <time>2019-08-07T11:08:44Z</time>
      </trkpt>
      <trkpt lat="48.6329980" lon="14.2454190">
        <ele>707.4</ele>
        <time>2019-08-07T11:08:45Z</time>
      </trkpt>
      <trkpt lat="48.6329800" lon="14.2454770">
        <ele>707.2</ele>
        <time>2019-08-07T11:08:46Z</time>
      </trkpt>
      <trkpt lat="48.6329600" lon="14.2455330">
        <ele>707.0</ele>
        <time>2019-08-07T11:08:47Z</time>
      </trkpt>
      <trkpt lat="48.6329360" lon="14.2455830">
        <ele>707.0</ele>
        <time>2019-08-07T11:08:48Z</time>
      </trkpt>
      <trkpt lat="48.6329110" lon="14.2456270">
        <ele>707.0</ele>
        <time>2019-08-07T11:08:49Z</time>
      </trkpt>
      <trkpt lat="48.6328790" lon="14.2456650">
        <ele>706.8</ele>
        <time>2019-08-07T11:08:50Z</time>
      </trkpt>
      <trkpt lat="48.6328510" lon="14.2456970">
        <ele>706.8</ele>
        <time>2019-08-07T11:08:51Z</time>
      </trkpt>
      <trkpt lat="48.6328250" lon="14.2457250">
        <ele>706.6</ele>
        <time>2019-08-07T11:08:52Z</time>
      </trkpt>
      <trkpt lat="48.6328030" lon="14.2457470">
        <ele>706.6</ele>
        <time>2019-08-07T11:08:53Z</time>
      </trkpt>
      <trkpt lat="48.6327760" lon="14.2457650">
        <ele>706.4</ele>
        <time>2019-08-07T11:08:54Z</time>
      </trkpt>
      <trkpt lat="48.6327470" lon="14.2457810">
        <ele>706.4</ele>
        <time>2019-08-07T11:08:55Z</time>
      </trkpt>
      <trkpt lat="48.6327170" lon="14.2457970">
        <ele>706.4</ele>
        <time>2019-08-07T11:08:56Z</time>
      </trkpt>
      <trkpt lat="48.6326840" lon="14.2458110">
        <ele>706.4</ele>
        <time>2019-08-07T11:08:57Z</time>
      </trkpt>
      <trkpt lat="48.6326540" lon="14.2458260">
        <ele>706.4</ele>
        <time>2019-08-07T11:08:58Z</time>
      </trkpt>
      <trkpt lat="48.6326240" lon="14.2458440">
        <ele>706.4</ele>
        <time>2019-08-07T11:08:59Z</time>
      </trkpt>
      <trkpt lat="48.6325940" lon="14.2458640">
        <ele>706.4</ele>
        <time>2019-08-07T11:09:00Z</time>
      </trkpt>
      <trkpt lat="48.6325610" lon="14.2458850">
        <ele>706.4</ele>
        <time>2019-08-07T11:09:01Z</time>
      </trkpt>
      <trkpt lat="48.6325270" lon="14.2459070">
        <ele>706.4</ele>
        <time>2019-08-07T11:09:02Z</time>
      </trkpt>
      <trkpt lat="48.6324920" lon="14.2459270">
        <ele>706.4</ele>
        <time>2019-08-07T11:09:03Z</time>
      </trkpt>
      <trkpt lat="48.6324570" lon="14.2459500">
        <ele>706.4</ele>
        <time>2019-08-07T11:09:04Z</time>
      </trkpt>
      <trkpt lat="48.6324210" lon="14.2459720">
        <ele>706.4</ele>
        <time>2019-08-07T11:09:05Z</time>
      </trkpt>
      <trkpt lat="48.6323850" lon="14.2459900">
        <ele>706.4</ele>
        <time>2019-08-07T11:09:06Z</time>
      </trkpt>
      <trkpt lat="48.6323480" lon="14.2460060">
        <ele>706.4</ele>
        <time>2019-08-07T11:09:07Z</time>
      </trkpt>
      <trkpt lat="48.6323100" lon="14.2460200">
        <ele>706.2</ele>
        <time>2019-08-07T11:09:08Z</time>
      </trkpt>
      <trkpt lat="48.6322740" lon="14.2460320">
        <ele>706.2</ele>
        <time>2019-08-07T11:09:09Z</time>
      </trkpt>
      <trkpt lat="48.6322330" lon="14.2460440">
        <ele>706.2</ele>
        <time>2019-08-07T11:09:10Z</time>
      </trkpt>
      <trkpt lat="48.6321930" lon="14.2460490">
        <ele>706.2</ele>
        <time>2019-08-07T11:09:11Z</time>
      </trkpt>
      <trkpt lat="48.6321540" lon="14.2460560">
        <ele>706.2</ele>
        <time>2019-08-07T11:09:12Z</time>
      </trkpt>
      <trkpt lat="48.6321110" lon="14.2460650">
        <ele>706.0</ele>
        <time>2019-08-07T11:09:13Z</time>
      </trkpt>
      <trkpt lat="48.6320670" lon="14.2460690">
        <ele>706.0</ele>
        <time>2019-08-07T11:09:14Z</time>
      </trkpt>
      <trkpt lat="48.6320230" lon="14.2460720">
        <ele>706.0</ele>
        <time>2019-08-07T11:09:15Z</time>
      </trkpt>
      <trkpt lat="48.6319760" lon="14.2460810">
        <ele>705.8</ele>
        <time>2019-08-07T11:09:16Z</time>
      </trkpt>
      <trkpt lat="48.6319330" lon="14.2460890">
        <ele>705.8</ele>
        <time>2019-08-07T11:09:17Z</time>
      </trkpt>
      <trkpt lat="48.6318890" lon="14.2461020">
        <ele>705.6</ele>
        <time>2019-08-07T11:09:18Z</time>
      </trkpt>
      <trkpt lat="48.6318460" lon="14.2461230">
        <ele>705.6</ele>
        <time>2019-08-07T11:09:19Z</time>
      </trkpt>
      <trkpt lat="48.6318070" lon="14.2461510">
        <ele>705.4</ele>
        <time>2019-08-07T11:09:20Z</time>
      </trkpt>
      <trkpt lat="48.6317700" lon="14.2461830">
        <ele>705.4</ele>
        <time>2019-08-07T11:09:21Z</time>
      </trkpt>
      <trkpt lat="48.6317350" lon="14.2462170">
        <ele>705.2</ele>
        <time>2019-08-07T11:09:22Z</time>
      </trkpt>
      <trkpt lat="48.6316970" lon="14.2462550">
        <ele>705.0</ele>
        <time>2019-08-07T11:09:23Z</time>
      </trkpt>
      <trkpt lat="48.6316610" lon="14.2462960">
        <ele>704.8</ele>
        <time>2019-08-07T11:09:24Z</time>
      </trkpt>
      <trkpt lat="48.6316300" lon="14.2463210">
        <ele>704.8</ele>
        <time>2019-08-07T11:09:25Z</time>
      </trkpt>
      <trkpt lat="48.6315980" lon="14.2463240">
        <ele>704.8</ele>
        <time>2019-08-07T11:09:26Z</time>
      </trkpt>
      <trkpt lat="48.6315650" lon="14.2463160">
        <ele>704.8</ele>
        <time>2019-08-07T11:09:27Z</time>
      </trkpt>
      <trkpt lat="48.6315300" lon="14.2463060">
        <ele>704.8</ele>
        <time>2019-08-07T11:09:28Z</time>
      </trkpt>
      <trkpt lat="48.6314910" lon="14.2462940">
        <ele>704.8</ele>
        <time>2019-08-07T11:09:29Z</time>
      </trkpt>
      <trkpt lat="48.6314490" lon="14.2462860">
        <ele>704.8</ele>
        <time>2019-08-07T11:09:30Z</time>
      </trkpt>
      <trkpt lat="48.6314080" lon="14.2462800">
        <ele>704.8</ele>
        <time>2019-08-07T11:09:31Z</time>
      </trkpt>
      <trkpt lat="48.6313630" lon="14.2462750">
        <ele>704.8</ele>
        <time>2019-08-07T11:09:32Z</time>
      </trkpt>
      <trkpt lat="48.6313180" lon="14.2462720">
        <ele>704.8</ele>
        <time>2019-08-07T11:09:33Z</time>
      </trkpt>
      <trkpt lat="48.6312720" lon="14.2462720">
        <ele>704.8</ele>
        <time>2019-08-07T11:09:34Z</time>
      </trkpt>
      <trkpt lat="48.6312240" lon="14.2462730">
        <ele>704.8</ele>
        <time>2019-08-07T11:09:35Z</time>
      </trkpt>
      <trkpt lat="48.6311750" lon="14.2462750">
        <ele>704.8</ele>
        <time>2019-08-07T11:09:36Z</time>
      </trkpt>
      <trkpt lat="48.6311240" lon="14.2462790">
        <ele>704.6</ele>
        <time>2019-08-07T11:09:37Z</time>
      </trkpt>
      <trkpt lat="48.6310750" lon="14.2462840">
        <ele>704.6</ele>
        <time>2019-08-07T11:09:38Z</time>
      </trkpt>
      <trkpt lat="48.6310270" lon="14.2462900">
        <ele>704.6</ele>
        <time>2019-08-07T11:09:39Z</time>
      </trkpt>
      <trkpt lat="48.6309770" lon="14.2462920">
        <ele>704.6</ele>
        <time>2019-08-07T11:09:40Z</time>
      </trkpt>
      <trkpt lat="48.6309270" lon="14.2462970">
        <ele>704.6</ele>
        <time>2019-08-07T11:09:41Z</time>
      </trkpt>
      <trkpt lat="48.6308770" lon="14.2463040">
        <ele>704.6</ele>
        <time>2019-08-07T11:09:42Z</time>
      </trkpt>
      <trkpt lat="48.6308260" lon="14.2463090">
        <ele>704.6</ele>
        <time>2019-08-07T11:09:43Z</time>
      </trkpt>
      <trkpt lat="48.6307740" lon="14.2463100">
        <ele>704.6</ele>
        <time>2019-08-07T11:09:44Z</time>
      </trkpt>
      <trkpt lat="48.6307240" lon="14.2463140">
        <ele>704.6</ele>
        <time>2019-08-07T11:09:45Z</time>
      </trkpt>
      <trkpt lat="48.6306720" lon="14.2463170">
        <ele>704.6</ele>
        <time>2019-08-07T11:09:46Z</time>
      </trkpt>
      <trkpt lat="48.6306220" lon="14.2463220">
        <ele>704.6</ele>
        <time>2019-08-07T11:09:47Z</time>
      </trkpt>
      <trkpt lat="48.6305710" lon="14.2463290">
        <ele>704.6</ele>
        <time>2019-08-07T11:09:48Z</time>
      </trkpt>
      <trkpt lat="48.6305200" lon="14.2463390">
        <ele>704.4</ele>
        <time>2019-08-07T11:09:49Z</time>
      </trkpt>
      <trkpt lat="48.6304690" lon="14.2463560">
        <ele>704.4</ele>
        <time>2019-08-07T11:09:50Z</time>
      </trkpt>
      <trkpt lat="48.6304150" lon="14.2463790">
        <ele>704.4</ele>
        <time>2019-08-07T11:09:51Z</time>
      </trkpt>
      <trkpt lat="48.6303620" lon="14.2464000">
        <ele>704.4</ele>
        <time>2019-08-07T11:09:52Z</time>
      </trkpt>
      <trkpt lat="48.6303060" lon="14.2464240">
        <ele>704.2</ele>
        <time>2019-08-07T11:09:53Z</time>
      </trkpt>
      <trkpt lat="48.6302510" lon="14.2464470">
        <ele>704.2</ele>
        <time>2019-08-07T11:09:54Z</time>
      </trkpt>
      <trkpt lat="48.6301970" lon="14.2464720">
        <ele>704.0</ele>
        <time>2019-08-07T11:09:55Z</time>
      </trkpt>
      <trkpt lat="48.6301430" lon="14.2464970">
        <ele>704.0</ele>
        <time>2019-08-07T11:09:56Z</time>
      </trkpt>
      <trkpt lat="48.6300900" lon="14.2465170">
        <ele>703.8</ele>
        <time>2019-08-07T11:09:57Z</time>
      </trkpt>
      <trkpt lat="48.6300350" lon="14.2465360">
        <ele>703.8</ele>
        <time>2019-08-07T11:09:58Z</time>
      </trkpt>
      <trkpt lat="48.6299810" lon="14.2465610">
        <ele>703.8</ele>
        <time>2019-08-07T11:09:59Z</time>
      </trkpt>
      <trkpt lat="48.6299280" lon="14.2465880">
        <ele>703.8</ele>
        <time>2019-08-07T11:10:00Z</time>
      </trkpt>
      <trkpt lat="48.6298690" lon="14.2466070">
        <ele>703.8</ele>
        <time>2019-08-07T11:10:01Z</time>
      </trkpt>
      <trkpt lat="48.6298100" lon="14.2466250">
        <ele>703.8</ele>
        <time>2019-08-07T11:10:02Z</time>
      </trkpt>
      <trkpt lat="48.6297550" lon="14.2466470">
        <ele>703.8</ele>
        <time>2019-08-07T11:10:03Z</time>
      </trkpt>
      <trkpt lat="48.6297010" lon="14.2466720">
        <ele>703.6</ele>
        <time>2019-08-07T11:10:04Z</time>
      </trkpt>
      <trkpt lat="48.6296410" lon="14.2466930">
        <ele>703.6</ele>
        <time>2019-08-07T11:10:05Z</time>
      </trkpt>
      <trkpt lat="48.6295820" lon="14.2467130">
        <ele>703.6</ele>
        <time>2019-08-07T11:10:06Z</time>
      </trkpt>
      <trkpt lat="48.6295210" lon="14.2467280">
        <ele>703.4</ele>
        <time>2019-08-07T11:10:07Z</time>
      </trkpt>
      <trkpt lat="48.6294590" lon="14.2467450">
        <ele>703.4</ele>
        <time>2019-08-07T11:10:08Z</time>
      </trkpt>
      <trkpt lat="48.6293960" lon="14.2467640">
        <ele>703.4</ele>
        <time>2019-08-07T11:10:09Z</time>
      </trkpt>
      <trkpt lat="48.6293330" lon="14.2467830">
        <ele>703.4</ele>
        <time>2019-08-07T11:10:10Z</time>
      </trkpt>
      <trkpt lat="48.6292710" lon="14.2467990">
        <ele>703.6</ele>
        <time>2019-08-07T11:10:11Z</time>
      </trkpt>
      <trkpt lat="48.6292140" lon="14.2468190">
        <ele>703.6</ele>
        <time>2019-08-07T11:10:12Z</time>
      </trkpt>
      <trkpt lat="48.6291620" lon="14.2468420">
        <ele>703.6</ele>
        <time>2019-08-07T11:10:13Z</time>
      </trkpt>
      <trkpt lat="48.6291070" lon="14.2468660">
        <ele>703.6</ele>
        <time>2019-08-07T11:10:14Z</time>
      </trkpt>
      <trkpt lat="48.6290580" lon="14.2468890">
        <ele>703.6</ele>
        <time>2019-08-07T11:10:15Z</time>
      </trkpt>
      <trkpt lat="48.6290140" lon="14.2469100">
        <ele>703.6</ele>
        <time>2019-08-07T11:10:16Z</time>
      </trkpt>
      <trkpt lat="48.6289730" lon="14.2469340">
        <ele>703.4</ele>
        <time>2019-08-07T11:10:17Z</time>
      </trkpt>
      <trkpt lat="48.6289350" lon="14.2469570">
        <ele>703.4</ele>
        <time>2019-08-07T11:10:18Z</time>
      </trkpt>
      <trkpt lat="48.6288950" lon="14.2469890">
        <ele>703.4</ele>
        <time>2019-08-07T11:10:19Z</time>
      </trkpt>
      <trkpt lat="48.6288590" lon="14.2470280">
        <ele>703.4</ele>
        <time>2019-08-07T11:10:20Z</time>
      </trkpt>
      <trkpt lat="48.6288250" lon="14.2470770">
        <ele>703.4</ele>
        <time>2019-08-07T11:10:21Z</time>
      </trkpt>
      <trkpt lat="48.6288090" lon="14.2471330">
        <ele>703.4</ele>
        <time>2019-08-07T11:10:22Z</time>
      </trkpt>
      <trkpt lat="48.6287930" lon="14.2471880">
        <ele>703.4</ele>
        <time>2019-08-07T11:10:23Z</time>
      </trkpt>
      <trkpt lat="48.6287730" lon="14.2472410">
        <ele>703.6</ele>
        <time>2019-08-07T11:10:24Z</time>
      </trkpt>
      <trkpt lat="48.6287530" lon="14.2472890">
        <ele>703.6</ele>
        <time>2019-08-07T11:10:25Z</time>
      </trkpt>
      <trkpt lat="48.6287290" lon="14.2473310">
        <ele>703.8</ele>
        <time>2019-08-07T11:10:26Z</time>
      </trkpt>
      <trkpt lat="48.6286990" lon="14.2473650">
        <ele>704.0</ele>
        <time>2019-08-07T11:10:27Z</time>
      </trkpt>
      <trkpt lat="48.6286690" lon="14.2473980">
        <ele>704.2</ele>
        <time>2019-08-07T11:10:28Z</time>
      </trkpt>
      <trkpt lat="48.6286400" lon="14.2474290">
        <ele>704.2</ele>
        <time>2019-08-07T11:10:29Z</time>
      </trkpt>
      <trkpt lat="48.6286090" lon="14.2474560">
        <ele>704.4</ele>
        <time>2019-08-07T11:10:30Z</time>
      </trkpt>
      <trkpt lat="48.6285810" lon="14.2474820">
        <ele>704.6</ele>
        <time>2019-08-07T11:10:31Z</time>
      </trkpt>
      <trkpt lat="48.6285560" lon="14.2475040">
        <ele>704.8</ele>
        <time>2019-08-07T11:10:32Z</time>
      </trkpt>
      <trkpt lat="48.6285310" lon="14.2475230">
        <ele>705.0</ele>
        <time>2019-08-07T11:10:33Z</time>
      </trkpt>
      <trkpt lat="48.6285080" lon="14.2475460">
        <ele>705.2</ele>
        <time>2019-08-07T11:10:34Z</time>
      </trkpt>
      <trkpt lat="48.6284850" lon="14.2475720">
        <ele>705.4</ele>
        <time>2019-08-07T11:10:35Z</time>
      </trkpt>
      <trkpt lat="48.6284630" lon="14.2475970">
        <ele>705.6</ele>
        <time>2019-08-07T11:10:36Z</time>
      </trkpt>
      <trkpt lat="48.6284400" lon="14.2476180">
        <ele>705.8</ele>
        <time>2019-08-07T11:10:37Z</time>
      </trkpt>
      <trkpt lat="48.6284200" lon="14.2476400">
        <ele>706.0</ele>
        <time>2019-08-07T11:10:38Z</time>
      </trkpt>
      <trkpt lat="48.6284020" lon="14.2476630">
        <ele>706.4</ele>
        <time>2019-08-07T11:10:39Z</time>
      </trkpt>
      <trkpt lat="48.6283810" lon="14.2476770">
        <ele>706.6</ele>
        <time>2019-08-07T11:10:40Z</time>
      </trkpt>
      <trkpt lat="48.6283580" lon="14.2476930">
        <ele>706.8</ele>
        <time>2019-08-07T11:10:41Z</time>
      </trkpt>
      <trkpt lat="48.6283350" lon="14.2477080">
        <ele>707.0</ele>
        <time>2019-08-07T11:10:42Z</time>
      </trkpt>
      <trkpt lat="48.6283140" lon="14.2477250">
        <ele>707.2</ele>
        <time>2019-08-07T11:10:43Z</time>
      </trkpt>
      <trkpt lat="48.6282950" lon="14.2477430">
        <ele>707.4</ele>
        <time>2019-08-07T11:10:44Z</time>
      </trkpt>
      <trkpt lat="48.6282730" lon="14.2477650">
        <ele>707.6</ele>
        <time>2019-08-07T11:10:45Z</time>
      </trkpt>
      <trkpt lat="48.6282500" lon="14.2477850">
        <ele>707.8</ele>
        <time>2019-08-07T11:10:46Z</time>
      </trkpt>
      <trkpt lat="48.6282260" lon="14.2478030">
        <ele>707.8</ele>
        <time>2019-08-07T11:10:47Z</time>
      </trkpt>
      <trkpt lat="48.6282050" lon="14.2478210">
        <ele>708.0</ele>
        <time>2019-08-07T11:10:48Z</time>
      </trkpt>
      <trkpt lat="48.6281870" lon="14.2478360">
        <ele>708.2</ele>
        <time>2019-08-07T11:10:49Z</time>
      </trkpt>
      <trkpt lat="48.6281640" lon="14.2478460">
        <ele>708.4</ele>
        <time>2019-08-07T11:10:50Z</time>
      </trkpt>
      <trkpt lat="48.6281410" lon="14.2478560">
        <ele>708.6</ele>
        <time>2019-08-07T11:10:51Z</time>
      </trkpt>
      <trkpt lat="48.6281180" lon="14.2478620">
        <ele>708.8</ele>
        <time>2019-08-07T11:10:52Z</time>
      </trkpt>
      <trkpt lat="48.6280970" lon="14.2478650">
        <ele>708.8</ele>
        <time>2019-08-07T11:10:53Z</time>
      </trkpt>
      <trkpt lat="48.6280800" lon="14.2478590">
        <ele>709.0</ele>
        <time>2019-08-07T11:10:54Z</time>
      </trkpt>
      <trkpt lat="48.6280620" lon="14.2478510">
        <ele>709.2</ele>
        <time>2019-08-07T11:10:55Z</time>
      </trkpt>
      <trkpt lat="48.6280450" lon="14.2478440">
        <ele>709.2</ele>
        <time>2019-08-07T11:10:56Z</time>
      </trkpt>
      <trkpt lat="48.6280270" lon="14.2478360">
        <ele>709.4</ele>
        <time>2019-08-07T11:10:57Z</time>
      </trkpt>
      <trkpt lat="48.6280100" lon="14.2478270">
        <ele>709.4</ele>
        <time>2019-08-07T11:10:58Z</time>
      </trkpt>
      <trkpt lat="48.6279910" lon="14.2478170">
        <ele>709.4</ele>
        <time>2019-08-07T11:10:59Z</time>
      </trkpt>
      <trkpt lat="48.6279700" lon="14.2478050">
        <ele>709.4</ele>
        <time>2019-08-07T11:11:00Z</time>
      </trkpt>
      <trkpt lat="48.6279440" lon="14.2477900">
        <ele>709.4</ele>
        <time>2019-08-07T11:11:01Z</time>
      </trkpt>
      <trkpt lat="48.6279190" lon="14.2477700">
        <ele>709.4</ele>
        <time>2019-08-07T11:11:02Z</time>
      </trkpt>
      <trkpt lat="48.6278900" lon="14.2477480">
        <ele>709.2</ele>
        <time>2019-08-07T11:11:03Z</time>
      </trkpt>
      <trkpt lat="48.6278580" lon="14.2477280">
        <ele>709.2</ele>
        <time>2019-08-07T11:11:04Z</time>
      </trkpt>
      <trkpt lat="48.6278230" lon="14.2477010">
        <ele>709.0</ele>
        <time>2019-08-07T11:11:05Z</time>
      </trkpt>
      <trkpt lat="48.6277880" lon="14.2476730">
        <ele>709.0</ele>
        <time>2019-08-07T11:11:06Z</time>
      </trkpt>
      <trkpt lat="48.6277500" lon="14.2476460">
        <ele>708.8</ele>
        <time>2019-08-07T11:11:07Z</time>
      </trkpt>
      <trkpt lat="48.6277090" lon="14.2476210">
        <ele>708.8</ele>
        <time>2019-08-07T11:11:08Z</time>
      </trkpt>
      <trkpt lat="48.6276680" lon="14.2476000">
        <ele>708.6</ele>
        <time>2019-08-07T11:11:09Z</time>
      </trkpt>
      <trkpt lat="48.6276260" lon="14.2475780">
        <ele>708.6</ele>
        <time>2019-08-07T11:11:10Z</time>
      </trkpt>
      <trkpt lat="48.6275850" lon="14.2475590">
        <ele>708.4</ele>
        <time>2019-08-07T11:11:11Z</time>
      </trkpt>
      <trkpt lat="48.6275380" lon="14.2475370">
        <ele>708.4</ele>
        <time>2019-08-07T11:11:12Z</time>
      </trkpt>
      <trkpt lat="48.6274900" lon="14.2475150">
        <ele>708.2</ele>
        <time>2019-08-07T11:11:13Z</time>
      </trkpt>
      <trkpt lat="48.6274410" lon="14.2474930">
        <ele>708.2</ele>
        <time>2019-08-07T11:11:14Z</time>
      </trkpt>
      <trkpt lat="48.6273930" lon="14.2474740">
        <ele>708.2</ele>
        <time>2019-08-07T11:11:15Z</time>
      </trkpt>
      <trkpt lat="48.6273440" lon="14.2474550">
        <ele>708.0</ele>
        <time>2019-08-07T11:11:16Z</time>
      </trkpt>
      <trkpt lat="48.6272930" lon="14.2474420">
        <ele>708.0</ele>
        <time>2019-08-07T11:11:17Z</time>
      </trkpt>
      <trkpt lat="48.6272420" lon="14.2474310">
        <ele>708.0</ele>
        <time>2019-08-07T11:11:18Z</time>
      </trkpt>
      <trkpt lat="48.6271900" lon="14.2474230">
        <ele>708.0</ele>
        <time>2019-08-07T11:11:19Z</time>
      </trkpt>
      <trkpt lat="48.6271390" lon="14.2474200">
        <ele>707.8</ele>
        <time>2019-08-07T11:11:20Z</time>
      </trkpt>
      <trkpt lat="48.6270870" lon="14.2474200">
        <ele>707.8</ele>
        <time>2019-08-07T11:11:21Z</time>
      </trkpt>
      <trkpt lat="48.6270390" lon="14.2474240">
        <ele>708.0</ele>
        <time>2019-08-07T11:11:22Z</time>
      </trkpt>
      <trkpt lat="48.6269890" lon="14.2474330">
        <ele>708.0</ele>
        <time>2019-08-07T11:11:23Z</time>
      </trkpt>
      <trkpt lat="48.6269450" lon="14.2474450">
        <ele>708.2</ele>
        <time>2019-08-07T11:11:24Z</time>
      </trkpt>
      <trkpt lat="48.6269020" lon="14.2474640">
        <ele>708.2</ele>
        <time>2019-08-07T11:11:25Z</time>
      </trkpt>
      <trkpt lat="48.6268610" lon="14.2474850">
        <ele>708.4</ele>
        <time>2019-08-07T11:11:26Z</time>
      </trkpt>
      <trkpt lat="48.6268250" lon="14.2475070">
        <ele>708.6</ele>
        <time>2019-08-07T11:11:27Z</time>
      </trkpt>
      <trkpt lat="48.6267910" lon="14.2475260">
        <ele>708.8</ele>
        <time>2019-08-07T11:11:28Z</time>
      </trkpt>
      <trkpt lat="48.6267590" lon="14.2475430">
        <ele>709.0</ele>
        <time>2019-08-07T11:11:29Z</time>
      </trkpt>
      <trkpt lat="48.6267270" lon="14.2475540">
        <ele>709.2</ele>
        <time>2019-08-07T11:11:30Z</time>
      </trkpt>
      <trkpt lat="48.6266950" lon="14.2475620">
        <ele>709.4</ele>
        <time>2019-08-07T11:11:31Z</time>
      </trkpt>
      <trkpt lat="48.6266640" lon="14.2475690">
        <ele>709.6</ele>
        <time>2019-08-07T11:11:32Z</time>
      </trkpt>
      <trkpt lat="48.6266320" lon="14.2475740">
        <ele>709.8</ele>
        <time>2019-08-07T11:11:33Z</time>
      </trkpt>
      <trkpt lat="48.6266010" lon="14.2475770">
        <ele>709.8</ele>
        <time>2019-08-07T11:11:34Z</time>
      </trkpt>
      <trkpt lat="48.6265690" lon="14.2475780">
        <ele>710.0</ele>
        <time>2019-08-07T11:11:35Z</time>
      </trkpt>
      <trkpt lat="48.6265350" lon="14.2475760">
        <ele>710.2</ele>
        <time>2019-08-07T11:11:36Z</time>
      </trkpt>
      <trkpt lat="48.6265030" lon="14.2475700">
        <ele>710.2</ele>
        <time>2019-08-07T11:11:37Z</time>
      </trkpt>
      <trkpt lat="48.6264680" lon="14.2475640">
        <ele>710.4</ele>
        <time>2019-08-07T11:11:38Z</time>
      </trkpt>
      <trkpt lat="48.6264300" lon="14.2475540">
        <ele>710.4</ele>
        <time>2019-08-07T11:11:39Z</time>
      </trkpt>
      <trkpt lat="48.6263920" lon="14.2475440">
        <ele>710.4</ele>
        <time>2019-08-07T11:11:40Z</time>
      </trkpt>
      <trkpt lat="48.6263510" lon="14.2475360">
        <ele>710.4</ele>
        <time>2019-08-07T11:11:41Z</time>
      </trkpt>
      <trkpt lat="48.6263090" lon="14.2475310">
        <ele>710.6</ele>
        <time>2019-08-07T11:11:42Z</time>
      </trkpt>
      <trkpt lat="48.6262660" lon="14.2475280">
        <ele>710.6</ele>
        <time>2019-08-07T11:11:43Z</time>
      </trkpt>
      <trkpt lat="48.6262250" lon="14.2475270">
        <ele>710.8</ele>
        <time>2019-08-07T11:11:44Z</time>
      </trkpt>
      <trkpt lat="48.6261840" lon="14.2475270">
        <ele>710.8</ele>
        <time>2019-08-07T11:11:45Z</time>
      </trkpt>
      <trkpt lat="48.6261410" lon="14.2475250">
        <ele>710.8</ele>
        <time>2019-08-07T11:11:46Z</time>
      </trkpt>
      <trkpt lat="48.6260990" lon="14.2475230">
        <ele>711.0</ele>
        <time>2019-08-07T11:11:47Z</time>
      </trkpt>
      <trkpt lat="48.6260590" lon="14.2475200">
        <ele>711.0</ele>
        <time>2019-08-07T11:11:48Z</time>
      </trkpt>
      <trkpt lat="48.6260160" lon="14.2475170">
        <ele>711.0</ele>
        <time>2019-08-07T11:11:49Z</time>
      </trkpt>
      <trkpt lat="48.6259750" lon="14.2475150">
        <ele>711.0</ele>
        <time>2019-08-07T11:11:50Z</time>
      </trkpt>
      <trkpt lat="48.6259350" lon="14.2475130">
        <ele>711.2</ele>
        <time>2019-08-07T11:11:51Z</time>
      </trkpt>
      <trkpt lat="48.6258960" lon="14.2475120">
        <ele>711.2</ele>
        <time>2019-08-07T11:11:52Z</time>
      </trkpt>
      <trkpt lat="48.6258580" lon="14.2475140">
        <ele>711.2</ele>
        <time>2019-08-07T11:11:53Z</time>
      </trkpt>
      <trkpt lat="48.6258200" lon="14.2475170">
        <ele>711.4</ele>
        <time>2019-08-07T11:11:54Z</time>
      </trkpt>
      <trkpt lat="48.6257810" lon="14.2475190">
        <ele>711.4</ele>
        <time>2019-08-07T11:11:55Z</time>
      </trkpt>
      <trkpt lat="48.6257410" lon="14.2475240">
        <ele>711.4</ele>
        <time>2019-08-07T11:11:56Z</time>
      </trkpt>
      <trkpt lat="48.6257010" lon="14.2475290">
        <ele>711.6</ele>
        <time>2019-08-07T11:11:57Z</time>
      </trkpt>
      <trkpt lat="48.6256610" lon="14.2475390">
        <ele>711.6</ele>
        <time>2019-08-07T11:11:58Z</time>
      </trkpt>
      <trkpt lat="48.6256230" lon="14.2475490">
        <ele>711.8</ele>
        <time>2019-08-07T11:11:59Z</time>
      </trkpt>
      <trkpt lat="48.6255870" lon="14.2475590">
        <ele>711.8</ele>
        <time>2019-08-07T11:12:00Z</time>
      </trkpt>
      <trkpt lat="48.6255500" lon="14.2475690">
        <ele>711.8</ele>
        <time>2019-08-07T11:12:01Z</time>
      </trkpt>
      <trkpt lat="48.6255130" lon="14.2475790">
        <ele>712.0</ele>
        <time>2019-08-07T11:12:02Z</time>
      </trkpt>
      <trkpt lat="48.6254750" lon="14.2475880">
        <ele>712.0</ele>
        <time>2019-08-07T11:12:03Z</time>
      </trkpt>
      <trkpt lat="48.6254390" lon="14.2475980">
        <ele>712.2</ele>
        <time>2019-08-07T11:12:04Z</time>
      </trkpt>
      <trkpt lat="48.6254060" lon="14.2476070">
        <ele>712.2</ele>
        <time>2019-08-07T11:12:05Z</time>
      </trkpt>
      <trkpt lat="48.6253720" lon="14.2476130">
        <ele>712.4</ele>
        <time>2019-08-07T11:12:06Z</time>
      </trkpt>
      <trkpt lat="48.6253410" lon="14.2476090">
        <ele>712.4</ele>
        <time>2019-08-07T11:12:07Z</time>
      </trkpt>
      <trkpt lat="48.6253130" lon="14.2476010">
        <ele>712.6</ele>
        <time>2019-08-07T11:12:08Z</time>
      </trkpt>
      <trkpt lat="48.6252860" lon="14.2475910">
        <ele>712.6</ele>
        <time>2019-08-07T11:12:09Z</time>
      </trkpt>
      <trkpt lat="48.6252570" lon="14.2475790">
        <ele>712.6</ele>
        <time>2019-08-07T11:12:10Z</time>
      </trkpt>
      <trkpt lat="48.6252300" lon="14.2475690">
        <ele>712.6</ele>
        <time>2019-08-07T11:12:11Z</time>
      </trkpt>
      <trkpt lat="48.6252010" lon="14.2475550">
        <ele>712.6</ele>
        <time>2019-08-07T11:12:12Z</time>
      </trkpt>
      <trkpt lat="48.6251690" lon="14.2475380">
        <ele>712.6</ele>
        <time>2019-08-07T11:12:13Z</time>
      </trkpt>
      <trkpt lat="48.6251390" lon="14.2475180">
        <ele>712.6</ele>
        <time>2019-08-07T11:12:14Z</time>
      </trkpt>
      <trkpt lat="48.6251050" lon="14.2474900">
        <ele>712.4</ele>
        <time>2019-08-07T11:12:15Z</time>
      </trkpt>
      <trkpt lat="48.6250700" lon="14.2474540">
        <ele>712.2</ele>
        <time>2019-08-07T11:12:16Z</time>
      </trkpt>
      <trkpt lat="48.6250350" lon="14.2474050">
        <ele>712.0</ele>
        <time>2019-08-07T11:12:17Z</time>
      </trkpt>
      <trkpt lat="48.6250010" lon="14.2473440">
        <ele>711.6</ele>
        <time>2019-08-07T11:12:18Z</time>
      </trkpt>
      <trkpt lat="48.6249730" lon="14.2472690">
        <ele>711.4</ele>
        <time>2019-08-07T11:12:19Z</time>
      </trkpt>
      <trkpt lat="48.6249520" lon="14.2471790">
        <ele>711.0</ele>
        <time>2019-08-07T11:12:20Z</time>
      </trkpt>
      <trkpt lat="48.6249320" lon="14.2470830">
        <ele>710.6</ele>
        <time>2019-08-07T11:12:21Z</time>
      </trkpt>
      <trkpt lat="48.6249130" lon="14.2469950">
        <ele>710.0</ele>
        <time>2019-08-07T11:12:22Z</time>
      </trkpt>
      <trkpt lat="48.6248870" lon="14.2469050">
        <ele>709.4</ele>
        <time>2019-08-07T11:12:23Z</time>
      </trkpt>
      <trkpt lat="48.6248570" lon="14.2468130">
        <ele>708.8</ele>
        <time>2019-08-07T11:12:24Z</time>
      </trkpt>
      <trkpt lat="48.6248290" lon="14.2467180">
        <ele>708.2</ele>
        <time>2019-08-07T11:12:25Z</time>
      </trkpt>
      <trkpt lat="48.6248050" lon="14.2466250">
        <ele>707.6</ele>
        <time>2019-08-07T11:12:26Z</time>
      </trkpt>
      <trkpt lat="48.6247910" lon="14.2465350">
        <ele>707.0</ele>
        <time>2019-08-07T11:12:27Z</time>
      </trkpt>
      <trkpt lat="48.6247830" lon="14.2464480">
        <ele>706.4</ele>
        <time>2019-08-07T11:12:28Z</time>
      </trkpt>
      <trkpt lat="48.6247820" lon="14.2463620">
        <ele>705.8</ele>
        <time>2019-08-07T11:12:29Z</time>
      </trkpt>
      <trkpt lat="48.6247790" lon="14.2462730">
        <ele>705.2</ele>
        <time>2019-08-07T11:12:30Z</time>
      </trkpt>
      <trkpt lat="48.6247660" lon="14.2461760">
        <ele>704.6</ele>
        <time>2019-08-07T11:12:31Z</time>
      </trkpt>
      <trkpt lat="48.6247340" lon="14.2460810">
        <ele>704.0</ele>
        <time>2019-08-07T11:12:32Z</time>
      </trkpt>
      <trkpt lat="48.6246880" lon="14.2459960">
        <ele>703.2</ele>
        <time>2019-08-07T11:12:33Z</time>
      </trkpt>
      <trkpt lat="48.6246230" lon="14.2459200">
        <ele>702.8</ele>
        <time>2019-08-07T11:12:34Z</time>
      </trkpt>
      <trkpt lat="48.6245480" lon="14.2458570">
        <ele>702.0</ele>
        <time>2019-08-07T11:12:35Z</time>
      </trkpt>
      <trkpt lat="48.6244790" lon="14.2458040">
        <ele>701.4</ele>
        <time>2019-08-07T11:12:36Z</time>
      </trkpt>
      <trkpt lat="48.6244090" lon="14.2457540">
        <ele>701.0</ele>
        <time>2019-08-07T11:12:37Z</time>
      </trkpt>
      <trkpt lat="48.6243440" lon="14.2457060">
        <ele>700.4</ele>
        <time>2019-08-07T11:12:38Z</time>
      </trkpt>
      <trkpt lat="48.6242850" lon="14.2456580">
        <ele>700.0</ele>
        <time>2019-08-07T11:12:39Z</time>
      </trkpt>
      <trkpt lat="48.6242300" lon="14.2456160">
        <ele>699.6</ele>
        <time>2019-08-07T11:12:40Z</time>
      </trkpt>
      <trkpt lat="48.6241800" lon="14.2455800">
        <ele>699.0</ele>
        <time>2019-08-07T11:12:41Z</time>
      </trkpt>
      <trkpt lat="48.6241320" lon="14.2455410">
        <ele>698.6</ele>
        <time>2019-08-07T11:12:42Z</time>
      </trkpt>
      <trkpt lat="48.6240840" lon="14.2455010">
        <ele>698.2</ele>
        <time>2019-08-07T11:12:43Z</time>
      </trkpt>
      <trkpt lat="48.6240350" lon="14.2454630">
        <ele>697.8</ele>
        <time>2019-08-07T11:12:44Z</time>
      </trkpt>
      <trkpt lat="48.6239840" lon="14.2454240">
        <ele>697.4</ele>
        <time>2019-08-07T11:12:45Z</time>
      </trkpt>
      <trkpt lat="48.6239310" lon="14.2453930">
        <ele>697.2</ele>
        <time>2019-08-07T11:12:46Z</time>
      </trkpt>
      <trkpt lat="48.6238750" lon="14.2453680">
        <ele>696.8</ele>
        <time>2019-08-07T11:12:47Z</time>
      </trkpt>
      <trkpt lat="48.6238200" lon="14.2453350">
        <ele>696.8</ele>
        <time>2019-08-07T11:12:48Z</time>
      </trkpt>
      <trkpt lat="48.6237650" lon="14.2453010">
        <ele>696.6</ele>
        <time>2019-08-07T11:12:49Z</time>
      </trkpt>
      <trkpt lat="48.6237090" lon="14.2452720">
        <ele>696.6</ele>
        <time>2019-08-07T11:12:50Z</time>
      </trkpt>
      <trkpt lat="48.6236520" lon="14.2452370">
        <ele>696.4</ele>
        <time>2019-08-07T11:12:51Z</time>
      </trkpt>
      <trkpt lat="48.6235970" lon="14.2452030">
        <ele>696.2</ele>
        <time>2019-08-07T11:12:52Z</time>
      </trkpt>
      <trkpt lat="48.6235430" lon="14.2451650">
        <ele>696.2</ele>
        <time>2019-08-07T11:12:53Z</time>
      </trkpt>
      <trkpt lat="48.6234920" lon="14.2451190">
        <ele>696.0</ele>
        <time>2019-08-07T11:12:54Z</time>
      </trkpt>
      <trkpt lat="48.6234420" lon="14.2450690">
        <ele>696.0</ele>
        <time>2019-08-07T11:12:55Z</time>
      </trkpt>
      <trkpt lat="48.6233900" lon="14.2450250">
        <ele>695.8</ele>
        <time>2019-08-07T11:12:56Z</time>
      </trkpt>
      <trkpt lat="48.6233340" lon="14.2449900">
        <ele>695.6</ele>
        <time>2019-08-07T11:12:57Z</time>
      </trkpt>
      <trkpt lat="48.6232760" lon="14.2449560">
        <ele>695.4</ele>
        <time>2019-08-07T11:12:58Z</time>
      </trkpt>
      <trkpt lat="48.6232180" lon="14.2449170">
        <ele>695.2</ele>
        <time>2019-08-07T11:12:59Z</time>
      </trkpt>
      <trkpt lat="48.6231560" lon="14.2448770">
        <ele>694.8</ele>
        <time>2019-08-07T11:13:00Z</time>
      </trkpt>
      <trkpt lat="48.6230940" lon="14.2448370">
        <ele>694.4</ele>
        <time>2019-08-07T11:13:01Z</time>
      </trkpt>
      <trkpt lat="48.6230310" lon="14.2447990">
        <ele>694.2</ele>
        <time>2019-08-07T11:13:02Z</time>
      </trkpt>
      <trkpt lat="48.6229630" lon="14.2447600">
        <ele>694.0</ele>
        <time>2019-08-07T11:13:03Z</time>
      </trkpt>
      <trkpt lat="48.6228990" lon="14.2447180">
        <ele>693.8</ele>
        <time>2019-08-07T11:13:04Z</time>
      </trkpt>
      <trkpt lat="48.6228340" lon="14.2446760">
        <ele>693.6</ele>
        <time>2019-08-07T11:13:05Z</time>
      </trkpt>
      <trkpt lat="48.6227690" lon="14.2446290">
        <ele>693.6</ele>
        <time>2019-08-07T11:13:06Z</time>
      </trkpt>
      <trkpt lat="48.6227050" lon="14.2445830">
        <ele>693.4</ele>
        <time>2019-08-07T11:13:07Z</time>
      </trkpt>
      <trkpt lat="48.6226420" lon="14.2445350">
        <ele>693.4</ele>
        <time>2019-08-07T11:13:08Z</time>
      </trkpt>
      <trkpt lat="48.6225800" lon="14.2444850">
        <ele>693.2</ele>
        <time>2019-08-07T11:13:09Z</time>
      </trkpt>
      <trkpt lat="48.6225180" lon="14.2444370">
        <ele>693.0</ele>
        <time>2019-08-07T11:13:10Z</time>
      </trkpt>
      <trkpt lat="48.6224560" lon="14.2443870">
        <ele>692.8</ele>
        <time>2019-08-07T11:13:11Z</time>
      </trkpt>
      <trkpt lat="48.6223950" lon="14.2443430">
        <ele>692.8</ele>
        <time>2019-08-07T11:13:12Z</time>
      </trkpt>
      <trkpt lat="48.6223320" lon="14.2443040">
        <ele>692.6</ele>
        <time>2019-08-07T11:13:13Z</time>
      </trkpt>
      <trkpt lat="48.6222670" lon="14.2442650">
        <ele>692.6</ele>
        <time>2019-08-07T11:13:14Z</time>
      </trkpt>
      <trkpt lat="48.6222010" lon="14.2442300">
        <ele>692.4</ele>
        <time>2019-08-07T11:13:15Z</time>
      </trkpt>
      <trkpt lat="48.6221360" lon="14.2441940">
        <ele>692.2</ele>
        <time>2019-08-07T11:13:16Z</time>
      </trkpt>
      <trkpt lat="48.6220730" lon="14.2441530">
        <ele>692.0</ele>
        <time>2019-08-07T11:13:17Z</time>
      </trkpt>
      <trkpt lat="48.6220100" lon="14.2441090">
        <ele>691.8</ele>
        <time>2019-08-07T11:13:18Z</time>
      </trkpt>
      <trkpt lat="48.6219460" lon="14.2440590">
        <ele>691.6</ele>
        <time>2019-08-07T11:13:19Z</time>
      </trkpt>
      <trkpt lat="48.6218830" lon="14.2440090">
        <ele>691.2</ele>
        <time>2019-08-07T11:13:20Z</time>
      </trkpt>
      <trkpt lat="48.6218180" lon="14.2439560">
        <ele>691.0</ele>
        <time>2019-08-07T11:13:21Z</time>
      </trkpt>
      <trkpt lat="48.6217500" lon="14.2439040">
        <ele>690.8</ele>
        <time>2019-08-07T11:13:22Z</time>
      </trkpt>
      <trkpt lat="48.6216840" lon="14.2438580">
        <ele>690.6</ele>
        <time>2019-08-07T11:13:23Z</time>
      </trkpt>
      <trkpt lat="48.6216170" lon="14.2438140">
        <ele>690.4</ele>
        <time>2019-08-07T11:13:24Z</time>
      </trkpt>
      <trkpt lat="48.6215460" lon="14.2437760">
        <ele>690.0</ele>
        <time>2019-08-07T11:13:25Z</time>
      </trkpt>
      <trkpt lat="48.6214740" lon="14.2437540">
        <ele>689.8</ele>
        <time>2019-08-07T11:13:26Z</time>
      </trkpt>
      <trkpt lat="48.6214050" lon="14.2437450">
        <ele>689.6</ele>
        <time>2019-08-07T11:13:27Z</time>
      </trkpt>
      <trkpt lat="48.6213330" lon="14.2437430">
        <ele>689.4</ele>
        <time>2019-08-07T11:13:28Z</time>
      </trkpt>
      <trkpt lat="48.6212620" lon="14.2437420">
        <ele>689.4</ele>
        <time>2019-08-07T11:13:29Z</time>
      </trkpt>
      <trkpt lat="48.6211950" lon="14.2437450">
        <ele>689.4</ele>
        <time>2019-08-07T11:13:30Z</time>
      </trkpt>
      <trkpt lat="48.6211290" lon="14.2437490">
        <ele>689.2</ele>
        <time>2019-08-07T11:13:31Z</time>
      </trkpt>
      <trkpt lat="48.6210650" lon="14.2437570">
        <ele>689.2</ele>
        <time>2019-08-07T11:13:32Z</time>
      </trkpt>
      <trkpt lat="48.6210020" lon="14.2437690">
        <ele>689.2</ele>
        <time>2019-08-07T11:13:33Z</time>
      </trkpt>
      <trkpt lat="48.6209430" lon="14.2437810">
        <ele>689.0</ele>
        <time>2019-08-07T11:13:34Z</time>
      </trkpt>
      <trkpt lat="48.6208910" lon="14.2437920">
        <ele>688.8</ele>
        <time>2019-08-07T11:13:35Z</time>
      </trkpt>
      <trkpt lat="48.6208440" lon="14.2438010">
        <ele>688.8</ele>
        <time>2019-08-07T11:13:36Z</time>
      </trkpt>
      <trkpt lat="48.6208050" lon="14.2438100">
        <ele>688.6</ele>
        <time>2019-08-07T11:13:37Z</time>
      </trkpt>
      <trkpt lat="48.6207690" lon="14.2438230">
        <ele>688.4</ele>
        <time>2019-08-07T11:13:38Z</time>
      </trkpt>
      <trkpt lat="48.6207400" lon="14.2438370">
        <ele>688.2</ele>
        <time>2019-08-07T11:13:39Z</time>
      </trkpt>
      <trkpt lat="48.6207130" lon="14.2438470">
        <ele>688.2</ele>
        <time>2019-08-07T11:13:40Z</time>
      </trkpt>
      <trkpt lat="48.6206860" lon="14.2438520">
        <ele>688.0</ele>
        <time>2019-08-07T11:13:41Z</time>
      </trkpt>
      <trkpt lat="48.6206590" lon="14.2438490">
        <ele>688.0</ele>
        <time>2019-08-07T11:13:42Z</time>
      </trkpt>
      <trkpt lat="48.6206350" lon="14.2438370">
        <ele>688.0</ele>
        <time>2019-08-07T11:13:43Z</time>
      </trkpt>
      <trkpt lat="48.6206150" lon="14.2438170">
        <ele>687.8</ele>
        <time>2019-08-07T11:13:44Z</time>
      </trkpt>
      <trkpt lat="48.6205990" lon="14.2437920">
        <ele>687.8</ele>
        <time>2019-08-07T11:13:45Z</time>
      </trkpt>
      <trkpt lat="48.6205910" lon="14.2437710">
        <ele>687.8</ele>
        <time>2019-08-07T11:13:46Z</time>
      </trkpt>
      <trkpt lat="48.6205860" lon="14.2437490">
        <ele>687.8</ele>
        <time>2019-08-07T11:13:47Z</time>
      </trkpt>
      <trkpt lat="48.6205800" lon="14.2437250">
        <ele>687.8</ele>
        <time>2019-08-07T11:13:48Z</time>
      </trkpt>
      <trkpt lat="48.6205730" lon="14.2437050">
        <ele>687.8</ele>
        <time>2019-08-07T11:13:49Z</time>
      </trkpt>
      <trkpt lat="48.6205640" lon="14.2436910">
        <ele>687.8</ele>
        <time>2019-08-07T11:13:50Z</time>
      </trkpt>
      <trkpt lat="48.6205510" lon="14.2436790">
        <ele>687.8</ele>
        <time>2019-08-07T11:13:51Z</time>
      </trkpt>
      <trkpt lat="48.6205390" lon="14.2436690">
        <ele>687.8</ele>
        <time>2019-08-07T11:13:52Z</time>
      </trkpt>
      <trkpt lat="48.6205260" lon="14.2436610">
        <ele>687.8</ele>
        <time>2019-08-07T11:13:53Z</time>
      </trkpt>
      <trkpt lat="48.6205160" lon="14.2436580">
        <ele>687.8</ele>
        <time>2019-08-07T11:13:54Z</time>
      </trkpt>
      <trkpt lat="48.6205100" lon="14.2436570">
        <ele>687.8</ele>
        <time>2019-08-07T11:13:55Z</time>
      </trkpt>
      <trkpt lat="48.6205080" lon="14.2436550">
        <ele>688.0</ele>
        <time>2019-08-07T11:13:56Z</time>
      </trkpt>
      <trkpt lat="48.6205080" lon="14.2436550">
        <ele>687.8</ele>
        <time>2019-08-07T11:13:57Z</time>
      </trkpt>
      <trkpt lat="48.6205080" lon="14.2436550">
        <ele>687.8</ele>
        <time>2019-08-07T11:13:58Z</time>
      </trkpt>
      <trkpt lat="48.6205690" lon="14.2437680">
        <ele>688.0</ele>
        <time>2019-08-07T11:43:14Z</time>
      </trkpt>
      <trkpt lat="48.6205730" lon="14.2437960">
        <ele>688.0</ele>
        <time>2019-08-07T11:43:15Z</time>
      </trkpt>
      <trkpt lat="48.6205740" lon="14.2438380">
        <ele>687.8</ele>
        <time>2019-08-07T11:43:16Z</time>
      </trkpt>
      <trkpt lat="48.6205660" lon="14.2438680">
        <ele>687.8</ele>
        <time>2019-08-07T11:43:17Z</time>
      </trkpt>
      <trkpt lat="48.6205540" lon="14.2438960">
        <ele>687.8</ele>
        <time>2019-08-07T11:43:18Z</time>
      </trkpt>
      <trkpt lat="48.6205350" lon="14.2439190">
        <ele>687.8</ele>
        <time>2019-08-07T11:43:19Z</time>
      </trkpt>
      <trkpt lat="48.6205150" lon="14.2439320">
        <ele>687.8</ele>
        <time>2019-08-07T11:43:20Z</time>
      </trkpt>
      <trkpt lat="48.6204950" lon="14.2439440">
        <ele>687.8</ele>
        <time>2019-08-07T11:43:21Z</time>
      </trkpt>
      <trkpt lat="48.6204690" lon="14.2439600">
        <ele>687.8</ele>
        <time>2019-08-07T11:43:22Z</time>
      </trkpt>
      <trkpt lat="48.6204430" lon="14.2439720">
        <ele>687.8</ele>
        <time>2019-08-07T11:43:23Z</time>
      </trkpt>
      <trkpt lat="48.6204150" lon="14.2439890">
        <ele>687.6</ele>
        <time>2019-08-07T11:43:24Z</time>
      </trkpt>
      <trkpt lat="48.6203880" lon="14.2440090">
        <ele>687.6</ele>
        <time>2019-08-07T11:43:25Z</time>
      </trkpt>
      <trkpt lat="48.6203600" lon="14.2440280">
        <ele>687.6</ele>
        <time>2019-08-07T11:43:26Z</time>
      </trkpt>
      <trkpt lat="48.6203300" lon="14.2440480">
        <ele>687.6</ele>
        <time>2019-08-07T11:43:27Z</time>
      </trkpt>
      <trkpt lat="48.6202960" lon="14.2440690">
        <ele>687.6</ele>
        <time>2019-08-07T11:43:28Z</time>
      </trkpt>
      <trkpt lat="48.6202640" lon="14.2440920">
        <ele>687.6</ele>
        <time>2019-08-07T11:43:29Z</time>
      </trkpt>
      <trkpt lat="48.6202320" lon="14.2441150">
        <ele>687.6</ele>
        <time>2019-08-07T11:43:30Z</time>
      </trkpt>
      <trkpt lat="48.6201980" lon="14.2441410">
        <ele>687.4</ele>
        <time>2019-08-07T11:43:31Z</time>
      </trkpt>
      <trkpt lat="48.6201660" lon="14.2441650">
        <ele>687.4</ele>
        <time>2019-08-07T11:43:32Z</time>
      </trkpt>
      <trkpt lat="48.6201350" lon="14.2441880">
        <ele>687.6</ele>
        <time>2019-08-07T11:43:33Z</time>
      </trkpt>
      <trkpt lat="48.6200980" lon="14.2442200">
        <ele>687.4</ele>
        <time>2019-08-07T11:43:34Z</time>
      </trkpt>
      <trkpt lat="48.6200670" lon="14.2442500">
        <ele>687.4</ele>
        <time>2019-08-07T11:43:35Z</time>
      </trkpt>
      <trkpt lat="48.6200330" lon="14.2442840">
        <ele>687.4</ele>
        <time>2019-08-07T11:43:36Z</time>
      </trkpt>
      <trkpt lat="48.6200010" lon="14.2443180">
        <ele>687.4</ele>
        <time>2019-08-07T11:43:37Z</time>
      </trkpt>
      <trkpt lat="48.6199670" lon="14.2443510">
        <ele>687.2</ele>
        <time>2019-08-07T11:43:38Z</time>
      </trkpt>
      <trkpt lat="48.6199340" lon="14.2443860">
        <ele>687.2</ele>
        <time>2019-08-07T11:43:39Z</time>
      </trkpt>
      <trkpt lat="48.6199010" lon="14.2444240">
        <ele>687.2</ele>
        <time>2019-08-07T11:43:40Z</time>
      </trkpt>
      <trkpt lat="48.6198720" lon="14.2444620">
        <ele>687.2</ele>
        <time>2019-08-07T11:43:41Z</time>
      </trkpt>
      <trkpt lat="48.6198430" lon="14.2445020">
        <ele>687.2</ele>
        <time>2019-08-07T11:43:42Z</time>
      </trkpt>
      <trkpt lat="48.6198160" lon="14.2445420">
        <ele>687.2</ele>
        <time>2019-08-07T11:43:43Z</time>
      </trkpt>
      <trkpt lat="48.6197840" lon="14.2445880">
        <ele>687.2</ele>
        <time>2019-08-07T11:43:44Z</time>
      </trkpt>
      <trkpt lat="48.6197560" lon="14.2446270">
        <ele>687.2</ele>
        <time>2019-08-07T11:43:45Z</time>
      </trkpt>
      <trkpt lat="48.6197290" lon="14.2446660">
        <ele>687.2</ele>
        <time>2019-08-07T11:43:46Z</time>
      </trkpt>
      <trkpt lat="48.6197030" lon="14.2447040">
        <ele>687.2</ele>
        <time>2019-08-07T11:43:47Z</time>
      </trkpt>
      <trkpt lat="48.6196750" lon="14.2447440">
        <ele>687.2</ele>
        <time>2019-08-07T11:43:48Z</time>
      </trkpt>
      <trkpt lat="48.6196470" lon="14.2447870">
        <ele>687.2</ele>
        <time>2019-08-07T11:43:49Z</time>
      </trkpt>
      <trkpt lat="48.6196220" lon="14.2448270">
        <ele>687.2</ele>
        <time>2019-08-07T11:43:50Z</time>
      </trkpt>
      <trkpt lat="48.6195980" lon="14.2448670">
        <ele>687.2</ele>
        <time>2019-08-07T11:43:51Z</time>
      </trkpt>
      <trkpt lat="48.6195730" lon="14.2449100">
        <ele>687.2</ele>
        <time>2019-08-07T11:43:52Z</time>
      </trkpt>
      <trkpt lat="48.6195500" lon="14.2449520">
        <ele>687.2</ele>
        <time>2019-08-07T11:43:53Z</time>
      </trkpt>
      <trkpt lat="48.6195240" lon="14.2449990">
        <ele>687.2</ele>
        <time>2019-08-07T11:43:54Z</time>
      </trkpt>
      <trkpt lat="48.6195000" lon="14.2450430">
        <ele>687.4</ele>
        <time>2019-08-07T11:43:55Z</time>
      </trkpt>
      <trkpt lat="48.6194760" lon="14.2450860">
        <ele>687.4</ele>
        <time>2019-08-07T11:43:56Z</time>
      </trkpt>
      <trkpt lat="48.6194530" lon="14.2451290">
        <ele>687.4</ele>
        <time>2019-08-07T11:43:57Z</time>
      </trkpt>
      <trkpt lat="48.6194310" lon="14.2451730">
        <ele>687.4</ele>
        <time>2019-08-07T11:43:58Z</time>
      </trkpt>
      <trkpt lat="48.6194060" lon="14.2452120">
        <ele>687.4</ele>
        <time>2019-08-07T11:43:59Z</time>
      </trkpt>
      <trkpt lat="48.6193800" lon="14.2452500">
        <ele>687.4</ele>
        <time>2019-08-07T11:44:00Z</time>
      </trkpt>
      <trkpt lat="48.6193540" lon="14.2452890">
        <ele>687.4</ele>
        <time>2019-08-07T11:44:01Z</time>
      </trkpt>
      <trkpt lat="48.6193280" lon="14.2453310">
        <ele>687.4</ele>
        <time>2019-08-07T11:44:02Z</time>
      </trkpt>
      <trkpt lat="48.6193020" lon="14.2453720">
        <ele>687.4</ele>
        <time>2019-08-07T11:44:03Z</time>
      </trkpt>
      <trkpt lat="48.6192760" lon="14.2454200">
        <ele>687.4</ele>
        <time>2019-08-07T11:44:04Z</time>
      </trkpt>
      <trkpt lat="48.6192490" lon="14.2454650">
        <ele>687.4</ele>
        <time>2019-08-07T11:44:05Z</time>
      </trkpt>
      <trkpt lat="48.6192220" lon="14.2455090">
        <ele>687.4</ele>
        <time>2019-08-07T11:44:06Z</time>
      </trkpt>
      <trkpt lat="48.6191940" lon="14.2455580">
        <ele>687.4</ele>
        <time>2019-08-07T11:44:07Z</time>
      </trkpt>
      <trkpt lat="48.6191680" lon="14.2456040">
        <ele>687.4</ele>
        <time>2019-08-07T11:44:08Z</time>
      </trkpt>
      <trkpt lat="48.6191430" lon="14.2456540">
        <ele>687.4</ele>
        <time>2019-08-07T11:44:09Z</time>
      </trkpt>
      <trkpt lat="48.6191180" lon="14.2457020">
        <ele>687.4</ele>
        <time>2019-08-07T11:44:10Z</time>
      </trkpt>
      <trkpt lat="48.6190950" lon="14.2457510">
        <ele>687.4</ele>
        <time>2019-08-07T11:44:11Z</time>
      </trkpt>
      <trkpt lat="48.6190740" lon="14.2457970">
        <ele>687.4</ele>
        <time>2019-08-07T11:44:12Z</time>
      </trkpt>
      <trkpt lat="48.6190530" lon="14.2458440">
        <ele>687.2</ele>
        <time>2019-08-07T11:44:13Z</time>
      </trkpt>
      <trkpt lat="48.6190340" lon="14.2458950">
        <ele>687.2</ele>
        <time>2019-08-07T11:44:14Z</time>
      </trkpt>
      <trkpt lat="48.6190180" lon="14.2459470">
        <ele>687.2</ele>
        <time>2019-08-07T11:44:15Z</time>
      </trkpt>
      <trkpt lat="48.6190070" lon="14.2460010">
        <ele>687.2</ele>
        <time>2019-08-07T11:44:16Z</time>
      </trkpt>
      <trkpt lat="48.6189990" lon="14.2460600">
        <ele>687.2</ele>
        <time>2019-08-07T11:44:17Z</time>
      </trkpt>
      <trkpt lat="48.6189900" lon="14.2461190">
        <ele>687.2</ele>
        <time>2019-08-07T11:44:18Z</time>
      </trkpt>
      <trkpt lat="48.6189790" lon="14.2461790">
        <ele>687.0</ele>
        <time>2019-08-07T11:44:19Z</time>
      </trkpt>
      <trkpt lat="48.6189670" lon="14.2462330">
        <ele>687.0</ele>
        <time>2019-08-07T11:44:20Z</time>
      </trkpt>
      <trkpt lat="48.6189540" lon="14.2462880">
        <ele>687.0</ele>
        <time>2019-08-07T11:44:21Z</time>
      </trkpt>
      <trkpt lat="48.6189400" lon="14.2463420">
        <ele>687.0</ele>
        <time>2019-08-07T11:44:22Z</time>
      </trkpt>
      <trkpt lat="48.6189240" lon="14.2463980">
        <ele>687.0</ele>
        <time>2019-08-07T11:44:23Z</time>
      </trkpt>
      <trkpt lat="48.6189090" lon="14.2464560">
        <ele>687.0</ele>
        <time>2019-08-07T11:44:24Z</time>
      </trkpt>
      <trkpt lat="48.6188960" lon="14.2465130">
        <ele>686.8</ele>
        <time>2019-08-07T11:44:25Z</time>
      </trkpt>
      <trkpt lat="48.6188830" lon="14.2465690">
        <ele>686.8</ele>
        <time>2019-08-07T11:44:26Z</time>
      </trkpt>
      <trkpt lat="48.6188690" lon="14.2466290">
        <ele>686.8</ele>
        <time>2019-08-07T11:44:27Z</time>
      </trkpt>
      <trkpt lat="48.6188570" lon="14.2466930">
        <ele>686.8</ele>
        <time>2019-08-07T11:44:28Z</time>
      </trkpt>
      <trkpt lat="48.6188460" lon="14.2467530">
        <ele>686.8</ele>
        <time>2019-08-07T11:44:29Z</time>
      </trkpt>
      <trkpt lat="48.6188350" lon="14.2468140">
        <ele>686.6</ele>
        <time>2019-08-07T11:44:30Z</time>
      </trkpt>
      <trkpt lat="48.6188230" lon="14.2468770">
        <ele>686.6</ele>
        <time>2019-08-07T11:44:31Z</time>
      </trkpt>
      <trkpt lat="48.6188100" lon="14.2469420">
        <ele>686.6</ele>
        <time>2019-08-07T11:44:32Z</time>
      </trkpt>
      <trkpt lat="48.6187980" lon="14.2470090">
        <ele>686.6</ele>
        <time>2019-08-07T11:44:33Z</time>
      </trkpt>
      <trkpt lat="48.6187860" lon="14.2470760">
        <ele>686.4</ele>
        <time>2019-08-07T11:44:34Z</time>
      </trkpt>
      <trkpt lat="48.6187760" lon="14.2471450">
        <ele>686.4</ele>
        <time>2019-08-07T11:44:35Z</time>
      </trkpt>
      <trkpt lat="48.6187660" lon="14.2472130">
        <ele>686.4</ele>
        <time>2019-08-07T11:44:36Z</time>
      </trkpt>
      <trkpt lat="48.6187550" lon="14.2472800">
        <ele>686.4</ele>
        <time>2019-08-07T11:44:37Z</time>
      </trkpt>
      <trkpt lat="48.6187420" lon="14.2473510">
        <ele>686.2</ele>
        <time>2019-08-07T11:44:38Z</time>
      </trkpt>
      <trkpt lat="48.6187240" lon="14.2474220">
        <ele>686.2</ele>
        <time>2019-08-07T11:44:39Z</time>
      </trkpt>
      <trkpt lat="48.6187040" lon="14.2474920">
        <ele>686.0</ele>
        <time>2019-08-07T11:44:40Z</time>
      </trkpt>
      <trkpt lat="48.6186850" lon="14.2475640">
        <ele>686.0</ele>
        <time>2019-08-07T11:44:41Z</time>
      </trkpt>
      <trkpt lat="48.6186700" lon="14.2476440">
        <ele>686.0</ele>
        <time>2019-08-07T11:44:42Z</time>
      </trkpt>
      <trkpt lat="48.6186560" lon="14.2477240">
        <ele>685.8</ele>
        <time>2019-08-07T11:44:43Z</time>
      </trkpt>
      <trkpt lat="48.6186430" lon="14.2478040">
        <ele>685.6</ele>
        <time>2019-08-07T11:44:44Z</time>
      </trkpt>
      <trkpt lat="48.6186310" lon="14.2478850">
        <ele>685.6</ele>
        <time>2019-08-07T11:44:45Z</time>
      </trkpt>
      <trkpt lat="48.6186190" lon="14.2479670">
        <ele>685.4</ele>
        <time>2019-08-07T11:44:46Z</time>
      </trkpt>
      <trkpt lat="48.6186080" lon="14.2480480">
        <ele>685.2</ele>
        <time>2019-08-07T11:44:47Z</time>
      </trkpt>
      <trkpt lat="48.6185970" lon="14.2481300">
        <ele>685.2</ele>
        <time>2019-08-07T11:44:48Z</time>
      </trkpt>
      <trkpt lat="48.6185760" lon="14.2482110">
        <ele>685.0</ele>
        <time>2019-08-07T11:44:49Z</time>
      </trkpt>
      <trkpt lat="48.6185470" lon="14.2482860">
        <ele>685.0</ele>
        <time>2019-08-07T11:44:50Z</time>
      </trkpt>
      <trkpt lat="48.6185170" lon="14.2483580">
        <ele>685.0</ele>
        <time>2019-08-07T11:44:51Z</time>
      </trkpt>
      <trkpt lat="48.6184910" lon="14.2484340">
        <ele>684.8</ele>
        <time>2019-08-07T11:44:52Z</time>
      </trkpt>
      <trkpt lat="48.6184660" lon="14.2485110">
        <ele>684.6</ele>
        <time>2019-08-07T11:44:53Z</time>
      </trkpt>
      <trkpt lat="48.6184420" lon="14.2485910">
        <ele>684.6</ele>
        <time>2019-08-07T11:44:54Z</time>
      </trkpt>
      <trkpt lat="48.6184180" lon="14.2486720">
        <ele>684.4</ele>
        <time>2019-08-07T11:44:55Z</time>
      </trkpt>
      <trkpt lat="48.6183970" lon="14.2487520">
        <ele>684.4</ele>
        <time>2019-08-07T11:44:56Z</time>
      </trkpt>
      <trkpt lat="48.6183770" lon="14.2488350">
        <ele>684.4</ele>
        <time>2019-08-07T11:44:57Z</time>
      </trkpt>
      <trkpt lat="48.6183610" lon="14.2489230">
        <ele>684.2</ele>
        <time>2019-08-07T11:44:58Z</time>
      </trkpt>
      <trkpt lat="48.6183460" lon="14.2490110">
        <ele>684.2</ele>
        <time>2019-08-07T11:44:59Z</time>
      </trkpt>
      <trkpt lat="48.6183350" lon="14.2491010">
        <ele>684.0</ele>
        <time>2019-08-07T11:45:00Z</time>
      </trkpt>
      <trkpt lat="48.6183270" lon="14.2491910">
        <ele>684.0</ele>
        <time>2019-08-07T11:45:01Z</time>
      </trkpt>
      <trkpt lat="48.6183230" lon="14.2492820">
        <ele>684.0</ele>
        <time>2019-08-07T11:45:02Z</time>
      </trkpt>
      <trkpt lat="48.6183240" lon="14.2493710">
        <ele>684.0</ele>
        <time>2019-08-07T11:45:03Z</time>
      </trkpt>
      <trkpt lat="48.6183280" lon="14.2494590">
        <ele>684.0</ele>
        <time>2019-08-07T11:45:04Z</time>
      </trkpt>
      <trkpt lat="48.6183320" lon="14.2495480">
        <ele>684.0</ele>
        <time>2019-08-07T11:45:05Z</time>
      </trkpt>
      <trkpt lat="48.6183360" lon="14.2496330">
        <ele>684.0</ele>
        <time>2019-08-07T11:45:06Z</time>
      </trkpt>
      <trkpt lat="48.6183390" lon="14.2497190">
        <ele>683.8</ele>
        <time>2019-08-07T11:45:07Z</time>
      </trkpt>
      <trkpt lat="48.6183420" lon="14.2498020">
        <ele>683.8</ele>
        <time>2019-08-07T11:45:08Z</time>
      </trkpt>
      <trkpt lat="48.6183440" lon="14.2498850">
        <ele>683.8</ele>
        <time>2019-08-07T11:45:09Z</time>
      </trkpt>
      <trkpt lat="48.6183490" lon="14.2499670">
        <ele>683.8</ele>
        <time>2019-08-07T11:45:10Z</time>
      </trkpt>
      <trkpt lat="48.6183530" lon="14.2500480">
        <ele>683.8</ele>
        <time>2019-08-07T11:45:11Z</time>
      </trkpt>
      <trkpt lat="48.6183580" lon="14.2501280">
        <ele>683.8</ele>
        <time>2019-08-07T11:45:12Z</time>
      </trkpt>
      <trkpt lat="48.6183620" lon="14.2502080">
        <ele>683.6</ele>
        <time>2019-08-07T11:45:13Z</time>
      </trkpt>
      <trkpt lat="48.6183650" lon="14.2502870">
        <ele>683.6</ele>
        <time>2019-08-07T11:45:14Z</time>
      </trkpt>
      <trkpt lat="48.6183670" lon="14.2503690">
        <ele>683.6</ele>
        <time>2019-08-07T11:45:15Z</time>
      </trkpt>
      <trkpt lat="48.6183710" lon="14.2504490">
        <ele>683.4</ele>
        <time>2019-08-07T11:45:16Z</time>
      </trkpt>
      <trkpt lat="48.6183760" lon="14.2505320">
        <ele>683.4</ele>
        <time>2019-08-07T11:45:17Z</time>
      </trkpt>
      <trkpt lat="48.6183810" lon="14.2506130">
        <ele>683.4</ele>
        <time>2019-08-07T11:45:18Z</time>
      </trkpt>
      <trkpt lat="48.6183860" lon="14.2506960">
        <ele>683.4</ele>
        <time>2019-08-07T11:45:19Z</time>
      </trkpt>
      <trkpt lat="48.6183910" lon="14.2507790">
        <ele>683.4</ele>
        <time>2019-08-07T11:45:20Z</time>
      </trkpt>
      <trkpt lat="48.6183960" lon="14.2508600">
        <ele>683.4</ele>
        <time>2019-08-07T11:45:21Z</time>
      </trkpt>
      <trkpt lat="48.6184030" lon="14.2509430">
        <ele>683.2</ele>
        <time>2019-08-07T11:45:22Z</time>
      </trkpt>
      <trkpt lat="48.6184090" lon="14.2510250">
        <ele>683.2</ele>
        <time>2019-08-07T11:45:23Z</time>
      </trkpt>
      <trkpt lat="48.6184140" lon="14.2511090">
        <ele>683.2</ele>
        <time>2019-08-07T11:45:24Z</time>
      </trkpt>
      <trkpt lat="48.6184170" lon="14.2511930">
        <ele>683.2</ele>
        <time>2019-08-07T11:45:25Z</time>
      </trkpt>
      <trkpt lat="48.6184210" lon="14.2512760">
        <ele>683.0</ele>
        <time>2019-08-07T11:45:26Z</time>
      </trkpt>
      <trkpt lat="48.6184240" lon="14.2513600">
        <ele>683.0</ele>
        <time>2019-08-07T11:45:27Z</time>
      </trkpt>
      <trkpt lat="48.6184280" lon="14.2514440">
        <ele>683.0</ele>
        <time>2019-08-07T11:45:28Z</time>
      </trkpt>
      <trkpt lat="48.6184320" lon="14.2515270">
        <ele>683.0</ele>
        <time>2019-08-07T11:45:29Z</time>
      </trkpt>
      <trkpt lat="48.6184360" lon="14.2516070">
        <ele>683.0</ele>
        <time>2019-08-07T11:45:30Z</time>
      </trkpt>
      <trkpt lat="48.6184420" lon="14.2516900">
        <ele>683.0</ele>
        <time>2019-08-07T11:45:31Z</time>
      </trkpt>
      <trkpt lat="48.6184480" lon="14.2517730">
        <ele>683.0</ele>
        <time>2019-08-07T11:45:32Z</time>
      </trkpt>
      <trkpt lat="48.6184540" lon="14.2518580">
        <ele>682.8</ele>
        <time>2019-08-07T11:45:33Z</time>
      </trkpt>
      <trkpt lat="48.6184590" lon="14.2519420">
        <ele>682.8</ele>
        <time>2019-08-07T11:45:34Z</time>
      </trkpt>
      <trkpt lat="48.6184650" lon="14.2520270">
        <ele>682.8</ele>
        <time>2019-08-07T11:45:35Z</time>
      </trkpt>
      <trkpt lat="48.6184710" lon="14.2521110">
        <ele>682.8</ele>
        <time>2019-08-07T11:45:36Z</time>
      </trkpt>
      <trkpt lat="48.6184740" lon="14.2521950">
        <ele>682.8</ele>
        <time>2019-08-07T11:45:37Z</time>
      </trkpt>
      <trkpt lat="48.6184790" lon="14.2522790">
        <ele>682.6</ele>
        <time>2019-08-07T11:45:38Z</time>
      </trkpt>
      <trkpt lat="48.6184850" lon="14.2523640">
        <ele>682.6</ele>
        <time>2019-08-07T11:45:39Z</time>
      </trkpt>
      <trkpt lat="48.6184900" lon="14.2524470">
        <ele>682.8</ele>
        <time>2019-08-07T11:45:40Z</time>
      </trkpt>
      <trkpt lat="48.6184930" lon="14.2525330">
        <ele>682.6</ele>
        <time>2019-08-07T11:45:41Z</time>
      </trkpt>
      <trkpt lat="48.6184970" lon="14.2526180">
        <ele>682.6</ele>
        <time>2019-08-07T11:45:42Z</time>
      </trkpt>
      <trkpt lat="48.6185010" lon="14.2527050">
        <ele>682.6</ele>
        <time>2019-08-07T11:45:43Z</time>
      </trkpt>
      <trkpt lat="48.6185060" lon="14.2527930">
        <ele>682.6</ele>
        <time>2019-08-07T11:45:44Z</time>
      </trkpt>
      <trkpt lat="48.6185100" lon="14.2528790">
        <ele>682.4</ele>
        <time>2019-08-07T11:45:45Z</time>
      </trkpt>
      <trkpt lat="48.6185160" lon="14.2529680">
        <ele>682.4</ele>
        <time>2019-08-07T11:45:46Z</time>
      </trkpt>
      <trkpt lat="48.6185210" lon="14.2530560">
        <ele>682.4</ele>
        <time>2019-08-07T11:45:47Z</time>
      </trkpt>
      <trkpt lat="48.6185260" lon="14.2531450">
        <ele>682.4</ele>
        <time>2019-08-07T11:45:48Z</time>
      </trkpt>
      <trkpt lat="48.6185290" lon="14.2532330">
        <ele>682.4</ele>
        <time>2019-08-07T11:45:49Z</time>
      </trkpt>
      <trkpt lat="48.6185340" lon="14.2533210">
        <ele>682.2</ele>
        <time>2019-08-07T11:45:50Z</time>
      </trkpt>
      <trkpt lat="48.6185380" lon="14.2534090">
        <ele>682.2</ele>
        <time>2019-08-07T11:45:51Z</time>
      </trkpt>
      <trkpt lat="48.6185440" lon="14.2534960">
        <ele>682.2</ele>
        <time>2019-08-07T11:45:52Z</time>
      </trkpt>
      <trkpt lat="48.6185500" lon="14.2535820">
        <ele>682.2</ele>
        <time>2019-08-07T11:45:53Z</time>
      </trkpt>
      <trkpt lat="48.6185570" lon="14.2536690">
        <ele>682.2</ele>
        <time>2019-08-07T11:45:54Z</time>
      </trkpt>
      <trkpt lat="48.6185670" lon="14.2537560">
        <ele>682.2</ele>
        <time>2019-08-07T11:45:55Z</time>
      </trkpt>
      <trkpt lat="48.6185790" lon="14.2538440">
        <ele>682.2</ele>
        <time>2019-08-07T11:45:56Z</time>
      </trkpt>
      <trkpt lat="48.6185880" lon="14.2539330">
        <ele>682.0</ele>
        <time>2019-08-07T11:45:57Z</time>
      </trkpt>
      <trkpt lat="48.6185990" lon="14.2540200">
        <ele>682.0</ele>
        <time>2019-08-07T11:45:58Z</time>
      </trkpt>
      <trkpt lat="48.6186130" lon="14.2541090">
        <ele>682.0</ele>
        <time>2019-08-07T11:45:59Z</time>
      </trkpt>
      <trkpt lat="48.6186240" lon="14.2542000">
        <ele>682.0</ele>
        <time>2019-08-07T11:46:00Z</time>
      </trkpt>
      <trkpt lat="48.6186350" lon="14.2542880">
        <ele>682.0</ele>
        <time>2019-08-07T11:46:01Z</time>
      </trkpt>
      <trkpt lat="48.6186470" lon="14.2543770">
        <ele>682.0</ele>
        <time>2019-08-07T11:46:02Z</time>
      </trkpt>
      <trkpt lat="48.6186610" lon="14.2544660">
        <ele>682.0</ele>
        <time>2019-08-07T11:46:03Z</time>
      </trkpt>
      <trkpt lat="48.6186750" lon="14.2545560">
        <ele>681.8</ele>
        <time>2019-08-07T11:46:04Z</time>
      </trkpt>
      <trkpt lat="48.6186890" lon="14.2546450">
        <ele>681.8</ele>
        <time>2019-08-07T11:46:05Z</time>
      </trkpt>
      <trkpt lat="48.6187030" lon="14.2547330">
        <ele>681.8</ele>
        <time>2019-08-07T11:46:06Z</time>
      </trkpt>
      <trkpt lat="48.6187180" lon="14.2548210">
        <ele>681.8</ele>
        <time>2019-08-07T11:46:07Z</time>
      </trkpt>
      <trkpt lat="48.6187350" lon="14.2549090">
        <ele>681.8</ele>
        <time>2019-08-07T11:46:08Z</time>
      </trkpt>
      <trkpt lat="48.6187510" lon="14.2549960">
        <ele>681.8</ele>
        <time>2019-08-07T11:46:09Z</time>
      </trkpt>
      <trkpt lat="48.6187680" lon="14.2550820">
        <ele>681.6</ele>
        <time>2019-08-07T11:46:10Z</time>
      </trkpt>
      <trkpt lat="48.6187870" lon="14.2551700">
        <ele>681.6</ele>
        <time>2019-08-07T11:46:11Z</time>
      </trkpt>
      <trkpt lat="48.6188050" lon="14.2552550">
        <ele>681.6</ele>
        <time>2019-08-07T11:46:12Z</time>
      </trkpt>
      <trkpt lat="48.6188230" lon="14.2553390">
        <ele>681.6</ele>
        <time>2019-08-07T11:46:13Z</time>
      </trkpt>
      <trkpt lat="48.6188410" lon="14.2554290">
        <ele>681.6</ele>
        <time>2019-08-07T11:46:14Z</time>
      </trkpt>
      <trkpt lat="48.6188600" lon="14.2555180">
        <ele>681.6</ele>
        <time>2019-08-07T11:46:15Z</time>
      </trkpt>
      <trkpt lat="48.6188770" lon="14.2556030">
        <ele>681.6</ele>
        <time>2019-08-07T11:46:16Z</time>
      </trkpt>
      <trkpt lat="48.6188940" lon="14.2556860">
        <ele>681.6</ele>
        <time>2019-08-07T11:46:17Z</time>
      </trkpt>
      <trkpt lat="48.6189140" lon="14.2557670">
        <ele>681.6</ele>
        <time>2019-08-07T11:46:18Z</time>
      </trkpt>
      <trkpt lat="48.6189380" lon="14.2558480">
        <ele>681.6</ele>
        <time>2019-08-07T11:46:19Z</time>
      </trkpt>
      <trkpt lat="48.6189620" lon="14.2559260">
        <ele>681.6</ele>
        <time>2019-08-07T11:46:20Z</time>
      </trkpt>
      <trkpt lat="48.6189880" lon="14.2560040">
        <ele>681.8</ele>
        <time>2019-08-07T11:46:21Z</time>
      </trkpt>
      <trkpt lat="48.6190170" lon="14.2560790">
        <ele>681.8</ele>
        <time>2019-08-07T11:46:22Z</time>
      </trkpt>
      <trkpt lat="48.6190450" lon="14.2561550">
        <ele>681.6</ele>
        <time>2019-08-07T11:46:23Z</time>
      </trkpt>
      <trkpt lat="48.6190720" lon="14.2562300">
        <ele>681.6</ele>
        <time>2019-08-07T11:46:24Z</time>
      </trkpt>
      <trkpt lat="48.6191000" lon="14.2563040">
        <ele>681.4</ele>
        <time>2019-08-07T11:46:25Z</time>
      </trkpt>
      <trkpt lat="48.6191290" lon="14.2563760">
        <ele>681.4</ele>
        <time>2019-08-07T11:46:26Z</time>
      </trkpt>
      <trkpt lat="48.6191580" lon="14.2564460">
        <ele>681.6</ele>
        <time>2019-08-07T11:46:27Z</time>
      </trkpt>
      <trkpt lat="48.6191900" lon="14.2565160">
        <ele>681.6</ele>
        <time>2019-08-07T11:46:28Z</time>
      </trkpt>
      <trkpt lat="48.6192200" lon="14.2565860">
        <ele>681.6</ele>
        <time>2019-08-07T11:46:29Z</time>
      </trkpt>
      <trkpt lat="48.6192500" lon="14.2566560">
        <ele>681.4</ele>
        <time>2019-08-07T11:46:30Z</time>
      </trkpt>
      <trkpt lat="48.6192790" lon="14.2567260">
        <ele>681.4</ele>
        <time>2019-08-07T11:46:31Z</time>
      </trkpt>
      <trkpt lat="48.6193100" lon="14.2567960">
        <ele>681.4</ele>
        <time>2019-08-07T11:46:32Z</time>
      </trkpt>
      <trkpt lat="48.6193410" lon="14.2568660">
        <ele>681.4</ele>
        <time>2019-08-07T11:46:33Z</time>
      </trkpt>
      <trkpt lat="48.6193740" lon="14.2569330">
        <ele>681.4</ele>
        <time>2019-08-07T11:46:34Z</time>
      </trkpt>
      <trkpt lat="48.6194060" lon="14.2570010">
        <ele>681.4</ele>
        <time>2019-08-07T11:46:35Z</time>
      </trkpt>
      <trkpt lat="48.6194360" lon="14.2570670">
        <ele>681.4</ele>
        <time>2019-08-07T11:46:36Z</time>
      </trkpt>
      <trkpt lat="48.6194680" lon="14.2571340">
        <ele>681.4</ele>
        <time>2019-08-07T11:46:37Z</time>
      </trkpt>
      <trkpt lat="48.6194990" lon="14.2572010">
        <ele>681.6</ele>
        <time>2019-08-07T11:46:38Z</time>
      </trkpt>
      <trkpt lat="48.6195310" lon="14.2572670">
        <ele>681.6</ele>
        <time>2019-08-07T11:46:39Z</time>
      </trkpt>
      <trkpt lat="48.6195620" lon="14.2573340">
        <ele>681.6</ele>
        <time>2019-08-07T11:46:40Z</time>
      </trkpt>
      <trkpt lat="48.6195920" lon="14.2574010">
        <ele>681.4</ele>
        <time>2019-08-07T11:46:41Z</time>
      </trkpt>
      <trkpt lat="48.6196240" lon="14.2574690">
        <ele>681.4</ele>
        <time>2019-08-07T11:46:42Z</time>
      </trkpt>
      <trkpt lat="48.6196560" lon="14.2575370">
        <ele>681.4</ele>
        <time>2019-08-07T11:46:43Z</time>
      </trkpt>
      <trkpt lat="48.6196870" lon="14.2576030">
        <ele>681.6</ele>
        <time>2019-08-07T11:46:44Z</time>
      </trkpt>
      <trkpt lat="48.6197210" lon="14.2576700">
        <ele>681.6</ele>
        <time>2019-08-07T11:46:45Z</time>
      </trkpt>
      <trkpt lat="48.6197540" lon="14.2577380">
        <ele>681.6</ele>
        <time>2019-08-07T11:46:46Z</time>
      </trkpt>
      <trkpt lat="48.6197860" lon="14.2578040">
        <ele>681.6</ele>
        <time>2019-08-07T11:46:47Z</time>
      </trkpt>
      <trkpt lat="48.6198180" lon="14.2578710">
        <ele>681.6</ele>
        <time>2019-08-07T11:46:48Z</time>
      </trkpt>
      <trkpt lat="48.6198510" lon="14.2579370">
        <ele>681.6</ele>
        <time>2019-08-07T11:46:49Z</time>
      </trkpt>
      <trkpt lat="48.6198840" lon="14.2580040">
        <ele>681.6</ele>
        <time>2019-08-07T11:46:50Z</time>
      </trkpt>
      <trkpt lat="48.6199170" lon="14.2580690">
        <ele>681.6</ele>
        <time>2019-08-07T11:46:51Z</time>
      </trkpt>
      <trkpt lat="48.6199490" lon="14.2581350">
        <ele>681.4</ele>
        <time>2019-08-07T11:46:52Z</time>
      </trkpt>
      <trkpt lat="48.6199810" lon="14.2582020">
        <ele>681.6</ele>
        <time>2019-08-07T11:46:53Z</time>
      </trkpt>
      <trkpt lat="48.6200120" lon="14.2582670">
        <ele>681.6</ele>
        <time>2019-08-07T11:46:54Z</time>
      </trkpt>
      <trkpt lat="48.6200430" lon="14.2583280">
        <ele>681.6</ele>
        <time>2019-08-07T11:46:55Z</time>
      </trkpt>
      <trkpt lat="48.6200780" lon="14.2583870">
        <ele>681.6</ele>
        <time>2019-08-07T11:46:56Z</time>
      </trkpt>
      <trkpt lat="48.6201130" lon="14.2584410">
        <ele>681.6</ele>
        <time>2019-08-07T11:46:57Z</time>
      </trkpt>
      <trkpt lat="48.6201480" lon="14.2584940">
        <ele>681.6</ele>
        <time>2019-08-07T11:46:58Z</time>
      </trkpt>
      <trkpt lat="48.6201810" lon="14.2585440">
        <ele>681.6</ele>
        <time>2019-08-07T11:46:59Z</time>
      </trkpt>
      <trkpt lat="48.6202130" lon="14.2585920">
        <ele>681.6</ele>
        <time>2019-08-07T11:47:00Z</time>
      </trkpt>
      <trkpt lat="48.6202470" lon="14.2586400">
        <ele>681.6</ele>
        <time>2019-08-07T11:47:01Z</time>
      </trkpt>
      <trkpt lat="48.6202860" lon="14.2586950">
        <ele>681.6</ele>
        <time>2019-08-07T11:47:02Z</time>
      </trkpt>
      <trkpt lat="48.6203190" lon="14.2587480">
        <ele>681.8</ele>
        <time>2019-08-07T11:47:03Z</time>
      </trkpt>
      <trkpt lat="48.6203530" lon="14.2588020">
        <ele>681.8</ele>
        <time>2019-08-07T11:47:04Z</time>
      </trkpt>
      <trkpt lat="48.6203880" lon="14.2588550">
        <ele>681.8</ele>
        <time>2019-08-07T11:47:05Z</time>
      </trkpt>
      <trkpt lat="48.6204190" lon="14.2589070">
        <ele>681.8</ele>
        <time>2019-08-07T11:47:06Z</time>
      </trkpt>
      <trkpt lat="48.6204470" lon="14.2589570">
        <ele>681.8</ele>
        <time>2019-08-07T11:47:07Z</time>
      </trkpt>
      <trkpt lat="48.6204770" lon="14.2590020">
        <ele>681.8</ele>
        <time>2019-08-07T11:47:08Z</time>
      </trkpt>
      <trkpt lat="48.6205100" lon="14.2590380">
        <ele>682.0</ele>
        <time>2019-08-07T11:47:09Z</time>
      </trkpt>
      <trkpt lat="48.6205450" lon="14.2590620">
        <ele>682.0</ele>
        <time>2019-08-07T11:47:10Z</time>
      </trkpt>
      <trkpt lat="48.6205840" lon="14.2590700">
        <ele>682.0</ele>
        <time>2019-08-07T11:47:11Z</time>
      </trkpt>
      <trkpt lat="48.6206220" lon="14.2590700">
        <ele>682.2</ele>
        <time>2019-08-07T11:47:12Z</time>
      </trkpt>
      <trkpt lat="48.6206610" lon="14.2590550">
        <ele>682.2</ele>
        <time>2019-08-07T11:47:13Z</time>
      </trkpt>
      <trkpt lat="48.6207020" lon="14.2590300">
        <ele>682.2</ele>
        <time>2019-08-07T11:47:14Z</time>
      </trkpt>
      <trkpt lat="48.6207410" lon="14.2590030">
        <ele>682.4</ele>
        <time>2019-08-07T11:47:15Z</time>
      </trkpt>
      <trkpt lat="48.6207830" lon="14.2589800">
        <ele>682.4</ele>
        <time>2019-08-07T11:47:16Z</time>
      </trkpt>
      <trkpt lat="48.6208230" lon="14.2589640">
        <ele>682.4</ele>
        <time>2019-08-07T11:47:17Z</time>
      </trkpt>
      <trkpt lat="48.6208570" lon="14.2589640">
        <ele>682.6</ele>
        <time>2019-08-07T11:47:18Z</time>
      </trkpt>
      <trkpt lat="48.6208910" lon="14.2589770">
        <ele>682.8</ele>
        <time>2019-08-07T11:47:19Z</time>
      </trkpt>
      <trkpt lat="48.6209170" lon="14.2590050">
        <ele>683.0</ele>
        <time>2019-08-07T11:47:20Z</time>
      </trkpt>
      <trkpt lat="48.6209360" lon="14.2590430">
        <ele>683.2</ele>
        <time>2019-08-07T11:47:21Z</time>
      </trkpt>
      <trkpt lat="48.6209530" lon="14.2590930">
        <ele>683.2</ele>
        <time>2019-08-07T11:47:22Z</time>
      </trkpt>
      <trkpt lat="48.6209700" lon="14.2591450">
        <ele>683.4</ele>
        <time>2019-08-07T11:47:23Z</time>
      </trkpt>
      <trkpt lat="48.6209850" lon="14.2591960">
        <ele>683.4</ele>
        <time>2019-08-07T11:47:24Z</time>
      </trkpt>
      <trkpt lat="48.6210040" lon="14.2592450">
        <ele>683.4</ele>
        <time>2019-08-07T11:47:25Z</time>
      </trkpt>
      <trkpt lat="48.6210290" lon="14.2592900">
        <ele>683.6</ele>
        <time>2019-08-07T11:47:26Z</time>
      </trkpt>
      <trkpt lat="48.6210580" lon="14.2593260">
        <ele>683.6</ele>
        <time>2019-08-07T11:47:27Z</time>
      </trkpt>
      <trkpt lat="48.6210910" lon="14.2593530">
        <ele>683.8</ele>
        <time>2019-08-07T11:47:28Z</time>
      </trkpt>
      <trkpt lat="48.6211230" lon="14.2593700">
        <ele>684.0</ele>
        <time>2019-08-07T11:47:29Z</time>
      </trkpt>
      <trkpt lat="48.6211540" lon="14.2593810">
        <ele>684.2</ele>
        <time>2019-08-07T11:47:30Z</time>
      </trkpt>
      <trkpt lat="48.6211810" lon="14.2593890">
        <ele>684.4</ele>
        <time>2019-08-07T11:47:31Z</time>
      </trkpt>
      <trkpt lat="48.6212080" lon="14.2593940">
        <ele>684.4</ele>
        <time>2019-08-07T11:47:32Z</time>
      </trkpt>
      <trkpt lat="48.6212330" lon="14.2593990">
        <ele>684.6</ele>
        <time>2019-08-07T11:47:33Z</time>
      </trkpt>
      <trkpt lat="48.6212570" lon="14.2594030">
        <ele>684.8</ele>
        <time>2019-08-07T11:47:34Z</time>
      </trkpt>
      <trkpt lat="48.6212790" lon="14.2594130">
        <ele>684.8</ele>
        <time>2019-08-07T11:47:35Z</time>
      </trkpt>
      <trkpt lat="48.6213000" lon="14.2594240">
        <ele>685.0</ele>
        <time>2019-08-07T11:47:36Z</time>
      </trkpt>
      <trkpt lat="48.6213200" lon="14.2594340">
        <ele>685.2</ele>
        <time>2019-08-07T11:47:37Z</time>
      </trkpt>
      <trkpt lat="48.6213430" lon="14.2594410">
        <ele>685.4</ele>
        <time>2019-08-07T11:47:38Z</time>
      </trkpt>
      <trkpt lat="48.6213670" lon="14.2594460">
        <ele>685.6</ele>
        <time>2019-08-07T11:47:39Z</time>
      </trkpt>
      <trkpt lat="48.6213890" lon="14.2594510">
        <ele>685.8</ele>
        <time>2019-08-07T11:47:40Z</time>
      </trkpt>
      <trkpt lat="48.6214080" lon="14.2594540">
        <ele>686.0</ele>
        <time>2019-08-07T11:47:41Z</time>
      </trkpt>
      <trkpt lat="48.6214280" lon="14.2594590">
        <ele>686.0</ele>
        <time>2019-08-07T11:47:42Z</time>
      </trkpt>
      <trkpt lat="48.6214430" lon="14.2594630">
        <ele>686.2</ele>
        <time>2019-08-07T11:47:43Z</time>
      </trkpt>
      <trkpt lat="48.6214610" lon="14.2594700">
        <ele>686.4</ele>
        <time>2019-08-07T11:47:44Z</time>
      </trkpt>
      <trkpt lat="48.6214800" lon="14.2594810">
        <ele>686.4</ele>
        <time>2019-08-07T11:47:45Z</time>
      </trkpt>
      <trkpt lat="48.6214980" lon="14.2594960">
        <ele>686.6</ele>
        <time>2019-08-07T11:47:46Z</time>
      </trkpt>
      <trkpt lat="48.6215120" lon="14.2595180">
        <ele>686.6</ele>
        <time>2019-08-07T11:47:47Z</time>
      </trkpt>
      <trkpt lat="48.6215260" lon="14.2595480">
        <ele>686.6</ele>
        <time>2019-08-07T11:47:48Z</time>
      </trkpt>
      <trkpt lat="48.6215400" lon="14.2595810">
        <ele>686.8</ele>
        <time>2019-08-07T11:47:49Z</time>
      </trkpt>
      <trkpt lat="48.6215520" lon="14.2596150">
        <ele>686.8</ele>
        <time>2019-08-07T11:47:50Z</time>
      </trkpt>
      <trkpt lat="48.6215610" lon="14.2596510">
        <ele>686.8</ele>
        <time>2019-08-07T11:47:51Z</time>
      </trkpt>
      <trkpt lat="48.6215700" lon="14.2596930">
        <ele>686.8</ele>
        <time>2019-08-07T11:47:52Z</time>
      </trkpt>
      <trkpt lat="48.6215810" lon="14.2597360">
        <ele>686.8</ele>
        <time>2019-08-07T11:47:53Z</time>
      </trkpt>
      <trkpt lat="48.6215940" lon="14.2597840">
        <ele>686.8</ele>
        <time>2019-08-07T11:47:54Z</time>
      </trkpt>
      <trkpt lat="48.6216070" lon="14.2598310">
        <ele>686.8</ele>
        <time>2019-08-07T11:47:55Z</time>
      </trkpt>
      <trkpt lat="48.6216190" lon="14.2598810">
        <ele>686.8</ele>
        <time>2019-08-07T11:47:56Z</time>
      </trkpt>
      <trkpt lat="48.6216320" lon="14.2599310">
        <ele>686.8</ele>
        <time>2019-08-07T11:47:57Z</time>
      </trkpt>
      <trkpt lat="48.6216420" lon="14.2599840">
        <ele>686.8</ele>
        <time>2019-08-07T11:47:58Z</time>
      </trkpt>
      <trkpt lat="48.6216550" lon="14.2600380">
        <ele>687.0</ele>
        <time>2019-08-07T11:47:59Z</time>
      </trkpt>
      <trkpt lat="48.6216670" lon="14.2600910">
        <ele>687.0</ele>
        <time>2019-08-07T11:48:00Z</time>
      </trkpt>
      <trkpt lat="48.6216810" lon="14.2601440">
        <ele>687.0</ele>
        <time>2019-08-07T11:48:01Z</time>
      </trkpt>
      <trkpt lat="48.6216960" lon="14.2602000">
        <ele>687.0</ele>
        <time>2019-08-07T11:48:02Z</time>
      </trkpt>
      <trkpt lat="48.6217090" lon="14.2602560">
        <ele>687.0</ele>
        <time>2019-08-07T11:48:03Z</time>
      </trkpt>
      <trkpt lat="48.6217230" lon="14.2603150">
        <ele>687.2</ele>
        <time>2019-08-07T11:48:04Z</time>
      </trkpt>
      <trkpt lat="48.6217380" lon="14.2603730">
        <ele>687.0</ele>
        <time>2019-08-07T11:48:05Z</time>
      </trkpt>
      <trkpt lat="48.6217520" lon="14.2604300">
        <ele>687.2</ele>
        <time>2019-08-07T11:48:06Z</time>
      </trkpt>
      <trkpt lat="48.6217680" lon="14.2604890">
        <ele>687.2</ele>
        <time>2019-08-07T11:48:07Z</time>
      </trkpt>
      <trkpt lat="48.6217840" lon="14.2605510">
        <ele>687.2</ele>
        <time>2019-08-07T11:48:08Z</time>
      </trkpt>
      <trkpt lat="48.6217970" lon="14.2606100">
        <ele>687.2</ele>
        <time>2019-08-07T11:48:09Z</time>
      </trkpt>
      <trkpt lat="48.6218130" lon="14.2606750">
        <ele>687.0</ele>
        <time>2019-08-07T11:48:10Z</time>
      </trkpt>
      <trkpt lat="48.6218270" lon="14.2607400">
        <ele>687.0</ele>
        <time>2019-08-07T11:48:11Z</time>
      </trkpt>
      <trkpt lat="48.6218410" lon="14.2608030">
        <ele>687.0</ele>
        <time>2019-08-07T11:48:12Z</time>
      </trkpt>
      <trkpt lat="48.6218560" lon="14.2608670">
        <ele>687.0</ele>
        <time>2019-08-07T11:48:13Z</time>
      </trkpt>
      <trkpt lat="48.6218740" lon="14.2609320">
        <ele>687.0</ele>
        <time>2019-08-07T11:48:14Z</time>
      </trkpt>
      <trkpt lat="48.6218910" lon="14.2609960">
        <ele>687.0</ele>
        <time>2019-08-07T11:48:15Z</time>
      </trkpt>
      <trkpt lat="48.6219060" lon="14.2610620">
        <ele>687.0</ele>
        <time>2019-08-07T11:48:16Z</time>
      </trkpt>
      <trkpt lat="48.6219210" lon="14.2611290">
        <ele>687.0</ele>
        <time>2019-08-07T11:48:17Z</time>
      </trkpt>
      <trkpt lat="48.6219380" lon="14.2611980">
        <ele>687.0</ele>
        <time>2019-08-07T11:48:18Z</time>
      </trkpt>
      <trkpt lat="48.6219530" lon="14.2612640">
        <ele>687.2</ele>
        <time>2019-08-07T11:48:19Z</time>
      </trkpt>
      <trkpt lat="48.6219690" lon="14.2613290">
        <ele>687.0</ele>
        <time>2019-08-07T11:48:20Z</time>
      </trkpt>
      <trkpt lat="48.6219860" lon="14.2613960">
        <ele>687.0</ele>
        <time>2019-08-07T11:48:21Z</time>
      </trkpt>
      <trkpt lat="48.6220030" lon="14.2614630">
        <ele>687.2</ele>
        <time>2019-08-07T11:48:22Z</time>
      </trkpt>
      <trkpt lat="48.6220200" lon="14.2615300">
        <ele>687.2</ele>
        <time>2019-08-07T11:48:23Z</time>
      </trkpt>
      <trkpt lat="48.6220370" lon="14.2615980">
        <ele>687.2</ele>
        <time>2019-08-07T11:48:24Z</time>
      </trkpt>
      <trkpt lat="48.6220530" lon="14.2616650">
        <ele>687.2</ele>
        <time>2019-08-07T11:48:25Z</time>
      </trkpt>
      <trkpt lat="48.6220660" lon="14.2617340">
        <ele>687.2</ele>
        <time>2019-08-07T11:48:26Z</time>
      </trkpt>
      <trkpt lat="48.6220830" lon="14.2618030">
        <ele>687.2</ele>
        <time>2019-08-07T11:48:27Z</time>
      </trkpt>
      <trkpt lat="48.6220980" lon="14.2618730">
        <ele>687.2</ele>
        <time>2019-08-07T11:48:28Z</time>
      </trkpt>
      <trkpt lat="48.6221150" lon="14.2619410">
        <ele>687.4</ele>
        <time>2019-08-07T11:48:29Z</time>
      </trkpt>
      <trkpt lat="48.6221320" lon="14.2620080">
        <ele>687.4</ele>
        <time>2019-08-07T11:48:30Z</time>
      </trkpt>
      <trkpt lat="48.6221500" lon="14.2620740">
        <ele>687.4</ele>
        <time>2019-08-07T11:48:31Z</time>
      </trkpt>
      <trkpt lat="48.6221690" lon="14.2621420">
        <ele>687.2</ele>
        <time>2019-08-07T11:48:32Z</time>
      </trkpt>
      <trkpt lat="48.6221890" lon="14.2622100">
        <ele>687.2</ele>
        <time>2019-08-07T11:48:33Z</time>
      </trkpt>
      <trkpt lat="48.6222110" lon="14.2622770">
        <ele>687.2</ele>
        <time>2019-08-07T11:48:34Z</time>
      </trkpt>
      <trkpt lat="48.6222350" lon="14.2623420">
        <ele>687.2</ele>
        <time>2019-08-07T11:48:35Z</time>
      </trkpt>
      <trkpt lat="48.6222600" lon="14.2624040">
        <ele>687.2</ele>
        <time>2019-08-07T11:48:36Z</time>
      </trkpt>
      <trkpt lat="48.6222870" lon="14.2624630">
        <ele>687.4</ele>
        <time>2019-08-07T11:48:37Z</time>
      </trkpt>
      <trkpt lat="48.6223170" lon="14.2625160">
        <ele>687.4</ele>
        <time>2019-08-07T11:48:38Z</time>
      </trkpt>
      <trkpt lat="48.6223460" lon="14.2625670">
        <ele>687.6</ele>
        <time>2019-08-07T11:48:39Z</time>
      </trkpt>
      <trkpt lat="48.6223720" lon="14.2626150">
        <ele>687.6</ele>
        <time>2019-08-07T11:48:40Z</time>
      </trkpt>
      <trkpt lat="48.6223950" lon="14.2626660">
        <ele>687.8</ele>
        <time>2019-08-07T11:48:41Z</time>
      </trkpt>
      <trkpt lat="48.6224150" lon="14.2627180">
        <ele>688.0</ele>
        <time>2019-08-07T11:48:42Z</time>
      </trkpt>
      <trkpt lat="48.6224310" lon="14.2627700">
        <ele>688.2</ele>
        <time>2019-08-07T11:48:43Z</time>
      </trkpt>
      <trkpt lat="48.6224470" lon="14.2628230">
        <ele>688.2</ele>
        <time>2019-08-07T11:48:44Z</time>
      </trkpt>
      <trkpt lat="48.6224600" lon="14.2628780">
        <ele>688.4</ele>
        <time>2019-08-07T11:48:45Z</time>
      </trkpt>
      <trkpt lat="48.6224720" lon="14.2629380">
        <ele>688.4</ele>
        <time>2019-08-07T11:48:46Z</time>
      </trkpt>
      <trkpt lat="48.6224840" lon="14.2629990">
        <ele>688.4</ele>
        <time>2019-08-07T11:48:47Z</time>
      </trkpt>
      <trkpt lat="48.6224970" lon="14.2630640">
        <ele>688.4</ele>
        <time>2019-08-07T11:48:48Z</time>
      </trkpt>
      <trkpt lat="48.6225110" lon="14.2631280">
        <ele>688.2</ele>
        <time>2019-08-07T11:48:49Z</time>
      </trkpt>
      <trkpt lat="48.6225260" lon="14.2631950">
        <ele>688.2</ele>
        <time>2019-08-07T11:48:50Z</time>
      </trkpt>
      <trkpt lat="48.6225440" lon="14.2632590">
        <ele>688.2</ele>
        <time>2019-08-07T11:48:51Z</time>
      </trkpt>
      <trkpt lat="48.6225660" lon="14.2633190">
        <ele>688.2</ele>
        <time>2019-08-07T11:48:52Z</time>
      </trkpt>
      <trkpt lat="48.6225870" lon="14.2633800">
        <ele>688.2</ele>
        <time>2019-08-07T11:48:53Z</time>
      </trkpt>
      <trkpt lat="48.6226040" lon="14.2634400">
        <ele>688.2</ele>
        <time>2019-08-07T11:48:54Z</time>
      </trkpt>
      <trkpt lat="48.6226160" lon="14.2635040">
        <ele>688.0</ele>
        <time>2019-08-07T11:48:55Z</time>
      </trkpt>
      <trkpt lat="48.6226230" lon="14.2635740">
        <ele>688.0</ele>
        <time>2019-08-07T11:48:56Z</time>
      </trkpt>
      <trkpt lat="48.6226270" lon="14.2636540">
        <ele>687.8</ele>
        <time>2019-08-07T11:48:57Z</time>
      </trkpt>
      <trkpt lat="48.6226280" lon="14.2637410">
        <ele>687.6</ele>
        <time>2019-08-07T11:48:58Z</time>
      </trkpt>
      <trkpt lat="48.6226270" lon="14.2638370">
        <ele>687.2</ele>
        <time>2019-08-07T11:48:59Z</time>
      </trkpt>
      <trkpt lat="48.6226320" lon="14.2639390">
        <ele>687.0</ele>
        <time>2019-08-07T11:49:00Z</time>
      </trkpt>
      <trkpt lat="48.6226490" lon="14.2640430">
        <ele>686.6</ele>
        <time>2019-08-07T11:49:01Z</time>
      </trkpt>
      <trkpt lat="48.6226830" lon="14.2641380">
        <ele>686.4</ele>
        <time>2019-08-07T11:49:02Z</time>
      </trkpt>
      <trkpt lat="48.6227320" lon="14.2642170">
        <ele>686.2</ele>
        <time>2019-08-07T11:49:03Z</time>
      </trkpt>
      <trkpt lat="48.6227790" lon="14.2642850">
        <ele>686.2</ele>
        <time>2019-08-07T11:49:04Z</time>
      </trkpt>
      <trkpt lat="48.6228210" lon="14.2643430">
        <ele>686.2</ele>
        <time>2019-08-07T11:49:05Z</time>
      </trkpt>
      <trkpt lat="48.6228600" lon="14.2644010">
        <ele>686.2</ele>
        <time>2019-08-07T11:49:06Z</time>
      </trkpt>
      <trkpt lat="48.6228960" lon="14.2644610">
        <ele>686.4</ele>
        <time>2019-08-07T11:49:07Z</time>
      </trkpt>
      <trkpt lat="48.6229300" lon="14.2645230">
        <ele>686.4</ele>
        <time>2019-08-07T11:49:08Z</time>
      </trkpt>
      <trkpt lat="48.6229640" lon="14.2645820">
        <ele>686.4</ele>
        <time>2019-08-07T11:49:09Z</time>
      </trkpt>
      <trkpt lat="48.6229980" lon="14.2646430">
        <ele>686.6</ele>
        <time>2019-08-07T11:49:10Z</time>
      </trkpt>
      <trkpt lat="48.6230320" lon="14.2647050">
        <ele>686.6</ele>
        <time>2019-08-07T11:49:11Z</time>
      </trkpt>
      <trkpt lat="48.6230680" lon="14.2647680">
        <ele>686.6</ele>
        <time>2019-08-07T11:49:12Z</time>
      </trkpt>
      <trkpt lat="48.6231040" lon="14.2648300">
        <ele>686.6</ele>
        <time>2019-08-07T11:49:13Z</time>
      </trkpt>
      <trkpt lat="48.6231400" lon="14.2648890">
        <ele>686.6</ele>
        <time>2019-08-07T11:49:14Z</time>
      </trkpt>
      <trkpt lat="48.6231730" lon="14.2649460">
        <ele>686.6</ele>
        <time>2019-08-07T11:49:15Z</time>
      </trkpt>
      <trkpt lat="48.6231970" lon="14.2650100">
        <ele>686.6</ele>
        <time>2019-08-07T11:49:16Z</time>
      </trkpt>
      <trkpt lat="48.6232050" lon="14.2650870">
        <ele>686.4</ele>
        <time>2019-08-07T11:49:17Z</time>
      </trkpt>
      <trkpt lat="48.6232050" lon="14.2651740">
        <ele>686.0</ele>
        <time>2019-08-07T11:49:18Z</time>
      </trkpt>
      <trkpt lat="48.6231930" lon="14.2652540">
        <ele>685.6</ele>
        <time>2019-08-07T11:49:19Z</time>
      </trkpt>
      <trkpt lat="48.6231730" lon="14.2653260">
        <ele>685.0</ele>
        <time>2019-08-07T11:49:20Z</time>
      </trkpt>
      <trkpt lat="48.6231660" lon="14.2654020">
        <ele>684.4</ele>
        <time>2019-08-07T11:49:21Z</time>
      </trkpt>
      <trkpt lat="48.6231740" lon="14.2654790">
        <ele>684.0</ele>
        <time>2019-08-07T11:49:22Z</time>
      </trkpt>
      <trkpt lat="48.6231980" lon="14.2655540">
        <ele>683.6</ele>
        <time>2019-08-07T11:49:23Z</time>
      </trkpt>
      <trkpt lat="48.6232350" lon="14.2656230">
        <ele>683.2</ele>
        <time>2019-08-07T11:49:24Z</time>
      </trkpt>
      <trkpt lat="48.6232750" lon="14.2656860">
        <ele>683.0</ele>
        <time>2019-08-07T11:49:25Z</time>
      </trkpt>
      <trkpt lat="48.6233150" lon="14.2657410">
        <ele>682.6</ele>
        <time>2019-08-07T11:49:26Z</time>
      </trkpt>
      <trkpt lat="48.6233520" lon="14.2657940">
        <ele>682.0</ele>
        <time>2019-08-07T11:49:27Z</time>
      </trkpt>
      <trkpt lat="48.6233900" lon="14.2658510">
        <ele>681.6</ele>
        <time>2019-08-07T11:49:28Z</time>
      </trkpt>
      <trkpt lat="48.6234250" lon="14.2659100">
        <ele>681.2</ele>
        <time>2019-08-07T11:49:29Z</time>
      </trkpt>
      <trkpt lat="48.6234650" lon="14.2659720">
        <ele>680.8</ele>
        <time>2019-08-07T11:49:30Z</time>
      </trkpt>
      <trkpt lat="48.6235030" lon="14.2660390">
        <ele>680.4</ele>
        <time>2019-08-07T11:49:31Z</time>
      </trkpt>
      <trkpt lat="48.6235420" lon="14.2661120">
        <ele>679.8</ele>
        <time>2019-08-07T11:49:32Z</time>
      </trkpt>
      <trkpt lat="48.6235830" lon="14.2661910">
        <ele>679.4</ele>
        <time>2019-08-07T11:49:33Z</time>
      </trkpt>
      <trkpt lat="48.6236350" lon="14.2662790">
        <ele>678.8</ele>
        <time>2019-08-07T11:49:34Z</time>
      </trkpt>
      <trkpt lat="48.6236850" lon="14.2663610">
        <ele>678.2</ele>
        <time>2019-08-07T11:49:35Z</time>
      </trkpt>
      <trkpt lat="48.6237410" lon="14.2664450">
        <ele>677.6</ele>
        <time>2019-08-07T11:49:36Z</time>
      </trkpt>
      <trkpt lat="48.6237970" lon="14.2665230">
        <ele>677.2</ele>
        <time>2019-08-07T11:49:37Z</time>
      </trkpt>
      <trkpt lat="48.6238520" lon="14.2665950">
        <ele>676.8</ele>
        <time>2019-08-07T11:49:38Z</time>
      </trkpt>
      <trkpt lat="48.6239100" lon="14.2666680">
        <ele>676.2</ele>
        <time>2019-08-07T11:49:39Z</time>
      </trkpt>
      <trkpt lat="48.6239690" lon="14.2667410">
        <ele>675.8</ele>
        <time>2019-08-07T11:49:40Z</time>
      </trkpt>
      <trkpt lat="48.6240230" lon="14.2668170">
        <ele>675.4</ele>
        <time>2019-08-07T11:49:41Z</time>
      </trkpt>
      <trkpt lat="48.6240720" lon="14.2669000">
        <ele>675.0</ele>
        <time>2019-08-07T11:49:42Z</time>
      </trkpt>
      <trkpt lat="48.6241190" lon="14.2669850">
        <ele>674.6</ele>
        <time>2019-08-07T11:49:43Z</time>
      </trkpt>
      <trkpt lat="48.6241580" lon="14.2670820">
        <ele>674.4</ele>
        <time>2019-08-07T11:49:44Z</time>
      </trkpt>
      <trkpt lat="48.6242050" lon="14.2671660">
        <ele>674.0</ele>
        <time>2019-08-07T11:49:45Z</time>
      </trkpt>
      <trkpt lat="48.6242570" lon="14.2672530">
        <ele>673.8</ele>
        <time>2019-08-07T11:49:46Z</time>
      </trkpt>
      <trkpt lat="48.6243080" lon="14.2673430">
        <ele>673.6</ele>
        <time>2019-08-07T11:49:47Z</time>
      </trkpt>
      <trkpt lat="48.6243590" lon="14.2674340">
        <ele>673.2</ele>
        <time>2019-08-07T11:49:48Z</time>
      </trkpt>
      <trkpt lat="48.6244070" lon="14.2675260">
        <ele>673.2</ele>
        <time>2019-08-07T11:49:49Z</time>
      </trkpt>
      <trkpt lat="48.6244510" lon="14.2676100">
        <ele>673.0</ele>
        <time>2019-08-07T11:49:50Z</time>
      </trkpt>
      <trkpt lat="48.6244930" lon="14.2676970">
        <ele>672.8</ele>
        <time>2019-08-07T11:49:51Z</time>
      </trkpt>
      <trkpt lat="48.6245300" lon="14.2677820">
        <ele>672.8</ele>
        <time>2019-08-07T11:49:52Z</time>
      </trkpt>
      <trkpt lat="48.6245640" lon="14.2678770">
        <ele>672.6</ele>
        <time>2019-08-07T11:49:53Z</time>
      </trkpt>
      <trkpt lat="48.6246050" lon="14.2679570">
        <ele>672.4</ele>
        <time>2019-08-07T11:49:54Z</time>
      </trkpt>
      <trkpt lat="48.6246430" lon="14.2680530">
        <ele>672.2</ele>
        <time>2019-08-07T11:49:55Z</time>
      </trkpt>
      <trkpt lat="48.6246790" lon="14.2681480">
        <ele>672.0</ele>
        <time>2019-08-07T11:49:56Z</time>
      </trkpt>
      <trkpt lat="48.6247110" lon="14.2682420">
        <ele>671.6</ele>
        <time>2019-08-07T11:49:57Z</time>
      </trkpt>
      <trkpt lat="48.6247420" lon="14.2683180">
        <ele>671.2</ele>
        <time>2019-08-07T11:49:58Z</time>
      </trkpt>
      <trkpt lat="48.6247740" lon="14.2683850">
        <ele>670.8</ele>
        <time>2019-08-07T11:49:59Z</time>
      </trkpt>
      <trkpt lat="48.6248060" lon="14.2684630">
        <ele>670.6</ele>
        <time>2019-08-07T11:50:00Z</time>
      </trkpt>
      <trkpt lat="48.6248350" lon="14.2685440">
        <ele>670.2</ele>
        <time>2019-08-07T11:50:01Z</time>
      </trkpt>
      <trkpt lat="48.6248690" lon="14.2686350">
        <ele>669.8</ele>
        <time>2019-08-07T11:50:02Z</time>
      </trkpt>
      <trkpt lat="48.6249060" lon="14.2687260">
        <ele>669.4</ele>
        <time>2019-08-07T11:50:03Z</time>
      </trkpt>
      <trkpt lat="48.6249400" lon="14.2688230">
        <ele>669.0</ele>
        <time>2019-08-07T11:50:04Z</time>
      </trkpt>
      <trkpt lat="48.6249780" lon="14.2689180">
        <ele>668.6</ele>
        <time>2019-08-07T11:50:05Z</time>
      </trkpt>
      <trkpt lat="48.6250120" lon="14.2690150">
        <ele>668.2</ele>
        <time>2019-08-07T11:50:06Z</time>
      </trkpt>
      <trkpt lat="48.6250410" lon="14.2691200">
        <ele>668.0</ele>
        <time>2019-08-07T11:50:07Z</time>
      </trkpt>
      <trkpt lat="48.6250710" lon="14.2692210">
        <ele>667.6</ele>
        <time>2019-08-07T11:50:08Z</time>
      </trkpt>
      <trkpt lat="48.6250930" lon="14.2693240">
        <ele>667.6</ele>
        <time>2019-08-07T11:50:09Z</time>
      </trkpt>
      <trkpt lat="48.6251150" lon="14.2694150">
        <ele>667.4</ele>
        <time>2019-08-07T11:50:10Z</time>
      </trkpt>
      <trkpt lat="48.6251360" lon="14.2694970">
        <ele>667.4</ele>
        <time>2019-08-07T11:50:11Z</time>
      </trkpt>
      <trkpt lat="48.6251560" lon="14.2695730">
        <ele>667.4</ele>
        <time>2019-08-07T11:50:12Z</time>
      </trkpt>
      <trkpt lat="48.6251730" lon="14.2696550">
        <ele>667.4</ele>
        <time>2019-08-07T11:50:13Z</time>
      </trkpt>
      <trkpt lat="48.6251920" lon="14.2697390">
        <ele>667.4</ele>
        <time>2019-08-07T11:50:14Z</time>
      </trkpt>
      <trkpt lat="48.6252150" lon="14.2698220">
        <ele>667.2</ele>
        <time>2019-08-07T11:50:15Z</time>
      </trkpt>
      <trkpt lat="48.6252420" lon="14.2699040">
        <ele>667.2</ele>
        <time>2019-08-07T11:50:16Z</time>
      </trkpt>
      <trkpt lat="48.6252680" lon="14.2699870">
        <ele>667.0</ele>
        <time>2019-08-07T11:50:17Z</time>
      </trkpt>
      <trkpt lat="48.6252920" lon="14.2700740">
        <ele>667.0</ele>
        <time>2019-08-07T11:50:18Z</time>
      </trkpt>
      <trkpt lat="48.6253200" lon="14.2701550">
        <ele>666.8</ele>
        <time>2019-08-07T11:50:19Z</time>
      </trkpt>
      <trkpt lat="48.6253390" lon="14.2702420">
        <ele>666.6</ele>
        <time>2019-08-07T11:50:20Z</time>
      </trkpt>
      <trkpt lat="48.6253660" lon="14.2703190">
        <ele>666.6</ele>
        <time>2019-08-07T11:50:21Z</time>
      </trkpt>
      <trkpt lat="48.6253990" lon="14.2703980">
        <ele>666.4</ele>
        <time>2019-08-07T11:50:22Z</time>
      </trkpt>
      <trkpt lat="48.6254320" lon="14.2704720">
        <ele>666.4</ele>
        <time>2019-08-07T11:50:23Z</time>
      </trkpt>
      <trkpt lat="48.6254740" lon="14.2705450">
        <ele>666.2</ele>
        <time>2019-08-07T11:50:24Z</time>
      </trkpt>
      <trkpt lat="48.6255140" lon="14.2706180">
        <ele>666.2</ele>
        <time>2019-08-07T11:50:25Z</time>
      </trkpt>
      <trkpt lat="48.6255450" lon="14.2706950">
        <ele>666.2</ele>
        <time>2019-08-07T11:50:26Z</time>
      </trkpt>
      <trkpt lat="48.6255700" lon="14.2707730">
        <ele>666.0</ele>
        <time>2019-08-07T11:50:27Z</time>
      </trkpt>
      <trkpt lat="48.6255950" lon="14.2708450">
        <ele>665.8</ele>
        <time>2019-08-07T11:50:28Z</time>
      </trkpt>
      <trkpt lat="48.6256140" lon="14.2709250">
        <ele>665.6</ele>
        <time>2019-08-07T11:50:29Z</time>
      </trkpt>
      <trkpt lat="48.6256350" lon="14.2709980">
        <ele>665.4</ele>
        <time>2019-08-07T11:50:30Z</time>
      </trkpt>
      <trkpt lat="48.6256620" lon="14.2710650">
        <ele>665.2</ele>
        <time>2019-08-07T11:50:31Z</time>
      </trkpt>
      <trkpt lat="48.6256930" lon="14.2711290">
        <ele>664.8</ele>
        <time>2019-08-07T11:50:32Z</time>
      </trkpt>
      <trkpt lat="48.6257260" lon="14.2711930">
        <ele>664.6</ele>
        <time>2019-08-07T11:50:33Z</time>
      </trkpt>
      <trkpt lat="48.6257560" lon="14.2712590">
        <ele>664.4</ele>
        <time>2019-08-07T11:50:34Z</time>
      </trkpt>
      <trkpt lat="48.6257830" lon="14.2713260">
        <ele>664.0</ele>
        <time>2019-08-07T11:50:35Z</time>
      </trkpt>
      <trkpt lat="48.6258070" lon="14.2713910">
        <ele>663.8</ele>
        <time>2019-08-07T11:50:36Z</time>
      </trkpt>
      <trkpt lat="48.6258260" lon="14.2714520">
        <ele>663.6</ele>
        <time>2019-08-07T11:50:37Z</time>
      </trkpt>
      <trkpt lat="48.6258390" lon="14.2714940">
        <ele>663.4</ele>
        <time>2019-08-07T11:50:38Z</time>
      </trkpt>
      <trkpt lat="48.6258520" lon="14.2715240">
        <ele>663.2</ele>
        <time>2019-08-07T11:50:39Z</time>
      </trkpt>
      <trkpt lat="48.6258630" lon="14.2715440">
        <ele>663.0</ele>
        <time>2019-08-07T11:50:40Z</time>
      </trkpt>
      <trkpt lat="48.6258710" lon="14.2715590">
        <ele>662.8</ele>
        <time>2019-08-07T11:50:41Z</time>
      </trkpt>
      <trkpt lat="48.6258760" lon="14.2715810">
        <ele>662.6</ele>
        <time>2019-08-07T11:50:42Z</time>
      </trkpt>
      <trkpt lat="48.6258760" lon="14.2716060">
        <ele>662.4</ele>
        <time>2019-08-07T11:50:43Z</time>
      </trkpt>
      <trkpt lat="48.6258780" lon="14.2716280">
        <ele>662.4</ele>
        <time>2019-08-07T11:50:44Z</time>
      </trkpt>
      <trkpt lat="48.6258780" lon="14.2716510">
        <ele>662.2</ele>
        <time>2019-08-07T11:50:45Z</time>
      </trkpt>
      <trkpt lat="48.6258740" lon="14.2716640">
        <ele>662.0</ele>
        <time>2019-08-07T11:50:46Z</time>
      </trkpt>
      <trkpt lat="48.6258700" lon="14.2716730">
        <ele>661.8</ele>
        <time>2019-08-07T11:50:47Z</time>
      </trkpt>
      <trkpt lat="48.6258700" lon="14.2716730">
        <ele>661.4</ele>
        <time>2019-08-07T11:50:48Z</time>
      </trkpt>
      <trkpt lat="48.6258700" lon="14.2716730">
        <ele>661.2</ele>
        <time>2019-08-07T11:50:49Z</time>
      </trkpt>
      <trkpt lat="48.6258700" lon="14.2716730">
        <ele>660.8</ele>
        <time>2019-08-07T11:50:50Z</time>
      </trkpt>
      <trkpt lat="48.6258700" lon="14.2716730">
        <ele>660.6</ele>
        <time>2019-08-07T11:50:51Z</time>
      </trkpt>
      <trkpt lat="48.6258700" lon="14.2716730">
        <ele>660.4</ele>
        <time>2019-08-07T11:50:52Z</time>
      </trkpt>
      <trkpt lat="48.6258700" lon="14.2716730">
        <ele>660.0</ele>
        <time>2019-08-07T11:50:53Z</time>
      </trkpt>
      <trkpt lat="48.6258700" lon="14.2716730">
        <ele>659.8</ele>
        <time>2019-08-07T11:50:54Z</time>
      </trkpt>
      <trkpt lat="48.6258700" lon="14.2716730">
        <ele>659.4</ele>
        <time>2019-08-07T11:50:55Z</time>
      </trkpt>
      <trkpt lat="48.6258700" lon="14.2716730">
        <ele>659.0</ele>
        <time>2019-08-07T11:50:56Z</time>
      </trkpt>
      <trkpt lat="48.6258700" lon="14.2716730">
        <ele>658.6</ele>
        <time>2019-08-07T11:50:57Z</time>
      </trkpt>
      <trkpt lat="48.6258700" lon="14.2716730">
        <ele>658.2</ele>
        <time>2019-08-07T11:50:58Z</time>
      </trkpt>
      <trkpt lat="48.6258630" lon="14.2716960">
        <ele>657.8</ele>
        <time>2019-08-07T11:50:59Z</time>
      </trkpt>
      <trkpt lat="48.6258240" lon="14.2718180">
        <ele>657.4</ele>
        <time>2019-08-07T11:51:00Z</time>
      </trkpt>
      <trkpt lat="48.6258220" lon="14.2718620">
        <ele>656.8</ele>
        <time>2019-08-07T11:51:01Z</time>
      </trkpt>
      <trkpt lat="48.6258290" lon="14.2719130">
        <ele>656.2</ele>
        <time>2019-08-07T11:51:02Z</time>
      </trkpt>
      <trkpt lat="48.6258350" lon="14.2719650">
        <ele>655.8</ele>
        <time>2019-08-07T11:51:03Z</time>
      </trkpt>
      <trkpt lat="48.6258460" lon="14.2720180">
        <ele>655.2</ele>
        <time>2019-08-07T11:51:04Z</time>
      </trkpt>
      <trkpt lat="48.6258610" lon="14.2720690">
        <ele>654.8</ele>
        <time>2019-08-07T11:51:05Z</time>
      </trkpt>
      <trkpt lat="48.6258740" lon="14.2721280">
        <ele>654.4</ele>
        <time>2019-08-07T11:51:06Z</time>
      </trkpt>
      <trkpt lat="48.6258860" lon="14.2721900">
        <ele>654.0</ele>
        <time>2019-08-07T11:51:07Z</time>
      </trkpt>
      <trkpt lat="48.6258940" lon="14.2722420">
        <ele>653.6</ele>
        <time>2019-08-07T11:51:08Z</time>
      </trkpt>
      <trkpt lat="48.6259060" lon="14.2722950">
        <ele>653.2</ele>
        <time>2019-08-07T11:51:09Z</time>
      </trkpt>
      <trkpt lat="48.6259210" lon="14.2723440">
        <ele>653.0</ele>
        <time>2019-08-07T11:51:10Z</time>
      </trkpt>
      <trkpt lat="48.6259300" lon="14.2724020">
        <ele>652.6</ele>
        <time>2019-08-07T11:51:11Z</time>
      </trkpt>
      <trkpt lat="48.6259400" lon="14.2724600">
        <ele>652.4</ele>
        <time>2019-08-07T11:51:12Z</time>
      </trkpt>
      <trkpt lat="48.6259520" lon="14.2725150">
        <ele>652.2</ele>
        <time>2019-08-07T11:51:13Z</time>
      </trkpt>
      <trkpt lat="48.6259740" lon="14.2725640">
        <ele>652.2</ele>
        <time>2019-08-07T11:51:14Z</time>
      </trkpt>
      <trkpt lat="48.6259950" lon="14.2726130">
        <ele>652.0</ele>
        <time>2019-08-07T11:51:15Z</time>
      </trkpt>
      <trkpt lat="48.6260080" lon="14.2726690">
        <ele>652.0</ele>
        <time>2019-08-07T11:51:16Z</time>
      </trkpt>
      <trkpt lat="48.6260220" lon="14.2727110">
        <ele>652.0</ele>
        <time>2019-08-07T11:51:17Z</time>
      </trkpt>
      <trkpt lat="48.6260350" lon="14.2727510">
        <ele>652.0</ele>
        <time>2019-08-07T11:51:18Z</time>
      </trkpt>
      <trkpt lat="48.6260450" lon="14.2727900">
        <ele>651.8</ele>
        <time>2019-08-07T11:51:19Z</time>
      </trkpt>
      <trkpt lat="48.6260570" lon="14.2728320">
        <ele>651.8</ele>
        <time>2019-08-07T11:51:20Z</time>
      </trkpt>
      <trkpt lat="48.6260830" lon="14.2728830">
        <ele>651.8</ele>
        <time>2019-08-07T11:51:21Z</time>
      </trkpt>
      <trkpt lat="48.6261140" lon="14.2729480">
        <ele>651.6</ele>
        <time>2019-08-07T11:51:22Z</time>
      </trkpt>
      <trkpt lat="48.6261430" lon="14.2730140">
        <ele>651.6</ele>
        <time>2019-08-07T11:51:23Z</time>
      </trkpt>
      <trkpt lat="48.6261700" lon="14.2730720">
        <ele>651.6</ele>
        <time>2019-08-07T11:51:24Z</time>
      </trkpt>
      <trkpt lat="48.6261850" lon="14.2731280">
        <ele>651.6</ele>
        <time>2019-08-07T11:51:25Z</time>
      </trkpt>
      <trkpt lat="48.6261980" lon="14.2731840">
        <ele>651.6</ele>
        <time>2019-08-07T11:51:26Z</time>
      </trkpt>
      <trkpt lat="48.6262210" lon="14.2732380">
        <ele>651.4</ele>
        <time>2019-08-07T11:51:27Z</time>
      </trkpt>
      <trkpt lat="48.6262450" lon="14.2732830">
        <ele>651.4</ele>
        <time>2019-08-07T11:51:28Z</time>
      </trkpt>
      <trkpt lat="48.6262640" lon="14.2733200">
        <ele>651.4</ele>
        <time>2019-08-07T11:51:29Z</time>
      </trkpt>
      <trkpt lat="48.6262910" lon="14.2733670">
        <ele>651.4</ele>
        <time>2019-08-07T11:51:30Z</time>
      </trkpt>
      <trkpt lat="48.6263340" lon="14.2734240">
        <ele>651.4</ele>
        <time>2019-08-07T11:51:31Z</time>
      </trkpt>
      <trkpt lat="48.6263780" lon="14.2734850">
        <ele>651.2</ele>
        <time>2019-08-07T11:51:32Z</time>
      </trkpt>
      <trkpt lat="48.6264190" lon="14.2735380">
        <ele>651.2</ele>
        <time>2019-08-07T11:51:33Z</time>
      </trkpt>
      <trkpt lat="48.6264500" lon="14.2735800">
        <ele>651.2</ele>
        <time>2019-08-07T11:51:34Z</time>
      </trkpt>
      <trkpt lat="48.6264800" lon="14.2736230">
        <ele>651.2</ele>
        <time>2019-08-07T11:51:35Z</time>
      </trkpt>
      <trkpt lat="48.6265040" lon="14.2736570">
        <ele>651.2</ele>
        <time>2019-08-07T11:51:36Z</time>
      </trkpt>
      <trkpt lat="48.6265280" lon="14.2736860">
        <ele>651.0</ele>
        <time>2019-08-07T11:51:37Z</time>
      </trkpt>
      <trkpt lat="48.6265540" lon="14.2737180">
        <ele>651.0</ele>
        <time>2019-08-07T11:51:38Z</time>
      </trkpt>
      <trkpt lat="48.6265830" lon="14.2737500">
        <ele>651.0</ele>
        <time>2019-08-07T11:51:39Z</time>
      </trkpt>
      <trkpt lat="48.6266110" lon="14.2737870">
        <ele>650.8</ele>
        <time>2019-08-07T11:51:40Z</time>
      </trkpt>
      <trkpt lat="48.6266380" lon="14.2738340">
        <ele>650.8</ele>
        <time>2019-08-07T11:51:41Z</time>
      </trkpt>
      <trkpt lat="48.6266640" lon="14.2738770">
        <ele>650.6</ele>
        <time>2019-08-07T11:51:42Z</time>
      </trkpt>
      <trkpt lat="48.6266850" lon="14.2739140">
        <ele>650.4</ele>
        <time>2019-08-07T11:51:43Z</time>
      </trkpt>
      <trkpt lat="48.6267070" lon="14.2739530">
        <ele>650.4</ele>
        <time>2019-08-07T11:51:44Z</time>
      </trkpt>
      <trkpt lat="48.6267340" lon="14.2739930">
        <ele>650.2</ele>
        <time>2019-08-07T11:51:45Z</time>
      </trkpt>
      <trkpt lat="48.6267630" lon="14.2740260">
        <ele>650.0</ele>
        <time>2019-08-07T11:51:46Z</time>
      </trkpt>
      <trkpt lat="48.6267970" lon="14.2740710">
        <ele>650.0</ele>
        <time>2019-08-07T11:51:47Z</time>
      </trkpt>
      <trkpt lat="48.6268230" lon="14.2741190">
        <ele>649.8</ele>
        <time>2019-08-07T11:51:48Z</time>
      </trkpt>
      <trkpt lat="48.6268470" lon="14.2741680">
        <ele>649.6</ele>
        <time>2019-08-07T11:51:49Z</time>
      </trkpt>
      <trkpt lat="48.6268810" lon="14.2742250">
        <ele>649.4</ele>
        <time>2019-08-07T11:51:50Z</time>
      </trkpt>
      <trkpt lat="48.6269220" lon="14.2742840">
        <ele>649.4</ele>
        <time>2019-08-07T11:51:51Z</time>
      </trkpt>
      <trkpt lat="48.6269590" lon="14.2743320">
        <ele>649.2</ele>
        <time>2019-08-07T11:51:52Z</time>
      </trkpt>
      <trkpt lat="48.6269990" lon="14.2743710">
        <ele>649.0</ele>
        <time>2019-08-07T11:51:53Z</time>
      </trkpt>
      <trkpt lat="48.6270280" lon="14.2744000">
        <ele>648.8</ele>
        <time>2019-08-07T11:51:54Z</time>
      </trkpt>
      <trkpt lat="48.6270520" lon="14.2744250">
        <ele>648.8</ele>
        <time>2019-08-07T11:51:55Z</time>
      </trkpt>
      <trkpt lat="48.6270690" lon="14.2744540">
        <ele>648.6</ele>
        <time>2019-08-07T11:51:56Z</time>
      </trkpt>
      <trkpt lat="48.6270890" lon="14.2744840">
        <ele>648.4</ele>
        <time>2019-08-07T11:51:57Z</time>
      </trkpt>
      <trkpt lat="48.6271130" lon="14.2745120">
        <ele>648.4</ele>
        <time>2019-08-07T11:51:58Z</time>
      </trkpt>
      <trkpt lat="48.6271430" lon="14.2745390">
        <ele>648.2</ele>
        <time>2019-08-07T11:51:59Z</time>
      </trkpt>
      <trkpt lat="48.6271760" lon="14.2745720">
        <ele>648.2</ele>
        <time>2019-08-07T11:52:00Z</time>
      </trkpt>
      <trkpt lat="48.6272100" lon="14.2746060">
        <ele>648.0</ele>
        <time>2019-08-07T11:52:01Z</time>
      </trkpt>
      <trkpt lat="48.6272390" lon="14.2746390">
        <ele>648.0</ele>
        <time>2019-08-07T11:52:02Z</time>
      </trkpt>
      <trkpt lat="48.6272680" lon="14.2746760">
        <ele>647.8</ele>
        <time>2019-08-07T11:52:03Z</time>
      </trkpt>
      <trkpt lat="48.6272980" lon="14.2747120">
        <ele>647.8</ele>
        <time>2019-08-07T11:52:04Z</time>
      </trkpt>
      <trkpt lat="48.6273300" lon="14.2747570">
        <ele>647.6</ele>
        <time>2019-08-07T11:52:05Z</time>
      </trkpt>
      <trkpt lat="48.6273550" lon="14.2747960">
        <ele>647.6</ele>
        <time>2019-08-07T11:52:06Z</time>
      </trkpt>
      <trkpt lat="48.6273760" lon="14.2748280">
        <ele>647.6</ele>
        <time>2019-08-07T11:52:07Z</time>
      </trkpt>
      <trkpt lat="48.6273940" lon="14.2748490">
        <ele>647.4</ele>
        <time>2019-08-07T11:52:08Z</time>
      </trkpt>
      <trkpt lat="48.6274180" lon="14.2748800">
        <ele>647.4</ele>
        <time>2019-08-07T11:52:09Z</time>
      </trkpt>
      <trkpt lat="48.6274470" lon="14.2749140">
        <ele>647.2</ele>
        <time>2019-08-07T11:52:10Z</time>
      </trkpt>
      <trkpt lat="48.6274730" lon="14.2749450">
        <ele>647.2</ele>
        <time>2019-08-07T11:52:11Z</time>
      </trkpt>
      <trkpt lat="48.6274960" lon="14.2749730">
        <ele>647.0</ele>
        <time>2019-08-07T11:52:12Z</time>
      </trkpt>
      <trkpt lat="48.6275160" lon="14.2749980">
        <ele>646.8</ele>
        <time>2019-08-07T11:52:13Z</time>
      </trkpt>
      <trkpt lat="48.6275370" lon="14.2750230">
        <ele>646.8</ele>
        <time>2019-08-07T11:52:14Z</time>
      </trkpt>
      <trkpt lat="48.6275570" lon="14.2750490">
        <ele>646.6</ele>
        <time>2019-08-07T11:52:15Z</time>
      </trkpt>
      <trkpt lat="48.6275860" lon="14.2750710">
        <ele>646.4</ele>
        <time>2019-08-07T11:52:16Z</time>
      </trkpt>
      <trkpt lat="48.6276200" lon="14.2750940">
        <ele>646.2</ele>
        <time>2019-08-07T11:52:17Z</time>
      </trkpt>
      <trkpt lat="48.6276470" lon="14.2751150">
        <ele>646.2</ele>
        <time>2019-08-07T11:52:18Z</time>
      </trkpt>
      <trkpt lat="48.6276750" lon="14.2751420">
        <ele>646.0</ele>
        <time>2019-08-07T11:52:19Z</time>
      </trkpt>
      <trkpt lat="48.6277020" lon="14.2751670">
        <ele>645.8</ele>
        <time>2019-08-07T11:52:20Z</time>
      </trkpt>
      <trkpt lat="48.6277250" lon="14.2751920">
        <ele>645.6</ele>
        <time>2019-08-07T11:52:21Z</time>
      </trkpt>
      <trkpt lat="48.6277530" lon="14.2752210">
        <ele>645.4</ele>
        <time>2019-08-07T11:52:22Z</time>
      </trkpt>
      <trkpt lat="48.6277690" lon="14.2752460">
        <ele>645.2</ele>
        <time>2019-08-07T11:52:23Z</time>
      </trkpt>
      <trkpt lat="48.6277840" lon="14.2752730">
        <ele>645.2</ele>
        <time>2019-08-07T11:52:24Z</time>
      </trkpt>
      <trkpt lat="48.6277990" lon="14.2752990">
        <ele>645.0</ele>
        <time>2019-08-07T11:52:25Z</time>
      </trkpt>
      <trkpt lat="48.6278180" lon="14.2753280">
        <ele>644.8</ele>
        <time>2019-08-07T11:52:26Z</time>
      </trkpt>
      <trkpt lat="48.6278370" lon="14.2753610">
        <ele>644.6</ele>
        <time>2019-08-07T11:52:27Z</time>
      </trkpt>
      <trkpt lat="48.6278560" lon="14.2753960">
        <ele>644.4</ele>
        <time>2019-08-07T11:52:28Z</time>
      </trkpt>
      <trkpt lat="48.6278780" lon="14.2754300">
        <ele>644.0</ele>
        <time>2019-08-07T11:52:29Z</time>
      </trkpt>
      <trkpt lat="48.6279020" lon="14.2754580">
        <ele>643.8</ele>
        <time>2019-08-07T11:52:30Z</time>
      </trkpt>
      <trkpt lat="48.6279310" lon="14.2754950">
        <ele>643.6</ele>
        <time>2019-08-07T11:52:31Z</time>
      </trkpt>
      <trkpt lat="48.6279630" lon="14.2755280">
        <ele>643.6</ele>
        <time>2019-08-07T11:52:32Z</time>
      </trkpt>
      <trkpt lat="48.6279990" lon="14.2755660">
        <ele>643.4</ele>
        <time>2019-08-07T11:52:33Z</time>
      </trkpt>
      <trkpt lat="48.6280480" lon="14.2756120">
        <ele>643.2</ele>
        <time>2019-08-07T11:52:34Z</time>
      </trkpt>
      <trkpt lat="48.6280860" lon="14.2756600">
        <ele>643.0</ele>
        <time>2019-08-07T11:52:35Z</time>
      </trkpt>
      <trkpt lat="48.6281110" lon="14.2756940">
        <ele>642.8</ele>
        <time>2019-08-07T11:52:36Z</time>
      </trkpt>
      <trkpt lat="48.6281350" lon="14.2757300">
        <ele>642.6</ele>
        <time>2019-08-07T11:52:37Z</time>
      </trkpt>
      <trkpt lat="48.6281630" lon="14.2757690">
        <ele>642.4</ele>
        <time>2019-08-07T11:52:38Z</time>
      </trkpt>
      <trkpt lat="48.6281950" lon="14.2758210">
        <ele>642.2</ele>
        <time>2019-08-07T11:52:39Z</time>
      </trkpt>
      <trkpt lat="48.6282250" lon="14.2758880">
        <ele>642.0</ele>
        <time>2019-08-07T11:52:40Z</time>
      </trkpt>
      <trkpt lat="48.6282560" lon="14.2759500">
        <ele>641.8</ele>
        <time>2019-08-07T11:52:41Z</time>
      </trkpt>
      <trkpt lat="48.6282900" lon="14.2760040">
        <ele>641.6</ele>
        <time>2019-08-07T11:52:42Z</time>
      </trkpt>
      <trkpt lat="48.6283260" lon="14.2760460">
        <ele>641.4</ele>
        <time>2019-08-07T11:52:43Z</time>
      </trkpt>
      <trkpt lat="48.6283700" lon="14.2761070">
        <ele>641.2</ele>
        <time>2019-08-07T11:52:44Z</time>
      </trkpt>
      <trkpt lat="48.6284010" lon="14.2761580">
        <ele>641.0</ele>
        <time>2019-08-07T11:52:45Z</time>
      </trkpt>
      <trkpt lat="48.6284290" lon="14.2762020">
        <ele>641.0</ele>
        <time>2019-08-07T11:52:46Z</time>
      </trkpt>
      <trkpt lat="48.6284570" lon="14.2762420">
        <ele>640.8</ele>
        <time>2019-08-07T11:52:47Z</time>
      </trkpt>
      <trkpt lat="48.6284860" lon="14.2762810">
        <ele>640.6</ele>
        <time>2019-08-07T11:52:48Z</time>
      </trkpt>
      <trkpt lat="48.6285110" lon="14.2763180">
        <ele>640.6</ele>
        <time>2019-08-07T11:52:49Z</time>
      </trkpt>
      <trkpt lat="48.6285450" lon="14.2763630">
        <ele>640.4</ele>
        <time>2019-08-07T11:52:50Z</time>
      </trkpt>
      <trkpt lat="48.6285780" lon="14.2764030">
        <ele>640.2</ele>
        <time>2019-08-07T11:52:51Z</time>
      </trkpt>
      <trkpt lat="48.6286100" lon="14.2764360">
        <ele>640.2</ele>
        <time>2019-08-07T11:52:52Z</time>
      </trkpt>
      <trkpt lat="48.6286410" lon="14.2764570">
        <ele>640.2</ele>
        <time>2019-08-07T11:52:53Z</time>
      </trkpt>
      <trkpt lat="48.6286720" lon="14.2764930">
        <ele>640.0</ele>
        <time>2019-08-07T11:52:54Z</time>
      </trkpt>
      <trkpt lat="48.6287050" lon="14.2765210">
        <ele>640.0</ele>
        <time>2019-08-07T11:52:55Z</time>
      </trkpt>
      <trkpt lat="48.6287190" lon="14.2765350">
        <ele>640.0</ele>
        <time>2019-08-07T11:52:56Z</time>
      </trkpt>
      <trkpt lat="48.6287390" lon="14.2765350">
        <ele>640.2</ele>
        <time>2019-08-07T11:52:57Z</time>
      </trkpt>
      <trkpt lat="48.6287610" lon="14.2765350">
        <ele>640.2</ele>
        <time>2019-08-07T11:52:58Z</time>
      </trkpt>
      <trkpt lat="48.6287830" lon="14.2765390">
        <ele>640.4</ele>
        <time>2019-08-07T11:52:59Z</time>
      </trkpt>
      <trkpt lat="48.6287990" lon="14.2765320">
        <ele>640.6</ele>
        <time>2019-08-07T11:53:00Z</time>
      </trkpt>
      <trkpt lat="48.6288170" lon="14.2765220">
        <ele>640.8</ele>
        <time>2019-08-07T11:53:01Z</time>
      </trkpt>
      <trkpt lat="48.6288470" lon="14.2765150">
        <ele>641.2</ele>
        <time>2019-08-07T11:53:02Z</time>
      </trkpt>
      <trkpt lat="48.6288760" lon="14.2765040">
        <ele>641.4</ele>
        <time>2019-08-07T11:53:03Z</time>
      </trkpt>
      <trkpt lat="48.6288990" lon="14.2764890">
        <ele>641.6</ele>
        <time>2019-08-07T11:53:04Z</time>
      </trkpt>
      <trkpt lat="48.6289110" lon="14.2764740">
        <ele>642.0</ele>
        <time>2019-08-07T11:53:05Z</time>
      </trkpt>
      <trkpt lat="48.6289260" lon="14.2764700">
        <ele>642.2</ele>
        <time>2019-08-07T11:53:06Z</time>
      </trkpt>
      <trkpt lat="48.6289410" lon="14.2764620">
        <ele>642.6</ele>
        <time>2019-08-07T11:53:07Z</time>
      </trkpt>
      <trkpt lat="48.6289540" lon="14.2764550">
        <ele>642.8</ele>
        <time>2019-08-07T11:53:08Z</time>
      </trkpt>
      <trkpt lat="48.6289650" lon="14.2764450">
        <ele>643.2</ele>
        <time>2019-08-07T11:53:09Z</time>
      </trkpt>
      <trkpt lat="48.6289740" lon="14.2764330">
        <ele>643.4</ele>
        <time>2019-08-07T11:53:10Z</time>
      </trkpt>
      <trkpt lat="48.6289910" lon="14.2764210">
        <ele>643.6</ele>
        <time>2019-08-07T11:53:11Z</time>
      </trkpt>
      <trkpt lat="48.6290100" lon="14.2764110">
        <ele>643.6</ele>
        <time>2019-08-07T11:53:12Z</time>
      </trkpt>
      <trkpt lat="48.6290300" lon="14.2764090">
        <ele>643.8</ele>
        <time>2019-08-07T11:53:13Z</time>
      </trkpt>
      <trkpt lat="48.6290480" lon="14.2764110">
        <ele>643.8</ele>
        <time>2019-08-07T11:53:14Z</time>
      </trkpt>
      <trkpt lat="48.6290640" lon="14.2764150">
        <ele>644.0</ele>
        <time>2019-08-07T11:53:15Z</time>
      </trkpt>
      <trkpt lat="48.6290760" lon="14.2764230">
        <ele>644.0</ele>
        <time>2019-08-07T11:53:16Z</time>
      </trkpt>
      <trkpt lat="48.6290940" lon="14.2764330">
        <ele>644.2</ele>
        <time>2019-08-07T11:53:17Z</time>
      </trkpt>
      <trkpt lat="48.6291130" lon="14.2764420">
        <ele>644.2</ele>
        <time>2019-08-07T11:53:18Z</time>
      </trkpt>
      <trkpt lat="48.6291280" lon="14.2764500">
        <ele>644.2</ele>
        <time>2019-08-07T11:53:19Z</time>
      </trkpt>
      <trkpt lat="48.6291450" lon="14.2764560">
        <ele>644.4</ele>
        <time>2019-08-07T11:53:20Z</time>
      </trkpt>
      <trkpt lat="48.6291610" lon="14.2764590">
        <ele>644.4</ele>
        <time>2019-08-07T11:53:21Z</time>
      </trkpt>
      <trkpt lat="48.6291800" lon="14.2764670">
        <ele>644.4</ele>
        <time>2019-08-07T11:53:22Z</time>
      </trkpt>
      <trkpt lat="48.6291950" lon="14.2764760">
        <ele>644.4</ele>
        <time>2019-08-07T11:53:23Z</time>
      </trkpt>
      <trkpt lat="48.6292080" lon="14.2764830">
        <ele>644.6</ele>
        <time>2019-08-07T11:53:24Z</time>
      </trkpt>
      <trkpt lat="48.6292230" lon="14.2764900">
        <ele>644.6</ele>
        <time>2019-08-07T11:53:25Z</time>
      </trkpt>
      <trkpt lat="48.6292380" lon="14.2764920">
        <ele>644.6</ele>
        <time>2019-08-07T11:53:26Z</time>
      </trkpt>
      <trkpt lat="48.6292540" lon="14.2764950">
        <ele>644.6</ele>
        <time>2019-08-07T11:53:27Z</time>
      </trkpt>
      <trkpt lat="48.6292690" lon="14.2764970">
        <ele>644.6</ele>
        <time>2019-08-07T11:53:28Z</time>
      </trkpt>
      <trkpt lat="48.6292850" lon="14.2764980">
        <ele>644.6</ele>
        <time>2019-08-07T11:53:29Z</time>
      </trkpt>
      <trkpt lat="48.6293060" lon="14.2764980">
        <ele>644.6</ele>
        <time>2019-08-07T11:53:30Z</time>
      </trkpt>
      <trkpt lat="48.6293320" lon="14.2764980">
        <ele>644.4</ele>
        <time>2019-08-07T11:53:31Z</time>
      </trkpt>
      <trkpt lat="48.6293650" lon="14.2765050">
        <ele>644.2</ele>
        <time>2019-08-07T11:53:32Z</time>
      </trkpt>
      <trkpt lat="48.6294030" lon="14.2765110">
        <ele>644.2</ele>
        <time>2019-08-07T11:53:33Z</time>
      </trkpt>
      <trkpt lat="48.6294430" lon="14.2765080">
        <ele>644.0</ele>
        <time>2019-08-07T11:53:34Z</time>
      </trkpt>
      <trkpt lat="48.6294810" lon="14.2765040">
        <ele>643.6</ele>
        <time>2019-08-07T11:53:35Z</time>
      </trkpt>
      <trkpt lat="48.6295200" lon="14.2764990">
        <ele>643.4</ele>
        <time>2019-08-07T11:53:36Z</time>
      </trkpt>
      <trkpt lat="48.6295560" lon="14.2764960">
        <ele>643.2</ele>
        <time>2019-08-07T11:53:37Z</time>
      </trkpt>
      <trkpt lat="48.6295960" lon="14.2764910">
        <ele>643.0</ele>
        <time>2019-08-07T11:53:38Z</time>
      </trkpt>
      <trkpt lat="48.6296330" lon="14.2764810">
        <ele>642.8</ele>
        <time>2019-08-07T11:53:39Z</time>
      </trkpt>
      <trkpt lat="48.6296770" lon="14.2764570">
        <ele>642.6</ele>
        <time>2019-08-07T11:53:40Z</time>
      </trkpt>
      <trkpt lat="48.6297190" lon="14.2764370">
        <ele>642.4</ele>
        <time>2019-08-07T11:53:41Z</time>
      </trkpt>
      <trkpt lat="48.6297650" lon="14.2764190">
        <ele>642.2</ele>
        <time>2019-08-07T11:53:42Z</time>
      </trkpt>
      <trkpt lat="48.6298090" lon="14.2764020">
        <ele>642.0</ele>
        <time>2019-08-07T11:53:43Z</time>
      </trkpt>
      <trkpt lat="48.6298540" lon="14.2763740">
        <ele>641.8</ele>
        <time>2019-08-07T11:53:44Z</time>
      </trkpt>
      <trkpt lat="48.6299110" lon="14.2763330">
        <ele>641.6</ele>
        <time>2019-08-07T11:53:45Z</time>
      </trkpt>
      <trkpt lat="48.6299650" lon="14.2762970">
        <ele>641.6</ele>
        <time>2019-08-07T11:53:46Z</time>
      </trkpt>
      <trkpt lat="48.6300170" lon="14.2762550">
        <ele>641.2</ele>
        <time>2019-08-07T11:53:47Z</time>
      </trkpt>
      <trkpt lat="48.6300660" lon="14.2762110">
        <ele>641.0</ele>
        <time>2019-08-07T11:53:48Z</time>
      </trkpt>
      <trkpt lat="48.6301170" lon="14.2761640">
        <ele>640.8</ele>
        <time>2019-08-07T11:53:49Z</time>
      </trkpt>
      <trkpt lat="48.6301640" lon="14.2761190">
        <ele>640.6</ele>
        <time>2019-08-07T11:53:50Z</time>
      </trkpt>
      <trkpt lat="48.6302180" lon="14.2760710">
        <ele>640.4</ele>
        <time>2019-08-07T11:53:51Z</time>
      </trkpt>
      <trkpt lat="48.6302740" lon="14.2760210">
        <ele>640.2</ele>
        <time>2019-08-07T11:53:52Z</time>
      </trkpt>
      <trkpt lat="48.6303210" lon="14.2759690">
        <ele>640.0</ele>
        <time>2019-08-07T11:53:53Z</time>
      </trkpt>
      <trkpt lat="48.6303650" lon="14.2759180">
        <ele>639.8</ele>
        <time>2019-08-07T11:53:54Z</time>
      </trkpt>
      <trkpt lat="48.6304090" lon="14.2758640">
        <ele>639.6</ele>
        <time>2019-08-07T11:53:55Z</time>
      </trkpt>
      <trkpt lat="48.6304600" lon="14.2758130">
        <ele>639.4</ele>
        <time>2019-08-07T11:53:56Z</time>
      </trkpt>
      <trkpt lat="48.6305190" lon="14.2757600">
        <ele>639.2</ele>
        <time>2019-08-07T11:53:57Z</time>
      </trkpt>
      <trkpt lat="48.6305730" lon="14.2757150">
        <ele>639.0</ele>
        <time>2019-08-07T11:53:58Z</time>
      </trkpt>
      <trkpt lat="48.6306160" lon="14.2756810">
        <ele>638.8</ele>
        <time>2019-08-07T11:53:59Z</time>
      </trkpt>
      <trkpt lat="48.6306470" lon="14.2756500">
        <ele>638.6</ele>
        <time>2019-08-07T11:54:00Z</time>
      </trkpt>
      <trkpt lat="48.6306770" lon="14.2756310">
        <ele>638.6</ele>
        <time>2019-08-07T11:54:01Z</time>
      </trkpt>
      <trkpt lat="48.6307090" lon="14.2756120">
        <ele>638.4</ele>
        <time>2019-08-07T11:54:02Z</time>
      </trkpt>
      <trkpt lat="48.6307390" lon="14.2756070">
        <ele>638.4</ele>
        <time>2019-08-07T11:54:03Z</time>
      </trkpt>
      <trkpt lat="48.6307780" lon="14.2756140">
        <ele>638.4</ele>
        <time>2019-08-07T11:54:04Z</time>
      </trkpt>
      <trkpt lat="48.6308210" lon="14.2756190">
        <ele>638.4</ele>
        <time>2019-08-07T11:54:05Z</time>
      </trkpt>
      <trkpt lat="48.6308630" lon="14.2756230">
        <ele>638.6</ele>
        <time>2019-08-07T11:54:06Z</time>
      </trkpt>
      <trkpt lat="48.6309070" lon="14.2756310">
        <ele>638.6</ele>
        <time>2019-08-07T11:54:07Z</time>
      </trkpt>
      <trkpt lat="48.6309530" lon="14.2756430">
        <ele>638.8</ele>
        <time>2019-08-07T11:54:08Z</time>
      </trkpt>
      <trkpt lat="48.6309980" lon="14.2756510">
        <ele>638.8</ele>
        <time>2019-08-07T11:54:09Z</time>
      </trkpt>
      <trkpt lat="48.6310320" lon="14.2756540">
        <ele>639.0</ele>
        <time>2019-08-07T11:54:10Z</time>
      </trkpt>
      <trkpt lat="48.6310670" lon="14.2756570">
        <ele>639.0</ele>
        <time>2019-08-07T11:54:11Z</time>
      </trkpt>
      <trkpt lat="48.6311050" lon="14.2756630">
        <ele>639.2</ele>
        <time>2019-08-07T11:54:12Z</time>
      </trkpt>
      <trkpt lat="48.6311430" lon="14.2756690">
        <ele>639.2</ele>
        <time>2019-08-07T11:54:13Z</time>
      </trkpt>
      <trkpt lat="48.6311770" lon="14.2756700">
        <ele>639.2</ele>
        <time>2019-08-07T11:54:14Z</time>
      </trkpt>
      <trkpt lat="48.6312170" lon="14.2756690">
        <ele>639.2</ele>
        <time>2019-08-07T11:54:15Z</time>
      </trkpt>
      <trkpt lat="48.6312640" lon="14.2756620">
        <ele>639.2</ele>
        <time>2019-08-07T11:54:16Z</time>
      </trkpt>
      <trkpt lat="48.6313080" lon="14.2756580">
        <ele>639.2</ele>
        <time>2019-08-07T11:54:17Z</time>
      </trkpt>
      <trkpt lat="48.6313500" lon="14.2756560">
        <ele>639.0</ele>
        <time>2019-08-07T11:54:18Z</time>
      </trkpt>
      <trkpt lat="48.6314000" lon="14.2756530">
        <ele>639.0</ele>
        <time>2019-08-07T11:54:19Z</time>
      </trkpt>
      <trkpt lat="48.6314480" lon="14.2756410">
        <ele>638.8</ele>
        <time>2019-08-07T11:54:20Z</time>
      </trkpt>
      <trkpt lat="48.6314880" lon="14.2756270">
        <ele>638.6</ele>
        <time>2019-08-07T11:54:21Z</time>
      </trkpt>
      <trkpt lat="48.6315240" lon="14.2756190">
        <ele>638.4</ele>
        <time>2019-08-07T11:54:22Z</time>
      </trkpt>
      <trkpt lat="48.6315630" lon="14.2756220">
        <ele>638.2</ele>
        <time>2019-08-07T11:54:23Z</time>
      </trkpt>
      <trkpt lat="48.6316260" lon="14.2756350">
        <ele>638.0</ele>
        <time>2019-08-07T11:54:24Z</time>
      </trkpt>
      <trkpt lat="48.6316760" lon="14.2756420">
        <ele>637.8</ele>
        <time>2019-08-07T11:54:25Z</time>
      </trkpt>
      <trkpt lat="48.6317270" lon="14.2756460">
        <ele>637.6</ele>
        <time>2019-08-07T11:54:26Z</time>
      </trkpt>
      <trkpt lat="48.6317840" lon="14.2756540">
        <ele>637.6</ele>
        <time>2019-08-07T11:54:27Z</time>
      </trkpt>
      <trkpt lat="48.6318340" lon="14.2756660">
        <ele>637.4</ele>
        <time>2019-08-07T11:54:28Z</time>
      </trkpt>
      <trkpt lat="48.6318880" lon="14.2756660">
        <ele>637.2</ele>
        <time>2019-08-07T11:54:29Z</time>
      </trkpt>
      <trkpt lat="48.6319550" lon="14.2756330">
        <ele>637.0</ele>
        <time>2019-08-07T11:54:30Z</time>
      </trkpt>
      <trkpt lat="48.6320120" lon="14.2756300">
        <ele>636.8</ele>
        <time>2019-08-07T11:54:31Z</time>
      </trkpt>
      <trkpt lat="48.6320700" lon="14.2756310">
        <ele>636.4</ele>
        <time>2019-08-07T11:54:32Z</time>
      </trkpt>
      <trkpt lat="48.6321290" lon="14.2756300">
        <ele>636.2</ele>
        <time>2019-08-07T11:54:33Z</time>
      </trkpt>
      <trkpt lat="48.6321910" lon="14.2756370">
        <ele>635.8</ele>
        <time>2019-08-07T11:54:34Z</time>
      </trkpt>
      <trkpt lat="48.6322540" lon="14.2756470">
        <ele>635.6</ele>
        <time>2019-08-07T11:54:35Z</time>
      </trkpt>
      <trkpt lat="48.6323260" lon="14.2756520">
        <ele>635.4</ele>
        <time>2019-08-07T11:54:36Z</time>
      </trkpt>
      <trkpt lat="48.6323960" lon="14.2756700">
        <ele>635.2</ele>
        <time>2019-08-07T11:54:37Z</time>
      </trkpt>
      <trkpt lat="48.6324680" lon="14.2756840">
        <ele>635.0</ele>
        <time>2019-08-07T11:54:38Z</time>
      </trkpt>
      <trkpt lat="48.6325390" lon="14.2756830">
        <ele>634.8</ele>
        <time>2019-08-07T11:54:39Z</time>
      </trkpt>
      <trkpt lat="48.6325990" lon="14.2756850">
        <ele>634.8</ele>
        <time>2019-08-07T11:54:40Z</time>
      </trkpt>
      <trkpt lat="48.6326550" lon="14.2756750">
        <ele>634.8</ele>
        <time>2019-08-07T11:54:41Z</time>
      </trkpt>
      <trkpt lat="48.6327090" lon="14.2756690">
        <ele>634.6</ele>
        <time>2019-08-07T11:54:42Z</time>
      </trkpt>
      <trkpt lat="48.6327610" lon="14.2756640">
        <ele>634.6</ele>
        <time>2019-08-07T11:54:43Z</time>
      </trkpt>
      <trkpt lat="48.6328100" lon="14.2756570">
        <ele>634.4</ele>
        <time>2019-08-07T11:54:44Z</time>
      </trkpt>
      <trkpt lat="48.6328600" lon="14.2756500">
        <ele>634.2</ele>
        <time>2019-08-07T11:54:45Z</time>
      </trkpt>
      <trkpt lat="48.6329070" lon="14.2756450">
        <ele>633.8</ele>
        <time>2019-08-07T11:54:46Z</time>
      </trkpt>
      <trkpt lat="48.6329630" lon="14.2756420">
        <ele>633.6</ele>
        <time>2019-08-07T11:54:47Z</time>
      </trkpt>
      <trkpt lat="48.6330140" lon="14.2756370">
        <ele>633.2</ele>
        <time>2019-08-07T11:54:48Z</time>
      </trkpt>
      <trkpt lat="48.6330740" lon="14.2756330">
        <ele>633.0</ele>
        <time>2019-08-07T11:54:49Z</time>
      </trkpt>
      <trkpt lat="48.6331420" lon="14.2756420">
        <ele>632.8</ele>
        <time>2019-08-07T11:54:50Z</time>
      </trkpt>
      <trkpt lat="48.6332060" lon="14.2756510">
        <ele>632.4</ele>
        <time>2019-08-07T11:54:51Z</time>
      </trkpt>
      <trkpt lat="48.6332630" lon="14.2756580">
        <ele>632.4</ele>
        <time>2019-08-07T11:54:52Z</time>
      </trkpt>
      <trkpt lat="48.6333150" lon="14.2756660">
        <ele>632.2</ele>
        <time>2019-08-07T11:54:53Z</time>
      </trkpt>
      <trkpt lat="48.6333600" lon="14.2756720">
        <ele>632.2</ele>
        <time>2019-08-07T11:54:54Z</time>
      </trkpt>
      <trkpt lat="48.6334000" lon="14.2756750">
        <ele>632.0</ele>
        <time>2019-08-07T11:54:55Z</time>
      </trkpt>
      <trkpt lat="48.6334330" lon="14.2756760">
        <ele>632.0</ele>
        <time>2019-08-07T11:54:56Z</time>
      </trkpt>
      <trkpt lat="48.6334680" lon="14.2756810">
        <ele>631.8</ele>
        <time>2019-08-07T11:54:57Z</time>
      </trkpt>
      <trkpt lat="48.6335010" lon="14.2756830">
        <ele>631.6</ele>
        <time>2019-08-07T11:54:58Z</time>
      </trkpt>
      <trkpt lat="48.6335350" lon="14.2756810">
        <ele>631.4</ele>
        <time>2019-08-07T11:54:59Z</time>
      </trkpt>
      <trkpt lat="48.6335680" lon="14.2756720">
        <ele>631.0</ele>
        <time>2019-08-07T11:55:00Z</time>
      </trkpt>
      <trkpt lat="48.6335940" lon="14.2756640">
        <ele>630.6</ele>
        <time>2019-08-07T11:55:01Z</time>
      </trkpt>
      <trkpt lat="48.6336230" lon="14.2756620">
        <ele>630.4</ele>
        <time>2019-08-07T11:55:02Z</time>
      </trkpt>
      <trkpt lat="48.6336510" lon="14.2756730">
        <ele>630.0</ele>
        <time>2019-08-07T11:55:03Z</time>
      </trkpt>
      <trkpt lat="48.6336910" lon="14.2756950">
        <ele>629.8</ele>
        <time>2019-08-07T11:55:04Z</time>
      </trkpt>
      <trkpt lat="48.6337340" lon="14.2757130">
        <ele>629.6</ele>
        <time>2019-08-07T11:55:05Z</time>
      </trkpt>
      <trkpt lat="48.6337710" lon="14.2757200">
        <ele>629.4</ele>
        <time>2019-08-07T11:55:06Z</time>
      </trkpt>
      <trkpt lat="48.6338080" lon="14.2757310">
        <ele>629.2</ele>
        <time>2019-08-07T11:55:07Z</time>
      </trkpt>
      <trkpt lat="48.6338420" lon="14.2757420">
        <ele>629.2</ele>
        <time>2019-08-07T11:55:08Z</time>
      </trkpt>
      <trkpt lat="48.6338730" lon="14.2757530">
        <ele>629.2</ele>
        <time>2019-08-07T11:55:09Z</time>
      </trkpt>
      <trkpt lat="48.6339080" lon="14.2757620">
        <ele>629.2</ele>
        <time>2019-08-07T11:55:10Z</time>
      </trkpt>
      <trkpt lat="48.6339430" lon="14.2757640">
        <ele>629.0</ele>
        <time>2019-08-07T11:55:11Z</time>
      </trkpt>
      <trkpt lat="48.6339810" lon="14.2757670">
        <ele>629.0</ele>
        <time>2019-08-07T11:55:12Z</time>
      </trkpt>
      <trkpt lat="48.6340250" lon="14.2757680">
        <ele>628.8</ele>
        <time>2019-08-07T11:55:13Z</time>
      </trkpt>
      <trkpt lat="48.6340710" lon="14.2757670">
        <ele>628.8</ele>
        <time>2019-08-07T11:55:14Z</time>
      </trkpt>
      <trkpt lat="48.6341140" lon="14.2757690">
        <ele>628.6</ele>
        <time>2019-08-07T11:55:15Z</time>
      </trkpt>
      <trkpt lat="48.6341550" lon="14.2757650">
        <ele>628.4</ele>
        <time>2019-08-07T11:55:16Z</time>
      </trkpt>
      <trkpt lat="48.6341960" lon="14.2757560">
        <ele>628.2</ele>
        <time>2019-08-07T11:55:17Z</time>
      </trkpt>
      <trkpt lat="48.6342430" lon="14.2757530">
        <ele>628.2</ele>
        <time>2019-08-07T11:55:18Z</time>
      </trkpt>
      <trkpt lat="48.6342920" lon="14.2757440">
        <ele>628.0</ele>
        <time>2019-08-07T11:55:19Z</time>
      </trkpt>
      <trkpt lat="48.6343430" lon="14.2757420">
        <ele>627.8</ele>
        <time>2019-08-07T11:55:20Z</time>
      </trkpt>
      <trkpt lat="48.6343940" lon="14.2757400">
        <ele>627.6</ele>
        <time>2019-08-07T11:55:21Z</time>
      </trkpt>
      <trkpt lat="48.6344410" lon="14.2757280">
        <ele>627.4</ele>
        <time>2019-08-07T11:55:22Z</time>
      </trkpt>
      <trkpt lat="48.6344830" lon="14.2757130">
        <ele>627.2</ele>
        <time>2019-08-07T11:55:23Z</time>
      </trkpt>
      <trkpt lat="48.6345360" lon="14.2756900">
        <ele>627.2</ele>
        <time>2019-08-07T11:55:24Z</time>
      </trkpt>
      <trkpt lat="48.6345830" lon="14.2756710">
        <ele>627.0</ele>
        <time>2019-08-07T11:55:25Z</time>
      </trkpt>
      <trkpt lat="48.6346380" lon="14.2756490">
        <ele>627.0</ele>
        <time>2019-08-07T11:55:26Z</time>
      </trkpt>
      <trkpt lat="48.6346970" lon="14.2756280">
        <ele>626.8</ele>
        <time>2019-08-07T11:55:27Z</time>
      </trkpt>
      <trkpt lat="48.6347550" lon="14.2756010">
        <ele>626.6</ele>
        <time>2019-08-07T11:55:28Z</time>
      </trkpt>
      <trkpt lat="48.6348090" lon="14.2755670">
        <ele>626.6</ele>
        <time>2019-08-07T11:55:29Z</time>
      </trkpt>
      <trkpt lat="48.6348600" lon="14.2755330">
        <ele>626.4</ele>
        <time>2019-08-07T11:55:30Z</time>
      </trkpt>
      <trkpt lat="48.6349060" lon="14.2755030">
        <ele>626.4</ele>
        <time>2019-08-07T11:55:31Z</time>
      </trkpt>
      <trkpt lat="48.6349460" lon="14.2754700">
        <ele>626.2</ele>
        <time>2019-08-07T11:55:32Z</time>
      </trkpt>
      <trkpt lat="48.6349790" lon="14.2754360">
        <ele>626.2</ele>
        <time>2019-08-07T11:55:33Z</time>
      </trkpt>
      <trkpt lat="48.6350150" lon="14.2754070">
        <ele>626.0</ele>
        <time>2019-08-07T11:55:34Z</time>
      </trkpt>
      <trkpt lat="48.6350580" lon="14.2753840">
        <ele>625.8</ele>
        <time>2019-08-07T11:55:35Z</time>
      </trkpt>
      <trkpt lat="48.6351020" lon="14.2753600">
        <ele>625.8</ele>
        <time>2019-08-07T11:55:36Z</time>
      </trkpt>
      <trkpt lat="48.6351600" lon="14.2753430">
        <ele>625.6</ele>
        <time>2019-08-07T11:55:37Z</time>
      </trkpt>
      <trkpt lat="48.6352130" lon="14.2753230">
        <ele>625.4</ele>
        <time>2019-08-07T11:55:38Z</time>
      </trkpt>
      <trkpt lat="48.6352700" lon="14.2753030">
        <ele>625.4</ele>
        <time>2019-08-07T11:55:39Z</time>
      </trkpt>
      <trkpt lat="48.6353230" lon="14.2752720">
        <ele>625.2</ele>
        <time>2019-08-07T11:55:40Z</time>
      </trkpt>
      <trkpt lat="48.6353800" lon="14.2752490">
        <ele>625.0</ele>
        <time>2019-08-07T11:55:41Z</time>
      </trkpt>
      <trkpt lat="48.6354370" lon="14.2752370">
        <ele>624.8</ele>
        <time>2019-08-07T11:55:42Z</time>
      </trkpt>
      <trkpt lat="48.6354910" lon="14.2752280">
        <ele>624.4</ele>
        <time>2019-08-07T11:55:43Z</time>
      </trkpt>
      <trkpt lat="48.6355440" lon="14.2752180">
        <ele>624.2</ele>
        <time>2019-08-07T11:55:44Z</time>
      </trkpt>
      <trkpt lat="48.6355960" lon="14.2752100">
        <ele>624.0</ele>
        <time>2019-08-07T11:55:45Z</time>
      </trkpt>
      <trkpt lat="48.6356510" lon="14.2751990">
        <ele>623.6</ele>
        <time>2019-08-07T11:55:46Z</time>
      </trkpt>
      <trkpt lat="48.6357020" lon="14.2751890">
        <ele>623.4</ele>
        <time>2019-08-07T11:55:47Z</time>
      </trkpt>
      <trkpt lat="48.6357570" lon="14.2751740">
        <ele>623.2</ele>
        <time>2019-08-07T11:55:48Z</time>
      </trkpt>
      <trkpt lat="48.6358140" lon="14.2751590">
        <ele>622.8</ele>
        <time>2019-08-07T11:55:49Z</time>
      </trkpt>
      <trkpt lat="48.6358730" lon="14.2751430">
        <ele>622.8</ele>
        <time>2019-08-07T11:55:50Z</time>
      </trkpt>
      <trkpt lat="48.6359310" lon="14.2751290">
        <ele>622.6</ele>
        <time>2019-08-07T11:55:51Z</time>
      </trkpt>
      <trkpt lat="48.6359850" lon="14.2751150">
        <ele>622.4</ele>
        <time>2019-08-07T11:55:52Z</time>
      </trkpt>
      <trkpt lat="48.6360310" lon="14.2751050">
        <ele>622.2</ele>
        <time>2019-08-07T11:55:53Z</time>
      </trkpt>
      <trkpt lat="48.6360760" lon="14.2750930">
        <ele>622.0</ele>
        <time>2019-08-07T11:55:54Z</time>
      </trkpt>
      <trkpt lat="48.6361230" lon="14.2750760">
        <ele>621.8</ele>
        <time>2019-08-07T11:55:55Z</time>
      </trkpt>
      <trkpt lat="48.6361650" lon="14.2750640">
        <ele>621.6</ele>
        <time>2019-08-07T11:55:56Z</time>
      </trkpt>
      <trkpt lat="48.6362030" lon="14.2750490">
        <ele>621.6</ele>
        <time>2019-08-07T11:55:57Z</time>
      </trkpt>
      <trkpt lat="48.6362510" lon="14.2750320">
        <ele>621.4</ele>
        <time>2019-08-07T11:55:58Z</time>
      </trkpt>
      <trkpt lat="48.6362940" lon="14.2750110">
        <ele>621.4</ele>
        <time>2019-08-07T11:55:59Z</time>
      </trkpt>
      <trkpt lat="48.6363320" lon="14.2749790">
        <ele>621.2</ele>
        <time>2019-08-07T11:56:00Z</time>
      </trkpt>
      <trkpt lat="48.6363720" lon="14.2749420">
        <ele>621.2</ele>
        <time>2019-08-07T11:56:01Z</time>
      </trkpt>
      <trkpt lat="48.6364100" lon="14.2749140">
        <ele>621.0</ele>
        <time>2019-08-07T11:56:02Z</time>
      </trkpt>
      <trkpt lat="48.6364450" lon="14.2748860">
        <ele>621.0</ele>
        <time>2019-08-07T11:56:03Z</time>
      </trkpt>
      <trkpt lat="48.6364740" lon="14.2748710">
        <ele>621.0</ele>
        <time>2019-08-07T11:56:04Z</time>
      </trkpt>
      <trkpt lat="48.6365100" lon="14.2748570">
        <ele>621.0</ele>
        <time>2019-08-07T11:56:05Z</time>
      </trkpt>
      <trkpt lat="48.6365420" lon="14.2748400">
        <ele>621.0</ele>
        <time>2019-08-07T11:56:06Z</time>
      </trkpt>
      <trkpt lat="48.6365640" lon="14.2748230">
        <ele>621.2</ele>
        <time>2019-08-07T11:56:07Z</time>
      </trkpt>
      <trkpt lat="48.6365920" lon="14.2748020">
        <ele>621.2</ele>
        <time>2019-08-07T11:56:08Z</time>
      </trkpt>
      <trkpt lat="48.6366320" lon="14.2747830">
        <ele>621.2</ele>
        <time>2019-08-07T11:56:09Z</time>
      </trkpt>
      <trkpt lat="48.6366590" lon="14.2747650">
        <ele>621.2</ele>
        <time>2019-08-07T11:56:10Z</time>
      </trkpt>
      <trkpt lat="48.6366830" lon="14.2747460">
        <ele>621.4</ele>
        <time>2019-08-07T11:56:11Z</time>
      </trkpt>
      <trkpt lat="48.6367130" lon="14.2747280">
        <ele>621.4</ele>
        <time>2019-08-07T11:56:12Z</time>
      </trkpt>
      <trkpt lat="48.6367540" lon="14.2747130">
        <ele>621.2</ele>
        <time>2019-08-07T11:56:13Z</time>
      </trkpt>
      <trkpt lat="48.6367910" lon="14.2746880">
        <ele>621.2</ele>
        <time>2019-08-07T11:56:14Z</time>
      </trkpt>
      <trkpt lat="48.6368360" lon="14.2746490">
        <ele>621.2</ele>
        <time>2019-08-07T11:56:15Z</time>
      </trkpt>
      <trkpt lat="48.6368740" lon="14.2746240">
        <ele>621.2</ele>
        <time>2019-08-07T11:56:16Z</time>
      </trkpt>
      <trkpt lat="48.6369170" lon="14.2746000">
        <ele>621.2</ele>
        <time>2019-08-07T11:56:17Z</time>
      </trkpt>
      <trkpt lat="48.6369650" lon="14.2745760">
        <ele>621.2</ele>
        <time>2019-08-07T11:56:18Z</time>
      </trkpt>
      <trkpt lat="48.6370100" lon="14.2745540">
        <ele>621.2</ele>
        <time>2019-08-07T11:56:19Z</time>
      </trkpt>
      <trkpt lat="48.6370690" lon="14.2745460">
        <ele>621.2</ele>
        <time>2019-08-07T11:56:20Z</time>
      </trkpt>
      <trkpt lat="48.6371170" lon="14.2745330">
        <ele>621.4</ele>
        <time>2019-08-07T11:56:21Z</time>
      </trkpt>
      <trkpt lat="48.6371550" lon="14.2745230">
        <ele>621.4</ele>
        <time>2019-08-07T11:56:22Z</time>
      </trkpt>
      <trkpt lat="48.6371910" lon="14.2745170">
        <ele>621.6</ele>
        <time>2019-08-07T11:56:23Z</time>
      </trkpt>
      <trkpt lat="48.6372260" lon="14.2745080">
        <ele>621.6</ele>
        <time>2019-08-07T11:56:24Z</time>
      </trkpt>
      <trkpt lat="48.6372600" lon="14.2744980">
        <ele>621.8</ele>
        <time>2019-08-07T11:56:25Z</time>
      </trkpt>
      <trkpt lat="48.6372970" lon="14.2744920">
        <ele>621.8</ele>
        <time>2019-08-07T11:56:26Z</time>
      </trkpt>
      <trkpt lat="48.6373360" lon="14.2744900">
        <ele>622.0</ele>
        <time>2019-08-07T11:56:27Z</time>
      </trkpt>
      <trkpt lat="48.6373720" lon="14.2744780">
        <ele>622.0</ele>
        <time>2019-08-07T11:56:28Z</time>
      </trkpt>
      <trkpt lat="48.6374090" lon="14.2744670">
        <ele>622.0</ele>
        <time>2019-08-07T11:56:29Z</time>
      </trkpt>
      <trkpt lat="48.6374350" lon="14.2744520">
        <ele>622.2</ele>
        <time>2019-08-07T11:56:30Z</time>
      </trkpt>
      <trkpt lat="48.6374650" lon="14.2744430">
        <ele>622.0</ele>
        <time>2019-08-07T11:56:31Z</time>
      </trkpt>
      <trkpt lat="48.6375010" lon="14.2744300">
        <ele>622.0</ele>
        <time>2019-08-07T11:56:32Z</time>
      </trkpt>
      <trkpt lat="48.6375330" lon="14.2744170">
        <ele>622.0</ele>
        <time>2019-08-07T11:56:33Z</time>
      </trkpt>
      <trkpt lat="48.6375670" lon="14.2744020">
        <ele>621.8</ele>
        <time>2019-08-07T11:56:34Z</time>
      </trkpt>
      <trkpt lat="48.6375980" lon="14.2743830">
        <ele>621.6</ele>
        <time>2019-08-07T11:56:35Z</time>
      </trkpt>
      <trkpt lat="48.6376300" lon="14.2743630">
        <ele>621.6</ele>
        <time>2019-08-07T11:56:36Z</time>
      </trkpt>
      <trkpt lat="48.6376580" lon="14.2743530">
        <ele>621.4</ele>
        <time>2019-08-07T11:56:37Z</time>
      </trkpt>
      <trkpt lat="48.6376850" lon="14.2743470">
        <ele>621.4</ele>
        <time>2019-08-07T11:56:38Z</time>
      </trkpt>
      <trkpt lat="48.6377120" lon="14.2743280">
        <ele>621.2</ele>
        <time>2019-08-07T11:56:39Z</time>
      </trkpt>
      <trkpt lat="48.6377460" lon="14.2743080">
        <ele>621.0</ele>
        <time>2019-08-07T11:56:40Z</time>
      </trkpt>
      <trkpt lat="48.6377810" lon="14.2742890">
        <ele>620.8</ele>
        <time>2019-08-07T11:56:41Z</time>
      </trkpt>
      <trkpt lat="48.6378210" lon="14.2742750">
        <ele>620.6</ele>
        <time>2019-08-07T11:56:42Z</time>
      </trkpt>
      <trkpt lat="48.6378600" lon="14.2742590">
        <ele>620.6</ele>
        <time>2019-08-07T11:56:43Z</time>
      </trkpt>
      <trkpt lat="48.6378960" lon="14.2742430">
        <ele>620.4</ele>
        <time>2019-08-07T11:56:44Z</time>
      </trkpt>
      <trkpt lat="48.6379260" lon="14.2742250">
        <ele>620.2</ele>
        <time>2019-08-07T11:56:45Z</time>
      </trkpt>
      <trkpt lat="48.6379570" lon="14.2742090">
        <ele>620.2</ele>
        <time>2019-08-07T11:56:46Z</time>
      </trkpt>
      <trkpt lat="48.6379940" lon="14.2741950">
        <ele>620.0</ele>
        <time>2019-08-07T11:56:47Z</time>
      </trkpt>
      <trkpt lat="48.6380290" lon="14.2741760">
        <ele>619.8</ele>
        <time>2019-08-07T11:56:48Z</time>
      </trkpt>
      <trkpt lat="48.6380660" lon="14.2741550">
        <ele>619.8</ele>
        <time>2019-08-07T11:56:49Z</time>
      </trkpt>
      <trkpt lat="48.6380980" lon="14.2741380">
        <ele>619.6</ele>
        <time>2019-08-07T11:56:50Z</time>
      </trkpt>
      <trkpt lat="48.6381310" lon="14.2741250">
        <ele>619.4</ele>
        <time>2019-08-07T11:56:51Z</time>
      </trkpt>
      <trkpt lat="48.6381630" lon="14.2741120">
        <ele>619.2</ele>
        <time>2019-08-07T11:56:52Z</time>
      </trkpt>
      <trkpt lat="48.6382000" lon="14.2740890">
        <ele>619.0</ele>
        <time>2019-08-07T11:56:53Z</time>
      </trkpt>
      <trkpt lat="48.6382350" lon="14.2740640">
        <ele>618.8</ele>
        <time>2019-08-07T11:56:54Z</time>
      </trkpt>
      <trkpt lat="48.6382750" lon="14.2740380">
        <ele>618.6</ele>
        <time>2019-08-07T11:56:55Z</time>
      </trkpt>
      <trkpt lat="48.6383210" lon="14.2740090">
        <ele>618.4</ele>
        <time>2019-08-07T11:56:56Z</time>
      </trkpt>
      <trkpt lat="48.6383640" lon="14.2739750">
        <ele>618.2</ele>
        <time>2019-08-07T11:56:57Z</time>
      </trkpt>
      <trkpt lat="48.6384050" lon="14.2739380">
        <ele>618.0</ele>
        <time>2019-08-07T11:56:58Z</time>
      </trkpt>
      <trkpt lat="48.6384410" lon="14.2739070">
        <ele>617.8</ele>
        <time>2019-08-07T11:56:59Z</time>
      </trkpt>
      <trkpt lat="48.6384730" lon="14.2738750">
        <ele>617.6</ele>
        <time>2019-08-07T11:57:00Z</time>
      </trkpt>
      <trkpt lat="48.6385010" lon="14.2738460">
        <ele>617.4</ele>
        <time>2019-08-07T11:57:01Z</time>
      </trkpt>
      <trkpt lat="48.6385370" lon="14.2738160">
        <ele>617.2</ele>
        <time>2019-08-07T11:57:02Z</time>
      </trkpt>
      <trkpt lat="48.6385710" lon="14.2737860">
        <ele>617.0</ele>
        <time>2019-08-07T11:57:03Z</time>
      </trkpt>
      <trkpt lat="48.6386000" lon="14.2737550">
        <ele>616.8</ele>
        <time>2019-08-07T11:57:04Z</time>
      </trkpt>
      <trkpt lat="48.6386350" lon="14.2737290">
        <ele>616.6</ele>
        <time>2019-08-07T11:57:05Z</time>
      </trkpt>
      <trkpt lat="48.6386730" lon="14.2737130">
        <ele>616.4</ele>
        <time>2019-08-07T11:57:06Z</time>
      </trkpt>
      <trkpt lat="48.6387090" lon="14.2737030">
        <ele>616.2</ele>
        <time>2019-08-07T11:57:07Z</time>
      </trkpt>
      <trkpt lat="48.6387430" lon="14.2736920">
        <ele>616.0</ele>
        <time>2019-08-07T11:57:08Z</time>
      </trkpt>
      <trkpt lat="48.6387750" lon="14.2736760">
        <ele>615.8</ele>
        <time>2019-08-07T11:57:09Z</time>
      </trkpt>
      <trkpt lat="48.6388060" lon="14.2736640">
        <ele>615.6</ele>
        <time>2019-08-07T11:57:10Z</time>
      </trkpt>
      <trkpt lat="48.6388400" lon="14.2736510">
        <ele>615.4</ele>
        <time>2019-08-07T11:57:11Z</time>
      </trkpt>
      <trkpt lat="48.6388720" lon="14.2736370">
        <ele>615.0</ele>
        <time>2019-08-07T11:57:12Z</time>
      </trkpt>
      <trkpt lat="48.6389050" lon="14.2736270">
        <ele>614.8</ele>
        <time>2019-08-07T11:57:13Z</time>
      </trkpt>
      <trkpt lat="48.6389360" lon="14.2736180">
        <ele>614.6</ele>
        <time>2019-08-07T11:57:14Z</time>
      </trkpt>
      <trkpt lat="48.6389670" lon="14.2736080">
        <ele>614.2</ele>
        <time>2019-08-07T11:57:15Z</time>
      </trkpt>
      <trkpt lat="48.6389980" lon="14.2735980">
        <ele>614.0</ele>
        <time>2019-08-07T11:57:16Z</time>
      </trkpt>
      <trkpt lat="48.6390340" lon="14.2735880">
        <ele>613.6</ele>
        <time>2019-08-07T11:57:17Z</time>
      </trkpt>
      <trkpt lat="48.6390720" lon="14.2735700">
        <ele>613.4</ele>
        <time>2019-08-07T11:57:18Z</time>
      </trkpt>
      <trkpt lat="48.6391110" lon="14.2735530">
        <ele>613.0</ele>
        <time>2019-08-07T11:57:19Z</time>
      </trkpt>
      <trkpt lat="48.6391430" lon="14.2735380">
        <ele>612.6</ele>
        <time>2019-08-07T11:57:20Z</time>
      </trkpt>
      <trkpt lat="48.6391790" lon="14.2735140">
        <ele>612.4</ele>
        <time>2019-08-07T11:57:21Z</time>
      </trkpt>
      <trkpt lat="48.6392210" lon="14.2734780">
        <ele>612.0</ele>
        <time>2019-08-07T11:57:22Z</time>
      </trkpt>
      <trkpt lat="48.6392750" lon="14.2734540">
        <ele>611.8</ele>
        <time>2019-08-07T11:57:23Z</time>
      </trkpt>
      <trkpt lat="48.6393260" lon="14.2734220">
        <ele>611.4</ele>
        <time>2019-08-07T11:57:24Z</time>
      </trkpt>
      <trkpt lat="48.6393690" lon="14.2733900">
        <ele>611.2</ele>
        <time>2019-08-07T11:57:25Z</time>
      </trkpt>
      <trkpt lat="48.6394140" lon="14.2733540">
        <ele>610.8</ele>
        <time>2019-08-07T11:57:26Z</time>
      </trkpt>
      <trkpt lat="48.6394620" lon="14.2733240">
        <ele>610.6</ele>
        <time>2019-08-07T11:57:27Z</time>
      </trkpt>
      <trkpt lat="48.6395180" lon="14.2732950">
        <ele>610.6</ele>
        <time>2019-08-07T11:57:28Z</time>
      </trkpt>
      <trkpt lat="48.6395680" lon="14.2732710">
        <ele>610.4</ele>
        <time>2019-08-07T11:57:29Z</time>
      </trkpt>
      <trkpt lat="48.6396310" lon="14.2732590">
        <ele>610.2</ele>
        <time>2019-08-07T11:57:30Z</time>
      </trkpt>
      <trkpt lat="48.6396890" lon="14.2732550">
        <ele>610.0</ele>
        <time>2019-08-07T11:57:31Z</time>
      </trkpt>
      <trkpt lat="48.6397370" lon="14.2732510">
        <ele>609.8</ele>
        <time>2019-08-07T11:57:32Z</time>
      </trkpt>
      <trkpt lat="48.6397820" lon="14.2732530">
        <ele>609.8</ele>
        <time>2019-08-07T11:57:33Z</time>
      </trkpt>
      <trkpt lat="48.6398220" lon="14.2732510">
        <ele>609.6</ele>
        <time>2019-08-07T11:57:34Z</time>
      </trkpt>
      <trkpt lat="48.6398710" lon="14.2732560">
        <ele>609.6</ele>
        <time>2019-08-07T11:57:35Z</time>
      </trkpt>
      <trkpt lat="48.6399280" lon="14.2732620">
        <ele>609.6</ele>
        <time>2019-08-07T11:57:36Z</time>
      </trkpt>
      <trkpt lat="48.6399830" lon="14.2732650">
        <ele>609.8</ele>
        <time>2019-08-07T11:57:37Z</time>
      </trkpt>
      <trkpt lat="48.6400340" lon="14.2732670">
        <ele>609.8</ele>
        <time>2019-08-07T11:57:38Z</time>
      </trkpt>
      <trkpt lat="48.6400890" lon="14.2732660">
        <ele>609.8</ele>
        <time>2019-08-07T11:57:39Z</time>
      </trkpt>
      <trkpt lat="48.6401520" lon="14.2732630">
        <ele>609.8</ele>
        <time>2019-08-07T11:57:40Z</time>
      </trkpt>
      <trkpt lat="48.6401990" lon="14.2732500">
        <ele>609.8</ele>
        <time>2019-08-07T11:57:41Z</time>
      </trkpt>
      <trkpt lat="48.6402560" lon="14.2732360">
        <ele>609.8</ele>
        <time>2019-08-07T11:57:42Z</time>
      </trkpt>
      <trkpt lat="48.6403240" lon="14.2732120">
        <ele>609.8</ele>
        <time>2019-08-07T11:57:43Z</time>
      </trkpt>
      <trkpt lat="48.6403790" lon="14.2732030">
        <ele>609.8</ele>
        <time>2019-08-07T11:57:44Z</time>
      </trkpt>
      <trkpt lat="48.6404280" lon="14.2731740">
        <ele>609.6</ele>
        <time>2019-08-07T11:57:45Z</time>
      </trkpt>
      <trkpt lat="48.6404870" lon="14.2731570">
        <ele>609.6</ele>
        <time>2019-08-07T11:57:46Z</time>
      </trkpt>
      <trkpt lat="48.6405440" lon="14.2731560">
        <ele>609.6</ele>
        <time>2019-08-07T11:57:47Z</time>
      </trkpt>
      <trkpt lat="48.6406080" lon="14.2731490">
        <ele>609.4</ele>
        <time>2019-08-07T11:57:48Z</time>
      </trkpt>
      <trkpt lat="48.6406710" lon="14.2731250">
        <ele>609.4</ele>
        <time>2019-08-07T11:57:49Z</time>
      </trkpt>
      <trkpt lat="48.6407280" lon="14.2731190">
        <ele>609.2</ele>
        <time>2019-08-07T11:57:50Z</time>
      </trkpt>
      <trkpt lat="48.6407800" lon="14.2731210">
        <ele>609.0</ele>
        <time>2019-08-07T11:57:51Z</time>
      </trkpt>
      <trkpt lat="48.6408330" lon="14.2731260">
        <ele>608.8</ele>
        <time>2019-08-07T11:57:52Z</time>
      </trkpt>
      <trkpt lat="48.6408880" lon="14.2731320">
        <ele>608.6</ele>
        <time>2019-08-07T11:57:53Z</time>
      </trkpt>
      <trkpt lat="48.6409390" lon="14.2731320">
        <ele>608.4</ele>
        <time>2019-08-07T11:57:54Z</time>
      </trkpt>
      <trkpt lat="48.6409860" lon="14.2731240">
        <ele>608.0</ele>
        <time>2019-08-07T11:57:55Z</time>
      </trkpt>
      <trkpt lat="48.6410270" lon="14.2731190">
        <ele>607.8</ele>
        <time>2019-08-07T11:57:56Z</time>
      </trkpt>
      <trkpt lat="48.6410710" lon="14.2731160">
        <ele>607.4</ele>
        <time>2019-08-07T11:57:57Z</time>
      </trkpt>
      <trkpt lat="48.6411210" lon="14.2731100">
        <ele>607.2</ele>
        <time>2019-08-07T11:57:58Z</time>
      </trkpt>
      <trkpt lat="48.6411680" lon="14.2730880">
        <ele>606.8</ele>
        <time>2019-08-07T11:57:59Z</time>
      </trkpt>
      <trkpt lat="48.6412110" lon="14.2730630">
        <ele>606.4</ele>
        <time>2019-08-07T11:58:00Z</time>
      </trkpt>
      <trkpt lat="48.6412580" lon="14.2730440">
        <ele>605.8</ele>
        <time>2019-08-07T11:58:01Z</time>
      </trkpt>
      <trkpt lat="48.6412970" lon="14.2730370">
        <ele>605.4</ele>
        <time>2019-08-07T11:58:02Z</time>
      </trkpt>
      <trkpt lat="48.6413400" lon="14.2730420">
        <ele>605.0</ele>
        <time>2019-08-07T11:58:03Z</time>
      </trkpt>
      <trkpt lat="48.6413930" lon="14.2730470">
        <ele>604.8</ele>
        <time>2019-08-07T11:58:04Z</time>
      </trkpt>
      <trkpt lat="48.6414440" lon="14.2730460">
        <ele>604.4</ele>
        <time>2019-08-07T11:58:05Z</time>
      </trkpt>
      <trkpt lat="48.6414970" lon="14.2730420">
        <ele>604.0</ele>
        <time>2019-08-07T11:58:06Z</time>
      </trkpt>
      <trkpt lat="48.6415540" lon="14.2730300">
        <ele>603.8</ele>
        <time>2019-08-07T11:58:07Z</time>
      </trkpt>
      <trkpt lat="48.6416140" lon="14.2730120">
        <ele>603.6</ele>
        <time>2019-08-07T11:58:08Z</time>
      </trkpt>
      <trkpt lat="48.6416670" lon="14.2729960">
        <ele>603.4</ele>
        <time>2019-08-07T11:58:09Z</time>
      </trkpt>
      <trkpt lat="48.6417170" lon="14.2729870">
        <ele>603.4</ele>
        <time>2019-08-07T11:58:10Z</time>
      </trkpt>
      <trkpt lat="48.6417700" lon="14.2729810">
        <ele>603.2</ele>
        <time>2019-08-07T11:58:11Z</time>
      </trkpt>
      <trkpt lat="48.6418130" lon="14.2729800">
        <ele>603.2</ele>
        <time>2019-08-07T11:58:12Z</time>
      </trkpt>
      <trkpt lat="48.6418530" lon="14.2729870">
        <ele>603.0</ele>
        <time>2019-08-07T11:58:13Z</time>
      </trkpt>
      <trkpt lat="48.6418910" lon="14.2729950">
        <ele>602.8</ele>
        <time>2019-08-07T11:58:14Z</time>
      </trkpt>
      <trkpt lat="48.6419330" lon="14.2730100">
        <ele>602.6</ele>
        <time>2019-08-07T11:58:15Z</time>
      </trkpt>
      <trkpt lat="48.6419750" lon="14.2730370">
        <ele>602.4</ele>
        <time>2019-08-07T11:58:16Z</time>
      </trkpt>
      <trkpt lat="48.6420160" lon="14.2730660">
        <ele>602.2</ele>
        <time>2019-08-07T11:58:17Z</time>
      </trkpt>
      <trkpt lat="48.6420640" lon="14.2731010">
        <ele>601.8</ele>
        <time>2019-08-07T11:58:18Z</time>
      </trkpt>
      <trkpt lat="48.6421200" lon="14.2731370">
        <ele>601.6</ele>
        <time>2019-08-07T11:58:19Z</time>
      </trkpt>
      <trkpt lat="48.6421800" lon="14.2731640">
        <ele>601.4</ele>
        <time>2019-08-07T11:58:20Z</time>
      </trkpt>
      <trkpt lat="48.6422360" lon="14.2731950">
        <ele>601.0</ele>
        <time>2019-08-07T11:58:21Z</time>
      </trkpt>
      <trkpt lat="48.6422910" lon="14.2732250">
        <ele>600.8</ele>
        <time>2019-08-07T11:58:22Z</time>
      </trkpt>
      <trkpt lat="48.6423490" lon="14.2732610">
        <ele>600.6</ele>
        <time>2019-08-07T11:58:23Z</time>
      </trkpt>
      <trkpt lat="48.6424100" lon="14.2733010">
        <ele>600.4</ele>
        <time>2019-08-07T11:58:24Z</time>
      </trkpt>
      <trkpt lat="48.6424720" lon="14.2733330">
        <ele>600.2</ele>
        <time>2019-08-07T11:58:25Z</time>
      </trkpt>
      <trkpt lat="48.6425320" lon="14.2733540">
        <ele>600.2</ele>
        <time>2019-08-07T11:58:26Z</time>
      </trkpt>
      <trkpt lat="48.6425850" lon="14.2733700">
        <ele>600.0</ele>
        <time>2019-08-07T11:58:27Z</time>
      </trkpt>
      <trkpt lat="48.6426300" lon="14.2733860">
        <ele>600.0</ele>
        <time>2019-08-07T11:58:28Z</time>
      </trkpt>
      <trkpt lat="48.6426770" lon="14.2734040">
        <ele>600.0</ele>
        <time>2019-08-07T11:58:29Z</time>
      </trkpt>
      <trkpt lat="48.6427190" lon="14.2734300">
        <ele>600.0</ele>
        <time>2019-08-07T11:58:30Z</time>
      </trkpt>
      <trkpt lat="48.6427560" lon="14.2734570">
        <ele>600.0</ele>
        <time>2019-08-07T11:58:31Z</time>
      </trkpt>
      <trkpt lat="48.6427870" lon="14.2734860">
        <ele>600.2</ele>
        <time>2019-08-07T11:58:32Z</time>
      </trkpt>
      <trkpt lat="48.6428180" lon="14.2735180">
        <ele>600.2</ele>
        <time>2019-08-07T11:58:33Z</time>
      </trkpt>
      <trkpt lat="48.6428500" lon="14.2735510">
        <ele>600.2</ele>
        <time>2019-08-07T11:58:34Z</time>
      </trkpt>
      <trkpt lat="48.6428790" lon="14.2735850">
        <ele>600.0</ele>
        <time>2019-08-07T11:58:35Z</time>
      </trkpt>
      <trkpt lat="48.6429080" lon="14.2736180">
        <ele>600.0</ele>
        <time>2019-08-07T11:58:36Z</time>
      </trkpt>
      <trkpt lat="48.6429370" lon="14.2736530">
        <ele>600.0</ele>
        <time>2019-08-07T11:58:37Z</time>
      </trkpt>
      <trkpt lat="48.6429670" lon="14.2736900">
        <ele>600.0</ele>
        <time>2019-08-07T11:58:38Z</time>
      </trkpt>
      <trkpt lat="48.6430000" lon="14.2737300">
        <ele>600.0</ele>
        <time>2019-08-07T11:58:39Z</time>
      </trkpt>
      <trkpt lat="48.6430300" lon="14.2737660">
        <ele>599.8</ele>
        <time>2019-08-07T11:58:40Z</time>
      </trkpt>
      <trkpt lat="48.6430630" lon="14.2738050">
        <ele>599.8</ele>
        <time>2019-08-07T11:58:41Z</time>
      </trkpt>
      <trkpt lat="48.6430900" lon="14.2738470">
        <ele>599.8</ele>
        <time>2019-08-07T11:58:42Z</time>
      </trkpt>
      <trkpt lat="48.6431160" lon="14.2738910">
        <ele>599.6</ele>
        <time>2019-08-07T11:58:43Z</time>
      </trkpt>
      <trkpt lat="48.6431370" lon="14.2739440">
        <ele>599.6</ele>
        <time>2019-08-07T11:58:44Z</time>
      </trkpt>
      <trkpt lat="48.6431580" lon="14.2740020">
        <ele>599.4</ele>
        <time>2019-08-07T11:58:45Z</time>
      </trkpt>
      <trkpt lat="48.6431810" lon="14.2740640">
        <ele>599.2</ele>
        <time>2019-08-07T11:58:46Z</time>
      </trkpt>
      <trkpt lat="48.6432050" lon="14.2741320">
        <ele>599.0</ele>
        <time>2019-08-07T11:58:47Z</time>
      </trkpt>
      <trkpt lat="48.6432260" lon="14.2742150">
        <ele>598.8</ele>
        <time>2019-08-07T11:58:48Z</time>
      </trkpt>
      <trkpt lat="48.6432480" lon="14.2743090">
        <ele>598.4</ele>
        <time>2019-08-07T11:58:49Z</time>
      </trkpt>
      <trkpt lat="48.6432670" lon="14.2744100">
        <ele>598.2</ele>
        <time>2019-08-07T11:58:50Z</time>
      </trkpt>
      <trkpt lat="48.6432900" lon="14.2745160">
        <ele>598.0</ele>
        <time>2019-08-07T11:58:51Z</time>
      </trkpt>
      <trkpt lat="48.6433170" lon="14.2746220">
        <ele>597.8</ele>
        <time>2019-08-07T11:58:52Z</time>
      </trkpt>
      <trkpt lat="48.6433440" lon="14.2747220">
        <ele>597.6</ele>
        <time>2019-08-07T11:58:53Z</time>
      </trkpt>
      <trkpt lat="48.6433760" lon="14.2748190">
        <ele>597.4</ele>
        <time>2019-08-07T11:58:54Z</time>
      </trkpt>
      <trkpt lat="48.6434060" lon="14.2749140">
        <ele>597.2</ele>
        <time>2019-08-07T11:58:55Z</time>
      </trkpt>
      <trkpt lat="48.6434350" lon="14.2750040">
        <ele>597.0</ele>
        <time>2019-08-07T11:58:56Z</time>
      </trkpt>
      <trkpt lat="48.6434620" lon="14.2750860">
        <ele>597.0</ele>
        <time>2019-08-07T11:58:57Z</time>
      </trkpt>
      <trkpt lat="48.6434880" lon="14.2751720">
        <ele>597.0</ele>
        <time>2019-08-07T11:58:58Z</time>
      </trkpt>
      <trkpt lat="48.6435120" lon="14.2752520">
        <ele>597.0</ele>
        <time>2019-08-07T11:58:59Z</time>
      </trkpt>
      <trkpt lat="48.6435350" lon="14.2753310">
        <ele>597.0</ele>
        <time>2019-08-07T11:59:00Z</time>
      </trkpt>
      <trkpt lat="48.6435590" lon="14.2754100">
        <ele>597.0</ele>
        <time>2019-08-07T11:59:01Z</time>
      </trkpt>
      <trkpt lat="48.6435800" lon="14.2754870">
        <ele>597.0</ele>
        <time>2019-08-07T11:59:02Z</time>
      </trkpt>
      <trkpt lat="48.6435970" lon="14.2755630">
        <ele>597.0</ele>
        <time>2019-08-07T11:59:03Z</time>
      </trkpt>
      <trkpt lat="48.6436160" lon="14.2756410">
        <ele>597.0</ele>
        <time>2019-08-07T11:59:04Z</time>
      </trkpt>
      <trkpt lat="48.6436410" lon="14.2757180">
        <ele>597.0</ele>
        <time>2019-08-07T11:59:05Z</time>
      </trkpt>
      <trkpt lat="48.6436680" lon="14.2757990">
        <ele>596.8</ele>
        <time>2019-08-07T11:59:06Z</time>
      </trkpt>
      <trkpt lat="48.6436950" lon="14.2758800">
        <ele>596.8</ele>
        <time>2019-08-07T11:59:07Z</time>
      </trkpt>
      <trkpt lat="48.6437160" lon="14.2759650">
        <ele>596.8</ele>
        <time>2019-08-07T11:59:08Z</time>
      </trkpt>
      <trkpt lat="48.6437410" lon="14.2760490">
        <ele>596.8</ele>
        <time>2019-08-07T11:59:09Z</time>
      </trkpt>
      <trkpt lat="48.6437630" lon="14.2761320">
        <ele>596.8</ele>
        <time>2019-08-07T11:59:10Z</time>
      </trkpt>
      <trkpt lat="48.6437880" lon="14.2762150">
        <ele>596.8</ele>
        <time>2019-08-07T11:59:11Z</time>
      </trkpt>
      <trkpt lat="48.6438130" lon="14.2763000">
        <ele>597.0</ele>
        <time>2019-08-07T11:59:12Z</time>
      </trkpt>
      <trkpt lat="48.6438390" lon="14.2763820">
        <ele>597.0</ele>
        <time>2019-08-07T11:59:13Z</time>
      </trkpt>
      <trkpt lat="48.6438680" lon="14.2764670">
        <ele>596.8</ele>
        <time>2019-08-07T11:59:14Z</time>
      </trkpt>
      <trkpt lat="48.6438930" lon="14.2765520">
        <ele>596.6</ele>
        <time>2019-08-07T11:59:15Z</time>
      </trkpt>
      <trkpt lat="48.6439180" lon="14.2766410">
        <ele>596.6</ele>
        <time>2019-08-07T11:59:16Z</time>
      </trkpt>
      <trkpt lat="48.6439410" lon="14.2767310">
        <ele>596.6</ele>
        <time>2019-08-07T11:59:17Z</time>
      </trkpt>
      <trkpt lat="48.6439580" lon="14.2768220">
        <ele>596.4</ele>
        <time>2019-08-07T11:59:18Z</time>
      </trkpt>
      <trkpt lat="48.6439740" lon="14.2769160">
        <ele>596.4</ele>
        <time>2019-08-07T11:59:19Z</time>
      </trkpt>
      <trkpt lat="48.6439890" lon="14.2770130">
        <ele>596.4</ele>
        <time>2019-08-07T11:59:20Z</time>
      </trkpt>
      <trkpt lat="48.6440010" lon="14.2771080">
        <ele>596.4</ele>
        <time>2019-08-07T11:59:21Z</time>
      </trkpt>
      <trkpt lat="48.6440150" lon="14.2772040">
        <ele>596.4</ele>
        <time>2019-08-07T11:59:22Z</time>
      </trkpt>
      <trkpt lat="48.6440250" lon="14.2773020">
        <ele>596.4</ele>
        <time>2019-08-07T11:59:23Z</time>
      </trkpt>
      <trkpt lat="48.6440370" lon="14.2774010">
        <ele>596.2</ele>
        <time>2019-08-07T11:59:24Z</time>
      </trkpt>
      <trkpt lat="48.6440470" lon="14.2775000">
        <ele>596.2</ele>
        <time>2019-08-07T11:59:25Z</time>
      </trkpt>
      <trkpt lat="48.6440610" lon="14.2775990">
        <ele>596.0</ele>
        <time>2019-08-07T11:59:26Z</time>
      </trkpt>
      <trkpt lat="48.6440770" lon="14.2776960">
        <ele>595.8</ele>
        <time>2019-08-07T11:59:27Z</time>
      </trkpt>
      <trkpt lat="48.6440910" lon="14.2777940">
        <ele>595.8</ele>
        <time>2019-08-07T11:59:28Z</time>
      </trkpt>
      <trkpt lat="48.6441080" lon="14.2778880">
        <ele>595.6</ele>
        <time>2019-08-07T11:59:29Z</time>
      </trkpt>
      <trkpt lat="48.6441260" lon="14.2779800">
        <ele>595.6</ele>
        <time>2019-08-07T11:59:30Z</time>
      </trkpt>
      <trkpt lat="48.6441410" lon="14.2780750">
        <ele>595.4</ele>
        <time>2019-08-07T11:59:31Z</time>
      </trkpt>
      <trkpt lat="48.6441550" lon="14.2781690">
        <ele>595.4</ele>
        <time>2019-08-07T11:59:32Z</time>
      </trkpt>
      <trkpt lat="48.6441670" lon="14.2782660">
        <ele>595.2</ele>
        <time>2019-08-07T11:59:33Z</time>
      </trkpt>
      <trkpt lat="48.6441770" lon="14.2783640">
        <ele>595.2</ele>
        <time>2019-08-07T11:59:34Z</time>
      </trkpt>
      <trkpt lat="48.6441870" lon="14.2784600">
        <ele>595.2</ele>
        <time>2019-08-07T11:59:35Z</time>
      </trkpt>
      <trkpt lat="48.6441950" lon="14.2785550">
        <ele>595.0</ele>
        <time>2019-08-07T11:59:36Z</time>
      </trkpt>
      <trkpt lat="48.6442010" lon="14.2786500">
        <ele>595.0</ele>
        <time>2019-08-07T11:59:37Z</time>
      </trkpt>
      <trkpt lat="48.6442060" lon="14.2787450">
        <ele>594.8</ele>
        <time>2019-08-07T11:59:38Z</time>
      </trkpt>
      <trkpt lat="48.6442150" lon="14.2788390">
        <ele>594.6</ele>
        <time>2019-08-07T11:59:39Z</time>
      </trkpt>
      <trkpt lat="48.6442250" lon="14.2789370">
        <ele>594.6</ele>
        <time>2019-08-07T11:59:40Z</time>
      </trkpt>
      <trkpt lat="48.6442310" lon="14.2790370">
        <ele>594.4</ele>
        <time>2019-08-07T11:59:41Z</time>
      </trkpt>
      <trkpt lat="48.6442400" lon="14.2791380">
        <ele>594.2</ele>
        <time>2019-08-07T11:59:42Z</time>
      </trkpt>
      <trkpt lat="48.6442500" lon="14.2792410">
        <ele>594.0</ele>
        <time>2019-08-07T11:59:43Z</time>
      </trkpt>
      <trkpt lat="48.6442560" lon="14.2793450">
        <ele>593.8</ele>
        <time>2019-08-07T11:59:44Z</time>
      </trkpt>
      <trkpt lat="48.6442620" lon="14.2794480">
        <ele>593.6</ele>
        <time>2019-08-07T11:59:45Z</time>
      </trkpt>
      <trkpt lat="48.6442700" lon="14.2795520">
        <ele>593.4</ele>
        <time>2019-08-07T11:59:46Z</time>
      </trkpt>
      <trkpt lat="48.6442770" lon="14.2796590">
        <ele>593.2</ele>
        <time>2019-08-07T11:59:47Z</time>
      </trkpt>
      <trkpt lat="48.6442810" lon="14.2797660">
        <ele>593.0</ele>
        <time>2019-08-07T11:59:48Z</time>
      </trkpt>
      <trkpt lat="48.6442870" lon="14.2798700">
        <ele>592.8</ele>
        <time>2019-08-07T11:59:49Z</time>
      </trkpt>
      <trkpt lat="48.6442910" lon="14.2799790">
        <ele>592.6</ele>
        <time>2019-08-07T11:59:50Z</time>
      </trkpt>
      <trkpt lat="48.6442940" lon="14.2800880">
        <ele>592.4</ele>
        <time>2019-08-07T11:59:51Z</time>
      </trkpt>
      <trkpt lat="48.6442990" lon="14.2801960">
        <ele>592.2</ele>
        <time>2019-08-07T11:59:52Z</time>
      </trkpt>
      <trkpt lat="48.6443060" lon="14.2803080">
        <ele>592.2</ele>
        <time>2019-08-07T11:59:53Z</time>
      </trkpt>
      <trkpt lat="48.6443130" lon="14.2804170">
        <ele>592.2</ele>
        <time>2019-08-07T11:59:54Z</time>
      </trkpt>
      <trkpt lat="48.6443230" lon="14.2805270">
        <ele>592.0</ele>
        <time>2019-08-07T11:59:55Z</time>
      </trkpt>
      <trkpt lat="48.6443360" lon="14.2806350">
        <ele>592.0</ele>
        <time>2019-08-07T11:59:56Z</time>
      </trkpt>
      <trkpt lat="48.6443490" lon="14.2807450">
        <ele>591.8</ele>
        <time>2019-08-07T11:59:57Z</time>
      </trkpt>
      <trkpt lat="48.6443630" lon="14.2808530">
        <ele>591.6</ele>
        <time>2019-08-07T11:59:58Z</time>
      </trkpt>
      <trkpt lat="48.6443820" lon="14.2809590">
        <ele>591.2</ele>
        <time>2019-08-07T11:59:59Z</time>
      </trkpt>
      <trkpt lat="48.6444010" lon="14.2810640">
        <ele>591.0</ele>
        <time>2019-08-07T12:00:00Z</time>
      </trkpt>
      <trkpt lat="48.6444240" lon="14.2811670">
        <ele>590.8</ele>
        <time>2019-08-07T12:00:01Z</time>
      </trkpt>
      <trkpt lat="48.6444540" lon="14.2812630">
        <ele>590.6</ele>
        <time>2019-08-07T12:00:02Z</time>
      </trkpt>
      <trkpt lat="48.6444940" lon="14.2813500">
        <ele>590.6</ele>
        <time>2019-08-07T12:00:03Z</time>
      </trkpt>
      <trkpt lat="48.6445360" lon="14.2814310">
        <ele>590.4</ele>
        <time>2019-08-07T12:00:04Z</time>
      </trkpt>
      <trkpt lat="48.6445730" lon="14.2815140">
        <ele>590.2</ele>
        <time>2019-08-07T12:00:05Z</time>
      </trkpt>
      <trkpt lat="48.6446050" lon="14.2816050">
        <ele>590.0</ele>
        <time>2019-08-07T12:00:06Z</time>
      </trkpt>
      <trkpt lat="48.6446200" lon="14.2817030">
        <ele>590.0</ele>
        <time>2019-08-07T12:00:07Z</time>
      </trkpt>
      <trkpt lat="48.6446170" lon="14.2818020">
        <ele>590.0</ele>
        <time>2019-08-07T12:00:08Z</time>
      </trkpt>
      <trkpt lat="48.6446010" lon="14.2818960">
        <ele>589.8</ele>
        <time>2019-08-07T12:00:09Z</time>
      </trkpt>
      <trkpt lat="48.6445760" lon="14.2819840">
        <ele>589.8</ele>
        <time>2019-08-07T12:00:10Z</time>
      </trkpt>
      <trkpt lat="48.6445430" lon="14.2820560">
        <ele>589.8</ele>
        <time>2019-08-07T12:00:11Z</time>
      </trkpt>
      <trkpt lat="48.6445070" lon="14.2821150">
        <ele>589.8</ele>
        <time>2019-08-07T12:00:12Z</time>
      </trkpt>
      <trkpt lat="48.6444700" lon="14.2821680">
        <ele>589.6</ele>
        <time>2019-08-07T12:00:13Z</time>
      </trkpt>
      <trkpt lat="48.6444340" lon="14.2822210">
        <ele>589.6</ele>
        <time>2019-08-07T12:00:14Z</time>
      </trkpt>
      <trkpt lat="48.6443950" lon="14.2822780">
        <ele>589.4</ele>
        <time>2019-08-07T12:00:15Z</time>
      </trkpt>
      <trkpt lat="48.6443580" lon="14.2823410">
        <ele>589.2</ele>
        <time>2019-08-07T12:00:16Z</time>
      </trkpt>
      <trkpt lat="48.6443200" lon="14.2824150">
        <ele>589.2</ele>
        <time>2019-08-07T12:00:17Z</time>
      </trkpt>
      <trkpt lat="48.6442870" lon="14.2824890">
        <ele>589.0</ele>
        <time>2019-08-07T12:00:18Z</time>
      </trkpt>
      <trkpt lat="48.6442560" lon="14.2825650">
        <ele>589.0</ele>
        <time>2019-08-07T12:00:19Z</time>
      </trkpt>
      <trkpt lat="48.6442280" lon="14.2826480">
        <ele>588.6</ele>
        <time>2019-08-07T12:00:20Z</time>
      </trkpt>
      <trkpt lat="48.6442080" lon="14.2827360">
        <ele>588.4</ele>
        <time>2019-08-07T12:00:21Z</time>
      </trkpt>
      <trkpt lat="48.6441860" lon="14.2828290">
        <ele>588.0</ele>
        <time>2019-08-07T12:00:22Z</time>
      </trkpt>
      <trkpt lat="48.6441550" lon="14.2829170">
        <ele>587.8</ele>
        <time>2019-08-07T12:00:23Z</time>
      </trkpt>
      <trkpt lat="48.6441200" lon="14.2829990">
        <ele>587.8</ele>
        <time>2019-08-07T12:00:24Z</time>
      </trkpt>
      <trkpt lat="48.6440880" lon="14.2830790">
        <ele>587.8</ele>
        <time>2019-08-07T12:00:25Z</time>
      </trkpt>
      <trkpt lat="48.6440590" lon="14.2831530">
        <ele>587.6</ele>
        <time>2019-08-07T12:00:26Z</time>
      </trkpt>
      <trkpt lat="48.6440340" lon="14.2832170">
        <ele>587.4</ele>
        <time>2019-08-07T12:00:27Z</time>
      </trkpt>
      <trkpt lat="48.6440090" lon="14.2832750">
        <ele>587.4</ele>
        <time>2019-08-07T12:00:28Z</time>
      </trkpt>
      <trkpt lat="48.6439860" lon="14.2833300">
        <ele>587.2</ele>
        <time>2019-08-07T12:00:29Z</time>
      </trkpt>
      <trkpt lat="48.6439670" lon="14.2833800">
        <ele>587.0</ele>
        <time>2019-08-07T12:00:30Z</time>
      </trkpt>
      <trkpt lat="48.6439540" lon="14.2834220">
        <ele>587.0</ele>
        <time>2019-08-07T12:00:31Z</time>
      </trkpt>
      <trkpt lat="48.6439430" lon="14.2834590">
        <ele>586.8</ele>
        <time>2019-08-07T12:00:32Z</time>
      </trkpt>
      <trkpt lat="48.6439260" lon="14.2835000">
        <ele>586.6</ele>
        <time>2019-08-07T12:00:33Z</time>
      </trkpt>
      <trkpt lat="48.6439100" lon="14.2835480">
        <ele>586.6</ele>
        <time>2019-08-07T12:00:34Z</time>
      </trkpt>
      <trkpt lat="48.6438930" lon="14.2836030">
        <ele>586.4</ele>
        <time>2019-08-07T12:00:35Z</time>
      </trkpt>
      <trkpt lat="48.6438720" lon="14.2836650">
        <ele>586.2</ele>
        <time>2019-08-07T12:00:36Z</time>
      </trkpt>
      <trkpt lat="48.6438490" lon="14.2837310">
        <ele>586.0</ele>
        <time>2019-08-07T12:00:37Z</time>
      </trkpt>
      <trkpt lat="48.6438250" lon="14.2838040">
        <ele>585.8</ele>
        <time>2019-08-07T12:00:38Z</time>
      </trkpt>
      <trkpt lat="48.6438040" lon="14.2838780">
        <ele>585.8</ele>
        <time>2019-08-07T12:00:39Z</time>
      </trkpt>
      <trkpt lat="48.6437830" lon="14.2839520">
        <ele>585.6</ele>
        <time>2019-08-07T12:00:40Z</time>
      </trkpt>
      <trkpt lat="48.6437620" lon="14.2840250">
        <ele>585.6</ele>
        <time>2019-08-07T12:00:41Z</time>
      </trkpt>
      <trkpt lat="48.6437430" lon="14.2840980">
        <ele>585.4</ele>
        <time>2019-08-07T12:00:42Z</time>
      </trkpt>
      <trkpt lat="48.6437260" lon="14.2841730">
        <ele>585.4</ele>
        <time>2019-08-07T12:00:43Z</time>
      </trkpt>
      <trkpt lat="48.6437140" lon="14.2842500">
        <ele>585.4</ele>
        <time>2019-08-07T12:00:44Z</time>
      </trkpt>
      <trkpt lat="48.6437090" lon="14.2843240">
        <ele>585.4</ele>
        <time>2019-08-07T12:00:45Z</time>
      </trkpt>
      <trkpt lat="48.6437010" lon="14.2843970">
        <ele>585.2</ele>
        <time>2019-08-07T12:00:46Z</time>
      </trkpt>
      <trkpt lat="48.6436890" lon="14.2844730">
        <ele>585.0</ele>
        <time>2019-08-07T12:00:47Z</time>
      </trkpt>
      <trkpt lat="48.6436740" lon="14.2845550">
        <ele>585.0</ele>
        <time>2019-08-07T12:00:48Z</time>
      </trkpt>
      <trkpt lat="48.6436610" lon="14.2846330">
        <ele>584.8</ele>
        <time>2019-08-07T12:00:49Z</time>
      </trkpt>
      <trkpt lat="48.6436480" lon="14.2847080">
        <ele>584.6</ele>
        <time>2019-08-07T12:00:50Z</time>
      </trkpt>
      <trkpt lat="48.6436380" lon="14.2847770">
        <ele>584.6</ele>
        <time>2019-08-07T12:00:51Z</time>
      </trkpt>
      <trkpt lat="48.6436260" lon="14.2848400">
        <ele>584.4</ele>
        <time>2019-08-07T12:00:52Z</time>
      </trkpt>
      <trkpt lat="48.6436160" lon="14.2848980">
        <ele>584.4</ele>
        <time>2019-08-07T12:00:53Z</time>
      </trkpt>
      <trkpt lat="48.6436070" lon="14.2849520">
        <ele>584.4</ele>
        <time>2019-08-07T12:00:54Z</time>
      </trkpt>
      <trkpt lat="48.6436030" lon="14.2850020">
        <ele>584.2</ele>
        <time>2019-08-07T12:00:55Z</time>
      </trkpt>
      <trkpt lat="48.6435990" lon="14.2850460">
        <ele>584.2</ele>
        <time>2019-08-07T12:00:56Z</time>
      </trkpt>
      <trkpt lat="48.6435950" lon="14.2850870">
        <ele>584.2</ele>
        <time>2019-08-07T12:00:57Z</time>
      </trkpt>
      <trkpt lat="48.6435930" lon="14.2851180">
        <ele>584.0</ele>
        <time>2019-08-07T12:00:58Z</time>
      </trkpt>
      <trkpt lat="48.6435910" lon="14.2851440">
        <ele>584.0</ele>
        <time>2019-08-07T12:00:59Z</time>
      </trkpt>
      <trkpt lat="48.6435870" lon="14.2851670">
        <ele>584.0</ele>
        <time>2019-08-07T12:01:00Z</time>
      </trkpt>
      <trkpt lat="48.6435830" lon="14.2851830">
        <ele>584.0</ele>
        <time>2019-08-07T12:01:01Z</time>
      </trkpt>
      <trkpt lat="48.6435820" lon="14.2851880">
        <ele>583.8</ele>
        <time>2019-08-07T12:01:02Z</time>
      </trkpt>
      <trkpt lat="48.6435820" lon="14.2851880">
        <ele>583.8</ele>
        <time>2019-08-07T12:01:03Z</time>
      </trkpt>
      <trkpt lat="48.6435860" lon="14.2852230">
        <ele>583.8</ele>
        <time>2019-08-07T12:02:58Z</time>
      </trkpt>
      <trkpt lat="48.6435910" lon="14.2852530">
        <ele>583.8</ele>
        <time>2019-08-07T12:02:59Z</time>
      </trkpt>
      <trkpt lat="48.6435950" lon="14.2852860">
        <ele>583.8</ele>
        <time>2019-08-07T12:03:00Z</time>
      </trkpt>
      <trkpt lat="48.6435980" lon="14.2853240">
        <ele>583.8</ele>
        <time>2019-08-07T12:03:01Z</time>
      </trkpt>
      <trkpt lat="48.6436050" lon="14.2853670">
        <ele>583.8</ele>
        <time>2019-08-07T12:03:02Z</time>
      </trkpt>
      <trkpt lat="48.6436110" lon="14.2854140">
        <ele>583.8</ele>
        <time>2019-08-07T12:03:03Z</time>
      </trkpt>
      <trkpt lat="48.6436170" lon="14.2854650">
        <ele>583.8</ele>
        <time>2019-08-07T12:03:04Z</time>
      </trkpt>
      <trkpt lat="48.6436190" lon="14.2855190">
        <ele>583.8</ele>
        <time>2019-08-07T12:03:05Z</time>
      </trkpt>
      <trkpt lat="48.6436230" lon="14.2855770">
        <ele>583.8</ele>
        <time>2019-08-07T12:03:06Z</time>
      </trkpt>
      <trkpt lat="48.6436300" lon="14.2856370">
        <ele>583.8</ele>
        <time>2019-08-07T12:03:07Z</time>
      </trkpt>
      <trkpt lat="48.6436410" lon="14.2857000">
        <ele>583.8</ele>
        <time>2019-08-07T12:03:08Z</time>
      </trkpt>
      <trkpt lat="48.6436550" lon="14.2857660">
        <ele>583.8</ele>
        <time>2019-08-07T12:03:09Z</time>
      </trkpt>
      <trkpt lat="48.6436690" lon="14.2858350">
        <ele>583.8</ele>
        <time>2019-08-07T12:03:10Z</time>
      </trkpt>
      <trkpt lat="48.6436830" lon="14.2859050">
        <ele>583.6</ele>
        <time>2019-08-07T12:03:11Z</time>
      </trkpt>
      <trkpt lat="48.6437020" lon="14.2859730">
        <ele>583.6</ele>
        <time>2019-08-07T12:03:12Z</time>
      </trkpt>
      <trkpt lat="48.6437240" lon="14.2860370">
        <ele>583.6</ele>
        <time>2019-08-07T12:03:13Z</time>
      </trkpt>
      <trkpt lat="48.6437520" lon="14.2860990">
        <ele>583.6</ele>
        <time>2019-08-07T12:03:14Z</time>
      </trkpt>
      <trkpt lat="48.6437820" lon="14.2861540">
        <ele>583.6</ele>
        <time>2019-08-07T12:03:15Z</time>
      </trkpt>
      <trkpt lat="48.6438210" lon="14.2862030">
        <ele>583.6</ele>
        <time>2019-08-07T12:03:16Z</time>
      </trkpt>
      <trkpt lat="48.6438590" lon="14.2862440">
        <ele>583.6</ele>
        <time>2019-08-07T12:03:17Z</time>
      </trkpt>
      <trkpt lat="48.6438920" lon="14.2862900">
        <ele>583.8</ele>
        <time>2019-08-07T12:03:18Z</time>
      </trkpt>
      <trkpt lat="48.6439210" lon="14.2863360">
        <ele>583.8</ele>
        <time>2019-08-07T12:03:19Z</time>
      </trkpt>
      <trkpt lat="48.6439460" lon="14.2863830">
        <ele>584.0</ele>
        <time>2019-08-07T12:03:20Z</time>
      </trkpt>
      <trkpt lat="48.6439670" lon="14.2864290">
        <ele>584.2</ele>
        <time>2019-08-07T12:03:21Z</time>
      </trkpt>
      <trkpt lat="48.6439870" lon="14.2864740">
        <ele>584.4</ele>
        <time>2019-08-07T12:03:22Z</time>
      </trkpt>
      <trkpt lat="48.6439970" lon="14.2865130">
        <ele>584.6</ele>
        <time>2019-08-07T12:03:23Z</time>
      </trkpt>
      <trkpt lat="48.6440040" lon="14.2865560">
        <ele>584.6</ele>
        <time>2019-08-07T12:03:24Z</time>
      </trkpt>
      <trkpt lat="48.6440070" lon="14.2865890">
        <ele>584.8</ele>
        <time>2019-08-07T12:03:25Z</time>
      </trkpt>
      <trkpt lat="48.6440100" lon="14.2866190">
        <ele>585.0</ele>
        <time>2019-08-07T12:03:26Z</time>
      </trkpt>
      <trkpt lat="48.6440070" lon="14.2866460">
        <ele>585.0</ele>
        <time>2019-08-07T12:03:27Z</time>
      </trkpt>
      <trkpt lat="48.6440010" lon="14.2866710">
        <ele>585.2</ele>
        <time>2019-08-07T12:03:28Z</time>
      </trkpt>
      <trkpt lat="48.6439940" lon="14.2866970">
        <ele>585.2</ele>
        <time>2019-08-07T12:03:29Z</time>
      </trkpt>
      <trkpt lat="48.6439870" lon="14.2867210">
        <ele>585.4</ele>
        <time>2019-08-07T12:03:30Z</time>
      </trkpt>
      <trkpt lat="48.6439760" lon="14.2867450">
        <ele>585.4</ele>
        <time>2019-08-07T12:03:31Z</time>
      </trkpt>
      <trkpt lat="48.6439580" lon="14.2867670">
        <ele>585.4</ele>
        <time>2019-08-07T12:03:32Z</time>
      </trkpt>
      <trkpt lat="48.6439380" lon="14.2867890">
        <ele>585.4</ele>
        <time>2019-08-07T12:03:33Z</time>
      </trkpt>
      <trkpt lat="48.6439200" lon="14.2868140">
        <ele>585.4</ele>
        <time>2019-08-07T12:03:34Z</time>
      </trkpt>
      <trkpt lat="48.6439030" lon="14.2868470">
        <ele>585.2</ele>
        <time>2019-08-07T12:03:35Z</time>
      </trkpt>
      <trkpt lat="48.6438830" lon="14.2868860">
        <ele>585.2</ele>
        <time>2019-08-07T12:03:36Z</time>
      </trkpt>
      <trkpt lat="48.6438610" lon="14.2869280">
        <ele>585.0</ele>
        <time>2019-08-07T12:03:37Z</time>
      </trkpt>
      <trkpt lat="48.6438380" lon="14.2869730">
        <ele>584.8</ele>
        <time>2019-08-07T12:03:38Z</time>
      </trkpt>
      <trkpt lat="48.6438140" lon="14.2870200">
        <ele>584.8</ele>
        <time>2019-08-07T12:03:39Z</time>
      </trkpt>
      <trkpt lat="48.6437880" lon="14.2870680">
        <ele>584.6</ele>
        <time>2019-08-07T12:03:40Z</time>
      </trkpt>
      <trkpt lat="48.6437650" lon="14.2871120">
        <ele>584.4</ele>
        <time>2019-08-07T12:03:41Z</time>
      </trkpt>
      <trkpt lat="48.6437450" lon="14.2871520">
        <ele>584.2</ele>
        <time>2019-08-07T12:03:42Z</time>
      </trkpt>
      <trkpt lat="48.6437270" lon="14.2871890">
        <ele>584.0</ele>
        <time>2019-08-07T12:03:43Z</time>
      </trkpt>
      <trkpt lat="48.6437080" lon="14.2872210">
        <ele>583.8</ele>
        <time>2019-08-07T12:03:44Z</time>
      </trkpt>
      <trkpt lat="48.6436860" lon="14.2872510">
        <ele>583.6</ele>
        <time>2019-08-07T12:03:45Z</time>
      </trkpt>
      <trkpt lat="48.6436650" lon="14.2872820">
        <ele>583.6</ele>
        <time>2019-08-07T12:03:46Z</time>
      </trkpt>
      <trkpt lat="48.6436390" lon="14.2873190">
        <ele>583.4</ele>
        <time>2019-08-07T12:03:47Z</time>
      </trkpt>
      <trkpt lat="48.6436100" lon="14.2873590">
        <ele>583.4</ele>
        <time>2019-08-07T12:03:48Z</time>
      </trkpt>
      <trkpt lat="48.6435780" lon="14.2874040">
        <ele>583.4</ele>
        <time>2019-08-07T12:03:49Z</time>
      </trkpt>
      <trkpt lat="48.6435440" lon="14.2874480">
        <ele>583.6</ele>
        <time>2019-08-07T12:03:50Z</time>
      </trkpt>
      <trkpt lat="48.6435090" lon="14.2874950">
        <ele>583.6</ele>
        <time>2019-08-07T12:03:51Z</time>
      </trkpt>
      <trkpt lat="48.6434730" lon="14.2875460">
        <ele>583.4</ele>
        <time>2019-08-07T12:03:52Z</time>
      </trkpt>
      <trkpt lat="48.6434360" lon="14.2875960">
        <ele>583.4</ele>
        <time>2019-08-07T12:03:53Z</time>
      </trkpt>
      <trkpt lat="48.6433980" lon="14.2876410">
        <ele>583.4</ele>
        <time>2019-08-07T12:03:54Z</time>
      </trkpt>
      <trkpt lat="48.6433610" lon="14.2876820">
        <ele>583.4</ele>
        <time>2019-08-07T12:03:55Z</time>
      </trkpt>
      <trkpt lat="48.6433250" lon="14.2877170">
        <ele>583.6</ele>
        <time>2019-08-07T12:03:56Z</time>
      </trkpt>
      <trkpt lat="48.6432940" lon="14.2877440">
        <ele>583.6</ele>
        <time>2019-08-07T12:03:57Z</time>
      </trkpt>
      <trkpt lat="48.6432660" lon="14.2877700">
        <ele>583.4</ele>
        <time>2019-08-07T12:03:58Z</time>
      </trkpt>
      <trkpt lat="48.6432470" lon="14.2877910">
        <ele>583.4</ele>
        <time>2019-08-07T12:03:59Z</time>
      </trkpt>
      <trkpt lat="48.6432290" lon="14.2878140">
        <ele>583.2</ele>
        <time>2019-08-07T12:04:00Z</time>
      </trkpt>
      <trkpt lat="48.6432080" lon="14.2878370">
        <ele>583.2</ele>
        <time>2019-08-07T12:04:01Z</time>
      </trkpt>
      <trkpt lat="48.6431840" lon="14.2878590">
        <ele>583.0</ele>
        <time>2019-08-07T12:04:02Z</time>
      </trkpt>
      <trkpt lat="48.6431620" lon="14.2878830">
        <ele>583.0</ele>
        <time>2019-08-07T12:04:03Z</time>
      </trkpt>
      <trkpt lat="48.6431440" lon="14.2879050">
        <ele>582.8</ele>
        <time>2019-08-07T12:04:04Z</time>
      </trkpt>
      <trkpt lat="48.6431160" lon="14.2879280">
        <ele>582.8</ele>
        <time>2019-08-07T12:04:05Z</time>
      </trkpt>
      <trkpt lat="48.6430890" lon="14.2879540">
        <ele>582.8</ele>
        <time>2019-08-07T12:04:06Z</time>
      </trkpt>
      <trkpt lat="48.6430650" lon="14.2879800">
        <ele>582.8</ele>
        <time>2019-08-07T12:04:07Z</time>
      </trkpt>
      <trkpt lat="48.6430390" lon="14.2880060">
        <ele>582.8</ele>
        <time>2019-08-07T12:04:08Z</time>
      </trkpt>
      <trkpt lat="48.6430110" lon="14.2880330">
        <ele>583.0</ele>
        <time>2019-08-07T12:04:09Z</time>
      </trkpt>
      <trkpt lat="48.6429870" lon="14.2880620">
        <ele>583.0</ele>
        <time>2019-08-07T12:04:10Z</time>
      </trkpt>
      <trkpt lat="48.6429660" lon="14.2880890">
        <ele>583.0</ele>
        <time>2019-08-07T12:04:11Z</time>
      </trkpt>
      <trkpt lat="48.6429420" lon="14.2881170">
        <ele>583.2</ele>
        <time>2019-08-07T12:04:12Z</time>
      </trkpt>
      <trkpt lat="48.6429180" lon="14.2881450">
        <ele>583.2</ele>
        <time>2019-08-07T12:04:13Z</time>
      </trkpt>
      <trkpt lat="48.6428960" lon="14.2881720">
        <ele>583.4</ele>
        <time>2019-08-07T12:04:14Z</time>
      </trkpt>
      <trkpt lat="48.6428750" lon="14.2881960">
        <ele>583.4</ele>
        <time>2019-08-07T12:04:15Z</time>
      </trkpt>
      <trkpt lat="48.6428550" lon="14.2882220">
        <ele>583.6</ele>
        <time>2019-08-07T12:04:16Z</time>
      </trkpt>
      <trkpt lat="48.6428360" lon="14.2882450">
        <ele>583.6</ele>
        <time>2019-08-07T12:04:17Z</time>
      </trkpt>
      <trkpt lat="48.6428170" lon="14.2882680">
        <ele>583.8</ele>
        <time>2019-08-07T12:04:18Z</time>
      </trkpt>
      <trkpt lat="48.6428000" lon="14.2882900">
        <ele>584.0</ele>
        <time>2019-08-07T12:04:19Z</time>
      </trkpt>
      <trkpt lat="48.6427880" lon="14.2883100">
        <ele>584.2</ele>
        <time>2019-08-07T12:04:20Z</time>
      </trkpt>
      <trkpt lat="48.6427730" lon="14.2883290">
        <ele>584.2</ele>
        <time>2019-08-07T12:04:21Z</time>
      </trkpt>
      <trkpt lat="48.6427550" lon="14.2883490">
        <ele>584.4</ele>
        <time>2019-08-07T12:04:22Z</time>
      </trkpt>
      <trkpt lat="48.6427350" lon="14.2883690">
        <ele>584.4</ele>
        <time>2019-08-07T12:04:23Z</time>
      </trkpt>
      <trkpt lat="48.6427130" lon="14.2883850">
        <ele>584.6</ele>
        <time>2019-08-07T12:04:24Z</time>
      </trkpt>
      <trkpt lat="48.6426930" lon="14.2883990">
        <ele>584.8</ele>
        <time>2019-08-07T12:04:25Z</time>
      </trkpt>
      <trkpt lat="48.6426710" lon="14.2884200">
        <ele>584.8</ele>
        <time>2019-08-07T12:04:26Z</time>
      </trkpt>
      <trkpt lat="48.6426510" lon="14.2884400">
        <ele>585.0</ele>
        <time>2019-08-07T12:04:27Z</time>
      </trkpt>
      <trkpt lat="48.6426260" lon="14.2884580">
        <ele>585.0</ele>
        <time>2019-08-07T12:04:28Z</time>
      </trkpt>
      <trkpt lat="48.6426060" lon="14.2884720">
        <ele>585.0</ele>
        <time>2019-08-07T12:04:29Z</time>
      </trkpt>
      <trkpt lat="48.6425850" lon="14.2884920">
        <ele>585.2</ele>
        <time>2019-08-07T12:04:30Z</time>
      </trkpt>
      <trkpt lat="48.6425640" lon="14.2885140">
        <ele>585.2</ele>
        <time>2019-08-07T12:04:31Z</time>
      </trkpt>
      <trkpt lat="48.6425390" lon="14.2885330">
        <ele>585.2</ele>
        <time>2019-08-07T12:04:32Z</time>
      </trkpt>
      <trkpt lat="48.6425160" lon="14.2885520">
        <ele>585.2</ele>
        <time>2019-08-07T12:04:33Z</time>
      </trkpt>
      <trkpt lat="48.6424930" lon="14.2885740">
        <ele>585.2</ele>
        <time>2019-08-07T12:04:34Z</time>
      </trkpt>
      <trkpt lat="48.6424730" lon="14.2885990">
        <ele>585.2</ele>
        <time>2019-08-07T12:04:35Z</time>
      </trkpt>
      <trkpt lat="48.6424500" lon="14.2886240">
        <ele>585.4</ele>
        <time>2019-08-07T12:04:36Z</time>
      </trkpt>
      <trkpt lat="48.6424290" lon="14.2886470">
        <ele>585.4</ele>
        <time>2019-08-07T12:04:37Z</time>
      </trkpt>
      <trkpt lat="48.6424060" lon="14.2886690">
        <ele>585.4</ele>
        <time>2019-08-07T12:04:38Z</time>
      </trkpt>
      <trkpt lat="48.6423840" lon="14.2886930">
        <ele>585.4</ele>
        <time>2019-08-07T12:04:39Z</time>
      </trkpt>
      <trkpt lat="48.6423600" lon="14.2887190">
        <ele>585.4</ele>
        <time>2019-08-07T12:04:40Z</time>
      </trkpt>
      <trkpt lat="48.6423360" lon="14.2887450">
        <ele>585.4</ele>
        <time>2019-08-07T12:04:41Z</time>
      </trkpt>
      <trkpt lat="48.6423110" lon="14.2887750">
        <ele>585.4</ele>
        <time>2019-08-07T12:04:42Z</time>
      </trkpt>
      <trkpt lat="48.6422900" lon="14.2888040">
        <ele>585.4</ele>
        <time>2019-08-07T12:04:43Z</time>
      </trkpt>
      <trkpt lat="48.6422660" lon="14.2888380">
        <ele>585.2</ele>
        <time>2019-08-07T12:04:44Z</time>
      </trkpt>
      <trkpt lat="48.6422420" lon="14.2888740">
        <ele>585.0</ele>
        <time>2019-08-07T12:04:45Z</time>
      </trkpt>
      <trkpt lat="48.6422140" lon="14.2889090">
        <ele>584.8</ele>
        <time>2019-08-07T12:04:46Z</time>
      </trkpt>
      <trkpt lat="48.6421800" lon="14.2889490">
        <ele>584.8</ele>
        <time>2019-08-07T12:04:47Z</time>
      </trkpt>
      <trkpt lat="48.6421450" lon="14.2889940">
        <ele>584.6</ele>
        <time>2019-08-07T12:04:48Z</time>
      </trkpt>
      <trkpt lat="48.6421060" lon="14.2890420">
        <ele>584.4</ele>
        <time>2019-08-07T12:04:49Z</time>
      </trkpt>
      <trkpt lat="48.6420660" lon="14.2890880">
        <ele>584.2</ele>
        <time>2019-08-07T12:04:50Z</time>
      </trkpt>
      <trkpt lat="48.6420210" lon="14.2891330">
        <ele>584.0</ele>
        <time>2019-08-07T12:04:51Z</time>
      </trkpt>
      <trkpt lat="48.6419750" lon="14.2891780">
        <ele>583.8</ele>
        <time>2019-08-07T12:04:52Z</time>
      </trkpt>
      <trkpt lat="48.6419300" lon="14.2892190">
        <ele>583.6</ele>
        <time>2019-08-07T12:04:53Z</time>
      </trkpt>
      <trkpt lat="48.6418790" lon="14.2892630">
        <ele>583.2</ele>
        <time>2019-08-07T12:04:54Z</time>
      </trkpt>
      <trkpt lat="48.6418180" lon="14.2893080">
        <ele>583.0</ele>
        <time>2019-08-07T12:04:55Z</time>
      </trkpt>
      <trkpt lat="48.6417590" lon="14.2893450">
        <ele>582.6</ele>
        <time>2019-08-07T12:04:56Z</time>
      </trkpt>
      <trkpt lat="48.6416920" lon="14.2893830">
        <ele>582.4</ele>
        <time>2019-08-07T12:04:57Z</time>
      </trkpt>
      <trkpt lat="48.6416240" lon="14.2894190">
        <ele>582.2</ele>
        <time>2019-08-07T12:04:58Z</time>
      </trkpt>
      <trkpt lat="48.6415540" lon="14.2894530">
        <ele>582.0</ele>
        <time>2019-08-07T12:04:59Z</time>
      </trkpt>
      <trkpt lat="48.6414860" lon="14.2894840">
        <ele>581.8</ele>
        <time>2019-08-07T12:05:00Z</time>
      </trkpt>
      <trkpt lat="48.6414180" lon="14.2895070">
        <ele>581.6</ele>
        <time>2019-08-07T12:05:01Z</time>
      </trkpt>
      <trkpt lat="48.6413530" lon="14.2895240">
        <ele>581.4</ele>
        <time>2019-08-07T12:05:02Z</time>
      </trkpt>
      <trkpt lat="48.6412890" lon="14.2895370">
        <ele>581.4</ele>
        <time>2019-08-07T12:05:03Z</time>
      </trkpt>
      <trkpt lat="48.6412190" lon="14.2895470">
        <ele>581.2</ele>
        <time>2019-08-07T12:05:04Z</time>
      </trkpt>
      <trkpt lat="48.6411420" lon="14.2895580">
        <ele>581.0</ele>
        <time>2019-08-07T12:05:05Z</time>
      </trkpt>
      <trkpt lat="48.6410720" lon="14.2895640">
        <ele>581.0</ele>
        <time>2019-08-07T12:05:06Z</time>
      </trkpt>
      <trkpt lat="48.6410050" lon="14.2895710">
        <ele>580.8</ele>
        <time>2019-08-07T12:05:07Z</time>
      </trkpt>
      <trkpt lat="48.6409280" lon="14.2895760">
        <ele>580.6</ele>
        <time>2019-08-07T12:05:08Z</time>
      </trkpt>
      <trkpt lat="48.6408550" lon="14.2895840">
        <ele>580.6</ele>
        <time>2019-08-07T12:05:09Z</time>
      </trkpt>
      <trkpt lat="48.6407850" lon="14.2895880">
        <ele>580.4</ele>
        <time>2019-08-07T12:05:10Z</time>
      </trkpt>
      <trkpt lat="48.6407170" lon="14.2895890">
        <ele>580.2</ele>
        <time>2019-08-07T12:05:11Z</time>
      </trkpt>
      <trkpt lat="48.6406470" lon="14.2895930">
        <ele>580.2</ele>
        <time>2019-08-07T12:05:12Z</time>
      </trkpt>
      <trkpt lat="48.6405790" lon="14.2896040">
        <ele>580.2</ele>
        <time>2019-08-07T12:05:13Z</time>
      </trkpt>
      <trkpt lat="48.6405130" lon="14.2896200">
        <ele>580.2</ele>
        <time>2019-08-07T12:05:14Z</time>
      </trkpt>
      <trkpt lat="48.6404450" lon="14.2896350">
        <ele>580.0</ele>
        <time>2019-08-07T12:05:15Z</time>
      </trkpt>
      <trkpt lat="48.6403740" lon="14.2896480">
        <ele>579.8</ele>
        <time>2019-08-07T12:05:16Z</time>
      </trkpt>
      <trkpt lat="48.6403000" lon="14.2896670">
        <ele>579.6</ele>
        <time>2019-08-07T12:05:17Z</time>
      </trkpt>
      <trkpt lat="48.6402320" lon="14.2896850">
        <ele>579.4</ele>
        <time>2019-08-07T12:05:18Z</time>
      </trkpt>
      <trkpt lat="48.6401630" lon="14.2897000">
        <ele>579.4</ele>
        <time>2019-08-07T12:05:19Z</time>
      </trkpt>
      <trkpt lat="48.6400970" lon="14.2897180">
        <ele>579.2</ele>
        <time>2019-08-07T12:05:20Z</time>
      </trkpt>
      <trkpt lat="48.6400280" lon="14.2897330">
        <ele>579.2</ele>
        <time>2019-08-07T12:05:21Z</time>
      </trkpt>
      <trkpt lat="48.6399600" lon="14.2897410">
        <ele>579.0</ele>
        <time>2019-08-07T12:05:22Z</time>
      </trkpt>
      <trkpt lat="48.6398960" lon="14.2897460">
        <ele>579.0</ele>
        <time>2019-08-07T12:05:23Z</time>
      </trkpt>
      <trkpt lat="48.6398390" lon="14.2897490">
        <ele>579.0</ele>
        <time>2019-08-07T12:05:24Z</time>
      </trkpt>
      <trkpt lat="48.6397790" lon="14.2897560">
        <ele>578.8</ele>
        <time>2019-08-07T12:05:25Z</time>
      </trkpt>
      <trkpt lat="48.6397220" lon="14.2897620">
        <ele>578.8</ele>
        <time>2019-08-07T12:05:26Z</time>
      </trkpt>
      <trkpt lat="48.6396670" lon="14.2897650">
        <ele>578.8</ele>
        <time>2019-08-07T12:05:27Z</time>
      </trkpt>
      <trkpt lat="48.6396070" lon="14.2897650">
        <ele>578.8</ele>
        <time>2019-08-07T12:05:28Z</time>
      </trkpt>
      <trkpt lat="48.6395530" lon="14.2897620">
        <ele>578.8</ele>
        <time>2019-08-07T12:05:29Z</time>
      </trkpt>
      <trkpt lat="48.6394970" lon="14.2897570">
        <ele>578.8</ele>
        <time>2019-08-07T12:05:30Z</time>
      </trkpt>
      <trkpt lat="48.6394380" lon="14.2897530">
        <ele>578.8</ele>
        <time>2019-08-07T12:05:31Z</time>
      </trkpt>
      <trkpt lat="48.6393800" lon="14.2897490">
        <ele>578.8</ele>
        <time>2019-08-07T12:05:32Z</time>
      </trkpt>
      <trkpt lat="48.6393250" lon="14.2897530">
        <ele>578.8</ele>
        <time>2019-08-07T12:05:33Z</time>
      </trkpt>
      <trkpt lat="48.6392670" lon="14.2897590">
        <ele>578.8</ele>
        <time>2019-08-07T12:05:34Z</time>
      </trkpt>
      <trkpt lat="48.6392080" lon="14.2897620">
        <ele>578.8</ele>
        <time>2019-08-07T12:05:35Z</time>
      </trkpt>
      <trkpt lat="48.6391540" lon="14.2897660">
        <ele>578.8</ele>
        <time>2019-08-07T12:05:36Z</time>
      </trkpt>
      <trkpt lat="48.6391010" lon="14.2897710">
        <ele>578.6</ele>
        <time>2019-08-07T12:05:37Z</time>
      </trkpt>
      <trkpt lat="48.6390450" lon="14.2897810">
        <ele>578.6</ele>
        <time>2019-08-07T12:05:38Z</time>
      </trkpt>
      <trkpt lat="48.6389860" lon="14.2897880">
        <ele>578.6</ele>
        <time>2019-08-07T12:05:39Z</time>
      </trkpt>
      <trkpt lat="48.6389320" lon="14.2897930">
        <ele>578.6</ele>
        <time>2019-08-07T12:05:40Z</time>
      </trkpt>
      <trkpt lat="48.6388780" lon="14.2898010">
        <ele>578.6</ele>
        <time>2019-08-07T12:05:41Z</time>
      </trkpt>
      <trkpt lat="48.6388210" lon="14.2898100">
        <ele>578.6</ele>
        <time>2019-08-07T12:05:42Z</time>
      </trkpt>
      <trkpt lat="48.6387720" lon="14.2898190">
        <ele>578.4</ele>
        <time>2019-08-07T12:05:43Z</time>
      </trkpt>
      <trkpt lat="48.6387270" lon="14.2898310">
        <ele>578.4</ele>
        <time>2019-08-07T12:05:44Z</time>
      </trkpt>
      <trkpt lat="48.6386830" lon="14.2898480">
        <ele>578.6</ele>
        <time>2019-08-07T12:05:45Z</time>
      </trkpt>
      <trkpt lat="48.6386400" lon="14.2898650">
        <ele>578.6</ele>
        <time>2019-08-07T12:05:46Z</time>
      </trkpt>
      <trkpt lat="48.6385960" lon="14.2898840">
        <ele>578.6</ele>
        <time>2019-08-07T12:05:47Z</time>
      </trkpt>
      <trkpt lat="48.6385540" lon="14.2899020">
        <ele>578.6</ele>
        <time>2019-08-07T12:05:48Z</time>
      </trkpt>
      <trkpt lat="48.6385210" lon="14.2899210">
        <ele>578.8</ele>
        <time>2019-08-07T12:05:49Z</time>
      </trkpt>
      <trkpt lat="48.6384950" lon="14.2899440">
        <ele>578.8</ele>
        <time>2019-08-07T12:05:50Z</time>
      </trkpt>
      <trkpt lat="48.6384700" lon="14.2899630">
        <ele>578.8</ele>
        <time>2019-08-07T12:05:51Z</time>
      </trkpt>
      <trkpt lat="48.6384400" lon="14.2899820">
        <ele>579.0</ele>
        <time>2019-08-07T12:05:52Z</time>
      </trkpt>
      <trkpt lat="48.6384140" lon="14.2899990">
        <ele>579.0</ele>
        <time>2019-08-07T12:05:53Z</time>
      </trkpt>
      <trkpt lat="48.6383930" lon="14.2900150">
        <ele>579.2</ele>
        <time>2019-08-07T12:05:54Z</time>
      </trkpt>
      <trkpt lat="48.6383720" lon="14.2900330">
        <ele>579.4</ele>
        <time>2019-08-07T12:05:55Z</time>
      </trkpt>
      <trkpt lat="48.6383580" lon="14.2900520">
        <ele>579.6</ele>
        <time>2019-08-07T12:05:56Z</time>
      </trkpt>
      <trkpt lat="48.6383440" lon="14.2900730">
        <ele>579.8</ele>
        <time>2019-08-07T12:05:57Z</time>
      </trkpt>
      <trkpt lat="48.6383290" lon="14.2900940">
        <ele>580.0</ele>
        <time>2019-08-07T12:05:58Z</time>
      </trkpt>
      <trkpt lat="48.6383120" lon="14.2901130">
        <ele>580.2</ele>
        <time>2019-08-07T12:05:59Z</time>
      </trkpt>
      <trkpt lat="48.6382950" lon="14.2901320">
        <ele>580.4</ele>
        <time>2019-08-07T12:06:00Z</time>
      </trkpt>
      <trkpt lat="48.6382790" lon="14.2901490">
        <ele>580.6</ele>
        <time>2019-08-07T12:06:01Z</time>
      </trkpt>
      <trkpt lat="48.6382630" lon="14.2901640">
        <ele>580.8</ele>
        <time>2019-08-07T12:06:02Z</time>
      </trkpt>
      <trkpt lat="48.6382450" lon="14.2901780">
        <ele>581.0</ele>
        <time>2019-08-07T12:06:03Z</time>
      </trkpt>
      <trkpt lat="48.6382250" lon="14.2901970">
        <ele>581.2</ele>
        <time>2019-08-07T12:06:04Z</time>
      </trkpt>
      <trkpt lat="48.6382070" lon="14.2902140">
        <ele>581.4</ele>
        <time>2019-08-07T12:06:05Z</time>
      </trkpt>
      <trkpt lat="48.6381910" lon="14.2902310">
        <ele>581.6</ele>
        <time>2019-08-07T12:06:06Z</time>
      </trkpt>
      <trkpt lat="48.6381740" lon="14.2902480">
        <ele>581.8</ele>
        <time>2019-08-07T12:06:07Z</time>
      </trkpt>
      <trkpt lat="48.6381570" lon="14.2902690">
        <ele>582.0</ele>
        <time>2019-08-07T12:06:08Z</time>
      </trkpt>
      <trkpt lat="48.6381380" lon="14.2902900">
        <ele>582.2</ele>
        <time>2019-08-07T12:06:09Z</time>
      </trkpt>
      <trkpt lat="48.6381200" lon="14.2903100">
        <ele>582.4</ele>
        <time>2019-08-07T12:06:10Z</time>
      </trkpt>
      <trkpt lat="48.6381040" lon="14.2903310">
        <ele>582.4</ele>
        <time>2019-08-07T12:06:11Z</time>
      </trkpt>
      <trkpt lat="48.6380870" lon="14.2903520">
        <ele>582.6</ele>
        <time>2019-08-07T12:06:12Z</time>
      </trkpt>
      <trkpt lat="48.6380720" lon="14.2903740">
        <ele>582.6</ele>
        <time>2019-08-07T12:06:13Z</time>
      </trkpt>
      <trkpt lat="48.6380570" lon="14.2903950">
        <ele>582.8</ele>
        <time>2019-08-07T12:06:14Z</time>
      </trkpt>
      <trkpt lat="48.6380390" lon="14.2904140">
        <ele>582.8</ele>
        <time>2019-08-07T12:06:15Z</time>
      </trkpt>
      <trkpt lat="48.6380170" lon="14.2904310">
        <ele>583.0</ele>
        <time>2019-08-07T12:06:16Z</time>
      </trkpt>
      <trkpt lat="48.6379980" lon="14.2904470">
        <ele>583.0</ele>
        <time>2019-08-07T12:06:17Z</time>
      </trkpt>
      <trkpt lat="48.6379790" lon="14.2904710">
        <ele>583.2</ele>
        <time>2019-08-07T12:06:18Z</time>
      </trkpt>
      <trkpt lat="48.6379620" lon="14.2904930">
        <ele>583.2</ele>
        <time>2019-08-07T12:06:19Z</time>
      </trkpt>
      <trkpt lat="48.6379440" lon="14.2905140">
        <ele>583.2</ele>
        <time>2019-08-07T12:06:20Z</time>
      </trkpt>
      <trkpt lat="48.6379290" lon="14.2905330">
        <ele>583.4</ele>
        <time>2019-08-07T12:06:21Z</time>
      </trkpt>
      <trkpt lat="48.6379130" lon="14.2905500">
        <ele>583.4</ele>
        <time>2019-08-07T12:06:22Z</time>
      </trkpt>
      <trkpt lat="48.6378940" lon="14.2905670">
        <ele>583.6</ele>
        <time>2019-08-07T12:06:23Z</time>
      </trkpt>
      <trkpt lat="48.6378790" lon="14.2905810">
        <ele>583.6</ele>
        <time>2019-08-07T12:06:24Z</time>
      </trkpt>
      <trkpt lat="48.6378640" lon="14.2905950">
        <ele>583.6</ele>
        <time>2019-08-07T12:06:25Z</time>
      </trkpt>
      <trkpt lat="48.6378490" lon="14.2906110">
        <ele>583.8</ele>
        <time>2019-08-07T12:06:26Z</time>
      </trkpt>
      <trkpt lat="48.6378340" lon="14.2906280">
        <ele>583.8</ele>
        <time>2019-08-07T12:06:27Z</time>
      </trkpt>
      <trkpt lat="48.6378170" lon="14.2906450">
        <ele>584.0</ele>
        <time>2019-08-07T12:06:28Z</time>
      </trkpt>
      <trkpt lat="48.6378000" lon="14.2906630">
        <ele>584.0</ele>
        <time>2019-08-07T12:06:29Z</time>
      </trkpt>
      <trkpt lat="48.6377790" lon="14.2906810">
        <ele>584.0</ele>
        <time>2019-08-07T12:06:30Z</time>
      </trkpt>
      <trkpt lat="48.6377580" lon="14.2906960">
        <ele>584.2</ele>
        <time>2019-08-07T12:06:31Z</time>
      </trkpt>
      <trkpt lat="48.6377360" lon="14.2907110">
        <ele>584.2</ele>
        <time>2019-08-07T12:06:32Z</time>
      </trkpt>
      <trkpt lat="48.6377160" lon="14.2907270">
        <ele>584.2</ele>
        <time>2019-08-07T12:06:33Z</time>
      </trkpt>
      <trkpt lat="48.6376950" lon="14.2907490">
        <ele>584.2</ele>
        <time>2019-08-07T12:06:34Z</time>
      </trkpt>
      <trkpt lat="48.6376730" lon="14.2907710">
        <ele>584.2</ele>
        <time>2019-08-07T12:06:35Z</time>
      </trkpt>
      <trkpt lat="48.6376480" lon="14.2907960">
        <ele>584.2</ele>
        <time>2019-08-07T12:06:36Z</time>
      </trkpt>
      <trkpt lat="48.6376200" lon="14.2908210">
        <ele>584.2</ele>
        <time>2019-08-07T12:06:37Z</time>
      </trkpt>
      <trkpt lat="48.6375890" lon="14.2908470">
        <ele>584.0</ele>
        <time>2019-08-07T12:06:38Z</time>
      </trkpt>
      <trkpt lat="48.6375550" lon="14.2908750">
        <ele>584.0</ele>
        <time>2019-08-07T12:06:39Z</time>
      </trkpt>
      <trkpt lat="48.6375200" lon="14.2909040">
        <ele>583.8</ele>
        <time>2019-08-07T12:06:40Z</time>
      </trkpt>
      <trkpt lat="48.6374860" lon="14.2909350">
        <ele>583.6</ele>
        <time>2019-08-07T12:06:41Z</time>
      </trkpt>
      <trkpt lat="48.6374500" lon="14.2909660">
        <ele>583.4</ele>
        <time>2019-08-07T12:06:42Z</time>
      </trkpt>
      <trkpt lat="48.6374130" lon="14.2909970">
        <ele>583.4</ele>
        <time>2019-08-07T12:06:43Z</time>
      </trkpt>
      <trkpt lat="48.6373770" lon="14.2910300">
        <ele>583.2</ele>
        <time>2019-08-07T12:06:44Z</time>
      </trkpt>
      <trkpt lat="48.6373420" lon="14.2910590">
        <ele>583.0</ele>
        <time>2019-08-07T12:06:45Z</time>
      </trkpt>
      <trkpt lat="48.6373060" lon="14.2910890">
        <ele>583.0</ele>
        <time>2019-08-07T12:06:46Z</time>
      </trkpt>
      <trkpt lat="48.6372730" lon="14.2911210">
        <ele>582.8</ele>
        <time>2019-08-07T12:06:47Z</time>
      </trkpt>
      <trkpt lat="48.6372430" lon="14.2911540">
        <ele>582.6</ele>
        <time>2019-08-07T12:06:48Z</time>
      </trkpt>
      <trkpt lat="48.6372120" lon="14.2911850">
        <ele>582.6</ele>
        <time>2019-08-07T12:06:49Z</time>
      </trkpt>
      <trkpt lat="48.6371850" lon="14.2912190">
        <ele>582.4</ele>
        <time>2019-08-07T12:06:50Z</time>
      </trkpt>
      <trkpt lat="48.6371600" lon="14.2912570">
        <ele>582.4</ele>
        <time>2019-08-07T12:06:51Z</time>
      </trkpt>
      <trkpt lat="48.6371400" lon="14.2912990">
        <ele>582.4</ele>
        <time>2019-08-07T12:06:52Z</time>
      </trkpt>
      <trkpt lat="48.6371230" lon="14.2913410">
        <ele>582.4</ele>
        <time>2019-08-07T12:06:53Z</time>
      </trkpt>
      <trkpt lat="48.6371040" lon="14.2913840">
        <ele>582.4</ele>
        <time>2019-08-07T12:06:54Z</time>
      </trkpt>
      <trkpt lat="48.6370790" lon="14.2914260">
        <ele>582.4</ele>
        <time>2019-08-07T12:06:55Z</time>
      </trkpt>
      <trkpt lat="48.6370590" lon="14.2914640">
        <ele>582.4</ele>
        <time>2019-08-07T12:06:56Z</time>
      </trkpt>
      <trkpt lat="48.6370430" lon="14.2915010">
        <ele>582.4</ele>
        <time>2019-08-07T12:06:57Z</time>
      </trkpt>
      <trkpt lat="48.6370200" lon="14.2915600">
        <ele>582.4</ele>
        <time>2019-08-07T12:06:58Z</time>
      </trkpt>
      <trkpt lat="48.6370050" lon="14.2916010">
        <ele>582.6</ele>
        <time>2019-08-07T12:06:59Z</time>
      </trkpt>
      <trkpt lat="48.6369790" lon="14.2916600">
        <ele>582.6</ele>
        <time>2019-08-07T12:07:00Z</time>
      </trkpt>
      <trkpt lat="48.6369550" lon="14.2917100">
        <ele>582.6</ele>
        <time>2019-08-07T12:07:01Z</time>
      </trkpt>
      <trkpt lat="48.6369320" lon="14.2917580">
        <ele>582.8</ele>
        <time>2019-08-07T12:07:02Z</time>
      </trkpt>
      <trkpt lat="48.6369070" lon="14.2918050">
        <ele>582.8</ele>
        <time>2019-08-07T12:07:03Z</time>
      </trkpt>
      <trkpt lat="48.6368810" lon="14.2918540">
        <ele>583.0</ele>
        <time>2019-08-07T12:07:04Z</time>
      </trkpt>
      <trkpt lat="48.6368480" lon="14.2919110">
        <ele>583.0</ele>
        <time>2019-08-07T12:07:05Z</time>
      </trkpt>
      <trkpt lat="48.6368180" lon="14.2919610">
        <ele>583.0</ele>
        <time>2019-08-07T12:07:06Z</time>
      </trkpt>
      <trkpt lat="48.6367860" lon="14.2920140">
        <ele>583.0</ele>
        <time>2019-08-07T12:07:07Z</time>
      </trkpt>
      <trkpt lat="48.6367510" lon="14.2920670">
        <ele>583.2</ele>
        <time>2019-08-07T12:07:08Z</time>
      </trkpt>
      <trkpt lat="48.6367190" lon="14.2921180">
        <ele>583.4</ele>
        <time>2019-08-07T12:07:09Z</time>
      </trkpt>
      <trkpt lat="48.6366850" lon="14.2921740">
        <ele>583.4</ele>
        <time>2019-08-07T12:07:10Z</time>
      </trkpt>
      <trkpt lat="48.6366510" lon="14.2922260">
        <ele>583.6</ele>
        <time>2019-08-07T12:07:11Z</time>
      </trkpt>
      <trkpt lat="48.6366180" lon="14.2922750">
        <ele>583.8</ele>
        <time>2019-08-07T12:07:12Z</time>
      </trkpt>
      <trkpt lat="48.6365850" lon="14.2923240">
        <ele>583.8</ele>
        <time>2019-08-07T12:07:13Z</time>
      </trkpt>
      <trkpt lat="48.6365570" lon="14.2923720">
        <ele>584.0</ele>
        <time>2019-08-07T12:07:14Z</time>
      </trkpt>
      <trkpt lat="48.6365310" lon="14.2924170">
        <ele>584.2</ele>
        <time>2019-08-07T12:07:15Z</time>
      </trkpt>
      <trkpt lat="48.6365110" lon="14.2924560">
        <ele>584.2</ele>
        <time>2019-08-07T12:07:16Z</time>
      </trkpt>
      <trkpt lat="48.6364870" lon="14.2924960">
        <ele>584.4</ele>
        <time>2019-08-07T12:07:17Z</time>
      </trkpt>
      <trkpt lat="48.6364580" lon="14.2925400">
        <ele>584.6</ele>
        <time>2019-08-07T12:07:18Z</time>
      </trkpt>
      <trkpt lat="48.6364270" lon="14.2925850">
        <ele>584.6</ele>
        <time>2019-08-07T12:07:19Z</time>
      </trkpt>
      <trkpt lat="48.6363940" lon="14.2926270">
        <ele>584.8</ele>
        <time>2019-08-07T12:07:20Z</time>
      </trkpt>
      <trkpt lat="48.6363620" lon="14.2926660">
        <ele>584.8</ele>
        <time>2019-08-07T12:07:21Z</time>
      </trkpt>
      <trkpt lat="48.6363300" lon="14.2927070">
        <ele>584.8</ele>
        <time>2019-08-07T12:07:22Z</time>
      </trkpt>
      <trkpt lat="48.6362960" lon="14.2927480">
        <ele>585.0</ele>
        <time>2019-08-07T12:07:23Z</time>
      </trkpt>
      <trkpt lat="48.6362620" lon="14.2927910">
        <ele>585.0</ele>
        <time>2019-08-07T12:07:24Z</time>
      </trkpt>
      <trkpt lat="48.6362260" lon="14.2928320">
        <ele>585.0</ele>
        <time>2019-08-07T12:07:25Z</time>
      </trkpt>
      <trkpt lat="48.6361940" lon="14.2928700">
        <ele>585.2</ele>
        <time>2019-08-07T12:07:26Z</time>
      </trkpt>
      <trkpt lat="48.6361560" lon="14.2929130">
        <ele>585.2</ele>
        <time>2019-08-07T12:07:27Z</time>
      </trkpt>
      <trkpt lat="48.6361190" lon="14.2929530">
        <ele>585.4</ele>
        <time>2019-08-07T12:07:28Z</time>
      </trkpt>
      <trkpt lat="48.6360820" lon="14.2929930">
        <ele>585.4</ele>
        <time>2019-08-07T12:07:29Z</time>
      </trkpt>
      <trkpt lat="48.6360470" lon="14.2930370">
        <ele>585.6</ele>
        <time>2019-08-07T12:07:30Z</time>
      </trkpt>
      <trkpt lat="48.6360150" lon="14.2930750">
        <ele>585.6</ele>
        <time>2019-08-07T12:07:31Z</time>
      </trkpt>
      <trkpt lat="48.6359830" lon="14.2931120">
        <ele>585.8</ele>
        <time>2019-08-07T12:07:32Z</time>
      </trkpt>
      <trkpt lat="48.6359530" lon="14.2931520">
        <ele>585.8</ele>
        <time>2019-08-07T12:07:33Z</time>
      </trkpt>
      <trkpt lat="48.6359210" lon="14.2931900">
        <ele>586.0</ele>
        <time>2019-08-07T12:07:34Z</time>
      </trkpt>
      <trkpt lat="48.6358910" lon="14.2932240">
        <ele>586.0</ele>
        <time>2019-08-07T12:07:35Z</time>
      </trkpt>
      <trkpt lat="48.6358570" lon="14.2932580">
        <ele>586.2</ele>
        <time>2019-08-07T12:07:36Z</time>
      </trkpt>
      <trkpt lat="48.6358260" lon="14.2932930">
        <ele>586.2</ele>
        <time>2019-08-07T12:07:37Z</time>
      </trkpt>
      <trkpt lat="48.6357940" lon="14.2933300">
        <ele>586.4</ele>
        <time>2019-08-07T12:07:38Z</time>
      </trkpt>
      <trkpt lat="48.6357610" lon="14.2933690">
        <ele>586.4</ele>
        <time>2019-08-07T12:07:39Z</time>
      </trkpt>
      <trkpt lat="48.6357210" lon="14.2934110">
        <ele>586.4</ele>
        <time>2019-08-07T12:07:40Z</time>
      </trkpt>
      <trkpt lat="48.6356830" lon="14.2934520">
        <ele>586.4</ele>
        <time>2019-08-07T12:07:41Z</time>
      </trkpt>
      <trkpt lat="48.6356410" lon="14.2935010">
        <ele>586.4</ele>
        <time>2019-08-07T12:07:42Z</time>
      </trkpt>
      <trkpt lat="48.6356020" lon="14.2935540">
        <ele>586.2</ele>
        <time>2019-08-07T12:07:43Z</time>
      </trkpt>
      <trkpt lat="48.6355590" lon="14.2936060">
        <ele>586.4</ele>
        <time>2019-08-07T12:07:44Z</time>
      </trkpt>
      <trkpt lat="48.6355140" lon="14.2936590">
        <ele>586.2</ele>
        <time>2019-08-07T12:07:45Z</time>
      </trkpt>
      <trkpt lat="48.6354750" lon="14.2937140">
        <ele>586.2</ele>
        <time>2019-08-07T12:07:46Z</time>
      </trkpt>
      <trkpt lat="48.6354360" lon="14.2937640">
        <ele>586.0</ele>
        <time>2019-08-07T12:07:47Z</time>
      </trkpt>
      <trkpt lat="48.6353880" lon="14.2938120">
        <ele>586.0</ele>
        <time>2019-08-07T12:07:48Z</time>
      </trkpt>
      <trkpt lat="48.6353400" lon="14.2938610">
        <ele>586.0</ele>
        <time>2019-08-07T12:07:49Z</time>
      </trkpt>
      <trkpt lat="48.6352920" lon="14.2939100">
        <ele>585.8</ele>
        <time>2019-08-07T12:07:50Z</time>
      </trkpt>
      <trkpt lat="48.6352430" lon="14.2939610">
        <ele>585.8</ele>
        <time>2019-08-07T12:07:51Z</time>
      </trkpt>
      <trkpt lat="48.6351950" lon="14.2940140">
        <ele>585.8</ele>
        <time>2019-08-07T12:07:52Z</time>
      </trkpt>
      <trkpt lat="48.6351460" lon="14.2940660">
        <ele>585.8</ele>
        <time>2019-08-07T12:07:53Z</time>
      </trkpt>
      <trkpt lat="48.6350970" lon="14.2941160">
        <ele>585.8</ele>
        <time>2019-08-07T12:07:54Z</time>
      </trkpt>
      <trkpt lat="48.6350470" lon="14.2941660">
        <ele>585.6</ele>
        <time>2019-08-07T12:07:55Z</time>
      </trkpt>
      <trkpt lat="48.6349990" lon="14.2942180">
        <ele>585.6</ele>
        <time>2019-08-07T12:07:56Z</time>
      </trkpt>
      <trkpt lat="48.6349500" lon="14.2942670">
        <ele>585.6</ele>
        <time>2019-08-07T12:07:57Z</time>
      </trkpt>
      <trkpt lat="48.6348990" lon="14.2943170">
        <ele>585.6</ele>
        <time>2019-08-07T12:07:58Z</time>
      </trkpt>
      <trkpt lat="48.6348520" lon="14.2943710">
        <ele>585.6</ele>
        <time>2019-08-07T12:07:59Z</time>
      </trkpt>
      <trkpt lat="48.6348070" lon="14.2944270">
        <ele>585.6</ele>
        <time>2019-08-07T12:08:00Z</time>
      </trkpt>
      <trkpt lat="48.6347600" lon="14.2944790">
        <ele>585.6</ele>
        <time>2019-08-07T12:08:01Z</time>
      </trkpt>
      <trkpt lat="48.6347130" lon="14.2945290">
        <ele>585.6</ele>
        <time>2019-08-07T12:08:02Z</time>
      </trkpt>
      <trkpt lat="48.6346610" lon="14.2945830">
        <ele>585.6</ele>
        <time>2019-08-07T12:08:03Z</time>
      </trkpt>
      <trkpt lat="48.6346130" lon="14.2946350">
        <ele>585.4</ele>
        <time>2019-08-07T12:08:04Z</time>
      </trkpt>
      <trkpt lat="48.6345640" lon="14.2946890">
        <ele>585.4</ele>
        <time>2019-08-07T12:08:05Z</time>
      </trkpt>
      <trkpt lat="48.6345160" lon="14.2947430">
        <ele>585.6</ele>
        <time>2019-08-07T12:08:06Z</time>
      </trkpt>
      <trkpt lat="48.6344680" lon="14.2947970">
        <ele>585.6</ele>
        <time>2019-08-07T12:08:07Z</time>
      </trkpt>
      <trkpt lat="48.6344190" lon="14.2948490">
        <ele>585.6</ele>
        <time>2019-08-07T12:08:08Z</time>
      </trkpt>
      <trkpt lat="48.6343750" lon="14.2949050">
        <ele>585.6</ele>
        <time>2019-08-07T12:08:09Z</time>
      </trkpt>
      <trkpt lat="48.6343300" lon="14.2949580">
        <ele>585.6</ele>
        <time>2019-08-07T12:08:10Z</time>
      </trkpt>
      <trkpt lat="48.6342850" lon="14.2950100">
        <ele>585.6</ele>
        <time>2019-08-07T12:08:11Z</time>
      </trkpt>
      <trkpt lat="48.6342350" lon="14.2950630">
        <ele>585.6</ele>
        <time>2019-08-07T12:08:12Z</time>
      </trkpt>
      <trkpt lat="48.6341870" lon="14.2951180">
        <ele>585.6</ele>
        <time>2019-08-07T12:08:13Z</time>
      </trkpt>
      <trkpt lat="48.6341390" lon="14.2951770">
        <ele>585.6</ele>
        <time>2019-08-07T12:08:14Z</time>
      </trkpt>
      <trkpt lat="48.6340920" lon="14.2952380">
        <ele>585.4</ele>
        <time>2019-08-07T12:08:15Z</time>
      </trkpt>
      <trkpt lat="48.6340440" lon="14.2952990">
        <ele>585.4</ele>
        <time>2019-08-07T12:08:16Z</time>
      </trkpt>
      <trkpt lat="48.6339950" lon="14.2953650">
        <ele>585.2</ele>
        <time>2019-08-07T12:08:17Z</time>
      </trkpt>
      <trkpt lat="48.6339470" lon="14.2954260">
        <ele>585.2</ele>
        <time>2019-08-07T12:08:18Z</time>
      </trkpt>
      <trkpt lat="48.6338940" lon="14.2954900">
        <ele>585.2</ele>
        <time>2019-08-07T12:08:19Z</time>
      </trkpt>
      <trkpt lat="48.6338430" lon="14.2955540">
        <ele>585.2</ele>
        <time>2019-08-07T12:08:20Z</time>
      </trkpt>
      <trkpt lat="48.6337990" lon="14.2956120">
        <ele>585.0</ele>
        <time>2019-08-07T12:08:21Z</time>
      </trkpt>
      <trkpt lat="48.6337410" lon="14.2956850">
        <ele>585.0</ele>
        <time>2019-08-07T12:08:22Z</time>
      </trkpt>
      <trkpt lat="48.6336910" lon="14.2957430">
        <ele>585.0</ele>
        <time>2019-08-07T12:08:23Z</time>
      </trkpt>
      <trkpt lat="48.6336400" lon="14.2958010">
        <ele>585.0</ele>
        <time>2019-08-07T12:08:24Z</time>
      </trkpt>
      <trkpt lat="48.6335920" lon="14.2958550">
        <ele>585.2</ele>
        <time>2019-08-07T12:08:25Z</time>
      </trkpt>
      <trkpt lat="48.6335410" lon="14.2959100">
        <ele>585.2</ele>
        <time>2019-08-07T12:08:26Z</time>
      </trkpt>
      <trkpt lat="48.6334890" lon="14.2959660">
        <ele>585.2</ele>
        <time>2019-08-07T12:08:27Z</time>
      </trkpt>
      <trkpt lat="48.6334350" lon="14.2960200">
        <ele>585.4</ele>
        <time>2019-08-07T12:08:28Z</time>
      </trkpt>
      <trkpt lat="48.6333830" lon="14.2960740">
        <ele>585.4</ele>
        <time>2019-08-07T12:08:29Z</time>
      </trkpt>
      <trkpt lat="48.6333280" lon="14.2961280">
        <ele>585.4</ele>
        <time>2019-08-07T12:08:30Z</time>
      </trkpt>
      <trkpt lat="48.6332710" lon="14.2961800">
        <ele>585.4</ele>
        <time>2019-08-07T12:08:31Z</time>
      </trkpt>
      <trkpt lat="48.6332160" lon="14.2962320">
        <ele>585.2</ele>
        <time>2019-08-07T12:08:32Z</time>
      </trkpt>
      <trkpt lat="48.6331590" lon="14.2962860">
        <ele>585.2</ele>
        <time>2019-08-07T12:08:33Z</time>
      </trkpt>
      <trkpt lat="48.6331030" lon="14.2963470">
        <ele>585.0</ele>
        <time>2019-08-07T12:08:34Z</time>
      </trkpt>
      <trkpt lat="48.6330480" lon="14.2964120">
        <ele>584.6</ele>
        <time>2019-08-07T12:08:35Z</time>
      </trkpt>
      <trkpt lat="48.6329910" lon="14.2964750">
        <ele>584.4</ele>
        <time>2019-08-07T12:08:36Z</time>
      </trkpt>
      <trkpt lat="48.6329320" lon="14.2965520">
        <ele>584.2</ele>
        <time>2019-08-07T12:08:37Z</time>
      </trkpt>
      <trkpt lat="48.6328750" lon="14.2966310">
        <ele>583.8</ele>
        <time>2019-08-07T12:08:38Z</time>
      </trkpt>
      <trkpt lat="48.6328160" lon="14.2967070">
        <ele>583.6</ele>
        <time>2019-08-07T12:08:39Z</time>
      </trkpt>
      <trkpt lat="48.6327570" lon="14.2967910">
        <ele>583.6</ele>
        <time>2019-08-07T12:08:40Z</time>
      </trkpt>
      <trkpt lat="48.6327000" lon="14.2968750">
        <ele>583.4</ele>
        <time>2019-08-07T12:08:41Z</time>
      </trkpt>
      <trkpt lat="48.6326410" lon="14.2969620">
        <ele>583.0</ele>
        <time>2019-08-07T12:08:42Z</time>
      </trkpt>
      <trkpt lat="48.6325810" lon="14.2970520">
        <ele>582.8</ele>
        <time>2019-08-07T12:08:43Z</time>
      </trkpt>
      <trkpt lat="48.6325240" lon="14.2971380">
        <ele>582.8</ele>
        <time>2019-08-07T12:08:44Z</time>
      </trkpt>
      <trkpt lat="48.6324660" lon="14.2972270">
        <ele>582.6</ele>
        <time>2019-08-07T12:08:45Z</time>
      </trkpt>
      <trkpt lat="48.6324100" lon="14.2973100">
        <ele>582.4</ele>
        <time>2019-08-07T12:08:46Z</time>
      </trkpt>
      <trkpt lat="48.6323450" lon="14.2974010">
        <ele>582.4</ele>
        <time>2019-08-07T12:08:47Z</time>
      </trkpt>
      <trkpt lat="48.6322850" lon="14.2974880">
        <ele>582.2</ele>
        <time>2019-08-07T12:08:48Z</time>
      </trkpt>
      <trkpt lat="48.6322250" lon="14.2975760">
        <ele>582.2</ele>
        <time>2019-08-07T12:08:49Z</time>
      </trkpt>
      <trkpt lat="48.6321670" lon="14.2976610">
        <ele>582.0</ele>
        <time>2019-08-07T12:08:50Z</time>
      </trkpt>
      <trkpt lat="48.6321050" lon="14.2977460">
        <ele>582.0</ele>
        <time>2019-08-07T12:08:51Z</time>
      </trkpt>
      <trkpt lat="48.6320400" lon="14.2978190">
        <ele>581.8</ele>
        <time>2019-08-07T12:08:52Z</time>
      </trkpt>
      <trkpt lat="48.6319720" lon="14.2978750">
        <ele>581.8</ele>
        <time>2019-08-07T12:08:53Z</time>
      </trkpt>
      <trkpt lat="48.6318930" lon="14.2979120">
        <ele>581.8</ele>
        <time>2019-08-07T12:08:54Z</time>
      </trkpt>
      <trkpt lat="48.6318130" lon="14.2979340">
        <ele>581.6</ele>
        <time>2019-08-07T12:08:55Z</time>
      </trkpt>
      <trkpt lat="48.6317400" lon="14.2979450">
        <ele>581.6</ele>
        <time>2019-08-07T12:08:56Z</time>
      </trkpt>
      <trkpt lat="48.6316680" lon="14.2979510">
        <ele>581.4</ele>
        <time>2019-08-07T12:08:57Z</time>
      </trkpt>
      <trkpt lat="48.6315960" lon="14.2979570">
        <ele>581.4</ele>
        <time>2019-08-07T12:08:58Z</time>
      </trkpt>
      <trkpt lat="48.6315270" lon="14.2979700">
        <ele>581.4</ele>
        <time>2019-08-07T12:08:59Z</time>
      </trkpt>
      <trkpt lat="48.6314640" lon="14.2979930">
        <ele>581.2</ele>
        <time>2019-08-07T12:09:00Z</time>
      </trkpt>
      <trkpt lat="48.6314010" lon="14.2980300">
        <ele>581.2</ele>
        <time>2019-08-07T12:09:01Z</time>
      </trkpt>
      <trkpt lat="48.6313470" lon="14.2980730">
        <ele>581.2</ele>
        <time>2019-08-07T12:09:02Z</time>
      </trkpt>
      <trkpt lat="48.6312950" lon="14.2981310">
        <ele>581.0</ele>
        <time>2019-08-07T12:09:03Z</time>
      </trkpt>
      <trkpt lat="48.6312470" lon="14.2982020">
        <ele>581.0</ele>
        <time>2019-08-07T12:09:04Z</time>
      </trkpt>
      <trkpt lat="48.6312050" lon="14.2982770">
        <ele>581.0</ele>
        <time>2019-08-07T12:09:05Z</time>
      </trkpt>
      <trkpt lat="48.6311640" lon="14.2983520">
        <ele>581.0</ele>
        <time>2019-08-07T12:09:06Z</time>
      </trkpt>
      <trkpt lat="48.6311220" lon="14.2984260">
        <ele>581.0</ele>
        <time>2019-08-07T12:09:07Z</time>
      </trkpt>
      <trkpt lat="48.6310780" lon="14.2984970">
        <ele>581.0</ele>
        <time>2019-08-07T12:09:08Z</time>
      </trkpt>
      <trkpt lat="48.6310320" lon="14.2985640">
        <ele>581.0</ele>
        <time>2019-08-07T12:09:09Z</time>
      </trkpt>
      <trkpt lat="48.6309840" lon="14.2986260">
        <ele>581.0</ele>
        <time>2019-08-07T12:09:10Z</time>
      </trkpt>
      <trkpt lat="48.6309320" lon="14.2986880">
        <ele>581.0</ele>
        <time>2019-08-07T12:09:11Z</time>
      </trkpt>
      <trkpt lat="48.6308820" lon="14.2987520">
        <ele>581.0</ele>
        <time>2019-08-07T12:09:12Z</time>
      </trkpt>
      <trkpt lat="48.6308310" lon="14.2988120">
        <ele>580.8</ele>
        <time>2019-08-07T12:09:13Z</time>
      </trkpt>
      <trkpt lat="48.6307770" lon="14.2988730">
        <ele>580.8</ele>
        <time>2019-08-07T12:09:14Z</time>
      </trkpt>
      <trkpt lat="48.6307220" lon="14.2989290">
        <ele>580.8</ele>
        <time>2019-08-07T12:09:15Z</time>
      </trkpt>
      <trkpt lat="48.6306670" lon="14.2989910">
        <ele>580.8</ele>
        <time>2019-08-07T12:09:16Z</time>
      </trkpt>
      <trkpt lat="48.6306150" lon="14.2990500">
        <ele>580.8</ele>
        <time>2019-08-07T12:09:17Z</time>
      </trkpt>
      <trkpt lat="48.6305630" lon="14.2991100">
        <ele>580.8</ele>
        <time>2019-08-07T12:09:18Z</time>
      </trkpt>
      <trkpt lat="48.6305120" lon="14.2991710">
        <ele>580.6</ele>
        <time>2019-08-07T12:09:19Z</time>
      </trkpt>
      <trkpt lat="48.6304630" lon="14.2992350">
        <ele>580.6</ele>
        <time>2019-08-07T12:09:20Z</time>
      </trkpt>
      <trkpt lat="48.6304140" lon="14.2992990">
        <ele>580.6</ele>
        <time>2019-08-07T12:09:21Z</time>
      </trkpt>
      <trkpt lat="48.6303690" lon="14.2993570">
        <ele>580.6</ele>
        <time>2019-08-07T12:09:22Z</time>
      </trkpt>
      <trkpt lat="48.6303130" lon="14.2994220">
        <ele>580.6</ele>
        <time>2019-08-07T12:09:23Z</time>
      </trkpt>
      <trkpt lat="48.6302600" lon="14.2994840">
        <ele>580.6</ele>
        <time>2019-08-07T12:09:24Z</time>
      </trkpt>
      <trkpt lat="48.6302090" lon="14.2995420">
        <ele>580.6</ele>
        <time>2019-08-07T12:09:25Z</time>
      </trkpt>
      <trkpt lat="48.6301560" lon="14.2996020">
        <ele>580.6</ele>
        <time>2019-08-07T12:09:26Z</time>
      </trkpt>
      <trkpt lat="48.6301050" lon="14.2996610">
        <ele>580.6</ele>
        <time>2019-08-07T12:09:27Z</time>
      </trkpt>
      <trkpt lat="48.6300520" lon="14.2997210">
        <ele>580.6</ele>
        <time>2019-08-07T12:09:28Z</time>
      </trkpt>
      <trkpt lat="48.6300000" lon="14.2997810">
        <ele>580.6</ele>
        <time>2019-08-07T12:09:29Z</time>
      </trkpt>
      <trkpt lat="48.6299460" lon="14.2998400">
        <ele>580.6</ele>
        <time>2019-08-07T12:09:30Z</time>
      </trkpt>
      <trkpt lat="48.6298930" lon="14.2998990">
        <ele>580.6</ele>
        <time>2019-08-07T12:09:31Z</time>
      </trkpt>
      <trkpt lat="48.6298400" lon="14.2999580">
        <ele>580.6</ele>
        <time>2019-08-07T12:09:32Z</time>
      </trkpt>
      <trkpt lat="48.6297880" lon="14.3000170">
        <ele>580.6</ele>
        <time>2019-08-07T12:09:33Z</time>
      </trkpt>
      <trkpt lat="48.6297370" lon="14.3000770">
        <ele>580.6</ele>
        <time>2019-08-07T12:09:34Z</time>
      </trkpt>
      <trkpt lat="48.6296870" lon="14.3001360">
        <ele>580.6</ele>
        <time>2019-08-07T12:09:35Z</time>
      </trkpt>
      <trkpt lat="48.6296370" lon="14.3001940">
        <ele>580.6</ele>
        <time>2019-08-07T12:09:36Z</time>
      </trkpt>
      <trkpt lat="48.6295850" lon="14.3002510">
        <ele>580.4</ele>
        <time>2019-08-07T12:09:37Z</time>
      </trkpt>
      <trkpt lat="48.6295310" lon="14.3003120">
        <ele>580.4</ele>
        <time>2019-08-07T12:09:38Z</time>
      </trkpt>
      <trkpt lat="48.6294790" lon="14.3003720">
        <ele>580.4</ele>
        <time>2019-08-07T12:09:39Z</time>
      </trkpt>
      <trkpt lat="48.6294260" lon="14.3004340">
        <ele>580.4</ele>
        <time>2019-08-07T12:09:40Z</time>
      </trkpt>
      <trkpt lat="48.6293740" lon="14.3004960">
        <ele>580.4</ele>
        <time>2019-08-07T12:09:41Z</time>
      </trkpt>
      <trkpt lat="48.6293240" lon="14.3005560">
        <ele>580.4</ele>
        <time>2019-08-07T12:09:42Z</time>
      </trkpt>
      <trkpt lat="48.6292790" lon="14.3006120">
        <ele>580.2</ele>
        <time>2019-08-07T12:09:43Z</time>
      </trkpt>
      <trkpt lat="48.6292230" lon="14.3006800">
        <ele>580.2</ele>
        <time>2019-08-07T12:09:44Z</time>
      </trkpt>
      <trkpt lat="48.6291700" lon="14.3007440">
        <ele>580.2</ele>
        <time>2019-08-07T12:09:45Z</time>
      </trkpt>
      <trkpt lat="48.6291180" lon="14.3008050">
        <ele>580.0</ele>
        <time>2019-08-07T12:09:46Z</time>
      </trkpt>
      <trkpt lat="48.6290660" lon="14.3008660">
        <ele>580.0</ele>
        <time>2019-08-07T12:09:47Z</time>
      </trkpt>
      <trkpt lat="48.6290130" lon="14.3009290">
        <ele>579.8</ele>
        <time>2019-08-07T12:09:48Z</time>
      </trkpt>
      <trkpt lat="48.6289620" lon="14.3009930">
        <ele>579.8</ele>
        <time>2019-08-07T12:09:49Z</time>
      </trkpt>
      <trkpt lat="48.6289050" lon="14.3010590">
        <ele>579.8</ele>
        <time>2019-08-07T12:09:50Z</time>
      </trkpt>
      <trkpt lat="48.6288520" lon="14.3011200">
        <ele>579.8</ele>
        <time>2019-08-07T12:09:51Z</time>
      </trkpt>
      <trkpt lat="48.6287990" lon="14.3011790">
        <ele>579.8</ele>
        <time>2019-08-07T12:09:52Z</time>
      </trkpt>
      <trkpt lat="48.6287450" lon="14.3012390">
        <ele>579.6</ele>
        <time>2019-08-07T12:09:53Z</time>
      </trkpt>
      <trkpt lat="48.6286920" lon="14.3012990">
        <ele>579.6</ele>
        <time>2019-08-07T12:09:54Z</time>
      </trkpt>
      <trkpt lat="48.6286400" lon="14.3013640">
        <ele>579.4</ele>
        <time>2019-08-07T12:09:55Z</time>
      </trkpt>
      <trkpt lat="48.6285890" lon="14.3014250">
        <ele>579.6</ele>
        <time>2019-08-07T12:09:56Z</time>
      </trkpt>
      <trkpt lat="48.6285400" lon="14.3014830">
        <ele>579.4</ele>
        <time>2019-08-07T12:09:57Z</time>
      </trkpt>
      <trkpt lat="48.6284900" lon="14.3015440">
        <ele>579.4</ele>
        <time>2019-08-07T12:09:58Z</time>
      </trkpt>
      <trkpt lat="48.6284390" lon="14.3016040">
        <ele>579.4</ele>
        <time>2019-08-07T12:09:59Z</time>
      </trkpt>
      <trkpt lat="48.6283880" lon="14.3016620">
        <ele>579.4</ele>
        <time>2019-08-07T12:10:00Z</time>
      </trkpt>
      <trkpt lat="48.6283370" lon="14.3017200">
        <ele>579.4</ele>
        <time>2019-08-07T12:10:01Z</time>
      </trkpt>
      <trkpt lat="48.6282870" lon="14.3017780">
        <ele>579.4</ele>
        <time>2019-08-07T12:10:02Z</time>
      </trkpt>
      <trkpt lat="48.6282370" lon="14.3018380">
        <ele>579.4</ele>
        <time>2019-08-07T12:10:03Z</time>
      </trkpt>
      <trkpt lat="48.6281850" lon="14.3018990">
        <ele>579.4</ele>
        <time>2019-08-07T12:10:04Z</time>
      </trkpt>
      <trkpt lat="48.6281370" lon="14.3019590">
        <ele>579.4</ele>
        <time>2019-08-07T12:10:05Z</time>
      </trkpt>
      <trkpt lat="48.6280890" lon="14.3020220">
        <ele>579.4</ele>
        <time>2019-08-07T12:10:06Z</time>
      </trkpt>
      <trkpt lat="48.6280410" lon="14.3020850">
        <ele>579.4</ele>
        <time>2019-08-07T12:10:07Z</time>
      </trkpt>
      <trkpt lat="48.6279940" lon="14.3021520">
        <ele>579.4</ele>
        <time>2019-08-07T12:10:08Z</time>
      </trkpt>
      <trkpt lat="48.6279490" lon="14.3022200">
        <ele>579.4</ele>
        <time>2019-08-07T12:10:09Z</time>
      </trkpt>
      <trkpt lat="48.6279050" lon="14.3022880">
        <ele>579.6</ele>
        <time>2019-08-07T12:10:10Z</time>
      </trkpt>
      <trkpt lat="48.6278660" lon="14.3023500">
        <ele>579.6</ele>
        <time>2019-08-07T12:10:11Z</time>
      </trkpt>
      <trkpt lat="48.6278200" lon="14.3024260">
        <ele>579.6</ele>
        <time>2019-08-07T12:10:12Z</time>
      </trkpt>
      <trkpt lat="48.6277770" lon="14.3025060">
        <ele>579.6</ele>
        <time>2019-08-07T12:10:13Z</time>
      </trkpt>
      <trkpt lat="48.6277380" lon="14.3025810">
        <ele>579.4</ele>
        <time>2019-08-07T12:10:14Z</time>
      </trkpt>
      <trkpt lat="48.6277050" lon="14.3026560">
        <ele>579.4</ele>
        <time>2019-08-07T12:10:15Z</time>
      </trkpt>
      <trkpt lat="48.6276720" lon="14.3027310">
        <ele>579.6</ele>
        <time>2019-08-07T12:10:16Z</time>
      </trkpt>
      <trkpt lat="48.6276360" lon="14.3028070">
        <ele>579.6</ele>
        <time>2019-08-07T12:10:17Z</time>
      </trkpt>
      <trkpt lat="48.6276030" lon="14.3028810">
        <ele>579.4</ele>
        <time>2019-08-07T12:10:18Z</time>
      </trkpt>
      <trkpt lat="48.6275720" lon="14.3029580">
        <ele>579.4</ele>
        <time>2019-08-07T12:10:19Z</time>
      </trkpt>
      <trkpt lat="48.6275420" lon="14.3030370">
        <ele>579.4</ele>
        <time>2019-08-07T12:10:20Z</time>
      </trkpt>
      <trkpt lat="48.6275130" lon="14.3031130">
        <ele>579.4</ele>
        <time>2019-08-07T12:10:21Z</time>
      </trkpt>
      <trkpt lat="48.6274820" lon="14.3031930">
        <ele>579.2</ele>
        <time>2019-08-07T12:10:22Z</time>
      </trkpt>
      <trkpt lat="48.6274520" lon="14.3032660">
        <ele>579.2</ele>
        <time>2019-08-07T12:10:23Z</time>
      </trkpt>
      <trkpt lat="48.6274210" lon="14.3033400">
        <ele>579.2</ele>
        <time>2019-08-07T12:10:24Z</time>
      </trkpt>
      <trkpt lat="48.6273910" lon="14.3034160">
        <ele>579.0</ele>
        <time>2019-08-07T12:10:25Z</time>
      </trkpt>
      <trkpt lat="48.6273600" lon="14.3034920">
        <ele>579.0</ele>
        <time>2019-08-07T12:10:26Z</time>
      </trkpt>
      <trkpt lat="48.6273310" lon="14.3035680">
        <ele>578.8</ele>
        <time>2019-08-07T12:10:27Z</time>
      </trkpt>
      <trkpt lat="48.6273020" lon="14.3036440">
        <ele>578.8</ele>
        <time>2019-08-07T12:10:28Z</time>
      </trkpt>
      <trkpt lat="48.6272740" lon="14.3037190">
        <ele>578.8</ele>
        <time>2019-08-07T12:10:29Z</time>
      </trkpt>
      <trkpt lat="48.6272470" lon="14.3037930">
        <ele>578.8</ele>
        <time>2019-08-07T12:10:30Z</time>
      </trkpt>
      <trkpt lat="48.6272190" lon="14.3038650">
        <ele>578.8</ele>
        <time>2019-08-07T12:10:31Z</time>
      </trkpt>
      <trkpt lat="48.6271900" lon="14.3039350">
        <ele>578.6</ele>
        <time>2019-08-07T12:10:32Z</time>
      </trkpt>
      <trkpt lat="48.6271620" lon="14.3040030">
        <ele>578.6</ele>
        <time>2019-08-07T12:10:33Z</time>
      </trkpt>
      <trkpt lat="48.6271330" lon="14.3040730">
        <ele>578.4</ele>
        <time>2019-08-07T12:10:34Z</time>
      </trkpt>
      <trkpt lat="48.6271040" lon="14.3041410">
        <ele>578.4</ele>
        <time>2019-08-07T12:10:35Z</time>
      </trkpt>
      <trkpt lat="48.6270730" lon="14.3042080">
        <ele>578.4</ele>
        <time>2019-08-07T12:10:36Z</time>
      </trkpt>
      <trkpt lat="48.6270470" lon="14.3042670">
        <ele>578.2</ele>
        <time>2019-08-07T12:10:37Z</time>
      </trkpt>
      <trkpt lat="48.6270150" lon="14.3043300">
        <ele>578.2</ele>
        <time>2019-08-07T12:10:38Z</time>
      </trkpt>
      <trkpt lat="48.6269810" lon="14.3044000">
        <ele>578.2</ele>
        <time>2019-08-07T12:10:39Z</time>
      </trkpt>
      <trkpt lat="48.6269460" lon="14.3044630">
        <ele>578.2</ele>
        <time>2019-08-07T12:10:40Z</time>
      </trkpt>
      <trkpt lat="48.6269130" lon="14.3045250">
        <ele>578.2</ele>
        <time>2019-08-07T12:10:41Z</time>
      </trkpt>
      <trkpt lat="48.6268800" lon="14.3045820">
        <ele>578.2</ele>
        <time>2019-08-07T12:10:42Z</time>
      </trkpt>
      <trkpt lat="48.6268430" lon="14.3046420">
        <ele>578.0</ele>
        <time>2019-08-07T12:10:43Z</time>
      </trkpt>
      <trkpt lat="48.6268060" lon="14.3046960">
        <ele>578.0</ele>
        <time>2019-08-07T12:10:44Z</time>
      </trkpt>
      <trkpt lat="48.6267660" lon="14.3047490">
        <ele>578.0</ele>
        <time>2019-08-07T12:10:45Z</time>
      </trkpt>
      <trkpt lat="48.6267260" lon="14.3048010">
        <ele>577.8</ele>
        <time>2019-08-07T12:10:46Z</time>
      </trkpt>
      <trkpt lat="48.6266880" lon="14.3048530">
        <ele>577.8</ele>
        <time>2019-08-07T12:10:47Z</time>
      </trkpt>
      <trkpt lat="48.6266490" lon="14.3049040">
        <ele>577.6</ele>
        <time>2019-08-07T12:10:48Z</time>
      </trkpt>
      <trkpt lat="48.6266060" lon="14.3049530">
        <ele>577.6</ele>
        <time>2019-08-07T12:10:49Z</time>
      </trkpt>
      <trkpt lat="48.6265590" lon="14.3050010">
        <ele>577.4</ele>
        <time>2019-08-07T12:10:50Z</time>
      </trkpt>
      <trkpt lat="48.6265130" lon="14.3050470">
        <ele>577.4</ele>
        <time>2019-08-07T12:10:51Z</time>
      </trkpt>
      <trkpt lat="48.6264640" lon="14.3050950">
        <ele>577.4</ele>
        <time>2019-08-07T12:10:52Z</time>
      </trkpt>
      <trkpt lat="48.6264150" lon="14.3051410">
        <ele>577.6</ele>
        <time>2019-08-07T12:10:53Z</time>
      </trkpt>
      <trkpt lat="48.6263640" lon="14.3051880">
        <ele>577.6</ele>
        <time>2019-08-07T12:10:54Z</time>
      </trkpt>
      <trkpt lat="48.6263160" lon="14.3052380">
        <ele>577.6</ele>
        <time>2019-08-07T12:10:55Z</time>
      </trkpt>
      <trkpt lat="48.6262660" lon="14.3052870">
        <ele>577.4</ele>
        <time>2019-08-07T12:10:56Z</time>
      </trkpt>
      <trkpt lat="48.6262150" lon="14.3053360">
        <ele>577.4</ele>
        <time>2019-08-07T12:10:57Z</time>
      </trkpt>
      <trkpt lat="48.6261640" lon="14.3053880">
        <ele>577.2</ele>
        <time>2019-08-07T12:10:58Z</time>
      </trkpt>
      <trkpt lat="48.6261100" lon="14.3054420">
        <ele>577.0</ele>
        <time>2019-08-07T12:10:59Z</time>
      </trkpt>
      <trkpt lat="48.6260550" lon="14.3054990">
        <ele>577.0</ele>
        <time>2019-08-07T12:11:00Z</time>
      </trkpt>
      <trkpt lat="48.6260020" lon="14.3055580">
        <ele>576.8</ele>
        <time>2019-08-07T12:11:01Z</time>
      </trkpt>
      <trkpt lat="48.6259500" lon="14.3056180">
        <ele>576.4</ele>
        <time>2019-08-07T12:11:02Z</time>
      </trkpt>
      <trkpt lat="48.6258980" lon="14.3056770">
        <ele>576.0</ele>
        <time>2019-08-07T12:11:03Z</time>
      </trkpt>
      <trkpt lat="48.6258480" lon="14.3057370">
        <ele>575.8</ele>
        <time>2019-08-07T12:11:04Z</time>
      </trkpt>
      <trkpt lat="48.6258010" lon="14.3057940">
        <ele>575.4</ele>
        <time>2019-08-07T12:11:05Z</time>
      </trkpt>
      <trkpt lat="48.6257530" lon="14.3058540">
        <ele>575.2</ele>
        <time>2019-08-07T12:11:06Z</time>
      </trkpt>
      <trkpt lat="48.6257080" lon="14.3059100">
        <ele>574.8</ele>
        <time>2019-08-07T12:11:07Z</time>
      </trkpt>
      <trkpt lat="48.6256650" lon="14.3059620">
        <ele>574.6</ele>
        <time>2019-08-07T12:11:08Z</time>
      </trkpt>
      <trkpt lat="48.6256170" lon="14.3060140">
        <ele>574.4</ele>
        <time>2019-08-07T12:11:09Z</time>
      </trkpt>
      <trkpt lat="48.6255720" lon="14.3060680">
        <ele>574.2</ele>
        <time>2019-08-07T12:11:10Z</time>
      </trkpt>
      <trkpt lat="48.6255310" lon="14.3061190">
        <ele>574.2</ele>
        <time>2019-08-07T12:11:11Z</time>
      </trkpt>
      <trkpt lat="48.6254890" lon="14.3061710">
        <ele>574.0</ele>
        <time>2019-08-07T12:11:12Z</time>
      </trkpt>
      <trkpt lat="48.6254460" lon="14.3062240">
        <ele>574.0</ele>
        <time>2019-08-07T12:11:13Z</time>
      </trkpt>
      <trkpt lat="48.6254050" lon="14.3062750">
        <ele>574.0</ele>
        <time>2019-08-07T12:11:14Z</time>
      </trkpt>
      <trkpt lat="48.6253630" lon="14.3063290">
        <ele>573.8</ele>
        <time>2019-08-07T12:11:15Z</time>
      </trkpt>
      <trkpt lat="48.6253230" lon="14.3063770">
        <ele>573.8</ele>
        <time>2019-08-07T12:11:16Z</time>
      </trkpt>
      <trkpt lat="48.6252810" lon="14.3064290">
        <ele>573.8</ele>
        <time>2019-08-07T12:11:17Z</time>
      </trkpt>
      <trkpt lat="48.6252380" lon="14.3064820">
        <ele>573.6</ele>
        <time>2019-08-07T12:11:18Z</time>
      </trkpt>
      <trkpt lat="48.6251940" lon="14.3065310">
        <ele>573.6</ele>
        <time>2019-08-07T12:11:19Z</time>
      </trkpt>
      <trkpt lat="48.6251500" lon="14.3065790">
        <ele>573.6</ele>
        <time>2019-08-07T12:11:20Z</time>
      </trkpt>
      <trkpt lat="48.6251050" lon="14.3066270">
        <ele>573.6</ele>
        <time>2019-08-07T12:11:21Z</time>
      </trkpt>
      <trkpt lat="48.6250620" lon="14.3066750">
        <ele>573.4</ele>
        <time>2019-08-07T12:11:22Z</time>
      </trkpt>
      <trkpt lat="48.6250210" lon="14.3067250">
        <ele>573.4</ele>
        <time>2019-08-07T12:11:23Z</time>
      </trkpt>
      <trkpt lat="48.6249810" lon="14.3067780">
        <ele>573.4</ele>
        <time>2019-08-07T12:11:24Z</time>
      </trkpt>
      <trkpt lat="48.6249380" lon="14.3068290">
        <ele>573.4</ele>
        <time>2019-08-07T12:11:25Z</time>
      </trkpt>
      <trkpt lat="48.6248970" lon="14.3068790">
        <ele>573.2</ele>
        <time>2019-08-07T12:11:26Z</time>
      </trkpt>
      <trkpt lat="48.6248540" lon="14.3069280">
        <ele>573.2</ele>
        <time>2019-08-07T12:11:27Z</time>
      </trkpt>
      <trkpt lat="48.6248110" lon="14.3069740">
        <ele>573.2</ele>
        <time>2019-08-07T12:11:28Z</time>
      </trkpt>
      <trkpt lat="48.6247610" lon="14.3070260">
        <ele>573.2</ele>
        <time>2019-08-07T12:11:29Z</time>
      </trkpt>
      <trkpt lat="48.6247140" lon="14.3070730">
        <ele>573.2</ele>
        <time>2019-08-07T12:11:30Z</time>
      </trkpt>
      <trkpt lat="48.6246680" lon="14.3071220">
        <ele>573.2</ele>
        <time>2019-08-07T12:11:31Z</time>
      </trkpt>
      <trkpt lat="48.6246240" lon="14.3071710">
        <ele>573.0</ele>
        <time>2019-08-07T12:11:32Z</time>
      </trkpt>
      <trkpt lat="48.6245820" lon="14.3072170">
        <ele>573.0</ele>
        <time>2019-08-07T12:11:33Z</time>
      </trkpt>
      <trkpt lat="48.6245350" lon="14.3072620">
        <ele>573.0</ele>
        <time>2019-08-07T12:11:34Z</time>
      </trkpt>
      <trkpt lat="48.6244920" lon="14.3073020">
        <ele>573.0</ele>
        <time>2019-08-07T12:11:35Z</time>
      </trkpt>
      <trkpt lat="48.6244480" lon="14.3073400">
        <ele>573.0</ele>
        <time>2019-08-07T12:11:36Z</time>
      </trkpt>
      <trkpt lat="48.6244060" lon="14.3073810">
        <ele>573.0</ele>
        <time>2019-08-07T12:11:37Z</time>
      </trkpt>
      <trkpt lat="48.6243660" lon="14.3074200">
        <ele>573.0</ele>
        <time>2019-08-07T12:11:38Z</time>
      </trkpt>
      <trkpt lat="48.6243250" lon="14.3074630">
        <ele>573.0</ele>
        <time>2019-08-07T12:11:39Z</time>
      </trkpt>
      <trkpt lat="48.6242840" lon="14.3075040">
        <ele>573.0</ele>
        <time>2019-08-07T12:11:40Z</time>
      </trkpt>
      <trkpt lat="48.6242410" lon="14.3075450">
        <ele>573.0</ele>
        <time>2019-08-07T12:11:41Z</time>
      </trkpt>
      <trkpt lat="48.6241990" lon="14.3075880">
        <ele>573.0</ele>
        <time>2019-08-07T12:11:42Z</time>
      </trkpt>
      <trkpt lat="48.6241570" lon="14.3076280">
        <ele>573.0</ele>
        <time>2019-08-07T12:11:43Z</time>
      </trkpt>
      <trkpt lat="48.6241170" lon="14.3076700">
        <ele>573.0</ele>
        <time>2019-08-07T12:11:44Z</time>
      </trkpt>
      <trkpt lat="48.6240770" lon="14.3077140">
        <ele>572.8</ele>
        <time>2019-08-07T12:11:45Z</time>
      </trkpt>
      <trkpt lat="48.6240380" lon="14.3077570">
        <ele>572.8</ele>
        <time>2019-08-07T12:11:46Z</time>
      </trkpt>
      <trkpt lat="48.6239990" lon="14.3077990">
        <ele>572.8</ele>
        <time>2019-08-07T12:11:47Z</time>
      </trkpt>
      <trkpt lat="48.6239590" lon="14.3078390">
        <ele>572.8</ele>
        <time>2019-08-07T12:11:48Z</time>
      </trkpt>
      <trkpt lat="48.6239180" lon="14.3078780">
        <ele>572.8</ele>
        <time>2019-08-07T12:11:49Z</time>
      </trkpt>
      <trkpt lat="48.6238780" lon="14.3079180">
        <ele>572.8</ele>
        <time>2019-08-07T12:11:50Z</time>
      </trkpt>
      <trkpt lat="48.6238390" lon="14.3079580">
        <ele>572.8</ele>
        <time>2019-08-07T12:11:51Z</time>
      </trkpt>
      <trkpt lat="48.6238020" lon="14.3079950">
        <ele>572.8</ele>
        <time>2019-08-07T12:11:52Z</time>
      </trkpt>
      <trkpt lat="48.6237650" lon="14.3080340">
        <ele>572.8</ele>
        <time>2019-08-07T12:11:53Z</time>
      </trkpt>
      <trkpt lat="48.6237280" lon="14.3080750">
        <ele>572.8</ele>
        <time>2019-08-07T12:11:54Z</time>
      </trkpt>
      <trkpt lat="48.6236910" lon="14.3081160">
        <ele>572.6</ele>
        <time>2019-08-07T12:11:55Z</time>
      </trkpt>
      <trkpt lat="48.6236580" lon="14.3081510">
        <ele>572.6</ele>
        <time>2019-08-07T12:11:56Z</time>
      </trkpt>
      <trkpt lat="48.6236230" lon="14.3081850">
        <ele>572.6</ele>
        <time>2019-08-07T12:11:57Z</time>
      </trkpt>
      <trkpt lat="48.6235900" lon="14.3082150">
        <ele>572.4</ele>
        <time>2019-08-07T12:11:58Z</time>
      </trkpt>
      <trkpt lat="48.6235580" lon="14.3082450">
        <ele>572.4</ele>
        <time>2019-08-07T12:11:59Z</time>
      </trkpt>
      <trkpt lat="48.6235270" lon="14.3082720">
        <ele>572.2</ele>
        <time>2019-08-07T12:12:00Z</time>
      </trkpt>
      <trkpt lat="48.6234940" lon="14.3083010">
        <ele>572.2</ele>
        <time>2019-08-07T12:12:01Z</time>
      </trkpt>
      <trkpt lat="48.6234680" lon="14.3083230">
        <ele>572.2</ele>
        <time>2019-08-07T12:12:02Z</time>
      </trkpt>
      <trkpt lat="48.6234430" lon="14.3083430">
        <ele>572.0</ele>
        <time>2019-08-07T12:12:03Z</time>
      </trkpt>
      <trkpt lat="48.6234180" lon="14.3083630">
        <ele>572.0</ele>
        <time>2019-08-07T12:12:04Z</time>
      </trkpt>
      <trkpt lat="48.6233960" lon="14.3083890">
        <ele>572.0</ele>
        <time>2019-08-07T12:12:05Z</time>
      </trkpt>
      <trkpt lat="48.6233760" lon="14.3084200">
        <ele>571.8</ele>
        <time>2019-08-07T12:12:06Z</time>
      </trkpt>
      <trkpt lat="48.6233560" lon="14.3084610">
        <ele>571.8</ele>
        <time>2019-08-07T12:12:07Z</time>
      </trkpt>
      <trkpt lat="48.6233380" lon="14.3085050">
        <ele>571.8</ele>
        <time>2019-08-07T12:12:08Z</time>
      </trkpt>
      <trkpt lat="48.6233210" lon="14.3085540">
        <ele>571.8</ele>
        <time>2019-08-07T12:12:09Z</time>
      </trkpt>
      <trkpt lat="48.6233080" lon="14.3086030">
        <ele>571.8</ele>
        <time>2019-08-07T12:12:10Z</time>
      </trkpt>
      <trkpt lat="48.6232970" lon="14.3086560">
        <ele>571.8</ele>
        <time>2019-08-07T12:12:11Z</time>
      </trkpt>
      <trkpt lat="48.6232870" lon="14.3087080">
        <ele>571.8</ele>
        <time>2019-08-07T12:12:12Z</time>
      </trkpt>
      <trkpt lat="48.6232780" lon="14.3087620">
        <ele>571.8</ele>
        <time>2019-08-07T12:12:13Z</time>
      </trkpt>
      <trkpt lat="48.6232670" lon="14.3088130">
        <ele>571.8</ele>
        <time>2019-08-07T12:12:14Z</time>
      </trkpt>
      <trkpt lat="48.6232520" lon="14.3088680">
        <ele>571.8</ele>
        <time>2019-08-07T12:12:15Z</time>
      </trkpt>
      <trkpt lat="48.6232370" lon="14.3089140">
        <ele>571.8</ele>
        <time>2019-08-07T12:12:16Z</time>
      </trkpt>
      <trkpt lat="48.6232170" lon="14.3089550">
        <ele>571.8</ele>
        <time>2019-08-07T12:12:17Z</time>
      </trkpt>
      <trkpt lat="48.6231950" lon="14.3089870">
        <ele>571.8</ele>
        <time>2019-08-07T12:12:18Z</time>
      </trkpt>
      <trkpt lat="48.6231680" lon="14.3090110">
        <ele>571.8</ele>
        <time>2019-08-07T12:12:19Z</time>
      </trkpt>
      <trkpt lat="48.6231410" lon="14.3090260">
        <ele>571.8</ele>
        <time>2019-08-07T12:12:20Z</time>
      </trkpt>
      <trkpt lat="48.6231030" lon="14.3090200">
        <ele>571.8</ele>
        <time>2019-08-07T12:12:21Z</time>
      </trkpt>
      <trkpt lat="48.6230690" lon="14.3089990">
        <ele>571.6</ele>
        <time>2019-08-07T12:12:22Z</time>
      </trkpt>
      <trkpt lat="48.6230330" lon="14.3089640">
        <ele>571.6</ele>
        <time>2019-08-07T12:12:23Z</time>
      </trkpt>
      <trkpt lat="48.6229970" lon="14.3089220">
        <ele>571.4</ele>
        <time>2019-08-07T12:12:24Z</time>
      </trkpt>
      <trkpt lat="48.6229620" lon="14.3088770">
        <ele>571.4</ele>
        <time>2019-08-07T12:12:25Z</time>
      </trkpt>
      <trkpt lat="48.6229240" lon="14.3088360">
        <ele>571.4</ele>
        <time>2019-08-07T12:12:26Z</time>
      </trkpt>
      <trkpt lat="48.6228800" lon="14.3088010">
        <ele>571.2</ele>
        <time>2019-08-07T12:12:27Z</time>
      </trkpt>
      <trkpt lat="48.6228380" lon="14.3087680">
        <ele>571.0</ele>
        <time>2019-08-07T12:12:28Z</time>
      </trkpt>
      <trkpt lat="48.6227970" lon="14.3087290">
        <ele>570.8</ele>
        <time>2019-08-07T12:12:29Z</time>
      </trkpt>
      <trkpt lat="48.6227570" lon="14.3086810">
        <ele>570.8</ele>
        <time>2019-08-07T12:12:30Z</time>
      </trkpt>
      <trkpt lat="48.6227160" lon="14.3086300">
        <ele>570.6</ele>
        <time>2019-08-07T12:12:31Z</time>
      </trkpt>
      <trkpt lat="48.6226780" lon="14.3085790">
        <ele>570.4</ele>
        <time>2019-08-07T12:12:32Z</time>
      </trkpt>
      <trkpt lat="48.6226390" lon="14.3085300">
        <ele>570.4</ele>
        <time>2019-08-07T12:12:33Z</time>
      </trkpt>
      <trkpt lat="48.6225990" lon="14.3084830">
        <ele>570.2</ele>
        <time>2019-08-07T12:12:34Z</time>
      </trkpt>
      <trkpt lat="48.6225620" lon="14.3084390">
        <ele>570.2</ele>
        <time>2019-08-07T12:12:35Z</time>
      </trkpt>
      <trkpt lat="48.6225260" lon="14.3083920">
        <ele>570.0</ele>
        <time>2019-08-07T12:12:36Z</time>
      </trkpt>
      <trkpt lat="48.6224910" lon="14.3083460">
        <ele>570.0</ele>
        <time>2019-08-07T12:12:37Z</time>
      </trkpt>
      <trkpt lat="48.6224530" lon="14.3083010">
        <ele>570.0</ele>
        <time>2019-08-07T12:12:38Z</time>
      </trkpt>
      <trkpt lat="48.6224110" lon="14.3082620">
        <ele>570.0</ele>
        <time>2019-08-07T12:12:39Z</time>
      </trkpt>
      <trkpt lat="48.6223680" lon="14.3082260">
        <ele>569.8</ele>
        <time>2019-08-07T12:12:40Z</time>
      </trkpt>
      <trkpt lat="48.6223300" lon="14.3081970">
        <ele>569.8</ele>
        <time>2019-08-07T12:12:41Z</time>
      </trkpt>
      <trkpt lat="48.6222930" lon="14.3081750">
        <ele>569.6</ele>
        <time>2019-08-07T12:12:42Z</time>
      </trkpt>
      <trkpt lat="48.6222640" lon="14.3081580">
        <ele>569.6</ele>
        <time>2019-08-07T12:12:43Z</time>
      </trkpt>
      <trkpt lat="48.6222340" lon="14.3081440">
        <ele>569.4</ele>
        <time>2019-08-07T12:12:44Z</time>
      </trkpt>
      <trkpt lat="48.6222100" lon="14.3081300">
        <ele>569.4</ele>
        <time>2019-08-07T12:12:45Z</time>
      </trkpt>
      <trkpt lat="48.6221890" lon="14.3081200">
        <ele>569.2</ele>
        <time>2019-08-07T12:12:46Z</time>
      </trkpt>
      <trkpt lat="48.6221690" lon="14.3081100">
        <ele>569.2</ele>
        <time>2019-08-07T12:12:47Z</time>
      </trkpt>
      <trkpt lat="48.6221530" lon="14.3080960">
        <ele>569.0</ele>
        <time>2019-08-07T12:12:48Z</time>
      </trkpt>
      <trkpt lat="48.6221380" lon="14.3080780">
        <ele>569.0</ele>
        <time>2019-08-07T12:12:49Z</time>
      </trkpt>
      <trkpt lat="48.6221250" lon="14.3080550">
        <ele>568.8</ele>
        <time>2019-08-07T12:12:50Z</time>
      </trkpt>
      <trkpt lat="48.6221160" lon="14.3080220">
        <ele>568.8</ele>
        <time>2019-08-07T12:12:51Z</time>
      </trkpt>
      <trkpt lat="48.6221130" lon="14.3079840">
        <ele>568.8</ele>
        <time>2019-08-07T12:12:52Z</time>
      </trkpt>
      <trkpt lat="48.6221080" lon="14.3079440">
        <ele>568.8</ele>
        <time>2019-08-07T12:12:53Z</time>
      </trkpt>
      <trkpt lat="48.6221000" lon="14.3079060">
        <ele>568.8</ele>
        <time>2019-08-07T12:12:54Z</time>
      </trkpt>
      <trkpt lat="48.6220900" lon="14.3078750">
        <ele>568.8</ele>
        <time>2019-08-07T12:12:55Z</time>
      </trkpt>
      <trkpt lat="48.6220800" lon="14.3078430">
        <ele>568.8</ele>
        <time>2019-08-07T12:12:56Z</time>
      </trkpt>
      <trkpt lat="48.6220690" lon="14.3078130">
        <ele>568.8</ele>
        <time>2019-08-07T12:12:57Z</time>
      </trkpt>
      <trkpt lat="48.6220630" lon="14.3077800">
        <ele>568.8</ele>
        <time>2019-08-07T12:12:58Z</time>
      </trkpt>
      <trkpt lat="48.6220590" lon="14.3077470">
        <ele>569.0</ele>
        <time>2019-08-07T12:12:59Z</time>
      </trkpt>
      <trkpt lat="48.6220540" lon="14.3077130">
        <ele>569.0</ele>
        <time>2019-08-07T12:13:00Z</time>
      </trkpt>
      <trkpt lat="48.6220490" lon="14.3076780">
        <ele>569.0</ele>
        <time>2019-08-07T12:13:01Z</time>
      </trkpt>
      <trkpt lat="48.6220440" lon="14.3076460">
        <ele>569.0</ele>
        <time>2019-08-07T12:13:02Z</time>
      </trkpt>
      <trkpt lat="48.6220390" lon="14.3076110">
        <ele>569.0</ele>
        <time>2019-08-07T12:13:03Z</time>
      </trkpt>
      <trkpt lat="48.6220340" lon="14.3075790">
        <ele>569.2</ele>
        <time>2019-08-07T12:13:04Z</time>
      </trkpt>
      <trkpt lat="48.6220290" lon="14.3075440">
        <ele>569.2</ele>
        <time>2019-08-07T12:13:05Z</time>
      </trkpt>
      <trkpt lat="48.6220240" lon="14.3075120">
        <ele>569.2</ele>
        <time>2019-08-07T12:13:06Z</time>
      </trkpt>
      <trkpt lat="48.6220200" lon="14.3074770">
        <ele>569.2</ele>
        <time>2019-08-07T12:13:07Z</time>
      </trkpt>
      <trkpt lat="48.6220160" lon="14.3074460">
        <ele>569.2</ele>
        <time>2019-08-07T12:13:08Z</time>
      </trkpt>
      <trkpt lat="48.6220090" lon="14.3074120">
        <ele>569.2</ele>
        <time>2019-08-07T12:13:09Z</time>
      </trkpt>
      <trkpt lat="48.6220040" lon="14.3073790">
        <ele>569.4</ele>
        <time>2019-08-07T12:13:10Z</time>
      </trkpt>
      <trkpt lat="48.6219990" lon="14.3073480">
        <ele>569.4</ele>
        <time>2019-08-07T12:13:11Z</time>
      </trkpt>
      <trkpt lat="48.6219910" lon="14.3073140">
        <ele>569.4</ele>
        <time>2019-08-07T12:13:12Z</time>
      </trkpt>
      <trkpt lat="48.6219860" lon="14.3072850">
        <ele>569.4</ele>
        <time>2019-08-07T12:13:13Z</time>
      </trkpt>
      <trkpt lat="48.6219830" lon="14.3072480">
        <ele>569.4</ele>
        <time>2019-08-07T12:13:14Z</time>
      </trkpt>
      <trkpt lat="48.6219790" lon="14.3072190">
        <ele>569.6</ele>
        <time>2019-08-07T12:13:15Z</time>
      </trkpt>
      <trkpt lat="48.6219760" lon="14.3071930">
        <ele>569.6</ele>
        <time>2019-08-07T12:13:16Z</time>
      </trkpt>
      <trkpt lat="48.6219710" lon="14.3071680">
        <ele>569.6</ele>
        <time>2019-08-07T12:13:17Z</time>
      </trkpt>
      <trkpt lat="48.6219700" lon="14.3071480">
        <ele>569.6</ele>
        <time>2019-08-07T12:13:18Z</time>
      </trkpt>
      <trkpt lat="48.6219680" lon="14.3071350">
        <ele>569.8</ele>
        <time>2019-08-07T12:13:19Z</time>
      </trkpt>
      <trkpt lat="48.6219650" lon="14.3071330">
        <ele>569.8</ele>
        <time>2019-08-07T12:13:20Z</time>
      </trkpt>
      <trkpt lat="48.6219630" lon="14.3071320">
        <ele>569.8</ele>
        <time>2019-08-07T12:13:21Z</time>
      </trkpt>
      <trkpt lat="48.6219630" lon="14.3071320">
        <ele>570.0</ele>
        <time>2019-08-07T12:14:20Z</time>
      </trkpt>
      <trkpt lat="48.6219630" lon="14.3071320">
        <ele>570.0</ele>
        <time>2019-08-07T12:14:21Z</time>
      </trkpt>
      <trkpt lat="48.6219710" lon="14.3071230">
        <ele>570.0</ele>
        <time>2019-08-07T12:14:22Z</time>
      </trkpt>
      <trkpt lat="48.6220070" lon="14.3070820">
        <ele>570.0</ele>
        <time>2019-08-07T12:14:23Z</time>
      </trkpt>
      <trkpt lat="48.6220220" lon="14.3070650">
        <ele>570.0</ele>
        <time>2019-08-07T12:14:24Z</time>
      </trkpt>
      <trkpt lat="48.6220340" lon="14.3070460">
        <ele>570.2</ele>
        <time>2019-08-07T12:14:25Z</time>
      </trkpt>
      <trkpt lat="48.6220490" lon="14.3070250">
        <ele>570.2</ele>
        <time>2019-08-07T12:14:26Z</time>
      </trkpt>
      <trkpt lat="48.6220570" lon="14.3069990">
        <ele>570.2</ele>
        <time>2019-08-07T12:14:27Z</time>
      </trkpt>
      <trkpt lat="48.6220540" lon="14.3069720">
        <ele>570.2</ele>
        <time>2019-08-07T12:14:28Z</time>
      </trkpt>
      <trkpt lat="48.6220400" lon="14.3069540">
        <ele>570.2</ele>
        <time>2019-08-07T12:14:29Z</time>
      </trkpt>
      <trkpt lat="48.6220190" lon="14.3069530">
        <ele>570.2</ele>
        <time>2019-08-07T12:14:30Z</time>
      </trkpt>
      <trkpt lat="48.6219970" lon="14.3069610">
        <ele>570.2</ele>
        <time>2019-08-07T12:14:31Z</time>
      </trkpt>
      <trkpt lat="48.6219740" lon="14.3069810">
        <ele>570.2</ele>
        <time>2019-08-07T12:14:32Z</time>
      </trkpt>
      <trkpt lat="48.6219460" lon="14.3070020">
        <ele>570.0</ele>
        <time>2019-08-07T12:14:33Z</time>
      </trkpt>
      <trkpt lat="48.6219160" lon="14.3070220">
        <ele>570.0</ele>
        <time>2019-08-07T12:14:34Z</time>
      </trkpt>
      <trkpt lat="48.6218860" lon="14.3070400">
        <ele>570.0</ele>
        <time>2019-08-07T12:14:35Z</time>
      </trkpt>
      <trkpt lat="48.6218580" lon="14.3070590">
        <ele>569.8</ele>
        <time>2019-08-07T12:14:36Z</time>
      </trkpt>
      <trkpt lat="48.6218270" lon="14.3070800">
        <ele>569.8</ele>
        <time>2019-08-07T12:14:37Z</time>
      </trkpt>
      <trkpt lat="48.6217920" lon="14.3071010">
        <ele>569.8</ele>
        <time>2019-08-07T12:14:38Z</time>
      </trkpt>
      <trkpt lat="48.6217550" lon="14.3071250">
        <ele>569.6</ele>
        <time>2019-08-07T12:14:39Z</time>
      </trkpt>
      <trkpt lat="48.6217200" lon="14.3071500">
        <ele>569.6</ele>
        <time>2019-08-07T12:14:40Z</time>
      </trkpt>
      <trkpt lat="48.6216840" lon="14.3071790">
        <ele>569.4</ele>
        <time>2019-08-07T12:14:41Z</time>
      </trkpt>
      <trkpt lat="48.6216480" lon="14.3072120">
        <ele>569.4</ele>
        <time>2019-08-07T12:14:42Z</time>
      </trkpt>
      <trkpt lat="48.6216100" lon="14.3072490">
        <ele>569.2</ele>
        <time>2019-08-07T12:14:43Z</time>
      </trkpt>
      <trkpt lat="48.6215730" lon="14.3072890">
        <ele>569.2</ele>
        <time>2019-08-07T12:14:44Z</time>
      </trkpt>
      <trkpt lat="48.6215370" lon="14.3073320">
        <ele>569.0</ele>
        <time>2019-08-07T12:14:45Z</time>
      </trkpt>
      <trkpt lat="48.6215020" lon="14.3073780">
        <ele>569.0</ele>
        <time>2019-08-07T12:14:46Z</time>
      </trkpt>
      <trkpt lat="48.6214650" lon="14.3074230">
        <ele>568.8</ele>
        <time>2019-08-07T12:14:47Z</time>
      </trkpt>
      <trkpt lat="48.6214280" lon="14.3074710">
        <ele>568.8</ele>
        <time>2019-08-07T12:14:48Z</time>
      </trkpt>
      <trkpt lat="48.6213900" lon="14.3075200">
        <ele>568.8</ele>
        <time>2019-08-07T12:14:49Z</time>
      </trkpt>
      <trkpt lat="48.6213530" lon="14.3075670">
        <ele>568.8</ele>
        <time>2019-08-07T12:14:50Z</time>
      </trkpt>
      <trkpt lat="48.6213170" lon="14.3076130">
        <ele>568.6</ele>
        <time>2019-08-07T12:14:51Z</time>
      </trkpt>
      <trkpt lat="48.6212820" lon="14.3076600">
        <ele>568.6</ele>
        <time>2019-08-07T12:14:52Z</time>
      </trkpt>
      <trkpt lat="48.6212440" lon="14.3077100">
        <ele>568.4</ele>
        <time>2019-08-07T12:14:53Z</time>
      </trkpt>
      <trkpt lat="48.6212080" lon="14.3077630">
        <ele>568.4</ele>
        <time>2019-08-07T12:14:54Z</time>
      </trkpt>
      <trkpt lat="48.6211760" lon="14.3078190">
        <ele>568.4</ele>
        <time>2019-08-07T12:14:55Z</time>
      </trkpt>
      <trkpt lat="48.6211470" lon="14.3078780">
        <ele>568.4</ele>
        <time>2019-08-07T12:14:56Z</time>
      </trkpt>
      <trkpt lat="48.6211210" lon="14.3079390">
        <ele>568.4</ele>
        <time>2019-08-07T12:14:57Z</time>
      </trkpt>
      <trkpt lat="48.6211000" lon="14.3079980">
        <ele>568.4</ele>
        <time>2019-08-07T12:14:58Z</time>
      </trkpt>
      <trkpt lat="48.6210780" lon="14.3080600">
        <ele>568.4</ele>
        <time>2019-08-07T12:14:59Z</time>
      </trkpt>
      <trkpt lat="48.6210570" lon="14.3081210">
        <ele>568.4</ele>
        <time>2019-08-07T12:15:00Z</time>
      </trkpt>
      <trkpt lat="48.6210390" lon="14.3081810">
        <ele>568.4</ele>
        <time>2019-08-07T12:15:01Z</time>
      </trkpt>
      <trkpt lat="48.6210240" lon="14.3082430">
        <ele>568.4</ele>
        <time>2019-08-07T12:15:02Z</time>
      </trkpt>
      <trkpt lat="48.6210090" lon="14.3083060">
        <ele>568.4</ele>
        <time>2019-08-07T12:15:03Z</time>
      </trkpt>
      <trkpt lat="48.6209940" lon="14.3083660">
        <ele>568.4</ele>
        <time>2019-08-07T12:15:04Z</time>
      </trkpt>
      <trkpt lat="48.6209830" lon="14.3084260">
        <ele>568.4</ele>
        <time>2019-08-07T12:15:05Z</time>
      </trkpt>
      <trkpt lat="48.6209710" lon="14.3084840">
        <ele>568.2</ele>
        <time>2019-08-07T12:15:06Z</time>
      </trkpt>
      <trkpt lat="48.6209590" lon="14.3085430">
        <ele>568.2</ele>
        <time>2019-08-07T12:15:07Z</time>
      </trkpt>
      <trkpt lat="48.6209470" lon="14.3086040">
        <ele>568.2</ele>
        <time>2019-08-07T12:15:08Z</time>
      </trkpt>
      <trkpt lat="48.6209380" lon="14.3086630">
        <ele>568.2</ele>
        <time>2019-08-07T12:15:09Z</time>
      </trkpt>
      <trkpt lat="48.6209210" lon="14.3087220">
        <ele>568.2</ele>
        <time>2019-08-07T12:15:10Z</time>
      </trkpt>
      <trkpt lat="48.6208970" lon="14.3087750">
        <ele>568.2</ele>
        <time>2019-08-07T12:15:11Z</time>
      </trkpt>
      <trkpt lat="48.6208650" lon="14.3088230">
        <ele>568.2</ele>
        <time>2019-08-07T12:15:12Z</time>
      </trkpt>
      <trkpt lat="48.6208310" lon="14.3088670">
        <ele>568.2</ele>
        <time>2019-08-07T12:15:13Z</time>
      </trkpt>
      <trkpt lat="48.6207930" lon="14.3089090">
        <ele>568.2</ele>
        <time>2019-08-07T12:15:14Z</time>
      </trkpt>
      <trkpt lat="48.6207540" lon="14.3089420">
        <ele>568.4</ele>
        <time>2019-08-07T12:15:15Z</time>
      </trkpt>
      <trkpt lat="48.6207140" lon="14.3089720">
        <ele>568.4</ele>
        <time>2019-08-07T12:15:16Z</time>
      </trkpt>
      <trkpt lat="48.6206760" lon="14.3089980">
        <ele>568.6</ele>
        <time>2019-08-07T12:15:17Z</time>
      </trkpt>
      <trkpt lat="48.6206390" lon="14.3090190">
        <ele>568.6</ele>
        <time>2019-08-07T12:15:18Z</time>
      </trkpt>
      <trkpt lat="48.6206040" lon="14.3090340">
        <ele>568.8</ele>
        <time>2019-08-07T12:15:19Z</time>
      </trkpt>
      <trkpt lat="48.6205720" lon="14.3090460">
        <ele>569.0</ele>
        <time>2019-08-07T12:15:20Z</time>
      </trkpt>
      <trkpt lat="48.6205420" lon="14.3090570">
        <ele>569.2</ele>
        <time>2019-08-07T12:15:21Z</time>
      </trkpt>
      <trkpt lat="48.6205160" lon="14.3090640">
        <ele>569.4</ele>
        <time>2019-08-07T12:15:22Z</time>
      </trkpt>
      <trkpt lat="48.6204930" lon="14.3090700">
        <ele>569.8</ele>
        <time>2019-08-07T12:15:23Z</time>
      </trkpt>
      <trkpt lat="48.6204660" lon="14.3090710">
        <ele>570.0</ele>
        <time>2019-08-07T12:15:24Z</time>
      </trkpt>
      <trkpt lat="48.6204420" lon="14.3090660">
        <ele>570.2</ele>
        <time>2019-08-07T12:15:25Z</time>
      </trkpt>
      <trkpt lat="48.6204170" lon="14.3090620">
        <ele>570.4</ele>
        <time>2019-08-07T12:15:26Z</time>
      </trkpt>
      <trkpt lat="48.6203930" lon="14.3090570">
        <ele>570.6</ele>
        <time>2019-08-07T12:15:27Z</time>
      </trkpt>
      <trkpt lat="48.6203700" lon="14.3090460">
        <ele>570.8</ele>
        <time>2019-08-07T12:15:28Z</time>
      </trkpt>
      <trkpt lat="48.6203480" lon="14.3090310">
        <ele>571.0</ele>
        <time>2019-08-07T12:15:29Z</time>
      </trkpt>
      <trkpt lat="48.6203260" lon="14.3090150">
        <ele>571.2</ele>
        <time>2019-08-07T12:15:30Z</time>
      </trkpt>
      <trkpt lat="48.6203020" lon="14.3089980">
        <ele>571.2</ele>
        <time>2019-08-07T12:15:31Z</time>
      </trkpt>
      <trkpt lat="48.6202770" lon="14.3089810">
        <ele>571.4</ele>
        <time>2019-08-07T12:15:32Z</time>
      </trkpt>
      <trkpt lat="48.6202540" lon="14.3089650">
        <ele>571.4</ele>
        <time>2019-08-07T12:15:33Z</time>
      </trkpt>
      <trkpt lat="48.6202300" lon="14.3089480">
        <ele>571.6</ele>
        <time>2019-08-07T12:15:34Z</time>
      </trkpt>
      <trkpt lat="48.6202030" lon="14.3089300">
        <ele>571.6</ele>
        <time>2019-08-07T12:15:35Z</time>
      </trkpt>
      <trkpt lat="48.6201750" lon="14.3089140">
        <ele>571.8</ele>
        <time>2019-08-07T12:15:36Z</time>
      </trkpt>
      <trkpt lat="48.6201460" lon="14.3088990">
        <ele>571.8</ele>
        <time>2019-08-07T12:15:37Z</time>
      </trkpt>
      <trkpt lat="48.6201160" lon="14.3088820">
        <ele>571.8</ele>
        <time>2019-08-07T12:15:38Z</time>
      </trkpt>
      <trkpt lat="48.6200830" lon="14.3088680">
        <ele>571.8</ele>
        <time>2019-08-07T12:15:39Z</time>
      </trkpt>
      <trkpt lat="48.6200490" lon="14.3088580">
        <ele>571.8</ele>
        <time>2019-08-07T12:15:40Z</time>
      </trkpt>
      <trkpt lat="48.6200150" lon="14.3088470">
        <ele>571.8</ele>
        <time>2019-08-07T12:15:41Z</time>
      </trkpt>
      <trkpt lat="48.6199810" lon="14.3088380">
        <ele>571.8</ele>
        <time>2019-08-07T12:15:42Z</time>
      </trkpt>
      <trkpt lat="48.6199490" lon="14.3088260">
        <ele>571.8</ele>
        <time>2019-08-07T12:15:43Z</time>
      </trkpt>
      <trkpt lat="48.6199160" lon="14.3088150">
        <ele>571.8</ele>
        <time>2019-08-07T12:15:44Z</time>
      </trkpt>
      <trkpt lat="48.6198850" lon="14.3088050">
        <ele>571.8</ele>
        <time>2019-08-07T12:15:45Z</time>
      </trkpt>
      <trkpt lat="48.6198550" lon="14.3087990">
        <ele>572.0</ele>
        <time>2019-08-07T12:15:46Z</time>
      </trkpt>
      <trkpt lat="48.6198270" lon="14.3087930">
        <ele>572.0</ele>
        <time>2019-08-07T12:15:47Z</time>
      </trkpt>
      <trkpt lat="48.6198010" lon="14.3087870">
        <ele>572.0</ele>
        <time>2019-08-07T12:15:48Z</time>
      </trkpt>
      <trkpt lat="48.6197770" lon="14.3087800">
        <ele>572.0</ele>
        <time>2019-08-07T12:15:49Z</time>
      </trkpt>
      <trkpt lat="48.6197550" lon="14.3087720">
        <ele>572.0</ele>
        <time>2019-08-07T12:15:50Z</time>
      </trkpt>
      <trkpt lat="48.6197360" lon="14.3087590">
        <ele>572.0</ele>
        <time>2019-08-07T12:15:51Z</time>
      </trkpt>
      <trkpt lat="48.6197190" lon="14.3087390">
        <ele>572.0</ele>
        <time>2019-08-07T12:15:52Z</time>
      </trkpt>
      <trkpt lat="48.6197060" lon="14.3087180">
        <ele>572.0</ele>
        <time>2019-08-07T12:15:53Z</time>
      </trkpt>
      <trkpt lat="48.6196930" lon="14.3086980">
        <ele>572.0</ele>
        <time>2019-08-07T12:15:54Z</time>
      </trkpt>
      <trkpt lat="48.6196790" lon="14.3086760">
        <ele>572.0</ele>
        <time>2019-08-07T12:15:55Z</time>
      </trkpt>
      <trkpt lat="48.6196670" lon="14.3086540">
        <ele>572.2</ele>
        <time>2019-08-07T12:15:56Z</time>
      </trkpt>
      <trkpt lat="48.6196560" lon="14.3086330">
        <ele>572.2</ele>
        <time>2019-08-07T12:15:57Z</time>
      </trkpt>
      <trkpt lat="48.6196460" lon="14.3086130">
        <ele>572.2</ele>
        <time>2019-08-07T12:15:58Z</time>
      </trkpt>
      <trkpt lat="48.6196350" lon="14.3085950">
        <ele>572.2</ele>
        <time>2019-08-07T12:15:59Z</time>
      </trkpt>
      <trkpt lat="48.6196250" lon="14.3085790">
        <ele>572.2</ele>
        <time>2019-08-07T12:16:00Z</time>
      </trkpt>
      <trkpt lat="48.6196150" lon="14.3085640">
        <ele>572.2</ele>
        <time>2019-08-07T12:16:01Z</time>
      </trkpt>
      <trkpt lat="48.6196060" lon="14.3085510">
        <ele>572.2</ele>
        <time>2019-08-07T12:16:02Z</time>
      </trkpt>
      <trkpt lat="48.6195940" lon="14.3085390">
        <ele>572.2</ele>
        <time>2019-08-07T12:16:03Z</time>
      </trkpt>
      <trkpt lat="48.6195810" lon="14.3085250">
        <ele>572.2</ele>
        <time>2019-08-07T12:16:04Z</time>
      </trkpt>
      <trkpt lat="48.6195690" lon="14.3085090">
        <ele>572.2</ele>
        <time>2019-08-07T12:16:05Z</time>
      </trkpt>
      <trkpt lat="48.6195580" lon="14.3084920">
        <ele>572.2</ele>
        <time>2019-08-07T12:16:06Z</time>
      </trkpt>
      <trkpt lat="48.6195460" lon="14.3084730">
        <ele>572.2</ele>
        <time>2019-08-07T12:16:07Z</time>
      </trkpt>
      <trkpt lat="48.6195350" lon="14.3084550">
        <ele>572.2</ele>
        <time>2019-08-07T12:16:08Z</time>
      </trkpt>
      <trkpt lat="48.6195230" lon="14.3084370">
        <ele>572.2</ele>
        <time>2019-08-07T12:16:09Z</time>
      </trkpt>
      <trkpt lat="48.6195100" lon="14.3084190">
        <ele>572.2</ele>
        <time>2019-08-07T12:16:10Z</time>
      </trkpt>
      <trkpt lat="48.6194980" lon="14.3083980">
        <ele>572.4</ele>
        <time>2019-08-07T12:16:11Z</time>
      </trkpt>
      <trkpt lat="48.6194850" lon="14.3083760">
        <ele>572.4</ele>
        <time>2019-08-07T12:16:12Z</time>
      </trkpt>
      <trkpt lat="48.6194730" lon="14.3083540">
        <ele>572.4</ele>
        <time>2019-08-07T12:16:13Z</time>
      </trkpt>
      <trkpt lat="48.6194620" lon="14.3083330">
        <ele>572.4</ele>
        <time>2019-08-07T12:16:14Z</time>
      </trkpt>
      <trkpt lat="48.6194540" lon="14.3083120">
        <ele>572.4</ele>
        <time>2019-08-07T12:16:15Z</time>
      </trkpt>
      <trkpt lat="48.6194470" lon="14.3082940">
        <ele>572.4</ele>
        <time>2019-08-07T12:16:16Z</time>
      </trkpt>
      <trkpt lat="48.6194380" lon="14.3082770">
        <ele>572.4</ele>
        <time>2019-08-07T12:16:17Z</time>
      </trkpt>
      <trkpt lat="48.6194290" lon="14.3082600">
        <ele>572.4</ele>
        <time>2019-08-07T12:16:18Z</time>
      </trkpt>
      <trkpt lat="48.6194180" lon="14.3082470">
        <ele>572.6</ele>
        <time>2019-08-07T12:16:19Z</time>
      </trkpt>
      <trkpt lat="48.6194050" lon="14.3082450">
        <ele>572.6</ele>
        <time>2019-08-07T12:16:20Z</time>
      </trkpt>
      <trkpt lat="48.6193940" lon="14.3082560">
        <ele>572.6</ele>
        <time>2019-08-07T12:16:21Z</time>
      </trkpt>
      <trkpt lat="48.6193930" lon="14.3082770">
        <ele>572.6</ele>
        <time>2019-08-07T12:16:22Z</time>
      </trkpt>
      <trkpt lat="48.6194010" lon="14.3082990">
        <ele>572.6</ele>
        <time>2019-08-07T12:16:23Z</time>
      </trkpt>
      <trkpt lat="48.6194170" lon="14.3083210">
        <ele>572.4</ele>
        <time>2019-08-07T12:16:24Z</time>
      </trkpt>
      <trkpt lat="48.6194350" lon="14.3083440">
        <ele>572.4</ele>
        <time>2019-08-07T12:16:25Z</time>
      </trkpt>
      <trkpt lat="48.6194540" lon="14.3083700">
        <ele>572.4</ele>
        <time>2019-08-07T12:16:26Z</time>
      </trkpt>
      <trkpt lat="48.6194730" lon="14.3083980">
        <ele>572.4</ele>
        <time>2019-08-07T12:16:27Z</time>
      </trkpt>
      <trkpt lat="48.6194940" lon="14.3084290">
        <ele>572.4</ele>
        <time>2019-08-07T12:16:28Z</time>
      </trkpt>
      <trkpt lat="48.6195140" lon="14.3084580">
        <ele>572.2</ele>
        <time>2019-08-07T12:16:29Z</time>
      </trkpt>
      <trkpt lat="48.6195350" lon="14.3084860">
        <ele>572.2</ele>
        <time>2019-08-07T12:16:30Z</time>
      </trkpt>
      <trkpt lat="48.6195570" lon="14.3085130">
        <ele>572.2</ele>
        <time>2019-08-07T12:16:31Z</time>
      </trkpt>
      <trkpt lat="48.6195790" lon="14.3085360">
        <ele>572.2</ele>
        <time>2019-08-07T12:16:32Z</time>
      </trkpt>
      <trkpt lat="48.6196010" lon="14.3085590">
        <ele>572.2</ele>
        <time>2019-08-07T12:16:33Z</time>
      </trkpt>
      <trkpt lat="48.6196230" lon="14.3085870">
        <ele>572.2</ele>
        <time>2019-08-07T12:16:34Z</time>
      </trkpt>
      <trkpt lat="48.6196420" lon="14.3086180">
        <ele>572.2</ele>
        <time>2019-08-07T12:16:35Z</time>
      </trkpt>
      <trkpt lat="48.6196590" lon="14.3086490">
        <ele>572.2</ele>
        <time>2019-08-07T12:16:36Z</time>
      </trkpt>
      <trkpt lat="48.6196740" lon="14.3086830">
        <ele>572.2</ele>
        <time>2019-08-07T12:16:37Z</time>
      </trkpt>
      <trkpt lat="48.6196840" lon="14.3087180">
        <ele>572.2</ele>
        <time>2019-08-07T12:16:38Z</time>
      </trkpt>
      <trkpt lat="48.6196870" lon="14.3087570">
        <ele>572.2</ele>
        <time>2019-08-07T12:16:39Z</time>
      </trkpt>
      <trkpt lat="48.6196800" lon="14.3087940">
        <ele>572.2</ele>
        <time>2019-08-07T12:16:40Z</time>
      </trkpt>
      <trkpt lat="48.6196630" lon="14.3088220">
        <ele>572.2</ele>
        <time>2019-08-07T12:16:41Z</time>
      </trkpt>
      <trkpt lat="48.6196350" lon="14.3088410">
        <ele>572.2</ele>
        <time>2019-08-07T12:16:42Z</time>
      </trkpt>
      <trkpt lat="48.6196040" lon="14.3088560">
        <ele>572.4</ele>
        <time>2019-08-07T12:16:43Z</time>
      </trkpt>
      <trkpt lat="48.6195720" lon="14.3088720">
        <ele>572.4</ele>
        <time>2019-08-07T12:16:44Z</time>
      </trkpt>
      <trkpt lat="48.6195380" lon="14.3088900">
        <ele>572.6</ele>
        <time>2019-08-07T12:16:45Z</time>
      </trkpt>
      <trkpt lat="48.6195050" lon="14.3089110">
        <ele>572.6</ele>
        <time>2019-08-07T12:16:46Z</time>
      </trkpt>
      <trkpt lat="48.6194710" lon="14.3089340">
        <ele>572.8</ele>
        <time>2019-08-07T12:16:47Z</time>
      </trkpt>
      <trkpt lat="48.6194390" lon="14.3089580">
        <ele>572.8</ele>
        <time>2019-08-07T12:16:48Z</time>
      </trkpt>
      <trkpt lat="48.6194080" lon="14.3089830">
        <ele>573.0</ele>
        <time>2019-08-07T12:16:49Z</time>
      </trkpt>
      <trkpt lat="48.6193760" lon="14.3090100">
        <ele>573.2</ele>
        <time>2019-08-07T12:16:50Z</time>
      </trkpt>
      <trkpt lat="48.6193440" lon="14.3090370">
        <ele>573.2</ele>
        <time>2019-08-07T12:16:51Z</time>
      </trkpt>
      <trkpt lat="48.6193150" lon="14.3090630">
        <ele>573.4</ele>
        <time>2019-08-07T12:16:52Z</time>
      </trkpt>
      <trkpt lat="48.6192850" lon="14.3090860">
        <ele>573.4</ele>
        <time>2019-08-07T12:16:53Z</time>
      </trkpt>
      <trkpt lat="48.6192560" lon="14.3091120">
        <ele>573.6</ele>
        <time>2019-08-07T12:16:54Z</time>
      </trkpt>
      <trkpt lat="48.6192240" lon="14.3091380">
        <ele>573.6</ele>
        <time>2019-08-07T12:16:55Z</time>
      </trkpt>
      <trkpt lat="48.6191940" lon="14.3091650">
        <ele>573.8</ele>
        <time>2019-08-07T12:16:56Z</time>
      </trkpt>
      <trkpt lat="48.6191630" lon="14.3091920">
        <ele>574.0</ele>
        <time>2019-08-07T12:16:57Z</time>
      </trkpt>
      <trkpt lat="48.6191330" lon="14.3092200">
        <ele>574.0</ele>
        <time>2019-08-07T12:16:58Z</time>
      </trkpt>
      <trkpt lat="48.6191030" lon="14.3092480">
        <ele>574.2</ele>
        <time>2019-08-07T12:16:59Z</time>
      </trkpt>
      <trkpt lat="48.6190730" lon="14.3092760">
        <ele>574.2</ele>
        <time>2019-08-07T12:17:00Z</time>
      </trkpt>
      <trkpt lat="48.6190410" lon="14.3093030">
        <ele>574.4</ele>
        <time>2019-08-07T12:17:01Z</time>
      </trkpt>
      <trkpt lat="48.6190090" lon="14.3093300">
        <ele>574.4</ele>
        <time>2019-08-07T12:17:02Z</time>
      </trkpt>
      <trkpt lat="48.6189780" lon="14.3093560">
        <ele>574.6</ele>
        <time>2019-08-07T12:17:03Z</time>
      </trkpt>
      <trkpt lat="48.6189460" lon="14.3093810">
        <ele>574.6</ele>
        <time>2019-08-07T12:17:04Z</time>
      </trkpt>
      <trkpt lat="48.6189160" lon="14.3094070">
        <ele>574.8</ele>
        <time>2019-08-07T12:17:05Z</time>
      </trkpt>
      <trkpt lat="48.6188880" lon="14.3094340">
        <ele>574.8</ele>
        <time>2019-08-07T12:17:06Z</time>
      </trkpt>
      <trkpt lat="48.6188600" lon="14.3094620">
        <ele>575.0</ele>
        <time>2019-08-07T12:17:07Z</time>
      </trkpt>
      <trkpt lat="48.6188310" lon="14.3094870">
        <ele>575.2</ele>
        <time>2019-08-07T12:17:08Z</time>
      </trkpt>
      <trkpt lat="48.6188030" lon="14.3095100">
        <ele>575.2</ele>
        <time>2019-08-07T12:17:09Z</time>
      </trkpt>
      <trkpt lat="48.6187760" lon="14.3095370">
        <ele>575.4</ele>
        <time>2019-08-07T12:17:10Z</time>
      </trkpt>
      <trkpt lat="48.6187470" lon="14.3095640">
        <ele>575.4</ele>
        <time>2019-08-07T12:17:11Z</time>
      </trkpt>
      <trkpt lat="48.6187180" lon="14.3095920">
        <ele>575.6</ele>
        <time>2019-08-07T12:17:12Z</time>
      </trkpt>
      <trkpt lat="48.6186920" lon="14.3096200">
        <ele>575.8</ele>
        <time>2019-08-07T12:17:13Z</time>
      </trkpt>
      <trkpt lat="48.6186630" lon="14.3096480">
        <ele>575.8</ele>
        <time>2019-08-07T12:17:14Z</time>
      </trkpt>
      <trkpt lat="48.6186330" lon="14.3096710">
        <ele>576.0</ele>
        <time>2019-08-07T12:17:15Z</time>
      </trkpt>
      <trkpt lat="48.6186040" lon="14.3096940">
        <ele>576.0</ele>
        <time>2019-08-07T12:17:16Z</time>
      </trkpt>
      <trkpt lat="48.6185710" lon="14.3097180">
        <ele>576.2</ele>
        <time>2019-08-07T12:17:17Z</time>
      </trkpt>
      <trkpt lat="48.6185420" lon="14.3097410">
        <ele>576.2</ele>
        <time>2019-08-07T12:17:18Z</time>
      </trkpt>
      <trkpt lat="48.6185110" lon="14.3097670">
        <ele>576.4</ele>
        <time>2019-08-07T12:17:19Z</time>
      </trkpt>
      <trkpt lat="48.6184820" lon="14.3097930">
        <ele>576.4</ele>
        <time>2019-08-07T12:17:20Z</time>
      </trkpt>
      <trkpt lat="48.6184520" lon="14.3098210">
        <ele>576.6</ele>
        <time>2019-08-07T12:17:21Z</time>
      </trkpt>
      <trkpt lat="48.6184210" lon="14.3098480">
        <ele>576.8</ele>
        <time>2019-08-07T12:17:22Z</time>
      </trkpt>
      <trkpt lat="48.6183930" lon="14.3098740">
        <ele>577.0</ele>
        <time>2019-08-07T12:17:23Z</time>
      </trkpt>
      <trkpt lat="48.6183650" lon="14.3098990">
        <ele>577.0</ele>
        <time>2019-08-07T12:17:24Z</time>
      </trkpt>
      <trkpt lat="48.6183360" lon="14.3099240">
        <ele>577.2</ele>
        <time>2019-08-07T12:17:25Z</time>
      </trkpt>
      <trkpt lat="48.6183060" lon="14.3099440">
        <ele>577.4</ele>
        <time>2019-08-07T12:17:26Z</time>
      </trkpt>
      <trkpt lat="48.6182760" lon="14.3099640">
        <ele>577.4</ele>
        <time>2019-08-07T12:17:27Z</time>
      </trkpt>
      <trkpt lat="48.6182440" lon="14.3099880">
        <ele>577.6</ele>
        <time>2019-08-07T12:17:28Z</time>
      </trkpt>
      <trkpt lat="48.6182130" lon="14.3100130">
        <ele>577.8</ele>
        <time>2019-08-07T12:17:29Z</time>
      </trkpt>
      <trkpt lat="48.6181830" lon="14.3100380">
        <ele>578.0</ele>
        <time>2019-08-07T12:17:30Z</time>
      </trkpt>
      <trkpt lat="48.6181530" lon="14.3100630">
        <ele>578.0</ele>
        <time>2019-08-07T12:17:31Z</time>
      </trkpt>
      <trkpt lat="48.6181230" lon="14.3100900">
        <ele>578.2</ele>
        <time>2019-08-07T12:17:32Z</time>
      </trkpt>
      <trkpt lat="48.6180910" lon="14.3101160">
        <ele>578.2</ele>
        <time>2019-08-07T12:17:33Z</time>
      </trkpt>
      <trkpt lat="48.6180610" lon="14.3101410">
        <ele>578.4</ele>
        <time>2019-08-07T12:17:34Z</time>
      </trkpt>
      <trkpt lat="48.6180310" lon="14.3101680">
        <ele>578.6</ele>
        <time>2019-08-07T12:17:35Z</time>
      </trkpt>
      <trkpt lat="48.6180010" lon="14.3101930">
        <ele>578.6</ele>
        <time>2019-08-07T12:17:36Z</time>
      </trkpt>
      <trkpt lat="48.6179720" lon="14.3102160">
        <ele>578.8</ele>
        <time>2019-08-07T12:17:37Z</time>
      </trkpt>
      <trkpt lat="48.6179430" lon="14.3102430">
        <ele>578.8</ele>
        <time>2019-08-07T12:17:38Z</time>
      </trkpt>
      <trkpt lat="48.6179130" lon="14.3102700">
        <ele>579.0</ele>
        <time>2019-08-07T12:17:39Z</time>
      </trkpt>
      <trkpt lat="48.6178830" lon="14.3102960">
        <ele>579.2</ele>
        <time>2019-08-07T12:17:40Z</time>
      </trkpt>
      <trkpt lat="48.6178540" lon="14.3103190">
        <ele>579.2</ele>
        <time>2019-08-07T12:17:41Z</time>
      </trkpt>
      <trkpt lat="48.6178230" lon="14.3103430">
        <ele>579.4</ele>
        <time>2019-08-07T12:17:42Z</time>
      </trkpt>
      <trkpt lat="48.6177950" lon="14.3103680">
        <ele>579.4</ele>
        <time>2019-08-07T12:17:43Z</time>
      </trkpt>
      <trkpt lat="48.6177650" lon="14.3103930">
        <ele>579.4</ele>
        <time>2019-08-07T12:17:44Z</time>
      </trkpt>
      <trkpt lat="48.6177360" lon="14.3104180">
        <ele>579.6</ele>
        <time>2019-08-07T12:17:45Z</time>
      </trkpt>
      <trkpt lat="48.6177070" lon="14.3104410">
        <ele>579.6</ele>
        <time>2019-08-07T12:17:46Z</time>
      </trkpt>
      <trkpt lat="48.6176780" lon="14.3104670">
        <ele>579.8</ele>
        <time>2019-08-07T12:17:47Z</time>
      </trkpt>
      <trkpt lat="48.6176480" lon="14.3104950">
        <ele>580.0</ele>
        <time>2019-08-07T12:17:48Z</time>
      </trkpt>
      <trkpt lat="48.6176200" lon="14.3105240">
        <ele>580.0</ele>
        <time>2019-08-07T12:17:49Z</time>
      </trkpt>
      <trkpt lat="48.6175910" lon="14.3105510">
        <ele>580.0</ele>
        <time>2019-08-07T12:17:50Z</time>
      </trkpt>
      <trkpt lat="48.6175590" lon="14.3105780">
        <ele>580.2</ele>
        <time>2019-08-07T12:17:51Z</time>
      </trkpt>
      <trkpt lat="48.6175250" lon="14.3106020">
        <ele>580.2</ele>
        <time>2019-08-07T12:17:52Z</time>
      </trkpt>
      <trkpt lat="48.6174880" lon="14.3106260">
        <ele>580.4</ele>
        <time>2019-08-07T12:17:53Z</time>
      </trkpt>
      <trkpt lat="48.6174530" lon="14.3106490">
        <ele>580.4</ele>
        <time>2019-08-07T12:17:54Z</time>
      </trkpt>
      <trkpt lat="48.6174220" lon="14.3106770">
        <ele>580.6</ele>
        <time>2019-08-07T12:17:55Z</time>
      </trkpt>
      <trkpt lat="48.6173910" lon="14.3107050">
        <ele>580.6</ele>
        <time>2019-08-07T12:17:56Z</time>
      </trkpt>
      <trkpt lat="48.6173610" lon="14.3107330">
        <ele>580.6</ele>
        <time>2019-08-07T12:17:57Z</time>
      </trkpt>
      <trkpt lat="48.6173290" lon="14.3107620">
        <ele>580.8</ele>
        <time>2019-08-07T12:17:58Z</time>
      </trkpt>
      <trkpt lat="48.6172970" lon="14.3107900">
        <ele>580.8</ele>
        <time>2019-08-07T12:17:59Z</time>
      </trkpt>
      <trkpt lat="48.6172650" lon="14.3108200">
        <ele>580.8</ele>
        <time>2019-08-07T12:18:00Z</time>
      </trkpt>
      <trkpt lat="48.6172350" lon="14.3108490">
        <ele>581.0</ele>
        <time>2019-08-07T12:18:01Z</time>
      </trkpt>
      <trkpt lat="48.6172060" lon="14.3108770">
        <ele>581.0</ele>
        <time>2019-08-07T12:18:02Z</time>
      </trkpt>
      <trkpt lat="48.6171770" lon="14.3109050">
        <ele>581.0</ele>
        <time>2019-08-07T12:18:03Z</time>
      </trkpt>
      <trkpt lat="48.6171500" lon="14.3109310">
        <ele>581.0</ele>
        <time>2019-08-07T12:18:04Z</time>
      </trkpt>
      <trkpt lat="48.6171220" lon="14.3109590">
        <ele>581.2</ele>
        <time>2019-08-07T12:18:05Z</time>
      </trkpt>
      <trkpt lat="48.6170950" lon="14.3109870">
        <ele>581.2</ele>
        <time>2019-08-07T12:18:06Z</time>
      </trkpt>
      <trkpt lat="48.6170640" lon="14.3110150">
        <ele>581.2</ele>
        <time>2019-08-07T12:18:07Z</time>
      </trkpt>
      <trkpt lat="48.6170330" lon="14.3110450">
        <ele>581.2</ele>
        <time>2019-08-07T12:18:08Z</time>
      </trkpt>
      <trkpt lat="48.6170030" lon="14.3110730">
        <ele>581.4</ele>
        <time>2019-08-07T12:18:09Z</time>
      </trkpt>
      <trkpt lat="48.6169710" lon="14.3111000">
        <ele>581.4</ele>
        <time>2019-08-07T12:18:10Z</time>
      </trkpt>
      <trkpt lat="48.6169380" lon="14.3111270">
        <ele>581.6</ele>
        <time>2019-08-07T12:18:11Z</time>
      </trkpt>
      <trkpt lat="48.6169060" lon="14.3111550">
        <ele>581.6</ele>
        <time>2019-08-07T12:18:12Z</time>
      </trkpt>
      <trkpt lat="48.6168770" lon="14.3111920">
        <ele>581.6</ele>
        <time>2019-08-07T12:18:13Z</time>
      </trkpt>
      <trkpt lat="48.6168480" lon="14.3112320">
        <ele>581.6</ele>
        <time>2019-08-07T12:18:14Z</time>
      </trkpt>
      <trkpt lat="48.6168160" lon="14.3112710">
        <ele>581.8</ele>
        <time>2019-08-07T12:18:15Z</time>
      </trkpt>
      <trkpt lat="48.6167850" lon="14.3113150">
        <ele>581.8</ele>
        <time>2019-08-07T12:18:16Z</time>
      </trkpt>
      <trkpt lat="48.6167570" lon="14.3113580">
        <ele>582.0</ele>
        <time>2019-08-07T12:18:17Z</time>
      </trkpt>
      <trkpt lat="48.6167310" lon="14.3114030">
        <ele>582.0</ele>
        <time>2019-08-07T12:18:18Z</time>
      </trkpt>
      <trkpt lat="48.6167040" lon="14.3114480">
        <ele>582.0</ele>
        <time>2019-08-07T12:18:19Z</time>
      </trkpt>
      <trkpt lat="48.6166770" lon="14.3114910">
        <ele>582.2</ele>
        <time>2019-08-07T12:18:20Z</time>
      </trkpt>
      <trkpt lat="48.6166500" lon="14.3115330">
        <ele>582.2</ele>
        <time>2019-08-07T12:18:21Z</time>
      </trkpt>
      <trkpt lat="48.6166240" lon="14.3115790">
        <ele>582.4</ele>
        <time>2019-08-07T12:18:22Z</time>
      </trkpt>
      <trkpt lat="48.6165990" lon="14.3116250">
        <ele>582.6</ele>
        <time>2019-08-07T12:18:23Z</time>
      </trkpt>
      <trkpt lat="48.6165780" lon="14.3116710">
        <ele>582.6</ele>
        <time>2019-08-07T12:18:24Z</time>
      </trkpt>
      <trkpt lat="48.6165540" lon="14.3117170">
        <ele>582.8</ele>
        <time>2019-08-07T12:18:25Z</time>
      </trkpt>
      <trkpt lat="48.6165330" lon="14.3117630">
        <ele>582.8</ele>
        <time>2019-08-07T12:18:26Z</time>
      </trkpt>
      <trkpt lat="48.6165110" lon="14.3118080">
        <ele>583.0</ele>
        <time>2019-08-07T12:18:27Z</time>
      </trkpt>
      <trkpt lat="48.6164900" lon="14.3118530">
        <ele>583.0</ele>
        <time>2019-08-07T12:18:28Z</time>
      </trkpt>
      <trkpt lat="48.6164690" lon="14.3118960">
        <ele>583.2</ele>
        <time>2019-08-07T12:18:29Z</time>
      </trkpt>
      <trkpt lat="48.6164490" lon="14.3119370">
        <ele>583.2</ele>
        <time>2019-08-07T12:18:30Z</time>
      </trkpt>
      <trkpt lat="48.6164330" lon="14.3119660">
        <ele>583.4</ele>
        <time>2019-08-07T12:18:31Z</time>
      </trkpt>
      <trkpt lat="48.6164240" lon="14.3119830">
        <ele>583.4</ele>
        <time>2019-08-07T12:18:32Z</time>
      </trkpt>
      <trkpt lat="48.6164200" lon="14.3119930">
        <ele>583.4</ele>
        <time>2019-08-07T12:18:33Z</time>
      </trkpt>
      <trkpt lat="48.6164140" lon="14.3120010">
        <ele>583.6</ele>
        <time>2019-08-07T12:18:34Z</time>
      </trkpt>
      <trkpt lat="48.6163940" lon="14.3120390">
        <ele>583.6</ele>
        <time>2019-08-07T12:18:35Z</time>
      </trkpt>
      <trkpt lat="48.6163790" lon="14.3120690">
        <ele>583.8</ele>
        <time>2019-08-07T12:18:40Z</time>
      </trkpt>
      <trkpt lat="48.6163630" lon="14.3121000">
        <ele>583.8</ele>
        <time>2019-08-07T12:18:41Z</time>
      </trkpt>
      <trkpt lat="48.6163510" lon="14.3121200">
        <ele>583.8</ele>
        <time>2019-08-07T12:18:42Z</time>
      </trkpt>
      <trkpt lat="48.6163350" lon="14.3121380">
        <ele>583.8</ele>
        <time>2019-08-07T12:18:43Z</time>
      </trkpt>
      <trkpt lat="48.6163160" lon="14.3121460">
        <ele>584.0</ele>
        <time>2019-08-07T12:18:44Z</time>
      </trkpt>
      <trkpt lat="48.6162950" lon="14.3121480">
        <ele>584.0</ele>
        <time>2019-08-07T12:18:45Z</time>
      </trkpt>
      <trkpt lat="48.6162750" lon="14.3121450">
        <ele>584.2</ele>
        <time>2019-08-07T12:18:46Z</time>
      </trkpt>
      <trkpt lat="48.6162570" lon="14.3121370">
        <ele>584.2</ele>
        <time>2019-08-07T12:18:47Z</time>
      </trkpt>
      <trkpt lat="48.6162400" lon="14.3121290">
        <ele>584.4</ele>
        <time>2019-08-07T12:18:48Z</time>
      </trkpt>
      <trkpt lat="48.6162220" lon="14.3121200">
        <ele>584.4</ele>
        <time>2019-08-07T12:18:49Z</time>
      </trkpt>
      <trkpt lat="48.6162050" lon="14.3121100">
        <ele>584.6</ele>
        <time>2019-08-07T12:18:50Z</time>
      </trkpt>
      <trkpt lat="48.6161870" lon="14.3121000">
        <ele>584.6</ele>
        <time>2019-08-07T12:18:51Z</time>
      </trkpt>
      <trkpt lat="48.6161690" lon="14.3120930">
        <ele>584.8</ele>
        <time>2019-08-07T12:18:52Z</time>
      </trkpt>
      <trkpt lat="48.6161520" lon="14.3120880">
        <ele>585.0</ele>
        <time>2019-08-07T12:18:53Z</time>
      </trkpt>
      <trkpt lat="48.6161350" lon="14.3120760">
        <ele>585.0</ele>
        <time>2019-08-07T12:18:54Z</time>
      </trkpt>
      <trkpt lat="48.6161180" lon="14.3120610">
        <ele>585.2</ele>
        <time>2019-08-07T12:18:55Z</time>
      </trkpt>
      <trkpt lat="48.6161020" lon="14.3120470">
        <ele>585.4</ele>
        <time>2019-08-07T12:18:56Z</time>
      </trkpt>
      <trkpt lat="48.6160870" lon="14.3120330">
        <ele>585.4</ele>
        <time>2019-08-07T12:18:57Z</time>
      </trkpt>
      <trkpt lat="48.6160690" lon="14.3120250">
        <ele>585.6</ele>
        <time>2019-08-07T12:18:58Z</time>
      </trkpt>
      <trkpt lat="48.6160520" lon="14.3120170">
        <ele>585.6</ele>
        <time>2019-08-07T12:18:59Z</time>
      </trkpt>
      <trkpt lat="48.6160330" lon="14.3120080">
        <ele>585.8</ele>
        <time>2019-08-07T12:19:00Z</time>
      </trkpt>
      <trkpt lat="48.6160150" lon="14.3120000">
        <ele>586.0</ele>
        <time>2019-08-07T12:19:01Z</time>
      </trkpt>
      <trkpt lat="48.6159930" lon="14.3119920">
        <ele>586.0</ele>
        <time>2019-08-07T12:19:02Z</time>
      </trkpt>
      <trkpt lat="48.6159710" lon="14.3119870">
        <ele>586.2</ele>
        <time>2019-08-07T12:19:03Z</time>
      </trkpt>
      <trkpt lat="48.6159470" lon="14.3119870">
        <ele>586.4</ele>
        <time>2019-08-07T12:19:04Z</time>
      </trkpt>
      <trkpt lat="48.6159230" lon="14.3119850">
        <ele>586.4</ele>
        <time>2019-08-07T12:19:05Z</time>
      </trkpt>
      <trkpt lat="48.6159010" lon="14.3119750">
        <ele>586.6</ele>
        <time>2019-08-07T12:19:06Z</time>
      </trkpt>
      <trkpt lat="48.6158790" lon="14.3119650">
        <ele>586.8</ele>
        <time>2019-08-07T12:19:07Z</time>
      </trkpt>
      <trkpt lat="48.6158560" lon="14.3119550">
        <ele>586.8</ele>
        <time>2019-08-07T12:19:08Z</time>
      </trkpt>
      <trkpt lat="48.6158350" lon="14.3119470">
        <ele>587.0</ele>
        <time>2019-08-07T12:19:09Z</time>
      </trkpt>
      <trkpt lat="48.6158140" lon="14.3119380">
        <ele>587.2</ele>
        <time>2019-08-07T12:19:10Z</time>
      </trkpt>
      <trkpt lat="48.6157910" lon="14.3119300">
        <ele>587.2</ele>
        <time>2019-08-07T12:19:11Z</time>
      </trkpt>
      <trkpt lat="48.6157710" lon="14.3119240">
        <ele>587.4</ele>
        <time>2019-08-07T12:19:12Z</time>
      </trkpt>
      <trkpt lat="48.6157490" lon="14.3119150">
        <ele>587.6</ele>
        <time>2019-08-07T12:19:13Z</time>
      </trkpt>
      <trkpt lat="48.6157280" lon="14.3119030">
        <ele>587.6</ele>
        <time>2019-08-07T12:19:14Z</time>
      </trkpt>
      <trkpt lat="48.6157060" lon="14.3118920">
        <ele>587.8</ele>
        <time>2019-08-07T12:19:15Z</time>
      </trkpt>
      <trkpt lat="48.6156860" lon="14.3118830">
        <ele>588.0</ele>
        <time>2019-08-07T12:19:16Z</time>
      </trkpt>
      <trkpt lat="48.6156640" lon="14.3118710">
        <ele>588.2</ele>
        <time>2019-08-07T12:19:17Z</time>
      </trkpt>
      <trkpt lat="48.6156430" lon="14.3118620">
        <ele>588.2</ele>
        <time>2019-08-07T12:19:18Z</time>
      </trkpt>
      <trkpt lat="48.6156230" lon="14.3118550">
        <ele>588.4</ele>
        <time>2019-08-07T12:19:19Z</time>
      </trkpt>
      <trkpt lat="48.6156010" lon="14.3118490">
        <ele>588.6</ele>
        <time>2019-08-07T12:19:20Z</time>
      </trkpt>
      <trkpt lat="48.6155800" lon="14.3118410">
        <ele>588.6</ele>
        <time>2019-08-07T12:19:21Z</time>
      </trkpt>
      <trkpt lat="48.6155580" lon="14.3118340">
        <ele>588.8</ele>
        <time>2019-08-07T12:19:22Z</time>
      </trkpt>
      <trkpt lat="48.6155370" lon="14.3118250">
        <ele>589.0</ele>
        <time>2019-08-07T12:19:23Z</time>
      </trkpt>
      <trkpt lat="48.6155160" lon="14.3118170">
        <ele>589.2</ele>
        <time>2019-08-07T12:19:24Z</time>
      </trkpt>
      <trkpt lat="48.6154940" lon="14.3118130">
        <ele>589.2</ele>
        <time>2019-08-07T12:19:25Z</time>
      </trkpt>
      <trkpt lat="48.6154710" lon="14.3118090">
        <ele>589.4</ele>
        <time>2019-08-07T12:19:26Z</time>
      </trkpt>
      <trkpt lat="48.6154480" lon="14.3118020">
        <ele>589.6</ele>
        <time>2019-08-07T12:19:27Z</time>
      </trkpt>
      <trkpt lat="48.6154260" lon="14.3117930">
        <ele>589.8</ele>
        <time>2019-08-07T12:19:28Z</time>
      </trkpt>
      <trkpt lat="48.6154040" lon="14.3117840">
        <ele>590.0</ele>
        <time>2019-08-07T12:19:29Z</time>
      </trkpt>
      <trkpt lat="48.6153830" lon="14.3117750">
        <ele>590.0</ele>
        <time>2019-08-07T12:19:30Z</time>
      </trkpt>
      <trkpt lat="48.6153600" lon="14.3117650">
        <ele>590.2</ele>
        <time>2019-08-07T12:19:31Z</time>
      </trkpt>
      <trkpt lat="48.6153390" lon="14.3117570">
        <ele>590.4</ele>
        <time>2019-08-07T12:19:32Z</time>
      </trkpt>
      <trkpt lat="48.6153160" lon="14.3117490">
        <ele>590.6</ele>
        <time>2019-08-07T12:19:33Z</time>
      </trkpt>
      <trkpt lat="48.6152970" lon="14.3117420">
        <ele>590.6</ele>
        <time>2019-08-07T12:19:34Z</time>
      </trkpt>
      <trkpt lat="48.6152790" lon="14.3117360">
        <ele>590.8</ele>
        <time>2019-08-07T12:19:35Z</time>
      </trkpt>
      <trkpt lat="48.6152610" lon="14.3117300">
        <ele>591.0</ele>
        <time>2019-08-07T12:19:36Z</time>
      </trkpt>
      <trkpt lat="48.6152410" lon="14.3117220">
        <ele>591.0</ele>
        <time>2019-08-07T12:19:37Z</time>
      </trkpt>
      <trkpt lat="48.6152200" lon="14.3117160">
        <ele>591.2</ele>
        <time>2019-08-07T12:19:38Z</time>
      </trkpt>
      <trkpt lat="48.6151980" lon="14.3117110">
        <ele>591.4</ele>
        <time>2019-08-07T12:19:39Z</time>
      </trkpt>
      <trkpt lat="48.6151770" lon="14.3117080">
        <ele>591.4</ele>
        <time>2019-08-07T12:19:40Z</time>
      </trkpt>
      <trkpt lat="48.6151560" lon="14.3117060">
        <ele>591.6</ele>
        <time>2019-08-07T12:19:41Z</time>
      </trkpt>
      <trkpt lat="48.6151340" lon="14.3117040">
        <ele>591.8</ele>
        <time>2019-08-07T12:19:42Z</time>
      </trkpt>
      <trkpt lat="48.6151090" lon="14.3117010">
        <ele>592.0</ele>
        <time>2019-08-07T12:19:43Z</time>
      </trkpt>
      <trkpt lat="48.6150880" lon="14.3116970">
        <ele>592.0</ele>
        <time>2019-08-07T12:19:44Z</time>
      </trkpt>
      <trkpt lat="48.6150660" lon="14.3116920">
        <ele>592.2</ele>
        <time>2019-08-07T12:19:45Z</time>
      </trkpt>
      <trkpt lat="48.6150440" lon="14.3116850">
        <ele>592.4</ele>
        <time>2019-08-07T12:19:46Z</time>
      </trkpt>
      <trkpt lat="48.6150210" lon="14.3116770">
        <ele>592.6</ele>
        <time>2019-08-07T12:19:47Z</time>
      </trkpt>
      <trkpt lat="48.6150000" lon="14.3116730">
        <ele>592.6</ele>
        <time>2019-08-07T12:19:48Z</time>
      </trkpt>
      <trkpt lat="48.6149780" lon="14.3116690">
        <ele>592.8</ele>
        <time>2019-08-07T12:19:49Z</time>
      </trkpt>
      <trkpt lat="48.6149580" lon="14.3116650">
        <ele>593.0</ele>
        <time>2019-08-07T12:19:50Z</time>
      </trkpt>
      <trkpt lat="48.6149360" lon="14.3116590">
        <ele>593.2</ele>
        <time>2019-08-07T12:19:51Z</time>
      </trkpt>
      <trkpt lat="48.6149150" lon="14.3116510">
        <ele>593.4</ele>
        <time>2019-08-07T12:19:52Z</time>
      </trkpt>
      <trkpt lat="48.6148930" lon="14.3116430">
        <ele>593.4</ele>
        <time>2019-08-07T12:19:53Z</time>
      </trkpt>
      <trkpt lat="48.6148740" lon="14.3116320">
        <ele>593.6</ele>
        <time>2019-08-07T12:19:54Z</time>
      </trkpt>
      <trkpt lat="48.6148520" lon="14.3116240">
        <ele>593.8</ele>
        <time>2019-08-07T12:19:55Z</time>
      </trkpt>
      <trkpt lat="48.6148290" lon="14.3116210">
        <ele>593.8</ele>
        <time>2019-08-07T12:19:56Z</time>
      </trkpt>
      <trkpt lat="48.6148070" lon="14.3116170">
        <ele>594.0</ele>
        <time>2019-08-07T12:19:57Z</time>
      </trkpt>
      <trkpt lat="48.6147840" lon="14.3116140">
        <ele>594.2</ele>
        <time>2019-08-07T12:19:58Z</time>
      </trkpt>
      <trkpt lat="48.6147590" lon="14.3116140">
        <ele>594.4</ele>
        <time>2019-08-07T12:19:59Z</time>
      </trkpt>
      <trkpt lat="48.6147380" lon="14.3116110">
        <ele>594.4</ele>
        <time>2019-08-07T12:20:00Z</time>
      </trkpt>
      <trkpt lat="48.6147150" lon="14.3116070">
        <ele>594.6</ele>
        <time>2019-08-07T12:20:01Z</time>
      </trkpt>
      <trkpt lat="48.6146950" lon="14.3116020">
        <ele>594.8</ele>
        <time>2019-08-07T12:20:02Z</time>
      </trkpt>
      <trkpt lat="48.6146750" lon="14.3115920">
        <ele>594.8</ele>
        <time>2019-08-07T12:20:03Z</time>
      </trkpt>
      <trkpt lat="48.6146520" lon="14.3115840">
        <ele>595.0</ele>
        <time>2019-08-07T12:20:04Z</time>
      </trkpt>
      <trkpt lat="48.6146290" lon="14.3115780">
        <ele>595.2</ele>
        <time>2019-08-07T12:20:05Z</time>
      </trkpt>
      <trkpt lat="48.6146050" lon="14.3115700">
        <ele>595.4</ele>
        <time>2019-08-07T12:20:06Z</time>
      </trkpt>
      <trkpt lat="48.6145810" lon="14.3115600">
        <ele>595.6</ele>
        <time>2019-08-07T12:20:07Z</time>
      </trkpt>
      <trkpt lat="48.6145610" lon="14.3115520">
        <ele>595.6</ele>
        <time>2019-08-07T12:20:08Z</time>
      </trkpt>
      <trkpt lat="48.6145390" lon="14.3115460">
        <ele>595.8</ele>
        <time>2019-08-07T12:20:09Z</time>
      </trkpt>
      <trkpt lat="48.6145170" lon="14.3115390">
        <ele>596.0</ele>
        <time>2019-08-07T12:20:10Z</time>
      </trkpt>
      <trkpt lat="48.6144940" lon="14.3115340">
        <ele>596.2</ele>
        <time>2019-08-07T12:20:11Z</time>
      </trkpt>
      <trkpt lat="48.6144730" lon="14.3115290">
        <ele>596.2</ele>
        <time>2019-08-07T12:20:12Z</time>
      </trkpt>
      <trkpt lat="48.6144510" lon="14.3115260">
        <ele>596.4</ele>
        <time>2019-08-07T12:20:13Z</time>
      </trkpt>
      <trkpt lat="48.6144300" lon="14.3115190">
        <ele>596.6</ele>
        <time>2019-08-07T12:20:14Z</time>
      </trkpt>
      <trkpt lat="48.6144080" lon="14.3115140">
        <ele>596.6</ele>
        <time>2019-08-07T12:20:15Z</time>
      </trkpt>
      <trkpt lat="48.6143860" lon="14.3115100">
        <ele>596.8</ele>
        <time>2019-08-07T12:20:16Z</time>
      </trkpt>
      <trkpt lat="48.6143650" lon="14.3115070">
        <ele>597.0</ele>
        <time>2019-08-07T12:20:17Z</time>
      </trkpt>
      <trkpt lat="48.6143440" lon="14.3115030">
        <ele>597.0</ele>
        <time>2019-08-07T12:20:18Z</time>
      </trkpt>
      <trkpt lat="48.6143210" lon="14.3114990">
        <ele>597.2</ele>
        <time>2019-08-07T12:20:19Z</time>
      </trkpt>
      <trkpt lat="48.6143000" lon="14.3114940">
        <ele>597.4</ele>
        <time>2019-08-07T12:20:20Z</time>
      </trkpt>
      <trkpt lat="48.6142780" lon="14.3114910">
        <ele>597.6</ele>
        <time>2019-08-07T12:20:21Z</time>
      </trkpt>
      <trkpt lat="48.6142580" lon="14.3114880">
        <ele>597.6</ele>
        <time>2019-08-07T12:20:22Z</time>
      </trkpt>
      <trkpt lat="48.6142360" lon="14.3114880">
        <ele>597.8</ele>
        <time>2019-08-07T12:20:23Z</time>
      </trkpt>
      <trkpt lat="48.6142150" lon="14.3114890">
        <ele>598.0</ele>
        <time>2019-08-07T12:20:24Z</time>
      </trkpt>
      <trkpt lat="48.6141930" lon="14.3114900">
        <ele>598.2</ele>
        <time>2019-08-07T12:20:25Z</time>
      </trkpt>
      <trkpt lat="48.6141730" lon="14.3114900">
        <ele>598.2</ele>
        <time>2019-08-07T12:20:26Z</time>
      </trkpt>
      <trkpt lat="48.6141510" lon="14.3114890">
        <ele>598.4</ele>
        <time>2019-08-07T12:20:27Z</time>
      </trkpt>
      <trkpt lat="48.6141290" lon="14.3114860">
        <ele>598.6</ele>
        <time>2019-08-07T12:20:28Z</time>
      </trkpt>
      <trkpt lat="48.6141080" lon="14.3114810">
        <ele>598.6</ele>
        <time>2019-08-07T12:20:29Z</time>
      </trkpt>
      <trkpt lat="48.6140860" lon="14.3114790">
        <ele>598.8</ele>
        <time>2019-08-07T12:20:30Z</time>
      </trkpt>
      <trkpt lat="48.6140640" lon="14.3114760">
        <ele>599.0</ele>
        <time>2019-08-07T12:20:31Z</time>
      </trkpt>
      <trkpt lat="48.6140430" lon="14.3114730">
        <ele>599.0</ele>
        <time>2019-08-07T12:20:32Z</time>
      </trkpt>
      <trkpt lat="48.6140210" lon="14.3114720">
        <ele>599.2</ele>
        <time>2019-08-07T12:20:33Z</time>
      </trkpt>
      <trkpt lat="48.6140000" lon="14.3114720">
        <ele>599.2</ele>
        <time>2019-08-07T12:20:34Z</time>
      </trkpt>
      <trkpt lat="48.6139790" lon="14.3114710">
        <ele>599.4</ele>
        <time>2019-08-07T12:20:35Z</time>
      </trkpt>
      <trkpt lat="48.6139580" lon="14.3114690">
        <ele>599.4</ele>
        <time>2019-08-07T12:20:36Z</time>
      </trkpt>
      <trkpt lat="48.6139360" lon="14.3114660">
        <ele>599.6</ele>
        <time>2019-08-07T12:20:37Z</time>
      </trkpt>
      <trkpt lat="48.6139160" lon="14.3114650">
        <ele>599.6</ele>
        <time>2019-08-07T12:20:38Z</time>
      </trkpt>
      <trkpt lat="48.6138930" lon="14.3114620">
        <ele>599.8</ele>
        <time>2019-08-07T12:20:39Z</time>
      </trkpt>
      <trkpt lat="48.6138710" lon="14.3114530">
        <ele>599.8</ele>
        <time>2019-08-07T12:20:40Z</time>
      </trkpt>
      <trkpt lat="48.6138480" lon="14.3114450">
        <ele>599.8</ele>
        <time>2019-08-07T12:20:41Z</time>
      </trkpt>
      <trkpt lat="48.6138270" lon="14.3114350">
        <ele>599.8</ele>
        <time>2019-08-07T12:20:42Z</time>
      </trkpt>
      <trkpt lat="48.6138080" lon="14.3114270">
        <ele>599.8</ele>
        <time>2019-08-07T12:20:43Z</time>
      </trkpt>
      <trkpt lat="48.6137860" lon="14.3114190">
        <ele>599.8</ele>
        <time>2019-08-07T12:20:44Z</time>
      </trkpt>
      <trkpt lat="48.6137630" lon="14.3114130">
        <ele>599.8</ele>
        <time>2019-08-07T12:20:45Z</time>
      </trkpt>
      <trkpt lat="48.6137450" lon="14.3114100">
        <ele>599.8</ele>
        <time>2019-08-07T12:20:46Z</time>
      </trkpt>
      <trkpt lat="48.6137250" lon="14.3114030">
        <ele>599.8</ele>
        <time>2019-08-07T12:20:47Z</time>
      </trkpt>
      <trkpt lat="48.6137070" lon="14.3113910">
        <ele>599.8</ele>
        <time>2019-08-07T12:20:48Z</time>
      </trkpt>
      <trkpt lat="48.6136920" lon="14.3113760">
        <ele>599.8</ele>
        <time>2019-08-07T12:20:49Z</time>
      </trkpt>
      <trkpt lat="48.6136820" lon="14.3113540">
        <ele>600.0</ele>
        <time>2019-08-07T12:20:50Z</time>
      </trkpt>
      <trkpt lat="48.6136730" lon="14.3113300">
        <ele>600.0</ele>
        <time>2019-08-07T12:20:51Z</time>
      </trkpt>
      <trkpt lat="48.6136700" lon="14.3113040">
        <ele>600.0</ele>
        <time>2019-08-07T12:20:52Z</time>
      </trkpt>
      <trkpt lat="48.6136710" lon="14.3112800">
        <ele>600.2</ele>
        <time>2019-08-07T12:20:53Z</time>
      </trkpt>
      <trkpt lat="48.6136700" lon="14.3112590">
        <ele>600.2</ele>
        <time>2019-08-07T12:20:54Z</time>
      </trkpt>
      <trkpt lat="48.6136680" lon="14.3112450">
        <ele>600.2</ele>
        <time>2019-08-07T12:20:55Z</time>
      </trkpt>
      <trkpt lat="48.6136640" lon="14.3112370">
        <ele>600.2</ele>
        <time>2019-08-07T12:20:56Z</time>
      </trkpt>
      <trkpt lat="48.6136470" lon="14.3112520">
        <ele>600.2</ele>
        <time>2019-08-07T12:20:57Z</time>
      </trkpt>
      <trkpt lat="48.6136330" lon="14.3112710">
        <ele>600.4</ele>
        <time>2019-08-07T12:20:58Z</time>
      </trkpt>
      <trkpt lat="48.6136180" lon="14.3112910">
        <ele>600.4</ele>
        <time>2019-08-07T12:20:59Z</time>
      </trkpt>
      <trkpt lat="48.6136040" lon="14.3113100">
        <ele>600.4</ele>
        <time>2019-08-07T12:22:41Z</time>
      </trkpt>
      <trkpt lat="48.6135890" lon="14.3113300">
        <ele>600.4</ele>
        <time>2019-08-07T12:22:42Z</time>
      </trkpt>
      <trkpt lat="48.6135850" lon="14.3113130">
        <ele>600.4</ele>
        <time>2019-08-07T12:22:43Z</time>
      </trkpt>
      <trkpt lat="48.6135830" lon="14.3112930">
        <ele>600.4</ele>
        <time>2019-08-07T12:22:44Z</time>
      </trkpt>
      <trkpt lat="48.6135840" lon="14.3112730">
        <ele>600.4</ele>
        <time>2019-08-07T12:22:45Z</time>
      </trkpt>
      <trkpt lat="48.6135850" lon="14.3112640">
        <ele>600.4</ele>
        <time>2019-08-07T12:22:46Z</time>
      </trkpt>
      <trkpt lat="48.6135860" lon="14.3112590">
        <ele>600.6</ele>
        <time>2019-08-07T12:22:47Z</time>
      </trkpt>
      <trkpt lat="48.6135850" lon="14.3112570">
        <ele>600.6</ele>
        <time>2019-08-07T12:22:48Z</time>
      </trkpt>
      <trkpt lat="48.6135850" lon="14.3112570">
        <ele>600.6</ele>
        <time>2019-08-07T12:22:49Z</time>
      </trkpt>
      <trkpt lat="48.6135850" lon="14.3112570">
        <ele>600.6</ele>
        <time>2019-08-07T12:22:50Z</time>
      </trkpt>
      <trkpt lat="48.6135700" lon="14.3111390">
        <ele>600.6</ele>
        <time>2019-08-07T12:24:19Z</time>
      </trkpt>
      <trkpt lat="48.6135700" lon="14.3111530">
        <ele>600.6</ele>
        <time>2019-08-07T12:24:20Z</time>
      </trkpt>
      <trkpt lat="48.6135680" lon="14.3111690">
        <ele>600.6</ele>
        <time>2019-08-07T12:24:21Z</time>
      </trkpt>
      <trkpt lat="48.6135660" lon="14.3111850">
        <ele>600.6</ele>
        <time>2019-08-07T12:24:22Z</time>
      </trkpt>
      <trkpt lat="48.6135590" lon="14.3111970">
        <ele>600.6</ele>
        <time>2019-08-07T12:24:23Z</time>
      </trkpt>
      <trkpt lat="48.6135570" lon="14.3112010">
        <ele>600.6</ele>
        <time>2019-08-07T12:24:24Z</time>
      </trkpt>
      <trkpt lat="48.6135610" lon="14.3112070">
        <ele>600.6</ele>
        <time>2019-08-07T12:24:25Z</time>
      </trkpt>
      <trkpt lat="48.6135660" lon="14.3112170">
        <ele>600.6</ele>
        <time>2019-08-07T12:24:26Z</time>
      </trkpt>
      <trkpt lat="48.6135690" lon="14.3112300">
        <ele>600.4</ele>
        <time>2019-08-07T12:24:27Z</time>
      </trkpt>
      <trkpt lat="48.6135700" lon="14.3112410">
        <ele>600.4</ele>
        <time>2019-08-07T12:24:28Z</time>
      </trkpt>
      <trkpt lat="48.6135720" lon="14.3112490">
        <ele>600.4</ele>
        <time>2019-08-07T12:24:29Z</time>
      </trkpt>
      <trkpt lat="48.6135740" lon="14.3112530">
        <ele>600.4</ele>
        <time>2019-08-07T12:24:30Z</time>
      </trkpt>
      <trkpt lat="48.6135750" lon="14.3112540">
        <ele>600.4</ele>
        <time>2019-08-07T12:24:31Z</time>
      </trkpt>
      <trkpt lat="48.6135750" lon="14.3112550">
        <ele>600.4</ele>
        <time>2019-08-07T12:24:32Z</time>
      </trkpt>
      <trkpt lat="48.6135750" lon="14.3112550">
        <ele>600.4</ele>
        <time>2019-08-07T12:24:33Z</time>
      </trkpt>
      <trkpt lat="48.6135820" lon="14.3112750">
        <ele>600.2</ele>
        <time>2019-08-07T12:24:44Z</time>
      </trkpt>
      <trkpt lat="48.6135850" lon="14.3112960">
        <ele>600.2</ele>
        <time>2019-08-07T12:24:45Z</time>
      </trkpt>
      <trkpt lat="48.6135860" lon="14.3113230">
        <ele>600.2</ele>
        <time>2019-08-07T12:24:46Z</time>
      </trkpt>
      <trkpt lat="48.6135920" lon="14.3113520">
        <ele>600.2</ele>
        <time>2019-08-07T12:24:47Z</time>
      </trkpt>
      <trkpt lat="48.6136040" lon="14.3113830">
        <ele>600.2</ele>
        <time>2019-08-07T12:24:48Z</time>
      </trkpt>
      <trkpt lat="48.6136220" lon="14.3114100">
        <ele>600.0</ele>
        <time>2019-08-07T12:24:49Z</time>
      </trkpt>
      <trkpt lat="48.6136430" lon="14.3114310">
        <ele>600.0</ele>
        <time>2019-08-07T12:24:50Z</time>
      </trkpt>
      <trkpt lat="48.6136660" lon="14.3114490">
        <ele>600.0</ele>
        <time>2019-08-07T12:24:51Z</time>
      </trkpt>
      <trkpt lat="48.6136890" lon="14.3114620">
        <ele>600.0</ele>
        <time>2019-08-07T12:24:52Z</time>
      </trkpt>
      <trkpt lat="48.6137100" lon="14.3114710">
        <ele>600.0</ele>
        <time>2019-08-07T12:24:53Z</time>
      </trkpt>
      <trkpt lat="48.6137300" lon="14.3114760">
        <ele>600.0</ele>
        <time>2019-08-07T12:24:54Z</time>
      </trkpt>
      <trkpt lat="48.6137520" lon="14.3114790">
        <ele>600.0</ele>
        <time>2019-08-07T12:24:55Z</time>
      </trkpt>
      <trkpt lat="48.6137710" lon="14.3114820">
        <ele>600.0</ele>
        <time>2019-08-07T12:24:56Z</time>
      </trkpt>
      <trkpt lat="48.6137900" lon="14.3114840">
        <ele>600.0</ele>
        <time>2019-08-07T12:24:57Z</time>
      </trkpt>
      <trkpt lat="48.6138080" lon="14.3114850">
        <ele>600.0</ele>
        <time>2019-08-07T12:24:58Z</time>
      </trkpt>
      <trkpt lat="48.6138260" lon="14.3114830">
        <ele>600.2</ele>
        <time>2019-08-07T12:24:59Z</time>
      </trkpt>
      <trkpt lat="48.6138420" lon="14.3114820">
        <ele>600.2</ele>
        <time>2019-08-07T12:25:00Z</time>
      </trkpt>
      <trkpt lat="48.6138590" lon="14.3114820">
        <ele>600.2</ele>
        <time>2019-08-07T12:25:01Z</time>
      </trkpt>
      <trkpt lat="48.6138760" lon="14.3114830">
        <ele>600.2</ele>
        <time>2019-08-07T12:25:02Z</time>
      </trkpt>
      <trkpt lat="48.6138950" lon="14.3114840">
        <ele>600.2</ele>
        <time>2019-08-07T12:25:03Z</time>
      </trkpt>
      <trkpt lat="48.6139150" lon="14.3114850">
        <ele>600.2</ele>
        <time>2019-08-07T12:25:04Z</time>
      </trkpt>
      <trkpt lat="48.6139330" lon="14.3114880">
        <ele>600.0</ele>
        <time>2019-08-07T12:25:05Z</time>
      </trkpt>
      <trkpt lat="48.6139530" lon="14.3114960">
        <ele>600.0</ele>
        <time>2019-08-07T12:25:06Z</time>
      </trkpt>
      <trkpt lat="48.6139710" lon="14.3115090">
        <ele>600.0</ele>
        <time>2019-08-07T12:25:07Z</time>
      </trkpt>
      <trkpt lat="48.6139870" lon="14.3115260">
        <ele>600.0</ele>
        <time>2019-08-07T12:25:08Z</time>
      </trkpt>
      <trkpt lat="48.6140040" lon="14.3115430">
        <ele>600.2</ele>
        <time>2019-08-07T12:25:09Z</time>
      </trkpt>
      <trkpt lat="48.6140230" lon="14.3115570">
        <ele>600.2</ele>
        <time>2019-08-07T12:25:10Z</time>
      </trkpt>
      <trkpt lat="48.6140410" lon="14.3115730">
        <ele>600.2</ele>
        <time>2019-08-07T12:25:11Z</time>
      </trkpt>
      <trkpt lat="48.6140600" lon="14.3115890">
        <ele>600.2</ele>
        <time>2019-08-07T12:25:12Z</time>
      </trkpt>
      <trkpt lat="48.6140820" lon="14.3116060">
        <ele>600.2</ele>
        <time>2019-08-07T12:25:13Z</time>
      </trkpt>
      <trkpt lat="48.6141030" lon="14.3116210">
        <ele>600.2</ele>
        <time>2019-08-07T12:25:14Z</time>
      </trkpt>
      <trkpt lat="48.6141230" lon="14.3116360">
        <ele>600.2</ele>
        <time>2019-08-07T12:25:15Z</time>
      </trkpt>
      <trkpt lat="48.6141420" lon="14.3116530">
        <ele>600.2</ele>
        <time>2019-08-07T12:25:16Z</time>
      </trkpt>
      <trkpt lat="48.6141630" lon="14.3116690">
        <ele>600.2</ele>
        <time>2019-08-07T12:25:17Z</time>
      </trkpt>
      <trkpt lat="48.6141830" lon="14.3116840">
        <ele>600.2</ele>
        <time>2019-08-07T12:25:18Z</time>
      </trkpt>
      <trkpt lat="48.6142030" lon="14.3116970">
        <ele>600.2</ele>
        <time>2019-08-07T12:25:19Z</time>
      </trkpt>
      <trkpt lat="48.6142230" lon="14.3117120">
        <ele>600.2</ele>
        <time>2019-08-07T12:25:20Z</time>
      </trkpt>
      <trkpt lat="48.6142430" lon="14.3117270">
        <ele>600.2</ele>
        <time>2019-08-07T12:25:21Z</time>
      </trkpt>
      <trkpt lat="48.6142650" lon="14.3117430">
        <ele>600.2</ele>
        <time>2019-08-07T12:25:22Z</time>
      </trkpt>
      <trkpt lat="48.6142870" lon="14.3117630">
        <ele>600.0</ele>
        <time>2019-08-07T12:25:23Z</time>
      </trkpt>
      <trkpt lat="48.6143110" lon="14.3117850">
        <ele>600.0</ele>
        <time>2019-08-07T12:25:24Z</time>
      </trkpt>
      <trkpt lat="48.6143380" lon="14.3118050">
        <ele>599.8</ele>
        <time>2019-08-07T12:25:25Z</time>
      </trkpt>
      <trkpt lat="48.6143640" lon="14.3118250">
        <ele>599.8</ele>
        <time>2019-08-07T12:25:26Z</time>
      </trkpt>
      <trkpt lat="48.6143900" lon="14.3118430">
        <ele>599.6</ele>
        <time>2019-08-07T12:25:27Z</time>
      </trkpt>
      <trkpt lat="48.6144110" lon="14.3118590">
        <ele>599.4</ele>
        <time>2019-08-07T12:25:28Z</time>
      </trkpt>
      <trkpt lat="48.6144330" lon="14.3118720">
        <ele>599.4</ele>
        <time>2019-08-07T12:25:29Z</time>
      </trkpt>
      <trkpt lat="48.6144530" lon="14.3118820">
        <ele>599.2</ele>
        <time>2019-08-07T12:25:30Z</time>
      </trkpt>
      <trkpt lat="48.6144700" lon="14.3118870">
        <ele>599.2</ele>
        <time>2019-08-07T12:25:31Z</time>
      </trkpt>
      <trkpt lat="48.6144830" lon="14.3118860">
        <ele>599.0</ele>
        <time>2019-08-07T12:25:32Z</time>
      </trkpt>
      <trkpt lat="48.6144930" lon="14.3118780">
        <ele>598.8</ele>
        <time>2019-08-07T12:25:33Z</time>
      </trkpt>
      <trkpt lat="48.6144990" lon="14.3118660">
        <ele>598.8</ele>
        <time>2019-08-07T12:25:34Z</time>
      </trkpt>
      <trkpt lat="48.6145020" lon="14.3118520">
        <ele>598.8</ele>
        <time>2019-08-07T12:25:35Z</time>
      </trkpt>
      <trkpt lat="48.6145040" lon="14.3118450">
        <ele>598.8</ele>
        <time>2019-08-07T12:25:36Z</time>
      </trkpt>
      <trkpt lat="48.6145070" lon="14.3118450">
        <ele>598.8</ele>
        <time>2019-08-07T12:25:37Z</time>
      </trkpt>
      <trkpt lat="48.6145070" lon="14.3118470">
        <ele>598.6</ele>
        <time>2019-08-07T12:25:38Z</time>
      </trkpt>
      <trkpt lat="48.6145070" lon="14.3118470">
        <ele>598.6</ele>
        <time>2019-08-07T12:25:39Z</time>
      </trkpt>
      <trkpt lat="48.6145840" lon="14.3120050">
        <ele>598.4</ele>
        <time>2019-08-07T12:36:30Z</time>
      </trkpt>
      <trkpt lat="48.6146050" lon="14.3120150">
        <ele>598.4</ele>
        <time>2019-08-07T12:36:31Z</time>
      </trkpt>
      <trkpt lat="48.6146420" lon="14.3120310">
        <ele>598.4</ele>
        <time>2019-08-07T12:36:32Z</time>
      </trkpt>
      <trkpt lat="48.6146740" lon="14.3120440">
        <ele>598.2</ele>
        <time>2019-08-07T12:36:33Z</time>
      </trkpt>
      <trkpt lat="48.6147060" lon="14.3120550">
        <ele>598.2</ele>
        <time>2019-08-07T12:36:34Z</time>
      </trkpt>
      <trkpt lat="48.6147370" lon="14.3120680">
        <ele>598.0</ele>
        <time>2019-08-07T12:36:35Z</time>
      </trkpt>
      <trkpt lat="48.6147710" lon="14.3120790">
        <ele>597.8</ele>
        <time>2019-08-07T12:36:36Z</time>
      </trkpt>
      <trkpt lat="48.6148050" lon="14.3120900">
        <ele>597.6</ele>
        <time>2019-08-07T12:36:37Z</time>
      </trkpt>
      <trkpt lat="48.6148380" lon="14.3121000">
        <ele>597.4</ele>
        <time>2019-08-07T12:36:38Z</time>
      </trkpt>
      <trkpt lat="48.6148680" lon="14.3121120">
        <ele>597.2</ele>
        <time>2019-08-07T12:36:39Z</time>
      </trkpt>
      <trkpt lat="48.6148960" lon="14.3121230">
        <ele>597.0</ele>
        <time>2019-08-07T12:36:40Z</time>
      </trkpt>
      <trkpt lat="48.6149240" lon="14.3121310">
        <ele>596.6</ele>
        <time>2019-08-07T12:36:41Z</time>
      </trkpt>
      <trkpt lat="48.6149570" lon="14.3121420">
        <ele>596.4</ele>
        <time>2019-08-07T12:36:42Z</time>
      </trkpt>
      <trkpt lat="48.6149860" lon="14.3121530">
        <ele>596.2</ele>
        <time>2019-08-07T12:36:43Z</time>
      </trkpt>
      <trkpt lat="48.6150110" lon="14.3121600">
        <ele>596.0</ele>
        <time>2019-08-07T12:36:44Z</time>
      </trkpt>
      <trkpt lat="48.6150430" lon="14.3121680">
        <ele>595.8</ele>
        <time>2019-08-07T12:36:45Z</time>
      </trkpt>
      <trkpt lat="48.6150700" lon="14.3121770">
        <ele>595.4</ele>
        <time>2019-08-07T12:36:46Z</time>
      </trkpt>
      <trkpt lat="48.6151000" lon="14.3121870">
        <ele>595.2</ele>
        <time>2019-08-07T12:36:47Z</time>
      </trkpt>
      <trkpt lat="48.6151330" lon="14.3122010">
        <ele>595.0</ele>
        <time>2019-08-07T12:36:48Z</time>
      </trkpt>
      <trkpt lat="48.6151700" lon="14.3122170">
        <ele>594.8</ele>
        <time>2019-08-07T12:36:49Z</time>
      </trkpt>
      <trkpt lat="48.6152100" lon="14.3122320">
        <ele>594.4</ele>
        <time>2019-08-07T12:36:50Z</time>
      </trkpt>
      <trkpt lat="48.6152470" lon="14.3122440">
        <ele>594.2</ele>
        <time>2019-08-07T12:36:51Z</time>
      </trkpt>
      <trkpt lat="48.6152940" lon="14.3122560">
        <ele>593.8</ele>
        <time>2019-08-07T12:36:52Z</time>
      </trkpt>
      <trkpt lat="48.6153360" lon="14.3122650">
        <ele>593.6</ele>
        <time>2019-08-07T12:36:53Z</time>
      </trkpt>
      <trkpt lat="48.6153750" lon="14.3122760">
        <ele>593.2</ele>
        <time>2019-08-07T12:36:54Z</time>
      </trkpt>
      <trkpt lat="48.6154140" lon="14.3122870">
        <ele>592.8</ele>
        <time>2019-08-07T12:36:55Z</time>
      </trkpt>
      <trkpt lat="48.6154490" lon="14.3122990">
        <ele>592.6</ele>
        <time>2019-08-07T12:36:56Z</time>
      </trkpt>
      <trkpt lat="48.6154850" lon="14.3123120">
        <ele>592.2</ele>
        <time>2019-08-07T12:36:57Z</time>
      </trkpt>
      <trkpt lat="48.6155230" lon="14.3123260">
        <ele>592.0</ele>
        <time>2019-08-07T12:36:58Z</time>
      </trkpt>
      <trkpt lat="48.6155630" lon="14.3123450">
        <ele>591.6</ele>
        <time>2019-08-07T12:36:59Z</time>
      </trkpt>
      <trkpt lat="48.6156080" lon="14.3123640">
        <ele>591.4</ele>
        <time>2019-08-07T12:37:00Z</time>
      </trkpt>
      <trkpt lat="48.6156560" lon="14.3123760">
        <ele>591.0</ele>
        <time>2019-08-07T12:37:01Z</time>
      </trkpt>
      <trkpt lat="48.6157070" lon="14.3123930">
        <ele>590.6</ele>
        <time>2019-08-07T12:37:02Z</time>
      </trkpt>
      <trkpt lat="48.6157570" lon="14.3124090">
        <ele>590.2</ele>
        <time>2019-08-07T12:37:03Z</time>
      </trkpt>
      <trkpt lat="48.6158060" lon="14.3124250">
        <ele>589.8</ele>
        <time>2019-08-07T12:37:04Z</time>
      </trkpt>
      <trkpt lat="48.6158600" lon="14.3124400">
        <ele>589.2</ele>
        <time>2019-08-07T12:37:05Z</time>
      </trkpt>
      <trkpt lat="48.6159100" lon="14.3124520">
        <ele>588.8</ele>
        <time>2019-08-07T12:37:06Z</time>
      </trkpt>
      <trkpt lat="48.6159600" lon="14.3124650">
        <ele>588.4</ele>
        <time>2019-08-07T12:37:07Z</time>
      </trkpt>
      <trkpt lat="48.6160060" lon="14.3124750">
        <ele>588.0</ele>
        <time>2019-08-07T12:37:08Z</time>
      </trkpt>
      <trkpt lat="48.6160430" lon="14.3124870">
        <ele>587.6</ele>
        <time>2019-08-07T12:37:09Z</time>
      </trkpt>
      <trkpt lat="48.6160750" lon="14.3124980">
        <ele>587.2</ele>
        <time>2019-08-07T12:37:10Z</time>
      </trkpt>
      <trkpt lat="48.6161020" lon="14.3125070">
        <ele>586.8</ele>
        <time>2019-08-07T12:37:11Z</time>
      </trkpt>
      <trkpt lat="48.6161290" lon="14.3125140">
        <ele>586.6</ele>
        <time>2019-08-07T12:37:12Z</time>
      </trkpt>
      <trkpt lat="48.6161510" lon="14.3125190">
        <ele>586.2</ele>
        <time>2019-08-07T12:37:13Z</time>
      </trkpt>
      <trkpt lat="48.6161670" lon="14.3125240">
        <ele>586.0</ele>
        <time>2019-08-07T12:37:14Z</time>
      </trkpt>
      <trkpt lat="48.6161820" lon="14.3125330">
        <ele>585.8</ele>
        <time>2019-08-07T12:37:15Z</time>
      </trkpt>
      <trkpt lat="48.6161930" lon="14.3125410">
        <ele>585.6</ele>
        <time>2019-08-07T12:37:16Z</time>
      </trkpt>
      <trkpt lat="48.6162100" lon="14.3125440">
        <ele>585.6</ele>
        <time>2019-08-07T12:37:17Z</time>
      </trkpt>
      <trkpt lat="48.6162290" lon="14.3125480">
        <ele>585.4</ele>
        <time>2019-08-07T12:37:18Z</time>
      </trkpt>
      <trkpt lat="48.6162520" lon="14.3125510">
        <ele>585.4</ele>
        <time>2019-08-07T12:37:19Z</time>
      </trkpt>
      <trkpt lat="48.6162820" lon="14.3125500">
        <ele>585.2</ele>
        <time>2019-08-07T12:37:20Z</time>
      </trkpt>
      <trkpt lat="48.6163150" lon="14.3125520">
        <ele>585.0</ele>
        <time>2019-08-07T12:37:21Z</time>
      </trkpt>
      <trkpt lat="48.6163460" lon="14.3125540">
        <ele>585.0</ele>
        <time>2019-08-07T12:37:22Z</time>
      </trkpt>
      <trkpt lat="48.6163710" lon="14.3125550">
        <ele>584.8</ele>
        <time>2019-08-07T12:37:23Z</time>
      </trkpt>
      <trkpt lat="48.6163950" lon="14.3125530">
        <ele>584.6</ele>
        <time>2019-08-07T12:37:24Z</time>
      </trkpt>
      <trkpt lat="48.6164160" lon="14.3125520">
        <ele>584.4</ele>
        <time>2019-08-07T12:37:25Z</time>
      </trkpt>
      <trkpt lat="48.6164340" lon="14.3125580">
        <ele>584.2</ele>
        <time>2019-08-07T12:37:26Z</time>
      </trkpt>
      <trkpt lat="48.6164510" lon="14.3125650">
        <ele>584.0</ele>
        <time>2019-08-07T12:37:27Z</time>
      </trkpt>
      <trkpt lat="48.6164660" lon="14.3125730">
        <ele>583.8</ele>
        <time>2019-08-07T12:37:28Z</time>
      </trkpt>
      <trkpt lat="48.6164820" lon="14.3125830">
        <ele>583.8</ele>
        <time>2019-08-07T12:37:29Z</time>
      </trkpt>
      <trkpt lat="48.6164950" lon="14.3125950">
        <ele>583.6</ele>
        <time>2019-08-07T12:37:30Z</time>
      </trkpt>
      <trkpt lat="48.6165040" lon="14.3126060">
        <ele>583.4</ele>
        <time>2019-08-07T12:37:31Z</time>
      </trkpt>
      <trkpt lat="48.6165190" lon="14.3126210">
        <ele>583.4</ele>
        <time>2019-08-07T12:37:32Z</time>
      </trkpt>
      <trkpt lat="48.6165350" lon="14.3126340">
        <ele>583.2</ele>
        <time>2019-08-07T12:37:33Z</time>
      </trkpt>
      <trkpt lat="48.6165570" lon="14.3126510">
        <ele>583.0</ele>
        <time>2019-08-07T12:37:34Z</time>
      </trkpt>
      <trkpt lat="48.6165830" lon="14.3126730">
        <ele>582.8</ele>
        <time>2019-08-07T12:37:35Z</time>
      </trkpt>
      <trkpt lat="48.6166140" lon="14.3127000">
        <ele>582.6</ele>
        <time>2019-08-07T12:37:36Z</time>
      </trkpt>
      <trkpt lat="48.6166480" lon="14.3127320">
        <ele>582.4</ele>
        <time>2019-08-07T12:37:37Z</time>
      </trkpt>
      <trkpt lat="48.6166880" lon="14.3127670">
        <ele>582.2</ele>
        <time>2019-08-07T12:37:38Z</time>
      </trkpt>
      <trkpt lat="48.6167340" lon="14.3128000">
        <ele>582.0</ele>
        <time>2019-08-07T12:37:39Z</time>
      </trkpt>
      <trkpt lat="48.6167840" lon="14.3128380">
        <ele>581.8</ele>
        <time>2019-08-07T12:37:40Z</time>
      </trkpt>
      <trkpt lat="48.6168390" lon="14.3128780">
        <ele>581.4</ele>
        <time>2019-08-07T12:37:41Z</time>
      </trkpt>
      <trkpt lat="48.6169020" lon="14.3129190">
        <ele>581.0</ele>
        <time>2019-08-07T12:37:42Z</time>
      </trkpt>
      <trkpt lat="48.6169720" lon="14.3129580">
        <ele>580.6</ele>
        <time>2019-08-07T12:37:43Z</time>
      </trkpt>
      <trkpt lat="48.6170440" lon="14.3129860">
        <ele>580.0</ele>
        <time>2019-08-07T12:37:44Z</time>
      </trkpt>
      <trkpt lat="48.6171220" lon="14.3130110">
        <ele>579.4</ele>
        <time>2019-08-07T12:37:45Z</time>
      </trkpt>
      <trkpt lat="48.6171940" lon="14.3130330">
        <ele>578.8</ele>
        <time>2019-08-07T12:37:46Z</time>
      </trkpt>
      <trkpt lat="48.6172660" lon="14.3130520">
        <ele>578.2</ele>
        <time>2019-08-07T12:37:47Z</time>
      </trkpt>
      <trkpt lat="48.6173410" lon="14.3130630">
        <ele>578.0</ele>
        <time>2019-08-07T12:37:48Z</time>
      </trkpt>
      <trkpt lat="48.6174170" lon="14.3130690">
        <ele>577.8</ele>
        <time>2019-08-07T12:37:49Z</time>
      </trkpt>
      <trkpt lat="48.6174910" lon="14.3130760">
        <ele>577.4</ele>
        <time>2019-08-07T12:37:50Z</time>
      </trkpt>
      <trkpt lat="48.6175610" lon="14.3130810">
        <ele>577.0</ele>
        <time>2019-08-07T12:37:51Z</time>
      </trkpt>
      <trkpt lat="48.6176430" lon="14.3130910">
        <ele>576.8</ele>
        <time>2019-08-07T12:37:52Z</time>
      </trkpt>
      <trkpt lat="48.6177190" lon="14.3130990">
        <ele>576.6</ele>
        <time>2019-08-07T12:37:53Z</time>
      </trkpt>
      <trkpt lat="48.6177960" lon="14.3131050">
        <ele>576.2</ele>
        <time>2019-08-07T12:37:54Z</time>
      </trkpt>
      <trkpt lat="48.6178760" lon="14.3131160">
        <ele>575.8</ele>
        <time>2019-08-07T12:37:55Z</time>
      </trkpt>
      <trkpt lat="48.6179490" lon="14.3131330">
        <ele>575.6</ele>
        <time>2019-08-07T12:37:56Z</time>
      </trkpt>
      <trkpt lat="48.6180240" lon="14.3131500">
        <ele>575.4</ele>
        <time>2019-08-07T12:37:57Z</time>
      </trkpt>
      <trkpt lat="48.6181010" lon="14.3131650">
        <ele>575.2</ele>
        <time>2019-08-07T12:37:58Z</time>
      </trkpt>
      <trkpt lat="48.6181770" lon="14.3131830">
        <ele>575.0</ele>
        <time>2019-08-07T12:37:59Z</time>
      </trkpt>
      <trkpt lat="48.6182560" lon="14.3132050">
        <ele>574.6</ele>
        <time>2019-08-07T12:38:00Z</time>
      </trkpt>
      <trkpt lat="48.6183320" lon="14.3132260">
        <ele>574.4</ele>
        <time>2019-08-07T12:38:01Z</time>
      </trkpt>
      <trkpt lat="48.6184050" lon="14.3132420">
        <ele>574.2</ele>
        <time>2019-08-07T12:38:02Z</time>
      </trkpt>
      <trkpt lat="48.6184770" lon="14.3132540">
        <ele>574.2</ele>
        <time>2019-08-07T12:38:03Z</time>
      </trkpt>
      <trkpt lat="48.6185450" lon="14.3132600">
        <ele>574.0</ele>
        <time>2019-08-07T12:38:04Z</time>
      </trkpt>
      <trkpt lat="48.6186290" lon="14.3132680">
        <ele>573.8</ele>
        <time>2019-08-07T12:38:05Z</time>
      </trkpt>
      <trkpt lat="48.6187020" lon="14.3132740">
        <ele>573.6</ele>
        <time>2019-08-07T12:38:06Z</time>
      </trkpt>
      <trkpt lat="48.6187770" lon="14.3132730">
        <ele>573.6</ele>
        <time>2019-08-07T12:38:07Z</time>
      </trkpt>
      <trkpt lat="48.6188520" lon="14.3132600">
        <ele>573.4</ele>
        <time>2019-08-07T12:38:08Z</time>
      </trkpt>
      <trkpt lat="48.6189250" lon="14.3132310">
        <ele>573.4</ele>
        <time>2019-08-07T12:38:09Z</time>
      </trkpt>
      <trkpt lat="48.6189930" lon="14.3131930">
        <ele>573.2</ele>
        <time>2019-08-07T12:38:10Z</time>
      </trkpt>
      <trkpt lat="48.6190580" lon="14.3131550">
        <ele>573.0</ele>
        <time>2019-08-07T12:38:11Z</time>
      </trkpt>
      <trkpt lat="48.6191290" lon="14.3131060">
        <ele>572.8</ele>
        <time>2019-08-07T12:38:12Z</time>
      </trkpt>
      <trkpt lat="48.6191930" lon="14.3130640">
        <ele>572.6</ele>
        <time>2019-08-07T12:38:13Z</time>
      </trkpt>
      <trkpt lat="48.6192550" lon="14.3130240">
        <ele>572.6</ele>
        <time>2019-08-07T12:38:14Z</time>
      </trkpt>
      <trkpt lat="48.6193210" lon="14.3129840">
        <ele>572.4</ele>
        <time>2019-08-07T12:38:15Z</time>
      </trkpt>
      <trkpt lat="48.6193860" lon="14.3129490">
        <ele>572.4</ele>
        <time>2019-08-07T12:38:16Z</time>
      </trkpt>
      <trkpt lat="48.6194510" lon="14.3129120">
        <ele>572.2</ele>
        <time>2019-08-07T12:38:17Z</time>
      </trkpt>
      <trkpt lat="48.6195130" lon="14.3128710">
        <ele>572.2</ele>
        <time>2019-08-07T12:38:18Z</time>
      </trkpt>
      <trkpt lat="48.6195740" lon="14.3128260">
        <ele>572.0</ele>
        <time>2019-08-07T12:38:19Z</time>
      </trkpt>
      <trkpt lat="48.6196300" lon="14.3127740">
        <ele>571.8</ele>
        <time>2019-08-07T12:38:20Z</time>
      </trkpt>
      <trkpt lat="48.6196830" lon="14.3127170">
        <ele>571.8</ele>
        <time>2019-08-07T12:38:21Z</time>
      </trkpt>
      <trkpt lat="48.6197350" lon="14.3126560">
        <ele>571.8</ele>
        <time>2019-08-07T12:38:22Z</time>
      </trkpt>
      <trkpt lat="48.6197880" lon="14.3125960">
        <ele>571.6</ele>
        <time>2019-08-07T12:38:23Z</time>
      </trkpt>
      <trkpt lat="48.6198380" lon="14.3125380">
        <ele>571.6</ele>
        <time>2019-08-07T12:38:24Z</time>
      </trkpt>
      <trkpt lat="48.6198910" lon="14.3124730">
        <ele>571.4</ele>
        <time>2019-08-07T12:38:25Z</time>
      </trkpt>
      <trkpt lat="48.6199420" lon="14.3124090">
        <ele>571.4</ele>
        <time>2019-08-07T12:38:26Z</time>
      </trkpt>
      <trkpt lat="48.6199930" lon="14.3123440">
        <ele>571.2</ele>
        <time>2019-08-07T12:38:27Z</time>
      </trkpt>
      <trkpt lat="48.6200390" lon="14.3122770">
        <ele>571.2</ele>
        <time>2019-08-07T12:38:28Z</time>
      </trkpt>
      <trkpt lat="48.6200820" lon="14.3122110">
        <ele>571.2</ele>
        <time>2019-08-07T12:38:29Z</time>
      </trkpt>
      <trkpt lat="48.6201260" lon="14.3121430">
        <ele>571.0</ele>
        <time>2019-08-07T12:38:30Z</time>
      </trkpt>
      <trkpt lat="48.6201660" lon="14.3120830">
        <ele>571.0</ele>
        <time>2019-08-07T12:38:31Z</time>
      </trkpt>
      <trkpt lat="48.6202160" lon="14.3120090">
        <ele>571.0</ele>
        <time>2019-08-07T12:38:32Z</time>
      </trkpt>
      <trkpt lat="48.6202590" lon="14.3119440">
        <ele>570.8</ele>
        <time>2019-08-07T12:38:33Z</time>
      </trkpt>
      <trkpt lat="48.6202950" lon="14.3118920">
        <ele>570.8</ele>
        <time>2019-08-07T12:38:34Z</time>
      </trkpt>
      <trkpt lat="48.6203520" lon="14.3118220">
        <ele>570.8</ele>
        <time>2019-08-07T12:38:35Z</time>
      </trkpt>
      <trkpt lat="48.6204040" lon="14.3117680">
        <ele>570.6</ele>
        <time>2019-08-07T12:38:36Z</time>
      </trkpt>
      <trkpt lat="48.6204570" lon="14.3117160">
        <ele>570.4</ele>
        <time>2019-08-07T12:38:37Z</time>
      </trkpt>
      <trkpt lat="48.6205080" lon="14.3116590">
        <ele>570.2</ele>
        <time>2019-08-07T12:38:38Z</time>
      </trkpt>
      <trkpt lat="48.6205610" lon="14.3116020">
        <ele>570.2</ele>
        <time>2019-08-07T12:38:39Z</time>
      </trkpt>
      <trkpt lat="48.6206150" lon="14.3115460">
        <ele>570.0</ele>
        <time>2019-08-07T12:38:40Z</time>
      </trkpt>
      <trkpt lat="48.6206660" lon="14.3114880">
        <ele>570.0</ele>
        <time>2019-08-07T12:38:41Z</time>
      </trkpt>
      <trkpt lat="48.6207140" lon="14.3114230">
        <ele>570.0</ele>
        <time>2019-08-07T12:38:42Z</time>
      </trkpt>
      <trkpt lat="48.6207620" lon="14.3113550">
        <ele>569.8</ele>
        <time>2019-08-07T12:38:43Z</time>
      </trkpt>
      <trkpt lat="48.6208040" lon="14.3112880">
        <ele>569.8</ele>
        <time>2019-08-07T12:38:44Z</time>
      </trkpt>
      <trkpt lat="48.6208470" lon="14.3112050">
        <ele>569.8</ele>
        <time>2019-08-07T12:38:45Z</time>
      </trkpt>
      <trkpt lat="48.6208760" lon="14.3111230">
        <ele>569.6</ele>
        <time>2019-08-07T12:38:46Z</time>
      </trkpt>
      <trkpt lat="48.6209000" lon="14.3110400">
        <ele>569.6</ele>
        <time>2019-08-07T12:38:47Z</time>
      </trkpt>
      <trkpt lat="48.6209180" lon="14.3109570">
        <ele>569.6</ele>
        <time>2019-08-07T12:38:48Z</time>
      </trkpt>
      <trkpt lat="48.6209360" lon="14.3108750">
        <ele>569.6</ele>
        <time>2019-08-07T12:38:49Z</time>
      </trkpt>
      <trkpt lat="48.6209520" lon="14.3107980">
        <ele>569.6</ele>
        <time>2019-08-07T12:38:50Z</time>
      </trkpt>
      <trkpt lat="48.6209640" lon="14.3107280">
        <ele>569.6</ele>
        <time>2019-08-07T12:38:51Z</time>
      </trkpt>
      <trkpt lat="48.6209790" lon="14.3106450">
        <ele>569.6</ele>
        <time>2019-08-07T12:38:52Z</time>
      </trkpt>
      <trkpt lat="48.6209920" lon="14.3105800">
        <ele>569.4</ele>
        <time>2019-08-07T12:38:53Z</time>
      </trkpt>
      <trkpt lat="48.6210080" lon="14.3105280">
        <ele>569.4</ele>
        <time>2019-08-07T12:38:54Z</time>
      </trkpt>
      <trkpt lat="48.6210290" lon="14.3104850">
        <ele>569.2</ele>
        <time>2019-08-07T12:38:55Z</time>
      </trkpt>
      <trkpt lat="48.6210510" lon="14.3104560">
        <ele>569.2</ele>
        <time>2019-08-07T12:38:56Z</time>
      </trkpt>
      <trkpt lat="48.6210740" lon="14.3104460">
        <ele>569.2</ele>
        <time>2019-08-07T12:38:57Z</time>
      </trkpt>
      <trkpt lat="48.6211000" lon="14.3104510">
        <ele>569.2</ele>
        <time>2019-08-07T12:38:58Z</time>
      </trkpt>
      <trkpt lat="48.6211180" lon="14.3104660">
        <ele>569.2</ele>
        <time>2019-08-07T12:38:59Z</time>
      </trkpt>
      <trkpt lat="48.6211270" lon="14.3104750">
        <ele>569.2</ele>
        <time>2019-08-07T12:39:00Z</time>
      </trkpt>
      <trkpt lat="48.6211270" lon="14.3104770">
        <ele>569.2</ele>
        <time>2019-08-07T12:39:01Z</time>
      </trkpt>
      <trkpt lat="48.6211270" lon="14.3104770">
        <ele>569.2</ele>
        <time>2019-08-07T12:39:02Z</time>
      </trkpt>
      <trkpt lat="48.6211270" lon="14.3104770">
        <ele>569.2</ele>
        <time>2019-08-07T12:39:03Z</time>
      </trkpt>
      <trkpt lat="48.6211310" lon="14.3104790">
        <ele>569.0</ele>
        <time>2019-08-07T12:39:49Z</time>
      </trkpt>
      <trkpt lat="48.6211560" lon="14.3104910">
        <ele>569.0</ele>
        <time>2019-08-07T12:39:50Z</time>
      </trkpt>
      <trkpt lat="48.6211740" lon="14.3104980">
        <ele>569.2</ele>
        <time>2019-08-07T12:39:51Z</time>
      </trkpt>
      <trkpt lat="48.6211920" lon="14.3105060">
        <ele>569.2</ele>
        <time>2019-08-07T12:39:52Z</time>
      </trkpt>
      <trkpt lat="48.6212130" lon="14.3105160">
        <ele>569.4</ele>
        <time>2019-08-07T12:39:53Z</time>
      </trkpt>
      <trkpt lat="48.6212380" lon="14.3105240">
        <ele>569.4</ele>
        <time>2019-08-07T12:39:54Z</time>
      </trkpt>
      <trkpt lat="48.6212670" lon="14.3105370">
        <ele>569.4</ele>
        <time>2019-08-07T12:39:55Z</time>
      </trkpt>
      <trkpt lat="48.6212960" lon="14.3105490">
        <ele>569.4</ele>
        <time>2019-08-07T12:39:56Z</time>
      </trkpt>
      <trkpt lat="48.6213250" lon="14.3105600">
        <ele>569.6</ele>
        <time>2019-08-07T12:39:57Z</time>
      </trkpt>
      <trkpt lat="48.6213530" lon="14.3105720">
        <ele>569.6</ele>
        <time>2019-08-07T12:39:58Z</time>
      </trkpt>
      <trkpt lat="48.6213810" lon="14.3105840">
        <ele>569.6</ele>
        <time>2019-08-07T12:39:59Z</time>
      </trkpt>
      <trkpt lat="48.6214090" lon="14.3105950">
        <ele>569.6</ele>
        <time>2019-08-07T12:40:00Z</time>
      </trkpt>
      <trkpt lat="48.6214370" lon="14.3106070">
        <ele>569.6</ele>
        <time>2019-08-07T12:40:01Z</time>
      </trkpt>
      <trkpt lat="48.6214640" lon="14.3106170">
        <ele>569.6</ele>
        <time>2019-08-07T12:40:02Z</time>
      </trkpt>
      <trkpt lat="48.6214920" lon="14.3106280">
        <ele>569.6</ele>
        <time>2019-08-07T12:40:03Z</time>
      </trkpt>
      <trkpt lat="48.6215210" lon="14.3106390">
        <ele>569.6</ele>
        <time>2019-08-07T12:40:04Z</time>
      </trkpt>
      <trkpt lat="48.6215470" lon="14.3106500">
        <ele>569.8</ele>
        <time>2019-08-07T12:40:05Z</time>
      </trkpt>
      <trkpt lat="48.6215710" lon="14.3106610">
        <ele>569.8</ele>
        <time>2019-08-07T12:40:06Z</time>
      </trkpt>
      <trkpt lat="48.6215950" lon="14.3106700">
        <ele>569.8</ele>
        <time>2019-08-07T12:40:07Z</time>
      </trkpt>
      <trkpt lat="48.6216180" lon="14.3106800">
        <ele>569.8</ele>
        <time>2019-08-07T12:40:08Z</time>
      </trkpt>
      <trkpt lat="48.6216370" lon="14.3106890">
        <ele>569.8</ele>
        <time>2019-08-07T12:40:09Z</time>
      </trkpt>
      <trkpt lat="48.6216530" lon="14.3106910">
        <ele>569.8</ele>
        <time>2019-08-07T12:40:10Z</time>
      </trkpt>
      <trkpt lat="48.6216700" lon="14.3106810">
        <ele>569.8</ele>
        <time>2019-08-07T12:40:11Z</time>
      </trkpt>
      <trkpt lat="48.6216830" lon="14.3106630">
        <ele>569.8</ele>
        <time>2019-08-07T12:40:12Z</time>
      </trkpt>
      <trkpt lat="48.6216930" lon="14.3106370">
        <ele>569.8</ele>
        <time>2019-08-07T12:40:13Z</time>
      </trkpt>
      <trkpt lat="48.6217010" lon="14.3106110">
        <ele>569.8</ele>
        <time>2019-08-07T12:40:14Z</time>
      </trkpt>
      <trkpt lat="48.6217180" lon="14.3105780">
        <ele>569.8</ele>
        <time>2019-08-07T12:40:15Z</time>
      </trkpt>
      <trkpt lat="48.6217330" lon="14.3105440">
        <ele>569.8</ele>
        <time>2019-08-07T12:40:16Z</time>
      </trkpt>
      <trkpt lat="48.6217480" lon="14.3105070">
        <ele>569.8</ele>
        <time>2019-08-07T12:40:17Z</time>
      </trkpt>
      <trkpt lat="48.6217660" lon="14.3104680">
        <ele>569.8</ele>
        <time>2019-08-07T12:40:18Z</time>
      </trkpt>
      <trkpt lat="48.6217830" lon="14.3104270">
        <ele>569.8</ele>
        <time>2019-08-07T12:40:19Z</time>
      </trkpt>
      <trkpt lat="48.6218000" lon="14.3103830">
        <ele>569.8</ele>
        <time>2019-08-07T12:40:20Z</time>
      </trkpt>
      <trkpt lat="48.6218180" lon="14.3103380">
        <ele>569.8</ele>
        <time>2019-08-07T12:40:21Z</time>
      </trkpt>
      <trkpt lat="48.6218360" lon="14.3102900">
        <ele>569.6</ele>
        <time>2019-08-07T12:40:22Z</time>
      </trkpt>
      <trkpt lat="48.6218480" lon="14.3102370">
        <ele>569.6</ele>
        <time>2019-08-07T12:40:23Z</time>
      </trkpt>
      <trkpt lat="48.6218570" lon="14.3101840">
        <ele>569.6</ele>
        <time>2019-08-07T12:40:24Z</time>
      </trkpt>
      <trkpt lat="48.6218660" lon="14.3101130">
        <ele>569.6</ele>
        <time>2019-08-07T12:40:25Z</time>
      </trkpt>
      <trkpt lat="48.6218740" lon="14.3100510">
        <ele>569.6</ele>
        <time>2019-08-07T12:40:26Z</time>
      </trkpt>
      <trkpt lat="48.6218810" lon="14.3099870">
        <ele>569.6</ele>
        <time>2019-08-07T12:40:27Z</time>
      </trkpt>
      <trkpt lat="48.6218840" lon="14.3099230">
        <ele>569.6</ele>
        <time>2019-08-07T12:40:28Z</time>
      </trkpt>
      <trkpt lat="48.6218870" lon="14.3098570">
        <ele>569.6</ele>
        <time>2019-08-07T12:40:29Z</time>
      </trkpt>
      <trkpt lat="48.6218890" lon="14.3097950">
        <ele>569.6</ele>
        <time>2019-08-07T12:40:30Z</time>
      </trkpt>
      <trkpt lat="48.6218920" lon="14.3097250">
        <ele>569.6</ele>
        <time>2019-08-07T12:40:31Z</time>
      </trkpt>
      <trkpt lat="48.6218970" lon="14.3096540">
        <ele>569.8</ele>
        <time>2019-08-07T12:40:32Z</time>
      </trkpt>
      <trkpt lat="48.6218990" lon="14.3095870">
        <ele>569.8</ele>
        <time>2019-08-07T12:40:33Z</time>
      </trkpt>
      <trkpt lat="48.6219020" lon="14.3095240">
        <ele>570.0</ele>
        <time>2019-08-07T12:40:34Z</time>
      </trkpt>
      <trkpt lat="48.6219040" lon="14.3094500">
        <ele>570.0</ele>
        <time>2019-08-07T12:40:35Z</time>
      </trkpt>
      <trkpt lat="48.6219090" lon="14.3093870">
        <ele>570.0</ele>
        <time>2019-08-07T12:40:36Z</time>
      </trkpt>
      <trkpt lat="48.6219160" lon="14.3093240">
        <ele>570.0</ele>
        <time>2019-08-07T12:40:37Z</time>
      </trkpt>
      <trkpt lat="48.6219190" lon="14.3092590">
        <ele>570.0</ele>
        <time>2019-08-07T12:40:38Z</time>
      </trkpt>
      <trkpt lat="48.6219240" lon="14.3091920">
        <ele>570.0</ele>
        <time>2019-08-07T12:40:39Z</time>
      </trkpt>
      <trkpt lat="48.6219310" lon="14.3091250">
        <ele>570.0</ele>
        <time>2019-08-07T12:40:40Z</time>
      </trkpt>
      <trkpt lat="48.6219360" lon="14.3090550">
        <ele>570.0</ele>
        <time>2019-08-07T12:40:41Z</time>
      </trkpt>
      <trkpt lat="48.6219390" lon="14.3089850">
        <ele>570.0</ele>
        <time>2019-08-07T12:40:42Z</time>
      </trkpt>
      <trkpt lat="48.6219440" lon="14.3089130">
        <ele>570.0</ele>
        <time>2019-08-07T12:40:43Z</time>
      </trkpt>
      <trkpt lat="48.6219490" lon="14.3088430">
        <ele>569.8</ele>
        <time>2019-08-07T12:40:44Z</time>
      </trkpt>
      <trkpt lat="48.6219590" lon="14.3087620">
        <ele>569.8</ele>
        <time>2019-08-07T12:40:45Z</time>
      </trkpt>
      <trkpt lat="48.6219700" lon="14.3086830">
        <ele>570.0</ele>
        <time>2019-08-07T12:40:46Z</time>
      </trkpt>
      <trkpt lat="48.6219790" lon="14.3086060">
        <ele>570.0</ele>
        <time>2019-08-07T12:40:47Z</time>
      </trkpt>
      <trkpt lat="48.6219910" lon="14.3085310">
        <ele>570.0</ele>
        <time>2019-08-07T12:40:48Z</time>
      </trkpt>
      <trkpt lat="48.6220040" lon="14.3084610">
        <ele>570.0</ele>
        <time>2019-08-07T12:40:49Z</time>
      </trkpt>
      <trkpt lat="48.6220200" lon="14.3083960">
        <ele>570.0</ele>
        <time>2019-08-07T12:40:50Z</time>
      </trkpt>
      <trkpt lat="48.6220360" lon="14.3083220">
        <ele>569.8</ele>
        <time>2019-08-07T12:40:51Z</time>
      </trkpt>
      <trkpt lat="48.6220560" lon="14.3082570">
        <ele>569.8</ele>
        <time>2019-08-07T12:40:52Z</time>
      </trkpt>
      <trkpt lat="48.6220810" lon="14.3082000">
        <ele>570.0</ele>
        <time>2019-08-07T12:40:53Z</time>
      </trkpt>
      <trkpt lat="48.6221160" lon="14.3081550">
        <ele>570.0</ele>
        <time>2019-08-07T12:40:54Z</time>
      </trkpt>
      <trkpt lat="48.6221560" lon="14.3081300">
        <ele>570.0</ele>
        <time>2019-08-07T12:40:55Z</time>
      </trkpt>
      <trkpt lat="48.6221940" lon="14.3081250">
        <ele>570.2</ele>
        <time>2019-08-07T12:40:56Z</time>
      </trkpt>
      <trkpt lat="48.6222320" lon="14.3081360">
        <ele>570.4</ele>
        <time>2019-08-07T12:40:57Z</time>
      </trkpt>
      <trkpt lat="48.6222690" lon="14.3081570">
        <ele>570.4</ele>
        <time>2019-08-07T12:40:58Z</time>
      </trkpt>
      <trkpt lat="48.6223070" lon="14.3081780">
        <ele>570.4</ele>
        <time>2019-08-07T12:40:59Z</time>
      </trkpt>
      <trkpt lat="48.6223430" lon="14.3082040">
        <ele>570.6</ele>
        <time>2019-08-07T12:41:00Z</time>
      </trkpt>
      <trkpt lat="48.6223800" lon="14.3082340">
        <ele>570.6</ele>
        <time>2019-08-07T12:41:01Z</time>
      </trkpt>
      <trkpt lat="48.6224120" lon="14.3082650">
        <ele>570.8</ele>
        <time>2019-08-07T12:41:02Z</time>
      </trkpt>
      <trkpt lat="48.6224470" lon="14.3082990">
        <ele>570.8</ele>
        <time>2019-08-07T12:41:03Z</time>
      </trkpt>
      <trkpt lat="48.6224780" lon="14.3083320">
        <ele>571.0</ele>
        <time>2019-08-07T12:41:04Z</time>
      </trkpt>
      <trkpt lat="48.6225130" lon="14.3083730">
        <ele>571.2</ele>
        <time>2019-08-07T12:41:05Z</time>
      </trkpt>
      <trkpt lat="48.6225450" lon="14.3084110">
        <ele>571.2</ele>
        <time>2019-08-07T12:41:06Z</time>
      </trkpt>
      <trkpt lat="48.6225790" lon="14.3084470">
        <ele>571.2</ele>
        <time>2019-08-07T12:41:07Z</time>
      </trkpt>
      <trkpt lat="48.6226110" lon="14.3084820">
        <ele>571.4</ele>
        <time>2019-08-07T12:41:08Z</time>
      </trkpt>
      <trkpt lat="48.6226430" lon="14.3085140">
        <ele>571.4</ele>
        <time>2019-08-07T12:41:09Z</time>
      </trkpt>
      <trkpt lat="48.6226730" lon="14.3085410">
        <ele>571.4</ele>
        <time>2019-08-07T12:41:10Z</time>
      </trkpt>
      <trkpt lat="48.6227080" lon="14.3085830">
        <ele>571.6</ele>
        <time>2019-08-07T12:41:11Z</time>
      </trkpt>
      <trkpt lat="48.6227380" lon="14.3086220">
        <ele>571.6</ele>
        <time>2019-08-07T12:41:12Z</time>
      </trkpt>
      <trkpt lat="48.6227640" lon="14.3086650">
        <ele>571.8</ele>
        <time>2019-08-07T12:41:13Z</time>
      </trkpt>
      <trkpt lat="48.6227910" lon="14.3087060">
        <ele>571.8</ele>
        <time>2019-08-07T12:41:14Z</time>
      </trkpt>
      <trkpt lat="48.6228210" lon="14.3087500">
        <ele>571.8</ele>
        <time>2019-08-07T12:41:15Z</time>
      </trkpt>
      <trkpt lat="48.6228500" lon="14.3087910">
        <ele>572.0</ele>
        <time>2019-08-07T12:41:16Z</time>
      </trkpt>
      <trkpt lat="48.6228800" lon="14.3088300">
        <ele>572.0</ele>
        <time>2019-08-07T12:41:17Z</time>
      </trkpt>
      <trkpt lat="48.6229080" lon="14.3088690">
        <ele>572.2</ele>
        <time>2019-08-07T12:41:18Z</time>
      </trkpt>
      <trkpt lat="48.6229360" lon="14.3089060">
        <ele>572.2</ele>
        <time>2019-08-07T12:41:19Z</time>
      </trkpt>
      <trkpt lat="48.6229620" lon="14.3089420">
        <ele>572.2</ele>
        <time>2019-08-07T12:41:20Z</time>
      </trkpt>
      <trkpt lat="48.6229850" lon="14.3089730">
        <ele>572.2</ele>
        <time>2019-08-07T12:41:21Z</time>
      </trkpt>
      <trkpt lat="48.6230070" lon="14.3090070">
        <ele>572.4</ele>
        <time>2019-08-07T12:41:22Z</time>
      </trkpt>
      <trkpt lat="48.6230260" lon="14.3090380">
        <ele>572.4</ele>
        <time>2019-08-07T12:41:23Z</time>
      </trkpt>
      <trkpt lat="48.6230440" lon="14.3090670">
        <ele>572.6</ele>
        <time>2019-08-07T12:41:24Z</time>
      </trkpt>
      <trkpt lat="48.6230580" lon="14.3091020">
        <ele>572.6</ele>
        <time>2019-08-07T12:41:25Z</time>
      </trkpt>
      <trkpt lat="48.6230680" lon="14.3091360">
        <ele>572.6</ele>
        <time>2019-08-07T12:41:26Z</time>
      </trkpt>
      <trkpt lat="48.6230750" lon="14.3091670">
        <ele>572.8</ele>
        <time>2019-08-07T12:41:27Z</time>
      </trkpt>
      <trkpt lat="48.6230840" lon="14.3091960">
        <ele>572.8</ele>
        <time>2019-08-07T12:41:28Z</time>
      </trkpt>
      <trkpt lat="48.6230950" lon="14.3092210">
        <ele>572.8</ele>
        <time>2019-08-07T12:41:29Z</time>
      </trkpt>
      <trkpt lat="48.6231080" lon="14.3092480">
        <ele>573.0</ele>
        <time>2019-08-07T12:41:30Z</time>
      </trkpt>
      <trkpt lat="48.6231240" lon="14.3092770">
        <ele>573.0</ele>
        <time>2019-08-07T12:41:31Z</time>
      </trkpt>
      <trkpt lat="48.6231410" lon="14.3093090">
        <ele>573.2</ele>
        <time>2019-08-07T12:41:32Z</time>
      </trkpt>
      <trkpt lat="48.6231550" lon="14.3093440">
        <ele>573.2</ele>
        <time>2019-08-07T12:41:33Z</time>
      </trkpt>
      <trkpt lat="48.6231620" lon="14.3093850">
        <ele>573.2</ele>
        <time>2019-08-07T12:41:34Z</time>
      </trkpt>
      <trkpt lat="48.6231690" lon="14.3094320">
        <ele>573.4</ele>
        <time>2019-08-07T12:41:35Z</time>
      </trkpt>
      <trkpt lat="48.6231740" lon="14.3094750">
        <ele>573.4</ele>
        <time>2019-08-07T12:41:36Z</time>
      </trkpt>
      <trkpt lat="48.6231770" lon="14.3095180">
        <ele>573.4</ele>
        <time>2019-08-07T12:41:37Z</time>
      </trkpt>
      <trkpt lat="48.6231810" lon="14.3095680">
        <ele>573.6</ele>
        <time>2019-08-07T12:41:38Z</time>
      </trkpt>
      <trkpt lat="48.6231840" lon="14.3096160">
        <ele>573.6</ele>
        <time>2019-08-07T12:41:39Z</time>
      </trkpt>
      <trkpt lat="48.6231870" lon="14.3096620">
        <ele>573.6</ele>
        <time>2019-08-07T12:41:40Z</time>
      </trkpt>
      <trkpt lat="48.6231900" lon="14.3097070">
        <ele>573.6</ele>
        <time>2019-08-07T12:41:41Z</time>
      </trkpt>
      <trkpt lat="48.6231900" lon="14.3097510">
        <ele>573.8</ele>
        <time>2019-08-07T12:41:42Z</time>
      </trkpt>
      <trkpt lat="48.6231900" lon="14.3097940">
        <ele>574.0</ele>
        <time>2019-08-07T12:41:43Z</time>
      </trkpt>
      <trkpt lat="48.6231900" lon="14.3098320">
        <ele>574.0</ele>
        <time>2019-08-07T12:41:44Z</time>
      </trkpt>
      <trkpt lat="48.6231880" lon="14.3098750">
        <ele>574.2</ele>
        <time>2019-08-07T12:41:45Z</time>
      </trkpt>
      <trkpt lat="48.6231880" lon="14.3099150">
        <ele>574.2</ele>
        <time>2019-08-07T12:41:46Z</time>
      </trkpt>
      <trkpt lat="48.6231880" lon="14.3099540">
        <ele>574.4</ele>
        <time>2019-08-07T12:41:47Z</time>
      </trkpt>
      <trkpt lat="48.6231870" lon="14.3099900">
        <ele>574.4</ele>
        <time>2019-08-07T12:41:48Z</time>
      </trkpt>
      <trkpt lat="48.6231890" lon="14.3100230">
        <ele>574.6</ele>
        <time>2019-08-07T12:41:49Z</time>
      </trkpt>
      <trkpt lat="48.6231900" lon="14.3100530">
        <ele>574.6</ele>
        <time>2019-08-07T12:41:50Z</time>
      </trkpt>
      <trkpt lat="48.6231900" lon="14.3100880">
        <ele>574.8</ele>
        <time>2019-08-07T12:41:51Z</time>
      </trkpt>
      <trkpt lat="48.6231900" lon="14.3101220">
        <ele>574.8</ele>
        <time>2019-08-07T12:41:52Z</time>
      </trkpt>
      <trkpt lat="48.6231920" lon="14.3101530">
        <ele>575.0</ele>
        <time>2019-08-07T12:41:53Z</time>
      </trkpt>
      <trkpt lat="48.6231910" lon="14.3101800">
        <ele>575.2</ele>
        <time>2019-08-07T12:41:54Z</time>
      </trkpt>
      <trkpt lat="48.6231880" lon="14.3102140">
        <ele>575.2</ele>
        <time>2019-08-07T12:41:55Z</time>
      </trkpt>
      <trkpt lat="48.6231840" lon="14.3102450">
        <ele>575.4</ele>
        <time>2019-08-07T12:41:56Z</time>
      </trkpt>
      <trkpt lat="48.6231810" lon="14.3102760">
        <ele>575.4</ele>
        <time>2019-08-07T12:41:57Z</time>
      </trkpt>
      <trkpt lat="48.6231800" lon="14.3103060">
        <ele>575.6</ele>
        <time>2019-08-07T12:41:58Z</time>
      </trkpt>
      <trkpt lat="48.6231780" lon="14.3103360">
        <ele>575.8</ele>
        <time>2019-08-07T12:41:59Z</time>
      </trkpt>
      <trkpt lat="48.6231760" lon="14.3103650">
        <ele>575.8</ele>
        <time>2019-08-07T12:42:00Z</time>
      </trkpt>
      <trkpt lat="48.6231750" lon="14.3103950">
        <ele>576.0</ele>
        <time>2019-08-07T12:42:01Z</time>
      </trkpt>
      <trkpt lat="48.6231730" lon="14.3104260">
        <ele>576.2</ele>
        <time>2019-08-07T12:42:02Z</time>
      </trkpt>
      <trkpt lat="48.6231700" lon="14.3104560">
        <ele>576.2</ele>
        <time>2019-08-07T12:42:03Z</time>
      </trkpt>
      <trkpt lat="48.6231680" lon="14.3104830">
        <ele>576.4</ele>
        <time>2019-08-07T12:42:04Z</time>
      </trkpt>
      <trkpt lat="48.6231690" lon="14.3105170">
        <ele>576.6</ele>
        <time>2019-08-07T12:42:05Z</time>
      </trkpt>
      <trkpt lat="48.6231700" lon="14.3105480">
        <ele>576.8</ele>
        <time>2019-08-07T12:42:06Z</time>
      </trkpt>
      <trkpt lat="48.6231680" lon="14.3105780">
        <ele>577.0</ele>
        <time>2019-08-07T12:42:07Z</time>
      </trkpt>
      <trkpt lat="48.6231660" lon="14.3106080">
        <ele>577.0</ele>
        <time>2019-08-07T12:42:08Z</time>
      </trkpt>
      <trkpt lat="48.6231630" lon="14.3106370">
        <ele>577.2</ele>
        <time>2019-08-07T12:42:09Z</time>
      </trkpt>
      <trkpt lat="48.6231600" lon="14.3106640">
        <ele>577.4</ele>
        <time>2019-08-07T12:42:10Z</time>
      </trkpt>
      <trkpt lat="48.6231580" lon="14.3106940">
        <ele>577.6</ele>
        <time>2019-08-07T12:42:11Z</time>
      </trkpt>
      <trkpt lat="48.6231580" lon="14.3107210">
        <ele>577.8</ele>
        <time>2019-08-07T12:42:12Z</time>
      </trkpt>
      <trkpt lat="48.6231520" lon="14.3107470">
        <ele>578.0</ele>
        <time>2019-08-07T12:42:13Z</time>
      </trkpt>
      <trkpt lat="48.6231460" lon="14.3107710">
        <ele>578.2</ele>
        <time>2019-08-07T12:42:14Z</time>
      </trkpt>
      <trkpt lat="48.6231390" lon="14.3107990">
        <ele>578.4</ele>
        <time>2019-08-07T12:42:15Z</time>
      </trkpt>
      <trkpt lat="48.6231320" lon="14.3108260">
        <ele>578.6</ele>
        <time>2019-08-07T12:42:16Z</time>
      </trkpt>
      <trkpt lat="48.6231270" lon="14.3108520">
        <ele>578.8</ele>
        <time>2019-08-07T12:42:17Z</time>
      </trkpt>
      <trkpt lat="48.6231170" lon="14.3108730">
        <ele>579.0</ele>
        <time>2019-08-07T12:42:18Z</time>
      </trkpt>
      <trkpt lat="48.6231070" lon="14.3108940">
        <ele>579.4</ele>
        <time>2019-08-07T12:42:19Z</time>
      </trkpt>
      <trkpt lat="48.6230980" lon="14.3109190">
        <ele>579.6</ele>
        <time>2019-08-07T12:42:20Z</time>
      </trkpt>
      <trkpt lat="48.6230890" lon="14.3109420">
        <ele>579.8</ele>
        <time>2019-08-07T12:42:21Z</time>
      </trkpt>
      <trkpt lat="48.6230800" lon="14.3109650">
        <ele>580.0</ele>
        <time>2019-08-07T12:42:22Z</time>
      </trkpt>
      <trkpt lat="48.6230720" lon="14.3109880">
        <ele>580.2</ele>
        <time>2019-08-07T12:42:23Z</time>
      </trkpt>
      <trkpt lat="48.6230630" lon="14.3110080">
        <ele>580.4</ele>
        <time>2019-08-07T12:42:24Z</time>
      </trkpt>
      <trkpt lat="48.6230520" lon="14.3110320">
        <ele>580.6</ele>
        <time>2019-08-07T12:42:25Z</time>
      </trkpt>
      <trkpt lat="48.6230420" lon="14.3110540">
        <ele>580.8</ele>
        <time>2019-08-07T12:42:26Z</time>
      </trkpt>
      <trkpt lat="48.6230340" lon="14.3110770">
        <ele>581.0</ele>
        <time>2019-08-07T12:42:27Z</time>
      </trkpt>
      <trkpt lat="48.6230270" lon="14.3110970">
        <ele>581.2</ele>
        <time>2019-08-07T12:42:28Z</time>
      </trkpt>
      <trkpt lat="48.6230210" lon="14.3111180">
        <ele>581.4</ele>
        <time>2019-08-07T12:42:29Z</time>
      </trkpt>
      <trkpt lat="48.6230150" lon="14.3111370">
        <ele>581.6</ele>
        <time>2019-08-07T12:42:30Z</time>
      </trkpt>
      <trkpt lat="48.6230070" lon="14.3111600">
        <ele>581.8</ele>
        <time>2019-08-07T12:42:31Z</time>
      </trkpt>
      <trkpt lat="48.6229990" lon="14.3111810">
        <ele>582.0</ele>
        <time>2019-08-07T12:42:32Z</time>
      </trkpt>
      <trkpt lat="48.6229910" lon="14.3112000">
        <ele>582.2</ele>
        <time>2019-08-07T12:42:33Z</time>
      </trkpt>
      <trkpt lat="48.6229850" lon="14.3112180">
        <ele>582.4</ele>
        <time>2019-08-07T12:42:34Z</time>
      </trkpt>
      <trkpt lat="48.6229790" lon="14.3112440">
        <ele>582.6</ele>
        <time>2019-08-07T12:42:35Z</time>
      </trkpt>
      <trkpt lat="48.6229710" lon="14.3112650">
        <ele>582.8</ele>
        <time>2019-08-07T12:42:36Z</time>
      </trkpt>
      <trkpt lat="48.6229640" lon="14.3112830">
        <ele>583.0</ele>
        <time>2019-08-07T12:42:37Z</time>
      </trkpt>
      <trkpt lat="48.6229580" lon="14.3113030">
        <ele>583.2</ele>
        <time>2019-08-07T12:42:38Z</time>
      </trkpt>
      <trkpt lat="48.6229530" lon="14.3113250">
        <ele>583.4</ele>
        <time>2019-08-07T12:42:39Z</time>
      </trkpt>
      <trkpt lat="48.6229480" lon="14.3113470">
        <ele>583.4</ele>
        <time>2019-08-07T12:42:40Z</time>
      </trkpt>
      <trkpt lat="48.6229420" lon="14.3113700">
        <ele>583.6</ele>
        <time>2019-08-07T12:42:41Z</time>
      </trkpt>
      <trkpt lat="48.6229360" lon="14.3113940">
        <ele>583.8</ele>
        <time>2019-08-07T12:42:42Z</time>
      </trkpt>
      <trkpt lat="48.6229290" lon="14.3114160">
        <ele>584.0</ele>
        <time>2019-08-07T12:42:43Z</time>
      </trkpt>
      <trkpt lat="48.6229220" lon="14.3114340">
        <ele>584.2</ele>
        <time>2019-08-07T12:42:44Z</time>
      </trkpt>
      <trkpt lat="48.6229140" lon="14.3114580">
        <ele>584.2</ele>
        <time>2019-08-07T12:42:45Z</time>
      </trkpt>
      <trkpt lat="48.6229080" lon="14.3114780">
        <ele>584.4</ele>
        <time>2019-08-07T12:42:46Z</time>
      </trkpt>
      <trkpt lat="48.6229030" lon="14.3115000">
        <ele>584.6</ele>
        <time>2019-08-07T12:42:47Z</time>
      </trkpt>
      <trkpt lat="48.6228980" lon="14.3115200">
        <ele>584.8</ele>
        <time>2019-08-07T12:42:48Z</time>
      </trkpt>
      <trkpt lat="48.6228960" lon="14.3115420">
        <ele>585.0</ele>
        <time>2019-08-07T12:42:49Z</time>
      </trkpt>
      <trkpt lat="48.6228930" lon="14.3115640">
        <ele>585.2</ele>
        <time>2019-08-07T12:42:50Z</time>
      </trkpt>
      <trkpt lat="48.6228890" lon="14.3115910">
        <ele>585.2</ele>
        <time>2019-08-07T12:42:51Z</time>
      </trkpt>
      <trkpt lat="48.6228850" lon="14.3116140">
        <ele>585.4</ele>
        <time>2019-08-07T12:42:52Z</time>
      </trkpt>
      <trkpt lat="48.6228840" lon="14.3116350">
        <ele>585.6</ele>
        <time>2019-08-07T12:42:53Z</time>
      </trkpt>
      <trkpt lat="48.6228850" lon="14.3116560">
        <ele>585.8</ele>
        <time>2019-08-07T12:42:54Z</time>
      </trkpt>
      <trkpt lat="48.6228870" lon="14.3116800">
        <ele>586.0</ele>
        <time>2019-08-07T12:42:55Z</time>
      </trkpt>
      <trkpt lat="48.6228890" lon="14.3117020">
        <ele>586.2</ele>
        <time>2019-08-07T12:42:56Z</time>
      </trkpt>
      <trkpt lat="48.6228900" lon="14.3117230">
        <ele>586.2</ele>
        <time>2019-08-07T12:42:57Z</time>
      </trkpt>
      <trkpt lat="48.6228920" lon="14.3117450">
        <ele>586.4</ele>
        <time>2019-08-07T12:42:58Z</time>
      </trkpt>
      <trkpt lat="48.6228920" lon="14.3117670">
        <ele>586.6</ele>
        <time>2019-08-07T12:42:59Z</time>
      </trkpt>
      <trkpt lat="48.6228940" lon="14.3117900">
        <ele>586.8</ele>
        <time>2019-08-07T12:43:00Z</time>
      </trkpt>
      <trkpt lat="48.6228950" lon="14.3118130">
        <ele>587.0</ele>
        <time>2019-08-07T12:43:01Z</time>
      </trkpt>
      <trkpt lat="48.6228970" lon="14.3118350">
        <ele>587.2</ele>
        <time>2019-08-07T12:43:02Z</time>
      </trkpt>
      <trkpt lat="48.6229010" lon="14.3118580">
        <ele>587.4</ele>
        <time>2019-08-07T12:43:03Z</time>
      </trkpt>
      <trkpt lat="48.6229050" lon="14.3118780">
        <ele>587.4</ele>
        <time>2019-08-07T12:43:04Z</time>
      </trkpt>
      <trkpt lat="48.6229130" lon="14.3119020">
        <ele>587.6</ele>
        <time>2019-08-07T12:43:05Z</time>
      </trkpt>
      <trkpt lat="48.6229200" lon="14.3119230">
        <ele>587.8</ele>
        <time>2019-08-07T12:43:06Z</time>
      </trkpt>
      <trkpt lat="48.6229280" lon="14.3119430">
        <ele>588.0</ele>
        <time>2019-08-07T12:43:07Z</time>
      </trkpt>
      <trkpt lat="48.6229360" lon="14.3119610">
        <ele>588.2</ele>
        <time>2019-08-07T12:43:08Z</time>
      </trkpt>
      <trkpt lat="48.6229450" lon="14.3119780">
        <ele>588.4</ele>
        <time>2019-08-07T12:43:09Z</time>
      </trkpt>
      <trkpt lat="48.6229540" lon="14.3119950">
        <ele>588.6</ele>
        <time>2019-08-07T12:43:10Z</time>
      </trkpt>
      <trkpt lat="48.6229640" lon="14.3120150">
        <ele>588.8</ele>
        <time>2019-08-07T12:43:11Z</time>
      </trkpt>
      <trkpt lat="48.6229720" lon="14.3120340">
        <ele>589.0</ele>
        <time>2019-08-07T12:43:12Z</time>
      </trkpt>
      <trkpt lat="48.6229810" lon="14.3120510">
        <ele>589.0</ele>
        <time>2019-08-07T12:43:13Z</time>
      </trkpt>
      <trkpt lat="48.6229890" lon="14.3120660">
        <ele>589.2</ele>
        <time>2019-08-07T12:43:14Z</time>
      </trkpt>
      <trkpt lat="48.6229990" lon="14.3120820">
        <ele>589.4</ele>
        <time>2019-08-07T12:43:15Z</time>
      </trkpt>
      <trkpt lat="48.6230100" lon="14.3120990">
        <ele>589.6</ele>
        <time>2019-08-07T12:43:16Z</time>
      </trkpt>
      <trkpt lat="48.6230220" lon="14.3121160">
        <ele>589.8</ele>
        <time>2019-08-07T12:43:17Z</time>
      </trkpt>
      <trkpt lat="48.6230340" lon="14.3121310">
        <ele>590.0</ele>
        <time>2019-08-07T12:43:18Z</time>
      </trkpt>
      <trkpt lat="48.6230450" lon="14.3121450">
        <ele>590.2</ele>
        <time>2019-08-07T12:43:19Z</time>
      </trkpt>
      <trkpt lat="48.6230550" lon="14.3121560">
        <ele>590.2</ele>
        <time>2019-08-07T12:43:20Z</time>
      </trkpt>
      <trkpt lat="48.6230670" lon="14.3121650">
        <ele>590.4</ele>
        <time>2019-08-07T12:43:21Z</time>
      </trkpt>
      <trkpt lat="48.6230800" lon="14.3121750">
        <ele>590.6</ele>
        <time>2019-08-07T12:43:22Z</time>
      </trkpt>
      <trkpt lat="48.6230900" lon="14.3121870">
        <ele>590.8</ele>
        <time>2019-08-07T12:43:23Z</time>
      </trkpt>
      <trkpt lat="48.6230990" lon="14.3122000">
        <ele>591.0</ele>
        <time>2019-08-07T12:43:24Z</time>
      </trkpt>
      <trkpt lat="48.6231080" lon="14.3122150">
        <ele>591.2</ele>
        <time>2019-08-07T12:43:25Z</time>
      </trkpt>
      <trkpt lat="48.6231180" lon="14.3122280">
        <ele>591.4</ele>
        <time>2019-08-07T12:43:26Z</time>
      </trkpt>
      <trkpt lat="48.6231280" lon="14.3122390">
        <ele>591.6</ele>
        <time>2019-08-07T12:43:27Z</time>
      </trkpt>
      <trkpt lat="48.6231400" lon="14.3122520">
        <ele>591.8</ele>
        <time>2019-08-07T12:43:28Z</time>
      </trkpt>
      <trkpt lat="48.6231500" lon="14.3122650">
        <ele>591.8</ele>
        <time>2019-08-07T12:43:29Z</time>
      </trkpt>
      <trkpt lat="48.6231620" lon="14.3122750">
        <ele>592.0</ele>
        <time>2019-08-07T12:43:30Z</time>
      </trkpt>
      <trkpt lat="48.6231760" lon="14.3122850">
        <ele>592.2</ele>
        <time>2019-08-07T12:43:31Z</time>
      </trkpt>
      <trkpt lat="48.6231890" lon="14.3122950">
        <ele>592.4</ele>
        <time>2019-08-07T12:43:32Z</time>
      </trkpt>
      <trkpt lat="48.6232040" lon="14.3123070">
        <ele>592.6</ele>
        <time>2019-08-07T12:43:33Z</time>
      </trkpt>
      <trkpt lat="48.6232160" lon="14.3123190">
        <ele>592.8</ele>
        <time>2019-08-07T12:43:34Z</time>
      </trkpt>
      <trkpt lat="48.6232300" lon="14.3123350">
        <ele>593.0</ele>
        <time>2019-08-07T12:43:35Z</time>
      </trkpt>
      <trkpt lat="48.6232420" lon="14.3123530">
        <ele>593.2</ele>
        <time>2019-08-07T12:43:36Z</time>
      </trkpt>
      <trkpt lat="48.6232550" lon="14.3123700">
        <ele>593.4</ele>
        <time>2019-08-07T12:43:37Z</time>
      </trkpt>
      <trkpt lat="48.6232650" lon="14.3123880">
        <ele>593.6</ele>
        <time>2019-08-07T12:43:38Z</time>
      </trkpt>
      <trkpt lat="48.6232770" lon="14.3124040">
        <ele>593.8</ele>
        <time>2019-08-07T12:43:39Z</time>
      </trkpt>
      <trkpt lat="48.6232890" lon="14.3124210">
        <ele>594.0</ele>
        <time>2019-08-07T12:43:40Z</time>
      </trkpt>
      <trkpt lat="48.6233010" lon="14.3124370">
        <ele>594.0</ele>
        <time>2019-08-07T12:43:41Z</time>
      </trkpt>
      <trkpt lat="48.6233140" lon="14.3124500">
        <ele>594.2</ele>
        <time>2019-08-07T12:43:42Z</time>
      </trkpt>
      <trkpt lat="48.6233270" lon="14.3124620">
        <ele>594.4</ele>
        <time>2019-08-07T12:43:43Z</time>
      </trkpt>
      <trkpt lat="48.6233390" lon="14.3124740">
        <ele>594.6</ele>
        <time>2019-08-07T12:43:44Z</time>
      </trkpt>
      <trkpt lat="48.6233560" lon="14.3124900">
        <ele>594.8</ele>
        <time>2019-08-07T12:43:45Z</time>
      </trkpt>
      <trkpt lat="48.6233680" lon="14.3125060">
        <ele>595.0</ele>
        <time>2019-08-07T12:43:46Z</time>
      </trkpt>
      <trkpt lat="48.6233800" lon="14.3125210">
        <ele>595.2</ele>
        <time>2019-08-07T12:43:47Z</time>
      </trkpt>
      <trkpt lat="48.6233920" lon="14.3125390">
        <ele>595.4</ele>
        <time>2019-08-07T12:43:48Z</time>
      </trkpt>
      <trkpt lat="48.6234030" lon="14.3125550">
        <ele>595.4</ele>
        <time>2019-08-07T12:43:49Z</time>
      </trkpt>
      <trkpt lat="48.6234150" lon="14.3125740">
        <ele>595.6</ele>
        <time>2019-08-07T12:43:50Z</time>
      </trkpt>
      <trkpt lat="48.6234290" lon="14.3125930">
        <ele>595.8</ele>
        <time>2019-08-07T12:43:51Z</time>
      </trkpt>
      <trkpt lat="48.6234420" lon="14.3126110">
        <ele>596.0</ele>
        <time>2019-08-07T12:43:52Z</time>
      </trkpt>
      <trkpt lat="48.6234540" lon="14.3126270">
        <ele>596.2</ele>
        <time>2019-08-07T12:43:53Z</time>
      </trkpt>
      <trkpt lat="48.6234650" lon="14.3126420">
        <ele>596.4</ele>
        <time>2019-08-07T12:43:54Z</time>
      </trkpt>
      <trkpt lat="48.6234800" lon="14.3126610">
        <ele>596.6</ele>
        <time>2019-08-07T12:43:55Z</time>
      </trkpt>
      <trkpt lat="48.6234920" lon="14.3126760">
        <ele>596.8</ele>
        <time>2019-08-07T12:43:56Z</time>
      </trkpt>
      <trkpt lat="48.6235060" lon="14.3126900">
        <ele>597.0</ele>
        <time>2019-08-07T12:43:57Z</time>
      </trkpt>
      <trkpt lat="48.6235190" lon="14.3127020">
        <ele>597.0</ele>
        <time>2019-08-07T12:43:58Z</time>
      </trkpt>
      <trkpt lat="48.6235320" lon="14.3127160">
        <ele>597.2</ele>
        <time>2019-08-07T12:43:59Z</time>
      </trkpt>
      <trkpt lat="48.6235460" lon="14.3127300">
        <ele>597.4</ele>
        <time>2019-08-07T12:44:00Z</time>
      </trkpt>
      <trkpt lat="48.6235600" lon="14.3127440">
        <ele>597.6</ele>
        <time>2019-08-07T12:44:01Z</time>
      </trkpt>
      <trkpt lat="48.6235720" lon="14.3127610">
        <ele>597.8</ele>
        <time>2019-08-07T12:44:02Z</time>
      </trkpt>
      <trkpt lat="48.6235830" lon="14.3127790">
        <ele>598.0</ele>
        <time>2019-08-07T12:44:03Z</time>
      </trkpt>
      <trkpt lat="48.6235940" lon="14.3127970">
        <ele>598.0</ele>
        <time>2019-08-07T12:44:04Z</time>
      </trkpt>
      <trkpt lat="48.6236050" lon="14.3128210">
        <ele>598.2</ele>
        <time>2019-08-07T12:44:05Z</time>
      </trkpt>
      <trkpt lat="48.6236170" lon="14.3128410">
        <ele>598.4</ele>
        <time>2019-08-07T12:44:06Z</time>
      </trkpt>
      <trkpt lat="48.6236290" lon="14.3128600">
        <ele>598.4</ele>
        <time>2019-08-07T12:44:07Z</time>
      </trkpt>
      <trkpt lat="48.6236420" lon="14.3128790">
        <ele>598.6</ele>
        <time>2019-08-07T12:44:08Z</time>
      </trkpt>
      <trkpt lat="48.6236510" lon="14.3128940">
        <ele>598.8</ele>
        <time>2019-08-07T12:44:09Z</time>
      </trkpt>
      <trkpt lat="48.6236590" lon="14.3129090">
        <ele>598.8</ele>
        <time>2019-08-07T12:44:10Z</time>
      </trkpt>
      <trkpt lat="48.6236740" lon="14.3129280">
        <ele>599.0</ele>
        <time>2019-08-07T12:44:11Z</time>
      </trkpt>
      <trkpt lat="48.6236890" lon="14.3129450">
        <ele>599.0</ele>
        <time>2019-08-07T12:44:12Z</time>
      </trkpt>
      <trkpt lat="48.6237060" lon="14.3129660">
        <ele>599.2</ele>
        <time>2019-08-07T12:44:13Z</time>
      </trkpt>
      <trkpt lat="48.6237200" lon="14.3129850">
        <ele>599.4</ele>
        <time>2019-08-07T12:44:14Z</time>
      </trkpt>
      <trkpt lat="48.6237390" lon="14.3130140">
        <ele>599.6</ele>
        <time>2019-08-07T12:44:15Z</time>
      </trkpt>
      <trkpt lat="48.6237540" lon="14.3130410">
        <ele>599.8</ele>
        <time>2019-08-07T12:44:16Z</time>
      </trkpt>
      <trkpt lat="48.6237690" lon="14.3130660">
        <ele>599.8</ele>
        <time>2019-08-07T12:44:17Z</time>
      </trkpt>
      <trkpt lat="48.6237840" lon="14.3130940">
        <ele>600.0</ele>
        <time>2019-08-07T12:44:18Z</time>
      </trkpt>
      <trkpt lat="48.6237990" lon="14.3131230">
        <ele>600.2</ele>
        <time>2019-08-07T12:44:19Z</time>
      </trkpt>
      <trkpt lat="48.6238140" lon="14.3131510">
        <ele>600.4</ele>
        <time>2019-08-07T12:44:20Z</time>
      </trkpt>
      <trkpt lat="48.6238290" lon="14.3131760">
        <ele>600.4</ele>
        <time>2019-08-07T12:44:21Z</time>
      </trkpt>
      <trkpt lat="48.6238460" lon="14.3132040">
        <ele>600.6</ele>
        <time>2019-08-07T12:44:22Z</time>
      </trkpt>
      <trkpt lat="48.6238610" lon="14.3132320">
        <ele>600.8</ele>
        <time>2019-08-07T12:44:23Z</time>
      </trkpt>
      <trkpt lat="48.6238760" lon="14.3132580">
        <ele>601.0</ele>
        <time>2019-08-07T12:44:24Z</time>
      </trkpt>
      <trkpt lat="48.6238940" lon="14.3132900">
        <ele>601.2</ele>
        <time>2019-08-07T12:44:25Z</time>
      </trkpt>
      <trkpt lat="48.6239090" lon="14.3133180">
        <ele>601.4</ele>
        <time>2019-08-07T12:44:26Z</time>
      </trkpt>
      <trkpt lat="48.6239220" lon="14.3133460">
        <ele>601.6</ele>
        <time>2019-08-07T12:44:27Z</time>
      </trkpt>
      <trkpt lat="48.6239380" lon="14.3133740">
        <ele>601.8</ele>
        <time>2019-08-07T12:44:28Z</time>
      </trkpt>
      <trkpt lat="48.6239540" lon="14.3133990">
        <ele>601.8</ele>
        <time>2019-08-07T12:44:29Z</time>
      </trkpt>
      <trkpt lat="48.6239670" lon="14.3134230">
        <ele>602.0</ele>
        <time>2019-08-07T12:44:30Z</time>
      </trkpt>
      <trkpt lat="48.6239850" lon="14.3134530">
        <ele>602.2</ele>
        <time>2019-08-07T12:44:31Z</time>
      </trkpt>
      <trkpt lat="48.6239990" lon="14.3134830">
        <ele>602.4</ele>
        <time>2019-08-07T12:44:32Z</time>
      </trkpt>
      <trkpt lat="48.6240120" lon="14.3135120">
        <ele>602.6</ele>
        <time>2019-08-07T12:44:33Z</time>
      </trkpt>
      <trkpt lat="48.6240220" lon="14.3135350">
        <ele>602.8</ele>
        <time>2019-08-07T12:44:34Z</time>
      </trkpt>
      <trkpt lat="48.6240370" lon="14.3135640">
        <ele>603.0</ele>
        <time>2019-08-07T12:44:35Z</time>
      </trkpt>
      <trkpt lat="48.6240520" lon="14.3135920">
        <ele>603.2</ele>
        <time>2019-08-07T12:44:36Z</time>
      </trkpt>
      <trkpt lat="48.6240650" lon="14.3136170">
        <ele>603.4</ele>
        <time>2019-08-07T12:44:37Z</time>
      </trkpt>
      <trkpt lat="48.6240800" lon="14.3136440">
        <ele>603.6</ele>
        <time>2019-08-07T12:44:38Z</time>
      </trkpt>
      <trkpt lat="48.6240940" lon="14.3136690">
        <ele>603.6</ele>
        <time>2019-08-07T12:44:39Z</time>
      </trkpt>
      <trkpt lat="48.6241090" lon="14.3136930">
        <ele>603.8</ele>
        <time>2019-08-07T12:44:40Z</time>
      </trkpt>
      <trkpt lat="48.6241240" lon="14.3137190">
        <ele>604.0</ele>
        <time>2019-08-07T12:44:41Z</time>
      </trkpt>
      <trkpt lat="48.6241390" lon="14.3137440">
        <ele>604.2</ele>
        <time>2019-08-07T12:44:42Z</time>
      </trkpt>
      <trkpt lat="48.6241540" lon="14.3137700">
        <ele>604.4</ele>
        <time>2019-08-07T12:44:43Z</time>
      </trkpt>
      <trkpt lat="48.6241670" lon="14.3137920">
        <ele>604.6</ele>
        <time>2019-08-07T12:44:44Z</time>
      </trkpt>
      <trkpt lat="48.6241810" lon="14.3138220">
        <ele>604.6</ele>
        <time>2019-08-07T12:44:45Z</time>
      </trkpt>
      <trkpt lat="48.6241950" lon="14.3138480">
        <ele>604.8</ele>
        <time>2019-08-07T12:44:46Z</time>
      </trkpt>
      <trkpt lat="48.6242090" lon="14.3138760">
        <ele>605.0</ele>
        <time>2019-08-07T12:44:47Z</time>
      </trkpt>
      <trkpt lat="48.6242230" lon="14.3139010">
        <ele>605.2</ele>
        <time>2019-08-07T12:44:48Z</time>
      </trkpt>
      <trkpt lat="48.6242390" lon="14.3139270">
        <ele>605.4</ele>
        <time>2019-08-07T12:44:49Z</time>
      </trkpt>
      <trkpt lat="48.6242530" lon="14.3139490">
        <ele>605.6</ele>
        <time>2019-08-07T12:44:50Z</time>
      </trkpt>
      <trkpt lat="48.6242690" lon="14.3139760">
        <ele>605.8</ele>
        <time>2019-08-07T12:44:51Z</time>
      </trkpt>
      <trkpt lat="48.6242840" lon="14.3140020">
        <ele>605.8</ele>
        <time>2019-08-07T12:44:52Z</time>
      </trkpt>
      <trkpt lat="48.6242970" lon="14.3140250">
        <ele>606.0</ele>
        <time>2019-08-07T12:44:53Z</time>
      </trkpt>
      <trkpt lat="48.6243100" lon="14.3140490">
        <ele>606.2</ele>
        <time>2019-08-07T12:44:54Z</time>
      </trkpt>
      <trkpt lat="48.6243240" lon="14.3140720">
        <ele>606.4</ele>
        <time>2019-08-07T12:44:55Z</time>
      </trkpt>
      <trkpt lat="48.6243390" lon="14.3140980">
        <ele>606.6</ele>
        <time>2019-08-07T12:44:56Z</time>
      </trkpt>
      <trkpt lat="48.6243520" lon="14.3141230">
        <ele>606.6</ele>
        <time>2019-08-07T12:44:57Z</time>
      </trkpt>
      <trkpt lat="48.6243670" lon="14.3141500">
        <ele>606.8</ele>
        <time>2019-08-07T12:44:58Z</time>
      </trkpt>
      <trkpt lat="48.6243820" lon="14.3141780">
        <ele>607.0</ele>
        <time>2019-08-07T12:44:59Z</time>
      </trkpt>
      <trkpt lat="48.6243970" lon="14.3142060">
        <ele>607.0</ele>
        <time>2019-08-07T12:45:00Z</time>
      </trkpt>
      <trkpt lat="48.6244120" lon="14.3142360">
        <ele>607.2</ele>
        <time>2019-08-07T12:45:01Z</time>
      </trkpt>
      <trkpt lat="48.6244270" lon="14.3142650">
        <ele>607.4</ele>
        <time>2019-08-07T12:45:02Z</time>
      </trkpt>
      <trkpt lat="48.6244430" lon="14.3142940">
        <ele>607.4</ele>
        <time>2019-08-07T12:45:03Z</time>
      </trkpt>
      <trkpt lat="48.6244590" lon="14.3143230">
        <ele>607.6</ele>
        <time>2019-08-07T12:45:04Z</time>
      </trkpt>
      <trkpt lat="48.6244740" lon="14.3143510">
        <ele>607.8</ele>
        <time>2019-08-07T12:45:05Z</time>
      </trkpt>
      <trkpt lat="48.6244870" lon="14.3143780">
        <ele>607.8</ele>
        <time>2019-08-07T12:45:06Z</time>
      </trkpt>
      <trkpt lat="48.6245020" lon="14.3144070">
        <ele>608.0</ele>
        <time>2019-08-07T12:45:07Z</time>
      </trkpt>
      <trkpt lat="48.6245150" lon="14.3144360">
        <ele>608.0</ele>
        <time>2019-08-07T12:45:08Z</time>
      </trkpt>
      <trkpt lat="48.6245290" lon="14.3144660">
        <ele>608.2</ele>
        <time>2019-08-07T12:45:09Z</time>
      </trkpt>
      <trkpt lat="48.6245410" lon="14.3144910">
        <ele>608.4</ele>
        <time>2019-08-07T12:45:10Z</time>
      </trkpt>
      <trkpt lat="48.6245540" lon="14.3145270">
        <ele>608.4</ele>
        <time>2019-08-07T12:45:11Z</time>
      </trkpt>
      <trkpt lat="48.6245670" lon="14.3145580">
        <ele>608.6</ele>
        <time>2019-08-07T12:45:12Z</time>
      </trkpt>
      <trkpt lat="48.6245810" lon="14.3145890">
        <ele>608.8</ele>
        <time>2019-08-07T12:45:13Z</time>
      </trkpt>
      <trkpt lat="48.6245940" lon="14.3146200">
        <ele>608.8</ele>
        <time>2019-08-07T12:45:14Z</time>
      </trkpt>
      <trkpt lat="48.6246090" lon="14.3146520">
        <ele>609.0</ele>
        <time>2019-08-07T12:45:15Z</time>
      </trkpt>
      <trkpt lat="48.6246220" lon="14.3146840">
        <ele>609.0</ele>
        <time>2019-08-07T12:45:16Z</time>
      </trkpt>
      <trkpt lat="48.6246350" lon="14.3147190">
        <ele>609.2</ele>
        <time>2019-08-07T12:45:17Z</time>
      </trkpt>
      <trkpt lat="48.6246470" lon="14.3147520">
        <ele>609.2</ele>
        <time>2019-08-07T12:45:18Z</time>
      </trkpt>
      <trkpt lat="48.6246610" lon="14.3147840">
        <ele>609.4</ele>
        <time>2019-08-07T12:45:19Z</time>
      </trkpt>
      <trkpt lat="48.6246750" lon="14.3148170">
        <ele>609.4</ele>
        <time>2019-08-07T12:45:20Z</time>
      </trkpt>
      <trkpt lat="48.6246890" lon="14.3148480">
        <ele>609.4</ele>
        <time>2019-08-07T12:45:21Z</time>
      </trkpt>
      <trkpt lat="48.6247040" lon="14.3148800">
        <ele>609.6</ele>
        <time>2019-08-07T12:45:22Z</time>
      </trkpt>
      <trkpt lat="48.6247170" lon="14.3149130">
        <ele>609.6</ele>
        <time>2019-08-07T12:45:23Z</time>
      </trkpt>
      <trkpt lat="48.6247290" lon="14.3149440">
        <ele>609.8</ele>
        <time>2019-08-07T12:45:24Z</time>
      </trkpt>
      <trkpt lat="48.6247420" lon="14.3149840">
        <ele>609.8</ele>
        <time>2019-08-07T12:45:25Z</time>
      </trkpt>
      <trkpt lat="48.6247530" lon="14.3150190">
        <ele>610.0</ele>
        <time>2019-08-07T12:45:26Z</time>
      </trkpt>
      <trkpt lat="48.6247640" lon="14.3150560">
        <ele>610.0</ele>
        <time>2019-08-07T12:45:27Z</time>
      </trkpt>
      <trkpt lat="48.6247770" lon="14.3150910">
        <ele>610.2</ele>
        <time>2019-08-07T12:45:28Z</time>
      </trkpt>
      <trkpt lat="48.6247900" lon="14.3151250">
        <ele>610.2</ele>
        <time>2019-08-07T12:45:29Z</time>
      </trkpt>
      <trkpt lat="48.6248010" lon="14.3151590">
        <ele>610.2</ele>
        <time>2019-08-07T12:45:30Z</time>
      </trkpt>
      <trkpt lat="48.6248130" lon="14.3151990">
        <ele>610.4</ele>
        <time>2019-08-07T12:45:31Z</time>
      </trkpt>
      <trkpt lat="48.6248260" lon="14.3152360">
        <ele>610.4</ele>
        <time>2019-08-07T12:45:32Z</time>
      </trkpt>
      <trkpt lat="48.6248380" lon="14.3152730">
        <ele>610.4</ele>
        <time>2019-08-07T12:45:33Z</time>
      </trkpt>
      <trkpt lat="48.6248500" lon="14.3153140">
        <ele>610.6</ele>
        <time>2019-08-07T12:45:34Z</time>
      </trkpt>
      <trkpt lat="48.6248620" lon="14.3153560">
        <ele>610.6</ele>
        <time>2019-08-07T12:45:35Z</time>
      </trkpt>
      <trkpt lat="48.6248750" lon="14.3153960">
        <ele>610.6</ele>
        <time>2019-08-07T12:45:36Z</time>
      </trkpt>
      <trkpt lat="48.6248880" lon="14.3154380">
        <ele>610.8</ele>
        <time>2019-08-07T12:45:37Z</time>
      </trkpt>
      <trkpt lat="48.6249000" lon="14.3154820">
        <ele>610.8</ele>
        <time>2019-08-07T12:45:38Z</time>
      </trkpt>
      <trkpt lat="48.6249110" lon="14.3155250">
        <ele>610.8</ele>
        <time>2019-08-07T12:45:39Z</time>
      </trkpt>
      <trkpt lat="48.6249210" lon="14.3155700">
        <ele>611.0</ele>
        <time>2019-08-07T12:45:40Z</time>
      </trkpt>
      <trkpt lat="48.6249310" lon="14.3156130">
        <ele>611.0</ele>
        <time>2019-08-07T12:45:41Z</time>
      </trkpt>
      <trkpt lat="48.6249420" lon="14.3156600">
        <ele>611.2</ele>
        <time>2019-08-07T12:45:42Z</time>
      </trkpt>
      <trkpt lat="48.6249520" lon="14.3157060">
        <ele>611.2</ele>
        <time>2019-08-07T12:45:43Z</time>
      </trkpt>
      <trkpt lat="48.6249640" lon="14.3157510">
        <ele>611.4</ele>
        <time>2019-08-07T12:45:44Z</time>
      </trkpt>
      <trkpt lat="48.6249750" lon="14.3157960">
        <ele>611.4</ele>
        <time>2019-08-07T12:45:45Z</time>
      </trkpt>
      <trkpt lat="48.6249870" lon="14.3158410">
        <ele>611.6</ele>
        <time>2019-08-07T12:45:46Z</time>
      </trkpt>
      <trkpt lat="48.6249970" lon="14.3158850">
        <ele>611.6</ele>
        <time>2019-08-07T12:45:47Z</time>
      </trkpt>
      <trkpt lat="48.6250080" lon="14.3159300">
        <ele>611.8</ele>
        <time>2019-08-07T12:45:48Z</time>
      </trkpt>
      <trkpt lat="48.6250160" lon="14.3159770">
        <ele>611.8</ele>
        <time>2019-08-07T12:45:49Z</time>
      </trkpt>
      <trkpt lat="48.6250220" lon="14.3160200">
        <ele>612.0</ele>
        <time>2019-08-07T12:45:50Z</time>
      </trkpt>
      <trkpt lat="48.6250290" lon="14.3160720">
        <ele>612.0</ele>
        <time>2019-08-07T12:45:51Z</time>
      </trkpt>
      <trkpt lat="48.6250360" lon="14.3161210">
        <ele>612.0</ele>
        <time>2019-08-07T12:45:52Z</time>
      </trkpt>
      <trkpt lat="48.6250440" lon="14.3161700">
        <ele>612.2</ele>
        <time>2019-08-07T12:45:53Z</time>
      </trkpt>
      <trkpt lat="48.6250520" lon="14.3162130">
        <ele>612.2</ele>
        <time>2019-08-07T12:45:54Z</time>
      </trkpt>
      <trkpt lat="48.6250590" lon="14.3162670">
        <ele>612.2</ele>
        <time>2019-08-07T12:45:55Z</time>
      </trkpt>
      <trkpt lat="48.6250660" lon="14.3163120">
        <ele>612.4</ele>
        <time>2019-08-07T12:45:56Z</time>
      </trkpt>
      <trkpt lat="48.6250730" lon="14.3163600">
        <ele>612.4</ele>
        <time>2019-08-07T12:45:57Z</time>
      </trkpt>
      <trkpt lat="48.6250800" lon="14.3164100">
        <ele>612.4</ele>
        <time>2019-08-07T12:45:58Z</time>
      </trkpt>
      <trkpt lat="48.6250880" lon="14.3164590">
        <ele>612.6</ele>
        <time>2019-08-07T12:45:59Z</time>
      </trkpt>
      <trkpt lat="48.6250950" lon="14.3165120">
        <ele>612.6</ele>
        <time>2019-08-07T12:46:00Z</time>
      </trkpt>
      <trkpt lat="48.6251050" lon="14.3165630">
        <ele>612.6</ele>
        <time>2019-08-07T12:46:01Z</time>
      </trkpt>
      <trkpt lat="48.6251130" lon="14.3166170">
        <ele>612.6</ele>
        <time>2019-08-07T12:46:02Z</time>
      </trkpt>
      <trkpt lat="48.6251230" lon="14.3166720">
        <ele>612.8</ele>
        <time>2019-08-07T12:46:03Z</time>
      </trkpt>
      <trkpt lat="48.6251320" lon="14.3167190">
        <ele>612.8</ele>
        <time>2019-08-07T12:46:04Z</time>
      </trkpt>
      <trkpt lat="48.6251420" lon="14.3167820">
        <ele>612.8</ele>
        <time>2019-08-07T12:46:05Z</time>
      </trkpt>
      <trkpt lat="48.6251530" lon="14.3168350">
        <ele>612.8</ele>
        <time>2019-08-07T12:46:06Z</time>
      </trkpt>
      <trkpt lat="48.6251630" lon="14.3168870">
        <ele>613.0</ele>
        <time>2019-08-07T12:46:07Z</time>
      </trkpt>
      <trkpt lat="48.6251730" lon="14.3169400">
        <ele>613.0</ele>
        <time>2019-08-07T12:46:08Z</time>
      </trkpt>
      <trkpt lat="48.6251830" lon="14.3169900">
        <ele>613.2</ele>
        <time>2019-08-07T12:46:09Z</time>
      </trkpt>
      <trkpt lat="48.6251910" lon="14.3170370">
        <ele>613.2</ele>
        <time>2019-08-07T12:46:10Z</time>
      </trkpt>
      <trkpt lat="48.6252030" lon="14.3170920">
        <ele>613.4</ele>
        <time>2019-08-07T12:46:11Z</time>
      </trkpt>
      <trkpt lat="48.6252130" lon="14.3171430">
        <ele>613.6</ele>
        <time>2019-08-07T12:46:12Z</time>
      </trkpt>
      <trkpt lat="48.6252240" lon="14.3171900">
        <ele>613.8</ele>
        <time>2019-08-07T12:46:13Z</time>
      </trkpt>
      <trkpt lat="48.6252320" lon="14.3172340">
        <ele>614.0</ele>
        <time>2019-08-07T12:46:14Z</time>
      </trkpt>
      <trkpt lat="48.6252410" lon="14.3172900">
        <ele>614.0</ele>
        <time>2019-08-07T12:46:15Z</time>
      </trkpt>
      <trkpt lat="48.6252500" lon="14.3173400">
        <ele>614.2</ele>
        <time>2019-08-07T12:46:16Z</time>
      </trkpt>
      <trkpt lat="48.6252580" lon="14.3173880">
        <ele>614.4</ele>
        <time>2019-08-07T12:46:17Z</time>
      </trkpt>
      <trkpt lat="48.6252660" lon="14.3174360">
        <ele>614.6</ele>
        <time>2019-08-07T12:46:18Z</time>
      </trkpt>
      <trkpt lat="48.6252730" lon="14.3174830">
        <ele>614.8</ele>
        <time>2019-08-07T12:46:19Z</time>
      </trkpt>
      <trkpt lat="48.6252810" lon="14.3175310">
        <ele>614.8</ele>
        <time>2019-08-07T12:46:20Z</time>
      </trkpt>
      <trkpt lat="48.6252900" lon="14.3175830">
        <ele>615.0</ele>
        <time>2019-08-07T12:46:21Z</time>
      </trkpt>
      <trkpt lat="48.6253000" lon="14.3176330">
        <ele>615.0</ele>
        <time>2019-08-07T12:46:22Z</time>
      </trkpt>
      <trkpt lat="48.6253100" lon="14.3176830">
        <ele>615.0</ele>
        <time>2019-08-07T12:46:23Z</time>
      </trkpt>
      <trkpt lat="48.6253180" lon="14.3177280">
        <ele>615.0</ele>
        <time>2019-08-07T12:46:24Z</time>
      </trkpt>
      <trkpt lat="48.6253300" lon="14.3177930">
        <ele>615.2</ele>
        <time>2019-08-07T12:46:25Z</time>
      </trkpt>
      <trkpt lat="48.6253420" lon="14.3178490">
        <ele>615.2</ele>
        <time>2019-08-07T12:46:26Z</time>
      </trkpt>
      <trkpt lat="48.6253560" lon="14.3179040">
        <ele>615.2</ele>
        <time>2019-08-07T12:46:27Z</time>
      </trkpt>
      <trkpt lat="48.6253690" lon="14.3179610">
        <ele>615.2</ele>
        <time>2019-08-07T12:46:28Z</time>
      </trkpt>
      <trkpt lat="48.6253800" lon="14.3180200">
        <ele>615.2</ele>
        <time>2019-08-07T12:46:29Z</time>
      </trkpt>
      <trkpt lat="48.6253890" lon="14.3180750">
        <ele>615.2</ele>
        <time>2019-08-07T12:46:30Z</time>
      </trkpt>
      <trkpt lat="48.6254040" lon="14.3181400">
        <ele>615.2</ele>
        <time>2019-08-07T12:46:31Z</time>
      </trkpt>
      <trkpt lat="48.6254190" lon="14.3181980">
        <ele>615.2</ele>
        <time>2019-08-07T12:46:32Z</time>
      </trkpt>
      <trkpt lat="48.6254320" lon="14.3182590">
        <ele>615.2</ele>
        <time>2019-08-07T12:46:33Z</time>
      </trkpt>
      <trkpt lat="48.6254450" lon="14.3183190">
        <ele>615.2</ele>
        <time>2019-08-07T12:46:34Z</time>
      </trkpt>
      <trkpt lat="48.6254570" lon="14.3183820">
        <ele>615.2</ele>
        <time>2019-08-07T12:46:35Z</time>
      </trkpt>
      <trkpt lat="48.6254690" lon="14.3184420">
        <ele>615.4</ele>
        <time>2019-08-07T12:46:36Z</time>
      </trkpt>
      <trkpt lat="48.6254820" lon="14.3185020">
        <ele>615.4</ele>
        <time>2019-08-07T12:46:37Z</time>
      </trkpt>
      <trkpt lat="48.6254940" lon="14.3185630">
        <ele>615.4</ele>
        <time>2019-08-07T12:46:38Z</time>
      </trkpt>
      <trkpt lat="48.6255050" lon="14.3186220">
        <ele>615.4</ele>
        <time>2019-08-07T12:46:39Z</time>
      </trkpt>
      <trkpt lat="48.6255150" lon="14.3186830">
        <ele>615.4</ele>
        <time>2019-08-07T12:46:40Z</time>
      </trkpt>
      <trkpt lat="48.6255270" lon="14.3187400">
        <ele>615.6</ele>
        <time>2019-08-07T12:46:41Z</time>
      </trkpt>
      <trkpt lat="48.6255390" lon="14.3187980">
        <ele>615.6</ele>
        <time>2019-08-07T12:46:42Z</time>
      </trkpt>
      <trkpt lat="48.6255500" lon="14.3188530">
        <ele>615.6</ele>
        <time>2019-08-07T12:46:43Z</time>
      </trkpt>
      <trkpt lat="48.6255620" lon="14.3189020">
        <ele>615.8</ele>
        <time>2019-08-07T12:46:44Z</time>
      </trkpt>
      <trkpt lat="48.6255710" lon="14.3189490">
        <ele>616.0</ele>
        <time>2019-08-07T12:46:45Z</time>
      </trkpt>
      <trkpt lat="48.6255800" lon="14.3189940">
        <ele>616.0</ele>
        <time>2019-08-07T12:46:46Z</time>
      </trkpt>
      <trkpt lat="48.6255900" lon="14.3190400">
        <ele>616.2</ele>
        <time>2019-08-07T12:46:47Z</time>
      </trkpt>
      <trkpt lat="48.6256010" lon="14.3190850">
        <ele>616.4</ele>
        <time>2019-08-07T12:46:48Z</time>
      </trkpt>
      <trkpt lat="48.6256100" lon="14.3191310">
        <ele>616.6</ele>
        <time>2019-08-07T12:46:49Z</time>
      </trkpt>
      <trkpt lat="48.6256190" lon="14.3191720">
        <ele>616.6</ele>
        <time>2019-08-07T12:46:50Z</time>
      </trkpt>
      <trkpt lat="48.6256300" lon="14.3192220">
        <ele>616.8</ele>
        <time>2019-08-07T12:46:51Z</time>
      </trkpt>
      <trkpt lat="48.6256400" lon="14.3192670">
        <ele>617.0</ele>
        <time>2019-08-07T12:46:52Z</time>
      </trkpt>
      <trkpt lat="48.6256500" lon="14.3193120">
        <ele>617.0</ele>
        <time>2019-08-07T12:46:53Z</time>
      </trkpt>
      <trkpt lat="48.6256590" lon="14.3193580">
        <ele>617.2</ele>
        <time>2019-08-07T12:46:54Z</time>
      </trkpt>
      <trkpt lat="48.6256660" lon="14.3194040">
        <ele>617.4</ele>
        <time>2019-08-07T12:46:55Z</time>
      </trkpt>
      <trkpt lat="48.6256730" lon="14.3194500">
        <ele>617.4</ele>
        <time>2019-08-07T12:46:56Z</time>
      </trkpt>
      <trkpt lat="48.6256790" lon="14.3194970">
        <ele>617.6</ele>
        <time>2019-08-07T12:46:57Z</time>
      </trkpt>
      <trkpt lat="48.6256850" lon="14.3195430">
        <ele>617.6</ele>
        <time>2019-08-07T12:46:58Z</time>
      </trkpt>
      <trkpt lat="48.6256920" lon="14.3195850">
        <ele>617.8</ele>
        <time>2019-08-07T12:46:59Z</time>
      </trkpt>
      <trkpt lat="48.6256990" lon="14.3196300">
        <ele>617.8</ele>
        <time>2019-08-07T12:47:00Z</time>
      </trkpt>
      <trkpt lat="48.6257060" lon="14.3196740">
        <ele>618.0</ele>
        <time>2019-08-07T12:47:01Z</time>
      </trkpt>
      <trkpt lat="48.6257110" lon="14.3197190">
        <ele>618.0</ele>
        <time>2019-08-07T12:47:02Z</time>
      </trkpt>
      <trkpt lat="48.6257160" lon="14.3197650">
        <ele>618.0</ele>
        <time>2019-08-07T12:47:03Z</time>
      </trkpt>
      <trkpt lat="48.6257210" lon="14.3198130">
        <ele>618.0</ele>
        <time>2019-08-07T12:47:04Z</time>
      </trkpt>
      <trkpt lat="48.6257280" lon="14.3198620">
        <ele>618.2</ele>
        <time>2019-08-07T12:47:05Z</time>
      </trkpt>
      <trkpt lat="48.6257340" lon="14.3199100">
        <ele>618.2</ele>
        <time>2019-08-07T12:47:06Z</time>
      </trkpt>
      <trkpt lat="48.6257390" lon="14.3199600">
        <ele>618.2</ele>
        <time>2019-08-07T12:47:07Z</time>
      </trkpt>
      <trkpt lat="48.6257430" lon="14.3200110">
        <ele>618.2</ele>
        <time>2019-08-07T12:47:08Z</time>
      </trkpt>
      <trkpt lat="48.6257490" lon="14.3200600">
        <ele>618.2</ele>
        <time>2019-08-07T12:47:09Z</time>
      </trkpt>
      <trkpt lat="48.6257550" lon="14.3201050">
        <ele>618.2</ele>
        <time>2019-08-07T12:47:10Z</time>
      </trkpt>
      <trkpt lat="48.6257610" lon="14.3201620">
        <ele>618.2</ele>
        <time>2019-08-07T12:47:11Z</time>
      </trkpt>
      <trkpt lat="48.6257640" lon="14.3202190">
        <ele>618.0</ele>
        <time>2019-08-07T12:47:12Z</time>
      </trkpt>
      <trkpt lat="48.6257720" lon="14.3202780">
        <ele>618.0</ele>
        <time>2019-08-07T12:47:13Z</time>
      </trkpt>
      <trkpt lat="48.6257820" lon="14.3203370">
        <ele>618.0</ele>
        <time>2019-08-07T12:47:14Z</time>
      </trkpt>
      <trkpt lat="48.6257910" lon="14.3204050">
        <ele>618.0</ele>
        <time>2019-08-07T12:47:15Z</time>
      </trkpt>
      <trkpt lat="48.6257990" lon="14.3204750">
        <ele>617.8</ele>
        <time>2019-08-07T12:47:16Z</time>
      </trkpt>
      <trkpt lat="48.6258060" lon="14.3205480">
        <ele>617.8</ele>
        <time>2019-08-07T12:47:17Z</time>
      </trkpt>
      <trkpt lat="48.6258130" lon="14.3206220">
        <ele>617.8</ele>
        <time>2019-08-07T12:47:18Z</time>
      </trkpt>
      <trkpt lat="48.6258190" lon="14.3206990">
        <ele>617.6</ele>
        <time>2019-08-07T12:47:19Z</time>
      </trkpt>
      <trkpt lat="48.6258260" lon="14.3207740">
        <ele>617.6</ele>
        <time>2019-08-07T12:47:20Z</time>
      </trkpt>
      <trkpt lat="48.6258330" lon="14.3208510">
        <ele>617.4</ele>
        <time>2019-08-07T12:47:21Z</time>
      </trkpt>
      <trkpt lat="48.6258390" lon="14.3209300">
        <ele>617.4</ele>
        <time>2019-08-07T12:47:22Z</time>
      </trkpt>
      <trkpt lat="48.6258460" lon="14.3210090">
        <ele>617.2</ele>
        <time>2019-08-07T12:47:23Z</time>
      </trkpt>
      <trkpt lat="48.6258540" lon="14.3210870">
        <ele>617.2</ele>
        <time>2019-08-07T12:47:24Z</time>
      </trkpt>
      <trkpt lat="48.6258630" lon="14.3211700">
        <ele>617.0</ele>
        <time>2019-08-07T12:47:25Z</time>
      </trkpt>
      <trkpt lat="48.6258730" lon="14.3212530">
        <ele>617.0</ele>
        <time>2019-08-07T12:47:26Z</time>
      </trkpt>
      <trkpt lat="48.6258810" lon="14.3213360">
        <ele>617.0</ele>
        <time>2019-08-07T12:47:27Z</time>
      </trkpt>
      <trkpt lat="48.6258900" lon="14.3214200">
        <ele>617.0</ele>
        <time>2019-08-07T12:47:28Z</time>
      </trkpt>
      <trkpt lat="48.6259000" lon="14.3215040">
        <ele>616.8</ele>
        <time>2019-08-07T12:47:29Z</time>
      </trkpt>
      <trkpt lat="48.6259090" lon="14.3215820">
        <ele>616.8</ele>
        <time>2019-08-07T12:47:30Z</time>
      </trkpt>
      <trkpt lat="48.6259200" lon="14.3216770">
        <ele>616.8</ele>
        <time>2019-08-07T12:47:31Z</time>
      </trkpt>
      <trkpt lat="48.6259300" lon="14.3217640">
        <ele>616.8</ele>
        <time>2019-08-07T12:47:32Z</time>
      </trkpt>
      <trkpt lat="48.6259400" lon="14.3218500">
        <ele>616.6</ele>
        <time>2019-08-07T12:47:33Z</time>
      </trkpt>
      <trkpt lat="48.6259500" lon="14.3219370">
        <ele>616.6</ele>
        <time>2019-08-07T12:47:34Z</time>
      </trkpt>
      <trkpt lat="48.6259640" lon="14.3220270">
        <ele>616.4</ele>
        <time>2019-08-07T12:47:35Z</time>
      </trkpt>
      <trkpt lat="48.6259770" lon="14.3221140">
        <ele>616.4</ele>
        <time>2019-08-07T12:47:36Z</time>
      </trkpt>
      <trkpt lat="48.6259930" lon="14.3222010">
        <ele>616.2</ele>
        <time>2019-08-07T12:47:37Z</time>
      </trkpt>
      <trkpt lat="48.6260100" lon="14.3222880">
        <ele>616.2</ele>
        <time>2019-08-07T12:47:38Z</time>
      </trkpt>
      <trkpt lat="48.6260280" lon="14.3223740">
        <ele>616.0</ele>
        <time>2019-08-07T12:47:39Z</time>
      </trkpt>
      <trkpt lat="48.6260460" lon="14.3224600">
        <ele>616.0</ele>
        <time>2019-08-07T12:47:40Z</time>
      </trkpt>
      <trkpt lat="48.6260690" lon="14.3225510">
        <ele>615.8</ele>
        <time>2019-08-07T12:47:41Z</time>
      </trkpt>
      <trkpt lat="48.6260960" lon="14.3226460">
        <ele>615.6</ele>
        <time>2019-08-07T12:47:42Z</time>
      </trkpt>
      <trkpt lat="48.6261230" lon="14.3227450">
        <ele>615.2</ele>
        <time>2019-08-07T12:47:43Z</time>
      </trkpt>
      <trkpt lat="48.6261510" lon="14.3228520">
        <ele>615.0</ele>
        <time>2019-08-07T12:47:44Z</time>
      </trkpt>
      <trkpt lat="48.6261800" lon="14.3229680">
        <ele>614.6</ele>
        <time>2019-08-07T12:47:45Z</time>
      </trkpt>
      <trkpt lat="48.6262060" lon="14.3230860">
        <ele>614.4</ele>
        <time>2019-08-07T12:47:46Z</time>
      </trkpt>
      <trkpt lat="48.6262280" lon="14.3232080">
        <ele>614.2</ele>
        <time>2019-08-07T12:47:47Z</time>
      </trkpt>
      <trkpt lat="48.6262480" lon="14.3233330">
        <ele>614.0</ele>
        <time>2019-08-07T12:47:48Z</time>
      </trkpt>
      <trkpt lat="48.6262640" lon="14.3234560">
        <ele>613.8</ele>
        <time>2019-08-07T12:47:49Z</time>
      </trkpt>
      <trkpt lat="48.6262750" lon="14.3235650">
        <ele>613.8</ele>
        <time>2019-08-07T12:47:50Z</time>
      </trkpt>
      <trkpt lat="48.6262860" lon="14.3236970">
        <ele>613.8</ele>
        <time>2019-08-07T12:47:51Z</time>
      </trkpt>
      <trkpt lat="48.6262940" lon="14.3238170">
        <ele>613.6</ele>
        <time>2019-08-07T12:47:52Z</time>
      </trkpt>
      <trkpt lat="48.6263010" lon="14.3239290">
        <ele>613.6</ele>
        <time>2019-08-07T12:47:53Z</time>
      </trkpt>
      <trkpt lat="48.6263070" lon="14.3240260">
        <ele>613.6</ele>
        <time>2019-08-07T12:47:54Z</time>
      </trkpt>
      <trkpt lat="48.6263150" lon="14.3241530">
        <ele>613.6</ele>
        <time>2019-08-07T12:47:55Z</time>
      </trkpt>
      <trkpt lat="48.6263230" lon="14.3242560">
        <ele>613.8</ele>
        <time>2019-08-07T12:47:56Z</time>
      </trkpt>
      <trkpt lat="48.6263290" lon="14.3243540">
        <ele>614.0</ele>
        <time>2019-08-07T12:47:57Z</time>
      </trkpt>
      <trkpt lat="48.6263320" lon="14.3244460">
        <ele>614.0</ele>
        <time>2019-08-07T12:47:58Z</time>
      </trkpt>
      <trkpt lat="48.6263360" lon="14.3245380">
        <ele>614.2</ele>
        <time>2019-08-07T12:47:59Z</time>
      </trkpt>
      <trkpt lat="48.6263410" lon="14.3246250">
        <ele>614.4</ele>
        <time>2019-08-07T12:48:00Z</time>
      </trkpt>
      <trkpt lat="48.6263450" lon="14.3247050">
        <ele>614.6</ele>
        <time>2019-08-07T12:48:01Z</time>
      </trkpt>
      <trkpt lat="48.6263490" lon="14.3247810">
        <ele>615.0</ele>
        <time>2019-08-07T12:48:02Z</time>
      </trkpt>
      <trkpt lat="48.6263520" lon="14.3248510">
        <ele>615.2</ele>
        <time>2019-08-07T12:48:03Z</time>
      </trkpt>
      <trkpt lat="48.6263520" lon="14.3249110">
        <ele>615.6</ele>
        <time>2019-08-07T12:48:04Z</time>
      </trkpt>
      <trkpt lat="48.6263540" lon="14.3249860">
        <ele>615.8</ele>
        <time>2019-08-07T12:48:05Z</time>
      </trkpt>
      <trkpt lat="48.6263560" lon="14.3250480">
        <ele>616.0</ele>
        <time>2019-08-07T12:48:06Z</time>
      </trkpt>
      <trkpt lat="48.6263590" lon="14.3251060">
        <ele>616.0</ele>
        <time>2019-08-07T12:48:07Z</time>
      </trkpt>
      <trkpt lat="48.6263600" lon="14.3251620">
        <ele>616.2</ele>
        <time>2019-08-07T12:48:08Z</time>
      </trkpt>
      <trkpt lat="48.6263600" lon="14.3252120">
        <ele>616.4</ele>
        <time>2019-08-07T12:48:09Z</time>
      </trkpt>
      <trkpt lat="48.6263600" lon="14.3252570">
        <ele>616.6</ele>
        <time>2019-08-07T12:48:10Z</time>
      </trkpt>
      <trkpt lat="48.6263620" lon="14.3253130">
        <ele>616.8</ele>
        <time>2019-08-07T12:48:11Z</time>
      </trkpt>
      <trkpt lat="48.6263640" lon="14.3253610">
        <ele>617.0</ele>
        <time>2019-08-07T12:48:12Z</time>
      </trkpt>
      <trkpt lat="48.6263670" lon="14.3254090">
        <ele>617.2</ele>
        <time>2019-08-07T12:48:13Z</time>
      </trkpt>
      <trkpt lat="48.6263710" lon="14.3254580">
        <ele>617.4</ele>
        <time>2019-08-07T12:48:14Z</time>
      </trkpt>
      <trkpt lat="48.6263740" lon="14.3255060">
        <ele>617.6</ele>
        <time>2019-08-07T12:48:15Z</time>
      </trkpt>
      <trkpt lat="48.6263770" lon="14.3255530">
        <ele>617.6</ele>
        <time>2019-08-07T12:48:16Z</time>
      </trkpt>
      <trkpt lat="48.6263790" lon="14.3256010">
        <ele>617.8</ele>
        <time>2019-08-07T12:48:17Z</time>
      </trkpt>
      <trkpt lat="48.6263820" lon="14.3256460">
        <ele>618.0</ele>
        <time>2019-08-07T12:48:18Z</time>
      </trkpt>
      <trkpt lat="48.6263860" lon="14.3256940">
        <ele>618.0</ele>
        <time>2019-08-07T12:48:19Z</time>
      </trkpt>
      <trkpt lat="48.6263900" lon="14.3257380">
        <ele>618.2</ele>
        <time>2019-08-07T12:48:20Z</time>
      </trkpt>
      <trkpt lat="48.6263940" lon="14.3257830">
        <ele>618.4</ele>
        <time>2019-08-07T12:48:21Z</time>
      </trkpt>
      <trkpt lat="48.6263970" lon="14.3258290">
        <ele>618.6</ele>
        <time>2019-08-07T12:48:22Z</time>
      </trkpt>
      <trkpt lat="48.6264010" lon="14.3258740">
        <ele>618.8</ele>
        <time>2019-08-07T12:48:23Z</time>
      </trkpt>
      <trkpt lat="48.6264060" lon="14.3259180">
        <ele>619.0</ele>
        <time>2019-08-07T12:48:24Z</time>
      </trkpt>
      <trkpt lat="48.6264090" lon="14.3259640">
        <ele>619.0</ele>
        <time>2019-08-07T12:48:25Z</time>
      </trkpt>
      <trkpt lat="48.6264140" lon="14.3260070">
        <ele>619.2</ele>
        <time>2019-08-07T12:48:26Z</time>
      </trkpt>
      <trkpt lat="48.6264190" lon="14.3260500">
        <ele>619.4</ele>
        <time>2019-08-07T12:48:27Z</time>
      </trkpt>
      <trkpt lat="48.6264260" lon="14.3260920">
        <ele>619.6</ele>
        <time>2019-08-07T12:48:28Z</time>
      </trkpt>
      <trkpt lat="48.6264310" lon="14.3261340">
        <ele>619.8</ele>
        <time>2019-08-07T12:48:29Z</time>
      </trkpt>
      <trkpt lat="48.6264350" lon="14.3261710">
        <ele>620.0</ele>
        <time>2019-08-07T12:48:30Z</time>
      </trkpt>
      <trkpt lat="48.6264430" lon="14.3262160">
        <ele>620.2</ele>
        <time>2019-08-07T12:48:31Z</time>
      </trkpt>
      <trkpt lat="48.6264510" lon="14.3262560">
        <ele>620.2</ele>
        <time>2019-08-07T12:48:32Z</time>
      </trkpt>
      <trkpt lat="48.6264590" lon="14.3262960">
        <ele>620.4</ele>
        <time>2019-08-07T12:48:33Z</time>
      </trkpt>
      <trkpt lat="48.6264660" lon="14.3263380">
        <ele>620.6</ele>
        <time>2019-08-07T12:48:34Z</time>
      </trkpt>
      <trkpt lat="48.6264720" lon="14.3263780">
        <ele>620.6</ele>
        <time>2019-08-07T12:48:35Z</time>
      </trkpt>
      <trkpt lat="48.6264780" lon="14.3264200">
        <ele>620.8</ele>
        <time>2019-08-07T12:48:36Z</time>
      </trkpt>
      <trkpt lat="48.6264840" lon="14.3264610">
        <ele>620.8</ele>
        <time>2019-08-07T12:48:37Z</time>
      </trkpt>
      <trkpt lat="48.6264900" lon="14.3265010">
        <ele>621.0</ele>
        <time>2019-08-07T12:48:38Z</time>
      </trkpt>
      <trkpt lat="48.6264980" lon="14.3265410">
        <ele>621.2</ele>
        <time>2019-08-07T12:48:39Z</time>
      </trkpt>
      <trkpt lat="48.6265060" lon="14.3265810">
        <ele>621.2</ele>
        <time>2019-08-07T12:48:40Z</time>
      </trkpt>
      <trkpt lat="48.6265150" lon="14.3266210">
        <ele>621.4</ele>
        <time>2019-08-07T12:48:41Z</time>
      </trkpt>
      <trkpt lat="48.6265230" lon="14.3266610">
        <ele>621.6</ele>
        <time>2019-08-07T12:48:42Z</time>
      </trkpt>
      <trkpt lat="48.6265310" lon="14.3267010">
        <ele>621.6</ele>
        <time>2019-08-07T12:48:43Z</time>
      </trkpt>
      <trkpt lat="48.6265390" lon="14.3267370">
        <ele>621.8</ele>
        <time>2019-08-07T12:48:44Z</time>
      </trkpt>
      <trkpt lat="48.6265470" lon="14.3267830">
        <ele>621.8</ele>
        <time>2019-08-07T12:48:45Z</time>
      </trkpt>
      <trkpt lat="48.6265570" lon="14.3268230">
        <ele>621.8</ele>
        <time>2019-08-07T12:48:46Z</time>
      </trkpt>
      <trkpt lat="48.6265670" lon="14.3268600">
        <ele>622.0</ele>
        <time>2019-08-07T12:48:47Z</time>
      </trkpt>
      <trkpt lat="48.6265780" lon="14.3269020">
        <ele>622.0</ele>
        <time>2019-08-07T12:48:48Z</time>
      </trkpt>
      <trkpt lat="48.6265880" lon="14.3269430">
        <ele>622.2</ele>
        <time>2019-08-07T12:48:49Z</time>
      </trkpt>
      <trkpt lat="48.6265970" lon="14.3269800">
        <ele>622.2</ele>
        <time>2019-08-07T12:48:50Z</time>
      </trkpt>
      <trkpt lat="48.6266060" lon="14.3270300">
        <ele>622.4</ele>
        <time>2019-08-07T12:48:51Z</time>
      </trkpt>
      <trkpt lat="48.6266150" lon="14.3270750">
        <ele>622.4</ele>
        <time>2019-08-07T12:48:52Z</time>
      </trkpt>
      <trkpt lat="48.6266250" lon="14.3271180">
        <ele>622.6</ele>
        <time>2019-08-07T12:48:53Z</time>
      </trkpt>
      <trkpt lat="48.6266350" lon="14.3271600">
        <ele>622.6</ele>
        <time>2019-08-07T12:48:54Z</time>
      </trkpt>
      <trkpt lat="48.6266470" lon="14.3272040">
        <ele>622.6</ele>
        <time>2019-08-07T12:48:55Z</time>
      </trkpt>
      <trkpt lat="48.6266570" lon="14.3272450">
        <ele>622.8</ele>
        <time>2019-08-07T12:48:56Z</time>
      </trkpt>
      <trkpt lat="48.6266680" lon="14.3272870">
        <ele>623.0</ele>
        <time>2019-08-07T12:48:57Z</time>
      </trkpt>
      <trkpt lat="48.6266780" lon="14.3273280">
        <ele>623.0</ele>
        <time>2019-08-07T12:48:58Z</time>
      </trkpt>
      <trkpt lat="48.6266880" lon="14.3273690">
        <ele>623.2</ele>
        <time>2019-08-07T12:48:59Z</time>
      </trkpt>
      <trkpt lat="48.6267000" lon="14.3274100">
        <ele>623.2</ele>
        <time>2019-08-07T12:49:00Z</time>
      </trkpt>
      <trkpt lat="48.6267100" lon="14.3274510">
        <ele>623.4</ele>
        <time>2019-08-07T12:49:01Z</time>
      </trkpt>
      <trkpt lat="48.6267220" lon="14.3274910">
        <ele>623.6</ele>
        <time>2019-08-07T12:49:02Z</time>
      </trkpt>
      <trkpt lat="48.6267350" lon="14.3275310">
        <ele>623.6</ele>
        <time>2019-08-07T12:49:03Z</time>
      </trkpt>
      <trkpt lat="48.6267470" lon="14.3275700">
        <ele>623.8</ele>
        <time>2019-08-07T12:49:04Z</time>
      </trkpt>
      <trkpt lat="48.6267600" lon="14.3276100">
        <ele>623.8</ele>
        <time>2019-08-07T12:49:05Z</time>
      </trkpt>
      <trkpt lat="48.6267720" lon="14.3276480">
        <ele>624.0</ele>
        <time>2019-08-07T12:49:06Z</time>
      </trkpt>
      <trkpt lat="48.6267840" lon="14.3276860">
        <ele>624.2</ele>
        <time>2019-08-07T12:49:07Z</time>
      </trkpt>
      <trkpt lat="48.6267970" lon="14.3277230">
        <ele>624.2</ele>
        <time>2019-08-07T12:49:08Z</time>
      </trkpt>
      <trkpt lat="48.6268100" lon="14.3277620">
        <ele>624.4</ele>
        <time>2019-08-07T12:49:09Z</time>
      </trkpt>
      <trkpt lat="48.6268220" lon="14.3277960">
        <ele>624.4</ele>
        <time>2019-08-07T12:49:10Z</time>
      </trkpt>
      <trkpt lat="48.6268350" lon="14.3278400">
        <ele>624.6</ele>
        <time>2019-08-07T12:49:11Z</time>
      </trkpt>
      <trkpt lat="48.6268470" lon="14.3278830">
        <ele>624.6</ele>
        <time>2019-08-07T12:49:12Z</time>
      </trkpt>
      <trkpt lat="48.6268580" lon="14.3279240">
        <ele>624.8</ele>
        <time>2019-08-07T12:49:13Z</time>
      </trkpt>
      <trkpt lat="48.6268680" lon="14.3279600">
        <ele>625.0</ele>
        <time>2019-08-07T12:49:14Z</time>
      </trkpt>
      <trkpt lat="48.6268810" lon="14.3280140">
        <ele>625.0</ele>
        <time>2019-08-07T12:49:15Z</time>
      </trkpt>
      <trkpt lat="48.6268930" lon="14.3280560">
        <ele>625.2</ele>
        <time>2019-08-07T12:49:16Z</time>
      </trkpt>
      <trkpt lat="48.6269050" lon="14.3281020">
        <ele>625.2</ele>
        <time>2019-08-07T12:49:17Z</time>
      </trkpt>
      <trkpt lat="48.6269170" lon="14.3281470">
        <ele>625.4</ele>
        <time>2019-08-07T12:49:18Z</time>
      </trkpt>
      <trkpt lat="48.6269300" lon="14.3281900">
        <ele>625.4</ele>
        <time>2019-08-07T12:49:19Z</time>
      </trkpt>
      <trkpt lat="48.6269410" lon="14.3282340">
        <ele>625.6</ele>
        <time>2019-08-07T12:49:20Z</time>
      </trkpt>
      <trkpt lat="48.6269520" lon="14.3282780">
        <ele>625.6</ele>
        <time>2019-08-07T12:49:21Z</time>
      </trkpt>
      <trkpt lat="48.6269630" lon="14.3283210">
        <ele>625.8</ele>
        <time>2019-08-07T12:49:22Z</time>
      </trkpt>
      <trkpt lat="48.6269730" lon="14.3283650">
        <ele>626.0</ele>
        <time>2019-08-07T12:49:23Z</time>
      </trkpt>
      <trkpt lat="48.6269830" lon="14.3284060">
        <ele>626.0</ele>
        <time>2019-08-07T12:49:24Z</time>
      </trkpt>
      <trkpt lat="48.6269930" lon="14.3284470">
        <ele>626.2</ele>
        <time>2019-08-07T12:49:25Z</time>
      </trkpt>
      <trkpt lat="48.6270030" lon="14.3284880">
        <ele>626.4</ele>
        <time>2019-08-07T12:49:26Z</time>
      </trkpt>
      <trkpt lat="48.6270130" lon="14.3285290">
        <ele>626.4</ele>
        <time>2019-08-07T12:49:27Z</time>
      </trkpt>
      <trkpt lat="48.6270230" lon="14.3285660">
        <ele>626.6</ele>
        <time>2019-08-07T12:49:28Z</time>
      </trkpt>
      <trkpt lat="48.6270310" lon="14.3286080">
        <ele>626.8</ele>
        <time>2019-08-07T12:49:29Z</time>
      </trkpt>
      <trkpt lat="48.6270380" lon="14.3286430">
        <ele>626.8</ele>
        <time>2019-08-07T12:49:30Z</time>
      </trkpt>
      <trkpt lat="48.6270480" lon="14.3286910">
        <ele>627.0</ele>
        <time>2019-08-07T12:49:31Z</time>
      </trkpt>
      <trkpt lat="48.6270580" lon="14.3287330">
        <ele>627.2</ele>
        <time>2019-08-07T12:49:32Z</time>
      </trkpt>
      <trkpt lat="48.6270660" lon="14.3287750">
        <ele>627.2</ele>
        <time>2019-08-07T12:49:33Z</time>
      </trkpt>
      <trkpt lat="48.6270760" lon="14.3288190">
        <ele>627.4</ele>
        <time>2019-08-07T12:49:34Z</time>
      </trkpt>
      <trkpt lat="48.6270860" lon="14.3288630">
        <ele>627.6</ele>
        <time>2019-08-07T12:49:35Z</time>
      </trkpt>
      <trkpt lat="48.6270950" lon="14.3289070">
        <ele>627.6</ele>
        <time>2019-08-07T12:49:36Z</time>
      </trkpt>
      <trkpt lat="48.6271030" lon="14.3289500">
        <ele>627.8</ele>
        <time>2019-08-07T12:49:37Z</time>
      </trkpt>
      <trkpt lat="48.6271090" lon="14.3289850">
        <ele>627.8</ele>
        <time>2019-08-07T12:49:38Z</time>
      </trkpt>
      <trkpt lat="48.6271190" lon="14.3290380">
        <ele>628.0</ele>
        <time>2019-08-07T12:49:39Z</time>
      </trkpt>
      <trkpt lat="48.6271260" lon="14.3290800">
        <ele>628.2</ele>
        <time>2019-08-07T12:49:40Z</time>
      </trkpt>
      <trkpt lat="48.6271330" lon="14.3291210">
        <ele>628.2</ele>
        <time>2019-08-07T12:49:41Z</time>
      </trkpt>
      <trkpt lat="48.6271410" lon="14.3291600">
        <ele>628.4</ele>
        <time>2019-08-07T12:49:42Z</time>
      </trkpt>
      <trkpt lat="48.6271480" lon="14.3292010">
        <ele>628.6</ele>
        <time>2019-08-07T12:49:43Z</time>
      </trkpt>
      <trkpt lat="48.6271540" lon="14.3292420">
        <ele>628.6</ele>
        <time>2019-08-07T12:49:44Z</time>
      </trkpt>
      <trkpt lat="48.6271610" lon="14.3292870">
        <ele>628.8</ele>
        <time>2019-08-07T12:49:45Z</time>
      </trkpt>
      <trkpt lat="48.6271670" lon="14.3293290">
        <ele>629.0</ele>
        <time>2019-08-07T12:49:46Z</time>
      </trkpt>
      <trkpt lat="48.6271730" lon="14.3293740">
        <ele>629.2</ele>
        <time>2019-08-07T12:49:47Z</time>
      </trkpt>
      <trkpt lat="48.6271810" lon="14.3294160">
        <ele>629.2</ele>
        <time>2019-08-07T12:49:48Z</time>
      </trkpt>
      <trkpt lat="48.6271880" lon="14.3294570">
        <ele>629.4</ele>
        <time>2019-08-07T12:49:49Z</time>
      </trkpt>
      <trkpt lat="48.6271930" lon="14.3294900">
        <ele>629.4</ele>
        <time>2019-08-07T12:49:50Z</time>
      </trkpt>
      <trkpt lat="48.6272030" lon="14.3295300">
        <ele>629.6</ele>
        <time>2019-08-07T12:49:51Z</time>
      </trkpt>
      <trkpt lat="48.6272090" lon="14.3295650">
        <ele>629.8</ele>
        <time>2019-08-07T12:49:52Z</time>
      </trkpt>
      <trkpt lat="48.6272140" lon="14.3295980">
        <ele>629.8</ele>
        <time>2019-08-07T12:49:53Z</time>
      </trkpt>
      <trkpt lat="48.6272190" lon="14.3296290">
        <ele>630.0</ele>
        <time>2019-08-07T12:49:54Z</time>
      </trkpt>
      <trkpt lat="48.6272260" lon="14.3296620">
        <ele>630.2</ele>
        <time>2019-08-07T12:49:55Z</time>
      </trkpt>
      <trkpt lat="48.6272350" lon="14.3296940">
        <ele>630.2</ele>
        <time>2019-08-07T12:49:56Z</time>
      </trkpt>
      <trkpt lat="48.6272430" lon="14.3297270">
        <ele>630.4</ele>
        <time>2019-08-07T12:49:57Z</time>
      </trkpt>
      <trkpt lat="48.6272490" lon="14.3297620">
        <ele>630.6</ele>
        <time>2019-08-07T12:49:58Z</time>
      </trkpt>
      <trkpt lat="48.6272560" lon="14.3297990">
        <ele>630.6</ele>
        <time>2019-08-07T12:49:59Z</time>
      </trkpt>
      <trkpt lat="48.6272630" lon="14.3298330">
        <ele>630.8</ele>
        <time>2019-08-07T12:50:00Z</time>
      </trkpt>
      <trkpt lat="48.6272710" lon="14.3298670">
        <ele>631.0</ele>
        <time>2019-08-07T12:50:01Z</time>
      </trkpt>
      <trkpt lat="48.6272790" lon="14.3299050">
        <ele>631.2</ele>
        <time>2019-08-07T12:50:02Z</time>
      </trkpt>
      <trkpt lat="48.6272870" lon="14.3299410">
        <ele>631.4</ele>
        <time>2019-08-07T12:50:03Z</time>
      </trkpt>
      <trkpt lat="48.6272940" lon="14.3299770">
        <ele>631.4</ele>
        <time>2019-08-07T12:50:04Z</time>
      </trkpt>
      <trkpt lat="48.6272990" lon="14.3300170">
        <ele>631.6</ele>
        <time>2019-08-07T12:50:05Z</time>
      </trkpt>
      <trkpt lat="48.6273060" lon="14.3300520">
        <ele>631.8</ele>
        <time>2019-08-07T12:50:06Z</time>
      </trkpt>
      <trkpt lat="48.6273150" lon="14.3300860">
        <ele>632.0</ele>
        <time>2019-08-07T12:50:07Z</time>
      </trkpt>
      <trkpt lat="48.6273230" lon="14.3301200">
        <ele>632.2</ele>
        <time>2019-08-07T12:50:08Z</time>
      </trkpt>
      <trkpt lat="48.6273320" lon="14.3301520">
        <ele>632.4</ele>
        <time>2019-08-07T12:50:09Z</time>
      </trkpt>
      <trkpt lat="48.6273390" lon="14.3301840">
        <ele>632.6</ele>
        <time>2019-08-07T12:50:10Z</time>
      </trkpt>
      <trkpt lat="48.6273480" lon="14.3302230">
        <ele>632.8</ele>
        <time>2019-08-07T12:50:11Z</time>
      </trkpt>
      <trkpt lat="48.6273580" lon="14.3302550">
        <ele>633.0</ele>
        <time>2019-08-07T12:50:12Z</time>
      </trkpt>
      <trkpt lat="48.6273660" lon="14.3302850">
        <ele>633.0</ele>
        <time>2019-08-07T12:50:13Z</time>
      </trkpt>
      <trkpt lat="48.6273720" lon="14.3303230">
        <ele>633.2</ele>
        <time>2019-08-07T12:50:14Z</time>
      </trkpt>
      <trkpt lat="48.6273790" lon="14.3303620">
        <ele>633.4</ele>
        <time>2019-08-07T12:50:15Z</time>
      </trkpt>
      <trkpt lat="48.6273860" lon="14.3303990">
        <ele>633.4</ele>
        <time>2019-08-07T12:50:16Z</time>
      </trkpt>
      <trkpt lat="48.6273950" lon="14.3304360">
        <ele>633.6</ele>
        <time>2019-08-07T12:50:17Z</time>
      </trkpt>
      <trkpt lat="48.6274030" lon="14.3304720">
        <ele>633.6</ele>
        <time>2019-08-07T12:50:18Z</time>
      </trkpt>
      <trkpt lat="48.6274110" lon="14.3305080">
        <ele>633.8</ele>
        <time>2019-08-07T12:50:19Z</time>
      </trkpt>
      <trkpt lat="48.6274190" lon="14.3305400">
        <ele>633.8</ele>
        <time>2019-08-07T12:50:20Z</time>
      </trkpt>
      <trkpt lat="48.6274300" lon="14.3305750">
        <ele>634.0</ele>
        <time>2019-08-07T12:50:21Z</time>
      </trkpt>
      <trkpt lat="48.6274390" lon="14.3306100">
        <ele>634.0</ele>
        <time>2019-08-07T12:50:22Z</time>
      </trkpt>
      <trkpt lat="48.6274480" lon="14.3306480">
        <ele>634.2</ele>
        <time>2019-08-07T12:50:23Z</time>
      </trkpt>
      <trkpt lat="48.6274600" lon="14.3306860">
        <ele>634.2</ele>
        <time>2019-08-07T12:50:24Z</time>
      </trkpt>
      <trkpt lat="48.6274720" lon="14.3307280">
        <ele>634.4</ele>
        <time>2019-08-07T12:50:25Z</time>
      </trkpt>
      <trkpt lat="48.6274830" lon="14.3307660">
        <ele>634.4</ele>
        <time>2019-08-07T12:50:26Z</time>
      </trkpt>
      <trkpt lat="48.6274950" lon="14.3308060">
        <ele>634.6</ele>
        <time>2019-08-07T12:50:27Z</time>
      </trkpt>
      <trkpt lat="48.6275050" lon="14.3308440">
        <ele>634.6</ele>
        <time>2019-08-07T12:50:28Z</time>
      </trkpt>
      <trkpt lat="48.6275180" lon="14.3308810">
        <ele>634.8</ele>
        <time>2019-08-07T12:50:29Z</time>
      </trkpt>
      <trkpt lat="48.6275300" lon="14.3309160">
        <ele>634.8</ele>
        <time>2019-08-07T12:50:30Z</time>
      </trkpt>
      <trkpt lat="48.6275430" lon="14.3309610">
        <ele>634.8</ele>
        <time>2019-08-07T12:50:31Z</time>
      </trkpt>
      <trkpt lat="48.6275550" lon="14.3310020">
        <ele>635.0</ele>
        <time>2019-08-07T12:50:32Z</time>
      </trkpt>
      <trkpt lat="48.6275660" lon="14.3310420">
        <ele>635.0</ele>
        <time>2019-08-07T12:50:33Z</time>
      </trkpt>
      <trkpt lat="48.6275750" lon="14.3310780">
        <ele>635.0</ele>
        <time>2019-08-07T12:50:34Z</time>
      </trkpt>
      <trkpt lat="48.6275890" lon="14.3311290">
        <ele>635.2</ele>
        <time>2019-08-07T12:50:35Z</time>
      </trkpt>
      <trkpt lat="48.6276010" lon="14.3311700">
        <ele>635.2</ele>
        <time>2019-08-07T12:50:36Z</time>
      </trkpt>
      <trkpt lat="48.6276140" lon="14.3312120">
        <ele>635.2</ele>
        <time>2019-08-07T12:50:37Z</time>
      </trkpt>
      <trkpt lat="48.6276270" lon="14.3312560">
        <ele>635.4</ele>
        <time>2019-08-07T12:50:38Z</time>
      </trkpt>
      <trkpt lat="48.6276380" lon="14.3313010">
        <ele>635.6</ele>
        <time>2019-08-07T12:50:39Z</time>
      </trkpt>
      <trkpt lat="48.6276480" lon="14.3313460">
        <ele>635.6</ele>
        <time>2019-08-07T12:50:40Z</time>
      </trkpt>
      <trkpt lat="48.6276590" lon="14.3313880">
        <ele>635.8</ele>
        <time>2019-08-07T12:50:41Z</time>
      </trkpt>
      <trkpt lat="48.6276720" lon="14.3314350">
        <ele>635.8</ele>
        <time>2019-08-07T12:50:42Z</time>
      </trkpt>
      <trkpt lat="48.6276850" lon="14.3314790">
        <ele>636.0</ele>
        <time>2019-08-07T12:50:43Z</time>
      </trkpt>
      <trkpt lat="48.6276980" lon="14.3315230">
        <ele>636.0</ele>
        <time>2019-08-07T12:50:44Z</time>
      </trkpt>
      <trkpt lat="48.6277120" lon="14.3315700">
        <ele>636.2</ele>
        <time>2019-08-07T12:50:45Z</time>
      </trkpt>
      <trkpt lat="48.6277250" lon="14.3316160">
        <ele>636.2</ele>
        <time>2019-08-07T12:50:46Z</time>
      </trkpt>
      <trkpt lat="48.6277380" lon="14.3316630">
        <ele>636.2</ele>
        <time>2019-08-07T12:50:47Z</time>
      </trkpt>
      <trkpt lat="48.6277520" lon="14.3317090">
        <ele>636.4</ele>
        <time>2019-08-07T12:50:48Z</time>
      </trkpt>
      <trkpt lat="48.6277670" lon="14.3317550">
        <ele>636.4</ele>
        <time>2019-08-07T12:50:49Z</time>
      </trkpt>
      <trkpt lat="48.6277820" lon="14.3317990">
        <ele>636.6</ele>
        <time>2019-08-07T12:50:50Z</time>
      </trkpt>
      <trkpt lat="48.6277950" lon="14.3318430">
        <ele>636.6</ele>
        <time>2019-08-07T12:50:51Z</time>
      </trkpt>
      <trkpt lat="48.6278090" lon="14.3318880">
        <ele>636.6</ele>
        <time>2019-08-07T12:50:52Z</time>
      </trkpt>
      <trkpt lat="48.6278220" lon="14.3319320">
        <ele>636.8</ele>
        <time>2019-08-07T12:50:53Z</time>
      </trkpt>
      <trkpt lat="48.6278360" lon="14.3319730">
        <ele>636.8</ele>
        <time>2019-08-07T12:50:54Z</time>
      </trkpt>
      <trkpt lat="48.6278500" lon="14.3320190">
        <ele>636.8</ele>
        <time>2019-08-07T12:50:55Z</time>
      </trkpt>
      <trkpt lat="48.6278660" lon="14.3320630">
        <ele>637.0</ele>
        <time>2019-08-07T12:50:56Z</time>
      </trkpt>
      <trkpt lat="48.6278800" lon="14.3321050">
        <ele>637.0</ele>
        <time>2019-08-07T12:50:57Z</time>
      </trkpt>
      <trkpt lat="48.6278930" lon="14.3321430">
        <ele>637.0</ele>
        <time>2019-08-07T12:50:58Z</time>
      </trkpt>
      <trkpt lat="48.6279090" lon="14.3321950">
        <ele>637.0</ele>
        <time>2019-08-07T12:50:59Z</time>
      </trkpt>
      <trkpt lat="48.6279230" lon="14.3322390">
        <ele>637.0</ele>
        <time>2019-08-07T12:51:00Z</time>
      </trkpt>
      <trkpt lat="48.6279370" lon="14.3322850">
        <ele>637.0</ele>
        <time>2019-08-07T12:51:01Z</time>
      </trkpt>
      <trkpt lat="48.6279520" lon="14.3323300">
        <ele>637.0</ele>
        <time>2019-08-07T12:51:02Z</time>
      </trkpt>
      <trkpt lat="48.6279670" lon="14.3323760">
        <ele>637.0</ele>
        <time>2019-08-07T12:51:03Z</time>
      </trkpt>
      <trkpt lat="48.6279820" lon="14.3324210">
        <ele>637.0</ele>
        <time>2019-08-07T12:51:04Z</time>
      </trkpt>
      <trkpt lat="48.6279990" lon="14.3324670">
        <ele>637.0</ele>
        <time>2019-08-07T12:51:05Z</time>
      </trkpt>
      <trkpt lat="48.6280170" lon="14.3325140">
        <ele>637.0</ele>
        <time>2019-08-07T12:51:06Z</time>
      </trkpt>
      <trkpt lat="48.6280360" lon="14.3325600">
        <ele>637.0</ele>
        <time>2019-08-07T12:51:07Z</time>
      </trkpt>
      <trkpt lat="48.6280560" lon="14.3326060">
        <ele>637.0</ele>
        <time>2019-08-07T12:51:08Z</time>
      </trkpt>
      <trkpt lat="48.6280750" lon="14.3326530">
        <ele>637.0</ele>
        <time>2019-08-07T12:51:09Z</time>
      </trkpt>
      <trkpt lat="48.6280890" lon="14.3326990">
        <ele>636.8</ele>
        <time>2019-08-07T12:51:10Z</time>
      </trkpt>
      <trkpt lat="48.6281060" lon="14.3327590">
        <ele>636.8</ele>
        <time>2019-08-07T12:51:11Z</time>
      </trkpt>
      <trkpt lat="48.6281230" lon="14.3328110">
        <ele>636.8</ele>
        <time>2019-08-07T12:51:12Z</time>
      </trkpt>
      <trkpt lat="48.6281410" lon="14.3328620">
        <ele>636.8</ele>
        <time>2019-08-07T12:51:13Z</time>
      </trkpt>
      <trkpt lat="48.6281630" lon="14.3329140">
        <ele>636.6</ele>
        <time>2019-08-07T12:51:14Z</time>
      </trkpt>
      <trkpt lat="48.6281840" lon="14.3329680">
        <ele>636.6</ele>
        <time>2019-08-07T12:51:15Z</time>
      </trkpt>
      <trkpt lat="48.6282030" lon="14.3330230">
        <ele>636.6</ele>
        <time>2019-08-07T12:51:16Z</time>
      </trkpt>
      <trkpt lat="48.6282210" lon="14.3330770">
        <ele>636.4</ele>
        <time>2019-08-07T12:51:17Z</time>
      </trkpt>
      <trkpt lat="48.6282400" lon="14.3331330">
        <ele>636.4</ele>
        <time>2019-08-07T12:51:18Z</time>
      </trkpt>
      <trkpt lat="48.6282590" lon="14.3331870">
        <ele>636.2</ele>
        <time>2019-08-07T12:51:19Z</time>
      </trkpt>
      <trkpt lat="48.6282790" lon="14.3332430">
        <ele>636.2</ele>
        <time>2019-08-07T12:51:20Z</time>
      </trkpt>
      <trkpt lat="48.6282990" lon="14.3332990">
        <ele>636.0</ele>
        <time>2019-08-07T12:51:21Z</time>
      </trkpt>
      <trkpt lat="48.6283170" lon="14.3333570">
        <ele>636.0</ele>
        <time>2019-08-07T12:51:22Z</time>
      </trkpt>
      <trkpt lat="48.6283320" lon="14.3334190">
        <ele>635.8</ele>
        <time>2019-08-07T12:51:23Z</time>
      </trkpt>
      <trkpt lat="48.6283430" lon="14.3334840">
        <ele>635.8</ele>
        <time>2019-08-07T12:51:24Z</time>
      </trkpt>
      <trkpt lat="48.6283550" lon="14.3335540">
        <ele>635.6</ele>
        <time>2019-08-07T12:51:25Z</time>
      </trkpt>
      <trkpt lat="48.6283670" lon="14.3336240">
        <ele>635.6</ele>
        <time>2019-08-07T12:51:26Z</time>
      </trkpt>
      <trkpt lat="48.6283770" lon="14.3336960">
        <ele>635.4</ele>
        <time>2019-08-07T12:51:27Z</time>
      </trkpt>
      <trkpt lat="48.6283900" lon="14.3337750">
        <ele>635.2</ele>
        <time>2019-08-07T12:51:28Z</time>
      </trkpt>
      <trkpt lat="48.6284020" lon="14.3338530">
        <ele>635.0</ele>
        <time>2019-08-07T12:51:29Z</time>
      </trkpt>
      <trkpt lat="48.6284110" lon="14.3339220">
        <ele>634.8</ele>
        <time>2019-08-07T12:51:30Z</time>
      </trkpt>
      <trkpt lat="48.6284250" lon="14.3340220">
        <ele>634.6</ele>
        <time>2019-08-07T12:51:31Z</time>
      </trkpt>
      <trkpt lat="48.6284390" lon="14.3341240">
        <ele>634.4</ele>
        <time>2019-08-07T12:51:32Z</time>
      </trkpt>
      <trkpt lat="48.6284500" lon="14.3342210">
        <ele>634.2</ele>
        <time>2019-08-07T12:51:33Z</time>
      </trkpt>
      <trkpt lat="48.6284600" lon="14.3343240">
        <ele>633.8</ele>
        <time>2019-08-07T12:51:34Z</time>
      </trkpt>
      <trkpt lat="48.6284740" lon="14.3344330">
        <ele>633.6</ele>
        <time>2019-08-07T12:51:35Z</time>
      </trkpt>
      <trkpt lat="48.6284890" lon="14.3345470">
        <ele>633.4</ele>
        <time>2019-08-07T12:51:36Z</time>
      </trkpt>
      <trkpt lat="48.6285020" lon="14.3346670">
        <ele>633.0</ele>
        <time>2019-08-07T12:51:37Z</time>
      </trkpt>
      <trkpt lat="48.6285150" lon="14.3347880">
        <ele>632.6</ele>
        <time>2019-08-07T12:51:38Z</time>
      </trkpt>
      <trkpt lat="48.6285280" lon="14.3349080">
        <ele>632.2</ele>
        <time>2019-08-07T12:51:39Z</time>
      </trkpt>
      <trkpt lat="48.6285380" lon="14.3350180">
        <ele>631.8</ele>
        <time>2019-08-07T12:51:40Z</time>
      </trkpt>
      <trkpt lat="48.6285440" lon="14.3351150">
        <ele>631.4</ele>
        <time>2019-08-07T12:51:41Z</time>
      </trkpt>
      <trkpt lat="48.6285490" lon="14.3352000">
        <ele>631.0</ele>
        <time>2019-08-07T12:51:42Z</time>
      </trkpt>
      <trkpt lat="48.6285520" lon="14.3352750">
        <ele>630.8</ele>
        <time>2019-08-07T12:51:43Z</time>
      </trkpt>
      <trkpt lat="48.6285520" lon="14.3353400">
        <ele>630.4</ele>
        <time>2019-08-07T12:51:44Z</time>
      </trkpt>
      <trkpt lat="48.6285520" lon="14.3354030">
        <ele>630.2</ele>
        <time>2019-08-07T12:51:45Z</time>
      </trkpt>
      <trkpt lat="48.6285520" lon="14.3354680">
        <ele>630.0</ele>
        <time>2019-08-07T12:51:46Z</time>
      </trkpt>
      <trkpt lat="48.6285510" lon="14.3355350">
        <ele>629.8</ele>
        <time>2019-08-07T12:51:47Z</time>
      </trkpt>
      <trkpt lat="48.6285500" lon="14.3356060">
        <ele>629.6</ele>
        <time>2019-08-07T12:51:48Z</time>
      </trkpt>
      <trkpt lat="48.6285480" lon="14.3356820">
        <ele>629.4</ele>
        <time>2019-08-07T12:51:49Z</time>
      </trkpt>
      <trkpt lat="48.6285480" lon="14.3357610">
        <ele>629.2</ele>
        <time>2019-08-07T12:51:50Z</time>
      </trkpt>
      <trkpt lat="48.6285460" lon="14.3358430">
        <ele>629.0</ele>
        <time>2019-08-07T12:51:51Z</time>
      </trkpt>
      <trkpt lat="48.6285450" lon="14.3359280">
        <ele>628.8</ele>
        <time>2019-08-07T12:51:52Z</time>
      </trkpt>
      <trkpt lat="48.6285470" lon="14.3360200">
        <ele>628.6</ele>
        <time>2019-08-07T12:51:53Z</time>
      </trkpt>
      <trkpt lat="48.6285530" lon="14.3361140">
        <ele>628.4</ele>
        <time>2019-08-07T12:51:54Z</time>
      </trkpt>
      <trkpt lat="48.6285590" lon="14.3362100">
        <ele>628.2</ele>
        <time>2019-08-07T12:51:55Z</time>
      </trkpt>
      <trkpt lat="48.6285640" lon="14.3363140">
        <ele>627.8</ele>
        <time>2019-08-07T12:51:56Z</time>
      </trkpt>
      <trkpt lat="48.6285700" lon="14.3364210">
        <ele>627.4</ele>
        <time>2019-08-07T12:51:57Z</time>
      </trkpt>
      <trkpt lat="48.6285820" lon="14.3365330">
        <ele>627.2</ele>
        <time>2019-08-07T12:51:58Z</time>
      </trkpt>
      <trkpt lat="48.6285970" lon="14.3366510">
        <ele>626.8</ele>
        <time>2019-08-07T12:51:59Z</time>
      </trkpt>
      <trkpt lat="48.6286170" lon="14.3367710">
        <ele>626.4</ele>
        <time>2019-08-07T12:52:00Z</time>
      </trkpt>
      <trkpt lat="48.6286410" lon="14.3368920">
        <ele>626.0</ele>
        <time>2019-08-07T12:52:01Z</time>
      </trkpt>
      <trkpt lat="48.6286680" lon="14.3370190">
        <ele>625.6</ele>
        <time>2019-08-07T12:52:02Z</time>
      </trkpt>
      <trkpt lat="48.6286980" lon="14.3371470">
        <ele>625.0</ele>
        <time>2019-08-07T12:52:03Z</time>
      </trkpt>
      <trkpt lat="48.6287330" lon="14.3372850">
        <ele>624.6</ele>
        <time>2019-08-07T12:52:04Z</time>
      </trkpt>
      <trkpt lat="48.6287750" lon="14.3374340">
        <ele>624.2</ele>
        <time>2019-08-07T12:52:05Z</time>
      </trkpt>
      <trkpt lat="48.6288160" lon="14.3375760">
        <ele>623.6</ele>
        <time>2019-08-07T12:52:06Z</time>
      </trkpt>
      <trkpt lat="48.6288640" lon="14.3377220">
        <ele>622.8</ele>
        <time>2019-08-07T12:52:07Z</time>
      </trkpt>
      <trkpt lat="48.6289150" lon="14.3378710">
        <ele>622.0</ele>
        <time>2019-08-07T12:52:08Z</time>
      </trkpt>
      <trkpt lat="48.6289680" lon="14.3380250">
        <ele>621.2</ele>
        <time>2019-08-07T12:52:09Z</time>
      </trkpt>
      <trkpt lat="48.6290200" lon="14.3381800">
        <ele>620.4</ele>
        <time>2019-08-07T12:52:10Z</time>
      </trkpt>
      <trkpt lat="48.6290710" lon="14.3383420">
        <ele>619.8</ele>
        <time>2019-08-07T12:52:11Z</time>
      </trkpt>
      <trkpt lat="48.6291200" lon="14.3384980">
        <ele>619.2</ele>
        <time>2019-08-07T12:52:12Z</time>
      </trkpt>
      <trkpt lat="48.6291710" lon="14.3386600">
        <ele>618.6</ele>
        <time>2019-08-07T12:52:13Z</time>
      </trkpt>
      <trkpt lat="48.6292310" lon="14.3388030">
        <ele>618.2</ele>
        <time>2019-08-07T12:52:14Z</time>
      </trkpt>
      <trkpt lat="48.6293080" lon="14.3389380">
        <ele>617.6</ele>
        <time>2019-08-07T12:52:15Z</time>
      </trkpt>
      <trkpt lat="48.6293940" lon="14.3390450">
        <ele>617.2</ele>
        <time>2019-08-07T12:52:16Z</time>
      </trkpt>
      <trkpt lat="48.6294840" lon="14.3391220">
        <ele>617.0</ele>
        <time>2019-08-07T12:52:17Z</time>
      </trkpt>
      <trkpt lat="48.6295820" lon="14.3392010">
        <ele>616.8</ele>
        <time>2019-08-07T12:52:18Z</time>
      </trkpt>
      <trkpt lat="48.6296830" lon="14.3392650">
        <ele>616.8</ele>
        <time>2019-08-07T12:52:19Z</time>
      </trkpt>
      <trkpt lat="48.6297720" lon="14.3393210">
        <ele>617.0</ele>
        <time>2019-08-07T12:52:20Z</time>
      </trkpt>
      <trkpt lat="48.6298570" lon="14.3393570">
        <ele>617.2</ele>
        <time>2019-08-07T12:52:21Z</time>
      </trkpt>
      <trkpt lat="48.6299320" lon="14.3393820">
        <ele>617.6</ele>
        <time>2019-08-07T12:52:22Z</time>
      </trkpt>
      <trkpt lat="48.6299940" lon="14.3394110">
        <ele>617.8</ele>
        <time>2019-08-07T12:52:23Z</time>
      </trkpt>
      <trkpt lat="48.6300520" lon="14.3394350">
        <ele>618.2</ele>
        <time>2019-08-07T12:52:24Z</time>
      </trkpt>
      <trkpt lat="48.6301020" lon="14.3394570">
        <ele>618.6</ele>
        <time>2019-08-07T12:52:25Z</time>
      </trkpt>
      <trkpt lat="48.6301460" lon="14.3394800">
        <ele>619.0</ele>
        <time>2019-08-07T12:52:26Z</time>
      </trkpt>
      <trkpt lat="48.6301880" lon="14.3395090">
        <ele>619.4</ele>
        <time>2019-08-07T12:52:27Z</time>
      </trkpt>
      <trkpt lat="48.6302260" lon="14.3395420">
        <ele>619.6</ele>
        <time>2019-08-07T12:52:28Z</time>
      </trkpt>
      <trkpt lat="48.6302640" lon="14.3395740">
        <ele>620.0</ele>
        <time>2019-08-07T12:52:29Z</time>
      </trkpt>
      <trkpt lat="48.6302990" lon="14.3396090">
        <ele>620.2</ele>
        <time>2019-08-07T12:52:30Z</time>
      </trkpt>
      <trkpt lat="48.6303330" lon="14.3396450">
        <ele>620.4</ele>
        <time>2019-08-07T12:52:31Z</time>
      </trkpt>
      <trkpt lat="48.6303690" lon="14.3396820">
        <ele>620.6</ele>
        <time>2019-08-07T12:52:32Z</time>
      </trkpt>
      <trkpt lat="48.6304040" lon="14.3397160">
        <ele>620.8</ele>
        <time>2019-08-07T12:52:33Z</time>
      </trkpt>
      <trkpt lat="48.6304370" lon="14.3397530">
        <ele>621.0</ele>
        <time>2019-08-07T12:52:34Z</time>
      </trkpt>
      <trkpt lat="48.6304680" lon="14.3397900">
        <ele>621.2</ele>
        <time>2019-08-07T12:52:35Z</time>
      </trkpt>
      <trkpt lat="48.6305000" lon="14.3398250">
        <ele>621.4</ele>
        <time>2019-08-07T12:52:36Z</time>
      </trkpt>
      <trkpt lat="48.6305320" lon="14.3398560">
        <ele>621.4</ele>
        <time>2019-08-07T12:52:37Z</time>
      </trkpt>
      <trkpt lat="48.6305630" lon="14.3398830">
        <ele>621.6</ele>
        <time>2019-08-07T12:52:38Z</time>
      </trkpt>
      <trkpt lat="48.6305950" lon="14.3399130">
        <ele>621.6</ele>
        <time>2019-08-07T12:52:39Z</time>
      </trkpt>
      <trkpt lat="48.6306260" lon="14.3399430">
        <ele>621.8</ele>
        <time>2019-08-07T12:52:40Z</time>
      </trkpt>
      <trkpt lat="48.6306570" lon="14.3399750">
        <ele>622.0</ele>
        <time>2019-08-07T12:52:41Z</time>
      </trkpt>
      <trkpt lat="48.6306900" lon="14.3400050">
        <ele>622.0</ele>
        <time>2019-08-07T12:52:42Z</time>
      </trkpt>
      <trkpt lat="48.6307240" lon="14.3400340">
        <ele>622.0</ele>
        <time>2019-08-07T12:52:43Z</time>
      </trkpt>
      <trkpt lat="48.6307580" lon="14.3400650">
        <ele>622.2</ele>
        <time>2019-08-07T12:52:44Z</time>
      </trkpt>
      <trkpt lat="48.6307930" lon="14.3400960">
        <ele>622.2</ele>
        <time>2019-08-07T12:52:45Z</time>
      </trkpt>
      <trkpt lat="48.6308280" lon="14.3401220">
        <ele>622.2</ele>
        <time>2019-08-07T12:52:46Z</time>
      </trkpt>
      <trkpt lat="48.6308650" lon="14.3401450">
        <ele>622.4</ele>
        <time>2019-08-07T12:52:47Z</time>
      </trkpt>
      <trkpt lat="48.6309010" lon="14.3401670">
        <ele>622.4</ele>
        <time>2019-08-07T12:52:48Z</time>
      </trkpt>
      <trkpt lat="48.6309380" lon="14.3401880">
        <ele>622.6</ele>
        <time>2019-08-07T12:52:49Z</time>
      </trkpt>
      <trkpt lat="48.6309740" lon="14.3402080">
        <ele>622.8</ele>
        <time>2019-08-07T12:52:50Z</time>
      </trkpt>
      <trkpt lat="48.6310110" lon="14.3402240">
        <ele>622.8</ele>
        <time>2019-08-07T12:52:51Z</time>
      </trkpt>
      <trkpt lat="48.6310490" lon="14.3402410">
        <ele>623.0</ele>
        <time>2019-08-07T12:52:52Z</time>
      </trkpt>
      <trkpt lat="48.6310850" lon="14.3402590">
        <ele>623.2</ele>
        <time>2019-08-07T12:52:53Z</time>
      </trkpt>
      <trkpt lat="48.6311230" lon="14.3402760">
        <ele>623.2</ele>
        <time>2019-08-07T12:52:54Z</time>
      </trkpt>
      <trkpt lat="48.6311600" lon="14.3402900">
        <ele>623.4</ele>
        <time>2019-08-07T12:52:55Z</time>
      </trkpt>
      <trkpt lat="48.6311960" lon="14.3403020">
        <ele>623.4</ele>
        <time>2019-08-07T12:52:56Z</time>
      </trkpt>
      <trkpt lat="48.6312320" lon="14.3403120">
        <ele>623.4</ele>
        <time>2019-08-07T12:52:57Z</time>
      </trkpt>
      <trkpt lat="48.6312670" lon="14.3403210">
        <ele>623.6</ele>
        <time>2019-08-07T12:52:58Z</time>
      </trkpt>
      <trkpt lat="48.6313040" lon="14.3403320">
        <ele>623.6</ele>
        <time>2019-08-07T12:52:59Z</time>
      </trkpt>
      <trkpt lat="48.6313410" lon="14.3403410">
        <ele>623.6</ele>
        <time>2019-08-07T12:53:00Z</time>
      </trkpt>
      <trkpt lat="48.6313800" lon="14.3403500">
        <ele>623.8</ele>
        <time>2019-08-07T12:53:01Z</time>
      </trkpt>
      <trkpt lat="48.6314180" lon="14.3403580">
        <ele>623.8</ele>
        <time>2019-08-07T12:53:02Z</time>
      </trkpt>
      <trkpt lat="48.6314550" lon="14.3403680">
        <ele>624.0</ele>
        <time>2019-08-07T12:53:03Z</time>
      </trkpt>
      <trkpt lat="48.6314920" lon="14.3403800">
        <ele>624.0</ele>
        <time>2019-08-07T12:53:04Z</time>
      </trkpt>
      <trkpt lat="48.6315270" lon="14.3403900">
        <ele>624.2</ele>
        <time>2019-08-07T12:53:05Z</time>
      </trkpt>
      <trkpt lat="48.6315620" lon="14.3404010">
        <ele>624.2</ele>
        <time>2019-08-07T12:53:06Z</time>
      </trkpt>
      <trkpt lat="48.6315970" lon="14.3404100">
        <ele>624.4</ele>
        <time>2019-08-07T12:53:07Z</time>
      </trkpt>
      <trkpt lat="48.6316280" lon="14.3404200">
        <ele>624.4</ele>
        <time>2019-08-07T12:53:08Z</time>
      </trkpt>
      <trkpt lat="48.6316600" lon="14.3404280">
        <ele>624.6</ele>
        <time>2019-08-07T12:53:09Z</time>
      </trkpt>
      <trkpt lat="48.6316910" lon="14.3404340">
        <ele>624.6</ele>
        <time>2019-08-07T12:53:10Z</time>
      </trkpt>
      <trkpt lat="48.6317230" lon="14.3404410">
        <ele>624.8</ele>
        <time>2019-08-07T12:53:11Z</time>
      </trkpt>
      <trkpt lat="48.6317500" lon="14.3404480">
        <ele>624.8</ele>
        <time>2019-08-07T12:53:12Z</time>
      </trkpt>
      <trkpt lat="48.6317750" lon="14.3404540">
        <ele>625.0</ele>
        <time>2019-08-07T12:53:13Z</time>
      </trkpt>
      <trkpt lat="48.6318050" lon="14.3404610">
        <ele>625.2</ele>
        <time>2019-08-07T12:53:14Z</time>
      </trkpt>
      <trkpt lat="48.6318370" lon="14.3404660">
        <ele>625.2</ele>
        <time>2019-08-07T12:53:15Z</time>
      </trkpt>
      <trkpt lat="48.6318680" lon="14.3404730">
        <ele>625.4</ele>
        <time>2019-08-07T12:53:16Z</time>
      </trkpt>
      <trkpt lat="48.6318960" lon="14.3404790">
        <ele>625.6</ele>
        <time>2019-08-07T12:53:17Z</time>
      </trkpt>
      <trkpt lat="48.6319290" lon="14.3404860">
        <ele>625.6</ele>
        <time>2019-08-07T12:53:18Z</time>
      </trkpt>
      <trkpt lat="48.6319610" lon="14.3404920">
        <ele>625.8</ele>
        <time>2019-08-07T12:53:19Z</time>
      </trkpt>
      <trkpt lat="48.6319930" lon="14.3404960">
        <ele>626.0</ele>
        <time>2019-08-07T12:53:20Z</time>
      </trkpt>
      <trkpt lat="48.6320260" lon="14.3405000">
        <ele>626.0</ele>
        <time>2019-08-07T12:53:21Z</time>
      </trkpt>
      <trkpt lat="48.6320560" lon="14.3405020">
        <ele>626.2</ele>
        <time>2019-08-07T12:53:22Z</time>
      </trkpt>
      <trkpt lat="48.6320850" lon="14.3405020">
        <ele>626.4</ele>
        <time>2019-08-07T12:53:23Z</time>
      </trkpt>
      <trkpt lat="48.6321150" lon="14.3405030">
        <ele>626.6</ele>
        <time>2019-08-07T12:53:24Z</time>
      </trkpt>
      <trkpt lat="48.6321440" lon="14.3405100">
        <ele>626.8</ele>
        <time>2019-08-07T12:53:25Z</time>
      </trkpt>
      <trkpt lat="48.6321730" lon="14.3405180">
        <ele>627.0</ele>
        <time>2019-08-07T12:53:26Z</time>
      </trkpt>
      <trkpt lat="48.6322020" lon="14.3405260">
        <ele>627.2</ele>
        <time>2019-08-07T12:53:27Z</time>
      </trkpt>
      <trkpt lat="48.6322330" lon="14.3405330">
        <ele>627.4</ele>
        <time>2019-08-07T12:53:28Z</time>
      </trkpt>
      <trkpt lat="48.6322650" lon="14.3405390">
        <ele>627.4</ele>
        <time>2019-08-07T12:53:29Z</time>
      </trkpt>
      <trkpt lat="48.6322970" lon="14.3405450">
        <ele>627.6</ele>
        <time>2019-08-07T12:53:30Z</time>
      </trkpt>
      <trkpt lat="48.6323300" lon="14.3405530">
        <ele>627.8</ele>
        <time>2019-08-07T12:53:31Z</time>
      </trkpt>
      <trkpt lat="48.6323630" lon="14.3405610">
        <ele>627.8</ele>
        <time>2019-08-07T12:53:32Z</time>
      </trkpt>
      <trkpt lat="48.6323940" lon="14.3405680">
        <ele>628.0</ele>
        <time>2019-08-07T12:53:33Z</time>
      </trkpt>
      <trkpt lat="48.6324270" lon="14.3405740">
        <ele>628.0</ele>
        <time>2019-08-07T12:53:34Z</time>
      </trkpt>
      <trkpt lat="48.6324610" lon="14.3405760">
        <ele>628.2</ele>
        <time>2019-08-07T12:53:35Z</time>
      </trkpt>
      <trkpt lat="48.6324940" lon="14.3405790">
        <ele>628.2</ele>
        <time>2019-08-07T12:53:36Z</time>
      </trkpt>
      <trkpt lat="48.6325250" lon="14.3405820">
        <ele>628.4</ele>
        <time>2019-08-07T12:53:37Z</time>
      </trkpt>
      <trkpt lat="48.6325580" lon="14.3405850">
        <ele>628.6</ele>
        <time>2019-08-07T12:53:38Z</time>
      </trkpt>
      <trkpt lat="48.6325900" lon="14.3405830">
        <ele>628.6</ele>
        <time>2019-08-07T12:53:39Z</time>
      </trkpt>
      <trkpt lat="48.6326200" lon="14.3405800">
        <ele>628.8</ele>
        <time>2019-08-07T12:53:40Z</time>
      </trkpt>
      <trkpt lat="48.6326540" lon="14.3405780">
        <ele>628.8</ele>
        <time>2019-08-07T12:53:41Z</time>
      </trkpt>
      <trkpt lat="48.6326870" lon="14.3405780">
        <ele>628.8</ele>
        <time>2019-08-07T12:53:42Z</time>
      </trkpt>
      <trkpt lat="48.6327190" lon="14.3405770">
        <ele>629.0</ele>
        <time>2019-08-07T12:53:43Z</time>
      </trkpt>
      <trkpt lat="48.6327550" lon="14.3405770">
        <ele>628.8</ele>
        <time>2019-08-07T12:53:44Z</time>
      </trkpt>
      <trkpt lat="48.6327960" lon="14.3405770">
        <ele>628.8</ele>
        <time>2019-08-07T12:53:45Z</time>
      </trkpt>
      <trkpt lat="48.6328420" lon="14.3405780">
        <ele>628.8</ele>
        <time>2019-08-07T12:53:46Z</time>
      </trkpt>
      <trkpt lat="48.6328900" lon="14.3405790">
        <ele>628.6</ele>
        <time>2019-08-07T12:53:47Z</time>
      </trkpt>
      <trkpt lat="48.6329400" lon="14.3405810">
        <ele>628.6</ele>
        <time>2019-08-07T12:53:48Z</time>
      </trkpt>
      <trkpt lat="48.6329900" lon="14.3405860">
        <ele>628.4</ele>
        <time>2019-08-07T12:53:49Z</time>
      </trkpt>
      <trkpt lat="48.6330390" lon="14.3405890">
        <ele>628.4</ele>
        <time>2019-08-07T12:53:50Z</time>
      </trkpt>
      <trkpt lat="48.6330900" lon="14.3405970">
        <ele>628.2</ele>
        <time>2019-08-07T12:53:51Z</time>
      </trkpt>
      <trkpt lat="48.6331400" lon="14.3406070">
        <ele>628.2</ele>
        <time>2019-08-07T12:53:52Z</time>
      </trkpt>
      <trkpt lat="48.6331900" lon="14.3406230">
        <ele>628.2</ele>
        <time>2019-08-07T12:53:53Z</time>
      </trkpt>
      <trkpt lat="48.6332410" lon="14.3406420">
        <ele>628.2</ele>
        <time>2019-08-07T12:53:54Z</time>
      </trkpt>
      <trkpt lat="48.6332920" lon="14.3406640">
        <ele>628.2</ele>
        <time>2019-08-07T12:53:55Z</time>
      </trkpt>
      <trkpt lat="48.6333410" lon="14.3406880">
        <ele>628.2</ele>
        <time>2019-08-07T12:53:56Z</time>
      </trkpt>
      <trkpt lat="48.6333890" lon="14.3407140">
        <ele>628.2</ele>
        <time>2019-08-07T12:53:57Z</time>
      </trkpt>
      <trkpt lat="48.6334350" lon="14.3407410">
        <ele>628.2</ele>
        <time>2019-08-07T12:53:58Z</time>
      </trkpt>
      <trkpt lat="48.6334790" lon="14.3407680">
        <ele>628.4</ele>
        <time>2019-08-07T12:53:59Z</time>
      </trkpt>
      <trkpt lat="48.6335210" lon="14.3407970">
        <ele>628.4</ele>
        <time>2019-08-07T12:54:00Z</time>
      </trkpt>
      <trkpt lat="48.6335590" lon="14.3408290">
        <ele>628.4</ele>
        <time>2019-08-07T12:54:01Z</time>
      </trkpt>
      <trkpt lat="48.6335960" lon="14.3408680">
        <ele>628.6</ele>
        <time>2019-08-07T12:54:02Z</time>
      </trkpt>
      <trkpt lat="48.6336310" lon="14.3409080">
        <ele>628.6</ele>
        <time>2019-08-07T12:54:03Z</time>
      </trkpt>
      <trkpt lat="48.6336630" lon="14.3409570">
        <ele>628.8</ele>
        <time>2019-08-07T12:54:04Z</time>
      </trkpt>
      <trkpt lat="48.6336910" lon="14.3410070">
        <ele>629.0</ele>
        <time>2019-08-07T12:54:05Z</time>
      </trkpt>
      <trkpt lat="48.6337150" lon="14.3410590">
        <ele>629.0</ele>
        <time>2019-08-07T12:54:06Z</time>
      </trkpt>
      <trkpt lat="48.6337380" lon="14.3411160">
        <ele>629.2</ele>
        <time>2019-08-07T12:54:07Z</time>
      </trkpt>
      <trkpt lat="48.6337570" lon="14.3411740">
        <ele>629.4</ele>
        <time>2019-08-07T12:54:08Z</time>
      </trkpt>
      <trkpt lat="48.6337720" lon="14.3412330">
        <ele>629.4</ele>
        <time>2019-08-07T12:54:09Z</time>
      </trkpt>
      <trkpt lat="48.6337840" lon="14.3412930">
        <ele>629.6</ele>
        <time>2019-08-07T12:54:10Z</time>
      </trkpt>
      <trkpt lat="48.6337940" lon="14.3413550">
        <ele>629.6</ele>
        <time>2019-08-07T12:54:11Z</time>
      </trkpt>
      <trkpt lat="48.6338010" lon="14.3414190">
        <ele>629.8</ele>
        <time>2019-08-07T12:54:12Z</time>
      </trkpt>
      <trkpt lat="48.6338040" lon="14.3414840">
        <ele>630.0</ele>
        <time>2019-08-07T12:54:13Z</time>
      </trkpt>
      <trkpt lat="48.6338070" lon="14.3415490">
        <ele>630.0</ele>
        <time>2019-08-07T12:54:14Z</time>
      </trkpt>
      <trkpt lat="48.6338090" lon="14.3416120">
        <ele>630.2</ele>
        <time>2019-08-07T12:54:15Z</time>
      </trkpt>
      <trkpt lat="48.6338140" lon="14.3416730">
        <ele>630.4</ele>
        <time>2019-08-07T12:54:16Z</time>
      </trkpt>
      <trkpt lat="48.6338160" lon="14.3417290">
        <ele>630.4</ele>
        <time>2019-08-07T12:54:17Z</time>
      </trkpt>
      <trkpt lat="48.6338150" lon="14.3417830">
        <ele>630.6</ele>
        <time>2019-08-07T12:54:18Z</time>
      </trkpt>
      <trkpt lat="48.6338170" lon="14.3418350">
        <ele>630.6</ele>
        <time>2019-08-07T12:54:19Z</time>
      </trkpt>
      <trkpt lat="48.6338170" lon="14.3418860">
        <ele>630.8</ele>
        <time>2019-08-07T12:54:20Z</time>
      </trkpt>
      <trkpt lat="48.6338170" lon="14.3419380">
        <ele>631.0</ele>
        <time>2019-08-07T12:54:21Z</time>
      </trkpt>
      <trkpt lat="48.6338180" lon="14.3419910">
        <ele>631.0</ele>
        <time>2019-08-07T12:54:22Z</time>
      </trkpt>
      <trkpt lat="48.6338190" lon="14.3420470">
        <ele>631.2</ele>
        <time>2019-08-07T12:54:23Z</time>
      </trkpt>
      <trkpt lat="48.6338220" lon="14.3421010">
        <ele>631.2</ele>
        <time>2019-08-07T12:54:24Z</time>
      </trkpt>
      <trkpt lat="48.6338240" lon="14.3421550">
        <ele>631.4</ele>
        <time>2019-08-07T12:54:25Z</time>
      </trkpt>
      <trkpt lat="48.6338260" lon="14.3422080">
        <ele>631.4</ele>
        <time>2019-08-07T12:54:26Z</time>
      </trkpt>
      <trkpt lat="48.6338300" lon="14.3422610">
        <ele>631.6</ele>
        <time>2019-08-07T12:54:27Z</time>
      </trkpt>
      <trkpt lat="48.6338320" lon="14.3423130">
        <ele>631.6</ele>
        <time>2019-08-07T12:54:28Z</time>
      </trkpt>
      <trkpt lat="48.6338370" lon="14.3423650">
        <ele>631.8</ele>
        <time>2019-08-07T12:54:29Z</time>
      </trkpt>
      <trkpt lat="48.6338430" lon="14.3424200">
        <ele>631.8</ele>
        <time>2019-08-07T12:54:30Z</time>
      </trkpt>
      <trkpt lat="48.6338510" lon="14.3424730">
        <ele>631.8</ele>
        <time>2019-08-07T12:54:31Z</time>
      </trkpt>
      <trkpt lat="48.6338590" lon="14.3425310">
        <ele>631.8</ele>
        <time>2019-08-07T12:54:32Z</time>
      </trkpt>
      <trkpt lat="48.6338670" lon="14.3425860">
        <ele>631.8</ele>
        <time>2019-08-07T12:54:33Z</time>
      </trkpt>
      <trkpt lat="48.6338790" lon="14.3426420">
        <ele>631.8</ele>
        <time>2019-08-07T12:54:34Z</time>
      </trkpt>
      <trkpt lat="48.6338920" lon="14.3426990">
        <ele>631.8</ele>
        <time>2019-08-07T12:54:35Z</time>
      </trkpt>
      <trkpt lat="48.6339050" lon="14.3427570">
        <ele>631.8</ele>
        <time>2019-08-07T12:54:36Z</time>
      </trkpt>
      <trkpt lat="48.6339170" lon="14.3428150">
        <ele>631.8</ele>
        <time>2019-08-07T12:54:37Z</time>
      </trkpt>
      <trkpt lat="48.6339310" lon="14.3428730">
        <ele>631.8</ele>
        <time>2019-08-07T12:54:38Z</time>
      </trkpt>
      <trkpt lat="48.6339460" lon="14.3429310">
        <ele>632.0</ele>
        <time>2019-08-07T12:54:39Z</time>
      </trkpt>
      <trkpt lat="48.6339600" lon="14.3429890">
        <ele>632.0</ele>
        <time>2019-08-07T12:54:40Z</time>
      </trkpt>
      <trkpt lat="48.6339740" lon="14.3430520">
        <ele>632.0</ele>
        <time>2019-08-07T12:54:41Z</time>
      </trkpt>
      <trkpt lat="48.6339890" lon="14.3431130">
        <ele>632.0</ele>
        <time>2019-08-07T12:54:42Z</time>
      </trkpt>
      <trkpt lat="48.6340050" lon="14.3431730">
        <ele>632.0</ele>
        <time>2019-08-07T12:54:43Z</time>
      </trkpt>
      <trkpt lat="48.6340220" lon="14.3432380">
        <ele>632.0</ele>
        <time>2019-08-07T12:54:44Z</time>
      </trkpt>
      <trkpt lat="48.6340390" lon="14.3433050">
        <ele>632.0</ele>
        <time>2019-08-07T12:54:45Z</time>
      </trkpt>
      <trkpt lat="48.6340580" lon="14.3433710">
        <ele>631.8</ele>
        <time>2019-08-07T12:54:46Z</time>
      </trkpt>
      <trkpt lat="48.6340780" lon="14.3434390">
        <ele>631.8</ele>
        <time>2019-08-07T12:54:47Z</time>
      </trkpt>
      <trkpt lat="48.6340990" lon="14.3435060">
        <ele>631.8</ele>
        <time>2019-08-07T12:54:48Z</time>
      </trkpt>
      <trkpt lat="48.6341200" lon="14.3435740">
        <ele>631.8</ele>
        <time>2019-08-07T12:54:49Z</time>
      </trkpt>
      <trkpt lat="48.6341420" lon="14.3436430">
        <ele>631.8</ele>
        <time>2019-08-07T12:54:50Z</time>
      </trkpt>
      <trkpt lat="48.6341630" lon="14.3437130">
        <ele>631.8</ele>
        <time>2019-08-07T12:54:51Z</time>
      </trkpt>
      <trkpt lat="48.6341850" lon="14.3437830">
        <ele>631.8</ele>
        <time>2019-08-07T12:54:52Z</time>
      </trkpt>
      <trkpt lat="48.6342070" lon="14.3438550">
        <ele>631.6</ele>
        <time>2019-08-07T12:54:53Z</time>
      </trkpt>
      <trkpt lat="48.6342270" lon="14.3439290">
        <ele>631.6</ele>
        <time>2019-08-07T12:54:54Z</time>
      </trkpt>
      <trkpt lat="48.6342500" lon="14.3440040">
        <ele>631.6</ele>
        <time>2019-08-07T12:54:55Z</time>
      </trkpt>
      <trkpt lat="48.6342720" lon="14.3440780">
        <ele>631.6</ele>
        <time>2019-08-07T12:54:56Z</time>
      </trkpt>
      <trkpt lat="48.6342930" lon="14.3441520">
        <ele>631.6</ele>
        <time>2019-08-07T12:54:57Z</time>
      </trkpt>
      <trkpt lat="48.6343130" lon="14.3442250">
        <ele>631.6</ele>
        <time>2019-08-07T12:54:58Z</time>
      </trkpt>
      <trkpt lat="48.6343310" lon="14.3443010">
        <ele>631.6</ele>
        <time>2019-08-07T12:54:59Z</time>
      </trkpt>
      <trkpt lat="48.6343500" lon="14.3443750">
        <ele>631.6</ele>
        <time>2019-08-07T12:55:00Z</time>
      </trkpt>
      <trkpt lat="48.6343680" lon="14.3444470">
        <ele>631.8</ele>
        <time>2019-08-07T12:55:01Z</time>
      </trkpt>
      <trkpt lat="48.6343840" lon="14.3445200">
        <ele>631.8</ele>
        <time>2019-08-07T12:55:02Z</time>
      </trkpt>
      <trkpt lat="48.6344010" lon="14.3445940">
        <ele>631.8</ele>
        <time>2019-08-07T12:55:03Z</time>
      </trkpt>
      <trkpt lat="48.6344180" lon="14.3446690">
        <ele>631.8</ele>
        <time>2019-08-07T12:55:04Z</time>
      </trkpt>
      <trkpt lat="48.6344350" lon="14.3447410">
        <ele>631.8</ele>
        <time>2019-08-07T12:55:05Z</time>
      </trkpt>
      <trkpt lat="48.6344530" lon="14.3448120">
        <ele>631.8</ele>
        <time>2019-08-07T12:55:06Z</time>
      </trkpt>
      <trkpt lat="48.6344710" lon="14.3448850">
        <ele>631.8</ele>
        <time>2019-08-07T12:55:07Z</time>
      </trkpt>
      <trkpt lat="48.6344900" lon="14.3449560">
        <ele>631.8</ele>
        <time>2019-08-07T12:55:08Z</time>
      </trkpt>
      <trkpt lat="48.6345100" lon="14.3450260">
        <ele>631.8</ele>
        <time>2019-08-07T12:55:09Z</time>
      </trkpt>
      <trkpt lat="48.6345340" lon="14.3450960">
        <ele>631.8</ele>
        <time>2019-08-07T12:55:10Z</time>
      </trkpt>
      <trkpt lat="48.6345580" lon="14.3451640">
        <ele>631.8</ele>
        <time>2019-08-07T12:55:11Z</time>
      </trkpt>
      <trkpt lat="48.6345830" lon="14.3452310">
        <ele>631.8</ele>
        <time>2019-08-07T12:55:12Z</time>
      </trkpt>
      <trkpt lat="48.6346110" lon="14.3452970">
        <ele>631.8</ele>
        <time>2019-08-07T12:55:13Z</time>
      </trkpt>
      <trkpt lat="48.6346420" lon="14.3453620">
        <ele>631.8</ele>
        <time>2019-08-07T12:55:14Z</time>
      </trkpt>
      <trkpt lat="48.6346740" lon="14.3454300">
        <ele>631.8</ele>
        <time>2019-08-07T12:55:15Z</time>
      </trkpt>
      <trkpt lat="48.6347070" lon="14.3454960">
        <ele>631.6</ele>
        <time>2019-08-07T12:55:16Z</time>
      </trkpt>
      <trkpt lat="48.6347410" lon="14.3455640">
        <ele>631.6</ele>
        <time>2019-08-07T12:55:17Z</time>
      </trkpt>
      <trkpt lat="48.6347750" lon="14.3456300">
        <ele>631.4</ele>
        <time>2019-08-07T12:55:18Z</time>
      </trkpt>
      <trkpt lat="48.6348120" lon="14.3456970">
        <ele>631.4</ele>
        <time>2019-08-07T12:55:19Z</time>
      </trkpt>
      <trkpt lat="48.6348510" lon="14.3457630">
        <ele>631.2</ele>
        <time>2019-08-07T12:55:20Z</time>
      </trkpt>
      <trkpt lat="48.6348900" lon="14.3458320">
        <ele>631.2</ele>
        <time>2019-08-07T12:55:21Z</time>
      </trkpt>
      <trkpt lat="48.6349280" lon="14.3458990">
        <ele>631.0</ele>
        <time>2019-08-07T12:55:22Z</time>
      </trkpt>
      <trkpt lat="48.6349700" lon="14.3459720">
        <ele>631.0</ele>
        <time>2019-08-07T12:55:23Z</time>
      </trkpt>
      <trkpt lat="48.6350110" lon="14.3460430">
        <ele>630.8</ele>
        <time>2019-08-07T12:55:24Z</time>
      </trkpt>
      <trkpt lat="48.6350530" lon="14.3461170">
        <ele>630.6</ele>
        <time>2019-08-07T12:55:25Z</time>
      </trkpt>
      <trkpt lat="48.6350960" lon="14.3461930">
        <ele>630.6</ele>
        <time>2019-08-07T12:55:26Z</time>
      </trkpt>
      <trkpt lat="48.6351410" lon="14.3462670">
        <ele>630.4</ele>
        <time>2019-08-07T12:55:27Z</time>
      </trkpt>
      <trkpt lat="48.6351880" lon="14.3463390">
        <ele>630.2</ele>
        <time>2019-08-07T12:55:28Z</time>
      </trkpt>
      <trkpt lat="48.6352340" lon="14.3464120">
        <ele>630.2</ele>
        <time>2019-08-07T12:55:29Z</time>
      </trkpt>
      <trkpt lat="48.6352810" lon="14.3464850">
        <ele>630.0</ele>
        <time>2019-08-07T12:55:30Z</time>
      </trkpt>
      <trkpt lat="48.6353290" lon="14.3465590">
        <ele>629.8</ele>
        <time>2019-08-07T12:55:31Z</time>
      </trkpt>
      <trkpt lat="48.6353750" lon="14.3466330">
        <ele>629.6</ele>
        <time>2019-08-07T12:55:32Z</time>
      </trkpt>
      <trkpt lat="48.6354230" lon="14.3467090">
        <ele>629.6</ele>
        <time>2019-08-07T12:55:33Z</time>
      </trkpt>
      <trkpt lat="48.6354710" lon="14.3467830">
        <ele>629.4</ele>
        <time>2019-08-07T12:55:34Z</time>
      </trkpt>
      <trkpt lat="48.6355180" lon="14.3468570">
        <ele>629.2</ele>
        <time>2019-08-07T12:55:35Z</time>
      </trkpt>
      <trkpt lat="48.6355660" lon="14.3469310">
        <ele>629.2</ele>
        <time>2019-08-07T12:55:36Z</time>
      </trkpt>
      <trkpt lat="48.6356130" lon="14.3470040">
        <ele>629.0</ele>
        <time>2019-08-07T12:55:37Z</time>
      </trkpt>
      <trkpt lat="48.6356590" lon="14.3470750">
        <ele>629.0</ele>
        <time>2019-08-07T12:55:38Z</time>
      </trkpt>
      <trkpt lat="48.6357080" lon="14.3471440">
        <ele>629.0</ele>
        <time>2019-08-07T12:55:39Z</time>
      </trkpt>
      <trkpt lat="48.6357610" lon="14.3472130">
        <ele>628.8</ele>
        <time>2019-08-07T12:55:40Z</time>
      </trkpt>
      <trkpt lat="48.6358140" lon="14.3472800">
        <ele>628.6</ele>
        <time>2019-08-07T12:55:41Z</time>
      </trkpt>
      <trkpt lat="48.6358710" lon="14.3473500">
        <ele>628.4</ele>
        <time>2019-08-07T12:55:42Z</time>
      </trkpt>
      <trkpt lat="48.6359280" lon="14.3474210">
        <ele>628.2</ele>
        <time>2019-08-07T12:55:43Z</time>
      </trkpt>
      <trkpt lat="48.6359880" lon="14.3474960">
        <ele>627.8</ele>
        <time>2019-08-07T12:55:44Z</time>
      </trkpt>
      <trkpt lat="48.6360510" lon="14.3475790">
        <ele>627.6</ele>
        <time>2019-08-07T12:55:45Z</time>
      </trkpt>
      <trkpt lat="48.6361170" lon="14.3476700">
        <ele>627.0</ele>
        <time>2019-08-07T12:55:46Z</time>
      </trkpt>
      <trkpt lat="48.6361930" lon="14.3477630">
        <ele>626.6</ele>
        <time>2019-08-07T12:55:47Z</time>
      </trkpt>
      <trkpt lat="48.6362710" lon="14.3478620">
        <ele>626.0</ele>
        <time>2019-08-07T12:55:48Z</time>
      </trkpt>
      <trkpt lat="48.6363500" lon="14.3479700">
        <ele>625.4</ele>
        <time>2019-08-07T12:55:49Z</time>
      </trkpt>
      <trkpt lat="48.6364290" lon="14.3480820">
        <ele>624.8</ele>
        <time>2019-08-07T12:55:50Z</time>
      </trkpt>
      <trkpt lat="48.6365050" lon="14.3481950">
        <ele>624.0</ele>
        <time>2019-08-07T12:55:51Z</time>
      </trkpt>
      <trkpt lat="48.6365910" lon="14.3483200">
        <ele>623.2</ele>
        <time>2019-08-07T12:55:52Z</time>
      </trkpt>
      <trkpt lat="48.6366790" lon="14.3484440">
        <ele>622.6</ele>
        <time>2019-08-07T12:55:53Z</time>
      </trkpt>
      <trkpt lat="48.6367670" lon="14.3485540">
        <ele>622.0</ele>
        <time>2019-08-07T12:55:54Z</time>
      </trkpt>
      <trkpt lat="48.6368540" lon="14.3486610">
        <ele>621.2</ele>
        <time>2019-08-07T12:55:55Z</time>
      </trkpt>
      <trkpt lat="48.6369490" lon="14.3487790">
        <ele>621.0</ele>
        <time>2019-08-07T12:55:56Z</time>
      </trkpt>
      <trkpt lat="48.6370430" lon="14.3488990">
        <ele>620.6</ele>
        <time>2019-08-07T12:55:57Z</time>
      </trkpt>
      <trkpt lat="48.6371380" lon="14.3490030">
        <ele>620.2</ele>
        <time>2019-08-07T12:55:58Z</time>
      </trkpt>
      <trkpt lat="48.6372360" lon="14.3491120">
        <ele>619.8</ele>
        <time>2019-08-07T12:55:59Z</time>
      </trkpt>
      <trkpt lat="48.6373250" lon="14.3492170">
        <ele>619.4</ele>
        <time>2019-08-07T12:56:00Z</time>
      </trkpt>
      <trkpt lat="48.6374180" lon="14.3493190">
        <ele>619.0</ele>
        <time>2019-08-07T12:56:01Z</time>
      </trkpt>
      <trkpt lat="48.6375050" lon="14.3494170">
        <ele>618.4</ele>
        <time>2019-08-07T12:56:02Z</time>
      </trkpt>
      <trkpt lat="48.6375900" lon="14.3495220">
        <ele>618.2</ele>
        <time>2019-08-07T12:56:03Z</time>
      </trkpt>
      <trkpt lat="48.6376740" lon="14.3496230">
        <ele>617.8</ele>
        <time>2019-08-07T12:56:04Z</time>
      </trkpt>
      <trkpt lat="48.6377630" lon="14.3497110">
        <ele>617.4</ele>
        <time>2019-08-07T12:56:05Z</time>
      </trkpt>
      <trkpt lat="48.6378550" lon="14.3498090">
        <ele>617.0</ele>
        <time>2019-08-07T12:56:06Z</time>
      </trkpt>
      <trkpt lat="48.6379550" lon="14.3498890">
        <ele>616.8</ele>
        <time>2019-08-07T12:56:07Z</time>
      </trkpt>
      <trkpt lat="48.6380480" lon="14.3499770">
        <ele>616.6</ele>
        <time>2019-08-07T12:56:08Z</time>
      </trkpt>
      <trkpt lat="48.6381410" lon="14.3500650">
        <ele>616.4</ele>
        <time>2019-08-07T12:56:09Z</time>
      </trkpt>
      <trkpt lat="48.6382420" lon="14.3501480">
        <ele>616.2</ele>
        <time>2019-08-07T12:56:10Z</time>
      </trkpt>
      <trkpt lat="48.6383430" lon="14.3502420">
        <ele>615.8</ele>
        <time>2019-08-07T12:56:11Z</time>
      </trkpt>
      <trkpt lat="48.6384520" lon="14.3503390">
        <ele>615.4</ele>
        <time>2019-08-07T12:56:12Z</time>
      </trkpt>
      <trkpt lat="48.6385640" lon="14.3504390">
        <ele>614.8</ele>
        <time>2019-08-07T12:56:13Z</time>
      </trkpt>
      <trkpt lat="48.6386720" lon="14.3505260">
        <ele>614.4</ele>
        <time>2019-08-07T12:56:14Z</time>
      </trkpt>
      <trkpt lat="48.6387830" lon="14.3506080">
        <ele>613.8</ele>
        <time>2019-08-07T12:56:15Z</time>
      </trkpt>
      <trkpt lat="48.6388970" lon="14.3506840">
        <ele>613.4</ele>
        <time>2019-08-07T12:56:16Z</time>
      </trkpt>
      <trkpt lat="48.6390090" lon="14.3507480">
        <ele>612.8</ele>
        <time>2019-08-07T12:56:17Z</time>
      </trkpt>
      <trkpt lat="48.6391200" lon="14.3508090">
        <ele>612.2</ele>
        <time>2019-08-07T12:56:18Z</time>
      </trkpt>
      <trkpt lat="48.6392360" lon="14.3508740">
        <ele>611.6</ele>
        <time>2019-08-07T12:56:19Z</time>
      </trkpt>
      <trkpt lat="48.6393550" lon="14.3509340">
        <ele>611.2</ele>
        <time>2019-08-07T12:56:20Z</time>
      </trkpt>
      <trkpt lat="48.6394710" lon="14.3509900">
        <ele>610.4</ele>
        <time>2019-08-07T12:56:21Z</time>
      </trkpt>
      <trkpt lat="48.6395820" lon="14.3510550">
        <ele>609.8</ele>
        <time>2019-08-07T12:56:22Z</time>
      </trkpt>
      <trkpt lat="48.6396980" lon="14.3511260">
        <ele>609.4</ele>
        <time>2019-08-07T12:56:23Z</time>
      </trkpt>
      <trkpt lat="48.6398070" lon="14.3511900">
        <ele>609.0</ele>
        <time>2019-08-07T12:56:24Z</time>
      </trkpt>
      <trkpt lat="48.6399240" lon="14.3512480">
        <ele>608.4</ele>
        <time>2019-08-07T12:56:25Z</time>
      </trkpt>
      <trkpt lat="48.6400390" lon="14.3513180">
        <ele>607.8</ele>
        <time>2019-08-07T12:56:26Z</time>
      </trkpt>
      <trkpt lat="48.6401520" lon="14.3513890">
        <ele>607.0</ele>
        <time>2019-08-07T12:56:27Z</time>
      </trkpt>
      <trkpt lat="48.6402610" lon="14.3514610">
        <ele>606.6</ele>
        <time>2019-08-07T12:56:28Z</time>
      </trkpt>
      <trkpt lat="48.6403680" lon="14.3515210">
        <ele>606.2</ele>
        <time>2019-08-07T12:56:29Z</time>
      </trkpt>
      <trkpt lat="48.6404710" lon="14.3515890">
        <ele>606.0</ele>
        <time>2019-08-07T12:56:30Z</time>
      </trkpt>
      <trkpt lat="48.6405700" lon="14.3516490">
        <ele>606.0</ele>
        <time>2019-08-07T12:56:31Z</time>
      </trkpt>
      <trkpt lat="48.6406630" lon="14.3517140">
        <ele>605.6</ele>
        <time>2019-08-07T12:56:32Z</time>
      </trkpt>
      <trkpt lat="48.6407560" lon="14.3517840">
        <ele>605.4</ele>
        <time>2019-08-07T12:56:33Z</time>
      </trkpt>
      <trkpt lat="48.6408450" lon="14.3518520">
        <ele>605.2</ele>
        <time>2019-08-07T12:56:34Z</time>
      </trkpt>
      <trkpt lat="48.6409270" lon="14.3519140">
        <ele>605.0</ele>
        <time>2019-08-07T12:56:35Z</time>
      </trkpt>
      <trkpt lat="48.6410030" lon="14.3519800">
        <ele>604.8</ele>
        <time>2019-08-07T12:56:36Z</time>
      </trkpt>
      <trkpt lat="48.6410720" lon="14.3520590">
        <ele>604.8</ele>
        <time>2019-08-07T12:56:37Z</time>
      </trkpt>
      <trkpt lat="48.6411310" lon="14.3521470">
        <ele>604.8</ele>
        <time>2019-08-07T12:56:38Z</time>
      </trkpt>
      <trkpt lat="48.6411870" lon="14.3522200">
        <ele>604.8</ele>
        <time>2019-08-07T12:56:39Z</time>
      </trkpt>
      <trkpt lat="48.6412430" lon="14.3522930">
        <ele>605.0</ele>
        <time>2019-08-07T12:56:40Z</time>
      </trkpt>
      <trkpt lat="48.6412930" lon="14.3523620">
        <ele>605.2</ele>
        <time>2019-08-07T12:56:41Z</time>
      </trkpt>
      <trkpt lat="48.6413380" lon="14.3524270">
        <ele>605.4</ele>
        <time>2019-08-07T12:56:42Z</time>
      </trkpt>
      <trkpt lat="48.6413780" lon="14.3524900">
        <ele>605.6</ele>
        <time>2019-08-07T12:56:43Z</time>
      </trkpt>
      <trkpt lat="48.6414180" lon="14.3525480">
        <ele>605.8</ele>
        <time>2019-08-07T12:56:44Z</time>
      </trkpt>
      <trkpt lat="48.6414560" lon="14.3526050">
        <ele>606.0</ele>
        <time>2019-08-07T12:56:45Z</time>
      </trkpt>
      <trkpt lat="48.6414920" lon="14.3526600">
        <ele>606.2</ele>
        <time>2019-08-07T12:56:46Z</time>
      </trkpt>
      <trkpt lat="48.6415270" lon="14.3527150">
        <ele>606.4</ele>
        <time>2019-08-07T12:56:47Z</time>
      </trkpt>
      <trkpt lat="48.6415600" lon="14.3527670">
        <ele>606.8</ele>
        <time>2019-08-07T12:56:48Z</time>
      </trkpt>
      <trkpt lat="48.6415910" lon="14.3528150">
        <ele>607.0</ele>
        <time>2019-08-07T12:56:49Z</time>
      </trkpt>
      <trkpt lat="48.6416170" lon="14.3528580">
        <ele>607.4</ele>
        <time>2019-08-07T12:56:50Z</time>
      </trkpt>
      <trkpt lat="48.6416420" lon="14.3528980">
        <ele>607.6</ele>
        <time>2019-08-07T12:56:51Z</time>
      </trkpt>
      <trkpt lat="48.6416650" lon="14.3529340">
        <ele>607.8</ele>
        <time>2019-08-07T12:56:52Z</time>
      </trkpt>
      <trkpt lat="48.6416890" lon="14.3529710">
        <ele>608.2</ele>
        <time>2019-08-07T12:56:53Z</time>
      </trkpt>
      <trkpt lat="48.6417140" lon="14.3530060">
        <ele>608.4</ele>
        <time>2019-08-07T12:56:54Z</time>
      </trkpt>
      <trkpt lat="48.6417370" lon="14.3530430">
        <ele>608.6</ele>
        <time>2019-08-07T12:56:55Z</time>
      </trkpt>
      <trkpt lat="48.6417580" lon="14.3530790">
        <ele>609.0</ele>
        <time>2019-08-07T12:56:56Z</time>
      </trkpt>
      <trkpt lat="48.6417800" lon="14.3531150">
        <ele>609.2</ele>
        <time>2019-08-07T12:56:57Z</time>
      </trkpt>
      <trkpt lat="48.6418020" lon="14.3531480">
        <ele>609.4</ele>
        <time>2019-08-07T12:56:58Z</time>
      </trkpt>
      <trkpt lat="48.6418210" lon="14.3531780">
        <ele>609.6</ele>
        <time>2019-08-07T12:56:59Z</time>
      </trkpt>
      <trkpt lat="48.6418390" lon="14.3532060">
        <ele>609.8</ele>
        <time>2019-08-07T12:57:00Z</time>
      </trkpt>
      <trkpt lat="48.6418540" lon="14.3532300">
        <ele>610.0</ele>
        <time>2019-08-07T12:57:01Z</time>
      </trkpt>
      <trkpt lat="48.6418710" lon="14.3532530">
        <ele>610.2</ele>
        <time>2019-08-07T12:57:02Z</time>
      </trkpt>
      <trkpt lat="48.6418860" lon="14.3532750">
        <ele>610.4</ele>
        <time>2019-08-07T12:57:03Z</time>
      </trkpt>
      <trkpt lat="48.6419010" lon="14.3532990">
        <ele>610.6</ele>
        <time>2019-08-07T12:57:04Z</time>
      </trkpt>
      <trkpt lat="48.6419180" lon="14.3533220">
        <ele>610.8</ele>
        <time>2019-08-07T12:57:05Z</time>
      </trkpt>
      <trkpt lat="48.6419340" lon="14.3533460">
        <ele>611.0</ele>
        <time>2019-08-07T12:57:06Z</time>
      </trkpt>
      <trkpt lat="48.6419510" lon="14.3533710">
        <ele>611.2</ele>
        <time>2019-08-07T12:57:07Z</time>
      </trkpt>
      <trkpt lat="48.6419670" lon="14.3533950">
        <ele>611.4</ele>
        <time>2019-08-07T12:57:08Z</time>
      </trkpt>
      <trkpt lat="48.6419800" lon="14.3534200">
        <ele>611.6</ele>
        <time>2019-08-07T12:57:09Z</time>
      </trkpt>
      <trkpt lat="48.6419930" lon="14.3534490">
        <ele>611.8</ele>
        <time>2019-08-07T12:57:10Z</time>
      </trkpt>
      <trkpt lat="48.6420050" lon="14.3534770">
        <ele>612.0</ele>
        <time>2019-08-07T12:57:11Z</time>
      </trkpt>
      <trkpt lat="48.6420170" lon="14.3535040">
        <ele>612.2</ele>
        <time>2019-08-07T12:57:12Z</time>
      </trkpt>
      <trkpt lat="48.6420320" lon="14.3535260">
        <ele>612.4</ele>
        <time>2019-08-07T12:57:13Z</time>
      </trkpt>
      <trkpt lat="48.6420490" lon="14.3535500">
        <ele>612.4</ele>
        <time>2019-08-07T12:57:14Z</time>
      </trkpt>
      <trkpt lat="48.6420640" lon="14.3535740">
        <ele>612.6</ele>
        <time>2019-08-07T12:57:15Z</time>
      </trkpt>
      <trkpt lat="48.6420790" lon="14.3535980">
        <ele>612.8</ele>
        <time>2019-08-07T12:57:16Z</time>
      </trkpt>
      <trkpt lat="48.6420940" lon="14.3536240">
        <ele>613.0</ele>
        <time>2019-08-07T12:57:17Z</time>
      </trkpt>
      <trkpt lat="48.6421090" lon="14.3536490">
        <ele>613.2</ele>
        <time>2019-08-07T12:57:18Z</time>
      </trkpt>
      <trkpt lat="48.6421210" lon="14.3536770">
        <ele>613.4</ele>
        <time>2019-08-07T12:57:19Z</time>
      </trkpt>
      <trkpt lat="48.6421360" lon="14.3537040">
        <ele>613.6</ele>
        <time>2019-08-07T12:57:20Z</time>
      </trkpt>
      <trkpt lat="48.6421510" lon="14.3537290">
        <ele>613.8</ele>
        <time>2019-08-07T12:57:21Z</time>
      </trkpt>
      <trkpt lat="48.6421650" lon="14.3537530">
        <ele>613.8</ele>
        <time>2019-08-07T12:57:22Z</time>
      </trkpt>
      <trkpt lat="48.6421830" lon="14.3537790">
        <ele>614.0</ele>
        <time>2019-08-07T12:57:23Z</time>
      </trkpt>
      <trkpt lat="48.6421990" lon="14.3538040">
        <ele>614.2</ele>
        <time>2019-08-07T12:57:24Z</time>
      </trkpt>
      <trkpt lat="48.6422160" lon="14.3538310">
        <ele>614.4</ele>
        <time>2019-08-07T12:57:25Z</time>
      </trkpt>
      <trkpt lat="48.6422290" lon="14.3538580">
        <ele>614.6</ele>
        <time>2019-08-07T12:57:26Z</time>
      </trkpt>
      <trkpt lat="48.6422440" lon="14.3538850">
        <ele>614.8</ele>
        <time>2019-08-07T12:57:27Z</time>
      </trkpt>
      <trkpt lat="48.6422590" lon="14.3539120">
        <ele>615.0</ele>
        <time>2019-08-07T12:57:28Z</time>
      </trkpt>
      <trkpt lat="48.6422720" lon="14.3539370">
        <ele>615.2</ele>
        <time>2019-08-07T12:57:29Z</time>
      </trkpt>
      <trkpt lat="48.6422870" lon="14.3539620">
        <ele>615.4</ele>
        <time>2019-08-07T12:57:30Z</time>
      </trkpt>
      <trkpt lat="48.6423020" lon="14.3539860">
        <ele>615.6</ele>
        <time>2019-08-07T12:57:31Z</time>
      </trkpt>
      <trkpt lat="48.6423190" lon="14.3540110">
        <ele>615.8</ele>
        <time>2019-08-07T12:57:32Z</time>
      </trkpt>
      <trkpt lat="48.6423340" lon="14.3540360">
        <ele>616.0</ele>
        <time>2019-08-07T12:57:33Z</time>
      </trkpt>
      <trkpt lat="48.6423490" lon="14.3540610">
        <ele>616.2</ele>
        <time>2019-08-07T12:57:34Z</time>
      </trkpt>
      <trkpt lat="48.6423630" lon="14.3540900">
        <ele>616.4</ele>
        <time>2019-08-07T12:57:35Z</time>
      </trkpt>
      <trkpt lat="48.6423760" lon="14.3541200">
        <ele>616.6</ele>
        <time>2019-08-07T12:57:36Z</time>
      </trkpt>
      <trkpt lat="48.6423890" lon="14.3541470">
        <ele>616.8</ele>
        <time>2019-08-07T12:57:37Z</time>
      </trkpt>
      <trkpt lat="48.6424060" lon="14.3541740">
        <ele>617.0</ele>
        <time>2019-08-07T12:57:38Z</time>
      </trkpt>
      <trkpt lat="48.6424230" lon="14.3541990">
        <ele>617.2</ele>
        <time>2019-08-07T12:57:39Z</time>
      </trkpt>
      <trkpt lat="48.6424390" lon="14.3542240">
        <ele>617.4</ele>
        <time>2019-08-07T12:57:40Z</time>
      </trkpt>
      <trkpt lat="48.6424540" lon="14.3542520">
        <ele>617.6</ele>
        <time>2019-08-07T12:57:41Z</time>
      </trkpt>
      <trkpt lat="48.6424670" lon="14.3542810">
        <ele>617.8</ele>
        <time>2019-08-07T12:57:42Z</time>
      </trkpt>
      <trkpt lat="48.6424830" lon="14.3543100">
        <ele>617.8</ele>
        <time>2019-08-07T12:57:43Z</time>
      </trkpt>
      <trkpt lat="48.6424990" lon="14.3543390">
        <ele>618.0</ele>
        <time>2019-08-07T12:57:44Z</time>
      </trkpt>
      <trkpt lat="48.6425140" lon="14.3543670">
        <ele>618.2</ele>
        <time>2019-08-07T12:57:45Z</time>
      </trkpt>
      <trkpt lat="48.6425310" lon="14.3543940">
        <ele>618.4</ele>
        <time>2019-08-07T12:57:46Z</time>
      </trkpt>
      <trkpt lat="48.6425480" lon="14.3544190">
        <ele>618.6</ele>
        <time>2019-08-07T12:57:47Z</time>
      </trkpt>
      <trkpt lat="48.6425640" lon="14.3544440">
        <ele>618.8</ele>
        <time>2019-08-07T12:57:48Z</time>
      </trkpt>
      <trkpt lat="48.6425800" lon="14.3544690">
        <ele>619.0</ele>
        <time>2019-08-07T12:57:49Z</time>
      </trkpt>
      <trkpt lat="48.6425960" lon="14.3544960">
        <ele>619.2</ele>
        <time>2019-08-07T12:57:50Z</time>
      </trkpt>
      <trkpt lat="48.6426110" lon="14.3545250">
        <ele>619.2</ele>
        <time>2019-08-07T12:57:51Z</time>
      </trkpt>
      <trkpt lat="48.6426250" lon="14.3545550">
        <ele>619.4</ele>
        <time>2019-08-07T12:57:52Z</time>
      </trkpt>
      <trkpt lat="48.6426390" lon="14.3545870">
        <ele>619.6</ele>
        <time>2019-08-07T12:57:53Z</time>
      </trkpt>
      <trkpt lat="48.6426520" lon="14.3546180">
        <ele>619.8</ele>
        <time>2019-08-07T12:57:54Z</time>
      </trkpt>
      <trkpt lat="48.6426680" lon="14.3546480">
        <ele>619.8</ele>
        <time>2019-08-07T12:57:55Z</time>
      </trkpt>
      <trkpt lat="48.6426820" lon="14.3546780">
        <ele>620.0</ele>
        <time>2019-08-07T12:57:56Z</time>
      </trkpt>
      <trkpt lat="48.6426960" lon="14.3547040">
        <ele>620.2</ele>
        <time>2019-08-07T12:57:57Z</time>
      </trkpt>
      <trkpt lat="48.6427130" lon="14.3547300">
        <ele>620.4</ele>
        <time>2019-08-07T12:57:58Z</time>
      </trkpt>
      <trkpt lat="48.6427300" lon="14.3547560">
        <ele>620.6</ele>
        <time>2019-08-07T12:57:59Z</time>
      </trkpt>
      <trkpt lat="48.6427480" lon="14.3547810">
        <ele>620.6</ele>
        <time>2019-08-07T12:58:00Z</time>
      </trkpt>
      <trkpt lat="48.6427660" lon="14.3548100">
        <ele>620.8</ele>
        <time>2019-08-07T12:58:01Z</time>
      </trkpt>
      <trkpt lat="48.6427800" lon="14.3548420">
        <ele>621.0</ele>
        <time>2019-08-07T12:58:02Z</time>
      </trkpt>
      <trkpt lat="48.6427950" lon="14.3548790">
        <ele>621.2</ele>
        <time>2019-08-07T12:58:03Z</time>
      </trkpt>
      <trkpt lat="48.6428070" lon="14.3549160">
        <ele>621.2</ele>
        <time>2019-08-07T12:58:04Z</time>
      </trkpt>
      <trkpt lat="48.6428190" lon="14.3549520">
        <ele>621.4</ele>
        <time>2019-08-07T12:58:05Z</time>
      </trkpt>
      <trkpt lat="48.6428340" lon="14.3549870">
        <ele>621.4</ele>
        <time>2019-08-07T12:58:06Z</time>
      </trkpt>
      <trkpt lat="48.6428530" lon="14.3550250">
        <ele>621.6</ele>
        <time>2019-08-07T12:58:07Z</time>
      </trkpt>
      <trkpt lat="48.6428690" lon="14.3550640">
        <ele>621.6</ele>
        <time>2019-08-07T12:58:08Z</time>
      </trkpt>
      <trkpt lat="48.6428870" lon="14.3551050">
        <ele>621.8</ele>
        <time>2019-08-07T12:58:09Z</time>
      </trkpt>
      <trkpt lat="48.6429030" lon="14.3551470">
        <ele>621.8</ele>
        <time>2019-08-07T12:58:10Z</time>
      </trkpt>
      <trkpt lat="48.6429200" lon="14.3551890">
        <ele>622.0</ele>
        <time>2019-08-07T12:58:11Z</time>
      </trkpt>
      <trkpt lat="48.6429380" lon="14.3552300">
        <ele>622.0</ele>
        <time>2019-08-07T12:58:12Z</time>
      </trkpt>
      <trkpt lat="48.6429560" lon="14.3552720">
        <ele>622.2</ele>
        <time>2019-08-07T12:58:13Z</time>
      </trkpt>
      <trkpt lat="48.6429730" lon="14.3553130">
        <ele>622.2</ele>
        <time>2019-08-07T12:58:14Z</time>
      </trkpt>
      <trkpt lat="48.6429890" lon="14.3553570">
        <ele>622.4</ele>
        <time>2019-08-07T12:58:15Z</time>
      </trkpt>
      <trkpt lat="48.6430040" lon="14.3554000">
        <ele>622.4</ele>
        <time>2019-08-07T12:58:16Z</time>
      </trkpt>
      <trkpt lat="48.6430210" lon="14.3554420">
        <ele>622.6</ele>
        <time>2019-08-07T12:58:17Z</time>
      </trkpt>
      <trkpt lat="48.6430380" lon="14.3554830">
        <ele>622.6</ele>
        <time>2019-08-07T12:58:18Z</time>
      </trkpt>
      <trkpt lat="48.6430540" lon="14.3555230">
        <ele>622.8</ele>
        <time>2019-08-07T12:58:19Z</time>
      </trkpt>
      <trkpt lat="48.6430710" lon="14.3555610">
        <ele>622.8</ele>
        <time>2019-08-07T12:58:20Z</time>
      </trkpt>
      <trkpt lat="48.6430900" lon="14.3556000">
        <ele>623.0</ele>
        <time>2019-08-07T12:58:21Z</time>
      </trkpt>
      <trkpt lat="48.6431080" lon="14.3556390">
        <ele>623.2</ele>
        <time>2019-08-07T12:58:22Z</time>
      </trkpt>
      <trkpt lat="48.6431260" lon="14.3556820">
        <ele>623.4</ele>
        <time>2019-08-07T12:58:23Z</time>
      </trkpt>
      <trkpt lat="48.6431450" lon="14.3557230">
        <ele>623.6</ele>
        <time>2019-08-07T12:58:24Z</time>
      </trkpt>
      <trkpt lat="48.6431630" lon="14.3557630">
        <ele>623.6</ele>
        <time>2019-08-07T12:58:25Z</time>
      </trkpt>
      <trkpt lat="48.6431830" lon="14.3558040">
        <ele>624.0</ele>
        <time>2019-08-07T12:58:26Z</time>
      </trkpt>
      <trkpt lat="48.6432020" lon="14.3558450">
        <ele>624.0</ele>
        <time>2019-08-07T12:58:27Z</time>
      </trkpt>
      <trkpt lat="48.6432210" lon="14.3558860">
        <ele>624.4</ele>
        <time>2019-08-07T12:58:28Z</time>
      </trkpt>
      <trkpt lat="48.6432410" lon="14.3559260">
        <ele>624.6</ele>
        <time>2019-08-07T12:58:29Z</time>
      </trkpt>
      <trkpt lat="48.6432620" lon="14.3559660">
        <ele>624.8</ele>
        <time>2019-08-07T12:58:30Z</time>
      </trkpt>
      <trkpt lat="48.6432820" lon="14.3560060">
        <ele>625.0</ele>
        <time>2019-08-07T12:58:31Z</time>
      </trkpt>
      <trkpt lat="48.6433010" lon="14.3560460">
        <ele>625.4</ele>
        <time>2019-08-07T12:58:32Z</time>
      </trkpt>
      <trkpt lat="48.6433200" lon="14.3560860">
        <ele>625.6</ele>
        <time>2019-08-07T12:58:33Z</time>
      </trkpt>
      <trkpt lat="48.6433390" lon="14.3561270">
        <ele>625.8</ele>
        <time>2019-08-07T12:58:34Z</time>
      </trkpt>
      <trkpt lat="48.6433580" lon="14.3561700">
        <ele>626.2</ele>
        <time>2019-08-07T12:58:35Z</time>
      </trkpt>
      <trkpt lat="48.6433780" lon="14.3562120">
        <ele>626.4</ele>
        <time>2019-08-07T12:58:36Z</time>
      </trkpt>
      <trkpt lat="48.6433960" lon="14.3562520">
        <ele>626.6</ele>
        <time>2019-08-07T12:58:37Z</time>
      </trkpt>
      <trkpt lat="48.6434140" lon="14.3562910">
        <ele>626.8</ele>
        <time>2019-08-07T12:58:38Z</time>
      </trkpt>
      <trkpt lat="48.6434310" lon="14.3563310">
        <ele>627.0</ele>
        <time>2019-08-07T12:58:39Z</time>
      </trkpt>
      <trkpt lat="48.6434480" lon="14.3563700">
        <ele>627.4</ele>
        <time>2019-08-07T12:58:40Z</time>
      </trkpt>
      <trkpt lat="48.6434640" lon="14.3564090">
        <ele>627.6</ele>
        <time>2019-08-07T12:58:41Z</time>
      </trkpt>
      <trkpt lat="48.6434790" lon="14.3564480">
        <ele>627.8</ele>
        <time>2019-08-07T12:58:42Z</time>
      </trkpt>
      <trkpt lat="48.6434960" lon="14.3564860">
        <ele>628.0</ele>
        <time>2019-08-07T12:58:43Z</time>
      </trkpt>
      <trkpt lat="48.6435110" lon="14.3565260">
        <ele>628.2</ele>
        <time>2019-08-07T12:58:44Z</time>
      </trkpt>
      <trkpt lat="48.6435260" lon="14.3565660">
        <ele>628.4</ele>
        <time>2019-08-07T12:58:45Z</time>
      </trkpt>
      <trkpt lat="48.6435390" lon="14.3566050">
        <ele>628.6</ele>
        <time>2019-08-07T12:58:46Z</time>
      </trkpt>
      <trkpt lat="48.6435520" lon="14.3566430">
        <ele>628.8</ele>
        <time>2019-08-07T12:58:47Z</time>
      </trkpt>
      <trkpt lat="48.6435670" lon="14.3566800">
        <ele>629.0</ele>
        <time>2019-08-07T12:58:48Z</time>
      </trkpt>
      <trkpt lat="48.6435810" lon="14.3567180">
        <ele>629.0</ele>
        <time>2019-08-07T12:58:49Z</time>
      </trkpt>
      <trkpt lat="48.6435950" lon="14.3567570">
        <ele>629.2</ele>
        <time>2019-08-07T12:58:50Z</time>
      </trkpt>
      <trkpt lat="48.6436080" lon="14.3567990">
        <ele>629.4</ele>
        <time>2019-08-07T12:58:51Z</time>
      </trkpt>
      <trkpt lat="48.6436180" lon="14.3568420">
        <ele>629.4</ele>
        <time>2019-08-07T12:58:52Z</time>
      </trkpt>
      <trkpt lat="48.6436300" lon="14.3568870">
        <ele>629.6</ele>
        <time>2019-08-07T12:58:53Z</time>
      </trkpt>
      <trkpt lat="48.6436420" lon="14.3569340">
        <ele>629.6</ele>
        <time>2019-08-07T12:58:54Z</time>
      </trkpt>
      <trkpt lat="48.6436520" lon="14.3569810">
        <ele>629.6</ele>
        <time>2019-08-07T12:58:55Z</time>
      </trkpt>
      <trkpt lat="48.6436640" lon="14.3570290">
        <ele>629.6</ele>
        <time>2019-08-07T12:58:56Z</time>
      </trkpt>
      <trkpt lat="48.6436770" lon="14.3570780">
        <ele>629.6</ele>
        <time>2019-08-07T12:58:57Z</time>
      </trkpt>
      <trkpt lat="48.6436900" lon="14.3571280">
        <ele>629.6</ele>
        <time>2019-08-07T12:58:58Z</time>
      </trkpt>
      <trkpt lat="48.6437040" lon="14.3571810">
        <ele>629.6</ele>
        <time>2019-08-07T12:58:59Z</time>
      </trkpt>
      <trkpt lat="48.6437170" lon="14.3572320">
        <ele>629.6</ele>
        <time>2019-08-07T12:59:00Z</time>
      </trkpt>
      <trkpt lat="48.6437320" lon="14.3572860">
        <ele>629.8</ele>
        <time>2019-08-07T12:59:01Z</time>
      </trkpt>
      <trkpt lat="48.6437470" lon="14.3573390">
        <ele>629.8</ele>
        <time>2019-08-07T12:59:02Z</time>
      </trkpt>
      <trkpt lat="48.6437630" lon="14.3573940">
        <ele>629.8</ele>
        <time>2019-08-07T12:59:03Z</time>
      </trkpt>
      <trkpt lat="48.6437810" lon="14.3574470">
        <ele>629.8</ele>
        <time>2019-08-07T12:59:04Z</time>
      </trkpt>
      <trkpt lat="48.6438000" lon="14.3574970">
        <ele>629.8</ele>
        <time>2019-08-07T12:59:05Z</time>
      </trkpt>
      <trkpt lat="48.6438220" lon="14.3575460">
        <ele>629.8</ele>
        <time>2019-08-07T12:59:06Z</time>
      </trkpt>
      <trkpt lat="48.6438440" lon="14.3575940">
        <ele>630.0</ele>
        <time>2019-08-07T12:59:07Z</time>
      </trkpt>
      <trkpt lat="48.6438670" lon="14.3576390">
        <ele>630.0</ele>
        <time>2019-08-07T12:59:08Z</time>
      </trkpt>
      <trkpt lat="48.6438910" lon="14.3576820">
        <ele>630.0</ele>
        <time>2019-08-07T12:59:09Z</time>
      </trkpt>
      <trkpt lat="48.6439200" lon="14.3577220">
        <ele>630.0</ele>
        <time>2019-08-07T12:59:10Z</time>
      </trkpt>
      <trkpt lat="48.6439500" lon="14.3577570">
        <ele>630.0</ele>
        <time>2019-08-07T12:59:11Z</time>
      </trkpt>
      <trkpt lat="48.6439840" lon="14.3577920">
        <ele>630.0</ele>
        <time>2019-08-07T12:59:12Z</time>
      </trkpt>
      <trkpt lat="48.6440170" lon="14.3578230">
        <ele>630.2</ele>
        <time>2019-08-07T12:59:13Z</time>
      </trkpt>
      <trkpt lat="48.6440530" lon="14.3578500">
        <ele>630.2</ele>
        <time>2019-08-07T12:59:14Z</time>
      </trkpt>
      <trkpt lat="48.6440910" lon="14.3578710">
        <ele>630.4</ele>
        <time>2019-08-07T12:59:15Z</time>
      </trkpt>
      <trkpt lat="48.6441300" lon="14.3578890">
        <ele>630.4</ele>
        <time>2019-08-07T12:59:16Z</time>
      </trkpt>
      <trkpt lat="48.6441690" lon="14.3579040">
        <ele>630.6</ele>
        <time>2019-08-07T12:59:17Z</time>
      </trkpt>
      <trkpt lat="48.6442080" lon="14.3579160">
        <ele>630.8</ele>
        <time>2019-08-07T12:59:18Z</time>
      </trkpt>
      <trkpt lat="48.6442480" lon="14.3579220">
        <ele>630.8</ele>
        <time>2019-08-07T12:59:19Z</time>
      </trkpt>
      <trkpt lat="48.6442880" lon="14.3579270">
        <ele>631.0</ele>
        <time>2019-08-07T12:59:20Z</time>
      </trkpt>
      <trkpt lat="48.6443290" lon="14.3579310">
        <ele>631.2</ele>
        <time>2019-08-07T12:59:21Z</time>
      </trkpt>
      <trkpt lat="48.6443690" lon="14.3579350">
        <ele>631.2</ele>
        <time>2019-08-07T12:59:22Z</time>
      </trkpt>
      <trkpt lat="48.6444100" lon="14.3579370">
        <ele>631.4</ele>
        <time>2019-08-07T12:59:23Z</time>
      </trkpt>
      <trkpt lat="48.6444490" lon="14.3579390">
        <ele>631.6</ele>
        <time>2019-08-07T12:59:24Z</time>
      </trkpt>
      <trkpt lat="48.6444880" lon="14.3579440">
        <ele>631.8</ele>
        <time>2019-08-07T12:59:25Z</time>
      </trkpt>
      <trkpt lat="48.6445280" lon="14.3579500">
        <ele>631.8</ele>
        <time>2019-08-07T12:59:26Z</time>
      </trkpt>
      <trkpt lat="48.6445670" lon="14.3579520">
        <ele>632.0</ele>
        <time>2019-08-07T12:59:27Z</time>
      </trkpt>
      <trkpt lat="48.6446050" lon="14.3579520">
        <ele>632.2</ele>
        <time>2019-08-07T12:59:28Z</time>
      </trkpt>
      <trkpt lat="48.6446460" lon="14.3579560">
        <ele>632.4</ele>
        <time>2019-08-07T12:59:29Z</time>
      </trkpt>
      <trkpt lat="48.6446860" lon="14.3579610">
        <ele>632.6</ele>
        <time>2019-08-07T12:59:30Z</time>
      </trkpt>
      <trkpt lat="48.6447240" lon="14.3579680">
        <ele>632.8</ele>
        <time>2019-08-07T12:59:31Z</time>
      </trkpt>
      <trkpt lat="48.6447640" lon="14.3579760">
        <ele>632.8</ele>
        <time>2019-08-07T12:59:32Z</time>
      </trkpt>
      <trkpt lat="48.6448050" lon="14.3579830">
        <ele>633.0</ele>
        <time>2019-08-07T12:59:33Z</time>
      </trkpt>
      <trkpt lat="48.6448440" lon="14.3579910">
        <ele>633.2</ele>
        <time>2019-08-07T12:59:34Z</time>
      </trkpt>
      <trkpt lat="48.6448850" lon="14.3579960">
        <ele>633.2</ele>
        <time>2019-08-07T12:59:35Z</time>
      </trkpt>
      <trkpt lat="48.6449250" lon="14.3580050">
        <ele>633.4</ele>
        <time>2019-08-07T12:59:36Z</time>
      </trkpt>
      <trkpt lat="48.6449650" lon="14.3580150">
        <ele>633.4</ele>
        <time>2019-08-07T12:59:37Z</time>
      </trkpt>
      <trkpt lat="48.6450060" lon="14.3580270">
        <ele>633.6</ele>
        <time>2019-08-07T12:59:38Z</time>
      </trkpt>
      <trkpt lat="48.6450460" lon="14.3580370">
        <ele>633.8</ele>
        <time>2019-08-07T12:59:39Z</time>
      </trkpt>
      <trkpt lat="48.6450860" lon="14.3580520">
        <ele>633.8</ele>
        <time>2019-08-07T12:59:40Z</time>
      </trkpt>
      <trkpt lat="48.6451240" lon="14.3580670">
        <ele>634.0</ele>
        <time>2019-08-07T12:59:41Z</time>
      </trkpt>
      <trkpt lat="48.6451600" lon="14.3580800">
        <ele>634.2</ele>
        <time>2019-08-07T12:59:42Z</time>
      </trkpt>
      <trkpt lat="48.6451970" lon="14.3580940">
        <ele>634.4</ele>
        <time>2019-08-07T12:59:43Z</time>
      </trkpt>
      <trkpt lat="48.6452320" lon="14.3581070">
        <ele>634.6</ele>
        <time>2019-08-07T12:59:44Z</time>
      </trkpt>
      <trkpt lat="48.6452650" lon="14.3581210">
        <ele>634.8</ele>
        <time>2019-08-07T12:59:45Z</time>
      </trkpt>
      <trkpt lat="48.6452980" lon="14.3581360">
        <ele>635.0</ele>
        <time>2019-08-07T12:59:46Z</time>
      </trkpt>
      <trkpt lat="48.6453300" lon="14.3581510">
        <ele>635.0</ele>
        <time>2019-08-07T12:59:47Z</time>
      </trkpt>
      <trkpt lat="48.6453620" lon="14.3581680">
        <ele>635.2</ele>
        <time>2019-08-07T12:59:48Z</time>
      </trkpt>
      <trkpt lat="48.6453920" lon="14.3581890">
        <ele>635.4</ele>
        <time>2019-08-07T12:59:49Z</time>
      </trkpt>
      <trkpt lat="48.6454240" lon="14.3582100">
        <ele>635.6</ele>
        <time>2019-08-07T12:59:50Z</time>
      </trkpt>
      <trkpt lat="48.6454560" lon="14.3582280">
        <ele>635.6</ele>
        <time>2019-08-07T12:59:51Z</time>
      </trkpt>
      <trkpt lat="48.6454860" lon="14.3582510">
        <ele>635.8</ele>
        <time>2019-08-07T12:59:52Z</time>
      </trkpt>
      <trkpt lat="48.6455140" lon="14.3582750">
        <ele>636.0</ele>
        <time>2019-08-07T12:59:53Z</time>
      </trkpt>
      <trkpt lat="48.6455400" lon="14.3582970">
        <ele>636.4</ele>
        <time>2019-08-07T12:59:54Z</time>
      </trkpt>
      <trkpt lat="48.6455670" lon="14.3583170">
        <ele>636.6</ele>
        <time>2019-08-07T12:59:55Z</time>
      </trkpt>
      <trkpt lat="48.6455900" lon="14.3583400">
        <ele>636.8</ele>
        <time>2019-08-07T12:59:56Z</time>
      </trkpt>
      <trkpt lat="48.6456140" lon="14.3583610">
        <ele>637.0</ele>
        <time>2019-08-07T12:59:57Z</time>
      </trkpt>
      <trkpt lat="48.6456370" lon="14.3583830">
        <ele>637.2</ele>
        <time>2019-08-07T12:59:58Z</time>
      </trkpt>
      <trkpt lat="48.6456650" lon="14.3584060">
        <ele>637.4</ele>
        <time>2019-08-07T12:59:59Z</time>
      </trkpt>
      <trkpt lat="48.6456940" lon="14.3584320">
        <ele>637.8</ele>
        <time>2019-08-07T13:00:00Z</time>
      </trkpt>
      <trkpt lat="48.6457210" lon="14.3584610">
        <ele>638.0</ele>
        <time>2019-08-07T13:00:01Z</time>
      </trkpt>
      <trkpt lat="48.6457450" lon="14.3584880">
        <ele>638.2</ele>
        <time>2019-08-07T13:00:02Z</time>
      </trkpt>
      <trkpt lat="48.6457710" lon="14.3585180">
        <ele>638.4</ele>
        <time>2019-08-07T13:00:03Z</time>
      </trkpt>
      <trkpt lat="48.6457950" lon="14.3585500">
        <ele>638.6</ele>
        <time>2019-08-07T13:00:04Z</time>
      </trkpt>
      <trkpt lat="48.6458170" lon="14.3585820">
        <ele>638.8</ele>
        <time>2019-08-07T13:00:05Z</time>
      </trkpt>
      <trkpt lat="48.6458400" lon="14.3586130">
        <ele>639.0</ele>
        <time>2019-08-07T13:00:06Z</time>
      </trkpt>
      <trkpt lat="48.6458620" lon="14.3586430">
        <ele>639.2</ele>
        <time>2019-08-07T13:00:07Z</time>
      </trkpt>
      <trkpt lat="48.6458850" lon="14.3586700">
        <ele>639.4</ele>
        <time>2019-08-07T13:00:08Z</time>
      </trkpt>
      <trkpt lat="48.6459050" lon="14.3586930">
        <ele>639.6</ele>
        <time>2019-08-07T13:00:09Z</time>
      </trkpt>
      <trkpt lat="48.6459240" lon="14.3587150">
        <ele>639.8</ele>
        <time>2019-08-07T13:00:10Z</time>
      </trkpt>
      <trkpt lat="48.6459370" lon="14.3587450">
        <ele>640.0</ele>
        <time>2019-08-07T13:00:11Z</time>
      </trkpt>
      <trkpt lat="48.6459530" lon="14.3587720">
        <ele>640.2</ele>
        <time>2019-08-07T13:00:12Z</time>
      </trkpt>
      <trkpt lat="48.6459730" lon="14.3587950">
        <ele>640.4</ele>
        <time>2019-08-07T13:00:13Z</time>
      </trkpt>
      <trkpt lat="48.6459920" lon="14.3588150">
        <ele>640.6</ele>
        <time>2019-08-07T13:00:14Z</time>
      </trkpt>
      <trkpt lat="48.6460070" lon="14.3588380">
        <ele>640.6</ele>
        <time>2019-08-07T13:00:15Z</time>
      </trkpt>
      <trkpt lat="48.6460210" lon="14.3588650">
        <ele>640.8</ele>
        <time>2019-08-07T13:00:16Z</time>
      </trkpt>
      <trkpt lat="48.6460340" lon="14.3588970">
        <ele>640.8</ele>
        <time>2019-08-07T13:00:17Z</time>
      </trkpt>
      <trkpt lat="48.6460490" lon="14.3589300">
        <ele>640.8</ele>
        <time>2019-08-07T13:00:18Z</time>
      </trkpt>
      <trkpt lat="48.6460660" lon="14.3589620">
        <ele>640.8</ele>
        <time>2019-08-07T13:00:19Z</time>
      </trkpt>
      <trkpt lat="48.6460830" lon="14.3589920">
        <ele>640.8</ele>
        <time>2019-08-07T13:00:20Z</time>
      </trkpt>
      <trkpt lat="48.6461010" lon="14.3590250">
        <ele>640.8</ele>
        <time>2019-08-07T13:00:21Z</time>
      </trkpt>
      <trkpt lat="48.6461220" lon="14.3590670">
        <ele>640.8</ele>
        <time>2019-08-07T13:00:22Z</time>
      </trkpt>
      <trkpt lat="48.6461430" lon="14.3591090">
        <ele>640.8</ele>
        <time>2019-08-07T13:00:23Z</time>
      </trkpt>
      <trkpt lat="48.6461650" lon="14.3591560">
        <ele>640.6</ele>
        <time>2019-08-07T13:00:24Z</time>
      </trkpt>
      <trkpt lat="48.6461870" lon="14.3591990">
        <ele>640.6</ele>
        <time>2019-08-07T13:00:25Z</time>
      </trkpt>
      <trkpt lat="48.6462120" lon="14.3592430">
        <ele>640.6</ele>
        <time>2019-08-07T13:00:26Z</time>
      </trkpt>
      <trkpt lat="48.6462360" lon="14.3592890">
        <ele>640.4</ele>
        <time>2019-08-07T13:00:27Z</time>
      </trkpt>
      <trkpt lat="48.6462610" lon="14.3593370">
        <ele>640.4</ele>
        <time>2019-08-07T13:00:28Z</time>
      </trkpt>
      <trkpt lat="48.6462880" lon="14.3593840">
        <ele>640.2</ele>
        <time>2019-08-07T13:00:29Z</time>
      </trkpt>
      <trkpt lat="48.6463180" lon="14.3594330">
        <ele>640.0</ele>
        <time>2019-08-07T13:00:30Z</time>
      </trkpt>
      <trkpt lat="48.6463510" lon="14.3594800">
        <ele>640.0</ele>
        <time>2019-08-07T13:00:31Z</time>
      </trkpt>
      <trkpt lat="48.6463860" lon="14.3595350">
        <ele>639.8</ele>
        <time>2019-08-07T13:00:32Z</time>
      </trkpt>
      <trkpt lat="48.6464230" lon="14.3595860">
        <ele>639.6</ele>
        <time>2019-08-07T13:00:33Z</time>
      </trkpt>
      <trkpt lat="48.6464650" lon="14.3596330">
        <ele>639.2</ele>
        <time>2019-08-07T13:00:34Z</time>
      </trkpt>
      <trkpt lat="48.6465090" lon="14.3596710">
        <ele>638.8</ele>
        <time>2019-08-07T13:00:35Z</time>
      </trkpt>
      <trkpt lat="48.6465540" lon="14.3596970">
        <ele>638.4</ele>
        <time>2019-08-07T13:00:36Z</time>
      </trkpt>
      <trkpt lat="48.6466010" lon="14.3597090">
        <ele>637.8</ele>
        <time>2019-08-07T13:00:37Z</time>
      </trkpt>
      <trkpt lat="48.6466460" lon="14.3597150">
        <ele>637.4</ele>
        <time>2019-08-07T13:00:38Z</time>
      </trkpt>
      <trkpt lat="48.6466910" lon="14.3597140">
        <ele>637.0</ele>
        <time>2019-08-07T13:00:39Z</time>
      </trkpt>
      <trkpt lat="48.6467380" lon="14.3597070">
        <ele>636.4</ele>
        <time>2019-08-07T13:00:40Z</time>
      </trkpt>
      <trkpt lat="48.6467840" lon="14.3596980">
        <ele>636.0</ele>
        <time>2019-08-07T13:00:41Z</time>
      </trkpt>
      <trkpt lat="48.6468260" lon="14.3596860">
        <ele>635.4</ele>
        <time>2019-08-07T13:00:42Z</time>
      </trkpt>
      <trkpt lat="48.6468650" lon="14.3596690">
        <ele>635.0</ele>
        <time>2019-08-07T13:00:43Z</time>
      </trkpt>
      <trkpt lat="48.6469020" lon="14.3596500">
        <ele>634.6</ele>
        <time>2019-08-07T13:00:44Z</time>
      </trkpt>
      <trkpt lat="48.6469370" lon="14.3596290">
        <ele>634.0</ele>
        <time>2019-08-07T13:00:45Z</time>
      </trkpt>
      <trkpt lat="48.6469740" lon="14.3595990">
        <ele>633.6</ele>
        <time>2019-08-07T13:00:46Z</time>
      </trkpt>
      <trkpt lat="48.6470100" lon="14.3595600">
        <ele>633.2</ele>
        <time>2019-08-07T13:00:47Z</time>
      </trkpt>
      <trkpt lat="48.6470460" lon="14.3595180">
        <ele>632.8</ele>
        <time>2019-08-07T13:00:48Z</time>
      </trkpt>
      <trkpt lat="48.6470800" lon="14.3594790">
        <ele>632.4</ele>
        <time>2019-08-07T13:00:49Z</time>
      </trkpt>
      <trkpt lat="48.6471180" lon="14.3594310">
        <ele>631.8</ele>
        <time>2019-08-07T13:00:50Z</time>
      </trkpt>
      <trkpt lat="48.6471590" lon="14.3593850">
        <ele>631.4</ele>
        <time>2019-08-07T13:00:51Z</time>
      </trkpt>
      <trkpt lat="48.6472010" lon="14.3593330">
        <ele>631.0</ele>
        <time>2019-08-07T13:00:52Z</time>
      </trkpt>
      <trkpt lat="48.6472410" lon="14.3592800">
        <ele>630.4</ele>
        <time>2019-08-07T13:00:53Z</time>
      </trkpt>
      <trkpt lat="48.6472790" lon="14.3592240">
        <ele>630.0</ele>
        <time>2019-08-07T13:00:54Z</time>
      </trkpt>
      <trkpt lat="48.6473180" lon="14.3591600">
        <ele>629.4</ele>
        <time>2019-08-07T13:00:55Z</time>
      </trkpt>
      <trkpt lat="48.6473570" lon="14.3590830">
        <ele>628.8</ele>
        <time>2019-08-07T13:00:56Z</time>
      </trkpt>
      <trkpt lat="48.6473980" lon="14.3590040">
        <ele>628.4</ele>
        <time>2019-08-07T13:00:57Z</time>
      </trkpt>
      <trkpt lat="48.6474400" lon="14.3589280">
        <ele>627.8</ele>
        <time>2019-08-07T13:00:58Z</time>
      </trkpt>
      <trkpt lat="48.6474800" lon="14.3588580">
        <ele>627.4</ele>
        <time>2019-08-07T13:00:59Z</time>
      </trkpt>
      <trkpt lat="48.6475220" lon="14.3587940">
        <ele>626.8</ele>
        <time>2019-08-07T13:01:00Z</time>
      </trkpt>
      <trkpt lat="48.6475640" lon="14.3587390">
        <ele>626.2</ele>
        <time>2019-08-07T13:01:01Z</time>
      </trkpt>
      <trkpt lat="48.6476120" lon="14.3586910">
        <ele>625.6</ele>
        <time>2019-08-07T13:01:02Z</time>
      </trkpt>
      <trkpt lat="48.6476620" lon="14.3586580">
        <ele>624.8</ele>
        <time>2019-08-07T13:01:03Z</time>
      </trkpt>
      <trkpt lat="48.6477140" lon="14.3586400">
        <ele>624.4</ele>
        <time>2019-08-07T13:01:04Z</time>
      </trkpt>
      <trkpt lat="48.6477690" lon="14.3586340">
        <ele>623.8</ele>
        <time>2019-08-07T13:01:05Z</time>
      </trkpt>
      <trkpt lat="48.6478310" lon="14.3586380">
        <ele>623.0</ele>
        <time>2019-08-07T13:01:06Z</time>
      </trkpt>
      <trkpt lat="48.6479020" lon="14.3586610">
        <ele>622.4</ele>
        <time>2019-08-07T13:01:07Z</time>
      </trkpt>
      <trkpt lat="48.6479810" lon="14.3586980">
        <ele>621.6</ele>
        <time>2019-08-07T13:01:08Z</time>
      </trkpt>
      <trkpt lat="48.6480590" lon="14.3587400">
        <ele>620.8</ele>
        <time>2019-08-07T13:01:09Z</time>
      </trkpt>
      <trkpt lat="48.6481380" lon="14.3587760">
        <ele>619.6</ele>
        <time>2019-08-07T13:01:10Z</time>
      </trkpt>
      <trkpt lat="48.6482090" lon="14.3588060">
        <ele>618.4</ele>
        <time>2019-08-07T13:01:11Z</time>
      </trkpt>
      <trkpt lat="48.6482700" lon="14.3588300">
        <ele>617.0</ele>
        <time>2019-08-07T13:01:12Z</time>
      </trkpt>
      <trkpt lat="48.6483230" lon="14.3588470">
        <ele>616.0</ele>
        <time>2019-08-07T13:01:13Z</time>
      </trkpt>
      <trkpt lat="48.6483760" lon="14.3588630">
        <ele>614.8</ele>
        <time>2019-08-07T13:01:14Z</time>
      </trkpt>
      <trkpt lat="48.6484250" lon="14.3588760">
        <ele>613.8</ele>
        <time>2019-08-07T13:01:15Z</time>
      </trkpt>
      <trkpt lat="48.6484780" lon="14.3588870">
        <ele>613.0</ele>
        <time>2019-08-07T13:01:16Z</time>
      </trkpt>
      <trkpt lat="48.6485410" lon="14.3588900">
        <ele>612.2</ele>
        <time>2019-08-07T13:01:17Z</time>
      </trkpt>
      <trkpt lat="48.6486090" lon="14.3588740">
        <ele>611.6</ele>
        <time>2019-08-07T13:01:18Z</time>
      </trkpt>
      <trkpt lat="48.6486770" lon="14.3588420">
        <ele>610.8</ele>
        <time>2019-08-07T13:01:19Z</time>
      </trkpt>
      <trkpt lat="48.6487410" lon="14.3588020">
        <ele>610.2</ele>
        <time>2019-08-07T13:01:20Z</time>
      </trkpt>
      <trkpt lat="48.6488010" lon="14.3587510">
        <ele>609.6</ele>
        <time>2019-08-07T13:01:21Z</time>
      </trkpt>
      <trkpt lat="48.6488590" lon="14.3586810">
        <ele>609.2</ele>
        <time>2019-08-07T13:01:22Z</time>
      </trkpt>
      <trkpt lat="48.6489140" lon="14.3586060">
        <ele>608.6</ele>
        <time>2019-08-07T13:01:23Z</time>
      </trkpt>
      <trkpt lat="48.6489720" lon="14.3585290">
        <ele>608.2</ele>
        <time>2019-08-07T13:01:24Z</time>
      </trkpt>
      <trkpt lat="48.6490360" lon="14.3584460">
        <ele>607.8</ele>
        <time>2019-08-07T13:01:25Z</time>
      </trkpt>
      <trkpt lat="48.6491030" lon="14.3583610">
        <ele>607.4</ele>
        <time>2019-08-07T13:01:26Z</time>
      </trkpt>
      <trkpt lat="48.6491760" lon="14.3582760">
        <ele>606.8</ele>
        <time>2019-08-07T13:01:27Z</time>
      </trkpt>
      <trkpt lat="48.6492530" lon="14.3582020">
        <ele>606.4</ele>
        <time>2019-08-07T13:01:28Z</time>
      </trkpt>
      <trkpt lat="48.6493360" lon="14.3581400">
        <ele>605.8</ele>
        <time>2019-08-07T13:01:29Z</time>
      </trkpt>
      <trkpt lat="48.6494270" lon="14.3580820">
        <ele>605.2</ele>
        <time>2019-08-07T13:01:30Z</time>
      </trkpt>
      <trkpt lat="48.6495240" lon="14.3580330">
        <ele>604.6</ele>
        <time>2019-08-07T13:01:31Z</time>
      </trkpt>
      <trkpt lat="48.6496130" lon="14.3580340">
        <ele>604.2</ele>
        <time>2019-08-07T13:01:32Z</time>
      </trkpt>
      <trkpt lat="48.6497030" lon="14.3580580">
        <ele>604.0</ele>
        <time>2019-08-07T13:01:33Z</time>
      </trkpt>
      <trkpt lat="48.6497910" lon="14.3581210">
        <ele>604.0</ele>
        <time>2019-08-07T13:01:34Z</time>
      </trkpt>
      <trkpt lat="48.6498550" lon="14.3582130">
        <ele>604.0</ele>
        <time>2019-08-07T13:01:35Z</time>
      </trkpt>
      <trkpt lat="48.6498970" lon="14.3583170">
        <ele>604.0</ele>
        <time>2019-08-07T13:01:36Z</time>
      </trkpt>
      <trkpt lat="48.6499280" lon="14.3584190">
        <ele>603.8</ele>
        <time>2019-08-07T13:01:37Z</time>
      </trkpt>
      <trkpt lat="48.6499580" lon="14.3585130">
        <ele>603.8</ele>
        <time>2019-08-07T13:01:38Z</time>
      </trkpt>
      <trkpt lat="48.6499830" lon="14.3585980">
        <ele>603.6</ele>
        <time>2019-08-07T13:01:39Z</time>
      </trkpt>
      <trkpt lat="48.6500120" lon="14.3586750">
        <ele>603.6</ele>
        <time>2019-08-07T13:01:40Z</time>
      </trkpt>
      <trkpt lat="48.6500450" lon="14.3587490">
        <ele>603.4</ele>
        <time>2019-08-07T13:01:41Z</time>
      </trkpt>
      <trkpt lat="48.6500790" lon="14.3588100">
        <ele>603.2</ele>
        <time>2019-08-07T13:01:42Z</time>
      </trkpt>
      <trkpt lat="48.6501140" lon="14.3588630">
        <ele>603.2</ele>
        <time>2019-08-07T13:01:43Z</time>
      </trkpt>
      <trkpt lat="48.6501480" lon="14.3589100">
        <ele>603.0</ele>
        <time>2019-08-07T13:01:44Z</time>
      </trkpt>
      <trkpt lat="48.6501840" lon="14.3589560">
        <ele>602.8</ele>
        <time>2019-08-07T13:01:45Z</time>
      </trkpt>
      <trkpt lat="48.6502180" lon="14.3590070">
        <ele>602.4</ele>
        <time>2019-08-07T13:01:46Z</time>
      </trkpt>
      <trkpt lat="48.6502420" lon="14.3590570">
        <ele>602.2</ele>
        <time>2019-08-07T13:01:47Z</time>
      </trkpt>
      <trkpt lat="48.6502520" lon="14.3590940">
        <ele>601.8</ele>
        <time>2019-08-07T13:01:48Z</time>
      </trkpt>
      <trkpt lat="48.6502570" lon="14.3591180">
        <ele>601.4</ele>
        <time>2019-08-07T13:01:49Z</time>
      </trkpt>
      <trkpt lat="48.6502580" lon="14.3591350">
        <ele>601.2</ele>
        <time>2019-08-07T13:01:50Z</time>
      </trkpt>
      <trkpt lat="48.6502590" lon="14.3591460">
        <ele>600.8</ele>
        <time>2019-08-07T13:01:51Z</time>
      </trkpt>
      <trkpt lat="48.6502620" lon="14.3591550">
        <ele>600.6</ele>
        <time>2019-08-07T13:01:52Z</time>
      </trkpt>
      <trkpt lat="48.6502670" lon="14.3591620">
        <ele>600.6</ele>
        <time>2019-08-07T13:01:53Z</time>
      </trkpt>
      <trkpt lat="48.6502670" lon="14.3591620">
        <ele>600.4</ele>
        <time>2019-08-07T13:01:54Z</time>
      </trkpt>
      <trkpt lat="48.6502670" lon="14.3591620">
        <ele>600.2</ele>
        <time>2019-08-07T13:01:55Z</time>
      </trkpt>
      <trkpt lat="48.6502400" lon="14.3590990">
        <ele>600.0</ele>
        <time>2019-08-07T13:02:18Z</time>
      </trkpt>
      <trkpt lat="48.6502310" lon="14.3590810">
        <ele>600.0</ele>
        <time>2019-08-07T13:02:19Z</time>
      </trkpt>
      <trkpt lat="48.6502290" lon="14.3590580">
        <ele>600.2</ele>
        <time>2019-08-07T13:08:35Z</time>
      </trkpt>
      <trkpt lat="48.6502620" lon="14.3590490">
        <ele>600.2</ele>
        <time>2019-08-07T13:08:36Z</time>
      </trkpt>
      <trkpt lat="48.6502700" lon="14.3590920">
        <ele>600.2</ele>
        <time>2019-08-07T13:08:37Z</time>
      </trkpt>
      <trkpt lat="48.6502810" lon="14.3591380">
        <ele>600.0</ele>
        <time>2019-08-07T13:08:38Z</time>
      </trkpt>
      <trkpt lat="48.6502950" lon="14.3591950">
        <ele>600.0</ele>
        <time>2019-08-07T13:08:39Z</time>
      </trkpt>
      <trkpt lat="48.6503150" lon="14.3592550">
        <ele>599.8</ele>
        <time>2019-08-07T13:08:40Z</time>
      </trkpt>
      <trkpt lat="48.6503360" lon="14.3593230">
        <ele>599.6</ele>
        <time>2019-08-07T13:08:41Z</time>
      </trkpt>
      <trkpt lat="48.6503530" lon="14.3594100">
        <ele>599.4</ele>
        <time>2019-08-07T13:08:42Z</time>
      </trkpt>
      <trkpt lat="48.6503700" lon="14.3595160">
        <ele>599.0</ele>
        <time>2019-08-07T13:08:43Z</time>
      </trkpt>
      <trkpt lat="48.6503930" lon="14.3596300">
        <ele>598.4</ele>
        <time>2019-08-07T13:08:44Z</time>
      </trkpt>
      <trkpt lat="48.6504150" lon="14.3597570">
        <ele>598.0</ele>
        <time>2019-08-07T13:08:45Z</time>
      </trkpt>
      <trkpt lat="48.6504320" lon="14.3598930">
        <ele>597.4</ele>
        <time>2019-08-07T13:08:46Z</time>
      </trkpt>
      <trkpt lat="48.6504450" lon="14.3600360">
        <ele>596.8</ele>
        <time>2019-08-07T13:08:47Z</time>
      </trkpt>
      <trkpt lat="48.6504590" lon="14.3601820">
        <ele>596.0</ele>
        <time>2019-08-07T13:08:48Z</time>
      </trkpt>
      <trkpt lat="48.6504760" lon="14.3603490">
        <ele>595.2</ele>
        <time>2019-08-07T13:08:49Z</time>
      </trkpt>
      <trkpt lat="48.6504930" lon="14.3605220">
        <ele>594.4</ele>
        <time>2019-08-07T13:08:50Z</time>
      </trkpt>
      <trkpt lat="48.6505090" lon="14.3607000">
        <ele>593.4</ele>
        <time>2019-08-07T13:08:51Z</time>
      </trkpt>
      <trkpt lat="48.6505240" lon="14.3608760">
        <ele>592.4</ele>
        <time>2019-08-07T13:08:52Z</time>
      </trkpt>
      <trkpt lat="48.6505380" lon="14.3610350">
        <ele>591.6</ele>
        <time>2019-08-07T13:08:53Z</time>
      </trkpt>
      <trkpt lat="48.6505560" lon="14.3611990">
        <ele>590.6</ele>
        <time>2019-08-07T13:08:54Z</time>
      </trkpt>
      <trkpt lat="48.6505840" lon="14.3613530">
        <ele>589.8</ele>
        <time>2019-08-07T13:08:55Z</time>
      </trkpt>
      <trkpt lat="48.6506240" lon="14.3614970">
        <ele>588.8</ele>
        <time>2019-08-07T13:08:56Z</time>
      </trkpt>
      <trkpt lat="48.6506710" lon="14.3616350">
        <ele>588.2</ele>
        <time>2019-08-07T13:08:57Z</time>
      </trkpt>
      <trkpt lat="48.6507250" lon="14.3617650">
        <ele>587.2</ele>
        <time>2019-08-07T13:08:58Z</time>
      </trkpt>
      <trkpt lat="48.6507790" lon="14.3618910">
        <ele>586.2</ele>
        <time>2019-08-07T13:08:59Z</time>
      </trkpt>
      <trkpt lat="48.6508300" lon="14.3620170">
        <ele>585.2</ele>
        <time>2019-08-07T13:09:00Z</time>
      </trkpt>
      <trkpt lat="48.6508790" lon="14.3621520">
        <ele>584.2</ele>
        <time>2019-08-07T13:09:01Z</time>
      </trkpt>
      <trkpt lat="48.6509260" lon="14.3622560">
        <ele>583.2</ele>
        <time>2019-08-07T13:09:02Z</time>
      </trkpt>
      <trkpt lat="48.6509740" lon="14.3623500">
        <ele>582.2</ele>
        <time>2019-08-07T13:09:03Z</time>
      </trkpt>
      <trkpt lat="48.6510090" lon="14.3624340">
        <ele>581.4</ele>
        <time>2019-08-07T13:09:04Z</time>
      </trkpt>
      <trkpt lat="48.6510430" lon="14.3625110">
        <ele>580.6</ele>
        <time>2019-08-07T13:09:05Z</time>
      </trkpt>
      <trkpt lat="48.6510680" lon="14.3625820">
        <ele>579.8</ele>
        <time>2019-08-07T13:09:06Z</time>
      </trkpt>
      <trkpt lat="48.6510850" lon="14.3626490">
        <ele>579.2</ele>
        <time>2019-08-07T13:09:07Z</time>
      </trkpt>
      <trkpt lat="48.6510950" lon="14.3627160">
        <ele>578.6</ele>
        <time>2019-08-07T13:09:08Z</time>
      </trkpt>
      <trkpt lat="48.6511070" lon="14.3627870">
        <ele>578.0</ele>
        <time>2019-08-07T13:09:09Z</time>
      </trkpt>
      <trkpt lat="48.6511200" lon="14.3628640">
        <ele>577.6</ele>
        <time>2019-08-07T13:09:10Z</time>
      </trkpt>
      <trkpt lat="48.6511340" lon="14.3629450">
        <ele>577.2</ele>
        <time>2019-08-07T13:09:11Z</time>
      </trkpt>
      <trkpt lat="48.6511450" lon="14.3630260">
        <ele>576.8</ele>
        <time>2019-08-07T13:09:12Z</time>
      </trkpt>
      <trkpt lat="48.6511600" lon="14.3631090">
        <ele>576.4</ele>
        <time>2019-08-07T13:09:13Z</time>
      </trkpt>
      <trkpt lat="48.6511780" lon="14.3631980">
        <ele>575.8</ele>
        <time>2019-08-07T13:09:14Z</time>
      </trkpt>
      <trkpt lat="48.6511950" lon="14.3632910">
        <ele>575.4</ele>
        <time>2019-08-07T13:09:15Z</time>
      </trkpt>
      <trkpt lat="48.6512180" lon="14.3633880">
        <ele>575.0</ele>
        <time>2019-08-07T13:09:16Z</time>
      </trkpt>
      <trkpt lat="48.6512450" lon="14.3634880">
        <ele>574.6</ele>
        <time>2019-08-07T13:09:17Z</time>
      </trkpt>
      <trkpt lat="48.6512750" lon="14.3635910">
        <ele>573.8</ele>
        <time>2019-08-07T13:09:18Z</time>
      </trkpt>
      <trkpt lat="48.6513100" lon="14.3636860">
        <ele>573.2</ele>
        <time>2019-08-07T13:09:19Z</time>
      </trkpt>
      <trkpt lat="48.6513510" lon="14.3637650">
        <ele>572.4</ele>
        <time>2019-08-07T13:09:20Z</time>
      </trkpt>
      <trkpt lat="48.6514060" lon="14.3638350">
        <ele>571.8</ele>
        <time>2019-08-07T13:09:21Z</time>
      </trkpt>
      <trkpt lat="48.6514740" lon="14.3638940">
        <ele>570.8</ele>
        <time>2019-08-07T13:09:22Z</time>
      </trkpt>
      <trkpt lat="48.6515520" lon="14.3639430">
        <ele>570.0</ele>
        <time>2019-08-07T13:09:23Z</time>
      </trkpt>
      <trkpt lat="48.6516290" lon="14.3639910">
        <ele>569.0</ele>
        <time>2019-08-07T13:09:24Z</time>
      </trkpt>
      <trkpt lat="48.6517060" lon="14.3640370">
        <ele>568.0</ele>
        <time>2019-08-07T13:09:25Z</time>
      </trkpt>
      <trkpt lat="48.6517810" lon="14.3640830">
        <ele>567.0</ele>
        <time>2019-08-07T13:09:26Z</time>
      </trkpt>
      <trkpt lat="48.6518510" lon="14.3641250">
        <ele>566.0</ele>
        <time>2019-08-07T13:09:27Z</time>
      </trkpt>
      <trkpt lat="48.6519210" lon="14.3641650">
        <ele>565.0</ele>
        <time>2019-08-07T13:09:28Z</time>
      </trkpt>
      <trkpt lat="48.6519950" lon="14.3642060">
        <ele>564.2</ele>
        <time>2019-08-07T13:09:29Z</time>
      </trkpt>
      <trkpt lat="48.6520780" lon="14.3642500">
        <ele>563.4</ele>
        <time>2019-08-07T13:09:30Z</time>
      </trkpt>
      <trkpt lat="48.6521560" lon="14.3642890">
        <ele>562.2</ele>
        <time>2019-08-07T13:09:31Z</time>
      </trkpt>
      <trkpt lat="48.6522360" lon="14.3643300">
        <ele>561.4</ele>
        <time>2019-08-07T13:09:32Z</time>
      </trkpt>
      <trkpt lat="48.6523120" lon="14.3643590">
        <ele>560.6</ele>
        <time>2019-08-07T13:09:33Z</time>
      </trkpt>
      <trkpt lat="48.6523890" lon="14.3643680">
        <ele>559.8</ele>
        <time>2019-08-07T13:09:34Z</time>
      </trkpt>
      <trkpt lat="48.6524680" lon="14.3643590">
        <ele>559.0</ele>
        <time>2019-08-07T13:09:35Z</time>
      </trkpt>
      <trkpt lat="48.6525530" lon="14.3643300">
        <ele>558.2</ele>
        <time>2019-08-07T13:09:36Z</time>
      </trkpt>
      <trkpt lat="48.6526410" lon="14.3642890">
        <ele>557.2</ele>
        <time>2019-08-07T13:09:37Z</time>
      </trkpt>
      <trkpt lat="48.6527190" lon="14.3642530">
        <ele>556.2</ele>
        <time>2019-08-07T13:09:38Z</time>
      </trkpt>
      <trkpt lat="48.6527910" lon="14.3642210">
        <ele>555.0</ele>
        <time>2019-08-07T13:09:39Z</time>
      </trkpt>
      <trkpt lat="48.6528620" lon="14.3641940">
        <ele>554.0</ele>
        <time>2019-08-07T13:09:40Z</time>
      </trkpt>
      <trkpt lat="48.6529260" lon="14.3641820">
        <ele>553.0</ele>
        <time>2019-08-07T13:09:41Z</time>
      </trkpt>
      <trkpt lat="48.6529830" lon="14.3641830">
        <ele>552.2</ele>
        <time>2019-08-07T13:09:42Z</time>
      </trkpt>
      <trkpt lat="48.6530450" lon="14.3641970">
        <ele>551.2</ele>
        <time>2019-08-07T13:09:43Z</time>
      </trkpt>
      <trkpt lat="48.6531010" lon="14.3642190">
        <ele>550.2</ele>
        <time>2019-08-07T13:09:44Z</time>
      </trkpt>
      <trkpt lat="48.6531580" lon="14.3642470">
        <ele>549.4</ele>
        <time>2019-08-07T13:09:45Z</time>
      </trkpt>
      <trkpt lat="48.6532200" lon="14.3642790">
        <ele>548.6</ele>
        <time>2019-08-07T13:09:46Z</time>
      </trkpt>
      <trkpt lat="48.6532780" lon="14.3643120">
        <ele>547.8</ele>
        <time>2019-08-07T13:09:47Z</time>
      </trkpt>
      <trkpt lat="48.6533310" lon="14.3643480">
        <ele>547.0</ele>
        <time>2019-08-07T13:09:48Z</time>
      </trkpt>
      <trkpt lat="48.6533800" lon="14.3643850">
        <ele>546.2</ele>
        <time>2019-08-07T13:09:49Z</time>
      </trkpt>
      <trkpt lat="48.6534190" lon="14.3644230">
        <ele>545.6</ele>
        <time>2019-08-07T13:09:50Z</time>
      </trkpt>
      <trkpt lat="48.6534560" lon="14.3644620">
        <ele>544.8</ele>
        <time>2019-08-07T13:09:51Z</time>
      </trkpt>
      <trkpt lat="48.6534930" lon="14.3644920">
        <ele>544.2</ele>
        <time>2019-08-07T13:09:52Z</time>
      </trkpt>
      <trkpt lat="48.6535280" lon="14.3645210">
        <ele>543.6</ele>
        <time>2019-08-07T13:09:53Z</time>
      </trkpt>
      <trkpt lat="48.6535570" lon="14.3645500">
        <ele>543.2</ele>
        <time>2019-08-07T13:09:54Z</time>
      </trkpt>
      <trkpt lat="48.6535820" lon="14.3645730">
        <ele>542.6</ele>
        <time>2019-08-07T13:09:55Z</time>
      </trkpt>
      <trkpt lat="48.6536050" lon="14.3645920">
        <ele>542.2</ele>
        <time>2019-08-07T13:09:56Z</time>
      </trkpt>
      <trkpt lat="48.6536240" lon="14.3646030">
        <ele>541.8</ele>
        <time>2019-08-07T13:09:57Z</time>
      </trkpt>
      <trkpt lat="48.6536400" lon="14.3646090">
        <ele>541.4</ele>
        <time>2019-08-07T13:09:58Z</time>
      </trkpt>
      <trkpt lat="48.6536540" lon="14.3646150">
        <ele>541.2</ele>
        <time>2019-08-07T13:09:59Z</time>
      </trkpt>
      <trkpt lat="48.6536680" lon="14.3646250">
        <ele>540.8</ele>
        <time>2019-08-07T13:10:00Z</time>
      </trkpt>
      <trkpt lat="48.6536890" lon="14.3646370">
        <ele>540.6</ele>
        <time>2019-08-07T13:10:01Z</time>
      </trkpt>
      <trkpt lat="48.6537140" lon="14.3646540">
        <ele>540.4</ele>
        <time>2019-08-07T13:10:02Z</time>
      </trkpt>
      <trkpt lat="48.6537390" lon="14.3646770">
        <ele>540.2</ele>
        <time>2019-08-07T13:10:03Z</time>
      </trkpt>
      <trkpt lat="48.6537660" lon="14.3647050">
        <ele>540.0</ele>
        <time>2019-08-07T13:10:04Z</time>
      </trkpt>
      <trkpt lat="48.6537910" lon="14.3647370">
        <ele>540.0</ele>
        <time>2019-08-07T13:10:05Z</time>
      </trkpt>
      <trkpt lat="48.6538160" lon="14.3647730">
        <ele>539.8</ele>
        <time>2019-08-07T13:10:06Z</time>
      </trkpt>
      <trkpt lat="48.6538390" lon="14.3648120">
        <ele>539.8</ele>
        <time>2019-08-07T13:10:07Z</time>
      </trkpt>
      <trkpt lat="48.6538660" lon="14.3648560">
        <ele>539.8</ele>
        <time>2019-08-07T13:10:08Z</time>
      </trkpt>
      <trkpt lat="48.6538950" lon="14.3649050">
        <ele>539.6</ele>
        <time>2019-08-07T13:10:09Z</time>
      </trkpt>
      <trkpt lat="48.6539250" lon="14.3649520">
        <ele>539.6</ele>
        <time>2019-08-07T13:10:10Z</time>
      </trkpt>
      <trkpt lat="48.6539590" lon="14.3649990">
        <ele>539.6</ele>
        <time>2019-08-07T13:10:11Z</time>
      </trkpt>
      <trkpt lat="48.6539940" lon="14.3650440">
        <ele>539.4</ele>
        <time>2019-08-07T13:10:12Z</time>
      </trkpt>
      <trkpt lat="48.6540270" lon="14.3650880">
        <ele>539.4</ele>
        <time>2019-08-07T13:10:13Z</time>
      </trkpt>
      <trkpt lat="48.6540650" lon="14.3651400">
        <ele>539.4</ele>
        <time>2019-08-07T13:10:14Z</time>
      </trkpt>
      <trkpt lat="48.6540990" lon="14.3651940">
        <ele>539.2</ele>
        <time>2019-08-07T13:10:15Z</time>
      </trkpt>
      <trkpt lat="48.6541330" lon="14.3652500">
        <ele>539.2</ele>
        <time>2019-08-07T13:10:16Z</time>
      </trkpt>
      <trkpt lat="48.6541650" lon="14.3653090">
        <ele>539.2</ele>
        <time>2019-08-07T13:10:17Z</time>
      </trkpt>
      <trkpt lat="48.6541990" lon="14.3653670">
        <ele>539.0</ele>
        <time>2019-08-07T13:10:18Z</time>
      </trkpt>
      <trkpt lat="48.6542320" lon="14.3654220">
        <ele>539.0</ele>
        <time>2019-08-07T13:10:19Z</time>
      </trkpt>
      <trkpt lat="48.6542690" lon="14.3654790">
        <ele>539.0</ele>
        <time>2019-08-07T13:10:20Z</time>
      </trkpt>
      <trkpt lat="48.6543060" lon="14.3655360">
        <ele>539.0</ele>
        <time>2019-08-07T13:10:21Z</time>
      </trkpt>
      <trkpt lat="48.6543400" lon="14.3655950">
        <ele>538.8</ele>
        <time>2019-08-07T13:10:22Z</time>
      </trkpt>
      <trkpt lat="48.6543730" lon="14.3656550">
        <ele>538.8</ele>
        <time>2019-08-07T13:10:23Z</time>
      </trkpt>
      <trkpt lat="48.6544050" lon="14.3657180">
        <ele>538.8</ele>
        <time>2019-08-07T13:10:24Z</time>
      </trkpt>
      <trkpt lat="48.6544380" lon="14.3657810">
        <ele>538.8</ele>
        <time>2019-08-07T13:10:25Z</time>
      </trkpt>
      <trkpt lat="48.6544690" lon="14.3658460">
        <ele>538.6</ele>
        <time>2019-08-07T13:10:26Z</time>
      </trkpt>
      <trkpt lat="48.6545000" lon="14.3659070">
        <ele>538.6</ele>
        <time>2019-08-07T13:10:27Z</time>
      </trkpt>
      <trkpt lat="48.6545300" lon="14.3659660">
        <ele>538.6</ele>
        <time>2019-08-07T13:10:28Z</time>
      </trkpt>
      <trkpt lat="48.6545610" lon="14.3660290">
        <ele>538.6</ele>
        <time>2019-08-07T13:10:29Z</time>
      </trkpt>
      <trkpt lat="48.6545890" lon="14.3660930">
        <ele>538.6</ele>
        <time>2019-08-07T13:10:30Z</time>
      </trkpt>
      <trkpt lat="48.6546120" lon="14.3661570">
        <ele>538.6</ele>
        <time>2019-08-07T13:10:31Z</time>
      </trkpt>
      <trkpt lat="48.6546350" lon="14.3662190">
        <ele>538.6</ele>
        <time>2019-08-07T13:10:32Z</time>
      </trkpt>
      <trkpt lat="48.6546560" lon="14.3662810">
        <ele>538.6</ele>
        <time>2019-08-07T13:10:33Z</time>
      </trkpt>
      <trkpt lat="48.6546740" lon="14.3663430">
        <ele>538.6</ele>
        <time>2019-08-07T13:10:34Z</time>
      </trkpt>
      <trkpt lat="48.6546900" lon="14.3664010">
        <ele>538.6</ele>
        <time>2019-08-07T13:10:35Z</time>
      </trkpt>
      <trkpt lat="48.6547030" lon="14.3664660">
        <ele>538.6</ele>
        <time>2019-08-07T13:10:36Z</time>
      </trkpt>
      <trkpt lat="48.6547080" lon="14.3665270">
        <ele>538.6</ele>
        <time>2019-08-07T13:10:37Z</time>
      </trkpt>
      <trkpt lat="48.6547080" lon="14.3665880">
        <ele>538.6</ele>
        <time>2019-08-07T13:10:38Z</time>
      </trkpt>
      <trkpt lat="48.6547060" lon="14.3666460">
        <ele>538.6</ele>
        <time>2019-08-07T13:10:39Z</time>
      </trkpt>
      <trkpt lat="48.6547050" lon="14.3667020">
        <ele>538.6</ele>
        <time>2019-08-07T13:10:40Z</time>
      </trkpt>
      <trkpt lat="48.6547060" lon="14.3667530">
        <ele>538.6</ele>
        <time>2019-08-07T13:10:41Z</time>
      </trkpt>
      <trkpt lat="48.6547110" lon="14.3668020">
        <ele>538.6</ele>
        <time>2019-08-07T13:10:42Z</time>
      </trkpt>
      <trkpt lat="48.6547170" lon="14.3668470">
        <ele>538.6</ele>
        <time>2019-08-07T13:10:43Z</time>
      </trkpt>
      <trkpt lat="48.6547160" lon="14.3668880">
        <ele>538.6</ele>
        <time>2019-08-07T13:10:44Z</time>
      </trkpt>
      <trkpt lat="48.6547090" lon="14.3669270">
        <ele>538.6</ele>
        <time>2019-08-07T13:10:45Z</time>
      </trkpt>
      <trkpt lat="48.6547050" lon="14.3669590">
        <ele>538.6</ele>
        <time>2019-08-07T13:10:46Z</time>
      </trkpt>
      <trkpt lat="48.6547030" lon="14.3669830">
        <ele>538.6</ele>
        <time>2019-08-07T13:10:47Z</time>
      </trkpt>
      <trkpt lat="48.6547040" lon="14.3670020">
        <ele>538.6</ele>
        <time>2019-08-07T13:10:48Z</time>
      </trkpt>
      <trkpt lat="48.6547060" lon="14.3670160">
        <ele>538.6</ele>
        <time>2019-08-07T13:10:49Z</time>
      </trkpt>
      <trkpt lat="48.6547140" lon="14.3670210">
        <ele>538.8</ele>
        <time>2019-08-07T13:10:50Z</time>
      </trkpt>
      <trkpt lat="48.6547250" lon="14.3670160">
        <ele>538.8</ele>
        <time>2019-08-07T13:10:51Z</time>
      </trkpt>
      <trkpt lat="48.6547340" lon="14.3670000">
        <ele>538.8</ele>
        <time>2019-08-07T13:10:52Z</time>
      </trkpt>
      <trkpt lat="48.6547400" lon="14.3669780">
        <ele>538.8</ele>
        <time>2019-08-07T13:10:53Z</time>
      </trkpt>
      <trkpt lat="48.6547400" lon="14.3669390">
        <ele>538.8</ele>
        <time>2019-08-07T13:10:54Z</time>
      </trkpt>
      <trkpt lat="48.6547380" lon="14.3669240">
        <ele>538.8</ele>
        <time>2019-08-07T13:10:55Z</time>
      </trkpt>
      <trkpt lat="48.6547370" lon="14.3669080">
        <ele>538.8</ele>
        <time>2019-08-07T13:10:56Z</time>
      </trkpt>
      <trkpt lat="48.6547350" lon="14.3668930">
        <ele>538.6</ele>
        <time>2019-08-07T13:10:57Z</time>
      </trkpt>
      <trkpt lat="48.6547350" lon="14.3668730">
        <ele>538.6</ele>
        <time>2019-08-07T13:10:58Z</time>
      </trkpt>
      <trkpt lat="48.6547370" lon="14.3668500">
        <ele>538.6</ele>
        <time>2019-08-07T13:10:59Z</time>
      </trkpt>
      <trkpt lat="48.6547410" lon="14.3668250">
        <ele>538.6</ele>
        <time>2019-08-07T13:11:00Z</time>
      </trkpt>
      <trkpt lat="48.6547480" lon="14.3667990">
        <ele>538.6</ele>
        <time>2019-08-07T13:11:01Z</time>
      </trkpt>
      <trkpt lat="48.6547570" lon="14.3667710">
        <ele>538.6</ele>
        <time>2019-08-07T13:11:02Z</time>
      </trkpt>
      <trkpt lat="48.6547690" lon="14.3667430">
        <ele>538.6</ele>
        <time>2019-08-07T13:11:03Z</time>
      </trkpt>
      <trkpt lat="48.6547870" lon="14.3667190">
        <ele>538.6</ele>
        <time>2019-08-07T13:11:04Z</time>
      </trkpt>
      <trkpt lat="48.6548110" lon="14.3667030">
        <ele>538.6</ele>
        <time>2019-08-07T13:11:05Z</time>
      </trkpt>
      <trkpt lat="48.6548370" lon="14.3667040">
        <ele>538.6</ele>
        <time>2019-08-07T13:11:06Z</time>
      </trkpt>
      <trkpt lat="48.6548580" lon="14.3667230">
        <ele>538.6</ele>
        <time>2019-08-07T13:11:07Z</time>
      </trkpt>
      <trkpt lat="48.6548780" lon="14.3667530">
        <ele>538.6</ele>
        <time>2019-08-07T13:11:08Z</time>
      </trkpt>
      <trkpt lat="48.6548980" lon="14.3667850">
        <ele>538.6</ele>
        <time>2019-08-07T13:11:09Z</time>
      </trkpt>
      <trkpt lat="48.6549180" lon="14.3668160">
        <ele>538.8</ele>
        <time>2019-08-07T13:11:10Z</time>
      </trkpt>
      <trkpt lat="48.6549400" lon="14.3668460">
        <ele>538.8</ele>
        <time>2019-08-07T13:11:11Z</time>
      </trkpt>
      <trkpt lat="48.6549640" lon="14.3668790">
        <ele>538.8</ele>
        <time>2019-08-07T13:11:12Z</time>
      </trkpt>
      <trkpt lat="48.6549890" lon="14.3669070">
        <ele>538.8</ele>
        <time>2019-08-07T13:11:13Z</time>
      </trkpt>
      <trkpt lat="48.6550140" lon="14.3669300">
        <ele>538.8</ele>
        <time>2019-08-07T13:11:14Z</time>
      </trkpt>
      <trkpt lat="48.6550400" lon="14.3669530">
        <ele>538.8</ele>
        <time>2019-08-07T13:11:15Z</time>
      </trkpt>
      <trkpt lat="48.6550660" lon="14.3669770">
        <ele>538.8</ele>
        <time>2019-08-07T13:11:16Z</time>
      </trkpt>
      <trkpt lat="48.6550910" lon="14.3669980">
        <ele>538.8</ele>
        <time>2019-08-07T13:11:17Z</time>
      </trkpt>
      <trkpt lat="48.6551170" lon="14.3670140">
        <ele>539.0</ele>
        <time>2019-08-07T13:11:18Z</time>
      </trkpt>
      <trkpt lat="48.6551440" lon="14.3670330">
        <ele>539.0</ele>
        <time>2019-08-07T13:11:19Z</time>
      </trkpt>
      <trkpt lat="48.6551710" lon="14.3670500">
        <ele>539.0</ele>
        <time>2019-08-07T13:11:20Z</time>
      </trkpt>
      <trkpt lat="48.6551990" lon="14.3670670">
        <ele>539.0</ele>
        <time>2019-08-07T13:11:21Z</time>
      </trkpt>
      <trkpt lat="48.6552260" lon="14.3670820">
        <ele>539.0</ele>
        <time>2019-08-07T13:11:22Z</time>
      </trkpt>
      <trkpt lat="48.6552520" lon="14.3670950">
        <ele>539.0</ele>
        <time>2019-08-07T13:11:23Z</time>
      </trkpt>
      <trkpt lat="48.6552790" lon="14.3671090">
        <ele>539.0</ele>
        <time>2019-08-07T13:11:24Z</time>
      </trkpt>
      <trkpt lat="48.6553020" lon="14.3671220">
        <ele>539.0</ele>
        <time>2019-08-07T13:11:25Z</time>
      </trkpt>
      <trkpt lat="48.6553240" lon="14.3671360">
        <ele>539.0</ele>
        <time>2019-08-07T13:11:26Z</time>
      </trkpt>
      <trkpt lat="48.6553450" lon="14.3671510">
        <ele>539.0</ele>
        <time>2019-08-07T13:11:27Z</time>
      </trkpt>
      <trkpt lat="48.6553650" lon="14.3671660">
        <ele>539.0</ele>
        <time>2019-08-07T13:11:28Z</time>
      </trkpt>
      <trkpt lat="48.6553850" lon="14.3671810">
        <ele>539.0</ele>
        <time>2019-08-07T13:11:29Z</time>
      </trkpt>
      <trkpt lat="48.6554090" lon="14.3671940">
        <ele>539.0</ele>
        <time>2019-08-07T13:11:30Z</time>
      </trkpt>
      <trkpt lat="48.6554340" lon="14.3672060">
        <ele>539.0</ele>
        <time>2019-08-07T13:11:31Z</time>
      </trkpt>
      <trkpt lat="48.6554610" lon="14.3672150">
        <ele>539.0</ele>
        <time>2019-08-07T13:11:32Z</time>
      </trkpt>
      <trkpt lat="48.6554910" lon="14.3672240">
        <ele>539.0</ele>
        <time>2019-08-07T13:11:33Z</time>
      </trkpt>
      <trkpt lat="48.6555210" lon="14.3672360">
        <ele>539.0</ele>
        <time>2019-08-07T13:11:34Z</time>
      </trkpt>
      <trkpt lat="48.6555480" lon="14.3672510">
        <ele>539.0</ele>
        <time>2019-08-07T13:11:35Z</time>
      </trkpt>
      <trkpt lat="48.6555740" lon="14.3672660">
        <ele>539.2</ele>
        <time>2019-08-07T13:11:36Z</time>
      </trkpt>
      <trkpt lat="48.6555990" lon="14.3672800">
        <ele>539.2</ele>
        <time>2019-08-07T13:11:37Z</time>
      </trkpt>
      <trkpt lat="48.6556240" lon="14.3672920">
        <ele>539.2</ele>
        <time>2019-08-07T13:11:38Z</time>
      </trkpt>
      <trkpt lat="48.6556490" lon="14.3673070">
        <ele>539.2</ele>
        <time>2019-08-07T13:11:39Z</time>
      </trkpt>
      <trkpt lat="48.6556740" lon="14.3673200">
        <ele>539.2</ele>
        <time>2019-08-07T13:11:40Z</time>
      </trkpt>
      <trkpt lat="48.6556990" lon="14.3673320">
        <ele>539.2</ele>
        <time>2019-08-07T13:11:41Z</time>
      </trkpt>
      <trkpt lat="48.6557220" lon="14.3673440">
        <ele>539.2</ele>
        <time>2019-08-07T13:11:42Z</time>
      </trkpt>
      <trkpt lat="48.6557450" lon="14.3673570">
        <ele>539.2</ele>
        <time>2019-08-07T13:11:43Z</time>
      </trkpt>
      <trkpt lat="48.6557690" lon="14.3673690">
        <ele>539.0</ele>
        <time>2019-08-07T13:11:44Z</time>
      </trkpt>
      <trkpt lat="48.6557920" lon="14.3673830">
        <ele>539.0</ele>
        <time>2019-08-07T13:11:45Z</time>
      </trkpt>
      <trkpt lat="48.6558140" lon="14.3673990">
        <ele>539.0</ele>
        <time>2019-08-07T13:11:46Z</time>
      </trkpt>
      <trkpt lat="48.6558370" lon="14.3674150">
        <ele>539.0</ele>
        <time>2019-08-07T13:11:47Z</time>
      </trkpt>
      <trkpt lat="48.6558600" lon="14.3674340">
        <ele>539.0</ele>
        <time>2019-08-07T13:11:48Z</time>
      </trkpt>
      <trkpt lat="48.6558790" lon="14.3674580">
        <ele>539.0</ele>
        <time>2019-08-07T13:11:49Z</time>
      </trkpt>
      <trkpt lat="48.6558960" lon="14.3674840">
        <ele>538.8</ele>
        <time>2019-08-07T13:11:50Z</time>
      </trkpt>
      <trkpt lat="48.6559170" lon="14.3675120">
        <ele>538.8</ele>
        <time>2019-08-07T13:11:51Z</time>
      </trkpt>
      <trkpt lat="48.6559430" lon="14.3675290">
        <ele>538.8</ele>
        <time>2019-08-07T13:11:52Z</time>
      </trkpt>
      <trkpt lat="48.6559740" lon="14.3675280">
        <ele>538.6</ele>
        <time>2019-08-07T13:11:53Z</time>
      </trkpt>
      <trkpt lat="48.6560000" lon="14.3675130">
        <ele>538.6</ele>
        <time>2019-08-07T13:11:54Z</time>
      </trkpt>
      <trkpt lat="48.6560190" lon="14.3674900">
        <ele>538.6</ele>
        <time>2019-08-07T13:11:55Z</time>
      </trkpt>
      <trkpt lat="48.6560320" lon="14.3674680">
        <ele>538.6</ele>
        <time>2019-08-07T13:11:56Z</time>
      </trkpt>
      <trkpt lat="48.6560420" lon="14.3674480">
        <ele>538.8</ele>
        <time>2019-08-07T13:11:57Z</time>
      </trkpt>
      <trkpt lat="48.6560510" lon="14.3674260">
        <ele>538.8</ele>
        <time>2019-08-07T13:11:58Z</time>
      </trkpt>
      <trkpt lat="48.6560600" lon="14.3674010">
        <ele>539.0</ele>
        <time>2019-08-07T13:11:59Z</time>
      </trkpt>
      <trkpt lat="48.6560680" lon="14.3673780">
        <ele>539.2</ele>
        <time>2019-08-07T13:12:00Z</time>
      </trkpt>
      <trkpt lat="48.6560760" lon="14.3673570">
        <ele>539.2</ele>
        <time>2019-08-07T13:12:01Z</time>
      </trkpt>
      <trkpt lat="48.6560840" lon="14.3673350">
        <ele>539.4</ele>
        <time>2019-08-07T13:12:02Z</time>
      </trkpt>
      <trkpt lat="48.6560910" lon="14.3673160">
        <ele>539.6</ele>
        <time>2019-08-07T13:12:03Z</time>
      </trkpt>
      <trkpt lat="48.6560990" lon="14.3672980">
        <ele>539.8</ele>
        <time>2019-08-07T13:12:04Z</time>
      </trkpt>
      <trkpt lat="48.6561080" lon="14.3672820">
        <ele>540.0</ele>
        <time>2019-08-07T13:12:05Z</time>
      </trkpt>
      <trkpt lat="48.6561150" lon="14.3672710">
        <ele>540.0</ele>
        <time>2019-08-07T13:12:06Z</time>
      </trkpt>
      <trkpt lat="48.6561240" lon="14.3672660">
        <ele>540.2</ele>
        <time>2019-08-07T13:12:07Z</time>
      </trkpt>
      <trkpt lat="48.6561310" lon="14.3672590">
        <ele>540.2</ele>
        <time>2019-08-07T13:12:08Z</time>
      </trkpt>
      <trkpt lat="48.6561390" lon="14.3672490">
        <ele>540.2</ele>
        <time>2019-08-07T13:12:09Z</time>
      </trkpt>
      <trkpt lat="48.6561430" lon="14.3672380">
        <ele>540.4</ele>
        <time>2019-08-07T13:12:10Z</time>
      </trkpt>
      <trkpt lat="48.6561430" lon="14.3672380">
        <ele>540.4</ele>
        <time>2019-08-07T13:12:11Z</time>
      </trkpt>
      <trkpt lat="48.6561430" lon="14.3672380">
        <ele>540.4</ele>
        <time>2019-08-07T13:12:12Z</time>
      </trkpt>
      <trkpt lat="48.6561250" lon="14.3671930">
        <ele>540.4</ele>
        <time>2019-08-07T13:12:25Z</time>
      </trkpt>
      <trkpt lat="48.6561160" lon="14.3672040">
        <ele>540.4</ele>
        <time>2019-08-07T13:12:26Z</time>
      </trkpt>
      <trkpt lat="48.6561130" lon="14.3672210">
        <ele>540.4</ele>
        <time>2019-08-07T13:12:27Z</time>
      </trkpt>
      <trkpt lat="48.6561110" lon="14.3672400">
        <ele>540.2</ele>
        <time>2019-08-07T13:12:28Z</time>
      </trkpt>
      <trkpt lat="48.6561090" lon="14.3672580">
        <ele>540.2</ele>
        <time>2019-08-07T13:12:29Z</time>
      </trkpt>
      <trkpt lat="48.6561060" lon="14.3672770">
        <ele>540.2</ele>
        <time>2019-08-07T13:12:30Z</time>
      </trkpt>
      <trkpt lat="48.6561030" lon="14.3673050">
        <ele>540.2</ele>
        <time>2019-08-07T13:12:31Z</time>
      </trkpt>
      <trkpt lat="48.6560970" lon="14.3673410">
        <ele>540.0</ele>
        <time>2019-08-07T13:12:32Z</time>
      </trkpt>
      <trkpt lat="48.6560850" lon="14.3673800">
        <ele>539.8</ele>
        <time>2019-08-07T13:12:33Z</time>
      </trkpt>
      <trkpt lat="48.6560640" lon="14.3674160">
        <ele>539.8</ele>
        <time>2019-08-07T13:12:34Z</time>
      </trkpt>
      <trkpt lat="48.6560350" lon="14.3674410">
        <ele>539.6</ele>
        <time>2019-08-07T13:12:35Z</time>
      </trkpt>
      <trkpt lat="48.6559970" lon="14.3674460">
        <ele>539.4</ele>
        <time>2019-08-07T13:12:36Z</time>
      </trkpt>
      <trkpt lat="48.6559540" lon="14.3674320">
        <ele>539.4</ele>
        <time>2019-08-07T13:12:37Z</time>
      </trkpt>
      <trkpt lat="48.6559120" lon="14.3674140">
        <ele>539.2</ele>
        <time>2019-08-07T13:12:38Z</time>
      </trkpt>
      <trkpt lat="48.6558730" lon="14.3674000">
        <ele>539.2</ele>
        <time>2019-08-07T13:12:39Z</time>
      </trkpt>
      <trkpt lat="48.6558350" lon="14.3673860">
        <ele>539.0</ele>
        <time>2019-08-07T13:12:40Z</time>
      </trkpt>
      <trkpt lat="48.6558000" lon="14.3673710">
        <ele>539.0</ele>
        <time>2019-08-07T13:12:41Z</time>
      </trkpt>
      <trkpt lat="48.6557680" lon="14.3673550">
        <ele>539.0</ele>
        <time>2019-08-07T13:12:42Z</time>
      </trkpt>
      <trkpt lat="48.6557370" lon="14.3673380">
        <ele>539.2</ele>
        <time>2019-08-07T13:12:43Z</time>
      </trkpt>
      <trkpt lat="48.6557070" lon="14.3673230">
        <ele>539.2</ele>
        <time>2019-08-07T13:12:44Z</time>
      </trkpt>
      <trkpt lat="48.6556810" lon="14.3673110">
        <ele>539.2</ele>
        <time>2019-08-07T13:12:45Z</time>
      </trkpt>
      <trkpt lat="48.6556540" lon="14.3672980">
        <ele>539.4</ele>
        <time>2019-08-07T13:12:46Z</time>
      </trkpt>
      <trkpt lat="48.6556270" lon="14.3672840">
        <ele>539.4</ele>
        <time>2019-08-07T13:12:47Z</time>
      </trkpt>
      <trkpt lat="48.6556030" lon="14.3672720">
        <ele>539.4</ele>
        <time>2019-08-07T13:12:48Z</time>
      </trkpt>
      <trkpt lat="48.6555790" lon="14.3672600">
        <ele>539.2</ele>
        <time>2019-08-07T13:12:49Z</time>
      </trkpt>
      <trkpt lat="48.6555540" lon="14.3672480">
        <ele>539.2</ele>
        <time>2019-08-07T13:12:50Z</time>
      </trkpt>
      <trkpt lat="48.6555300" lon="14.3672350">
        <ele>539.0</ele>
        <time>2019-08-07T13:12:51Z</time>
      </trkpt>
      <trkpt lat="48.6555040" lon="14.3672190">
        <ele>539.0</ele>
        <time>2019-08-07T13:12:52Z</time>
      </trkpt>
      <trkpt lat="48.6554780" lon="14.3672040">
        <ele>539.0</ele>
        <time>2019-08-07T13:12:53Z</time>
      </trkpt>
      <trkpt lat="48.6554490" lon="14.3671880">
        <ele>538.8</ele>
        <time>2019-08-07T13:12:54Z</time>
      </trkpt>
      <trkpt lat="48.6554190" lon="14.3671730">
        <ele>538.8</ele>
        <time>2019-08-07T13:12:55Z</time>
      </trkpt>
      <trkpt lat="48.6553890" lon="14.3671560">
        <ele>538.8</ele>
        <time>2019-08-07T13:12:56Z</time>
      </trkpt>
      <trkpt lat="48.6553610" lon="14.3671390">
        <ele>538.8</ele>
        <time>2019-08-07T13:12:57Z</time>
      </trkpt>
      <trkpt lat="48.6553290" lon="14.3671200">
        <ele>538.8</ele>
        <time>2019-08-07T13:12:58Z</time>
      </trkpt>
      <trkpt lat="48.6552990" lon="14.3671000">
        <ele>538.8</ele>
        <time>2019-08-07T13:12:59Z</time>
      </trkpt>
      <trkpt lat="48.6552690" lon="14.3670800">
        <ele>538.8</ele>
        <time>2019-08-07T13:13:00Z</time>
      </trkpt>
      <trkpt lat="48.6552380" lon="14.3670600">
        <ele>538.6</ele>
        <time>2019-08-07T13:13:01Z</time>
      </trkpt>
      <trkpt lat="48.6552090" lon="14.3670420">
        <ele>538.6</ele>
        <time>2019-08-07T13:13:02Z</time>
      </trkpt>
      <trkpt lat="48.6551810" lon="14.3670220">
        <ele>538.6</ele>
        <time>2019-08-07T13:13:03Z</time>
      </trkpt>
      <trkpt lat="48.6551540" lon="14.3669980">
        <ele>538.6</ele>
        <time>2019-08-07T13:13:04Z</time>
      </trkpt>
      <trkpt lat="48.6551290" lon="14.3669730">
        <ele>538.6</ele>
        <time>2019-08-07T13:13:05Z</time>
      </trkpt>
      <trkpt lat="48.6551040" lon="14.3669500">
        <ele>538.6</ele>
        <time>2019-08-07T13:13:06Z</time>
      </trkpt>
      <trkpt lat="48.6550790" lon="14.3669300">
        <ele>538.4</ele>
        <time>2019-08-07T13:13:07Z</time>
      </trkpt>
      <trkpt lat="48.6550550" lon="14.3669080">
        <ele>538.4</ele>
        <time>2019-08-07T13:13:08Z</time>
      </trkpt>
      <trkpt lat="48.6550300" lon="14.3668840">
        <ele>538.4</ele>
        <time>2019-08-07T13:13:09Z</time>
      </trkpt>
      <trkpt lat="48.6550080" lon="14.3668590">
        <ele>538.2</ele>
        <time>2019-08-07T13:13:10Z</time>
      </trkpt>
      <trkpt lat="48.6549850" lon="14.3668310">
        <ele>538.2</ele>
        <time>2019-08-07T13:13:11Z</time>
      </trkpt>
      <trkpt lat="48.6549620" lon="14.3668020">
        <ele>538.2</ele>
        <time>2019-08-07T13:13:12Z</time>
      </trkpt>
      <trkpt lat="48.6549400" lon="14.3667720">
        <ele>538.2</ele>
        <time>2019-08-07T13:13:13Z</time>
      </trkpt>
      <trkpt lat="48.6549190" lon="14.3667410">
        <ele>538.0</ele>
        <time>2019-08-07T13:13:14Z</time>
      </trkpt>
      <trkpt lat="48.6548990" lon="14.3667130">
        <ele>538.0</ele>
        <time>2019-08-07T13:13:15Z</time>
      </trkpt>
      <trkpt lat="48.6548780" lon="14.3666890">
        <ele>538.0</ele>
        <time>2019-08-07T13:13:16Z</time>
      </trkpt>
      <trkpt lat="48.6548560" lon="14.3666720">
        <ele>538.0</ele>
        <time>2019-08-07T13:13:17Z</time>
      </trkpt>
      <trkpt lat="48.6548330" lon="14.3666650">
        <ele>537.8</ele>
        <time>2019-08-07T13:13:18Z</time>
      </trkpt>
      <trkpt lat="48.6548090" lon="14.3666760">
        <ele>537.8</ele>
        <time>2019-08-07T13:13:19Z</time>
      </trkpt>
      <trkpt lat="48.6547890" lon="14.3667020">
        <ele>537.8</ele>
        <time>2019-08-07T13:13:20Z</time>
      </trkpt>
      <trkpt lat="48.6547710" lon="14.3667370">
        <ele>537.8</ele>
        <time>2019-08-07T13:13:21Z</time>
      </trkpt>
      <trkpt lat="48.6547580" lon="14.3667740">
        <ele>537.8</ele>
        <time>2019-08-07T13:13:22Z</time>
      </trkpt>
      <trkpt lat="48.6547450" lon="14.3668130">
        <ele>537.8</ele>
        <time>2019-08-07T13:13:23Z</time>
      </trkpt>
      <trkpt lat="48.6547330" lon="14.3668500">
        <ele>537.8</ele>
        <time>2019-08-07T13:13:24Z</time>
      </trkpt>
      <trkpt lat="48.6547190" lon="14.3668870">
        <ele>537.8</ele>
        <time>2019-08-07T13:13:25Z</time>
      </trkpt>
      <trkpt lat="48.6547040" lon="14.3669180">
        <ele>537.8</ele>
        <time>2019-08-07T13:13:26Z</time>
      </trkpt>
      <trkpt lat="48.6546900" lon="14.3669460">
        <ele>537.8</ele>
        <time>2019-08-07T13:13:27Z</time>
      </trkpt>
      <trkpt lat="48.6546780" lon="14.3669740">
        <ele>537.8</ele>
        <time>2019-08-07T13:13:28Z</time>
      </trkpt>
      <trkpt lat="48.6546690" lon="14.3670010">
        <ele>537.8</ele>
        <time>2019-08-07T13:13:29Z</time>
      </trkpt>
      <trkpt lat="48.6546660" lon="14.3670270">
        <ele>537.8</ele>
        <time>2019-08-07T13:13:30Z</time>
      </trkpt>
      <trkpt lat="48.6546650" lon="14.3670490">
        <ele>537.8</ele>
        <time>2019-08-07T13:13:31Z</time>
      </trkpt>
      <trkpt lat="48.6546670" lon="14.3670670">
        <ele>537.8</ele>
        <time>2019-08-07T13:13:32Z</time>
      </trkpt>
      <trkpt lat="48.6546700" lon="14.3670770">
        <ele>537.8</ele>
        <time>2019-08-07T13:13:33Z</time>
      </trkpt>
      <trkpt lat="48.6546700" lon="14.3670780">
        <ele>537.8</ele>
        <time>2019-08-07T13:13:34Z</time>
      </trkpt>
      <trkpt lat="48.6546720" lon="14.3670780">
        <ele>537.8</ele>
        <time>2019-08-07T13:13:35Z</time>
      </trkpt>
      <trkpt lat="48.6546720" lon="14.3670780">
        <ele>537.8</ele>
        <time>2019-08-07T13:13:36Z</time>
      </trkpt>
      <trkpt lat="48.6547360" lon="14.3670170">
        <ele>537.8</ele>
        <time>2019-08-07T13:45:09Z</time>
      </trkpt>
      <trkpt lat="48.6547430" lon="14.3669960">
        <ele>537.8</ele>
        <time>2019-08-07T13:45:10Z</time>
      </trkpt>
      <trkpt lat="48.6547540" lon="14.3669690">
        <ele>537.8</ele>
        <time>2019-08-07T13:45:11Z</time>
      </trkpt>
      <trkpt lat="48.6547640" lon="14.3669360">
        <ele>537.8</ele>
        <time>2019-08-07T13:45:12Z</time>
      </trkpt>
      <trkpt lat="48.6547750" lon="14.3668990">
        <ele>537.8</ele>
        <time>2019-08-07T13:45:13Z</time>
      </trkpt>
      <trkpt lat="48.6547850" lon="14.3668590">
        <ele>537.8</ele>
        <time>2019-08-07T13:45:14Z</time>
      </trkpt>
      <trkpt lat="48.6547980" lon="14.3668160">
        <ele>537.8</ele>
        <time>2019-08-07T13:45:15Z</time>
      </trkpt>
      <trkpt lat="48.6548200" lon="14.3667820">
        <ele>538.0</ele>
        <time>2019-08-07T13:45:16Z</time>
      </trkpt>
      <trkpt lat="48.6548530" lon="14.3667710">
        <ele>537.8</ele>
        <time>2019-08-07T13:45:17Z</time>
      </trkpt>
      <trkpt lat="48.6548880" lon="14.3667880">
        <ele>537.8</ele>
        <time>2019-08-07T13:45:18Z</time>
      </trkpt>
      <trkpt lat="48.6549190" lon="14.3668220">
        <ele>537.8</ele>
        <time>2019-08-07T13:45:19Z</time>
      </trkpt>
      <trkpt lat="48.6549480" lon="14.3668590">
        <ele>538.0</ele>
        <time>2019-08-07T13:45:20Z</time>
      </trkpt>
      <trkpt lat="48.6549780" lon="14.3668980">
        <ele>538.0</ele>
        <time>2019-08-07T13:45:21Z</time>
      </trkpt>
      <trkpt lat="48.6550080" lon="14.3669350">
        <ele>538.0</ele>
        <time>2019-08-07T13:45:22Z</time>
      </trkpt>
      <trkpt lat="48.6550390" lon="14.3669710">
        <ele>538.0</ele>
        <time>2019-08-07T13:45:23Z</time>
      </trkpt>
      <trkpt lat="48.6550720" lon="14.3670060">
        <ele>538.0</ele>
        <time>2019-08-07T13:45:24Z</time>
      </trkpt>
      <trkpt lat="48.6551060" lon="14.3670410">
        <ele>538.0</ele>
        <time>2019-08-07T13:45:25Z</time>
      </trkpt>
      <trkpt lat="48.6551410" lon="14.3670740">
        <ele>538.0</ele>
        <time>2019-08-07T13:45:26Z</time>
      </trkpt>
      <trkpt lat="48.6551770" lon="14.3671030">
        <ele>538.2</ele>
        <time>2019-08-07T13:45:27Z</time>
      </trkpt>
      <trkpt lat="48.6552130" lon="14.3671280">
        <ele>538.2</ele>
        <time>2019-08-07T13:45:28Z</time>
      </trkpt>
      <trkpt lat="48.6552530" lon="14.3671510">
        <ele>538.2</ele>
        <time>2019-08-07T13:45:29Z</time>
      </trkpt>
      <trkpt lat="48.6552920" lon="14.3671710">
        <ele>538.2</ele>
        <time>2019-08-07T13:45:30Z</time>
      </trkpt>
      <trkpt lat="48.6553310" lon="14.3671870">
        <ele>538.2</ele>
        <time>2019-08-07T13:45:31Z</time>
      </trkpt>
      <trkpt lat="48.6553720" lon="14.3672030">
        <ele>538.2</ele>
        <time>2019-08-07T13:45:32Z</time>
      </trkpt>
      <trkpt lat="48.6554120" lon="14.3672210">
        <ele>538.4</ele>
        <time>2019-08-07T13:45:33Z</time>
      </trkpt>
      <trkpt lat="48.6554510" lon="14.3672380">
        <ele>538.4</ele>
        <time>2019-08-07T13:45:34Z</time>
      </trkpt>
      <trkpt lat="48.6554900" lon="14.3672520">
        <ele>538.4</ele>
        <time>2019-08-07T13:45:35Z</time>
      </trkpt>
      <trkpt lat="48.6555270" lon="14.3672680">
        <ele>538.4</ele>
        <time>2019-08-07T13:45:36Z</time>
      </trkpt>
      <trkpt lat="48.6555640" lon="14.3672850">
        <ele>538.4</ele>
        <time>2019-08-07T13:45:37Z</time>
      </trkpt>
      <trkpt lat="48.6556010" lon="14.3673010">
        <ele>538.4</ele>
        <time>2019-08-07T13:45:38Z</time>
      </trkpt>
      <trkpt lat="48.6556370" lon="14.3673190">
        <ele>538.4</ele>
        <time>2019-08-07T13:45:39Z</time>
      </trkpt>
      <trkpt lat="48.6556740" lon="14.3673370">
        <ele>538.4</ele>
        <time>2019-08-07T13:45:40Z</time>
      </trkpt>
      <trkpt lat="48.6557110" lon="14.3673570">
        <ele>538.4</ele>
        <time>2019-08-07T13:45:41Z</time>
      </trkpt>
      <trkpt lat="48.6557470" lon="14.3673750">
        <ele>538.4</ele>
        <time>2019-08-07T13:45:42Z</time>
      </trkpt>
      <trkpt lat="48.6557840" lon="14.3673910">
        <ele>538.4</ele>
        <time>2019-08-07T13:45:43Z</time>
      </trkpt>
      <trkpt lat="48.6558200" lon="14.3674090">
        <ele>538.4</ele>
        <time>2019-08-07T13:45:44Z</time>
      </trkpt>
      <trkpt lat="48.6558560" lon="14.3674310">
        <ele>538.4</ele>
        <time>2019-08-07T13:45:45Z</time>
      </trkpt>
      <trkpt lat="48.6558860" lon="14.3674660">
        <ele>538.4</ele>
        <time>2019-08-07T13:45:46Z</time>
      </trkpt>
      <trkpt lat="48.6559070" lon="14.3675180">
        <ele>538.4</ele>
        <time>2019-08-07T13:45:47Z</time>
      </trkpt>
      <trkpt lat="48.6559160" lon="14.3675840">
        <ele>538.2</ele>
        <time>2019-08-07T13:45:48Z</time>
      </trkpt>
      <trkpt lat="48.6559130" lon="14.3676570">
        <ele>538.2</ele>
        <time>2019-08-07T13:45:49Z</time>
      </trkpt>
      <trkpt lat="48.6559000" lon="14.3677350">
        <ele>538.0</ele>
        <time>2019-08-07T13:45:50Z</time>
      </trkpt>
      <trkpt lat="48.6558820" lon="14.3678130">
        <ele>538.0</ele>
        <time>2019-08-07T13:45:51Z</time>
      </trkpt>
      <trkpt lat="48.6558590" lon="14.3678920">
        <ele>537.8</ele>
        <time>2019-08-07T13:45:52Z</time>
      </trkpt>
      <trkpt lat="48.6558330" lon="14.3679660">
        <ele>537.6</ele>
        <time>2019-08-07T13:45:53Z</time>
      </trkpt>
      <trkpt lat="48.6558040" lon="14.3680370">
        <ele>537.6</ele>
        <time>2019-08-07T13:45:54Z</time>
      </trkpt>
      <trkpt lat="48.6557710" lon="14.3681070">
        <ele>537.6</ele>
        <time>2019-08-07T13:45:55Z</time>
      </trkpt>
      <trkpt lat="48.6557370" lon="14.3681730">
        <ele>537.6</ele>
        <time>2019-08-07T13:45:56Z</time>
      </trkpt>
      <trkpt lat="48.6557040" lon="14.3682350">
        <ele>537.6</ele>
        <time>2019-08-07T13:45:57Z</time>
      </trkpt>
      <trkpt lat="48.6556710" lon="14.3682950">
        <ele>537.6</ele>
        <time>2019-08-07T13:45:58Z</time>
      </trkpt>
      <trkpt lat="48.6556370" lon="14.3683530">
        <ele>537.6</ele>
        <time>2019-08-07T13:45:59Z</time>
      </trkpt>
      <trkpt lat="48.6556010" lon="14.3684110">
        <ele>537.6</ele>
        <time>2019-08-07T13:46:00Z</time>
      </trkpt>
      <trkpt lat="48.6555650" lon="14.3684660">
        <ele>537.6</ele>
        <time>2019-08-07T13:46:01Z</time>
      </trkpt>
      <trkpt lat="48.6555290" lon="14.3685180">
        <ele>537.8</ele>
        <time>2019-08-07T13:46:02Z</time>
      </trkpt>
      <trkpt lat="48.6554890" lon="14.3685690">
        <ele>537.8</ele>
        <time>2019-08-07T13:46:03Z</time>
      </trkpt>
      <trkpt lat="48.6554530" lon="14.3686170">
        <ele>537.8</ele>
        <time>2019-08-07T13:46:04Z</time>
      </trkpt>
      <trkpt lat="48.6554160" lon="14.3686620">
        <ele>537.6</ele>
        <time>2019-08-07T13:46:05Z</time>
      </trkpt>
      <trkpt lat="48.6553750" lon="14.3687070">
        <ele>537.6</ele>
        <time>2019-08-07T13:46:06Z</time>
      </trkpt>
      <trkpt lat="48.6553350" lon="14.3687500">
        <ele>537.4</ele>
        <time>2019-08-07T13:46:07Z</time>
      </trkpt>
      <trkpt lat="48.6552950" lon="14.3687890">
        <ele>537.4</ele>
        <time>2019-08-07T13:46:08Z</time>
      </trkpt>
      <trkpt lat="48.6552550" lon="14.3688270">
        <ele>537.4</ele>
        <time>2019-08-07T13:46:09Z</time>
      </trkpt>
      <trkpt lat="48.6552150" lon="14.3688630">
        <ele>537.4</ele>
        <time>2019-08-07T13:46:10Z</time>
      </trkpt>
      <trkpt lat="48.6551760" lon="14.3688980">
        <ele>537.4</ele>
        <time>2019-08-07T13:46:11Z</time>
      </trkpt>
      <trkpt lat="48.6551370" lon="14.3689330">
        <ele>537.4</ele>
        <time>2019-08-07T13:46:12Z</time>
      </trkpt>
      <trkpt lat="48.6551000" lon="14.3689690">
        <ele>537.6</ele>
        <time>2019-08-07T13:46:13Z</time>
      </trkpt>
      <trkpt lat="48.6550650" lon="14.3690060">
        <ele>537.6</ele>
        <time>2019-08-07T13:46:14Z</time>
      </trkpt>
      <trkpt lat="48.6550290" lon="14.3690410">
        <ele>537.6</ele>
        <time>2019-08-07T13:46:15Z</time>
      </trkpt>
      <trkpt lat="48.6549920" lon="14.3690770">
        <ele>537.4</ele>
        <time>2019-08-07T13:46:16Z</time>
      </trkpt>
      <trkpt lat="48.6549540" lon="14.3691110">
        <ele>537.6</ele>
        <time>2019-08-07T13:46:17Z</time>
      </trkpt>
      <trkpt lat="48.6549160" lon="14.3691470">
        <ele>537.6</ele>
        <time>2019-08-07T13:46:18Z</time>
      </trkpt>
      <trkpt lat="48.6548770" lon="14.3691840">
        <ele>537.4</ele>
        <time>2019-08-07T13:46:19Z</time>
      </trkpt>
      <trkpt lat="48.6548400" lon="14.3692210">
        <ele>537.4</ele>
        <time>2019-08-07T13:46:20Z</time>
      </trkpt>
      <trkpt lat="48.6548040" lon="14.3692600">
        <ele>537.4</ele>
        <time>2019-08-07T13:46:21Z</time>
      </trkpt>
      <trkpt lat="48.6547680" lon="14.3693000">
        <ele>537.4</ele>
        <time>2019-08-07T13:46:22Z</time>
      </trkpt>
      <trkpt lat="48.6547350" lon="14.3693400">
        <ele>537.4</ele>
        <time>2019-08-07T13:46:23Z</time>
      </trkpt>
      <trkpt lat="48.6547040" lon="14.3693790">
        <ele>537.4</ele>
        <time>2019-08-07T13:46:24Z</time>
      </trkpt>
      <trkpt lat="48.6546750" lon="14.3694180">
        <ele>537.4</ele>
        <time>2019-08-07T13:46:25Z</time>
      </trkpt>
      <trkpt lat="48.6546490" lon="14.3694590">
        <ele>537.6</ele>
        <time>2019-08-07T13:46:26Z</time>
      </trkpt>
      <trkpt lat="48.6546270" lon="14.3694990">
        <ele>537.6</ele>
        <time>2019-08-07T13:46:27Z</time>
      </trkpt>
      <trkpt lat="48.6546070" lon="14.3695350">
        <ele>537.8</ele>
        <time>2019-08-07T13:46:28Z</time>
      </trkpt>
      <trkpt lat="48.6545930" lon="14.3695700">
        <ele>537.8</ele>
        <time>2019-08-07T13:46:29Z</time>
      </trkpt>
      <trkpt lat="48.6545840" lon="14.3696040">
        <ele>538.0</ele>
        <time>2019-08-07T13:46:30Z</time>
      </trkpt>
      <trkpt lat="48.6545770" lon="14.3696350">
        <ele>538.0</ele>
        <time>2019-08-07T13:46:31Z</time>
      </trkpt>
      <trkpt lat="48.6545750" lon="14.3696670">
        <ele>538.2</ele>
        <time>2019-08-07T13:46:32Z</time>
      </trkpt>
      <trkpt lat="48.6545760" lon="14.3696970">
        <ele>538.4</ele>
        <time>2019-08-07T13:46:33Z</time>
      </trkpt>
      <trkpt lat="48.6545820" lon="14.3697240">
        <ele>538.6</ele>
        <time>2019-08-07T13:46:34Z</time>
      </trkpt>
      <trkpt lat="48.6545940" lon="14.3697470">
        <ele>538.8</ele>
        <time>2019-08-07T13:46:35Z</time>
      </trkpt>
      <trkpt lat="48.6546100" lon="14.3697620">
        <ele>539.0</ele>
        <time>2019-08-07T13:46:36Z</time>
      </trkpt>
      <trkpt lat="48.6546260" lon="14.3697690">
        <ele>539.0</ele>
        <time>2019-08-07T13:46:37Z</time>
      </trkpt>
      <trkpt lat="48.6546430" lon="14.3697710">
        <ele>539.2</ele>
        <time>2019-08-07T13:46:38Z</time>
      </trkpt>
      <trkpt lat="48.6546600" lon="14.3697680">
        <ele>539.4</ele>
        <time>2019-08-07T13:46:39Z</time>
      </trkpt>
      <trkpt lat="48.6546800" lon="14.3697650">
        <ele>539.6</ele>
        <time>2019-08-07T13:46:40Z</time>
      </trkpt>
      <trkpt lat="48.6547000" lon="14.3697640">
        <ele>539.8</ele>
        <time>2019-08-07T13:46:41Z</time>
      </trkpt>
      <trkpt lat="48.6547190" lon="14.3697600">
        <ele>540.0</ele>
        <time>2019-08-07T13:46:42Z</time>
      </trkpt>
      <trkpt lat="48.6547380" lon="14.3697550">
        <ele>540.2</ele>
        <time>2019-08-07T13:46:43Z</time>
      </trkpt>
      <trkpt lat="48.6547570" lon="14.3697530">
        <ele>540.4</ele>
        <time>2019-08-07T13:46:44Z</time>
      </trkpt>
      <trkpt lat="48.6547760" lon="14.3697530">
        <ele>540.6</ele>
        <time>2019-08-07T13:46:45Z</time>
      </trkpt>
      <trkpt lat="48.6547950" lon="14.3697500">
        <ele>540.8</ele>
        <time>2019-08-07T13:46:46Z</time>
      </trkpt>
      <trkpt lat="48.6548130" lon="14.3697460">
        <ele>541.0</ele>
        <time>2019-08-07T13:46:47Z</time>
      </trkpt>
      <trkpt lat="48.6548300" lon="14.3697390">
        <ele>541.0</ele>
        <time>2019-08-07T13:46:48Z</time>
      </trkpt>
      <trkpt lat="48.6548490" lon="14.3697320">
        <ele>541.2</ele>
        <time>2019-08-07T13:46:49Z</time>
      </trkpt>
      <trkpt lat="48.6548690" lon="14.3697260">
        <ele>541.4</ele>
        <time>2019-08-07T13:46:50Z</time>
      </trkpt>
      <trkpt lat="48.6548890" lon="14.3697200">
        <ele>541.6</ele>
        <time>2019-08-07T13:46:51Z</time>
      </trkpt>
      <trkpt lat="48.6549090" lon="14.3697160">
        <ele>541.8</ele>
        <time>2019-08-07T13:46:52Z</time>
      </trkpt>
      <trkpt lat="48.6549260" lon="14.3697100">
        <ele>542.0</ele>
        <time>2019-08-07T13:46:53Z</time>
      </trkpt>
      <trkpt lat="48.6549420" lon="14.3697010">
        <ele>542.2</ele>
        <time>2019-08-07T13:46:54Z</time>
      </trkpt>
      <trkpt lat="48.6549570" lon="14.3696900">
        <ele>542.2</ele>
        <time>2019-08-07T13:46:55Z</time>
      </trkpt>
      <trkpt lat="48.6549720" lon="14.3696750">
        <ele>542.4</ele>
        <time>2019-08-07T13:46:56Z</time>
      </trkpt>
      <trkpt lat="48.6549850" lon="14.3696620">
        <ele>542.6</ele>
        <time>2019-08-07T13:46:57Z</time>
      </trkpt>
      <trkpt lat="48.6549980" lon="14.3696480">
        <ele>542.8</ele>
        <time>2019-08-07T13:46:58Z</time>
      </trkpt>
      <trkpt lat="48.6550120" lon="14.3696330">
        <ele>543.0</ele>
        <time>2019-08-07T13:46:59Z</time>
      </trkpt>
      <trkpt lat="48.6550270" lon="14.3696180">
        <ele>543.2</ele>
        <time>2019-08-07T13:47:00Z</time>
      </trkpt>
      <trkpt lat="48.6550420" lon="14.3696050">
        <ele>543.4</ele>
        <time>2019-08-07T13:47:01Z</time>
      </trkpt>
      <trkpt lat="48.6550570" lon="14.3695920">
        <ele>543.6</ele>
        <time>2019-08-07T13:47:02Z</time>
      </trkpt>
      <trkpt lat="48.6550730" lon="14.3695820">
        <ele>543.8</ele>
        <time>2019-08-07T13:47:03Z</time>
      </trkpt>
      <trkpt lat="48.6550890" lon="14.3695730">
        <ele>544.0</ele>
        <time>2019-08-07T13:47:04Z</time>
      </trkpt>
      <trkpt lat="48.6551050" lon="14.3695630">
        <ele>544.2</ele>
        <time>2019-08-07T13:47:05Z</time>
      </trkpt>
      <trkpt lat="48.6551210" lon="14.3695540">
        <ele>544.4</ele>
        <time>2019-08-07T13:47:06Z</time>
      </trkpt>
      <trkpt lat="48.6551380" lon="14.3695470">
        <ele>544.6</ele>
        <time>2019-08-07T13:47:07Z</time>
      </trkpt>
      <trkpt lat="48.6551540" lon="14.3695370">
        <ele>544.8</ele>
        <time>2019-08-07T13:47:08Z</time>
      </trkpt>
      <trkpt lat="48.6551700" lon="14.3695260">
        <ele>545.0</ele>
        <time>2019-08-07T13:47:09Z</time>
      </trkpt>
      <trkpt lat="48.6551860" lon="14.3695160">
        <ele>545.2</ele>
        <time>2019-08-07T13:47:10Z</time>
      </trkpt>
      <trkpt lat="48.6552030" lon="14.3695090">
        <ele>545.4</ele>
        <time>2019-08-07T13:47:11Z</time>
      </trkpt>
      <trkpt lat="48.6552190" lon="14.3695020">
        <ele>545.6</ele>
        <time>2019-08-07T13:47:12Z</time>
      </trkpt>
      <trkpt lat="48.6552330" lon="14.3694930">
        <ele>545.8</ele>
        <time>2019-08-07T13:47:13Z</time>
      </trkpt>
      <trkpt lat="48.6552470" lon="14.3694810">
        <ele>545.8</ele>
        <time>2019-08-07T13:47:14Z</time>
      </trkpt>
      <trkpt lat="48.6552620" lon="14.3694710">
        <ele>546.0</ele>
        <time>2019-08-07T13:47:15Z</time>
      </trkpt>
      <trkpt lat="48.6552770" lon="14.3694620">
        <ele>546.2</ele>
        <time>2019-08-07T13:47:16Z</time>
      </trkpt>
      <trkpt lat="48.6552920" lon="14.3694510">
        <ele>546.4</ele>
        <time>2019-08-07T13:47:17Z</time>
      </trkpt>
      <trkpt lat="48.6553080" lon="14.3694400">
        <ele>546.6</ele>
        <time>2019-08-07T13:47:18Z</time>
      </trkpt>
      <trkpt lat="48.6553240" lon="14.3694320">
        <ele>546.8</ele>
        <time>2019-08-07T13:47:19Z</time>
      </trkpt>
      <trkpt lat="48.6553390" lon="14.3694260">
        <ele>547.0</ele>
        <time>2019-08-07T13:47:20Z</time>
      </trkpt>
      <trkpt lat="48.6553540" lon="14.3694190">
        <ele>547.2</ele>
        <time>2019-08-07T13:47:21Z</time>
      </trkpt>
      <trkpt lat="48.6553680" lon="14.3694070">
        <ele>547.4</ele>
        <time>2019-08-07T13:47:22Z</time>
      </trkpt>
      <trkpt lat="48.6553790" lon="14.3693900">
        <ele>547.6</ele>
        <time>2019-08-07T13:47:23Z</time>
      </trkpt>
      <trkpt lat="48.6553910" lon="14.3693760">
        <ele>547.8</ele>
        <time>2019-08-07T13:47:24Z</time>
      </trkpt>
      <trkpt lat="48.6554040" lon="14.3693660">
        <ele>548.0</ele>
        <time>2019-08-07T13:47:25Z</time>
      </trkpt>
      <trkpt lat="48.6554190" lon="14.3693620">
        <ele>548.2</ele>
        <time>2019-08-07T13:47:26Z</time>
      </trkpt>
      <trkpt lat="48.6554340" lon="14.3693590">
        <ele>548.4</ele>
        <time>2019-08-07T13:47:27Z</time>
      </trkpt>
      <trkpt lat="48.6554490" lon="14.3693580">
        <ele>548.6</ele>
        <time>2019-08-07T13:47:28Z</time>
      </trkpt>
      <trkpt lat="48.6554640" lon="14.3693550">
        <ele>548.8</ele>
        <time>2019-08-07T13:47:29Z</time>
      </trkpt>
      <trkpt lat="48.6554780" lon="14.3693500">
        <ele>549.0</ele>
        <time>2019-08-07T13:47:30Z</time>
      </trkpt>
      <trkpt lat="48.6554910" lon="14.3693410">
        <ele>549.2</ele>
        <time>2019-08-07T13:47:31Z</time>
      </trkpt>
      <trkpt lat="48.6555040" lon="14.3693330">
        <ele>549.2</ele>
        <time>2019-08-07T13:47:32Z</time>
      </trkpt>
      <trkpt lat="48.6555180" lon="14.3693270">
        <ele>549.4</ele>
        <time>2019-08-07T13:47:33Z</time>
      </trkpt>
      <trkpt lat="48.6555310" lon="14.3693190">
        <ele>549.6</ele>
        <time>2019-08-07T13:47:34Z</time>
      </trkpt>
      <trkpt lat="48.6555430" lon="14.3693090">
        <ele>549.8</ele>
        <time>2019-08-07T13:47:35Z</time>
      </trkpt>
      <trkpt lat="48.6555550" lon="14.3693020">
        <ele>550.0</ele>
        <time>2019-08-07T13:47:36Z</time>
      </trkpt>
      <trkpt lat="48.6555690" lon="14.3692960">
        <ele>550.2</ele>
        <time>2019-08-07T13:47:37Z</time>
      </trkpt>
      <trkpt lat="48.6555830" lon="14.3692880">
        <ele>550.4</ele>
        <time>2019-08-07T13:47:38Z</time>
      </trkpt>
      <trkpt lat="48.6555950" lon="14.3692780">
        <ele>550.6</ele>
        <time>2019-08-07T13:47:39Z</time>
      </trkpt>
      <trkpt lat="48.6556080" lon="14.3692690">
        <ele>550.8</ele>
        <time>2019-08-07T13:47:40Z</time>
      </trkpt>
      <trkpt lat="48.6556220" lon="14.3692620">
        <ele>551.0</ele>
        <time>2019-08-07T13:47:41Z</time>
      </trkpt>
      <trkpt lat="48.6556350" lon="14.3692580">
        <ele>551.2</ele>
        <time>2019-08-07T13:47:42Z</time>
      </trkpt>
      <trkpt lat="48.6556490" lon="14.3692540">
        <ele>551.4</ele>
        <time>2019-08-07T13:47:43Z</time>
      </trkpt>
      <trkpt lat="48.6556630" lon="14.3692520">
        <ele>551.6</ele>
        <time>2019-08-07T13:47:44Z</time>
      </trkpt>
      <trkpt lat="48.6556770" lon="14.3692490">
        <ele>551.6</ele>
        <time>2019-08-07T13:47:45Z</time>
      </trkpt>
      <trkpt lat="48.6556890" lon="14.3692480">
        <ele>551.8</ele>
        <time>2019-08-07T13:47:46Z</time>
      </trkpt>
      <trkpt lat="48.6556990" lon="14.3692440">
        <ele>552.0</ele>
        <time>2019-08-07T13:47:47Z</time>
      </trkpt>
      <trkpt lat="48.6557100" lon="14.3692380">
        <ele>552.2</ele>
        <time>2019-08-07T13:47:48Z</time>
      </trkpt>
      <trkpt lat="48.6557210" lon="14.3692310">
        <ele>552.4</ele>
        <time>2019-08-07T13:47:49Z</time>
      </trkpt>
      <trkpt lat="48.6557320" lon="14.3692250">
        <ele>552.6</ele>
        <time>2019-08-07T13:47:50Z</time>
      </trkpt>
      <trkpt lat="48.6557430" lon="14.3692170">
        <ele>552.8</ele>
        <time>2019-08-07T13:47:51Z</time>
      </trkpt>
      <trkpt lat="48.6557540" lon="14.3692090">
        <ele>553.0</ele>
        <time>2019-08-07T13:47:52Z</time>
      </trkpt>
      <trkpt lat="48.6557650" lon="14.3692040">
        <ele>553.2</ele>
        <time>2019-08-07T13:47:53Z</time>
      </trkpt>
      <trkpt lat="48.6557780" lon="14.3692010">
        <ele>553.4</ele>
        <time>2019-08-07T13:47:54Z</time>
      </trkpt>
      <trkpt lat="48.6557900" lon="14.3692010">
        <ele>553.6</ele>
        <time>2019-08-07T13:47:55Z</time>
      </trkpt>
      <trkpt lat="48.6558020" lon="14.3692010">
        <ele>553.8</ele>
        <time>2019-08-07T13:47:56Z</time>
      </trkpt>
      <trkpt lat="48.6558120" lon="14.3691990">
        <ele>554.0</ele>
        <time>2019-08-07T13:47:57Z</time>
      </trkpt>
      <trkpt lat="48.6558220" lon="14.3691970">
        <ele>554.2</ele>
        <time>2019-08-07T13:47:58Z</time>
      </trkpt>
      <trkpt lat="48.6558320" lon="14.3691940">
        <ele>554.4</ele>
        <time>2019-08-07T13:47:59Z</time>
      </trkpt>
      <trkpt lat="48.6558430" lon="14.3691860">
        <ele>554.4</ele>
        <time>2019-08-07T13:48:00Z</time>
      </trkpt>
      <trkpt lat="48.6558540" lon="14.3691770">
        <ele>554.6</ele>
        <time>2019-08-07T13:48:01Z</time>
      </trkpt>
      <trkpt lat="48.6558650" lon="14.3691660">
        <ele>554.8</ele>
        <time>2019-08-07T13:48:02Z</time>
      </trkpt>
      <trkpt lat="48.6558770" lon="14.3691570">
        <ele>555.0</ele>
        <time>2019-08-07T13:48:03Z</time>
      </trkpt>
      <trkpt lat="48.6558900" lon="14.3691500">
        <ele>555.2</ele>
        <time>2019-08-07T13:48:04Z</time>
      </trkpt>
      <trkpt lat="48.6559030" lon="14.3691440">
        <ele>555.4</ele>
        <time>2019-08-07T13:48:05Z</time>
      </trkpt>
      <trkpt lat="48.6559150" lon="14.3691370">
        <ele>555.8</ele>
        <time>2019-08-07T13:48:06Z</time>
      </trkpt>
      <trkpt lat="48.6559250" lon="14.3691300">
        <ele>556.0</ele>
        <time>2019-08-07T13:48:07Z</time>
      </trkpt>
      <trkpt lat="48.6559350" lon="14.3691280">
        <ele>556.2</ele>
        <time>2019-08-07T13:48:08Z</time>
      </trkpt>
      <trkpt lat="48.6559460" lon="14.3691260">
        <ele>556.4</ele>
        <time>2019-08-07T13:48:09Z</time>
      </trkpt>
      <trkpt lat="48.6559570" lon="14.3691240">
        <ele>556.6</ele>
        <time>2019-08-07T13:48:10Z</time>
      </trkpt>
      <trkpt lat="48.6559690" lon="14.3691210">
        <ele>556.8</ele>
        <time>2019-08-07T13:48:11Z</time>
      </trkpt>
      <trkpt lat="48.6559800" lon="14.3691130">
        <ele>557.0</ele>
        <time>2019-08-07T13:48:12Z</time>
      </trkpt>
      <trkpt lat="48.6559910" lon="14.3691020">
        <ele>557.2</ele>
        <time>2019-08-07T13:48:13Z</time>
      </trkpt>
      <trkpt lat="48.6560020" lon="14.3690910">
        <ele>557.4</ele>
        <time>2019-08-07T13:48:14Z</time>
      </trkpt>
      <trkpt lat="48.6560140" lon="14.3690830">
        <ele>557.6</ele>
        <time>2019-08-07T13:48:15Z</time>
      </trkpt>
      <trkpt lat="48.6560280" lon="14.3690790">
        <ele>558.0</ele>
        <time>2019-08-07T13:48:16Z</time>
      </trkpt>
      <trkpt lat="48.6560400" lon="14.3690760">
        <ele>558.2</ele>
        <time>2019-08-07T13:48:17Z</time>
      </trkpt>
      <trkpt lat="48.6560530" lon="14.3690750">
        <ele>558.4</ele>
        <time>2019-08-07T13:48:18Z</time>
      </trkpt>
      <trkpt lat="48.6560670" lon="14.3690740">
        <ele>558.6</ele>
        <time>2019-08-07T13:48:19Z</time>
      </trkpt>
      <trkpt lat="48.6560790" lon="14.3690720">
        <ele>558.8</ele>
        <time>2019-08-07T13:48:20Z</time>
      </trkpt>
      <trkpt lat="48.6560910" lon="14.3690650">
        <ele>559.0</ele>
        <time>2019-08-07T13:48:21Z</time>
      </trkpt>
      <trkpt lat="48.6561040" lon="14.3690570">
        <ele>559.2</ele>
        <time>2019-08-07T13:48:22Z</time>
      </trkpt>
      <trkpt lat="48.6561170" lon="14.3690510">
        <ele>559.4</ele>
        <time>2019-08-07T13:48:23Z</time>
      </trkpt>
      <trkpt lat="48.6561300" lon="14.3690450">
        <ele>559.8</ele>
        <time>2019-08-07T13:48:24Z</time>
      </trkpt>
      <trkpt lat="48.6561430" lon="14.3690420">
        <ele>560.0</ele>
        <time>2019-08-07T13:48:25Z</time>
      </trkpt>
      <trkpt lat="48.6561570" lon="14.3690390">
        <ele>560.2</ele>
        <time>2019-08-07T13:48:26Z</time>
      </trkpt>
      <trkpt lat="48.6561720" lon="14.3690370">
        <ele>560.4</ele>
        <time>2019-08-07T13:48:27Z</time>
      </trkpt>
      <trkpt lat="48.6561850" lon="14.3690340">
        <ele>560.6</ele>
        <time>2019-08-07T13:48:28Z</time>
      </trkpt>
      <trkpt lat="48.6561990" lon="14.3690340">
        <ele>560.8</ele>
        <time>2019-08-07T13:48:29Z</time>
      </trkpt>
      <trkpt lat="48.6562130" lon="14.3690350">
        <ele>561.0</ele>
        <time>2019-08-07T13:48:30Z</time>
      </trkpt>
      <trkpt lat="48.6562270" lon="14.3690340">
        <ele>561.4</ele>
        <time>2019-08-07T13:48:31Z</time>
      </trkpt>
      <trkpt lat="48.6562410" lon="14.3690330">
        <ele>561.6</ele>
        <time>2019-08-07T13:48:32Z</time>
      </trkpt>
      <trkpt lat="48.6562550" lon="14.3690320">
        <ele>561.8</ele>
        <time>2019-08-07T13:48:33Z</time>
      </trkpt>
      <trkpt lat="48.6562680" lon="14.3690280">
        <ele>562.0</ele>
        <time>2019-08-07T13:48:34Z</time>
      </trkpt>
      <trkpt lat="48.6562820" lon="14.3690230">
        <ele>562.2</ele>
        <time>2019-08-07T13:48:35Z</time>
      </trkpt>
      <trkpt lat="48.6562950" lon="14.3690190">
        <ele>562.4</ele>
        <time>2019-08-07T13:48:36Z</time>
      </trkpt>
      <trkpt lat="48.6563080" lon="14.3690150">
        <ele>562.6</ele>
        <time>2019-08-07T13:48:37Z</time>
      </trkpt>
      <trkpt lat="48.6563220" lon="14.3690110">
        <ele>563.0</ele>
        <time>2019-08-07T13:48:38Z</time>
      </trkpt>
      <trkpt lat="48.6563370" lon="14.3690070">
        <ele>563.2</ele>
        <time>2019-08-07T13:48:39Z</time>
      </trkpt>
      <trkpt lat="48.6563510" lon="14.3690050">
        <ele>563.4</ele>
        <time>2019-08-07T13:48:40Z</time>
      </trkpt>
      <trkpt lat="48.6563660" lon="14.3690040">
        <ele>563.6</ele>
        <time>2019-08-07T13:48:41Z</time>
      </trkpt>
      <trkpt lat="48.6563800" lon="14.3690030">
        <ele>563.8</ele>
        <time>2019-08-07T13:48:42Z</time>
      </trkpt>
      <trkpt lat="48.6563940" lon="14.3690000">
        <ele>564.0</ele>
        <time>2019-08-07T13:48:43Z</time>
      </trkpt>
      <trkpt lat="48.6564090" lon="14.3689960">
        <ele>564.4</ele>
        <time>2019-08-07T13:48:44Z</time>
      </trkpt>
      <trkpt lat="48.6564230" lon="14.3689910">
        <ele>564.6</ele>
        <time>2019-08-07T13:48:45Z</time>
      </trkpt>
      <trkpt lat="48.6564370" lon="14.3689840">
        <ele>564.8</ele>
        <time>2019-08-07T13:48:46Z</time>
      </trkpt>
      <trkpt lat="48.6564510" lon="14.3689780">
        <ele>565.0</ele>
        <time>2019-08-07T13:48:47Z</time>
      </trkpt>
      <trkpt lat="48.6564650" lon="14.3689740">
        <ele>565.2</ele>
        <time>2019-08-07T13:48:48Z</time>
      </trkpt>
      <trkpt lat="48.6564780" lon="14.3689680">
        <ele>565.4</ele>
        <time>2019-08-07T13:48:49Z</time>
      </trkpt>
      <trkpt lat="48.6564920" lon="14.3689640">
        <ele>565.6</ele>
        <time>2019-08-07T13:48:50Z</time>
      </trkpt>
      <trkpt lat="48.6565080" lon="14.3689620">
        <ele>565.8</ele>
        <time>2019-08-07T13:48:51Z</time>
      </trkpt>
      <trkpt lat="48.6565240" lon="14.3689580">
        <ele>566.0</ele>
        <time>2019-08-07T13:48:52Z</time>
      </trkpt>
      <trkpt lat="48.6565390" lon="14.3689510">
        <ele>566.2</ele>
        <time>2019-08-07T13:48:53Z</time>
      </trkpt>
      <trkpt lat="48.6565540" lon="14.3689440">
        <ele>566.4</ele>
        <time>2019-08-07T13:48:54Z</time>
      </trkpt>
      <trkpt lat="48.6565700" lon="14.3689380">
        <ele>566.6</ele>
        <time>2019-08-07T13:48:55Z</time>
      </trkpt>
      <trkpt lat="48.6565860" lon="14.3689310">
        <ele>566.8</ele>
        <time>2019-08-07T13:48:56Z</time>
      </trkpt>
      <trkpt lat="48.6566000" lon="14.3689240">
        <ele>567.0</ele>
        <time>2019-08-07T13:48:57Z</time>
      </trkpt>
      <trkpt lat="48.6566130" lon="14.3689150">
        <ele>567.2</ele>
        <time>2019-08-07T13:48:58Z</time>
      </trkpt>
      <trkpt lat="48.6566270" lon="14.3689080">
        <ele>567.4</ele>
        <time>2019-08-07T13:48:59Z</time>
      </trkpt>
      <trkpt lat="48.6566420" lon="14.3689010">
        <ele>567.6</ele>
        <time>2019-08-07T13:49:00Z</time>
      </trkpt>
      <trkpt lat="48.6566560" lon="14.3688940">
        <ele>567.8</ele>
        <time>2019-08-07T13:49:01Z</time>
      </trkpt>
      <trkpt lat="48.6566700" lon="14.3688870">
        <ele>568.0</ele>
        <time>2019-08-07T13:49:02Z</time>
      </trkpt>
      <trkpt lat="48.6566850" lon="14.3688810">
        <ele>568.2</ele>
        <time>2019-08-07T13:49:03Z</time>
      </trkpt>
      <trkpt lat="48.6567000" lon="14.3688730">
        <ele>568.4</ele>
        <time>2019-08-07T13:49:04Z</time>
      </trkpt>
      <trkpt lat="48.6567140" lon="14.3688670">
        <ele>568.4</ele>
        <time>2019-08-07T13:49:05Z</time>
      </trkpt>
      <trkpt lat="48.6567290" lon="14.3688630">
        <ele>568.6</ele>
        <time>2019-08-07T13:49:06Z</time>
      </trkpt>
      <trkpt lat="48.6567440" lon="14.3688600">
        <ele>568.8</ele>
        <time>2019-08-07T13:49:07Z</time>
      </trkpt>
      <trkpt lat="48.6567590" lon="14.3688570">
        <ele>569.0</ele>
        <time>2019-08-07T13:49:08Z</time>
      </trkpt>
      <trkpt lat="48.6567730" lon="14.3688520">
        <ele>569.2</ele>
        <time>2019-08-07T13:49:09Z</time>
      </trkpt>
      <trkpt lat="48.6567890" lon="14.3688460">
        <ele>569.4</ele>
        <time>2019-08-07T13:49:10Z</time>
      </trkpt>
      <trkpt lat="48.6568030" lon="14.3688390">
        <ele>569.6</ele>
        <time>2019-08-07T13:49:11Z</time>
      </trkpt>
      <trkpt lat="48.6568160" lon="14.3688300">
        <ele>569.8</ele>
        <time>2019-08-07T13:49:12Z</time>
      </trkpt>
      <trkpt lat="48.6568280" lon="14.3688200">
        <ele>570.0</ele>
        <time>2019-08-07T13:49:13Z</time>
      </trkpt>
      <trkpt lat="48.6568410" lon="14.3688090">
        <ele>570.2</ele>
        <time>2019-08-07T13:49:14Z</time>
      </trkpt>
      <trkpt lat="48.6568540" lon="14.3687980">
        <ele>570.4</ele>
        <time>2019-08-07T13:49:15Z</time>
      </trkpt>
      <trkpt lat="48.6568650" lon="14.3687880">
        <ele>570.6</ele>
        <time>2019-08-07T13:49:16Z</time>
      </trkpt>
      <trkpt lat="48.6568760" lon="14.3687780">
        <ele>570.8</ele>
        <time>2019-08-07T13:49:17Z</time>
      </trkpt>
      <trkpt lat="48.6568860" lon="14.3687660">
        <ele>570.8</ele>
        <time>2019-08-07T13:49:18Z</time>
      </trkpt>
      <trkpt lat="48.6568950" lon="14.3687540">
        <ele>571.0</ele>
        <time>2019-08-07T13:49:19Z</time>
      </trkpt>
      <trkpt lat="48.6569060" lon="14.3687440">
        <ele>571.2</ele>
        <time>2019-08-07T13:49:20Z</time>
      </trkpt>
      <trkpt lat="48.6569180" lon="14.3687380">
        <ele>571.4</ele>
        <time>2019-08-07T13:49:21Z</time>
      </trkpt>
      <trkpt lat="48.6569310" lon="14.3687330">
        <ele>571.6</ele>
        <time>2019-08-07T13:49:22Z</time>
      </trkpt>
      <trkpt lat="48.6569420" lon="14.3687280">
        <ele>571.8</ele>
        <time>2019-08-07T13:49:23Z</time>
      </trkpt>
      <trkpt lat="48.6569550" lon="14.3687250">
        <ele>571.8</ele>
        <time>2019-08-07T13:49:24Z</time>
      </trkpt>
      <trkpt lat="48.6569680" lon="14.3687250">
        <ele>572.0</ele>
        <time>2019-08-07T13:49:25Z</time>
      </trkpt>
      <trkpt lat="48.6569820" lon="14.3687250">
        <ele>572.2</ele>
        <time>2019-08-07T13:49:26Z</time>
      </trkpt>
      <trkpt lat="48.6569970" lon="14.3687250">
        <ele>572.2</ele>
        <time>2019-08-07T13:49:27Z</time>
      </trkpt>
      <trkpt lat="48.6570130" lon="14.3687250">
        <ele>572.4</ele>
        <time>2019-08-07T13:49:28Z</time>
      </trkpt>
      <trkpt lat="48.6570280" lon="14.3687240">
        <ele>572.6</ele>
        <time>2019-08-07T13:49:29Z</time>
      </trkpt>
      <trkpt lat="48.6570410" lon="14.3687220">
        <ele>572.6</ele>
        <time>2019-08-07T13:49:30Z</time>
      </trkpt>
      <trkpt lat="48.6570550" lon="14.3687190">
        <ele>572.8</ele>
        <time>2019-08-07T13:49:31Z</time>
      </trkpt>
      <trkpt lat="48.6570700" lon="14.3687160">
        <ele>573.0</ele>
        <time>2019-08-07T13:49:32Z</time>
      </trkpt>
      <trkpt lat="48.6570830" lon="14.3687140">
        <ele>573.0</ele>
        <time>2019-08-07T13:49:33Z</time>
      </trkpt>
      <trkpt lat="48.6570980" lon="14.3687120">
        <ele>573.2</ele>
        <time>2019-08-07T13:49:34Z</time>
      </trkpt>
      <trkpt lat="48.6571130" lon="14.3687060">
        <ele>573.4</ele>
        <time>2019-08-07T13:49:35Z</time>
      </trkpt>
      <trkpt lat="48.6571290" lon="14.3687000">
        <ele>573.4</ele>
        <time>2019-08-07T13:49:36Z</time>
      </trkpt>
      <trkpt lat="48.6571460" lon="14.3686970">
        <ele>573.6</ele>
        <time>2019-08-07T13:49:37Z</time>
      </trkpt>
      <trkpt lat="48.6571610" lon="14.3686950">
        <ele>573.6</ele>
        <time>2019-08-07T13:49:38Z</time>
      </trkpt>
      <trkpt lat="48.6571750" lon="14.3686960">
        <ele>573.8</ele>
        <time>2019-08-07T13:49:39Z</time>
      </trkpt>
      <trkpt lat="48.6571870" lon="14.3687010">
        <ele>574.0</ele>
        <time>2019-08-07T13:49:40Z</time>
      </trkpt>
      <trkpt lat="48.6571970" lon="14.3687080">
        <ele>574.0</ele>
        <time>2019-08-07T13:49:41Z</time>
      </trkpt>
      <trkpt lat="48.6572100" lon="14.3687140">
        <ele>574.0</ele>
        <time>2019-08-07T13:49:42Z</time>
      </trkpt>
      <trkpt lat="48.6572240" lon="14.3687150">
        <ele>574.2</ele>
        <time>2019-08-07T13:49:43Z</time>
      </trkpt>
      <trkpt lat="48.6572410" lon="14.3687120">
        <ele>574.2</ele>
        <time>2019-08-07T13:49:44Z</time>
      </trkpt>
      <trkpt lat="48.6572570" lon="14.3687100">
        <ele>574.4</ele>
        <time>2019-08-07T13:49:45Z</time>
      </trkpt>
      <trkpt lat="48.6572750" lon="14.3687110">
        <ele>574.4</ele>
        <time>2019-08-07T13:49:46Z</time>
      </trkpt>
      <trkpt lat="48.6572920" lon="14.3687140">
        <ele>574.4</ele>
        <time>2019-08-07T13:49:47Z</time>
      </trkpt>
      <trkpt lat="48.6573070" lon="14.3687160">
        <ele>574.6</ele>
        <time>2019-08-07T13:49:48Z</time>
      </trkpt>
      <trkpt lat="48.6573210" lon="14.3687180">
        <ele>574.6</ele>
        <time>2019-08-07T13:49:49Z</time>
      </trkpt>
      <trkpt lat="48.6573340" lon="14.3687180">
        <ele>574.8</ele>
        <time>2019-08-07T13:49:50Z</time>
      </trkpt>
      <trkpt lat="48.6573450" lon="14.3687170">
        <ele>575.0</ele>
        <time>2019-08-07T13:49:51Z</time>
      </trkpt>
      <trkpt lat="48.6573560" lon="14.3687180">
        <ele>575.0</ele>
        <time>2019-08-07T13:49:52Z</time>
      </trkpt>
      <trkpt lat="48.6573670" lon="14.3687230">
        <ele>575.2</ele>
        <time>2019-08-07T13:49:53Z</time>
      </trkpt>
      <trkpt lat="48.6573800" lon="14.3687310">
        <ele>575.2</ele>
        <time>2019-08-07T13:49:54Z</time>
      </trkpt>
      <trkpt lat="48.6573930" lon="14.3687430">
        <ele>575.4</ele>
        <time>2019-08-07T13:49:55Z</time>
      </trkpt>
      <trkpt lat="48.6574060" lon="14.3687540">
        <ele>575.6</ele>
        <time>2019-08-07T13:49:56Z</time>
      </trkpt>
      <trkpt lat="48.6574170" lon="14.3687640">
        <ele>575.8</ele>
        <time>2019-08-07T13:49:57Z</time>
      </trkpt>
      <trkpt lat="48.6574290" lon="14.3687770">
        <ele>575.8</ele>
        <time>2019-08-07T13:49:58Z</time>
      </trkpt>
      <trkpt lat="48.6574420" lon="14.3687890">
        <ele>576.0</ele>
        <time>2019-08-07T13:49:59Z</time>
      </trkpt>
      <trkpt lat="48.6574520" lon="14.3688010">
        <ele>576.2</ele>
        <time>2019-08-07T13:50:00Z</time>
      </trkpt>
      <trkpt lat="48.6574620" lon="14.3688120">
        <ele>576.6</ele>
        <time>2019-08-07T13:50:01Z</time>
      </trkpt>
      <trkpt lat="48.6574740" lon="14.3688250">
        <ele>576.8</ele>
        <time>2019-08-07T13:50:02Z</time>
      </trkpt>
      <trkpt lat="48.6574850" lon="14.3688390">
        <ele>577.0</ele>
        <time>2019-08-07T13:50:03Z</time>
      </trkpt>
      <trkpt lat="48.6574940" lon="14.3688500">
        <ele>577.2</ele>
        <time>2019-08-07T13:50:04Z</time>
      </trkpt>
      <trkpt lat="48.6575030" lon="14.3688630">
        <ele>577.6</ele>
        <time>2019-08-07T13:50:05Z</time>
      </trkpt>
      <trkpt lat="48.6575110" lon="14.3688770">
        <ele>577.8</ele>
        <time>2019-08-07T13:50:06Z</time>
      </trkpt>
      <trkpt lat="48.6575200" lon="14.3688950">
        <ele>578.0</ele>
        <time>2019-08-07T13:50:07Z</time>
      </trkpt>
      <trkpt lat="48.6575290" lon="14.3689130">
        <ele>578.4</ele>
        <time>2019-08-07T13:50:08Z</time>
      </trkpt>
      <trkpt lat="48.6575370" lon="14.3689280">
        <ele>578.6</ele>
        <time>2019-08-07T13:50:09Z</time>
      </trkpt>
      <trkpt lat="48.6575430" lon="14.3689430">
        <ele>578.8</ele>
        <time>2019-08-07T13:50:10Z</time>
      </trkpt>
      <trkpt lat="48.6575500" lon="14.3689620">
        <ele>579.0</ele>
        <time>2019-08-07T13:50:11Z</time>
      </trkpt>
      <trkpt lat="48.6575580" lon="14.3689860">
        <ele>579.4</ele>
        <time>2019-08-07T13:50:12Z</time>
      </trkpt>
      <trkpt lat="48.6575660" lon="14.3690090">
        <ele>579.6</ele>
        <time>2019-08-07T13:50:13Z</time>
      </trkpt>
      <trkpt lat="48.6575730" lon="14.3690320">
        <ele>579.8</ele>
        <time>2019-08-07T13:50:14Z</time>
      </trkpt>
      <trkpt lat="48.6575840" lon="14.3690620">
        <ele>580.0</ele>
        <time>2019-08-07T13:50:15Z</time>
      </trkpt>
      <trkpt lat="48.6575940" lon="14.3690940">
        <ele>580.2</ele>
        <time>2019-08-07T13:50:16Z</time>
      </trkpt>
      <trkpt lat="48.6576050" lon="14.3691240">
        <ele>580.4</ele>
        <time>2019-08-07T13:50:17Z</time>
      </trkpt>
      <trkpt lat="48.6576150" lon="14.3691490">
        <ele>580.6</ele>
        <time>2019-08-07T13:50:18Z</time>
      </trkpt>
      <trkpt lat="48.6576220" lon="14.3691740">
        <ele>581.0</ele>
        <time>2019-08-07T13:50:19Z</time>
      </trkpt>
      <trkpt lat="48.6576300" lon="14.3691980">
        <ele>581.2</ele>
        <time>2019-08-07T13:50:20Z</time>
      </trkpt>
      <trkpt lat="48.6576370" lon="14.3692240">
        <ele>581.2</ele>
        <time>2019-08-07T13:50:21Z</time>
      </trkpt>
      <trkpt lat="48.6576430" lon="14.3692470">
        <ele>581.4</ele>
        <time>2019-08-07T13:50:22Z</time>
      </trkpt>
      <trkpt lat="48.6576480" lon="14.3692660">
        <ele>581.6</ele>
        <time>2019-08-07T13:50:23Z</time>
      </trkpt>
      <trkpt lat="48.6576540" lon="14.3692880">
        <ele>581.8</ele>
        <time>2019-08-07T13:50:24Z</time>
      </trkpt>
      <trkpt lat="48.6576620" lon="14.3693170">
        <ele>582.0</ele>
        <time>2019-08-07T13:50:25Z</time>
      </trkpt>
      <trkpt lat="48.6576740" lon="14.3693490">
        <ele>582.2</ele>
        <time>2019-08-07T13:50:26Z</time>
      </trkpt>
      <trkpt lat="48.6576820" lon="14.3693780">
        <ele>582.2</ele>
        <time>2019-08-07T13:50:27Z</time>
      </trkpt>
      <trkpt lat="48.6576890" lon="14.3694100">
        <ele>582.4</ele>
        <time>2019-08-07T13:50:28Z</time>
      </trkpt>
      <trkpt lat="48.6576950" lon="14.3694370">
        <ele>582.6</ele>
        <time>2019-08-07T13:50:29Z</time>
      </trkpt>
      <trkpt lat="48.6577000" lon="14.3694610">
        <ele>582.8</ele>
        <time>2019-08-07T13:50:30Z</time>
      </trkpt>
      <trkpt lat="48.6577030" lon="14.3694850">
        <ele>583.0</ele>
        <time>2019-08-07T13:50:31Z</time>
      </trkpt>
      <trkpt lat="48.6577050" lon="14.3695100">
        <ele>583.2</ele>
        <time>2019-08-07T13:50:32Z</time>
      </trkpt>
      <trkpt lat="48.6577060" lon="14.3695410">
        <ele>583.2</ele>
        <time>2019-08-07T13:50:33Z</time>
      </trkpt>
      <trkpt lat="48.6577080" lon="14.3695730">
        <ele>583.4</ele>
        <time>2019-08-07T13:50:34Z</time>
      </trkpt>
      <trkpt lat="48.6577140" lon="14.3696090">
        <ele>583.6</ele>
        <time>2019-08-07T13:50:35Z</time>
      </trkpt>
      <trkpt lat="48.6577220" lon="14.3696440">
        <ele>583.6</ele>
        <time>2019-08-07T13:50:36Z</time>
      </trkpt>
      <trkpt lat="48.6577310" lon="14.3696770">
        <ele>583.8</ele>
        <time>2019-08-07T13:50:37Z</time>
      </trkpt>
      <trkpt lat="48.6577370" lon="14.3697070">
        <ele>583.8</ele>
        <time>2019-08-07T13:50:38Z</time>
      </trkpt>
      <trkpt lat="48.6577440" lon="14.3697380">
        <ele>584.0</ele>
        <time>2019-08-07T13:50:39Z</time>
      </trkpt>
      <trkpt lat="48.6577510" lon="14.3697750">
        <ele>584.2</ele>
        <time>2019-08-07T13:50:40Z</time>
      </trkpt>
      <trkpt lat="48.6577570" lon="14.3698140">
        <ele>584.2</ele>
        <time>2019-08-07T13:50:41Z</time>
      </trkpt>
      <trkpt lat="48.6577630" lon="14.3698490">
        <ele>584.4</ele>
        <time>2019-08-07T13:50:42Z</time>
      </trkpt>
      <trkpt lat="48.6577690" lon="14.3698830">
        <ele>584.4</ele>
        <time>2019-08-07T13:50:43Z</time>
      </trkpt>
      <trkpt lat="48.6577770" lon="14.3699220">
        <ele>584.6</ele>
        <time>2019-08-07T13:50:44Z</time>
      </trkpt>
      <trkpt lat="48.6577850" lon="14.3699630">
        <ele>584.6</ele>
        <time>2019-08-07T13:50:45Z</time>
      </trkpt>
      <trkpt lat="48.6577930" lon="14.3700070">
        <ele>584.6</ele>
        <time>2019-08-07T13:50:46Z</time>
      </trkpt>
      <trkpt lat="48.6578020" lon="14.3700500">
        <ele>584.8</ele>
        <time>2019-08-07T13:50:47Z</time>
      </trkpt>
      <trkpt lat="48.6578090" lon="14.3700900">
        <ele>584.8</ele>
        <time>2019-08-07T13:50:48Z</time>
      </trkpt>
      <trkpt lat="48.6578150" lon="14.3701360">
        <ele>585.0</ele>
        <time>2019-08-07T13:50:49Z</time>
      </trkpt>
      <trkpt lat="48.6578260" lon="14.3701820">
        <ele>585.2</ele>
        <time>2019-08-07T13:50:50Z</time>
      </trkpt>
      <trkpt lat="48.6578380" lon="14.3702270">
        <ele>585.2</ele>
        <time>2019-08-07T13:50:51Z</time>
      </trkpt>
      <trkpt lat="48.6578520" lon="14.3702720">
        <ele>585.4</ele>
        <time>2019-08-07T13:50:52Z</time>
      </trkpt>
      <trkpt lat="48.6578640" lon="14.3703180">
        <ele>585.4</ele>
        <time>2019-08-07T13:50:53Z</time>
      </trkpt>
      <trkpt lat="48.6578770" lon="14.3703580">
        <ele>585.6</ele>
        <time>2019-08-07T13:50:54Z</time>
      </trkpt>
      <trkpt lat="48.6578890" lon="14.3703960">
        <ele>585.6</ele>
        <time>2019-08-07T13:50:55Z</time>
      </trkpt>
      <trkpt lat="48.6578970" lon="14.3704400">
        <ele>585.8</ele>
        <time>2019-08-07T13:50:56Z</time>
      </trkpt>
      <trkpt lat="48.6579050" lon="14.3704850">
        <ele>585.8</ele>
        <time>2019-08-07T13:50:57Z</time>
      </trkpt>
      <trkpt lat="48.6579140" lon="14.3705290">
        <ele>586.0</ele>
        <time>2019-08-07T13:50:58Z</time>
      </trkpt>
      <trkpt lat="48.6579280" lon="14.3705700">
        <ele>586.0</ele>
        <time>2019-08-07T13:50:59Z</time>
      </trkpt>
      <trkpt lat="48.6579460" lon="14.3706060">
        <ele>586.2</ele>
        <time>2019-08-07T13:51:00Z</time>
      </trkpt>
      <trkpt lat="48.6579660" lon="14.3706420">
        <ele>586.2</ele>
        <time>2019-08-07T13:51:01Z</time>
      </trkpt>
      <trkpt lat="48.6579870" lon="14.3706800">
        <ele>586.4</ele>
        <time>2019-08-07T13:51:02Z</time>
      </trkpt>
      <trkpt lat="48.6580050" lon="14.3707210">
        <ele>586.6</ele>
        <time>2019-08-07T13:51:03Z</time>
      </trkpt>
      <trkpt lat="48.6580250" lon="14.3707640">
        <ele>586.8</ele>
        <time>2019-08-07T13:51:04Z</time>
      </trkpt>
      <trkpt lat="48.6580480" lon="14.3708100">
        <ele>586.8</ele>
        <time>2019-08-07T13:51:05Z</time>
      </trkpt>
      <trkpt lat="48.6580720" lon="14.3708540">
        <ele>587.0</ele>
        <time>2019-08-07T13:51:06Z</time>
      </trkpt>
      <trkpt lat="48.6580950" lon="14.3708900">
        <ele>587.2</ele>
        <time>2019-08-07T13:51:07Z</time>
      </trkpt>
      <trkpt lat="48.6581210" lon="14.3709240">
        <ele>587.4</ele>
        <time>2019-08-07T13:51:08Z</time>
      </trkpt>
      <trkpt lat="48.6581480" lon="14.3709600">
        <ele>587.6</ele>
        <time>2019-08-07T13:51:09Z</time>
      </trkpt>
      <trkpt lat="48.6581720" lon="14.3709950">
        <ele>587.8</ele>
        <time>2019-08-07T13:51:10Z</time>
      </trkpt>
      <trkpt lat="48.6581980" lon="14.3710300">
        <ele>588.0</ele>
        <time>2019-08-07T13:51:11Z</time>
      </trkpt>
      <trkpt lat="48.6582260" lon="14.3710660">
        <ele>588.0</ele>
        <time>2019-08-07T13:51:12Z</time>
      </trkpt>
      <trkpt lat="48.6582510" lon="14.3710980">
        <ele>588.2</ele>
        <time>2019-08-07T13:51:13Z</time>
      </trkpt>
      <trkpt lat="48.6582750" lon="14.3711290">
        <ele>588.4</ele>
        <time>2019-08-07T13:51:14Z</time>
      </trkpt>
      <trkpt lat="48.6582980" lon="14.3711590">
        <ele>588.6</ele>
        <time>2019-08-07T13:51:15Z</time>
      </trkpt>
      <trkpt lat="48.6583210" lon="14.3711870">
        <ele>588.8</ele>
        <time>2019-08-07T13:51:16Z</time>
      </trkpt>
      <trkpt lat="48.6583410" lon="14.3712120">
        <ele>589.0</ele>
        <time>2019-08-07T13:51:17Z</time>
      </trkpt>
      <trkpt lat="48.6583620" lon="14.3712400">
        <ele>589.2</ele>
        <time>2019-08-07T13:51:18Z</time>
      </trkpt>
      <trkpt lat="48.6583830" lon="14.3712680">
        <ele>589.4</ele>
        <time>2019-08-07T13:51:19Z</time>
      </trkpt>
      <trkpt lat="48.6584040" lon="14.3712960">
        <ele>589.6</ele>
        <time>2019-08-07T13:51:20Z</time>
      </trkpt>
      <trkpt lat="48.6584240" lon="14.3713260">
        <ele>589.8</ele>
        <time>2019-08-07T13:51:21Z</time>
      </trkpt>
      <trkpt lat="48.6584420" lon="14.3713510">
        <ele>590.0</ele>
        <time>2019-08-07T13:51:22Z</time>
      </trkpt>
      <trkpt lat="48.6584590" lon="14.3713720">
        <ele>590.2</ele>
        <time>2019-08-07T13:51:23Z</time>
      </trkpt>
      <trkpt lat="48.6584760" lon="14.3713910">
        <ele>590.4</ele>
        <time>2019-08-07T13:51:24Z</time>
      </trkpt>
      <trkpt lat="48.6584920" lon="14.3714130">
        <ele>590.6</ele>
        <time>2019-08-07T13:51:25Z</time>
      </trkpt>
      <trkpt lat="48.6585110" lon="14.3714330">
        <ele>590.8</ele>
        <time>2019-08-07T13:51:26Z</time>
      </trkpt>
      <trkpt lat="48.6585330" lon="14.3714550">
        <ele>591.0</ele>
        <time>2019-08-07T13:51:27Z</time>
      </trkpt>
      <trkpt lat="48.6585610" lon="14.3714780">
        <ele>591.2</ele>
        <time>2019-08-07T13:51:28Z</time>
      </trkpt>
      <trkpt lat="48.6585900" lon="14.3714960">
        <ele>591.4</ele>
        <time>2019-08-07T13:51:29Z</time>
      </trkpt>
      <trkpt lat="48.6586180" lon="14.3715060">
        <ele>591.6</ele>
        <time>2019-08-07T13:51:30Z</time>
      </trkpt>
      <trkpt lat="48.6586490" lon="14.3715120">
        <ele>591.6</ele>
        <time>2019-08-07T13:51:31Z</time>
      </trkpt>
      <trkpt lat="48.6586770" lon="14.3715130">
        <ele>591.8</ele>
        <time>2019-08-07T13:51:32Z</time>
      </trkpt>
      <trkpt lat="48.6586990" lon="14.3715090">
        <ele>592.0</ele>
        <time>2019-08-07T13:51:33Z</time>
      </trkpt>
      <trkpt lat="48.6587170" lon="14.3715010">
        <ele>592.0</ele>
        <time>2019-08-07T13:51:34Z</time>
      </trkpt>
      <trkpt lat="48.6587360" lon="14.3714850">
        <ele>592.2</ele>
        <time>2019-08-07T13:51:35Z</time>
      </trkpt>
      <trkpt lat="48.6587500" lon="14.3714630">
        <ele>592.4</ele>
        <time>2019-08-07T13:51:36Z</time>
      </trkpt>
      <trkpt lat="48.6587590" lon="14.3714400">
        <ele>592.6</ele>
        <time>2019-08-07T13:51:37Z</time>
      </trkpt>
      <trkpt lat="48.6587620" lon="14.3714170">
        <ele>592.8</ele>
        <time>2019-08-07T13:51:38Z</time>
      </trkpt>
      <trkpt lat="48.6587620" lon="14.3713960">
        <ele>593.0</ele>
        <time>2019-08-07T13:51:39Z</time>
      </trkpt>
      <trkpt lat="48.6587570" lon="14.3713750">
        <ele>593.2</ele>
        <time>2019-08-07T13:51:40Z</time>
      </trkpt>
      <trkpt lat="48.6587510" lon="14.3713530">
        <ele>593.4</ele>
        <time>2019-08-07T13:51:41Z</time>
      </trkpt>
      <trkpt lat="48.6587430" lon="14.3713320">
        <ele>593.6</ele>
        <time>2019-08-07T13:51:42Z</time>
      </trkpt>
      <trkpt lat="48.6587360" lon="14.3713120">
        <ele>593.8</ele>
        <time>2019-08-07T13:51:43Z</time>
      </trkpt>
      <trkpt lat="48.6587360" lon="14.3712920">
        <ele>594.0</ele>
        <time>2019-08-07T13:51:44Z</time>
      </trkpt>
      <trkpt lat="48.6587370" lon="14.3712710">
        <ele>594.2</ele>
        <time>2019-08-07T13:51:45Z</time>
      </trkpt>
      <trkpt lat="48.6587350" lon="14.3712500">
        <ele>594.4</ele>
        <time>2019-08-07T13:51:46Z</time>
      </trkpt>
      <trkpt lat="48.6587310" lon="14.3712280">
        <ele>594.8</ele>
        <time>2019-08-07T13:51:47Z</time>
      </trkpt>
      <trkpt lat="48.6587280" lon="14.3712030">
        <ele>595.0</ele>
        <time>2019-08-07T13:51:48Z</time>
      </trkpt>
      <trkpt lat="48.6587250" lon="14.3711750">
        <ele>595.2</ele>
        <time>2019-08-07T13:51:49Z</time>
      </trkpt>
      <trkpt lat="48.6587200" lon="14.3711480">
        <ele>595.4</ele>
        <time>2019-08-07T13:51:50Z</time>
      </trkpt>
      <trkpt lat="48.6587130" lon="14.3711220">
        <ele>595.6</ele>
        <time>2019-08-07T13:51:51Z</time>
      </trkpt>
      <trkpt lat="48.6587090" lon="14.3710930">
        <ele>596.0</ele>
        <time>2019-08-07T13:51:52Z</time>
      </trkpt>
      <trkpt lat="48.6587050" lon="14.3710610">
        <ele>596.2</ele>
        <time>2019-08-07T13:51:53Z</time>
      </trkpt>
      <trkpt lat="48.6587030" lon="14.3710290">
        <ele>596.4</ele>
        <time>2019-08-07T13:51:54Z</time>
      </trkpt>
      <trkpt lat="48.6587030" lon="14.3709980">
        <ele>596.8</ele>
        <time>2019-08-07T13:51:55Z</time>
      </trkpt>
      <trkpt lat="48.6587020" lon="14.3709660">
        <ele>597.0</ele>
        <time>2019-08-07T13:51:56Z</time>
      </trkpt>
      <trkpt lat="48.6587030" lon="14.3709320">
        <ele>597.2</ele>
        <time>2019-08-07T13:51:57Z</time>
      </trkpt>
      <trkpt lat="48.6587060" lon="14.3708980">
        <ele>597.4</ele>
        <time>2019-08-07T13:51:58Z</time>
      </trkpt>
      <trkpt lat="48.6587070" lon="14.3708620">
        <ele>597.8</ele>
        <time>2019-08-07T13:51:59Z</time>
      </trkpt>
      <trkpt lat="48.6587080" lon="14.3708240">
        <ele>598.0</ele>
        <time>2019-08-07T13:52:00Z</time>
      </trkpt>
      <trkpt lat="48.6587080" lon="14.3707880">
        <ele>598.2</ele>
        <time>2019-08-07T13:52:01Z</time>
      </trkpt>
      <trkpt lat="48.6587110" lon="14.3707540">
        <ele>598.4</ele>
        <time>2019-08-07T13:52:02Z</time>
      </trkpt>
      <trkpt lat="48.6587160" lon="14.3707160">
        <ele>598.6</ele>
        <time>2019-08-07T13:52:03Z</time>
      </trkpt>
      <trkpt lat="48.6587260" lon="14.3706760">
        <ele>599.0</ele>
        <time>2019-08-07T13:52:04Z</time>
      </trkpt>
      <trkpt lat="48.6587350" lon="14.3706350">
        <ele>599.2</ele>
        <time>2019-08-07T13:52:05Z</time>
      </trkpt>
      <trkpt lat="48.6587470" lon="14.3705900">
        <ele>599.4</ele>
        <time>2019-08-07T13:52:06Z</time>
      </trkpt>
      <trkpt lat="48.6587590" lon="14.3705470">
        <ele>599.6</ele>
        <time>2019-08-07T13:52:07Z</time>
      </trkpt>
      <trkpt lat="48.6587730" lon="14.3705040">
        <ele>599.8</ele>
        <time>2019-08-07T13:52:08Z</time>
      </trkpt>
      <trkpt lat="48.6587910" lon="14.3704600">
        <ele>600.0</ele>
        <time>2019-08-07T13:52:09Z</time>
      </trkpt>
      <trkpt lat="48.6588080" lon="14.3704120">
        <ele>600.2</ele>
        <time>2019-08-07T13:52:10Z</time>
      </trkpt>
      <trkpt lat="48.6588250" lon="14.3703670">
        <ele>600.4</ele>
        <time>2019-08-07T13:52:11Z</time>
      </trkpt>
      <trkpt lat="48.6588430" lon="14.3703240">
        <ele>600.6</ele>
        <time>2019-08-07T13:52:12Z</time>
      </trkpt>
      <trkpt lat="48.6588620" lon="14.3702850">
        <ele>600.8</ele>
        <time>2019-08-07T13:52:13Z</time>
      </trkpt>
      <trkpt lat="48.6588800" lon="14.3702520">
        <ele>601.0</ele>
        <time>2019-08-07T13:52:14Z</time>
      </trkpt>
      <trkpt lat="48.6588970" lon="14.3702220">
        <ele>601.4</ele>
        <time>2019-08-07T13:52:15Z</time>
      </trkpt>
      <trkpt lat="48.6589150" lon="14.3701930">
        <ele>601.6</ele>
        <time>2019-08-07T13:52:16Z</time>
      </trkpt>
      <trkpt lat="48.6589330" lon="14.3701670">
        <ele>601.8</ele>
        <time>2019-08-07T13:52:17Z</time>
      </trkpt>
      <trkpt lat="48.6589520" lon="14.3701390">
        <ele>602.0</ele>
        <time>2019-08-07T13:52:18Z</time>
      </trkpt>
      <trkpt lat="48.6589730" lon="14.3701130">
        <ele>602.2</ele>
        <time>2019-08-07T13:52:19Z</time>
      </trkpt>
      <trkpt lat="48.6589920" lon="14.3700890">
        <ele>602.4</ele>
        <time>2019-08-07T13:52:20Z</time>
      </trkpt>
      <trkpt lat="48.6590120" lon="14.3700640">
        <ele>602.6</ele>
        <time>2019-08-07T13:52:21Z</time>
      </trkpt>
      <trkpt lat="48.6590310" lon="14.3700410">
        <ele>602.8</ele>
        <time>2019-08-07T13:52:22Z</time>
      </trkpt>
      <trkpt lat="48.6590510" lon="14.3700220">
        <ele>603.0</ele>
        <time>2019-08-07T13:52:23Z</time>
      </trkpt>
      <trkpt lat="48.6590710" lon="14.3700060">
        <ele>603.4</ele>
        <time>2019-08-07T13:52:24Z</time>
      </trkpt>
      <trkpt lat="48.6590900" lon="14.3699900">
        <ele>603.6</ele>
        <time>2019-08-07T13:52:25Z</time>
      </trkpt>
      <trkpt lat="48.6591110" lon="14.3699730">
        <ele>603.8</ele>
        <time>2019-08-07T13:52:26Z</time>
      </trkpt>
      <trkpt lat="48.6591360" lon="14.3699560">
        <ele>604.2</ele>
        <time>2019-08-07T13:52:27Z</time>
      </trkpt>
      <trkpt lat="48.6591620" lon="14.3699410">
        <ele>604.4</ele>
        <time>2019-08-07T13:52:28Z</time>
      </trkpt>
      <trkpt lat="48.6591880" lon="14.3699250">
        <ele>604.6</ele>
        <time>2019-08-07T13:52:29Z</time>
      </trkpt>
      <trkpt lat="48.6592130" lon="14.3699090">
        <ele>604.8</ele>
        <time>2019-08-07T13:52:30Z</time>
      </trkpt>
      <trkpt lat="48.6592380" lon="14.3698930">
        <ele>605.2</ele>
        <time>2019-08-07T13:52:31Z</time>
      </trkpt>
      <trkpt lat="48.6592660" lon="14.3698830">
        <ele>605.4</ele>
        <time>2019-08-07T13:52:32Z</time>
      </trkpt>
      <trkpt lat="48.6592940" lon="14.3698790">
        <ele>605.6</ele>
        <time>2019-08-07T13:52:33Z</time>
      </trkpt>
      <trkpt lat="48.6593220" lon="14.3698780">
        <ele>605.8</ele>
        <time>2019-08-07T13:52:34Z</time>
      </trkpt>
      <trkpt lat="48.6593510" lon="14.3698770">
        <ele>606.2</ele>
        <time>2019-08-07T13:52:35Z</time>
      </trkpt>
      <trkpt lat="48.6593790" lon="14.3698810">
        <ele>606.4</ele>
        <time>2019-08-07T13:52:36Z</time>
      </trkpt>
      <trkpt lat="48.6594040" lon="14.3698860">
        <ele>606.6</ele>
        <time>2019-08-07T13:52:37Z</time>
      </trkpt>
      <trkpt lat="48.6594290" lon="14.3698890">
        <ele>606.8</ele>
        <time>2019-08-07T13:52:38Z</time>
      </trkpt>
      <trkpt lat="48.6594540" lon="14.3698940">
        <ele>607.0</ele>
        <time>2019-08-07T13:52:39Z</time>
      </trkpt>
      <trkpt lat="48.6594790" lon="14.3698970">
        <ele>607.2</ele>
        <time>2019-08-07T13:52:40Z</time>
      </trkpt>
      <trkpt lat="48.6595030" lon="14.3699000">
        <ele>607.4</ele>
        <time>2019-08-07T13:52:41Z</time>
      </trkpt>
      <trkpt lat="48.6595270" lon="14.3699040">
        <ele>607.6</ele>
        <time>2019-08-07T13:52:42Z</time>
      </trkpt>
      <trkpt lat="48.6595510" lon="14.3699110">
        <ele>607.8</ele>
        <time>2019-08-07T13:52:43Z</time>
      </trkpt>
      <trkpt lat="48.6595740" lon="14.3699180">
        <ele>608.0</ele>
        <time>2019-08-07T13:52:44Z</time>
      </trkpt>
      <trkpt lat="48.6595980" lon="14.3699260">
        <ele>608.2</ele>
        <time>2019-08-07T13:52:45Z</time>
      </trkpt>
      <trkpt lat="48.6596230" lon="14.3699320">
        <ele>608.4</ele>
        <time>2019-08-07T13:52:46Z</time>
      </trkpt>
      <trkpt lat="48.6596460" lon="14.3699380">
        <ele>608.4</ele>
        <time>2019-08-07T13:52:47Z</time>
      </trkpt>
      <trkpt lat="48.6596670" lon="14.3699460">
        <ele>608.6</ele>
        <time>2019-08-07T13:52:48Z</time>
      </trkpt>
      <trkpt lat="48.6596880" lon="14.3699510">
        <ele>608.8</ele>
        <time>2019-08-07T13:52:49Z</time>
      </trkpt>
      <trkpt lat="48.6597060" lon="14.3699520">
        <ele>608.8</ele>
        <time>2019-08-07T13:52:50Z</time>
      </trkpt>
      <trkpt lat="48.6597230" lon="14.3699550">
        <ele>609.0</ele>
        <time>2019-08-07T13:52:51Z</time>
      </trkpt>
      <trkpt lat="48.6597450" lon="14.3699590">
        <ele>609.0</ele>
        <time>2019-08-07T13:52:52Z</time>
      </trkpt>
      <trkpt lat="48.6597670" lon="14.3699600">
        <ele>609.0</ele>
        <time>2019-08-07T13:52:53Z</time>
      </trkpt>
      <trkpt lat="48.6597880" lon="14.3699610">
        <ele>609.2</ele>
        <time>2019-08-07T13:52:54Z</time>
      </trkpt>
      <trkpt lat="48.6598060" lon="14.3699620">
        <ele>609.2</ele>
        <time>2019-08-07T13:52:55Z</time>
      </trkpt>
      <trkpt lat="48.6598240" lon="14.3699630">
        <ele>609.2</ele>
        <time>2019-08-07T13:52:56Z</time>
      </trkpt>
      <trkpt lat="48.6598450" lon="14.3699650">
        <ele>609.2</ele>
        <time>2019-08-07T13:52:57Z</time>
      </trkpt>
      <trkpt lat="48.6598690" lon="14.3699660">
        <ele>609.4</ele>
        <time>2019-08-07T13:52:58Z</time>
      </trkpt>
      <trkpt lat="48.6598920" lon="14.3699650">
        <ele>609.4</ele>
        <time>2019-08-07T13:52:59Z</time>
      </trkpt>
      <trkpt lat="48.6599140" lon="14.3699650">
        <ele>609.4</ele>
        <time>2019-08-07T13:53:00Z</time>
      </trkpt>
      <trkpt lat="48.6599370" lon="14.3699650">
        <ele>609.6</ele>
        <time>2019-08-07T13:53:01Z</time>
      </trkpt>
      <trkpt lat="48.6599640" lon="14.3699670">
        <ele>609.6</ele>
        <time>2019-08-07T13:53:02Z</time>
      </trkpt>
      <trkpt lat="48.6599910" lon="14.3699710">
        <ele>609.6</ele>
        <time>2019-08-07T13:53:03Z</time>
      </trkpt>
      <trkpt lat="48.6600180" lon="14.3699720">
        <ele>609.6</ele>
        <time>2019-08-07T13:53:04Z</time>
      </trkpt>
      <trkpt lat="48.6600470" lon="14.3699730">
        <ele>609.8</ele>
        <time>2019-08-07T13:53:05Z</time>
      </trkpt>
      <trkpt lat="48.6600730" lon="14.3699720">
        <ele>609.8</ele>
        <time>2019-08-07T13:53:06Z</time>
      </trkpt>
      <trkpt lat="48.6600980" lon="14.3699720">
        <ele>609.8</ele>
        <time>2019-08-07T13:53:07Z</time>
      </trkpt>
      <trkpt lat="48.6601270" lon="14.3699730">
        <ele>609.8</ele>
        <time>2019-08-07T13:53:08Z</time>
      </trkpt>
      <trkpt lat="48.6601610" lon="14.3699730">
        <ele>609.8</ele>
        <time>2019-08-07T13:53:09Z</time>
      </trkpt>
      <trkpt lat="48.6601960" lon="14.3699720">
        <ele>610.0</ele>
        <time>2019-08-07T13:53:10Z</time>
      </trkpt>
      <trkpt lat="48.6602290" lon="14.3699750">
        <ele>610.0</ele>
        <time>2019-08-07T13:53:11Z</time>
      </trkpt>
      <trkpt lat="48.6602640" lon="14.3699780">
        <ele>610.0</ele>
        <time>2019-08-07T13:53:12Z</time>
      </trkpt>
      <trkpt lat="48.6602990" lon="14.3699810">
        <ele>610.2</ele>
        <time>2019-08-07T13:53:13Z</time>
      </trkpt>
      <trkpt lat="48.6603340" lon="14.3699830">
        <ele>610.2</ele>
        <time>2019-08-07T13:53:14Z</time>
      </trkpt>
      <trkpt lat="48.6603670" lon="14.3699830">
        <ele>610.2</ele>
        <time>2019-08-07T13:53:15Z</time>
      </trkpt>
      <trkpt lat="48.6604010" lon="14.3699820">
        <ele>610.2</ele>
        <time>2019-08-07T13:53:16Z</time>
      </trkpt>
      <trkpt lat="48.6604400" lon="14.3699830">
        <ele>610.2</ele>
        <time>2019-08-07T13:53:17Z</time>
      </trkpt>
      <trkpt lat="48.6604800" lon="14.3699880">
        <ele>610.2</ele>
        <time>2019-08-07T13:53:18Z</time>
      </trkpt>
      <trkpt lat="48.6605220" lon="14.3699930">
        <ele>610.2</ele>
        <time>2019-08-07T13:53:19Z</time>
      </trkpt>
      <trkpt lat="48.6605620" lon="14.3700020">
        <ele>610.2</ele>
        <time>2019-08-07T13:53:20Z</time>
      </trkpt>
      <trkpt lat="48.6606040" lon="14.3700100">
        <ele>610.2</ele>
        <time>2019-08-07T13:53:21Z</time>
      </trkpt>
      <trkpt lat="48.6606460" lon="14.3700150">
        <ele>610.2</ele>
        <time>2019-08-07T13:53:22Z</time>
      </trkpt>
      <trkpt lat="48.6606870" lon="14.3700180">
        <ele>610.0</ele>
        <time>2019-08-07T13:53:23Z</time>
      </trkpt>
      <trkpt lat="48.6607280" lon="14.3700210">
        <ele>610.0</ele>
        <time>2019-08-07T13:53:24Z</time>
      </trkpt>
      <trkpt lat="48.6607720" lon="14.3700240">
        <ele>610.0</ele>
        <time>2019-08-07T13:53:25Z</time>
      </trkpt>
      <trkpt lat="48.6608170" lon="14.3700250">
        <ele>610.0</ele>
        <time>2019-08-07T13:53:26Z</time>
      </trkpt>
      <trkpt lat="48.6608660" lon="14.3700260">
        <ele>610.0</ele>
        <time>2019-08-07T13:53:27Z</time>
      </trkpt>
      <trkpt lat="48.6609160" lon="14.3700280">
        <ele>610.0</ele>
        <time>2019-08-07T13:53:28Z</time>
      </trkpt>
      <trkpt lat="48.6609610" lon="14.3700280">
        <ele>610.0</ele>
        <time>2019-08-07T13:53:29Z</time>
      </trkpt>
      <trkpt lat="48.6610040" lon="14.3700340">
        <ele>610.0</ele>
        <time>2019-08-07T13:53:30Z</time>
      </trkpt>
      <trkpt lat="48.6610470" lon="14.3700440">
        <ele>610.2</ele>
        <time>2019-08-07T13:53:31Z</time>
      </trkpt>
      <trkpt lat="48.6610890" lon="14.3700520">
        <ele>610.2</ele>
        <time>2019-08-07T13:53:32Z</time>
      </trkpt>
      <trkpt lat="48.6611340" lon="14.3700600">
        <ele>610.2</ele>
        <time>2019-08-07T13:53:33Z</time>
      </trkpt>
      <trkpt lat="48.6611820" lon="14.3700710">
        <ele>610.2</ele>
        <time>2019-08-07T13:53:34Z</time>
      </trkpt>
      <trkpt lat="48.6612310" lon="14.3700790">
        <ele>610.4</ele>
        <time>2019-08-07T13:53:35Z</time>
      </trkpt>
      <trkpt lat="48.6612780" lon="14.3700810">
        <ele>610.6</ele>
        <time>2019-08-07T13:53:36Z</time>
      </trkpt>
      <trkpt lat="48.6613250" lon="14.3700850">
        <ele>610.8</ele>
        <time>2019-08-07T13:53:37Z</time>
      </trkpt>
      <trkpt lat="48.6613750" lon="14.3700900">
        <ele>611.0</ele>
        <time>2019-08-07T13:53:38Z</time>
      </trkpt>
      <trkpt lat="48.6614300" lon="14.3701000">
        <ele>611.2</ele>
        <time>2019-08-07T13:53:39Z</time>
      </trkpt>
      <trkpt lat="48.6614810" lon="14.3701140">
        <ele>611.4</ele>
        <time>2019-08-07T13:53:40Z</time>
      </trkpt>
      <trkpt lat="48.6615250" lon="14.3701290">
        <ele>611.6</ele>
        <time>2019-08-07T13:53:41Z</time>
      </trkpt>
      <trkpt lat="48.6615700" lon="14.3701440">
        <ele>611.6</ele>
        <time>2019-08-07T13:53:42Z</time>
      </trkpt>
      <trkpt lat="48.6616200" lon="14.3701590">
        <ele>611.8</ele>
        <time>2019-08-07T13:53:43Z</time>
      </trkpt>
      <trkpt lat="48.6616690" lon="14.3701770">
        <ele>612.0</ele>
        <time>2019-08-07T13:53:44Z</time>
      </trkpt>
      <trkpt lat="48.6617160" lon="14.3701950">
        <ele>612.2</ele>
        <time>2019-08-07T13:53:45Z</time>
      </trkpt>
      <trkpt lat="48.6617640" lon="14.3702130">
        <ele>612.4</ele>
        <time>2019-08-07T13:53:46Z</time>
      </trkpt>
      <trkpt lat="48.6618120" lon="14.3702300">
        <ele>612.4</ele>
        <time>2019-08-07T13:53:47Z</time>
      </trkpt>
      <trkpt lat="48.6618580" lon="14.3702460">
        <ele>612.6</ele>
        <time>2019-08-07T13:53:48Z</time>
      </trkpt>
      <trkpt lat="48.6619030" lon="14.3702610">
        <ele>612.8</ele>
        <time>2019-08-07T13:53:49Z</time>
      </trkpt>
      <trkpt lat="48.6619460" lon="14.3702770">
        <ele>613.0</ele>
        <time>2019-08-07T13:53:50Z</time>
      </trkpt>
      <trkpt lat="48.6619870" lon="14.3702910">
        <ele>613.0</ele>
        <time>2019-08-07T13:53:51Z</time>
      </trkpt>
      <trkpt lat="48.6620280" lon="14.3703070">
        <ele>613.2</ele>
        <time>2019-08-07T13:53:52Z</time>
      </trkpt>
      <trkpt lat="48.6620670" lon="14.3703300">
        <ele>613.2</ele>
        <time>2019-08-07T13:53:53Z</time>
      </trkpt>
      <trkpt lat="48.6621090" lon="14.3703570">
        <ele>613.4</ele>
        <time>2019-08-07T13:53:54Z</time>
      </trkpt>
      <trkpt lat="48.6621490" lon="14.3703820">
        <ele>613.4</ele>
        <time>2019-08-07T13:53:55Z</time>
      </trkpt>
      <trkpt lat="48.6621930" lon="14.3704110">
        <ele>613.6</ele>
        <time>2019-08-07T13:53:56Z</time>
      </trkpt>
      <trkpt lat="48.6622420" lon="14.3704470">
        <ele>613.6</ele>
        <time>2019-08-07T13:53:57Z</time>
      </trkpt>
      <trkpt lat="48.6622900" lon="14.3704830">
        <ele>613.6</ele>
        <time>2019-08-07T13:53:58Z</time>
      </trkpt>
      <trkpt lat="48.6623370" lon="14.3705160">
        <ele>613.8</ele>
        <time>2019-08-07T13:53:59Z</time>
      </trkpt>
      <trkpt lat="48.6623810" lon="14.3705480">
        <ele>613.8</ele>
        <time>2019-08-07T13:54:00Z</time>
      </trkpt>
      <trkpt lat="48.6624250" lon="14.3705770">
        <ele>613.8</ele>
        <time>2019-08-07T13:54:01Z</time>
      </trkpt>
      <trkpt lat="48.6624670" lon="14.3706000">
        <ele>613.8</ele>
        <time>2019-08-07T13:54:02Z</time>
      </trkpt>
      <trkpt lat="48.6625050" lon="14.3706180">
        <ele>613.8</ele>
        <time>2019-08-07T13:54:03Z</time>
      </trkpt>
      <trkpt lat="48.6625430" lon="14.3706390">
        <ele>613.8</ele>
        <time>2019-08-07T13:54:04Z</time>
      </trkpt>
      <trkpt lat="48.6625850" lon="14.3706640">
        <ele>613.8</ele>
        <time>2019-08-07T13:54:05Z</time>
      </trkpt>
      <trkpt lat="48.6626320" lon="14.3706920">
        <ele>613.8</ele>
        <time>2019-08-07T13:54:06Z</time>
      </trkpt>
      <trkpt lat="48.6626790" lon="14.3707260">
        <ele>613.8</ele>
        <time>2019-08-07T13:54:07Z</time>
      </trkpt>
      <trkpt lat="48.6627290" lon="14.3707590">
        <ele>613.8</ele>
        <time>2019-08-07T13:54:08Z</time>
      </trkpt>
      <trkpt lat="48.6627820" lon="14.3707930">
        <ele>613.8</ele>
        <time>2019-08-07T13:54:09Z</time>
      </trkpt>
      <trkpt lat="48.6628350" lon="14.3708210">
        <ele>613.8</ele>
        <time>2019-08-07T13:54:10Z</time>
      </trkpt>
      <trkpt lat="48.6628840" lon="14.3708430">
        <ele>613.8</ele>
        <time>2019-08-07T13:54:11Z</time>
      </trkpt>
      <trkpt lat="48.6629360" lon="14.3708720">
        <ele>613.8</ele>
        <time>2019-08-07T13:54:12Z</time>
      </trkpt>
      <trkpt lat="48.6629880" lon="14.3709060">
        <ele>613.8</ele>
        <time>2019-08-07T13:54:13Z</time>
      </trkpt>
      <trkpt lat="48.6630360" lon="14.3709390">
        <ele>613.8</ele>
        <time>2019-08-07T13:54:14Z</time>
      </trkpt>
      <trkpt lat="48.6630830" lon="14.3709700">
        <ele>613.6</ele>
        <time>2019-08-07T13:54:15Z</time>
      </trkpt>
      <trkpt lat="48.6631340" lon="14.3710010">
        <ele>613.6</ele>
        <time>2019-08-07T13:54:16Z</time>
      </trkpt>
      <trkpt lat="48.6631890" lon="14.3710360">
        <ele>613.6</ele>
        <time>2019-08-07T13:54:17Z</time>
      </trkpt>
      <trkpt lat="48.6632440" lon="14.3710690">
        <ele>613.6</ele>
        <time>2019-08-07T13:54:18Z</time>
      </trkpt>
      <trkpt lat="48.6633020" lon="14.3710990">
        <ele>613.6</ele>
        <time>2019-08-07T13:54:19Z</time>
      </trkpt>
      <trkpt lat="48.6633670" lon="14.3711400">
        <ele>613.6</ele>
        <time>2019-08-07T13:54:20Z</time>
      </trkpt>
      <trkpt lat="48.6634340" lon="14.3711950">
        <ele>613.6</ele>
        <time>2019-08-07T13:54:21Z</time>
      </trkpt>
      <trkpt lat="48.6635000" lon="14.3712510">
        <ele>613.6</ele>
        <time>2019-08-07T13:54:22Z</time>
      </trkpt>
      <trkpt lat="48.6635620" lon="14.3712990">
        <ele>613.6</ele>
        <time>2019-08-07T13:54:23Z</time>
      </trkpt>
      <trkpt lat="48.6636240" lon="14.3713500">
        <ele>613.6</ele>
        <time>2019-08-07T13:54:24Z</time>
      </trkpt>
      <trkpt lat="48.6636850" lon="14.3714000">
        <ele>613.6</ele>
        <time>2019-08-07T13:54:25Z</time>
      </trkpt>
      <trkpt lat="48.6637440" lon="14.3714420">
        <ele>613.8</ele>
        <time>2019-08-07T13:54:26Z</time>
      </trkpt>
      <trkpt lat="48.6638020" lon="14.3714830">
        <ele>613.8</ele>
        <time>2019-08-07T13:54:27Z</time>
      </trkpt>
      <trkpt lat="48.6638600" lon="14.3715290">
        <ele>614.0</ele>
        <time>2019-08-07T13:54:28Z</time>
      </trkpt>
      <trkpt lat="48.6639230" lon="14.3715790">
        <ele>614.0</ele>
        <time>2019-08-07T13:54:29Z</time>
      </trkpt>
      <trkpt lat="48.6639840" lon="14.3716260">
        <ele>614.0</ele>
        <time>2019-08-07T13:54:30Z</time>
      </trkpt>
      <trkpt lat="48.6640420" lon="14.3716680">
        <ele>614.2</ele>
        <time>2019-08-07T13:54:31Z</time>
      </trkpt>
      <trkpt lat="48.6640940" lon="14.3717040">
        <ele>614.4</ele>
        <time>2019-08-07T13:54:32Z</time>
      </trkpt>
      <trkpt lat="48.6641460" lon="14.3717430">
        <ele>614.6</ele>
        <time>2019-08-07T13:54:33Z</time>
      </trkpt>
      <trkpt lat="48.6641970" lon="14.3717790">
        <ele>614.6</ele>
        <time>2019-08-07T13:54:34Z</time>
      </trkpt>
      <trkpt lat="48.6642470" lon="14.3718110">
        <ele>614.8</ele>
        <time>2019-08-07T13:54:35Z</time>
      </trkpt>
      <trkpt lat="48.6642970" lon="14.3718420">
        <ele>615.0</ele>
        <time>2019-08-07T13:54:36Z</time>
      </trkpt>
      <trkpt lat="48.6643450" lon="14.3718730">
        <ele>615.2</ele>
        <time>2019-08-07T13:54:37Z</time>
      </trkpt>
      <trkpt lat="48.6643890" lon="14.3719050">
        <ele>615.4</ele>
        <time>2019-08-07T13:54:38Z</time>
      </trkpt>
      <trkpt lat="48.6644320" lon="14.3719330">
        <ele>615.6</ele>
        <time>2019-08-07T13:54:39Z</time>
      </trkpt>
      <trkpt lat="48.6644790" lon="14.3719630">
        <ele>615.8</ele>
        <time>2019-08-07T13:54:40Z</time>
      </trkpt>
      <trkpt lat="48.6645240" lon="14.3719930">
        <ele>616.0</ele>
        <time>2019-08-07T13:54:41Z</time>
      </trkpt>
      <trkpt lat="48.6645650" lon="14.3720210">
        <ele>616.2</ele>
        <time>2019-08-07T13:54:42Z</time>
      </trkpt>
      <trkpt lat="48.6646010" lon="14.3720450">
        <ele>616.4</ele>
        <time>2019-08-07T13:54:43Z</time>
      </trkpt>
      <trkpt lat="48.6646360" lon="14.3720670">
        <ele>616.8</ele>
        <time>2019-08-07T13:54:44Z</time>
      </trkpt>
      <trkpt lat="48.6646750" lon="14.3720920">
        <ele>617.0</ele>
        <time>2019-08-07T13:54:45Z</time>
      </trkpt>
      <trkpt lat="48.6647100" lon="14.3721210">
        <ele>617.2</ele>
        <time>2019-08-07T13:54:46Z</time>
      </trkpt>
      <trkpt lat="48.6647460" lon="14.3721530">
        <ele>617.4</ele>
        <time>2019-08-07T13:54:47Z</time>
      </trkpt>
      <trkpt lat="48.6647790" lon="14.3721880">
        <ele>617.8</ele>
        <time>2019-08-07T13:54:48Z</time>
      </trkpt>
      <trkpt lat="48.6648110" lon="14.3722210">
        <ele>618.0</ele>
        <time>2019-08-07T13:54:49Z</time>
      </trkpt>
      <trkpt lat="48.6648420" lon="14.3722460">
        <ele>618.2</ele>
        <time>2019-08-07T13:54:50Z</time>
      </trkpt>
      <trkpt lat="48.6648730" lon="14.3722650">
        <ele>618.6</ele>
        <time>2019-08-07T13:54:51Z</time>
      </trkpt>
      <trkpt lat="48.6649040" lon="14.3722820">
        <ele>618.8</ele>
        <time>2019-08-07T13:54:52Z</time>
      </trkpt>
      <trkpt lat="48.6649390" lon="14.3722960">
        <ele>619.0</ele>
        <time>2019-08-07T13:54:53Z</time>
      </trkpt>
      <trkpt lat="48.6649750" lon="14.3723120">
        <ele>619.4</ele>
        <time>2019-08-07T13:54:54Z</time>
      </trkpt>
      <trkpt lat="48.6650090" lon="14.3723300">
        <ele>619.6</ele>
        <time>2019-08-07T13:54:55Z</time>
      </trkpt>
      <trkpt lat="48.6650410" lon="14.3723500">
        <ele>619.8</ele>
        <time>2019-08-07T13:54:56Z</time>
      </trkpt>
      <trkpt lat="48.6650730" lon="14.3723700">
        <ele>620.0</ele>
        <time>2019-08-07T13:54:57Z</time>
      </trkpt>
      <trkpt lat="48.6651020" lon="14.3723870">
        <ele>620.2</ele>
        <time>2019-08-07T13:54:58Z</time>
      </trkpt>
      <trkpt lat="48.6651300" lon="14.3724040">
        <ele>620.6</ele>
        <time>2019-08-07T13:54:59Z</time>
      </trkpt>
      <trkpt lat="48.6651580" lon="14.3724240">
        <ele>620.8</ele>
        <time>2019-08-07T13:55:00Z</time>
      </trkpt>
      <trkpt lat="48.6651870" lon="14.3724390">
        <ele>621.0</ele>
        <time>2019-08-07T13:55:01Z</time>
      </trkpt>
      <trkpt lat="48.6652180" lon="14.3724520">
        <ele>621.0</ele>
        <time>2019-08-07T13:55:02Z</time>
      </trkpt>
      <trkpt lat="48.6652480" lon="14.3724650">
        <ele>621.2</ele>
        <time>2019-08-07T13:55:03Z</time>
      </trkpt>
      <trkpt lat="48.6652770" lon="14.3724800">
        <ele>621.4</ele>
        <time>2019-08-07T13:55:04Z</time>
      </trkpt>
      <trkpt lat="48.6653060" lon="14.3724960">
        <ele>621.6</ele>
        <time>2019-08-07T13:55:05Z</time>
      </trkpt>
      <trkpt lat="48.6653360" lon="14.3725150">
        <ele>621.8</ele>
        <time>2019-08-07T13:55:06Z</time>
      </trkpt>
      <trkpt lat="48.6653630" lon="14.3725350">
        <ele>622.0</ele>
        <time>2019-08-07T13:55:07Z</time>
      </trkpt>
      <trkpt lat="48.6653880" lon="14.3725520">
        <ele>622.0</ele>
        <time>2019-08-07T13:55:08Z</time>
      </trkpt>
      <trkpt lat="48.6654150" lon="14.3725650">
        <ele>622.2</ele>
        <time>2019-08-07T13:55:09Z</time>
      </trkpt>
      <trkpt lat="48.6654440" lon="14.3725780">
        <ele>622.4</ele>
        <time>2019-08-07T13:55:10Z</time>
      </trkpt>
      <trkpt lat="48.6654740" lon="14.3725940">
        <ele>622.6</ele>
        <time>2019-08-07T13:55:11Z</time>
      </trkpt>
      <trkpt lat="48.6655040" lon="14.3726120">
        <ele>622.8</ele>
        <time>2019-08-07T13:55:12Z</time>
      </trkpt>
      <trkpt lat="48.6655320" lon="14.3726290">
        <ele>623.0</ele>
        <time>2019-08-07T13:55:13Z</time>
      </trkpt>
      <trkpt lat="48.6655570" lon="14.3726440">
        <ele>623.0</ele>
        <time>2019-08-07T13:55:14Z</time>
      </trkpt>
      <trkpt lat="48.6655830" lon="14.3726610">
        <ele>623.2</ele>
        <time>2019-08-07T13:55:15Z</time>
      </trkpt>
      <trkpt lat="48.6656080" lon="14.3726750">
        <ele>623.4</ele>
        <time>2019-08-07T13:55:16Z</time>
      </trkpt>
      <trkpt lat="48.6656340" lon="14.3726880">
        <ele>623.4</ele>
        <time>2019-08-07T13:55:17Z</time>
      </trkpt>
      <trkpt lat="48.6656630" lon="14.3727050">
        <ele>623.6</ele>
        <time>2019-08-07T13:55:18Z</time>
      </trkpt>
      <trkpt lat="48.6656920" lon="14.3727220">
        <ele>623.8</ele>
        <time>2019-08-07T13:55:19Z</time>
      </trkpt>
      <trkpt lat="48.6657200" lon="14.3727350">
        <ele>623.8</ele>
        <time>2019-08-07T13:55:20Z</time>
      </trkpt>
      <trkpt lat="48.6657480" lon="14.3727480">
        <ele>624.0</ele>
        <time>2019-08-07T13:55:21Z</time>
      </trkpt>
      <trkpt lat="48.6657740" lon="14.3727630">
        <ele>624.2</ele>
        <time>2019-08-07T13:55:22Z</time>
      </trkpt>
      <trkpt lat="48.6658050" lon="14.3727820">
        <ele>624.2</ele>
        <time>2019-08-07T13:55:23Z</time>
      </trkpt>
      <trkpt lat="48.6658360" lon="14.3727990">
        <ele>624.4</ele>
        <time>2019-08-07T13:55:24Z</time>
      </trkpt>
      <trkpt lat="48.6658650" lon="14.3728140">
        <ele>624.6</ele>
        <time>2019-08-07T13:55:25Z</time>
      </trkpt>
      <trkpt lat="48.6658930" lon="14.3728290">
        <ele>624.6</ele>
        <time>2019-08-07T13:55:26Z</time>
      </trkpt>
      <trkpt lat="48.6659190" lon="14.3728450">
        <ele>624.8</ele>
        <time>2019-08-07T13:55:27Z</time>
      </trkpt>
      <trkpt lat="48.6659440" lon="14.3728590">
        <ele>624.8</ele>
        <time>2019-08-07T13:55:28Z</time>
      </trkpt>
      <trkpt lat="48.6659720" lon="14.3728720">
        <ele>625.0</ele>
        <time>2019-08-07T13:55:29Z</time>
      </trkpt>
      <trkpt lat="48.6659950" lon="14.3728830">
        <ele>625.0</ele>
        <time>2019-08-07T13:55:30Z</time>
      </trkpt>
      <trkpt lat="48.6660190" lon="14.3728950">
        <ele>625.2</ele>
        <time>2019-08-07T13:55:31Z</time>
      </trkpt>
      <trkpt lat="48.6660460" lon="14.3729170">
        <ele>625.2</ele>
        <time>2019-08-07T13:55:32Z</time>
      </trkpt>
      <trkpt lat="48.6660740" lon="14.3729420">
        <ele>625.4</ele>
        <time>2019-08-07T13:55:33Z</time>
      </trkpt>
      <trkpt lat="48.6661010" lon="14.3729620">
        <ele>625.4</ele>
        <time>2019-08-07T13:55:34Z</time>
      </trkpt>
      <trkpt lat="48.6661310" lon="14.3729830">
        <ele>625.6</ele>
        <time>2019-08-07T13:55:35Z</time>
      </trkpt>
      <trkpt lat="48.6661620" lon="14.3730100">
        <ele>625.6</ele>
        <time>2019-08-07T13:55:36Z</time>
      </trkpt>
      <trkpt lat="48.6661950" lon="14.3730350">
        <ele>625.8</ele>
        <time>2019-08-07T13:55:37Z</time>
      </trkpt>
      <trkpt lat="48.6662270" lon="14.3730520">
        <ele>625.8</ele>
        <time>2019-08-07T13:55:38Z</time>
      </trkpt>
      <trkpt lat="48.6662560" lon="14.3730670">
        <ele>625.8</ele>
        <time>2019-08-07T13:55:39Z</time>
      </trkpt>
      <trkpt lat="48.6662870" lon="14.3730880">
        <ele>626.0</ele>
        <time>2019-08-07T13:55:40Z</time>
      </trkpt>
      <trkpt lat="48.6663160" lon="14.3731180">
        <ele>626.0</ele>
        <time>2019-08-07T13:55:41Z</time>
      </trkpt>
      <trkpt lat="48.6663430" lon="14.3731480">
        <ele>626.0</ele>
        <time>2019-08-07T13:55:42Z</time>
      </trkpt>
      <trkpt lat="48.6663720" lon="14.3731720">
        <ele>626.2</ele>
        <time>2019-08-07T13:55:43Z</time>
      </trkpt>
      <trkpt lat="48.6664020" lon="14.3731960">
        <ele>626.2</ele>
        <time>2019-08-07T13:55:44Z</time>
      </trkpt>
      <trkpt lat="48.6664300" lon="14.3732170">
        <ele>626.2</ele>
        <time>2019-08-07T13:55:45Z</time>
      </trkpt>
      <trkpt lat="48.6664600" lon="14.3732360">
        <ele>626.2</ele>
        <time>2019-08-07T13:55:46Z</time>
      </trkpt>
      <trkpt lat="48.6664960" lon="14.3732570">
        <ele>626.2</ele>
        <time>2019-08-07T13:55:47Z</time>
      </trkpt>
      <trkpt lat="48.6665360" lon="14.3732790">
        <ele>626.2</ele>
        <time>2019-08-07T13:55:48Z</time>
      </trkpt>
      <trkpt lat="48.6665770" lon="14.3733030">
        <ele>626.0</ele>
        <time>2019-08-07T13:55:49Z</time>
      </trkpt>
      <trkpt lat="48.6666190" lon="14.3733280">
        <ele>626.0</ele>
        <time>2019-08-07T13:55:50Z</time>
      </trkpt>
      <trkpt lat="48.6666640" lon="14.3733550">
        <ele>625.8</ele>
        <time>2019-08-07T13:55:51Z</time>
      </trkpt>
      <trkpt lat="48.6667080" lon="14.3733800">
        <ele>625.8</ele>
        <time>2019-08-07T13:55:52Z</time>
      </trkpt>
      <trkpt lat="48.6667530" lon="14.3733980">
        <ele>625.6</ele>
        <time>2019-08-07T13:55:53Z</time>
      </trkpt>
      <trkpt lat="48.6667970" lon="14.3734120">
        <ele>625.4</ele>
        <time>2019-08-07T13:55:54Z</time>
      </trkpt>
      <trkpt lat="48.6668370" lon="14.3734260">
        <ele>625.2</ele>
        <time>2019-08-07T13:55:55Z</time>
      </trkpt>
      <trkpt lat="48.6668770" lon="14.3734400">
        <ele>625.2</ele>
        <time>2019-08-07T13:55:56Z</time>
      </trkpt>
      <trkpt lat="48.6669160" lon="14.3734530">
        <ele>625.0</ele>
        <time>2019-08-07T13:55:57Z</time>
      </trkpt>
      <trkpt lat="48.6669580" lon="14.3734670">
        <ele>624.8</ele>
        <time>2019-08-07T13:55:58Z</time>
      </trkpt>
      <trkpt lat="48.6670090" lon="14.3734870">
        <ele>624.6</ele>
        <time>2019-08-07T13:55:59Z</time>
      </trkpt>
      <trkpt lat="48.6670610" lon="14.3735050">
        <ele>624.4</ele>
        <time>2019-08-07T13:56:00Z</time>
      </trkpt>
      <trkpt lat="48.6671180" lon="14.3735200">
        <ele>624.2</ele>
        <time>2019-08-07T13:56:01Z</time>
      </trkpt>
      <trkpt lat="48.6671740" lon="14.3735300">
        <ele>624.0</ele>
        <time>2019-08-07T13:56:02Z</time>
      </trkpt>
      <trkpt lat="48.6672330" lon="14.3735340">
        <ele>623.8</ele>
        <time>2019-08-07T13:56:03Z</time>
      </trkpt>
      <trkpt lat="48.6672950" lon="14.3735320">
        <ele>623.6</ele>
        <time>2019-08-07T13:56:04Z</time>
      </trkpt>
      <trkpt lat="48.6673520" lon="14.3735210">
        <ele>623.6</ele>
        <time>2019-08-07T13:56:05Z</time>
      </trkpt>
      <trkpt lat="48.6674100" lon="14.3734980">
        <ele>623.6</ele>
        <time>2019-08-07T13:56:06Z</time>
      </trkpt>
      <trkpt lat="48.6674690" lon="14.3734670">
        <ele>623.4</ele>
        <time>2019-08-07T13:56:07Z</time>
      </trkpt>
      <trkpt lat="48.6675320" lon="14.3734330">
        <ele>623.4</ele>
        <time>2019-08-07T13:56:08Z</time>
      </trkpt>
      <trkpt lat="48.6676020" lon="14.3733930">
        <ele>623.4</ele>
        <time>2019-08-07T13:56:09Z</time>
      </trkpt>
      <trkpt lat="48.6676740" lon="14.3733450">
        <ele>623.6</ele>
        <time>2019-08-07T13:56:10Z</time>
      </trkpt>
      <trkpt lat="48.6677350" lon="14.3732940">
        <ele>623.6</ele>
        <time>2019-08-07T13:56:11Z</time>
      </trkpt>
      <trkpt lat="48.6677880" lon="14.3732400">
        <ele>623.8</ele>
        <time>2019-08-07T13:56:12Z</time>
      </trkpt>
      <trkpt lat="48.6678400" lon="14.3731940">
        <ele>623.8</ele>
        <time>2019-08-07T13:56:13Z</time>
      </trkpt>
      <trkpt lat="48.6678810" lon="14.3731490">
        <ele>624.0</ele>
        <time>2019-08-07T13:56:14Z</time>
      </trkpt>
      <trkpt lat="48.6679160" lon="14.3731070">
        <ele>624.2</ele>
        <time>2019-08-07T13:56:15Z</time>
      </trkpt>
      <trkpt lat="48.6679490" lon="14.3730730">
        <ele>624.4</ele>
        <time>2019-08-07T13:56:16Z</time>
      </trkpt>
      <trkpt lat="48.6679830" lon="14.3730400">
        <ele>624.6</ele>
        <time>2019-08-07T13:56:17Z</time>
      </trkpt>
      <trkpt lat="48.6680160" lon="14.3730030">
        <ele>624.8</ele>
        <time>2019-08-07T13:56:18Z</time>
      </trkpt>
      <trkpt lat="48.6680460" lon="14.3729710">
        <ele>625.0</ele>
        <time>2019-08-07T13:56:19Z</time>
      </trkpt>
      <trkpt lat="48.6680760" lon="14.3729410">
        <ele>625.4</ele>
        <time>2019-08-07T13:56:20Z</time>
      </trkpt>
      <trkpt lat="48.6681020" lon="14.3729100">
        <ele>625.6</ele>
        <time>2019-08-07T13:56:21Z</time>
      </trkpt>
      <trkpt lat="48.6681250" lon="14.3728830">
        <ele>625.8</ele>
        <time>2019-08-07T13:56:22Z</time>
      </trkpt>
      <trkpt lat="48.6681460" lon="14.3728590">
        <ele>626.0</ele>
        <time>2019-08-07T13:56:23Z</time>
      </trkpt>
      <trkpt lat="48.6681670" lon="14.3728340">
        <ele>626.4</ele>
        <time>2019-08-07T13:56:24Z</time>
      </trkpt>
      <trkpt lat="48.6681870" lon="14.3728060">
        <ele>626.6</ele>
        <time>2019-08-07T13:56:25Z</time>
      </trkpt>
      <trkpt lat="48.6682050" lon="14.3727760">
        <ele>626.8</ele>
        <time>2019-08-07T13:56:26Z</time>
      </trkpt>
      <trkpt lat="48.6682240" lon="14.3727450">
        <ele>626.8</ele>
        <time>2019-08-07T13:56:27Z</time>
      </trkpt>
      <trkpt lat="48.6682440" lon="14.3727140">
        <ele>627.0</ele>
        <time>2019-08-07T13:56:28Z</time>
      </trkpt>
      <trkpt lat="48.6682640" lon="14.3726870">
        <ele>627.2</ele>
        <time>2019-08-07T13:56:29Z</time>
      </trkpt>
      <trkpt lat="48.6682840" lon="14.3726610">
        <ele>627.2</ele>
        <time>2019-08-07T13:56:30Z</time>
      </trkpt>
      <trkpt lat="48.6683040" lon="14.3726360">
        <ele>627.4</ele>
        <time>2019-08-07T13:56:31Z</time>
      </trkpt>
      <trkpt lat="48.6683210" lon="14.3726110">
        <ele>627.4</ele>
        <time>2019-08-07T13:56:32Z</time>
      </trkpt>
      <trkpt lat="48.6683380" lon="14.3725880">
        <ele>627.6</ele>
        <time>2019-08-07T13:56:33Z</time>
      </trkpt>
      <trkpt lat="48.6683540" lon="14.3725650">
        <ele>627.6</ele>
        <time>2019-08-07T13:56:34Z</time>
      </trkpt>
      <trkpt lat="48.6683680" lon="14.3725400">
        <ele>627.6</ele>
        <time>2019-08-07T13:56:35Z</time>
      </trkpt>
      <trkpt lat="48.6683820" lon="14.3725110">
        <ele>627.6</ele>
        <time>2019-08-07T13:56:36Z</time>
      </trkpt>
      <trkpt lat="48.6683960" lon="14.3724830">
        <ele>627.6</ele>
        <time>2019-08-07T13:56:37Z</time>
      </trkpt>
      <trkpt lat="48.6684110" lon="14.3724550">
        <ele>627.6</ele>
        <time>2019-08-07T13:56:38Z</time>
      </trkpt>
      <trkpt lat="48.6684290" lon="14.3724280">
        <ele>627.6</ele>
        <time>2019-08-07T13:56:39Z</time>
      </trkpt>
      <trkpt lat="48.6684470" lon="14.3723970">
        <ele>627.6</ele>
        <time>2019-08-07T13:56:40Z</time>
      </trkpt>
      <trkpt lat="48.6684640" lon="14.3723650">
        <ele>627.6</ele>
        <time>2019-08-07T13:56:41Z</time>
      </trkpt>
      <trkpt lat="48.6684810" lon="14.3723320">
        <ele>627.6</ele>
        <time>2019-08-07T13:56:42Z</time>
      </trkpt>
      <trkpt lat="48.6685080" lon="14.3722810">
        <ele>627.4</ele>
        <time>2019-08-07T13:56:43Z</time>
      </trkpt>
      <trkpt lat="48.6685350" lon="14.3722340">
        <ele>627.4</ele>
        <time>2019-08-07T13:56:44Z</time>
      </trkpt>
      <trkpt lat="48.6685620" lon="14.3721840">
        <ele>627.2</ele>
        <time>2019-08-07T13:56:45Z</time>
      </trkpt>
      <trkpt lat="48.6685920" lon="14.3721290">
        <ele>627.0</ele>
        <time>2019-08-07T13:56:46Z</time>
      </trkpt>
      <trkpt lat="48.6686220" lon="14.3720690">
        <ele>626.6</ele>
        <time>2019-08-07T13:56:47Z</time>
      </trkpt>
      <trkpt lat="48.6686550" lon="14.3720030">
        <ele>626.2</ele>
        <time>2019-08-07T13:56:48Z</time>
      </trkpt>
      <trkpt lat="48.6686900" lon="14.3719350">
        <ele>625.8</ele>
        <time>2019-08-07T13:56:49Z</time>
      </trkpt>
      <trkpt lat="48.6687260" lon="14.3718620">
        <ele>625.4</ele>
        <time>2019-08-07T13:56:50Z</time>
      </trkpt>
      <trkpt lat="48.6687630" lon="14.3717870">
        <ele>624.8</ele>
        <time>2019-08-07T13:56:51Z</time>
      </trkpt>
      <trkpt lat="48.6688020" lon="14.3717080">
        <ele>624.2</ele>
        <time>2019-08-07T13:56:52Z</time>
      </trkpt>
      <trkpt lat="48.6688450" lon="14.3716270">
        <ele>623.6</ele>
        <time>2019-08-07T13:56:53Z</time>
      </trkpt>
      <trkpt lat="48.6688890" lon="14.3715410">
        <ele>623.0</ele>
        <time>2019-08-07T13:56:54Z</time>
      </trkpt>
      <trkpt lat="48.6689360" lon="14.3714470">
        <ele>622.4</ele>
        <time>2019-08-07T13:56:55Z</time>
      </trkpt>
      <trkpt lat="48.6689850" lon="14.3713500">
        <ele>621.8</ele>
        <time>2019-08-07T13:56:56Z</time>
      </trkpt>
      <trkpt lat="48.6690330" lon="14.3712530">
        <ele>621.2</ele>
        <time>2019-08-07T13:56:57Z</time>
      </trkpt>
      <trkpt lat="48.6690800" lon="14.3711550">
        <ele>620.6</ele>
        <time>2019-08-07T13:56:58Z</time>
      </trkpt>
      <trkpt lat="48.6691300" lon="14.3710580">
        <ele>619.8</ele>
        <time>2019-08-07T13:56:59Z</time>
      </trkpt>
      <trkpt lat="48.6691790" lon="14.3709670">
        <ele>619.2</ele>
        <time>2019-08-07T13:57:00Z</time>
      </trkpt>
      <trkpt lat="48.6692300" lon="14.3708760">
        <ele>618.6</ele>
        <time>2019-08-07T13:57:01Z</time>
      </trkpt>
      <trkpt lat="48.6692840" lon="14.3707900">
        <ele>617.8</ele>
        <time>2019-08-07T13:57:02Z</time>
      </trkpt>
      <trkpt lat="48.6693400" lon="14.3707070">
        <ele>617.0</ele>
        <time>2019-08-07T13:57:03Z</time>
      </trkpt>
      <trkpt lat="48.6694040" lon="14.3706230">
        <ele>616.2</ele>
        <time>2019-08-07T13:57:04Z</time>
      </trkpt>
      <trkpt lat="48.6694720" lon="14.3705440">
        <ele>615.2</ele>
        <time>2019-08-07T13:57:05Z</time>
      </trkpt>
      <trkpt lat="48.6695400" lon="14.3704690">
        <ele>614.2</ele>
        <time>2019-08-07T13:57:06Z</time>
      </trkpt>
      <trkpt lat="48.6696080" lon="14.3703960">
        <ele>613.0</ele>
        <time>2019-08-07T13:57:07Z</time>
      </trkpt>
      <trkpt lat="48.6696730" lon="14.3703240">
        <ele>612.0</ele>
        <time>2019-08-07T13:57:08Z</time>
      </trkpt>
      <trkpt lat="48.6697360" lon="14.3702540">
        <ele>610.8</ele>
        <time>2019-08-07T13:57:09Z</time>
      </trkpt>
      <trkpt lat="48.6698010" lon="14.3701870">
        <ele>609.6</ele>
        <time>2019-08-07T13:57:10Z</time>
      </trkpt>
      <trkpt lat="48.6698620" lon="14.3701220">
        <ele>608.6</ele>
        <time>2019-08-07T13:57:11Z</time>
      </trkpt>
      <trkpt lat="48.6699220" lon="14.3700580">
        <ele>607.6</ele>
        <time>2019-08-07T13:57:12Z</time>
      </trkpt>
      <trkpt lat="48.6699830" lon="14.3699880">
        <ele>606.6</ele>
        <time>2019-08-07T13:57:13Z</time>
      </trkpt>
      <trkpt lat="48.6700450" lon="14.3699120">
        <ele>605.6</ele>
        <time>2019-08-07T13:57:14Z</time>
      </trkpt>
      <trkpt lat="48.6701100" lon="14.3698340">
        <ele>604.8</ele>
        <time>2019-08-07T13:57:15Z</time>
      </trkpt>
      <trkpt lat="48.6701750" lon="14.3697580">
        <ele>603.8</ele>
        <time>2019-08-07T13:57:16Z</time>
      </trkpt>
      <trkpt lat="48.6702410" lon="14.3696840">
        <ele>602.8</ele>
        <time>2019-08-07T13:57:17Z</time>
      </trkpt>
      <trkpt lat="48.6703110" lon="14.3696120">
        <ele>601.8</ele>
        <time>2019-08-07T13:57:18Z</time>
      </trkpt>
      <trkpt lat="48.6703800" lon="14.3695380">
        <ele>600.8</ele>
        <time>2019-08-07T13:57:19Z</time>
      </trkpt>
      <trkpt lat="48.6704460" lon="14.3694600">
        <ele>599.8</ele>
        <time>2019-08-07T13:57:20Z</time>
      </trkpt>
      <trkpt lat="48.6705150" lon="14.3693770">
        <ele>599.0</ele>
        <time>2019-08-07T13:57:21Z</time>
      </trkpt>
      <trkpt lat="48.6705940" lon="14.3692880">
        <ele>598.0</ele>
        <time>2019-08-07T13:57:22Z</time>
      </trkpt>
      <trkpt lat="48.6706900" lon="14.3692060">
        <ele>597.2</ele>
        <time>2019-08-07T13:57:23Z</time>
      </trkpt>
      <trkpt lat="48.6707930" lon="14.3691410">
        <ele>596.6</ele>
        <time>2019-08-07T13:57:24Z</time>
      </trkpt>
      <trkpt lat="48.6708990" lon="14.3690750">
        <ele>596.0</ele>
        <time>2019-08-07T13:57:25Z</time>
      </trkpt>
      <trkpt lat="48.6709990" lon="14.3690120">
        <ele>595.6</ele>
        <time>2019-08-07T13:57:26Z</time>
      </trkpt>
      <trkpt lat="48.6710950" lon="14.3689520">
        <ele>595.2</ele>
        <time>2019-08-07T13:57:27Z</time>
      </trkpt>
      <trkpt lat="48.6711860" lon="14.3688880">
        <ele>595.0</ele>
        <time>2019-08-07T13:57:28Z</time>
      </trkpt>
      <trkpt lat="48.6712730" lon="14.3688140">
        <ele>594.8</ele>
        <time>2019-08-07T13:57:29Z</time>
      </trkpt>
      <trkpt lat="48.6713640" lon="14.3687470">
        <ele>594.4</ele>
        <time>2019-08-07T13:57:30Z</time>
      </trkpt>
      <trkpt lat="48.6714550" lon="14.3687090">
        <ele>594.2</ele>
        <time>2019-08-07T13:57:31Z</time>
      </trkpt>
      <trkpt lat="48.6715420" lon="14.3686880">
        <ele>594.0</ele>
        <time>2019-08-07T13:57:32Z</time>
      </trkpt>
      <trkpt lat="48.6716260" lon="14.3686640">
        <ele>593.8</ele>
        <time>2019-08-07T13:57:33Z</time>
      </trkpt>
      <trkpt lat="48.6717160" lon="14.3686390">
        <ele>593.6</ele>
        <time>2019-08-07T13:57:34Z</time>
      </trkpt>
      <trkpt lat="48.6718050" lon="14.3686210">
        <ele>593.4</ele>
        <time>2019-08-07T13:57:35Z</time>
      </trkpt>
      <trkpt lat="48.6718890" lon="14.3686030">
        <ele>593.2</ele>
        <time>2019-08-07T13:57:36Z</time>
      </trkpt>
      <trkpt lat="48.6719690" lon="14.3685830">
        <ele>593.0</ele>
        <time>2019-08-07T13:57:37Z</time>
      </trkpt>
      <trkpt lat="48.6720440" lon="14.3685620">
        <ele>593.0</ele>
        <time>2019-08-07T13:57:38Z</time>
      </trkpt>
      <trkpt lat="48.6721150" lon="14.3685420">
        <ele>593.0</ele>
        <time>2019-08-07T13:57:39Z</time>
      </trkpt>
      <trkpt lat="48.6721800" lon="14.3685220">
        <ele>593.2</ele>
        <time>2019-08-07T13:57:40Z</time>
      </trkpt>
      <trkpt lat="48.6722420" lon="14.3685070">
        <ele>593.4</ele>
        <time>2019-08-07T13:57:41Z</time>
      </trkpt>
      <trkpt lat="48.6722990" lon="14.3684920">
        <ele>593.4</ele>
        <time>2019-08-07T13:57:42Z</time>
      </trkpt>
      <trkpt lat="48.6723500" lon="14.3684770">
        <ele>593.6</ele>
        <time>2019-08-07T13:57:43Z</time>
      </trkpt>
      <trkpt lat="48.6723970" lon="14.3684640">
        <ele>593.8</ele>
        <time>2019-08-07T13:57:44Z</time>
      </trkpt>
      <trkpt lat="48.6724460" lon="14.3684520">
        <ele>594.0</ele>
        <time>2019-08-07T13:57:45Z</time>
      </trkpt>
      <trkpt lat="48.6724940" lon="14.3684380">
        <ele>594.0</ele>
        <time>2019-08-07T13:57:46Z</time>
      </trkpt>
      <trkpt lat="48.6725380" lon="14.3684240">
        <ele>594.2</ele>
        <time>2019-08-07T13:57:47Z</time>
      </trkpt>
      <trkpt lat="48.6725820" lon="14.3684120">
        <ele>594.4</ele>
        <time>2019-08-07T13:57:48Z</time>
      </trkpt>
      <trkpt lat="48.6726280" lon="14.3684030">
        <ele>594.4</ele>
        <time>2019-08-07T13:57:49Z</time>
      </trkpt>
      <trkpt lat="48.6726740" lon="14.3683920">
        <ele>594.6</ele>
        <time>2019-08-07T13:57:50Z</time>
      </trkpt>
      <trkpt lat="48.6727190" lon="14.3683820">
        <ele>594.6</ele>
        <time>2019-08-07T13:57:51Z</time>
      </trkpt>
      <trkpt lat="48.6727610" lon="14.3683750">
        <ele>594.8</ele>
        <time>2019-08-07T13:57:52Z</time>
      </trkpt>
      <trkpt lat="48.6728040" lon="14.3683710">
        <ele>594.8</ele>
        <time>2019-08-07T13:57:53Z</time>
      </trkpt>
      <trkpt lat="48.6728490" lon="14.3683660">
        <ele>595.0</ele>
        <time>2019-08-07T13:57:54Z</time>
      </trkpt>
      <trkpt lat="48.6728960" lon="14.3683590">
        <ele>595.2</ele>
        <time>2019-08-07T13:57:55Z</time>
      </trkpt>
      <trkpt lat="48.6729440" lon="14.3683540">
        <ele>595.2</ele>
        <time>2019-08-07T13:57:56Z</time>
      </trkpt>
      <trkpt lat="48.6729910" lon="14.3683490">
        <ele>595.4</ele>
        <time>2019-08-07T13:57:57Z</time>
      </trkpt>
      <trkpt lat="48.6730350" lon="14.3683420">
        <ele>595.6</ele>
        <time>2019-08-07T13:57:58Z</time>
      </trkpt>
      <trkpt lat="48.6730790" lon="14.3683360">
        <ele>595.6</ele>
        <time>2019-08-07T13:57:59Z</time>
      </trkpt>
      <trkpt lat="48.6731210" lon="14.3683280">
        <ele>595.8</ele>
        <time>2019-08-07T13:58:00Z</time>
      </trkpt>
      <trkpt lat="48.6731660" lon="14.3683190">
        <ele>596.0</ele>
        <time>2019-08-07T13:58:01Z</time>
      </trkpt>
      <trkpt lat="48.6732110" lon="14.3683080">
        <ele>596.0</ele>
        <time>2019-08-07T13:58:02Z</time>
      </trkpt>
      <trkpt lat="48.6732550" lon="14.3682970">
        <ele>596.2</ele>
        <time>2019-08-07T13:58:03Z</time>
      </trkpt>
      <trkpt lat="48.6733000" lon="14.3682830">
        <ele>596.2</ele>
        <time>2019-08-07T13:58:04Z</time>
      </trkpt>
      <trkpt lat="48.6733470" lon="14.3682710">
        <ele>596.4</ele>
        <time>2019-08-07T13:58:05Z</time>
      </trkpt>
      <trkpt lat="48.6733950" lon="14.3682580">
        <ele>596.6</ele>
        <time>2019-08-07T13:58:06Z</time>
      </trkpt>
      <trkpt lat="48.6734420" lon="14.3682460">
        <ele>596.6</ele>
        <time>2019-08-07T13:58:07Z</time>
      </trkpt>
      <trkpt lat="48.6734870" lon="14.3682360">
        <ele>596.8</ele>
        <time>2019-08-07T13:58:08Z</time>
      </trkpt>
      <trkpt lat="48.6735290" lon="14.3682300">
        <ele>596.8</ele>
        <time>2019-08-07T13:58:09Z</time>
      </trkpt>
      <trkpt lat="48.6735750" lon="14.3682240">
        <ele>597.0</ele>
        <time>2019-08-07T13:58:10Z</time>
      </trkpt>
      <trkpt lat="48.6736160" lon="14.3682180">
        <ele>597.2</ele>
        <time>2019-08-07T13:58:11Z</time>
      </trkpt>
      <trkpt lat="48.6736560" lon="14.3682140">
        <ele>597.4</ele>
        <time>2019-08-07T13:58:12Z</time>
      </trkpt>
      <trkpt lat="48.6736950" lon="14.3682090">
        <ele>597.6</ele>
        <time>2019-08-07T13:58:13Z</time>
      </trkpt>
      <trkpt lat="48.6737360" lon="14.3682000">
        <ele>597.8</ele>
        <time>2019-08-07T13:58:14Z</time>
      </trkpt>
      <trkpt lat="48.6737780" lon="14.3681890">
        <ele>598.0</ele>
        <time>2019-08-07T13:58:15Z</time>
      </trkpt>
      <trkpt lat="48.6738180" lon="14.3681800">
        <ele>598.2</ele>
        <time>2019-08-07T13:58:16Z</time>
      </trkpt>
      <trkpt lat="48.6738590" lon="14.3681710">
        <ele>598.4</ele>
        <time>2019-08-07T13:58:17Z</time>
      </trkpt>
      <trkpt lat="48.6739030" lon="14.3681620">
        <ele>598.6</ele>
        <time>2019-08-07T13:58:18Z</time>
      </trkpt>
      <trkpt lat="48.6739450" lon="14.3681510">
        <ele>598.8</ele>
        <time>2019-08-07T13:58:19Z</time>
      </trkpt>
      <trkpt lat="48.6739840" lon="14.3681410">
        <ele>599.0</ele>
        <time>2019-08-07T13:58:20Z</time>
      </trkpt>
      <trkpt lat="48.6740220" lon="14.3681350">
        <ele>599.2</ele>
        <time>2019-08-07T13:58:21Z</time>
      </trkpt>
      <trkpt lat="48.6740590" lon="14.3681290">
        <ele>599.4</ele>
        <time>2019-08-07T13:58:22Z</time>
      </trkpt>
      <trkpt lat="48.6740970" lon="14.3681230">
        <ele>599.6</ele>
        <time>2019-08-07T13:58:23Z</time>
      </trkpt>
      <trkpt lat="48.6741350" lon="14.3681170">
        <ele>600.0</ele>
        <time>2019-08-07T13:58:24Z</time>
      </trkpt>
      <trkpt lat="48.6741750" lon="14.3681120">
        <ele>600.2</ele>
        <time>2019-08-07T13:58:25Z</time>
      </trkpt>
      <trkpt lat="48.6742140" lon="14.3681080">
        <ele>600.4</ele>
        <time>2019-08-07T13:58:26Z</time>
      </trkpt>
      <trkpt lat="48.6742500" lon="14.3681040">
        <ele>600.6</ele>
        <time>2019-08-07T13:58:27Z</time>
      </trkpt>
      <trkpt lat="48.6742830" lon="14.3681030">
        <ele>600.8</ele>
        <time>2019-08-07T13:58:28Z</time>
      </trkpt>
      <trkpt lat="48.6743200" lon="14.3681020">
        <ele>601.0</ele>
        <time>2019-08-07T13:58:29Z</time>
      </trkpt>
      <trkpt lat="48.6743630" lon="14.3681010">
        <ele>601.2</ele>
        <time>2019-08-07T13:58:30Z</time>
      </trkpt>
      <trkpt lat="48.6744040" lon="14.3680970">
        <ele>601.4</ele>
        <time>2019-08-07T13:58:31Z</time>
      </trkpt>
      <trkpt lat="48.6744430" lon="14.3680900">
        <ele>601.6</ele>
        <time>2019-08-07T13:58:32Z</time>
      </trkpt>
      <trkpt lat="48.6744830" lon="14.3680880">
        <ele>601.8</ele>
        <time>2019-08-07T13:58:33Z</time>
      </trkpt>
      <trkpt lat="48.6745210" lon="14.3680860">
        <ele>602.0</ele>
        <time>2019-08-07T13:58:34Z</time>
      </trkpt>
      <trkpt lat="48.6745570" lon="14.3680840">
        <ele>602.2</ele>
        <time>2019-08-07T13:58:35Z</time>
      </trkpt>
      <trkpt lat="48.6745890" lon="14.3680770">
        <ele>602.4</ele>
        <time>2019-08-07T13:58:36Z</time>
      </trkpt>
      <trkpt lat="48.6746270" lon="14.3680660">
        <ele>602.4</ele>
        <time>2019-08-07T13:58:37Z</time>
      </trkpt>
      <trkpt lat="48.6746700" lon="14.3680580">
        <ele>602.6</ele>
        <time>2019-08-07T13:58:38Z</time>
      </trkpt>
      <trkpt lat="48.6747110" lon="14.3680530">
        <ele>602.8</ele>
        <time>2019-08-07T13:58:39Z</time>
      </trkpt>
      <trkpt lat="48.6747520" lon="14.3680520">
        <ele>603.0</ele>
        <time>2019-08-07T13:58:40Z</time>
      </trkpt>
      <trkpt lat="48.6747960" lon="14.3680510">
        <ele>603.2</ele>
        <time>2019-08-07T13:58:41Z</time>
      </trkpt>
      <trkpt lat="48.6748360" lon="14.3680510">
        <ele>603.4</ele>
        <time>2019-08-07T13:58:42Z</time>
      </trkpt>
      <trkpt lat="48.6748750" lon="14.3680520">
        <ele>603.4</ele>
        <time>2019-08-07T13:58:43Z</time>
      </trkpt>
      <trkpt lat="48.6749150" lon="14.3680520">
        <ele>603.6</ele>
        <time>2019-08-07T13:58:44Z</time>
      </trkpt>
      <trkpt lat="48.6749560" lon="14.3680520">
        <ele>603.8</ele>
        <time>2019-08-07T13:58:45Z</time>
      </trkpt>
      <trkpt lat="48.6749990" lon="14.3680520">
        <ele>603.8</ele>
        <time>2019-08-07T13:58:46Z</time>
      </trkpt>
      <trkpt lat="48.6750390" lon="14.3680530">
        <ele>604.0</ele>
        <time>2019-08-07T13:58:47Z</time>
      </trkpt>
      <trkpt lat="48.6750750" lon="14.3680520">
        <ele>604.0</ele>
        <time>2019-08-07T13:58:48Z</time>
      </trkpt>
      <trkpt lat="48.6751090" lon="14.3680520">
        <ele>604.2</ele>
        <time>2019-08-07T13:58:49Z</time>
      </trkpt>
      <trkpt lat="48.6751460" lon="14.3680550">
        <ele>604.2</ele>
        <time>2019-08-07T13:58:50Z</time>
      </trkpt>
      <trkpt lat="48.6751970" lon="14.3680620">
        <ele>604.2</ele>
        <time>2019-08-07T13:58:51Z</time>
      </trkpt>
      <trkpt lat="48.6752440" lon="14.3680690">
        <ele>604.2</ele>
        <time>2019-08-07T13:58:52Z</time>
      </trkpt>
      <trkpt lat="48.6752950" lon="14.3680760">
        <ele>604.2</ele>
        <time>2019-08-07T13:58:53Z</time>
      </trkpt>
      <trkpt lat="48.6753450" lon="14.3680850">
        <ele>604.2</ele>
        <time>2019-08-07T13:58:54Z</time>
      </trkpt>
      <trkpt lat="48.6753960" lon="14.3680920">
        <ele>604.2</ele>
        <time>2019-08-07T13:58:55Z</time>
      </trkpt>
      <trkpt lat="48.6754500" lon="14.3680970">
        <ele>604.2</ele>
        <time>2019-08-07T13:58:56Z</time>
      </trkpt>
      <trkpt lat="48.6755040" lon="14.3680970">
        <ele>604.2</ele>
        <time>2019-08-07T13:58:57Z</time>
      </trkpt>
      <trkpt lat="48.6755560" lon="14.3680930">
        <ele>604.2</ele>
        <time>2019-08-07T13:58:58Z</time>
      </trkpt>
      <trkpt lat="48.6756060" lon="14.3680810">
        <ele>604.2</ele>
        <time>2019-08-07T13:58:59Z</time>
      </trkpt>
      <trkpt lat="48.6756500" lon="14.3680510">
        <ele>604.2</ele>
        <time>2019-08-07T13:59:00Z</time>
      </trkpt>
      <trkpt lat="48.6756880" lon="14.3680030">
        <ele>604.4</ele>
        <time>2019-08-07T13:59:01Z</time>
      </trkpt>
      <trkpt lat="48.6757200" lon="14.3679480">
        <ele>604.4</ele>
        <time>2019-08-07T13:59:02Z</time>
      </trkpt>
      <trkpt lat="48.6757450" lon="14.3678870">
        <ele>604.4</ele>
        <time>2019-08-07T13:59:03Z</time>
      </trkpt>
      <trkpt lat="48.6757670" lon="14.3678250">
        <ele>604.4</ele>
        <time>2019-08-07T13:59:04Z</time>
      </trkpt>
      <trkpt lat="48.6757870" lon="14.3677620">
        <ele>604.4</ele>
        <time>2019-08-07T13:59:05Z</time>
      </trkpt>
      <trkpt lat="48.6758090" lon="14.3676990">
        <ele>604.4</ele>
        <time>2019-08-07T13:59:06Z</time>
      </trkpt>
      <trkpt lat="48.6758320" lon="14.3676390">
        <ele>604.4</ele>
        <time>2019-08-07T13:59:07Z</time>
      </trkpt>
      <trkpt lat="48.6758550" lon="14.3675780">
        <ele>604.6</ele>
        <time>2019-08-07T13:59:08Z</time>
      </trkpt>
      <trkpt lat="48.6758790" lon="14.3675170">
        <ele>604.8</ele>
        <time>2019-08-07T13:59:09Z</time>
      </trkpt>
      <trkpt lat="48.6759020" lon="14.3674610">
        <ele>604.8</ele>
        <time>2019-08-07T13:59:10Z</time>
      </trkpt>
      <trkpt lat="48.6759250" lon="14.3674140">
        <ele>605.0</ele>
        <time>2019-08-07T13:59:11Z</time>
      </trkpt>
      <trkpt lat="48.6759460" lon="14.3673720">
        <ele>605.2</ele>
        <time>2019-08-07T13:59:12Z</time>
      </trkpt>
      <trkpt lat="48.6759660" lon="14.3673310">
        <ele>605.2</ele>
        <time>2019-08-07T13:59:13Z</time>
      </trkpt>
      <trkpt lat="48.6759820" lon="14.3672950">
        <ele>605.4</ele>
        <time>2019-08-07T13:59:14Z</time>
      </trkpt>
      <trkpt lat="48.6759970" lon="14.3672630">
        <ele>605.6</ele>
        <time>2019-08-07T13:59:15Z</time>
      </trkpt>
      <trkpt lat="48.6760130" lon="14.3672330">
        <ele>605.8</ele>
        <time>2019-08-07T13:59:16Z</time>
      </trkpt>
      <trkpt lat="48.6760290" lon="14.3672010">
        <ele>606.0</ele>
        <time>2019-08-07T13:59:17Z</time>
      </trkpt>
      <trkpt lat="48.6760420" lon="14.3671710">
        <ele>606.2</ele>
        <time>2019-08-07T13:59:18Z</time>
      </trkpt>
      <trkpt lat="48.6760520" lon="14.3671400">
        <ele>606.4</ele>
        <time>2019-08-07T13:59:19Z</time>
      </trkpt>
      <trkpt lat="48.6760630" lon="14.3671050">
        <ele>606.6</ele>
        <time>2019-08-07T13:59:20Z</time>
      </trkpt>
      <trkpt lat="48.6760740" lon="14.3670700">
        <ele>606.8</ele>
        <time>2019-08-07T13:59:21Z</time>
      </trkpt>
      <trkpt lat="48.6760870" lon="14.3670390">
        <ele>607.0</ele>
        <time>2019-08-07T13:59:22Z</time>
      </trkpt>
      <trkpt lat="48.6761020" lon="14.3670140">
        <ele>607.2</ele>
        <time>2019-08-07T13:59:23Z</time>
      </trkpt>
      <trkpt lat="48.6761170" lon="14.3669910">
        <ele>607.6</ele>
        <time>2019-08-07T13:59:24Z</time>
      </trkpt>
      <trkpt lat="48.6761320" lon="14.3669650">
        <ele>607.8</ele>
        <time>2019-08-07T13:59:25Z</time>
      </trkpt>
      <trkpt lat="48.6761480" lon="14.3669390">
        <ele>608.0</ele>
        <time>2019-08-07T13:59:26Z</time>
      </trkpt>
      <trkpt lat="48.6761670" lon="14.3669140">
        <ele>608.2</ele>
        <time>2019-08-07T13:59:27Z</time>
      </trkpt>
      <trkpt lat="48.6761870" lon="14.3668880">
        <ele>608.4</ele>
        <time>2019-08-07T13:59:28Z</time>
      </trkpt>
      <trkpt lat="48.6762020" lon="14.3668650">
        <ele>608.6</ele>
        <time>2019-08-07T13:59:29Z</time>
      </trkpt>
      <trkpt lat="48.6762130" lon="14.3668480">
        <ele>608.8</ele>
        <time>2019-08-07T13:59:30Z</time>
      </trkpt>
      <trkpt lat="48.6762420" lon="14.3668060">
        <ele>609.2</ele>
        <time>2019-08-07T13:59:31Z</time>
      </trkpt>
      <trkpt lat="48.6762620" lon="14.3667830">
        <ele>609.4</ele>
        <time>2019-08-07T13:59:32Z</time>
      </trkpt>
      <trkpt lat="48.6762800" lon="14.3667640">
        <ele>609.8</ele>
        <time>2019-08-07T13:59:33Z</time>
      </trkpt>
      <trkpt lat="48.6762990" lon="14.3667430">
        <ele>610.0</ele>
        <time>2019-08-07T13:59:34Z</time>
      </trkpt>
      <trkpt lat="48.6763160" lon="14.3667250">
        <ele>610.2</ele>
        <time>2019-08-07T13:59:35Z</time>
      </trkpt>
      <trkpt lat="48.6763330" lon="14.3667050">
        <ele>610.6</ele>
        <time>2019-08-07T13:59:36Z</time>
      </trkpt>
      <trkpt lat="48.6763530" lon="14.3666860">
        <ele>610.8</ele>
        <time>2019-08-07T13:59:37Z</time>
      </trkpt>
      <trkpt lat="48.6763730" lon="14.3666740">
        <ele>611.0</ele>
        <time>2019-08-07T13:59:38Z</time>
      </trkpt>
      <trkpt lat="48.6763900" lon="14.3666680">
        <ele>611.4</ele>
        <time>2019-08-07T13:59:39Z</time>
      </trkpt>
      <trkpt lat="48.6764080" lon="14.3666630">
        <ele>611.6</ele>
        <time>2019-08-07T13:59:40Z</time>
      </trkpt>
      <trkpt lat="48.6764280" lon="14.3666560">
        <ele>611.8</ele>
        <time>2019-08-07T13:59:41Z</time>
      </trkpt>
      <trkpt lat="48.6764480" lon="14.3666510">
        <ele>612.0</ele>
        <time>2019-08-07T13:59:42Z</time>
      </trkpt>
      <trkpt lat="48.6764630" lon="14.3666480">
        <ele>612.4</ele>
        <time>2019-08-07T13:59:43Z</time>
      </trkpt>
      <trkpt lat="48.6764840" lon="14.3666460">
        <ele>612.6</ele>
        <time>2019-08-07T13:59:44Z</time>
      </trkpt>
      <trkpt lat="48.6764930" lon="14.3666440">
        <ele>612.8</ele>
        <time>2019-08-07T13:59:45Z</time>
      </trkpt>
      <trkpt lat="48.6765030" lon="14.3666430">
        <ele>613.2</ele>
        <time>2019-08-07T13:59:46Z</time>
      </trkpt>
      <trkpt lat="48.6765220" lon="14.3666460">
        <ele>613.4</ele>
        <time>2019-08-07T13:59:47Z</time>
      </trkpt>
      <trkpt lat="48.6765400" lon="14.3666510">
        <ele>613.6</ele>
        <time>2019-08-07T13:59:48Z</time>
      </trkpt>
      <trkpt lat="48.6765570" lon="14.3666590">
        <ele>613.8</ele>
        <time>2019-08-07T13:59:49Z</time>
      </trkpt>
      <trkpt lat="48.6765730" lon="14.3666670">
        <ele>614.2</ele>
        <time>2019-08-07T13:59:50Z</time>
      </trkpt>
      <trkpt lat="48.6765910" lon="14.3666730">
        <ele>614.4</ele>
        <time>2019-08-07T13:59:51Z</time>
      </trkpt>
      <trkpt lat="48.6766080" lon="14.3666780">
        <ele>614.6</ele>
        <time>2019-08-07T13:59:52Z</time>
      </trkpt>
      <trkpt lat="48.6766250" lon="14.3666800">
        <ele>614.8</ele>
        <time>2019-08-07T13:59:53Z</time>
      </trkpt>
      <trkpt lat="48.6766420" lon="14.3666810">
        <ele>615.2</ele>
        <time>2019-08-07T13:59:54Z</time>
      </trkpt>
      <trkpt lat="48.6766570" lon="14.3666860">
        <ele>615.4</ele>
        <time>2019-08-07T13:59:55Z</time>
      </trkpt>
      <trkpt lat="48.6766710" lon="14.3666930">
        <ele>615.6</ele>
        <time>2019-08-07T13:59:56Z</time>
      </trkpt>
      <trkpt lat="48.6766830" lon="14.3666960">
        <ele>616.0</ele>
        <time>2019-08-07T13:59:57Z</time>
      </trkpt>
      <trkpt lat="48.6766970" lon="14.3666980">
        <ele>616.2</ele>
        <time>2019-08-07T13:59:58Z</time>
      </trkpt>
      <trkpt lat="48.6767120" lon="14.3667020">
        <ele>616.4</ele>
        <time>2019-08-07T13:59:59Z</time>
      </trkpt>
      <trkpt lat="48.6767240" lon="14.3667060">
        <ele>616.8</ele>
        <time>2019-08-07T14:00:00Z</time>
      </trkpt>
      <trkpt lat="48.6767370" lon="14.3667100">
        <ele>617.0</ele>
        <time>2019-08-07T14:00:01Z</time>
      </trkpt>
      <trkpt lat="48.6767490" lon="14.3667160">
        <ele>617.2</ele>
        <time>2019-08-07T14:00:02Z</time>
      </trkpt>
      <trkpt lat="48.6767610" lon="14.3667250">
        <ele>617.4</ele>
        <time>2019-08-07T14:00:03Z</time>
      </trkpt>
      <trkpt lat="48.6767750" lon="14.3667320">
        <ele>617.8</ele>
        <time>2019-08-07T14:00:04Z</time>
      </trkpt>
      <trkpt lat="48.6767910" lon="14.3667390">
        <ele>618.0</ele>
        <time>2019-08-07T14:00:05Z</time>
      </trkpt>
      <trkpt lat="48.6768070" lon="14.3667430">
        <ele>618.2</ele>
        <time>2019-08-07T14:00:06Z</time>
      </trkpt>
      <trkpt lat="48.6768210" lon="14.3667460">
        <ele>618.4</ele>
        <time>2019-08-07T14:00:07Z</time>
      </trkpt>
      <trkpt lat="48.6768310" lon="14.3667510">
        <ele>618.8</ele>
        <time>2019-08-07T14:00:08Z</time>
      </trkpt>
      <trkpt lat="48.6768420" lon="14.3667590">
        <ele>619.0</ele>
        <time>2019-08-07T14:00:09Z</time>
      </trkpt>
      <trkpt lat="48.6768560" lon="14.3667700">
        <ele>619.2</ele>
        <time>2019-08-07T14:00:10Z</time>
      </trkpt>
      <trkpt lat="48.6768630" lon="14.3667750">
        <ele>619.4</ele>
        <time>2019-08-07T14:00:11Z</time>
      </trkpt>
      <trkpt lat="48.6768630" lon="14.3667750">
        <ele>619.6</ele>
        <time>2019-08-07T14:00:12Z</time>
      </trkpt>
      <trkpt lat="48.6768760" lon="14.3667830">
        <ele>620.0</ele>
        <time>2019-08-07T14:00:13Z</time>
      </trkpt>
      <trkpt lat="48.6769080" lon="14.3668000">
        <ele>620.2</ele>
        <time>2019-08-07T14:00:14Z</time>
      </trkpt>
      <trkpt lat="48.6769220" lon="14.3668050">
        <ele>620.4</ele>
        <time>2019-08-07T14:00:15Z</time>
      </trkpt>
      <trkpt lat="48.6769330" lon="14.3668110">
        <ele>620.6</ele>
        <time>2019-08-07T14:00:16Z</time>
      </trkpt>
      <trkpt lat="48.6769450" lon="14.3668200">
        <ele>620.8</ele>
        <time>2019-08-07T14:00:17Z</time>
      </trkpt>
      <trkpt lat="48.6769580" lon="14.3668260">
        <ele>621.2</ele>
        <time>2019-08-07T14:00:18Z</time>
      </trkpt>
      <trkpt lat="48.6769690" lon="14.3668280">
        <ele>621.4</ele>
        <time>2019-08-07T14:00:19Z</time>
      </trkpt>
      <trkpt lat="48.6769790" lon="14.3668300">
        <ele>621.6</ele>
        <time>2019-08-07T14:00:20Z</time>
      </trkpt>
      <trkpt lat="48.6769870" lon="14.3668330">
        <ele>622.0</ele>
        <time>2019-08-07T14:00:21Z</time>
      </trkpt>
      <trkpt lat="48.6769870" lon="14.3668330">
        <ele>622.2</ele>
        <time>2019-08-07T14:00:22Z</time>
      </trkpt>
      <trkpt lat="48.6770030" lon="14.3668370">
        <ele>622.4</ele>
        <time>2019-08-07T14:00:23Z</time>
      </trkpt>
      <trkpt lat="48.6770380" lon="14.3668430">
        <ele>622.8</ele>
        <time>2019-08-07T14:00:24Z</time>
      </trkpt>
      <trkpt lat="48.6770520" lon="14.3668410">
        <ele>623.0</ele>
        <time>2019-08-07T14:00:25Z</time>
      </trkpt>
      <trkpt lat="48.6770640" lon="14.3668410">
        <ele>623.2</ele>
        <time>2019-08-07T14:00:26Z</time>
      </trkpt>
      <trkpt lat="48.6770780" lon="14.3668430">
        <ele>623.4</ele>
        <time>2019-08-07T14:00:27Z</time>
      </trkpt>
      <trkpt lat="48.6770890" lon="14.3668460">
        <ele>623.8</ele>
        <time>2019-08-07T14:00:28Z</time>
      </trkpt>
      <trkpt lat="48.6771000" lon="14.3668470">
        <ele>624.0</ele>
        <time>2019-08-07T14:00:29Z</time>
      </trkpt>
      <trkpt lat="48.6771120" lon="14.3668520">
        <ele>624.2</ele>
        <time>2019-08-07T14:00:30Z</time>
      </trkpt>
      <trkpt lat="48.6771290" lon="14.3668590">
        <ele>624.4</ele>
        <time>2019-08-07T14:00:31Z</time>
      </trkpt>
      <trkpt lat="48.6771440" lon="14.3668630">
        <ele>624.6</ele>
        <time>2019-08-07T14:00:32Z</time>
      </trkpt>
      <trkpt lat="48.6771580" lon="14.3668710">
        <ele>624.8</ele>
        <time>2019-08-07T14:00:33Z</time>
      </trkpt>
      <trkpt lat="48.6771710" lon="14.3668790">
        <ele>625.2</ele>
        <time>2019-08-07T14:00:34Z</time>
      </trkpt>
      <trkpt lat="48.6771850" lon="14.3668850">
        <ele>625.4</ele>
        <time>2019-08-07T14:00:35Z</time>
      </trkpt>
      <trkpt lat="48.6772010" lon="14.3668900">
        <ele>625.6</ele>
        <time>2019-08-07T14:00:36Z</time>
      </trkpt>
      <trkpt lat="48.6772210" lon="14.3668960">
        <ele>625.8</ele>
        <time>2019-08-07T14:00:37Z</time>
      </trkpt>
      <trkpt lat="48.6772370" lon="14.3669010">
        <ele>626.0</ele>
        <time>2019-08-07T14:00:38Z</time>
      </trkpt>
      <trkpt lat="48.6772510" lon="14.3669030">
        <ele>626.2</ele>
        <time>2019-08-07T14:00:39Z</time>
      </trkpt>
      <trkpt lat="48.6772640" lon="14.3669070">
        <ele>626.4</ele>
        <time>2019-08-07T14:00:40Z</time>
      </trkpt>
      <trkpt lat="48.6772800" lon="14.3669130">
        <ele>626.8</ele>
        <time>2019-08-07T14:00:41Z</time>
      </trkpt>
      <trkpt lat="48.6772950" lon="14.3669130">
        <ele>627.0</ele>
        <time>2019-08-07T14:00:42Z</time>
      </trkpt>
      <trkpt lat="48.6773140" lon="14.3669150">
        <ele>627.2</ele>
        <time>2019-08-07T14:00:43Z</time>
      </trkpt>
      <trkpt lat="48.6773320" lon="14.3669160">
        <ele>627.4</ele>
        <time>2019-08-07T14:00:44Z</time>
      </trkpt>
      <trkpt lat="48.6773470" lon="14.3669160">
        <ele>627.6</ele>
        <time>2019-08-07T14:00:45Z</time>
      </trkpt>
      <trkpt lat="48.6773620" lon="14.3669160">
        <ele>628.0</ele>
        <time>2019-08-07T14:00:46Z</time>
      </trkpt>
      <trkpt lat="48.6773800" lon="14.3669170">
        <ele>628.2</ele>
        <time>2019-08-07T14:00:47Z</time>
      </trkpt>
      <trkpt lat="48.6773960" lon="14.3669150">
        <ele>628.4</ele>
        <time>2019-08-07T14:00:48Z</time>
      </trkpt>
      <trkpt lat="48.6774110" lon="14.3669150">
        <ele>628.6</ele>
        <time>2019-08-07T14:00:49Z</time>
      </trkpt>
      <trkpt lat="48.6774270" lon="14.3669140">
        <ele>628.8</ele>
        <time>2019-08-07T14:00:50Z</time>
      </trkpt>
      <trkpt lat="48.6774440" lon="14.3669120">
        <ele>629.0</ele>
        <time>2019-08-07T14:00:51Z</time>
      </trkpt>
      <trkpt lat="48.6774600" lon="14.3669110">
        <ele>629.2</ele>
        <time>2019-08-07T14:00:52Z</time>
      </trkpt>
      <trkpt lat="48.6774770" lon="14.3669150">
        <ele>629.6</ele>
        <time>2019-08-07T14:00:53Z</time>
      </trkpt>
      <trkpt lat="48.6774910" lon="14.3669170">
        <ele>629.8</ele>
        <time>2019-08-07T14:00:54Z</time>
      </trkpt>
      <trkpt lat="48.6775080" lon="14.3669200">
        <ele>630.0</ele>
        <time>2019-08-07T14:00:55Z</time>
      </trkpt>
      <trkpt lat="48.6775240" lon="14.3669230">
        <ele>630.2</ele>
        <time>2019-08-07T14:00:56Z</time>
      </trkpt>
      <trkpt lat="48.6775400" lon="14.3669270">
        <ele>630.4</ele>
        <time>2019-08-07T14:00:57Z</time>
      </trkpt>
      <trkpt lat="48.6775550" lon="14.3669270">
        <ele>630.6</ele>
        <time>2019-08-07T14:00:58Z</time>
      </trkpt>
      <trkpt lat="48.6775720" lon="14.3669230">
        <ele>630.8</ele>
        <time>2019-08-07T14:00:59Z</time>
      </trkpt>
      <trkpt lat="48.6775880" lon="14.3669190">
        <ele>631.0</ele>
        <time>2019-08-07T14:01:00Z</time>
      </trkpt>
      <trkpt lat="48.6776080" lon="14.3669170">
        <ele>631.2</ele>
        <time>2019-08-07T14:01:01Z</time>
      </trkpt>
      <trkpt lat="48.6776270" lon="14.3669140">
        <ele>631.4</ele>
        <time>2019-08-07T14:01:02Z</time>
      </trkpt>
      <trkpt lat="48.6776470" lon="14.3669100">
        <ele>631.6</ele>
        <time>2019-08-07T14:01:03Z</time>
      </trkpt>
      <trkpt lat="48.6776650" lon="14.3669060">
        <ele>631.6</ele>
        <time>2019-08-07T14:01:04Z</time>
      </trkpt>
      <trkpt lat="48.6776830" lon="14.3669000">
        <ele>631.8</ele>
        <time>2019-08-07T14:01:05Z</time>
      </trkpt>
      <trkpt lat="48.6776980" lon="14.3668960">
        <ele>632.0</ele>
        <time>2019-08-07T14:01:06Z</time>
      </trkpt>
      <trkpt lat="48.6777100" lon="14.3668950">
        <ele>632.2</ele>
        <time>2019-08-07T14:01:07Z</time>
      </trkpt>
      <trkpt lat="48.6777240" lon="14.3668930">
        <ele>632.2</ele>
        <time>2019-08-07T14:01:08Z</time>
      </trkpt>
      <trkpt lat="48.6777420" lon="14.3668890">
        <ele>632.4</ele>
        <time>2019-08-07T14:01:09Z</time>
      </trkpt>
      <trkpt lat="48.6777580" lon="14.3668880">
        <ele>632.4</ele>
        <time>2019-08-07T14:01:10Z</time>
      </trkpt>
      <trkpt lat="48.6777790" lon="14.3668850">
        <ele>632.6</ele>
        <time>2019-08-07T14:01:11Z</time>
      </trkpt>
      <trkpt lat="48.6778020" lon="14.3668790">
        <ele>632.8</ele>
        <time>2019-08-07T14:01:12Z</time>
      </trkpt>
      <trkpt lat="48.6778250" lon="14.3668700">
        <ele>633.0</ele>
        <time>2019-08-07T14:01:13Z</time>
      </trkpt>
      <trkpt lat="48.6778480" lon="14.3668630">
        <ele>633.0</ele>
        <time>2019-08-07T14:01:14Z</time>
      </trkpt>
      <trkpt lat="48.6778700" lon="14.3668560">
        <ele>633.2</ele>
        <time>2019-08-07T14:01:15Z</time>
      </trkpt>
      <trkpt lat="48.6778950" lon="14.3668480">
        <ele>633.4</ele>
        <time>2019-08-07T14:01:16Z</time>
      </trkpt>
      <trkpt lat="48.6779220" lon="14.3668400">
        <ele>633.4</ele>
        <time>2019-08-07T14:01:17Z</time>
      </trkpt>
      <trkpt lat="48.6779490" lon="14.3668290">
        <ele>633.6</ele>
        <time>2019-08-07T14:01:18Z</time>
      </trkpt>
      <trkpt lat="48.6779760" lon="14.3668180">
        <ele>633.8</ele>
        <time>2019-08-07T14:01:19Z</time>
      </trkpt>
      <trkpt lat="48.6780030" lon="14.3668070">
        <ele>634.0</ele>
        <time>2019-08-07T14:01:20Z</time>
      </trkpt>
      <trkpt lat="48.6780320" lon="14.3667950">
        <ele>634.2</ele>
        <time>2019-08-07T14:01:21Z</time>
      </trkpt>
      <trkpt lat="48.6780600" lon="14.3667860">
        <ele>634.4</ele>
        <time>2019-08-07T14:01:22Z</time>
      </trkpt>
      <trkpt lat="48.6780860" lon="14.3667800">
        <ele>634.4</ele>
        <time>2019-08-07T14:01:23Z</time>
      </trkpt>
      <trkpt lat="48.6781120" lon="14.3667760">
        <ele>634.6</ele>
        <time>2019-08-07T14:01:24Z</time>
      </trkpt>
      <trkpt lat="48.6781380" lon="14.3667690">
        <ele>634.8</ele>
        <time>2019-08-07T14:01:25Z</time>
      </trkpt>
      <trkpt lat="48.6781650" lon="14.3667630">
        <ele>635.0</ele>
        <time>2019-08-07T14:01:26Z</time>
      </trkpt>
      <trkpt lat="48.6781960" lon="14.3667560">
        <ele>635.2</ele>
        <time>2019-08-07T14:01:27Z</time>
      </trkpt>
      <trkpt lat="48.6782280" lon="14.3667510">
        <ele>635.4</ele>
        <time>2019-08-07T14:01:28Z</time>
      </trkpt>
      <trkpt lat="48.6782570" lon="14.3667460">
        <ele>635.4</ele>
        <time>2019-08-07T14:01:29Z</time>
      </trkpt>
      <trkpt lat="48.6782870" lon="14.3667410">
        <ele>635.6</ele>
        <time>2019-08-07T14:01:30Z</time>
      </trkpt>
      <trkpt lat="48.6783180" lon="14.3667370">
        <ele>635.8</ele>
        <time>2019-08-07T14:01:31Z</time>
      </trkpt>
      <trkpt lat="48.6783470" lon="14.3667320">
        <ele>636.0</ele>
        <time>2019-08-07T14:01:32Z</time>
      </trkpt>
      <trkpt lat="48.6783780" lon="14.3667270">
        <ele>636.0</ele>
        <time>2019-08-07T14:01:33Z</time>
      </trkpt>
      <trkpt lat="48.6784080" lon="14.3667230">
        <ele>636.2</ele>
        <time>2019-08-07T14:01:34Z</time>
      </trkpt>
      <trkpt lat="48.6784360" lon="14.3667190">
        <ele>636.4</ele>
        <time>2019-08-07T14:01:35Z</time>
      </trkpt>
      <trkpt lat="48.6784650" lon="14.3667170">
        <ele>636.4</ele>
        <time>2019-08-07T14:01:36Z</time>
      </trkpt>
      <trkpt lat="48.6784960" lon="14.3667110">
        <ele>636.6</ele>
        <time>2019-08-07T14:01:37Z</time>
      </trkpt>
      <trkpt lat="48.6785250" lon="14.3667070">
        <ele>636.8</ele>
        <time>2019-08-07T14:01:38Z</time>
      </trkpt>
      <trkpt lat="48.6785560" lon="14.3667010">
        <ele>637.0</ele>
        <time>2019-08-07T14:01:39Z</time>
      </trkpt>
      <trkpt lat="48.6785870" lon="14.3666980">
        <ele>637.0</ele>
        <time>2019-08-07T14:01:40Z</time>
      </trkpt>
      <trkpt lat="48.6786180" lon="14.3666990">
        <ele>637.2</ele>
        <time>2019-08-07T14:01:41Z</time>
      </trkpt>
      <trkpt lat="48.6786520" lon="14.3667020">
        <ele>637.4</ele>
        <time>2019-08-07T14:01:42Z</time>
      </trkpt>
      <trkpt lat="48.6786850" lon="14.3667080">
        <ele>637.6</ele>
        <time>2019-08-07T14:01:43Z</time>
      </trkpt>
      <trkpt lat="48.6787170" lon="14.3667150">
        <ele>637.8</ele>
        <time>2019-08-07T14:01:44Z</time>
      </trkpt>
      <trkpt lat="48.6787490" lon="14.3667170">
        <ele>638.0</ele>
        <time>2019-08-07T14:01:45Z</time>
      </trkpt>
      <trkpt lat="48.6787800" lon="14.3667190">
        <ele>638.2</ele>
        <time>2019-08-07T14:01:46Z</time>
      </trkpt>
      <trkpt lat="48.6788110" lon="14.3667200">
        <ele>638.4</ele>
        <time>2019-08-07T14:01:47Z</time>
      </trkpt>
      <trkpt lat="48.6788380" lon="14.3667190">
        <ele>638.8</ele>
        <time>2019-08-07T14:01:48Z</time>
      </trkpt>
      <trkpt lat="48.6788630" lon="14.3667190">
        <ele>639.0</ele>
        <time>2019-08-07T14:01:49Z</time>
      </trkpt>
      <trkpt lat="48.6788910" lon="14.3667200">
        <ele>639.2</ele>
        <time>2019-08-07T14:01:50Z</time>
      </trkpt>
      <trkpt lat="48.6789190" lon="14.3667200">
        <ele>639.6</ele>
        <time>2019-08-07T14:01:51Z</time>
      </trkpt>
      <trkpt lat="48.6789470" lon="14.3667210">
        <ele>639.8</ele>
        <time>2019-08-07T14:01:52Z</time>
      </trkpt>
      <trkpt lat="48.6789760" lon="14.3667230">
        <ele>640.0</ele>
        <time>2019-08-07T14:01:53Z</time>
      </trkpt>
      <trkpt lat="48.6790030" lon="14.3667260">
        <ele>640.4</ele>
        <time>2019-08-07T14:01:54Z</time>
      </trkpt>
      <trkpt lat="48.6790270" lon="14.3667280">
        <ele>640.6</ele>
        <time>2019-08-07T14:01:55Z</time>
      </trkpt>
      <trkpt lat="48.6790520" lon="14.3667300">
        <ele>641.0</ele>
        <time>2019-08-07T14:01:56Z</time>
      </trkpt>
      <trkpt lat="48.6790810" lon="14.3667320">
        <ele>641.2</ele>
        <time>2019-08-07T14:01:57Z</time>
      </trkpt>
      <trkpt lat="48.6791060" lon="14.3667330">
        <ele>641.6</ele>
        <time>2019-08-07T14:01:58Z</time>
      </trkpt>
      <trkpt lat="48.6791310" lon="14.3667400">
        <ele>641.8</ele>
        <time>2019-08-07T14:01:59Z</time>
      </trkpt>
      <trkpt lat="48.6791560" lon="14.3667470">
        <ele>642.2</ele>
        <time>2019-08-07T14:02:00Z</time>
      </trkpt>
      <trkpt lat="48.6791790" lon="14.3667530">
        <ele>642.4</ele>
        <time>2019-08-07T14:02:01Z</time>
      </trkpt>
      <trkpt lat="48.6792030" lon="14.3667560">
        <ele>642.6</ele>
        <time>2019-08-07T14:02:02Z</time>
      </trkpt>
      <trkpt lat="48.6792310" lon="14.3667570">
        <ele>642.8</ele>
        <time>2019-08-07T14:02:03Z</time>
      </trkpt>
      <trkpt lat="48.6792610" lon="14.3667580">
        <ele>642.8</ele>
        <time>2019-08-07T14:02:04Z</time>
      </trkpt>
      <trkpt lat="48.6792940" lon="14.3667620">
        <ele>643.0</ele>
        <time>2019-08-07T14:02:05Z</time>
      </trkpt>
      <trkpt lat="48.6793270" lon="14.3667700">
        <ele>643.0</ele>
        <time>2019-08-07T14:02:06Z</time>
      </trkpt>
      <trkpt lat="48.6793600" lon="14.3667790">
        <ele>643.2</ele>
        <time>2019-08-07T14:02:07Z</time>
      </trkpt>
      <trkpt lat="48.6793910" lon="14.3667850">
        <ele>643.2</ele>
        <time>2019-08-07T14:02:08Z</time>
      </trkpt>
      <trkpt lat="48.6794260" lon="14.3667940">
        <ele>643.2</ele>
        <time>2019-08-07T14:02:09Z</time>
      </trkpt>
      <trkpt lat="48.6794600" lon="14.3667970">
        <ele>643.4</ele>
        <time>2019-08-07T14:02:10Z</time>
      </trkpt>
      <trkpt lat="48.6794920" lon="14.3667980">
        <ele>643.4</ele>
        <time>2019-08-07T14:02:11Z</time>
      </trkpt>
      <trkpt lat="48.6795230" lon="14.3667990">
        <ele>643.4</ele>
        <time>2019-08-07T14:02:12Z</time>
      </trkpt>
      <trkpt lat="48.6795550" lon="14.3668000">
        <ele>643.4</ele>
        <time>2019-08-07T14:02:13Z</time>
      </trkpt>
      <trkpt lat="48.6795900" lon="14.3668030">
        <ele>643.6</ele>
        <time>2019-08-07T14:02:14Z</time>
      </trkpt>
      <trkpt lat="48.6796230" lon="14.3668050">
        <ele>643.6</ele>
        <time>2019-08-07T14:02:15Z</time>
      </trkpt>
      <trkpt lat="48.6796540" lon="14.3668040">
        <ele>643.6</ele>
        <time>2019-08-07T14:02:16Z</time>
      </trkpt>
      <trkpt lat="48.6796880" lon="14.3668000">
        <ele>643.8</ele>
        <time>2019-08-07T14:02:17Z</time>
      </trkpt>
      <trkpt lat="48.6797210" lon="14.3667960">
        <ele>643.8</ele>
        <time>2019-08-07T14:02:18Z</time>
      </trkpt>
      <trkpt lat="48.6797530" lon="14.3667900">
        <ele>643.8</ele>
        <time>2019-08-07T14:02:19Z</time>
      </trkpt>
      <trkpt lat="48.6797850" lon="14.3667820">
        <ele>644.0</ele>
        <time>2019-08-07T14:02:20Z</time>
      </trkpt>
      <trkpt lat="48.6798230" lon="14.3667760">
        <ele>644.0</ele>
        <time>2019-08-07T14:02:21Z</time>
      </trkpt>
      <trkpt lat="48.6798630" lon="14.3667710">
        <ele>644.0</ele>
        <time>2019-08-07T14:02:22Z</time>
      </trkpt>
      <trkpt lat="48.6799010" lon="14.3667630">
        <ele>644.0</ele>
        <time>2019-08-07T14:02:23Z</time>
      </trkpt>
      <trkpt lat="48.6799390" lon="14.3667490">
        <ele>644.0</ele>
        <time>2019-08-07T14:02:24Z</time>
      </trkpt>
      <trkpt lat="48.6799760" lon="14.3667300">
        <ele>644.0</ele>
        <time>2019-08-07T14:02:25Z</time>
      </trkpt>
      <trkpt lat="48.6800150" lon="14.3667120">
        <ele>644.0</ele>
        <time>2019-08-07T14:02:26Z</time>
      </trkpt>
      <trkpt lat="48.6800620" lon="14.3666950">
        <ele>643.8</ele>
        <time>2019-08-07T14:02:27Z</time>
      </trkpt>
      <trkpt lat="48.6801060" lon="14.3666800">
        <ele>643.8</ele>
        <time>2019-08-07T14:02:28Z</time>
      </trkpt>
      <trkpt lat="48.6801520" lon="14.3666690">
        <ele>643.6</ele>
        <time>2019-08-07T14:02:29Z</time>
      </trkpt>
      <trkpt lat="48.6801980" lon="14.3666610">
        <ele>643.6</ele>
        <time>2019-08-07T14:02:30Z</time>
      </trkpt>
      <trkpt lat="48.6802490" lon="14.3666510">
        <ele>643.4</ele>
        <time>2019-08-07T14:02:31Z</time>
      </trkpt>
      <trkpt lat="48.6802980" lon="14.3666400">
        <ele>643.4</ele>
        <time>2019-08-07T14:02:32Z</time>
      </trkpt>
      <trkpt lat="48.6803470" lon="14.3666300">
        <ele>643.4</ele>
        <time>2019-08-07T14:02:33Z</time>
      </trkpt>
      <trkpt lat="48.6803980" lon="14.3666170">
        <ele>643.2</ele>
        <time>2019-08-07T14:02:34Z</time>
      </trkpt>
      <trkpt lat="48.6804480" lon="14.3666050">
        <ele>643.2</ele>
        <time>2019-08-07T14:02:35Z</time>
      </trkpt>
      <trkpt lat="48.6804990" lon="14.3665930">
        <ele>643.2</ele>
        <time>2019-08-07T14:02:36Z</time>
      </trkpt>
      <trkpt lat="48.6805450" lon="14.3665840">
        <ele>643.2</ele>
        <time>2019-08-07T14:02:37Z</time>
      </trkpt>
      <trkpt lat="48.6805890" lon="14.3665790">
        <ele>643.2</ele>
        <time>2019-08-07T14:02:38Z</time>
      </trkpt>
      <trkpt lat="48.6806310" lon="14.3665790">
        <ele>643.2</ele>
        <time>2019-08-07T14:02:39Z</time>
      </trkpt>
      <trkpt lat="48.6806760" lon="14.3665810">
        <ele>643.2</ele>
        <time>2019-08-07T14:02:40Z</time>
      </trkpt>
      <trkpt lat="48.6807220" lon="14.3665820">
        <ele>643.2</ele>
        <time>2019-08-07T14:02:41Z</time>
      </trkpt>
      <trkpt lat="48.6807680" lon="14.3665800">
        <ele>643.2</ele>
        <time>2019-08-07T14:02:42Z</time>
      </trkpt>
      <trkpt lat="48.6808130" lon="14.3665760">
        <ele>643.2</ele>
        <time>2019-08-07T14:02:43Z</time>
      </trkpt>
      <trkpt lat="48.6808570" lon="14.3665680">
        <ele>643.2</ele>
        <time>2019-08-07T14:02:44Z</time>
      </trkpt>
      <trkpt lat="48.6808990" lon="14.3665580">
        <ele>643.4</ele>
        <time>2019-08-07T14:02:45Z</time>
      </trkpt>
      <trkpt lat="48.6809410" lon="14.3665490">
        <ele>643.4</ele>
        <time>2019-08-07T14:02:46Z</time>
      </trkpt>
      <trkpt lat="48.6809870" lon="14.3665400">
        <ele>643.4</ele>
        <time>2019-08-07T14:02:47Z</time>
      </trkpt>
      <trkpt lat="48.6810300" lon="14.3665310">
        <ele>643.6</ele>
        <time>2019-08-07T14:02:48Z</time>
      </trkpt>
      <trkpt lat="48.6810740" lon="14.3665190">
        <ele>643.6</ele>
        <time>2019-08-07T14:02:49Z</time>
      </trkpt>
      <trkpt lat="48.6811170" lon="14.3665080">
        <ele>643.8</ele>
        <time>2019-08-07T14:02:50Z</time>
      </trkpt>
      <trkpt lat="48.6811630" lon="14.3664960">
        <ele>643.8</ele>
        <time>2019-08-07T14:02:51Z</time>
      </trkpt>
      <trkpt lat="48.6812070" lon="14.3664860">
        <ele>644.0</ele>
        <time>2019-08-07T14:02:52Z</time>
      </trkpt>
      <trkpt lat="48.6812490" lon="14.3664760">
        <ele>644.0</ele>
        <time>2019-08-07T14:02:53Z</time>
      </trkpt>
      <trkpt lat="48.6812860" lon="14.3664640">
        <ele>644.2</ele>
        <time>2019-08-07T14:02:54Z</time>
      </trkpt>
      <trkpt lat="48.6813180" lon="14.3664520">
        <ele>644.4</ele>
        <time>2019-08-07T14:02:55Z</time>
      </trkpt>
      <trkpt lat="48.6813490" lon="14.3664380">
        <ele>644.6</ele>
        <time>2019-08-07T14:02:56Z</time>
      </trkpt>
      <trkpt lat="48.6813840" lon="14.3664240">
        <ele>644.8</ele>
        <time>2019-08-07T14:02:57Z</time>
      </trkpt>
      <trkpt lat="48.6814190" lon="14.3664150">
        <ele>645.0</ele>
        <time>2019-08-07T14:02:58Z</time>
      </trkpt>
      <trkpt lat="48.6814530" lon="14.3664110">
        <ele>645.2</ele>
        <time>2019-08-07T14:02:59Z</time>
      </trkpt>
      <trkpt lat="48.6814820" lon="14.3664000">
        <ele>645.6</ele>
        <time>2019-08-07T14:03:00Z</time>
      </trkpt>
      <trkpt lat="48.6815120" lon="14.3663820">
        <ele>645.8</ele>
        <time>2019-08-07T14:03:01Z</time>
      </trkpt>
      <trkpt lat="48.6815410" lon="14.3663660">
        <ele>646.0</ele>
        <time>2019-08-07T14:03:02Z</time>
      </trkpt>
      <trkpt lat="48.6815690" lon="14.3663590">
        <ele>646.4</ele>
        <time>2019-08-07T14:03:03Z</time>
      </trkpt>
      <trkpt lat="48.6815970" lon="14.3663560">
        <ele>646.6</ele>
        <time>2019-08-07T14:03:04Z</time>
      </trkpt>
      <trkpt lat="48.6816240" lon="14.3663540">
        <ele>646.8</ele>
        <time>2019-08-07T14:03:05Z</time>
      </trkpt>
      <trkpt lat="48.6816530" lon="14.3663500">
        <ele>647.0</ele>
        <time>2019-08-07T14:03:06Z</time>
      </trkpt>
      <trkpt lat="48.6816920" lon="14.3663430">
        <ele>647.0</ele>
        <time>2019-08-07T14:03:07Z</time>
      </trkpt>
      <trkpt lat="48.6817290" lon="14.3663320">
        <ele>647.2</ele>
        <time>2019-08-07T14:03:08Z</time>
      </trkpt>
      <trkpt lat="48.6817660" lon="14.3663180">
        <ele>647.4</ele>
        <time>2019-08-07T14:03:09Z</time>
      </trkpt>
      <trkpt lat="48.6818010" lon="14.3663050">
        <ele>647.4</ele>
        <time>2019-08-07T14:03:10Z</time>
      </trkpt>
      <trkpt lat="48.6818360" lon="14.3662970">
        <ele>647.4</ele>
        <time>2019-08-07T14:03:11Z</time>
      </trkpt>
      <trkpt lat="48.6818710" lon="14.3662940">
        <ele>647.6</ele>
        <time>2019-08-07T14:03:12Z</time>
      </trkpt>
      <trkpt lat="48.6819060" lon="14.3662890">
        <ele>647.6</ele>
        <time>2019-08-07T14:03:13Z</time>
      </trkpt>
      <trkpt lat="48.6819410" lon="14.3662750">
        <ele>647.6</ele>
        <time>2019-08-07T14:03:14Z</time>
      </trkpt>
      <trkpt lat="48.6819770" lon="14.3662550">
        <ele>647.6</ele>
        <time>2019-08-07T14:03:15Z</time>
      </trkpt>
      <trkpt lat="48.6820130" lon="14.3662380">
        <ele>647.6</ele>
        <time>2019-08-07T14:03:16Z</time>
      </trkpt>
      <trkpt lat="48.6820550" lon="14.3662270">
        <ele>647.6</ele>
        <time>2019-08-07T14:03:17Z</time>
      </trkpt>
      <trkpt lat="48.6820920" lon="14.3662200">
        <ele>647.6</ele>
        <time>2019-08-07T14:03:18Z</time>
      </trkpt>
      <trkpt lat="48.6821320" lon="14.3662120">
        <ele>647.6</ele>
        <time>2019-08-07T14:03:19Z</time>
      </trkpt>
      <trkpt lat="48.6821760" lon="14.3662030">
        <ele>647.4</ele>
        <time>2019-08-07T14:03:20Z</time>
      </trkpt>
      <trkpt lat="48.6822270" lon="14.3661910">
        <ele>647.4</ele>
        <time>2019-08-07T14:03:21Z</time>
      </trkpt>
      <trkpt lat="48.6822770" lon="14.3661780">
        <ele>647.2</ele>
        <time>2019-08-07T14:03:22Z</time>
      </trkpt>
      <trkpt lat="48.6823330" lon="14.3661670">
        <ele>647.2</ele>
        <time>2019-08-07T14:03:23Z</time>
      </trkpt>
      <trkpt lat="48.6823910" lon="14.3661570">
        <ele>647.0</ele>
        <time>2019-08-07T14:03:24Z</time>
      </trkpt>
      <trkpt lat="48.6824430" lon="14.3661480">
        <ele>647.0</ele>
        <time>2019-08-07T14:03:25Z</time>
      </trkpt>
      <trkpt lat="48.6824970" lon="14.3661390">
        <ele>646.8</ele>
        <time>2019-08-07T14:03:26Z</time>
      </trkpt>
      <trkpt lat="48.6825530" lon="14.3661310">
        <ele>646.8</ele>
        <time>2019-08-07T14:03:27Z</time>
      </trkpt>
      <trkpt lat="48.6826080" lon="14.3661180">
        <ele>646.8</ele>
        <time>2019-08-07T14:03:28Z</time>
      </trkpt>
      <trkpt lat="48.6826640" lon="14.3661060">
        <ele>646.8</ele>
        <time>2019-08-07T14:03:29Z</time>
      </trkpt>
      <trkpt lat="48.6827180" lon="14.3660940">
        <ele>646.8</ele>
        <time>2019-08-07T14:03:30Z</time>
      </trkpt>
      <trkpt lat="48.6827730" lon="14.3660800">
        <ele>646.8</ele>
        <time>2019-08-07T14:03:31Z</time>
      </trkpt>
      <trkpt lat="48.6828290" lon="14.3660630">
        <ele>647.0</ele>
        <time>2019-08-07T14:03:32Z</time>
      </trkpt>
      <trkpt lat="48.6828850" lon="14.3660510">
        <ele>647.0</ele>
        <time>2019-08-07T14:03:33Z</time>
      </trkpt>
      <trkpt lat="48.6829390" lon="14.3660370">
        <ele>647.0</ele>
        <time>2019-08-07T14:03:34Z</time>
      </trkpt>
      <trkpt lat="48.6829920" lon="14.3660200">
        <ele>647.2</ele>
        <time>2019-08-07T14:03:35Z</time>
      </trkpt>
      <trkpt lat="48.6830460" lon="14.3660050">
        <ele>647.4</ele>
        <time>2019-08-07T14:03:36Z</time>
      </trkpt>
      <trkpt lat="48.6830990" lon="14.3659960">
        <ele>647.4</ele>
        <time>2019-08-07T14:03:37Z</time>
      </trkpt>
      <trkpt lat="48.6831480" lon="14.3659880">
        <ele>647.6</ele>
        <time>2019-08-07T14:03:38Z</time>
      </trkpt>
      <trkpt lat="48.6831940" lon="14.3659810">
        <ele>647.8</ele>
        <time>2019-08-07T14:03:39Z</time>
      </trkpt>
      <trkpt lat="48.6832350" lon="14.3659760">
        <ele>648.0</ele>
        <time>2019-08-07T14:03:40Z</time>
      </trkpt>
      <trkpt lat="48.6832770" lon="14.3659700">
        <ele>648.4</ele>
        <time>2019-08-07T14:03:41Z</time>
      </trkpt>
      <trkpt lat="48.6833220" lon="14.3659660">
        <ele>648.6</ele>
        <time>2019-08-07T14:03:42Z</time>
      </trkpt>
      <trkpt lat="48.6833670" lon="14.3659660">
        <ele>648.8</ele>
        <time>2019-08-07T14:03:43Z</time>
      </trkpt>
      <trkpt lat="48.6834110" lon="14.3659680">
        <ele>649.0</ele>
        <time>2019-08-07T14:03:44Z</time>
      </trkpt>
      <trkpt lat="48.6834580" lon="14.3659670">
        <ele>649.4</ele>
        <time>2019-08-07T14:03:45Z</time>
      </trkpt>
      <trkpt lat="48.6835080" lon="14.3659660">
        <ele>649.6</ele>
        <time>2019-08-07T14:03:46Z</time>
      </trkpt>
      <trkpt lat="48.6835540" lon="14.3659660">
        <ele>649.8</ele>
        <time>2019-08-07T14:03:47Z</time>
      </trkpt>
      <trkpt lat="48.6835990" lon="14.3659630">
        <ele>650.2</ele>
        <time>2019-08-07T14:03:48Z</time>
      </trkpt>
      <trkpt lat="48.6836390" lon="14.3659580">
        <ele>650.4</ele>
        <time>2019-08-07T14:03:49Z</time>
      </trkpt>
      <trkpt lat="48.6836780" lon="14.3659520">
        <ele>650.6</ele>
        <time>2019-08-07T14:03:50Z</time>
      </trkpt>
      <trkpt lat="48.6837170" lon="14.3659470">
        <ele>650.8</ele>
        <time>2019-08-07T14:03:51Z</time>
      </trkpt>
      <trkpt lat="48.6837520" lon="14.3659450">
        <ele>651.0</ele>
        <time>2019-08-07T14:03:52Z</time>
      </trkpt>
      <trkpt lat="48.6837840" lon="14.3659530">
        <ele>651.2</ele>
        <time>2019-08-07T14:03:53Z</time>
      </trkpt>
      <trkpt lat="48.6838160" lon="14.3659650">
        <ele>651.4</ele>
        <time>2019-08-07T14:03:54Z</time>
      </trkpt>
      <trkpt lat="48.6838500" lon="14.3659740">
        <ele>651.6</ele>
        <time>2019-08-07T14:03:55Z</time>
      </trkpt>
      <trkpt lat="48.6838820" lon="14.3659840">
        <ele>651.8</ele>
        <time>2019-08-07T14:03:56Z</time>
      </trkpt>
      <trkpt lat="48.6839140" lon="14.3659960">
        <ele>652.0</ele>
        <time>2019-08-07T14:03:57Z</time>
      </trkpt>
      <trkpt lat="48.6839490" lon="14.3660120">
        <ele>652.2</ele>
        <time>2019-08-07T14:03:58Z</time>
      </trkpt>
      <trkpt lat="48.6839910" lon="14.3660320">
        <ele>652.6</ele>
        <time>2019-08-07T14:03:59Z</time>
      </trkpt>
      <trkpt lat="48.6840310" lon="14.3660500">
        <ele>652.8</ele>
        <time>2019-08-07T14:04:00Z</time>
      </trkpt>
      <trkpt lat="48.6840650" lon="14.3660670">
        <ele>653.0</ele>
        <time>2019-08-07T14:04:01Z</time>
      </trkpt>
      <trkpt lat="48.6840970" lon="14.3660770">
        <ele>653.2</ele>
        <time>2019-08-07T14:04:02Z</time>
      </trkpt>
      <trkpt lat="48.6841300" lon="14.3660820">
        <ele>653.4</ele>
        <time>2019-08-07T14:04:03Z</time>
      </trkpt>
      <trkpt lat="48.6841600" lon="14.3660880">
        <ele>653.6</ele>
        <time>2019-08-07T14:04:04Z</time>
      </trkpt>
      <trkpt lat="48.6841930" lon="14.3660950">
        <ele>654.0</ele>
        <time>2019-08-07T14:04:05Z</time>
      </trkpt>
      <trkpt lat="48.6842260" lon="14.3661070">
        <ele>654.2</ele>
        <time>2019-08-07T14:04:06Z</time>
      </trkpt>
      <trkpt lat="48.6842560" lon="14.3661190">
        <ele>654.4</ele>
        <time>2019-08-07T14:04:07Z</time>
      </trkpt>
      <trkpt lat="48.6842840" lon="14.3661310">
        <ele>654.6</ele>
        <time>2019-08-07T14:04:08Z</time>
      </trkpt>
      <trkpt lat="48.6843090" lon="14.3661410">
        <ele>654.8</ele>
        <time>2019-08-07T14:04:09Z</time>
      </trkpt>
      <trkpt lat="48.6843370" lon="14.3661510">
        <ele>655.2</ele>
        <time>2019-08-07T14:04:10Z</time>
      </trkpt>
      <trkpt lat="48.6843690" lon="14.3661630">
        <ele>655.4</ele>
        <time>2019-08-07T14:04:11Z</time>
      </trkpt>
      <trkpt lat="48.6843980" lon="14.3661710">
        <ele>655.6</ele>
        <time>2019-08-07T14:04:12Z</time>
      </trkpt>
      <trkpt lat="48.6844300" lon="14.3661790">
        <ele>655.8</ele>
        <time>2019-08-07T14:04:13Z</time>
      </trkpt>
      <trkpt lat="48.6844650" lon="14.3661840">
        <ele>656.0</ele>
        <time>2019-08-07T14:04:14Z</time>
      </trkpt>
      <trkpt lat="48.6844950" lon="14.3661900">
        <ele>656.2</ele>
        <time>2019-08-07T14:04:15Z</time>
      </trkpt>
      <trkpt lat="48.6845280" lon="14.3661970">
        <ele>656.4</ele>
        <time>2019-08-07T14:04:16Z</time>
      </trkpt>
      <trkpt lat="48.6845560" lon="14.3662060">
        <ele>656.6</ele>
        <time>2019-08-07T14:04:17Z</time>
      </trkpt>
      <trkpt lat="48.6845840" lon="14.3662130">
        <ele>656.8</ele>
        <time>2019-08-07T14:04:18Z</time>
      </trkpt>
      <trkpt lat="48.6846170" lon="14.3662210">
        <ele>657.0</ele>
        <time>2019-08-07T14:04:19Z</time>
      </trkpt>
      <trkpt lat="48.6846500" lon="14.3662290">
        <ele>657.2</ele>
        <time>2019-08-07T14:04:20Z</time>
      </trkpt>
      <trkpt lat="48.6846850" lon="14.3662350">
        <ele>657.4</ele>
        <time>2019-08-07T14:04:21Z</time>
      </trkpt>
      <trkpt lat="48.6847200" lon="14.3662410">
        <ele>657.6</ele>
        <time>2019-08-07T14:04:22Z</time>
      </trkpt>
      <trkpt lat="48.6847530" lon="14.3662510">
        <ele>657.8</ele>
        <time>2019-08-07T14:04:23Z</time>
      </trkpt>
      <trkpt lat="48.6847880" lon="14.3662630">
        <ele>658.0</ele>
        <time>2019-08-07T14:04:24Z</time>
      </trkpt>
      <trkpt lat="48.6848180" lon="14.3662730">
        <ele>658.2</ele>
        <time>2019-08-07T14:04:25Z</time>
      </trkpt>
      <trkpt lat="48.6848440" lon="14.3662800">
        <ele>658.4</ele>
        <time>2019-08-07T14:04:26Z</time>
      </trkpt>
      <trkpt lat="48.6848710" lon="14.3662860">
        <ele>658.6</ele>
        <time>2019-08-07T14:04:27Z</time>
      </trkpt>
      <trkpt lat="48.6848980" lon="14.3662940">
        <ele>658.8</ele>
        <time>2019-08-07T14:04:28Z</time>
      </trkpt>
      <trkpt lat="48.6849250" lon="14.3663010">
        <ele>659.2</ele>
        <time>2019-08-07T14:04:29Z</time>
      </trkpt>
      <trkpt lat="48.6849570" lon="14.3663080">
        <ele>659.4</ele>
        <time>2019-08-07T14:04:30Z</time>
      </trkpt>
      <trkpt lat="48.6849890" lon="14.3663190">
        <ele>659.8</ele>
        <time>2019-08-07T14:04:31Z</time>
      </trkpt>
      <trkpt lat="48.6850200" lon="14.3663270">
        <ele>660.0</ele>
        <time>2019-08-07T14:04:32Z</time>
      </trkpt>
      <trkpt lat="48.6850500" lon="14.3663320">
        <ele>660.4</ele>
        <time>2019-08-07T14:04:33Z</time>
      </trkpt>
      <trkpt lat="48.6850820" lon="14.3663330">
        <ele>660.6</ele>
        <time>2019-08-07T14:04:34Z</time>
      </trkpt>
      <trkpt lat="48.6851130" lon="14.3663330">
        <ele>661.0</ele>
        <time>2019-08-07T14:04:35Z</time>
      </trkpt>
      <trkpt lat="48.6851440" lon="14.3663340">
        <ele>661.4</ele>
        <time>2019-08-07T14:04:36Z</time>
      </trkpt>
      <trkpt lat="48.6851720" lon="14.3663390">
        <ele>661.6</ele>
        <time>2019-08-07T14:04:37Z</time>
      </trkpt>
      <trkpt lat="48.6852030" lon="14.3663510">
        <ele>662.0</ele>
        <time>2019-08-07T14:04:38Z</time>
      </trkpt>
      <trkpt lat="48.6852350" lon="14.3663640">
        <ele>662.4</ele>
        <time>2019-08-07T14:04:39Z</time>
      </trkpt>
      <trkpt lat="48.6852680" lon="14.3663760">
        <ele>662.6</ele>
        <time>2019-08-07T14:04:40Z</time>
      </trkpt>
      <trkpt lat="48.6852990" lon="14.3663840">
        <ele>663.0</ele>
        <time>2019-08-07T14:04:41Z</time>
      </trkpt>
      <trkpt lat="48.6853250" lon="14.3663890">
        <ele>663.2</ele>
        <time>2019-08-07T14:04:42Z</time>
      </trkpt>
      <trkpt lat="48.6853500" lon="14.3663960">
        <ele>663.6</ele>
        <time>2019-08-07T14:04:43Z</time>
      </trkpt>
      <trkpt lat="48.6853780" lon="14.3664030">
        <ele>663.8</ele>
        <time>2019-08-07T14:04:44Z</time>
      </trkpt>
      <trkpt lat="48.6854050" lon="14.3664110">
        <ele>664.0</ele>
        <time>2019-08-07T14:04:45Z</time>
      </trkpt>
      <trkpt lat="48.6854330" lon="14.3664150">
        <ele>664.4</ele>
        <time>2019-08-07T14:04:46Z</time>
      </trkpt>
      <trkpt lat="48.6854640" lon="14.3664190">
        <ele>664.6</ele>
        <time>2019-08-07T14:04:47Z</time>
      </trkpt>
      <trkpt lat="48.6854930" lon="14.3664310">
        <ele>664.8</ele>
        <time>2019-08-07T14:04:48Z</time>
      </trkpt>
      <trkpt lat="48.6855140" lon="14.3664440">
        <ele>665.2</ele>
        <time>2019-08-07T14:04:49Z</time>
      </trkpt>
      <trkpt lat="48.6855360" lon="14.3664510">
        <ele>665.4</ele>
        <time>2019-08-07T14:04:50Z</time>
      </trkpt>
      <trkpt lat="48.6855630" lon="14.3664540">
        <ele>665.6</ele>
        <time>2019-08-07T14:04:51Z</time>
      </trkpt>
      <trkpt lat="48.6855900" lon="14.3664600">
        <ele>666.0</ele>
        <time>2019-08-07T14:04:52Z</time>
      </trkpt>
      <trkpt lat="48.6856170" lon="14.3664650">
        <ele>666.2</ele>
        <time>2019-08-07T14:04:53Z</time>
      </trkpt>
      <trkpt lat="48.6856450" lon="14.3664680">
        <ele>666.4</ele>
        <time>2019-08-07T14:04:54Z</time>
      </trkpt>
      <trkpt lat="48.6856740" lon="14.3664740">
        <ele>666.6</ele>
        <time>2019-08-07T14:04:55Z</time>
      </trkpt>
      <trkpt lat="48.6857010" lon="14.3664820">
        <ele>666.8</ele>
        <time>2019-08-07T14:04:56Z</time>
      </trkpt>
      <trkpt lat="48.6857280" lon="14.3664890">
        <ele>666.8</ele>
        <time>2019-08-07T14:04:57Z</time>
      </trkpt>
      <trkpt lat="48.6857550" lon="14.3664900">
        <ele>667.0</ele>
        <time>2019-08-07T14:04:58Z</time>
      </trkpt>
      <trkpt lat="48.6857800" lon="14.3664900">
        <ele>667.2</ele>
        <time>2019-08-07T14:04:59Z</time>
      </trkpt>
      <trkpt lat="48.6858020" lon="14.3664880">
        <ele>667.4</ele>
        <time>2019-08-07T14:05:00Z</time>
      </trkpt>
      <trkpt lat="48.6858240" lon="14.3664830">
        <ele>667.6</ele>
        <time>2019-08-07T14:05:01Z</time>
      </trkpt>
      <trkpt lat="48.6858470" lon="14.3664770">
        <ele>667.6</ele>
        <time>2019-08-07T14:05:02Z</time>
      </trkpt>
      <trkpt lat="48.6858750" lon="14.3664700">
        <ele>667.8</ele>
        <time>2019-08-07T14:05:03Z</time>
      </trkpt>
      <trkpt lat="48.6859010" lon="14.3664630">
        <ele>668.0</ele>
        <time>2019-08-07T14:05:04Z</time>
      </trkpt>
      <trkpt lat="48.6859280" lon="14.3664580">
        <ele>668.2</ele>
        <time>2019-08-07T14:05:05Z</time>
      </trkpt>
      <trkpt lat="48.6859560" lon="14.3664580">
        <ele>668.4</ele>
        <time>2019-08-07T14:05:06Z</time>
      </trkpt>
      <trkpt lat="48.6859830" lon="14.3664580">
        <ele>668.4</ele>
        <time>2019-08-07T14:05:07Z</time>
      </trkpt>
      <trkpt lat="48.6860080" lon="14.3664550">
        <ele>668.6</ele>
        <time>2019-08-07T14:05:08Z</time>
      </trkpt>
      <trkpt lat="48.6860340" lon="14.3664500">
        <ele>668.8</ele>
        <time>2019-08-07T14:05:09Z</time>
      </trkpt>
      <trkpt lat="48.6860660" lon="14.3664420">
        <ele>668.8</ele>
        <time>2019-08-07T14:05:10Z</time>
      </trkpt>
      <trkpt lat="48.6861000" lon="14.3664350">
        <ele>669.0</ele>
        <time>2019-08-07T14:05:11Z</time>
      </trkpt>
      <trkpt lat="48.6861340" lon="14.3664270">
        <ele>669.0</ele>
        <time>2019-08-07T14:05:12Z</time>
      </trkpt>
      <trkpt lat="48.6861680" lon="14.3664150">
        <ele>669.2</ele>
        <time>2019-08-07T14:05:13Z</time>
      </trkpt>
      <trkpt lat="48.6861980" lon="14.3664080">
        <ele>669.2</ele>
        <time>2019-08-07T14:05:14Z</time>
      </trkpt>
      <trkpt lat="48.6862250" lon="14.3664000">
        <ele>669.4</ele>
        <time>2019-08-07T14:05:15Z</time>
      </trkpt>
      <trkpt lat="48.6862540" lon="14.3663890">
        <ele>669.4</ele>
        <time>2019-08-07T14:05:16Z</time>
      </trkpt>
      <trkpt lat="48.6862880" lon="14.3663790">
        <ele>669.4</ele>
        <time>2019-08-07T14:05:17Z</time>
      </trkpt>
      <trkpt lat="48.6863180" lon="14.3663680">
        <ele>669.4</ele>
        <time>2019-08-07T14:05:18Z</time>
      </trkpt>
      <trkpt lat="48.6863470" lon="14.3663530">
        <ele>669.4</ele>
        <time>2019-08-07T14:05:19Z</time>
      </trkpt>
      <trkpt lat="48.6863750" lon="14.3663400">
        <ele>669.4</ele>
        <time>2019-08-07T14:05:20Z</time>
      </trkpt>
      <trkpt lat="48.6864020" lon="14.3663320">
        <ele>669.4</ele>
        <time>2019-08-07T14:05:21Z</time>
      </trkpt>
      <trkpt lat="48.6864330" lon="14.3663200">
        <ele>669.6</ele>
        <time>2019-08-07T14:05:22Z</time>
      </trkpt>
      <trkpt lat="48.6864650" lon="14.3663060">
        <ele>669.6</ele>
        <time>2019-08-07T14:05:23Z</time>
      </trkpt>
      <trkpt lat="48.6864920" lon="14.3662940">
        <ele>669.6</ele>
        <time>2019-08-07T14:05:24Z</time>
      </trkpt>
      <trkpt lat="48.6865210" lon="14.3662780">
        <ele>669.6</ele>
        <time>2019-08-07T14:05:25Z</time>
      </trkpt>
      <trkpt lat="48.6865560" lon="14.3662580">
        <ele>669.4</ele>
        <time>2019-08-07T14:05:26Z</time>
      </trkpt>
      <trkpt lat="48.6865970" lon="14.3662370">
        <ele>669.4</ele>
        <time>2019-08-07T14:05:27Z</time>
      </trkpt>
      <trkpt lat="48.6866390" lon="14.3662170">
        <ele>669.4</ele>
        <time>2019-08-07T14:05:28Z</time>
      </trkpt>
      <trkpt lat="48.6866820" lon="14.3662000">
        <ele>669.2</ele>
        <time>2019-08-07T14:05:29Z</time>
      </trkpt>
      <trkpt lat="48.6867310" lon="14.3661840">
        <ele>669.0</ele>
        <time>2019-08-07T14:05:30Z</time>
      </trkpt>
      <trkpt lat="48.6867920" lon="14.3661670">
        <ele>668.8</ele>
        <time>2019-08-07T14:05:31Z</time>
      </trkpt>
      <trkpt lat="48.6868560" lon="14.3661460">
        <ele>668.4</ele>
        <time>2019-08-07T14:05:32Z</time>
      </trkpt>
      <trkpt lat="48.6869260" lon="14.3661170">
        <ele>668.2</ele>
        <time>2019-08-07T14:05:33Z</time>
      </trkpt>
      <trkpt lat="48.6870050" lon="14.3660930">
        <ele>667.8</ele>
        <time>2019-08-07T14:05:34Z</time>
      </trkpt>
      <trkpt lat="48.6870880" lon="14.3660840">
        <ele>667.4</ele>
        <time>2019-08-07T14:05:35Z</time>
      </trkpt>
      <trkpt lat="48.6871740" lon="14.3660800">
        <ele>667.0</ele>
        <time>2019-08-07T14:05:36Z</time>
      </trkpt>
      <trkpt lat="48.6872610" lon="14.3660770">
        <ele>666.6</ele>
        <time>2019-08-07T14:05:37Z</time>
      </trkpt>
      <trkpt lat="48.6873480" lon="14.3660750">
        <ele>666.2</ele>
        <time>2019-08-07T14:05:38Z</time>
      </trkpt>
      <trkpt lat="48.6874410" lon="14.3660790">
        <ele>666.0</ele>
        <time>2019-08-07T14:05:39Z</time>
      </trkpt>
      <trkpt lat="48.6875350" lon="14.3660920">
        <ele>665.6</ele>
        <time>2019-08-07T14:05:40Z</time>
      </trkpt>
      <trkpt lat="48.6876350" lon="14.3661040">
        <ele>665.4</ele>
        <time>2019-08-07T14:05:41Z</time>
      </trkpt>
      <trkpt lat="48.6877470" lon="14.3661120">
        <ele>665.0</ele>
        <time>2019-08-07T14:05:42Z</time>
      </trkpt>
      <trkpt lat="48.6878510" lon="14.3661160">
        <ele>664.6</ele>
        <time>2019-08-07T14:05:43Z</time>
      </trkpt>
      <trkpt lat="48.6879460" lon="14.3661150">
        <ele>664.4</ele>
        <time>2019-08-07T14:05:44Z</time>
      </trkpt>
      <trkpt lat="48.6880340" lon="14.3661100">
        <ele>664.4</ele>
        <time>2019-08-07T14:05:45Z</time>
      </trkpt>
      <trkpt lat="48.6881140" lon="14.3661050">
        <ele>664.2</ele>
        <time>2019-08-07T14:05:46Z</time>
      </trkpt>
      <trkpt lat="48.6881890" lon="14.3661010">
        <ele>664.2</ele>
        <time>2019-08-07T14:05:47Z</time>
      </trkpt>
      <trkpt lat="48.6882580" lon="14.3660990">
        <ele>664.4</ele>
        <time>2019-08-07T14:05:48Z</time>
      </trkpt>
      <trkpt lat="48.6883160" lon="14.3660980">
        <ele>664.6</ele>
        <time>2019-08-07T14:05:49Z</time>
      </trkpt>
      <trkpt lat="48.6883680" lon="14.3660960">
        <ele>664.8</ele>
        <time>2019-08-07T14:05:50Z</time>
      </trkpt>
      <trkpt lat="48.6884230" lon="14.3660920">
        <ele>665.2</ele>
        <time>2019-08-07T14:05:51Z</time>
      </trkpt>
      <trkpt lat="48.6884730" lon="14.3660840">
        <ele>665.6</ele>
        <time>2019-08-07T14:05:52Z</time>
      </trkpt>
      <trkpt lat="48.6885210" lon="14.3660780">
        <ele>666.0</ele>
        <time>2019-08-07T14:05:53Z</time>
      </trkpt>
      <trkpt lat="48.6885650" lon="14.3660730">
        <ele>666.4</ele>
        <time>2019-08-07T14:05:54Z</time>
      </trkpt>
      <trkpt lat="48.6886040" lon="14.3660710">
        <ele>666.8</ele>
        <time>2019-08-07T14:05:55Z</time>
      </trkpt>
      <trkpt lat="48.6886410" lon="14.3660700">
        <ele>667.2</ele>
        <time>2019-08-07T14:05:56Z</time>
      </trkpt>
      <trkpt lat="48.6886770" lon="14.3660670">
        <ele>667.8</ele>
        <time>2019-08-07T14:05:57Z</time>
      </trkpt>
      <trkpt lat="48.6887120" lon="14.3660650">
        <ele>668.2</ele>
        <time>2019-08-07T14:05:58Z</time>
      </trkpt>
      <trkpt lat="48.6887440" lon="14.3660670">
        <ele>668.6</ele>
        <time>2019-08-07T14:05:59Z</time>
      </trkpt>
      <trkpt lat="48.6887720" lon="14.3660710">
        <ele>669.0</ele>
        <time>2019-08-07T14:06:00Z</time>
      </trkpt>
      <trkpt lat="48.6888000" lon="14.3660750">
        <ele>669.4</ele>
        <time>2019-08-07T14:06:01Z</time>
      </trkpt>
      <trkpt lat="48.6888250" lon="14.3660780">
        <ele>669.6</ele>
        <time>2019-08-07T14:06:02Z</time>
      </trkpt>
      <trkpt lat="48.6888490" lon="14.3660850">
        <ele>670.0</ele>
        <time>2019-08-07T14:06:03Z</time>
      </trkpt>
      <trkpt lat="48.6888700" lon="14.3660930">
        <ele>670.0</ele>
        <time>2019-08-07T14:06:04Z</time>
      </trkpt>
      <trkpt lat="48.6888930" lon="14.3661040">
        <ele>670.2</ele>
        <time>2019-08-07T14:06:05Z</time>
      </trkpt>
      <trkpt lat="48.6889250" lon="14.3661210">
        <ele>670.0</ele>
        <time>2019-08-07T14:06:06Z</time>
      </trkpt>
      <trkpt lat="48.6889660" lon="14.3661400">
        <ele>670.0</ele>
        <time>2019-08-07T14:06:07Z</time>
      </trkpt>
      <trkpt lat="48.6890130" lon="14.3661580">
        <ele>669.8</ele>
        <time>2019-08-07T14:06:08Z</time>
      </trkpt>
      <trkpt lat="48.6890610" lon="14.3661790">
        <ele>669.6</ele>
        <time>2019-08-07T14:06:09Z</time>
      </trkpt>
      <trkpt lat="48.6891120" lon="14.3661980">
        <ele>669.4</ele>
        <time>2019-08-07T14:06:10Z</time>
      </trkpt>
      <trkpt lat="48.6891710" lon="14.3662190">
        <ele>669.2</ele>
        <time>2019-08-07T14:06:11Z</time>
      </trkpt>
      <trkpt lat="48.6892330" lon="14.3662400">
        <ele>669.0</ele>
        <time>2019-08-07T14:06:12Z</time>
      </trkpt>
      <trkpt lat="48.6892970" lon="14.3662600">
        <ele>668.8</ele>
        <time>2019-08-07T14:06:13Z</time>
      </trkpt>
      <trkpt lat="48.6893620" lon="14.3662780">
        <ele>668.6</ele>
        <time>2019-08-07T14:06:14Z</time>
      </trkpt>
      <trkpt lat="48.6894250" lon="14.3662960">
        <ele>668.6</ele>
        <time>2019-08-07T14:06:15Z</time>
      </trkpt>
      <trkpt lat="48.6894870" lon="14.3663110">
        <ele>668.4</ele>
        <time>2019-08-07T14:06:16Z</time>
      </trkpt>
      <trkpt lat="48.6895460" lon="14.3663200">
        <ele>668.2</ele>
        <time>2019-08-07T14:06:17Z</time>
      </trkpt>
      <trkpt lat="48.6895960" lon="14.3663250">
        <ele>668.2</ele>
        <time>2019-08-07T14:06:18Z</time>
      </trkpt>
      <trkpt lat="48.6896500" lon="14.3663290">
        <ele>668.2</ele>
        <time>2019-08-07T14:06:19Z</time>
      </trkpt>
      <trkpt lat="48.6897080" lon="14.3663380">
        <ele>668.2</ele>
        <time>2019-08-07T14:06:20Z</time>
      </trkpt>
      <trkpt lat="48.6897630" lon="14.3663500">
        <ele>668.0</ele>
        <time>2019-08-07T14:06:21Z</time>
      </trkpt>
      <trkpt lat="48.6898150" lon="14.3663610">
        <ele>668.0</ele>
        <time>2019-08-07T14:06:22Z</time>
      </trkpt>
      <trkpt lat="48.6898660" lon="14.3663670">
        <ele>667.8</ele>
        <time>2019-08-07T14:06:23Z</time>
      </trkpt>
      <trkpt lat="48.6899150" lon="14.3663740">
        <ele>667.8</ele>
        <time>2019-08-07T14:06:24Z</time>
      </trkpt>
      <trkpt lat="48.6899700" lon="14.3663800">
        <ele>667.6</ele>
        <time>2019-08-07T14:06:25Z</time>
      </trkpt>
      <trkpt lat="48.6900320" lon="14.3663860">
        <ele>667.4</ele>
        <time>2019-08-07T14:06:26Z</time>
      </trkpt>
      <trkpt lat="48.6900970" lon="14.3663920">
        <ele>667.2</ele>
        <time>2019-08-07T14:06:27Z</time>
      </trkpt>
      <trkpt lat="48.6901620" lon="14.3663990">
        <ele>667.0</ele>
        <time>2019-08-07T14:06:28Z</time>
      </trkpt>
      <trkpt lat="48.6902250" lon="14.3664060">
        <ele>666.8</ele>
        <time>2019-08-07T14:06:29Z</time>
      </trkpt>
      <trkpt lat="48.6902860" lon="14.3664150">
        <ele>666.8</ele>
        <time>2019-08-07T14:06:30Z</time>
      </trkpt>
      <trkpt lat="48.6903470" lon="14.3664240">
        <ele>666.8</ele>
        <time>2019-08-07T14:06:31Z</time>
      </trkpt>
      <trkpt lat="48.6904020" lon="14.3664350">
        <ele>666.8</ele>
        <time>2019-08-07T14:06:32Z</time>
      </trkpt>
      <trkpt lat="48.6904520" lon="14.3664450">
        <ele>666.8</ele>
        <time>2019-08-07T14:06:33Z</time>
      </trkpt>
      <trkpt lat="48.6905010" lon="14.3664520">
        <ele>667.0</ele>
        <time>2019-08-07T14:06:34Z</time>
      </trkpt>
      <trkpt lat="48.6905460" lon="14.3664560">
        <ele>667.0</ele>
        <time>2019-08-07T14:06:35Z</time>
      </trkpt>
      <trkpt lat="48.6905870" lon="14.3664570">
        <ele>667.2</ele>
        <time>2019-08-07T14:06:36Z</time>
      </trkpt>
      <trkpt lat="48.6906300" lon="14.3664580">
        <ele>667.4</ele>
        <time>2019-08-07T14:06:37Z</time>
      </trkpt>
      <trkpt lat="48.6906730" lon="14.3664600">
        <ele>667.4</ele>
        <time>2019-08-07T14:06:38Z</time>
      </trkpt>
      <trkpt lat="48.6907150" lon="14.3664610">
        <ele>667.8</ele>
        <time>2019-08-07T14:06:39Z</time>
      </trkpt>
      <trkpt lat="48.6907500" lon="14.3664620">
        <ele>668.0</ele>
        <time>2019-08-07T14:06:40Z</time>
      </trkpt>
      <trkpt lat="48.6907780" lon="14.3664620">
        <ele>668.2</ele>
        <time>2019-08-07T14:06:41Z</time>
      </trkpt>
      <trkpt lat="48.6907980" lon="14.3664590">
        <ele>668.4</ele>
        <time>2019-08-07T14:06:42Z</time>
      </trkpt>
      <trkpt lat="48.6908140" lon="14.3664530">
        <ele>668.6</ele>
        <time>2019-08-07T14:06:43Z</time>
      </trkpt>
      <trkpt lat="48.6908320" lon="14.3664490">
        <ele>668.8</ele>
        <time>2019-08-07T14:06:44Z</time>
      </trkpt>
      <trkpt lat="48.6908510" lon="14.3664440">
        <ele>669.0</ele>
        <time>2019-08-07T14:06:45Z</time>
      </trkpt>
      <trkpt lat="48.6908760" lon="14.3664360">
        <ele>669.2</ele>
        <time>2019-08-07T14:06:46Z</time>
      </trkpt>
      <trkpt lat="48.6908990" lon="14.3664260">
        <ele>669.4</ele>
        <time>2019-08-07T14:06:47Z</time>
      </trkpt>
      <trkpt lat="48.6909180" lon="14.3664200">
        <ele>669.6</ele>
        <time>2019-08-07T14:06:48Z</time>
      </trkpt>
      <trkpt lat="48.6909330" lon="14.3664150">
        <ele>669.8</ele>
        <time>2019-08-07T14:06:49Z</time>
      </trkpt>
      <trkpt lat="48.6909480" lon="14.3664120">
        <ele>670.0</ele>
        <time>2019-08-07T14:06:50Z</time>
      </trkpt>
      <trkpt lat="48.6909740" lon="14.3664040">
        <ele>670.2</ele>
        <time>2019-08-07T14:06:51Z</time>
      </trkpt>
      <trkpt lat="48.6910030" lon="14.3663890">
        <ele>670.6</ele>
        <time>2019-08-07T14:06:52Z</time>
      </trkpt>
      <trkpt lat="48.6910260" lon="14.3663720">
        <ele>670.8</ele>
        <time>2019-08-07T14:06:53Z</time>
      </trkpt>
      <trkpt lat="48.6910490" lon="14.3663550">
        <ele>671.0</ele>
        <time>2019-08-07T14:06:54Z</time>
      </trkpt>
      <trkpt lat="48.6910680" lon="14.3663370">
        <ele>671.2</ele>
        <time>2019-08-07T14:06:55Z</time>
      </trkpt>
      <trkpt lat="48.6910910" lon="14.3663160">
        <ele>671.2</ele>
        <time>2019-08-07T14:06:56Z</time>
      </trkpt>
      <trkpt lat="48.6911070" lon="14.3662940">
        <ele>671.4</ele>
        <time>2019-08-07T14:06:57Z</time>
      </trkpt>
      <trkpt lat="48.6911240" lon="14.3662700">
        <ele>671.4</ele>
        <time>2019-08-07T14:06:58Z</time>
      </trkpt>
      <trkpt lat="48.6911380" lon="14.3662450">
        <ele>671.6</ele>
        <time>2019-08-07T14:06:59Z</time>
      </trkpt>
      <trkpt lat="48.6911510" lon="14.3662180">
        <ele>671.6</ele>
        <time>2019-08-07T14:07:00Z</time>
      </trkpt>
      <trkpt lat="48.6911640" lon="14.3661920">
        <ele>671.6</ele>
        <time>2019-08-07T14:07:01Z</time>
      </trkpt>
      <trkpt lat="48.6911810" lon="14.3661650">
        <ele>671.6</ele>
        <time>2019-08-07T14:07:02Z</time>
      </trkpt>
      <trkpt lat="48.6911950" lon="14.3661360">
        <ele>671.6</ele>
        <time>2019-08-07T14:07:03Z</time>
      </trkpt>
      <trkpt lat="48.6912130" lon="14.3661050">
        <ele>671.6</ele>
        <time>2019-08-07T14:07:04Z</time>
      </trkpt>
      <trkpt lat="48.6912350" lon="14.3660730">
        <ele>671.8</ele>
        <time>2019-08-07T14:07:05Z</time>
      </trkpt>
      <trkpt lat="48.6912580" lon="14.3660410">
        <ele>671.6</ele>
        <time>2019-08-07T14:07:06Z</time>
      </trkpt>
      <trkpt lat="48.6912800" lon="14.3660080">
        <ele>671.6</ele>
        <time>2019-08-07T14:07:07Z</time>
      </trkpt>
      <trkpt lat="48.6913030" lon="14.3659710">
        <ele>671.6</ele>
        <time>2019-08-07T14:07:08Z</time>
      </trkpt>
      <trkpt lat="48.6913270" lon="14.3659360">
        <ele>671.6</ele>
        <time>2019-08-07T14:07:09Z</time>
      </trkpt>
      <trkpt lat="48.6913540" lon="14.3659010">
        <ele>671.6</ele>
        <time>2019-08-07T14:07:10Z</time>
      </trkpt>
      <trkpt lat="48.6913850" lon="14.3658660">
        <ele>671.4</ele>
        <time>2019-08-07T14:07:11Z</time>
      </trkpt>
      <trkpt lat="48.6914150" lon="14.3658350">
        <ele>671.4</ele>
        <time>2019-08-07T14:07:12Z</time>
      </trkpt>
      <trkpt lat="48.6914410" lon="14.3658090">
        <ele>671.2</ele>
        <time>2019-08-07T14:07:13Z</time>
      </trkpt>
      <trkpt lat="48.6914680" lon="14.3657900">
        <ele>671.2</ele>
        <time>2019-08-07T14:07:14Z</time>
      </trkpt>
      <trkpt lat="48.6914960" lon="14.3657710">
        <ele>671.2</ele>
        <time>2019-08-07T14:07:15Z</time>
      </trkpt>
      <trkpt lat="48.6915270" lon="14.3657510">
        <ele>671.0</ele>
        <time>2019-08-07T14:07:16Z</time>
      </trkpt>
      <trkpt lat="48.6915580" lon="14.3657320">
        <ele>671.0</ele>
        <time>2019-08-07T14:07:17Z</time>
      </trkpt>
      <trkpt lat="48.6915910" lon="14.3657160">
        <ele>671.0</ele>
        <time>2019-08-07T14:07:18Z</time>
      </trkpt>
      <trkpt lat="48.6916250" lon="14.3657010">
        <ele>671.0</ele>
        <time>2019-08-07T14:07:19Z</time>
      </trkpt>
      <trkpt lat="48.6916620" lon="14.3656890">
        <ele>670.8</ele>
        <time>2019-08-07T14:07:20Z</time>
      </trkpt>
      <trkpt lat="48.6917020" lon="14.3656820">
        <ele>670.8</ele>
        <time>2019-08-07T14:07:21Z</time>
      </trkpt>
      <trkpt lat="48.6917410" lon="14.3656810">
        <ele>670.8</ele>
        <time>2019-08-07T14:07:22Z</time>
      </trkpt>
      <trkpt lat="48.6917810" lon="14.3656840">
        <ele>671.0</ele>
        <time>2019-08-07T14:07:23Z</time>
      </trkpt>
      <trkpt lat="48.6918200" lon="14.3656930">
        <ele>671.0</ele>
        <time>2019-08-07T14:07:24Z</time>
      </trkpt>
      <trkpt lat="48.6918590" lon="14.3657060">
        <ele>671.0</ele>
        <time>2019-08-07T14:07:25Z</time>
      </trkpt>
      <trkpt lat="48.6918980" lon="14.3657170">
        <ele>671.2</ele>
        <time>2019-08-07T14:07:26Z</time>
      </trkpt>
      <trkpt lat="48.6919340" lon="14.3657270">
        <ele>671.2</ele>
        <time>2019-08-07T14:07:27Z</time>
      </trkpt>
      <trkpt lat="48.6919710" lon="14.3657360">
        <ele>671.4</ele>
        <time>2019-08-07T14:07:28Z</time>
      </trkpt>
      <trkpt lat="48.6920070" lon="14.3657440">
        <ele>671.4</ele>
        <time>2019-08-07T14:07:29Z</time>
      </trkpt>
      <trkpt lat="48.6920450" lon="14.3657510">
        <ele>671.4</ele>
        <time>2019-08-07T14:07:30Z</time>
      </trkpt>
      <trkpt lat="48.6920850" lon="14.3657590">
        <ele>671.6</ele>
        <time>2019-08-07T14:07:31Z</time>
      </trkpt>
      <trkpt lat="48.6921200" lon="14.3657660">
        <ele>671.6</ele>
        <time>2019-08-07T14:07:32Z</time>
      </trkpt>
      <trkpt lat="48.6921560" lon="14.3657720">
        <ele>671.8</ele>
        <time>2019-08-07T14:07:33Z</time>
      </trkpt>
      <trkpt lat="48.6921940" lon="14.3657770">
        <ele>672.0</ele>
        <time>2019-08-07T14:07:34Z</time>
      </trkpt>
      <trkpt lat="48.6922310" lon="14.3657800">
        <ele>672.0</ele>
        <time>2019-08-07T14:07:35Z</time>
      </trkpt>
      <trkpt lat="48.6922640" lon="14.3657800">
        <ele>672.2</ele>
        <time>2019-08-07T14:07:36Z</time>
      </trkpt>
      <trkpt lat="48.6922980" lon="14.3657810">
        <ele>672.4</ele>
        <time>2019-08-07T14:07:37Z</time>
      </trkpt>
      <trkpt lat="48.6923330" lon="14.3657820">
        <ele>672.6</ele>
        <time>2019-08-07T14:07:38Z</time>
      </trkpt>
      <trkpt lat="48.6923680" lon="14.3657840">
        <ele>672.8</ele>
        <time>2019-08-07T14:07:39Z</time>
      </trkpt>
      <trkpt lat="48.6924020" lon="14.3657890">
        <ele>673.0</ele>
        <time>2019-08-07T14:07:40Z</time>
      </trkpt>
      <trkpt lat="48.6924330" lon="14.3657970">
        <ele>673.2</ele>
        <time>2019-08-07T14:07:41Z</time>
      </trkpt>
      <trkpt lat="48.6924640" lon="14.3658030">
        <ele>673.4</ele>
        <time>2019-08-07T14:07:42Z</time>
      </trkpt>
      <trkpt lat="48.6924970" lon="14.3658100">
        <ele>673.6</ele>
        <time>2019-08-07T14:07:43Z</time>
      </trkpt>
      <trkpt lat="48.6925300" lon="14.3658140">
        <ele>673.8</ele>
        <time>2019-08-07T14:07:44Z</time>
      </trkpt>
      <trkpt lat="48.6925660" lon="14.3658160">
        <ele>674.0</ele>
        <time>2019-08-07T14:07:45Z</time>
      </trkpt>
      <trkpt lat="48.6926040" lon="14.3658210">
        <ele>674.2</ele>
        <time>2019-08-07T14:07:46Z</time>
      </trkpt>
      <trkpt lat="48.6926400" lon="14.3658290">
        <ele>674.4</ele>
        <time>2019-08-07T14:07:47Z</time>
      </trkpt>
      <trkpt lat="48.6926720" lon="14.3658380">
        <ele>674.6</ele>
        <time>2019-08-07T14:07:48Z</time>
      </trkpt>
      <trkpt lat="48.6927040" lon="14.3658490">
        <ele>674.8</ele>
        <time>2019-08-07T14:07:49Z</time>
      </trkpt>
      <trkpt lat="48.6927390" lon="14.3658560">
        <ele>675.0</ele>
        <time>2019-08-07T14:07:50Z</time>
      </trkpt>
      <trkpt lat="48.6927800" lon="14.3658600">
        <ele>675.2</ele>
        <time>2019-08-07T14:07:51Z</time>
      </trkpt>
      <trkpt lat="48.6928180" lon="14.3658740">
        <ele>675.4</ele>
        <time>2019-08-07T14:07:52Z</time>
      </trkpt>
      <trkpt lat="48.6928510" lon="14.3658940">
        <ele>675.6</ele>
        <time>2019-08-07T14:07:53Z</time>
      </trkpt>
      <trkpt lat="48.6928820" lon="14.3659190">
        <ele>675.6</ele>
        <time>2019-08-07T14:07:54Z</time>
      </trkpt>
      <trkpt lat="48.6929170" lon="14.3659410">
        <ele>675.8</ele>
        <time>2019-08-07T14:07:55Z</time>
      </trkpt>
      <trkpt lat="48.6929520" lon="14.3659630">
        <ele>676.0</ele>
        <time>2019-08-07T14:07:56Z</time>
      </trkpt>
      <trkpt lat="48.6929870" lon="14.3659850">
        <ele>676.2</ele>
        <time>2019-08-07T14:07:57Z</time>
      </trkpt>
      <trkpt lat="48.6930260" lon="14.3660050">
        <ele>676.4</ele>
        <time>2019-08-07T14:07:58Z</time>
      </trkpt>
      <trkpt lat="48.6930670" lon="14.3660200">
        <ele>676.6</ele>
        <time>2019-08-07T14:07:59Z</time>
      </trkpt>
      <trkpt lat="48.6931080" lon="14.3660360">
        <ele>676.6</ele>
        <time>2019-08-07T14:08:00Z</time>
      </trkpt>
      <trkpt lat="48.6931420" lon="14.3660580">
        <ele>676.8</ele>
        <time>2019-08-07T14:08:01Z</time>
      </trkpt>
      <trkpt lat="48.6931790" lon="14.3660850">
        <ele>677.0</ele>
        <time>2019-08-07T14:08:02Z</time>
      </trkpt>
      <trkpt lat="48.6932190" lon="14.3661170">
        <ele>677.2</ele>
        <time>2019-08-07T14:08:03Z</time>
      </trkpt>
      <trkpt lat="48.6932570" lon="14.3661500">
        <ele>677.2</ele>
        <time>2019-08-07T14:08:04Z</time>
      </trkpt>
      <trkpt lat="48.6932920" lon="14.3661900">
        <ele>677.4</ele>
        <time>2019-08-07T14:08:05Z</time>
      </trkpt>
      <trkpt lat="48.6933280" lon="14.3662280">
        <ele>677.4</ele>
        <time>2019-08-07T14:08:06Z</time>
      </trkpt>
      <trkpt lat="48.6933670" lon="14.3662650">
        <ele>677.6</ele>
        <time>2019-08-07T14:08:07Z</time>
      </trkpt>
      <trkpt lat="48.6934070" lon="14.3663040">
        <ele>677.8</ele>
        <time>2019-08-07T14:08:08Z</time>
      </trkpt>
      <trkpt lat="48.6934460" lon="14.3663430">
        <ele>677.8</ele>
        <time>2019-08-07T14:08:09Z</time>
      </trkpt>
      <trkpt lat="48.6934820" lon="14.3663820">
        <ele>678.0</ele>
        <time>2019-08-07T14:08:10Z</time>
      </trkpt>
      <trkpt lat="48.6935180" lon="14.3664170">
        <ele>678.2</ele>
        <time>2019-08-07T14:08:11Z</time>
      </trkpt>
      <trkpt lat="48.6935570" lon="14.3664530">
        <ele>678.2</ele>
        <time>2019-08-07T14:08:12Z</time>
      </trkpt>
      <trkpt lat="48.6935940" lon="14.3664880">
        <ele>678.2</ele>
        <time>2019-08-07T14:08:13Z</time>
      </trkpt>
      <trkpt lat="48.6936290" lon="14.3665220">
        <ele>678.4</ele>
        <time>2019-08-07T14:08:14Z</time>
      </trkpt>
      <trkpt lat="48.6936640" lon="14.3665570">
        <ele>678.6</ele>
        <time>2019-08-07T14:08:15Z</time>
      </trkpt>
      <trkpt lat="48.6937000" lon="14.3665880">
        <ele>678.6</ele>
        <time>2019-08-07T14:08:16Z</time>
      </trkpt>
      <trkpt lat="48.6937360" lon="14.3666180">
        <ele>678.8</ele>
        <time>2019-08-07T14:08:17Z</time>
      </trkpt>
      <trkpt lat="48.6937700" lon="14.3666480">
        <ele>678.8</ele>
        <time>2019-08-07T14:08:18Z</time>
      </trkpt>
      <trkpt lat="48.6938020" lon="14.3666780">
        <ele>679.0</ele>
        <time>2019-08-07T14:08:19Z</time>
      </trkpt>
      <trkpt lat="48.6938320" lon="14.3667080">
        <ele>679.2</ele>
        <time>2019-08-07T14:08:20Z</time>
      </trkpt>
      <trkpt lat="48.6938610" lon="14.3667380">
        <ele>679.4</ele>
        <time>2019-08-07T14:08:21Z</time>
      </trkpt>
      <trkpt lat="48.6938890" lon="14.3667670">
        <ele>679.6</ele>
        <time>2019-08-07T14:08:22Z</time>
      </trkpt>
      <trkpt lat="48.6939130" lon="14.3667980">
        <ele>679.8</ele>
        <time>2019-08-07T14:08:23Z</time>
      </trkpt>
      <trkpt lat="48.6939340" lon="14.3668280">
        <ele>680.0</ele>
        <time>2019-08-07T14:08:24Z</time>
      </trkpt>
      <trkpt lat="48.6939530" lon="14.3668550">
        <ele>680.2</ele>
        <time>2019-08-07T14:08:25Z</time>
      </trkpt>
      <trkpt lat="48.6939750" lon="14.3668810">
        <ele>680.6</ele>
        <time>2019-08-07T14:08:26Z</time>
      </trkpt>
      <trkpt lat="48.6940030" lon="14.3669060">
        <ele>680.8</ele>
        <time>2019-08-07T14:08:27Z</time>
      </trkpt>
      <trkpt lat="48.6940320" lon="14.3669310">
        <ele>681.0</ele>
        <time>2019-08-07T14:08:28Z</time>
      </trkpt>
      <trkpt lat="48.6940580" lon="14.3669540">
        <ele>681.4</ele>
        <time>2019-08-07T14:08:29Z</time>
      </trkpt>
      <trkpt lat="48.6940840" lon="14.3669750">
        <ele>681.6</ele>
        <time>2019-08-07T14:08:30Z</time>
      </trkpt>
      <trkpt lat="48.6941130" lon="14.3669970">
        <ele>681.8</ele>
        <time>2019-08-07T14:08:31Z</time>
      </trkpt>
      <trkpt lat="48.6941430" lon="14.3670170">
        <ele>682.0</ele>
        <time>2019-08-07T14:08:32Z</time>
      </trkpt>
      <trkpt lat="48.6941730" lon="14.3670360">
        <ele>682.4</ele>
        <time>2019-08-07T14:08:33Z</time>
      </trkpt>
      <trkpt lat="48.6941980" lon="14.3670540">
        <ele>682.6</ele>
        <time>2019-08-07T14:08:34Z</time>
      </trkpt>
      <trkpt lat="48.6942230" lon="14.3670710">
        <ele>682.8</ele>
        <time>2019-08-07T14:08:35Z</time>
      </trkpt>
      <trkpt lat="48.6942460" lon="14.3670890">
        <ele>683.2</ele>
        <time>2019-08-07T14:08:36Z</time>
      </trkpt>
      <trkpt lat="48.6942670" lon="14.3671040">
        <ele>683.4</ele>
        <time>2019-08-07T14:08:37Z</time>
      </trkpt>
      <trkpt lat="48.6942880" lon="14.3671190">
        <ele>683.6</ele>
        <time>2019-08-07T14:08:38Z</time>
      </trkpt>
      <trkpt lat="48.6943080" lon="14.3671350">
        <ele>683.8</ele>
        <time>2019-08-07T14:08:39Z</time>
      </trkpt>
      <trkpt lat="48.6943280" lon="14.3671500">
        <ele>684.0</ele>
        <time>2019-08-07T14:08:40Z</time>
      </trkpt>
      <trkpt lat="48.6943480" lon="14.3671640">
        <ele>684.4</ele>
        <time>2019-08-07T14:08:41Z</time>
      </trkpt>
      <trkpt lat="48.6943670" lon="14.3671780">
        <ele>684.6</ele>
        <time>2019-08-07T14:08:42Z</time>
      </trkpt>
      <trkpt lat="48.6943870" lon="14.3671890">
        <ele>684.8</ele>
        <time>2019-08-07T14:08:43Z</time>
      </trkpt>
      <trkpt lat="48.6944070" lon="14.3672010">
        <ele>685.0</ele>
        <time>2019-08-07T14:08:44Z</time>
      </trkpt>
      <trkpt lat="48.6944260" lon="14.3672150">
        <ele>685.2</ele>
        <time>2019-08-07T14:08:45Z</time>
      </trkpt>
      <trkpt lat="48.6944420" lon="14.3672280">
        <ele>685.4</ele>
        <time>2019-08-07T14:08:46Z</time>
      </trkpt>
      <trkpt lat="48.6944570" lon="14.3672420">
        <ele>685.6</ele>
        <time>2019-08-07T14:08:47Z</time>
      </trkpt>
      <trkpt lat="48.6944740" lon="14.3672530">
        <ele>685.8</ele>
        <time>2019-08-07T14:08:48Z</time>
      </trkpt>
      <trkpt lat="48.6944930" lon="14.3672600">
        <ele>686.0</ele>
        <time>2019-08-07T14:08:49Z</time>
      </trkpt>
      <trkpt lat="48.6945110" lon="14.3672660">
        <ele>686.2</ele>
        <time>2019-08-07T14:08:50Z</time>
      </trkpt>
      <trkpt lat="48.6945280" lon="14.3672730">
        <ele>686.4</ele>
        <time>2019-08-07T14:08:51Z</time>
      </trkpt>
      <trkpt lat="48.6945450" lon="14.3672810">
        <ele>686.6</ele>
        <time>2019-08-07T14:08:52Z</time>
      </trkpt>
      <trkpt lat="48.6945620" lon="14.3672880">
        <ele>686.8</ele>
        <time>2019-08-07T14:08:53Z</time>
      </trkpt>
      <trkpt lat="48.6945800" lon="14.3672970">
        <ele>687.0</ele>
        <time>2019-08-07T14:08:54Z</time>
      </trkpt>
      <trkpt lat="48.6945950" lon="14.3673060">
        <ele>687.2</ele>
        <time>2019-08-07T14:08:55Z</time>
      </trkpt>
      <trkpt lat="48.6946100" lon="14.3673180">
        <ele>687.4</ele>
        <time>2019-08-07T14:08:56Z</time>
      </trkpt>
      <trkpt lat="48.6946260" lon="14.3673280">
        <ele>687.6</ele>
        <time>2019-08-07T14:08:57Z</time>
      </trkpt>
      <trkpt lat="48.6946410" lon="14.3673360">
        <ele>687.8</ele>
        <time>2019-08-07T14:08:58Z</time>
      </trkpt>
      <trkpt lat="48.6946540" lon="14.3673430">
        <ele>688.0</ele>
        <time>2019-08-07T14:08:59Z</time>
      </trkpt>
      <trkpt lat="48.6946680" lon="14.3673480">
        <ele>688.2</ele>
        <time>2019-08-07T14:09:00Z</time>
      </trkpt>
      <trkpt lat="48.6946820" lon="14.3673490">
        <ele>688.4</ele>
        <time>2019-08-07T14:09:01Z</time>
      </trkpt>
      <trkpt lat="48.6946970" lon="14.3673500">
        <ele>688.6</ele>
        <time>2019-08-07T14:09:02Z</time>
      </trkpt>
      <trkpt lat="48.6947140" lon="14.3673550">
        <ele>688.8</ele>
        <time>2019-08-07T14:09:03Z</time>
      </trkpt>
      <trkpt lat="48.6947330" lon="14.3673590">
        <ele>689.0</ele>
        <time>2019-08-07T14:09:04Z</time>
      </trkpt>
      <trkpt lat="48.6947510" lon="14.3673630">
        <ele>689.2</ele>
        <time>2019-08-07T14:09:05Z</time>
      </trkpt>
      <trkpt lat="48.6947710" lon="14.3673670">
        <ele>689.4</ele>
        <time>2019-08-07T14:09:06Z</time>
      </trkpt>
      <trkpt lat="48.6947930" lon="14.3673710">
        <ele>689.6</ele>
        <time>2019-08-07T14:09:07Z</time>
      </trkpt>
      <trkpt lat="48.6948130" lon="14.3673710">
        <ele>689.8</ele>
        <time>2019-08-07T14:09:08Z</time>
      </trkpt>
      <trkpt lat="48.6948290" lon="14.3673720">
        <ele>690.0</ele>
        <time>2019-08-07T14:09:09Z</time>
      </trkpt>
      <trkpt lat="48.6948440" lon="14.3673760">
        <ele>690.2</ele>
        <time>2019-08-07T14:09:10Z</time>
      </trkpt>
      <trkpt lat="48.6948640" lon="14.3673790">
        <ele>690.4</ele>
        <time>2019-08-07T14:09:11Z</time>
      </trkpt>
      <trkpt lat="48.6948850" lon="14.3673840">
        <ele>690.4</ele>
        <time>2019-08-07T14:09:12Z</time>
      </trkpt>
      <trkpt lat="48.6949060" lon="14.3673900">
        <ele>690.6</ele>
        <time>2019-08-07T14:09:13Z</time>
      </trkpt>
      <trkpt lat="48.6949260" lon="14.3673960">
        <ele>690.8</ele>
        <time>2019-08-07T14:09:14Z</time>
      </trkpt>
      <trkpt lat="48.6949420" lon="14.3674010">
        <ele>691.0</ele>
        <time>2019-08-07T14:09:15Z</time>
      </trkpt>
      <trkpt lat="48.6949570" lon="14.3674050">
        <ele>691.2</ele>
        <time>2019-08-07T14:09:16Z</time>
      </trkpt>
      <trkpt lat="48.6949780" lon="14.3674080">
        <ele>691.2</ele>
        <time>2019-08-07T14:09:17Z</time>
      </trkpt>
      <trkpt lat="48.6950000" lon="14.3674130">
        <ele>691.4</ele>
        <time>2019-08-07T14:09:18Z</time>
      </trkpt>
      <trkpt lat="48.6950200" lon="14.3674170">
        <ele>691.6</ele>
        <time>2019-08-07T14:09:19Z</time>
      </trkpt>
      <trkpt lat="48.6950410" lon="14.3674180">
        <ele>691.6</ele>
        <time>2019-08-07T14:09:20Z</time>
      </trkpt>
      <trkpt lat="48.6950610" lon="14.3674170">
        <ele>691.8</ele>
        <time>2019-08-07T14:09:21Z</time>
      </trkpt>
      <trkpt lat="48.6950810" lon="14.3674180">
        <ele>691.8</ele>
        <time>2019-08-07T14:09:22Z</time>
      </trkpt>
      <trkpt lat="48.6951000" lon="14.3674180">
        <ele>692.0</ele>
        <time>2019-08-07T14:09:23Z</time>
      </trkpt>
      <trkpt lat="48.6951190" lon="14.3674160">
        <ele>692.0</ele>
        <time>2019-08-07T14:09:24Z</time>
      </trkpt>
      <trkpt lat="48.6951400" lon="14.3674140">
        <ele>692.2</ele>
        <time>2019-08-07T14:09:25Z</time>
      </trkpt>
      <trkpt lat="48.6951630" lon="14.3674100">
        <ele>692.2</ele>
        <time>2019-08-07T14:09:26Z</time>
      </trkpt>
      <trkpt lat="48.6951870" lon="14.3674050">
        <ele>692.2</ele>
        <time>2019-08-07T14:09:27Z</time>
      </trkpt>
      <trkpt lat="48.6952120" lon="14.3674000">
        <ele>692.4</ele>
        <time>2019-08-07T14:09:28Z</time>
      </trkpt>
      <trkpt lat="48.6952370" lon="14.3673960">
        <ele>692.4</ele>
        <time>2019-08-07T14:09:29Z</time>
      </trkpt>
      <trkpt lat="48.6952620" lon="14.3673940">
        <ele>692.4</ele>
        <time>2019-08-07T14:09:30Z</time>
      </trkpt>
      <trkpt lat="48.6952890" lon="14.3673910">
        <ele>692.4</ele>
        <time>2019-08-07T14:09:31Z</time>
      </trkpt>
      <trkpt lat="48.6953180" lon="14.3673870">
        <ele>692.6</ele>
        <time>2019-08-07T14:09:32Z</time>
      </trkpt>
      <trkpt lat="48.6953490" lon="14.3673850">
        <ele>692.6</ele>
        <time>2019-08-07T14:09:33Z</time>
      </trkpt>
      <trkpt lat="48.6953770" lon="14.3673800">
        <ele>692.6</ele>
        <time>2019-08-07T14:09:34Z</time>
      </trkpt>
      <trkpt lat="48.6954050" lon="14.3673680">
        <ele>692.6</ele>
        <time>2019-08-07T14:09:35Z</time>
      </trkpt>
      <trkpt lat="48.6954400" lon="14.3673450">
        <ele>692.6</ele>
        <time>2019-08-07T14:09:36Z</time>
      </trkpt>
      <trkpt lat="48.6954750" lon="14.3673170">
        <ele>692.6</ele>
        <time>2019-08-07T14:09:37Z</time>
      </trkpt>
      <trkpt lat="48.6955030" lon="14.3672930">
        <ele>692.8</ele>
        <time>2019-08-07T14:09:38Z</time>
      </trkpt>
      <trkpt lat="48.6955310" lon="14.3672720">
        <ele>692.8</ele>
        <time>2019-08-07T14:09:39Z</time>
      </trkpt>
      <trkpt lat="48.6955660" lon="14.3672480">
        <ele>692.8</ele>
        <time>2019-08-07T14:09:40Z</time>
      </trkpt>
      <trkpt lat="48.6956040" lon="14.3672220">
        <ele>692.8</ele>
        <time>2019-08-07T14:09:41Z</time>
      </trkpt>
      <trkpt lat="48.6956410" lon="14.3671990">
        <ele>692.8</ele>
        <time>2019-08-07T14:09:42Z</time>
      </trkpt>
      <trkpt lat="48.6956770" lon="14.3671840">
        <ele>693.0</ele>
        <time>2019-08-07T14:09:43Z</time>
      </trkpt>
      <trkpt lat="48.6957100" lon="14.3671700">
        <ele>693.0</ele>
        <time>2019-08-07T14:09:44Z</time>
      </trkpt>
      <trkpt lat="48.6957440" lon="14.3671540">
        <ele>693.0</ele>
        <time>2019-08-07T14:09:45Z</time>
      </trkpt>
      <trkpt lat="48.6957800" lon="14.3671370">
        <ele>693.0</ele>
        <time>2019-08-07T14:09:46Z</time>
      </trkpt>
      <trkpt lat="48.6958150" lon="14.3671180">
        <ele>693.2</ele>
        <time>2019-08-07T14:09:47Z</time>
      </trkpt>
      <trkpt lat="48.6958500" lon="14.3670930">
        <ele>693.2</ele>
        <time>2019-08-07T14:09:48Z</time>
      </trkpt>
      <trkpt lat="48.6958850" lon="14.3670670">
        <ele>693.4</ele>
        <time>2019-08-07T14:09:49Z</time>
      </trkpt>
      <trkpt lat="48.6959220" lon="14.3670400">
        <ele>693.4</ele>
        <time>2019-08-07T14:09:50Z</time>
      </trkpt>
      <trkpt lat="48.6959590" lon="14.3670150">
        <ele>693.6</ele>
        <time>2019-08-07T14:09:51Z</time>
      </trkpt>
      <trkpt lat="48.6959900" lon="14.3669920">
        <ele>693.8</ele>
        <time>2019-08-07T14:09:52Z</time>
      </trkpt>
      <trkpt lat="48.6960220" lon="14.3669710">
        <ele>694.0</ele>
        <time>2019-08-07T14:09:53Z</time>
      </trkpt>
      <trkpt lat="48.6960540" lon="14.3669530">
        <ele>694.0</ele>
        <time>2019-08-07T14:09:54Z</time>
      </trkpt>
      <trkpt lat="48.6960840" lon="14.3669340">
        <ele>694.2</ele>
        <time>2019-08-07T14:09:55Z</time>
      </trkpt>
      <trkpt lat="48.6961120" lon="14.3669140">
        <ele>694.4</ele>
        <time>2019-08-07T14:09:56Z</time>
      </trkpt>
      <trkpt lat="48.6961410" lon="14.3668930">
        <ele>694.6</ele>
        <time>2019-08-07T14:09:57Z</time>
      </trkpt>
      <trkpt lat="48.6961760" lon="14.3668710">
        <ele>694.8</ele>
        <time>2019-08-07T14:09:58Z</time>
      </trkpt>
      <trkpt lat="48.6962160" lon="14.3668460">
        <ele>695.0</ele>
        <time>2019-08-07T14:09:59Z</time>
      </trkpt>
      <trkpt lat="48.6962540" lon="14.3668240">
        <ele>695.2</ele>
        <time>2019-08-07T14:10:00Z</time>
      </trkpt>
      <trkpt lat="48.6962910" lon="14.3668030">
        <ele>695.4</ele>
        <time>2019-08-07T14:10:01Z</time>
      </trkpt>
      <trkpt lat="48.6963260" lon="14.3667810">
        <ele>695.6</ele>
        <time>2019-08-07T14:10:02Z</time>
      </trkpt>
      <trkpt lat="48.6963600" lon="14.3667590">
        <ele>695.8</ele>
        <time>2019-08-07T14:10:03Z</time>
      </trkpt>
      <trkpt lat="48.6963910" lon="14.3667410">
        <ele>696.0</ele>
        <time>2019-08-07T14:10:04Z</time>
      </trkpt>
      <trkpt lat="48.6964180" lon="14.3667270">
        <ele>696.2</ele>
        <time>2019-08-07T14:10:05Z</time>
      </trkpt>
      <trkpt lat="48.6964420" lon="14.3667130">
        <ele>696.4</ele>
        <time>2019-08-07T14:10:06Z</time>
      </trkpt>
      <trkpt lat="48.6964650" lon="14.3666980">
        <ele>696.6</ele>
        <time>2019-08-07T14:10:07Z</time>
      </trkpt>
      <trkpt lat="48.6964880" lon="14.3666820">
        <ele>696.8</ele>
        <time>2019-08-07T14:10:08Z</time>
      </trkpt>
      <trkpt lat="48.6965110" lon="14.3666640">
        <ele>697.0</ele>
        <time>2019-08-07T14:10:09Z</time>
      </trkpt>
      <trkpt lat="48.6965340" lon="14.3666460">
        <ele>697.2</ele>
        <time>2019-08-07T14:10:10Z</time>
      </trkpt>
      <trkpt lat="48.6965590" lon="14.3666320">
        <ele>697.4</ele>
        <time>2019-08-07T14:10:11Z</time>
      </trkpt>
      <trkpt lat="48.6965810" lon="14.3666180">
        <ele>697.6</ele>
        <time>2019-08-07T14:10:12Z</time>
      </trkpt>
      <trkpt lat="48.6966040" lon="14.3666040">
        <ele>697.8</ele>
        <time>2019-08-07T14:10:13Z</time>
      </trkpt>
      <trkpt lat="48.6966270" lon="14.3665880">
        <ele>698.0</ele>
        <time>2019-08-07T14:10:14Z</time>
      </trkpt>
      <trkpt lat="48.6966500" lon="14.3665730">
        <ele>698.4</ele>
        <time>2019-08-07T14:10:15Z</time>
      </trkpt>
      <trkpt lat="48.6966740" lon="14.3665590">
        <ele>698.6</ele>
        <time>2019-08-07T14:10:16Z</time>
      </trkpt>
      <trkpt lat="48.6966970" lon="14.3665450">
        <ele>698.8</ele>
        <time>2019-08-07T14:10:17Z</time>
      </trkpt>
      <trkpt lat="48.6967190" lon="14.3665310">
        <ele>699.2</ele>
        <time>2019-08-07T14:10:18Z</time>
      </trkpt>
      <trkpt lat="48.6967390" lon="14.3665170">
        <ele>699.4</ele>
        <time>2019-08-07T14:10:19Z</time>
      </trkpt>
      <trkpt lat="48.6967590" lon="14.3665040">
        <ele>699.6</ele>
        <time>2019-08-07T14:10:20Z</time>
      </trkpt>
      <trkpt lat="48.6967780" lon="14.3664880">
        <ele>700.0</ele>
        <time>2019-08-07T14:10:21Z</time>
      </trkpt>
      <trkpt lat="48.6967980" lon="14.3664710">
        <ele>700.2</ele>
        <time>2019-08-07T14:10:22Z</time>
      </trkpt>
      <trkpt lat="48.6968180" lon="14.3664570">
        <ele>700.4</ele>
        <time>2019-08-07T14:10:23Z</time>
      </trkpt>
      <trkpt lat="48.6968390" lon="14.3664420">
        <ele>700.8</ele>
        <time>2019-08-07T14:10:24Z</time>
      </trkpt>
      <trkpt lat="48.6968590" lon="14.3664250">
        <ele>701.0</ele>
        <time>2019-08-07T14:10:25Z</time>
      </trkpt>
      <trkpt lat="48.6968790" lon="14.3664090">
        <ele>701.2</ele>
        <time>2019-08-07T14:10:26Z</time>
      </trkpt>
      <trkpt lat="48.6968980" lon="14.3663920">
        <ele>701.4</ele>
        <time>2019-08-07T14:10:27Z</time>
      </trkpt>
      <trkpt lat="48.6969160" lon="14.3663760">
        <ele>701.6</ele>
        <time>2019-08-07T14:10:28Z</time>
      </trkpt>
      <trkpt lat="48.6969340" lon="14.3663640">
        <ele>701.8</ele>
        <time>2019-08-07T14:10:29Z</time>
      </trkpt>
      <trkpt lat="48.6969550" lon="14.3663530">
        <ele>702.0</ele>
        <time>2019-08-07T14:10:30Z</time>
      </trkpt>
      <trkpt lat="48.6969770" lon="14.3663410">
        <ele>702.2</ele>
        <time>2019-08-07T14:10:31Z</time>
      </trkpt>
      <trkpt lat="48.6969980" lon="14.3663280">
        <ele>702.4</ele>
        <time>2019-08-07T14:10:32Z</time>
      </trkpt>
      <trkpt lat="48.6970220" lon="14.3663160">
        <ele>702.6</ele>
        <time>2019-08-07T14:10:33Z</time>
      </trkpt>
      <trkpt lat="48.6970480" lon="14.3663050">
        <ele>702.8</ele>
        <time>2019-08-07T14:10:34Z</time>
      </trkpt>
      <trkpt lat="48.6970740" lon="14.3662910">
        <ele>703.0</ele>
        <time>2019-08-07T14:10:35Z</time>
      </trkpt>
      <trkpt lat="48.6971020" lon="14.3662760">
        <ele>703.2</ele>
        <time>2019-08-07T14:10:36Z</time>
      </trkpt>
      <trkpt lat="48.6971290" lon="14.3662620">
        <ele>703.4</ele>
        <time>2019-08-07T14:10:37Z</time>
      </trkpt>
      <trkpt lat="48.6971540" lon="14.3662480">
        <ele>703.6</ele>
        <time>2019-08-07T14:10:38Z</time>
      </trkpt>
      <trkpt lat="48.6971780" lon="14.3662330">
        <ele>703.8</ele>
        <time>2019-08-07T14:10:39Z</time>
      </trkpt>
      <trkpt lat="48.6972000" lon="14.3662160">
        <ele>704.0</ele>
        <time>2019-08-07T14:10:40Z</time>
      </trkpt>
      <trkpt lat="48.6972230" lon="14.3662020">
        <ele>704.2</ele>
        <time>2019-08-07T14:10:41Z</time>
      </trkpt>
      <trkpt lat="48.6972480" lon="14.3661880">
        <ele>704.4</ele>
        <time>2019-08-07T14:10:42Z</time>
      </trkpt>
      <trkpt lat="48.6972740" lon="14.3661740">
        <ele>704.6</ele>
        <time>2019-08-07T14:10:43Z</time>
      </trkpt>
      <trkpt lat="48.6972970" lon="14.3661570">
        <ele>704.8</ele>
        <time>2019-08-07T14:10:44Z</time>
      </trkpt>
      <trkpt lat="48.6973210" lon="14.3661410">
        <ele>705.0</ele>
        <time>2019-08-07T14:10:45Z</time>
      </trkpt>
      <trkpt lat="48.6973440" lon="14.3661260">
        <ele>705.0</ele>
        <time>2019-08-07T14:10:46Z</time>
      </trkpt>
      <trkpt lat="48.6973670" lon="14.3661090">
        <ele>705.2</ele>
        <time>2019-08-07T14:10:47Z</time>
      </trkpt>
      <trkpt lat="48.6973880" lon="14.3660930">
        <ele>705.4</ele>
        <time>2019-08-07T14:10:48Z</time>
      </trkpt>
      <trkpt lat="48.6974080" lon="14.3660790">
        <ele>705.6</ele>
        <time>2019-08-07T14:10:49Z</time>
      </trkpt>
      <trkpt lat="48.6974280" lon="14.3660630">
        <ele>705.8</ele>
        <time>2019-08-07T14:10:50Z</time>
      </trkpt>
      <trkpt lat="48.6974470" lon="14.3660460">
        <ele>706.0</ele>
        <time>2019-08-07T14:10:51Z</time>
      </trkpt>
      <trkpt lat="48.6974680" lon="14.3660290">
        <ele>706.2</ele>
        <time>2019-08-07T14:10:52Z</time>
      </trkpt>
      <trkpt lat="48.6974900" lon="14.3660150">
        <ele>706.4</ele>
        <time>2019-08-07T14:10:53Z</time>
      </trkpt>
      <trkpt lat="48.6975110" lon="14.3660010">
        <ele>706.6</ele>
        <time>2019-08-07T14:10:54Z</time>
      </trkpt>
      <trkpt lat="48.6975340" lon="14.3659870">
        <ele>706.8</ele>
        <time>2019-08-07T14:10:55Z</time>
      </trkpt>
      <trkpt lat="48.6975560" lon="14.3659700">
        <ele>706.8</ele>
        <time>2019-08-07T14:10:56Z</time>
      </trkpt>
      <trkpt lat="48.6975750" lon="14.3659490">
        <ele>707.0</ele>
        <time>2019-08-07T14:10:57Z</time>
      </trkpt>
      <trkpt lat="48.6975940" lon="14.3659330">
        <ele>707.4</ele>
        <time>2019-08-07T14:10:58Z</time>
      </trkpt>
      <trkpt lat="48.6976150" lon="14.3659190">
        <ele>707.6</ele>
        <time>2019-08-07T14:10:59Z</time>
      </trkpt>
      <trkpt lat="48.6976370" lon="14.3659040">
        <ele>707.8</ele>
        <time>2019-08-07T14:11:00Z</time>
      </trkpt>
      <trkpt lat="48.6976580" lon="14.3658880">
        <ele>708.0</ele>
        <time>2019-08-07T14:11:01Z</time>
      </trkpt>
      <trkpt lat="48.6976790" lon="14.3658680">
        <ele>708.2</ele>
        <time>2019-08-07T14:11:02Z</time>
      </trkpt>
      <trkpt lat="48.6977000" lon="14.3658520">
        <ele>708.6</ele>
        <time>2019-08-07T14:11:03Z</time>
      </trkpt>
      <trkpt lat="48.6977190" lon="14.3658390">
        <ele>708.8</ele>
        <time>2019-08-07T14:11:04Z</time>
      </trkpt>
      <trkpt lat="48.6977410" lon="14.3658240">
        <ele>709.0</ele>
        <time>2019-08-07T14:11:05Z</time>
      </trkpt>
      <trkpt lat="48.6977640" lon="14.3658090">
        <ele>709.4</ele>
        <time>2019-08-07T14:11:06Z</time>
      </trkpt>
      <trkpt lat="48.6977860" lon="14.3657930">
        <ele>709.6</ele>
        <time>2019-08-07T14:11:07Z</time>
      </trkpt>
      <trkpt lat="48.6978060" lon="14.3657800">
        <ele>710.0</ele>
        <time>2019-08-07T14:11:08Z</time>
      </trkpt>
      <trkpt lat="48.6978260" lon="14.3657660">
        <ele>710.2</ele>
        <time>2019-08-07T14:11:09Z</time>
      </trkpt>
      <trkpt lat="48.6978460" lon="14.3657520">
        <ele>710.4</ele>
        <time>2019-08-07T14:11:10Z</time>
      </trkpt>
      <trkpt lat="48.6978690" lon="14.3657390">
        <ele>710.8</ele>
        <time>2019-08-07T14:11:11Z</time>
      </trkpt>
      <trkpt lat="48.6978890" lon="14.3657320">
        <ele>711.0</ele>
        <time>2019-08-07T14:11:12Z</time>
      </trkpt>
      <trkpt lat="48.6979080" lon="14.3657280">
        <ele>711.4</ele>
        <time>2019-08-07T14:11:13Z</time>
      </trkpt>
      <trkpt lat="48.6979290" lon="14.3657210">
        <ele>711.6</ele>
        <time>2019-08-07T14:11:14Z</time>
      </trkpt>
      <trkpt lat="48.6979500" lon="14.3657160">
        <ele>712.0</ele>
        <time>2019-08-07T14:11:15Z</time>
      </trkpt>
      <trkpt lat="48.6979720" lon="14.3657140">
        <ele>712.2</ele>
        <time>2019-08-07T14:11:16Z</time>
      </trkpt>
      <trkpt lat="48.6979940" lon="14.3657120">
        <ele>712.4</ele>
        <time>2019-08-07T14:11:17Z</time>
      </trkpt>
      <trkpt lat="48.6980150" lon="14.3657130">
        <ele>712.8</ele>
        <time>2019-08-07T14:11:18Z</time>
      </trkpt>
      <trkpt lat="48.6980360" lon="14.3657160">
        <ele>713.0</ele>
        <time>2019-08-07T14:11:19Z</time>
      </trkpt>
      <trkpt lat="48.6980580" lon="14.3657190">
        <ele>713.2</ele>
        <time>2019-08-07T14:11:20Z</time>
      </trkpt>
      <trkpt lat="48.6980810" lon="14.3657210">
        <ele>713.4</ele>
        <time>2019-08-07T14:11:21Z</time>
      </trkpt>
      <trkpt lat="48.6981040" lon="14.3657260">
        <ele>713.6</ele>
        <time>2019-08-07T14:11:22Z</time>
      </trkpt>
      <trkpt lat="48.6981250" lon="14.3657340">
        <ele>713.8</ele>
        <time>2019-08-07T14:11:23Z</time>
      </trkpt>
      <trkpt lat="48.6981460" lon="14.3657490">
        <ele>714.2</ele>
        <time>2019-08-07T14:11:24Z</time>
      </trkpt>
      <trkpt lat="48.6981660" lon="14.3657700">
        <ele>714.4</ele>
        <time>2019-08-07T14:11:25Z</time>
      </trkpt>
      <trkpt lat="48.6981890" lon="14.3657930">
        <ele>714.6</ele>
        <time>2019-08-07T14:11:26Z</time>
      </trkpt>
      <trkpt lat="48.6982100" lon="14.3658140">
        <ele>714.8</ele>
        <time>2019-08-07T14:11:27Z</time>
      </trkpt>
      <trkpt lat="48.6982290" lon="14.3658370">
        <ele>715.0</ele>
        <time>2019-08-07T14:11:28Z</time>
      </trkpt>
      <trkpt lat="48.6982480" lon="14.3658600">
        <ele>715.2</ele>
        <time>2019-08-07T14:11:29Z</time>
      </trkpt>
      <trkpt lat="48.6982700" lon="14.3658810">
        <ele>715.6</ele>
        <time>2019-08-07T14:11:30Z</time>
      </trkpt>
      <trkpt lat="48.6982910" lon="14.3659040">
        <ele>715.8</ele>
        <time>2019-08-07T14:11:31Z</time>
      </trkpt>
      <trkpt lat="48.6983060" lon="14.3659270">
        <ele>716.0</ele>
        <time>2019-08-07T14:11:32Z</time>
      </trkpt>
      <trkpt lat="48.6983220" lon="14.3659520">
        <ele>716.2</ele>
        <time>2019-08-07T14:11:33Z</time>
      </trkpt>
      <trkpt lat="48.6983410" lon="14.3659830">
        <ele>716.4</ele>
        <time>2019-08-07T14:11:34Z</time>
      </trkpt>
      <trkpt lat="48.6983600" lon="14.3660160">
        <ele>716.8</ele>
        <time>2019-08-07T14:11:35Z</time>
      </trkpt>
      <trkpt lat="48.6983780" lon="14.3660480">
        <ele>717.0</ele>
        <time>2019-08-07T14:11:36Z</time>
      </trkpt>
      <trkpt lat="48.6983940" lon="14.3660800">
        <ele>717.2</ele>
        <time>2019-08-07T14:11:37Z</time>
      </trkpt>
      <trkpt lat="48.6984110" lon="14.3661130">
        <ele>717.4</ele>
        <time>2019-08-07T14:11:38Z</time>
      </trkpt>
      <trkpt lat="48.6984300" lon="14.3661480">
        <ele>717.6</ele>
        <time>2019-08-07T14:11:39Z</time>
      </trkpt>
      <trkpt lat="48.6984470" lon="14.3661830">
        <ele>717.8</ele>
        <time>2019-08-07T14:11:40Z</time>
      </trkpt>
      <trkpt lat="48.6984650" lon="14.3662180">
        <ele>718.0</ele>
        <time>2019-08-07T14:11:41Z</time>
      </trkpt>
      <trkpt lat="48.6984840" lon="14.3662530">
        <ele>718.2</ele>
        <time>2019-08-07T14:11:42Z</time>
      </trkpt>
      <trkpt lat="48.6985020" lon="14.3662880">
        <ele>718.4</ele>
        <time>2019-08-07T14:11:43Z</time>
      </trkpt>
      <trkpt lat="48.6985200" lon="14.3663230">
        <ele>718.8</ele>
        <time>2019-08-07T14:11:44Z</time>
      </trkpt>
      <trkpt lat="48.6985390" lon="14.3663580">
        <ele>719.0</ele>
        <time>2019-08-07T14:11:45Z</time>
      </trkpt>
      <trkpt lat="48.6985560" lon="14.3663910">
        <ele>719.2</ele>
        <time>2019-08-07T14:11:46Z</time>
      </trkpt>
      <trkpt lat="48.6985730" lon="14.3664230">
        <ele>719.4</ele>
        <time>2019-08-07T14:11:47Z</time>
      </trkpt>
      <trkpt lat="48.6985870" lon="14.3664510">
        <ele>719.6</ele>
        <time>2019-08-07T14:11:48Z</time>
      </trkpt>
      <trkpt lat="48.6986020" lon="14.3664790">
        <ele>719.8</ele>
        <time>2019-08-07T14:11:49Z</time>
      </trkpt>
      <trkpt lat="48.6986180" lon="14.3665070">
        <ele>720.0</ele>
        <time>2019-08-07T14:11:50Z</time>
      </trkpt>
      <trkpt lat="48.6986350" lon="14.3665430">
        <ele>720.2</ele>
        <time>2019-08-07T14:11:51Z</time>
      </trkpt>
      <trkpt lat="48.6986500" lon="14.3665830">
        <ele>720.4</ele>
        <time>2019-08-07T14:11:52Z</time>
      </trkpt>
      <trkpt lat="48.6986650" lon="14.3666220">
        <ele>720.6</ele>
        <time>2019-08-07T14:11:53Z</time>
      </trkpt>
      <trkpt lat="48.6986810" lon="14.3666580">
        <ele>720.8</ele>
        <time>2019-08-07T14:11:54Z</time>
      </trkpt>
      <trkpt lat="48.6986980" lon="14.3666950">
        <ele>720.8</ele>
        <time>2019-08-07T14:11:55Z</time>
      </trkpt>
      <trkpt lat="48.6987150" lon="14.3667350">
        <ele>721.0</ele>
        <time>2019-08-07T14:11:56Z</time>
      </trkpt>
      <trkpt lat="48.6987280" lon="14.3667740">
        <ele>721.2</ele>
        <time>2019-08-07T14:11:57Z</time>
      </trkpt>
      <trkpt lat="48.6987420" lon="14.3668110">
        <ele>721.4</ele>
        <time>2019-08-07T14:11:58Z</time>
      </trkpt>
      <trkpt lat="48.6987570" lon="14.3668500">
        <ele>721.6</ele>
        <time>2019-08-07T14:11:59Z</time>
      </trkpt>
      <trkpt lat="48.6987720" lon="14.3668880">
        <ele>721.6</ele>
        <time>2019-08-07T14:12:00Z</time>
      </trkpt>
      <trkpt lat="48.6987900" lon="14.3669270">
        <ele>721.8</ele>
        <time>2019-08-07T14:12:01Z</time>
      </trkpt>
      <trkpt lat="48.6988100" lon="14.3669650">
        <ele>721.8</ele>
        <time>2019-08-07T14:12:02Z</time>
      </trkpt>
      <trkpt lat="48.6988300" lon="14.3670050">
        <ele>722.0</ele>
        <time>2019-08-07T14:12:03Z</time>
      </trkpt>
      <trkpt lat="48.6988510" lon="14.3670470">
        <ele>722.0</ele>
        <time>2019-08-07T14:12:04Z</time>
      </trkpt>
      <trkpt lat="48.6988700" lon="14.3670910">
        <ele>722.2</ele>
        <time>2019-08-07T14:12:05Z</time>
      </trkpt>
      <trkpt lat="48.6988880" lon="14.3671320">
        <ele>722.2</ele>
        <time>2019-08-07T14:12:06Z</time>
      </trkpt>
      <trkpt lat="48.6989070" lon="14.3671700">
        <ele>722.4</ele>
        <time>2019-08-07T14:12:07Z</time>
      </trkpt>
      <trkpt lat="48.6989300" lon="14.3672110">
        <ele>722.4</ele>
        <time>2019-08-07T14:12:08Z</time>
      </trkpt>
      <trkpt lat="48.6989500" lon="14.3672510">
        <ele>722.6</ele>
        <time>2019-08-07T14:12:09Z</time>
      </trkpt>
      <trkpt lat="48.6989700" lon="14.3672940">
        <ele>722.6</ele>
        <time>2019-08-07T14:12:10Z</time>
      </trkpt>
      <trkpt lat="48.6989940" lon="14.3673440">
        <ele>722.8</ele>
        <time>2019-08-07T14:12:11Z</time>
      </trkpt>
      <trkpt lat="48.6990130" lon="14.3673870">
        <ele>722.8</ele>
        <time>2019-08-07T14:12:12Z</time>
      </trkpt>
      <trkpt lat="48.6990340" lon="14.3674280">
        <ele>723.0</ele>
        <time>2019-08-07T14:12:13Z</time>
      </trkpt>
      <trkpt lat="48.6990590" lon="14.3674680">
        <ele>723.2</ele>
        <time>2019-08-07T14:12:14Z</time>
      </trkpt>
      <trkpt lat="48.6990850" lon="14.3675100">
        <ele>723.4</ele>
        <time>2019-08-07T14:12:15Z</time>
      </trkpt>
      <trkpt lat="48.6991080" lon="14.3675580">
        <ele>723.4</ele>
        <time>2019-08-07T14:12:16Z</time>
      </trkpt>
      <trkpt lat="48.6991310" lon="14.3676060">
        <ele>723.6</ele>
        <time>2019-08-07T14:12:17Z</time>
      </trkpt>
      <trkpt lat="48.6991500" lon="14.3676530">
        <ele>723.8</ele>
        <time>2019-08-07T14:12:18Z</time>
      </trkpt>
      <trkpt lat="48.6991680" lon="14.3676990">
        <ele>724.0</ele>
        <time>2019-08-07T14:12:19Z</time>
      </trkpt>
      <trkpt lat="48.6991820" lon="14.3677460">
        <ele>724.2</ele>
        <time>2019-08-07T14:12:20Z</time>
      </trkpt>
      <trkpt lat="48.6991930" lon="14.3677950">
        <ele>724.2</ele>
        <time>2019-08-07T14:12:21Z</time>
      </trkpt>
      <trkpt lat="48.6992060" lon="14.3678480">
        <ele>724.4</ele>
        <time>2019-08-07T14:12:22Z</time>
      </trkpt>
      <trkpt lat="48.6992170" lon="14.3679000">
        <ele>724.4</ele>
        <time>2019-08-07T14:12:23Z</time>
      </trkpt>
      <trkpt lat="48.6992250" lon="14.3679520">
        <ele>724.6</ele>
        <time>2019-08-07T14:12:24Z</time>
      </trkpt>
      <trkpt lat="48.6992310" lon="14.3679990">
        <ele>724.6</ele>
        <time>2019-08-07T14:12:25Z</time>
      </trkpt>
      <trkpt lat="48.6992360" lon="14.3680470">
        <ele>724.6</ele>
        <time>2019-08-07T14:12:26Z</time>
      </trkpt>
      <trkpt lat="48.6992430" lon="14.3680980">
        <ele>724.6</ele>
        <time>2019-08-07T14:12:27Z</time>
      </trkpt>
      <trkpt lat="48.6992510" lon="14.3681480">
        <ele>724.6</ele>
        <time>2019-08-07T14:12:28Z</time>
      </trkpt>
      <trkpt lat="48.6992560" lon="14.3681990">
        <ele>724.6</ele>
        <time>2019-08-07T14:12:29Z</time>
      </trkpt>
      <trkpt lat="48.6992600" lon="14.3682520">
        <ele>724.4</ele>
        <time>2019-08-07T14:12:30Z</time>
      </trkpt>
      <trkpt lat="48.6992650" lon="14.3683120">
        <ele>724.4</ele>
        <time>2019-08-07T14:12:31Z</time>
      </trkpt>
      <trkpt lat="48.6992650" lon="14.3683660">
        <ele>724.2</ele>
        <time>2019-08-07T14:12:32Z</time>
      </trkpt>
      <trkpt lat="48.6992640" lon="14.3684210">
        <ele>724.0</ele>
        <time>2019-08-07T14:12:33Z</time>
      </trkpt>
      <trkpt lat="48.6992620" lon="14.3684780">
        <ele>724.0</ele>
        <time>2019-08-07T14:12:34Z</time>
      </trkpt>
      <trkpt lat="48.6992590" lon="14.3685360">
        <ele>723.8</ele>
        <time>2019-08-07T14:12:35Z</time>
      </trkpt>
      <trkpt lat="48.6992550" lon="14.3685930">
        <ele>723.6</ele>
        <time>2019-08-07T14:12:36Z</time>
      </trkpt>
      <trkpt lat="48.6992480" lon="14.3686510">
        <ele>723.4</ele>
        <time>2019-08-07T14:12:37Z</time>
      </trkpt>
      <trkpt lat="48.6992400" lon="14.3687090">
        <ele>723.2</ele>
        <time>2019-08-07T14:12:38Z</time>
      </trkpt>
      <trkpt lat="48.6992310" lon="14.3687670">
        <ele>723.2</ele>
        <time>2019-08-07T14:12:39Z</time>
      </trkpt>
      <trkpt lat="48.6992230" lon="14.3688280">
        <ele>722.8</ele>
        <time>2019-08-07T14:12:40Z</time>
      </trkpt>
      <trkpt lat="48.6992180" lon="14.3688910">
        <ele>722.6</ele>
        <time>2019-08-07T14:12:41Z</time>
      </trkpt>
      <trkpt lat="48.6992160" lon="14.3689530">
        <ele>722.4</ele>
        <time>2019-08-07T14:12:42Z</time>
      </trkpt>
      <trkpt lat="48.6992130" lon="14.3690110">
        <ele>722.2</ele>
        <time>2019-08-07T14:12:43Z</time>
      </trkpt>
      <trkpt lat="48.6992060" lon="14.3690670">
        <ele>722.0</ele>
        <time>2019-08-07T14:12:44Z</time>
      </trkpt>
      <trkpt lat="48.6992000" lon="14.3691220">
        <ele>721.6</ele>
        <time>2019-08-07T14:12:45Z</time>
      </trkpt>
      <trkpt lat="48.6991950" lon="14.3691770">
        <ele>721.4</ele>
        <time>2019-08-07T14:12:46Z</time>
      </trkpt>
      <trkpt lat="48.6991850" lon="14.3692300">
        <ele>721.0</ele>
        <time>2019-08-07T14:12:47Z</time>
      </trkpt>
      <trkpt lat="48.6991760" lon="14.3692850">
        <ele>720.8</ele>
        <time>2019-08-07T14:12:48Z</time>
      </trkpt>
      <trkpt lat="48.6991680" lon="14.3693440">
        <ele>720.4</ele>
        <time>2019-08-07T14:12:49Z</time>
      </trkpt>
      <trkpt lat="48.6991620" lon="14.3694100">
        <ele>720.0</ele>
        <time>2019-08-07T14:12:50Z</time>
      </trkpt>
      <trkpt lat="48.6991530" lon="14.3694870">
        <ele>719.6</ele>
        <time>2019-08-07T14:12:51Z</time>
      </trkpt>
      <trkpt lat="48.6991420" lon="14.3695700">
        <ele>719.2</ele>
        <time>2019-08-07T14:12:52Z</time>
      </trkpt>
      <trkpt lat="48.6991310" lon="14.3696600">
        <ele>718.6</ele>
        <time>2019-08-07T14:12:53Z</time>
      </trkpt>
      <trkpt lat="48.6991180" lon="14.3697610">
        <ele>718.2</ele>
        <time>2019-08-07T14:12:54Z</time>
      </trkpt>
      <trkpt lat="48.6991030" lon="14.3698880">
        <ele>717.6</ele>
        <time>2019-08-07T14:12:55Z</time>
      </trkpt>
      <trkpt lat="48.6990850" lon="14.3700210">
        <ele>717.0</ele>
        <time>2019-08-07T14:12:56Z</time>
      </trkpt>
      <trkpt lat="48.6990600" lon="14.3701620">
        <ele>716.4</ele>
        <time>2019-08-07T14:12:57Z</time>
      </trkpt>
      <trkpt lat="48.6990310" lon="14.3703130">
        <ele>715.8</ele>
        <time>2019-08-07T14:12:58Z</time>
      </trkpt>
      <trkpt lat="48.6990030" lon="14.3704700">
        <ele>715.2</ele>
        <time>2019-08-07T14:12:59Z</time>
      </trkpt>
      <trkpt lat="48.6989750" lon="14.3706320">
        <ele>714.4</ele>
        <time>2019-08-07T14:13:00Z</time>
      </trkpt>
      <trkpt lat="48.6989440" lon="14.3707990">
        <ele>713.6</ele>
        <time>2019-08-07T14:13:01Z</time>
      </trkpt>
      <trkpt lat="48.6989140" lon="14.3709650">
        <ele>713.0</ele>
        <time>2019-08-07T14:13:02Z</time>
      </trkpt>
      <trkpt lat="48.6988850" lon="14.3711360">
        <ele>712.4</ele>
        <time>2019-08-07T14:13:03Z</time>
      </trkpt>
      <trkpt lat="48.6988590" lon="14.3713080">
        <ele>711.8</ele>
        <time>2019-08-07T14:13:04Z</time>
      </trkpt>
      <trkpt lat="48.6988300" lon="14.3714810">
        <ele>711.2</ele>
        <time>2019-08-07T14:13:05Z</time>
      </trkpt>
      <trkpt lat="48.6988000" lon="14.3716530">
        <ele>710.6</ele>
        <time>2019-08-07T14:13:06Z</time>
      </trkpt>
      <trkpt lat="48.6987700" lon="14.3718310">
        <ele>710.2</ele>
        <time>2019-08-07T14:13:07Z</time>
      </trkpt>
      <trkpt lat="48.6987430" lon="14.3720000">
        <ele>709.6</ele>
        <time>2019-08-07T14:13:08Z</time>
      </trkpt>
      <trkpt lat="48.6987160" lon="14.3721710">
        <ele>709.2</ele>
        <time>2019-08-07T14:13:09Z</time>
      </trkpt>
      <trkpt lat="48.6986890" lon="14.3723490">
        <ele>708.8</ele>
        <time>2019-08-07T14:13:10Z</time>
      </trkpt>
      <trkpt lat="48.6986620" lon="14.3725280">
        <ele>708.4</ele>
        <time>2019-08-07T14:13:11Z</time>
      </trkpt>
      <trkpt lat="48.6986380" lon="14.3726910">
        <ele>708.2</ele>
        <time>2019-08-07T14:13:12Z</time>
      </trkpt>
      <trkpt lat="48.6986140" lon="14.3728490">
        <ele>708.0</ele>
        <time>2019-08-07T14:13:13Z</time>
      </trkpt>
      <trkpt lat="48.6985910" lon="14.3730040">
        <ele>708.0</ele>
        <time>2019-08-07T14:13:14Z</time>
      </trkpt>
      <trkpt lat="48.6985700" lon="14.3731590">
        <ele>707.8</ele>
        <time>2019-08-07T14:13:15Z</time>
      </trkpt>
      <trkpt lat="48.6985500" lon="14.3733000">
        <ele>707.8</ele>
        <time>2019-08-07T14:13:16Z</time>
      </trkpt>
      <trkpt lat="48.6985260" lon="14.3734410">
        <ele>707.6</ele>
        <time>2019-08-07T14:13:17Z</time>
      </trkpt>
      <trkpt lat="48.6985020" lon="14.3735740">
        <ele>707.4</ele>
        <time>2019-08-07T14:13:18Z</time>
      </trkpt>
      <trkpt lat="48.6984760" lon="14.3737050">
        <ele>707.2</ele>
        <time>2019-08-07T14:13:19Z</time>
      </trkpt>
      <trkpt lat="48.6984540" lon="14.3738390">
        <ele>706.8</ele>
        <time>2019-08-07T14:13:20Z</time>
      </trkpt>
      <trkpt lat="48.6984340" lon="14.3739710">
        <ele>706.4</ele>
        <time>2019-08-07T14:13:21Z</time>
      </trkpt>
      <trkpt lat="48.6984140" lon="14.3741020">
        <ele>706.2</ele>
        <time>2019-08-07T14:13:22Z</time>
      </trkpt>
      <trkpt lat="48.6983950" lon="14.3742360">
        <ele>706.0</ele>
        <time>2019-08-07T14:13:23Z</time>
      </trkpt>
      <trkpt lat="48.6983770" lon="14.3743710">
        <ele>705.6</ele>
        <time>2019-08-07T14:13:24Z</time>
      </trkpt>
      <trkpt lat="48.6983630" lon="14.3745090">
        <ele>705.2</ele>
        <time>2019-08-07T14:13:25Z</time>
      </trkpt>
      <trkpt lat="48.6983580" lon="14.3746480">
        <ele>704.8</ele>
        <time>2019-08-07T14:13:26Z</time>
      </trkpt>
      <trkpt lat="48.6983610" lon="14.3747880">
        <ele>704.6</ele>
        <time>2019-08-07T14:13:27Z</time>
      </trkpt>
      <trkpt lat="48.6983710" lon="14.3749270">
        <ele>704.2</ele>
        <time>2019-08-07T14:13:28Z</time>
      </trkpt>
      <trkpt lat="48.6983910" lon="14.3750570">
        <ele>704.0</ele>
        <time>2019-08-07T14:13:29Z</time>
      </trkpt>
      <trkpt lat="48.6984160" lon="14.3751840">
        <ele>703.8</ele>
        <time>2019-08-07T14:13:30Z</time>
      </trkpt>
      <trkpt lat="48.6984450" lon="14.3753190">
        <ele>703.4</ele>
        <time>2019-08-07T14:13:31Z</time>
      </trkpt>
      <trkpt lat="48.6984770" lon="14.3754480">
        <ele>703.2</ele>
        <time>2019-08-07T14:13:32Z</time>
      </trkpt>
      <trkpt lat="48.6985080" lon="14.3755800">
        <ele>702.8</ele>
        <time>2019-08-07T14:13:33Z</time>
      </trkpt>
      <trkpt lat="48.6985380" lon="14.3757110">
        <ele>702.6</ele>
        <time>2019-08-07T14:13:34Z</time>
      </trkpt>
      <trkpt lat="48.6985750" lon="14.3758400">
        <ele>702.2</ele>
        <time>2019-08-07T14:13:35Z</time>
      </trkpt>
      <trkpt lat="48.6986150" lon="14.3759730">
        <ele>702.0</ele>
        <time>2019-08-07T14:13:36Z</time>
      </trkpt>
      <trkpt lat="48.6986500" lon="14.3761100">
        <ele>701.6</ele>
        <time>2019-08-07T14:13:37Z</time>
      </trkpt>
      <trkpt lat="48.6986880" lon="14.3762490">
        <ele>701.4</ele>
        <time>2019-08-07T14:13:38Z</time>
      </trkpt>
      <trkpt lat="48.6987290" lon="14.3763890">
        <ele>700.8</ele>
        <time>2019-08-07T14:13:39Z</time>
      </trkpt>
      <trkpt lat="48.6987700" lon="14.3765320">
        <ele>700.2</ele>
        <time>2019-08-07T14:13:40Z</time>
      </trkpt>
      <trkpt lat="48.6988100" lon="14.3766760">
        <ele>699.4</ele>
        <time>2019-08-07T14:13:41Z</time>
      </trkpt>
      <trkpt lat="48.6988500" lon="14.3768210">
        <ele>698.6</ele>
        <time>2019-08-07T14:13:42Z</time>
      </trkpt>
      <trkpt lat="48.6988890" lon="14.3769730">
        <ele>697.6</ele>
        <time>2019-08-07T14:13:43Z</time>
      </trkpt>
      <trkpt lat="48.6989310" lon="14.3771250">
        <ele>696.6</ele>
        <time>2019-08-07T14:13:44Z</time>
      </trkpt>
      <trkpt lat="48.6989750" lon="14.3772810">
        <ele>695.8</ele>
        <time>2019-08-07T14:13:45Z</time>
      </trkpt>
      <trkpt lat="48.6990200" lon="14.3774360">
        <ele>694.6</ele>
        <time>2019-08-07T14:13:46Z</time>
      </trkpt>
      <trkpt lat="48.6990700" lon="14.3775970">
        <ele>693.4</ele>
        <time>2019-08-07T14:13:47Z</time>
      </trkpt>
      <trkpt lat="48.6991220" lon="14.3777590">
        <ele>692.2</ele>
        <time>2019-08-07T14:13:48Z</time>
      </trkpt>
      <trkpt lat="48.6991700" lon="14.3779240">
        <ele>691.2</ele>
        <time>2019-08-07T14:13:49Z</time>
      </trkpt>
      <trkpt lat="48.6992200" lon="14.3780990">
        <ele>689.6</ele>
        <time>2019-08-07T14:13:50Z</time>
      </trkpt>
      <trkpt lat="48.6992710" lon="14.3782850">
        <ele>688.4</ele>
        <time>2019-08-07T14:13:51Z</time>
      </trkpt>
      <trkpt lat="48.6993190" lon="14.3784670">
        <ele>687.4</ele>
        <time>2019-08-07T14:13:52Z</time>
      </trkpt>
      <trkpt lat="48.6993580" lon="14.3786580">
        <ele>686.4</ele>
        <time>2019-08-07T14:13:53Z</time>
      </trkpt>
      <trkpt lat="48.6993840" lon="14.3788450">
        <ele>685.0</ele>
        <time>2019-08-07T14:13:54Z</time>
      </trkpt>
      <trkpt lat="48.6994020" lon="14.3790250">
        <ele>683.6</ele>
        <time>2019-08-07T14:13:55Z</time>
      </trkpt>
      <trkpt lat="48.6994130" lon="14.3792060">
        <ele>682.4</ele>
        <time>2019-08-07T14:13:56Z</time>
      </trkpt>
      <trkpt lat="48.6994190" lon="14.3793980">
        <ele>681.4</ele>
        <time>2019-08-07T14:13:57Z</time>
      </trkpt>
      <trkpt lat="48.6994230" lon="14.3795980">
        <ele>680.4</ele>
        <time>2019-08-07T14:13:58Z</time>
      </trkpt>
      <trkpt lat="48.6994270" lon="14.3798100">
        <ele>679.2</ele>
        <time>2019-08-07T14:13:59Z</time>
      </trkpt>
      <trkpt lat="48.6994250" lon="14.3800260">
        <ele>678.2</ele>
        <time>2019-08-07T14:14:00Z</time>
      </trkpt>
      <trkpt lat="48.6994210" lon="14.3802490">
        <ele>677.0</ele>
        <time>2019-08-07T14:14:01Z</time>
      </trkpt>
      <trkpt lat="48.6994180" lon="14.3804810">
        <ele>675.8</ele>
        <time>2019-08-07T14:14:02Z</time>
      </trkpt>
      <trkpt lat="48.6994180" lon="14.3807140">
        <ele>674.4</ele>
        <time>2019-08-07T14:14:03Z</time>
      </trkpt>
      <trkpt lat="48.6994150" lon="14.3809470">
        <ele>673.0</ele>
        <time>2019-08-07T14:14:04Z</time>
      </trkpt>
      <trkpt lat="48.6994110" lon="14.3811870">
        <ele>671.8</ele>
        <time>2019-08-07T14:14:05Z</time>
      </trkpt>
      <trkpt lat="48.6994080" lon="14.3814270">
        <ele>670.6</ele>
        <time>2019-08-07T14:14:06Z</time>
      </trkpt>
      <trkpt lat="48.6994090" lon="14.3816590">
        <ele>669.6</ele>
        <time>2019-08-07T14:14:07Z</time>
      </trkpt>
      <trkpt lat="48.6994120" lon="14.3818850">
        <ele>668.4</ele>
        <time>2019-08-07T14:14:08Z</time>
      </trkpt>
      <trkpt lat="48.6994160" lon="14.3821000">
        <ele>667.2</ele>
        <time>2019-08-07T14:14:09Z</time>
      </trkpt>
      <trkpt lat="48.6994190" lon="14.3823150">
        <ele>666.4</ele>
        <time>2019-08-07T14:14:10Z</time>
      </trkpt>
      <trkpt lat="48.6994210" lon="14.3825500">
        <ele>665.8</ele>
        <time>2019-08-07T14:14:11Z</time>
      </trkpt>
      <trkpt lat="48.6994220" lon="14.3827670">
        <ele>665.0</ele>
        <time>2019-08-07T14:14:12Z</time>
      </trkpt>
      <trkpt lat="48.6994200" lon="14.3829850">
        <ele>664.4</ele>
        <time>2019-08-07T14:14:13Z</time>
      </trkpt>
      <trkpt lat="48.6994170" lon="14.3832030">
        <ele>663.8</ele>
        <time>2019-08-07T14:14:14Z</time>
      </trkpt>
      <trkpt lat="48.6994160" lon="14.3834170">
        <ele>662.8</ele>
        <time>2019-08-07T14:14:15Z</time>
      </trkpt>
      <trkpt lat="48.6994170" lon="14.3836310">
        <ele>662.0</ele>
        <time>2019-08-07T14:14:16Z</time>
      </trkpt>
      <trkpt lat="48.6994180" lon="14.3838470">
        <ele>660.8</ele>
        <time>2019-08-07T14:14:17Z</time>
      </trkpt>
      <trkpt lat="48.6994180" lon="14.3840480">
        <ele>659.6</ele>
        <time>2019-08-07T14:14:18Z</time>
      </trkpt>
      <trkpt lat="48.6994180" lon="14.3842290">
        <ele>658.4</ele>
        <time>2019-08-07T14:14:19Z</time>
      </trkpt>
      <trkpt lat="48.6994160" lon="14.3843950">
        <ele>657.2</ele>
        <time>2019-08-07T14:14:20Z</time>
      </trkpt>
      <trkpt lat="48.6994120" lon="14.3845610">
        <ele>656.2</ele>
        <time>2019-08-07T14:14:21Z</time>
      </trkpt>
      <trkpt lat="48.6994090" lon="14.3847320">
        <ele>655.0</ele>
        <time>2019-08-07T14:14:22Z</time>
      </trkpt>
      <trkpt lat="48.6994050" lon="14.3849130">
        <ele>654.0</ele>
        <time>2019-08-07T14:14:23Z</time>
      </trkpt>
      <trkpt lat="48.6994030" lon="14.3850960">
        <ele>653.2</ele>
        <time>2019-08-07T14:14:24Z</time>
      </trkpt>
      <trkpt lat="48.6994020" lon="14.3852790">
        <ele>652.2</ele>
        <time>2019-08-07T14:14:25Z</time>
      </trkpt>
      <trkpt lat="48.6994030" lon="14.3854640">
        <ele>650.8</ele>
        <time>2019-08-07T14:14:26Z</time>
      </trkpt>
      <trkpt lat="48.6994000" lon="14.3856460">
        <ele>649.4</ele>
        <time>2019-08-07T14:14:27Z</time>
      </trkpt>
      <trkpt lat="48.6993980" lon="14.3858160">
        <ele>647.8</ele>
        <time>2019-08-07T14:14:28Z</time>
      </trkpt>
      <trkpt lat="48.6993970" lon="14.3859690">
        <ele>646.2</ele>
        <time>2019-08-07T14:14:29Z</time>
      </trkpt>
      <trkpt lat="48.6993910" lon="14.3861210">
        <ele>644.6</ele>
        <time>2019-08-07T14:14:30Z</time>
      </trkpt>
      <trkpt lat="48.6993740" lon="14.3862940">
        <ele>643.2</ele>
        <time>2019-08-07T14:14:31Z</time>
      </trkpt>
      <trkpt lat="48.6993500" lon="14.3864630">
        <ele>642.0</ele>
        <time>2019-08-07T14:14:32Z</time>
      </trkpt>
      <trkpt lat="48.6993170" lon="14.3866320">
        <ele>641.2</ele>
        <time>2019-08-07T14:14:33Z</time>
      </trkpt>
      <trkpt lat="48.6992710" lon="14.3868040">
        <ele>640.2</ele>
        <time>2019-08-07T14:14:34Z</time>
      </trkpt>
      <trkpt lat="48.6992160" lon="14.3869740">
        <ele>639.0</ele>
        <time>2019-08-07T14:14:35Z</time>
      </trkpt>
      <trkpt lat="48.6991590" lon="14.3871410">
        <ele>638.2</ele>
        <time>2019-08-07T14:14:36Z</time>
      </trkpt>
      <trkpt lat="48.6991040" lon="14.3873140">
        <ele>637.2</ele>
        <time>2019-08-07T14:14:37Z</time>
      </trkpt>
      <trkpt lat="48.6990580" lon="14.3874840">
        <ele>636.4</ele>
        <time>2019-08-07T14:14:38Z</time>
      </trkpt>
      <trkpt lat="48.6990170" lon="14.3876480">
        <ele>636.0</ele>
        <time>2019-08-07T14:14:39Z</time>
      </trkpt>
      <trkpt lat="48.6989710" lon="14.3878060">
        <ele>635.6</ele>
        <time>2019-08-07T14:14:40Z</time>
      </trkpt>
      <trkpt lat="48.6989250" lon="14.3879610">
        <ele>635.4</ele>
        <time>2019-08-07T14:14:41Z</time>
      </trkpt>
      <trkpt lat="48.6988860" lon="14.3881150">
        <ele>635.2</ele>
        <time>2019-08-07T14:14:42Z</time>
      </trkpt>
      <trkpt lat="48.6988480" lon="14.3882540">
        <ele>635.2</ele>
        <time>2019-08-07T14:14:43Z</time>
      </trkpt>
      <trkpt lat="48.6988080" lon="14.3883890">
        <ele>635.0</ele>
        <time>2019-08-07T14:14:44Z</time>
      </trkpt>
      <trkpt lat="48.6987710" lon="14.3885180">
        <ele>635.0</ele>
        <time>2019-08-07T14:14:45Z</time>
      </trkpt>
      <trkpt lat="48.6987330" lon="14.3886420">
        <ele>634.8</ele>
        <time>2019-08-07T14:14:46Z</time>
      </trkpt>
      <trkpt lat="48.6986950" lon="14.3887620">
        <ele>634.8</ele>
        <time>2019-08-07T14:14:47Z</time>
      </trkpt>
      <trkpt lat="48.6986580" lon="14.3888790">
        <ele>634.6</ele>
        <time>2019-08-07T14:14:48Z</time>
      </trkpt>
      <trkpt lat="48.6986240" lon="14.3889870">
        <ele>634.6</ele>
        <time>2019-08-07T14:14:49Z</time>
      </trkpt>
      <trkpt lat="48.6985930" lon="14.3890840">
        <ele>634.4</ele>
        <time>2019-08-07T14:14:50Z</time>
      </trkpt>
      <trkpt lat="48.6985640" lon="14.3891720">
        <ele>634.0</ele>
        <time>2019-08-07T14:14:51Z</time>
      </trkpt>
      <trkpt lat="48.6985410" lon="14.3892480">
        <ele>633.8</ele>
        <time>2019-08-07T14:14:52Z</time>
      </trkpt>
      <trkpt lat="48.6985210" lon="14.3893210">
        <ele>633.8</ele>
        <time>2019-08-07T14:14:53Z</time>
      </trkpt>
      <trkpt lat="48.6985010" lon="14.3893930">
        <ele>633.6</ele>
        <time>2019-08-07T14:14:54Z</time>
      </trkpt>
      <trkpt lat="48.6984810" lon="14.3894590">
        <ele>633.6</ele>
        <time>2019-08-07T14:14:55Z</time>
      </trkpt>
      <trkpt lat="48.6984670" lon="14.3895150">
        <ele>633.4</ele>
        <time>2019-08-07T14:14:56Z</time>
      </trkpt>
      <trkpt lat="48.6984620" lon="14.3895610">
        <ele>633.2</ele>
        <time>2019-08-07T14:14:57Z</time>
      </trkpt>
      <trkpt lat="48.6984650" lon="14.3896030">
        <ele>633.0</ele>
        <time>2019-08-07T14:14:58Z</time>
      </trkpt>
      <trkpt lat="48.6984760" lon="14.3896430">
        <ele>633.0</ele>
        <time>2019-08-07T14:14:59Z</time>
      </trkpt>
      <trkpt lat="48.6984900" lon="14.3896770">
        <ele>632.8</ele>
        <time>2019-08-07T14:15:00Z</time>
      </trkpt>
      <trkpt lat="48.6985140" lon="14.3897010">
        <ele>632.6</ele>
        <time>2019-08-07T14:15:01Z</time>
      </trkpt>
      <trkpt lat="48.6985460" lon="14.3897100">
        <ele>632.6</ele>
        <time>2019-08-07T14:15:02Z</time>
      </trkpt>
      <trkpt lat="48.6985800" lon="14.3897060">
        <ele>632.4</ele>
        <time>2019-08-07T14:15:03Z</time>
      </trkpt>
      <trkpt lat="48.6986150" lon="14.3896910">
        <ele>632.4</ele>
        <time>2019-08-07T14:15:04Z</time>
      </trkpt>
      <trkpt lat="48.6986520" lon="14.3896710">
        <ele>632.2</ele>
        <time>2019-08-07T14:15:05Z</time>
      </trkpt>
      <trkpt lat="48.6986910" lon="14.3896490">
        <ele>632.2</ele>
        <time>2019-08-07T14:15:06Z</time>
      </trkpt>
      <trkpt lat="48.6987320" lon="14.3896280">
        <ele>632.2</ele>
        <time>2019-08-07T14:15:07Z</time>
      </trkpt>
      <trkpt lat="48.6987730" lon="14.3896100">
        <ele>632.2</ele>
        <time>2019-08-07T14:15:08Z</time>
      </trkpt>
      <trkpt lat="48.6988160" lon="14.3895910">
        <ele>632.2</ele>
        <time>2019-08-07T14:15:09Z</time>
      </trkpt>
      <trkpt lat="48.6988580" lon="14.3895690">
        <ele>632.2</ele>
        <time>2019-08-07T14:15:10Z</time>
      </trkpt>
      <trkpt lat="48.6989030" lon="14.3895460">
        <ele>632.2</ele>
        <time>2019-08-07T14:15:11Z</time>
      </trkpt>
      <trkpt lat="48.6989450" lon="14.3895300">
        <ele>632.2</ele>
        <time>2019-08-07T14:15:12Z</time>
      </trkpt>
      <trkpt lat="48.6989870" lon="14.3895160">
        <ele>632.2</ele>
        <time>2019-08-07T14:15:13Z</time>
      </trkpt>
      <trkpt lat="48.6990280" lon="14.3895000">
        <ele>632.2</ele>
        <time>2019-08-07T14:15:14Z</time>
      </trkpt>
      <trkpt lat="48.6990670" lon="14.3894840">
        <ele>632.4</ele>
        <time>2019-08-07T14:15:15Z</time>
      </trkpt>
      <trkpt lat="48.6991020" lon="14.3894680">
        <ele>632.4</ele>
        <time>2019-08-07T14:15:16Z</time>
      </trkpt>
      <trkpt lat="48.6991350" lon="14.3894530">
        <ele>632.4</ele>
        <time>2019-08-07T14:15:17Z</time>
      </trkpt>
      <trkpt lat="48.6991660" lon="14.3894380">
        <ele>632.6</ele>
        <time>2019-08-07T14:15:18Z</time>
      </trkpt>
      <trkpt lat="48.6991950" lon="14.3894240">
        <ele>632.6</ele>
        <time>2019-08-07T14:15:19Z</time>
      </trkpt>
      <trkpt lat="48.6992200" lon="14.3894110">
        <ele>632.8</ele>
        <time>2019-08-07T14:15:20Z</time>
      </trkpt>
      <trkpt lat="48.6992440" lon="14.3894000">
        <ele>633.0</ele>
        <time>2019-08-07T14:15:21Z</time>
      </trkpt>
      <trkpt lat="48.6992660" lon="14.3893890">
        <ele>633.2</ele>
        <time>2019-08-07T14:15:22Z</time>
      </trkpt>
      <trkpt lat="48.6992860" lon="14.3893780">
        <ele>633.4</ele>
        <time>2019-08-07T14:15:23Z</time>
      </trkpt>
      <trkpt lat="48.6993080" lon="14.3893670">
        <ele>633.4</ele>
        <time>2019-08-07T14:15:24Z</time>
      </trkpt>
      <trkpt lat="48.6993300" lon="14.3893560">
        <ele>633.6</ele>
        <time>2019-08-07T14:15:25Z</time>
      </trkpt>
      <trkpt lat="48.6993510" lon="14.3893460">
        <ele>633.8</ele>
        <time>2019-08-07T14:15:26Z</time>
      </trkpt>
      <trkpt lat="48.6993730" lon="14.3893350">
        <ele>634.0</ele>
        <time>2019-08-07T14:15:27Z</time>
      </trkpt>
      <trkpt lat="48.6993970" lon="14.3893250">
        <ele>634.2</ele>
        <time>2019-08-07T14:15:28Z</time>
      </trkpt>
      <trkpt lat="48.6994190" lon="14.3893170">
        <ele>634.4</ele>
        <time>2019-08-07T14:15:29Z</time>
      </trkpt>
      <trkpt lat="48.6994410" lon="14.3893080">
        <ele>634.6</ele>
        <time>2019-08-07T14:15:30Z</time>
      </trkpt>
      <trkpt lat="48.6994650" lon="14.3892970">
        <ele>634.8</ele>
        <time>2019-08-07T14:15:31Z</time>
      </trkpt>
      <trkpt lat="48.6994860" lon="14.3892840">
        <ele>635.0</ele>
        <time>2019-08-07T14:15:32Z</time>
      </trkpt>
      <trkpt lat="48.6995080" lon="14.3892720">
        <ele>635.4</ele>
        <time>2019-08-07T14:15:33Z</time>
      </trkpt>
      <trkpt lat="48.6995300" lon="14.3892590">
        <ele>635.6</ele>
        <time>2019-08-07T14:15:34Z</time>
      </trkpt>
      <trkpt lat="48.6995510" lon="14.3892430">
        <ele>635.8</ele>
        <time>2019-08-07T14:15:35Z</time>
      </trkpt>
      <trkpt lat="48.6995720" lon="14.3892280">
        <ele>636.0</ele>
        <time>2019-08-07T14:15:36Z</time>
      </trkpt>
      <trkpt lat="48.6995930" lon="14.3892150">
        <ele>636.2</ele>
        <time>2019-08-07T14:15:37Z</time>
      </trkpt>
      <trkpt lat="48.6996130" lon="14.3892020">
        <ele>636.6</ele>
        <time>2019-08-07T14:15:38Z</time>
      </trkpt>
      <trkpt lat="48.6996340" lon="14.3891900">
        <ele>636.8</ele>
        <time>2019-08-07T14:15:39Z</time>
      </trkpt>
      <trkpt lat="48.6996540" lon="14.3891790">
        <ele>637.0</ele>
        <time>2019-08-07T14:15:40Z</time>
      </trkpt>
      <trkpt lat="48.6996740" lon="14.3891670">
        <ele>637.2</ele>
        <time>2019-08-07T14:15:41Z</time>
      </trkpt>
      <trkpt lat="48.6996940" lon="14.3891560">
        <ele>637.4</ele>
        <time>2019-08-07T14:15:42Z</time>
      </trkpt>
      <trkpt lat="48.6997140" lon="14.3891430">
        <ele>637.6</ele>
        <time>2019-08-07T14:15:43Z</time>
      </trkpt>
      <trkpt lat="48.6997330" lon="14.3891310">
        <ele>637.8</ele>
        <time>2019-08-07T14:15:44Z</time>
      </trkpt>
      <trkpt lat="48.6997510" lon="14.3891200">
        <ele>638.2</ele>
        <time>2019-08-07T14:15:45Z</time>
      </trkpt>
      <trkpt lat="48.6997710" lon="14.3891100">
        <ele>638.4</ele>
        <time>2019-08-07T14:15:46Z</time>
      </trkpt>
      <trkpt lat="48.6997900" lon="14.3891020">
        <ele>638.6</ele>
        <time>2019-08-07T14:15:47Z</time>
      </trkpt>
      <trkpt lat="48.6998090" lon="14.3890930">
        <ele>638.8</ele>
        <time>2019-08-07T14:15:48Z</time>
      </trkpt>
      <trkpt lat="48.6998270" lon="14.3890830">
        <ele>639.0</ele>
        <time>2019-08-07T14:15:49Z</time>
      </trkpt>
      <trkpt lat="48.6998440" lon="14.3890740">
        <ele>639.2</ele>
        <time>2019-08-07T14:15:50Z</time>
      </trkpt>
      <trkpt lat="48.6998640" lon="14.3890650">
        <ele>639.4</ele>
        <time>2019-08-07T14:15:51Z</time>
      </trkpt>
      <trkpt lat="48.6998820" lon="14.3890560">
        <ele>639.6</ele>
        <time>2019-08-07T14:15:52Z</time>
      </trkpt>
      <trkpt lat="48.6999000" lon="14.3890460">
        <ele>639.8</ele>
        <time>2019-08-07T14:15:53Z</time>
      </trkpt>
      <trkpt lat="48.6999170" lon="14.3890360">
        <ele>640.2</ele>
        <time>2019-08-07T14:15:54Z</time>
      </trkpt>
      <trkpt lat="48.6999350" lon="14.3890230">
        <ele>640.4</ele>
        <time>2019-08-07T14:15:55Z</time>
      </trkpt>
      <trkpt lat="48.6999540" lon="14.3890110">
        <ele>640.6</ele>
        <time>2019-08-07T14:15:56Z</time>
      </trkpt>
      <trkpt lat="48.6999720" lon="14.3890010">
        <ele>640.8</ele>
        <time>2019-08-07T14:15:57Z</time>
      </trkpt>
      <trkpt lat="48.6999900" lon="14.3889970">
        <ele>641.0</ele>
        <time>2019-08-07T14:15:58Z</time>
      </trkpt>
      <trkpt lat="48.7000090" lon="14.3889930">
        <ele>641.2</ele>
        <time>2019-08-07T14:15:59Z</time>
      </trkpt>
      <trkpt lat="48.7000280" lon="14.3889890">
        <ele>641.4</ele>
        <time>2019-08-07T14:16:00Z</time>
      </trkpt>
      <trkpt lat="48.7000470" lon="14.3889840">
        <ele>641.6</ele>
        <time>2019-08-07T14:16:01Z</time>
      </trkpt>
      <trkpt lat="48.7000650" lon="14.3889760">
        <ele>641.8</ele>
        <time>2019-08-07T14:16:02Z</time>
      </trkpt>
      <trkpt lat="48.7000840" lon="14.3889670">
        <ele>642.0</ele>
        <time>2019-08-07T14:16:03Z</time>
      </trkpt>
      <trkpt lat="48.7001030" lon="14.3889600">
        <ele>642.2</ele>
        <time>2019-08-07T14:16:04Z</time>
      </trkpt>
      <trkpt lat="48.7001200" lon="14.3889550">
        <ele>642.4</ele>
        <time>2019-08-07T14:16:05Z</time>
      </trkpt>
      <trkpt lat="48.7001390" lon="14.3889500">
        <ele>642.6</ele>
        <time>2019-08-07T14:16:06Z</time>
      </trkpt>
      <trkpt lat="48.7001590" lon="14.3889480">
        <ele>642.8</ele>
        <time>2019-08-07T14:16:07Z</time>
      </trkpt>
      <trkpt lat="48.7001770" lon="14.3889450">
        <ele>643.0</ele>
        <time>2019-08-07T14:16:08Z</time>
      </trkpt>
      <trkpt lat="48.7001950" lon="14.3889420">
        <ele>643.2</ele>
        <time>2019-08-07T14:16:09Z</time>
      </trkpt>
      <trkpt lat="48.7002120" lon="14.3889380">
        <ele>643.4</ele>
        <time>2019-08-07T14:16:10Z</time>
      </trkpt>
      <trkpt lat="48.7002300" lon="14.3889320">
        <ele>643.6</ele>
        <time>2019-08-07T14:16:11Z</time>
      </trkpt>
      <trkpt lat="48.7002490" lon="14.3889290">
        <ele>643.6</ele>
        <time>2019-08-07T14:16:12Z</time>
      </trkpt>
      <trkpt lat="48.7002670" lon="14.3889260">
        <ele>643.8</ele>
        <time>2019-08-07T14:16:13Z</time>
      </trkpt>
      <trkpt lat="48.7002850" lon="14.3889220">
        <ele>644.0</ele>
        <time>2019-08-07T14:16:14Z</time>
      </trkpt>
      <trkpt lat="48.7003040" lon="14.3889180">
        <ele>644.2</ele>
        <time>2019-08-07T14:16:15Z</time>
      </trkpt>
      <trkpt lat="48.7003220" lon="14.3889130">
        <ele>644.4</ele>
        <time>2019-08-07T14:16:16Z</time>
      </trkpt>
      <trkpt lat="48.7003390" lon="14.3889040">
        <ele>644.6</ele>
        <time>2019-08-07T14:16:17Z</time>
      </trkpt>
      <trkpt lat="48.7003550" lon="14.3888940">
        <ele>644.8</ele>
        <time>2019-08-07T14:16:18Z</time>
      </trkpt>
      <trkpt lat="48.7003730" lon="14.3888880">
        <ele>645.0</ele>
        <time>2019-08-07T14:16:19Z</time>
      </trkpt>
      <trkpt lat="48.7003900" lon="14.3888810">
        <ele>645.2</ele>
        <time>2019-08-07T14:16:20Z</time>
      </trkpt>
      <trkpt lat="48.7004080" lon="14.3888750">
        <ele>645.2</ele>
        <time>2019-08-07T14:16:21Z</time>
      </trkpt>
      <trkpt lat="48.7004250" lon="14.3888700">
        <ele>645.4</ele>
        <time>2019-08-07T14:16:22Z</time>
      </trkpt>
      <trkpt lat="48.7004440" lon="14.3888670">
        <ele>645.6</ele>
        <time>2019-08-07T14:16:23Z</time>
      </trkpt>
      <trkpt lat="48.7004640" lon="14.3888640">
        <ele>645.8</ele>
        <time>2019-08-07T14:16:24Z</time>
      </trkpt>
      <trkpt lat="48.7004810" lon="14.3888620">
        <ele>646.0</ele>
        <time>2019-08-07T14:16:25Z</time>
      </trkpt>
      <trkpt lat="48.7004990" lon="14.3888590">
        <ele>646.0</ele>
        <time>2019-08-07T14:16:26Z</time>
      </trkpt>
      <trkpt lat="48.7005170" lon="14.3888560">
        <ele>646.2</ele>
        <time>2019-08-07T14:16:27Z</time>
      </trkpt>
      <trkpt lat="48.7005350" lon="14.3888500">
        <ele>646.4</ele>
        <time>2019-08-07T14:16:28Z</time>
      </trkpt>
      <trkpt lat="48.7005530" lon="14.3888460">
        <ele>646.6</ele>
        <time>2019-08-07T14:16:29Z</time>
      </trkpt>
      <trkpt lat="48.7005710" lon="14.3888400">
        <ele>646.8</ele>
        <time>2019-08-07T14:16:30Z</time>
      </trkpt>
      <trkpt lat="48.7005900" lon="14.3888360">
        <ele>646.8</ele>
        <time>2019-08-07T14:16:31Z</time>
      </trkpt>
      <trkpt lat="48.7006090" lon="14.3888340">
        <ele>647.0</ele>
        <time>2019-08-07T14:16:32Z</time>
      </trkpt>
      <trkpt lat="48.7006270" lon="14.3888300">
        <ele>647.2</ele>
        <time>2019-08-07T14:16:33Z</time>
      </trkpt>
      <trkpt lat="48.7006450" lon="14.3888250">
        <ele>647.4</ele>
        <time>2019-08-07T14:16:34Z</time>
      </trkpt>
      <trkpt lat="48.7006630" lon="14.3888190">
        <ele>647.6</ele>
        <time>2019-08-07T14:16:35Z</time>
      </trkpt>
      <trkpt lat="48.7006820" lon="14.3888130">
        <ele>647.6</ele>
        <time>2019-08-07T14:16:36Z</time>
      </trkpt>
      <trkpt lat="48.7007000" lon="14.3888090">
        <ele>647.8</ele>
        <time>2019-08-07T14:16:37Z</time>
      </trkpt>
      <trkpt lat="48.7007210" lon="14.3888060">
        <ele>648.0</ele>
        <time>2019-08-07T14:16:38Z</time>
      </trkpt>
      <trkpt lat="48.7007410" lon="14.3888040">
        <ele>648.2</ele>
        <time>2019-08-07T14:16:39Z</time>
      </trkpt>
      <trkpt lat="48.7007610" lon="14.3888010">
        <ele>648.4</ele>
        <time>2019-08-07T14:16:40Z</time>
      </trkpt>
      <trkpt lat="48.7007820" lon="14.3887990">
        <ele>648.6</ele>
        <time>2019-08-07T14:16:41Z</time>
      </trkpt>
      <trkpt lat="48.7008020" lon="14.3887950">
        <ele>648.6</ele>
        <time>2019-08-07T14:16:42Z</time>
      </trkpt>
      <trkpt lat="48.7008220" lon="14.3887890">
        <ele>648.8</ele>
        <time>2019-08-07T14:16:43Z</time>
      </trkpt>
      <trkpt lat="48.7008420" lon="14.3887800">
        <ele>649.0</ele>
        <time>2019-08-07T14:16:44Z</time>
      </trkpt>
      <trkpt lat="48.7008600" lon="14.3887710">
        <ele>649.2</ele>
        <time>2019-08-07T14:16:45Z</time>
      </trkpt>
      <trkpt lat="48.7008790" lon="14.3887600">
        <ele>649.4</ele>
        <time>2019-08-07T14:16:46Z</time>
      </trkpt>
      <trkpt lat="48.7008960" lon="14.3887470">
        <ele>649.6</ele>
        <time>2019-08-07T14:16:47Z</time>
      </trkpt>
      <trkpt lat="48.7009140" lon="14.3887340">
        <ele>649.6</ele>
        <time>2019-08-07T14:16:48Z</time>
      </trkpt>
      <trkpt lat="48.7009310" lon="14.3887210">
        <ele>649.8</ele>
        <time>2019-08-07T14:16:49Z</time>
      </trkpt>
      <trkpt lat="48.7009480" lon="14.3887090">
        <ele>650.0</ele>
        <time>2019-08-07T14:16:50Z</time>
      </trkpt>
      <trkpt lat="48.7009710" lon="14.3886980">
        <ele>650.2</ele>
        <time>2019-08-07T14:16:51Z</time>
      </trkpt>
      <trkpt lat="48.7009910" lon="14.3886880">
        <ele>650.4</ele>
        <time>2019-08-07T14:16:52Z</time>
      </trkpt>
      <trkpt lat="48.7010110" lon="14.3886770">
        <ele>650.6</ele>
        <time>2019-08-07T14:16:53Z</time>
      </trkpt>
      <trkpt lat="48.7010320" lon="14.3886660">
        <ele>650.8</ele>
        <time>2019-08-07T14:16:54Z</time>
      </trkpt>
      <trkpt lat="48.7010510" lon="14.3886560">
        <ele>651.0</ele>
        <time>2019-08-07T14:16:55Z</time>
      </trkpt>
      <trkpt lat="48.7010700" lon="14.3886440">
        <ele>651.0</ele>
        <time>2019-08-07T14:16:56Z</time>
      </trkpt>
      <trkpt lat="48.7010890" lon="14.3886320">
        <ele>651.2</ele>
        <time>2019-08-07T14:16:57Z</time>
      </trkpt>
      <trkpt lat="48.7011090" lon="14.3886190">
        <ele>651.4</ele>
        <time>2019-08-07T14:16:58Z</time>
      </trkpt>
      <trkpt lat="48.7011280" lon="14.3886090">
        <ele>651.6</ele>
        <time>2019-08-07T14:16:59Z</time>
      </trkpt>
      <trkpt lat="48.7011480" lon="14.3886000">
        <ele>651.8</ele>
        <time>2019-08-07T14:17:00Z</time>
      </trkpt>
      <trkpt lat="48.7011670" lon="14.3885890">
        <ele>652.0</ele>
        <time>2019-08-07T14:17:01Z</time>
      </trkpt>
      <trkpt lat="48.7011860" lon="14.3885770">
        <ele>652.2</ele>
        <time>2019-08-07T14:17:02Z</time>
      </trkpt>
      <trkpt lat="48.7012050" lon="14.3885640">
        <ele>652.4</ele>
        <time>2019-08-07T14:17:03Z</time>
      </trkpt>
      <trkpt lat="48.7012230" lon="14.3885510">
        <ele>652.6</ele>
        <time>2019-08-07T14:17:04Z</time>
      </trkpt>
      <trkpt lat="48.7012390" lon="14.3885360">
        <ele>652.8</ele>
        <time>2019-08-07T14:17:05Z</time>
      </trkpt>
      <trkpt lat="48.7012570" lon="14.3885200">
        <ele>652.8</ele>
        <time>2019-08-07T14:17:06Z</time>
      </trkpt>
      <trkpt lat="48.7012750" lon="14.3885040">
        <ele>653.0</ele>
        <time>2019-08-07T14:17:07Z</time>
      </trkpt>
      <trkpt lat="48.7012910" lon="14.3884890">
        <ele>653.2</ele>
        <time>2019-08-07T14:17:08Z</time>
      </trkpt>
      <trkpt lat="48.7013080" lon="14.3884730">
        <ele>653.4</ele>
        <time>2019-08-07T14:17:09Z</time>
      </trkpt>
      <trkpt lat="48.7013250" lon="14.3884570">
        <ele>653.6</ele>
        <time>2019-08-07T14:17:10Z</time>
      </trkpt>
      <trkpt lat="48.7013460" lon="14.3884420">
        <ele>653.8</ele>
        <time>2019-08-07T14:17:11Z</time>
      </trkpt>
      <trkpt lat="48.7013650" lon="14.3884280">
        <ele>654.0</ele>
        <time>2019-08-07T14:17:12Z</time>
      </trkpt>
      <trkpt lat="48.7013840" lon="14.3884130">
        <ele>654.0</ele>
        <time>2019-08-07T14:17:13Z</time>
      </trkpt>
      <trkpt lat="48.7014040" lon="14.3884000">
        <ele>654.2</ele>
        <time>2019-08-07T14:17:14Z</time>
      </trkpt>
      <trkpt lat="48.7014230" lon="14.3883870">
        <ele>654.4</ele>
        <time>2019-08-07T14:17:15Z</time>
      </trkpt>
      <trkpt lat="48.7014410" lon="14.3883740">
        <ele>654.6</ele>
        <time>2019-08-07T14:17:16Z</time>
      </trkpt>
      <trkpt lat="48.7014600" lon="14.3883610">
        <ele>654.8</ele>
        <time>2019-08-07T14:17:17Z</time>
      </trkpt>
      <trkpt lat="48.7014790" lon="14.3883490">
        <ele>654.8</ele>
        <time>2019-08-07T14:17:18Z</time>
      </trkpt>
      <trkpt lat="48.7014990" lon="14.3883350">
        <ele>655.0</ele>
        <time>2019-08-07T14:17:19Z</time>
      </trkpt>
      <trkpt lat="48.7015170" lon="14.3883190">
        <ele>655.2</ele>
        <time>2019-08-07T14:17:20Z</time>
      </trkpt>
      <trkpt lat="48.7015360" lon="14.3883040">
        <ele>655.4</ele>
        <time>2019-08-07T14:17:21Z</time>
      </trkpt>
      <trkpt lat="48.7015540" lon="14.3882910">
        <ele>655.6</ele>
        <time>2019-08-07T14:17:22Z</time>
      </trkpt>
      <trkpt lat="48.7015750" lon="14.3882750">
        <ele>655.8</ele>
        <time>2019-08-07T14:17:23Z</time>
      </trkpt>
      <trkpt lat="48.7015950" lon="14.3882590">
        <ele>656.0</ele>
        <time>2019-08-07T14:17:24Z</time>
      </trkpt>
      <trkpt lat="48.7016160" lon="14.3882460">
        <ele>656.2</ele>
        <time>2019-08-07T14:17:25Z</time>
      </trkpt>
      <trkpt lat="48.7016380" lon="14.3882330">
        <ele>656.4</ele>
        <time>2019-08-07T14:17:26Z</time>
      </trkpt>
      <trkpt lat="48.7016590" lon="14.3882210">
        <ele>656.6</ele>
        <time>2019-08-07T14:17:27Z</time>
      </trkpt>
      <trkpt lat="48.7016800" lon="14.3882110">
        <ele>656.8</ele>
        <time>2019-08-07T14:17:28Z</time>
      </trkpt>
      <trkpt lat="48.7017000" lon="14.3882020">
        <ele>657.0</ele>
        <time>2019-08-07T14:17:29Z</time>
      </trkpt>
      <trkpt lat="48.7017200" lon="14.3881940">
        <ele>657.2</ele>
        <time>2019-08-07T14:17:30Z</time>
      </trkpt>
      <trkpt lat="48.7017430" lon="14.3881850">
        <ele>657.4</ele>
        <time>2019-08-07T14:17:31Z</time>
      </trkpt>
      <trkpt lat="48.7017650" lon="14.3881770">
        <ele>657.4</ele>
        <time>2019-08-07T14:17:32Z</time>
      </trkpt>
      <trkpt lat="48.7017860" lon="14.3881680">
        <ele>657.6</ele>
        <time>2019-08-07T14:17:33Z</time>
      </trkpt>
      <trkpt lat="48.7018070" lon="14.3881590">
        <ele>657.8</ele>
        <time>2019-08-07T14:17:34Z</time>
      </trkpt>
      <trkpt lat="48.7018270" lon="14.3881500">
        <ele>658.0</ele>
        <time>2019-08-07T14:17:35Z</time>
      </trkpt>
      <trkpt lat="48.7018470" lon="14.3881420">
        <ele>658.2</ele>
        <time>2019-08-07T14:17:36Z</time>
      </trkpt>
      <trkpt lat="48.7018680" lon="14.3881340">
        <ele>658.4</ele>
        <time>2019-08-07T14:17:37Z</time>
      </trkpt>
      <trkpt lat="48.7018910" lon="14.3881260">
        <ele>658.4</ele>
        <time>2019-08-07T14:17:38Z</time>
      </trkpt>
      <trkpt lat="48.7019140" lon="14.3881190">
        <ele>658.6</ele>
        <time>2019-08-07T14:17:39Z</time>
      </trkpt>
      <trkpt lat="48.7019390" lon="14.3881130">
        <ele>658.8</ele>
        <time>2019-08-07T14:17:40Z</time>
      </trkpt>
      <trkpt lat="48.7019610" lon="14.3881050">
        <ele>659.0</ele>
        <time>2019-08-07T14:17:41Z</time>
      </trkpt>
      <trkpt lat="48.7019830" lon="14.3880960">
        <ele>659.0</ele>
        <time>2019-08-07T14:17:42Z</time>
      </trkpt>
      <trkpt lat="48.7020040" lon="14.3880870">
        <ele>659.2</ele>
        <time>2019-08-07T14:17:43Z</time>
      </trkpt>
      <trkpt lat="48.7020250" lon="14.3880790">
        <ele>659.4</ele>
        <time>2019-08-07T14:17:44Z</time>
      </trkpt>
      <trkpt lat="48.7020460" lon="14.3880720">
        <ele>659.6</ele>
        <time>2019-08-07T14:17:45Z</time>
      </trkpt>
      <trkpt lat="48.7020680" lon="14.3880640">
        <ele>659.6</ele>
        <time>2019-08-07T14:17:46Z</time>
      </trkpt>
      <trkpt lat="48.7020900" lon="14.3880560">
        <ele>659.8</ele>
        <time>2019-08-07T14:17:47Z</time>
      </trkpt>
      <trkpt lat="48.7021110" lon="14.3880500">
        <ele>659.8</ele>
        <time>2019-08-07T14:17:48Z</time>
      </trkpt>
      <trkpt lat="48.7021310" lon="14.3880460">
        <ele>660.0</ele>
        <time>2019-08-07T14:17:49Z</time>
      </trkpt>
      <trkpt lat="48.7021530" lon="14.3880390">
        <ele>660.0</ele>
        <time>2019-08-07T14:17:50Z</time>
      </trkpt>
      <trkpt lat="48.7021790" lon="14.3880320">
        <ele>660.2</ele>
        <time>2019-08-07T14:17:51Z</time>
      </trkpt>
      <trkpt lat="48.7022040" lon="14.3880240">
        <ele>660.4</ele>
        <time>2019-08-07T14:17:52Z</time>
      </trkpt>
      <trkpt lat="48.7022290" lon="14.3880160">
        <ele>660.4</ele>
        <time>2019-08-07T14:17:53Z</time>
      </trkpt>
      <trkpt lat="48.7022550" lon="14.3880090">
        <ele>660.6</ele>
        <time>2019-08-07T14:17:54Z</time>
      </trkpt>
      <trkpt lat="48.7022820" lon="14.3880030">
        <ele>660.6</ele>
        <time>2019-08-07T14:17:55Z</time>
      </trkpt>
      <trkpt lat="48.7023110" lon="14.3879980">
        <ele>660.8</ele>
        <time>2019-08-07T14:17:56Z</time>
      </trkpt>
      <trkpt lat="48.7023380" lon="14.3879910">
        <ele>660.8</ele>
        <time>2019-08-07T14:17:57Z</time>
      </trkpt>
      <trkpt lat="48.7023660" lon="14.3879840">
        <ele>661.0</ele>
        <time>2019-08-07T14:17:58Z</time>
      </trkpt>
      <trkpt lat="48.7023940" lon="14.3879770">
        <ele>661.0</ele>
        <time>2019-08-07T14:17:59Z</time>
      </trkpt>
      <trkpt lat="48.7024220" lon="14.3879690">
        <ele>661.2</ele>
        <time>2019-08-07T14:18:00Z</time>
      </trkpt>
      <trkpt lat="48.7024490" lon="14.3879600">
        <ele>661.2</ele>
        <time>2019-08-07T14:18:01Z</time>
      </trkpt>
      <trkpt lat="48.7024770" lon="14.3879530">
        <ele>661.4</ele>
        <time>2019-08-07T14:18:02Z</time>
      </trkpt>
      <trkpt lat="48.7025050" lon="14.3879480">
        <ele>661.4</ele>
        <time>2019-08-07T14:18:03Z</time>
      </trkpt>
      <trkpt lat="48.7025320" lon="14.3879420">
        <ele>661.6</ele>
        <time>2019-08-07T14:18:04Z</time>
      </trkpt>
      <trkpt lat="48.7025600" lon="14.3879380">
        <ele>661.6</ele>
        <time>2019-08-07T14:18:05Z</time>
      </trkpt>
      <trkpt lat="48.7025890" lon="14.3879310">
        <ele>661.8</ele>
        <time>2019-08-07T14:18:06Z</time>
      </trkpt>
      <trkpt lat="48.7026170" lon="14.3879260">
        <ele>661.8</ele>
        <time>2019-08-07T14:18:07Z</time>
      </trkpt>
      <trkpt lat="48.7026460" lon="14.3879200">
        <ele>662.0</ele>
        <time>2019-08-07T14:18:08Z</time>
      </trkpt>
      <trkpt lat="48.7026730" lon="14.3879140">
        <ele>662.0</ele>
        <time>2019-08-07T14:18:09Z</time>
      </trkpt>
      <trkpt lat="48.7026990" lon="14.3879070">
        <ele>662.0</ele>
        <time>2019-08-07T14:18:10Z</time>
      </trkpt>
      <trkpt lat="48.7027290" lon="14.3878960">
        <ele>662.2</ele>
        <time>2019-08-07T14:18:11Z</time>
      </trkpt>
      <trkpt lat="48.7027550" lon="14.3878860">
        <ele>662.2</ele>
        <time>2019-08-07T14:18:12Z</time>
      </trkpt>
      <trkpt lat="48.7027790" lon="14.3878730">
        <ele>662.4</ele>
        <time>2019-08-07T14:18:13Z</time>
      </trkpt>
      <trkpt lat="48.7028040" lon="14.3878590">
        <ele>662.4</ele>
        <time>2019-08-07T14:18:14Z</time>
      </trkpt>
      <trkpt lat="48.7028270" lon="14.3878470">
        <ele>662.4</ele>
        <time>2019-08-07T14:18:15Z</time>
      </trkpt>
      <trkpt lat="48.7028500" lon="14.3878310">
        <ele>662.4</ele>
        <time>2019-08-07T14:18:16Z</time>
      </trkpt>
      <trkpt lat="48.7028720" lon="14.3878120">
        <ele>662.6</ele>
        <time>2019-08-07T14:18:17Z</time>
      </trkpt>
      <trkpt lat="48.7028920" lon="14.3877910">
        <ele>662.6</ele>
        <time>2019-08-07T14:18:18Z</time>
      </trkpt>
      <trkpt lat="48.7029110" lon="14.3877660">
        <ele>662.6</ele>
        <time>2019-08-07T14:18:19Z</time>
      </trkpt>
      <trkpt lat="48.7029300" lon="14.3877420">
        <ele>662.6</ele>
        <time>2019-08-07T14:18:20Z</time>
      </trkpt>
      <trkpt lat="48.7029470" lon="14.3877120">
        <ele>662.8</ele>
        <time>2019-08-07T14:18:21Z</time>
      </trkpt>
      <trkpt lat="48.7029630" lon="14.3876820">
        <ele>662.8</ele>
        <time>2019-08-07T14:18:22Z</time>
      </trkpt>
      <trkpt lat="48.7029820" lon="14.3876480">
        <ele>663.0</ele>
        <time>2019-08-07T14:18:23Z</time>
      </trkpt>
      <trkpt lat="48.7030000" lon="14.3876120">
        <ele>663.0</ele>
        <time>2019-08-07T14:18:24Z</time>
      </trkpt>
      <trkpt lat="48.7030180" lon="14.3875740">
        <ele>663.0</ele>
        <time>2019-08-07T14:18:25Z</time>
      </trkpt>
      <trkpt lat="48.7030370" lon="14.3875330">
        <ele>663.0</ele>
        <time>2019-08-07T14:18:26Z</time>
      </trkpt>
      <trkpt lat="48.7030550" lon="14.3874890">
        <ele>663.0</ele>
        <time>2019-08-07T14:18:27Z</time>
      </trkpt>
      <trkpt lat="48.7030730" lon="14.3874450">
        <ele>663.0</ele>
        <time>2019-08-07T14:18:28Z</time>
      </trkpt>
      <trkpt lat="48.7030900" lon="14.3874000">
        <ele>663.0</ele>
        <time>2019-08-07T14:18:29Z</time>
      </trkpt>
      <trkpt lat="48.7031090" lon="14.3873550">
        <ele>663.0</ele>
        <time>2019-08-07T14:18:30Z</time>
      </trkpt>
      <trkpt lat="48.7031280" lon="14.3873040">
        <ele>663.0</ele>
        <time>2019-08-07T14:18:31Z</time>
      </trkpt>
      <trkpt lat="48.7031460" lon="14.3872520">
        <ele>663.0</ele>
        <time>2019-08-07T14:18:32Z</time>
      </trkpt>
      <trkpt lat="48.7031620" lon="14.3872000">
        <ele>663.0</ele>
        <time>2019-08-07T14:18:33Z</time>
      </trkpt>
      <trkpt lat="48.7031750" lon="14.3871460">
        <ele>663.0</ele>
        <time>2019-08-07T14:18:34Z</time>
      </trkpt>
      <trkpt lat="48.7031880" lon="14.3870940">
        <ele>663.0</ele>
        <time>2019-08-07T14:18:35Z</time>
      </trkpt>
      <trkpt lat="48.7032000" lon="14.3870410">
        <ele>663.0</ele>
        <time>2019-08-07T14:18:36Z</time>
      </trkpt>
      <trkpt lat="48.7032150" lon="14.3869870">
        <ele>663.0</ele>
        <time>2019-08-07T14:18:37Z</time>
      </trkpt>
      <trkpt lat="48.7032280" lon="14.3869340">
        <ele>663.2</ele>
        <time>2019-08-07T14:18:38Z</time>
      </trkpt>
      <trkpt lat="48.7032400" lon="14.3868790">
        <ele>663.2</ele>
        <time>2019-08-07T14:18:39Z</time>
      </trkpt>
      <trkpt lat="48.7032500" lon="14.3868230">
        <ele>663.4</ele>
        <time>2019-08-07T14:18:40Z</time>
      </trkpt>
      <trkpt lat="48.7032600" lon="14.3867680">
        <ele>663.4</ele>
        <time>2019-08-07T14:18:41Z</time>
      </trkpt>
      <trkpt lat="48.7032680" lon="14.3867140">
        <ele>663.6</ele>
        <time>2019-08-07T14:18:42Z</time>
      </trkpt>
      <trkpt lat="48.7032770" lon="14.3866580">
        <ele>663.6</ele>
        <time>2019-08-07T14:18:43Z</time>
      </trkpt>
      <trkpt lat="48.7032860" lon="14.3866040">
        <ele>663.8</ele>
        <time>2019-08-07T14:18:44Z</time>
      </trkpt>
      <trkpt lat="48.7032920" lon="14.3865450">
        <ele>663.8</ele>
        <time>2019-08-07T14:18:45Z</time>
      </trkpt>
      <trkpt lat="48.7033000" lon="14.3864870">
        <ele>663.8</ele>
        <time>2019-08-07T14:18:46Z</time>
      </trkpt>
      <trkpt lat="48.7033090" lon="14.3864290">
        <ele>664.0</ele>
        <time>2019-08-07T14:18:47Z</time>
      </trkpt>
      <trkpt lat="48.7033180" lon="14.3863720">
        <ele>664.0</ele>
        <time>2019-08-07T14:18:48Z</time>
      </trkpt>
      <trkpt lat="48.7033260" lon="14.3863160">
        <ele>664.0</ele>
        <time>2019-08-07T14:18:49Z</time>
      </trkpt>
      <trkpt lat="48.7033320" lon="14.3862610">
        <ele>664.0</ele>
        <time>2019-08-07T14:18:50Z</time>
      </trkpt>
      <trkpt lat="48.7033390" lon="14.3862040">
        <ele>664.2</ele>
        <time>2019-08-07T14:18:51Z</time>
      </trkpt>
      <trkpt lat="48.7033440" lon="14.3861480">
        <ele>664.2</ele>
        <time>2019-08-07T14:18:52Z</time>
      </trkpt>
      <trkpt lat="48.7033500" lon="14.3860900">
        <ele>664.2</ele>
        <time>2019-08-07T14:18:53Z</time>
      </trkpt>
      <trkpt lat="48.7033550" lon="14.3860330">
        <ele>664.4</ele>
        <time>2019-08-07T14:18:54Z</time>
      </trkpt>
      <trkpt lat="48.7033600" lon="14.3859750">
        <ele>664.4</ele>
        <time>2019-08-07T14:18:55Z</time>
      </trkpt>
      <trkpt lat="48.7033630" lon="14.3859170">
        <ele>664.4</ele>
        <time>2019-08-07T14:18:56Z</time>
      </trkpt>
      <trkpt lat="48.7033680" lon="14.3858620">
        <ele>664.6</ele>
        <time>2019-08-07T14:18:57Z</time>
      </trkpt>
      <trkpt lat="48.7033720" lon="14.3858090">
        <ele>664.6</ele>
        <time>2019-08-07T14:18:58Z</time>
      </trkpt>
      <trkpt lat="48.7033760" lon="14.3857580">
        <ele>664.6</ele>
        <time>2019-08-07T14:18:59Z</time>
      </trkpt>
      <trkpt lat="48.7033810" lon="14.3857060">
        <ele>664.8</ele>
        <time>2019-08-07T14:19:00Z</time>
      </trkpt>
      <trkpt lat="48.7033900" lon="14.3856520">
        <ele>665.0</ele>
        <time>2019-08-07T14:19:01Z</time>
      </trkpt>
      <trkpt lat="48.7033970" lon="14.3855980">
        <ele>665.0</ele>
        <time>2019-08-07T14:19:02Z</time>
      </trkpt>
      <trkpt lat="48.7034040" lon="14.3855430">
        <ele>665.0</ele>
        <time>2019-08-07T14:19:03Z</time>
      </trkpt>
      <trkpt lat="48.7034110" lon="14.3854860">
        <ele>665.0</ele>
        <time>2019-08-07T14:19:04Z</time>
      </trkpt>
      <trkpt lat="48.7034180" lon="14.3854260">
        <ele>665.2</ele>
        <time>2019-08-07T14:19:05Z</time>
      </trkpt>
      <trkpt lat="48.7034250" lon="14.3853680">
        <ele>665.2</ele>
        <time>2019-08-07T14:19:06Z</time>
      </trkpt>
      <trkpt lat="48.7034330" lon="14.3853080">
        <ele>665.4</ele>
        <time>2019-08-07T14:19:07Z</time>
      </trkpt>
      <trkpt lat="48.7034420" lon="14.3852510">
        <ele>665.4</ele>
        <time>2019-08-07T14:19:08Z</time>
      </trkpt>
      <trkpt lat="48.7034520" lon="14.3851980">
        <ele>665.6</ele>
        <time>2019-08-07T14:19:09Z</time>
      </trkpt>
      <trkpt lat="48.7034640" lon="14.3851490">
        <ele>665.8</ele>
        <time>2019-08-07T14:19:10Z</time>
      </trkpt>
      <trkpt lat="48.7034780" lon="14.3850980">
        <ele>666.0</ele>
        <time>2019-08-07T14:19:11Z</time>
      </trkpt>
      <trkpt lat="48.7034880" lon="14.3850490">
        <ele>666.2</ele>
        <time>2019-08-07T14:19:12Z</time>
      </trkpt>
      <trkpt lat="48.7034960" lon="14.3849990">
        <ele>666.2</ele>
        <time>2019-08-07T14:19:13Z</time>
      </trkpt>
      <trkpt lat="48.7035050" lon="14.3849480">
        <ele>666.6</ele>
        <time>2019-08-07T14:19:14Z</time>
      </trkpt>
      <trkpt lat="48.7035140" lon="14.3848960">
        <ele>666.8</ele>
        <time>2019-08-07T14:19:15Z</time>
      </trkpt>
      <trkpt lat="48.7035230" lon="14.3848450">
        <ele>667.0</ele>
        <time>2019-08-07T14:19:16Z</time>
      </trkpt>
      <trkpt lat="48.7035320" lon="14.3847950">
        <ele>667.4</ele>
        <time>2019-08-07T14:19:17Z</time>
      </trkpt>
      <trkpt lat="48.7035410" lon="14.3847470">
        <ele>667.6</ele>
        <time>2019-08-07T14:19:18Z</time>
      </trkpt>
      <trkpt lat="48.7035470" lon="14.3847020">
        <ele>668.0</ele>
        <time>2019-08-07T14:19:19Z</time>
      </trkpt>
      <trkpt lat="48.7035520" lon="14.3846590">
        <ele>668.2</ele>
        <time>2019-08-07T14:19:20Z</time>
      </trkpt>
      <trkpt lat="48.7035600" lon="14.3846180">
        <ele>668.6</ele>
        <time>2019-08-07T14:19:21Z</time>
      </trkpt>
      <trkpt lat="48.7035670" lon="14.3845760">
        <ele>669.0</ele>
        <time>2019-08-07T14:19:22Z</time>
      </trkpt>
      <trkpt lat="48.7035740" lon="14.3845360">
        <ele>669.2</ele>
        <time>2019-08-07T14:19:23Z</time>
      </trkpt>
      <trkpt lat="48.7035810" lon="14.3844980">
        <ele>669.6</ele>
        <time>2019-08-07T14:19:24Z</time>
      </trkpt>
      <trkpt lat="48.7035870" lon="14.3844610">
        <ele>669.8</ele>
        <time>2019-08-07T14:19:25Z</time>
      </trkpt>
      <trkpt lat="48.7035940" lon="14.3844260">
        <ele>670.2</ele>
        <time>2019-08-07T14:19:26Z</time>
      </trkpt>
      <trkpt lat="48.7036010" lon="14.3843900">
        <ele>670.4</ele>
        <time>2019-08-07T14:19:27Z</time>
      </trkpt>
      <trkpt lat="48.7036080" lon="14.3843550">
        <ele>670.4</ele>
        <time>2019-08-07T14:19:28Z</time>
      </trkpt>
      <trkpt lat="48.7036150" lon="14.3843190">
        <ele>670.6</ele>
        <time>2019-08-07T14:19:29Z</time>
      </trkpt>
      <trkpt lat="48.7036230" lon="14.3842790">
        <ele>670.6</ele>
        <time>2019-08-07T14:19:30Z</time>
      </trkpt>
      <trkpt lat="48.7036350" lon="14.3842330">
        <ele>670.6</ele>
        <time>2019-08-07T14:19:31Z</time>
      </trkpt>
      <trkpt lat="48.7036480" lon="14.3841840">
        <ele>670.6</ele>
        <time>2019-08-07T14:19:32Z</time>
      </trkpt>
      <trkpt lat="48.7036630" lon="14.3841290">
        <ele>670.6</ele>
        <time>2019-08-07T14:19:33Z</time>
      </trkpt>
      <trkpt lat="48.7036800" lon="14.3840710">
        <ele>670.4</ele>
        <time>2019-08-07T14:19:34Z</time>
      </trkpt>
      <trkpt lat="48.7036980" lon="14.3840070">
        <ele>670.4</ele>
        <time>2019-08-07T14:19:35Z</time>
      </trkpt>
      <trkpt lat="48.7037170" lon="14.3839370">
        <ele>670.2</ele>
        <time>2019-08-07T14:19:36Z</time>
      </trkpt>
      <trkpt lat="48.7037380" lon="14.3838620">
        <ele>670.2</ele>
        <time>2019-08-07T14:19:37Z</time>
      </trkpt>
      <trkpt lat="48.7037580" lon="14.3837880">
        <ele>670.0</ele>
        <time>2019-08-07T14:19:38Z</time>
      </trkpt>
      <trkpt lat="48.7037790" lon="14.3837150">
        <ele>669.8</ele>
        <time>2019-08-07T14:19:39Z</time>
      </trkpt>
      <trkpt lat="48.7037990" lon="14.3836390">
        <ele>669.8</ele>
        <time>2019-08-07T14:19:40Z</time>
      </trkpt>
      <trkpt lat="48.7038200" lon="14.3835650">
        <ele>669.6</ele>
        <time>2019-08-07T14:19:41Z</time>
      </trkpt>
      <trkpt lat="48.7038420" lon="14.3834910">
        <ele>669.6</ele>
        <time>2019-08-07T14:19:42Z</time>
      </trkpt>
      <trkpt lat="48.7038640" lon="14.3834190">
        <ele>669.4</ele>
        <time>2019-08-07T14:19:43Z</time>
      </trkpt>
      <trkpt lat="48.7038860" lon="14.3833460">
        <ele>669.4</ele>
        <time>2019-08-07T14:19:44Z</time>
      </trkpt>
      <trkpt lat="48.7039090" lon="14.3832730">
        <ele>669.2</ele>
        <time>2019-08-07T14:19:45Z</time>
      </trkpt>
      <trkpt lat="48.7039310" lon="14.3832000">
        <ele>669.2</ele>
        <time>2019-08-07T14:19:46Z</time>
      </trkpt>
      <trkpt lat="48.7039520" lon="14.3831260">
        <ele>669.0</ele>
        <time>2019-08-07T14:19:47Z</time>
      </trkpt>
      <trkpt lat="48.7039690" lon="14.3830510">
        <ele>669.0</ele>
        <time>2019-08-07T14:19:48Z</time>
      </trkpt>
      <trkpt lat="48.7039850" lon="14.3829790">
        <ele>668.8</ele>
        <time>2019-08-07T14:19:49Z</time>
      </trkpt>
      <trkpt lat="48.7040020" lon="14.3829060">
        <ele>668.8</ele>
        <time>2019-08-07T14:19:50Z</time>
      </trkpt>
      <trkpt lat="48.7040220" lon="14.3828250">
        <ele>668.8</ele>
        <time>2019-08-07T14:19:51Z</time>
      </trkpt>
      <trkpt lat="48.7040410" lon="14.3827500">
        <ele>668.6</ele>
        <time>2019-08-07T14:19:52Z</time>
      </trkpt>
      <trkpt lat="48.7040590" lon="14.3826720">
        <ele>668.6</ele>
        <time>2019-08-07T14:19:53Z</time>
      </trkpt>
      <trkpt lat="48.7040780" lon="14.3825900">
        <ele>668.4</ele>
        <time>2019-08-07T14:19:54Z</time>
      </trkpt>
      <trkpt lat="48.7040970" lon="14.3825050">
        <ele>668.2</ele>
        <time>2019-08-07T14:19:55Z</time>
      </trkpt>
      <trkpt lat="48.7041180" lon="14.3824170">
        <ele>668.0</ele>
        <time>2019-08-07T14:19:56Z</time>
      </trkpt>
      <trkpt lat="48.7041410" lon="14.3823250">
        <ele>667.6</ele>
        <time>2019-08-07T14:19:57Z</time>
      </trkpt>
      <trkpt lat="48.7041700" lon="14.3822340">
        <ele>667.4</ele>
        <time>2019-08-07T14:19:58Z</time>
      </trkpt>
      <trkpt lat="48.7042020" lon="14.3821380">
        <ele>667.2</ele>
        <time>2019-08-07T14:19:59Z</time>
      </trkpt>
      <trkpt lat="48.7042370" lon="14.3820360">
        <ele>667.0</ele>
        <time>2019-08-07T14:20:00Z</time>
      </trkpt>
      <trkpt lat="48.7042730" lon="14.3819380">
        <ele>666.6</ele>
        <time>2019-08-07T14:20:01Z</time>
      </trkpt>
      <trkpt lat="48.7043130" lon="14.3818430">
        <ele>666.4</ele>
        <time>2019-08-07T14:20:02Z</time>
      </trkpt>
      <trkpt lat="48.7043570" lon="14.3817490">
        <ele>666.2</ele>
        <time>2019-08-07T14:20:03Z</time>
      </trkpt>
      <trkpt lat="48.7044050" lon="14.3816580">
        <ele>666.0</ele>
        <time>2019-08-07T14:20:04Z</time>
      </trkpt>
      <trkpt lat="48.7044580" lon="14.3815720">
        <ele>665.6</ele>
        <time>2019-08-07T14:20:05Z</time>
      </trkpt>
      <trkpt lat="48.7045160" lon="14.3814920">
        <ele>665.4</ele>
        <time>2019-08-07T14:20:06Z</time>
      </trkpt>
      <trkpt lat="48.7045760" lon="14.3814120">
        <ele>665.0</ele>
        <time>2019-08-07T14:20:07Z</time>
      </trkpt>
      <trkpt lat="48.7046380" lon="14.3813330">
        <ele>664.8</ele>
        <time>2019-08-07T14:20:08Z</time>
      </trkpt>
      <trkpt lat="48.7046970" lon="14.3812590">
        <ele>664.6</ele>
        <time>2019-08-07T14:20:09Z</time>
      </trkpt>
      <trkpt lat="48.7047590" lon="14.3811880">
        <ele>664.4</ele>
        <time>2019-08-07T14:20:10Z</time>
      </trkpt>
      <trkpt lat="48.7048270" lon="14.3811100">
        <ele>664.2</ele>
        <time>2019-08-07T14:20:11Z</time>
      </trkpt>
      <trkpt lat="48.7048920" lon="14.3810370">
        <ele>664.0</ele>
        <time>2019-08-07T14:20:12Z</time>
      </trkpt>
      <trkpt lat="48.7049560" lon="14.3809660">
        <ele>663.8</ele>
        <time>2019-08-07T14:20:13Z</time>
      </trkpt>
      <trkpt lat="48.7050190" lon="14.3809000">
        <ele>663.6</ele>
        <time>2019-08-07T14:20:14Z</time>
      </trkpt>
      <trkpt lat="48.7050840" lon="14.3808390">
        <ele>663.4</ele>
        <time>2019-08-07T14:20:15Z</time>
      </trkpt>
      <trkpt lat="48.7051530" lon="14.3807840">
        <ele>663.2</ele>
        <time>2019-08-07T14:20:16Z</time>
      </trkpt>
      <trkpt lat="48.7052290" lon="14.3807390">
        <ele>663.2</ele>
        <time>2019-08-07T14:20:17Z</time>
      </trkpt>
      <trkpt lat="48.7053050" lon="14.3807070">
        <ele>663.0</ele>
        <time>2019-08-07T14:20:18Z</time>
      </trkpt>
      <trkpt lat="48.7053800" lon="14.3806850">
        <ele>662.8</ele>
        <time>2019-08-07T14:20:19Z</time>
      </trkpt>
      <trkpt lat="48.7054540" lon="14.3806690">
        <ele>662.6</ele>
        <time>2019-08-07T14:20:20Z</time>
      </trkpt>
      <trkpt lat="48.7055260" lon="14.3806540">
        <ele>662.4</ele>
        <time>2019-08-07T14:20:21Z</time>
      </trkpt>
      <trkpt lat="48.7055990" lon="14.3806400">
        <ele>662.2</ele>
        <time>2019-08-07T14:20:22Z</time>
      </trkpt>
      <trkpt lat="48.7056730" lon="14.3806280">
        <ele>662.0</ele>
        <time>2019-08-07T14:20:23Z</time>
      </trkpt>
      <trkpt lat="48.7057500" lon="14.3806150">
        <ele>661.8</ele>
        <time>2019-08-07T14:20:24Z</time>
      </trkpt>
      <trkpt lat="48.7058320" lon="14.3805990">
        <ele>661.6</ele>
        <time>2019-08-07T14:20:25Z</time>
      </trkpt>
      <trkpt lat="48.7059210" lon="14.3805800">
        <ele>661.0</ele>
        <time>2019-08-07T14:20:26Z</time>
      </trkpt>
      <trkpt lat="48.7060180" lon="14.3805550">
        <ele>660.4</ele>
        <time>2019-08-07T14:20:27Z</time>
      </trkpt>
      <trkpt lat="48.7061230" lon="14.3805200">
        <ele>659.6</ele>
        <time>2019-08-07T14:20:28Z</time>
      </trkpt>
      <trkpt lat="48.7062270" lon="14.3804740">
        <ele>659.2</ele>
        <time>2019-08-07T14:20:29Z</time>
      </trkpt>
      <trkpt lat="48.7063270" lon="14.3804210">
        <ele>658.6</ele>
        <time>2019-08-07T14:20:30Z</time>
      </trkpt>
      <trkpt lat="48.7064350" lon="14.3803730">
        <ele>658.2</ele>
        <time>2019-08-07T14:20:31Z</time>
      </trkpt>
      <trkpt lat="48.7065330" lon="14.3803290">
        <ele>657.8</ele>
        <time>2019-08-07T14:20:32Z</time>
      </trkpt>
      <trkpt lat="48.7066310" lon="14.3802820">
        <ele>657.6</ele>
        <time>2019-08-07T14:20:33Z</time>
      </trkpt>
      <trkpt lat="48.7067280" lon="14.3802380">
        <ele>657.4</ele>
        <time>2019-08-07T14:20:34Z</time>
      </trkpt>
      <trkpt lat="48.7068230" lon="14.3801990">
        <ele>657.4</ele>
        <time>2019-08-07T14:20:35Z</time>
      </trkpt>
      <trkpt lat="48.7069120" lon="14.3801490">
        <ele>657.2</ele>
        <time>2019-08-07T14:20:36Z</time>
      </trkpt>
      <trkpt lat="48.7069950" lon="14.3800930">
        <ele>656.8</ele>
        <time>2019-08-07T14:20:37Z</time>
      </trkpt>
      <trkpt lat="48.7070770" lon="14.3800370">
        <ele>656.6</ele>
        <time>2019-08-07T14:20:38Z</time>
      </trkpt>
      <trkpt lat="48.7071600" lon="14.3799820">
        <ele>656.4</ele>
        <time>2019-08-07T14:20:39Z</time>
      </trkpt>
      <trkpt lat="48.7072480" lon="14.3799270">
        <ele>656.4</ele>
        <time>2019-08-07T14:20:40Z</time>
      </trkpt>
      <trkpt lat="48.7073350" lon="14.3798720">
        <ele>656.2</ele>
        <time>2019-08-07T14:20:41Z</time>
      </trkpt>
      <trkpt lat="48.7074160" lon="14.3798200">
        <ele>656.0</ele>
        <time>2019-08-07T14:20:42Z</time>
      </trkpt>
      <trkpt lat="48.7074950" lon="14.3797720">
        <ele>656.0</ele>
        <time>2019-08-07T14:20:43Z</time>
      </trkpt>
      <trkpt lat="48.7075740" lon="14.3797280">
        <ele>656.0</ele>
        <time>2019-08-07T14:20:44Z</time>
      </trkpt>
      <trkpt lat="48.7076500" lon="14.3796890">
        <ele>656.0</ele>
        <time>2019-08-07T14:20:45Z</time>
      </trkpt>
      <trkpt lat="48.7077240" lon="14.3796550">
        <ele>656.2</ele>
        <time>2019-08-07T14:20:46Z</time>
      </trkpt>
      <trkpt lat="48.7077960" lon="14.3796250">
        <ele>656.2</ele>
        <time>2019-08-07T14:20:47Z</time>
      </trkpt>
      <trkpt lat="48.7078680" lon="14.3795970">
        <ele>656.4</ele>
        <time>2019-08-07T14:20:48Z</time>
      </trkpt>
      <trkpt lat="48.7079370" lon="14.3795740">
        <ele>656.4</ele>
        <time>2019-08-07T14:20:49Z</time>
      </trkpt>
      <trkpt lat="48.7080050" lon="14.3795540">
        <ele>656.4</ele>
        <time>2019-08-07T14:20:50Z</time>
      </trkpt>
      <trkpt lat="48.7080770" lon="14.3795370">
        <ele>656.4</ele>
        <time>2019-08-07T14:20:51Z</time>
      </trkpt>
      <trkpt lat="48.7081460" lon="14.3795230">
        <ele>656.6</ele>
        <time>2019-08-07T14:20:52Z</time>
      </trkpt>
      <trkpt lat="48.7082140" lon="14.3795110">
        <ele>656.8</ele>
        <time>2019-08-07T14:20:53Z</time>
      </trkpt>
      <trkpt lat="48.7082820" lon="14.3795010">
        <ele>656.8</ele>
        <time>2019-08-07T14:20:54Z</time>
      </trkpt>
      <trkpt lat="48.7083480" lon="14.3794890">
        <ele>656.8</ele>
        <time>2019-08-07T14:20:55Z</time>
      </trkpt>
      <trkpt lat="48.7084140" lon="14.3794780">
        <ele>657.0</ele>
        <time>2019-08-07T14:20:56Z</time>
      </trkpt>
      <trkpt lat="48.7084820" lon="14.3794700">
        <ele>657.0</ele>
        <time>2019-08-07T14:20:57Z</time>
      </trkpt>
      <trkpt lat="48.7085490" lon="14.3794650">
        <ele>657.2</ele>
        <time>2019-08-07T14:20:58Z</time>
      </trkpt>
      <trkpt lat="48.7086150" lon="14.3794580">
        <ele>657.2</ele>
        <time>2019-08-07T14:20:59Z</time>
      </trkpt>
      <trkpt lat="48.7086790" lon="14.3794510">
        <ele>657.2</ele>
        <time>2019-08-07T14:21:00Z</time>
      </trkpt>
      <trkpt lat="48.7087420" lon="14.3794470">
        <ele>657.4</ele>
        <time>2019-08-07T14:21:01Z</time>
      </trkpt>
      <trkpt lat="48.7088050" lon="14.3794500">
        <ele>657.6</ele>
        <time>2019-08-07T14:21:02Z</time>
      </trkpt>
      <trkpt lat="48.7088680" lon="14.3794530">
        <ele>657.8</ele>
        <time>2019-08-07T14:21:03Z</time>
      </trkpt>
      <trkpt lat="48.7089290" lon="14.3794560">
        <ele>658.0</ele>
        <time>2019-08-07T14:21:04Z</time>
      </trkpt>
      <trkpt lat="48.7089860" lon="14.3794600">
        <ele>658.0</ele>
        <time>2019-08-07T14:21:05Z</time>
      </trkpt>
      <trkpt lat="48.7090430" lon="14.3794630">
        <ele>658.2</ele>
        <time>2019-08-07T14:21:06Z</time>
      </trkpt>
      <trkpt lat="48.7091000" lon="14.3794670">
        <ele>658.4</ele>
        <time>2019-08-07T14:21:07Z</time>
      </trkpt>
      <trkpt lat="48.7091550" lon="14.3794690">
        <ele>658.6</ele>
        <time>2019-08-07T14:21:08Z</time>
      </trkpt>
      <trkpt lat="48.7092080" lon="14.3794710">
        <ele>658.8</ele>
        <time>2019-08-07T14:21:09Z</time>
      </trkpt>
      <trkpt lat="48.7092600" lon="14.3794740">
        <ele>659.0</ele>
        <time>2019-08-07T14:21:10Z</time>
      </trkpt>
      <trkpt lat="48.7093120" lon="14.3794740">
        <ele>659.2</ele>
        <time>2019-08-07T14:21:11Z</time>
      </trkpt>
      <trkpt lat="48.7093610" lon="14.3794750">
        <ele>659.4</ele>
        <time>2019-08-07T14:21:12Z</time>
      </trkpt>
      <trkpt lat="48.7094090" lon="14.3794790">
        <ele>659.6</ele>
        <time>2019-08-07T14:21:13Z</time>
      </trkpt>
      <trkpt lat="48.7094570" lon="14.3794850">
        <ele>660.0</ele>
        <time>2019-08-07T14:21:14Z</time>
      </trkpt>
      <trkpt lat="48.7095050" lon="14.3794910">
        <ele>660.2</ele>
        <time>2019-08-07T14:21:15Z</time>
      </trkpt>
      <trkpt lat="48.7095520" lon="14.3794970">
        <ele>660.4</ele>
        <time>2019-08-07T14:21:16Z</time>
      </trkpt>
      <trkpt lat="48.7095960" lon="14.3795020">
        <ele>660.6</ele>
        <time>2019-08-07T14:21:17Z</time>
      </trkpt>
      <trkpt lat="48.7096380" lon="14.3795010">
        <ele>661.0</ele>
        <time>2019-08-07T14:21:18Z</time>
      </trkpt>
      <trkpt lat="48.7096760" lon="14.3794910">
        <ele>661.2</ele>
        <time>2019-08-07T14:21:19Z</time>
      </trkpt>
      <trkpt lat="48.7097120" lon="14.3794730">
        <ele>661.6</ele>
        <time>2019-08-07T14:21:20Z</time>
      </trkpt>
      <trkpt lat="48.7097460" lon="14.3794510">
        <ele>661.8</ele>
        <time>2019-08-07T14:21:21Z</time>
      </trkpt>
      <trkpt lat="48.7097720" lon="14.3794270">
        <ele>662.2</ele>
        <time>2019-08-07T14:21:22Z</time>
      </trkpt>
      <trkpt lat="48.7097940" lon="14.3793980">
        <ele>662.4</ele>
        <time>2019-08-07T14:21:23Z</time>
      </trkpt>
      <trkpt lat="48.7098120" lon="14.3793620">
        <ele>662.6</ele>
        <time>2019-08-07T14:21:24Z</time>
      </trkpt>
      <trkpt lat="48.7098240" lon="14.3793230">
        <ele>662.8</ele>
        <time>2019-08-07T14:21:25Z</time>
      </trkpt>
      <trkpt lat="48.7098340" lon="14.3792780">
        <ele>662.8</ele>
        <time>2019-08-07T14:21:26Z</time>
      </trkpt>
      <trkpt lat="48.7098380" lon="14.3792260">
        <ele>663.0</ele>
        <time>2019-08-07T14:21:27Z</time>
      </trkpt>
      <trkpt lat="48.7098410" lon="14.3791690">
        <ele>662.8</ele>
        <time>2019-08-07T14:21:28Z</time>
      </trkpt>
      <trkpt lat="48.7098430" lon="14.3791040">
        <ele>662.8</ele>
        <time>2019-08-07T14:21:29Z</time>
      </trkpt>
      <trkpt lat="48.7098460" lon="14.3790330">
        <ele>662.8</ele>
        <time>2019-08-07T14:21:30Z</time>
      </trkpt>
      <trkpt lat="48.7098510" lon="14.3789510">
        <ele>662.6</ele>
        <time>2019-08-07T14:21:31Z</time>
      </trkpt>
      <trkpt lat="48.7098580" lon="14.3788690">
        <ele>662.6</ele>
        <time>2019-08-07T14:21:32Z</time>
      </trkpt>
      <trkpt lat="48.7098630" lon="14.3787890">
        <ele>662.4</ele>
        <time>2019-08-07T14:21:33Z</time>
      </trkpt>
      <trkpt lat="48.7098660" lon="14.3787080">
        <ele>662.4</ele>
        <time>2019-08-07T14:21:34Z</time>
      </trkpt>
      <trkpt lat="48.7098670" lon="14.3786250">
        <ele>662.4</ele>
        <time>2019-08-07T14:21:35Z</time>
      </trkpt>
      <trkpt lat="48.7098680" lon="14.3785440">
        <ele>662.4</ele>
        <time>2019-08-07T14:21:36Z</time>
      </trkpt>
      <trkpt lat="48.7098680" lon="14.3784660">
        <ele>662.4</ele>
        <time>2019-08-07T14:21:37Z</time>
      </trkpt>
      <trkpt lat="48.7098690" lon="14.3783930">
        <ele>662.6</ele>
        <time>2019-08-07T14:21:38Z</time>
      </trkpt>
      <trkpt lat="48.7098690" lon="14.3783250">
        <ele>662.6</ele>
        <time>2019-08-07T14:21:39Z</time>
      </trkpt>
      <trkpt lat="48.7098670" lon="14.3782630">
        <ele>662.8</ele>
        <time>2019-08-07T14:21:40Z</time>
      </trkpt>
      <trkpt lat="48.7098640" lon="14.3782080">
        <ele>663.0</ele>
        <time>2019-08-07T14:21:41Z</time>
      </trkpt>
      <trkpt lat="48.7098620" lon="14.3781650">
        <ele>663.2</ele>
        <time>2019-08-07T14:21:42Z</time>
      </trkpt>
      <trkpt lat="48.7098600" lon="14.3781300">
        <ele>663.4</ele>
        <time>2019-08-07T14:21:43Z</time>
      </trkpt>
      <trkpt lat="48.7098590" lon="14.3781000">
        <ele>663.6</ele>
        <time>2019-08-07T14:21:44Z</time>
      </trkpt>
      <trkpt lat="48.7098580" lon="14.3780720">
        <ele>664.0</ele>
        <time>2019-08-07T14:21:45Z</time>
      </trkpt>
      <trkpt lat="48.7098570" lon="14.3780430">
        <ele>664.2</ele>
        <time>2019-08-07T14:21:46Z</time>
      </trkpt>
      <trkpt lat="48.7098520" lon="14.3780140">
        <ele>664.6</ele>
        <time>2019-08-07T14:21:47Z</time>
      </trkpt>
      <trkpt lat="48.7098460" lon="14.3779860">
        <ele>664.8</ele>
        <time>2019-08-07T14:21:48Z</time>
      </trkpt>
      <trkpt lat="48.7098420" lon="14.3779590">
        <ele>665.2</ele>
        <time>2019-08-07T14:21:49Z</time>
      </trkpt>
      <trkpt lat="48.7098400" lon="14.3779320">
        <ele>665.4</ele>
        <time>2019-08-07T14:21:50Z</time>
      </trkpt>
      <trkpt lat="48.7098390" lon="14.3779020">
        <ele>665.6</ele>
        <time>2019-08-07T14:21:51Z</time>
      </trkpt>
      <trkpt lat="48.7098340" lon="14.3778740">
        <ele>666.0</ele>
        <time>2019-08-07T14:21:52Z</time>
      </trkpt>
      <trkpt lat="48.7098300" lon="14.3778420">
        <ele>666.2</ele>
        <time>2019-08-07T14:21:53Z</time>
      </trkpt>
      <trkpt lat="48.7098270" lon="14.3778120">
        <ele>666.4</ele>
        <time>2019-08-07T14:21:54Z</time>
      </trkpt>
      <trkpt lat="48.7098250" lon="14.3777810">
        <ele>666.8</ele>
        <time>2019-08-07T14:21:55Z</time>
      </trkpt>
      <trkpt lat="48.7098200" lon="14.3777530">
        <ele>667.0</ele>
        <time>2019-08-07T14:21:56Z</time>
      </trkpt>
      <trkpt lat="48.7098150" lon="14.3777240">
        <ele>667.2</ele>
        <time>2019-08-07T14:21:57Z</time>
      </trkpt>
      <trkpt lat="48.7098110" lon="14.3776960">
        <ele>667.6</ele>
        <time>2019-08-07T14:21:58Z</time>
      </trkpt>
      <trkpt lat="48.7098040" lon="14.3776680">
        <ele>667.8</ele>
        <time>2019-08-07T14:21:59Z</time>
      </trkpt>
      <trkpt lat="48.7097960" lon="14.3776410">
        <ele>668.2</ele>
        <time>2019-08-07T14:22:00Z</time>
      </trkpt>
      <trkpt lat="48.7097900" lon="14.3776190">
        <ele>668.4</ele>
        <time>2019-08-07T14:22:01Z</time>
      </trkpt>
      <trkpt lat="48.7097840" lon="14.3775960">
        <ele>668.6</ele>
        <time>2019-08-07T14:22:02Z</time>
      </trkpt>
      <trkpt lat="48.7097770" lon="14.3775690">
        <ele>668.8</ele>
        <time>2019-08-07T14:22:03Z</time>
      </trkpt>
      <trkpt lat="48.7097700" lon="14.3775430">
        <ele>669.2</ele>
        <time>2019-08-07T14:22:04Z</time>
      </trkpt>
      <trkpt lat="48.7097640" lon="14.3775190">
        <ele>669.4</ele>
        <time>2019-08-07T14:22:05Z</time>
      </trkpt>
      <trkpt lat="48.7097580" lon="14.3774920">
        <ele>669.6</ele>
        <time>2019-08-07T14:22:06Z</time>
      </trkpt>
      <trkpt lat="48.7097510" lon="14.3774650">
        <ele>669.6</ele>
        <time>2019-08-07T14:22:07Z</time>
      </trkpt>
      <trkpt lat="48.7097430" lon="14.3774390">
        <ele>669.8</ele>
        <time>2019-08-07T14:22:08Z</time>
      </trkpt>
      <trkpt lat="48.7097340" lon="14.3774140">
        <ele>670.0</ele>
        <time>2019-08-07T14:22:09Z</time>
      </trkpt>
      <trkpt lat="48.7097280" lon="14.3773860">
        <ele>670.0</ele>
        <time>2019-08-07T14:22:10Z</time>
      </trkpt>
      <trkpt lat="48.7097210" lon="14.3773570">
        <ele>670.2</ele>
        <time>2019-08-07T14:22:11Z</time>
      </trkpt>
      <trkpt lat="48.7097160" lon="14.3773310">
        <ele>670.4</ele>
        <time>2019-08-07T14:22:12Z</time>
      </trkpt>
      <trkpt lat="48.7097100" lon="14.3772990">
        <ele>670.4</ele>
        <time>2019-08-07T14:22:13Z</time>
      </trkpt>
      <trkpt lat="48.7096980" lon="14.3772620">
        <ele>670.6</ele>
        <time>2019-08-07T14:22:14Z</time>
      </trkpt>
      <trkpt lat="48.7096890" lon="14.3772220">
        <ele>670.6</ele>
        <time>2019-08-07T14:22:15Z</time>
      </trkpt>
      <trkpt lat="48.7096810" lon="14.3771800">
        <ele>670.6</ele>
        <time>2019-08-07T14:22:16Z</time>
      </trkpt>
      <trkpt lat="48.7096720" lon="14.3771370">
        <ele>670.8</ele>
        <time>2019-08-07T14:22:17Z</time>
      </trkpt>
      <trkpt lat="48.7096590" lon="14.3770910">
        <ele>670.8</ele>
        <time>2019-08-07T14:22:18Z</time>
      </trkpt>
      <trkpt lat="48.7096450" lon="14.3770440">
        <ele>671.0</ele>
        <time>2019-08-07T14:22:19Z</time>
      </trkpt>
      <trkpt lat="48.7096260" lon="14.3770020">
        <ele>671.0</ele>
        <time>2019-08-07T14:22:20Z</time>
      </trkpt>
      <trkpt lat="48.7096070" lon="14.3769590">
        <ele>671.2</ele>
        <time>2019-08-07T14:22:21Z</time>
      </trkpt>
      <trkpt lat="48.7095870" lon="14.3769120">
        <ele>671.2</ele>
        <time>2019-08-07T14:22:22Z</time>
      </trkpt>
      <trkpt lat="48.7095680" lon="14.3768650">
        <ele>671.4</ele>
        <time>2019-08-07T14:22:23Z</time>
      </trkpt>
      <trkpt lat="48.7095540" lon="14.3768150">
        <ele>671.4</ele>
        <time>2019-08-07T14:22:24Z</time>
      </trkpt>
      <trkpt lat="48.7095440" lon="14.3767640">
        <ele>671.6</ele>
        <time>2019-08-07T14:22:25Z</time>
      </trkpt>
      <trkpt lat="48.7095350" lon="14.3767140">
        <ele>671.8</ele>
        <time>2019-08-07T14:22:26Z</time>
      </trkpt>
      <trkpt lat="48.7095260" lon="14.3766660">
        <ele>672.0</ele>
        <time>2019-08-07T14:22:27Z</time>
      </trkpt>
      <trkpt lat="48.7095150" lon="14.3766220">
        <ele>672.0</ele>
        <time>2019-08-07T14:22:28Z</time>
      </trkpt>
      <trkpt lat="48.7095030" lon="14.3765820">
        <ele>672.2</ele>
        <time>2019-08-07T14:22:29Z</time>
      </trkpt>
      <trkpt lat="48.7094940" lon="14.3765440">
        <ele>672.6</ele>
        <time>2019-08-07T14:22:30Z</time>
      </trkpt>
      <trkpt lat="48.7094840" lon="14.3765040">
        <ele>672.8</ele>
        <time>2019-08-07T14:22:31Z</time>
      </trkpt>
      <trkpt lat="48.7094700" lon="14.3764660">
        <ele>673.0</ele>
        <time>2019-08-07T14:22:32Z</time>
      </trkpt>
      <trkpt lat="48.7094530" lon="14.3764250">
        <ele>673.4</ele>
        <time>2019-08-07T14:22:33Z</time>
      </trkpt>
      <trkpt lat="48.7094320" lon="14.3763850">
        <ele>673.6</ele>
        <time>2019-08-07T14:22:34Z</time>
      </trkpt>
      <trkpt lat="48.7094180" lon="14.3763450">
        <ele>674.0</ele>
        <time>2019-08-07T14:22:35Z</time>
      </trkpt>
      <trkpt lat="48.7094110" lon="14.3763030">
        <ele>674.4</ele>
        <time>2019-08-07T14:22:36Z</time>
      </trkpt>
      <trkpt lat="48.7094030" lon="14.3762620">
        <ele>674.8</ele>
        <time>2019-08-07T14:22:37Z</time>
      </trkpt>
      <trkpt lat="48.7093940" lon="14.3762160">
        <ele>675.0</ele>
        <time>2019-08-07T14:22:38Z</time>
      </trkpt>
      <trkpt lat="48.7093870" lon="14.3761720">
        <ele>675.4</ele>
        <time>2019-08-07T14:22:39Z</time>
      </trkpt>
      <trkpt lat="48.7093810" lon="14.3761290">
        <ele>675.6</ele>
        <time>2019-08-07T14:22:40Z</time>
      </trkpt>
      <trkpt lat="48.7093760" lon="14.3760860">
        <ele>675.8</ele>
        <time>2019-08-07T14:22:41Z</time>
      </trkpt>
      <trkpt lat="48.7093720" lon="14.3760470">
        <ele>676.0</ele>
        <time>2019-08-07T14:22:42Z</time>
      </trkpt>
      <trkpt lat="48.7093680" lon="14.3760020">
        <ele>676.2</ele>
        <time>2019-08-07T14:22:43Z</time>
      </trkpt>
      <trkpt lat="48.7093630" lon="14.3759540">
        <ele>676.4</ele>
        <time>2019-08-07T14:22:44Z</time>
      </trkpt>
      <trkpt lat="48.7093560" lon="14.3759060">
        <ele>676.6</ele>
        <time>2019-08-07T14:22:45Z</time>
      </trkpt>
      <trkpt lat="48.7093490" lon="14.3758630">
        <ele>676.8</ele>
        <time>2019-08-07T14:22:46Z</time>
      </trkpt>
      <trkpt lat="48.7093480" lon="14.3758260">
        <ele>677.0</ele>
        <time>2019-08-07T14:22:47Z</time>
      </trkpt>
      <trkpt lat="48.7093470" lon="14.3757930">
        <ele>677.2</ele>
        <time>2019-08-07T14:22:48Z</time>
      </trkpt>
      <trkpt lat="48.7093490" lon="14.3757630">
        <ele>677.2</ele>
        <time>2019-08-07T14:22:49Z</time>
      </trkpt>
      <trkpt lat="48.7093540" lon="14.3757290">
        <ele>677.4</ele>
        <time>2019-08-07T14:22:50Z</time>
      </trkpt>
      <trkpt lat="48.7093660" lon="14.3756830">
        <ele>677.4</ele>
        <time>2019-08-07T14:22:51Z</time>
      </trkpt>
      <trkpt lat="48.7093810" lon="14.3756350">
        <ele>677.4</ele>
        <time>2019-08-07T14:22:52Z</time>
      </trkpt>
      <trkpt lat="48.7093970" lon="14.3755810">
        <ele>677.4</ele>
        <time>2019-08-07T14:22:53Z</time>
      </trkpt>
      <trkpt lat="48.7094140" lon="14.3755210">
        <ele>677.2</ele>
        <time>2019-08-07T14:22:54Z</time>
      </trkpt>
      <trkpt lat="48.7094390" lon="14.3754580">
        <ele>677.0</ele>
        <time>2019-08-07T14:22:55Z</time>
      </trkpt>
      <trkpt lat="48.7094710" lon="14.3753970">
        <ele>676.8</ele>
        <time>2019-08-07T14:22:56Z</time>
      </trkpt>
      <trkpt lat="48.7095110" lon="14.3753370">
        <ele>676.6</ele>
        <time>2019-08-07T14:22:57Z</time>
      </trkpt>
      <trkpt lat="48.7095590" lon="14.3752840">
        <ele>676.4</ele>
        <time>2019-08-07T14:22:58Z</time>
      </trkpt>
      <trkpt lat="48.7096150" lon="14.3752320">
        <ele>676.0</ele>
        <time>2019-08-07T14:22:59Z</time>
      </trkpt>
      <trkpt lat="48.7096810" lon="14.3751700">
        <ele>675.6</ele>
        <time>2019-08-07T14:23:00Z</time>
      </trkpt>
      <trkpt lat="48.7097560" lon="14.3751040">
        <ele>675.2</ele>
        <time>2019-08-07T14:23:01Z</time>
      </trkpt>
      <trkpt lat="48.7098370" lon="14.3750420">
        <ele>674.6</ele>
        <time>2019-08-07T14:23:02Z</time>
      </trkpt>
      <trkpt lat="48.7099250" lon="14.3749830">
        <ele>673.8</ele>
        <time>2019-08-07T14:23:03Z</time>
      </trkpt>
      <trkpt lat="48.7100180" lon="14.3749200">
        <ele>673.0</ele>
        <time>2019-08-07T14:23:04Z</time>
      </trkpt>
      <trkpt lat="48.7101130" lon="14.3748490">
        <ele>672.4</ele>
        <time>2019-08-07T14:23:05Z</time>
      </trkpt>
      <trkpt lat="48.7102160" lon="14.3747690">
        <ele>671.6</ele>
        <time>2019-08-07T14:23:06Z</time>
      </trkpt>
      <trkpt lat="48.7103380" lon="14.3746760">
        <ele>670.8</ele>
        <time>2019-08-07T14:23:07Z</time>
      </trkpt>
      <trkpt lat="48.7104600" lon="14.3745830">
        <ele>670.0</ele>
        <time>2019-08-07T14:23:08Z</time>
      </trkpt>
      <trkpt lat="48.7105830" lon="14.3744900">
        <ele>669.2</ele>
        <time>2019-08-07T14:23:09Z</time>
      </trkpt>
      <trkpt lat="48.7106360" lon="14.3744640">
        <ele>668.2</ele>
        <time>2019-08-07T14:23:10Z</time>
      </trkpt>
      <trkpt lat="48.7107350" lon="14.3743770">
        <ele>667.6</ele>
        <time>2019-08-07T14:23:11Z</time>
      </trkpt>
      <trkpt lat="48.7108320" lon="14.3742980">
        <ele>667.0</ele>
        <time>2019-08-07T14:23:12Z</time>
      </trkpt>
      <trkpt lat="48.7109170" lon="14.3742480">
        <ele>666.6</ele>
        <time>2019-08-07T14:23:13Z</time>
      </trkpt>
      <trkpt lat="48.7110040" lon="14.3742190">
        <ele>666.2</ele>
        <time>2019-08-07T14:23:14Z</time>
      </trkpt>
      <trkpt lat="48.7110980" lon="14.3742270">
        <ele>665.8</ele>
        <time>2019-08-07T14:23:15Z</time>
      </trkpt>
      <trkpt lat="48.7111880" lon="14.3742400">
        <ele>665.4</ele>
        <time>2019-08-07T14:23:16Z</time>
      </trkpt>
      <trkpt lat="48.7112780" lon="14.3742640">
        <ele>665.2</ele>
        <time>2019-08-07T14:23:17Z</time>
      </trkpt>
      <trkpt lat="48.7113590" lon="14.3742950">
        <ele>665.0</ele>
        <time>2019-08-07T14:23:18Z</time>
      </trkpt>
      <trkpt lat="48.7114400" lon="14.3743320">
        <ele>664.8</ele>
        <time>2019-08-07T14:23:19Z</time>
      </trkpt>
      <trkpt lat="48.7115190" lon="14.3743820">
        <ele>664.8</ele>
        <time>2019-08-07T14:23:20Z</time>
      </trkpt>
      <trkpt lat="48.7115890" lon="14.3744390">
        <ele>664.8</ele>
        <time>2019-08-07T14:23:21Z</time>
      </trkpt>
      <trkpt lat="48.7116480" lon="14.3744930">
        <ele>665.0</ele>
        <time>2019-08-07T14:23:22Z</time>
      </trkpt>
      <trkpt lat="48.7117110" lon="14.3745470">
        <ele>665.0</ele>
        <time>2019-08-07T14:23:23Z</time>
      </trkpt>
      <trkpt lat="48.7117720" lon="14.3746040">
        <ele>665.0</ele>
        <time>2019-08-07T14:23:24Z</time>
      </trkpt>
      <trkpt lat="48.7118320" lon="14.3746590">
        <ele>665.2</ele>
        <time>2019-08-07T14:23:25Z</time>
      </trkpt>
      <trkpt lat="48.7118900" lon="14.3747090">
        <ele>665.4</ele>
        <time>2019-08-07T14:23:26Z</time>
      </trkpt>
      <trkpt lat="48.7119430" lon="14.3747570">
        <ele>665.8</ele>
        <time>2019-08-07T14:23:27Z</time>
      </trkpt>
      <trkpt lat="48.7119900" lon="14.3747970">
        <ele>666.2</ele>
        <time>2019-08-07T14:23:28Z</time>
      </trkpt>
      <trkpt lat="48.7120310" lon="14.3748320">
        <ele>666.6</ele>
        <time>2019-08-07T14:23:29Z</time>
      </trkpt>
      <trkpt lat="48.7120660" lon="14.3748610">
        <ele>667.2</ele>
        <time>2019-08-07T14:23:30Z</time>
      </trkpt>
      <trkpt lat="48.7121040" lon="14.3748910">
        <ele>667.6</ele>
        <time>2019-08-07T14:23:31Z</time>
      </trkpt>
      <trkpt lat="48.7121350" lon="14.3749200">
        <ele>668.0</ele>
        <time>2019-08-07T14:23:32Z</time>
      </trkpt>
      <trkpt lat="48.7121630" lon="14.3749470">
        <ele>668.4</ele>
        <time>2019-08-07T14:23:33Z</time>
      </trkpt>
      <trkpt lat="48.7121940" lon="14.3749730">
        <ele>668.6</ele>
        <time>2019-08-07T14:23:34Z</time>
      </trkpt>
      <trkpt lat="48.7122240" lon="14.3749940">
        <ele>669.0</ele>
        <time>2019-08-07T14:23:35Z</time>
      </trkpt>
      <trkpt lat="48.7122570" lon="14.3750180">
        <ele>669.2</ele>
        <time>2019-08-07T14:23:36Z</time>
      </trkpt>
      <trkpt lat="48.7122920" lon="14.3750470">
        <ele>669.4</ele>
        <time>2019-08-07T14:23:37Z</time>
      </trkpt>
      <trkpt lat="48.7123280" lon="14.3750730">
        <ele>669.6</ele>
        <time>2019-08-07T14:23:38Z</time>
      </trkpt>
      <trkpt lat="48.7123640" lon="14.3750930">
        <ele>669.8</ele>
        <time>2019-08-07T14:23:39Z</time>
      </trkpt>
      <trkpt lat="48.7124020" lon="14.3751060">
        <ele>670.0</ele>
        <time>2019-08-07T14:23:40Z</time>
      </trkpt>
      <trkpt lat="48.7124380" lon="14.3751190">
        <ele>670.0</ele>
        <time>2019-08-07T14:23:41Z</time>
      </trkpt>
      <trkpt lat="48.7124720" lon="14.3751310">
        <ele>670.2</ele>
        <time>2019-08-07T14:23:42Z</time>
      </trkpt>
      <trkpt lat="48.7125020" lon="14.3751400">
        <ele>670.2</ele>
        <time>2019-08-07T14:23:43Z</time>
      </trkpt>
      <trkpt lat="48.7125380" lon="14.3751520">
        <ele>670.4</ele>
        <time>2019-08-07T14:23:44Z</time>
      </trkpt>
      <trkpt lat="48.7125810" lon="14.3751580">
        <ele>670.4</ele>
        <time>2019-08-07T14:23:45Z</time>
      </trkpt>
      <trkpt lat="48.7126300" lon="14.3751600">
        <ele>670.4</ele>
        <time>2019-08-07T14:23:46Z</time>
      </trkpt>
      <trkpt lat="48.7126900" lon="14.3751520">
        <ele>670.4</ele>
        <time>2019-08-07T14:23:47Z</time>
      </trkpt>
      <trkpt lat="48.7127560" lon="14.3751460">
        <ele>670.2</ele>
        <time>2019-08-07T14:23:48Z</time>
      </trkpt>
      <trkpt lat="48.7128300" lon="14.3751380">
        <ele>670.0</ele>
        <time>2019-08-07T14:23:49Z</time>
      </trkpt>
      <trkpt lat="48.7129030" lon="14.3751300">
        <ele>669.8</ele>
        <time>2019-08-07T14:23:50Z</time>
      </trkpt>
      <trkpt lat="48.7129870" lon="14.3751180">
        <ele>669.6</ele>
        <time>2019-08-07T14:23:51Z</time>
      </trkpt>
      <trkpt lat="48.7130680" lon="14.3751050">
        <ele>669.4</ele>
        <time>2019-08-07T14:23:52Z</time>
      </trkpt>
      <trkpt lat="48.7131490" lon="14.3750960">
        <ele>669.2</ele>
        <time>2019-08-07T14:23:53Z</time>
      </trkpt>
      <trkpt lat="48.7132320" lon="14.3750850">
        <ele>669.0</ele>
        <time>2019-08-07T14:23:54Z</time>
      </trkpt>
      <trkpt lat="48.7133160" lon="14.3750760">
        <ele>669.0</ele>
        <time>2019-08-07T14:23:55Z</time>
      </trkpt>
      <trkpt lat="48.7133980" lon="14.3750680">
        <ele>668.8</ele>
        <time>2019-08-07T14:23:56Z</time>
      </trkpt>
      <trkpt lat="48.7134810" lon="14.3750570">
        <ele>668.8</ele>
        <time>2019-08-07T14:23:57Z</time>
      </trkpt>
      <trkpt lat="48.7135620" lon="14.3750430">
        <ele>668.8</ele>
        <time>2019-08-07T14:23:58Z</time>
      </trkpt>
      <trkpt lat="48.7136440" lon="14.3750180">
        <ele>668.6</ele>
        <time>2019-08-07T14:23:59Z</time>
      </trkpt>
      <trkpt lat="48.7137220" lon="14.3749790">
        <ele>668.4</ele>
        <time>2019-08-07T14:24:00Z</time>
      </trkpt>
      <trkpt lat="48.7137970" lon="14.3749310">
        <ele>668.2</ele>
        <time>2019-08-07T14:24:01Z</time>
      </trkpt>
      <trkpt lat="48.7138750" lon="14.3748700">
        <ele>668.2</ele>
        <time>2019-08-07T14:24:02Z</time>
      </trkpt>
      <trkpt lat="48.7139530" lon="14.3748080">
        <ele>668.0</ele>
        <time>2019-08-07T14:24:03Z</time>
      </trkpt>
      <trkpt lat="48.7140280" lon="14.3747440">
        <ele>667.8</ele>
        <time>2019-08-07T14:24:04Z</time>
      </trkpt>
      <trkpt lat="48.7141050" lon="14.3746750">
        <ele>667.6</ele>
        <time>2019-08-07T14:24:05Z</time>
      </trkpt>
      <trkpt lat="48.7141790" lon="14.3746060">
        <ele>667.6</ele>
        <time>2019-08-07T14:24:06Z</time>
      </trkpt>
      <trkpt lat="48.7142540" lon="14.3745330">
        <ele>667.6</ele>
        <time>2019-08-07T14:24:07Z</time>
      </trkpt>
      <trkpt lat="48.7143290" lon="14.3744570">
        <ele>667.4</ele>
        <time>2019-08-07T14:24:08Z</time>
      </trkpt>
      <trkpt lat="48.7143960" lon="14.3743820">
        <ele>667.2</ele>
        <time>2019-08-07T14:24:09Z</time>
      </trkpt>
      <trkpt lat="48.7144580" lon="14.3743080">
        <ele>667.0</ele>
        <time>2019-08-07T14:24:10Z</time>
      </trkpt>
      <trkpt lat="48.7145260" lon="14.3742180">
        <ele>666.8</ele>
        <time>2019-08-07T14:24:11Z</time>
      </trkpt>
      <trkpt lat="48.7145860" lon="14.3741290">
        <ele>666.8</ele>
        <time>2019-08-07T14:24:12Z</time>
      </trkpt>
      <trkpt lat="48.7146390" lon="14.3740330">
        <ele>666.8</ele>
        <time>2019-08-07T14:24:13Z</time>
      </trkpt>
      <trkpt lat="48.7146820" lon="14.3739280">
        <ele>666.6</ele>
        <time>2019-08-07T14:24:14Z</time>
      </trkpt>
      <trkpt lat="48.7147150" lon="14.3738190">
        <ele>666.2</ele>
        <time>2019-08-07T14:24:15Z</time>
      </trkpt>
      <trkpt lat="48.7147440" lon="14.3736960">
        <ele>666.0</ele>
        <time>2019-08-07T14:24:16Z</time>
      </trkpt>
      <trkpt lat="48.7147680" lon="14.3735660">
        <ele>665.8</ele>
        <time>2019-08-07T14:24:17Z</time>
      </trkpt>
      <trkpt lat="48.7147860" lon="14.3734390">
        <ele>665.6</ele>
        <time>2019-08-07T14:24:18Z</time>
      </trkpt>
      <trkpt lat="48.7147980" lon="14.3733070">
        <ele>665.4</ele>
        <time>2019-08-07T14:24:19Z</time>
      </trkpt>
      <trkpt lat="48.7148040" lon="14.3731720">
        <ele>665.2</ele>
        <time>2019-08-07T14:24:20Z</time>
      </trkpt>
      <trkpt lat="48.7148060" lon="14.3730310">
        <ele>664.8</ele>
        <time>2019-08-07T14:24:21Z</time>
      </trkpt>
      <trkpt lat="48.7148050" lon="14.3728860">
        <ele>664.4</ele>
        <time>2019-08-07T14:24:22Z</time>
      </trkpt>
      <trkpt lat="48.7148030" lon="14.3727440">
        <ele>663.8</ele>
        <time>2019-08-07T14:24:23Z</time>
      </trkpt>
      <trkpt lat="48.7148040" lon="14.3726100">
        <ele>663.4</ele>
        <time>2019-08-07T14:24:24Z</time>
      </trkpt>
      <trkpt lat="48.7148150" lon="14.3724740">
        <ele>662.8</ele>
        <time>2019-08-07T14:24:25Z</time>
      </trkpt>
      <trkpt lat="48.7148360" lon="14.3723280">
        <ele>662.2</ele>
        <time>2019-08-07T14:24:26Z</time>
      </trkpt>
      <trkpt lat="48.7148680" lon="14.3721700">
        <ele>661.8</ele>
        <time>2019-08-07T14:24:27Z</time>
      </trkpt>
      <trkpt lat="48.7149050" lon="14.3720120">
        <ele>661.0</ele>
        <time>2019-08-07T14:24:28Z</time>
      </trkpt>
      <trkpt lat="48.7149460" lon="14.3718550">
        <ele>660.0</ele>
        <time>2019-08-07T14:24:29Z</time>
      </trkpt>
      <trkpt lat="48.7149900" lon="14.3717090">
        <ele>659.2</ele>
        <time>2019-08-07T14:24:30Z</time>
      </trkpt>
      <trkpt lat="48.7150500" lon="14.3715600">
        <ele>658.4</ele>
        <time>2019-08-07T14:24:31Z</time>
      </trkpt>
      <trkpt lat="48.7151190" lon="14.3714400">
        <ele>657.6</ele>
        <time>2019-08-07T14:24:32Z</time>
      </trkpt>
      <trkpt lat="48.7152040" lon="14.3713370">
        <ele>656.6</ele>
        <time>2019-08-07T14:24:33Z</time>
      </trkpt>
      <trkpt lat="48.7152980" lon="14.3712520">
        <ele>655.8</ele>
        <time>2019-08-07T14:24:34Z</time>
      </trkpt>
      <trkpt lat="48.7153980" lon="14.3711800">
        <ele>655.0</ele>
        <time>2019-08-07T14:24:35Z</time>
      </trkpt>
      <trkpt lat="48.7154980" lon="14.3711190">
        <ele>654.4</ele>
        <time>2019-08-07T14:24:36Z</time>
      </trkpt>
      <trkpt lat="48.7156010" lon="14.3710630">
        <ele>653.6</ele>
        <time>2019-08-07T14:24:37Z</time>
      </trkpt>
      <trkpt lat="48.7157070" lon="14.3710120">
        <ele>653.2</ele>
        <time>2019-08-07T14:24:38Z</time>
      </trkpt>
      <trkpt lat="48.7158130" lon="14.3709670">
        <ele>652.8</ele>
        <time>2019-08-07T14:24:39Z</time>
      </trkpt>
      <trkpt lat="48.7159220" lon="14.3709230">
        <ele>652.4</ele>
        <time>2019-08-07T14:24:40Z</time>
      </trkpt>
      <trkpt lat="48.7160280" lon="14.3708780">
        <ele>651.8</ele>
        <time>2019-08-07T14:24:41Z</time>
      </trkpt>
      <trkpt lat="48.7161360" lon="14.3708230">
        <ele>651.2</ele>
        <time>2019-08-07T14:24:42Z</time>
      </trkpt>
      <trkpt lat="48.7162370" lon="14.3707630">
        <ele>650.8</ele>
        <time>2019-08-07T14:24:43Z</time>
      </trkpt>
      <trkpt lat="48.7163320" lon="14.3706950">
        <ele>650.4</ele>
        <time>2019-08-07T14:24:44Z</time>
      </trkpt>
      <trkpt lat="48.7164180" lon="14.3706130">
        <ele>650.0</ele>
        <time>2019-08-07T14:24:45Z</time>
      </trkpt>
      <trkpt lat="48.7164910" lon="14.3705180">
        <ele>649.8</ele>
        <time>2019-08-07T14:24:46Z</time>
      </trkpt>
      <trkpt lat="48.7165470" lon="14.3704000">
        <ele>649.6</ele>
        <time>2019-08-07T14:24:47Z</time>
      </trkpt>
      <trkpt lat="48.7165730" lon="14.3702790">
        <ele>649.4</ele>
        <time>2019-08-07T14:24:48Z</time>
      </trkpt>
      <trkpt lat="48.7165790" lon="14.3701570">
        <ele>649.0</ele>
        <time>2019-08-07T14:24:49Z</time>
      </trkpt>
      <trkpt lat="48.7165660" lon="14.3700420">
        <ele>649.0</ele>
        <time>2019-08-07T14:24:50Z</time>
      </trkpt>
      <trkpt lat="48.7165410" lon="14.3699260">
        <ele>648.8</ele>
        <time>2019-08-07T14:24:51Z</time>
      </trkpt>
      <trkpt lat="48.7165140" lon="14.3698200">
        <ele>648.8</ele>
        <time>2019-08-07T14:24:52Z</time>
      </trkpt>
      <trkpt lat="48.7164880" lon="14.3697290">
        <ele>648.6</ele>
        <time>2019-08-07T14:24:53Z</time>
      </trkpt>
      <trkpt lat="48.7164630" lon="14.3696480">
        <ele>648.8</ele>
        <time>2019-08-07T14:24:54Z</time>
      </trkpt>
      <trkpt lat="48.7164370" lon="14.3695770">
        <ele>648.8</ele>
        <time>2019-08-07T14:24:55Z</time>
      </trkpt>
      <trkpt lat="48.7164080" lon="14.3695140">
        <ele>649.0</ele>
        <time>2019-08-07T14:24:56Z</time>
      </trkpt>
      <trkpt lat="48.7163740" lon="14.3694510">
        <ele>649.0</ele>
        <time>2019-08-07T14:24:57Z</time>
      </trkpt>
      <trkpt lat="48.7163320" lon="14.3693840">
        <ele>648.8</ele>
        <time>2019-08-07T14:24:58Z</time>
      </trkpt>
      <trkpt lat="48.7162830" lon="14.3693170">
        <ele>648.4</ele>
        <time>2019-08-07T14:24:59Z</time>
      </trkpt>
      <trkpt lat="48.7162290" lon="14.3692430">
        <ele>647.8</ele>
        <time>2019-08-07T14:25:00Z</time>
      </trkpt>
      <trkpt lat="48.7161750" lon="14.3691610">
        <ele>647.2</ele>
        <time>2019-08-07T14:25:01Z</time>
      </trkpt>
      <trkpt lat="48.7161280" lon="14.3690670">
        <ele>646.6</ele>
        <time>2019-08-07T14:25:02Z</time>
      </trkpt>
      <trkpt lat="48.7160930" lon="14.3689610">
        <ele>646.0</ele>
        <time>2019-08-07T14:25:03Z</time>
      </trkpt>
      <trkpt lat="48.7160780" lon="14.3688470">
        <ele>645.2</ele>
        <time>2019-08-07T14:25:04Z</time>
      </trkpt>
      <trkpt lat="48.7160900" lon="14.3687300">
        <ele>644.6</ele>
        <time>2019-08-07T14:25:05Z</time>
      </trkpt>
      <trkpt lat="48.7161240" lon="14.3686160">
        <ele>644.0</ele>
        <time>2019-08-07T14:25:06Z</time>
      </trkpt>
      <trkpt lat="48.7161860" lon="14.3685190">
        <ele>643.4</ele>
        <time>2019-08-07T14:25:07Z</time>
      </trkpt>
      <trkpt lat="48.7162590" lon="14.3684360">
        <ele>643.0</ele>
        <time>2019-08-07T14:25:08Z</time>
      </trkpt>
      <trkpt lat="48.7163430" lon="14.3683620">
        <ele>642.4</ele>
        <time>2019-08-07T14:25:09Z</time>
      </trkpt>
      <trkpt lat="48.7164300" lon="14.3682900">
        <ele>641.8</ele>
        <time>2019-08-07T14:25:10Z</time>
      </trkpt>
      <trkpt lat="48.7165300" lon="14.3682080">
        <ele>641.2</ele>
        <time>2019-08-07T14:25:11Z</time>
      </trkpt>
      <trkpt lat="48.7166300" lon="14.3681270">
        <ele>640.6</ele>
        <time>2019-08-07T14:25:12Z</time>
      </trkpt>
      <trkpt lat="48.7167350" lon="14.3680490">
        <ele>640.0</ele>
        <time>2019-08-07T14:25:13Z</time>
      </trkpt>
      <trkpt lat="48.7168380" lon="14.3679720">
        <ele>639.0</ele>
        <time>2019-08-07T14:25:14Z</time>
      </trkpt>
      <trkpt lat="48.7169440" lon="14.3678870">
        <ele>638.4</ele>
        <time>2019-08-07T14:25:15Z</time>
      </trkpt>
      <trkpt lat="48.7170550" lon="14.3678020">
        <ele>637.6</ele>
        <time>2019-08-07T14:25:16Z</time>
      </trkpt>
      <trkpt lat="48.7171720" lon="14.3677110">
        <ele>636.4</ele>
        <time>2019-08-07T14:25:17Z</time>
      </trkpt>
      <trkpt lat="48.7172800" lon="14.3676220">
        <ele>635.4</ele>
        <time>2019-08-07T14:25:18Z</time>
      </trkpt>
      <trkpt lat="48.7173800" lon="14.3675440">
        <ele>634.2</ele>
        <time>2019-08-07T14:25:19Z</time>
      </trkpt>
      <trkpt lat="48.7174740" lon="14.3674870">
        <ele>632.8</ele>
        <time>2019-08-07T14:25:20Z</time>
      </trkpt>
      <trkpt lat="48.7175610" lon="14.3674380">
        <ele>631.6</ele>
        <time>2019-08-07T14:25:21Z</time>
      </trkpt>
      <trkpt lat="48.7176400" lon="14.3673960">
        <ele>630.4</ele>
        <time>2019-08-07T14:25:22Z</time>
      </trkpt>
      <trkpt lat="48.7177090" lon="14.3673530">
        <ele>629.0</ele>
        <time>2019-08-07T14:25:23Z</time>
      </trkpt>
      <trkpt lat="48.7177690" lon="14.3672950">
        <ele>628.0</ele>
        <time>2019-08-07T14:25:24Z</time>
      </trkpt>
      <trkpt lat="48.7178160" lon="14.3672180">
        <ele>627.0</ele>
        <time>2019-08-07T14:25:25Z</time>
      </trkpt>
      <trkpt lat="48.7178540" lon="14.3671370">
        <ele>626.2</ele>
        <time>2019-08-07T14:25:26Z</time>
      </trkpt>
      <trkpt lat="48.7178730" lon="14.3670490">
        <ele>625.4</ele>
        <time>2019-08-07T14:25:27Z</time>
      </trkpt>
      <trkpt lat="48.7178650" lon="14.3669700">
        <ele>624.8</ele>
        <time>2019-08-07T14:25:28Z</time>
      </trkpt>
      <trkpt lat="48.7178300" lon="14.3669220">
        <ele>624.4</ele>
        <time>2019-08-07T14:25:29Z</time>
      </trkpt>
      <trkpt lat="48.7177880" lon="14.3668890">
        <ele>624.2</ele>
        <time>2019-08-07T14:25:30Z</time>
      </trkpt>
      <trkpt lat="48.7177390" lon="14.3668650">
        <ele>624.0</ele>
        <time>2019-08-07T14:25:31Z</time>
      </trkpt>
      <trkpt lat="48.7176870" lon="14.3668440">
        <ele>623.8</ele>
        <time>2019-08-07T14:25:32Z</time>
      </trkpt>
      <trkpt lat="48.7176320" lon="14.3668160">
        <ele>623.8</ele>
        <time>2019-08-07T14:25:33Z</time>
      </trkpt>
      <trkpt lat="48.7175820" lon="14.3667870">
        <ele>623.8</ele>
        <time>2019-08-07T14:25:34Z</time>
      </trkpt>
      <trkpt lat="48.7175320" lon="14.3667570">
        <ele>624.0</ele>
        <time>2019-08-07T14:25:35Z</time>
      </trkpt>
      <trkpt lat="48.7174780" lon="14.3667280">
        <ele>624.0</ele>
        <time>2019-08-07T14:25:36Z</time>
      </trkpt>
      <trkpt lat="48.7174290" lon="14.3666990">
        <ele>624.2</ele>
        <time>2019-08-07T14:25:37Z</time>
      </trkpt>
      <trkpt lat="48.7173870" lon="14.3666730">
        <ele>624.4</ele>
        <time>2019-08-07T14:25:38Z</time>
      </trkpt>
      <trkpt lat="48.7173500" lon="14.3666470">
        <ele>624.8</ele>
        <time>2019-08-07T14:25:39Z</time>
      </trkpt>
      <trkpt lat="48.7173190" lon="14.3666200">
        <ele>625.0</ele>
        <time>2019-08-07T14:25:40Z</time>
      </trkpt>
      <trkpt lat="48.7172920" lon="14.3665920">
        <ele>625.4</ele>
        <time>2019-08-07T14:25:41Z</time>
      </trkpt>
      <trkpt lat="48.7172640" lon="14.3665660">
        <ele>625.8</ele>
        <time>2019-08-07T14:25:42Z</time>
      </trkpt>
      <trkpt lat="48.7172360" lon="14.3665400">
        <ele>626.2</ele>
        <time>2019-08-07T14:25:43Z</time>
      </trkpt>
      <trkpt lat="48.7172080" lon="14.3665170">
        <ele>626.6</ele>
        <time>2019-08-07T14:25:44Z</time>
      </trkpt>
      <trkpt lat="48.7171830" lon="14.3664980">
        <ele>627.0</ele>
        <time>2019-08-07T14:25:45Z</time>
      </trkpt>
      <trkpt lat="48.7171610" lon="14.3664810">
        <ele>627.4</ele>
        <time>2019-08-07T14:25:46Z</time>
      </trkpt>
      <trkpt lat="48.7171430" lon="14.3664600">
        <ele>627.8</ele>
        <time>2019-08-07T14:25:47Z</time>
      </trkpt>
      <trkpt lat="48.7171260" lon="14.3664400">
        <ele>628.2</ele>
        <time>2019-08-07T14:25:48Z</time>
      </trkpt>
      <trkpt lat="48.7171100" lon="14.3664190">
        <ele>628.6</ele>
        <time>2019-08-07T14:25:49Z</time>
      </trkpt>
      <trkpt lat="48.7170940" lon="14.3663940">
        <ele>629.0</ele>
        <time>2019-08-07T14:25:50Z</time>
      </trkpt>
      <trkpt lat="48.7170750" lon="14.3663650">
        <ele>629.4</ele>
        <time>2019-08-07T14:25:51Z</time>
      </trkpt>
      <trkpt lat="48.7170540" lon="14.3663460">
        <ele>629.8</ele>
        <time>2019-08-07T14:25:52Z</time>
      </trkpt>
      <trkpt lat="48.7170370" lon="14.3663280">
        <ele>630.0</ele>
        <time>2019-08-07T14:25:53Z</time>
      </trkpt>
      <trkpt lat="48.7170190" lon="14.3663040">
        <ele>630.4</ele>
        <time>2019-08-07T14:25:54Z</time>
      </trkpt>
      <trkpt lat="48.7169990" lon="14.3662760">
        <ele>630.6</ele>
        <time>2019-08-07T14:25:55Z</time>
      </trkpt>
      <trkpt lat="48.7169810" lon="14.3662480">
        <ele>631.0</ele>
        <time>2019-08-07T14:25:56Z</time>
      </trkpt>
      <trkpt lat="48.7169620" lon="14.3662210">
        <ele>631.2</ele>
        <time>2019-08-07T14:25:57Z</time>
      </trkpt>
      <trkpt lat="48.7169420" lon="14.3661900">
        <ele>631.4</ele>
        <time>2019-08-07T14:25:58Z</time>
      </trkpt>
      <trkpt lat="48.7169220" lon="14.3661550">
        <ele>631.8</ele>
        <time>2019-08-07T14:25:59Z</time>
      </trkpt>
      <trkpt lat="48.7169030" lon="14.3661210">
        <ele>632.0</ele>
        <time>2019-08-07T14:26:00Z</time>
      </trkpt>
      <trkpt lat="48.7168840" lon="14.3660830">
        <ele>632.2</ele>
        <time>2019-08-07T14:26:01Z</time>
      </trkpt>
      <trkpt lat="48.7168660" lon="14.3660450">
        <ele>632.4</ele>
        <time>2019-08-07T14:26:02Z</time>
      </trkpt>
      <trkpt lat="48.7168510" lon="14.3660100">
        <ele>632.6</ele>
        <time>2019-08-07T14:26:03Z</time>
      </trkpt>
      <trkpt lat="48.7168330" lon="14.3659740">
        <ele>632.8</ele>
        <time>2019-08-07T14:26:04Z</time>
      </trkpt>
      <trkpt lat="48.7168180" lon="14.3659380">
        <ele>633.0</ele>
        <time>2019-08-07T14:26:05Z</time>
      </trkpt>
      <trkpt lat="48.7168010" lon="14.3659000">
        <ele>633.2</ele>
        <time>2019-08-07T14:26:06Z</time>
      </trkpt>
      <trkpt lat="48.7167840" lon="14.3658630">
        <ele>633.4</ele>
        <time>2019-08-07T14:26:07Z</time>
      </trkpt>
      <trkpt lat="48.7167650" lon="14.3658250">
        <ele>633.6</ele>
        <time>2019-08-07T14:26:08Z</time>
      </trkpt>
      <trkpt lat="48.7167460" lon="14.3657890">
        <ele>633.6</ele>
        <time>2019-08-07T14:26:09Z</time>
      </trkpt>
      <trkpt lat="48.7167280" lon="14.3657540">
        <ele>633.8</ele>
        <time>2019-08-07T14:26:10Z</time>
      </trkpt>
      <trkpt lat="48.7167080" lon="14.3657150">
        <ele>634.0</ele>
        <time>2019-08-07T14:26:11Z</time>
      </trkpt>
      <trkpt lat="48.7166910" lon="14.3656790">
        <ele>634.2</ele>
        <time>2019-08-07T14:26:12Z</time>
      </trkpt>
      <trkpt lat="48.7166730" lon="14.3656460">
        <ele>634.4</ele>
        <time>2019-08-07T14:26:13Z</time>
      </trkpt>
      <trkpt lat="48.7166560" lon="14.3656130">
        <ele>634.6</ele>
        <time>2019-08-07T14:26:14Z</time>
      </trkpt>
      <trkpt lat="48.7166370" lon="14.3655810">
        <ele>634.8</ele>
        <time>2019-08-07T14:26:15Z</time>
      </trkpt>
      <trkpt lat="48.7166170" lon="14.3655520">
        <ele>635.0</ele>
        <time>2019-08-07T14:26:16Z</time>
      </trkpt>
      <trkpt lat="48.7165970" lon="14.3655230">
        <ele>635.0</ele>
        <time>2019-08-07T14:26:17Z</time>
      </trkpt>
      <trkpt lat="48.7165790" lon="14.3654920">
        <ele>635.2</ele>
        <time>2019-08-07T14:26:18Z</time>
      </trkpt>
      <trkpt lat="48.7165580" lon="14.3654600">
        <ele>635.4</ele>
        <time>2019-08-07T14:26:19Z</time>
      </trkpt>
      <trkpt lat="48.7165370" lon="14.3654310">
        <ele>635.6</ele>
        <time>2019-08-07T14:26:20Z</time>
      </trkpt>
      <trkpt lat="48.7165170" lon="14.3654020">
        <ele>635.6</ele>
        <time>2019-08-07T14:26:21Z</time>
      </trkpt>
      <trkpt lat="48.7164970" lon="14.3653720">
        <ele>635.8</ele>
        <time>2019-08-07T14:26:22Z</time>
      </trkpt>
      <trkpt lat="48.7164780" lon="14.3653430">
        <ele>636.0</ele>
        <time>2019-08-07T14:26:23Z</time>
      </trkpt>
      <trkpt lat="48.7164590" lon="14.3653160">
        <ele>636.0</ele>
        <time>2019-08-07T14:26:24Z</time>
      </trkpt>
      <trkpt lat="48.7164390" lon="14.3652870">
        <ele>636.2</ele>
        <time>2019-08-07T14:26:25Z</time>
      </trkpt>
      <trkpt lat="48.7164190" lon="14.3652570">
        <ele>636.2</ele>
        <time>2019-08-07T14:26:26Z</time>
      </trkpt>
      <trkpt lat="48.7163960" lon="14.3652240">
        <ele>636.4</ele>
        <time>2019-08-07T14:26:27Z</time>
      </trkpt>
      <trkpt lat="48.7163730" lon="14.3651900">
        <ele>636.4</ele>
        <time>2019-08-07T14:26:28Z</time>
      </trkpt>
      <trkpt lat="48.7163490" lon="14.3651540">
        <ele>636.4</ele>
        <time>2019-08-07T14:26:29Z</time>
      </trkpt>
      <trkpt lat="48.7163220" lon="14.3651180">
        <ele>636.4</ele>
        <time>2019-08-07T14:26:30Z</time>
      </trkpt>
      <trkpt lat="48.7162870" lon="14.3650710">
        <ele>636.6</ele>
        <time>2019-08-07T14:26:31Z</time>
      </trkpt>
      <trkpt lat="48.7162510" lon="14.3650240">
        <ele>636.6</ele>
        <time>2019-08-07T14:26:32Z</time>
      </trkpt>
      <trkpt lat="48.7162140" lon="14.3649750">
        <ele>636.6</ele>
        <time>2019-08-07T14:26:33Z</time>
      </trkpt>
      <trkpt lat="48.7161770" lon="14.3649260">
        <ele>636.6</ele>
        <time>2019-08-07T14:26:34Z</time>
      </trkpt>
      <trkpt lat="48.7161390" lon="14.3648770">
        <ele>636.6</ele>
        <time>2019-08-07T14:26:35Z</time>
      </trkpt>
      <trkpt lat="48.7160980" lon="14.3648230">
        <ele>636.6</ele>
        <time>2019-08-07T14:26:36Z</time>
      </trkpt>
      <trkpt lat="48.7160580" lon="14.3647700">
        <ele>636.4</ele>
        <time>2019-08-07T14:26:37Z</time>
      </trkpt>
      <trkpt lat="48.7160150" lon="14.3647190">
        <ele>636.4</ele>
        <time>2019-08-07T14:26:38Z</time>
      </trkpt>
      <trkpt lat="48.7159700" lon="14.3646690">
        <ele>636.4</ele>
        <time>2019-08-07T14:26:39Z</time>
      </trkpt>
      <trkpt lat="48.7159260" lon="14.3646210">
        <ele>636.4</ele>
        <time>2019-08-07T14:26:40Z</time>
      </trkpt>
      <trkpt lat="48.7158790" lon="14.3645750">
        <ele>636.4</ele>
        <time>2019-08-07T14:26:41Z</time>
      </trkpt>
      <trkpt lat="48.7158330" lon="14.3645320">
        <ele>636.4</ele>
        <time>2019-08-07T14:26:42Z</time>
      </trkpt>
      <trkpt lat="48.7157870" lon="14.3644890">
        <ele>636.4</ele>
        <time>2019-08-07T14:26:43Z</time>
      </trkpt>
      <trkpt lat="48.7157410" lon="14.3644480">
        <ele>636.4</ele>
        <time>2019-08-07T14:26:44Z</time>
      </trkpt>
      <trkpt lat="48.7156950" lon="14.3644090">
        <ele>636.4</ele>
        <time>2019-08-07T14:26:45Z</time>
      </trkpt>
      <trkpt lat="48.7156490" lon="14.3643690">
        <ele>636.4</ele>
        <time>2019-08-07T14:26:46Z</time>
      </trkpt>
      <trkpt lat="48.7156050" lon="14.3643240">
        <ele>636.4</ele>
        <time>2019-08-07T14:26:47Z</time>
      </trkpt>
      <trkpt lat="48.7155620" lon="14.3642770">
        <ele>636.6</ele>
        <time>2019-08-07T14:26:48Z</time>
      </trkpt>
      <trkpt lat="48.7155200" lon="14.3642310">
        <ele>636.6</ele>
        <time>2019-08-07T14:26:49Z</time>
      </trkpt>
      <trkpt lat="48.7154790" lon="14.3641860">
        <ele>636.6</ele>
        <time>2019-08-07T14:26:50Z</time>
      </trkpt>
      <trkpt lat="48.7154350" lon="14.3641390">
        <ele>636.6</ele>
        <time>2019-08-07T14:26:51Z</time>
      </trkpt>
      <trkpt lat="48.7153940" lon="14.3640920">
        <ele>636.8</ele>
        <time>2019-08-07T14:26:52Z</time>
      </trkpt>
      <trkpt lat="48.7153520" lon="14.3640430">
        <ele>636.8</ele>
        <time>2019-08-07T14:26:53Z</time>
      </trkpt>
      <trkpt lat="48.7153120" lon="14.3639940">
        <ele>637.0</ele>
        <time>2019-08-07T14:26:54Z</time>
      </trkpt>
      <trkpt lat="48.7152700" lon="14.3639460">
        <ele>637.0</ele>
        <time>2019-08-07T14:26:55Z</time>
      </trkpt>
      <trkpt lat="48.7152280" lon="14.3639010">
        <ele>637.0</ele>
        <time>2019-08-07T14:26:56Z</time>
      </trkpt>
      <trkpt lat="48.7151830" lon="14.3638540">
        <ele>637.2</ele>
        <time>2019-08-07T14:26:57Z</time>
      </trkpt>
      <trkpt lat="48.7151400" lon="14.3638070">
        <ele>637.2</ele>
        <time>2019-08-07T14:26:58Z</time>
      </trkpt>
      <trkpt lat="48.7150960" lon="14.3637610">
        <ele>637.4</ele>
        <time>2019-08-07T14:26:59Z</time>
      </trkpt>
      <trkpt lat="48.7150510" lon="14.3637180">
        <ele>637.4</ele>
        <time>2019-08-07T14:27:00Z</time>
      </trkpt>
      <trkpt lat="48.7150030" lon="14.3636760">
        <ele>637.4</ele>
        <time>2019-08-07T14:27:01Z</time>
      </trkpt>
      <trkpt lat="48.7149560" lon="14.3636350">
        <ele>637.4</ele>
        <time>2019-08-07T14:27:02Z</time>
      </trkpt>
      <trkpt lat="48.7149070" lon="14.3635930">
        <ele>637.4</ele>
        <time>2019-08-07T14:27:03Z</time>
      </trkpt>
      <trkpt lat="48.7148600" lon="14.3635520">
        <ele>637.4</ele>
        <time>2019-08-07T14:27:04Z</time>
      </trkpt>
      <trkpt lat="48.7148100" lon="14.3635160">
        <ele>637.6</ele>
        <time>2019-08-07T14:27:05Z</time>
      </trkpt>
      <trkpt lat="48.7147610" lon="14.3634830">
        <ele>637.6</ele>
        <time>2019-08-07T14:27:06Z</time>
      </trkpt>
      <trkpt lat="48.7147090" lon="14.3634510">
        <ele>637.6</ele>
        <time>2019-08-07T14:27:07Z</time>
      </trkpt>
      <trkpt lat="48.7146600" lon="14.3634170">
        <ele>637.6</ele>
        <time>2019-08-07T14:27:08Z</time>
      </trkpt>
      <trkpt lat="48.7146130" lon="14.3633820">
        <ele>637.8</ele>
        <time>2019-08-07T14:27:09Z</time>
      </trkpt>
      <trkpt lat="48.7145680" lon="14.3633480">
        <ele>637.8</ele>
        <time>2019-08-07T14:27:10Z</time>
      </trkpt>
      <trkpt lat="48.7145220" lon="14.3633080">
        <ele>638.0</ele>
        <time>2019-08-07T14:27:11Z</time>
      </trkpt>
      <trkpt lat="48.7144790" lon="14.3632680">
        <ele>638.0</ele>
        <time>2019-08-07T14:27:12Z</time>
      </trkpt>
      <trkpt lat="48.7144370" lon="14.3632250">
        <ele>638.2</ele>
        <time>2019-08-07T14:27:13Z</time>
      </trkpt>
      <trkpt lat="48.7143950" lon="14.3631800">
        <ele>638.2</ele>
        <time>2019-08-07T14:27:14Z</time>
      </trkpt>
      <trkpt lat="48.7143500" lon="14.3631320">
        <ele>638.2</ele>
        <time>2019-08-07T14:27:15Z</time>
      </trkpt>
      <trkpt lat="48.7143050" lon="14.3630840">
        <ele>638.2</ele>
        <time>2019-08-07T14:27:16Z</time>
      </trkpt>
      <trkpt lat="48.7142600" lon="14.3630310">
        <ele>638.2</ele>
        <time>2019-08-07T14:27:17Z</time>
      </trkpt>
      <trkpt lat="48.7142120" lon="14.3629770">
        <ele>638.2</ele>
        <time>2019-08-07T14:27:18Z</time>
      </trkpt>
      <trkpt lat="48.7141660" lon="14.3629190">
        <ele>638.0</ele>
        <time>2019-08-07T14:27:19Z</time>
      </trkpt>
      <trkpt lat="48.7141190" lon="14.3628600">
        <ele>638.0</ele>
        <time>2019-08-07T14:27:20Z</time>
      </trkpt>
      <trkpt lat="48.7140720" lon="14.3628020">
        <ele>638.0</ele>
        <time>2019-08-07T14:27:21Z</time>
      </trkpt>
      <trkpt lat="48.7140230" lon="14.3627410">
        <ele>638.0</ele>
        <time>2019-08-07T14:27:22Z</time>
      </trkpt>
      <trkpt lat="48.7139740" lon="14.3626760">
        <ele>637.8</ele>
        <time>2019-08-07T14:27:23Z</time>
      </trkpt>
      <trkpt lat="48.7139250" lon="14.3626090">
        <ele>637.8</ele>
        <time>2019-08-07T14:27:24Z</time>
      </trkpt>
      <trkpt lat="48.7138770" lon="14.3625400">
        <ele>637.8</ele>
        <time>2019-08-07T14:27:25Z</time>
      </trkpt>
      <trkpt lat="48.7138300" lon="14.3624690">
        <ele>637.8</ele>
        <time>2019-08-07T14:27:26Z</time>
      </trkpt>
      <trkpt lat="48.7137840" lon="14.3623970">
        <ele>637.8</ele>
        <time>2019-08-07T14:27:27Z</time>
      </trkpt>
      <trkpt lat="48.7137380" lon="14.3623240">
        <ele>637.6</ele>
        <time>2019-08-07T14:27:28Z</time>
      </trkpt>
      <trkpt lat="48.7136910" lon="14.3622530">
        <ele>637.6</ele>
        <time>2019-08-07T14:27:29Z</time>
      </trkpt>
      <trkpt lat="48.7136460" lon="14.3621860">
        <ele>637.4</ele>
        <time>2019-08-07T14:27:30Z</time>
      </trkpt>
      <trkpt lat="48.7135960" lon="14.3621110">
        <ele>637.4</ele>
        <time>2019-08-07T14:27:31Z</time>
      </trkpt>
      <trkpt lat="48.7135500" lon="14.3620380">
        <ele>637.4</ele>
        <time>2019-08-07T14:27:32Z</time>
      </trkpt>
      <trkpt lat="48.7135050" lon="14.3619620">
        <ele>637.2</ele>
        <time>2019-08-07T14:27:33Z</time>
      </trkpt>
      <trkpt lat="48.7134620" lon="14.3618850">
        <ele>637.2</ele>
        <time>2019-08-07T14:27:34Z</time>
      </trkpt>
      <trkpt lat="48.7134190" lon="14.3618060">
        <ele>637.2</ele>
        <time>2019-08-07T14:27:35Z</time>
      </trkpt>
      <trkpt lat="48.7133740" lon="14.3617270">
        <ele>637.2</ele>
        <time>2019-08-07T14:27:36Z</time>
      </trkpt>
      <trkpt lat="48.7133290" lon="14.3616460">
        <ele>637.2</ele>
        <time>2019-08-07T14:27:37Z</time>
      </trkpt>
      <trkpt lat="48.7132860" lon="14.3615670">
        <ele>637.0</ele>
        <time>2019-08-07T14:27:38Z</time>
      </trkpt>
      <trkpt lat="48.7132410" lon="14.3614900">
        <ele>637.0</ele>
        <time>2019-08-07T14:27:39Z</time>
      </trkpt>
      <trkpt lat="48.7131950" lon="14.3614160">
        <ele>637.0</ele>
        <time>2019-08-07T14:27:40Z</time>
      </trkpt>
      <trkpt lat="48.7131500" lon="14.3613380">
        <ele>637.0</ele>
        <time>2019-08-07T14:27:41Z</time>
      </trkpt>
      <trkpt lat="48.7131050" lon="14.3612600">
        <ele>636.8</ele>
        <time>2019-08-07T14:27:42Z</time>
      </trkpt>
      <trkpt lat="48.7130610" lon="14.3611780">
        <ele>636.8</ele>
        <time>2019-08-07T14:27:43Z</time>
      </trkpt>
      <trkpt lat="48.7130170" lon="14.3610970">
        <ele>636.6</ele>
        <time>2019-08-07T14:27:44Z</time>
      </trkpt>
      <trkpt lat="48.7129750" lon="14.3610140">
        <ele>636.4</ele>
        <time>2019-08-07T14:27:45Z</time>
      </trkpt>
      <trkpt lat="48.7129340" lon="14.3609250">
        <ele>636.4</ele>
        <time>2019-08-07T14:27:46Z</time>
      </trkpt>
      <trkpt lat="48.7128900" lon="14.3608340">
        <ele>636.2</ele>
        <time>2019-08-07T14:27:47Z</time>
      </trkpt>
      <trkpt lat="48.7128470" lon="14.3607400">
        <ele>636.4</ele>
        <time>2019-08-07T14:27:48Z</time>
      </trkpt>
      <trkpt lat="48.7128040" lon="14.3606460">
        <ele>636.4</ele>
        <time>2019-08-07T14:27:49Z</time>
      </trkpt>
      <trkpt lat="48.7127630" lon="14.3605540">
        <ele>636.4</ele>
        <time>2019-08-07T14:27:50Z</time>
      </trkpt>
      <trkpt lat="48.7127170" lon="14.3604560">
        <ele>636.0</ele>
        <time>2019-08-07T14:27:51Z</time>
      </trkpt>
      <trkpt lat="48.7126730" lon="14.3603580">
        <ele>635.6</ele>
        <time>2019-08-07T14:27:52Z</time>
      </trkpt>
      <trkpt lat="48.7126280" lon="14.3602570">
        <ele>635.2</ele>
        <time>2019-08-07T14:27:53Z</time>
      </trkpt>
      <trkpt lat="48.7125810" lon="14.3601560">
        <ele>635.2</ele>
        <time>2019-08-07T14:27:54Z</time>
      </trkpt>
      <trkpt lat="48.7125350" lon="14.3600530">
        <ele>635.0</ele>
        <time>2019-08-07T14:27:55Z</time>
      </trkpt>
      <trkpt lat="48.7124900" lon="14.3599480">
        <ele>634.8</ele>
        <time>2019-08-07T14:27:56Z</time>
      </trkpt>
      <trkpt lat="48.7124410" lon="14.3598350">
        <ele>634.8</ele>
        <time>2019-08-07T14:27:57Z</time>
      </trkpt>
      <trkpt lat="48.7123920" lon="14.3597240">
        <ele>634.4</ele>
        <time>2019-08-07T14:27:58Z</time>
      </trkpt>
      <trkpt lat="48.7123470" lon="14.3596070">
        <ele>634.2</ele>
        <time>2019-08-07T14:27:59Z</time>
      </trkpt>
      <trkpt lat="48.7123040" lon="14.3594830">
        <ele>634.0</ele>
        <time>2019-08-07T14:28:00Z</time>
      </trkpt>
      <trkpt lat="48.7122670" lon="14.3593540">
        <ele>633.6</ele>
        <time>2019-08-07T14:28:01Z</time>
      </trkpt>
      <trkpt lat="48.7122350" lon="14.3592200">
        <ele>633.0</ele>
        <time>2019-08-07T14:28:02Z</time>
      </trkpt>
      <trkpt lat="48.7122060" lon="14.3590820">
        <ele>632.6</ele>
        <time>2019-08-07T14:28:03Z</time>
      </trkpt>
      <trkpt lat="48.7121820" lon="14.3589410">
        <ele>632.4</ele>
        <time>2019-08-07T14:28:04Z</time>
      </trkpt>
      <trkpt lat="48.7121610" lon="14.3588010">
        <ele>631.8</ele>
        <time>2019-08-07T14:28:05Z</time>
      </trkpt>
      <trkpt lat="48.7121440" lon="14.3586610">
        <ele>631.4</ele>
        <time>2019-08-07T14:28:06Z</time>
      </trkpt>
      <trkpt lat="48.7121310" lon="14.3585180">
        <ele>630.8</ele>
        <time>2019-08-07T14:28:07Z</time>
      </trkpt>
      <trkpt lat="48.7121210" lon="14.3583730">
        <ele>630.0</ele>
        <time>2019-08-07T14:28:08Z</time>
      </trkpt>
      <trkpt lat="48.7121110" lon="14.3582280">
        <ele>629.4</ele>
        <time>2019-08-07T14:28:09Z</time>
      </trkpt>
      <trkpt lat="48.7120990" lon="14.3580870">
        <ele>628.8</ele>
        <time>2019-08-07T14:28:10Z</time>
      </trkpt>
      <trkpt lat="48.7120810" lon="14.3579200">
        <ele>628.4</ele>
        <time>2019-08-07T14:28:11Z</time>
      </trkpt>
      <trkpt lat="48.7120490" lon="14.3577550">
        <ele>628.2</ele>
        <time>2019-08-07T14:28:12Z</time>
      </trkpt>
      <trkpt lat="48.7120100" lon="14.3575950">
        <ele>627.6</ele>
        <time>2019-08-07T14:28:13Z</time>
      </trkpt>
      <trkpt lat="48.7119720" lon="14.3574360">
        <ele>626.8</ele>
        <time>2019-08-07T14:28:14Z</time>
      </trkpt>
      <trkpt lat="48.7119320" lon="14.3572780">
        <ele>625.8</ele>
        <time>2019-08-07T14:28:15Z</time>
      </trkpt>
      <trkpt lat="48.7118970" lon="14.3571260">
        <ele>624.6</ele>
        <time>2019-08-07T14:28:16Z</time>
      </trkpt>
      <trkpt lat="48.7118650" lon="14.3569790">
        <ele>623.6</ele>
        <time>2019-08-07T14:28:17Z</time>
      </trkpt>
      <trkpt lat="48.7118390" lon="14.3568330">
        <ele>622.4</ele>
        <time>2019-08-07T14:28:18Z</time>
      </trkpt>
      <trkpt lat="48.7118130" lon="14.3566860">
        <ele>621.6</ele>
        <time>2019-08-07T14:28:19Z</time>
      </trkpt>
      <trkpt lat="48.7117940" lon="14.3565360">
        <ele>620.6</ele>
        <time>2019-08-07T14:28:20Z</time>
      </trkpt>
      <trkpt lat="48.7117810" lon="14.3563770">
        <ele>619.6</ele>
        <time>2019-08-07T14:28:21Z</time>
      </trkpt>
      <trkpt lat="48.7117890" lon="14.3562340">
        <ele>619.0</ele>
        <time>2019-08-07T14:28:22Z</time>
      </trkpt>
      <trkpt lat="48.7118000" lon="14.3560840">
        <ele>618.2</ele>
        <time>2019-08-07T14:28:23Z</time>
      </trkpt>
      <trkpt lat="48.7118150" lon="14.3559260">
        <ele>616.8</ele>
        <time>2019-08-07T14:28:24Z</time>
      </trkpt>
      <trkpt lat="48.7118350" lon="14.3557660">
        <ele>615.8</ele>
        <time>2019-08-07T14:28:25Z</time>
      </trkpt>
      <trkpt lat="48.7118580" lon="14.3556220">
        <ele>615.0</ele>
        <time>2019-08-07T14:28:26Z</time>
      </trkpt>
      <trkpt lat="48.7118860" lon="14.3554720">
        <ele>614.4</ele>
        <time>2019-08-07T14:28:27Z</time>
      </trkpt>
      <trkpt lat="48.7119180" lon="14.3553190">
        <ele>613.8</ele>
        <time>2019-08-07T14:28:28Z</time>
      </trkpt>
      <trkpt lat="48.7119410" lon="14.3551650">
        <ele>612.8</ele>
        <time>2019-08-07T14:28:29Z</time>
      </trkpt>
      <trkpt lat="48.7119720" lon="14.3550090">
        <ele>612.0</ele>
        <time>2019-08-07T14:28:30Z</time>
      </trkpt>
      <trkpt lat="48.7120130" lon="14.3548310">
        <ele>611.4</ele>
        <time>2019-08-07T14:28:31Z</time>
      </trkpt>
      <trkpt lat="48.7120440" lon="14.3546640">
        <ele>610.4</ele>
        <time>2019-08-07T14:28:32Z</time>
      </trkpt>
      <trkpt lat="48.7120760" lon="14.3544980">
        <ele>609.4</ele>
        <time>2019-08-07T14:28:33Z</time>
      </trkpt>
      <trkpt lat="48.7121040" lon="14.3543310">
        <ele>608.4</ele>
        <time>2019-08-07T14:28:34Z</time>
      </trkpt>
      <trkpt lat="48.7121370" lon="14.3541540">
        <ele>607.2</ele>
        <time>2019-08-07T14:28:35Z</time>
      </trkpt>
      <trkpt lat="48.7121730" lon="14.3539750">
        <ele>606.4</ele>
        <time>2019-08-07T14:28:36Z</time>
      </trkpt>
      <trkpt lat="48.7122080" lon="14.3537820">
        <ele>605.2</ele>
        <time>2019-08-07T14:28:37Z</time>
      </trkpt>
      <trkpt lat="48.7122320" lon="14.3536060">
        <ele>603.6</ele>
        <time>2019-08-07T14:28:38Z</time>
      </trkpt>
      <trkpt lat="48.7122610" lon="14.3534430">
        <ele>602.0</ele>
        <time>2019-08-07T14:28:39Z</time>
      </trkpt>
      <trkpt lat="48.7122920" lon="14.3532840">
        <ele>600.8</ele>
        <time>2019-08-07T14:28:40Z</time>
      </trkpt>
      <trkpt lat="48.7123150" lon="14.3531320">
        <ele>599.4</ele>
        <time>2019-08-07T14:28:41Z</time>
      </trkpt>
      <trkpt lat="48.7123450" lon="14.3529850">
        <ele>598.0</ele>
        <time>2019-08-07T14:28:42Z</time>
      </trkpt>
      <trkpt lat="48.7123780" lon="14.3528460">
        <ele>596.8</ele>
        <time>2019-08-07T14:28:43Z</time>
      </trkpt>
      <trkpt lat="48.7124230" lon="14.3527080">
        <ele>595.6</ele>
        <time>2019-08-07T14:28:44Z</time>
      </trkpt>
      <trkpt lat="48.7124700" lon="14.3525780">
        <ele>594.6</ele>
        <time>2019-08-07T14:28:45Z</time>
      </trkpt>
      <trkpt lat="48.7125270" lon="14.3524440">
        <ele>593.4</ele>
        <time>2019-08-07T14:28:46Z</time>
      </trkpt>
      <trkpt lat="48.7126010" lon="14.3522950">
        <ele>592.4</ele>
        <time>2019-08-07T14:28:47Z</time>
      </trkpt>
      <trkpt lat="48.7126770" lon="14.3521390">
        <ele>591.2</ele>
        <time>2019-08-07T14:28:48Z</time>
      </trkpt>
      <trkpt lat="48.7127490" lon="14.3519870">
        <ele>590.0</ele>
        <time>2019-08-07T14:28:49Z</time>
      </trkpt>
      <trkpt lat="48.7128080" lon="14.3518280">
        <ele>589.0</ele>
        <time>2019-08-07T14:28:50Z</time>
      </trkpt>
      <trkpt lat="48.7128590" lon="14.3516490">
        <ele>587.8</ele>
        <time>2019-08-07T14:28:51Z</time>
      </trkpt>
      <trkpt lat="48.7128940" lon="14.3514710">
        <ele>586.6</ele>
        <time>2019-08-07T14:28:52Z</time>
      </trkpt>
      <trkpt lat="48.7129290" lon="14.3512800">
        <ele>585.4</ele>
        <time>2019-08-07T14:28:53Z</time>
      </trkpt>
      <trkpt lat="48.7129680" lon="14.3510880">
        <ele>584.2</ele>
        <time>2019-08-07T14:28:54Z</time>
      </trkpt>
      <trkpt lat="48.7130170" lon="14.3508840">
        <ele>583.0</ele>
        <time>2019-08-07T14:28:55Z</time>
      </trkpt>
      <trkpt lat="48.7130660" lon="14.3506900">
        <ele>581.8</ele>
        <time>2019-08-07T14:28:56Z</time>
      </trkpt>
      <trkpt lat="48.7131140" lon="14.3504920">
        <ele>580.6</ele>
        <time>2019-08-07T14:28:57Z</time>
      </trkpt>
      <trkpt lat="48.7131540" lon="14.3502960">
        <ele>579.4</ele>
        <time>2019-08-07T14:28:58Z</time>
      </trkpt>
      <trkpt lat="48.7131890" lon="14.3501040">
        <ele>578.2</ele>
        <time>2019-08-07T14:28:59Z</time>
      </trkpt>
      <trkpt lat="48.7132200" lon="14.3499190">
        <ele>577.0</ele>
        <time>2019-08-07T14:29:00Z</time>
      </trkpt>
      <trkpt lat="48.7132520" lon="14.3497280">
        <ele>575.8</ele>
        <time>2019-08-07T14:29:01Z</time>
      </trkpt>
      <trkpt lat="48.7132940" lon="14.3495400">
        <ele>574.8</ele>
        <time>2019-08-07T14:29:02Z</time>
      </trkpt>
      <trkpt lat="48.7133460" lon="14.3493490">
        <ele>573.2</ele>
        <time>2019-08-07T14:29:03Z</time>
      </trkpt>
      <trkpt lat="48.7133860" lon="14.3491670">
        <ele>571.8</ele>
        <time>2019-08-07T14:29:04Z</time>
      </trkpt>
      <trkpt lat="48.7134150" lon="14.3489780">
        <ele>570.6</ele>
        <time>2019-08-07T14:29:05Z</time>
      </trkpt>
      <trkpt lat="48.7134370" lon="14.3487950">
        <ele>569.4</ele>
        <time>2019-08-07T14:29:06Z</time>
      </trkpt>
      <trkpt lat="48.7134550" lon="14.3486060">
        <ele>568.4</ele>
        <time>2019-08-07T14:29:07Z</time>
      </trkpt>
      <trkpt lat="48.7134800" lon="14.3484110">
        <ele>567.2</ele>
        <time>2019-08-07T14:29:08Z</time>
      </trkpt>
      <trkpt lat="48.7135040" lon="14.3482230">
        <ele>565.6</ele>
        <time>2019-08-07T14:29:09Z</time>
      </trkpt>
      <trkpt lat="48.7135230" lon="14.3480430">
        <ele>564.2</ele>
        <time>2019-08-07T14:29:10Z</time>
      </trkpt>
      <trkpt lat="48.7135430" lon="14.3478700">
        <ele>562.6</ele>
        <time>2019-08-07T14:29:11Z</time>
      </trkpt>
      <trkpt lat="48.7135630" lon="14.3477100">
        <ele>561.2</ele>
        <time>2019-08-07T14:29:12Z</time>
      </trkpt>
      <trkpt lat="48.7135870" lon="14.3475440">
        <ele>559.8</ele>
        <time>2019-08-07T14:29:13Z</time>
      </trkpt>
      <trkpt lat="48.7136240" lon="14.3473770">
        <ele>558.2</ele>
        <time>2019-08-07T14:29:14Z</time>
      </trkpt>
      <trkpt lat="48.7136530" lon="14.3472120">
        <ele>557.0</ele>
        <time>2019-08-07T14:29:15Z</time>
      </trkpt>
      <trkpt lat="48.7136830" lon="14.3470540">
        <ele>555.4</ele>
        <time>2019-08-07T14:29:16Z</time>
      </trkpt>
      <trkpt lat="48.7137230" lon="14.3468920">
        <ele>554.2</ele>
        <time>2019-08-07T14:29:17Z</time>
      </trkpt>
      <trkpt lat="48.7137660" lon="14.3467320">
        <ele>553.0</ele>
        <time>2019-08-07T14:29:18Z</time>
      </trkpt>
      <trkpt lat="48.7138200" lon="14.3465630">
        <ele>551.4</ele>
        <time>2019-08-07T14:29:19Z</time>
      </trkpt>
      <trkpt lat="48.7138740" lon="14.3463920">
        <ele>549.8</ele>
        <time>2019-08-07T14:29:20Z</time>
      </trkpt>
      <trkpt lat="48.7139170" lon="14.3462350">
        <ele>548.2</ele>
        <time>2019-08-07T14:29:21Z</time>
      </trkpt>
      <trkpt lat="48.7139530" lon="14.3460950">
        <ele>547.0</ele>
        <time>2019-08-07T14:29:22Z</time>
      </trkpt>
      <trkpt lat="48.7139850" lon="14.3459440">
        <ele>545.8</ele>
        <time>2019-08-07T14:29:23Z</time>
      </trkpt>
      <trkpt lat="48.7140240" lon="14.3457740">
        <ele>544.6</ele>
        <time>2019-08-07T14:29:24Z</time>
      </trkpt>
      <trkpt lat="48.7140320" lon="14.3455960">
        <ele>543.2</ele>
        <time>2019-08-07T14:29:25Z</time>
      </trkpt>
      <trkpt lat="48.7140290" lon="14.3454180">
        <ele>542.2</ele>
        <time>2019-08-07T14:29:26Z</time>
      </trkpt>
      <trkpt lat="48.7140330" lon="14.3452360">
        <ele>541.0</ele>
        <time>2019-08-07T14:29:27Z</time>
      </trkpt>
      <trkpt lat="48.7140490" lon="14.3450730">
        <ele>539.8</ele>
        <time>2019-08-07T14:29:28Z</time>
      </trkpt>
      <trkpt lat="48.7140710" lon="14.3449310">
        <ele>538.8</ele>
        <time>2019-08-07T14:29:29Z</time>
      </trkpt>
      <trkpt lat="48.7141070" lon="14.3448020">
        <ele>537.8</ele>
        <time>2019-08-07T14:29:30Z</time>
      </trkpt>
      <trkpt lat="48.7141370" lon="14.3446710">
        <ele>536.6</ele>
        <time>2019-08-07T14:29:31Z</time>
      </trkpt>
      <trkpt lat="48.7141760" lon="14.3445640">
        <ele>535.6</ele>
        <time>2019-08-07T14:29:32Z</time>
      </trkpt>
      <trkpt lat="48.7142120" lon="14.3444850">
        <ele>534.6</ele>
        <time>2019-08-07T14:29:33Z</time>
      </trkpt>
      <trkpt lat="48.7142560" lon="14.3444300">
        <ele>533.8</ele>
        <time>2019-08-07T14:29:34Z</time>
      </trkpt>
      <trkpt lat="48.7143030" lon="14.3444060">
        <ele>533.2</ele>
        <time>2019-08-07T14:29:35Z</time>
      </trkpt>
      <trkpt lat="48.7143540" lon="14.3444030">
        <ele>532.6</ele>
        <time>2019-08-07T14:29:36Z</time>
      </trkpt>
      <trkpt lat="48.7144060" lon="14.3444180">
        <ele>532.2</ele>
        <time>2019-08-07T14:29:37Z</time>
      </trkpt>
      <trkpt lat="48.7144620" lon="14.3444330">
        <ele>531.6</ele>
        <time>2019-08-07T14:29:38Z</time>
      </trkpt>
      <trkpt lat="48.7145190" lon="14.3444540">
        <ele>531.2</ele>
        <time>2019-08-07T14:29:39Z</time>
      </trkpt>
      <trkpt lat="48.7145740" lon="14.3444700">
        <ele>531.0</ele>
        <time>2019-08-07T14:29:40Z</time>
      </trkpt>
      <trkpt lat="48.7146240" lon="14.3444850">
        <ele>530.8</ele>
        <time>2019-08-07T14:29:41Z</time>
      </trkpt>
      <trkpt lat="48.7146700" lon="14.3444990">
        <ele>530.8</ele>
        <time>2019-08-07T14:29:42Z</time>
      </trkpt>
      <trkpt lat="48.7147160" lon="14.3445110">
        <ele>530.8</ele>
        <time>2019-08-07T14:29:43Z</time>
      </trkpt>
      <trkpt lat="48.7147550" lon="14.3445220">
        <ele>530.8</ele>
        <time>2019-08-07T14:29:44Z</time>
      </trkpt>
      <trkpt lat="48.7147910" lon="14.3445280">
        <ele>530.8</ele>
        <time>2019-08-07T14:29:45Z</time>
      </trkpt>
      <trkpt lat="48.7148250" lon="14.3445340">
        <ele>530.8</ele>
        <time>2019-08-07T14:29:46Z</time>
      </trkpt>
      <trkpt lat="48.7148570" lon="14.3445390">
        <ele>530.8</ele>
        <time>2019-08-07T14:29:47Z</time>
      </trkpt>
      <trkpt lat="48.7148880" lon="14.3445460">
        <ele>530.8</ele>
        <time>2019-08-07T14:29:48Z</time>
      </trkpt>
      <trkpt lat="48.7149140" lon="14.3445510">
        <ele>531.0</ele>
        <time>2019-08-07T14:29:49Z</time>
      </trkpt>
      <trkpt lat="48.7149380" lon="14.3445580">
        <ele>531.2</ele>
        <time>2019-08-07T14:29:50Z</time>
      </trkpt>
      <trkpt lat="48.7149620" lon="14.3445660">
        <ele>531.2</ele>
        <time>2019-08-07T14:29:51Z</time>
      </trkpt>
      <trkpt lat="48.7149850" lon="14.3445710">
        <ele>531.2</ele>
        <time>2019-08-07T14:29:52Z</time>
      </trkpt>
      <trkpt lat="48.7150040" lon="14.3445750">
        <ele>531.4</ele>
        <time>2019-08-07T14:29:53Z</time>
      </trkpt>
      <trkpt lat="48.7150220" lon="14.3445780">
        <ele>531.4</ele>
        <time>2019-08-07T14:29:54Z</time>
      </trkpt>
      <trkpt lat="48.7150400" lon="14.3445820">
        <ele>531.6</ele>
        <time>2019-08-07T14:29:55Z</time>
      </trkpt>
      <trkpt lat="48.7150560" lon="14.3445840">
        <ele>531.6</ele>
        <time>2019-08-07T14:29:56Z</time>
      </trkpt>
      <trkpt lat="48.7150720" lon="14.3445850">
        <ele>531.8</ele>
        <time>2019-08-07T14:29:57Z</time>
      </trkpt>
      <trkpt lat="48.7150880" lon="14.3445870">
        <ele>532.0</ele>
        <time>2019-08-07T14:29:58Z</time>
      </trkpt>
      <trkpt lat="48.7151030" lon="14.3445910">
        <ele>532.2</ele>
        <time>2019-08-07T14:29:59Z</time>
      </trkpt>
      <trkpt lat="48.7151170" lon="14.3445940">
        <ele>532.2</ele>
        <time>2019-08-07T14:30:00Z</time>
      </trkpt>
      <trkpt lat="48.7151320" lon="14.3445990">
        <ele>532.4</ele>
        <time>2019-08-07T14:30:01Z</time>
      </trkpt>
      <trkpt lat="48.7151470" lon="14.3446000">
        <ele>532.6</ele>
        <time>2019-08-07T14:30:02Z</time>
      </trkpt>
      <trkpt lat="48.7151630" lon="14.3446020">
        <ele>532.6</ele>
        <time>2019-08-07T14:30:03Z</time>
      </trkpt>
      <trkpt lat="48.7151790" lon="14.3446060">
        <ele>532.8</ele>
        <time>2019-08-07T14:30:04Z</time>
      </trkpt>
      <trkpt lat="48.7151950" lon="14.3446100">
        <ele>533.0</ele>
        <time>2019-08-07T14:30:05Z</time>
      </trkpt>
      <trkpt lat="48.7152080" lon="14.3446180">
        <ele>533.0</ele>
        <time>2019-08-07T14:30:06Z</time>
      </trkpt>
      <trkpt lat="48.7152210" lon="14.3446270">
        <ele>533.2</ele>
        <time>2019-08-07T14:30:07Z</time>
      </trkpt>
      <trkpt lat="48.7152340" lon="14.3446340">
        <ele>533.4</ele>
        <time>2019-08-07T14:30:08Z</time>
      </trkpt>
      <trkpt lat="48.7152460" lon="14.3446380">
        <ele>533.6</ele>
        <time>2019-08-07T14:30:09Z</time>
      </trkpt>
      <trkpt lat="48.7152580" lon="14.3446420">
        <ele>533.6</ele>
        <time>2019-08-07T14:30:10Z</time>
      </trkpt>
      <trkpt lat="48.7152710" lon="14.3446470">
        <ele>533.8</ele>
        <time>2019-08-07T14:30:11Z</time>
      </trkpt>
      <trkpt lat="48.7152820" lon="14.3446540">
        <ele>534.0</ele>
        <time>2019-08-07T14:30:12Z</time>
      </trkpt>
      <trkpt lat="48.7152930" lon="14.3446600">
        <ele>534.0</ele>
        <time>2019-08-07T14:30:13Z</time>
      </trkpt>
      <trkpt lat="48.7153070" lon="14.3446630">
        <ele>534.2</ele>
        <time>2019-08-07T14:30:14Z</time>
      </trkpt>
      <trkpt lat="48.7153240" lon="14.3446700">
        <ele>534.2</ele>
        <time>2019-08-07T14:30:15Z</time>
      </trkpt>
      <trkpt lat="48.7153400" lon="14.3446780">
        <ele>534.4</ele>
        <time>2019-08-07T14:30:16Z</time>
      </trkpt>
      <trkpt lat="48.7153560" lon="14.3446870">
        <ele>534.4</ele>
        <time>2019-08-07T14:30:17Z</time>
      </trkpt>
      <trkpt lat="48.7153770" lon="14.3446960">
        <ele>534.4</ele>
        <time>2019-08-07T14:30:18Z</time>
      </trkpt>
      <trkpt lat="48.7154000" lon="14.3446990">
        <ele>534.4</ele>
        <time>2019-08-07T14:30:19Z</time>
      </trkpt>
      <trkpt lat="48.7154300" lon="14.3447010">
        <ele>534.2</ele>
        <time>2019-08-07T14:30:20Z</time>
      </trkpt>
      <trkpt lat="48.7154670" lon="14.3447070">
        <ele>534.2</ele>
        <time>2019-08-07T14:30:21Z</time>
      </trkpt>
      <trkpt lat="48.7155110" lon="14.3447140">
        <ele>534.0</ele>
        <time>2019-08-07T14:30:22Z</time>
      </trkpt>
      <trkpt lat="48.7155600" lon="14.3447290">
        <ele>533.8</ele>
        <time>2019-08-07T14:30:23Z</time>
      </trkpt>
      <trkpt lat="48.7156150" lon="14.3447380">
        <ele>533.6</ele>
        <time>2019-08-07T14:30:24Z</time>
      </trkpt>
      <trkpt lat="48.7156730" lon="14.3447430">
        <ele>533.4</ele>
        <time>2019-08-07T14:30:25Z</time>
      </trkpt>
      <trkpt lat="48.7157350" lon="14.3447510">
        <ele>533.0</ele>
        <time>2019-08-07T14:30:26Z</time>
      </trkpt>
      <trkpt lat="48.7157990" lon="14.3447560">
        <ele>532.8</ele>
        <time>2019-08-07T14:30:27Z</time>
      </trkpt>
      <trkpt lat="48.7158630" lon="14.3447660">
        <ele>532.6</ele>
        <time>2019-08-07T14:30:28Z</time>
      </trkpt>
      <trkpt lat="48.7159290" lon="14.3447780">
        <ele>532.2</ele>
        <time>2019-08-07T14:30:29Z</time>
      </trkpt>
      <trkpt lat="48.7159940" lon="14.3447920">
        <ele>532.0</ele>
        <time>2019-08-07T14:30:30Z</time>
      </trkpt>
      <trkpt lat="48.7160650" lon="14.3448020">
        <ele>531.8</ele>
        <time>2019-08-07T14:30:31Z</time>
      </trkpt>
      <trkpt lat="48.7161280" lon="14.3448070">
        <ele>531.6</ele>
        <time>2019-08-07T14:30:32Z</time>
      </trkpt>
      <trkpt lat="48.7161900" lon="14.3448070">
        <ele>531.4</ele>
        <time>2019-08-07T14:30:33Z</time>
      </trkpt>
      <trkpt lat="48.7162530" lon="14.3448090">
        <ele>531.4</ele>
        <time>2019-08-07T14:30:34Z</time>
      </trkpt>
      <trkpt lat="48.7163160" lon="14.3448120">
        <ele>531.2</ele>
        <time>2019-08-07T14:30:35Z</time>
      </trkpt>
      <trkpt lat="48.7163810" lon="14.3448130">
        <ele>531.2</ele>
        <time>2019-08-07T14:30:36Z</time>
      </trkpt>
      <trkpt lat="48.7164490" lon="14.3448130">
        <ele>531.2</ele>
        <time>2019-08-07T14:30:37Z</time>
      </trkpt>
      <trkpt lat="48.7165120" lon="14.3448110">
        <ele>531.2</ele>
        <time>2019-08-07T14:30:38Z</time>
      </trkpt>
      <trkpt lat="48.7165700" lon="14.3448010">
        <ele>531.0</ele>
        <time>2019-08-07T14:30:39Z</time>
      </trkpt>
      <trkpt lat="48.7166250" lon="14.3447920">
        <ele>531.0</ele>
        <time>2019-08-07T14:30:40Z</time>
      </trkpt>
      <trkpt lat="48.7166780" lon="14.3447760">
        <ele>531.0</ele>
        <time>2019-08-07T14:30:41Z</time>
      </trkpt>
      <trkpt lat="48.7167330" lon="14.3447560">
        <ele>531.0</ele>
        <time>2019-08-07T14:30:42Z</time>
      </trkpt>
      <trkpt lat="48.7167910" lon="14.3447320">
        <ele>530.8</ele>
        <time>2019-08-07T14:30:43Z</time>
      </trkpt>
      <trkpt lat="48.7168530" lon="14.3447080">
        <ele>530.6</ele>
        <time>2019-08-07T14:30:44Z</time>
      </trkpt>
      <trkpt lat="48.7169160" lon="14.3446760">
        <ele>530.4</ele>
        <time>2019-08-07T14:30:45Z</time>
      </trkpt>
      <trkpt lat="48.7169770" lon="14.3446400">
        <ele>530.4</ele>
        <time>2019-08-07T14:30:46Z</time>
      </trkpt>
      <trkpt lat="48.7170400" lon="14.3446100">
        <ele>530.2</ele>
        <time>2019-08-07T14:30:47Z</time>
      </trkpt>
      <trkpt lat="48.7171050" lon="14.3445830">
        <ele>530.0</ele>
        <time>2019-08-07T14:30:48Z</time>
      </trkpt>
      <trkpt lat="48.7171700" lon="14.3445530">
        <ele>529.8</ele>
        <time>2019-08-07T14:30:49Z</time>
      </trkpt>
      <trkpt lat="48.7172340" lon="14.3445210">
        <ele>529.6</ele>
        <time>2019-08-07T14:30:50Z</time>
      </trkpt>
      <trkpt lat="48.7173100" lon="14.3444830">
        <ele>529.4</ele>
        <time>2019-08-07T14:30:51Z</time>
      </trkpt>
      <trkpt lat="48.7173780" lon="14.3444470">
        <ele>529.4</ele>
        <time>2019-08-07T14:30:52Z</time>
      </trkpt>
      <trkpt lat="48.7174450" lon="14.3444090">
        <ele>529.2</ele>
        <time>2019-08-07T14:30:53Z</time>
      </trkpt>
      <trkpt lat="48.7175150" lon="14.3443740">
        <ele>529.0</ele>
        <time>2019-08-07T14:30:54Z</time>
      </trkpt>
      <trkpt lat="48.7175800" lon="14.3443430">
        <ele>529.0</ele>
        <time>2019-08-07T14:30:55Z</time>
      </trkpt>
      <trkpt lat="48.7176430" lon="14.3443120">
        <ele>528.8</ele>
        <time>2019-08-07T14:30:56Z</time>
      </trkpt>
      <trkpt lat="48.7177050" lon="14.3442850">
        <ele>528.8</ele>
        <time>2019-08-07T14:30:57Z</time>
      </trkpt>
      <trkpt lat="48.7177650" lon="14.3442550">
        <ele>528.8</ele>
        <time>2019-08-07T14:30:58Z</time>
      </trkpt>
      <trkpt lat="48.7178230" lon="14.3442230">
        <ele>528.8</ele>
        <time>2019-08-07T14:30:59Z</time>
      </trkpt>
      <trkpt lat="48.7178790" lon="14.3441930">
        <ele>528.8</ele>
        <time>2019-08-07T14:31:00Z</time>
      </trkpt>
      <trkpt lat="48.7179320" lon="14.3441710">
        <ele>528.8</ele>
        <time>2019-08-07T14:31:01Z</time>
      </trkpt>
      <trkpt lat="48.7179770" lon="14.3441480">
        <ele>528.8</ele>
        <time>2019-08-07T14:31:02Z</time>
      </trkpt>
      <trkpt lat="48.7180190" lon="14.3441220">
        <ele>529.0</ele>
        <time>2019-08-07T14:31:03Z</time>
      </trkpt>
      <trkpt lat="48.7180590" lon="14.3440930">
        <ele>529.2</ele>
        <time>2019-08-07T14:31:04Z</time>
      </trkpt>
      <trkpt lat="48.7181000" lon="14.3440630">
        <ele>529.2</ele>
        <time>2019-08-07T14:31:05Z</time>
      </trkpt>
      <trkpt lat="48.7181420" lon="14.3440340">
        <ele>529.2</ele>
        <time>2019-08-07T14:31:06Z</time>
      </trkpt>
      <trkpt lat="48.7181890" lon="14.3440030">
        <ele>529.2</ele>
        <time>2019-08-07T14:31:07Z</time>
      </trkpt>
      <trkpt lat="48.7182360" lon="14.3439720">
        <ele>529.2</ele>
        <time>2019-08-07T14:31:08Z</time>
      </trkpt>
      <trkpt lat="48.7182830" lon="14.3439370">
        <ele>529.2</ele>
        <time>2019-08-07T14:31:09Z</time>
      </trkpt>
      <trkpt lat="48.7183280" lon="14.3439000">
        <ele>529.2</ele>
        <time>2019-08-07T14:31:10Z</time>
      </trkpt>
      <trkpt lat="48.7183750" lon="14.3438610">
        <ele>529.2</ele>
        <time>2019-08-07T14:31:11Z</time>
      </trkpt>
      <trkpt lat="48.7184150" lon="14.3438230">
        <ele>529.4</ele>
        <time>2019-08-07T14:31:12Z</time>
      </trkpt>
      <trkpt lat="48.7184510" lon="14.3437830">
        <ele>529.4</ele>
        <time>2019-08-07T14:31:13Z</time>
      </trkpt>
      <trkpt lat="48.7184840" lon="14.3437520">
        <ele>529.6</ele>
        <time>2019-08-07T14:31:14Z</time>
      </trkpt>
      <trkpt lat="48.7185140" lon="14.3437240">
        <ele>529.8</ele>
        <time>2019-08-07T14:31:15Z</time>
      </trkpt>
      <trkpt lat="48.7185420" lon="14.3436980">
        <ele>530.0</ele>
        <time>2019-08-07T14:31:16Z</time>
      </trkpt>
      <trkpt lat="48.7185700" lon="14.3436690">
        <ele>530.0</ele>
        <time>2019-08-07T14:31:17Z</time>
      </trkpt>
      <trkpt lat="48.7186010" lon="14.3436420">
        <ele>530.2</ele>
        <time>2019-08-07T14:31:18Z</time>
      </trkpt>
      <trkpt lat="48.7186350" lon="14.3436140">
        <ele>530.2</ele>
        <time>2019-08-07T14:31:19Z</time>
      </trkpt>
      <trkpt lat="48.7186740" lon="14.3435830">
        <ele>530.0</ele>
        <time>2019-08-07T14:31:20Z</time>
      </trkpt>
      <trkpt lat="48.7187180" lon="14.3435490">
        <ele>530.0</ele>
        <time>2019-08-07T14:31:21Z</time>
      </trkpt>
      <trkpt lat="48.7187660" lon="14.3435120">
        <ele>529.8</ele>
        <time>2019-08-07T14:31:22Z</time>
      </trkpt>
      <trkpt lat="48.7188170" lon="14.3434730">
        <ele>529.6</ele>
        <time>2019-08-07T14:31:23Z</time>
      </trkpt>
      <trkpt lat="48.7188740" lon="14.3434260">
        <ele>529.4</ele>
        <time>2019-08-07T14:31:24Z</time>
      </trkpt>
      <trkpt lat="48.7189300" lon="14.3433770">
        <ele>529.4</ele>
        <time>2019-08-07T14:31:25Z</time>
      </trkpt>
      <trkpt lat="48.7189880" lon="14.3433250">
        <ele>529.2</ele>
        <time>2019-08-07T14:31:26Z</time>
      </trkpt>
      <trkpt lat="48.7190490" lon="14.3432710">
        <ele>529.0</ele>
        <time>2019-08-07T14:31:27Z</time>
      </trkpt>
      <trkpt lat="48.7191100" lon="14.3432190">
        <ele>528.8</ele>
        <time>2019-08-07T14:31:28Z</time>
      </trkpt>
      <trkpt lat="48.7191710" lon="14.3431670">
        <ele>528.8</ele>
        <time>2019-08-07T14:31:29Z</time>
      </trkpt>
      <trkpt lat="48.7192320" lon="14.3431180">
        <ele>528.6</ele>
        <time>2019-08-07T14:31:30Z</time>
      </trkpt>
      <trkpt lat="48.7193000" lon="14.3430640">
        <ele>528.6</ele>
        <time>2019-08-07T14:31:31Z</time>
      </trkpt>
      <trkpt lat="48.7193650" lon="14.3430180">
        <ele>528.4</ele>
        <time>2019-08-07T14:31:32Z</time>
      </trkpt>
      <trkpt lat="48.7194300" lon="14.3429730">
        <ele>528.4</ele>
        <time>2019-08-07T14:31:33Z</time>
      </trkpt>
      <trkpt lat="48.7194950" lon="14.3429300">
        <ele>528.4</ele>
        <time>2019-08-07T14:31:34Z</time>
      </trkpt>
      <trkpt lat="48.7195590" lon="14.3428860">
        <ele>528.2</ele>
        <time>2019-08-07T14:31:35Z</time>
      </trkpt>
      <trkpt lat="48.7196210" lon="14.3428440">
        <ele>528.2</ele>
        <time>2019-08-07T14:31:36Z</time>
      </trkpt>
      <trkpt lat="48.7196840" lon="14.3428070">
        <ele>528.2</ele>
        <time>2019-08-07T14:31:37Z</time>
      </trkpt>
      <trkpt lat="48.7197540" lon="14.3427740">
        <ele>528.0</ele>
        <time>2019-08-07T14:31:38Z</time>
      </trkpt>
      <trkpt lat="48.7198210" lon="14.3427510">
        <ele>528.0</ele>
        <time>2019-08-07T14:31:39Z</time>
      </trkpt>
      <trkpt lat="48.7198850" lon="14.3427320">
        <ele>528.0</ele>
        <time>2019-08-07T14:31:40Z</time>
      </trkpt>
      <trkpt lat="48.7199490" lon="14.3427210">
        <ele>528.0</ele>
        <time>2019-08-07T14:31:41Z</time>
      </trkpt>
      <trkpt lat="48.7200110" lon="14.3427090">
        <ele>528.2</ele>
        <time>2019-08-07T14:31:42Z</time>
      </trkpt>
      <trkpt lat="48.7200730" lon="14.3426960">
        <ele>528.2</ele>
        <time>2019-08-07T14:31:43Z</time>
      </trkpt>
      <trkpt lat="48.7201320" lon="14.3426790">
        <ele>528.2</ele>
        <time>2019-08-07T14:31:44Z</time>
      </trkpt>
      <trkpt lat="48.7201920" lon="14.3426650">
        <ele>528.2</ele>
        <time>2019-08-07T14:31:45Z</time>
      </trkpt>
      <trkpt lat="48.7202500" lon="14.3426620">
        <ele>528.2</ele>
        <time>2019-08-07T14:31:46Z</time>
      </trkpt>
      <trkpt lat="48.7203050" lon="14.3426770">
        <ele>528.2</ele>
        <time>2019-08-07T14:31:47Z</time>
      </trkpt>
      <trkpt lat="48.7203570" lon="14.3427010">
        <ele>528.4</ele>
        <time>2019-08-07T14:31:48Z</time>
      </trkpt>
      <trkpt lat="48.7204080" lon="14.3427150">
        <ele>528.4</ele>
        <time>2019-08-07T14:31:49Z</time>
      </trkpt>
      <trkpt lat="48.7204570" lon="14.3427230">
        <ele>528.4</ele>
        <time>2019-08-07T14:31:50Z</time>
      </trkpt>
      <trkpt lat="48.7205090" lon="14.3427350">
        <ele>528.6</ele>
        <time>2019-08-07T14:31:51Z</time>
      </trkpt>
      <trkpt lat="48.7205560" lon="14.3427490">
        <ele>528.6</ele>
        <time>2019-08-07T14:31:52Z</time>
      </trkpt>
      <trkpt lat="48.7205960" lon="14.3427570">
        <ele>528.8</ele>
        <time>2019-08-07T14:31:53Z</time>
      </trkpt>
      <trkpt lat="48.7206300" lon="14.3427650">
        <ele>529.0</ele>
        <time>2019-08-07T14:31:54Z</time>
      </trkpt>
      <trkpt lat="48.7206560" lon="14.3427710">
        <ele>529.2</ele>
        <time>2019-08-07T14:31:55Z</time>
      </trkpt>
      <trkpt lat="48.7206770" lon="14.3427740">
        <ele>529.4</ele>
        <time>2019-08-07T14:31:56Z</time>
      </trkpt>
      <trkpt lat="48.7206970" lon="14.3427790">
        <ele>529.6</ele>
        <time>2019-08-07T14:31:57Z</time>
      </trkpt>
      <trkpt lat="48.7207130" lon="14.3427800">
        <ele>529.8</ele>
        <time>2019-08-07T14:31:58Z</time>
      </trkpt>
      <trkpt lat="48.7207290" lon="14.3427820">
        <ele>530.0</ele>
        <time>2019-08-07T14:31:59Z</time>
      </trkpt>
      <trkpt lat="48.7207450" lon="14.3427860">
        <ele>530.2</ele>
        <time>2019-08-07T14:32:00Z</time>
      </trkpt>
      <trkpt lat="48.7207620" lon="14.3427910">
        <ele>530.4</ele>
        <time>2019-08-07T14:32:01Z</time>
      </trkpt>
      <trkpt lat="48.7207810" lon="14.3427960">
        <ele>530.6</ele>
        <time>2019-08-07T14:32:02Z</time>
      </trkpt>
      <trkpt lat="48.7207970" lon="14.3428000">
        <ele>531.0</ele>
        <time>2019-08-07T14:32:03Z</time>
      </trkpt>
      <trkpt lat="48.7208120" lon="14.3428060">
        <ele>531.2</ele>
        <time>2019-08-07T14:32:04Z</time>
      </trkpt>
      <trkpt lat="48.7208270" lon="14.3428110">
        <ele>531.4</ele>
        <time>2019-08-07T14:32:05Z</time>
      </trkpt>
      <trkpt lat="48.7208430" lon="14.3428160">
        <ele>531.6</ele>
        <time>2019-08-07T14:32:06Z</time>
      </trkpt>
      <trkpt lat="48.7208590" lon="14.3428210">
        <ele>532.0</ele>
        <time>2019-08-07T14:32:07Z</time>
      </trkpt>
      <trkpt lat="48.7208780" lon="14.3428240">
        <ele>532.2</ele>
        <time>2019-08-07T14:32:08Z</time>
      </trkpt>
      <trkpt lat="48.7208950" lon="14.3428250">
        <ele>532.4</ele>
        <time>2019-08-07T14:32:09Z</time>
      </trkpt>
      <trkpt lat="48.7209090" lon="14.3428270">
        <ele>532.6</ele>
        <time>2019-08-07T14:32:10Z</time>
      </trkpt>
      <trkpt lat="48.7209250" lon="14.3428270">
        <ele>533.0</ele>
        <time>2019-08-07T14:32:11Z</time>
      </trkpt>
      <trkpt lat="48.7209400" lon="14.3428260">
        <ele>533.2</ele>
        <time>2019-08-07T14:32:12Z</time>
      </trkpt>
      <trkpt lat="48.7209550" lon="14.3428240">
        <ele>533.4</ele>
        <time>2019-08-07T14:32:13Z</time>
      </trkpt>
      <trkpt lat="48.7209700" lon="14.3428190">
        <ele>533.8</ele>
        <time>2019-08-07T14:32:14Z</time>
      </trkpt>
      <trkpt lat="48.7209850" lon="14.3428160">
        <ele>534.0</ele>
        <time>2019-08-07T14:32:15Z</time>
      </trkpt>
      <trkpt lat="48.7210010" lon="14.3428130">
        <ele>534.2</ele>
        <time>2019-08-07T14:32:16Z</time>
      </trkpt>
      <trkpt lat="48.7210160" lon="14.3428040">
        <ele>534.6</ele>
        <time>2019-08-07T14:32:17Z</time>
      </trkpt>
      <trkpt lat="48.7210300" lon="14.3427950">
        <ele>534.8</ele>
        <time>2019-08-07T14:32:18Z</time>
      </trkpt>
      <trkpt lat="48.7210450" lon="14.3427880">
        <ele>535.0</ele>
        <time>2019-08-07T14:32:19Z</time>
      </trkpt>
      <trkpt lat="48.7210590" lon="14.3427820">
        <ele>535.4</ele>
        <time>2019-08-07T14:32:20Z</time>
      </trkpt>
      <trkpt lat="48.7210710" lon="14.3427760">
        <ele>535.6</ele>
        <time>2019-08-07T14:32:21Z</time>
      </trkpt>
      <trkpt lat="48.7210840" lon="14.3427670">
        <ele>535.8</ele>
        <time>2019-08-07T14:32:22Z</time>
      </trkpt>
      <trkpt lat="48.7210980" lon="14.3427570">
        <ele>536.2</ele>
        <time>2019-08-07T14:32:23Z</time>
      </trkpt>
      <trkpt lat="48.7211110" lon="14.3427460">
        <ele>536.4</ele>
        <time>2019-08-07T14:32:24Z</time>
      </trkpt>
      <trkpt lat="48.7211250" lon="14.3427340">
        <ele>536.6</ele>
        <time>2019-08-07T14:32:25Z</time>
      </trkpt>
      <trkpt lat="48.7211380" lon="14.3427240">
        <ele>537.0</ele>
        <time>2019-08-07T14:32:26Z</time>
      </trkpt>
      <trkpt lat="48.7211530" lon="14.3427140">
        <ele>537.2</ele>
        <time>2019-08-07T14:32:27Z</time>
      </trkpt>
      <trkpt lat="48.7211650" lon="14.3427040">
        <ele>537.4</ele>
        <time>2019-08-07T14:32:28Z</time>
      </trkpt>
      <trkpt lat="48.7211780" lon="14.3426940">
        <ele>537.6</ele>
        <time>2019-08-07T14:32:29Z</time>
      </trkpt>
      <trkpt lat="48.7211890" lon="14.3426810">
        <ele>537.8</ele>
        <time>2019-08-07T14:32:30Z</time>
      </trkpt>
      <trkpt lat="48.7212050" lon="14.3426670">
        <ele>538.0</ele>
        <time>2019-08-07T14:32:31Z</time>
      </trkpt>
      <trkpt lat="48.7212180" lon="14.3426540">
        <ele>538.2</ele>
        <time>2019-08-07T14:32:32Z</time>
      </trkpt>
      <trkpt lat="48.7212320" lon="14.3426410">
        <ele>538.4</ele>
        <time>2019-08-07T14:32:33Z</time>
      </trkpt>
      <trkpt lat="48.7212460" lon="14.3426280">
        <ele>538.6</ele>
        <time>2019-08-07T14:32:34Z</time>
      </trkpt>
      <trkpt lat="48.7212600" lon="14.3426140">
        <ele>538.8</ele>
        <time>2019-08-07T14:32:35Z</time>
      </trkpt>
      <trkpt lat="48.7212740" lon="14.3426020">
        <ele>539.0</ele>
        <time>2019-08-07T14:32:36Z</time>
      </trkpt>
      <trkpt lat="48.7212860" lon="14.3425900">
        <ele>539.0</ele>
        <time>2019-08-07T14:32:37Z</time>
      </trkpt>
      <trkpt lat="48.7212980" lon="14.3425790">
        <ele>539.2</ele>
        <time>2019-08-07T14:32:38Z</time>
      </trkpt>
      <trkpt lat="48.7213110" lon="14.3425650">
        <ele>539.4</ele>
        <time>2019-08-07T14:32:39Z</time>
      </trkpt>
      <trkpt lat="48.7213230" lon="14.3425490">
        <ele>539.4</ele>
        <time>2019-08-07T14:32:40Z</time>
      </trkpt>
      <trkpt lat="48.7213350" lon="14.3425320">
        <ele>539.6</ele>
        <time>2019-08-07T14:32:41Z</time>
      </trkpt>
      <trkpt lat="48.7213500" lon="14.3425160">
        <ele>539.6</ele>
        <time>2019-08-07T14:32:42Z</time>
      </trkpt>
      <trkpt lat="48.7213640" lon="14.3424990">
        <ele>539.8</ele>
        <time>2019-08-07T14:32:43Z</time>
      </trkpt>
      <trkpt lat="48.7213760" lon="14.3424820">
        <ele>540.0</ele>
        <time>2019-08-07T14:32:44Z</time>
      </trkpt>
      <trkpt lat="48.7213900" lon="14.3424650">
        <ele>540.0</ele>
        <time>2019-08-07T14:32:45Z</time>
      </trkpt>
      <trkpt lat="48.7214030" lon="14.3424490">
        <ele>540.2</ele>
        <time>2019-08-07T14:32:46Z</time>
      </trkpt>
      <trkpt lat="48.7214180" lon="14.3424350">
        <ele>540.2</ele>
        <time>2019-08-07T14:32:47Z</time>
      </trkpt>
      <trkpt lat="48.7214330" lon="14.3424210">
        <ele>540.4</ele>
        <time>2019-08-07T14:32:48Z</time>
      </trkpt>
      <trkpt lat="48.7214460" lon="14.3424060">
        <ele>540.4</ele>
        <time>2019-08-07T14:32:49Z</time>
      </trkpt>
      <trkpt lat="48.7214580" lon="14.3423920">
        <ele>540.4</ele>
        <time>2019-08-07T14:32:50Z</time>
      </trkpt>
      <trkpt lat="48.7214750" lon="14.3423750">
        <ele>540.6</ele>
        <time>2019-08-07T14:32:51Z</time>
      </trkpt>
      <trkpt lat="48.7214880" lon="14.3423590">
        <ele>540.8</ele>
        <time>2019-08-07T14:32:52Z</time>
      </trkpt>
      <trkpt lat="48.7215030" lon="14.3423450">
        <ele>540.8</ele>
        <time>2019-08-07T14:32:53Z</time>
      </trkpt>
      <trkpt lat="48.7215190" lon="14.3423330">
        <ele>541.0</ele>
        <time>2019-08-07T14:32:54Z</time>
      </trkpt>
      <trkpt lat="48.7215350" lon="14.3423220">
        <ele>541.0</ele>
        <time>2019-08-07T14:32:55Z</time>
      </trkpt>
      <trkpt lat="48.7215500" lon="14.3423100">
        <ele>541.0</ele>
        <time>2019-08-07T14:32:56Z</time>
      </trkpt>
      <trkpt lat="48.7215650" lon="14.3422930">
        <ele>541.2</ele>
        <time>2019-08-07T14:32:57Z</time>
      </trkpt>
      <trkpt lat="48.7215810" lon="14.3422760">
        <ele>541.2</ele>
        <time>2019-08-07T14:32:58Z</time>
      </trkpt>
      <trkpt lat="48.7215980" lon="14.3422590">
        <ele>541.4</ele>
        <time>2019-08-07T14:32:59Z</time>
      </trkpt>
      <trkpt lat="48.7216160" lon="14.3422420">
        <ele>541.4</ele>
        <time>2019-08-07T14:33:00Z</time>
      </trkpt>
      <trkpt lat="48.7216320" lon="14.3422290">
        <ele>541.4</ele>
        <time>2019-08-07T14:33:01Z</time>
      </trkpt>
      <trkpt lat="48.7216470" lon="14.3422170">
        <ele>541.6</ele>
        <time>2019-08-07T14:33:02Z</time>
      </trkpt>
      <trkpt lat="48.7216640" lon="14.3422050">
        <ele>541.6</ele>
        <time>2019-08-07T14:33:03Z</time>
      </trkpt>
      <trkpt lat="48.7216830" lon="14.3421870">
        <ele>541.6</ele>
        <time>2019-08-07T14:33:04Z</time>
      </trkpt>
      <trkpt lat="48.7217020" lon="14.3421650">
        <ele>541.6</ele>
        <time>2019-08-07T14:33:05Z</time>
      </trkpt>
      <trkpt lat="48.7217240" lon="14.3421440">
        <ele>541.8</ele>
        <time>2019-08-07T14:33:06Z</time>
      </trkpt>
      <trkpt lat="48.7217450" lon="14.3421200">
        <ele>541.8</ele>
        <time>2019-08-07T14:33:07Z</time>
      </trkpt>
      <trkpt lat="48.7217710" lon="14.3420900">
        <ele>541.8</ele>
        <time>2019-08-07T14:33:08Z</time>
      </trkpt>
      <trkpt lat="48.7217940" lon="14.3420650">
        <ele>541.8</ele>
        <time>2019-08-07T14:33:09Z</time>
      </trkpt>
      <trkpt lat="48.7218180" lon="14.3420420">
        <ele>542.0</ele>
        <time>2019-08-07T14:33:10Z</time>
      </trkpt>
      <trkpt lat="48.7218480" lon="14.3420160">
        <ele>542.0</ele>
        <time>2019-08-07T14:33:11Z</time>
      </trkpt>
      <trkpt lat="48.7218770" lon="14.3419950">
        <ele>542.0</ele>
        <time>2019-08-07T14:33:12Z</time>
      </trkpt>
      <trkpt lat="48.7219070" lon="14.3419700">
        <ele>542.0</ele>
        <time>2019-08-07T14:33:13Z</time>
      </trkpt>
      <trkpt lat="48.7219370" lon="14.3419410">
        <ele>542.2</ele>
        <time>2019-08-07T14:33:14Z</time>
      </trkpt>
      <trkpt lat="48.7219660" lon="14.3419110">
        <ele>542.2</ele>
        <time>2019-08-07T14:33:15Z</time>
      </trkpt>
      <trkpt lat="48.7219940" lon="14.3418790">
        <ele>542.2</ele>
        <time>2019-08-07T14:33:16Z</time>
      </trkpt>
      <trkpt lat="48.7220250" lon="14.3418450">
        <ele>542.2</ele>
        <time>2019-08-07T14:33:17Z</time>
      </trkpt>
      <trkpt lat="48.7220580" lon="14.3418100">
        <ele>542.2</ele>
        <time>2019-08-07T14:33:18Z</time>
      </trkpt>
      <trkpt lat="48.7220890" lon="14.3417750">
        <ele>542.2</ele>
        <time>2019-08-07T14:33:19Z</time>
      </trkpt>
      <trkpt lat="48.7221190" lon="14.3417400">
        <ele>542.2</ele>
        <time>2019-08-07T14:33:20Z</time>
      </trkpt>
      <trkpt lat="48.7221510" lon="14.3417040">
        <ele>542.2</ele>
        <time>2019-08-07T14:33:21Z</time>
      </trkpt>
      <trkpt lat="48.7221840" lon="14.3416670">
        <ele>542.2</ele>
        <time>2019-08-07T14:33:22Z</time>
      </trkpt>
      <trkpt lat="48.7222170" lon="14.3416320">
        <ele>542.2</ele>
        <time>2019-08-07T14:33:23Z</time>
      </trkpt>
      <trkpt lat="48.7222510" lon="14.3415970">
        <ele>542.2</ele>
        <time>2019-08-07T14:33:24Z</time>
      </trkpt>
      <trkpt lat="48.7222860" lon="14.3415630">
        <ele>542.2</ele>
        <time>2019-08-07T14:33:25Z</time>
      </trkpt>
      <trkpt lat="48.7223210" lon="14.3415290">
        <ele>542.2</ele>
        <time>2019-08-07T14:33:26Z</time>
      </trkpt>
      <trkpt lat="48.7223560" lon="14.3414940">
        <ele>542.2</ele>
        <time>2019-08-07T14:33:27Z</time>
      </trkpt>
      <trkpt lat="48.7223920" lon="14.3414550">
        <ele>542.2</ele>
        <time>2019-08-07T14:33:28Z</time>
      </trkpt>
      <trkpt lat="48.7224260" lon="14.3414160">
        <ele>542.2</ele>
        <time>2019-08-07T14:33:29Z</time>
      </trkpt>
      <trkpt lat="48.7224610" lon="14.3413760">
        <ele>542.2</ele>
        <time>2019-08-07T14:33:30Z</time>
      </trkpt>
      <trkpt lat="48.7224970" lon="14.3413340">
        <ele>542.2</ele>
        <time>2019-08-07T14:33:31Z</time>
      </trkpt>
      <trkpt lat="48.7225330" lon="14.3412920">
        <ele>542.2</ele>
        <time>2019-08-07T14:33:32Z</time>
      </trkpt>
      <trkpt lat="48.7225730" lon="14.3412490">
        <ele>542.2</ele>
        <time>2019-08-07T14:33:33Z</time>
      </trkpt>
      <trkpt lat="48.7226130" lon="14.3412090">
        <ele>542.2</ele>
        <time>2019-08-07T14:33:34Z</time>
      </trkpt>
      <trkpt lat="48.7226520" lon="14.3411680">
        <ele>542.2</ele>
        <time>2019-08-07T14:33:35Z</time>
      </trkpt>
      <trkpt lat="48.7226900" lon="14.3411250">
        <ele>542.2</ele>
        <time>2019-08-07T14:33:36Z</time>
      </trkpt>
      <trkpt lat="48.7227300" lon="14.3410800">
        <ele>542.2</ele>
        <time>2019-08-07T14:33:37Z</time>
      </trkpt>
      <trkpt lat="48.7227710" lon="14.3410360">
        <ele>542.2</ele>
        <time>2019-08-07T14:33:38Z</time>
      </trkpt>
      <trkpt lat="48.7228130" lon="14.3409950">
        <ele>542.2</ele>
        <time>2019-08-07T14:33:39Z</time>
      </trkpt>
      <trkpt lat="48.7228520" lon="14.3409510">
        <ele>542.2</ele>
        <time>2019-08-07T14:33:40Z</time>
      </trkpt>
      <trkpt lat="48.7228910" lon="14.3409070">
        <ele>542.2</ele>
        <time>2019-08-07T14:33:41Z</time>
      </trkpt>
      <trkpt lat="48.7229310" lon="14.3408620">
        <ele>542.2</ele>
        <time>2019-08-07T14:33:42Z</time>
      </trkpt>
      <trkpt lat="48.7229700" lon="14.3408150">
        <ele>542.2</ele>
        <time>2019-08-07T14:33:43Z</time>
      </trkpt>
      <trkpt lat="48.7230090" lon="14.3407660">
        <ele>542.2</ele>
        <time>2019-08-07T14:33:44Z</time>
      </trkpt>
      <trkpt lat="48.7230470" lon="14.3407200">
        <ele>542.2</ele>
        <time>2019-08-07T14:33:45Z</time>
      </trkpt>
      <trkpt lat="48.7230870" lon="14.3406760">
        <ele>542.0</ele>
        <time>2019-08-07T14:33:46Z</time>
      </trkpt>
      <trkpt lat="48.7231270" lon="14.3406330">
        <ele>542.0</ele>
        <time>2019-08-07T14:33:47Z</time>
      </trkpt>
      <trkpt lat="48.7231660" lon="14.3405870">
        <ele>542.0</ele>
        <time>2019-08-07T14:33:48Z</time>
      </trkpt>
      <trkpt lat="48.7232000" lon="14.3405410">
        <ele>542.0</ele>
        <time>2019-08-07T14:33:49Z</time>
      </trkpt>
      <trkpt lat="48.7232320" lon="14.3405000">
        <ele>542.0</ele>
        <time>2019-08-07T14:33:50Z</time>
      </trkpt>
      <trkpt lat="48.7232730" lon="14.3404510">
        <ele>542.0</ele>
        <time>2019-08-07T14:33:51Z</time>
      </trkpt>
      <trkpt lat="48.7233090" lon="14.3404090">
        <ele>542.0</ele>
        <time>2019-08-07T14:33:52Z</time>
      </trkpt>
      <trkpt lat="48.7233450" lon="14.3403680">
        <ele>542.2</ele>
        <time>2019-08-07T14:33:53Z</time>
      </trkpt>
      <trkpt lat="48.7233790" lon="14.3403240">
        <ele>542.2</ele>
        <time>2019-08-07T14:33:54Z</time>
      </trkpt>
      <trkpt lat="48.7234120" lon="14.3402750">
        <ele>542.2</ele>
        <time>2019-08-07T14:33:55Z</time>
      </trkpt>
      <trkpt lat="48.7234440" lon="14.3402250">
        <ele>542.0</ele>
        <time>2019-08-07T14:33:56Z</time>
      </trkpt>
      <trkpt lat="48.7234760" lon="14.3401710">
        <ele>542.0</ele>
        <time>2019-08-07T14:33:57Z</time>
      </trkpt>
      <trkpt lat="48.7235070" lon="14.3401140">
        <ele>542.0</ele>
        <time>2019-08-07T14:33:58Z</time>
      </trkpt>
      <trkpt lat="48.7235390" lon="14.3400520">
        <ele>541.8</ele>
        <time>2019-08-07T14:33:59Z</time>
      </trkpt>
      <trkpt lat="48.7235720" lon="14.3399880">
        <ele>541.6</ele>
        <time>2019-08-07T14:34:00Z</time>
      </trkpt>
      <trkpt lat="48.7236040" lon="14.3399220">
        <ele>541.6</ele>
        <time>2019-08-07T14:34:01Z</time>
      </trkpt>
      <trkpt lat="48.7236370" lon="14.3398530">
        <ele>541.4</ele>
        <time>2019-08-07T14:34:02Z</time>
      </trkpt>
      <trkpt lat="48.7236700" lon="14.3397810">
        <ele>541.2</ele>
        <time>2019-08-07T14:34:03Z</time>
      </trkpt>
      <trkpt lat="48.7237050" lon="14.3397090">
        <ele>541.0</ele>
        <time>2019-08-07T14:34:04Z</time>
      </trkpt>
      <trkpt lat="48.7237410" lon="14.3396340">
        <ele>541.0</ele>
        <time>2019-08-07T14:34:05Z</time>
      </trkpt>
      <trkpt lat="48.7237760" lon="14.3395560">
        <ele>540.8</ele>
        <time>2019-08-07T14:34:06Z</time>
      </trkpt>
      <trkpt lat="48.7238110" lon="14.3394750">
        <ele>540.6</ele>
        <time>2019-08-07T14:34:07Z</time>
      </trkpt>
      <trkpt lat="48.7238490" lon="14.3393910">
        <ele>540.4</ele>
        <time>2019-08-07T14:34:08Z</time>
      </trkpt>
      <trkpt lat="48.7238860" lon="14.3393130">
        <ele>540.2</ele>
        <time>2019-08-07T14:34:09Z</time>
      </trkpt>
      <trkpt lat="48.7239220" lon="14.3392360">
        <ele>540.0</ele>
        <time>2019-08-07T14:34:10Z</time>
      </trkpt>
      <trkpt lat="48.7239660" lon="14.3391420">
        <ele>539.8</ele>
        <time>2019-08-07T14:34:11Z</time>
      </trkpt>
      <trkpt lat="48.7240070" lon="14.3390520">
        <ele>539.6</ele>
        <time>2019-08-07T14:34:12Z</time>
      </trkpt>
      <trkpt lat="48.7240500" lon="14.3389600">
        <ele>539.2</ele>
        <time>2019-08-07T14:34:13Z</time>
      </trkpt>
      <trkpt lat="48.7240950" lon="14.3388700">
        <ele>539.0</ele>
        <time>2019-08-07T14:34:14Z</time>
      </trkpt>
      <trkpt lat="48.7241390" lon="14.3387840">
        <ele>538.8</ele>
        <time>2019-08-07T14:34:15Z</time>
      </trkpt>
      <trkpt lat="48.7241840" lon="14.3387000">
        <ele>538.6</ele>
        <time>2019-08-07T14:34:16Z</time>
      </trkpt>
      <trkpt lat="48.7242340" lon="14.3386130">
        <ele>538.2</ele>
        <time>2019-08-07T14:34:17Z</time>
      </trkpt>
      <trkpt lat="48.7242850" lon="14.3385290">
        <ele>538.0</ele>
        <time>2019-08-07T14:34:18Z</time>
      </trkpt>
      <trkpt lat="48.7243370" lon="14.3384490">
        <ele>538.0</ele>
        <time>2019-08-07T14:34:19Z</time>
      </trkpt>
      <trkpt lat="48.7243880" lon="14.3383700">
        <ele>537.8</ele>
        <time>2019-08-07T14:34:20Z</time>
      </trkpt>
      <trkpt lat="48.7244380" lon="14.3382950">
        <ele>537.8</ele>
        <time>2019-08-07T14:34:21Z</time>
      </trkpt>
      <trkpt lat="48.7244870" lon="14.3382250">
        <ele>537.6</ele>
        <time>2019-08-07T14:34:22Z</time>
      </trkpt>
      <trkpt lat="48.7245390" lon="14.3381560">
        <ele>537.6</ele>
        <time>2019-08-07T14:34:23Z</time>
      </trkpt>
      <trkpt lat="48.7245920" lon="14.3380820">
        <ele>537.4</ele>
        <time>2019-08-07T14:34:24Z</time>
      </trkpt>
      <trkpt lat="48.7246450" lon="14.3380130">
        <ele>537.4</ele>
        <time>2019-08-07T14:34:25Z</time>
      </trkpt>
      <trkpt lat="48.7247000" lon="14.3379530">
        <ele>537.2</ele>
        <time>2019-08-07T14:34:26Z</time>
      </trkpt>
      <trkpt lat="48.7247610" lon="14.3378900">
        <ele>537.2</ele>
        <time>2019-08-07T14:34:27Z</time>
      </trkpt>
      <trkpt lat="48.7248210" lon="14.3378290">
        <ele>537.0</ele>
        <time>2019-08-07T14:34:28Z</time>
      </trkpt>
      <trkpt lat="48.7248830" lon="14.3377680">
        <ele>536.8</ele>
        <time>2019-08-07T14:34:29Z</time>
      </trkpt>
      <trkpt lat="48.7249450" lon="14.3377110">
        <ele>536.8</ele>
        <time>2019-08-07T14:34:30Z</time>
      </trkpt>
      <trkpt lat="48.7250110" lon="14.3376480">
        <ele>536.6</ele>
        <time>2019-08-07T14:34:31Z</time>
      </trkpt>
      <trkpt lat="48.7250690" lon="14.3375880">
        <ele>536.4</ele>
        <time>2019-08-07T14:34:32Z</time>
      </trkpt>
      <trkpt lat="48.7251290" lon="14.3375280">
        <ele>536.2</ele>
        <time>2019-08-07T14:34:33Z</time>
      </trkpt>
      <trkpt lat="48.7251870" lon="14.3374770">
        <ele>536.2</ele>
        <time>2019-08-07T14:34:34Z</time>
      </trkpt>
      <trkpt lat="48.7252420" lon="14.3374370">
        <ele>536.4</ele>
        <time>2019-08-07T14:34:35Z</time>
      </trkpt>
      <trkpt lat="48.7252990" lon="14.3374050">
        <ele>536.4</ele>
        <time>2019-08-07T14:34:36Z</time>
      </trkpt>
      <trkpt lat="48.7253520" lon="14.3373820">
        <ele>536.6</ele>
        <time>2019-08-07T14:34:37Z</time>
      </trkpt>
      <trkpt lat="48.7254010" lon="14.3373600">
        <ele>536.8</ele>
        <time>2019-08-07T14:34:38Z</time>
      </trkpt>
      <trkpt lat="48.7254440" lon="14.3373380">
        <ele>537.0</ele>
        <time>2019-08-07T14:34:39Z</time>
      </trkpt>
      <trkpt lat="48.7254820" lon="14.3373160">
        <ele>537.2</ele>
        <time>2019-08-07T14:34:40Z</time>
      </trkpt>
      <trkpt lat="48.7255190" lon="14.3372980">
        <ele>537.4</ele>
        <time>2019-08-07T14:34:41Z</time>
      </trkpt>
      <trkpt lat="48.7255520" lon="14.3372820">
        <ele>537.6</ele>
        <time>2019-08-07T14:34:42Z</time>
      </trkpt>
      <trkpt lat="48.7255820" lon="14.3372670">
        <ele>537.8</ele>
        <time>2019-08-07T14:34:43Z</time>
      </trkpt>
      <trkpt lat="48.7256110" lon="14.3372520">
        <ele>538.0</ele>
        <time>2019-08-07T14:34:44Z</time>
      </trkpt>
      <trkpt lat="48.7256390" lon="14.3372380">
        <ele>538.2</ele>
        <time>2019-08-07T14:34:45Z</time>
      </trkpt>
      <trkpt lat="48.7256640" lon="14.3372250">
        <ele>538.4</ele>
        <time>2019-08-07T14:34:46Z</time>
      </trkpt>
      <trkpt lat="48.7256910" lon="14.3372180">
        <ele>538.6</ele>
        <time>2019-08-07T14:34:47Z</time>
      </trkpt>
      <trkpt lat="48.7257180" lon="14.3372130">
        <ele>538.8</ele>
        <time>2019-08-07T14:34:48Z</time>
      </trkpt>
      <trkpt lat="48.7257410" lon="14.3372130">
        <ele>539.0</ele>
        <time>2019-08-07T14:34:49Z</time>
      </trkpt>
      <trkpt lat="48.7257600" lon="14.3372180">
        <ele>539.2</ele>
        <time>2019-08-07T14:34:50Z</time>
      </trkpt>
      <trkpt lat="48.7257860" lon="14.3372270">
        <ele>539.4</ele>
        <time>2019-08-07T14:34:51Z</time>
      </trkpt>
      <trkpt lat="48.7258110" lon="14.3372330">
        <ele>539.6</ele>
        <time>2019-08-07T14:34:52Z</time>
      </trkpt>
      <trkpt lat="48.7258350" lon="14.3372380">
        <ele>539.8</ele>
        <time>2019-08-07T14:34:53Z</time>
      </trkpt>
      <trkpt lat="48.7258580" lon="14.3372420">
        <ele>540.0</ele>
        <time>2019-08-07T14:34:54Z</time>
      </trkpt>
      <trkpt lat="48.7258820" lon="14.3372460">
        <ele>540.2</ele>
        <time>2019-08-07T14:34:55Z</time>
      </trkpt>
      <trkpt lat="48.7259030" lon="14.3372510">
        <ele>540.4</ele>
        <time>2019-08-07T14:34:56Z</time>
      </trkpt>
      <trkpt lat="48.7259210" lon="14.3372560">
        <ele>540.6</ele>
        <time>2019-08-07T14:34:57Z</time>
      </trkpt>
      <trkpt lat="48.7259400" lon="14.3372650">
        <ele>540.8</ele>
        <time>2019-08-07T14:34:58Z</time>
      </trkpt>
      <trkpt lat="48.7259590" lon="14.3372720">
        <ele>541.0</ele>
        <time>2019-08-07T14:34:59Z</time>
      </trkpt>
      <trkpt lat="48.7259770" lon="14.3372800">
        <ele>541.0</ele>
        <time>2019-08-07T14:35:00Z</time>
      </trkpt>
      <trkpt lat="48.7259930" lon="14.3372910">
        <ele>541.2</ele>
        <time>2019-08-07T14:35:01Z</time>
      </trkpt>
      <trkpt lat="48.7260060" lon="14.3373000">
        <ele>541.4</ele>
        <time>2019-08-07T14:35:02Z</time>
      </trkpt>
      <trkpt lat="48.7260200" lon="14.3373070">
        <ele>541.4</ele>
        <time>2019-08-07T14:35:03Z</time>
      </trkpt>
      <trkpt lat="48.7260340" lon="14.3373170">
        <ele>541.6</ele>
        <time>2019-08-07T14:35:04Z</time>
      </trkpt>
      <trkpt lat="48.7260500" lon="14.3373270">
        <ele>541.6</ele>
        <time>2019-08-07T14:35:05Z</time>
      </trkpt>
      <trkpt lat="48.7260640" lon="14.3373380">
        <ele>541.6</ele>
        <time>2019-08-07T14:35:06Z</time>
      </trkpt>
      <trkpt lat="48.7260940" lon="14.3373490">
        <ele>541.6</ele>
        <time>2019-08-07T14:35:07Z</time>
      </trkpt>
      <trkpt lat="48.7261200" lon="14.3373570">
        <ele>541.4</ele>
        <time>2019-08-07T14:35:08Z</time>
      </trkpt>
      <trkpt lat="48.7261490" lon="14.3373600">
        <ele>541.4</ele>
        <time>2019-08-07T14:35:09Z</time>
      </trkpt>
      <trkpt lat="48.7261820" lon="14.3373620">
        <ele>541.0</ele>
        <time>2019-08-07T14:35:10Z</time>
      </trkpt>
      <trkpt lat="48.7262180" lon="14.3373660">
        <ele>540.8</ele>
        <time>2019-08-07T14:35:11Z</time>
      </trkpt>
      <trkpt lat="48.7262520" lon="14.3373730">
        <ele>540.6</ele>
        <time>2019-08-07T14:35:12Z</time>
      </trkpt>
      <trkpt lat="48.7262850" lon="14.3373800">
        <ele>540.4</ele>
        <time>2019-08-07T14:35:13Z</time>
      </trkpt>
      <trkpt lat="48.7263200" lon="14.3373880">
        <ele>540.0</ele>
        <time>2019-08-07T14:35:14Z</time>
      </trkpt>
      <trkpt lat="48.7263560" lon="14.3373980">
        <ele>539.6</ele>
        <time>2019-08-07T14:35:15Z</time>
      </trkpt>
      <trkpt lat="48.7263900" lon="14.3374090">
        <ele>539.2</ele>
        <time>2019-08-07T14:35:16Z</time>
      </trkpt>
      <trkpt lat="48.7264220" lon="14.3374220">
        <ele>538.8</ele>
        <time>2019-08-07T14:35:17Z</time>
      </trkpt>
      <trkpt lat="48.7264540" lon="14.3374380">
        <ele>538.4</ele>
        <time>2019-08-07T14:35:18Z</time>
      </trkpt>
      <trkpt lat="48.7264830" lon="14.3374610">
        <ele>537.8</ele>
        <time>2019-08-07T14:35:19Z</time>
      </trkpt>
      <trkpt lat="48.7265130" lon="14.3374860">
        <ele>537.2</ele>
        <time>2019-08-07T14:35:20Z</time>
      </trkpt>
      <trkpt lat="48.7265450" lon="14.3375200">
        <ele>536.6</ele>
        <time>2019-08-07T14:35:21Z</time>
      </trkpt>
      <trkpt lat="48.7265720" lon="14.3375760">
        <ele>535.8</ele>
        <time>2019-08-07T14:35:22Z</time>
      </trkpt>
      <trkpt lat="48.7265970" lon="14.3376460">
        <ele>535.2</ele>
        <time>2019-08-07T14:35:23Z</time>
      </trkpt>
      <trkpt lat="48.7266210" lon="14.3377200">
        <ele>534.4</ele>
        <time>2019-08-07T14:35:24Z</time>
      </trkpt>
      <trkpt lat="48.7266440" lon="14.3377940">
        <ele>533.8</ele>
        <time>2019-08-07T14:35:25Z</time>
      </trkpt>
      <trkpt lat="48.7266660" lon="14.3378610">
        <ele>533.0</ele>
        <time>2019-08-07T14:35:26Z</time>
      </trkpt>
      <trkpt lat="48.7266860" lon="14.3379180">
        <ele>532.4</ele>
        <time>2019-08-07T14:35:27Z</time>
      </trkpt>
      <trkpt lat="48.7266990" lon="14.3379610">
        <ele>531.8</ele>
        <time>2019-08-07T14:35:28Z</time>
      </trkpt>
      <trkpt lat="48.7267060" lon="14.3379880">
        <ele>531.4</ele>
        <time>2019-08-07T14:35:29Z</time>
      </trkpt>
      <trkpt lat="48.7267110" lon="14.3380040">
        <ele>530.8</ele>
        <time>2019-08-07T14:35:30Z</time>
      </trkpt>
      <trkpt lat="48.7267200" lon="14.3380160">
        <ele>530.4</ele>
        <time>2019-08-07T14:35:31Z</time>
      </trkpt>
      <trkpt lat="48.7267270" lon="14.3380250">
        <ele>530.0</ele>
        <time>2019-08-07T14:35:32Z</time>
      </trkpt>
      <trkpt lat="48.7267330" lon="14.3380320">
        <ele>529.8</ele>
        <time>2019-08-07T14:35:33Z</time>
      </trkpt>
      <trkpt lat="48.7267640" lon="14.3380660">
        <ele>529.4</ele>
        <time>2019-08-07T14:35:34Z</time>
      </trkpt>
      <trkpt lat="48.7267900" lon="14.3380940">
        <ele>529.0</ele>
        <time>2019-08-07T14:35:35Z</time>
      </trkpt>
      <trkpt lat="48.7268190" lon="14.3381270">
        <ele>528.8</ele>
        <time>2019-08-07T14:35:36Z</time>
      </trkpt>
      <trkpt lat="48.7268540" lon="14.3381630">
        <ele>528.6</ele>
        <time>2019-08-07T14:35:37Z</time>
      </trkpt>
      <trkpt lat="48.7268900" lon="14.3382020">
        <ele>528.4</ele>
        <time>2019-08-07T14:35:38Z</time>
      </trkpt>
      <trkpt lat="48.7269250" lon="14.3382380">
        <ele>528.2</ele>
        <time>2019-08-07T14:35:39Z</time>
      </trkpt>
      <trkpt lat="48.7269610" lon="14.3382720">
        <ele>528.2</ele>
        <time>2019-08-07T14:35:40Z</time>
      </trkpt>
      <trkpt lat="48.7269990" lon="14.3383040">
        <ele>528.0</ele>
        <time>2019-08-07T14:35:41Z</time>
      </trkpt>
      <trkpt lat="48.7270400" lon="14.3383330">
        <ele>528.0</ele>
        <time>2019-08-07T14:35:42Z</time>
      </trkpt>
      <trkpt lat="48.7270850" lon="14.3383490">
        <ele>528.0</ele>
        <time>2019-08-07T14:35:43Z</time>
      </trkpt>
      <trkpt lat="48.7271290" lon="14.3383510">
        <ele>527.8</ele>
        <time>2019-08-07T14:35:44Z</time>
      </trkpt>
      <trkpt lat="48.7271670" lon="14.3383400">
        <ele>528.0</ele>
        <time>2019-08-07T14:35:45Z</time>
      </trkpt>
      <trkpt lat="48.7271970" lon="14.3383240">
        <ele>528.0</ele>
        <time>2019-08-07T14:35:46Z</time>
      </trkpt>
      <trkpt lat="48.7272230" lon="14.3383040">
        <ele>528.0</ele>
        <time>2019-08-07T14:35:47Z</time>
      </trkpt>
      <trkpt lat="48.7272450" lon="14.3382820">
        <ele>528.2</ele>
        <time>2019-08-07T14:35:48Z</time>
      </trkpt>
      <trkpt lat="48.7272600" lon="14.3382670">
        <ele>528.4</ele>
        <time>2019-08-07T14:35:49Z</time>
      </trkpt>
      <trkpt lat="48.7272740" lon="14.3382520">
        <ele>528.4</ele>
        <time>2019-08-07T14:35:50Z</time>
      </trkpt>
      <trkpt lat="48.7272900" lon="14.3382290">
        <ele>528.6</ele>
        <time>2019-08-07T14:35:51Z</time>
      </trkpt>
      <trkpt lat="48.7273050" lon="14.3382110">
        <ele>528.8</ele>
        <time>2019-08-07T14:35:52Z</time>
      </trkpt>
      <trkpt lat="48.7273200" lon="14.3381980">
        <ele>529.0</ele>
        <time>2019-08-07T14:35:53Z</time>
      </trkpt>
      <trkpt lat="48.7273330" lon="14.3381830">
        <ele>529.2</ele>
        <time>2019-08-07T14:35:54Z</time>
      </trkpt>
      <trkpt lat="48.7273460" lon="14.3381640">
        <ele>529.4</ele>
        <time>2019-08-07T14:35:55Z</time>
      </trkpt>
      <trkpt lat="48.7273590" lon="14.3381420">
        <ele>529.8</ele>
        <time>2019-08-07T14:35:56Z</time>
      </trkpt>
      <trkpt lat="48.7273690" lon="14.3381210">
        <ele>530.0</ele>
        <time>2019-08-07T14:35:57Z</time>
      </trkpt>
      <trkpt lat="48.7273790" lon="14.3380990">
        <ele>530.2</ele>
        <time>2019-08-07T14:35:58Z</time>
      </trkpt>
      <trkpt lat="48.7273890" lon="14.3380790">
        <ele>530.6</ele>
        <time>2019-08-07T14:35:59Z</time>
      </trkpt>
      <trkpt lat="48.7273960" lon="14.3380570">
        <ele>530.8</ele>
        <time>2019-08-07T14:36:00Z</time>
      </trkpt>
      <trkpt lat="48.7274040" lon="14.3380330">
        <ele>531.0</ele>
        <time>2019-08-07T14:36:01Z</time>
      </trkpt>
      <trkpt lat="48.7274120" lon="14.3380130">
        <ele>531.4</ele>
        <time>2019-08-07T14:36:02Z</time>
      </trkpt>
      <trkpt lat="48.7274220" lon="14.3379960">
        <ele>531.6</ele>
        <time>2019-08-07T14:36:03Z</time>
      </trkpt>
      <trkpt lat="48.7274330" lon="14.3379780">
        <ele>532.0</ele>
        <time>2019-08-07T14:36:04Z</time>
      </trkpt>
      <trkpt lat="48.7274460" lon="14.3379640">
        <ele>532.4</ele>
        <time>2019-08-07T14:36:05Z</time>
      </trkpt>
      <trkpt lat="48.7274590" lon="14.3379530">
        <ele>532.6</ele>
        <time>2019-08-07T14:36:06Z</time>
      </trkpt>
      <trkpt lat="48.7274730" lon="14.3379450">
        <ele>533.0</ele>
        <time>2019-08-07T14:36:07Z</time>
      </trkpt>
      <trkpt lat="48.7274860" lon="14.3379400">
        <ele>533.4</ele>
        <time>2019-08-07T14:36:08Z</time>
      </trkpt>
      <trkpt lat="48.7274990" lon="14.3379400">
        <ele>533.6</ele>
        <time>2019-08-07T14:36:09Z</time>
      </trkpt>
      <trkpt lat="48.7275100" lon="14.3379380">
        <ele>534.0</ele>
        <time>2019-08-07T14:36:10Z</time>
      </trkpt>
      <trkpt lat="48.7275250" lon="14.3379380">
        <ele>534.2</ele>
        <time>2019-08-07T14:36:11Z</time>
      </trkpt>
      <trkpt lat="48.7275380" lon="14.3379360">
        <ele>534.6</ele>
        <time>2019-08-07T14:36:12Z</time>
      </trkpt>
      <trkpt lat="48.7275490" lon="14.3379310">
        <ele>534.8</ele>
        <time>2019-08-07T14:36:13Z</time>
      </trkpt>
      <trkpt lat="48.7275610" lon="14.3379280">
        <ele>535.2</ele>
        <time>2019-08-07T14:36:14Z</time>
      </trkpt>
      <trkpt lat="48.7275710" lon="14.3379260">
        <ele>535.4</ele>
        <time>2019-08-07T14:36:15Z</time>
      </trkpt>
      <trkpt lat="48.7275820" lon="14.3379230">
        <ele>535.6</ele>
        <time>2019-08-07T14:36:16Z</time>
      </trkpt>
      <trkpt lat="48.7275950" lon="14.3379230">
        <ele>536.0</ele>
        <time>2019-08-07T14:36:17Z</time>
      </trkpt>
      <trkpt lat="48.7276100" lon="14.3379220">
        <ele>536.2</ele>
        <time>2019-08-07T14:36:18Z</time>
      </trkpt>
      <trkpt lat="48.7276230" lon="14.3379170">
        <ele>536.4</ele>
        <time>2019-08-07T14:36:19Z</time>
      </trkpt>
      <trkpt lat="48.7276350" lon="14.3379130">
        <ele>536.6</ele>
        <time>2019-08-07T14:36:20Z</time>
      </trkpt>
      <trkpt lat="48.7276480" lon="14.3379100">
        <ele>536.8</ele>
        <time>2019-08-07T14:36:21Z</time>
      </trkpt>
      <trkpt lat="48.7276630" lon="14.3379080">
        <ele>537.0</ele>
        <time>2019-08-07T14:36:22Z</time>
      </trkpt>
      <trkpt lat="48.7276780" lon="14.3379050">
        <ele>537.2</ele>
        <time>2019-08-07T14:36:23Z</time>
      </trkpt>
      <trkpt lat="48.7276900" lon="14.3379040">
        <ele>537.4</ele>
        <time>2019-08-07T14:36:24Z</time>
      </trkpt>
      <trkpt lat="48.7277050" lon="14.3379060">
        <ele>537.6</ele>
        <time>2019-08-07T14:36:25Z</time>
      </trkpt>
      <trkpt lat="48.7277190" lon="14.3379100">
        <ele>537.8</ele>
        <time>2019-08-07T14:36:26Z</time>
      </trkpt>
      <trkpt lat="48.7277340" lon="14.3379180">
        <ele>538.0</ele>
        <time>2019-08-07T14:36:27Z</time>
      </trkpt>
      <trkpt lat="48.7277500" lon="14.3379220">
        <ele>538.4</ele>
        <time>2019-08-07T14:36:28Z</time>
      </trkpt>
      <trkpt lat="48.7277650" lon="14.3379230">
        <ele>538.6</ele>
        <time>2019-08-07T14:36:29Z</time>
      </trkpt>
      <trkpt lat="48.7277810" lon="14.3379210">
        <ele>538.8</ele>
        <time>2019-08-07T14:36:30Z</time>
      </trkpt>
      <trkpt lat="48.7277970" lon="14.3379200">
        <ele>538.8</ele>
        <time>2019-08-07T14:36:31Z</time>
      </trkpt>
      <trkpt lat="48.7278150" lon="14.3379190">
        <ele>539.0</ele>
        <time>2019-08-07T14:36:32Z</time>
      </trkpt>
      <trkpt lat="48.7278320" lon="14.3379160">
        <ele>539.2</ele>
        <time>2019-08-07T14:36:33Z</time>
      </trkpt>
      <trkpt lat="48.7278490" lon="14.3379160">
        <ele>539.4</ele>
        <time>2019-08-07T14:36:34Z</time>
      </trkpt>
      <trkpt lat="48.7278670" lon="14.3379190">
        <ele>539.6</ele>
        <time>2019-08-07T14:36:35Z</time>
      </trkpt>
      <trkpt lat="48.7278890" lon="14.3379230">
        <ele>539.6</ele>
        <time>2019-08-07T14:36:36Z</time>
      </trkpt>
      <trkpt lat="48.7279090" lon="14.3379280">
        <ele>539.8</ele>
        <time>2019-08-07T14:36:37Z</time>
      </trkpt>
      <trkpt lat="48.7279310" lon="14.3379360">
        <ele>540.0</ele>
        <time>2019-08-07T14:36:38Z</time>
      </trkpt>
      <trkpt lat="48.7279500" lon="14.3379470">
        <ele>540.0</ele>
        <time>2019-08-07T14:36:39Z</time>
      </trkpt>
      <trkpt lat="48.7279690" lon="14.3379550">
        <ele>540.2</ele>
        <time>2019-08-07T14:36:40Z</time>
      </trkpt>
      <trkpt lat="48.7279890" lon="14.3379660">
        <ele>540.2</ele>
        <time>2019-08-07T14:36:41Z</time>
      </trkpt>
      <trkpt lat="48.7280090" lon="14.3379760">
        <ele>540.4</ele>
        <time>2019-08-07T14:36:42Z</time>
      </trkpt>
      <trkpt lat="48.7280300" lon="14.3379860">
        <ele>540.4</ele>
        <time>2019-08-07T14:36:43Z</time>
      </trkpt>
      <trkpt lat="48.7280520" lon="14.3379960">
        <ele>540.6</ele>
        <time>2019-08-07T14:36:44Z</time>
      </trkpt>
      <trkpt lat="48.7280730" lon="14.3380080">
        <ele>540.8</ele>
        <time>2019-08-07T14:36:45Z</time>
      </trkpt>
      <trkpt lat="48.7280920" lon="14.3380230">
        <ele>540.8</ele>
        <time>2019-08-07T14:36:46Z</time>
      </trkpt>
      <trkpt lat="48.7281110" lon="14.3380390">
        <ele>541.0</ele>
        <time>2019-08-07T14:36:47Z</time>
      </trkpt>
      <trkpt lat="48.7281310" lon="14.3380600">
        <ele>541.2</ele>
        <time>2019-08-07T14:36:48Z</time>
      </trkpt>
      <trkpt lat="48.7281490" lon="14.3380790">
        <ele>541.2</ele>
        <time>2019-08-07T14:36:49Z</time>
      </trkpt>
      <trkpt lat="48.7281680" lon="14.3380980">
        <ele>541.4</ele>
        <time>2019-08-07T14:36:50Z</time>
      </trkpt>
      <trkpt lat="48.7281880" lon="14.3381190">
        <ele>541.4</ele>
        <time>2019-08-07T14:36:51Z</time>
      </trkpt>
      <trkpt lat="48.7282080" lon="14.3381380">
        <ele>541.6</ele>
        <time>2019-08-07T14:36:52Z</time>
      </trkpt>
      <trkpt lat="48.7282270" lon="14.3381570">
        <ele>541.6</ele>
        <time>2019-08-07T14:36:53Z</time>
      </trkpt>
      <trkpt lat="48.7282470" lon="14.3381770">
        <ele>541.8</ele>
        <time>2019-08-07T14:36:54Z</time>
      </trkpt>
      <trkpt lat="48.7282680" lon="14.3381950">
        <ele>541.8</ele>
        <time>2019-08-07T14:36:55Z</time>
      </trkpt>
      <trkpt lat="48.7282890" lon="14.3382190">
        <ele>542.0</ele>
        <time>2019-08-07T14:36:56Z</time>
      </trkpt>
      <trkpt lat="48.7283070" lon="14.3382440">
        <ele>542.0</ele>
        <time>2019-08-07T14:36:57Z</time>
      </trkpt>
      <trkpt lat="48.7283260" lon="14.3382670">
        <ele>542.0</ele>
        <time>2019-08-07T14:36:58Z</time>
      </trkpt>
      <trkpt lat="48.7283470" lon="14.3382880">
        <ele>542.2</ele>
        <time>2019-08-07T14:36:59Z</time>
      </trkpt>
      <trkpt lat="48.7283690" lon="14.3383100">
        <ele>542.2</ele>
        <time>2019-08-07T14:37:00Z</time>
      </trkpt>
      <trkpt lat="48.7283880" lon="14.3383310">
        <ele>542.4</ele>
        <time>2019-08-07T14:37:01Z</time>
      </trkpt>
      <trkpt lat="48.7284080" lon="14.3383550">
        <ele>542.4</ele>
        <time>2019-08-07T14:37:02Z</time>
      </trkpt>
      <trkpt lat="48.7284280" lon="14.3383780">
        <ele>542.6</ele>
        <time>2019-08-07T14:37:03Z</time>
      </trkpt>
      <trkpt lat="48.7284490" lon="14.3383960">
        <ele>542.6</ele>
        <time>2019-08-07T14:37:04Z</time>
      </trkpt>
      <trkpt lat="48.7284670" lon="14.3384180">
        <ele>542.8</ele>
        <time>2019-08-07T14:37:05Z</time>
      </trkpt>
      <trkpt lat="48.7284870" lon="14.3384400">
        <ele>542.8</ele>
        <time>2019-08-07T14:37:06Z</time>
      </trkpt>
      <trkpt lat="48.7285030" lon="14.3384620">
        <ele>543.0</ele>
        <time>2019-08-07T14:37:07Z</time>
      </trkpt>
      <trkpt lat="48.7285230" lon="14.3384850">
        <ele>543.0</ele>
        <time>2019-08-07T14:37:08Z</time>
      </trkpt>
      <trkpt lat="48.7285420" lon="14.3385040">
        <ele>543.2</ele>
        <time>2019-08-07T14:37:09Z</time>
      </trkpt>
      <trkpt lat="48.7285590" lon="14.3385230">
        <ele>543.2</ele>
        <time>2019-08-07T14:37:10Z</time>
      </trkpt>
      <trkpt lat="48.7285810" lon="14.3385420">
        <ele>543.4</ele>
        <time>2019-08-07T14:37:11Z</time>
      </trkpt>
      <trkpt lat="48.7285990" lon="14.3385610">
        <ele>543.4</ele>
        <time>2019-08-07T14:37:12Z</time>
      </trkpt>
      <trkpt lat="48.7286190" lon="14.3385810">
        <ele>543.4</ele>
        <time>2019-08-07T14:37:13Z</time>
      </trkpt>
      <trkpt lat="48.7286400" lon="14.3386000">
        <ele>543.6</ele>
        <time>2019-08-07T14:37:14Z</time>
      </trkpt>
      <trkpt lat="48.7286590" lon="14.3386190">
        <ele>543.6</ele>
        <time>2019-08-07T14:37:15Z</time>
      </trkpt>
      <trkpt lat="48.7286790" lon="14.3386380">
        <ele>543.8</ele>
        <time>2019-08-07T14:37:16Z</time>
      </trkpt>
      <trkpt lat="48.7286990" lon="14.3386540">
        <ele>543.8</ele>
        <time>2019-08-07T14:37:17Z</time>
      </trkpt>
      <trkpt lat="48.7287210" lon="14.3386770">
        <ele>544.0</ele>
        <time>2019-08-07T14:37:18Z</time>
      </trkpt>
      <trkpt lat="48.7287400" lon="14.3386980">
        <ele>544.0</ele>
        <time>2019-08-07T14:37:19Z</time>
      </trkpt>
      <trkpt lat="48.7287580" lon="14.3387220">
        <ele>544.2</ele>
        <time>2019-08-07T14:37:20Z</time>
      </trkpt>
      <trkpt lat="48.7287760" lon="14.3387430">
        <ele>544.2</ele>
        <time>2019-08-07T14:37:21Z</time>
      </trkpt>
      <trkpt lat="48.7287960" lon="14.3387630">
        <ele>544.4</ele>
        <time>2019-08-07T14:37:22Z</time>
      </trkpt>
      <trkpt lat="48.7288160" lon="14.3387820">
        <ele>544.6</ele>
        <time>2019-08-07T14:37:23Z</time>
      </trkpt>
      <trkpt lat="48.7288340" lon="14.3388000">
        <ele>544.6</ele>
        <time>2019-08-07T14:37:24Z</time>
      </trkpt>
      <trkpt lat="48.7288520" lon="14.3388210">
        <ele>544.8</ele>
        <time>2019-08-07T14:37:25Z</time>
      </trkpt>
      <trkpt lat="48.7288710" lon="14.3388410">
        <ele>545.0</ele>
        <time>2019-08-07T14:37:26Z</time>
      </trkpt>
      <trkpt lat="48.7288920" lon="14.3388590">
        <ele>545.0</ele>
        <time>2019-08-07T14:37:27Z</time>
      </trkpt>
      <trkpt lat="48.7289110" lon="14.3388800">
        <ele>545.2</ele>
        <time>2019-08-07T14:37:28Z</time>
      </trkpt>
      <trkpt lat="48.7289290" lon="14.3388990">
        <ele>545.4</ele>
        <time>2019-08-07T14:37:29Z</time>
      </trkpt>
      <trkpt lat="48.7289480" lon="14.3389200">
        <ele>545.4</ele>
        <time>2019-08-07T14:37:30Z</time>
      </trkpt>
      <trkpt lat="48.7289690" lon="14.3389450">
        <ele>545.6</ele>
        <time>2019-08-07T14:37:31Z</time>
      </trkpt>
      <trkpt lat="48.7289890" lon="14.3389660">
        <ele>545.8</ele>
        <time>2019-08-07T14:37:32Z</time>
      </trkpt>
      <trkpt lat="48.7290070" lon="14.3389900">
        <ele>546.0</ele>
        <time>2019-08-07T14:37:33Z</time>
      </trkpt>
      <trkpt lat="48.7290260" lon="14.3390110">
        <ele>546.0</ele>
        <time>2019-08-07T14:37:34Z</time>
      </trkpt>
      <trkpt lat="48.7290440" lon="14.3390320">
        <ele>546.2</ele>
        <time>2019-08-07T14:37:35Z</time>
      </trkpt>
      <trkpt lat="48.7290640" lon="14.3390490">
        <ele>546.4</ele>
        <time>2019-08-07T14:37:36Z</time>
      </trkpt>
      <trkpt lat="48.7290810" lon="14.3390660">
        <ele>546.6</ele>
        <time>2019-08-07T14:37:37Z</time>
      </trkpt>
      <trkpt lat="48.7291010" lon="14.3390860">
        <ele>546.6</ele>
        <time>2019-08-07T14:37:38Z</time>
      </trkpt>
      <trkpt lat="48.7291160" lon="14.3391060">
        <ele>546.8</ele>
        <time>2019-08-07T14:37:39Z</time>
      </trkpt>
      <trkpt lat="48.7291280" lon="14.3391240">
        <ele>547.0</ele>
        <time>2019-08-07T14:37:40Z</time>
      </trkpt>
      <trkpt lat="48.7291400" lon="14.3391430">
        <ele>547.2</ele>
        <time>2019-08-07T14:37:41Z</time>
      </trkpt>
      <trkpt lat="48.7291530" lon="14.3391630">
        <ele>547.4</ele>
        <time>2019-08-07T14:37:42Z</time>
      </trkpt>
      <trkpt lat="48.7291660" lon="14.3391840">
        <ele>547.4</ele>
        <time>2019-08-07T14:37:43Z</time>
      </trkpt>
      <trkpt lat="48.7291780" lon="14.3392070">
        <ele>547.6</ele>
        <time>2019-08-07T14:37:44Z</time>
      </trkpt>
      <trkpt lat="48.7291910" lon="14.3392280">
        <ele>547.8</ele>
        <time>2019-08-07T14:37:45Z</time>
      </trkpt>
      <trkpt lat="48.7292020" lon="14.3392480">
        <ele>548.0</ele>
        <time>2019-08-07T14:37:46Z</time>
      </trkpt>
      <trkpt lat="48.7292150" lon="14.3392690">
        <ele>548.2</ele>
        <time>2019-08-07T14:37:47Z</time>
      </trkpt>
      <trkpt lat="48.7292300" lon="14.3392920">
        <ele>548.2</ele>
        <time>2019-08-07T14:37:48Z</time>
      </trkpt>
      <trkpt lat="48.7292450" lon="14.3393120">
        <ele>548.4</ele>
        <time>2019-08-07T14:37:49Z</time>
      </trkpt>
      <trkpt lat="48.7292570" lon="14.3393300">
        <ele>548.6</ele>
        <time>2019-08-07T14:37:50Z</time>
      </trkpt>
      <trkpt lat="48.7292710" lon="14.3393530">
        <ele>548.8</ele>
        <time>2019-08-07T14:37:51Z</time>
      </trkpt>
      <trkpt lat="48.7292820" lon="14.3393740">
        <ele>549.0</ele>
        <time>2019-08-07T14:37:52Z</time>
      </trkpt>
      <trkpt lat="48.7292950" lon="14.3393960">
        <ele>549.0</ele>
        <time>2019-08-07T14:37:53Z</time>
      </trkpt>
      <trkpt lat="48.7293070" lon="14.3394170">
        <ele>549.2</ele>
        <time>2019-08-07T14:37:54Z</time>
      </trkpt>
      <trkpt lat="48.7293170" lon="14.3394380">
        <ele>549.4</ele>
        <time>2019-08-07T14:37:55Z</time>
      </trkpt>
      <trkpt lat="48.7293270" lon="14.3394610">
        <ele>549.6</ele>
        <time>2019-08-07T14:37:56Z</time>
      </trkpt>
      <trkpt lat="48.7293370" lon="14.3394840">
        <ele>549.6</ele>
        <time>2019-08-07T14:37:57Z</time>
      </trkpt>
      <trkpt lat="48.7293490" lon="14.3395070">
        <ele>549.8</ele>
        <time>2019-08-07T14:37:58Z</time>
      </trkpt>
      <trkpt lat="48.7293590" lon="14.3395280">
        <ele>550.0</ele>
        <time>2019-08-07T14:37:59Z</time>
      </trkpt>
      <trkpt lat="48.7293690" lon="14.3395480">
        <ele>550.2</ele>
        <time>2019-08-07T14:38:00Z</time>
      </trkpt>
      <trkpt lat="48.7293800" lon="14.3395680">
        <ele>550.4</ele>
        <time>2019-08-07T14:38:01Z</time>
      </trkpt>
      <trkpt lat="48.7293930" lon="14.3395890">
        <ele>550.6</ele>
        <time>2019-08-07T14:38:02Z</time>
      </trkpt>
      <trkpt lat="48.7294060" lon="14.3396070">
        <ele>550.6</ele>
        <time>2019-08-07T14:38:03Z</time>
      </trkpt>
      <trkpt lat="48.7294190" lon="14.3396240">
        <ele>550.8</ele>
        <time>2019-08-07T14:38:04Z</time>
      </trkpt>
      <trkpt lat="48.7294310" lon="14.3396420">
        <ele>551.0</ele>
        <time>2019-08-07T14:38:05Z</time>
      </trkpt>
      <trkpt lat="48.7294440" lon="14.3396560">
        <ele>551.2</ele>
        <time>2019-08-07T14:38:06Z</time>
      </trkpt>
      <trkpt lat="48.7294570" lon="14.3396690">
        <ele>551.4</ele>
        <time>2019-08-07T14:38:07Z</time>
      </trkpt>
      <trkpt lat="48.7294710" lon="14.3396860">
        <ele>551.6</ele>
        <time>2019-08-07T14:38:08Z</time>
      </trkpt>
      <trkpt lat="48.7294820" lon="14.3396970">
        <ele>551.8</ele>
        <time>2019-08-07T14:38:09Z</time>
      </trkpt>
      <trkpt lat="48.7294930" lon="14.3397060">
        <ele>552.0</ele>
        <time>2019-08-07T14:38:10Z</time>
      </trkpt>
      <trkpt lat="48.7295060" lon="14.3397180">
        <ele>552.0</ele>
        <time>2019-08-07T14:38:11Z</time>
      </trkpt>
      <trkpt lat="48.7295170" lon="14.3397340">
        <ele>552.2</ele>
        <time>2019-08-07T14:38:12Z</time>
      </trkpt>
      <trkpt lat="48.7295300" lon="14.3397500">
        <ele>552.4</ele>
        <time>2019-08-07T14:38:13Z</time>
      </trkpt>
      <trkpt lat="48.7295450" lon="14.3397650">
        <ele>552.6</ele>
        <time>2019-08-07T14:38:14Z</time>
      </trkpt>
      <trkpt lat="48.7295580" lon="14.3397810">
        <ele>552.8</ele>
        <time>2019-08-07T14:38:15Z</time>
      </trkpt>
      <trkpt lat="48.7295710" lon="14.3397920">
        <ele>553.0</ele>
        <time>2019-08-07T14:38:16Z</time>
      </trkpt>
      <trkpt lat="48.7295850" lon="14.3398040">
        <ele>553.2</ele>
        <time>2019-08-07T14:38:17Z</time>
      </trkpt>
      <trkpt lat="48.7295990" lon="14.3398150">
        <ele>553.4</ele>
        <time>2019-08-07T14:38:18Z</time>
      </trkpt>
      <trkpt lat="48.7296130" lon="14.3398240">
        <ele>553.6</ele>
        <time>2019-08-07T14:38:19Z</time>
      </trkpt>
      <trkpt lat="48.7296290" lon="14.3398320">
        <ele>553.6</ele>
        <time>2019-08-07T14:38:20Z</time>
      </trkpt>
      <trkpt lat="48.7296460" lon="14.3398420">
        <ele>553.8</ele>
        <time>2019-08-07T14:38:21Z</time>
      </trkpt>
      <trkpt lat="48.7296620" lon="14.3398530">
        <ele>554.0</ele>
        <time>2019-08-07T14:38:22Z</time>
      </trkpt>
      <trkpt lat="48.7296770" lon="14.3398640">
        <ele>554.2</ele>
        <time>2019-08-07T14:38:23Z</time>
      </trkpt>
      <trkpt lat="48.7296920" lon="14.3398750">
        <ele>554.4</ele>
        <time>2019-08-07T14:38:24Z</time>
      </trkpt>
      <trkpt lat="48.7297080" lon="14.3398850">
        <ele>554.6</ele>
        <time>2019-08-07T14:38:25Z</time>
      </trkpt>
      <trkpt lat="48.7297220" lon="14.3398940">
        <ele>554.8</ele>
        <time>2019-08-07T14:38:26Z</time>
      </trkpt>
      <trkpt lat="48.7297350" lon="14.3399080">
        <ele>555.0</ele>
        <time>2019-08-07T14:38:27Z</time>
      </trkpt>
      <trkpt lat="48.7297520" lon="14.3399190">
        <ele>555.2</ele>
        <time>2019-08-07T14:38:28Z</time>
      </trkpt>
      <trkpt lat="48.7297690" lon="14.3399280">
        <ele>555.4</ele>
        <time>2019-08-07T14:38:29Z</time>
      </trkpt>
      <trkpt lat="48.7297840" lon="14.3399350">
        <ele>555.6</ele>
        <time>2019-08-07T14:38:30Z</time>
      </trkpt>
      <trkpt lat="48.7298000" lon="14.3399430">
        <ele>555.8</ele>
        <time>2019-08-07T14:38:31Z</time>
      </trkpt>
      <trkpt lat="48.7298150" lon="14.3399490">
        <ele>556.0</ele>
        <time>2019-08-07T14:38:32Z</time>
      </trkpt>
      <trkpt lat="48.7298320" lon="14.3399560">
        <ele>556.2</ele>
        <time>2019-08-07T14:38:33Z</time>
      </trkpt>
      <trkpt lat="48.7298500" lon="14.3399620">
        <ele>556.4</ele>
        <time>2019-08-07T14:38:34Z</time>
      </trkpt>
      <trkpt lat="48.7298650" lon="14.3399700">
        <ele>556.8</ele>
        <time>2019-08-07T14:38:35Z</time>
      </trkpt>
      <trkpt lat="48.7298800" lon="14.3399780">
        <ele>557.0</ele>
        <time>2019-08-07T14:38:36Z</time>
      </trkpt>
      <trkpt lat="48.7298950" lon="14.3399850">
        <ele>557.2</ele>
        <time>2019-08-07T14:38:37Z</time>
      </trkpt>
      <trkpt lat="48.7299110" lon="14.3399940">
        <ele>557.4</ele>
        <time>2019-08-07T14:38:38Z</time>
      </trkpt>
      <trkpt lat="48.7299270" lon="14.3400030">
        <ele>557.8</ele>
        <time>2019-08-07T14:38:39Z</time>
      </trkpt>
      <trkpt lat="48.7299420" lon="14.3400090">
        <ele>558.0</ele>
        <time>2019-08-07T14:38:40Z</time>
      </trkpt>
      <trkpt lat="48.7299570" lon="14.3400140">
        <ele>558.2</ele>
        <time>2019-08-07T14:38:41Z</time>
      </trkpt>
      <trkpt lat="48.7299730" lon="14.3400190">
        <ele>558.4</ele>
        <time>2019-08-07T14:38:42Z</time>
      </trkpt>
      <trkpt lat="48.7299870" lon="14.3400260">
        <ele>558.6</ele>
        <time>2019-08-07T14:38:43Z</time>
      </trkpt>
      <trkpt lat="48.7300020" lon="14.3400350">
        <ele>558.8</ele>
        <time>2019-08-07T14:38:44Z</time>
      </trkpt>
      <trkpt lat="48.7300180" lon="14.3400450">
        <ele>559.0</ele>
        <time>2019-08-07T14:38:45Z</time>
      </trkpt>
      <trkpt lat="48.7300350" lon="14.3400530">
        <ele>559.2</ele>
        <time>2019-08-07T14:38:46Z</time>
      </trkpt>
      <trkpt lat="48.7300520" lon="14.3400590">
        <ele>559.4</ele>
        <time>2019-08-07T14:38:47Z</time>
      </trkpt>
      <trkpt lat="48.7300690" lon="14.3400650">
        <ele>559.6</ele>
        <time>2019-08-07T14:38:48Z</time>
      </trkpt>
      <trkpt lat="48.7300810" lon="14.3400700">
        <ele>559.8</ele>
        <time>2019-08-07T14:38:49Z</time>
      </trkpt>
      <trkpt lat="48.7300910" lon="14.3400750">
        <ele>560.2</ele>
        <time>2019-08-07T14:38:50Z</time>
      </trkpt>
      <trkpt lat="48.7301070" lon="14.3400770">
        <ele>560.4</ele>
        <time>2019-08-07T14:38:51Z</time>
      </trkpt>
      <trkpt lat="48.7301240" lon="14.3400820">
        <ele>560.6</ele>
        <time>2019-08-07T14:38:52Z</time>
      </trkpt>
      <trkpt lat="48.7301390" lon="14.3400880">
        <ele>560.8</ele>
        <time>2019-08-07T14:38:53Z</time>
      </trkpt>
      <trkpt lat="48.7301470" lon="14.3400940">
        <ele>561.0</ele>
        <time>2019-08-07T14:38:54Z</time>
      </trkpt>
      <trkpt lat="48.7301550" lon="14.3400950">
        <ele>561.4</ele>
        <time>2019-08-07T14:38:55Z</time>
      </trkpt>
      <trkpt lat="48.7301660" lon="14.3400970">
        <ele>561.6</ele>
        <time>2019-08-07T14:38:56Z</time>
      </trkpt>
      <trkpt lat="48.7301780" lon="14.3400980">
        <ele>561.8</ele>
        <time>2019-08-07T14:38:57Z</time>
      </trkpt>
      <trkpt lat="48.7301910" lon="14.3401030">
        <ele>562.0</ele>
        <time>2019-08-07T14:38:58Z</time>
      </trkpt>
      <trkpt lat="48.7302050" lon="14.3401090">
        <ele>562.4</ele>
        <time>2019-08-07T14:38:59Z</time>
      </trkpt>
      <trkpt lat="48.7302220" lon="14.3401110">
        <ele>562.6</ele>
        <time>2019-08-07T14:39:00Z</time>
      </trkpt>
      <trkpt lat="48.7302360" lon="14.3401170">
        <ele>562.8</ele>
        <time>2019-08-07T14:39:01Z</time>
      </trkpt>
      <trkpt lat="48.7302480" lon="14.3401250">
        <ele>563.0</ele>
        <time>2019-08-07T14:39:02Z</time>
      </trkpt>
      <trkpt lat="48.7302620" lon="14.3401340">
        <ele>563.4</ele>
        <time>2019-08-07T14:39:03Z</time>
      </trkpt>
      <trkpt lat="48.7302780" lon="14.3401420">
        <ele>563.6</ele>
        <time>2019-08-07T14:39:04Z</time>
      </trkpt>
      <trkpt lat="48.7302930" lon="14.3401490">
        <ele>563.8</ele>
        <time>2019-08-07T14:39:05Z</time>
      </trkpt>
      <trkpt lat="48.7303070" lon="14.3401540">
        <ele>564.0</ele>
        <time>2019-08-07T14:39:06Z</time>
      </trkpt>
      <trkpt lat="48.7303230" lon="14.3401570">
        <ele>564.4</ele>
        <time>2019-08-07T14:39:07Z</time>
      </trkpt>
      <trkpt lat="48.7303390" lon="14.3401640">
        <ele>564.6</ele>
        <time>2019-08-07T14:39:08Z</time>
      </trkpt>
      <trkpt lat="48.7303540" lon="14.3401710">
        <ele>564.8</ele>
        <time>2019-08-07T14:39:09Z</time>
      </trkpt>
      <trkpt lat="48.7303670" lon="14.3401750">
        <ele>565.0</ele>
        <time>2019-08-07T14:39:10Z</time>
      </trkpt>
      <trkpt lat="48.7303830" lon="14.3401790">
        <ele>565.4</ele>
        <time>2019-08-07T14:39:11Z</time>
      </trkpt>
      <trkpt lat="48.7303960" lon="14.3401850">
        <ele>565.6</ele>
        <time>2019-08-07T14:39:12Z</time>
      </trkpt>
      <trkpt lat="48.7304090" lon="14.3401920">
        <ele>565.8</ele>
        <time>2019-08-07T14:39:13Z</time>
      </trkpt>
      <trkpt lat="48.7304210" lon="14.3402000">
        <ele>566.0</ele>
        <time>2019-08-07T14:39:14Z</time>
      </trkpt>
      <trkpt lat="48.7304320" lon="14.3402080">
        <ele>566.4</ele>
        <time>2019-08-07T14:39:15Z</time>
      </trkpt>
      <trkpt lat="48.7304420" lon="14.3402120">
        <ele>566.6</ele>
        <time>2019-08-07T14:39:16Z</time>
      </trkpt>
      <trkpt lat="48.7304530" lon="14.3402130">
        <ele>566.8</ele>
        <time>2019-08-07T14:39:17Z</time>
      </trkpt>
      <trkpt lat="48.7304670" lon="14.3402170">
        <ele>567.0</ele>
        <time>2019-08-07T14:39:18Z</time>
      </trkpt>
      <trkpt lat="48.7304780" lon="14.3402210">
        <ele>567.4</ele>
        <time>2019-08-07T14:39:19Z</time>
      </trkpt>
      <trkpt lat="48.7304900" lon="14.3402250">
        <ele>567.6</ele>
        <time>2019-08-07T14:39:20Z</time>
      </trkpt>
      <trkpt lat="48.7305000" lon="14.3402300">
        <ele>567.8</ele>
        <time>2019-08-07T14:39:21Z</time>
      </trkpt>
      <trkpt lat="48.7305060" lon="14.3402330">
        <ele>568.0</ele>
        <time>2019-08-07T14:39:22Z</time>
      </trkpt>
      <trkpt lat="48.7305300" lon="14.3402450">
        <ele>568.2</ele>
        <time>2019-08-07T14:39:23Z</time>
      </trkpt>
      <trkpt lat="48.7305450" lon="14.3402520">
        <ele>568.4</ele>
        <time>2019-08-07T14:39:24Z</time>
      </trkpt>
      <trkpt lat="48.7305620" lon="14.3402580">
        <ele>568.6</ele>
        <time>2019-08-07T14:39:25Z</time>
      </trkpt>
      <trkpt lat="48.7305800" lon="14.3402650">
        <ele>569.0</ele>
        <time>2019-08-07T14:39:26Z</time>
      </trkpt>
      <trkpt lat="48.7305960" lon="14.3402730">
        <ele>569.2</ele>
        <time>2019-08-07T14:39:27Z</time>
      </trkpt>
      <trkpt lat="48.7306090" lon="14.3402800">
        <ele>569.4</ele>
        <time>2019-08-07T14:39:28Z</time>
      </trkpt>
      <trkpt lat="48.7306210" lon="14.3402840">
        <ele>569.6</ele>
        <time>2019-08-07T14:39:29Z</time>
      </trkpt>
      <trkpt lat="48.7306340" lon="14.3402850">
        <ele>569.8</ele>
        <time>2019-08-07T14:39:30Z</time>
      </trkpt>
      <trkpt lat="48.7306510" lon="14.3402860">
        <ele>570.0</ele>
        <time>2019-08-07T14:39:31Z</time>
      </trkpt>
      <trkpt lat="48.7306640" lon="14.3402900">
        <ele>570.2</ele>
        <time>2019-08-07T14:39:32Z</time>
      </trkpt>
      <trkpt lat="48.7306770" lon="14.3402970">
        <ele>570.4</ele>
        <time>2019-08-07T14:39:33Z</time>
      </trkpt>
      <trkpt lat="48.7306870" lon="14.3403040">
        <ele>570.6</ele>
        <time>2019-08-07T14:39:34Z</time>
      </trkpt>
      <trkpt lat="48.7306970" lon="14.3403070">
        <ele>571.0</ele>
        <time>2019-08-07T14:39:35Z</time>
      </trkpt>
      <trkpt lat="48.7307090" lon="14.3403110">
        <ele>571.2</ele>
        <time>2019-08-07T14:39:36Z</time>
      </trkpt>
      <trkpt lat="48.7307180" lon="14.3403150">
        <ele>571.4</ele>
        <time>2019-08-07T14:39:37Z</time>
      </trkpt>
      <trkpt lat="48.7307250" lon="14.3403170">
        <ele>571.6</ele>
        <time>2019-08-07T14:39:38Z</time>
      </trkpt>
      <trkpt lat="48.7307490" lon="14.3403240">
        <ele>571.8</ele>
        <time>2019-08-07T14:39:39Z</time>
      </trkpt>
      <trkpt lat="48.7307610" lon="14.3403360">
        <ele>572.0</ele>
        <time>2019-08-07T14:39:40Z</time>
      </trkpt>
      <trkpt lat="48.7307710" lon="14.3403470">
        <ele>572.2</ele>
        <time>2019-08-07T14:39:41Z</time>
      </trkpt>
      <trkpt lat="48.7307830" lon="14.3403550">
        <ele>572.6</ele>
        <time>2019-08-07T14:39:42Z</time>
      </trkpt>
      <trkpt lat="48.7307960" lon="14.3403650">
        <ele>572.8</ele>
        <time>2019-08-07T14:39:43Z</time>
      </trkpt>
      <trkpt lat="48.7308090" lon="14.3403730">
        <ele>573.0</ele>
        <time>2019-08-07T14:39:44Z</time>
      </trkpt>
      <trkpt lat="48.7308240" lon="14.3403780">
        <ele>573.2</ele>
        <time>2019-08-07T14:39:45Z</time>
      </trkpt>
      <trkpt lat="48.7308370" lon="14.3403800">
        <ele>573.4</ele>
        <time>2019-08-07T14:39:46Z</time>
      </trkpt>
      <trkpt lat="48.7308470" lon="14.3403880">
        <ele>573.6</ele>
        <time>2019-08-07T14:39:47Z</time>
      </trkpt>
      <trkpt lat="48.7308590" lon="14.3403930">
        <ele>574.0</ele>
        <time>2019-08-07T14:39:48Z</time>
      </trkpt>
      <trkpt lat="48.7308670" lon="14.3403980">
        <ele>574.2</ele>
        <time>2019-08-07T14:39:49Z</time>
      </trkpt>
      <trkpt lat="48.7308670" lon="14.3403980">
        <ele>574.4</ele>
        <time>2019-08-07T14:39:50Z</time>
      </trkpt>
      <trkpt lat="48.7308670" lon="14.3403980">
        <ele>574.6</ele>
        <time>2019-08-07T14:39:51Z</time>
      </trkpt>
      <trkpt lat="48.7308670" lon="14.3403980">
        <ele>574.8</ele>
        <time>2019-08-07T14:39:52Z</time>
      </trkpt>
      <trkpt lat="48.7308670" lon="14.3403980">
        <ele>575.0</ele>
        <time>2019-08-07T14:39:53Z</time>
      </trkpt>
      <trkpt lat="48.7308670" lon="14.3403980">
        <ele>575.4</ele>
        <time>2019-08-07T14:39:54Z</time>
      </trkpt>
      <trkpt lat="48.7308670" lon="14.3403980">
        <ele>575.6</ele>
        <time>2019-08-07T14:39:55Z</time>
      </trkpt>
      <trkpt lat="48.7308670" lon="14.3403980">
        <ele>575.8</ele>
        <time>2019-08-07T14:39:56Z</time>
      </trkpt>
      <trkpt lat="48.7308670" lon="14.3403980">
        <ele>576.0</ele>
        <time>2019-08-07T14:39:57Z</time>
      </trkpt>
      <trkpt lat="48.7308880" lon="14.3404090">
        <ele>576.2</ele>
        <time>2019-08-07T14:39:58Z</time>
      </trkpt>
      <trkpt lat="48.7309640" lon="14.3404470">
        <ele>576.4</ele>
        <time>2019-08-07T14:39:59Z</time>
      </trkpt>
      <trkpt lat="48.7309800" lon="14.3404580">
        <ele>576.8</ele>
        <time>2019-08-07T14:40:00Z</time>
      </trkpt>
      <trkpt lat="48.7309990" lon="14.3404760">
        <ele>577.0</ele>
        <time>2019-08-07T14:40:01Z</time>
      </trkpt>
      <trkpt lat="48.7310200" lon="14.3404930">
        <ele>577.2</ele>
        <time>2019-08-07T14:40:02Z</time>
      </trkpt>
      <trkpt lat="48.7310370" lon="14.3405080">
        <ele>577.4</ele>
        <time>2019-08-07T14:40:03Z</time>
      </trkpt>
      <trkpt lat="48.7310550" lon="14.3405240">
        <ele>577.8</ele>
        <time>2019-08-07T14:40:04Z</time>
      </trkpt>
      <trkpt lat="48.7310680" lon="14.3405420">
        <ele>578.0</ele>
        <time>2019-08-07T14:40:05Z</time>
      </trkpt>
      <trkpt lat="48.7310830" lon="14.3405560">
        <ele>578.2</ele>
        <time>2019-08-07T14:40:06Z</time>
      </trkpt>
      <trkpt lat="48.7311010" lon="14.3405690">
        <ele>578.6</ele>
        <time>2019-08-07T14:40:07Z</time>
      </trkpt>
      <trkpt lat="48.7311190" lon="14.3405780">
        <ele>578.8</ele>
        <time>2019-08-07T14:40:08Z</time>
      </trkpt>
      <trkpt lat="48.7311370" lon="14.3405830">
        <ele>579.0</ele>
        <time>2019-08-07T14:40:09Z</time>
      </trkpt>
      <trkpt lat="48.7311520" lon="14.3405920">
        <ele>579.4</ele>
        <time>2019-08-07T14:40:10Z</time>
      </trkpt>
      <trkpt lat="48.7311710" lon="14.3406040">
        <ele>579.6</ele>
        <time>2019-08-07T14:40:11Z</time>
      </trkpt>
      <trkpt lat="48.7311820" lon="14.3406150">
        <ele>579.8</ele>
        <time>2019-08-07T14:40:12Z</time>
      </trkpt>
      <trkpt lat="48.7311920" lon="14.3406320">
        <ele>580.2</ele>
        <time>2019-08-07T14:40:13Z</time>
      </trkpt>
      <trkpt lat="48.7312000" lon="14.3406430">
        <ele>580.4</ele>
        <time>2019-08-07T14:40:14Z</time>
      </trkpt>
      <trkpt lat="48.7312000" lon="14.3406430">
        <ele>580.6</ele>
        <time>2019-08-07T14:40:15Z</time>
      </trkpt>
      <trkpt lat="48.7312080" lon="14.3406520">
        <ele>580.8</ele>
        <time>2019-08-07T14:40:16Z</time>
      </trkpt>
      <trkpt lat="48.7312390" lon="14.3406870">
        <ele>581.2</ele>
        <time>2019-08-07T14:40:17Z</time>
      </trkpt>
      <trkpt lat="48.7312500" lon="14.3407010">
        <ele>581.4</ele>
        <time>2019-08-07T14:40:18Z</time>
      </trkpt>
      <trkpt lat="48.7312670" lon="14.3407100">
        <ele>581.6</ele>
        <time>2019-08-07T14:40:19Z</time>
      </trkpt>
      <trkpt lat="48.7312810" lon="14.3407190">
        <ele>581.8</ele>
        <time>2019-08-07T14:40:20Z</time>
      </trkpt>
      <trkpt lat="48.7312940" lon="14.3407300">
        <ele>582.0</ele>
        <time>2019-08-07T14:40:21Z</time>
      </trkpt>
      <trkpt lat="48.7313030" lon="14.3407380">
        <ele>582.2</ele>
        <time>2019-08-07T14:40:22Z</time>
      </trkpt>
      <trkpt lat="48.7313080" lon="14.3407450">
        <ele>582.4</ele>
        <time>2019-08-07T14:40:23Z</time>
      </trkpt>
      <trkpt lat="48.7313310" lon="14.3407720">
        <ele>582.8</ele>
        <time>2019-08-07T14:40:24Z</time>
      </trkpt>
      <trkpt lat="48.7313470" lon="14.3407820">
        <ele>583.0</ele>
        <time>2019-08-07T14:40:25Z</time>
      </trkpt>
      <trkpt lat="48.7313600" lon="14.3407920">
        <ele>583.2</ele>
        <time>2019-08-07T14:40:26Z</time>
      </trkpt>
      <trkpt lat="48.7313760" lon="14.3408040">
        <ele>583.4</ele>
        <time>2019-08-07T14:40:27Z</time>
      </trkpt>
      <trkpt lat="48.7313920" lon="14.3408160">
        <ele>583.6</ele>
        <time>2019-08-07T14:40:28Z</time>
      </trkpt>
      <trkpt lat="48.7314060" lon="14.3408270">
        <ele>583.8</ele>
        <time>2019-08-07T14:40:29Z</time>
      </trkpt>
      <trkpt lat="48.7314160" lon="14.3408350">
        <ele>584.0</ele>
        <time>2019-08-07T14:40:30Z</time>
      </trkpt>
      <trkpt lat="48.7314390" lon="14.3408330">
        <ele>584.2</ele>
        <time>2019-08-07T14:40:31Z</time>
      </trkpt>
      <trkpt lat="48.7314570" lon="14.3408380">
        <ele>584.4</ele>
        <time>2019-08-07T14:40:32Z</time>
      </trkpt>
      <trkpt lat="48.7314730" lon="14.3408380">
        <ele>584.6</ele>
        <time>2019-08-07T14:40:33Z</time>
      </trkpt>
      <trkpt lat="48.7314880" lon="14.3408450">
        <ele>584.8</ele>
        <time>2019-08-07T14:40:34Z</time>
      </trkpt>
      <trkpt lat="48.7315040" lon="14.3408500">
        <ele>585.0</ele>
        <time>2019-08-07T14:40:35Z</time>
      </trkpt>
      <trkpt lat="48.7315240" lon="14.3408500">
        <ele>585.2</ele>
        <time>2019-08-07T14:40:36Z</time>
      </trkpt>
      <trkpt lat="48.7315440" lon="14.3408520">
        <ele>585.4</ele>
        <time>2019-08-07T14:40:37Z</time>
      </trkpt>
      <trkpt lat="48.7315640" lon="14.3408560">
        <ele>585.6</ele>
        <time>2019-08-07T14:40:38Z</time>
      </trkpt>
      <trkpt lat="48.7315800" lon="14.3408640">
        <ele>585.8</ele>
        <time>2019-08-07T14:40:39Z</time>
      </trkpt>
      <trkpt lat="48.7315960" lon="14.3408700">
        <ele>586.0</ele>
        <time>2019-08-07T14:40:40Z</time>
      </trkpt>
      <trkpt lat="48.7316140" lon="14.3408720">
        <ele>586.2</ele>
        <time>2019-08-07T14:40:41Z</time>
      </trkpt>
      <trkpt lat="48.7316340" lon="14.3408760">
        <ele>586.4</ele>
        <time>2019-08-07T14:40:42Z</time>
      </trkpt>
      <trkpt lat="48.7316520" lon="14.3408780">
        <ele>586.6</ele>
        <time>2019-08-07T14:40:43Z</time>
      </trkpt>
      <trkpt lat="48.7316750" lon="14.3408790">
        <ele>586.6</ele>
        <time>2019-08-07T14:40:44Z</time>
      </trkpt>
      <trkpt lat="48.7316910" lon="14.3408820">
        <ele>586.8</ele>
        <time>2019-08-07T14:40:45Z</time>
      </trkpt>
      <trkpt lat="48.7317040" lon="14.3408820">
        <ele>587.0</ele>
        <time>2019-08-07T14:40:46Z</time>
      </trkpt>
      <trkpt lat="48.7317150" lon="14.3408830">
        <ele>587.2</ele>
        <time>2019-08-07T14:40:47Z</time>
      </trkpt>
      <trkpt lat="48.7317270" lon="14.3408830">
        <ele>587.4</ele>
        <time>2019-08-07T14:40:48Z</time>
      </trkpt>
      <trkpt lat="48.7317350" lon="14.3408840">
        <ele>587.6</ele>
        <time>2019-08-07T14:40:49Z</time>
      </trkpt>
      <trkpt lat="48.7317670" lon="14.3408850">
        <ele>587.8</ele>
        <time>2019-08-07T14:40:50Z</time>
      </trkpt>
      <trkpt lat="48.7317910" lon="14.3408820">
        <ele>588.2</ele>
        <time>2019-08-07T14:40:51Z</time>
      </trkpt>
      <trkpt lat="48.7318110" lon="14.3408780">
        <ele>588.4</ele>
        <time>2019-08-07T14:40:52Z</time>
      </trkpt>
      <trkpt lat="48.7318290" lon="14.3408730">
        <ele>588.6</ele>
        <time>2019-08-07T14:40:53Z</time>
      </trkpt>
      <trkpt lat="48.7318460" lon="14.3408650">
        <ele>588.8</ele>
        <time>2019-08-07T14:40:54Z</time>
      </trkpt>
      <trkpt lat="48.7318630" lon="14.3408560">
        <ele>589.0</ele>
        <time>2019-08-07T14:40:55Z</time>
      </trkpt>
      <trkpt lat="48.7318800" lon="14.3408540">
        <ele>589.2</ele>
        <time>2019-08-07T14:40:56Z</time>
      </trkpt>
      <trkpt lat="48.7319010" lon="14.3408510">
        <ele>589.4</ele>
        <time>2019-08-07T14:40:57Z</time>
      </trkpt>
      <trkpt lat="48.7319200" lon="14.3408490">
        <ele>589.8</ele>
        <time>2019-08-07T14:40:58Z</time>
      </trkpt>
      <trkpt lat="48.7319380" lon="14.3408500">
        <ele>590.0</ele>
        <time>2019-08-07T14:40:59Z</time>
      </trkpt>
      <trkpt lat="48.7319550" lon="14.3408500">
        <ele>590.2</ele>
        <time>2019-08-07T14:41:00Z</time>
      </trkpt>
      <trkpt lat="48.7319720" lon="14.3408510">
        <ele>590.4</ele>
        <time>2019-08-07T14:41:01Z</time>
      </trkpt>
      <trkpt lat="48.7319920" lon="14.3408490">
        <ele>590.6</ele>
        <time>2019-08-07T14:41:02Z</time>
      </trkpt>
      <trkpt lat="48.7320110" lon="14.3408420">
        <ele>591.0</ele>
        <time>2019-08-07T14:41:03Z</time>
      </trkpt>
      <trkpt lat="48.7320290" lon="14.3408370">
        <ele>591.2</ele>
        <time>2019-08-07T14:41:04Z</time>
      </trkpt>
      <trkpt lat="48.7320460" lon="14.3408370">
        <ele>591.4</ele>
        <time>2019-08-07T14:41:05Z</time>
      </trkpt>
      <trkpt lat="48.7320640" lon="14.3408370">
        <ele>591.6</ele>
        <time>2019-08-07T14:41:06Z</time>
      </trkpt>
      <trkpt lat="48.7320840" lon="14.3408380">
        <ele>591.6</ele>
        <time>2019-08-07T14:41:07Z</time>
      </trkpt>
      <trkpt lat="48.7321040" lon="14.3408380">
        <ele>591.8</ele>
        <time>2019-08-07T14:41:08Z</time>
      </trkpt>
      <trkpt lat="48.7321220" lon="14.3408380">
        <ele>592.0</ele>
        <time>2019-08-07T14:41:09Z</time>
      </trkpt>
      <trkpt lat="48.7321380" lon="14.3408360">
        <ele>592.2</ele>
        <time>2019-08-07T14:41:10Z</time>
      </trkpt>
      <trkpt lat="48.7321570" lon="14.3408320">
        <ele>592.4</ele>
        <time>2019-08-07T14:41:11Z</time>
      </trkpt>
      <trkpt lat="48.7321760" lon="14.3408260">
        <ele>592.4</ele>
        <time>2019-08-07T14:41:12Z</time>
      </trkpt>
      <trkpt lat="48.7321940" lon="14.3408210">
        <ele>592.6</ele>
        <time>2019-08-07T14:41:13Z</time>
      </trkpt>
      <trkpt lat="48.7322150" lon="14.3408160">
        <ele>592.6</ele>
        <time>2019-08-07T14:41:14Z</time>
      </trkpt>
      <trkpt lat="48.7322380" lon="14.3408150">
        <ele>592.8</ele>
        <time>2019-08-07T14:41:15Z</time>
      </trkpt>
      <trkpt lat="48.7322590" lon="14.3408130">
        <ele>593.0</ele>
        <time>2019-08-07T14:41:16Z</time>
      </trkpt>
      <trkpt lat="48.7322770" lon="14.3408100">
        <ele>593.0</ele>
        <time>2019-08-07T14:41:17Z</time>
      </trkpt>
      <trkpt lat="48.7323000" lon="14.3408050">
        <ele>593.2</ele>
        <time>2019-08-07T14:41:18Z</time>
      </trkpt>
      <trkpt lat="48.7323230" lon="14.3408050">
        <ele>593.2</ele>
        <time>2019-08-07T14:41:19Z</time>
      </trkpt>
      <trkpt lat="48.7323450" lon="14.3408070">
        <ele>593.4</ele>
        <time>2019-08-07T14:41:20Z</time>
      </trkpt>
      <trkpt lat="48.7323660" lon="14.3408070">
        <ele>593.4</ele>
        <time>2019-08-07T14:41:21Z</time>
      </trkpt>
      <trkpt lat="48.7323880" lon="14.3408060">
        <ele>593.6</ele>
        <time>2019-08-07T14:41:22Z</time>
      </trkpt>
      <trkpt lat="48.7324110" lon="14.3408050">
        <ele>593.6</ele>
        <time>2019-08-07T14:41:23Z</time>
      </trkpt>
      <trkpt lat="48.7324310" lon="14.3408050">
        <ele>593.6</ele>
        <time>2019-08-07T14:41:24Z</time>
      </trkpt>
      <trkpt lat="48.7324490" lon="14.3408030">
        <ele>593.8</ele>
        <time>2019-08-07T14:41:25Z</time>
      </trkpt>
      <trkpt lat="48.7324690" lon="14.3408010">
        <ele>593.8</ele>
        <time>2019-08-07T14:41:26Z</time>
      </trkpt>
      <trkpt lat="48.7324880" lon="14.3407970">
        <ele>594.0</ele>
        <time>2019-08-07T14:41:27Z</time>
      </trkpt>
      <trkpt lat="48.7325130" lon="14.3407930">
        <ele>594.2</ele>
        <time>2019-08-07T14:41:28Z</time>
      </trkpt>
      <trkpt lat="48.7325320" lon="14.3407890">
        <ele>594.2</ele>
        <time>2019-08-07T14:41:29Z</time>
      </trkpt>
      <trkpt lat="48.7325540" lon="14.3407860">
        <ele>594.4</ele>
        <time>2019-08-07T14:41:30Z</time>
      </trkpt>
      <trkpt lat="48.7325780" lon="14.3407820">
        <ele>594.6</ele>
        <time>2019-08-07T14:41:31Z</time>
      </trkpt>
      <trkpt lat="48.7325990" lon="14.3407760">
        <ele>594.6</ele>
        <time>2019-08-07T14:41:32Z</time>
      </trkpt>
      <trkpt lat="48.7326190" lon="14.3407660">
        <ele>594.8</ele>
        <time>2019-08-07T14:41:33Z</time>
      </trkpt>
      <trkpt lat="48.7326380" lon="14.3407590">
        <ele>595.0</ele>
        <time>2019-08-07T14:41:34Z</time>
      </trkpt>
      <trkpt lat="48.7326600" lon="14.3407530">
        <ele>595.2</ele>
        <time>2019-08-07T14:41:35Z</time>
      </trkpt>
      <trkpt lat="48.7326830" lon="14.3407440">
        <ele>595.4</ele>
        <time>2019-08-07T14:41:36Z</time>
      </trkpt>
      <trkpt lat="48.7327060" lon="14.3407330">
        <ele>595.6</ele>
        <time>2019-08-07T14:41:37Z</time>
      </trkpt>
      <trkpt lat="48.7327300" lon="14.3407240">
        <ele>595.8</ele>
        <time>2019-08-07T14:41:38Z</time>
      </trkpt>
      <trkpt lat="48.7327520" lon="14.3407100">
        <ele>596.2</ele>
        <time>2019-08-07T14:41:39Z</time>
      </trkpt>
      <trkpt lat="48.7327720" lon="14.3406970">
        <ele>596.4</ele>
        <time>2019-08-07T14:41:40Z</time>
      </trkpt>
      <trkpt lat="48.7327920" lon="14.3406810">
        <ele>596.6</ele>
        <time>2019-08-07T14:41:41Z</time>
      </trkpt>
      <trkpt lat="48.7328120" lon="14.3406620">
        <ele>596.8</ele>
        <time>2019-08-07T14:41:42Z</time>
      </trkpt>
      <trkpt lat="48.7328270" lon="14.3406400">
        <ele>597.0</ele>
        <time>2019-08-07T14:41:43Z</time>
      </trkpt>
      <trkpt lat="48.7328440" lon="14.3406190">
        <ele>597.2</ele>
        <time>2019-08-07T14:41:44Z</time>
      </trkpt>
      <trkpt lat="48.7328600" lon="14.3405970">
        <ele>597.4</ele>
        <time>2019-08-07T14:41:45Z</time>
      </trkpt>
      <trkpt lat="48.7328770" lon="14.3405780">
        <ele>597.8</ele>
        <time>2019-08-07T14:41:46Z</time>
      </trkpt>
      <trkpt lat="48.7328930" lon="14.3405580">
        <ele>598.0</ele>
        <time>2019-08-07T14:41:47Z</time>
      </trkpt>
      <trkpt lat="48.7329120" lon="14.3405400">
        <ele>598.2</ele>
        <time>2019-08-07T14:41:48Z</time>
      </trkpt>
      <trkpt lat="48.7329290" lon="14.3405230">
        <ele>598.4</ele>
        <time>2019-08-07T14:41:49Z</time>
      </trkpt>
      <trkpt lat="48.7329450" lon="14.3405060">
        <ele>598.6</ele>
        <time>2019-08-07T14:41:50Z</time>
      </trkpt>
      <trkpt lat="48.7329600" lon="14.3404890">
        <ele>598.8</ele>
        <time>2019-08-07T14:41:51Z</time>
      </trkpt>
      <trkpt lat="48.7329770" lon="14.3404700">
        <ele>599.0</ele>
        <time>2019-08-07T14:41:52Z</time>
      </trkpt>
      <trkpt lat="48.7329930" lon="14.3404530">
        <ele>599.2</ele>
        <time>2019-08-07T14:41:53Z</time>
      </trkpt>
      <trkpt lat="48.7330100" lon="14.3404350">
        <ele>599.2</ele>
        <time>2019-08-07T14:41:54Z</time>
      </trkpt>
      <trkpt lat="48.7330270" lon="14.3404180">
        <ele>599.4</ele>
        <time>2019-08-07T14:41:55Z</time>
      </trkpt>
      <trkpt lat="48.7330450" lon="14.3403990">
        <ele>599.6</ele>
        <time>2019-08-07T14:41:56Z</time>
      </trkpt>
      <trkpt lat="48.7330620" lon="14.3403780">
        <ele>599.8</ele>
        <time>2019-08-07T14:41:57Z</time>
      </trkpt>
      <trkpt lat="48.7330780" lon="14.3403580">
        <ele>599.8</ele>
        <time>2019-08-07T14:41:58Z</time>
      </trkpt>
      <trkpt lat="48.7330930" lon="14.3403360">
        <ele>600.0</ele>
        <time>2019-08-07T14:41:59Z</time>
      </trkpt>
      <trkpt lat="48.7331090" lon="14.3403140">
        <ele>600.0</ele>
        <time>2019-08-07T14:42:00Z</time>
      </trkpt>
      <trkpt lat="48.7331270" lon="14.3402960">
        <ele>600.2</ele>
        <time>2019-08-07T14:42:01Z</time>
      </trkpt>
      <trkpt lat="48.7331440" lon="14.3402760">
        <ele>600.2</ele>
        <time>2019-08-07T14:42:02Z</time>
      </trkpt>
      <trkpt lat="48.7331620" lon="14.3402570">
        <ele>600.4</ele>
        <time>2019-08-07T14:42:03Z</time>
      </trkpt>
      <trkpt lat="48.7331790" lon="14.3402420">
        <ele>600.4</ele>
        <time>2019-08-07T14:42:04Z</time>
      </trkpt>
      <trkpt lat="48.7331970" lon="14.3402290">
        <ele>600.6</ele>
        <time>2019-08-07T14:42:05Z</time>
      </trkpt>
      <trkpt lat="48.7332150" lon="14.3402180">
        <ele>600.6</ele>
        <time>2019-08-07T14:42:06Z</time>
      </trkpt>
      <trkpt lat="48.7332330" lon="14.3402090">
        <ele>600.8</ele>
        <time>2019-08-07T14:42:07Z</time>
      </trkpt>
      <trkpt lat="48.7332520" lon="14.3402000">
        <ele>600.8</ele>
        <time>2019-08-07T14:42:08Z</time>
      </trkpt>
      <trkpt lat="48.7332700" lon="14.3401910">
        <ele>601.0</ele>
        <time>2019-08-07T14:42:09Z</time>
      </trkpt>
      <trkpt lat="48.7332870" lon="14.3401810">
        <ele>601.0</ele>
        <time>2019-08-07T14:42:10Z</time>
      </trkpt>
      <trkpt lat="48.7333050" lon="14.3401680">
        <ele>601.2</ele>
        <time>2019-08-07T14:42:11Z</time>
      </trkpt>
      <trkpt lat="48.7333220" lon="14.3401580">
        <ele>601.4</ele>
        <time>2019-08-07T14:42:12Z</time>
      </trkpt>
      <trkpt lat="48.7333390" lon="14.3401460">
        <ele>601.4</ele>
        <time>2019-08-07T14:42:13Z</time>
      </trkpt>
      <trkpt lat="48.7333570" lon="14.3401360">
        <ele>601.6</ele>
        <time>2019-08-07T14:42:14Z</time>
      </trkpt>
      <trkpt lat="48.7333740" lon="14.3401270">
        <ele>601.6</ele>
        <time>2019-08-07T14:42:15Z</time>
      </trkpt>
      <trkpt lat="48.7333930" lon="14.3401210">
        <ele>601.8</ele>
        <time>2019-08-07T14:42:16Z</time>
      </trkpt>
      <trkpt lat="48.7334130" lon="14.3401140">
        <ele>601.8</ele>
        <time>2019-08-07T14:42:17Z</time>
      </trkpt>
      <trkpt lat="48.7334330" lon="14.3401050">
        <ele>602.0</ele>
        <time>2019-08-07T14:42:18Z</time>
      </trkpt>
      <trkpt lat="48.7334520" lon="14.3400960">
        <ele>602.0</ele>
        <time>2019-08-07T14:42:19Z</time>
      </trkpt>
      <trkpt lat="48.7334690" lon="14.3400850">
        <ele>602.2</ele>
        <time>2019-08-07T14:42:20Z</time>
      </trkpt>
      <trkpt lat="48.7334870" lon="14.3400730">
        <ele>602.4</ele>
        <time>2019-08-07T14:42:21Z</time>
      </trkpt>
      <trkpt lat="48.7335040" lon="14.3400650">
        <ele>602.4</ele>
        <time>2019-08-07T14:42:22Z</time>
      </trkpt>
      <trkpt lat="48.7335230" lon="14.3400550">
        <ele>602.6</ele>
        <time>2019-08-07T14:42:23Z</time>
      </trkpt>
      <trkpt lat="48.7335390" lon="14.3400440">
        <ele>602.8</ele>
        <time>2019-08-07T14:42:24Z</time>
      </trkpt>
      <trkpt lat="48.7335550" lon="14.3400330">
        <ele>602.8</ele>
        <time>2019-08-07T14:42:25Z</time>
      </trkpt>
      <trkpt lat="48.7335710" lon="14.3400220">
        <ele>603.0</ele>
        <time>2019-08-07T14:42:26Z</time>
      </trkpt>
      <trkpt lat="48.7335850" lon="14.3400160">
        <ele>603.0</ele>
        <time>2019-08-07T14:42:27Z</time>
      </trkpt>
      <trkpt lat="48.7336030" lon="14.3400080">
        <ele>603.2</ele>
        <time>2019-08-07T14:42:28Z</time>
      </trkpt>
      <trkpt lat="48.7336210" lon="14.3400010">
        <ele>603.4</ele>
        <time>2019-08-07T14:42:29Z</time>
      </trkpt>
      <trkpt lat="48.7336390" lon="14.3399960">
        <ele>603.6</ele>
        <time>2019-08-07T14:42:30Z</time>
      </trkpt>
      <trkpt lat="48.7336560" lon="14.3399910">
        <ele>603.6</ele>
        <time>2019-08-07T14:42:31Z</time>
      </trkpt>
      <trkpt lat="48.7336710" lon="14.3399900">
        <ele>603.8</ele>
        <time>2019-08-07T14:42:32Z</time>
      </trkpt>
      <trkpt lat="48.7336840" lon="14.3399880">
        <ele>604.0</ele>
        <time>2019-08-07T14:42:33Z</time>
      </trkpt>
      <trkpt lat="48.7336980" lon="14.3399860">
        <ele>604.0</ele>
        <time>2019-08-07T14:42:34Z</time>
      </trkpt>
      <trkpt lat="48.7337150" lon="14.3399820">
        <ele>604.2</ele>
        <time>2019-08-07T14:42:35Z</time>
      </trkpt>
      <trkpt lat="48.7337310" lon="14.3399760">
        <ele>604.4</ele>
        <time>2019-08-07T14:42:36Z</time>
      </trkpt>
      <trkpt lat="48.7337470" lon="14.3399700">
        <ele>604.6</ele>
        <time>2019-08-07T14:42:37Z</time>
      </trkpt>
      <trkpt lat="48.7337610" lon="14.3399610">
        <ele>604.8</ele>
        <time>2019-08-07T14:42:38Z</time>
      </trkpt>
      <trkpt lat="48.7337750" lon="14.3399530">
        <ele>605.0</ele>
        <time>2019-08-07T14:42:39Z</time>
      </trkpt>
      <trkpt lat="48.7337900" lon="14.3399460">
        <ele>605.0</ele>
        <time>2019-08-07T14:42:40Z</time>
      </trkpt>
      <trkpt lat="48.7338050" lon="14.3399380">
        <ele>605.2</ele>
        <time>2019-08-07T14:42:41Z</time>
      </trkpt>
      <trkpt lat="48.7338200" lon="14.3399300">
        <ele>605.4</ele>
        <time>2019-08-07T14:42:42Z</time>
      </trkpt>
      <trkpt lat="48.7338330" lon="14.3399200">
        <ele>605.6</ele>
        <time>2019-08-07T14:42:43Z</time>
      </trkpt>
      <trkpt lat="48.7338480" lon="14.3399100">
        <ele>605.8</ele>
        <time>2019-08-07T14:42:44Z</time>
      </trkpt>
      <trkpt lat="48.7338640" lon="14.3399010">
        <ele>606.0</ele>
        <time>2019-08-07T14:42:45Z</time>
      </trkpt>
      <trkpt lat="48.7338800" lon="14.3398910">
        <ele>606.2</ele>
        <time>2019-08-07T14:42:46Z</time>
      </trkpt>
      <trkpt lat="48.7338970" lon="14.3398830">
        <ele>606.4</ele>
        <time>2019-08-07T14:42:47Z</time>
      </trkpt>
      <trkpt lat="48.7339120" lon="14.3398750">
        <ele>606.8</ele>
        <time>2019-08-07T14:42:48Z</time>
      </trkpt>
      <trkpt lat="48.7339270" lon="14.3398660">
        <ele>607.0</ele>
        <time>2019-08-07T14:42:49Z</time>
      </trkpt>
      <trkpt lat="48.7339440" lon="14.3398550">
        <ele>607.2</ele>
        <time>2019-08-07T14:42:50Z</time>
      </trkpt>
      <trkpt lat="48.7339600" lon="14.3398430">
        <ele>607.6</ele>
        <time>2019-08-07T14:42:51Z</time>
      </trkpt>
      <trkpt lat="48.7339770" lon="14.3398350">
        <ele>607.8</ele>
        <time>2019-08-07T14:42:52Z</time>
      </trkpt>
      <trkpt lat="48.7339960" lon="14.3398260">
        <ele>608.0</ele>
        <time>2019-08-07T14:42:53Z</time>
      </trkpt>
      <trkpt lat="48.7340140" lon="14.3398160">
        <ele>608.4</ele>
        <time>2019-08-07T14:42:54Z</time>
      </trkpt>
      <trkpt lat="48.7340320" lon="14.3398060">
        <ele>608.6</ele>
        <time>2019-08-07T14:42:55Z</time>
      </trkpt>
      <trkpt lat="48.7340480" lon="14.3397940">
        <ele>608.8</ele>
        <time>2019-08-07T14:42:56Z</time>
      </trkpt>
      <trkpt lat="48.7340660" lon="14.3397830">
        <ele>609.2</ele>
        <time>2019-08-07T14:42:57Z</time>
      </trkpt>
      <trkpt lat="48.7340820" lon="14.3397750">
        <ele>609.4</ele>
        <time>2019-08-07T14:42:58Z</time>
      </trkpt>
      <trkpt lat="48.7340990" lon="14.3397670">
        <ele>609.6</ele>
        <time>2019-08-07T14:42:59Z</time>
      </trkpt>
      <trkpt lat="48.7341170" lon="14.3397610">
        <ele>610.0</ele>
        <time>2019-08-07T14:43:00Z</time>
      </trkpt>
      <trkpt lat="48.7341340" lon="14.3397560">
        <ele>610.2</ele>
        <time>2019-08-07T14:43:01Z</time>
      </trkpt>
      <trkpt lat="48.7341520" lon="14.3397510">
        <ele>610.4</ele>
        <time>2019-08-07T14:43:02Z</time>
      </trkpt>
      <trkpt lat="48.7341700" lon="14.3397460">
        <ele>610.8</ele>
        <time>2019-08-07T14:43:03Z</time>
      </trkpt>
      <trkpt lat="48.7341870" lon="14.3397380">
        <ele>611.0</ele>
        <time>2019-08-07T14:43:04Z</time>
      </trkpt>
      <trkpt lat="48.7342030" lon="14.3397300">
        <ele>611.2</ele>
        <time>2019-08-07T14:43:05Z</time>
      </trkpt>
      <trkpt lat="48.7342210" lon="14.3397230">
        <ele>611.4</ele>
        <time>2019-08-07T14:43:06Z</time>
      </trkpt>
      <trkpt lat="48.7342390" lon="14.3397170">
        <ele>611.6</ele>
        <time>2019-08-07T14:43:07Z</time>
      </trkpt>
      <trkpt lat="48.7342570" lon="14.3397120">
        <ele>611.8</ele>
        <time>2019-08-07T14:43:08Z</time>
      </trkpt>
      <trkpt lat="48.7342740" lon="14.3397050">
        <ele>612.0</ele>
        <time>2019-08-07T14:43:09Z</time>
      </trkpt>
      <trkpt lat="48.7342930" lon="14.3396990">
        <ele>612.2</ele>
        <time>2019-08-07T14:43:10Z</time>
      </trkpt>
      <trkpt lat="48.7343100" lon="14.3396940">
        <ele>612.6</ele>
        <time>2019-08-07T14:43:11Z</time>
      </trkpt>
      <trkpt lat="48.7343270" lon="14.3396910">
        <ele>612.8</ele>
        <time>2019-08-07T14:43:12Z</time>
      </trkpt>
      <trkpt lat="48.7343460" lon="14.3396850">
        <ele>613.0</ele>
        <time>2019-08-07T14:43:13Z</time>
      </trkpt>
      <trkpt lat="48.7343640" lon="14.3396790">
        <ele>613.2</ele>
        <time>2019-08-07T14:43:14Z</time>
      </trkpt>
      <trkpt lat="48.7343800" lon="14.3396720">
        <ele>613.4</ele>
        <time>2019-08-07T14:43:15Z</time>
      </trkpt>
      <trkpt lat="48.7343950" lon="14.3396650">
        <ele>613.6</ele>
        <time>2019-08-07T14:43:16Z</time>
      </trkpt>
      <trkpt lat="48.7344110" lon="14.3396570">
        <ele>613.8</ele>
        <time>2019-08-07T14:43:17Z</time>
      </trkpt>
      <trkpt lat="48.7344220" lon="14.3396470">
        <ele>614.0</ele>
        <time>2019-08-07T14:43:18Z</time>
      </trkpt>
      <trkpt lat="48.7344320" lon="14.3396340">
        <ele>614.2</ele>
        <time>2019-08-07T14:43:19Z</time>
      </trkpt>
      <trkpt lat="48.7344410" lon="14.3396250">
        <ele>614.4</ele>
        <time>2019-08-07T14:43:20Z</time>
      </trkpt>
      <trkpt lat="48.7344530" lon="14.3396170">
        <ele>614.8</ele>
        <time>2019-08-07T14:43:21Z</time>
      </trkpt>
      <trkpt lat="48.7344660" lon="14.3396130">
        <ele>615.0</ele>
        <time>2019-08-07T14:43:22Z</time>
      </trkpt>
      <trkpt lat="48.7344810" lon="14.3396090">
        <ele>615.2</ele>
        <time>2019-08-07T14:43:23Z</time>
      </trkpt>
      <trkpt lat="48.7344970" lon="14.3396060">
        <ele>615.4</ele>
        <time>2019-08-07T14:43:24Z</time>
      </trkpt>
      <trkpt lat="48.7345120" lon="14.3396020">
        <ele>615.6</ele>
        <time>2019-08-07T14:43:25Z</time>
      </trkpt>
      <trkpt lat="48.7345260" lon="14.3395970">
        <ele>615.8</ele>
        <time>2019-08-07T14:43:26Z</time>
      </trkpt>
      <trkpt lat="48.7345390" lon="14.3395910">
        <ele>616.2</ele>
        <time>2019-08-07T14:43:27Z</time>
      </trkpt>
      <trkpt lat="48.7345550" lon="14.3395830">
        <ele>616.4</ele>
        <time>2019-08-07T14:43:28Z</time>
      </trkpt>
      <trkpt lat="48.7345730" lon="14.3395730">
        <ele>616.6</ele>
        <time>2019-08-07T14:43:29Z</time>
      </trkpt>
      <trkpt lat="48.7345920" lon="14.3395630">
        <ele>616.8</ele>
        <time>2019-08-07T14:43:30Z</time>
      </trkpt>
      <trkpt lat="48.7346080" lon="14.3395570">
        <ele>617.0</ele>
        <time>2019-08-07T14:43:31Z</time>
      </trkpt>
      <trkpt lat="48.7346230" lon="14.3395500">
        <ele>617.4</ele>
        <time>2019-08-07T14:43:32Z</time>
      </trkpt>
      <trkpt lat="48.7346390" lon="14.3395430">
        <ele>617.6</ele>
        <time>2019-08-07T14:43:33Z</time>
      </trkpt>
      <trkpt lat="48.7346580" lon="14.3395330">
        <ele>617.8</ele>
        <time>2019-08-07T14:43:34Z</time>
      </trkpt>
      <trkpt lat="48.7346780" lon="14.3395240">
        <ele>618.0</ele>
        <time>2019-08-07T14:43:35Z</time>
      </trkpt>
      <trkpt lat="48.7346980" lon="14.3395130">
        <ele>618.2</ele>
        <time>2019-08-07T14:43:36Z</time>
      </trkpt>
      <trkpt lat="48.7347170" lon="14.3395030">
        <ele>618.4</ele>
        <time>2019-08-07T14:43:37Z</time>
      </trkpt>
      <trkpt lat="48.7347360" lon="14.3394940">
        <ele>618.6</ele>
        <time>2019-08-07T14:43:38Z</time>
      </trkpt>
      <trkpt lat="48.7347540" lon="14.3394840">
        <ele>618.8</ele>
        <time>2019-08-07T14:43:39Z</time>
      </trkpt>
      <trkpt lat="48.7347680" lon="14.3394750">
        <ele>619.0</ele>
        <time>2019-08-07T14:43:40Z</time>
      </trkpt>
      <trkpt lat="48.7347850" lon="14.3394690">
        <ele>619.2</ele>
        <time>2019-08-07T14:43:41Z</time>
      </trkpt>
      <trkpt lat="48.7348040" lon="14.3394630">
        <ele>619.2</ele>
        <time>2019-08-07T14:43:42Z</time>
      </trkpt>
      <trkpt lat="48.7348200" lon="14.3394540">
        <ele>619.4</ele>
        <time>2019-08-07T14:43:43Z</time>
      </trkpt>
      <trkpt lat="48.7348370" lon="14.3394430">
        <ele>619.4</ele>
        <time>2019-08-07T14:43:44Z</time>
      </trkpt>
      <trkpt lat="48.7348530" lon="14.3394310">
        <ele>619.6</ele>
        <time>2019-08-07T14:43:45Z</time>
      </trkpt>
      <trkpt lat="48.7348700" lon="14.3394180">
        <ele>619.6</ele>
        <time>2019-08-07T14:43:46Z</time>
      </trkpt>
      <trkpt lat="48.7348890" lon="14.3394030">
        <ele>619.8</ele>
        <time>2019-08-07T14:43:47Z</time>
      </trkpt>
      <trkpt lat="48.7349080" lon="14.3393860">
        <ele>619.8</ele>
        <time>2019-08-07T14:43:48Z</time>
      </trkpt>
      <trkpt lat="48.7349260" lon="14.3393730">
        <ele>619.8</ele>
        <time>2019-08-07T14:43:49Z</time>
      </trkpt>
      <trkpt lat="48.7349470" lon="14.3393620">
        <ele>619.8</ele>
        <time>2019-08-07T14:43:50Z</time>
      </trkpt>
      <trkpt lat="48.7349690" lon="14.3393500">
        <ele>619.8</ele>
        <time>2019-08-07T14:43:51Z</time>
      </trkpt>
      <trkpt lat="48.7349940" lon="14.3393350">
        <ele>619.8</ele>
        <time>2019-08-07T14:43:52Z</time>
      </trkpt>
      <trkpt lat="48.7350210" lon="14.3393180">
        <ele>619.8</ele>
        <time>2019-08-07T14:43:53Z</time>
      </trkpt>
      <trkpt lat="48.7350490" lon="14.3392990">
        <ele>619.8</ele>
        <time>2019-08-07T14:43:54Z</time>
      </trkpt>
      <trkpt lat="48.7350760" lon="14.3392790">
        <ele>619.8</ele>
        <time>2019-08-07T14:43:55Z</time>
      </trkpt>
      <trkpt lat="48.7351060" lon="14.3392550">
        <ele>619.8</ele>
        <time>2019-08-07T14:43:56Z</time>
      </trkpt>
      <trkpt lat="48.7351380" lon="14.3392320">
        <ele>619.8</ele>
        <time>2019-08-07T14:43:57Z</time>
      </trkpt>
      <trkpt lat="48.7351730" lon="14.3392060">
        <ele>619.6</ele>
        <time>2019-08-07T14:43:58Z</time>
      </trkpt>
      <trkpt lat="48.7352080" lon="14.3391820">
        <ele>619.6</ele>
        <time>2019-08-07T14:43:59Z</time>
      </trkpt>
      <trkpt lat="48.7352430" lon="14.3391530">
        <ele>619.6</ele>
        <time>2019-08-07T14:44:00Z</time>
      </trkpt>
      <trkpt lat="48.7352780" lon="14.3391180">
        <ele>619.4</ele>
        <time>2019-08-07T14:44:01Z</time>
      </trkpt>
      <trkpt lat="48.7353140" lon="14.3390850">
        <ele>619.4</ele>
        <time>2019-08-07T14:44:02Z</time>
      </trkpt>
      <trkpt lat="48.7353500" lon="14.3390540">
        <ele>619.4</ele>
        <time>2019-08-07T14:44:03Z</time>
      </trkpt>
      <trkpt lat="48.7353860" lon="14.3390280">
        <ele>619.2</ele>
        <time>2019-08-07T14:44:04Z</time>
      </trkpt>
      <trkpt lat="48.7354240" lon="14.3390010">
        <ele>619.2</ele>
        <time>2019-08-07T14:44:05Z</time>
      </trkpt>
      <trkpt lat="48.7354620" lon="14.3389740">
        <ele>619.2</ele>
        <time>2019-08-07T14:44:06Z</time>
      </trkpt>
      <trkpt lat="48.7355010" lon="14.3389490">
        <ele>619.0</ele>
        <time>2019-08-07T14:44:07Z</time>
      </trkpt>
      <trkpt lat="48.7355390" lon="14.3389220">
        <ele>619.0</ele>
        <time>2019-08-07T14:44:08Z</time>
      </trkpt>
      <trkpt lat="48.7355770" lon="14.3388950">
        <ele>619.0</ele>
        <time>2019-08-07T14:44:09Z</time>
      </trkpt>
      <trkpt lat="48.7356110" lon="14.3388710">
        <ele>618.8</ele>
        <time>2019-08-07T14:44:10Z</time>
      </trkpt>
      <trkpt lat="48.7356470" lon="14.3388520">
        <ele>618.8</ele>
        <time>2019-08-07T14:44:11Z</time>
      </trkpt>
      <trkpt lat="48.7356810" lon="14.3388390">
        <ele>618.8</ele>
        <time>2019-08-07T14:44:12Z</time>
      </trkpt>
      <trkpt lat="48.7357140" lon="14.3388300">
        <ele>618.8</ele>
        <time>2019-08-07T14:44:13Z</time>
      </trkpt>
      <trkpt lat="48.7357500" lon="14.3388220">
        <ele>618.8</ele>
        <time>2019-08-07T14:44:14Z</time>
      </trkpt>
      <trkpt lat="48.7357860" lon="14.3388110">
        <ele>618.6</ele>
        <time>2019-08-07T14:44:15Z</time>
      </trkpt>
      <trkpt lat="48.7358210" lon="14.3387990">
        <ele>618.6</ele>
        <time>2019-08-07T14:44:16Z</time>
      </trkpt>
      <trkpt lat="48.7358540" lon="14.3387880">
        <ele>618.6</ele>
        <time>2019-08-07T14:44:17Z</time>
      </trkpt>
      <trkpt lat="48.7358860" lon="14.3387820">
        <ele>618.6</ele>
        <time>2019-08-07T14:44:18Z</time>
      </trkpt>
      <trkpt lat="48.7359200" lon="14.3387750">
        <ele>618.6</ele>
        <time>2019-08-07T14:44:19Z</time>
      </trkpt>
      <trkpt lat="48.7359540" lon="14.3387690">
        <ele>618.6</ele>
        <time>2019-08-07T14:44:20Z</time>
      </trkpt>
      <trkpt lat="48.7359890" lon="14.3387620">
        <ele>618.8</ele>
        <time>2019-08-07T14:44:21Z</time>
      </trkpt>
      <trkpt lat="48.7360240" lon="14.3387550">
        <ele>618.8</ele>
        <time>2019-08-07T14:44:22Z</time>
      </trkpt>
      <trkpt lat="48.7360590" lon="14.3387460">
        <ele>618.8</ele>
        <time>2019-08-07T14:44:23Z</time>
      </trkpt>
      <trkpt lat="48.7360950" lon="14.3387380">
        <ele>619.0</ele>
        <time>2019-08-07T14:44:24Z</time>
      </trkpt>
      <trkpt lat="48.7361320" lon="14.3387270">
        <ele>619.0</ele>
        <time>2019-08-07T14:44:25Z</time>
      </trkpt>
      <trkpt lat="48.7361690" lon="14.3387160">
        <ele>619.0</ele>
        <time>2019-08-07T14:44:26Z</time>
      </trkpt>
      <trkpt lat="48.7362060" lon="14.3387070">
        <ele>619.0</ele>
        <time>2019-08-07T14:44:27Z</time>
      </trkpt>
      <trkpt lat="48.7362430" lon="14.3386970">
        <ele>619.0</ele>
        <time>2019-08-07T14:44:28Z</time>
      </trkpt>
      <trkpt lat="48.7362810" lon="14.3386860">
        <ele>619.0</ele>
        <time>2019-08-07T14:44:29Z</time>
      </trkpt>
      <trkpt lat="48.7363190" lon="14.3386770">
        <ele>619.0</ele>
        <time>2019-08-07T14:44:30Z</time>
      </trkpt>
      <trkpt lat="48.7363570" lon="14.3386700">
        <ele>619.0</ele>
        <time>2019-08-07T14:44:31Z</time>
      </trkpt>
      <trkpt lat="48.7363960" lon="14.3386600">
        <ele>619.0</ele>
        <time>2019-08-07T14:44:32Z</time>
      </trkpt>
      <trkpt lat="48.7364360" lon="14.3386440">
        <ele>619.0</ele>
        <time>2019-08-07T14:44:33Z</time>
      </trkpt>
      <trkpt lat="48.7364760" lon="14.3386240">
        <ele>619.0</ele>
        <time>2019-08-07T14:44:34Z</time>
      </trkpt>
      <trkpt lat="48.7365170" lon="14.3386030">
        <ele>619.0</ele>
        <time>2019-08-07T14:44:35Z</time>
      </trkpt>
      <trkpt lat="48.7365600" lon="14.3385800">
        <ele>618.8</ele>
        <time>2019-08-07T14:44:36Z</time>
      </trkpt>
      <trkpt lat="48.7366030" lon="14.3385570">
        <ele>618.8</ele>
        <time>2019-08-07T14:44:37Z</time>
      </trkpt>
      <trkpt lat="48.7366480" lon="14.3385360">
        <ele>618.6</ele>
        <time>2019-08-07T14:44:38Z</time>
      </trkpt>
      <trkpt lat="48.7366980" lon="14.3385160">
        <ele>618.6</ele>
        <time>2019-08-07T14:44:39Z</time>
      </trkpt>
      <trkpt lat="48.7367470" lon="14.3384970">
        <ele>618.6</ele>
        <time>2019-08-07T14:44:40Z</time>
      </trkpt>
      <trkpt lat="48.7367980" lon="14.3384780">
        <ele>618.4</ele>
        <time>2019-08-07T14:44:41Z</time>
      </trkpt>
      <trkpt lat="48.7368500" lon="14.3384580">
        <ele>618.2</ele>
        <time>2019-08-07T14:44:42Z</time>
      </trkpt>
      <trkpt lat="48.7369010" lon="14.3384350">
        <ele>618.2</ele>
        <time>2019-08-07T14:44:43Z</time>
      </trkpt>
      <trkpt lat="48.7369550" lon="14.3384110">
        <ele>618.0</ele>
        <time>2019-08-07T14:44:44Z</time>
      </trkpt>
      <trkpt lat="48.7370090" lon="14.3383870">
        <ele>618.0</ele>
        <time>2019-08-07T14:44:45Z</time>
      </trkpt>
      <trkpt lat="48.7370620" lon="14.3383640">
        <ele>617.8</ele>
        <time>2019-08-07T14:44:46Z</time>
      </trkpt>
      <trkpt lat="48.7371150" lon="14.3383400">
        <ele>617.8</ele>
        <time>2019-08-07T14:44:47Z</time>
      </trkpt>
      <trkpt lat="48.7371680" lon="14.3383140">
        <ele>617.8</ele>
        <time>2019-08-07T14:44:48Z</time>
      </trkpt>
      <trkpt lat="48.7372200" lon="14.3382870">
        <ele>617.8</ele>
        <time>2019-08-07T14:44:49Z</time>
      </trkpt>
      <trkpt lat="48.7372720" lon="14.3382590">
        <ele>617.6</ele>
        <time>2019-08-07T14:44:50Z</time>
      </trkpt>
      <trkpt lat="48.7373240" lon="14.3382360">
        <ele>617.6</ele>
        <time>2019-08-07T14:44:51Z</time>
      </trkpt>
      <trkpt lat="48.7373760" lon="14.3382190">
        <ele>617.4</ele>
        <time>2019-08-07T14:44:52Z</time>
      </trkpt>
      <trkpt lat="48.7374310" lon="14.3382090">
        <ele>617.4</ele>
        <time>2019-08-07T14:44:53Z</time>
      </trkpt>
      <trkpt lat="48.7374850" lon="14.3382060">
        <ele>617.2</ele>
        <time>2019-08-07T14:44:54Z</time>
      </trkpt>
      <trkpt lat="48.7375370" lon="14.3382020">
        <ele>617.2</ele>
        <time>2019-08-07T14:44:55Z</time>
      </trkpt>
      <trkpt lat="48.7375890" lon="14.3381930">
        <ele>617.4</ele>
        <time>2019-08-07T14:44:56Z</time>
      </trkpt>
      <trkpt lat="48.7376390" lon="14.3381840">
        <ele>617.4</ele>
        <time>2019-08-07T14:44:57Z</time>
      </trkpt>
      <trkpt lat="48.7376900" lon="14.3381780">
        <ele>617.4</ele>
        <time>2019-08-07T14:44:58Z</time>
      </trkpt>
      <trkpt lat="48.7377400" lon="14.3381690">
        <ele>617.6</ele>
        <time>2019-08-07T14:44:59Z</time>
      </trkpt>
      <trkpt lat="48.7377880" lon="14.3381560">
        <ele>617.6</ele>
        <time>2019-08-07T14:45:00Z</time>
      </trkpt>
      <trkpt lat="48.7378400" lon="14.3381450">
        <ele>617.6</ele>
        <time>2019-08-07T14:45:01Z</time>
      </trkpt>
      <trkpt lat="48.7378910" lon="14.3381370">
        <ele>617.6</ele>
        <time>2019-08-07T14:45:02Z</time>
      </trkpt>
      <trkpt lat="48.7379440" lon="14.3381270">
        <ele>617.8</ele>
        <time>2019-08-07T14:45:03Z</time>
      </trkpt>
      <trkpt lat="48.7379950" lon="14.3381110">
        <ele>617.8</ele>
        <time>2019-08-07T14:45:04Z</time>
      </trkpt>
      <trkpt lat="48.7380450" lon="14.3380950">
        <ele>618.0</ele>
        <time>2019-08-07T14:45:05Z</time>
      </trkpt>
      <trkpt lat="48.7380970" lon="14.3380780">
        <ele>618.0</ele>
        <time>2019-08-07T14:45:06Z</time>
      </trkpt>
      <trkpt lat="48.7381480" lon="14.3380630">
        <ele>618.0</ele>
        <time>2019-08-07T14:45:07Z</time>
      </trkpt>
      <trkpt lat="48.7381990" lon="14.3380470">
        <ele>618.2</ele>
        <time>2019-08-07T14:45:08Z</time>
      </trkpt>
      <trkpt lat="48.7382500" lon="14.3380290">
        <ele>618.2</ele>
        <time>2019-08-07T14:45:09Z</time>
      </trkpt>
      <trkpt lat="48.7382970" lon="14.3380130">
        <ele>618.2</ele>
        <time>2019-08-07T14:45:10Z</time>
      </trkpt>
      <trkpt lat="48.7383450" lon="14.3379980">
        <ele>618.2</ele>
        <time>2019-08-07T14:45:11Z</time>
      </trkpt>
      <trkpt lat="48.7383940" lon="14.3379870">
        <ele>618.4</ele>
        <time>2019-08-07T14:45:12Z</time>
      </trkpt>
      <trkpt lat="48.7384430" lon="14.3379760">
        <ele>618.4</ele>
        <time>2019-08-07T14:45:13Z</time>
      </trkpt>
      <trkpt lat="48.7384910" lon="14.3379660">
        <ele>618.2</ele>
        <time>2019-08-07T14:45:14Z</time>
      </trkpt>
      <trkpt lat="48.7385390" lon="14.3379590">
        <ele>618.2</ele>
        <time>2019-08-07T14:45:15Z</time>
      </trkpt>
      <trkpt lat="48.7385880" lon="14.3379570">
        <ele>618.4</ele>
        <time>2019-08-07T14:45:16Z</time>
      </trkpt>
      <trkpt lat="48.7386350" lon="14.3379600">
        <ele>618.4</ele>
        <time>2019-08-07T14:45:17Z</time>
      </trkpt>
      <trkpt lat="48.7386810" lon="14.3379620">
        <ele>618.4</ele>
        <time>2019-08-07T14:45:18Z</time>
      </trkpt>
      <trkpt lat="48.7387270" lon="14.3379630">
        <ele>618.4</ele>
        <time>2019-08-07T14:45:19Z</time>
      </trkpt>
      <trkpt lat="48.7387720" lon="14.3379630">
        <ele>618.4</ele>
        <time>2019-08-07T14:45:20Z</time>
      </trkpt>
      <trkpt lat="48.7388150" lon="14.3379640">
        <ele>618.4</ele>
        <time>2019-08-07T14:45:21Z</time>
      </trkpt>
      <trkpt lat="48.7388590" lon="14.3379670">
        <ele>618.6</ele>
        <time>2019-08-07T14:45:22Z</time>
      </trkpt>
      <trkpt lat="48.7389010" lon="14.3379670">
        <ele>618.6</ele>
        <time>2019-08-07T14:45:23Z</time>
      </trkpt>
      <trkpt lat="48.7389430" lon="14.3379670">
        <ele>618.6</ele>
        <time>2019-08-07T14:45:24Z</time>
      </trkpt>
      <trkpt lat="48.7389860" lon="14.3379660">
        <ele>618.8</ele>
        <time>2019-08-07T14:45:25Z</time>
      </trkpt>
      <trkpt lat="48.7390280" lon="14.3379640">
        <ele>618.8</ele>
        <time>2019-08-07T14:45:26Z</time>
      </trkpt>
      <trkpt lat="48.7390690" lon="14.3379590">
        <ele>618.8</ele>
        <time>2019-08-07T14:45:27Z</time>
      </trkpt>
      <trkpt lat="48.7391130" lon="14.3379530">
        <ele>619.0</ele>
        <time>2019-08-07T14:45:28Z</time>
      </trkpt>
      <trkpt lat="48.7391550" lon="14.3379500">
        <ele>619.0</ele>
        <time>2019-08-07T14:45:29Z</time>
      </trkpt>
      <trkpt lat="48.7391960" lon="14.3379530">
        <ele>619.0</ele>
        <time>2019-08-07T14:45:30Z</time>
      </trkpt>
      <trkpt lat="48.7392360" lon="14.3379580">
        <ele>619.2</ele>
        <time>2019-08-07T14:45:31Z</time>
      </trkpt>
      <trkpt lat="48.7392770" lon="14.3379650">
        <ele>619.2</ele>
        <time>2019-08-07T14:45:32Z</time>
      </trkpt>
      <trkpt lat="48.7393180" lon="14.3379710">
        <ele>619.4</ele>
        <time>2019-08-07T14:45:33Z</time>
      </trkpt>
      <trkpt lat="48.7393570" lon="14.3379740">
        <ele>619.4</ele>
        <time>2019-08-07T14:45:34Z</time>
      </trkpt>
      <trkpt lat="48.7393970" lon="14.3379750">
        <ele>619.6</ele>
        <time>2019-08-07T14:45:35Z</time>
      </trkpt>
      <trkpt lat="48.7394340" lon="14.3379780">
        <ele>619.8</ele>
        <time>2019-08-07T14:45:36Z</time>
      </trkpt>
      <trkpt lat="48.7394730" lon="14.3379820">
        <ele>620.0</ele>
        <time>2019-08-07T14:45:37Z</time>
      </trkpt>
      <trkpt lat="48.7395080" lon="14.3379830">
        <ele>620.0</ele>
        <time>2019-08-07T14:45:38Z</time>
      </trkpt>
      <trkpt lat="48.7395430" lon="14.3379830">
        <ele>620.2</ele>
        <time>2019-08-07T14:45:39Z</time>
      </trkpt>
      <trkpt lat="48.7395780" lon="14.3379840">
        <ele>620.4</ele>
        <time>2019-08-07T14:45:40Z</time>
      </trkpt>
      <trkpt lat="48.7396100" lon="14.3379890">
        <ele>620.6</ele>
        <time>2019-08-07T14:45:41Z</time>
      </trkpt>
      <trkpt lat="48.7396420" lon="14.3379920">
        <ele>620.8</ele>
        <time>2019-08-07T14:45:42Z</time>
      </trkpt>
      <trkpt lat="48.7396740" lon="14.3379930">
        <ele>621.0</ele>
        <time>2019-08-07T14:45:43Z</time>
      </trkpt>
      <trkpt lat="48.7397070" lon="14.3379930">
        <ele>621.0</ele>
        <time>2019-08-07T14:45:44Z</time>
      </trkpt>
      <trkpt lat="48.7397380" lon="14.3379890">
        <ele>621.2</ele>
        <time>2019-08-07T14:45:45Z</time>
      </trkpt>
      <trkpt lat="48.7397710" lon="14.3379810">
        <ele>621.4</ele>
        <time>2019-08-07T14:45:46Z</time>
      </trkpt>
      <trkpt lat="48.7398050" lon="14.3379710">
        <ele>621.4</ele>
        <time>2019-08-07T14:45:47Z</time>
      </trkpt>
      <trkpt lat="48.7398410" lon="14.3379620">
        <ele>621.4</ele>
        <time>2019-08-07T14:45:48Z</time>
      </trkpt>
      <trkpt lat="48.7398750" lon="14.3379540">
        <ele>621.6</ele>
        <time>2019-08-07T14:45:49Z</time>
      </trkpt>
      <trkpt lat="48.7399120" lon="14.3379440">
        <ele>621.6</ele>
        <time>2019-08-07T14:45:50Z</time>
      </trkpt>
      <trkpt lat="48.7399490" lon="14.3379340">
        <ele>621.8</ele>
        <time>2019-08-07T14:45:51Z</time>
      </trkpt>
      <trkpt lat="48.7399860" lon="14.3379250">
        <ele>621.8</ele>
        <time>2019-08-07T14:45:52Z</time>
      </trkpt>
      <trkpt lat="48.7400220" lon="14.3379170">
        <ele>621.8</ele>
        <time>2019-08-07T14:45:53Z</time>
      </trkpt>
      <trkpt lat="48.7400580" lon="14.3379120">
        <ele>622.0</ele>
        <time>2019-08-07T14:45:54Z</time>
      </trkpt>
      <trkpt lat="48.7400950" lon="14.3379080">
        <ele>622.0</ele>
        <time>2019-08-07T14:45:55Z</time>
      </trkpt>
      <trkpt lat="48.7401320" lon="14.3379050">
        <ele>622.2</ele>
        <time>2019-08-07T14:45:56Z</time>
      </trkpt>
      <trkpt lat="48.7401680" lon="14.3379050">
        <ele>622.2</ele>
        <time>2019-08-07T14:45:57Z</time>
      </trkpt>
      <trkpt lat="48.7402050" lon="14.3379060">
        <ele>622.4</ele>
        <time>2019-08-07T14:45:58Z</time>
      </trkpt>
      <trkpt lat="48.7402400" lon="14.3379090">
        <ele>622.4</ele>
        <time>2019-08-07T14:45:59Z</time>
      </trkpt>
      <trkpt lat="48.7402770" lon="14.3379140">
        <ele>622.6</ele>
        <time>2019-08-07T14:46:00Z</time>
      </trkpt>
      <trkpt lat="48.7403150" lon="14.3379160">
        <ele>622.6</ele>
        <time>2019-08-07T14:46:01Z</time>
      </trkpt>
      <trkpt lat="48.7403540" lon="14.3379190">
        <ele>622.6</ele>
        <time>2019-08-07T14:46:02Z</time>
      </trkpt>
      <trkpt lat="48.7403940" lon="14.3379220">
        <ele>622.8</ele>
        <time>2019-08-07T14:46:03Z</time>
      </trkpt>
      <trkpt lat="48.7404330" lon="14.3379250">
        <ele>622.8</ele>
        <time>2019-08-07T14:46:04Z</time>
      </trkpt>
      <trkpt lat="48.7404740" lon="14.3379270">
        <ele>622.8</ele>
        <time>2019-08-07T14:46:05Z</time>
      </trkpt>
      <trkpt lat="48.7405160" lon="14.3379260">
        <ele>622.8</ele>
        <time>2019-08-07T14:46:06Z</time>
      </trkpt>
      <trkpt lat="48.7405580" lon="14.3379250">
        <ele>622.8</ele>
        <time>2019-08-07T14:46:07Z</time>
      </trkpt>
      <trkpt lat="48.7406020" lon="14.3379240">
        <ele>623.0</ele>
        <time>2019-08-07T14:46:08Z</time>
      </trkpt>
      <trkpt lat="48.7406450" lon="14.3379270">
        <ele>623.0</ele>
        <time>2019-08-07T14:46:09Z</time>
      </trkpt>
      <trkpt lat="48.7406890" lon="14.3379310">
        <ele>623.0</ele>
        <time>2019-08-07T14:46:10Z</time>
      </trkpt>
      <trkpt lat="48.7407340" lon="14.3379360">
        <ele>622.8</ele>
        <time>2019-08-07T14:46:11Z</time>
      </trkpt>
      <trkpt lat="48.7407790" lon="14.3379390">
        <ele>622.8</ele>
        <time>2019-08-07T14:46:12Z</time>
      </trkpt>
      <trkpt lat="48.7408240" lon="14.3379410">
        <ele>622.8</ele>
        <time>2019-08-07T14:46:13Z</time>
      </trkpt>
      <trkpt lat="48.7408710" lon="14.3379440">
        <ele>622.8</ele>
        <time>2019-08-07T14:46:14Z</time>
      </trkpt>
      <trkpt lat="48.7409190" lon="14.3379470">
        <ele>622.8</ele>
        <time>2019-08-07T14:46:15Z</time>
      </trkpt>
      <trkpt lat="48.7409680" lon="14.3379470">
        <ele>622.8</ele>
        <time>2019-08-07T14:46:16Z</time>
      </trkpt>
      <trkpt lat="48.7410160" lon="14.3379480">
        <ele>622.8</ele>
        <time>2019-08-07T14:46:17Z</time>
      </trkpt>
      <trkpt lat="48.7410650" lon="14.3379490">
        <ele>623.0</ele>
        <time>2019-08-07T14:46:18Z</time>
      </trkpt>
      <trkpt lat="48.7411140" lon="14.3379520">
        <ele>622.8</ele>
        <time>2019-08-07T14:46:19Z</time>
      </trkpt>
      <trkpt lat="48.7411630" lon="14.3379560">
        <ele>622.8</ele>
        <time>2019-08-07T14:46:20Z</time>
      </trkpt>
      <trkpt lat="48.7412110" lon="14.3379610">
        <ele>622.8</ele>
        <time>2019-08-07T14:46:21Z</time>
      </trkpt>
      <trkpt lat="48.7412610" lon="14.3379640">
        <ele>623.0</ele>
        <time>2019-08-07T14:46:22Z</time>
      </trkpt>
      <trkpt lat="48.7413110" lon="14.3379670">
        <ele>623.0</ele>
        <time>2019-08-07T14:46:23Z</time>
      </trkpt>
      <trkpt lat="48.7413610" lon="14.3379690">
        <ele>623.0</ele>
        <time>2019-08-07T14:46:24Z</time>
      </trkpt>
      <trkpt lat="48.7414110" lon="14.3379730">
        <ele>623.0</ele>
        <time>2019-08-07T14:46:25Z</time>
      </trkpt>
      <trkpt lat="48.7414600" lon="14.3379780">
        <ele>623.0</ele>
        <time>2019-08-07T14:46:26Z</time>
      </trkpt>
      <trkpt lat="48.7415090" lon="14.3379860">
        <ele>623.0</ele>
        <time>2019-08-07T14:46:27Z</time>
      </trkpt>
      <trkpt lat="48.7415580" lon="14.3379950">
        <ele>623.2</ele>
        <time>2019-08-07T14:46:28Z</time>
      </trkpt>
      <trkpt lat="48.7416060" lon="14.3380010">
        <ele>623.2</ele>
        <time>2019-08-07T14:46:29Z</time>
      </trkpt>
      <trkpt lat="48.7416540" lon="14.3380040">
        <ele>623.4</ele>
        <time>2019-08-07T14:46:30Z</time>
      </trkpt>
      <trkpt lat="48.7417020" lon="14.3380070">
        <ele>623.4</ele>
        <time>2019-08-07T14:46:31Z</time>
      </trkpt>
      <trkpt lat="48.7417500" lon="14.3380100">
        <ele>623.4</ele>
        <time>2019-08-07T14:46:32Z</time>
      </trkpt>
      <trkpt lat="48.7417960" lon="14.3380120">
        <ele>623.4</ele>
        <time>2019-08-07T14:46:33Z</time>
      </trkpt>
      <trkpt lat="48.7418430" lon="14.3380130">
        <ele>623.4</ele>
        <time>2019-08-07T14:46:34Z</time>
      </trkpt>
      <trkpt lat="48.7418870" lon="14.3380110">
        <ele>623.4</ele>
        <time>2019-08-07T14:46:35Z</time>
      </trkpt>
      <trkpt lat="48.7419300" lon="14.3380090">
        <ele>623.4</ele>
        <time>2019-08-07T14:46:36Z</time>
      </trkpt>
      <trkpt lat="48.7419730" lon="14.3380020">
        <ele>623.6</ele>
        <time>2019-08-07T14:46:37Z</time>
      </trkpt>
      <trkpt lat="48.7420160" lon="14.3379950">
        <ele>623.6</ele>
        <time>2019-08-07T14:46:38Z</time>
      </trkpt>
      <trkpt lat="48.7420580" lon="14.3379880">
        <ele>623.8</ele>
        <time>2019-08-07T14:46:39Z</time>
      </trkpt>
      <trkpt lat="48.7421010" lon="14.3379820">
        <ele>623.8</ele>
        <time>2019-08-07T14:46:40Z</time>
      </trkpt>
      <trkpt lat="48.7421430" lon="14.3379750">
        <ele>624.0</ele>
        <time>2019-08-07T14:46:41Z</time>
      </trkpt>
      <trkpt lat="48.7421840" lon="14.3379660">
        <ele>624.2</ele>
        <time>2019-08-07T14:46:42Z</time>
      </trkpt>
      <trkpt lat="48.7422240" lon="14.3379550">
        <ele>624.2</ele>
        <time>2019-08-07T14:46:43Z</time>
      </trkpt>
      <trkpt lat="48.7422640" lon="14.3379460">
        <ele>624.4</ele>
        <time>2019-08-07T14:46:44Z</time>
      </trkpt>
      <trkpt lat="48.7423040" lon="14.3379380">
        <ele>624.6</ele>
        <time>2019-08-07T14:46:45Z</time>
      </trkpt>
      <trkpt lat="48.7423460" lon="14.3379300">
        <ele>624.6</ele>
        <time>2019-08-07T14:46:46Z</time>
      </trkpt>
      <trkpt lat="48.7423850" lon="14.3379210">
        <ele>624.8</ele>
        <time>2019-08-07T14:46:47Z</time>
      </trkpt>
      <trkpt lat="48.7424260" lon="14.3379110">
        <ele>624.8</ele>
        <time>2019-08-07T14:46:48Z</time>
      </trkpt>
      <trkpt lat="48.7424660" lon="14.3379010">
        <ele>625.0</ele>
        <time>2019-08-07T14:46:49Z</time>
      </trkpt>
      <trkpt lat="48.7425060" lon="14.3378910">
        <ele>625.2</ele>
        <time>2019-08-07T14:46:50Z</time>
      </trkpt>
      <trkpt lat="48.7425450" lon="14.3378810">
        <ele>625.4</ele>
        <time>2019-08-07T14:46:51Z</time>
      </trkpt>
      <trkpt lat="48.7425840" lon="14.3378690">
        <ele>625.4</ele>
        <time>2019-08-07T14:46:52Z</time>
      </trkpt>
      <trkpt lat="48.7426220" lon="14.3378600">
        <ele>625.6</ele>
        <time>2019-08-07T14:46:53Z</time>
      </trkpt>
      <trkpt lat="48.7426620" lon="14.3378520">
        <ele>625.8</ele>
        <time>2019-08-07T14:46:54Z</time>
      </trkpt>
      <trkpt lat="48.7427000" lon="14.3378460">
        <ele>626.0</ele>
        <time>2019-08-07T14:46:55Z</time>
      </trkpt>
      <trkpt lat="48.7427380" lon="14.3378400">
        <ele>626.2</ele>
        <time>2019-08-07T14:46:56Z</time>
      </trkpt>
      <trkpt lat="48.7427750" lon="14.3378340">
        <ele>626.4</ele>
        <time>2019-08-07T14:46:57Z</time>
      </trkpt>
      <trkpt lat="48.7428120" lon="14.3378270">
        <ele>626.6</ele>
        <time>2019-08-07T14:46:58Z</time>
      </trkpt>
      <trkpt lat="48.7428470" lon="14.3378190">
        <ele>626.8</ele>
        <time>2019-08-07T14:46:59Z</time>
      </trkpt>
      <trkpt lat="48.7428830" lon="14.3378090">
        <ele>627.0</ele>
        <time>2019-08-07T14:47:00Z</time>
      </trkpt>
      <trkpt lat="48.7429180" lon="14.3377970">
        <ele>627.2</ele>
        <time>2019-08-07T14:47:01Z</time>
      </trkpt>
      <trkpt lat="48.7429530" lon="14.3377860">
        <ele>627.4</ele>
        <time>2019-08-07T14:47:02Z</time>
      </trkpt>
      <trkpt lat="48.7429880" lon="14.3377780">
        <ele>627.4</ele>
        <time>2019-08-07T14:47:03Z</time>
      </trkpt>
      <trkpt lat="48.7430230" lon="14.3377680">
        <ele>627.6</ele>
        <time>2019-08-07T14:47:04Z</time>
      </trkpt>
      <trkpt lat="48.7430580" lon="14.3377570">
        <ele>627.8</ele>
        <time>2019-08-07T14:47:05Z</time>
      </trkpt>
      <trkpt lat="48.7430910" lon="14.3377460">
        <ele>627.8</ele>
        <time>2019-08-07T14:47:06Z</time>
      </trkpt>
      <trkpt lat="48.7431250" lon="14.3377360">
        <ele>628.0</ele>
        <time>2019-08-07T14:47:07Z</time>
      </trkpt>
      <trkpt lat="48.7431590" lon="14.3377240">
        <ele>628.0</ele>
        <time>2019-08-07T14:47:08Z</time>
      </trkpt>
      <trkpt lat="48.7431930" lon="14.3377140">
        <ele>628.2</ele>
        <time>2019-08-07T14:47:09Z</time>
      </trkpt>
      <trkpt lat="48.7432260" lon="14.3377000">
        <ele>628.2</ele>
        <time>2019-08-07T14:47:10Z</time>
      </trkpt>
      <trkpt lat="48.7432590" lon="14.3376870">
        <ele>628.4</ele>
        <time>2019-08-07T14:47:11Z</time>
      </trkpt>
      <trkpt lat="48.7432910" lon="14.3376720">
        <ele>628.4</ele>
        <time>2019-08-07T14:47:12Z</time>
      </trkpt>
      <trkpt lat="48.7433240" lon="14.3376560">
        <ele>628.6</ele>
        <time>2019-08-07T14:47:13Z</time>
      </trkpt>
      <trkpt lat="48.7433560" lon="14.3376400">
        <ele>628.6</ele>
        <time>2019-08-07T14:47:14Z</time>
      </trkpt>
      <trkpt lat="48.7433890" lon="14.3376250">
        <ele>628.8</ele>
        <time>2019-08-07T14:47:15Z</time>
      </trkpt>
      <trkpt lat="48.7434220" lon="14.3376080">
        <ele>628.8</ele>
        <time>2019-08-07T14:47:16Z</time>
      </trkpt>
      <trkpt lat="48.7434550" lon="14.3375910">
        <ele>629.0</ele>
        <time>2019-08-07T14:47:17Z</time>
      </trkpt>
      <trkpt lat="48.7434920" lon="14.3375720">
        <ele>629.0</ele>
        <time>2019-08-07T14:47:18Z</time>
      </trkpt>
      <trkpt lat="48.7435290" lon="14.3375540">
        <ele>629.0</ele>
        <time>2019-08-07T14:47:19Z</time>
      </trkpt>
      <trkpt lat="48.7435650" lon="14.3375380">
        <ele>629.0</ele>
        <time>2019-08-07T14:47:20Z</time>
      </trkpt>
      <trkpt lat="48.7436010" lon="14.3375220">
        <ele>629.0</ele>
        <time>2019-08-07T14:47:21Z</time>
      </trkpt>
      <trkpt lat="48.7436380" lon="14.3375050">
        <ele>629.0</ele>
        <time>2019-08-07T14:47:22Z</time>
      </trkpt>
      <trkpt lat="48.7436770" lon="14.3374840">
        <ele>629.2</ele>
        <time>2019-08-07T14:47:23Z</time>
      </trkpt>
      <trkpt lat="48.7437140" lon="14.3374630">
        <ele>629.2</ele>
        <time>2019-08-07T14:47:24Z</time>
      </trkpt>
      <trkpt lat="48.7437520" lon="14.3374420">
        <ele>629.4</ele>
        <time>2019-08-07T14:47:25Z</time>
      </trkpt>
      <trkpt lat="48.7437880" lon="14.3374210">
        <ele>629.4</ele>
        <time>2019-08-07T14:47:26Z</time>
      </trkpt>
      <trkpt lat="48.7438290" lon="14.3374010">
        <ele>629.4</ele>
        <time>2019-08-07T14:47:27Z</time>
      </trkpt>
      <trkpt lat="48.7438680" lon="14.3373830">
        <ele>629.6</ele>
        <time>2019-08-07T14:47:28Z</time>
      </trkpt>
      <trkpt lat="48.7439080" lon="14.3373660">
        <ele>629.6</ele>
        <time>2019-08-07T14:47:29Z</time>
      </trkpt>
      <trkpt lat="48.7439470" lon="14.3373520">
        <ele>629.8</ele>
        <time>2019-08-07T14:47:30Z</time>
      </trkpt>
      <trkpt lat="48.7439880" lon="14.3373360">
        <ele>629.8</ele>
        <time>2019-08-07T14:47:31Z</time>
      </trkpt>
      <trkpt lat="48.7440290" lon="14.3373180">
        <ele>629.8</ele>
        <time>2019-08-07T14:47:32Z</time>
      </trkpt>
      <trkpt lat="48.7440700" lon="14.3373000">
        <ele>630.0</ele>
        <time>2019-08-07T14:47:33Z</time>
      </trkpt>
      <trkpt lat="48.7441120" lon="14.3372810">
        <ele>630.0</ele>
        <time>2019-08-07T14:47:34Z</time>
      </trkpt>
      <trkpt lat="48.7441540" lon="14.3372630">
        <ele>630.2</ele>
        <time>2019-08-07T14:47:35Z</time>
      </trkpt>
      <trkpt lat="48.7441940" lon="14.3372460">
        <ele>630.2</ele>
        <time>2019-08-07T14:47:36Z</time>
      </trkpt>
      <trkpt lat="48.7442360" lon="14.3372300">
        <ele>630.2</ele>
        <time>2019-08-07T14:47:37Z</time>
      </trkpt>
      <trkpt lat="48.7442760" lon="14.3372130">
        <ele>630.2</ele>
        <time>2019-08-07T14:47:38Z</time>
      </trkpt>
      <trkpt lat="48.7443140" lon="14.3371950">
        <ele>630.4</ele>
        <time>2019-08-07T14:47:39Z</time>
      </trkpt>
      <trkpt lat="48.7443540" lon="14.3371760">
        <ele>630.4</ele>
        <time>2019-08-07T14:47:40Z</time>
      </trkpt>
      <trkpt lat="48.7443920" lon="14.3371600">
        <ele>630.4</ele>
        <time>2019-08-07T14:47:41Z</time>
      </trkpt>
      <trkpt lat="48.7444320" lon="14.3371430">
        <ele>630.6</ele>
        <time>2019-08-07T14:47:42Z</time>
      </trkpt>
      <trkpt lat="48.7444700" lon="14.3371270">
        <ele>630.6</ele>
        <time>2019-08-07T14:47:43Z</time>
      </trkpt>
      <trkpt lat="48.7445080" lon="14.3371120">
        <ele>630.6</ele>
        <time>2019-08-07T14:47:44Z</time>
      </trkpt>
      <trkpt lat="48.7445480" lon="14.3370990">
        <ele>630.6</ele>
        <time>2019-08-07T14:47:45Z</time>
      </trkpt>
      <trkpt lat="48.7445880" lon="14.3370830">
        <ele>630.8</ele>
        <time>2019-08-07T14:47:46Z</time>
      </trkpt>
      <trkpt lat="48.7446280" lon="14.3370690">
        <ele>630.8</ele>
        <time>2019-08-07T14:47:47Z</time>
      </trkpt>
      <trkpt lat="48.7446670" lon="14.3370550">
        <ele>630.8</ele>
        <time>2019-08-07T14:47:48Z</time>
      </trkpt>
      <trkpt lat="48.7447070" lon="14.3370430">
        <ele>631.0</ele>
        <time>2019-08-07T14:47:49Z</time>
      </trkpt>
      <trkpt lat="48.7447470" lon="14.3370330">
        <ele>631.0</ele>
        <time>2019-08-07T14:47:50Z</time>
      </trkpt>
      <trkpt lat="48.7447890" lon="14.3370260">
        <ele>631.2</ele>
        <time>2019-08-07T14:47:51Z</time>
      </trkpt>
      <trkpt lat="48.7448290" lon="14.3370220">
        <ele>631.2</ele>
        <time>2019-08-07T14:47:52Z</time>
      </trkpt>
      <trkpt lat="48.7448680" lon="14.3370150">
        <ele>631.4</ele>
        <time>2019-08-07T14:47:53Z</time>
      </trkpt>
      <trkpt lat="48.7449070" lon="14.3370090">
        <ele>631.4</ele>
        <time>2019-08-07T14:47:54Z</time>
      </trkpt>
      <trkpt lat="48.7449450" lon="14.3370060">
        <ele>631.6</ele>
        <time>2019-08-07T14:47:55Z</time>
      </trkpt>
      <trkpt lat="48.7449830" lon="14.3370020">
        <ele>631.6</ele>
        <time>2019-08-07T14:47:56Z</time>
      </trkpt>
      <trkpt lat="48.7450230" lon="14.3369970">
        <ele>631.8</ele>
        <time>2019-08-07T14:47:57Z</time>
      </trkpt>
      <trkpt lat="48.7450630" lon="14.3369910">
        <ele>632.0</ele>
        <time>2019-08-07T14:47:58Z</time>
      </trkpt>
      <trkpt lat="48.7451040" lon="14.3369880">
        <ele>632.0</ele>
        <time>2019-08-07T14:47:59Z</time>
      </trkpt>
      <trkpt lat="48.7451430" lon="14.3369860">
        <ele>632.2</ele>
        <time>2019-08-07T14:48:00Z</time>
      </trkpt>
      <trkpt lat="48.7451820" lon="14.3369840">
        <ele>632.4</ele>
        <time>2019-08-07T14:48:01Z</time>
      </trkpt>
      <trkpt lat="48.7452200" lon="14.3369790">
        <ele>632.6</ele>
        <time>2019-08-07T14:48:02Z</time>
      </trkpt>
      <trkpt lat="48.7452570" lon="14.3369740">
        <ele>632.8</ele>
        <time>2019-08-07T14:48:03Z</time>
      </trkpt>
      <trkpt lat="48.7452930" lon="14.3369690">
        <ele>633.0</ele>
        <time>2019-08-07T14:48:04Z</time>
      </trkpt>
      <trkpt lat="48.7453290" lon="14.3369620">
        <ele>633.2</ele>
        <time>2019-08-07T14:48:05Z</time>
      </trkpt>
      <trkpt lat="48.7453650" lon="14.3369550">
        <ele>633.4</ele>
        <time>2019-08-07T14:48:06Z</time>
      </trkpt>
      <trkpt lat="48.7454010" lon="14.3369490">
        <ele>633.4</ele>
        <time>2019-08-07T14:48:07Z</time>
      </trkpt>
      <trkpt lat="48.7454390" lon="14.3369440">
        <ele>633.6</ele>
        <time>2019-08-07T14:48:08Z</time>
      </trkpt>
      <trkpt lat="48.7454750" lon="14.3369410">
        <ele>633.8</ele>
        <time>2019-08-07T14:48:09Z</time>
      </trkpt>
      <trkpt lat="48.7455110" lon="14.3369380">
        <ele>634.0</ele>
        <time>2019-08-07T14:48:10Z</time>
      </trkpt>
      <trkpt lat="48.7455490" lon="14.3369370">
        <ele>634.0</ele>
        <time>2019-08-07T14:48:11Z</time>
      </trkpt>
      <trkpt lat="48.7455860" lon="14.3369370">
        <ele>634.2</ele>
        <time>2019-08-07T14:48:12Z</time>
      </trkpt>
      <trkpt lat="48.7456220" lon="14.3369370">
        <ele>634.4</ele>
        <time>2019-08-07T14:48:13Z</time>
      </trkpt>
      <trkpt lat="48.7456580" lon="14.3369390">
        <ele>634.6</ele>
        <time>2019-08-07T14:48:14Z</time>
      </trkpt>
      <trkpt lat="48.7456940" lon="14.3369410">
        <ele>634.8</ele>
        <time>2019-08-07T14:48:15Z</time>
      </trkpt>
      <trkpt lat="48.7457290" lon="14.3369440">
        <ele>634.8</ele>
        <time>2019-08-07T14:48:16Z</time>
      </trkpt>
      <trkpt lat="48.7457660" lon="14.3369490">
        <ele>635.0</ele>
        <time>2019-08-07T14:48:17Z</time>
      </trkpt>
      <trkpt lat="48.7458020" lon="14.3369550">
        <ele>635.2</ele>
        <time>2019-08-07T14:48:18Z</time>
      </trkpt>
      <trkpt lat="48.7458380" lon="14.3369630">
        <ele>635.4</ele>
        <time>2019-08-07T14:48:19Z</time>
      </trkpt>
      <trkpt lat="48.7458730" lon="14.3369720">
        <ele>635.4</ele>
        <time>2019-08-07T14:48:20Z</time>
      </trkpt>
      <trkpt lat="48.7459100" lon="14.3369830">
        <ele>635.6</ele>
        <time>2019-08-07T14:48:21Z</time>
      </trkpt>
      <trkpt lat="48.7459450" lon="14.3369940">
        <ele>635.8</ele>
        <time>2019-08-07T14:48:22Z</time>
      </trkpt>
      <trkpt lat="48.7459810" lon="14.3370050">
        <ele>635.8</ele>
        <time>2019-08-07T14:48:23Z</time>
      </trkpt>
      <trkpt lat="48.7460170" lon="14.3370150">
        <ele>636.0</ele>
        <time>2019-08-07T14:48:24Z</time>
      </trkpt>
      <trkpt lat="48.7460530" lon="14.3370230">
        <ele>636.2</ele>
        <time>2019-08-07T14:48:25Z</time>
      </trkpt>
      <trkpt lat="48.7460880" lon="14.3370310">
        <ele>636.2</ele>
        <time>2019-08-07T14:48:26Z</time>
      </trkpt>
      <trkpt lat="48.7461280" lon="14.3370390">
        <ele>636.4</ele>
        <time>2019-08-07T14:48:27Z</time>
      </trkpt>
      <trkpt lat="48.7461660" lon="14.3370420">
        <ele>636.4</ele>
        <time>2019-08-07T14:48:28Z</time>
      </trkpt>
      <trkpt lat="48.7462030" lon="14.3370450">
        <ele>636.6</ele>
        <time>2019-08-07T14:48:29Z</time>
      </trkpt>
      <trkpt lat="48.7462400" lon="14.3370480">
        <ele>636.8</ele>
        <time>2019-08-07T14:48:30Z</time>
      </trkpt>
      <trkpt lat="48.7462800" lon="14.3370530">
        <ele>636.8</ele>
        <time>2019-08-07T14:48:31Z</time>
      </trkpt>
      <trkpt lat="48.7463190" lon="14.3370580">
        <ele>636.8</ele>
        <time>2019-08-07T14:48:32Z</time>
      </trkpt>
      <trkpt lat="48.7463570" lon="14.3370640">
        <ele>637.0</ele>
        <time>2019-08-07T14:48:33Z</time>
      </trkpt>
      <trkpt lat="48.7463960" lon="14.3370670">
        <ele>637.0</ele>
        <time>2019-08-07T14:48:34Z</time>
      </trkpt>
      <trkpt lat="48.7464360" lon="14.3370710">
        <ele>637.2</ele>
        <time>2019-08-07T14:48:35Z</time>
      </trkpt>
      <trkpt lat="48.7464750" lon="14.3370760">
        <ele>637.2</ele>
        <time>2019-08-07T14:48:36Z</time>
      </trkpt>
      <trkpt lat="48.7465140" lon="14.3370790">
        <ele>637.4</ele>
        <time>2019-08-07T14:48:37Z</time>
      </trkpt>
      <trkpt lat="48.7465530" lon="14.3370820">
        <ele>637.4</ele>
        <time>2019-08-07T14:48:38Z</time>
      </trkpt>
      <trkpt lat="48.7465940" lon="14.3370830">
        <ele>637.4</ele>
        <time>2019-08-07T14:48:39Z</time>
      </trkpt>
      <trkpt lat="48.7466360" lon="14.3370830">
        <ele>637.4</ele>
        <time>2019-08-07T14:48:40Z</time>
      </trkpt>
      <trkpt lat="48.7466760" lon="14.3370780">
        <ele>637.6</ele>
        <time>2019-08-07T14:48:41Z</time>
      </trkpt>
      <trkpt lat="48.7467160" lon="14.3370720">
        <ele>637.8</ele>
        <time>2019-08-07T14:48:42Z</time>
      </trkpt>
      <trkpt lat="48.7467580" lon="14.3370670">
        <ele>637.8</ele>
        <time>2019-08-07T14:48:43Z</time>
      </trkpt>
      <trkpt lat="48.7467990" lon="14.3370620">
        <ele>637.8</ele>
        <time>2019-08-07T14:48:44Z</time>
      </trkpt>
      <trkpt lat="48.7468400" lon="14.3370570">
        <ele>638.0</ele>
        <time>2019-08-07T14:48:45Z</time>
      </trkpt>
      <trkpt lat="48.7468830" lon="14.3370530">
        <ele>638.0</ele>
        <time>2019-08-07T14:48:46Z</time>
      </trkpt>
      <trkpt lat="48.7469260" lon="14.3370540">
        <ele>638.2</ele>
        <time>2019-08-07T14:48:47Z</time>
      </trkpt>
      <trkpt lat="48.7469670" lon="14.3370570">
        <ele>638.2</ele>
        <time>2019-08-07T14:48:48Z</time>
      </trkpt>
      <trkpt lat="48.7470090" lon="14.3370590">
        <ele>638.2</ele>
        <time>2019-08-07T14:48:49Z</time>
      </trkpt>
      <trkpt lat="48.7470520" lon="14.3370600">
        <ele>638.4</ele>
        <time>2019-08-07T14:48:50Z</time>
      </trkpt>
      <trkpt lat="48.7470950" lon="14.3370600">
        <ele>638.4</ele>
        <time>2019-08-07T14:48:51Z</time>
      </trkpt>
      <trkpt lat="48.7471400" lon="14.3370600">
        <ele>638.6</ele>
        <time>2019-08-07T14:48:52Z</time>
      </trkpt>
      <trkpt lat="48.7471830" lon="14.3370620">
        <ele>638.6</ele>
        <time>2019-08-07T14:48:53Z</time>
      </trkpt>
      <trkpt lat="48.7472260" lon="14.3370620">
        <ele>638.6</ele>
        <time>2019-08-07T14:48:54Z</time>
      </trkpt>
      <trkpt lat="48.7472700" lon="14.3370620">
        <ele>638.6</ele>
        <time>2019-08-07T14:48:55Z</time>
      </trkpt>
      <trkpt lat="48.7473130" lon="14.3370620">
        <ele>638.6</ele>
        <time>2019-08-07T14:48:56Z</time>
      </trkpt>
      <trkpt lat="48.7473560" lon="14.3370620">
        <ele>638.6</ele>
        <time>2019-08-07T14:48:57Z</time>
      </trkpt>
      <trkpt lat="48.7474000" lon="14.3370620">
        <ele>638.6</ele>
        <time>2019-08-07T14:48:58Z</time>
      </trkpt>
      <trkpt lat="48.7474430" lon="14.3370640">
        <ele>638.8</ele>
        <time>2019-08-07T14:48:59Z</time>
      </trkpt>
      <trkpt lat="48.7474870" lon="14.3370700">
        <ele>638.8</ele>
        <time>2019-08-07T14:49:00Z</time>
      </trkpt>
      <trkpt lat="48.7475300" lon="14.3370740">
        <ele>638.8</ele>
        <time>2019-08-07T14:49:01Z</time>
      </trkpt>
      <trkpt lat="48.7475720" lon="14.3370760">
        <ele>638.8</ele>
        <time>2019-08-07T14:49:02Z</time>
      </trkpt>
      <trkpt lat="48.7476150" lon="14.3370840">
        <ele>638.8</ele>
        <time>2019-08-07T14:49:03Z</time>
      </trkpt>
      <trkpt lat="48.7476580" lon="14.3370940">
        <ele>639.0</ele>
        <time>2019-08-07T14:49:04Z</time>
      </trkpt>
      <trkpt lat="48.7476990" lon="14.3371060">
        <ele>639.0</ele>
        <time>2019-08-07T14:49:05Z</time>
      </trkpt>
      <trkpt lat="48.7477420" lon="14.3371190">
        <ele>639.0</ele>
        <time>2019-08-07T14:49:06Z</time>
      </trkpt>
      <trkpt lat="48.7477850" lon="14.3371310">
        <ele>639.2</ele>
        <time>2019-08-07T14:49:07Z</time>
      </trkpt>
      <trkpt lat="48.7478280" lon="14.3371410">
        <ele>639.2</ele>
        <time>2019-08-07T14:49:08Z</time>
      </trkpt>
      <trkpt lat="48.7478710" lon="14.3371540">
        <ele>639.4</ele>
        <time>2019-08-07T14:49:09Z</time>
      </trkpt>
      <trkpt lat="48.7479140" lon="14.3371700">
        <ele>639.4</ele>
        <time>2019-08-07T14:49:10Z</time>
      </trkpt>
      <trkpt lat="48.7479560" lon="14.3371870">
        <ele>639.4</ele>
        <time>2019-08-07T14:49:11Z</time>
      </trkpt>
      <trkpt lat="48.7479980" lon="14.3372040">
        <ele>639.6</ele>
        <time>2019-08-07T14:49:12Z</time>
      </trkpt>
      <trkpt lat="48.7480420" lon="14.3372200">
        <ele>639.6</ele>
        <time>2019-08-07T14:49:13Z</time>
      </trkpt>
      <trkpt lat="48.7480840" lon="14.3372350">
        <ele>639.8</ele>
        <time>2019-08-07T14:49:14Z</time>
      </trkpt>
      <trkpt lat="48.7481260" lon="14.3372510">
        <ele>639.8</ele>
        <time>2019-08-07T14:49:15Z</time>
      </trkpt>
      <trkpt lat="48.7481690" lon="14.3372690">
        <ele>640.0</ele>
        <time>2019-08-07T14:49:16Z</time>
      </trkpt>
      <trkpt lat="48.7482110" lon="14.3372870">
        <ele>640.0</ele>
        <time>2019-08-07T14:49:17Z</time>
      </trkpt>
      <trkpt lat="48.7482530" lon="14.3373040">
        <ele>640.2</ele>
        <time>2019-08-07T14:49:18Z</time>
      </trkpt>
      <trkpt lat="48.7482940" lon="14.3373200">
        <ele>640.4</ele>
        <time>2019-08-07T14:49:19Z</time>
      </trkpt>
      <trkpt lat="48.7483350" lon="14.3373370">
        <ele>640.4</ele>
        <time>2019-08-07T14:49:20Z</time>
      </trkpt>
      <trkpt lat="48.7483760" lon="14.3373510">
        <ele>640.6</ele>
        <time>2019-08-07T14:49:21Z</time>
      </trkpt>
      <trkpt lat="48.7484170" lon="14.3373640">
        <ele>640.6</ele>
        <time>2019-08-07T14:49:22Z</time>
      </trkpt>
      <trkpt lat="48.7484570" lon="14.3373770">
        <ele>640.8</ele>
        <time>2019-08-07T14:49:23Z</time>
      </trkpt>
      <trkpt lat="48.7484970" lon="14.3373920">
        <ele>641.0</ele>
        <time>2019-08-07T14:49:24Z</time>
      </trkpt>
      <trkpt lat="48.7485380" lon="14.3374090">
        <ele>641.0</ele>
        <time>2019-08-07T14:49:25Z</time>
      </trkpt>
      <trkpt lat="48.7485790" lon="14.3374250">
        <ele>641.2</ele>
        <time>2019-08-07T14:49:26Z</time>
      </trkpt>
      <trkpt lat="48.7486190" lon="14.3374400">
        <ele>641.4</ele>
        <time>2019-08-07T14:49:27Z</time>
      </trkpt>
      <trkpt lat="48.7486620" lon="14.3374570">
        <ele>641.4</ele>
        <time>2019-08-07T14:49:28Z</time>
      </trkpt>
      <trkpt lat="48.7487030" lon="14.3374720">
        <ele>641.6</ele>
        <time>2019-08-07T14:49:29Z</time>
      </trkpt>
      <trkpt lat="48.7487450" lon="14.3374880">
        <ele>641.8</ele>
        <time>2019-08-07T14:49:30Z</time>
      </trkpt>
      <trkpt lat="48.7487860" lon="14.3375050">
        <ele>641.8</ele>
        <time>2019-08-07T14:49:31Z</time>
      </trkpt>
      <trkpt lat="48.7488260" lon="14.3375200">
        <ele>642.0</ele>
        <time>2019-08-07T14:49:32Z</time>
      </trkpt>
      <trkpt lat="48.7488650" lon="14.3375360">
        <ele>642.2</ele>
        <time>2019-08-07T14:49:33Z</time>
      </trkpt>
      <trkpt lat="48.7489050" lon="14.3375540">
        <ele>642.4</ele>
        <time>2019-08-07T14:49:34Z</time>
      </trkpt>
      <trkpt lat="48.7489450" lon="14.3375720">
        <ele>642.6</ele>
        <time>2019-08-07T14:49:35Z</time>
      </trkpt>
      <trkpt lat="48.7489870" lon="14.3375880">
        <ele>642.8</ele>
        <time>2019-08-07T14:49:36Z</time>
      </trkpt>
      <trkpt lat="48.7490270" lon="14.3376040">
        <ele>643.0</ele>
        <time>2019-08-07T14:49:37Z</time>
      </trkpt>
      <trkpt lat="48.7490650" lon="14.3376210">
        <ele>643.2</ele>
        <time>2019-08-07T14:49:38Z</time>
      </trkpt>
      <trkpt lat="48.7491030" lon="14.3376390">
        <ele>643.4</ele>
        <time>2019-08-07T14:49:39Z</time>
      </trkpt>
      <trkpt lat="48.7491420" lon="14.3376570">
        <ele>643.6</ele>
        <time>2019-08-07T14:49:40Z</time>
      </trkpt>
      <trkpt lat="48.7491800" lon="14.3376730">
        <ele>643.8</ele>
        <time>2019-08-07T14:49:41Z</time>
      </trkpt>
      <trkpt lat="48.7492180" lon="14.3376890">
        <ele>644.0</ele>
        <time>2019-08-07T14:49:42Z</time>
      </trkpt>
      <trkpt lat="48.7492530" lon="14.3377060">
        <ele>644.2</ele>
        <time>2019-08-07T14:49:43Z</time>
      </trkpt>
      <trkpt lat="48.7492880" lon="14.3377230">
        <ele>644.4</ele>
        <time>2019-08-07T14:49:44Z</time>
      </trkpt>
      <trkpt lat="48.7493230" lon="14.3377380">
        <ele>644.6</ele>
        <time>2019-08-07T14:49:45Z</time>
      </trkpt>
      <trkpt lat="48.7493580" lon="14.3377500">
        <ele>644.6</ele>
        <time>2019-08-07T14:49:46Z</time>
      </trkpt>
      <trkpt lat="48.7493930" lon="14.3377620">
        <ele>644.8</ele>
        <time>2019-08-07T14:49:47Z</time>
      </trkpt>
      <trkpt lat="48.7494300" lon="14.3377750">
        <ele>645.0</ele>
        <time>2019-08-07T14:49:48Z</time>
      </trkpt>
      <trkpt lat="48.7494650" lon="14.3377880">
        <ele>645.2</ele>
        <time>2019-08-07T14:49:49Z</time>
      </trkpt>
      <trkpt lat="48.7495000" lon="14.3378010">
        <ele>645.2</ele>
        <time>2019-08-07T14:49:50Z</time>
      </trkpt>
      <trkpt lat="48.7495340" lon="14.3378110">
        <ele>645.4</ele>
        <time>2019-08-07T14:49:51Z</time>
      </trkpt>
      <trkpt lat="48.7495680" lon="14.3378200">
        <ele>645.6</ele>
        <time>2019-08-07T14:49:52Z</time>
      </trkpt>
      <trkpt lat="48.7496000" lon="14.3378290">
        <ele>645.6</ele>
        <time>2019-08-07T14:49:53Z</time>
      </trkpt>
      <trkpt lat="48.7496320" lon="14.3378370">
        <ele>645.8</ele>
        <time>2019-08-07T14:49:54Z</time>
      </trkpt>
      <trkpt lat="48.7496630" lon="14.3378450">
        <ele>646.0</ele>
        <time>2019-08-07T14:49:55Z</time>
      </trkpt>
      <trkpt lat="48.7496950" lon="14.3378520">
        <ele>646.0</ele>
        <time>2019-08-07T14:49:56Z</time>
      </trkpt>
      <trkpt lat="48.7497270" lon="14.3378560">
        <ele>646.2</ele>
        <time>2019-08-07T14:49:57Z</time>
      </trkpt>
      <trkpt lat="48.7497590" lon="14.3378630">
        <ele>646.2</ele>
        <time>2019-08-07T14:49:58Z</time>
      </trkpt>
      <trkpt lat="48.7497930" lon="14.3378700">
        <ele>646.4</ele>
        <time>2019-08-07T14:49:59Z</time>
      </trkpt>
      <trkpt lat="48.7498280" lon="14.3378760">
        <ele>646.4</ele>
        <time>2019-08-07T14:50:00Z</time>
      </trkpt>
      <trkpt lat="48.7498650" lon="14.3378810">
        <ele>646.4</ele>
        <time>2019-08-07T14:50:01Z</time>
      </trkpt>
      <trkpt lat="48.7499060" lon="14.3378850">
        <ele>646.4</ele>
        <time>2019-08-07T14:50:02Z</time>
      </trkpt>
      <trkpt lat="48.7499500" lon="14.3378910">
        <ele>646.2</ele>
        <time>2019-08-07T14:50:03Z</time>
      </trkpt>
      <trkpt lat="48.7499980" lon="14.3378960">
        <ele>646.2</ele>
        <time>2019-08-07T14:50:04Z</time>
      </trkpt>
      <trkpt lat="48.7500480" lon="14.3379000">
        <ele>646.0</ele>
        <time>2019-08-07T14:50:05Z</time>
      </trkpt>
      <trkpt lat="48.7501030" lon="14.3379020">
        <ele>645.8</ele>
        <time>2019-08-07T14:50:06Z</time>
      </trkpt>
      <trkpt lat="48.7501580" lon="14.3379010">
        <ele>645.6</ele>
        <time>2019-08-07T14:50:07Z</time>
      </trkpt>
      <trkpt lat="48.7502140" lon="14.3378990">
        <ele>645.6</ele>
        <time>2019-08-07T14:50:08Z</time>
      </trkpt>
      <trkpt lat="48.7502740" lon="14.3378950">
        <ele>645.6</ele>
        <time>2019-08-07T14:50:09Z</time>
      </trkpt>
      <trkpt lat="48.7503340" lon="14.3378870">
        <ele>645.4</ele>
        <time>2019-08-07T14:50:10Z</time>
      </trkpt>
      <trkpt lat="48.7503920" lon="14.3378830">
        <ele>645.2</ele>
        <time>2019-08-07T14:50:11Z</time>
      </trkpt>
      <trkpt lat="48.7504480" lon="14.3378800">
        <ele>645.2</ele>
        <time>2019-08-07T14:50:12Z</time>
      </trkpt>
      <trkpt lat="48.7505050" lon="14.3378800">
        <ele>645.0</ele>
        <time>2019-08-07T14:50:13Z</time>
      </trkpt>
      <trkpt lat="48.7505620" lon="14.3378820">
        <ele>645.0</ele>
        <time>2019-08-07T14:50:14Z</time>
      </trkpt>
      <trkpt lat="48.7506180" lon="14.3378860">
        <ele>645.0</ele>
        <time>2019-08-07T14:50:15Z</time>
      </trkpt>
      <trkpt lat="48.7506740" lon="14.3378890">
        <ele>645.0</ele>
        <time>2019-08-07T14:50:16Z</time>
      </trkpt>
      <trkpt lat="48.7507300" lon="14.3378920">
        <ele>645.0</ele>
        <time>2019-08-07T14:50:17Z</time>
      </trkpt>
      <trkpt lat="48.7507860" lon="14.3378940">
        <ele>645.2</ele>
        <time>2019-08-07T14:50:18Z</time>
      </trkpt>
      <trkpt lat="48.7508410" lon="14.3378950">
        <ele>645.2</ele>
        <time>2019-08-07T14:50:19Z</time>
      </trkpt>
      <trkpt lat="48.7508960" lon="14.3378930">
        <ele>645.2</ele>
        <time>2019-08-07T14:50:20Z</time>
      </trkpt>
      <trkpt lat="48.7509480" lon="14.3378930">
        <ele>645.2</ele>
        <time>2019-08-07T14:50:21Z</time>
      </trkpt>
      <trkpt lat="48.7510000" lon="14.3378920">
        <ele>645.2</ele>
        <time>2019-08-07T14:50:22Z</time>
      </trkpt>
      <trkpt lat="48.7510540" lon="14.3378920">
        <ele>645.2</ele>
        <time>2019-08-07T14:50:23Z</time>
      </trkpt>
      <trkpt lat="48.7511090" lon="14.3378940">
        <ele>645.2</ele>
        <time>2019-08-07T14:50:24Z</time>
      </trkpt>
      <trkpt lat="48.7511660" lon="14.3378950">
        <ele>645.4</ele>
        <time>2019-08-07T14:50:25Z</time>
      </trkpt>
      <trkpt lat="48.7512200" lon="14.3378980">
        <ele>645.4</ele>
        <time>2019-08-07T14:50:26Z</time>
      </trkpt>
      <trkpt lat="48.7512760" lon="14.3379050">
        <ele>645.4</ele>
        <time>2019-08-07T14:50:27Z</time>
      </trkpt>
      <trkpt lat="48.7513300" lon="14.3379130">
        <ele>645.4</ele>
        <time>2019-08-07T14:50:28Z</time>
      </trkpt>
      <trkpt lat="48.7513840" lon="14.3379240">
        <ele>645.2</ele>
        <time>2019-08-07T14:50:29Z</time>
      </trkpt>
      <trkpt lat="48.7514390" lon="14.3379360">
        <ele>645.4</ele>
        <time>2019-08-07T14:50:30Z</time>
      </trkpt>
      <trkpt lat="48.7514920" lon="14.3379500">
        <ele>645.4</ele>
        <time>2019-08-07T14:50:31Z</time>
      </trkpt>
      <trkpt lat="48.7515440" lon="14.3379630">
        <ele>645.4</ele>
        <time>2019-08-07T14:50:32Z</time>
      </trkpt>
      <trkpt lat="48.7515970" lon="14.3379780">
        <ele>645.4</ele>
        <time>2019-08-07T14:50:33Z</time>
      </trkpt>
      <trkpt lat="48.7516500" lon="14.3379910">
        <ele>645.4</ele>
        <time>2019-08-07T14:50:34Z</time>
      </trkpt>
      <trkpt lat="48.7517020" lon="14.3380030">
        <ele>645.4</ele>
        <time>2019-08-07T14:50:35Z</time>
      </trkpt>
      <trkpt lat="48.7517530" lon="14.3380160">
        <ele>645.6</ele>
        <time>2019-08-07T14:50:36Z</time>
      </trkpt>
      <trkpt lat="48.7518030" lon="14.3380270">
        <ele>645.6</ele>
        <time>2019-08-07T14:50:37Z</time>
      </trkpt>
      <trkpt lat="48.7518510" lon="14.3380370">
        <ele>645.8</ele>
        <time>2019-08-07T14:50:38Z</time>
      </trkpt>
      <trkpt lat="48.7518990" lon="14.3380470">
        <ele>645.8</ele>
        <time>2019-08-07T14:50:39Z</time>
      </trkpt>
      <trkpt lat="48.7519470" lon="14.3380550">
        <ele>646.0</ele>
        <time>2019-08-07T14:50:40Z</time>
      </trkpt>
      <trkpt lat="48.7519930" lon="14.3380630">
        <ele>646.2</ele>
        <time>2019-08-07T14:50:41Z</time>
      </trkpt>
      <trkpt lat="48.7520370" lon="14.3380700">
        <ele>646.2</ele>
        <time>2019-08-07T14:50:42Z</time>
      </trkpt>
      <trkpt lat="48.7520830" lon="14.3380800">
        <ele>646.2</ele>
        <time>2019-08-07T14:50:43Z</time>
      </trkpt>
      <trkpt lat="48.7521290" lon="14.3380870">
        <ele>646.4</ele>
        <time>2019-08-07T14:50:44Z</time>
      </trkpt>
      <trkpt lat="48.7521740" lon="14.3380960">
        <ele>646.4</ele>
        <time>2019-08-07T14:50:45Z</time>
      </trkpt>
      <trkpt lat="48.7522180" lon="14.3381080">
        <ele>646.6</ele>
        <time>2019-08-07T14:50:46Z</time>
      </trkpt>
      <trkpt lat="48.7522590" lon="14.3381200">
        <ele>646.6</ele>
        <time>2019-08-07T14:50:47Z</time>
      </trkpt>
      <trkpt lat="48.7522990" lon="14.3381280">
        <ele>646.8</ele>
        <time>2019-08-07T14:50:48Z</time>
      </trkpt>
      <trkpt lat="48.7523370" lon="14.3381350">
        <ele>647.0</ele>
        <time>2019-08-07T14:50:49Z</time>
      </trkpt>
      <trkpt lat="48.7523740" lon="14.3381410">
        <ele>647.2</ele>
        <time>2019-08-07T14:50:50Z</time>
      </trkpt>
      <trkpt lat="48.7524140" lon="14.3381440">
        <ele>647.4</ele>
        <time>2019-08-07T14:50:51Z</time>
      </trkpt>
      <trkpt lat="48.7524530" lon="14.3381470">
        <ele>647.6</ele>
        <time>2019-08-07T14:50:52Z</time>
      </trkpt>
      <trkpt lat="48.7524910" lon="14.3381470">
        <ele>647.8</ele>
        <time>2019-08-07T14:50:53Z</time>
      </trkpt>
      <trkpt lat="48.7525300" lon="14.3381510">
        <ele>648.0</ele>
        <time>2019-08-07T14:50:54Z</time>
      </trkpt>
      <trkpt lat="48.7525690" lon="14.3381540">
        <ele>648.0</ele>
        <time>2019-08-07T14:50:55Z</time>
      </trkpt>
      <trkpt lat="48.7526070" lon="14.3381570">
        <ele>648.2</ele>
        <time>2019-08-07T14:50:56Z</time>
      </trkpt>
      <trkpt lat="48.7526450" lon="14.3381610">
        <ele>648.4</ele>
        <time>2019-08-07T14:50:57Z</time>
      </trkpt>
      <trkpt lat="48.7526860" lon="14.3381640">
        <ele>648.4</ele>
        <time>2019-08-07T14:50:58Z</time>
      </trkpt>
      <trkpt lat="48.7527260" lon="14.3381650">
        <ele>648.6</ele>
        <time>2019-08-07T14:50:59Z</time>
      </trkpt>
      <trkpt lat="48.7527660" lon="14.3381650">
        <ele>648.8</ele>
        <time>2019-08-07T14:51:00Z</time>
      </trkpt>
      <trkpt lat="48.7528070" lon="14.3381630">
        <ele>648.8</ele>
        <time>2019-08-07T14:51:01Z</time>
      </trkpt>
      <trkpt lat="48.7528480" lon="14.3381590">
        <ele>649.0</ele>
        <time>2019-08-07T14:51:02Z</time>
      </trkpt>
      <trkpt lat="48.7528910" lon="14.3381560">
        <ele>649.0</ele>
        <time>2019-08-07T14:51:03Z</time>
      </trkpt>
      <trkpt lat="48.7529330" lon="14.3381510">
        <ele>649.2</ele>
        <time>2019-08-07T14:51:04Z</time>
      </trkpt>
      <trkpt lat="48.7529740" lon="14.3381450">
        <ele>649.2</ele>
        <time>2019-08-07T14:51:05Z</time>
      </trkpt>
      <trkpt lat="48.7530150" lon="14.3381370">
        <ele>649.4</ele>
        <time>2019-08-07T14:51:06Z</time>
      </trkpt>
      <trkpt lat="48.7530570" lon="14.3381290">
        <ele>649.4</ele>
        <time>2019-08-07T14:51:07Z</time>
      </trkpt>
      <trkpt lat="48.7530990" lon="14.3381220">
        <ele>649.6</ele>
        <time>2019-08-07T14:51:08Z</time>
      </trkpt>
      <trkpt lat="48.7531390" lon="14.3381150">
        <ele>649.8</ele>
        <time>2019-08-07T14:51:09Z</time>
      </trkpt>
      <trkpt lat="48.7531760" lon="14.3381070">
        <ele>649.8</ele>
        <time>2019-08-07T14:51:10Z</time>
      </trkpt>
      <trkpt lat="48.7532150" lon="14.3381030">
        <ele>650.0</ele>
        <time>2019-08-07T14:51:11Z</time>
      </trkpt>
      <trkpt lat="48.7532560" lon="14.3381010">
        <ele>650.0</ele>
        <time>2019-08-07T14:51:12Z</time>
      </trkpt>
      <trkpt lat="48.7532950" lon="14.3380970">
        <ele>650.2</ele>
        <time>2019-08-07T14:51:13Z</time>
      </trkpt>
      <trkpt lat="48.7533360" lon="14.3380920">
        <ele>650.2</ele>
        <time>2019-08-07T14:51:14Z</time>
      </trkpt>
      <trkpt lat="48.7533750" lon="14.3380850">
        <ele>650.4</ele>
        <time>2019-08-07T14:51:15Z</time>
      </trkpt>
      <trkpt lat="48.7534150" lon="14.3380780">
        <ele>650.6</ele>
        <time>2019-08-07T14:51:16Z</time>
      </trkpt>
      <trkpt lat="48.7534540" lon="14.3380700">
        <ele>650.8</ele>
        <time>2019-08-07T14:51:17Z</time>
      </trkpt>
      <trkpt lat="48.7534920" lon="14.3380630">
        <ele>651.0</ele>
        <time>2019-08-07T14:51:18Z</time>
      </trkpt>
      <trkpt lat="48.7535310" lon="14.3380550">
        <ele>651.0</ele>
        <time>2019-08-07T14:51:19Z</time>
      </trkpt>
      <trkpt lat="48.7535690" lon="14.3380500">
        <ele>651.2</ele>
        <time>2019-08-07T14:51:20Z</time>
      </trkpt>
      <trkpt lat="48.7536070" lon="14.3380480">
        <ele>651.4</ele>
        <time>2019-08-07T14:51:21Z</time>
      </trkpt>
      <trkpt lat="48.7536460" lon="14.3380480">
        <ele>651.6</ele>
        <time>2019-08-07T14:51:22Z</time>
      </trkpt>
      <trkpt lat="48.7536850" lon="14.3380480">
        <ele>651.8</ele>
        <time>2019-08-07T14:51:23Z</time>
      </trkpt>
      <trkpt lat="48.7537220" lon="14.3380440">
        <ele>651.8</ele>
        <time>2019-08-07T14:51:24Z</time>
      </trkpt>
      <trkpt lat="48.7537590" lon="14.3380390">
        <ele>652.0</ele>
        <time>2019-08-07T14:51:25Z</time>
      </trkpt>
      <trkpt lat="48.7537940" lon="14.3380330">
        <ele>652.2</ele>
        <time>2019-08-07T14:51:26Z</time>
      </trkpt>
      <trkpt lat="48.7538290" lon="14.3380300">
        <ele>652.4</ele>
        <time>2019-08-07T14:51:27Z</time>
      </trkpt>
      <trkpt lat="48.7538620" lon="14.3380300">
        <ele>652.6</ele>
        <time>2019-08-07T14:51:28Z</time>
      </trkpt>
      <trkpt lat="48.7538960" lon="14.3380300">
        <ele>652.8</ele>
        <time>2019-08-07T14:51:29Z</time>
      </trkpt>
      <trkpt lat="48.7539290" lon="14.3380300">
        <ele>653.0</ele>
        <time>2019-08-07T14:51:30Z</time>
      </trkpt>
      <trkpt lat="48.7539610" lon="14.3380320">
        <ele>653.2</ele>
        <time>2019-08-07T14:51:31Z</time>
      </trkpt>
      <trkpt lat="48.7539940" lon="14.3380310">
        <ele>653.2</ele>
        <time>2019-08-07T14:51:32Z</time>
      </trkpt>
      <trkpt lat="48.7540250" lon="14.3380300">
        <ele>653.4</ele>
        <time>2019-08-07T14:51:33Z</time>
      </trkpt>
      <trkpt lat="48.7540590" lon="14.3380300">
        <ele>653.6</ele>
        <time>2019-08-07T14:51:34Z</time>
      </trkpt>
      <trkpt lat="48.7540930" lon="14.3380280">
        <ele>653.6</ele>
        <time>2019-08-07T14:51:35Z</time>
      </trkpt>
      <trkpt lat="48.7541260" lon="14.3380260">
        <ele>653.8</ele>
        <time>2019-08-07T14:51:36Z</time>
      </trkpt>
      <trkpt lat="48.7541590" lon="14.3380210">
        <ele>654.0</ele>
        <time>2019-08-07T14:51:37Z</time>
      </trkpt>
      <trkpt lat="48.7541930" lon="14.3380150">
        <ele>654.2</ele>
        <time>2019-08-07T14:51:38Z</time>
      </trkpt>
      <trkpt lat="48.7542260" lon="14.3380080">
        <ele>654.4</ele>
        <time>2019-08-07T14:51:39Z</time>
      </trkpt>
      <trkpt lat="48.7542590" lon="14.3380030">
        <ele>654.4</ele>
        <time>2019-08-07T14:51:40Z</time>
      </trkpt>
      <trkpt lat="48.7542920" lon="14.3380000">
        <ele>654.6</ele>
        <time>2019-08-07T14:51:41Z</time>
      </trkpt>
      <trkpt lat="48.7543240" lon="14.3380030">
        <ele>654.6</ele>
        <time>2019-08-07T14:51:42Z</time>
      </trkpt>
      <trkpt lat="48.7543590" lon="14.3380070">
        <ele>654.6</ele>
        <time>2019-08-07T14:51:43Z</time>
      </trkpt>
      <trkpt lat="48.7543950" lon="14.3380060">
        <ele>654.8</ele>
        <time>2019-08-07T14:51:44Z</time>
      </trkpt>
      <trkpt lat="48.7544320" lon="14.3380030">
        <ele>654.8</ele>
        <time>2019-08-07T14:51:45Z</time>
      </trkpt>
      <trkpt lat="48.7544700" lon="14.3380030">
        <ele>654.8</ele>
        <time>2019-08-07T14:51:46Z</time>
      </trkpt>
      <trkpt lat="48.7545100" lon="14.3380020">
        <ele>655.0</ele>
        <time>2019-08-07T14:51:47Z</time>
      </trkpt>
      <trkpt lat="48.7545510" lon="14.3380010">
        <ele>655.0</ele>
        <time>2019-08-07T14:51:48Z</time>
      </trkpt>
      <trkpt lat="48.7545920" lon="14.3380000">
        <ele>655.0</ele>
        <time>2019-08-07T14:51:49Z</time>
      </trkpt>
      <trkpt lat="48.7546320" lon="14.3380010">
        <ele>655.0</ele>
        <time>2019-08-07T14:51:50Z</time>
      </trkpt>
      <trkpt lat="48.7546730" lon="14.3380000">
        <ele>655.0</ele>
        <time>2019-08-07T14:51:51Z</time>
      </trkpt>
      <trkpt lat="48.7547140" lon="14.3379980">
        <ele>655.0</ele>
        <time>2019-08-07T14:51:52Z</time>
      </trkpt>
      <trkpt lat="48.7547550" lon="14.3379980">
        <ele>655.0</ele>
        <time>2019-08-07T14:51:53Z</time>
      </trkpt>
      <trkpt lat="48.7547980" lon="14.3379980">
        <ele>655.0</ele>
        <time>2019-08-07T14:51:54Z</time>
      </trkpt>
      <trkpt lat="48.7548420" lon="14.3379990">
        <ele>655.0</ele>
        <time>2019-08-07T14:51:55Z</time>
      </trkpt>
      <trkpt lat="48.7548850" lon="14.3380010">
        <ele>655.0</ele>
        <time>2019-08-07T14:51:56Z</time>
      </trkpt>
      <trkpt lat="48.7549280" lon="14.3380040">
        <ele>655.2</ele>
        <time>2019-08-07T14:51:57Z</time>
      </trkpt>
      <trkpt lat="48.7549710" lon="14.3380050">
        <ele>655.2</ele>
        <time>2019-08-07T14:51:58Z</time>
      </trkpt>
      <trkpt lat="48.7550130" lon="14.3380070">
        <ele>655.2</ele>
        <time>2019-08-07T14:51:59Z</time>
      </trkpt>
      <trkpt lat="48.7550540" lon="14.3380110">
        <ele>655.2</ele>
        <time>2019-08-07T14:52:00Z</time>
      </trkpt>
      <trkpt lat="48.7550950" lon="14.3380140">
        <ele>655.2</ele>
        <time>2019-08-07T14:52:01Z</time>
      </trkpt>
      <trkpt lat="48.7551350" lon="14.3380180">
        <ele>655.4</ele>
        <time>2019-08-07T14:52:02Z</time>
      </trkpt>
      <trkpt lat="48.7551750" lon="14.3380220">
        <ele>655.4</ele>
        <time>2019-08-07T14:52:03Z</time>
      </trkpt>
      <trkpt lat="48.7552140" lon="14.3380260">
        <ele>655.4</ele>
        <time>2019-08-07T14:52:04Z</time>
      </trkpt>
      <trkpt lat="48.7552520" lon="14.3380290">
        <ele>655.6</ele>
        <time>2019-08-07T14:52:05Z</time>
      </trkpt>
      <trkpt lat="48.7552900" lon="14.3380310">
        <ele>655.6</ele>
        <time>2019-08-07T14:52:06Z</time>
      </trkpt>
      <trkpt lat="48.7553270" lon="14.3380340">
        <ele>655.8</ele>
        <time>2019-08-07T14:52:07Z</time>
      </trkpt>
      <trkpt lat="48.7553630" lon="14.3380370">
        <ele>656.0</ele>
        <time>2019-08-07T14:52:08Z</time>
      </trkpt>
      <trkpt lat="48.7553980" lon="14.3380410">
        <ele>656.0</ele>
        <time>2019-08-07T14:52:09Z</time>
      </trkpt>
      <trkpt lat="48.7554330" lon="14.3380450">
        <ele>656.2</ele>
        <time>2019-08-07T14:52:10Z</time>
      </trkpt>
      <trkpt lat="48.7554660" lon="14.3380490">
        <ele>656.2</ele>
        <time>2019-08-07T14:52:11Z</time>
      </trkpt>
      <trkpt lat="48.7554990" lon="14.3380550">
        <ele>656.4</ele>
        <time>2019-08-07T14:52:12Z</time>
      </trkpt>
      <trkpt lat="48.7555330" lon="14.3380610">
        <ele>656.6</ele>
        <time>2019-08-07T14:52:13Z</time>
      </trkpt>
      <trkpt lat="48.7555650" lon="14.3380660">
        <ele>656.6</ele>
        <time>2019-08-07T14:52:14Z</time>
      </trkpt>
      <trkpt lat="48.7555960" lon="14.3380730">
        <ele>656.8</ele>
        <time>2019-08-07T14:52:15Z</time>
      </trkpt>
      <trkpt lat="48.7556260" lon="14.3380800">
        <ele>656.8</ele>
        <time>2019-08-07T14:52:16Z</time>
      </trkpt>
      <trkpt lat="48.7556560" lon="14.3380860">
        <ele>657.0</ele>
        <time>2019-08-07T14:52:17Z</time>
      </trkpt>
      <trkpt lat="48.7556850" lon="14.3380910">
        <ele>657.2</ele>
        <time>2019-08-07T14:52:18Z</time>
      </trkpt>
      <trkpt lat="48.7557130" lon="14.3380980">
        <ele>657.2</ele>
        <time>2019-08-07T14:52:19Z</time>
      </trkpt>
      <trkpt lat="48.7557430" lon="14.3381050">
        <ele>657.4</ele>
        <time>2019-08-07T14:52:20Z</time>
      </trkpt>
      <trkpt lat="48.7557700" lon="14.3381100">
        <ele>657.6</ele>
        <time>2019-08-07T14:52:21Z</time>
      </trkpt>
      <trkpt lat="48.7557980" lon="14.3381170">
        <ele>657.8</ele>
        <time>2019-08-07T14:52:22Z</time>
      </trkpt>
      <trkpt lat="48.7558240" lon="14.3381240">
        <ele>658.0</ele>
        <time>2019-08-07T14:52:23Z</time>
      </trkpt>
      <trkpt lat="48.7558510" lon="14.3381320">
        <ele>658.2</ele>
        <time>2019-08-07T14:52:24Z</time>
      </trkpt>
      <trkpt lat="48.7558770" lon="14.3381410">
        <ele>658.2</ele>
        <time>2019-08-07T14:52:25Z</time>
      </trkpt>
      <trkpt lat="48.7559020" lon="14.3381490">
        <ele>658.4</ele>
        <time>2019-08-07T14:52:26Z</time>
      </trkpt>
      <trkpt lat="48.7559250" lon="14.3381560">
        <ele>658.6</ele>
        <time>2019-08-07T14:52:27Z</time>
      </trkpt>
      <trkpt lat="48.7559470" lon="14.3381630">
        <ele>658.8</ele>
        <time>2019-08-07T14:52:28Z</time>
      </trkpt>
      <trkpt lat="48.7559680" lon="14.3381670">
        <ele>659.0</ele>
        <time>2019-08-07T14:52:29Z</time>
      </trkpt>
      <trkpt lat="48.7559890" lon="14.3381710">
        <ele>659.2</ele>
        <time>2019-08-07T14:52:30Z</time>
      </trkpt>
      <trkpt lat="48.7560110" lon="14.3381760">
        <ele>659.2</ele>
        <time>2019-08-07T14:52:31Z</time>
      </trkpt>
      <trkpt lat="48.7560330" lon="14.3381810">
        <ele>659.4</ele>
        <time>2019-08-07T14:52:32Z</time>
      </trkpt>
      <trkpt lat="48.7560680" lon="14.3381840">
        <ele>659.6</ele>
        <time>2019-08-07T14:52:33Z</time>
      </trkpt>
      <trkpt lat="48.7560820" lon="14.3381840">
        <ele>659.8</ele>
        <time>2019-08-07T14:52:34Z</time>
      </trkpt>
      <trkpt lat="48.7560950" lon="14.3381850">
        <ele>659.8</ele>
        <time>2019-08-07T14:52:35Z</time>
      </trkpt>
      <trkpt lat="48.7561160" lon="14.3381880">
        <ele>660.0</ele>
        <time>2019-08-07T14:52:36Z</time>
      </trkpt>
      <trkpt lat="48.7561380" lon="14.3381930">
        <ele>660.2</ele>
        <time>2019-08-07T14:52:37Z</time>
      </trkpt>
      <trkpt lat="48.7561600" lon="14.3381980">
        <ele>660.4</ele>
        <time>2019-08-07T14:52:38Z</time>
      </trkpt>
      <trkpt lat="48.7561800" lon="14.3382020">
        <ele>660.6</ele>
        <time>2019-08-07T14:52:39Z</time>
      </trkpt>
      <trkpt lat="48.7562010" lon="14.3382050">
        <ele>660.8</ele>
        <time>2019-08-07T14:52:40Z</time>
      </trkpt>
      <trkpt lat="48.7562220" lon="14.3382070">
        <ele>661.0</ele>
        <time>2019-08-07T14:52:41Z</time>
      </trkpt>
      <trkpt lat="48.7562430" lon="14.3382110">
        <ele>661.2</ele>
        <time>2019-08-07T14:52:42Z</time>
      </trkpt>
      <trkpt lat="48.7562630" lon="14.3382160">
        <ele>661.2</ele>
        <time>2019-08-07T14:52:43Z</time>
      </trkpt>
      <trkpt lat="48.7562830" lon="14.3382190">
        <ele>661.4</ele>
        <time>2019-08-07T14:52:44Z</time>
      </trkpt>
      <trkpt lat="48.7563030" lon="14.3382200">
        <ele>661.8</ele>
        <time>2019-08-07T14:52:45Z</time>
      </trkpt>
      <trkpt lat="48.7563230" lon="14.3382180">
        <ele>662.0</ele>
        <time>2019-08-07T14:52:46Z</time>
      </trkpt>
      <trkpt lat="48.7563440" lon="14.3382150">
        <ele>662.2</ele>
        <time>2019-08-07T14:52:47Z</time>
      </trkpt>
      <trkpt lat="48.7563650" lon="14.3382160">
        <ele>662.4</ele>
        <time>2019-08-07T14:52:48Z</time>
      </trkpt>
      <trkpt lat="48.7563840" lon="14.3382220">
        <ele>662.6</ele>
        <time>2019-08-07T14:52:49Z</time>
      </trkpt>
      <trkpt lat="48.7564030" lon="14.3382280">
        <ele>662.8</ele>
        <time>2019-08-07T14:52:50Z</time>
      </trkpt>
      <trkpt lat="48.7564230" lon="14.3382330">
        <ele>663.0</ele>
        <time>2019-08-07T14:52:51Z</time>
      </trkpt>
      <trkpt lat="48.7564430" lon="14.3382390">
        <ele>663.0</ele>
        <time>2019-08-07T14:52:52Z</time>
      </trkpt>
      <trkpt lat="48.7564630" lon="14.3382430">
        <ele>663.2</ele>
        <time>2019-08-07T14:52:53Z</time>
      </trkpt>
      <trkpt lat="48.7564830" lon="14.3382470">
        <ele>663.2</ele>
        <time>2019-08-07T14:52:54Z</time>
      </trkpt>
      <trkpt lat="48.7565040" lon="14.3382490">
        <ele>663.4</ele>
        <time>2019-08-07T14:52:55Z</time>
      </trkpt>
      <trkpt lat="48.7565250" lon="14.3382520">
        <ele>663.4</ele>
        <time>2019-08-07T14:52:56Z</time>
      </trkpt>
      <trkpt lat="48.7565480" lon="14.3382530">
        <ele>663.6</ele>
        <time>2019-08-07T14:52:57Z</time>
      </trkpt>
      <trkpt lat="48.7565700" lon="14.3382530">
        <ele>663.6</ele>
        <time>2019-08-07T14:52:58Z</time>
      </trkpt>
      <trkpt lat="48.7565920" lon="14.3382540">
        <ele>663.8</ele>
        <time>2019-08-07T14:52:59Z</time>
      </trkpt>
      <trkpt lat="48.7566130" lon="14.3382550">
        <ele>663.8</ele>
        <time>2019-08-07T14:53:00Z</time>
      </trkpt>
      <trkpt lat="48.7566350" lon="14.3382530">
        <ele>663.8</ele>
        <time>2019-08-07T14:53:01Z</time>
      </trkpt>
      <trkpt lat="48.7566590" lon="14.3382510">
        <ele>664.0</ele>
        <time>2019-08-07T14:53:02Z</time>
      </trkpt>
      <trkpt lat="48.7566840" lon="14.3382480">
        <ele>664.2</ele>
        <time>2019-08-07T14:53:03Z</time>
      </trkpt>
      <trkpt lat="48.7567110" lon="14.3382480">
        <ele>664.2</ele>
        <time>2019-08-07T14:53:04Z</time>
      </trkpt>
      <trkpt lat="48.7567380" lon="14.3382480">
        <ele>664.2</ele>
        <time>2019-08-07T14:53:05Z</time>
      </trkpt>
      <trkpt lat="48.7567660" lon="14.3382480">
        <ele>664.4</ele>
        <time>2019-08-07T14:53:06Z</time>
      </trkpt>
      <trkpt lat="48.7567950" lon="14.3382470">
        <ele>664.4</ele>
        <time>2019-08-07T14:53:07Z</time>
      </trkpt>
      <trkpt lat="48.7568250" lon="14.3382490">
        <ele>664.4</ele>
        <time>2019-08-07T14:53:08Z</time>
      </trkpt>
      <trkpt lat="48.7568550" lon="14.3382490">
        <ele>664.6</ele>
        <time>2019-08-07T14:53:09Z</time>
      </trkpt>
      <trkpt lat="48.7568850" lon="14.3382460">
        <ele>664.6</ele>
        <time>2019-08-07T14:53:10Z</time>
      </trkpt>
      <trkpt lat="48.7569170" lon="14.3382420">
        <ele>664.6</ele>
        <time>2019-08-07T14:53:11Z</time>
      </trkpt>
      <trkpt lat="48.7569510" lon="14.3382380">
        <ele>664.6</ele>
        <time>2019-08-07T14:53:12Z</time>
      </trkpt>
      <trkpt lat="48.7569820" lon="14.3382350">
        <ele>664.6</ele>
        <time>2019-08-07T14:53:13Z</time>
      </trkpt>
      <trkpt lat="48.7570160" lon="14.3382320">
        <ele>664.6</ele>
        <time>2019-08-07T14:53:14Z</time>
      </trkpt>
      <trkpt lat="48.7570510" lon="14.3382270">
        <ele>664.4</ele>
        <time>2019-08-07T14:53:15Z</time>
      </trkpt>
      <trkpt lat="48.7570860" lon="14.3382230">
        <ele>664.4</ele>
        <time>2019-08-07T14:53:16Z</time>
      </trkpt>
      <trkpt lat="48.7571210" lon="14.3382200">
        <ele>664.4</ele>
        <time>2019-08-07T14:53:17Z</time>
      </trkpt>
      <trkpt lat="48.7571570" lon="14.3382180">
        <ele>664.4</ele>
        <time>2019-08-07T14:53:18Z</time>
      </trkpt>
      <trkpt lat="48.7571930" lon="14.3382170">
        <ele>664.4</ele>
        <time>2019-08-07T14:53:19Z</time>
      </trkpt>
      <trkpt lat="48.7572300" lon="14.3382190">
        <ele>664.4</ele>
        <time>2019-08-07T14:53:20Z</time>
      </trkpt>
      <trkpt lat="48.7572680" lon="14.3382250">
        <ele>664.4</ele>
        <time>2019-08-07T14:53:21Z</time>
      </trkpt>
      <trkpt lat="48.7573040" lon="14.3382310">
        <ele>664.2</ele>
        <time>2019-08-07T14:53:22Z</time>
      </trkpt>
      <trkpt lat="48.7573440" lon="14.3382360">
        <ele>664.2</ele>
        <time>2019-08-07T14:53:23Z</time>
      </trkpt>
      <trkpt lat="48.7573840" lon="14.3382440">
        <ele>664.2</ele>
        <time>2019-08-07T14:53:24Z</time>
      </trkpt>
      <trkpt lat="48.7574240" lon="14.3382540">
        <ele>664.2</ele>
        <time>2019-08-07T14:53:25Z</time>
      </trkpt>
      <trkpt lat="48.7574620" lon="14.3382660">
        <ele>664.2</ele>
        <time>2019-08-07T14:53:26Z</time>
      </trkpt>
      <trkpt lat="48.7575020" lon="14.3382790">
        <ele>664.2</ele>
        <time>2019-08-07T14:53:27Z</time>
      </trkpt>
      <trkpt lat="48.7575400" lon="14.3382920">
        <ele>664.2</ele>
        <time>2019-08-07T14:53:28Z</time>
      </trkpt>
      <trkpt lat="48.7575790" lon="14.3383070">
        <ele>664.2</ele>
        <time>2019-08-07T14:53:29Z</time>
      </trkpt>
      <trkpt lat="48.7576190" lon="14.3383260">
        <ele>664.4</ele>
        <time>2019-08-07T14:53:30Z</time>
      </trkpt>
      <trkpt lat="48.7576580" lon="14.3383470">
        <ele>664.4</ele>
        <time>2019-08-07T14:53:31Z</time>
      </trkpt>
      <trkpt lat="48.7576990" lon="14.3383690">
        <ele>664.2</ele>
        <time>2019-08-07T14:53:32Z</time>
      </trkpt>
      <trkpt lat="48.7577410" lon="14.3383920">
        <ele>664.2</ele>
        <time>2019-08-07T14:53:33Z</time>
      </trkpt>
      <trkpt lat="48.7577850" lon="14.3384130">
        <ele>664.2</ele>
        <time>2019-08-07T14:53:34Z</time>
      </trkpt>
      <trkpt lat="48.7578280" lon="14.3384350">
        <ele>664.2</ele>
        <time>2019-08-07T14:53:35Z</time>
      </trkpt>
      <trkpt lat="48.7578710" lon="14.3384560">
        <ele>664.2</ele>
        <time>2019-08-07T14:53:36Z</time>
      </trkpt>
      <trkpt lat="48.7579150" lon="14.3384750">
        <ele>664.2</ele>
        <time>2019-08-07T14:53:37Z</time>
      </trkpt>
      <trkpt lat="48.7579580" lon="14.3384910">
        <ele>664.2</ele>
        <time>2019-08-07T14:53:38Z</time>
      </trkpt>
      <trkpt lat="48.7580020" lon="14.3385020">
        <ele>664.2</ele>
        <time>2019-08-07T14:53:39Z</time>
      </trkpt>
      <trkpt lat="48.7580470" lon="14.3385090">
        <ele>664.2</ele>
        <time>2019-08-07T14:53:40Z</time>
      </trkpt>
      <trkpt lat="48.7580940" lon="14.3385090">
        <ele>664.2</ele>
        <time>2019-08-07T14:53:41Z</time>
      </trkpt>
      <trkpt lat="48.7581400" lon="14.3385050">
        <ele>664.2</ele>
        <time>2019-08-07T14:53:42Z</time>
      </trkpt>
      <trkpt lat="48.7581850" lon="14.3384960">
        <ele>664.2</ele>
        <time>2019-08-07T14:53:43Z</time>
      </trkpt>
      <trkpt lat="48.7582300" lon="14.3384870">
        <ele>664.2</ele>
        <time>2019-08-07T14:53:44Z</time>
      </trkpt>
      <trkpt lat="48.7582750" lon="14.3384760">
        <ele>664.4</ele>
        <time>2019-08-07T14:53:45Z</time>
      </trkpt>
      <trkpt lat="48.7583170" lon="14.3384640">
        <ele>664.4</ele>
        <time>2019-08-07T14:53:46Z</time>
      </trkpt>
      <trkpt lat="48.7583600" lon="14.3384520">
        <ele>664.4</ele>
        <time>2019-08-07T14:53:47Z</time>
      </trkpt>
      <trkpt lat="48.7584030" lon="14.3384390">
        <ele>664.4</ele>
        <time>2019-08-07T14:53:48Z</time>
      </trkpt>
      <trkpt lat="48.7584460" lon="14.3384250">
        <ele>664.6</ele>
        <time>2019-08-07T14:53:49Z</time>
      </trkpt>
      <trkpt lat="48.7584870" lon="14.3384120">
        <ele>664.6</ele>
        <time>2019-08-07T14:53:50Z</time>
      </trkpt>
      <trkpt lat="48.7585290" lon="14.3383970">
        <ele>664.6</ele>
        <time>2019-08-07T14:53:51Z</time>
      </trkpt>
      <trkpt lat="48.7585700" lon="14.3383840">
        <ele>664.6</ele>
        <time>2019-08-07T14:53:52Z</time>
      </trkpt>
      <trkpt lat="48.7586130" lon="14.3383700">
        <ele>664.8</ele>
        <time>2019-08-07T14:53:53Z</time>
      </trkpt>
      <trkpt lat="48.7586540" lon="14.3383550">
        <ele>664.8</ele>
        <time>2019-08-07T14:53:54Z</time>
      </trkpt>
      <trkpt lat="48.7586980" lon="14.3383420">
        <ele>664.8</ele>
        <time>2019-08-07T14:53:55Z</time>
      </trkpt>
      <trkpt lat="48.7587400" lon="14.3383310">
        <ele>664.8</ele>
        <time>2019-08-07T14:53:56Z</time>
      </trkpt>
      <trkpt lat="48.7587850" lon="14.3383210">
        <ele>664.8</ele>
        <time>2019-08-07T14:53:57Z</time>
      </trkpt>
      <trkpt lat="48.7588300" lon="14.3383080">
        <ele>665.0</ele>
        <time>2019-08-07T14:53:58Z</time>
      </trkpt>
      <trkpt lat="48.7588750" lon="14.3382930">
        <ele>665.0</ele>
        <time>2019-08-07T14:53:59Z</time>
      </trkpt>
      <trkpt lat="48.7589200" lon="14.3382770">
        <ele>665.0</ele>
        <time>2019-08-07T14:54:00Z</time>
      </trkpt>
      <trkpt lat="48.7589650" lon="14.3382640">
        <ele>665.0</ele>
        <time>2019-08-07T14:54:01Z</time>
      </trkpt>
      <trkpt lat="48.7590090" lon="14.3382530">
        <ele>665.0</ele>
        <time>2019-08-07T14:54:02Z</time>
      </trkpt>
      <trkpt lat="48.7590520" lon="14.3382440">
        <ele>665.0</ele>
        <time>2019-08-07T14:54:03Z</time>
      </trkpt>
      <trkpt lat="48.7590950" lon="14.3382320">
        <ele>665.0</ele>
        <time>2019-08-07T14:54:04Z</time>
      </trkpt>
      <trkpt lat="48.7591390" lon="14.3382160">
        <ele>665.2</ele>
        <time>2019-08-07T14:54:05Z</time>
      </trkpt>
      <trkpt lat="48.7591810" lon="14.3381950">
        <ele>665.2</ele>
        <time>2019-08-07T14:54:06Z</time>
      </trkpt>
      <trkpt lat="48.7592220" lon="14.3381700">
        <ele>665.2</ele>
        <time>2019-08-07T14:54:07Z</time>
      </trkpt>
      <trkpt lat="48.7592610" lon="14.3381350">
        <ele>665.2</ele>
        <time>2019-08-07T14:54:08Z</time>
      </trkpt>
      <trkpt lat="48.7592900" lon="14.3380860">
        <ele>665.2</ele>
        <time>2019-08-07T14:54:09Z</time>
      </trkpt>
      <trkpt lat="48.7593080" lon="14.3380250">
        <ele>665.4</ele>
        <time>2019-08-07T14:54:10Z</time>
      </trkpt>
      <trkpt lat="48.7593200" lon="14.3379630">
        <ele>665.4</ele>
        <time>2019-08-07T14:54:11Z</time>
      </trkpt>
      <trkpt lat="48.7593280" lon="14.3378970">
        <ele>665.6</ele>
        <time>2019-08-07T14:54:12Z</time>
      </trkpt>
      <trkpt lat="48.7593340" lon="14.3378320">
        <ele>665.6</ele>
        <time>2019-08-07T14:54:13Z</time>
      </trkpt>
      <trkpt lat="48.7593390" lon="14.3377690">
        <ele>665.8</ele>
        <time>2019-08-07T14:54:14Z</time>
      </trkpt>
      <trkpt lat="48.7593440" lon="14.3377100">
        <ele>665.8</ele>
        <time>2019-08-07T14:54:15Z</time>
      </trkpt>
      <trkpt lat="48.7593510" lon="14.3376450">
        <ele>665.8</ele>
        <time>2019-08-07T14:54:16Z</time>
      </trkpt>
      <trkpt lat="48.7593580" lon="14.3375850">
        <ele>665.8</ele>
        <time>2019-08-07T14:54:17Z</time>
      </trkpt>
      <trkpt lat="48.7593630" lon="14.3375250">
        <ele>666.0</ele>
        <time>2019-08-07T14:54:18Z</time>
      </trkpt>
      <trkpt lat="48.7593690" lon="14.3374690">
        <ele>665.8</ele>
        <time>2019-08-07T14:54:19Z</time>
      </trkpt>
      <trkpt lat="48.7593750" lon="14.3374150">
        <ele>665.8</ele>
        <time>2019-08-07T14:54:20Z</time>
      </trkpt>
      <trkpt lat="48.7593810" lon="14.3373650">
        <ele>665.6</ele>
        <time>2019-08-07T14:54:21Z</time>
      </trkpt>
      <trkpt lat="48.7593860" lon="14.3373120">
        <ele>665.6</ele>
        <time>2019-08-07T14:54:22Z</time>
      </trkpt>
      <trkpt lat="48.7593890" lon="14.3372590">
        <ele>665.6</ele>
        <time>2019-08-07T14:54:23Z</time>
      </trkpt>
      <trkpt lat="48.7593900" lon="14.3372090">
        <ele>665.4</ele>
        <time>2019-08-07T14:54:24Z</time>
      </trkpt>
      <trkpt lat="48.7593920" lon="14.3371620">
        <ele>665.4</ele>
        <time>2019-08-07T14:54:25Z</time>
      </trkpt>
      <trkpt lat="48.7593960" lon="14.3371170">
        <ele>665.2</ele>
        <time>2019-08-07T14:54:26Z</time>
      </trkpt>
      <trkpt lat="48.7594030" lon="14.3370720">
        <ele>665.2</ele>
        <time>2019-08-07T14:54:27Z</time>
      </trkpt>
      <trkpt lat="48.7594080" lon="14.3370260">
        <ele>665.0</ele>
        <time>2019-08-07T14:54:28Z</time>
      </trkpt>
      <trkpt lat="48.7594140" lon="14.3369810">
        <ele>665.0</ele>
        <time>2019-08-07T14:54:29Z</time>
      </trkpt>
      <trkpt lat="48.7594190" lon="14.3369330">
        <ele>664.8</ele>
        <time>2019-08-07T14:54:30Z</time>
      </trkpt>
      <trkpt lat="48.7594240" lon="14.3368820">
        <ele>664.8</ele>
        <time>2019-08-07T14:54:31Z</time>
      </trkpt>
      <trkpt lat="48.7594280" lon="14.3368280">
        <ele>664.6</ele>
        <time>2019-08-07T14:54:32Z</time>
      </trkpt>
      <trkpt lat="48.7594350" lon="14.3367730">
        <ele>664.4</ele>
        <time>2019-08-07T14:54:33Z</time>
      </trkpt>
      <trkpt lat="48.7594420" lon="14.3367160">
        <ele>664.2</ele>
        <time>2019-08-07T14:54:34Z</time>
      </trkpt>
      <trkpt lat="48.7594530" lon="14.3366590">
        <ele>664.0</ele>
        <time>2019-08-07T14:54:35Z</time>
      </trkpt>
      <trkpt lat="48.7594650" lon="14.3366020">
        <ele>663.8</ele>
        <time>2019-08-07T14:54:36Z</time>
      </trkpt>
      <trkpt lat="48.7594790" lon="14.3365440">
        <ele>663.6</ele>
        <time>2019-08-07T14:54:37Z</time>
      </trkpt>
      <trkpt lat="48.7594990" lon="14.3364850">
        <ele>663.4</ele>
        <time>2019-08-07T14:54:38Z</time>
      </trkpt>
      <trkpt lat="48.7595210" lon="14.3364250">
        <ele>663.0</ele>
        <time>2019-08-07T14:54:39Z</time>
      </trkpt>
      <trkpt lat="48.7595480" lon="14.3363660">
        <ele>662.8</ele>
        <time>2019-08-07T14:54:40Z</time>
      </trkpt>
      <trkpt lat="48.7595760" lon="14.3363100">
        <ele>662.4</ele>
        <time>2019-08-07T14:54:41Z</time>
      </trkpt>
      <trkpt lat="48.7596090" lon="14.3362510">
        <ele>662.2</ele>
        <time>2019-08-07T14:54:42Z</time>
      </trkpt>
      <trkpt lat="48.7596410" lon="14.3361930">
        <ele>661.8</ele>
        <time>2019-08-07T14:54:43Z</time>
      </trkpt>
      <trkpt lat="48.7596760" lon="14.3361310">
        <ele>661.4</ele>
        <time>2019-08-07T14:54:44Z</time>
      </trkpt>
      <trkpt lat="48.7597120" lon="14.3360660">
        <ele>661.0</ele>
        <time>2019-08-07T14:54:45Z</time>
      </trkpt>
      <trkpt lat="48.7597450" lon="14.3360030">
        <ele>660.6</ele>
        <time>2019-08-07T14:54:46Z</time>
      </trkpt>
      <trkpt lat="48.7597740" lon="14.3359390">
        <ele>660.0</ele>
        <time>2019-08-07T14:54:47Z</time>
      </trkpt>
      <trkpt lat="48.7598000" lon="14.3358790">
        <ele>659.6</ele>
        <time>2019-08-07T14:54:48Z</time>
      </trkpt>
      <trkpt lat="48.7598250" lon="14.3358230">
        <ele>659.2</ele>
        <time>2019-08-07T14:54:49Z</time>
      </trkpt>
      <trkpt lat="48.7598470" lon="14.3357690">
        <ele>658.8</ele>
        <time>2019-08-07T14:54:50Z</time>
      </trkpt>
      <trkpt lat="48.7598650" lon="14.3357180">
        <ele>658.2</ele>
        <time>2019-08-07T14:54:51Z</time>
      </trkpt>
      <trkpt lat="48.7598790" lon="14.3356680">
        <ele>657.8</ele>
        <time>2019-08-07T14:54:52Z</time>
      </trkpt>
      <trkpt lat="48.7598930" lon="14.3356090">
        <ele>657.4</ele>
        <time>2019-08-07T14:54:53Z</time>
      </trkpt>
      <trkpt lat="48.7599070" lon="14.3355430">
        <ele>656.8</ele>
        <time>2019-08-07T14:54:54Z</time>
      </trkpt>
      <trkpt lat="48.7599210" lon="14.3354650">
        <ele>656.4</ele>
        <time>2019-08-07T14:54:55Z</time>
      </trkpt>
      <trkpt lat="48.7599340" lon="14.3353790">
        <ele>655.8</ele>
        <time>2019-08-07T14:54:56Z</time>
      </trkpt>
      <trkpt lat="48.7599420" lon="14.3352890">
        <ele>655.0</ele>
        <time>2019-08-07T14:54:57Z</time>
      </trkpt>
      <trkpt lat="48.7599450" lon="14.3351970">
        <ele>654.4</ele>
        <time>2019-08-07T14:54:58Z</time>
      </trkpt>
      <trkpt lat="48.7599460" lon="14.3351030">
        <ele>653.6</ele>
        <time>2019-08-07T14:54:59Z</time>
      </trkpt>
      <trkpt lat="48.7599420" lon="14.3350080">
        <ele>653.0</ele>
        <time>2019-08-07T14:55:00Z</time>
      </trkpt>
      <trkpt lat="48.7599370" lon="14.3349120">
        <ele>652.4</ele>
        <time>2019-08-07T14:55:01Z</time>
      </trkpt>
      <trkpt lat="48.7599280" lon="14.3348140">
        <ele>651.6</ele>
        <time>2019-08-07T14:55:02Z</time>
      </trkpt>
      <trkpt lat="48.7599180" lon="14.3347220">
        <ele>651.0</ele>
        <time>2019-08-07T14:55:03Z</time>
      </trkpt>
      <trkpt lat="48.7599070" lon="14.3346270">
        <ele>650.6</ele>
        <time>2019-08-07T14:55:04Z</time>
      </trkpt>
      <trkpt lat="48.7598960" lon="14.3345310">
        <ele>650.0</ele>
        <time>2019-08-07T14:55:05Z</time>
      </trkpt>
      <trkpt lat="48.7598860" lon="14.3344290">
        <ele>649.2</ele>
        <time>2019-08-07T14:55:06Z</time>
      </trkpt>
      <trkpt lat="48.7598750" lon="14.3343240">
        <ele>648.4</ele>
        <time>2019-08-07T14:55:07Z</time>
      </trkpt>
      <trkpt lat="48.7598660" lon="14.3342240">
        <ele>647.6</ele>
        <time>2019-08-07T14:55:08Z</time>
      </trkpt>
      <trkpt lat="48.7598540" lon="14.3341300">
        <ele>646.8</ele>
        <time>2019-08-07T14:55:09Z</time>
      </trkpt>
      <trkpt lat="48.7598440" lon="14.3340360">
        <ele>646.0</ele>
        <time>2019-08-07T14:55:10Z</time>
      </trkpt>
      <trkpt lat="48.7598340" lon="14.3339380">
        <ele>645.2</ele>
        <time>2019-08-07T14:55:11Z</time>
      </trkpt>
      <trkpt lat="48.7598230" lon="14.3338330">
        <ele>644.4</ele>
        <time>2019-08-07T14:55:12Z</time>
      </trkpt>
      <trkpt lat="48.7598130" lon="14.3337220">
        <ele>643.8</ele>
        <time>2019-08-07T14:55:13Z</time>
      </trkpt>
      <trkpt lat="48.7598010" lon="14.3336060">
        <ele>643.0</ele>
        <time>2019-08-07T14:55:14Z</time>
      </trkpt>
      <trkpt lat="48.7597930" lon="14.3334950">
        <ele>642.2</ele>
        <time>2019-08-07T14:55:15Z</time>
      </trkpt>
      <trkpt lat="48.7597840" lon="14.3333900">
        <ele>641.4</ele>
        <time>2019-08-07T14:55:16Z</time>
      </trkpt>
      <trkpt lat="48.7597720" lon="14.3332840">
        <ele>640.6</ele>
        <time>2019-08-07T14:55:17Z</time>
      </trkpt>
      <trkpt lat="48.7597580" lon="14.3331790">
        <ele>639.6</ele>
        <time>2019-08-07T14:55:18Z</time>
      </trkpt>
      <trkpt lat="48.7597410" lon="14.3330770">
        <ele>639.2</ele>
        <time>2019-08-07T14:55:19Z</time>
      </trkpt>
      <trkpt lat="48.7597250" lon="14.3329750">
        <ele>638.4</ele>
        <time>2019-08-07T14:55:20Z</time>
      </trkpt>
      <trkpt lat="48.7597130" lon="14.3328780">
        <ele>637.4</ele>
        <time>2019-08-07T14:55:21Z</time>
      </trkpt>
      <trkpt lat="48.7597030" lon="14.3327880">
        <ele>636.6</ele>
        <time>2019-08-07T14:55:22Z</time>
      </trkpt>
      <trkpt lat="48.7596930" lon="14.3327070">
        <ele>635.8</ele>
        <time>2019-08-07T14:55:23Z</time>
      </trkpt>
      <trkpt lat="48.7596850" lon="14.3326270">
        <ele>635.0</ele>
        <time>2019-08-07T14:55:24Z</time>
      </trkpt>
      <trkpt lat="48.7596800" lon="14.3325570">
        <ele>634.0</ele>
        <time>2019-08-07T14:55:25Z</time>
      </trkpt>
      <trkpt lat="48.7596800" lon="14.3324880">
        <ele>633.4</ele>
        <time>2019-08-07T14:55:26Z</time>
      </trkpt>
      <trkpt lat="48.7596910" lon="14.3324260">
        <ele>632.8</ele>
        <time>2019-08-07T14:55:27Z</time>
      </trkpt>
      <trkpt lat="48.7597140" lon="14.3323660">
        <ele>632.4</ele>
        <time>2019-08-07T14:55:28Z</time>
      </trkpt>
      <trkpt lat="48.7597480" lon="14.3323230">
        <ele>631.8</ele>
        <time>2019-08-07T14:55:29Z</time>
      </trkpt>
      <trkpt lat="48.7597830" lon="14.3322940">
        <ele>631.6</ele>
        <time>2019-08-07T14:55:30Z</time>
      </trkpt>
      <trkpt lat="48.7598170" lon="14.3322750">
        <ele>631.4</ele>
        <time>2019-08-07T14:55:31Z</time>
      </trkpt>
      <trkpt lat="48.7598480" lon="14.3322600">
        <ele>631.2</ele>
        <time>2019-08-07T14:55:32Z</time>
      </trkpt>
      <trkpt lat="48.7598730" lon="14.3322450">
        <ele>631.2</ele>
        <time>2019-08-07T14:55:33Z</time>
      </trkpt>
      <trkpt lat="48.7598970" lon="14.3322300">
        <ele>631.2</ele>
        <time>2019-08-07T14:55:34Z</time>
      </trkpt>
      <trkpt lat="48.7599220" lon="14.3322150">
        <ele>631.2</ele>
        <time>2019-08-07T14:55:35Z</time>
      </trkpt>
      <trkpt lat="48.7599470" lon="14.3321990">
        <ele>631.2</ele>
        <time>2019-08-07T14:55:36Z</time>
      </trkpt>
      <trkpt lat="48.7599730" lon="14.3321860">
        <ele>631.2</ele>
        <time>2019-08-07T14:55:37Z</time>
      </trkpt>
      <trkpt lat="48.7600010" lon="14.3321770">
        <ele>631.2</ele>
        <time>2019-08-07T14:55:38Z</time>
      </trkpt>
      <trkpt lat="48.7600270" lon="14.3321690">
        <ele>631.4</ele>
        <time>2019-08-07T14:55:39Z</time>
      </trkpt>
      <trkpt lat="48.7600520" lon="14.3321650">
        <ele>631.4</ele>
        <time>2019-08-07T14:55:40Z</time>
      </trkpt>
      <trkpt lat="48.7600770" lon="14.3321630">
        <ele>631.6</ele>
        <time>2019-08-07T14:55:41Z</time>
      </trkpt>
      <trkpt lat="48.7601020" lon="14.3321610">
        <ele>631.6</ele>
        <time>2019-08-07T14:55:42Z</time>
      </trkpt>
      <trkpt lat="48.7601250" lon="14.3321600">
        <ele>631.8</ele>
        <time>2019-08-07T14:55:43Z</time>
      </trkpt>
      <trkpt lat="48.7601470" lon="14.3321570">
        <ele>632.0</ele>
        <time>2019-08-07T14:55:44Z</time>
      </trkpt>
      <trkpt lat="48.7601640" lon="14.3321520">
        <ele>632.0</ele>
        <time>2019-08-07T14:55:45Z</time>
      </trkpt>
      <trkpt lat="48.7601780" lon="14.3321480">
        <ele>632.2</ele>
        <time>2019-08-07T14:55:46Z</time>
      </trkpt>
      <trkpt lat="48.7601930" lon="14.3321450">
        <ele>632.4</ele>
        <time>2019-08-07T14:55:47Z</time>
      </trkpt>
      <trkpt lat="48.7602060" lon="14.3321480">
        <ele>632.6</ele>
        <time>2019-08-07T14:55:48Z</time>
      </trkpt>
      <trkpt lat="48.7602200" lon="14.3321550">
        <ele>632.6</ele>
        <time>2019-08-07T14:55:49Z</time>
      </trkpt>
      <trkpt lat="48.7602340" lon="14.3321610">
        <ele>632.8</ele>
        <time>2019-08-07T14:55:50Z</time>
      </trkpt>
      <trkpt lat="48.7602500" lon="14.3321640">
        <ele>633.0</ele>
        <time>2019-08-07T14:55:51Z</time>
      </trkpt>
      <trkpt lat="48.7602670" lon="14.3321690">
        <ele>633.2</ele>
        <time>2019-08-07T14:55:52Z</time>
      </trkpt>
      <trkpt lat="48.7602840" lon="14.3321740">
        <ele>633.4</ele>
        <time>2019-08-07T14:55:53Z</time>
      </trkpt>
      <trkpt lat="48.7603000" lon="14.3321790">
        <ele>633.6</ele>
        <time>2019-08-07T14:55:54Z</time>
      </trkpt>
      <trkpt lat="48.7603170" lon="14.3321840">
        <ele>633.6</ele>
        <time>2019-08-07T14:55:55Z</time>
      </trkpt>
      <trkpt lat="48.7603370" lon="14.3321890">
        <ele>633.8</ele>
        <time>2019-08-07T14:55:56Z</time>
      </trkpt>
      <trkpt lat="48.7603540" lon="14.3321940">
        <ele>634.0</ele>
        <time>2019-08-07T14:55:57Z</time>
      </trkpt>
      <trkpt lat="48.7603720" lon="14.3322000">
        <ele>634.2</ele>
        <time>2019-08-07T14:55:58Z</time>
      </trkpt>
      <trkpt lat="48.7603890" lon="14.3322070">
        <ele>634.4</ele>
        <time>2019-08-07T14:55:59Z</time>
      </trkpt>
      <trkpt lat="48.7604070" lon="14.3322130">
        <ele>634.6</ele>
        <time>2019-08-07T14:56:00Z</time>
      </trkpt>
      <trkpt lat="48.7604230" lon="14.3322190">
        <ele>634.6</ele>
        <time>2019-08-07T14:56:01Z</time>
      </trkpt>
      <trkpt lat="48.7604400" lon="14.3322230">
        <ele>634.8</ele>
        <time>2019-08-07T14:56:02Z</time>
      </trkpt>
      <trkpt lat="48.7604590" lon="14.3322270">
        <ele>635.0</ele>
        <time>2019-08-07T14:56:03Z</time>
      </trkpt>
      <trkpt lat="48.7604770" lon="14.3322280">
        <ele>635.2</ele>
        <time>2019-08-07T14:56:04Z</time>
      </trkpt>
      <trkpt lat="48.7604940" lon="14.3322260">
        <ele>635.4</ele>
        <time>2019-08-07T14:56:05Z</time>
      </trkpt>
      <trkpt lat="48.7605100" lon="14.3322200">
        <ele>635.6</ele>
        <time>2019-08-07T14:56:06Z</time>
      </trkpt>
      <trkpt lat="48.7605270" lon="14.3322110">
        <ele>635.8</ele>
        <time>2019-08-07T14:56:07Z</time>
      </trkpt>
      <trkpt lat="48.7605450" lon="14.3321990">
        <ele>636.0</ele>
        <time>2019-08-07T14:56:08Z</time>
      </trkpt>
      <trkpt lat="48.7605600" lon="14.3321850">
        <ele>636.2</ele>
        <time>2019-08-07T14:56:09Z</time>
      </trkpt>
      <trkpt lat="48.7605730" lon="14.3321690">
        <ele>636.4</ele>
        <time>2019-08-07T14:56:10Z</time>
      </trkpt>
      <trkpt lat="48.7605860" lon="14.3321510">
        <ele>636.6</ele>
        <time>2019-08-07T14:56:11Z</time>
      </trkpt>
      <trkpt lat="48.7605960" lon="14.3321330">
        <ele>636.8</ele>
        <time>2019-08-07T14:56:12Z</time>
      </trkpt>
      <trkpt lat="48.7606060" lon="14.3321150">
        <ele>637.0</ele>
        <time>2019-08-07T14:56:13Z</time>
      </trkpt>
      <trkpt lat="48.7606170" lon="14.3320970">
        <ele>637.2</ele>
        <time>2019-08-07T14:56:14Z</time>
      </trkpt>
      <trkpt lat="48.7606270" lon="14.3320780">
        <ele>637.2</ele>
        <time>2019-08-07T14:56:15Z</time>
      </trkpt>
      <trkpt lat="48.7606360" lon="14.3320570">
        <ele>637.4</ele>
        <time>2019-08-07T14:56:16Z</time>
      </trkpt>
      <trkpt lat="48.7606430" lon="14.3320360">
        <ele>637.6</ele>
        <time>2019-08-07T14:56:17Z</time>
      </trkpt>
      <trkpt lat="48.7606520" lon="14.3320140">
        <ele>637.8</ele>
        <time>2019-08-07T14:56:18Z</time>
      </trkpt>
      <trkpt lat="48.7606620" lon="14.3319940">
        <ele>638.0</ele>
        <time>2019-08-07T14:56:19Z</time>
      </trkpt>
      <trkpt lat="48.7606700" lon="14.3319720">
        <ele>638.2</ele>
        <time>2019-08-07T14:56:20Z</time>
      </trkpt>
      <trkpt lat="48.7606790" lon="14.3319500">
        <ele>638.2</ele>
        <time>2019-08-07T14:56:21Z</time>
      </trkpt>
      <trkpt lat="48.7606890" lon="14.3319290">
        <ele>638.4</ele>
        <time>2019-08-07T14:56:22Z</time>
      </trkpt>
      <trkpt lat="48.7606970" lon="14.3319070">
        <ele>638.6</ele>
        <time>2019-08-07T14:56:23Z</time>
      </trkpt>
      <trkpt lat="48.7607050" lon="14.3318840">
        <ele>638.6</ele>
        <time>2019-08-07T14:56:24Z</time>
      </trkpt>
      <trkpt lat="48.7607130" lon="14.3318620">
        <ele>638.8</ele>
        <time>2019-08-07T14:56:25Z</time>
      </trkpt>
      <trkpt lat="48.7607220" lon="14.3318390">
        <ele>638.8</ele>
        <time>2019-08-07T14:56:26Z</time>
      </trkpt>
      <trkpt lat="48.7607300" lon="14.3318180">
        <ele>639.0</ele>
        <time>2019-08-07T14:56:27Z</time>
      </trkpt>
      <trkpt lat="48.7607400" lon="14.3317940">
        <ele>639.2</ele>
        <time>2019-08-07T14:56:28Z</time>
      </trkpt>
      <trkpt lat="48.7607470" lon="14.3317720">
        <ele>639.4</ele>
        <time>2019-08-07T14:56:29Z</time>
      </trkpt>
      <trkpt lat="48.7607550" lon="14.3317520">
        <ele>639.4</ele>
        <time>2019-08-07T14:56:30Z</time>
      </trkpt>
      <trkpt lat="48.7607640" lon="14.3317310">
        <ele>639.6</ele>
        <time>2019-08-07T14:56:31Z</time>
      </trkpt>
      <trkpt lat="48.7607740" lon="14.3317110">
        <ele>639.8</ele>
        <time>2019-08-07T14:56:32Z</time>
      </trkpt>
      <trkpt lat="48.7607840" lon="14.3316910">
        <ele>640.0</ele>
        <time>2019-08-07T14:56:33Z</time>
      </trkpt>
      <trkpt lat="48.7607960" lon="14.3316730">
        <ele>640.0</ele>
        <time>2019-08-07T14:56:34Z</time>
      </trkpt>
      <trkpt lat="48.7608090" lon="14.3316540">
        <ele>640.2</ele>
        <time>2019-08-07T14:56:35Z</time>
      </trkpt>
      <trkpt lat="48.7608190" lon="14.3316360">
        <ele>640.4</ele>
        <time>2019-08-07T14:56:36Z</time>
      </trkpt>
      <trkpt lat="48.7608290" lon="14.3316140">
        <ele>640.6</ele>
        <time>2019-08-07T14:56:37Z</time>
      </trkpt>
      <trkpt lat="48.7608370" lon="14.3315920">
        <ele>640.8</ele>
        <time>2019-08-07T14:56:38Z</time>
      </trkpt>
      <trkpt lat="48.7608470" lon="14.3315710">
        <ele>641.0</ele>
        <time>2019-08-07T14:56:39Z</time>
      </trkpt>
      <trkpt lat="48.7608550" lon="14.3315510">
        <ele>641.2</ele>
        <time>2019-08-07T14:56:40Z</time>
      </trkpt>
      <trkpt lat="48.7608630" lon="14.3315310">
        <ele>641.4</ele>
        <time>2019-08-07T14:56:41Z</time>
      </trkpt>
      <trkpt lat="48.7608700" lon="14.3315130">
        <ele>641.4</ele>
        <time>2019-08-07T14:56:42Z</time>
      </trkpt>
      <trkpt lat="48.7608800" lon="14.3314930">
        <ele>641.6</ele>
        <time>2019-08-07T14:56:43Z</time>
      </trkpt>
      <trkpt lat="48.7608890" lon="14.3314750">
        <ele>641.8</ele>
        <time>2019-08-07T14:56:44Z</time>
      </trkpt>
      <trkpt lat="48.7608990" lon="14.3314560">
        <ele>642.0</ele>
        <time>2019-08-07T14:56:45Z</time>
      </trkpt>
      <trkpt lat="48.7609090" lon="14.3314370">
        <ele>642.2</ele>
        <time>2019-08-07T14:56:46Z</time>
      </trkpt>
      <trkpt lat="48.7609200" lon="14.3314200">
        <ele>642.2</ele>
        <time>2019-08-07T14:56:47Z</time>
      </trkpt>
      <trkpt lat="48.7609290" lon="14.3314050">
        <ele>642.4</ele>
        <time>2019-08-07T14:56:48Z</time>
      </trkpt>
      <trkpt lat="48.7609370" lon="14.3313920">
        <ele>642.6</ele>
        <time>2019-08-07T14:56:49Z</time>
      </trkpt>
      <trkpt lat="48.7609450" lon="14.3313770">
        <ele>642.8</ele>
        <time>2019-08-07T14:56:50Z</time>
      </trkpt>
      <trkpt lat="48.7609530" lon="14.3313610">
        <ele>642.8</ele>
        <time>2019-08-07T14:56:51Z</time>
      </trkpt>
      <trkpt lat="48.7609620" lon="14.3313440">
        <ele>643.0</ele>
        <time>2019-08-07T14:56:52Z</time>
      </trkpt>
      <trkpt lat="48.7609720" lon="14.3313250">
        <ele>643.2</ele>
        <time>2019-08-07T14:56:53Z</time>
      </trkpt>
      <trkpt lat="48.7609820" lon="14.3313040">
        <ele>643.4</ele>
        <time>2019-08-07T14:56:54Z</time>
      </trkpt>
      <trkpt lat="48.7609910" lon="14.3312860">
        <ele>643.4</ele>
        <time>2019-08-07T14:56:55Z</time>
      </trkpt>
      <trkpt lat="48.7609990" lon="14.3312650">
        <ele>643.6</ele>
        <time>2019-08-07T14:56:56Z</time>
      </trkpt>
      <trkpt lat="48.7610090" lon="14.3312430">
        <ele>643.8</ele>
        <time>2019-08-07T14:56:57Z</time>
      </trkpt>
      <trkpt lat="48.7610200" lon="14.3312190">
        <ele>643.8</ele>
        <time>2019-08-07T14:56:58Z</time>
      </trkpt>
      <trkpt lat="48.7610300" lon="14.3311980">
        <ele>644.0</ele>
        <time>2019-08-07T14:56:59Z</time>
      </trkpt>
      <trkpt lat="48.7610360" lon="14.3311800">
        <ele>644.2</ele>
        <time>2019-08-07T14:57:00Z</time>
      </trkpt>
      <trkpt lat="48.7610440" lon="14.3311600">
        <ele>644.2</ele>
        <time>2019-08-07T14:57:01Z</time>
      </trkpt>
      <trkpt lat="48.7610540" lon="14.3311390">
        <ele>644.4</ele>
        <time>2019-08-07T14:57:02Z</time>
      </trkpt>
      <trkpt lat="48.7610660" lon="14.3311190">
        <ele>644.4</ele>
        <time>2019-08-07T14:57:03Z</time>
      </trkpt>
      <trkpt lat="48.7610800" lon="14.3310990">
        <ele>644.6</ele>
        <time>2019-08-07T14:57:04Z</time>
      </trkpt>
      <trkpt lat="48.7610940" lon="14.3310780">
        <ele>644.6</ele>
        <time>2019-08-07T14:57:05Z</time>
      </trkpt>
      <trkpt lat="48.7611070" lon="14.3310580">
        <ele>644.8</ele>
        <time>2019-08-07T14:57:06Z</time>
      </trkpt>
      <trkpt lat="48.7611210" lon="14.3310370">
        <ele>644.8</ele>
        <time>2019-08-07T14:57:07Z</time>
      </trkpt>
      <trkpt lat="48.7611320" lon="14.3310130">
        <ele>645.0</ele>
        <time>2019-08-07T14:57:08Z</time>
      </trkpt>
      <trkpt lat="48.7611410" lon="14.3309910">
        <ele>645.0</ele>
        <time>2019-08-07T14:57:09Z</time>
      </trkpt>
      <trkpt lat="48.7611480" lon="14.3309720">
        <ele>645.2</ele>
        <time>2019-08-07T14:57:10Z</time>
      </trkpt>
      <trkpt lat="48.7611580" lon="14.3309520">
        <ele>645.2</ele>
        <time>2019-08-07T14:57:11Z</time>
      </trkpt>
      <trkpt lat="48.7611710" lon="14.3309290">
        <ele>645.4</ele>
        <time>2019-08-07T14:57:12Z</time>
      </trkpt>
      <trkpt lat="48.7611840" lon="14.3309100">
        <ele>645.6</ele>
        <time>2019-08-07T14:57:13Z</time>
      </trkpt>
      <trkpt lat="48.7611970" lon="14.3308930">
        <ele>645.6</ele>
        <time>2019-08-07T14:57:14Z</time>
      </trkpt>
      <trkpt lat="48.7612090" lon="14.3308740">
        <ele>645.8</ele>
        <time>2019-08-07T14:57:15Z</time>
      </trkpt>
      <trkpt lat="48.7612230" lon="14.3308520">
        <ele>646.0</ele>
        <time>2019-08-07T14:57:16Z</time>
      </trkpt>
      <trkpt lat="48.7612360" lon="14.3308300">
        <ele>646.0</ele>
        <time>2019-08-07T14:57:17Z</time>
      </trkpt>
      <trkpt lat="48.7612510" lon="14.3308070">
        <ele>646.2</ele>
        <time>2019-08-07T14:57:18Z</time>
      </trkpt>
      <trkpt lat="48.7612650" lon="14.3307850">
        <ele>646.4</ele>
        <time>2019-08-07T14:57:19Z</time>
      </trkpt>
      <trkpt lat="48.7612780" lon="14.3307600">
        <ele>646.6</ele>
        <time>2019-08-07T14:57:20Z</time>
      </trkpt>
      <trkpt lat="48.7612930" lon="14.3307370">
        <ele>646.6</ele>
        <time>2019-08-07T14:57:21Z</time>
      </trkpt>
      <trkpt lat="48.7613080" lon="14.3307140">
        <ele>646.8</ele>
        <time>2019-08-07T14:57:22Z</time>
      </trkpt>
      <trkpt lat="48.7613240" lon="14.3306920">
        <ele>647.0</ele>
        <time>2019-08-07T14:57:23Z</time>
      </trkpt>
      <trkpt lat="48.7613420" lon="14.3306720">
        <ele>647.2</ele>
        <time>2019-08-07T14:57:24Z</time>
      </trkpt>
      <trkpt lat="48.7613620" lon="14.3306550">
        <ele>647.4</ele>
        <time>2019-08-07T14:57:25Z</time>
      </trkpt>
      <trkpt lat="48.7613800" lon="14.3306410">
        <ele>647.6</ele>
        <time>2019-08-07T14:57:26Z</time>
      </trkpt>
      <trkpt lat="48.7613990" lon="14.3306280">
        <ele>647.8</ele>
        <time>2019-08-07T14:57:27Z</time>
      </trkpt>
      <trkpt lat="48.7614190" lon="14.3306160">
        <ele>648.0</ele>
        <time>2019-08-07T14:57:28Z</time>
      </trkpt>
      <trkpt lat="48.7614350" lon="14.3306020">
        <ele>648.2</ele>
        <time>2019-08-07T14:57:29Z</time>
      </trkpt>
      <trkpt lat="48.7614510" lon="14.3305870">
        <ele>648.4</ele>
        <time>2019-08-07T14:57:30Z</time>
      </trkpt>
      <trkpt lat="48.7614680" lon="14.3305720">
        <ele>648.6</ele>
        <time>2019-08-07T14:57:31Z</time>
      </trkpt>
      <trkpt lat="48.7614840" lon="14.3305570">
        <ele>648.8</ele>
        <time>2019-08-07T14:57:32Z</time>
      </trkpt>
      <trkpt lat="48.7615000" lon="14.3305420">
        <ele>649.0</ele>
        <time>2019-08-07T14:57:33Z</time>
      </trkpt>
      <trkpt lat="48.7615170" lon="14.3305280">
        <ele>649.2</ele>
        <time>2019-08-07T14:57:34Z</time>
      </trkpt>
      <trkpt lat="48.7615330" lon="14.3305160">
        <ele>649.4</ele>
        <time>2019-08-07T14:57:35Z</time>
      </trkpt>
      <trkpt lat="48.7615490" lon="14.3305050">
        <ele>649.6</ele>
        <time>2019-08-07T14:57:36Z</time>
      </trkpt>
      <trkpt lat="48.7615650" lon="14.3304970">
        <ele>649.8</ele>
        <time>2019-08-07T14:57:37Z</time>
      </trkpt>
      <trkpt lat="48.7615820" lon="14.3304900">
        <ele>650.0</ele>
        <time>2019-08-07T14:57:38Z</time>
      </trkpt>
      <trkpt lat="48.7615980" lon="14.3304840">
        <ele>650.2</ele>
        <time>2019-08-07T14:57:39Z</time>
      </trkpt>
      <trkpt lat="48.7616150" lon="14.3304790">
        <ele>650.2</ele>
        <time>2019-08-07T14:57:40Z</time>
      </trkpt>
      <trkpt lat="48.7616320" lon="14.3304740">
        <ele>650.4</ele>
        <time>2019-08-07T14:57:41Z</time>
      </trkpt>
      <trkpt lat="48.7616480" lon="14.3304670">
        <ele>650.6</ele>
        <time>2019-08-07T14:57:42Z</time>
      </trkpt>
      <trkpt lat="48.7616630" lon="14.3304600">
        <ele>650.6</ele>
        <time>2019-08-07T14:57:43Z</time>
      </trkpt>
      <trkpt lat="48.7616790" lon="14.3304500">
        <ele>650.8</ele>
        <time>2019-08-07T14:57:44Z</time>
      </trkpt>
      <trkpt lat="48.7616970" lon="14.3304380">
        <ele>650.8</ele>
        <time>2019-08-07T14:57:45Z</time>
      </trkpt>
      <trkpt lat="48.7617130" lon="14.3304260">
        <ele>650.8</ele>
        <time>2019-08-07T14:57:46Z</time>
      </trkpt>
      <trkpt lat="48.7617300" lon="14.3304140">
        <ele>651.0</ele>
        <time>2019-08-07T14:57:47Z</time>
      </trkpt>
      <trkpt lat="48.7617490" lon="14.3304010">
        <ele>651.0</ele>
        <time>2019-08-07T14:57:48Z</time>
      </trkpt>
      <trkpt lat="48.7617700" lon="14.3303850">
        <ele>651.0</ele>
        <time>2019-08-07T14:57:49Z</time>
      </trkpt>
      <trkpt lat="48.7617960" lon="14.3303700">
        <ele>651.0</ele>
        <time>2019-08-07T14:57:50Z</time>
      </trkpt>
      <trkpt lat="48.7618220" lon="14.3303550">
        <ele>651.0</ele>
        <time>2019-08-07T14:57:51Z</time>
      </trkpt>
      <trkpt lat="48.7618530" lon="14.3303340">
        <ele>651.0</ele>
        <time>2019-08-07T14:57:52Z</time>
      </trkpt>
      <trkpt lat="48.7618850" lon="14.3303140">
        <ele>651.0</ele>
        <time>2019-08-07T14:57:53Z</time>
      </trkpt>
      <trkpt lat="48.7619180" lon="14.3302940">
        <ele>651.0</ele>
        <time>2019-08-07T14:57:54Z</time>
      </trkpt>
      <trkpt lat="48.7619500" lon="14.3302730">
        <ele>651.0</ele>
        <time>2019-08-07T14:57:55Z</time>
      </trkpt>
      <trkpt lat="48.7619850" lon="14.3302490">
        <ele>651.0</ele>
        <time>2019-08-07T14:57:56Z</time>
      </trkpt>
      <trkpt lat="48.7620180" lon="14.3302260">
        <ele>651.0</ele>
        <time>2019-08-07T14:57:57Z</time>
      </trkpt>
      <trkpt lat="48.7620500" lon="14.3302040">
        <ele>651.0</ele>
        <time>2019-08-07T14:57:58Z</time>
      </trkpt>
      <trkpt lat="48.7620820" lon="14.3301810">
        <ele>651.0</ele>
        <time>2019-08-07T14:57:59Z</time>
      </trkpt>
      <trkpt lat="48.7621130" lon="14.3301570">
        <ele>651.0</ele>
        <time>2019-08-07T14:58:00Z</time>
      </trkpt>
      <trkpt lat="48.7621440" lon="14.3301340">
        <ele>651.0</ele>
        <time>2019-08-07T14:58:01Z</time>
      </trkpt>
      <trkpt lat="48.7621780" lon="14.3301100">
        <ele>651.2</ele>
        <time>2019-08-07T14:58:02Z</time>
      </trkpt>
      <trkpt lat="48.7622100" lon="14.3300830">
        <ele>651.2</ele>
        <time>2019-08-07T14:58:03Z</time>
      </trkpt>
      <trkpt lat="48.7622410" lon="14.3300550">
        <ele>651.2</ele>
        <time>2019-08-07T14:58:04Z</time>
      </trkpt>
      <trkpt lat="48.7622720" lon="14.3300240">
        <ele>651.4</ele>
        <time>2019-08-07T14:58:05Z</time>
      </trkpt>
      <trkpt lat="48.7623020" lon="14.3299910">
        <ele>651.4</ele>
        <time>2019-08-07T14:58:06Z</time>
      </trkpt>
      <trkpt lat="48.7623320" lon="14.3299580">
        <ele>651.4</ele>
        <time>2019-08-07T14:58:07Z</time>
      </trkpt>
      <trkpt lat="48.7623630" lon="14.3299260">
        <ele>651.4</ele>
        <time>2019-08-07T14:58:08Z</time>
      </trkpt>
      <trkpt lat="48.7623920" lon="14.3298940">
        <ele>651.4</ele>
        <time>2019-08-07T14:58:09Z</time>
      </trkpt>
      <trkpt lat="48.7624190" lon="14.3298600">
        <ele>651.4</ele>
        <time>2019-08-07T14:58:10Z</time>
      </trkpt>
      <trkpt lat="48.7624440" lon="14.3298270">
        <ele>651.4</ele>
        <time>2019-08-07T14:58:11Z</time>
      </trkpt>
      <trkpt lat="48.7624730" lon="14.3297910">
        <ele>651.4</ele>
        <time>2019-08-07T14:58:12Z</time>
      </trkpt>
      <trkpt lat="48.7625040" lon="14.3297590">
        <ele>651.4</ele>
        <time>2019-08-07T14:58:13Z</time>
      </trkpt>
      <trkpt lat="48.7625340" lon="14.3297300">
        <ele>651.6</ele>
        <time>2019-08-07T14:58:14Z</time>
      </trkpt>
      <trkpt lat="48.7625640" lon="14.3297000">
        <ele>651.6</ele>
        <time>2019-08-07T14:58:15Z</time>
      </trkpt>
      <trkpt lat="48.7625980" lon="14.3296660">
        <ele>651.6</ele>
        <time>2019-08-07T14:58:16Z</time>
      </trkpt>
      <trkpt lat="48.7626320" lon="14.3296390">
        <ele>651.8</ele>
        <time>2019-08-07T14:58:17Z</time>
      </trkpt>
      <trkpt lat="48.7626660" lon="14.3296120">
        <ele>651.8</ele>
        <time>2019-08-07T14:58:18Z</time>
      </trkpt>
      <trkpt lat="48.7626990" lon="14.3295870">
        <ele>651.8</ele>
        <time>2019-08-07T14:58:19Z</time>
      </trkpt>
      <trkpt lat="48.7627320" lon="14.3295580">
        <ele>652.0</ele>
        <time>2019-08-07T14:58:20Z</time>
      </trkpt>
      <trkpt lat="48.7627660" lon="14.3295260">
        <ele>652.2</ele>
        <time>2019-08-07T14:58:21Z</time>
      </trkpt>
      <trkpt lat="48.7627960" lon="14.3295000">
        <ele>652.2</ele>
        <time>2019-08-07T14:58:22Z</time>
      </trkpt>
      <trkpt lat="48.7628280" lon="14.3294750">
        <ele>652.4</ele>
        <time>2019-08-07T14:58:23Z</time>
      </trkpt>
      <trkpt lat="48.7628610" lon="14.3294520">
        <ele>652.4</ele>
        <time>2019-08-07T14:58:24Z</time>
      </trkpt>
      <trkpt lat="48.7628900" lon="14.3294270">
        <ele>652.6</ele>
        <time>2019-08-07T14:58:25Z</time>
      </trkpt>
      <trkpt lat="48.7629180" lon="14.3294030">
        <ele>652.6</ele>
        <time>2019-08-07T14:58:26Z</time>
      </trkpt>
      <trkpt lat="48.7629490" lon="14.3293780">
        <ele>652.8</ele>
        <time>2019-08-07T14:58:27Z</time>
      </trkpt>
      <trkpt lat="48.7629810" lon="14.3293520">
        <ele>652.8</ele>
        <time>2019-08-07T14:58:28Z</time>
      </trkpt>
      <trkpt lat="48.7630120" lon="14.3293310">
        <ele>653.0</ele>
        <time>2019-08-07T14:58:29Z</time>
      </trkpt>
      <trkpt lat="48.7630420" lon="14.3293100">
        <ele>653.2</ele>
        <time>2019-08-07T14:58:30Z</time>
      </trkpt>
      <trkpt lat="48.7630710" lon="14.3292890">
        <ele>653.4</ele>
        <time>2019-08-07T14:58:31Z</time>
      </trkpt>
      <trkpt lat="48.7631020" lon="14.3292680">
        <ele>653.4</ele>
        <time>2019-08-07T14:58:32Z</time>
      </trkpt>
      <trkpt lat="48.7631310" lon="14.3292470">
        <ele>653.8</ele>
        <time>2019-08-07T14:58:33Z</time>
      </trkpt>
      <trkpt lat="48.7631580" lon="14.3292220">
        <ele>654.0</ele>
        <time>2019-08-07T14:58:34Z</time>
      </trkpt>
      <trkpt lat="48.7631880" lon="14.3291970">
        <ele>654.2</ele>
        <time>2019-08-07T14:58:35Z</time>
      </trkpt>
      <trkpt lat="48.7632170" lon="14.3291740">
        <ele>654.4</ele>
        <time>2019-08-07T14:58:36Z</time>
      </trkpt>
      <trkpt lat="48.7632420" lon="14.3291520">
        <ele>654.6</ele>
        <time>2019-08-07T14:58:37Z</time>
      </trkpt>
      <trkpt lat="48.7632700" lon="14.3291310">
        <ele>655.0</ele>
        <time>2019-08-07T14:58:38Z</time>
      </trkpt>
      <trkpt lat="48.7632990" lon="14.3291100">
        <ele>655.2</ele>
        <time>2019-08-07T14:58:39Z</time>
      </trkpt>
      <trkpt lat="48.7633260" lon="14.3290910">
        <ele>655.6</ele>
        <time>2019-08-07T14:58:40Z</time>
      </trkpt>
      <trkpt lat="48.7633560" lon="14.3290740">
        <ele>655.8</ele>
        <time>2019-08-07T14:58:41Z</time>
      </trkpt>
      <trkpt lat="48.7633830" lon="14.3290570">
        <ele>656.0</ele>
        <time>2019-08-07T14:58:42Z</time>
      </trkpt>
      <trkpt lat="48.7634120" lon="14.3290390">
        <ele>656.2</ele>
        <time>2019-08-07T14:58:43Z</time>
      </trkpt>
      <trkpt lat="48.7634380" lon="14.3290220">
        <ele>656.6</ele>
        <time>2019-08-07T14:58:44Z</time>
      </trkpt>
      <trkpt lat="48.7634650" lon="14.3290070">
        <ele>656.8</ele>
        <time>2019-08-07T14:58:45Z</time>
      </trkpt>
      <trkpt lat="48.7634900" lon="14.3289950">
        <ele>657.0</ele>
        <time>2019-08-07T14:58:46Z</time>
      </trkpt>
      <trkpt lat="48.7635150" lon="14.3289850">
        <ele>657.2</ele>
        <time>2019-08-07T14:58:47Z</time>
      </trkpt>
      <trkpt lat="48.7635400" lon="14.3289750">
        <ele>657.4</ele>
        <time>2019-08-07T14:58:48Z</time>
      </trkpt>
      <trkpt lat="48.7635640" lon="14.3289640">
        <ele>657.6</ele>
        <time>2019-08-07T14:58:49Z</time>
      </trkpt>
      <trkpt lat="48.7635880" lon="14.3289510">
        <ele>657.8</ele>
        <time>2019-08-07T14:58:50Z</time>
      </trkpt>
      <trkpt lat="48.7636100" lon="14.3289400">
        <ele>658.0</ele>
        <time>2019-08-07T14:58:51Z</time>
      </trkpt>
      <trkpt lat="48.7636330" lon="14.3289300">
        <ele>658.2</ele>
        <time>2019-08-07T14:58:52Z</time>
      </trkpt>
      <trkpt lat="48.7636560" lon="14.3289190">
        <ele>658.4</ele>
        <time>2019-08-07T14:58:53Z</time>
      </trkpt>
      <trkpt lat="48.7636790" lon="14.3289070">
        <ele>658.4</ele>
        <time>2019-08-07T14:58:54Z</time>
      </trkpt>
      <trkpt lat="48.7636980" lon="14.3288950">
        <ele>658.6</ele>
        <time>2019-08-07T14:58:55Z</time>
      </trkpt>
      <trkpt lat="48.7637200" lon="14.3288820">
        <ele>658.8</ele>
        <time>2019-08-07T14:58:56Z</time>
      </trkpt>
      <trkpt lat="48.7637440" lon="14.3288720">
        <ele>658.8</ele>
        <time>2019-08-07T14:58:57Z</time>
      </trkpt>
      <trkpt lat="48.7637680" lon="14.3288660">
        <ele>659.0</ele>
        <time>2019-08-07T14:58:58Z</time>
      </trkpt>
      <trkpt lat="48.7637920" lon="14.3288600">
        <ele>659.0</ele>
        <time>2019-08-07T14:58:59Z</time>
      </trkpt>
      <trkpt lat="48.7638170" lon="14.3288520">
        <ele>659.0</ele>
        <time>2019-08-07T14:59:00Z</time>
      </trkpt>
      <trkpt lat="48.7638420" lon="14.3288430">
        <ele>659.0</ele>
        <time>2019-08-07T14:59:01Z</time>
      </trkpt>
      <trkpt lat="48.7638650" lon="14.3288350">
        <ele>659.0</ele>
        <time>2019-08-07T14:59:02Z</time>
      </trkpt>
      <trkpt lat="48.7638870" lon="14.3288280">
        <ele>659.0</ele>
        <time>2019-08-07T14:59:03Z</time>
      </trkpt>
      <trkpt lat="48.7639120" lon="14.3288160">
        <ele>659.0</ele>
        <time>2019-08-07T14:59:04Z</time>
      </trkpt>
      <trkpt lat="48.7639360" lon="14.3288060">
        <ele>659.0</ele>
        <time>2019-08-07T14:59:05Z</time>
      </trkpt>
      <trkpt lat="48.7639600" lon="14.3287970">
        <ele>659.0</ele>
        <time>2019-08-07T14:59:06Z</time>
      </trkpt>
      <trkpt lat="48.7639900" lon="14.3287860">
        <ele>659.0</ele>
        <time>2019-08-07T14:59:07Z</time>
      </trkpt>
      <trkpt lat="48.7640250" lon="14.3287660">
        <ele>659.0</ele>
        <time>2019-08-07T14:59:08Z</time>
      </trkpt>
      <trkpt lat="48.7640600" lon="14.3287460">
        <ele>659.0</ele>
        <time>2019-08-07T14:59:09Z</time>
      </trkpt>
      <trkpt lat="48.7640930" lon="14.3287260">
        <ele>659.0</ele>
        <time>2019-08-07T14:59:10Z</time>
      </trkpt>
      <trkpt lat="48.7641300" lon="14.3287030">
        <ele>659.0</ele>
        <time>2019-08-07T14:59:11Z</time>
      </trkpt>
      <trkpt lat="48.7641650" lon="14.3286830">
        <ele>659.0</ele>
        <time>2019-08-07T14:59:12Z</time>
      </trkpt>
      <trkpt lat="48.7641990" lon="14.3286630">
        <ele>659.0</ele>
        <time>2019-08-07T14:59:13Z</time>
      </trkpt>
      <trkpt lat="48.7642310" lon="14.3286440">
        <ele>659.0</ele>
        <time>2019-08-07T14:59:14Z</time>
      </trkpt>
      <trkpt lat="48.7642640" lon="14.3286240">
        <ele>659.0</ele>
        <time>2019-08-07T14:59:15Z</time>
      </trkpt>
      <trkpt lat="48.7642970" lon="14.3286050">
        <ele>659.0</ele>
        <time>2019-08-07T14:59:16Z</time>
      </trkpt>
      <trkpt lat="48.7643310" lon="14.3285840">
        <ele>659.2</ele>
        <time>2019-08-07T14:59:17Z</time>
      </trkpt>
      <trkpt lat="48.7643700" lon="14.3285620">
        <ele>659.2</ele>
        <time>2019-08-07T14:59:18Z</time>
      </trkpt>
      <trkpt lat="48.7644090" lon="14.3285380">
        <ele>659.2</ele>
        <time>2019-08-07T14:59:19Z</time>
      </trkpt>
      <trkpt lat="48.7644470" lon="14.3285130">
        <ele>659.2</ele>
        <time>2019-08-07T14:59:20Z</time>
      </trkpt>
      <trkpt lat="48.7644840" lon="14.3284890">
        <ele>659.2</ele>
        <time>2019-08-07T14:59:21Z</time>
      </trkpt>
      <trkpt lat="48.7645210" lon="14.3284650">
        <ele>659.2</ele>
        <time>2019-08-07T14:59:22Z</time>
      </trkpt>
      <trkpt lat="48.7645690" lon="14.3284410">
        <ele>659.0</ele>
        <time>2019-08-07T14:59:23Z</time>
      </trkpt>
      <trkpt lat="48.7646180" lon="14.3284210">
        <ele>659.0</ele>
        <time>2019-08-07T14:59:24Z</time>
      </trkpt>
      <trkpt lat="48.7646690" lon="14.3284020">
        <ele>659.0</ele>
        <time>2019-08-07T14:59:25Z</time>
      </trkpt>
      <trkpt lat="48.7647190" lon="14.3283850">
        <ele>658.8</ele>
        <time>2019-08-07T14:59:26Z</time>
      </trkpt>
      <trkpt lat="48.7647650" lon="14.3283670">
        <ele>658.8</ele>
        <time>2019-08-07T14:59:27Z</time>
      </trkpt>
      <trkpt lat="48.7648130" lon="14.3283450">
        <ele>658.8</ele>
        <time>2019-08-07T14:59:28Z</time>
      </trkpt>
      <trkpt lat="48.7648590" lon="14.3283230">
        <ele>658.6</ele>
        <time>2019-08-07T14:59:29Z</time>
      </trkpt>
      <trkpt lat="48.7649060" lon="14.3282970">
        <ele>658.6</ele>
        <time>2019-08-07T14:59:30Z</time>
      </trkpt>
      <trkpt lat="48.7649540" lon="14.3282710">
        <ele>658.6</ele>
        <time>2019-08-07T14:59:31Z</time>
      </trkpt>
      <trkpt lat="48.7650040" lon="14.3282450">
        <ele>658.6</ele>
        <time>2019-08-07T14:59:32Z</time>
      </trkpt>
      <trkpt lat="48.7650500" lon="14.3282140">
        <ele>658.6</ele>
        <time>2019-08-07T14:59:33Z</time>
      </trkpt>
      <trkpt lat="48.7650960" lon="14.3281870">
        <ele>658.6</ele>
        <time>2019-08-07T14:59:34Z</time>
      </trkpt>
      <trkpt lat="48.7651460" lon="14.3281610">
        <ele>658.4</ele>
        <time>2019-08-07T14:59:35Z</time>
      </trkpt>
      <trkpt lat="48.7652000" lon="14.3281320">
        <ele>658.4</ele>
        <time>2019-08-07T14:59:36Z</time>
      </trkpt>
      <trkpt lat="48.7652490" lon="14.3281010">
        <ele>658.4</ele>
        <time>2019-08-07T14:59:37Z</time>
      </trkpt>
      <trkpt lat="48.7652960" lon="14.3280700">
        <ele>658.4</ele>
        <time>2019-08-07T14:59:38Z</time>
      </trkpt>
      <trkpt lat="48.7653440" lon="14.3280390">
        <ele>658.4</ele>
        <time>2019-08-07T14:59:39Z</time>
      </trkpt>
      <trkpt lat="48.7653900" lon="14.3280130">
        <ele>658.4</ele>
        <time>2019-08-07T14:59:40Z</time>
      </trkpt>
      <trkpt lat="48.7654370" lon="14.3279890">
        <ele>658.4</ele>
        <time>2019-08-07T14:59:41Z</time>
      </trkpt>
      <trkpt lat="48.7654850" lon="14.3279670">
        <ele>658.4</ele>
        <time>2019-08-07T14:59:42Z</time>
      </trkpt>
      <trkpt lat="48.7655300" lon="14.3279460">
        <ele>658.4</ele>
        <time>2019-08-07T14:59:43Z</time>
      </trkpt>
      <trkpt lat="48.7655760" lon="14.3279300">
        <ele>658.4</ele>
        <time>2019-08-07T14:59:44Z</time>
      </trkpt>
      <trkpt lat="48.7656180" lon="14.3279170">
        <ele>658.4</ele>
        <time>2019-08-07T14:59:45Z</time>
      </trkpt>
      <trkpt lat="48.7656590" lon="14.3279060">
        <ele>658.6</ele>
        <time>2019-08-07T14:59:46Z</time>
      </trkpt>
      <trkpt lat="48.7656980" lon="14.3278930">
        <ele>658.6</ele>
        <time>2019-08-07T14:59:47Z</time>
      </trkpt>
      <trkpt lat="48.7657400" lon="14.3278830">
        <ele>658.6</ele>
        <time>2019-08-07T14:59:48Z</time>
      </trkpt>
      <trkpt lat="48.7657790" lon="14.3278730">
        <ele>658.6</ele>
        <time>2019-08-07T14:59:49Z</time>
      </trkpt>
      <trkpt lat="48.7658160" lon="14.3278650">
        <ele>658.8</ele>
        <time>2019-08-07T14:59:50Z</time>
      </trkpt>
      <trkpt lat="48.7658550" lon="14.3278580">
        <ele>659.0</ele>
        <time>2019-08-07T14:59:51Z</time>
      </trkpt>
      <trkpt lat="48.7658900" lon="14.3278550">
        <ele>659.0</ele>
        <time>2019-08-07T14:59:52Z</time>
      </trkpt>
      <trkpt lat="48.7659260" lon="14.3278530">
        <ele>659.2</ele>
        <time>2019-08-07T14:59:53Z</time>
      </trkpt>
      <trkpt lat="48.7659590" lon="14.3278490">
        <ele>659.4</ele>
        <time>2019-08-07T14:59:54Z</time>
      </trkpt>
      <trkpt lat="48.7659900" lon="14.3278440">
        <ele>659.6</ele>
        <time>2019-08-07T14:59:55Z</time>
      </trkpt>
      <trkpt lat="48.7660180" lon="14.3278410">
        <ele>659.8</ele>
        <time>2019-08-07T14:59:56Z</time>
      </trkpt>
      <trkpt lat="48.7660460" lon="14.3278360">
        <ele>660.0</ele>
        <time>2019-08-07T14:59:57Z</time>
      </trkpt>
      <trkpt lat="48.7660740" lon="14.3278310">
        <ele>660.2</ele>
        <time>2019-08-07T14:59:58Z</time>
      </trkpt>
      <trkpt lat="48.7661010" lon="14.3278270">
        <ele>660.4</ele>
        <time>2019-08-07T14:59:59Z</time>
      </trkpt>
      <trkpt lat="48.7661270" lon="14.3278210">
        <ele>660.6</ele>
        <time>2019-08-07T15:00:00Z</time>
      </trkpt>
      <trkpt lat="48.7661500" lon="14.3278150">
        <ele>660.8</ele>
        <time>2019-08-07T15:00:01Z</time>
      </trkpt>
      <trkpt lat="48.7661730" lon="14.3278090">
        <ele>661.0</ele>
        <time>2019-08-07T15:00:02Z</time>
      </trkpt>
      <trkpt lat="48.7661950" lon="14.3278010">
        <ele>661.2</ele>
        <time>2019-08-07T15:00:03Z</time>
      </trkpt>
      <trkpt lat="48.7662180" lon="14.3277900">
        <ele>661.4</ele>
        <time>2019-08-07T15:00:04Z</time>
      </trkpt>
      <trkpt lat="48.7662400" lon="14.3277830">
        <ele>661.6</ele>
        <time>2019-08-07T15:00:05Z</time>
      </trkpt>
      <trkpt lat="48.7662630" lon="14.3277800">
        <ele>661.8</ele>
        <time>2019-08-07T15:00:06Z</time>
      </trkpt>
      <trkpt lat="48.7662840" lon="14.3277780">
        <ele>662.2</ele>
        <time>2019-08-07T15:00:07Z</time>
      </trkpt>
      <trkpt lat="48.7663070" lon="14.3277780">
        <ele>662.4</ele>
        <time>2019-08-07T15:00:08Z</time>
      </trkpt>
      <trkpt lat="48.7663280" lon="14.3277740">
        <ele>662.6</ele>
        <time>2019-08-07T15:00:09Z</time>
      </trkpt>
      <trkpt lat="48.7663500" lon="14.3277710">
        <ele>662.8</ele>
        <time>2019-08-07T15:00:10Z</time>
      </trkpt>
      <trkpt lat="48.7663700" lon="14.3277710">
        <ele>663.0</ele>
        <time>2019-08-07T15:00:11Z</time>
      </trkpt>
      <trkpt lat="48.7663920" lon="14.3277740">
        <ele>663.2</ele>
        <time>2019-08-07T15:00:12Z</time>
      </trkpt>
      <trkpt lat="48.7664130" lon="14.3277800">
        <ele>663.4</ele>
        <time>2019-08-07T15:00:13Z</time>
      </trkpt>
      <trkpt lat="48.7664330" lon="14.3277880">
        <ele>663.6</ele>
        <time>2019-08-07T15:00:14Z</time>
      </trkpt>
      <trkpt lat="48.7664550" lon="14.3277970">
        <ele>663.8</ele>
        <time>2019-08-07T15:00:15Z</time>
      </trkpt>
      <trkpt lat="48.7664760" lon="14.3278050">
        <ele>664.0</ele>
        <time>2019-08-07T15:00:16Z</time>
      </trkpt>
      <trkpt lat="48.7664940" lon="14.3278100">
        <ele>664.4</ele>
        <time>2019-08-07T15:00:17Z</time>
      </trkpt>
      <trkpt lat="48.7665120" lon="14.3278160">
        <ele>664.6</ele>
        <time>2019-08-07T15:00:18Z</time>
      </trkpt>
      <trkpt lat="48.7665290" lon="14.3278210">
        <ele>664.8</ele>
        <time>2019-08-07T15:00:19Z</time>
      </trkpt>
      <trkpt lat="48.7665460" lon="14.3278250">
        <ele>665.0</ele>
        <time>2019-08-07T15:00:20Z</time>
      </trkpt>
      <trkpt lat="48.7665640" lon="14.3278220">
        <ele>665.2</ele>
        <time>2019-08-07T15:00:21Z</time>
      </trkpt>
      <trkpt lat="48.7665800" lon="14.3278180">
        <ele>665.4</ele>
        <time>2019-08-07T15:00:22Z</time>
      </trkpt>
      <trkpt lat="48.7665970" lon="14.3278160">
        <ele>665.6</ele>
        <time>2019-08-07T15:00:23Z</time>
      </trkpt>
      <trkpt lat="48.7666130" lon="14.3278100">
        <ele>665.8</ele>
        <time>2019-08-07T15:00:24Z</time>
      </trkpt>
      <trkpt lat="48.7666280" lon="14.3278010">
        <ele>666.0</ele>
        <time>2019-08-07T15:00:25Z</time>
      </trkpt>
      <trkpt lat="48.7666430" lon="14.3277930">
        <ele>666.2</ele>
        <time>2019-08-07T15:00:26Z</time>
      </trkpt>
      <trkpt lat="48.7666580" lon="14.3277810">
        <ele>666.4</ele>
        <time>2019-08-07T15:00:27Z</time>
      </trkpt>
      <trkpt lat="48.7666760" lon="14.3277710">
        <ele>666.6</ele>
        <time>2019-08-07T15:00:28Z</time>
      </trkpt>
      <trkpt lat="48.7666940" lon="14.3277620">
        <ele>666.8</ele>
        <time>2019-08-07T15:00:29Z</time>
      </trkpt>
      <trkpt lat="48.7667100" lon="14.3277530">
        <ele>667.2</ele>
        <time>2019-08-07T15:00:30Z</time>
      </trkpt>
      <trkpt lat="48.7667270" lon="14.3277430">
        <ele>667.4</ele>
        <time>2019-08-07T15:00:31Z</time>
      </trkpt>
      <trkpt lat="48.7667420" lon="14.3277320">
        <ele>667.6</ele>
        <time>2019-08-07T15:00:32Z</time>
      </trkpt>
      <trkpt lat="48.7667570" lon="14.3277210">
        <ele>667.8</ele>
        <time>2019-08-07T15:00:33Z</time>
      </trkpt>
      <trkpt lat="48.7667710" lon="14.3277100">
        <ele>668.2</ele>
        <time>2019-08-07T15:00:34Z</time>
      </trkpt>
      <trkpt lat="48.7667830" lon="14.3276990">
        <ele>668.4</ele>
        <time>2019-08-07T15:00:35Z</time>
      </trkpt>
      <trkpt lat="48.7667980" lon="14.3276880">
        <ele>668.8</ele>
        <time>2019-08-07T15:00:36Z</time>
      </trkpt>
      <trkpt lat="48.7668150" lon="14.3276770">
        <ele>669.0</ele>
        <time>2019-08-07T15:00:37Z</time>
      </trkpt>
      <trkpt lat="48.7668280" lon="14.3276700">
        <ele>669.4</ele>
        <time>2019-08-07T15:00:38Z</time>
      </trkpt>
      <trkpt lat="48.7668430" lon="14.3276640">
        <ele>669.6</ele>
        <time>2019-08-07T15:00:39Z</time>
      </trkpt>
      <trkpt lat="48.7668540" lon="14.3276590">
        <ele>670.0</ele>
        <time>2019-08-07T15:00:40Z</time>
      </trkpt>
      <trkpt lat="48.7668660" lon="14.3276530">
        <ele>670.2</ele>
        <time>2019-08-07T15:00:41Z</time>
      </trkpt>
      <trkpt lat="48.7668800" lon="14.3276410">
        <ele>670.6</ele>
        <time>2019-08-07T15:00:42Z</time>
      </trkpt>
      <trkpt lat="48.7668960" lon="14.3276290">
        <ele>670.8</ele>
        <time>2019-08-07T15:00:43Z</time>
      </trkpt>
      <trkpt lat="48.7669120" lon="14.3276170">
        <ele>671.2</ele>
        <time>2019-08-07T15:00:44Z</time>
      </trkpt>
      <trkpt lat="48.7669270" lon="14.3276030">
        <ele>671.4</ele>
        <time>2019-08-07T15:00:45Z</time>
      </trkpt>
      <trkpt lat="48.7669460" lon="14.3275870">
        <ele>671.6</ele>
        <time>2019-08-07T15:00:46Z</time>
      </trkpt>
      <trkpt lat="48.7669630" lon="14.3275740">
        <ele>671.8</ele>
        <time>2019-08-07T15:00:47Z</time>
      </trkpt>
      <trkpt lat="48.7669790" lon="14.3275600">
        <ele>672.2</ele>
        <time>2019-08-07T15:00:48Z</time>
      </trkpt>
      <trkpt lat="48.7669950" lon="14.3275430">
        <ele>672.4</ele>
        <time>2019-08-07T15:00:49Z</time>
      </trkpt>
      <trkpt lat="48.7670120" lon="14.3275290">
        <ele>672.8</ele>
        <time>2019-08-07T15:00:50Z</time>
      </trkpt>
      <trkpt lat="48.7670280" lon="14.3275150">
        <ele>673.0</ele>
        <time>2019-08-07T15:00:51Z</time>
      </trkpt>
      <trkpt lat="48.7670430" lon="14.3275030">
        <ele>673.2</ele>
        <time>2019-08-07T15:00:52Z</time>
      </trkpt>
      <trkpt lat="48.7670580" lon="14.3274910">
        <ele>673.4</ele>
        <time>2019-08-07T15:00:53Z</time>
      </trkpt>
      <trkpt lat="48.7670730" lon="14.3274780">
        <ele>673.8</ele>
        <time>2019-08-07T15:00:54Z</time>
      </trkpt>
      <trkpt lat="48.7670870" lon="14.3274660">
        <ele>674.0</ele>
        <time>2019-08-07T15:00:55Z</time>
      </trkpt>
      <trkpt lat="48.7671020" lon="14.3274560">
        <ele>674.2</ele>
        <time>2019-08-07T15:00:56Z</time>
      </trkpt>
      <trkpt lat="48.7671160" lon="14.3274460">
        <ele>674.6</ele>
        <time>2019-08-07T15:00:57Z</time>
      </trkpt>
      <trkpt lat="48.7671300" lon="14.3274340">
        <ele>674.8</ele>
        <time>2019-08-07T15:00:58Z</time>
      </trkpt>
      <trkpt lat="48.7671440" lon="14.3274250">
        <ele>675.0</ele>
        <time>2019-08-07T15:00:59Z</time>
      </trkpt>
      <trkpt lat="48.7671600" lon="14.3274180">
        <ele>675.4</ele>
        <time>2019-08-07T15:01:00Z</time>
      </trkpt>
      <trkpt lat="48.7671750" lon="14.3274140">
        <ele>675.6</ele>
        <time>2019-08-07T15:01:01Z</time>
      </trkpt>
      <trkpt lat="48.7671900" lon="14.3274100">
        <ele>675.8</ele>
        <time>2019-08-07T15:01:02Z</time>
      </trkpt>
      <trkpt lat="48.7672050" lon="14.3274080">
        <ele>676.0</ele>
        <time>2019-08-07T15:01:03Z</time>
      </trkpt>
      <trkpt lat="48.7672200" lon="14.3274060">
        <ele>676.2</ele>
        <time>2019-08-07T15:01:04Z</time>
      </trkpt>
      <trkpt lat="48.7672370" lon="14.3274050">
        <ele>676.4</ele>
        <time>2019-08-07T15:01:05Z</time>
      </trkpt>
      <trkpt lat="48.7672520" lon="14.3274040">
        <ele>676.6</ele>
        <time>2019-08-07T15:01:06Z</time>
      </trkpt>
      <trkpt lat="48.7672670" lon="14.3274010">
        <ele>676.8</ele>
        <time>2019-08-07T15:01:07Z</time>
      </trkpt>
      <trkpt lat="48.7672820" lon="14.3273970">
        <ele>677.0</ele>
        <time>2019-08-07T15:01:08Z</time>
      </trkpt>
      <trkpt lat="48.7672970" lon="14.3273910">
        <ele>677.0</ele>
        <time>2019-08-07T15:01:09Z</time>
      </trkpt>
      <trkpt lat="48.7673120" lon="14.3273860">
        <ele>677.2</ele>
        <time>2019-08-07T15:01:10Z</time>
      </trkpt>
      <trkpt lat="48.7673270" lon="14.3273800">
        <ele>677.2</ele>
        <time>2019-08-07T15:01:11Z</time>
      </trkpt>
      <trkpt lat="48.7673410" lon="14.3273740">
        <ele>677.4</ele>
        <time>2019-08-07T15:01:12Z</time>
      </trkpt>
      <trkpt lat="48.7673540" lon="14.3273720">
        <ele>677.4</ele>
        <time>2019-08-07T15:01:13Z</time>
      </trkpt>
      <trkpt lat="48.7673660" lon="14.3273720">
        <ele>677.4</ele>
        <time>2019-08-07T15:01:14Z</time>
      </trkpt>
      <trkpt lat="48.7673790" lon="14.3273730">
        <ele>677.6</ele>
        <time>2019-08-07T15:01:15Z</time>
      </trkpt>
      <trkpt lat="48.7673930" lon="14.3273700">
        <ele>677.6</ele>
        <time>2019-08-07T15:01:16Z</time>
      </trkpt>
      <trkpt lat="48.7674060" lon="14.3273630">
        <ele>677.6</ele>
        <time>2019-08-07T15:01:17Z</time>
      </trkpt>
      <trkpt lat="48.7674190" lon="14.3273520">
        <ele>677.4</ele>
        <time>2019-08-07T15:01:18Z</time>
      </trkpt>
      <trkpt lat="48.7674310" lon="14.3273380">
        <ele>677.4</ele>
        <time>2019-08-07T15:01:19Z</time>
      </trkpt>
      <trkpt lat="48.7674420" lon="14.3273240">
        <ele>677.4</ele>
        <time>2019-08-07T15:01:20Z</time>
      </trkpt>
      <trkpt lat="48.7674560" lon="14.3273110">
        <ele>677.4</ele>
        <time>2019-08-07T15:01:21Z</time>
      </trkpt>
      <trkpt lat="48.7674680" lon="14.3273000">
        <ele>677.2</ele>
        <time>2019-08-07T15:01:22Z</time>
      </trkpt>
      <trkpt lat="48.7674780" lon="14.3272880">
        <ele>677.0</ele>
        <time>2019-08-07T15:01:23Z</time>
      </trkpt>
      <trkpt lat="48.7674850" lon="14.3272780">
        <ele>677.0</ele>
        <time>2019-08-07T15:01:24Z</time>
      </trkpt>
      <trkpt lat="48.7674920" lon="14.3272670">
        <ele>676.8</ele>
        <time>2019-08-07T15:01:25Z</time>
      </trkpt>
      <trkpt lat="48.7675010" lon="14.3272510">
        <ele>676.6</ele>
        <time>2019-08-07T15:01:26Z</time>
      </trkpt>
      <trkpt lat="48.7675110" lon="14.3272330">
        <ele>676.4</ele>
        <time>2019-08-07T15:01:27Z</time>
      </trkpt>
      <trkpt lat="48.7675230" lon="14.3272100">
        <ele>676.0</ele>
        <time>2019-08-07T15:01:28Z</time>
      </trkpt>
      <trkpt lat="48.7675360" lon="14.3271850">
        <ele>675.8</ele>
        <time>2019-08-07T15:01:29Z</time>
      </trkpt>
      <trkpt lat="48.7675490" lon="14.3271630">
        <ele>675.6</ele>
        <time>2019-08-07T15:01:30Z</time>
      </trkpt>
      <trkpt lat="48.7675590" lon="14.3271450">
        <ele>675.2</ele>
        <time>2019-08-07T15:01:31Z</time>
      </trkpt>
      <trkpt lat="48.7675690" lon="14.3271290">
        <ele>674.8</ele>
        <time>2019-08-07T15:01:32Z</time>
      </trkpt>
      <trkpt lat="48.7675770" lon="14.3271150">
        <ele>674.6</ele>
        <time>2019-08-07T15:01:33Z</time>
      </trkpt>
      <trkpt lat="48.7675870" lon="14.3270990">
        <ele>674.2</ele>
        <time>2019-08-07T15:01:34Z</time>
      </trkpt>
      <trkpt lat="48.7675960" lon="14.3270790">
        <ele>673.8</ele>
        <time>2019-08-07T15:01:35Z</time>
      </trkpt>
      <trkpt lat="48.7676070" lon="14.3270560">
        <ele>673.4</ele>
        <time>2019-08-07T15:01:36Z</time>
      </trkpt>
      <trkpt lat="48.7676170" lon="14.3270280">
        <ele>673.0</ele>
        <time>2019-08-07T15:01:37Z</time>
      </trkpt>
      <trkpt lat="48.7676260" lon="14.3270030">
        <ele>672.6</ele>
        <time>2019-08-07T15:01:38Z</time>
      </trkpt>
      <trkpt lat="48.7676370" lon="14.3269760">
        <ele>672.2</ele>
        <time>2019-08-07T15:01:39Z</time>
      </trkpt>
      <trkpt lat="48.7676510" lon="14.3269450">
        <ele>671.8</ele>
        <time>2019-08-07T15:01:40Z</time>
      </trkpt>
      <trkpt lat="48.7676660" lon="14.3269130">
        <ele>671.4</ele>
        <time>2019-08-07T15:01:41Z</time>
      </trkpt>
      <trkpt lat="48.7676760" lon="14.3268790">
        <ele>671.0</ele>
        <time>2019-08-07T15:01:42Z</time>
      </trkpt>
      <trkpt lat="48.7676900" lon="14.3268420">
        <ele>670.6</ele>
        <time>2019-08-07T15:01:43Z</time>
      </trkpt>
      <trkpt lat="48.7677050" lon="14.3267990">
        <ele>670.2</ele>
        <time>2019-08-07T15:01:44Z</time>
      </trkpt>
      <trkpt lat="48.7677220" lon="14.3267600">
        <ele>669.8</ele>
        <time>2019-08-07T15:01:45Z</time>
      </trkpt>
      <trkpt lat="48.7677370" lon="14.3267180">
        <ele>669.2</ele>
        <time>2019-08-07T15:01:46Z</time>
      </trkpt>
      <trkpt lat="48.7678110" lon="14.3265330">
        <ele>667.4</ele>
        <time>2019-08-07T15:01:49Z</time>
      </trkpt>
      <trkpt lat="48.7678210" lon="14.3265080">
        <ele>666.6</ele>
        <time>2019-08-07T15:01:50Z</time>
      </trkpt>
      <trkpt lat="48.7678420" lon="14.3264560">
        <ele>665.6</ele>
        <time>2019-08-07T15:01:51Z</time>
      </trkpt>
      <trkpt lat="48.7678690" lon="14.3263940">
        <ele>664.6</ele>
        <time>2019-08-07T15:01:52Z</time>
      </trkpt>
      <trkpt lat="48.7679050" lon="14.3263250">
        <ele>663.8</ele>
        <time>2019-08-07T15:01:53Z</time>
      </trkpt>
      <trkpt lat="48.7679530" lon="14.3262440">
        <ele>662.8</ele>
        <time>2019-08-07T15:01:54Z</time>
      </trkpt>
      <trkpt lat="48.7680140" lon="14.3261490">
        <ele>661.8</ele>
        <time>2019-08-07T15:01:55Z</time>
      </trkpt>
      <trkpt lat="48.7680840" lon="14.3260450">
        <ele>660.8</ele>
        <time>2019-08-07T15:01:56Z</time>
      </trkpt>
      <trkpt lat="48.7681590" lon="14.3259350">
        <ele>660.0</ele>
        <time>2019-08-07T15:01:57Z</time>
      </trkpt>
      <trkpt lat="48.7682470" lon="14.3258140">
        <ele>659.0</ele>
        <time>2019-08-07T15:01:58Z</time>
      </trkpt>
      <trkpt lat="48.7683430" lon="14.3256930">
        <ele>658.2</ele>
        <time>2019-08-07T15:01:59Z</time>
      </trkpt>
      <trkpt lat="48.7684430" lon="14.3255750">
        <ele>657.4</ele>
        <time>2019-08-07T15:02:00Z</time>
      </trkpt>
      <trkpt lat="48.7685380" lon="14.3254520">
        <ele>657.0</ele>
        <time>2019-08-07T15:02:01Z</time>
      </trkpt>
      <trkpt lat="48.7686310" lon="14.3253180">
        <ele>656.4</ele>
        <time>2019-08-07T15:02:02Z</time>
      </trkpt>
      <trkpt lat="48.7687230" lon="14.3251790">
        <ele>655.6</ele>
        <time>2019-08-07T15:02:03Z</time>
      </trkpt>
      <trkpt lat="48.7688330" lon="14.3249900">
        <ele>655.0</ele>
        <time>2019-08-07T15:02:04Z</time>
      </trkpt>
      <trkpt lat="48.7689260" lon="14.3248550">
        <ele>654.4</ele>
        <time>2019-08-07T15:02:05Z</time>
      </trkpt>
      <trkpt lat="48.7690020" lon="14.3247300">
        <ele>654.2</ele>
        <time>2019-08-07T15:02:06Z</time>
      </trkpt>
      <trkpt lat="48.7690730" lon="14.3246180">
        <ele>653.6</ele>
        <time>2019-08-07T15:02:07Z</time>
      </trkpt>
      <trkpt lat="48.7691270" lon="14.3245230">
        <ele>653.4</ele>
        <time>2019-08-07T15:02:08Z</time>
      </trkpt>
      <trkpt lat="48.7691670" lon="14.3244290">
        <ele>653.0</ele>
        <time>2019-08-07T15:02:09Z</time>
      </trkpt>
      <trkpt lat="48.7691990" lon="14.3243300">
        <ele>652.6</ele>
        <time>2019-08-07T15:02:10Z</time>
      </trkpt>
      <trkpt lat="48.7692350" lon="14.3242290">
        <ele>652.4</ele>
        <time>2019-08-07T15:02:11Z</time>
      </trkpt>
      <trkpt lat="48.7692760" lon="14.3241350">
        <ele>652.2</ele>
        <time>2019-08-07T15:02:12Z</time>
      </trkpt>
      <trkpt lat="48.7693210" lon="14.3240470">
        <ele>652.0</ele>
        <time>2019-08-07T15:02:13Z</time>
      </trkpt>
      <trkpt lat="48.7693750" lon="14.3239560">
        <ele>652.0</ele>
        <time>2019-08-07T15:02:14Z</time>
      </trkpt>
      <trkpt lat="48.7694310" lon="14.3238710">
        <ele>651.8</ele>
        <time>2019-08-07T15:02:15Z</time>
      </trkpt>
      <trkpt lat="48.7694860" lon="14.3237980">
        <ele>651.6</ele>
        <time>2019-08-07T15:02:16Z</time>
      </trkpt>
      <trkpt lat="48.7695450" lon="14.3237390">
        <ele>651.6</ele>
        <time>2019-08-07T15:02:17Z</time>
      </trkpt>
      <trkpt lat="48.7696050" lon="14.3236890">
        <ele>651.4</ele>
        <time>2019-08-07T15:02:18Z</time>
      </trkpt>
      <trkpt lat="48.7696650" lon="14.3236470">
        <ele>651.2</ele>
        <time>2019-08-07T15:02:19Z</time>
      </trkpt>
      <trkpt lat="48.7697220" lon="14.3236120">
        <ele>651.0</ele>
        <time>2019-08-07T15:02:20Z</time>
      </trkpt>
      <trkpt lat="48.7697830" lon="14.3235690">
        <ele>651.0</ele>
        <time>2019-08-07T15:02:21Z</time>
      </trkpt>
      <trkpt lat="48.7698440" lon="14.3235270">
        <ele>650.8</ele>
        <time>2019-08-07T15:02:22Z</time>
      </trkpt>
      <trkpt lat="48.7699020" lon="14.3234840">
        <ele>650.6</ele>
        <time>2019-08-07T15:02:23Z</time>
      </trkpt>
      <trkpt lat="48.7699560" lon="14.3234440">
        <ele>650.6</ele>
        <time>2019-08-07T15:02:24Z</time>
      </trkpt>
      <trkpt lat="48.7700100" lon="14.3234080">
        <ele>650.6</ele>
        <time>2019-08-07T15:02:25Z</time>
      </trkpt>
      <trkpt lat="48.7700630" lon="14.3233720">
        <ele>650.6</ele>
        <time>2019-08-07T15:02:26Z</time>
      </trkpt>
      <trkpt lat="48.7701150" lon="14.3233440">
        <ele>650.6</ele>
        <time>2019-08-07T15:02:27Z</time>
      </trkpt>
      <trkpt lat="48.7701680" lon="14.3233140">
        <ele>650.4</ele>
        <time>2019-08-07T15:02:28Z</time>
      </trkpt>
      <trkpt lat="48.7702160" lon="14.3232820">
        <ele>650.6</ele>
        <time>2019-08-07T15:02:29Z</time>
      </trkpt>
      <trkpt lat="48.7702630" lon="14.3232460">
        <ele>650.6</ele>
        <time>2019-08-07T15:02:30Z</time>
      </trkpt>
      <trkpt lat="48.7703120" lon="14.3232110">
        <ele>650.6</ele>
        <time>2019-08-07T15:02:31Z</time>
      </trkpt>
      <trkpt lat="48.7703560" lon="14.3231770">
        <ele>650.4</ele>
        <time>2019-08-07T15:02:32Z</time>
      </trkpt>
      <trkpt lat="48.7703980" lon="14.3231420">
        <ele>650.4</ele>
        <time>2019-08-07T15:02:33Z</time>
      </trkpt>
      <trkpt lat="48.7704360" lon="14.3231060">
        <ele>650.4</ele>
        <time>2019-08-07T15:02:34Z</time>
      </trkpt>
      <trkpt lat="48.7704740" lon="14.3230790">
        <ele>650.4</ele>
        <time>2019-08-07T15:02:35Z</time>
      </trkpt>
      <trkpt lat="48.7705150" lon="14.3230530">
        <ele>650.4</ele>
        <time>2019-08-07T15:02:36Z</time>
      </trkpt>
      <trkpt lat="48.7705540" lon="14.3230300">
        <ele>650.6</ele>
        <time>2019-08-07T15:02:37Z</time>
      </trkpt>
      <trkpt lat="48.7705920" lon="14.3230090">
        <ele>650.6</ele>
        <time>2019-08-07T15:02:38Z</time>
      </trkpt>
      <trkpt lat="48.7706300" lon="14.3229920">
        <ele>650.6</ele>
        <time>2019-08-07T15:02:39Z</time>
      </trkpt>
      <trkpt lat="48.7706700" lon="14.3229770">
        <ele>650.6</ele>
        <time>2019-08-07T15:02:40Z</time>
      </trkpt>
      <trkpt lat="48.7707090" lon="14.3229610">
        <ele>650.6</ele>
        <time>2019-08-07T15:02:41Z</time>
      </trkpt>
      <trkpt lat="48.7707470" lon="14.3229450">
        <ele>650.6</ele>
        <time>2019-08-07T15:02:42Z</time>
      </trkpt>
      <trkpt lat="48.7707850" lon="14.3229320">
        <ele>650.8</ele>
        <time>2019-08-07T15:02:43Z</time>
      </trkpt>
      <trkpt lat="48.7708250" lon="14.3229210">
        <ele>650.8</ele>
        <time>2019-08-07T15:02:44Z</time>
      </trkpt>
      <trkpt lat="48.7708670" lon="14.3229120">
        <ele>650.8</ele>
        <time>2019-08-07T15:02:45Z</time>
      </trkpt>
      <trkpt lat="48.7709070" lon="14.3229050">
        <ele>650.8</ele>
        <time>2019-08-07T15:02:46Z</time>
      </trkpt>
      <trkpt lat="48.7709480" lon="14.3229000">
        <ele>650.8</ele>
        <time>2019-08-07T15:02:47Z</time>
      </trkpt>
      <trkpt lat="48.7709900" lon="14.3228980">
        <ele>651.0</ele>
        <time>2019-08-07T15:02:48Z</time>
      </trkpt>
      <trkpt lat="48.7710300" lon="14.3228930">
        <ele>651.0</ele>
        <time>2019-08-07T15:02:49Z</time>
      </trkpt>
      <trkpt lat="48.7710650" lon="14.3228850">
        <ele>651.0</ele>
        <time>2019-08-07T15:02:50Z</time>
      </trkpt>
      <trkpt lat="48.7711010" lon="14.3228770">
        <ele>651.2</ele>
        <time>2019-08-07T15:02:51Z</time>
      </trkpt>
      <trkpt lat="48.7711370" lon="14.3228700">
        <ele>651.2</ele>
        <time>2019-08-07T15:02:52Z</time>
      </trkpt>
      <trkpt lat="48.7711740" lon="14.3228610">
        <ele>651.2</ele>
        <time>2019-08-07T15:02:53Z</time>
      </trkpt>
      <trkpt lat="48.7712110" lon="14.3228540">
        <ele>651.2</ele>
        <time>2019-08-07T15:02:54Z</time>
      </trkpt>
      <trkpt lat="48.7712450" lon="14.3228510">
        <ele>651.4</ele>
        <time>2019-08-07T15:02:55Z</time>
      </trkpt>
      <trkpt lat="48.7712770" lon="14.3228470">
        <ele>651.4</ele>
        <time>2019-08-07T15:02:56Z</time>
      </trkpt>
      <trkpt lat="48.7713060" lon="14.3228430">
        <ele>651.6</ele>
        <time>2019-08-07T15:02:57Z</time>
      </trkpt>
      <trkpt lat="48.7713340" lon="14.3228380">
        <ele>651.6</ele>
        <time>2019-08-07T15:02:58Z</time>
      </trkpt>
      <trkpt lat="48.7713610" lon="14.3228300">
        <ele>651.6</ele>
        <time>2019-08-07T15:02:59Z</time>
      </trkpt>
      <trkpt lat="48.7713850" lon="14.3228230">
        <ele>651.8</ele>
        <time>2019-08-07T15:03:00Z</time>
      </trkpt>
      <trkpt lat="48.7714080" lon="14.3228160">
        <ele>651.8</ele>
        <time>2019-08-07T15:03:01Z</time>
      </trkpt>
      <trkpt lat="48.7714300" lon="14.3228040">
        <ele>652.0</ele>
        <time>2019-08-07T15:03:02Z</time>
      </trkpt>
      <trkpt lat="48.7714510" lon="14.3227930">
        <ele>652.0</ele>
        <time>2019-08-07T15:03:03Z</time>
      </trkpt>
      <trkpt lat="48.7714720" lon="14.3227820">
        <ele>652.2</ele>
        <time>2019-08-07T15:03:04Z</time>
      </trkpt>
      <trkpt lat="48.7714920" lon="14.3227690">
        <ele>652.4</ele>
        <time>2019-08-07T15:03:05Z</time>
      </trkpt>
      <trkpt lat="48.7715120" lon="14.3227550">
        <ele>652.6</ele>
        <time>2019-08-07T15:03:06Z</time>
      </trkpt>
      <trkpt lat="48.7715300" lon="14.3227380">
        <ele>652.6</ele>
        <time>2019-08-07T15:03:07Z</time>
      </trkpt>
      <trkpt lat="48.7715490" lon="14.3227180">
        <ele>652.8</ele>
        <time>2019-08-07T15:03:08Z</time>
      </trkpt>
      <trkpt lat="48.7715680" lon="14.3227010">
        <ele>653.0</ele>
        <time>2019-08-07T15:03:09Z</time>
      </trkpt>
      <trkpt lat="48.7715860" lon="14.3226850">
        <ele>653.2</ele>
        <time>2019-08-07T15:03:10Z</time>
      </trkpt>
      <trkpt lat="48.7716040" lon="14.3226700">
        <ele>653.2</ele>
        <time>2019-08-07T15:03:11Z</time>
      </trkpt>
      <trkpt lat="48.7716240" lon="14.3226570">
        <ele>653.4</ele>
        <time>2019-08-07T15:03:12Z</time>
      </trkpt>
      <trkpt lat="48.7716420" lon="14.3226450">
        <ele>653.6</ele>
        <time>2019-08-07T15:03:13Z</time>
      </trkpt>
      <trkpt lat="48.7716590" lon="14.3226360">
        <ele>653.8</ele>
        <time>2019-08-07T15:03:14Z</time>
      </trkpt>
      <trkpt lat="48.7716750" lon="14.3226240">
        <ele>654.2</ele>
        <time>2019-08-07T15:03:15Z</time>
      </trkpt>
      <trkpt lat="48.7716920" lon="14.3226130">
        <ele>654.4</ele>
        <time>2019-08-07T15:03:16Z</time>
      </trkpt>
      <trkpt lat="48.7717070" lon="14.3226030">
        <ele>654.6</ele>
        <time>2019-08-07T15:03:17Z</time>
      </trkpt>
      <trkpt lat="48.7717230" lon="14.3225950">
        <ele>654.8</ele>
        <time>2019-08-07T15:03:18Z</time>
      </trkpt>
      <trkpt lat="48.7717400" lon="14.3225880">
        <ele>655.0</ele>
        <time>2019-08-07T15:03:19Z</time>
      </trkpt>
      <trkpt lat="48.7717560" lon="14.3225780">
        <ele>655.2</ele>
        <time>2019-08-07T15:03:20Z</time>
      </trkpt>
      <trkpt lat="48.7717740" lon="14.3225670">
        <ele>655.4</ele>
        <time>2019-08-07T15:03:21Z</time>
      </trkpt>
      <trkpt lat="48.7717900" lon="14.3225560">
        <ele>655.6</ele>
        <time>2019-08-07T15:03:22Z</time>
      </trkpt>
      <trkpt lat="48.7718070" lon="14.3225460">
        <ele>655.8</ele>
        <time>2019-08-07T15:03:23Z</time>
      </trkpt>
      <trkpt lat="48.7718220" lon="14.3225340">
        <ele>656.0</ele>
        <time>2019-08-07T15:03:24Z</time>
      </trkpt>
      <trkpt lat="48.7718390" lon="14.3225230">
        <ele>656.2</ele>
        <time>2019-08-07T15:03:25Z</time>
      </trkpt>
      <trkpt lat="48.7718550" lon="14.3225130">
        <ele>656.4</ele>
        <time>2019-08-07T15:03:26Z</time>
      </trkpt>
      <trkpt lat="48.7718700" lon="14.3225050">
        <ele>656.6</ele>
        <time>2019-08-07T15:03:27Z</time>
      </trkpt>
      <trkpt lat="48.7718870" lon="14.3224960">
        <ele>656.8</ele>
        <time>2019-08-07T15:03:28Z</time>
      </trkpt>
      <trkpt lat="48.7719040" lon="14.3224880">
        <ele>656.8</ele>
        <time>2019-08-07T15:03:29Z</time>
      </trkpt>
      <trkpt lat="48.7719230" lon="14.3224800">
        <ele>657.0</ele>
        <time>2019-08-07T15:03:30Z</time>
      </trkpt>
      <trkpt lat="48.7719400" lon="14.3224710">
        <ele>657.2</ele>
        <time>2019-08-07T15:03:31Z</time>
      </trkpt>
      <trkpt lat="48.7719570" lon="14.3224620">
        <ele>657.4</ele>
        <time>2019-08-07T15:03:32Z</time>
      </trkpt>
      <trkpt lat="48.7719750" lon="14.3224530">
        <ele>657.4</ele>
        <time>2019-08-07T15:03:33Z</time>
      </trkpt>
      <trkpt lat="48.7719930" lon="14.3224430">
        <ele>657.6</ele>
        <time>2019-08-07T15:03:34Z</time>
      </trkpt>
      <trkpt lat="48.7720100" lon="14.3224310">
        <ele>657.6</ele>
        <time>2019-08-07T15:03:35Z</time>
      </trkpt>
      <trkpt lat="48.7720270" lon="14.3224180">
        <ele>657.8</ele>
        <time>2019-08-07T15:03:36Z</time>
      </trkpt>
      <trkpt lat="48.7720440" lon="14.3224040">
        <ele>658.0</ele>
        <time>2019-08-07T15:03:37Z</time>
      </trkpt>
      <trkpt lat="48.7720600" lon="14.3223930">
        <ele>658.0</ele>
        <time>2019-08-07T15:03:38Z</time>
      </trkpt>
      <trkpt lat="48.7720770" lon="14.3223840">
        <ele>658.2</ele>
        <time>2019-08-07T15:03:39Z</time>
      </trkpt>
      <trkpt lat="48.7720940" lon="14.3223740">
        <ele>658.4</ele>
        <time>2019-08-07T15:03:40Z</time>
      </trkpt>
      <trkpt lat="48.7721100" lon="14.3223620">
        <ele>658.4</ele>
        <time>2019-08-07T15:03:41Z</time>
      </trkpt>
      <trkpt lat="48.7721270" lon="14.3223510">
        <ele>658.6</ele>
        <time>2019-08-07T15:03:42Z</time>
      </trkpt>
      <trkpt lat="48.7721440" lon="14.3223410">
        <ele>658.6</ele>
        <time>2019-08-07T15:03:43Z</time>
      </trkpt>
      <trkpt lat="48.7721600" lon="14.3223290">
        <ele>658.8</ele>
        <time>2019-08-07T15:03:44Z</time>
      </trkpt>
      <trkpt lat="48.7721770" lon="14.3223160">
        <ele>659.0</ele>
        <time>2019-08-07T15:03:45Z</time>
      </trkpt>
      <trkpt lat="48.7721920" lon="14.3223060">
        <ele>659.2</ele>
        <time>2019-08-07T15:03:46Z</time>
      </trkpt>
      <trkpt lat="48.7722090" lon="14.3222960">
        <ele>659.2</ele>
        <time>2019-08-07T15:03:47Z</time>
      </trkpt>
      <trkpt lat="48.7722250" lon="14.3222840">
        <ele>659.4</ele>
        <time>2019-08-07T15:03:48Z</time>
      </trkpt>
      <trkpt lat="48.7722400" lon="14.3222740">
        <ele>659.6</ele>
        <time>2019-08-07T15:03:49Z</time>
      </trkpt>
      <trkpt lat="48.7722560" lon="14.3222650">
        <ele>659.8</ele>
        <time>2019-08-07T15:03:50Z</time>
      </trkpt>
      <trkpt lat="48.7722720" lon="14.3222540">
        <ele>660.0</ele>
        <time>2019-08-07T15:03:51Z</time>
      </trkpt>
      <trkpt lat="48.7722900" lon="14.3222430">
        <ele>660.2</ele>
        <time>2019-08-07T15:03:52Z</time>
      </trkpt>
      <trkpt lat="48.7723050" lon="14.3222320">
        <ele>660.4</ele>
        <time>2019-08-07T15:03:53Z</time>
      </trkpt>
      <trkpt lat="48.7723200" lon="14.3222210">
        <ele>660.6</ele>
        <time>2019-08-07T15:03:54Z</time>
      </trkpt>
      <trkpt lat="48.7723370" lon="14.3222090">
        <ele>660.8</ele>
        <time>2019-08-07T15:03:55Z</time>
      </trkpt>
      <trkpt lat="48.7723540" lon="14.3221990">
        <ele>661.0</ele>
        <time>2019-08-07T15:03:56Z</time>
      </trkpt>
      <trkpt lat="48.7723720" lon="14.3221880">
        <ele>661.0</ele>
        <time>2019-08-07T15:03:57Z</time>
      </trkpt>
      <trkpt lat="48.7723890" lon="14.3221770">
        <ele>661.2</ele>
        <time>2019-08-07T15:03:58Z</time>
      </trkpt>
      <trkpt lat="48.7724050" lon="14.3221640">
        <ele>661.4</ele>
        <time>2019-08-07T15:03:59Z</time>
      </trkpt>
      <trkpt lat="48.7724200" lon="14.3221530">
        <ele>661.6</ele>
        <time>2019-08-07T15:04:00Z</time>
      </trkpt>
      <trkpt lat="48.7724350" lon="14.3221420">
        <ele>661.8</ele>
        <time>2019-08-07T15:04:01Z</time>
      </trkpt>
      <trkpt lat="48.7724500" lon="14.3221310">
        <ele>662.0</ele>
        <time>2019-08-07T15:04:02Z</time>
      </trkpt>
      <trkpt lat="48.7724630" lon="14.3221190">
        <ele>662.2</ele>
        <time>2019-08-07T15:04:03Z</time>
      </trkpt>
      <trkpt lat="48.7724760" lon="14.3221100">
        <ele>662.4</ele>
        <time>2019-08-07T15:04:04Z</time>
      </trkpt>
      <trkpt lat="48.7724890" lon="14.3221010">
        <ele>662.6</ele>
        <time>2019-08-07T15:04:05Z</time>
      </trkpt>
      <trkpt lat="48.7725010" lon="14.3220890">
        <ele>662.8</ele>
        <time>2019-08-07T15:04:06Z</time>
      </trkpt>
      <trkpt lat="48.7725150" lon="14.3220790">
        <ele>662.8</ele>
        <time>2019-08-07T15:04:07Z</time>
      </trkpt>
      <trkpt lat="48.7725300" lon="14.3220670">
        <ele>663.0</ele>
        <time>2019-08-07T15:04:08Z</time>
      </trkpt>
      <trkpt lat="48.7725430" lon="14.3220550">
        <ele>663.2</ele>
        <time>2019-08-07T15:04:09Z</time>
      </trkpt>
      <trkpt lat="48.7725560" lon="14.3220410">
        <ele>663.4</ele>
        <time>2019-08-07T15:04:10Z</time>
      </trkpt>
      <trkpt lat="48.7725680" lon="14.3220250">
        <ele>663.6</ele>
        <time>2019-08-07T15:04:11Z</time>
      </trkpt>
      <trkpt lat="48.7725820" lon="14.3220080">
        <ele>663.8</ele>
        <time>2019-08-07T15:04:12Z</time>
      </trkpt>
      <trkpt lat="48.7725970" lon="14.3219940">
        <ele>663.8</ele>
        <time>2019-08-07T15:04:13Z</time>
      </trkpt>
      <trkpt lat="48.7726110" lon="14.3219810">
        <ele>664.0</ele>
        <time>2019-08-07T15:04:14Z</time>
      </trkpt>
      <trkpt lat="48.7726230" lon="14.3219690">
        <ele>664.2</ele>
        <time>2019-08-07T15:04:15Z</time>
      </trkpt>
      <trkpt lat="48.7726360" lon="14.3219590">
        <ele>664.2</ele>
        <time>2019-08-07T15:04:16Z</time>
      </trkpt>
      <trkpt lat="48.7726500" lon="14.3219470">
        <ele>664.4</ele>
        <time>2019-08-07T15:04:17Z</time>
      </trkpt>
      <trkpt lat="48.7726670" lon="14.3219340">
        <ele>664.6</ele>
        <time>2019-08-07T15:04:18Z</time>
      </trkpt>
      <trkpt lat="48.7726820" lon="14.3219200">
        <ele>664.6</ele>
        <time>2019-08-07T15:04:19Z</time>
      </trkpt>
      <trkpt lat="48.7726990" lon="14.3219070">
        <ele>664.8</ele>
        <time>2019-08-07T15:04:20Z</time>
      </trkpt>
      <trkpt lat="48.7727150" lon="14.3218940">
        <ele>665.0</ele>
        <time>2019-08-07T15:04:21Z</time>
      </trkpt>
      <trkpt lat="48.7727300" lon="14.3218800">
        <ele>665.0</ele>
        <time>2019-08-07T15:04:22Z</time>
      </trkpt>
      <trkpt lat="48.7727450" lon="14.3218650">
        <ele>665.2</ele>
        <time>2019-08-07T15:04:23Z</time>
      </trkpt>
      <trkpt lat="48.7727590" lon="14.3218510">
        <ele>665.4</ele>
        <time>2019-08-07T15:04:24Z</time>
      </trkpt>
      <trkpt lat="48.7727750" lon="14.3218410">
        <ele>665.6</ele>
        <time>2019-08-07T15:04:25Z</time>
      </trkpt>
      <trkpt lat="48.7727880" lon="14.3218300">
        <ele>665.6</ele>
        <time>2019-08-07T15:04:26Z</time>
      </trkpt>
      <trkpt lat="48.7728050" lon="14.3218160">
        <ele>665.8</ele>
        <time>2019-08-07T15:04:27Z</time>
      </trkpt>
      <trkpt lat="48.7728220" lon="14.3218040">
        <ele>666.0</ele>
        <time>2019-08-07T15:04:28Z</time>
      </trkpt>
      <trkpt lat="48.7728390" lon="14.3217890">
        <ele>666.0</ele>
        <time>2019-08-07T15:04:29Z</time>
      </trkpt>
      <trkpt lat="48.7728550" lon="14.3217730">
        <ele>666.2</ele>
        <time>2019-08-07T15:04:30Z</time>
      </trkpt>
      <trkpt lat="48.7728720" lon="14.3217550">
        <ele>666.4</ele>
        <time>2019-08-07T15:04:31Z</time>
      </trkpt>
      <trkpt lat="48.7728870" lon="14.3217380">
        <ele>666.6</ele>
        <time>2019-08-07T15:04:32Z</time>
      </trkpt>
      <trkpt lat="48.7729040" lon="14.3217230">
        <ele>666.6</ele>
        <time>2019-08-07T15:04:33Z</time>
      </trkpt>
      <trkpt lat="48.7729200" lon="14.3217050">
        <ele>666.8</ele>
        <time>2019-08-07T15:04:34Z</time>
      </trkpt>
      <trkpt lat="48.7729350" lon="14.3216880">
        <ele>667.0</ele>
        <time>2019-08-07T15:04:35Z</time>
      </trkpt>
      <trkpt lat="48.7729520" lon="14.3216700">
        <ele>667.2</ele>
        <time>2019-08-07T15:04:36Z</time>
      </trkpt>
      <trkpt lat="48.7729690" lon="14.3216570">
        <ele>667.2</ele>
        <time>2019-08-07T15:04:37Z</time>
      </trkpt>
      <trkpt lat="48.7729850" lon="14.3216420">
        <ele>667.4</ele>
        <time>2019-08-07T15:04:38Z</time>
      </trkpt>
      <trkpt lat="48.7730020" lon="14.3216270">
        <ele>667.6</ele>
        <time>2019-08-07T15:04:39Z</time>
      </trkpt>
      <trkpt lat="48.7730180" lon="14.3216140">
        <ele>667.8</ele>
        <time>2019-08-07T15:04:40Z</time>
      </trkpt>
      <trkpt lat="48.7730340" lon="14.3216020">
        <ele>668.0</ele>
        <time>2019-08-07T15:04:41Z</time>
      </trkpt>
      <trkpt lat="48.7730500" lon="14.3215880">
        <ele>668.0</ele>
        <time>2019-08-07T15:04:42Z</time>
      </trkpt>
      <trkpt lat="48.7730670" lon="14.3215740">
        <ele>668.2</ele>
        <time>2019-08-07T15:04:43Z</time>
      </trkpt>
      <trkpt lat="48.7730820" lon="14.3215620">
        <ele>668.4</ele>
        <time>2019-08-07T15:04:44Z</time>
      </trkpt>
      <trkpt lat="48.7730980" lon="14.3215480">
        <ele>668.6</ele>
        <time>2019-08-07T15:04:45Z</time>
      </trkpt>
      <trkpt lat="48.7731150" lon="14.3215350">
        <ele>668.8</ele>
        <time>2019-08-07T15:04:46Z</time>
      </trkpt>
      <trkpt lat="48.7731290" lon="14.3215220">
        <ele>668.8</ele>
        <time>2019-08-07T15:04:47Z</time>
      </trkpt>
      <trkpt lat="48.7731430" lon="14.3215080">
        <ele>669.0</ele>
        <time>2019-08-07T15:04:48Z</time>
      </trkpt>
      <trkpt lat="48.7731590" lon="14.3214930">
        <ele>669.2</ele>
        <time>2019-08-07T15:04:49Z</time>
      </trkpt>
      <trkpt lat="48.7731750" lon="14.3214790">
        <ele>669.4</ele>
        <time>2019-08-07T15:04:50Z</time>
      </trkpt>
      <trkpt lat="48.7731900" lon="14.3214660">
        <ele>669.6</ele>
        <time>2019-08-07T15:04:51Z</time>
      </trkpt>
      <trkpt lat="48.7732050" lon="14.3214580">
        <ele>669.8</ele>
        <time>2019-08-07T15:04:52Z</time>
      </trkpt>
      <trkpt lat="48.7732180" lon="14.3214480">
        <ele>670.0</ele>
        <time>2019-08-07T15:04:53Z</time>
      </trkpt>
      <trkpt lat="48.7732330" lon="14.3214380">
        <ele>670.0</ele>
        <time>2019-08-07T15:04:54Z</time>
      </trkpt>
      <trkpt lat="48.7732500" lon="14.3214280">
        <ele>670.2</ele>
        <time>2019-08-07T15:04:55Z</time>
      </trkpt>
      <trkpt lat="48.7732630" lon="14.3214170">
        <ele>670.4</ele>
        <time>2019-08-07T15:04:56Z</time>
      </trkpt>
      <trkpt lat="48.7732780" lon="14.3214030">
        <ele>670.4</ele>
        <time>2019-08-07T15:04:57Z</time>
      </trkpt>
      <trkpt lat="48.7732930" lon="14.3213860">
        <ele>670.6</ele>
        <time>2019-08-07T15:04:58Z</time>
      </trkpt>
      <trkpt lat="48.7733060" lon="14.3213670">
        <ele>670.8</ele>
        <time>2019-08-07T15:04:59Z</time>
      </trkpt>
      <trkpt lat="48.7733190" lon="14.3213530">
        <ele>670.8</ele>
        <time>2019-08-07T15:05:00Z</time>
      </trkpt>
      <trkpt lat="48.7733330" lon="14.3213420">
        <ele>671.0</ele>
        <time>2019-08-07T15:05:01Z</time>
      </trkpt>
      <trkpt lat="48.7733470" lon="14.3213290">
        <ele>671.2</ele>
        <time>2019-08-07T15:05:02Z</time>
      </trkpt>
      <trkpt lat="48.7733630" lon="14.3213150">
        <ele>671.4</ele>
        <time>2019-08-07T15:05:03Z</time>
      </trkpt>
      <trkpt lat="48.7733790" lon="14.3213000">
        <ele>671.4</ele>
        <time>2019-08-07T15:05:04Z</time>
      </trkpt>
      <trkpt lat="48.7733960" lon="14.3212870">
        <ele>671.6</ele>
        <time>2019-08-07T15:05:05Z</time>
      </trkpt>
      <trkpt lat="48.7734140" lon="14.3212750">
        <ele>671.6</ele>
        <time>2019-08-07T15:05:06Z</time>
      </trkpt>
      <trkpt lat="48.7734300" lon="14.3212610">
        <ele>671.8</ele>
        <time>2019-08-07T15:05:07Z</time>
      </trkpt>
      <trkpt lat="48.7734450" lon="14.3212480">
        <ele>671.8</ele>
        <time>2019-08-07T15:05:08Z</time>
      </trkpt>
      <trkpt lat="48.7734610" lon="14.3212330">
        <ele>672.0</ele>
        <time>2019-08-07T15:05:09Z</time>
      </trkpt>
      <trkpt lat="48.7734810" lon="14.3212180">
        <ele>672.0</ele>
        <time>2019-08-07T15:05:10Z</time>
      </trkpt>
      <trkpt lat="48.7735030" lon="14.3212020">
        <ele>672.2</ele>
        <time>2019-08-07T15:05:11Z</time>
      </trkpt>
      <trkpt lat="48.7735250" lon="14.3211820">
        <ele>672.2</ele>
        <time>2019-08-07T15:05:12Z</time>
      </trkpt>
      <trkpt lat="48.7735490" lon="14.3211620">
        <ele>672.4</ele>
        <time>2019-08-07T15:05:13Z</time>
      </trkpt>
      <trkpt lat="48.7735720" lon="14.3211430">
        <ele>672.6</ele>
        <time>2019-08-07T15:05:14Z</time>
      </trkpt>
      <trkpt lat="48.7735960" lon="14.3211280">
        <ele>672.6</ele>
        <time>2019-08-07T15:05:15Z</time>
      </trkpt>
      <trkpt lat="48.7736200" lon="14.3211090">
        <ele>672.8</ele>
        <time>2019-08-07T15:05:16Z</time>
      </trkpt>
      <trkpt lat="48.7736450" lon="14.3210910">
        <ele>673.0</ele>
        <time>2019-08-07T15:05:17Z</time>
      </trkpt>
      <trkpt lat="48.7736710" lon="14.3210740">
        <ele>673.2</ele>
        <time>2019-08-07T15:05:18Z</time>
      </trkpt>
      <trkpt lat="48.7736970" lon="14.3210540">
        <ele>673.4</ele>
        <time>2019-08-07T15:05:19Z</time>
      </trkpt>
      <trkpt lat="48.7737220" lon="14.3210350">
        <ele>673.6</ele>
        <time>2019-08-07T15:05:20Z</time>
      </trkpt>
      <trkpt lat="48.7737470" lon="14.3210160">
        <ele>673.6</ele>
        <time>2019-08-07T15:05:21Z</time>
      </trkpt>
      <trkpt lat="48.7737700" lon="14.3209970">
        <ele>673.8</ele>
        <time>2019-08-07T15:05:22Z</time>
      </trkpt>
      <trkpt lat="48.7737960" lon="14.3209780">
        <ele>674.0</ele>
        <time>2019-08-07T15:05:23Z</time>
      </trkpt>
      <trkpt lat="48.7738200" lon="14.3209610">
        <ele>674.2</ele>
        <time>2019-08-07T15:05:24Z</time>
      </trkpt>
      <trkpt lat="48.7738450" lon="14.3209430">
        <ele>674.2</ele>
        <time>2019-08-07T15:05:25Z</time>
      </trkpt>
      <trkpt lat="48.7738680" lon="14.3209270">
        <ele>674.4</ele>
        <time>2019-08-07T15:05:26Z</time>
      </trkpt>
      <trkpt lat="48.7738870" lon="14.3209120">
        <ele>674.6</ele>
        <time>2019-08-07T15:05:27Z</time>
      </trkpt>
      <trkpt lat="48.7739060" lon="14.3208930">
        <ele>674.8</ele>
        <time>2019-08-07T15:05:28Z</time>
      </trkpt>
      <trkpt lat="48.7739260" lon="14.3208750">
        <ele>674.8</ele>
        <time>2019-08-07T15:05:29Z</time>
      </trkpt>
      <trkpt lat="48.7739440" lon="14.3208580">
        <ele>675.0</ele>
        <time>2019-08-07T15:05:30Z</time>
      </trkpt>
      <trkpt lat="48.7739660" lon="14.3208390">
        <ele>675.2</ele>
        <time>2019-08-07T15:05:31Z</time>
      </trkpt>
      <trkpt lat="48.7739850" lon="14.3208190">
        <ele>675.2</ele>
        <time>2019-08-07T15:05:32Z</time>
      </trkpt>
      <trkpt lat="48.7740020" lon="14.3208010">
        <ele>675.4</ele>
        <time>2019-08-07T15:05:33Z</time>
      </trkpt>
      <trkpt lat="48.7740210" lon="14.3207820">
        <ele>675.4</ele>
        <time>2019-08-07T15:05:34Z</time>
      </trkpt>
      <trkpt lat="48.7740430" lon="14.3207610">
        <ele>675.6</ele>
        <time>2019-08-07T15:05:35Z</time>
      </trkpt>
      <trkpt lat="48.7740650" lon="14.3207340">
        <ele>675.6</ele>
        <time>2019-08-07T15:05:36Z</time>
      </trkpt>
      <trkpt lat="48.7740870" lon="14.3207100">
        <ele>675.8</ele>
        <time>2019-08-07T15:05:37Z</time>
      </trkpt>
      <trkpt lat="48.7741120" lon="14.3206870">
        <ele>675.8</ele>
        <time>2019-08-07T15:05:38Z</time>
      </trkpt>
      <trkpt lat="48.7741370" lon="14.3206670">
        <ele>675.8</ele>
        <time>2019-08-07T15:05:39Z</time>
      </trkpt>
      <trkpt lat="48.7741620" lon="14.3206440">
        <ele>676.0</ele>
        <time>2019-08-07T15:05:40Z</time>
      </trkpt>
      <trkpt lat="48.7741850" lon="14.3206190">
        <ele>676.0</ele>
        <time>2019-08-07T15:05:41Z</time>
      </trkpt>
      <trkpt lat="48.7742090" lon="14.3205920">
        <ele>676.2</ele>
        <time>2019-08-07T15:05:42Z</time>
      </trkpt>
      <trkpt lat="48.7742350" lon="14.3205650">
        <ele>676.2</ele>
        <time>2019-08-07T15:05:43Z</time>
      </trkpt>
      <trkpt lat="48.7742600" lon="14.3205350">
        <ele>676.2</ele>
        <time>2019-08-07T15:05:44Z</time>
      </trkpt>
      <trkpt lat="48.7742820" lon="14.3205040">
        <ele>676.4</ele>
        <time>2019-08-07T15:05:45Z</time>
      </trkpt>
      <trkpt lat="48.7743080" lon="14.3204690">
        <ele>676.4</ele>
        <time>2019-08-07T15:05:46Z</time>
      </trkpt>
      <trkpt lat="48.7743360" lon="14.3204380">
        <ele>676.4</ele>
        <time>2019-08-07T15:05:47Z</time>
      </trkpt>
      <trkpt lat="48.7743630" lon="14.3204080">
        <ele>676.4</ele>
        <time>2019-08-07T15:05:48Z</time>
      </trkpt>
      <trkpt lat="48.7743920" lon="14.3203760">
        <ele>676.6</ele>
        <time>2019-08-07T15:05:49Z</time>
      </trkpt>
      <trkpt lat="48.7744200" lon="14.3203430">
        <ele>676.6</ele>
        <time>2019-08-07T15:05:50Z</time>
      </trkpt>
      <trkpt lat="48.7744480" lon="14.3203130">
        <ele>676.6</ele>
        <time>2019-08-07T15:05:51Z</time>
      </trkpt>
      <trkpt lat="48.7744760" lon="14.3202810">
        <ele>676.8</ele>
        <time>2019-08-07T15:05:52Z</time>
      </trkpt>
      <trkpt lat="48.7745010" lon="14.3202500">
        <ele>676.8</ele>
        <time>2019-08-07T15:05:53Z</time>
      </trkpt>
      <trkpt lat="48.7745290" lon="14.3202200">
        <ele>677.0</ele>
        <time>2019-08-07T15:05:54Z</time>
      </trkpt>
      <trkpt lat="48.7745540" lon="14.3201900">
        <ele>677.0</ele>
        <time>2019-08-07T15:05:55Z</time>
      </trkpt>
      <trkpt lat="48.7745800" lon="14.3201610">
        <ele>677.0</ele>
        <time>2019-08-07T15:05:56Z</time>
      </trkpt>
      <trkpt lat="48.7746040" lon="14.3201280">
        <ele>677.0</ele>
        <time>2019-08-07T15:05:57Z</time>
      </trkpt>
      <trkpt lat="48.7746270" lon="14.3200990">
        <ele>677.2</ele>
        <time>2019-08-07T15:05:58Z</time>
      </trkpt>
      <trkpt lat="48.7746480" lon="14.3200720">
        <ele>677.2</ele>
        <time>2019-08-07T15:05:59Z</time>
      </trkpt>
      <trkpt lat="48.7746690" lon="14.3200460">
        <ele>677.2</ele>
        <time>2019-08-07T15:06:00Z</time>
      </trkpt>
      <trkpt lat="48.7746890" lon="14.3200220">
        <ele>677.2</ele>
        <time>2019-08-07T15:06:01Z</time>
      </trkpt>
      <trkpt lat="48.7747070" lon="14.3199990">
        <ele>677.2</ele>
        <time>2019-08-07T15:06:02Z</time>
      </trkpt>
      <trkpt lat="48.7747270" lon="14.3199780">
        <ele>677.4</ele>
        <time>2019-08-07T15:06:03Z</time>
      </trkpt>
      <trkpt lat="48.7747430" lon="14.3199580">
        <ele>677.4</ele>
        <time>2019-08-07T15:06:04Z</time>
      </trkpt>
      <trkpt lat="48.7747580" lon="14.3199380">
        <ele>677.4</ele>
        <time>2019-08-07T15:06:05Z</time>
      </trkpt>
      <trkpt lat="48.7747700" lon="14.3199160">
        <ele>677.4</ele>
        <time>2019-08-07T15:06:06Z</time>
      </trkpt>
      <trkpt lat="48.7747850" lon="14.3198900">
        <ele>677.6</ele>
        <time>2019-08-07T15:06:07Z</time>
      </trkpt>
      <trkpt lat="48.7748000" lon="14.3198660">
        <ele>677.6</ele>
        <time>2019-08-07T15:06:08Z</time>
      </trkpt>
      <trkpt lat="48.7748180" lon="14.3198430">
        <ele>677.6</ele>
        <time>2019-08-07T15:06:09Z</time>
      </trkpt>
      <trkpt lat="48.7748370" lon="14.3198200">
        <ele>677.4</ele>
        <time>2019-08-07T15:06:10Z</time>
      </trkpt>
      <trkpt lat="48.7748600" lon="14.3197900">
        <ele>677.2</ele>
        <time>2019-08-07T15:06:11Z</time>
      </trkpt>
      <trkpt lat="48.7748820" lon="14.3197570">
        <ele>677.0</ele>
        <time>2019-08-07T15:06:12Z</time>
      </trkpt>
      <trkpt lat="48.7749080" lon="14.3197130">
        <ele>676.8</ele>
        <time>2019-08-07T15:06:13Z</time>
      </trkpt>
      <trkpt lat="48.7749390" lon="14.3196640">
        <ele>676.6</ele>
        <time>2019-08-07T15:06:14Z</time>
      </trkpt>
      <trkpt lat="48.7749730" lon="14.3196140">
        <ele>676.2</ele>
        <time>2019-08-07T15:06:15Z</time>
      </trkpt>
      <trkpt lat="48.7750100" lon="14.3195640">
        <ele>675.6</ele>
        <time>2019-08-07T15:06:16Z</time>
      </trkpt>
      <trkpt lat="48.7750480" lon="14.3195130">
        <ele>675.2</ele>
        <time>2019-08-07T15:06:17Z</time>
      </trkpt>
      <trkpt lat="48.7750910" lon="14.3194570">
        <ele>674.6</ele>
        <time>2019-08-07T15:06:18Z</time>
      </trkpt>
      <trkpt lat="48.7751380" lon="14.3194020">
        <ele>674.0</ele>
        <time>2019-08-07T15:06:19Z</time>
      </trkpt>
      <trkpt lat="48.7751910" lon="14.3193430">
        <ele>673.4</ele>
        <time>2019-08-07T15:06:20Z</time>
      </trkpt>
      <trkpt lat="48.7752480" lon="14.3192790">
        <ele>672.6</ele>
        <time>2019-08-07T15:06:21Z</time>
      </trkpt>
      <trkpt lat="48.7753040" lon="14.3192140">
        <ele>671.8</ele>
        <time>2019-08-07T15:06:22Z</time>
      </trkpt>
      <trkpt lat="48.7753610" lon="14.3191510">
        <ele>671.0</ele>
        <time>2019-08-07T15:06:23Z</time>
      </trkpt>
      <trkpt lat="48.7754200" lon="14.3190880">
        <ele>670.2</ele>
        <time>2019-08-07T15:06:24Z</time>
      </trkpt>
      <trkpt lat="48.7754850" lon="14.3190210">
        <ele>669.4</ele>
        <time>2019-08-07T15:06:25Z</time>
      </trkpt>
      <trkpt lat="48.7755550" lon="14.3189530">
        <ele>668.8</ele>
        <time>2019-08-07T15:06:26Z</time>
      </trkpt>
      <trkpt lat="48.7756310" lon="14.3188800">
        <ele>668.0</ele>
        <time>2019-08-07T15:06:27Z</time>
      </trkpt>
      <trkpt lat="48.7757180" lon="14.3188010">
        <ele>667.2</ele>
        <time>2019-08-07T15:06:28Z</time>
      </trkpt>
      <trkpt lat="48.7758120" lon="14.3187270">
        <ele>666.6</ele>
        <time>2019-08-07T15:06:29Z</time>
      </trkpt>
      <trkpt lat="48.7758950" lon="14.3186540">
        <ele>666.0</ele>
        <time>2019-08-07T15:06:30Z</time>
      </trkpt>
      <trkpt lat="48.7759860" lon="14.3185730">
        <ele>665.6</ele>
        <time>2019-08-07T15:06:31Z</time>
      </trkpt>
      <trkpt lat="48.7760720" lon="14.3184990">
        <ele>664.8</ele>
        <time>2019-08-07T15:06:32Z</time>
      </trkpt>
      <trkpt lat="48.7761670" lon="14.3184140">
        <ele>664.2</ele>
        <time>2019-08-07T15:06:33Z</time>
      </trkpt>
      <trkpt lat="48.7762570" lon="14.3183250">
        <ele>663.6</ele>
        <time>2019-08-07T15:06:34Z</time>
      </trkpt>
      <trkpt lat="48.7763430" lon="14.3182410">
        <ele>663.2</ele>
        <time>2019-08-07T15:06:35Z</time>
      </trkpt>
      <trkpt lat="48.7764210" lon="14.3181610">
        <ele>662.8</ele>
        <time>2019-08-07T15:06:36Z</time>
      </trkpt>
      <trkpt lat="48.7765070" lon="14.3180960">
        <ele>662.4</ele>
        <time>2019-08-07T15:06:37Z</time>
      </trkpt>
      <trkpt lat="48.7765890" lon="14.3180310">
        <ele>661.8</ele>
        <time>2019-08-07T15:06:38Z</time>
      </trkpt>
      <trkpt lat="48.7766680" lon="14.3179700">
        <ele>661.4</ele>
        <time>2019-08-07T15:06:39Z</time>
      </trkpt>
      <trkpt lat="48.7767470" lon="14.3179150">
        <ele>660.8</ele>
        <time>2019-08-07T15:06:40Z</time>
      </trkpt>
      <trkpt lat="48.7768210" lon="14.3178750">
        <ele>660.4</ele>
        <time>2019-08-07T15:06:41Z</time>
      </trkpt>
      <trkpt lat="48.7768930" lon="14.3178530">
        <ele>660.0</ele>
        <time>2019-08-07T15:06:42Z</time>
      </trkpt>
      <trkpt lat="48.7769740" lon="14.3178300">
        <ele>659.6</ele>
        <time>2019-08-07T15:06:43Z</time>
      </trkpt>
      <trkpt lat="48.7770690" lon="14.3177990">
        <ele>659.0</ele>
        <time>2019-08-07T15:06:44Z</time>
      </trkpt>
      <trkpt lat="48.7771710" lon="14.3177710">
        <ele>658.0</ele>
        <time>2019-08-07T15:06:45Z</time>
      </trkpt>
      <trkpt lat="48.7772830" lon="14.3177340">
        <ele>657.2</ele>
        <time>2019-08-07T15:06:46Z</time>
      </trkpt>
      <trkpt lat="48.7774010" lon="14.3176940">
        <ele>656.6</ele>
        <time>2019-08-07T15:06:47Z</time>
      </trkpt>
      <trkpt lat="48.7775180" lon="14.3176590">
        <ele>655.6</ele>
        <time>2019-08-07T15:06:48Z</time>
      </trkpt>
      <trkpt lat="48.7776440" lon="14.3176270">
        <ele>654.8</ele>
        <time>2019-08-07T15:06:49Z</time>
      </trkpt>
      <trkpt lat="48.7777670" lon="14.3175970">
        <ele>654.0</ele>
        <time>2019-08-07T15:06:50Z</time>
      </trkpt>
      <trkpt lat="48.7779030" lon="14.3175750">
        <ele>653.2</ele>
        <time>2019-08-07T15:06:51Z</time>
      </trkpt>
      <trkpt lat="48.7780330" lon="14.3175580">
        <ele>652.2</ele>
        <time>2019-08-07T15:06:52Z</time>
      </trkpt>
      <trkpt lat="48.7781560" lon="14.3175450">
        <ele>651.6</ele>
        <time>2019-08-07T15:06:53Z</time>
      </trkpt>
      <trkpt lat="48.7782800" lon="14.3175480">
        <ele>650.8</ele>
        <time>2019-08-07T15:06:54Z</time>
      </trkpt>
      <trkpt lat="48.7783990" lon="14.3175540">
        <ele>649.8</ele>
        <time>2019-08-07T15:06:55Z</time>
      </trkpt>
      <trkpt lat="48.7785160" lon="14.3175640">
        <ele>649.0</ele>
        <time>2019-08-07T15:06:56Z</time>
      </trkpt>
      <trkpt lat="48.7786320" lon="14.3175760">
        <ele>647.8</ele>
        <time>2019-08-07T15:06:57Z</time>
      </trkpt>
      <trkpt lat="48.7787510" lon="14.3175990">
        <ele>647.2</ele>
        <time>2019-08-07T15:06:58Z</time>
      </trkpt>
      <trkpt lat="48.7788750" lon="14.3176340">
        <ele>646.6</ele>
        <time>2019-08-07T15:06:59Z</time>
      </trkpt>
      <trkpt lat="48.7790020" lon="14.3176590">
        <ele>645.6</ele>
        <time>2019-08-07T15:07:00Z</time>
      </trkpt>
      <trkpt lat="48.7791320" lon="14.3176860">
        <ele>644.6</ele>
        <time>2019-08-07T15:07:01Z</time>
      </trkpt>
      <trkpt lat="48.7792640" lon="14.3177110">
        <ele>643.4</ele>
        <time>2019-08-07T15:07:02Z</time>
      </trkpt>
      <trkpt lat="48.7793960" lon="14.3177360">
        <ele>642.2</ele>
        <time>2019-08-07T15:07:03Z</time>
      </trkpt>
      <trkpt lat="48.7795260" lon="14.3177570">
        <ele>641.0</ele>
        <time>2019-08-07T15:07:04Z</time>
      </trkpt>
      <trkpt lat="48.7796570" lon="14.3177930">
        <ele>639.8</ele>
        <time>2019-08-07T15:07:05Z</time>
      </trkpt>
      <trkpt lat="48.7797880" lon="14.3178400">
        <ele>638.4</ele>
        <time>2019-08-07T15:07:06Z</time>
      </trkpt>
      <trkpt lat="48.7799200" lon="14.3179050">
        <ele>637.2</ele>
        <time>2019-08-07T15:07:07Z</time>
      </trkpt>
      <trkpt lat="48.7800490" lon="14.3179820">
        <ele>636.0</ele>
        <time>2019-08-07T15:07:08Z</time>
      </trkpt>
      <trkpt lat="48.7801700" lon="14.3180660">
        <ele>635.0</ele>
        <time>2019-08-07T15:07:09Z</time>
      </trkpt>
      <trkpt lat="48.7802820" lon="14.3181560">
        <ele>634.0</ele>
        <time>2019-08-07T15:07:10Z</time>
      </trkpt>
      <trkpt lat="48.7803900" lon="14.3182540">
        <ele>633.0</ele>
        <time>2019-08-07T15:07:11Z</time>
      </trkpt>
      <trkpt lat="48.7804990" lon="14.3183520">
        <ele>632.2</ele>
        <time>2019-08-07T15:07:12Z</time>
      </trkpt>
      <trkpt lat="48.7806070" lon="14.3184520">
        <ele>631.4</ele>
        <time>2019-08-07T15:07:13Z</time>
      </trkpt>
      <trkpt lat="48.7807150" lon="14.3185570">
        <ele>630.8</ele>
        <time>2019-08-07T15:07:14Z</time>
      </trkpt>
      <trkpt lat="48.7808220" lon="14.3186610">
        <ele>630.2</ele>
        <time>2019-08-07T15:07:15Z</time>
      </trkpt>
      <trkpt lat="48.7809300" lon="14.3187570">
        <ele>629.8</ele>
        <time>2019-08-07T15:07:16Z</time>
      </trkpt>
      <trkpt lat="48.7810320" lon="14.3188420">
        <ele>629.4</ele>
        <time>2019-08-07T15:07:17Z</time>
      </trkpt>
      <trkpt lat="48.7811290" lon="14.3189310">
        <ele>629.0</ele>
        <time>2019-08-07T15:07:18Z</time>
      </trkpt>
      <trkpt lat="48.7812290" lon="14.3190250">
        <ele>628.6</ele>
        <time>2019-08-07T15:07:19Z</time>
      </trkpt>
      <trkpt lat="48.7813290" lon="14.3191190">
        <ele>628.2</ele>
        <time>2019-08-07T15:07:20Z</time>
      </trkpt>
      <trkpt lat="48.7814260" lon="14.3192100">
        <ele>627.8</ele>
        <time>2019-08-07T15:07:21Z</time>
      </trkpt>
      <trkpt lat="48.7815180" lon="14.3193070">
        <ele>627.4</ele>
        <time>2019-08-07T15:07:22Z</time>
      </trkpt>
      <trkpt lat="48.7816030" lon="14.3194090">
        <ele>627.2</ele>
        <time>2019-08-07T15:07:23Z</time>
      </trkpt>
      <trkpt lat="48.7816860" lon="14.3195100">
        <ele>627.0</ele>
        <time>2019-08-07T15:07:24Z</time>
      </trkpt>
      <trkpt lat="48.7817690" lon="14.3196000">
        <ele>626.8</ele>
        <time>2019-08-07T15:07:25Z</time>
      </trkpt>
      <trkpt lat="48.7818560" lon="14.3196820">
        <ele>626.4</ele>
        <time>2019-08-07T15:07:26Z</time>
      </trkpt>
      <trkpt lat="48.7819460" lon="14.3197520">
        <ele>626.2</ele>
        <time>2019-08-07T15:07:27Z</time>
      </trkpt>
      <trkpt lat="48.7820370" lon="14.3198150">
        <ele>625.8</ele>
        <time>2019-08-07T15:07:28Z</time>
      </trkpt>
      <trkpt lat="48.7821330" lon="14.3198600">
        <ele>625.4</ele>
        <time>2019-08-07T15:07:29Z</time>
      </trkpt>
      <trkpt lat="48.7822220" lon="14.3198820">
        <ele>625.2</ele>
        <time>2019-08-07T15:07:30Z</time>
      </trkpt>
      <trkpt lat="48.7823070" lon="14.3198810">
        <ele>625.0</ele>
        <time>2019-08-07T15:07:31Z</time>
      </trkpt>
      <trkpt lat="48.7823970" lon="14.3198630">
        <ele>624.6</ele>
        <time>2019-08-07T15:07:32Z</time>
      </trkpt>
      <trkpt lat="48.7824990" lon="14.3198380">
        <ele>624.0</ele>
        <time>2019-08-07T15:07:33Z</time>
      </trkpt>
      <trkpt lat="48.7825990" lon="14.3198070">
        <ele>623.4</ele>
        <time>2019-08-07T15:07:34Z</time>
      </trkpt>
      <trkpt lat="48.7827020" lon="14.3197700">
        <ele>623.0</ele>
        <time>2019-08-07T15:07:35Z</time>
      </trkpt>
      <trkpt lat="48.7828060" lon="14.3197380">
        <ele>622.4</ele>
        <time>2019-08-07T15:07:36Z</time>
      </trkpt>
      <trkpt lat="48.7829120" lon="14.3197130">
        <ele>621.8</ele>
        <time>2019-08-07T15:07:37Z</time>
      </trkpt>
      <trkpt lat="48.7830170" lon="14.3196910">
        <ele>621.0</ele>
        <time>2019-08-07T15:07:38Z</time>
      </trkpt>
      <trkpt lat="48.7831210" lon="14.3196780">
        <ele>620.0</ele>
        <time>2019-08-07T15:07:39Z</time>
      </trkpt>
      <trkpt lat="48.7832250" lon="14.3196830">
        <ele>619.0</ele>
        <time>2019-08-07T15:07:40Z</time>
      </trkpt>
      <trkpt lat="48.7833240" lon="14.3197090">
        <ele>618.2</ele>
        <time>2019-08-07T15:07:41Z</time>
      </trkpt>
      <trkpt lat="48.7834180" lon="14.3197560">
        <ele>617.6</ele>
        <time>2019-08-07T15:07:42Z</time>
      </trkpt>
      <trkpt lat="48.7835100" lon="14.3198230">
        <ele>616.8</ele>
        <time>2019-08-07T15:07:43Z</time>
      </trkpt>
      <trkpt lat="48.7835870" lon="14.3199090">
        <ele>616.2</ele>
        <time>2019-08-07T15:07:44Z</time>
      </trkpt>
      <trkpt lat="48.7836570" lon="14.3199910">
        <ele>615.6</ele>
        <time>2019-08-07T15:07:45Z</time>
      </trkpt>
      <trkpt lat="48.7837380" lon="14.3200590">
        <ele>615.0</ele>
        <time>2019-08-07T15:07:46Z</time>
      </trkpt>
      <trkpt lat="48.7838260" lon="14.3200760">
        <ele>614.6</ele>
        <time>2019-08-07T15:07:47Z</time>
      </trkpt>
      <trkpt lat="48.7839010" lon="14.3200670">
        <ele>614.2</ele>
        <time>2019-08-07T15:07:48Z</time>
      </trkpt>
      <trkpt lat="48.7839840" lon="14.3200590">
        <ele>614.0</ele>
        <time>2019-08-07T15:07:49Z</time>
      </trkpt>
      <trkpt lat="48.7840680" lon="14.3200520">
        <ele>613.8</ele>
        <time>2019-08-07T15:07:50Z</time>
      </trkpt>
      <trkpt lat="48.7841550" lon="14.3200490">
        <ele>613.6</ele>
        <time>2019-08-07T15:07:51Z</time>
      </trkpt>
      <trkpt lat="48.7842360" lon="14.3200560">
        <ele>613.6</ele>
        <time>2019-08-07T15:07:52Z</time>
      </trkpt>
      <trkpt lat="48.7843160" lon="14.3200700">
        <ele>613.6</ele>
        <time>2019-08-07T15:07:53Z</time>
      </trkpt>
      <trkpt lat="48.7843930" lon="14.3200940">
        <ele>613.2</ele>
        <time>2019-08-07T15:07:54Z</time>
      </trkpt>
      <trkpt lat="48.7844690" lon="14.3201210">
        <ele>613.0</ele>
        <time>2019-08-07T15:07:55Z</time>
      </trkpt>
      <trkpt lat="48.7845460" lon="14.3201500">
        <ele>613.0</ele>
        <time>2019-08-07T15:07:56Z</time>
      </trkpt>
      <trkpt lat="48.7846210" lon="14.3201870">
        <ele>612.8</ele>
        <time>2019-08-07T15:07:57Z</time>
      </trkpt>
      <trkpt lat="48.7846940" lon="14.3202210">
        <ele>612.8</ele>
        <time>2019-08-07T15:07:58Z</time>
      </trkpt>
      <trkpt lat="48.7847600" lon="14.3202440">
        <ele>612.8</ele>
        <time>2019-08-07T15:07:59Z</time>
      </trkpt>
      <trkpt lat="48.7848190" lon="14.3202620">
        <ele>612.8</ele>
        <time>2019-08-07T15:08:00Z</time>
      </trkpt>
      <trkpt lat="48.7848730" lon="14.3202860">
        <ele>613.0</ele>
        <time>2019-08-07T15:08:01Z</time>
      </trkpt>
      <trkpt lat="48.7849250" lon="14.3203040">
        <ele>613.0</ele>
        <time>2019-08-07T15:08:02Z</time>
      </trkpt>
      <trkpt lat="48.7849790" lon="14.3203190">
        <ele>613.0</ele>
        <time>2019-08-07T15:08:03Z</time>
      </trkpt>
      <trkpt lat="48.7850390" lon="14.3203320">
        <ele>613.0</ele>
        <time>2019-08-07T15:08:04Z</time>
      </trkpt>
      <trkpt lat="48.7851010" lon="14.3203470">
        <ele>612.8</ele>
        <time>2019-08-07T15:08:05Z</time>
      </trkpt>
      <trkpt lat="48.7851630" lon="14.3203640">
        <ele>612.6</ele>
        <time>2019-08-07T15:08:06Z</time>
      </trkpt>
      <trkpt lat="48.7852280" lon="14.3203840">
        <ele>612.4</ele>
        <time>2019-08-07T15:08:07Z</time>
      </trkpt>
      <trkpt lat="48.7852970" lon="14.3203980">
        <ele>612.2</ele>
        <time>2019-08-07T15:08:08Z</time>
      </trkpt>
      <trkpt lat="48.7853650" lon="14.3204160">
        <ele>612.0</ele>
        <time>2019-08-07T15:08:09Z</time>
      </trkpt>
      <trkpt lat="48.7854280" lon="14.3204270">
        <ele>611.8</ele>
        <time>2019-08-07T15:08:10Z</time>
      </trkpt>
      <trkpt lat="48.7854900" lon="14.3204360">
        <ele>611.8</ele>
        <time>2019-08-07T15:08:11Z</time>
      </trkpt>
      <trkpt lat="48.7855540" lon="14.3204460">
        <ele>611.6</ele>
        <time>2019-08-07T15:08:12Z</time>
      </trkpt>
      <trkpt lat="48.7856160" lon="14.3204560">
        <ele>611.4</ele>
        <time>2019-08-07T15:08:13Z</time>
      </trkpt>
      <trkpt lat="48.7856730" lon="14.3204650">
        <ele>611.4</ele>
        <time>2019-08-07T15:08:14Z</time>
      </trkpt>
      <trkpt lat="48.7857310" lon="14.3204730">
        <ele>611.2</ele>
        <time>2019-08-07T15:08:15Z</time>
      </trkpt>
      <trkpt lat="48.7857900" lon="14.3204800">
        <ele>611.2</ele>
        <time>2019-08-07T15:08:16Z</time>
      </trkpt>
      <trkpt lat="48.7858530" lon="14.3204860">
        <ele>611.0</ele>
        <time>2019-08-07T15:08:17Z</time>
      </trkpt>
      <trkpt lat="48.7859170" lon="14.3204880">
        <ele>610.8</ele>
        <time>2019-08-07T15:08:18Z</time>
      </trkpt>
      <trkpt lat="48.7859790" lon="14.3204860">
        <ele>610.6</ele>
        <time>2019-08-07T15:08:19Z</time>
      </trkpt>
      <trkpt lat="48.7860400" lon="14.3204920">
        <ele>610.6</ele>
        <time>2019-08-07T15:08:20Z</time>
      </trkpt>
      <trkpt lat="48.7860980" lon="14.3204990">
        <ele>610.4</ele>
        <time>2019-08-07T15:08:21Z</time>
      </trkpt>
      <trkpt lat="48.7861520" lon="14.3205010">
        <ele>610.0</ele>
        <time>2019-08-07T15:08:22Z</time>
      </trkpt>
      <trkpt lat="48.7861920" lon="14.3204960">
        <ele>609.8</ele>
        <time>2019-08-07T15:08:23Z</time>
      </trkpt>
      <trkpt lat="48.7862900" lon="14.3204840">
        <ele>609.4</ele>
        <time>2019-08-07T15:08:24Z</time>
      </trkpt>
      <trkpt lat="48.7863720" lon="14.3204710">
        <ele>609.0</ele>
        <time>2019-08-07T15:08:25Z</time>
      </trkpt>
      <trkpt lat="48.7864540" lon="14.3204560">
        <ele>608.6</ele>
        <time>2019-08-07T15:08:26Z</time>
      </trkpt>
      <trkpt lat="48.7865360" lon="14.3204460">
        <ele>608.2</ele>
        <time>2019-08-07T15:08:27Z</time>
      </trkpt>
      <trkpt lat="48.7866270" lon="14.3204360">
        <ele>607.6</ele>
        <time>2019-08-07T15:08:28Z</time>
      </trkpt>
      <trkpt lat="48.7867280" lon="14.3204280">
        <ele>607.0</ele>
        <time>2019-08-07T15:08:29Z</time>
      </trkpt>
      <trkpt lat="48.7868340" lon="14.3204200">
        <ele>606.4</ele>
        <time>2019-08-07T15:08:30Z</time>
      </trkpt>
      <trkpt lat="48.7869430" lon="14.3204190">
        <ele>605.6</ele>
        <time>2019-08-07T15:08:31Z</time>
      </trkpt>
      <trkpt lat="48.7870580" lon="14.3204200">
        <ele>605.0</ele>
        <time>2019-08-07T15:08:32Z</time>
      </trkpt>
      <trkpt lat="48.7871750" lon="14.3204230">
        <ele>604.4</ele>
        <time>2019-08-07T15:08:33Z</time>
      </trkpt>
      <trkpt lat="48.7872880" lon="14.3204270">
        <ele>603.8</ele>
        <time>2019-08-07T15:08:34Z</time>
      </trkpt>
      <trkpt lat="48.7873980" lon="14.3204280">
        <ele>603.2</ele>
        <time>2019-08-07T15:08:35Z</time>
      </trkpt>
      <trkpt lat="48.7875080" lon="14.3204250">
        <ele>602.8</ele>
        <time>2019-08-07T15:08:36Z</time>
      </trkpt>
      <trkpt lat="48.7876180" lon="14.3204190">
        <ele>602.4</ele>
        <time>2019-08-07T15:08:37Z</time>
      </trkpt>
      <trkpt lat="48.7877400" lon="14.3204120">
        <ele>602.0</ele>
        <time>2019-08-07T15:08:38Z</time>
      </trkpt>
      <trkpt lat="48.7878580" lon="14.3204000">
        <ele>601.8</ele>
        <time>2019-08-07T15:08:39Z</time>
      </trkpt>
      <trkpt lat="48.7879690" lon="14.3203850">
        <ele>601.6</ele>
        <time>2019-08-07T15:08:40Z</time>
      </trkpt>
      <trkpt lat="48.7880640" lon="14.3203720">
        <ele>601.4</ele>
        <time>2019-08-07T15:08:41Z</time>
      </trkpt>
      <trkpt lat="48.7881520" lon="14.3203630">
        <ele>601.4</ele>
        <time>2019-08-07T15:08:42Z</time>
      </trkpt>
      <trkpt lat="48.7882320" lon="14.3203480">
        <ele>601.4</ele>
        <time>2019-08-07T15:08:43Z</time>
      </trkpt>
      <trkpt lat="48.7883120" lon="14.3203400">
        <ele>601.4</ele>
        <time>2019-08-07T15:08:44Z</time>
      </trkpt>
      <trkpt lat="48.7883910" lon="14.3203310">
        <ele>601.4</ele>
        <time>2019-08-07T15:08:45Z</time>
      </trkpt>
      <trkpt lat="48.7884710" lon="14.3203220">
        <ele>601.4</ele>
        <time>2019-08-07T15:08:46Z</time>
      </trkpt>
      <trkpt lat="48.7885550" lon="14.3203150">
        <ele>601.2</ele>
        <time>2019-08-07T15:08:47Z</time>
      </trkpt>
      <trkpt lat="48.7886500" lon="14.3203090">
        <ele>601.0</ele>
        <time>2019-08-07T15:08:48Z</time>
      </trkpt>
      <trkpt lat="48.7887470" lon="14.3203060">
        <ele>600.4</ele>
        <time>2019-08-07T15:08:49Z</time>
      </trkpt>
      <trkpt lat="48.7888510" lon="14.3203130">
        <ele>599.8</ele>
        <time>2019-08-07T15:08:50Z</time>
      </trkpt>
      <trkpt lat="48.7889640" lon="14.3203250">
        <ele>599.0</ele>
        <time>2019-08-07T15:08:51Z</time>
      </trkpt>
      <trkpt lat="48.7890820" lon="14.3203310">
        <ele>598.6</ele>
        <time>2019-08-07T15:08:52Z</time>
      </trkpt>
      <trkpt lat="48.7892040" lon="14.3203390">
        <ele>598.0</ele>
        <time>2019-08-07T15:08:53Z</time>
      </trkpt>
      <trkpt lat="48.7893250" lon="14.3203480">
        <ele>597.4</ele>
        <time>2019-08-07T15:08:54Z</time>
      </trkpt>
      <trkpt lat="48.7894400" lon="14.3203640">
        <ele>597.2</ele>
        <time>2019-08-07T15:08:55Z</time>
      </trkpt>
      <trkpt lat="48.7895470" lon="14.3203800">
        <ele>596.8</ele>
        <time>2019-08-07T15:08:56Z</time>
      </trkpt>
      <trkpt lat="48.7896600" lon="14.3203910">
        <ele>596.4</ele>
        <time>2019-08-07T15:08:57Z</time>
      </trkpt>
      <trkpt lat="48.7897710" lon="14.3203950">
        <ele>596.0</ele>
        <time>2019-08-07T15:08:58Z</time>
      </trkpt>
      <trkpt lat="48.7898750" lon="14.3203940">
        <ele>595.4</ele>
        <time>2019-08-07T15:08:59Z</time>
      </trkpt>
      <trkpt lat="48.7899790" lon="14.3203900">
        <ele>595.2</ele>
        <time>2019-08-07T15:09:00Z</time>
      </trkpt>
      <trkpt lat="48.7900820" lon="14.3203880">
        <ele>594.8</ele>
        <time>2019-08-07T15:09:01Z</time>
      </trkpt>
      <trkpt lat="48.7901750" lon="14.3203860">
        <ele>594.6</ele>
        <time>2019-08-07T15:09:02Z</time>
      </trkpt>
      <trkpt lat="48.7902650" lon="14.3203830">
        <ele>594.4</ele>
        <time>2019-08-07T15:09:03Z</time>
      </trkpt>
      <trkpt lat="48.7903530" lon="14.3203840">
        <ele>594.0</ele>
        <time>2019-08-07T15:09:04Z</time>
      </trkpt>
      <trkpt lat="48.7904360" lon="14.3203850">
        <ele>593.8</ele>
        <time>2019-08-07T15:09:05Z</time>
      </trkpt>
      <trkpt lat="48.7905180" lon="14.3203840">
        <ele>593.6</ele>
        <time>2019-08-07T15:09:06Z</time>
      </trkpt>
      <trkpt lat="48.7905990" lon="14.3203790">
        <ele>593.4</ele>
        <time>2019-08-07T15:09:07Z</time>
      </trkpt>
      <trkpt lat="48.7906790" lon="14.3203740">
        <ele>593.4</ele>
        <time>2019-08-07T15:09:08Z</time>
      </trkpt>
      <trkpt lat="48.7907570" lon="14.3203680">
        <ele>593.2</ele>
        <time>2019-08-07T15:09:09Z</time>
      </trkpt>
      <trkpt lat="48.7908360" lon="14.3203610">
        <ele>593.0</ele>
        <time>2019-08-07T15:09:10Z</time>
      </trkpt>
      <trkpt lat="48.7909120" lon="14.3203500">
        <ele>593.0</ele>
        <time>2019-08-07T15:09:11Z</time>
      </trkpt>
      <trkpt lat="48.7909850" lon="14.3203340">
        <ele>592.8</ele>
        <time>2019-08-07T15:09:12Z</time>
      </trkpt>
      <trkpt lat="48.7910590" lon="14.3203130">
        <ele>592.8</ele>
        <time>2019-08-07T15:09:13Z</time>
      </trkpt>
      <trkpt lat="48.7911290" lon="14.3202870">
        <ele>592.6</ele>
        <time>2019-08-07T15:09:14Z</time>
      </trkpt>
      <trkpt lat="48.7912000" lon="14.3202580">
        <ele>592.6</ele>
        <time>2019-08-07T15:09:15Z</time>
      </trkpt>
      <trkpt lat="48.7912710" lon="14.3202280">
        <ele>592.4</ele>
        <time>2019-08-07T15:09:16Z</time>
      </trkpt>
      <trkpt lat="48.7913390" lon="14.3201980">
        <ele>592.4</ele>
        <time>2019-08-07T15:09:17Z</time>
      </trkpt>
      <trkpt lat="48.7914060" lon="14.3201650">
        <ele>592.2</ele>
        <time>2019-08-07T15:09:18Z</time>
      </trkpt>
      <trkpt lat="48.7914740" lon="14.3201310">
        <ele>592.0</ele>
        <time>2019-08-07T15:09:19Z</time>
      </trkpt>
      <trkpt lat="48.7915400" lon="14.3200970">
        <ele>592.0</ele>
        <time>2019-08-07T15:09:20Z</time>
      </trkpt>
      <trkpt lat="48.7916060" lon="14.3200620">
        <ele>592.0</ele>
        <time>2019-08-07T15:09:21Z</time>
      </trkpt>
      <trkpt lat="48.7916710" lon="14.3200290">
        <ele>592.0</ele>
        <time>2019-08-07T15:09:22Z</time>
      </trkpt>
      <trkpt lat="48.7917390" lon="14.3200000">
        <ele>592.0</ele>
        <time>2019-08-07T15:09:23Z</time>
      </trkpt>
      <trkpt lat="48.7918060" lon="14.3199750">
        <ele>591.8</ele>
        <time>2019-08-07T15:09:24Z</time>
      </trkpt>
      <trkpt lat="48.7918730" lon="14.3199500">
        <ele>591.8</ele>
        <time>2019-08-07T15:09:25Z</time>
      </trkpt>
      <trkpt lat="48.7919390" lon="14.3199250">
        <ele>591.6</ele>
        <time>2019-08-07T15:09:26Z</time>
      </trkpt>
      <trkpt lat="48.7920090" lon="14.3199000">
        <ele>591.6</ele>
        <time>2019-08-07T15:09:27Z</time>
      </trkpt>
      <trkpt lat="48.7920810" lon="14.3198770">
        <ele>591.4</ele>
        <time>2019-08-07T15:09:28Z</time>
      </trkpt>
      <trkpt lat="48.7921520" lon="14.3198610">
        <ele>591.2</ele>
        <time>2019-08-07T15:09:29Z</time>
      </trkpt>
      <trkpt lat="48.7922210" lon="14.3198510">
        <ele>591.2</ele>
        <time>2019-08-07T15:09:30Z</time>
      </trkpt>
      <trkpt lat="48.7922910" lon="14.3198490">
        <ele>591.0</ele>
        <time>2019-08-07T15:09:31Z</time>
      </trkpt>
      <trkpt lat="48.7923600" lon="14.3198550">
        <ele>591.0</ele>
        <time>2019-08-07T15:09:32Z</time>
      </trkpt>
      <trkpt lat="48.7924270" lon="14.3198630">
        <ele>591.0</ele>
        <time>2019-08-07T15:09:33Z</time>
      </trkpt>
      <trkpt lat="48.7924950" lon="14.3198750">
        <ele>590.8</ele>
        <time>2019-08-07T15:09:34Z</time>
      </trkpt>
      <trkpt lat="48.7925590" lon="14.3198900">
        <ele>590.8</ele>
        <time>2019-08-07T15:09:35Z</time>
      </trkpt>
      <trkpt lat="48.7926230" lon="14.3199060">
        <ele>590.8</ele>
        <time>2019-08-07T15:09:36Z</time>
      </trkpt>
      <trkpt lat="48.7926850" lon="14.3199290">
        <ele>590.8</ele>
        <time>2019-08-07T15:09:37Z</time>
      </trkpt>
      <trkpt lat="48.7927450" lon="14.3199510">
        <ele>590.8</ele>
        <time>2019-08-07T15:09:38Z</time>
      </trkpt>
      <trkpt lat="48.7928030" lon="14.3199730">
        <ele>590.8</ele>
        <time>2019-08-07T15:09:39Z</time>
      </trkpt>
      <trkpt lat="48.7928610" lon="14.3199950">
        <ele>590.8</ele>
        <time>2019-08-07T15:09:40Z</time>
      </trkpt>
      <trkpt lat="48.7929170" lon="14.3200180">
        <ele>590.8</ele>
        <time>2019-08-07T15:09:41Z</time>
      </trkpt>
      <trkpt lat="48.7929740" lon="14.3200410">
        <ele>590.8</ele>
        <time>2019-08-07T15:09:42Z</time>
      </trkpt>
      <trkpt lat="48.7930280" lon="14.3200610">
        <ele>590.8</ele>
        <time>2019-08-07T15:09:43Z</time>
      </trkpt>
      <trkpt lat="48.7930790" lon="14.3200810">
        <ele>590.8</ele>
        <time>2019-08-07T15:09:44Z</time>
      </trkpt>
      <trkpt lat="48.7931260" lon="14.3201000">
        <ele>590.8</ele>
        <time>2019-08-07T15:09:45Z</time>
      </trkpt>
      <trkpt lat="48.7931700" lon="14.3201210">
        <ele>590.8</ele>
        <time>2019-08-07T15:09:46Z</time>
      </trkpt>
      <trkpt lat="48.7932140" lon="14.3201380">
        <ele>590.8</ele>
        <time>2019-08-07T15:09:47Z</time>
      </trkpt>
      <trkpt lat="48.7932570" lon="14.3201540">
        <ele>590.8</ele>
        <time>2019-08-07T15:09:48Z</time>
      </trkpt>
      <trkpt lat="48.7932950" lon="14.3201750">
        <ele>590.8</ele>
        <time>2019-08-07T15:09:49Z</time>
      </trkpt>
      <trkpt lat="48.7933320" lon="14.3201930">
        <ele>590.8</ele>
        <time>2019-08-07T15:09:50Z</time>
      </trkpt>
      <trkpt lat="48.7933690" lon="14.3202050">
        <ele>591.0</ele>
        <time>2019-08-07T15:09:51Z</time>
      </trkpt>
      <trkpt lat="48.7934070" lon="14.3202130">
        <ele>591.0</ele>
        <time>2019-08-07T15:09:52Z</time>
      </trkpt>
      <trkpt lat="48.7934490" lon="14.3202210">
        <ele>590.8</ele>
        <time>2019-08-07T15:09:53Z</time>
      </trkpt>
      <trkpt lat="48.7934940" lon="14.3202350">
        <ele>590.8</ele>
        <time>2019-08-07T15:09:54Z</time>
      </trkpt>
      <trkpt lat="48.7935430" lon="14.3202530">
        <ele>590.6</ele>
        <time>2019-08-07T15:09:55Z</time>
      </trkpt>
      <trkpt lat="48.7935940" lon="14.3202720">
        <ele>590.4</ele>
        <time>2019-08-07T15:09:56Z</time>
      </trkpt>
      <trkpt lat="48.7936520" lon="14.3202880">
        <ele>590.2</ele>
        <time>2019-08-07T15:09:57Z</time>
      </trkpt>
      <trkpt lat="48.7937150" lon="14.3202960">
        <ele>589.8</ele>
        <time>2019-08-07T15:09:58Z</time>
      </trkpt>
      <trkpt lat="48.7937870" lon="14.3203040">
        <ele>589.6</ele>
        <time>2019-08-07T15:09:59Z</time>
      </trkpt>
      <trkpt lat="48.7938600" lon="14.3203230">
        <ele>589.2</ele>
        <time>2019-08-07T15:10:00Z</time>
      </trkpt>
      <trkpt lat="48.7939340" lon="14.3203500">
        <ele>589.0</ele>
        <time>2019-08-07T15:10:01Z</time>
      </trkpt>
      <trkpt lat="48.7940070" lon="14.3203810">
        <ele>588.6</ele>
        <time>2019-08-07T15:10:02Z</time>
      </trkpt>
      <trkpt lat="48.7940750" lon="14.3204190">
        <ele>588.4</ele>
        <time>2019-08-07T15:10:03Z</time>
      </trkpt>
      <trkpt lat="48.7941370" lon="14.3204670">
        <ele>588.2</ele>
        <time>2019-08-07T15:10:04Z</time>
      </trkpt>
      <trkpt lat="48.7942040" lon="14.3205290">
        <ele>588.0</ele>
        <time>2019-08-07T15:10:05Z</time>
      </trkpt>
      <trkpt lat="48.7942680" lon="14.3206000">
        <ele>587.8</ele>
        <time>2019-08-07T15:10:06Z</time>
      </trkpt>
      <trkpt lat="48.7943280" lon="14.3206840">
        <ele>587.6</ele>
        <time>2019-08-07T15:10:07Z</time>
      </trkpt>
      <trkpt lat="48.7943860" lon="14.3207750">
        <ele>587.4</ele>
        <time>2019-08-07T15:10:08Z</time>
      </trkpt>
      <trkpt lat="48.7944400" lon="14.3208690">
        <ele>587.2</ele>
        <time>2019-08-07T15:10:09Z</time>
      </trkpt>
      <trkpt lat="48.7944880" lon="14.3209550">
        <ele>587.2</ele>
        <time>2019-08-07T15:10:10Z</time>
      </trkpt>
      <trkpt lat="48.7945280" lon="14.3210340">
        <ele>587.2</ele>
        <time>2019-08-07T15:10:11Z</time>
      </trkpt>
      <trkpt lat="48.7945650" lon="14.3211080">
        <ele>587.2</ele>
        <time>2019-08-07T15:10:12Z</time>
      </trkpt>
      <trkpt lat="48.7946000" lon="14.3211800">
        <ele>587.4</ele>
        <time>2019-08-07T15:10:13Z</time>
      </trkpt>
      <trkpt lat="48.7946330" lon="14.3212460">
        <ele>587.4</ele>
        <time>2019-08-07T15:10:14Z</time>
      </trkpt>
      <trkpt lat="48.7946640" lon="14.3213050">
        <ele>587.8</ele>
        <time>2019-08-07T15:10:15Z</time>
      </trkpt>
      <trkpt lat="48.7946930" lon="14.3213590">
        <ele>588.0</ele>
        <time>2019-08-07T15:10:16Z</time>
      </trkpt>
      <trkpt lat="48.7947200" lon="14.3214090">
        <ele>588.2</ele>
        <time>2019-08-07T15:10:17Z</time>
      </trkpt>
      <trkpt lat="48.7947460" lon="14.3214570">
        <ele>588.4</ele>
        <time>2019-08-07T15:10:18Z</time>
      </trkpt>
      <trkpt lat="48.7947700" lon="14.3215030">
        <ele>588.6</ele>
        <time>2019-08-07T15:10:19Z</time>
      </trkpt>
      <trkpt lat="48.7947920" lon="14.3215430">
        <ele>588.8</ele>
        <time>2019-08-07T15:10:20Z</time>
      </trkpt>
      <trkpt lat="48.7948160" lon="14.3215760">
        <ele>589.0</ele>
        <time>2019-08-07T15:10:21Z</time>
      </trkpt>
      <trkpt lat="48.7948430" lon="14.3215990">
        <ele>589.2</ele>
        <time>2019-08-07T15:10:22Z</time>
      </trkpt>
      <trkpt lat="48.7948720" lon="14.3216140">
        <ele>589.4</ele>
        <time>2019-08-07T15:10:23Z</time>
      </trkpt>
      <trkpt lat="48.7949010" lon="14.3216230">
        <ele>589.6</ele>
        <time>2019-08-07T15:10:24Z</time>
      </trkpt>
      <trkpt lat="48.7949300" lon="14.3216300">
        <ele>589.6</ele>
        <time>2019-08-07T15:10:25Z</time>
      </trkpt>
      <trkpt lat="48.7949600" lon="14.3216370">
        <ele>589.8</ele>
        <time>2019-08-07T15:10:26Z</time>
      </trkpt>
      <trkpt lat="48.7949900" lon="14.3216410">
        <ele>589.8</ele>
        <time>2019-08-07T15:10:27Z</time>
      </trkpt>
      <trkpt lat="48.7950230" lon="14.3216460">
        <ele>589.8</ele>
        <time>2019-08-07T15:10:28Z</time>
      </trkpt>
      <trkpt lat="48.7950580" lon="14.3216530">
        <ele>589.8</ele>
        <time>2019-08-07T15:10:29Z</time>
      </trkpt>
      <trkpt lat="48.7950920" lon="14.3216570">
        <ele>589.8</ele>
        <time>2019-08-07T15:10:30Z</time>
      </trkpt>
      <trkpt lat="48.7951280" lon="14.3216610">
        <ele>589.8</ele>
        <time>2019-08-07T15:10:31Z</time>
      </trkpt>
      <trkpt lat="48.7951650" lon="14.3216660">
        <ele>589.8</ele>
        <time>2019-08-07T15:10:32Z</time>
      </trkpt>
      <trkpt lat="48.7952020" lon="14.3216710">
        <ele>589.8</ele>
        <time>2019-08-07T15:10:33Z</time>
      </trkpt>
      <trkpt lat="48.7952400" lon="14.3216740">
        <ele>589.8</ele>
        <time>2019-08-07T15:10:34Z</time>
      </trkpt>
      <trkpt lat="48.7952760" lon="14.3216770">
        <ele>589.6</ele>
        <time>2019-08-07T15:10:35Z</time>
      </trkpt>
      <trkpt lat="48.7953130" lon="14.3216800">
        <ele>589.6</ele>
        <time>2019-08-07T15:10:36Z</time>
      </trkpt>
      <trkpt lat="48.7953480" lon="14.3216800">
        <ele>589.6</ele>
        <time>2019-08-07T15:10:37Z</time>
      </trkpt>
      <trkpt lat="48.7953840" lon="14.3216810">
        <ele>589.6</ele>
        <time>2019-08-07T15:10:38Z</time>
      </trkpt>
      <trkpt lat="48.7954200" lon="14.3216860">
        <ele>589.6</ele>
        <time>2019-08-07T15:10:39Z</time>
      </trkpt>
      <trkpt lat="48.7954590" lon="14.3216930">
        <ele>589.6</ele>
        <time>2019-08-07T15:10:40Z</time>
      </trkpt>
      <trkpt lat="48.7954970" lon="14.3216970">
        <ele>589.6</ele>
        <time>2019-08-07T15:10:41Z</time>
      </trkpt>
      <trkpt lat="48.7955350" lon="14.3216990">
        <ele>589.4</ele>
        <time>2019-08-07T15:10:42Z</time>
      </trkpt>
      <trkpt lat="48.7955720" lon="14.3217040">
        <ele>589.4</ele>
        <time>2019-08-07T15:10:43Z</time>
      </trkpt>
      <trkpt lat="48.7956120" lon="14.3217090">
        <ele>589.2</ele>
        <time>2019-08-07T15:10:44Z</time>
      </trkpt>
      <trkpt lat="48.7956520" lon="14.3217120">
        <ele>589.2</ele>
        <time>2019-08-07T15:10:45Z</time>
      </trkpt>
      <trkpt lat="48.7956940" lon="14.3217140">
        <ele>589.2</ele>
        <time>2019-08-07T15:10:46Z</time>
      </trkpt>
      <trkpt lat="48.7957370" lon="14.3217200">
        <ele>589.0</ele>
        <time>2019-08-07T15:10:47Z</time>
      </trkpt>
      <trkpt lat="48.7957820" lon="14.3217310">
        <ele>589.0</ele>
        <time>2019-08-07T15:10:48Z</time>
      </trkpt>
      <trkpt lat="48.7958290" lon="14.3217450">
        <ele>588.8</ele>
        <time>2019-08-07T15:10:49Z</time>
      </trkpt>
      <trkpt lat="48.7958760" lon="14.3217570">
        <ele>588.8</ele>
        <time>2019-08-07T15:10:50Z</time>
      </trkpt>
      <trkpt lat="48.7959230" lon="14.3217680">
        <ele>588.6</ele>
        <time>2019-08-07T15:10:51Z</time>
      </trkpt>
      <trkpt lat="48.7959730" lon="14.3217790">
        <ele>588.4</ele>
        <time>2019-08-07T15:10:52Z</time>
      </trkpt>
      <trkpt lat="48.7960250" lon="14.3217910">
        <ele>588.4</ele>
        <time>2019-08-07T15:10:53Z</time>
      </trkpt>
      <trkpt lat="48.7960810" lon="14.3218090">
        <ele>588.2</ele>
        <time>2019-08-07T15:10:54Z</time>
      </trkpt>
      <trkpt lat="48.7961380" lon="14.3218320">
        <ele>588.0</ele>
        <time>2019-08-07T15:10:55Z</time>
      </trkpt>
      <trkpt lat="48.7961950" lon="14.3218560">
        <ele>588.0</ele>
        <time>2019-08-07T15:10:56Z</time>
      </trkpt>
      <trkpt lat="48.7962550" lon="14.3218800">
        <ele>587.8</ele>
        <time>2019-08-07T15:10:57Z</time>
      </trkpt>
      <trkpt lat="48.7963150" lon="14.3219010">
        <ele>587.6</ele>
        <time>2019-08-07T15:10:58Z</time>
      </trkpt>
      <trkpt lat="48.7963770" lon="14.3219190">
        <ele>587.6</ele>
        <time>2019-08-07T15:10:59Z</time>
      </trkpt>
      <trkpt lat="48.7964390" lon="14.3219370">
        <ele>587.4</ele>
        <time>2019-08-07T15:11:00Z</time>
      </trkpt>
      <trkpt lat="48.7965050" lon="14.3219560">
        <ele>587.2</ele>
        <time>2019-08-07T15:11:01Z</time>
      </trkpt>
      <trkpt lat="48.7965710" lon="14.3219710">
        <ele>587.0</ele>
        <time>2019-08-07T15:11:02Z</time>
      </trkpt>
      <trkpt lat="48.7966360" lon="14.3219820">
        <ele>586.8</ele>
        <time>2019-08-07T15:11:03Z</time>
      </trkpt>
      <trkpt lat="48.7967000" lon="14.3219890">
        <ele>586.8</ele>
        <time>2019-08-07T15:11:04Z</time>
      </trkpt>
      <trkpt lat="48.7967640" lon="14.3219920">
        <ele>586.6</ele>
        <time>2019-08-07T15:11:05Z</time>
      </trkpt>
      <trkpt lat="48.7968250" lon="14.3219950">
        <ele>586.4</ele>
        <time>2019-08-07T15:11:06Z</time>
      </trkpt>
      <trkpt lat="48.7968860" lon="14.3219940">
        <ele>586.2</ele>
        <time>2019-08-07T15:11:07Z</time>
      </trkpt>
      <trkpt lat="48.7969480" lon="14.3219860">
        <ele>586.2</ele>
        <time>2019-08-07T15:11:08Z</time>
      </trkpt>
      <trkpt lat="48.7970090" lon="14.3219760">
        <ele>586.2</ele>
        <time>2019-08-07T15:11:09Z</time>
      </trkpt>
      <trkpt lat="48.7970690" lon="14.3219660">
        <ele>586.2</ele>
        <time>2019-08-07T15:11:10Z</time>
      </trkpt>
      <trkpt lat="48.7971260" lon="14.3219580">
        <ele>586.2</ele>
        <time>2019-08-07T15:11:11Z</time>
      </trkpt>
      <trkpt lat="48.7971840" lon="14.3219490">
        <ele>586.2</ele>
        <time>2019-08-07T15:11:12Z</time>
      </trkpt>
      <trkpt lat="48.7972410" lon="14.3219350">
        <ele>586.2</ele>
        <time>2019-08-07T15:11:13Z</time>
      </trkpt>
      <trkpt lat="48.7972970" lon="14.3219170">
        <ele>586.2</ele>
        <time>2019-08-07T15:11:14Z</time>
      </trkpt>
      <trkpt lat="48.7973480" lon="14.3218950">
        <ele>586.2</ele>
        <time>2019-08-07T15:11:15Z</time>
      </trkpt>
      <trkpt lat="48.7974000" lon="14.3218660">
        <ele>586.4</ele>
        <time>2019-08-07T15:11:16Z</time>
      </trkpt>
      <trkpt lat="48.7974490" lon="14.3218300">
        <ele>586.4</ele>
        <time>2019-08-07T15:11:17Z</time>
      </trkpt>
      <trkpt lat="48.7974960" lon="14.3217930">
        <ele>586.6</ele>
        <time>2019-08-07T15:11:18Z</time>
      </trkpt>
      <trkpt lat="48.7975390" lon="14.3217520">
        <ele>586.8</ele>
        <time>2019-08-07T15:11:19Z</time>
      </trkpt>
      <trkpt lat="48.7975790" lon="14.3217080">
        <ele>586.8</ele>
        <time>2019-08-07T15:11:20Z</time>
      </trkpt>
      <trkpt lat="48.7976180" lon="14.3216620">
        <ele>586.6</ele>
        <time>2019-08-07T15:11:21Z</time>
      </trkpt>
      <trkpt lat="48.7976520" lon="14.3216170">
        <ele>586.6</ele>
        <time>2019-08-07T15:11:22Z</time>
      </trkpt>
      <trkpt lat="48.7976870" lon="14.3215720">
        <ele>586.8</ele>
        <time>2019-08-07T15:11:23Z</time>
      </trkpt>
      <trkpt lat="48.7977180" lon="14.3215310">
        <ele>586.8</ele>
        <time>2019-08-07T15:11:24Z</time>
      </trkpt>
      <trkpt lat="48.7977480" lon="14.3214900">
        <ele>587.0</ele>
        <time>2019-08-07T15:11:25Z</time>
      </trkpt>
      <trkpt lat="48.7977780" lon="14.3214540">
        <ele>587.0</ele>
        <time>2019-08-07T15:11:26Z</time>
      </trkpt>
      <trkpt lat="48.7978060" lon="14.3214180">
        <ele>587.2</ele>
        <time>2019-08-07T15:11:27Z</time>
      </trkpt>
      <trkpt lat="48.7978320" lon="14.3213850">
        <ele>587.4</ele>
        <time>2019-08-07T15:11:28Z</time>
      </trkpt>
      <trkpt lat="48.7978570" lon="14.3213530">
        <ele>587.6</ele>
        <time>2019-08-07T15:11:29Z</time>
      </trkpt>
      <trkpt lat="48.7978780" lon="14.3213240">
        <ele>587.6</ele>
        <time>2019-08-07T15:11:30Z</time>
      </trkpt>
      <trkpt lat="48.7978990" lon="14.3212980">
        <ele>587.8</ele>
        <time>2019-08-07T15:11:31Z</time>
      </trkpt>
      <trkpt lat="48.7979190" lon="14.3212690">
        <ele>587.8</ele>
        <time>2019-08-07T15:11:32Z</time>
      </trkpt>
      <trkpt lat="48.7979400" lon="14.3212420">
        <ele>588.0</ele>
        <time>2019-08-07T15:11:33Z</time>
      </trkpt>
      <trkpt lat="48.7979610" lon="14.3212160">
        <ele>588.2</ele>
        <time>2019-08-07T15:11:34Z</time>
      </trkpt>
      <trkpt lat="48.7979810" lon="14.3211900">
        <ele>588.4</ele>
        <time>2019-08-07T15:11:35Z</time>
      </trkpt>
      <trkpt lat="48.7980010" lon="14.3211660">
        <ele>588.4</ele>
        <time>2019-08-07T15:11:36Z</time>
      </trkpt>
      <trkpt lat="48.7980210" lon="14.3211430">
        <ele>588.6</ele>
        <time>2019-08-07T15:11:37Z</time>
      </trkpt>
      <trkpt lat="48.7980380" lon="14.3211200">
        <ele>588.8</ele>
        <time>2019-08-07T15:11:38Z</time>
      </trkpt>
      <trkpt lat="48.7980510" lon="14.3210990">
        <ele>589.0</ele>
        <time>2019-08-07T15:11:39Z</time>
      </trkpt>
      <trkpt lat="48.7980650" lon="14.3210780">
        <ele>589.2</ele>
        <time>2019-08-07T15:11:40Z</time>
      </trkpt>
      <trkpt lat="48.7980780" lon="14.3210550">
        <ele>589.4</ele>
        <time>2019-08-07T15:11:41Z</time>
      </trkpt>
      <trkpt lat="48.7980930" lon="14.3210350">
        <ele>589.6</ele>
        <time>2019-08-07T15:11:42Z</time>
      </trkpt>
      <trkpt lat="48.7981100" lon="14.3210160">
        <ele>589.6</ele>
        <time>2019-08-07T15:11:43Z</time>
      </trkpt>
      <trkpt lat="48.7981270" lon="14.3210000">
        <ele>589.8</ele>
        <time>2019-08-07T15:11:44Z</time>
      </trkpt>
      <trkpt lat="48.7981440" lon="14.3209850">
        <ele>590.0</ele>
        <time>2019-08-07T15:11:45Z</time>
      </trkpt>
      <trkpt lat="48.7981600" lon="14.3209700">
        <ele>590.2</ele>
        <time>2019-08-07T15:11:46Z</time>
      </trkpt>
      <trkpt lat="48.7981750" lon="14.3209530">
        <ele>590.4</ele>
        <time>2019-08-07T15:11:47Z</time>
      </trkpt>
      <trkpt lat="48.7981900" lon="14.3209360">
        <ele>590.6</ele>
        <time>2019-08-07T15:11:48Z</time>
      </trkpt>
      <trkpt lat="48.7982050" lon="14.3209170">
        <ele>590.8</ele>
        <time>2019-08-07T15:11:49Z</time>
      </trkpt>
      <trkpt lat="48.7982180" lon="14.3208990">
        <ele>591.0</ele>
        <time>2019-08-07T15:11:50Z</time>
      </trkpt>
      <trkpt lat="48.7982330" lon="14.3208790">
        <ele>591.2</ele>
        <time>2019-08-07T15:11:51Z</time>
      </trkpt>
      <trkpt lat="48.7982470" lon="14.3208610">
        <ele>591.4</ele>
        <time>2019-08-07T15:11:52Z</time>
      </trkpt>
      <trkpt lat="48.7982620" lon="14.3208450">
        <ele>591.6</ele>
        <time>2019-08-07T15:11:53Z</time>
      </trkpt>
      <trkpt lat="48.7982760" lon="14.3208310">
        <ele>591.8</ele>
        <time>2019-08-07T15:11:54Z</time>
      </trkpt>
      <trkpt lat="48.7982910" lon="14.3208180">
        <ele>591.8</ele>
        <time>2019-08-07T15:11:55Z</time>
      </trkpt>
      <trkpt lat="48.7983040" lon="14.3208060">
        <ele>592.0</ele>
        <time>2019-08-07T15:11:56Z</time>
      </trkpt>
      <trkpt lat="48.7983160" lon="14.3207960">
        <ele>592.2</ele>
        <time>2019-08-07T15:11:57Z</time>
      </trkpt>
      <trkpt lat="48.7983300" lon="14.3207860">
        <ele>592.4</ele>
        <time>2019-08-07T15:11:58Z</time>
      </trkpt>
      <trkpt lat="48.7983430" lon="14.3207730">
        <ele>592.8</ele>
        <time>2019-08-07T15:11:59Z</time>
      </trkpt>
      <trkpt lat="48.7983560" lon="14.3207590">
        <ele>593.0</ele>
        <time>2019-08-07T15:12:00Z</time>
      </trkpt>
      <trkpt lat="48.7983700" lon="14.3207450">
        <ele>593.2</ele>
        <time>2019-08-07T15:12:01Z</time>
      </trkpt>
      <trkpt lat="48.7983830" lon="14.3207300">
        <ele>593.4</ele>
        <time>2019-08-07T15:12:02Z</time>
      </trkpt>
      <trkpt lat="48.7983950" lon="14.3207150">
        <ele>593.8</ele>
        <time>2019-08-07T15:12:03Z</time>
      </trkpt>
      <trkpt lat="48.7984080" lon="14.3207030">
        <ele>594.0</ele>
        <time>2019-08-07T15:12:04Z</time>
      </trkpt>
      <trkpt lat="48.7984230" lon="14.3206950">
        <ele>594.2</ele>
        <time>2019-08-07T15:12:05Z</time>
      </trkpt>
      <trkpt lat="48.7984380" lon="14.3206840">
        <ele>594.4</ele>
        <time>2019-08-07T15:12:06Z</time>
      </trkpt>
      <trkpt lat="48.7984520" lon="14.3206740">
        <ele>594.6</ele>
        <time>2019-08-07T15:12:07Z</time>
      </trkpt>
      <trkpt lat="48.7984660" lon="14.3206620">
        <ele>594.8</ele>
        <time>2019-08-07T15:12:08Z</time>
      </trkpt>
      <trkpt lat="48.7984780" lon="14.3206500">
        <ele>595.0</ele>
        <time>2019-08-07T15:12:09Z</time>
      </trkpt>
      <trkpt lat="48.7984890" lon="14.3206330">
        <ele>595.2</ele>
        <time>2019-08-07T15:12:10Z</time>
      </trkpt>
      <trkpt lat="48.7985010" lon="14.3206170">
        <ele>595.4</ele>
        <time>2019-08-07T15:12:11Z</time>
      </trkpt>
      <trkpt lat="48.7985130" lon="14.3206040">
        <ele>595.8</ele>
        <time>2019-08-07T15:12:12Z</time>
      </trkpt>
      <trkpt lat="48.7985250" lon="14.3205950">
        <ele>596.0</ele>
        <time>2019-08-07T15:12:13Z</time>
      </trkpt>
      <trkpt lat="48.7985380" lon="14.3205860">
        <ele>596.2</ele>
        <time>2019-08-07T15:12:14Z</time>
      </trkpt>
      <trkpt lat="48.7985510" lon="14.3205760">
        <ele>596.4</ele>
        <time>2019-08-07T15:12:15Z</time>
      </trkpt>
      <trkpt lat="48.7985640" lon="14.3205660">
        <ele>596.6</ele>
        <time>2019-08-07T15:12:16Z</time>
      </trkpt>
      <trkpt lat="48.7985760" lon="14.3205570">
        <ele>596.8</ele>
        <time>2019-08-07T15:12:17Z</time>
      </trkpt>
      <trkpt lat="48.7985880" lon="14.3205480">
        <ele>597.0</ele>
        <time>2019-08-07T15:12:18Z</time>
      </trkpt>
      <trkpt lat="48.7986000" lon="14.3205390">
        <ele>597.2</ele>
        <time>2019-08-07T15:12:19Z</time>
      </trkpt>
      <trkpt lat="48.7986120" lon="14.3205300">
        <ele>597.4</ele>
        <time>2019-08-07T15:12:20Z</time>
      </trkpt>
      <trkpt lat="48.7986230" lon="14.3205230">
        <ele>597.6</ele>
        <time>2019-08-07T15:12:21Z</time>
      </trkpt>
      <trkpt lat="48.7986360" lon="14.3205150">
        <ele>598.0</ele>
        <time>2019-08-07T15:12:22Z</time>
      </trkpt>
      <trkpt lat="48.7986480" lon="14.3205060">
        <ele>598.2</ele>
        <time>2019-08-07T15:12:23Z</time>
      </trkpt>
      <trkpt lat="48.7986590" lon="14.3204960">
        <ele>598.4</ele>
        <time>2019-08-07T15:12:24Z</time>
      </trkpt>
      <trkpt lat="48.7986710" lon="14.3204870">
        <ele>598.8</ele>
        <time>2019-08-07T15:12:25Z</time>
      </trkpt>
      <trkpt lat="48.7986840" lon="14.3204780">
        <ele>599.0</ele>
        <time>2019-08-07T15:12:26Z</time>
      </trkpt>
      <trkpt lat="48.7986960" lon="14.3204700">
        <ele>599.2</ele>
        <time>2019-08-07T15:12:27Z</time>
      </trkpt>
      <trkpt lat="48.7987100" lon="14.3204640">
        <ele>599.4</ele>
        <time>2019-08-07T15:12:28Z</time>
      </trkpt>
      <trkpt lat="48.7987230" lon="14.3204590">
        <ele>599.6</ele>
        <time>2019-08-07T15:12:29Z</time>
      </trkpt>
      <trkpt lat="48.7987350" lon="14.3204560">
        <ele>599.8</ele>
        <time>2019-08-07T15:12:30Z</time>
      </trkpt>
      <trkpt lat="48.7987480" lon="14.3204510">
        <ele>600.0</ele>
        <time>2019-08-07T15:12:31Z</time>
      </trkpt>
      <trkpt lat="48.7987600" lon="14.3204460">
        <ele>600.2</ele>
        <time>2019-08-07T15:12:32Z</time>
      </trkpt>
      <trkpt lat="48.7987740" lon="14.3204400">
        <ele>600.6</ele>
        <time>2019-08-07T15:12:33Z</time>
      </trkpt>
      <trkpt lat="48.7987860" lon="14.3204320">
        <ele>600.8</ele>
        <time>2019-08-07T15:12:34Z</time>
      </trkpt>
      <trkpt lat="48.7987980" lon="14.3204250">
        <ele>601.0</ele>
        <time>2019-08-07T15:12:35Z</time>
      </trkpt>
      <trkpt lat="48.7988110" lon="14.3204170">
        <ele>601.2</ele>
        <time>2019-08-07T15:12:36Z</time>
      </trkpt>
      <trkpt lat="48.7988240" lon="14.3204100">
        <ele>601.4</ele>
        <time>2019-08-07T15:12:37Z</time>
      </trkpt>
      <trkpt lat="48.7988360" lon="14.3204010">
        <ele>601.4</ele>
        <time>2019-08-07T15:12:38Z</time>
      </trkpt>
      <trkpt lat="48.7988490" lon="14.3203930">
        <ele>601.6</ele>
        <time>2019-08-07T15:12:39Z</time>
      </trkpt>
      <trkpt lat="48.7988610" lon="14.3203820">
        <ele>602.0</ele>
        <time>2019-08-07T15:12:40Z</time>
      </trkpt>
      <trkpt lat="48.7988730" lon="14.3203720">
        <ele>602.2</ele>
        <time>2019-08-07T15:12:41Z</time>
      </trkpt>
      <trkpt lat="48.7988880" lon="14.3203640">
        <ele>602.4</ele>
        <time>2019-08-07T15:12:42Z</time>
      </trkpt>
      <trkpt lat="48.7989030" lon="14.3203610">
        <ele>602.6</ele>
        <time>2019-08-07T15:12:43Z</time>
      </trkpt>
      <trkpt lat="48.7989170" lon="14.3203580">
        <ele>602.8</ele>
        <time>2019-08-07T15:12:44Z</time>
      </trkpt>
      <trkpt lat="48.7989310" lon="14.3203540">
        <ele>603.0</ele>
        <time>2019-08-07T15:12:45Z</time>
      </trkpt>
      <trkpt lat="48.7989440" lon="14.3203480">
        <ele>603.2</ele>
        <time>2019-08-07T15:12:46Z</time>
      </trkpt>
      <trkpt lat="48.7989580" lon="14.3203380">
        <ele>603.4</ele>
        <time>2019-08-07T15:12:47Z</time>
      </trkpt>
      <trkpt lat="48.7989730" lon="14.3203270">
        <ele>603.6</ele>
        <time>2019-08-07T15:12:48Z</time>
      </trkpt>
      <trkpt lat="48.7989860" lon="14.3203160">
        <ele>603.6</ele>
        <time>2019-08-07T15:12:49Z</time>
      </trkpt>
      <trkpt lat="48.7990000" lon="14.3203050">
        <ele>603.8</ele>
        <time>2019-08-07T15:12:50Z</time>
      </trkpt>
      <trkpt lat="48.7990160" lon="14.3202970">
        <ele>604.0</ele>
        <time>2019-08-07T15:12:51Z</time>
      </trkpt>
      <trkpt lat="48.7990300" lon="14.3202920">
        <ele>604.0</ele>
        <time>2019-08-07T15:12:52Z</time>
      </trkpt>
      <trkpt lat="48.7990450" lon="14.3202850">
        <ele>604.2</ele>
        <time>2019-08-07T15:12:53Z</time>
      </trkpt>
      <trkpt lat="48.7990600" lon="14.3202760">
        <ele>604.2</ele>
        <time>2019-08-07T15:12:54Z</time>
      </trkpt>
      <trkpt lat="48.7990750" lon="14.3202660">
        <ele>604.4</ele>
        <time>2019-08-07T15:12:55Z</time>
      </trkpt>
      <trkpt lat="48.7990900" lon="14.3202560">
        <ele>604.6</ele>
        <time>2019-08-07T15:12:56Z</time>
      </trkpt>
      <trkpt lat="48.7991050" lon="14.3202440">
        <ele>604.6</ele>
        <time>2019-08-07T15:12:57Z</time>
      </trkpt>
      <trkpt lat="48.7991180" lon="14.3202330">
        <ele>604.6</ele>
        <time>2019-08-07T15:12:58Z</time>
      </trkpt>
      <trkpt lat="48.7991330" lon="14.3202230">
        <ele>604.6</ele>
        <time>2019-08-07T15:12:59Z</time>
      </trkpt>
      <trkpt lat="48.7991460" lon="14.3202160">
        <ele>604.6</ele>
        <time>2019-08-07T15:13:00Z</time>
      </trkpt>
      <trkpt lat="48.7991600" lon="14.3202100">
        <ele>604.8</ele>
        <time>2019-08-07T15:13:01Z</time>
      </trkpt>
      <trkpt lat="48.7991730" lon="14.3202020">
        <ele>604.6</ele>
        <time>2019-08-07T15:13:02Z</time>
      </trkpt>
      <trkpt lat="48.7991850" lon="14.3201900">
        <ele>604.6</ele>
        <time>2019-08-07T15:13:03Z</time>
      </trkpt>
      <trkpt lat="48.7991980" lon="14.3201780">
        <ele>604.6</ele>
        <time>2019-08-07T15:13:04Z</time>
      </trkpt>
      <trkpt lat="48.7992130" lon="14.3201690">
        <ele>604.6</ele>
        <time>2019-08-07T15:13:05Z</time>
      </trkpt>
      <trkpt lat="48.7992290" lon="14.3201640">
        <ele>604.6</ele>
        <time>2019-08-07T15:13:06Z</time>
      </trkpt>
      <trkpt lat="48.7992470" lon="14.3201600">
        <ele>604.6</ele>
        <time>2019-08-07T15:13:07Z</time>
      </trkpt>
      <trkpt lat="48.7992640" lon="14.3201510">
        <ele>604.6</ele>
        <time>2019-08-07T15:13:08Z</time>
      </trkpt>
      <trkpt lat="48.7992850" lon="14.3201400">
        <ele>604.6</ele>
        <time>2019-08-07T15:13:09Z</time>
      </trkpt>
      <trkpt lat="48.7993100" lon="14.3201270">
        <ele>604.4</ele>
        <time>2019-08-07T15:13:10Z</time>
      </trkpt>
      <trkpt lat="48.7993380" lon="14.3201110">
        <ele>604.4</ele>
        <time>2019-08-07T15:13:11Z</time>
      </trkpt>
      <trkpt lat="48.7993730" lon="14.3200940">
        <ele>604.2</ele>
        <time>2019-08-07T15:13:12Z</time>
      </trkpt>
      <trkpt lat="48.7994150" lon="14.3200760">
        <ele>604.0</ele>
        <time>2019-08-07T15:13:13Z</time>
      </trkpt>
      <trkpt lat="48.7994590" lon="14.3200560">
        <ele>603.8</ele>
        <time>2019-08-07T15:13:14Z</time>
      </trkpt>
      <trkpt lat="48.7995110" lon="14.3200330">
        <ele>603.4</ele>
        <time>2019-08-07T15:13:15Z</time>
      </trkpt>
      <trkpt lat="48.7995670" lon="14.3200080">
        <ele>603.2</ele>
        <time>2019-08-07T15:13:16Z</time>
      </trkpt>
      <trkpt lat="48.7996250" lon="14.3199830">
        <ele>602.8</ele>
        <time>2019-08-07T15:13:17Z</time>
      </trkpt>
      <trkpt lat="48.7996980" lon="14.3199510">
        <ele>602.6</ele>
        <time>2019-08-07T15:13:18Z</time>
      </trkpt>
      <trkpt lat="48.7997730" lon="14.3199220">
        <ele>602.0</ele>
        <time>2019-08-07T15:13:19Z</time>
      </trkpt>
      <trkpt lat="48.7998510" lon="14.3198930">
        <ele>601.6</ele>
        <time>2019-08-07T15:13:20Z</time>
      </trkpt>
      <trkpt lat="48.7999330" lon="14.3198630">
        <ele>601.2</ele>
        <time>2019-08-07T15:13:21Z</time>
      </trkpt>
      <trkpt lat="48.8000190" lon="14.3198320">
        <ele>600.8</ele>
        <time>2019-08-07T15:13:22Z</time>
      </trkpt>
      <trkpt lat="48.8001110" lon="14.3197990">
        <ele>600.0</ele>
        <time>2019-08-07T15:13:23Z</time>
      </trkpt>
      <trkpt lat="48.8002090" lon="14.3197630">
        <ele>599.2</ele>
        <time>2019-08-07T15:13:24Z</time>
      </trkpt>
      <trkpt lat="48.8003110" lon="14.3197240">
        <ele>598.2</ele>
        <time>2019-08-07T15:13:25Z</time>
      </trkpt>
      <trkpt lat="48.8004190" lon="14.3196830">
        <ele>597.4</ele>
        <time>2019-08-07T15:13:26Z</time>
      </trkpt>
      <trkpt lat="48.8005200" lon="14.3196330">
        <ele>596.6</ele>
        <time>2019-08-07T15:13:27Z</time>
      </trkpt>
      <trkpt lat="48.8006230" lon="14.3195830">
        <ele>596.0</ele>
        <time>2019-08-07T15:13:28Z</time>
      </trkpt>
      <trkpt lat="48.8007250" lon="14.3195290">
        <ele>595.4</ele>
        <time>2019-08-07T15:13:29Z</time>
      </trkpt>
      <trkpt lat="48.8008220" lon="14.3194770">
        <ele>594.8</ele>
        <time>2019-08-07T15:13:30Z</time>
      </trkpt>
      <trkpt lat="48.8009240" lon="14.3194230">
        <ele>594.2</ele>
        <time>2019-08-07T15:13:31Z</time>
      </trkpt>
      <trkpt lat="48.8010200" lon="14.3193670">
        <ele>593.6</ele>
        <time>2019-08-07T15:13:32Z</time>
      </trkpt>
      <trkpt lat="48.8011160" lon="14.3193110">
        <ele>592.8</ele>
        <time>2019-08-07T15:13:33Z</time>
      </trkpt>
      <trkpt lat="48.8012060" lon="14.3192590">
        <ele>591.8</ele>
        <time>2019-08-07T15:13:34Z</time>
      </trkpt>
      <trkpt lat="48.8012950" lon="14.3192070">
        <ele>591.0</ele>
        <time>2019-08-07T15:13:35Z</time>
      </trkpt>
      <trkpt lat="48.8013870" lon="14.3191490">
        <ele>590.2</ele>
        <time>2019-08-07T15:13:36Z</time>
      </trkpt>
      <trkpt lat="48.8014690" lon="14.3190940">
        <ele>589.4</ele>
        <time>2019-08-07T15:13:37Z</time>
      </trkpt>
      <trkpt lat="48.8015460" lon="14.3190420">
        <ele>588.4</ele>
        <time>2019-08-07T15:13:38Z</time>
      </trkpt>
      <trkpt lat="48.8016200" lon="14.3189900">
        <ele>587.6</ele>
        <time>2019-08-07T15:13:39Z</time>
      </trkpt>
      <trkpt lat="48.8016910" lon="14.3189310">
        <ele>586.8</ele>
        <time>2019-08-07T15:13:40Z</time>
      </trkpt>
      <trkpt lat="48.8017590" lon="14.3188720">
        <ele>586.2</ele>
        <time>2019-08-07T15:13:41Z</time>
      </trkpt>
      <trkpt lat="48.8018190" lon="14.3188140">
        <ele>585.4</ele>
        <time>2019-08-07T15:13:42Z</time>
      </trkpt>
      <trkpt lat="48.8018730" lon="14.3187530">
        <ele>584.6</ele>
        <time>2019-08-07T15:13:43Z</time>
      </trkpt>
      <trkpt lat="48.8019200" lon="14.3186930">
        <ele>584.0</ele>
        <time>2019-08-07T15:13:44Z</time>
      </trkpt>
      <trkpt lat="48.8019610" lon="14.3186210">
        <ele>583.4</ele>
        <time>2019-08-07T15:13:45Z</time>
      </trkpt>
      <trkpt lat="48.8019940" lon="14.3185360">
        <ele>582.6</ele>
        <time>2019-08-07T15:13:46Z</time>
      </trkpt>
      <trkpt lat="48.8020190" lon="14.3184370">
        <ele>582.0</ele>
        <time>2019-08-07T15:13:47Z</time>
      </trkpt>
      <trkpt lat="48.8020380" lon="14.3183340">
        <ele>581.2</ele>
        <time>2019-08-07T15:13:48Z</time>
      </trkpt>
      <trkpt lat="48.8020580" lon="14.3182370">
        <ele>580.2</ele>
        <time>2019-08-07T15:13:49Z</time>
      </trkpt>
      <trkpt lat="48.8020760" lon="14.3181600">
        <ele>579.4</ele>
        <time>2019-08-07T15:13:50Z</time>
      </trkpt>
      <trkpt lat="48.8020890" lon="14.3180940">
        <ele>578.6</ele>
        <time>2019-08-07T15:13:51Z</time>
      </trkpt>
      <trkpt lat="48.8020960" lon="14.3180340">
        <ele>577.8</ele>
        <time>2019-08-07T15:13:52Z</time>
      </trkpt>
      <trkpt lat="48.8021030" lon="14.3179760">
        <ele>577.0</ele>
        <time>2019-08-07T15:13:53Z</time>
      </trkpt>
      <trkpt lat="48.8021100" lon="14.3179180">
        <ele>576.4</ele>
        <time>2019-08-07T15:13:54Z</time>
      </trkpt>
      <trkpt lat="48.8021170" lon="14.3178680">
        <ele>575.8</ele>
        <time>2019-08-07T15:13:55Z</time>
      </trkpt>
      <trkpt lat="48.8021270" lon="14.3178220">
        <ele>575.4</ele>
        <time>2019-08-07T15:13:56Z</time>
      </trkpt>
      <trkpt lat="48.8021370" lon="14.3177820">
        <ele>574.8</ele>
        <time>2019-08-07T15:13:57Z</time>
      </trkpt>
      <trkpt lat="48.8021500" lon="14.3177450">
        <ele>574.4</ele>
        <time>2019-08-07T15:13:58Z</time>
      </trkpt>
      <trkpt lat="48.8021640" lon="14.3177140">
        <ele>574.0</ele>
        <time>2019-08-07T15:13:59Z</time>
      </trkpt>
      <trkpt lat="48.8021810" lon="14.3176780">
        <ele>573.4</ele>
        <time>2019-08-07T15:14:00Z</time>
      </trkpt>
      <trkpt lat="48.8021970" lon="14.3176430">
        <ele>573.0</ele>
        <time>2019-08-07T15:14:01Z</time>
      </trkpt>
      <trkpt lat="48.8022110" lon="14.3176120">
        <ele>572.4</ele>
        <time>2019-08-07T15:14:02Z</time>
      </trkpt>
      <trkpt lat="48.8022230" lon="14.3175820">
        <ele>572.0</ele>
        <time>2019-08-07T15:14:03Z</time>
      </trkpt>
      <trkpt lat="48.8022360" lon="14.3175570">
        <ele>571.4</ele>
        <time>2019-08-07T15:14:04Z</time>
      </trkpt>
      <trkpt lat="48.8022470" lon="14.3175350">
        <ele>571.0</ele>
        <time>2019-08-07T15:14:05Z</time>
      </trkpt>
      <trkpt lat="48.8022560" lon="14.3175190">
        <ele>570.6</ele>
        <time>2019-08-07T15:14:06Z</time>
      </trkpt>
      <trkpt lat="48.8022590" lon="14.3175070">
        <ele>570.2</ele>
        <time>2019-08-07T15:14:07Z</time>
      </trkpt>
      <trkpt lat="48.8022640" lon="14.3175010">
        <ele>569.8</ele>
        <time>2019-08-07T15:14:08Z</time>
      </trkpt>
      <trkpt lat="48.8022650" lon="14.3174980">
        <ele>569.6</ele>
        <time>2019-08-07T15:14:09Z</time>
      </trkpt>
      <trkpt lat="48.8022650" lon="14.3174980">
        <ele>569.4</ele>
        <time>2019-08-07T15:14:10Z</time>
      </trkpt>
      <trkpt lat="48.8022650" lon="14.3174980">
        <ele>569.2</ele>
        <time>2019-08-07T15:14:11Z</time>
      </trkpt>
      <trkpt lat="48.8022650" lon="14.3174980">
        <ele>569.2</ele>
        <time>2019-08-07T15:14:12Z</time>
      </trkpt>
      <trkpt lat="48.8023370" lon="14.3174530">
        <ele>568.6</ele>
        <time>2019-08-07T15:15:15Z</time>
      </trkpt>
      <trkpt lat="48.8023370" lon="14.3174530">
        <ele>568.4</ele>
        <time>2019-08-07T15:15:16Z</time>
      </trkpt>
      <trkpt lat="48.8023370" lon="14.3174530">
        <ele>568.4</ele>
        <time>2019-08-07T15:15:17Z</time>
      </trkpt>
      <trkpt lat="48.8023460" lon="14.3174500">
        <ele>568.4</ele>
        <time>2019-08-07T15:15:18Z</time>
      </trkpt>
      <trkpt lat="48.8023850" lon="14.3174340">
        <ele>568.2</ele>
        <time>2019-08-07T15:15:19Z</time>
      </trkpt>
      <trkpt lat="48.8023910" lon="14.3174320">
        <ele>568.0</ele>
        <time>2019-08-07T15:15:20Z</time>
      </trkpt>
      <trkpt lat="48.8023940" lon="14.3174310">
        <ele>568.0</ele>
        <time>2019-08-07T15:15:21Z</time>
      </trkpt>
      <trkpt lat="48.8023970" lon="14.3174300">
        <ele>567.8</ele>
        <time>2019-08-07T15:15:22Z</time>
      </trkpt>
      <trkpt lat="48.8023970" lon="14.3174300">
        <ele>567.8</ele>
        <time>2019-08-07T15:15:23Z</time>
      </trkpt>
      <trkpt lat="48.8024020" lon="14.3174290">
        <ele>567.6</ele>
        <time>2019-08-07T15:15:24Z</time>
      </trkpt>
      <trkpt lat="48.8024220" lon="14.3174240">
        <ele>567.4</ele>
        <time>2019-08-07T15:15:25Z</time>
      </trkpt>
      <trkpt lat="48.8024310" lon="14.3174250">
        <ele>567.4</ele>
        <time>2019-08-07T15:15:26Z</time>
      </trkpt>
      <trkpt lat="48.8024390" lon="14.3174260">
        <ele>567.2</ele>
        <time>2019-08-07T15:15:27Z</time>
      </trkpt>
      <trkpt lat="48.8024500" lon="14.3174330">
        <ele>567.0</ele>
        <time>2019-08-07T15:15:28Z</time>
      </trkpt>
      <trkpt lat="48.8024580" lon="14.3174400">
        <ele>566.8</ele>
        <time>2019-08-07T15:15:29Z</time>
      </trkpt>
      <trkpt lat="48.8024640" lon="14.3174380">
        <ele>566.6</ele>
        <time>2019-08-07T15:15:30Z</time>
      </trkpt>
      <trkpt lat="48.8024670" lon="14.3174380">
        <ele>566.4</ele>
        <time>2019-08-07T15:15:31Z</time>
      </trkpt>
      <trkpt lat="48.8024670" lon="14.3174380">
        <ele>566.4</ele>
        <time>2019-08-07T15:15:32Z</time>
      </trkpt>
      <trkpt lat="48.8024670" lon="14.3174380">
        <ele>566.2</ele>
        <time>2019-08-07T15:15:33Z</time>
      </trkpt>
      <trkpt lat="48.8024670" lon="14.3174380">
        <ele>566.2</ele>
        <time>2019-08-07T15:15:34Z</time>
      </trkpt>
      <trkpt lat="48.8024670" lon="14.3174380">
        <ele>566.0</ele>
        <time>2019-08-07T15:15:35Z</time>
      </trkpt>
      <trkpt lat="48.8025140" lon="14.3174630">
        <ele>565.6</ele>
        <time>2019-08-07T15:15:42Z</time>
      </trkpt>
      <trkpt lat="48.8025410" lon="14.3174790">
        <ele>565.4</ele>
        <time>2019-08-07T15:15:43Z</time>
      </trkpt>
      <trkpt lat="48.8025780" lon="14.3175000">
        <ele>565.2</ele>
        <time>2019-08-07T15:15:44Z</time>
      </trkpt>
      <trkpt lat="48.8026110" lon="14.3175220">
        <ele>565.0</ele>
        <time>2019-08-07T15:15:45Z</time>
      </trkpt>
      <trkpt lat="48.8026420" lon="14.3175420">
        <ele>564.6</ele>
        <time>2019-08-07T15:15:46Z</time>
      </trkpt>
      <trkpt lat="48.8026650" lon="14.3175590">
        <ele>564.2</ele>
        <time>2019-08-07T15:15:47Z</time>
      </trkpt>
      <trkpt lat="48.8026890" lon="14.3175790">
        <ele>563.8</ele>
        <time>2019-08-07T15:15:48Z</time>
      </trkpt>
      <trkpt lat="48.8027150" lon="14.3176030">
        <ele>563.4</ele>
        <time>2019-08-07T15:15:49Z</time>
      </trkpt>
      <trkpt lat="48.8027440" lon="14.3176290">
        <ele>563.0</ele>
        <time>2019-08-07T15:15:50Z</time>
      </trkpt>
      <trkpt lat="48.8027760" lon="14.3176590">
        <ele>562.6</ele>
        <time>2019-08-07T15:15:51Z</time>
      </trkpt>
      <trkpt lat="48.8028150" lon="14.3176940">
        <ele>562.2</ele>
        <time>2019-08-07T15:15:52Z</time>
      </trkpt>
      <trkpt lat="48.8028520" lon="14.3177230">
        <ele>561.8</ele>
        <time>2019-08-07T15:15:53Z</time>
      </trkpt>
      <trkpt lat="48.8028880" lon="14.3177490">
        <ele>561.2</ele>
        <time>2019-08-07T15:15:54Z</time>
      </trkpt>
      <trkpt lat="48.8029240" lon="14.3177780">
        <ele>560.8</ele>
        <time>2019-08-07T15:15:55Z</time>
      </trkpt>
      <trkpt lat="48.8029650" lon="14.3178130">
        <ele>560.2</ele>
        <time>2019-08-07T15:15:56Z</time>
      </trkpt>
      <trkpt lat="48.8030060" lon="14.3178510">
        <ele>559.8</ele>
        <time>2019-08-07T15:15:57Z</time>
      </trkpt>
      <trkpt lat="48.8030480" lon="14.3178900">
        <ele>559.2</ele>
        <time>2019-08-07T15:15:58Z</time>
      </trkpt>
      <trkpt lat="48.8030890" lon="14.3179240">
        <ele>558.8</ele>
        <time>2019-08-07T15:15:59Z</time>
      </trkpt>
      <trkpt lat="48.8031290" lon="14.3179540">
        <ele>558.2</ele>
        <time>2019-08-07T15:16:00Z</time>
      </trkpt>
      <trkpt lat="48.8031690" lon="14.3179850">
        <ele>557.8</ele>
        <time>2019-08-07T15:16:01Z</time>
      </trkpt>
      <trkpt lat="48.8032080" lon="14.3180160">
        <ele>557.2</ele>
        <time>2019-08-07T15:16:02Z</time>
      </trkpt>
      <trkpt lat="48.8032460" lon="14.3180440">
        <ele>556.8</ele>
        <time>2019-08-07T15:16:03Z</time>
      </trkpt>
      <trkpt lat="48.8032820" lon="14.3180700">
        <ele>556.4</ele>
        <time>2019-08-07T15:16:04Z</time>
      </trkpt>
      <trkpt lat="48.8033150" lon="14.3180910">
        <ele>555.8</ele>
        <time>2019-08-07T15:16:05Z</time>
      </trkpt>
      <trkpt lat="48.8033460" lon="14.3181080">
        <ele>555.4</ele>
        <time>2019-08-07T15:16:06Z</time>
      </trkpt>
      <trkpt lat="48.8033740" lon="14.3181220">
        <ele>555.0</ele>
        <time>2019-08-07T15:16:07Z</time>
      </trkpt>
      <trkpt lat="48.8033990" lon="14.3181330">
        <ele>554.6</ele>
        <time>2019-08-07T15:16:08Z</time>
      </trkpt>
      <trkpt lat="48.8034230" lon="14.3181440">
        <ele>554.4</ele>
        <time>2019-08-07T15:16:09Z</time>
      </trkpt>
      <trkpt lat="48.8034440" lon="14.3181560">
        <ele>554.0</ele>
        <time>2019-08-07T15:16:10Z</time>
      </trkpt>
      <trkpt lat="48.8034600" lon="14.3181660">
        <ele>553.8</ele>
        <time>2019-08-07T15:16:11Z</time>
      </trkpt>
      <trkpt lat="48.8034890" lon="14.3181850">
        <ele>553.4</ele>
        <time>2019-08-07T15:16:12Z</time>
      </trkpt>
      <trkpt lat="48.8035120" lon="14.3182000">
        <ele>553.2</ele>
        <time>2019-08-07T15:16:13Z</time>
      </trkpt>
      <trkpt lat="48.8035350" lon="14.3182170">
        <ele>553.0</ele>
        <time>2019-08-07T15:16:14Z</time>
      </trkpt>
      <trkpt lat="48.8035560" lon="14.3182320">
        <ele>552.8</ele>
        <time>2019-08-07T15:16:15Z</time>
      </trkpt>
      <trkpt lat="48.8035740" lon="14.3182390">
        <ele>552.6</ele>
        <time>2019-08-07T15:16:16Z</time>
      </trkpt>
      <trkpt lat="48.8035840" lon="14.3182410">
        <ele>552.4</ele>
        <time>2019-08-07T15:16:17Z</time>
      </trkpt>
      <trkpt lat="48.8035890" lon="14.3182440">
        <ele>552.4</ele>
        <time>2019-08-07T15:16:18Z</time>
      </trkpt>
      <trkpt lat="48.8035920" lon="14.3182450">
        <ele>552.2</ele>
        <time>2019-08-07T15:16:19Z</time>
      </trkpt>
      <trkpt lat="48.8035920" lon="14.3182450">
        <ele>552.2</ele>
        <time>2019-08-07T15:16:20Z</time>
      </trkpt>
      <trkpt lat="48.8035920" lon="14.3182450">
        <ele>552.2</ele>
        <time>2019-08-07T15:16:21Z</time>
      </trkpt>
      <trkpt lat="48.8035920" lon="14.3182450">
        <ele>552.2</ele>
        <time>2019-08-07T15:16:22Z</time>
      </trkpt>
      <trkpt lat="48.8035990" lon="14.3181780">
        <ele>551.8</ele>
        <time>2019-08-07T15:17:29Z</time>
      </trkpt>
      <trkpt lat="48.8036000" lon="14.3181450">
        <ele>551.8</ele>
        <time>2019-08-07T15:17:30Z</time>
      </trkpt>
      <trkpt lat="48.8036030" lon="14.3180880">
        <ele>551.6</ele>
        <time>2019-08-07T15:17:31Z</time>
      </trkpt>
      <trkpt lat="48.8036090" lon="14.3180310">
        <ele>551.4</ele>
        <time>2019-08-07T15:17:32Z</time>
      </trkpt>
      <trkpt lat="48.8036170" lon="14.3179690">
        <ele>551.0</ele>
        <time>2019-08-07T15:17:33Z</time>
      </trkpt>
      <trkpt lat="48.8036260" lon="14.3179080">
        <ele>550.6</ele>
        <time>2019-08-07T15:17:34Z</time>
      </trkpt>
      <trkpt lat="48.8036370" lon="14.3178470">
        <ele>550.0</ele>
        <time>2019-08-07T15:17:35Z</time>
      </trkpt>
      <trkpt lat="48.8036500" lon="14.3177820">
        <ele>549.4</ele>
        <time>2019-08-07T15:17:36Z</time>
      </trkpt>
      <trkpt lat="48.8036660" lon="14.3177120">
        <ele>549.0</ele>
        <time>2019-08-07T15:17:37Z</time>
      </trkpt>
      <trkpt lat="48.8036890" lon="14.3176320">
        <ele>548.2</ele>
        <time>2019-08-07T15:17:38Z</time>
      </trkpt>
      <trkpt lat="48.8037170" lon="14.3175450">
        <ele>547.6</ele>
        <time>2019-08-07T15:17:39Z</time>
      </trkpt>
      <trkpt lat="48.8037470" lon="14.3174510">
        <ele>546.8</ele>
        <time>2019-08-07T15:17:40Z</time>
      </trkpt>
      <trkpt lat="48.8037770" lon="14.3173580">
        <ele>546.0</ele>
        <time>2019-08-07T15:17:41Z</time>
      </trkpt>
      <trkpt lat="48.8038090" lon="14.3172610">
        <ele>545.0</ele>
        <time>2019-08-07T15:17:42Z</time>
      </trkpt>
      <trkpt lat="48.8038400" lon="14.3171670">
        <ele>544.0</ele>
        <time>2019-08-07T15:17:43Z</time>
      </trkpt>
      <trkpt lat="48.8038690" lon="14.3170840">
        <ele>543.0</ele>
        <time>2019-08-07T15:17:44Z</time>
      </trkpt>
      <trkpt lat="48.8038950" lon="14.3170030">
        <ele>541.8</ele>
        <time>2019-08-07T15:17:45Z</time>
      </trkpt>
      <trkpt lat="48.8039180" lon="14.3169170">
        <ele>540.8</ele>
        <time>2019-08-07T15:17:46Z</time>
      </trkpt>
      <trkpt lat="48.8039380" lon="14.3168290">
        <ele>539.6</ele>
        <time>2019-08-07T15:17:47Z</time>
      </trkpt>
      <trkpt lat="48.8039610" lon="14.3167400">
        <ele>538.6</ele>
        <time>2019-08-07T15:17:48Z</time>
      </trkpt>
      <trkpt lat="48.8039880" lon="14.3166460">
        <ele>537.8</ele>
        <time>2019-08-07T15:17:49Z</time>
      </trkpt>
      <trkpt lat="48.8040150" lon="14.3165590">
        <ele>536.8</ele>
        <time>2019-08-07T15:17:50Z</time>
      </trkpt>
      <trkpt lat="48.8040470" lon="14.3164730">
        <ele>535.8</ele>
        <time>2019-08-07T15:17:51Z</time>
      </trkpt>
      <trkpt lat="48.8040840" lon="14.3163870">
        <ele>534.8</ele>
        <time>2019-08-07T15:17:52Z</time>
      </trkpt>
      <trkpt lat="48.8041230" lon="14.3163080">
        <ele>534.0</ele>
        <time>2019-08-07T15:17:53Z</time>
      </trkpt>
      <trkpt lat="48.8041840" lon="14.3161990">
        <ele>533.2</ele>
        <time>2019-08-07T15:17:54Z</time>
      </trkpt>
      <trkpt lat="48.8042290" lon="14.3161160">
        <ele>532.2</ele>
        <time>2019-08-07T15:17:55Z</time>
      </trkpt>
      <trkpt lat="48.8042690" lon="14.3160430">
        <ele>531.2</ele>
        <time>2019-08-07T15:17:56Z</time>
      </trkpt>
      <trkpt lat="48.8043090" lon="14.3159720">
        <ele>530.2</ele>
        <time>2019-08-07T15:17:57Z</time>
      </trkpt>
      <trkpt lat="48.8043520" lon="14.3158950">
        <ele>529.4</ele>
        <time>2019-08-07T15:17:58Z</time>
      </trkpt>
      <trkpt lat="48.8043980" lon="14.3158160">
        <ele>528.8</ele>
        <time>2019-08-07T15:17:59Z</time>
      </trkpt>
      <trkpt lat="48.8044480" lon="14.3157310">
        <ele>528.0</ele>
        <time>2019-08-07T15:18:00Z</time>
      </trkpt>
      <trkpt lat="48.8045000" lon="14.3156420">
        <ele>527.2</ele>
        <time>2019-08-07T15:18:01Z</time>
      </trkpt>
      <trkpt lat="48.8045490" lon="14.3155580">
        <ele>526.2</ele>
        <time>2019-08-07T15:18:02Z</time>
      </trkpt>
      <trkpt lat="48.8045930" lon="14.3154770">
        <ele>525.2</ele>
        <time>2019-08-07T15:18:03Z</time>
      </trkpt>
      <trkpt lat="48.8046370" lon="14.3154020">
        <ele>524.2</ele>
        <time>2019-08-07T15:18:04Z</time>
      </trkpt>
      <trkpt lat="48.8046820" lon="14.3153320">
        <ele>523.6</ele>
        <time>2019-08-07T15:18:05Z</time>
      </trkpt>
      <trkpt lat="48.8047270" lon="14.3152660">
        <ele>523.0</ele>
        <time>2019-08-07T15:18:06Z</time>
      </trkpt>
      <trkpt lat="48.8047720" lon="14.3152040">
        <ele>522.2</ele>
        <time>2019-08-07T15:18:07Z</time>
      </trkpt>
      <trkpt lat="48.8048150" lon="14.3151410">
        <ele>521.6</ele>
        <time>2019-08-07T15:18:08Z</time>
      </trkpt>
      <trkpt lat="48.8048650" lon="14.3150720">
        <ele>521.0</ele>
        <time>2019-08-07T15:18:09Z</time>
      </trkpt>
      <trkpt lat="48.8049050" lon="14.3150160">
        <ele>520.4</ele>
        <time>2019-08-07T15:18:10Z</time>
      </trkpt>
      <trkpt lat="48.8049410" lon="14.3149600">
        <ele>519.6</ele>
        <time>2019-08-07T15:18:11Z</time>
      </trkpt>
      <trkpt lat="48.8049790" lon="14.3149010">
        <ele>519.0</ele>
        <time>2019-08-07T15:18:12Z</time>
      </trkpt>
      <trkpt lat="48.8050200" lon="14.3148400">
        <ele>518.4</ele>
        <time>2019-08-07T15:18:13Z</time>
      </trkpt>
      <trkpt lat="48.8050640" lon="14.3147810">
        <ele>517.6</ele>
        <time>2019-08-07T15:18:14Z</time>
      </trkpt>
      <trkpt lat="48.8051050" lon="14.3147270">
        <ele>517.0</ele>
        <time>2019-08-07T15:18:15Z</time>
      </trkpt>
      <trkpt lat="48.8051420" lon="14.3146800">
        <ele>516.4</ele>
        <time>2019-08-07T15:18:16Z</time>
      </trkpt>
      <trkpt lat="48.8051770" lon="14.3146370">
        <ele>515.8</ele>
        <time>2019-08-07T15:18:17Z</time>
      </trkpt>
      <trkpt lat="48.8052110" lon="14.3145990">
        <ele>515.2</ele>
        <time>2019-08-07T15:18:18Z</time>
      </trkpt>
      <trkpt lat="48.8052470" lon="14.3145630">
        <ele>514.6</ele>
        <time>2019-08-07T15:18:19Z</time>
      </trkpt>
      <trkpt lat="48.8052840" lon="14.3145270">
        <ele>514.0</ele>
        <time>2019-08-07T15:18:20Z</time>
      </trkpt>
      <trkpt lat="48.8053230" lon="14.3144910">
        <ele>513.6</ele>
        <time>2019-08-07T15:18:21Z</time>
      </trkpt>
      <trkpt lat="48.8053610" lon="14.3144520">
        <ele>513.0</ele>
        <time>2019-08-07T15:18:22Z</time>
      </trkpt>
      <trkpt lat="48.8053950" lon="14.3144160">
        <ele>512.4</ele>
        <time>2019-08-07T15:18:23Z</time>
      </trkpt>
      <trkpt lat="48.8054240" lon="14.3143820">
        <ele>511.8</ele>
        <time>2019-08-07T15:18:24Z</time>
      </trkpt>
      <trkpt lat="48.8054530" lon="14.3143520">
        <ele>511.2</ele>
        <time>2019-08-07T15:18:25Z</time>
      </trkpt>
      <trkpt lat="48.8054830" lon="14.3143210">
        <ele>510.8</ele>
        <time>2019-08-07T15:18:26Z</time>
      </trkpt>
      <trkpt lat="48.8055110" lon="14.3142880">
        <ele>510.2</ele>
        <time>2019-08-07T15:18:27Z</time>
      </trkpt>
      <trkpt lat="48.8055410" lon="14.3142560">
        <ele>509.6</ele>
        <time>2019-08-07T15:18:28Z</time>
      </trkpt>
      <trkpt lat="48.8055660" lon="14.3142280">
        <ele>509.2</ele>
        <time>2019-08-07T15:18:29Z</time>
      </trkpt>
      <trkpt lat="48.8055870" lon="14.3142040">
        <ele>508.6</ele>
        <time>2019-08-07T15:18:30Z</time>
      </trkpt>
      <trkpt lat="48.8056030" lon="14.3141850">
        <ele>508.2</ele>
        <time>2019-08-07T15:18:31Z</time>
      </trkpt>
      <trkpt lat="48.8056180" lon="14.3141680">
        <ele>507.8</ele>
        <time>2019-08-07T15:18:32Z</time>
      </trkpt>
      <trkpt lat="48.8056330" lon="14.3141540">
        <ele>507.4</ele>
        <time>2019-08-07T15:18:33Z</time>
      </trkpt>
      <trkpt lat="48.8056470" lon="14.3141390">
        <ele>507.2</ele>
        <time>2019-08-07T15:18:34Z</time>
      </trkpt>
      <trkpt lat="48.8056650" lon="14.3141210">
        <ele>506.8</ele>
        <time>2019-08-07T15:18:35Z</time>
      </trkpt>
      <trkpt lat="48.8056800" lon="14.3141050">
        <ele>506.4</ele>
        <time>2019-08-07T15:18:36Z</time>
      </trkpt>
      <trkpt lat="48.8056950" lon="14.3140900">
        <ele>506.0</ele>
        <time>2019-08-07T15:18:37Z</time>
      </trkpt>
      <trkpt lat="48.8057080" lon="14.3140730">
        <ele>505.8</ele>
        <time>2019-08-07T15:18:38Z</time>
      </trkpt>
      <trkpt lat="48.8057220" lon="14.3140590">
        <ele>505.4</ele>
        <time>2019-08-07T15:18:39Z</time>
      </trkpt>
      <trkpt lat="48.8057360" lon="14.3140460">
        <ele>505.0</ele>
        <time>2019-08-07T15:18:40Z</time>
      </trkpt>
      <trkpt lat="48.8057500" lon="14.3140370">
        <ele>504.8</ele>
        <time>2019-08-07T15:18:41Z</time>
      </trkpt>
      <trkpt lat="48.8057640" lon="14.3140310">
        <ele>504.6</ele>
        <time>2019-08-07T15:18:42Z</time>
      </trkpt>
      <trkpt lat="48.8057770" lon="14.3140260">
        <ele>504.2</ele>
        <time>2019-08-07T15:18:43Z</time>
      </trkpt>
      <trkpt lat="48.8057860" lon="14.3140240">
        <ele>504.0</ele>
        <time>2019-08-07T15:18:44Z</time>
      </trkpt>
      <trkpt lat="48.8057930" lon="14.3140210">
        <ele>503.8</ele>
        <time>2019-08-07T15:18:45Z</time>
      </trkpt>
      <trkpt lat="48.8057980" lon="14.3140170">
        <ele>503.6</ele>
        <time>2019-08-07T15:18:46Z</time>
      </trkpt>
      <trkpt lat="48.8058030" lon="14.3140150">
        <ele>503.4</ele>
        <time>2019-08-07T15:18:47Z</time>
      </trkpt>
      <trkpt lat="48.8058230" lon="14.3140070">
        <ele>503.0</ele>
        <time>2019-08-07T15:18:48Z</time>
      </trkpt>
      <trkpt lat="48.8058290" lon="14.3140010">
        <ele>502.8</ele>
        <time>2019-08-07T15:18:49Z</time>
      </trkpt>
      <trkpt lat="48.8058320" lon="14.3139990">
        <ele>502.6</ele>
        <time>2019-08-07T15:18:50Z</time>
      </trkpt>
      <trkpt lat="48.8058330" lon="14.3140000">
        <ele>502.6</ele>
        <time>2019-08-07T15:18:51Z</time>
      </trkpt>
      <trkpt lat="48.8058330" lon="14.3140000">
        <ele>502.6</ele>
        <time>2019-08-07T15:18:52Z</time>
      </trkpt>
      <trkpt lat="48.8058330" lon="14.3140000">
        <ele>502.4</ele>
        <time>2019-08-07T15:18:53Z</time>
      </trkpt>
      <trkpt lat="48.8058570" lon="14.3139890">
        <ele>502.2</ele>
        <time>2019-08-07T15:19:08Z</time>
      </trkpt>
      <trkpt lat="48.8058730" lon="14.3139770">
        <ele>502.2</ele>
        <time>2019-08-07T15:19:09Z</time>
      </trkpt>
      <trkpt lat="48.8058840" lon="14.3139470">
        <ele>502.0</ele>
        <time>2019-08-07T15:19:10Z</time>
      </trkpt>
      <trkpt lat="48.8058880" lon="14.3139130">
        <ele>502.0</ele>
        <time>2019-08-07T15:19:11Z</time>
      </trkpt>
      <trkpt lat="48.8058860" lon="14.3138750">
        <ele>502.0</ele>
        <time>2019-08-07T15:19:12Z</time>
      </trkpt>
      <trkpt lat="48.8058800" lon="14.3138350">
        <ele>502.0</ele>
        <time>2019-08-07T15:19:13Z</time>
      </trkpt>
      <trkpt lat="48.8058710" lon="14.3137950">
        <ele>501.8</ele>
        <time>2019-08-07T15:19:14Z</time>
      </trkpt>
      <trkpt lat="48.8058610" lon="14.3137540">
        <ele>501.8</ele>
        <time>2019-08-07T15:19:15Z</time>
      </trkpt>
      <trkpt lat="48.8058510" lon="14.3137120">
        <ele>501.8</ele>
        <time>2019-08-07T15:19:16Z</time>
      </trkpt>
      <trkpt lat="48.8058400" lon="14.3136690">
        <ele>501.8</ele>
        <time>2019-08-07T15:19:17Z</time>
      </trkpt>
      <trkpt lat="48.8058330" lon="14.3136250">
        <ele>501.8</ele>
        <time>2019-08-07T15:19:18Z</time>
      </trkpt>
      <trkpt lat="48.8058360" lon="14.3135780">
        <ele>501.6</ele>
        <time>2019-08-07T15:19:19Z</time>
      </trkpt>
      <trkpt lat="48.8058520" lon="14.3135430">
        <ele>501.6</ele>
        <time>2019-08-07T15:19:20Z</time>
      </trkpt>
      <trkpt lat="48.8058730" lon="14.3135290">
        <ele>501.6</ele>
        <time>2019-08-07T15:19:21Z</time>
      </trkpt>
      <trkpt lat="48.8058920" lon="14.3135320">
        <ele>501.6</ele>
        <time>2019-08-07T15:19:22Z</time>
      </trkpt>
      <trkpt lat="48.8059100" lon="14.3135440">
        <ele>501.6</ele>
        <time>2019-08-07T15:19:23Z</time>
      </trkpt>
      <trkpt lat="48.8059250" lon="14.3135590">
        <ele>501.6</ele>
        <time>2019-08-07T15:19:24Z</time>
      </trkpt>
      <trkpt lat="48.8059380" lon="14.3135760">
        <ele>501.6</ele>
        <time>2019-08-07T15:19:25Z</time>
      </trkpt>
      <trkpt lat="48.8059530" lon="14.3135950">
        <ele>501.6</ele>
        <time>2019-08-07T15:19:26Z</time>
      </trkpt>
      <trkpt lat="48.8059680" lon="14.3136200">
        <ele>501.6</ele>
        <time>2019-08-07T15:19:27Z</time>
      </trkpt>
      <trkpt lat="48.8059810" lon="14.3136510">
        <ele>501.6</ele>
        <time>2019-08-07T15:19:28Z</time>
      </trkpt>
      <trkpt lat="48.8059950" lon="14.3136910">
        <ele>501.6</ele>
        <time>2019-08-07T15:19:29Z</time>
      </trkpt>
      <trkpt lat="48.8060080" lon="14.3137340">
        <ele>501.6</ele>
        <time>2019-08-07T15:19:30Z</time>
      </trkpt>
      <trkpt lat="48.8060200" lon="14.3137790">
        <ele>501.4</ele>
        <time>2019-08-07T15:19:31Z</time>
      </trkpt>
      <trkpt lat="48.8060340" lon="14.3138260">
        <ele>501.4</ele>
        <time>2019-08-07T15:19:32Z</time>
      </trkpt>
      <trkpt lat="48.8060500" lon="14.3138760">
        <ele>501.4</ele>
        <time>2019-08-07T15:19:33Z</time>
      </trkpt>
      <trkpt lat="48.8060670" lon="14.3139300">
        <ele>501.2</ele>
        <time>2019-08-07T15:19:34Z</time>
      </trkpt>
      <trkpt lat="48.8060840" lon="14.3139920">
        <ele>501.2</ele>
        <time>2019-08-07T15:19:35Z</time>
      </trkpt>
      <trkpt lat="48.8061000" lon="14.3140570">
        <ele>501.0</ele>
        <time>2019-08-07T15:19:36Z</time>
      </trkpt>
      <trkpt lat="48.8061170" lon="14.3141260">
        <ele>500.8</ele>
        <time>2019-08-07T15:19:37Z</time>
      </trkpt>
      <trkpt lat="48.8061340" lon="14.3141970">
        <ele>500.8</ele>
        <time>2019-08-07T15:19:38Z</time>
      </trkpt>
      <trkpt lat="48.8061530" lon="14.3142720">
        <ele>500.6</ele>
        <time>2019-08-07T15:19:39Z</time>
      </trkpt>
      <trkpt lat="48.8061740" lon="14.3143480">
        <ele>500.6</ele>
        <time>2019-08-07T15:19:40Z</time>
      </trkpt>
      <trkpt lat="48.8061920" lon="14.3144260">
        <ele>500.4</ele>
        <time>2019-08-07T15:19:41Z</time>
      </trkpt>
      <trkpt lat="48.8062110" lon="14.3145050">
        <ele>500.4</ele>
        <time>2019-08-07T15:19:42Z</time>
      </trkpt>
      <trkpt lat="48.8062280" lon="14.3145870">
        <ele>500.2</ele>
        <time>2019-08-07T15:19:43Z</time>
      </trkpt>
      <trkpt lat="48.8062430" lon="14.3146680">
        <ele>500.0</ele>
        <time>2019-08-07T15:19:44Z</time>
      </trkpt>
      <trkpt lat="48.8062580" lon="14.3147470">
        <ele>499.8</ele>
        <time>2019-08-07T15:19:45Z</time>
      </trkpt>
      <trkpt lat="48.8062730" lon="14.3148270">
        <ele>499.6</ele>
        <time>2019-08-07T15:19:46Z</time>
      </trkpt>
      <trkpt lat="48.8062860" lon="14.3149020">
        <ele>499.6</ele>
        <time>2019-08-07T15:19:47Z</time>
      </trkpt>
      <trkpt lat="48.8062990" lon="14.3149700">
        <ele>499.4</ele>
        <time>2019-08-07T15:19:48Z</time>
      </trkpt>
      <trkpt lat="48.8063120" lon="14.3150540">
        <ele>499.4</ele>
        <time>2019-08-07T15:19:49Z</time>
      </trkpt>
      <trkpt lat="48.8063240" lon="14.3151360">
        <ele>499.4</ele>
        <time>2019-08-07T15:19:50Z</time>
      </trkpt>
      <trkpt lat="48.8063330" lon="14.3152130">
        <ele>499.2</ele>
        <time>2019-08-07T15:19:51Z</time>
      </trkpt>
      <trkpt lat="48.8063440" lon="14.3152890">
        <ele>499.2</ele>
        <time>2019-08-07T15:19:52Z</time>
      </trkpt>
      <trkpt lat="48.8063550" lon="14.3153640">
        <ele>499.2</ele>
        <time>2019-08-07T15:19:53Z</time>
      </trkpt>
      <trkpt lat="48.8063610" lon="14.3154370">
        <ele>499.2</ele>
        <time>2019-08-07T15:19:54Z</time>
      </trkpt>
      <trkpt lat="48.8063640" lon="14.3155030">
        <ele>499.0</ele>
        <time>2019-08-07T15:19:55Z</time>
      </trkpt>
      <trkpt lat="48.8063680" lon="14.3155670">
        <ele>499.0</ele>
        <time>2019-08-07T15:19:56Z</time>
      </trkpt>
      <trkpt lat="48.8063740" lon="14.3156280">
        <ele>499.0</ele>
        <time>2019-08-07T15:19:57Z</time>
      </trkpt>
      <trkpt lat="48.8063800" lon="14.3156890">
        <ele>498.8</ele>
        <time>2019-08-07T15:19:58Z</time>
      </trkpt>
      <trkpt lat="48.8063880" lon="14.3157550">
        <ele>498.8</ele>
        <time>2019-08-07T15:19:59Z</time>
      </trkpt>
      <trkpt lat="48.8063930" lon="14.3158220">
        <ele>498.6</ele>
        <time>2019-08-07T15:20:00Z</time>
      </trkpt>
      <trkpt lat="48.8064010" lon="14.3158930">
        <ele>498.4</ele>
        <time>2019-08-07T15:20:01Z</time>
      </trkpt>
      <trkpt lat="48.8064100" lon="14.3159670">
        <ele>498.4</ele>
        <time>2019-08-07T15:20:02Z</time>
      </trkpt>
      <trkpt lat="48.8064190" lon="14.3160440">
        <ele>498.2</ele>
        <time>2019-08-07T15:20:03Z</time>
      </trkpt>
      <trkpt lat="48.8064290" lon="14.3161270">
        <ele>498.2</ele>
        <time>2019-08-07T15:20:04Z</time>
      </trkpt>
      <trkpt lat="48.8064370" lon="14.3162100">
        <ele>498.0</ele>
        <time>2019-08-07T15:20:05Z</time>
      </trkpt>
      <trkpt lat="48.8064480" lon="14.3162950">
        <ele>498.0</ele>
        <time>2019-08-07T15:20:06Z</time>
      </trkpt>
      <trkpt lat="48.8064530" lon="14.3163760">
        <ele>497.8</ele>
        <time>2019-08-07T15:20:07Z</time>
      </trkpt>
      <trkpt lat="48.8064590" lon="14.3164630">
        <ele>497.8</ele>
        <time>2019-08-07T15:20:08Z</time>
      </trkpt>
      <trkpt lat="48.8064630" lon="14.3165530">
        <ele>497.8</ele>
        <time>2019-08-07T15:20:09Z</time>
      </trkpt>
      <trkpt lat="48.8064640" lon="14.3166390">
        <ele>497.8</ele>
        <time>2019-08-07T15:20:10Z</time>
      </trkpt>
      <trkpt lat="48.8064680" lon="14.3167230">
        <ele>497.8</ele>
        <time>2019-08-07T15:20:11Z</time>
      </trkpt>
      <trkpt lat="48.8064730" lon="14.3168020">
        <ele>497.8</ele>
        <time>2019-08-07T15:20:12Z</time>
      </trkpt>
      <trkpt lat="48.8064770" lon="14.3168810">
        <ele>497.8</ele>
        <time>2019-08-07T15:20:13Z</time>
      </trkpt>
      <trkpt lat="48.8064810" lon="14.3169600">
        <ele>497.8</ele>
        <time>2019-08-07T15:20:14Z</time>
      </trkpt>
      <trkpt lat="48.8064880" lon="14.3170300">
        <ele>498.0</ele>
        <time>2019-08-07T15:20:15Z</time>
      </trkpt>
      <trkpt lat="48.8064930" lon="14.3171030">
        <ele>498.0</ele>
        <time>2019-08-07T15:20:16Z</time>
      </trkpt>
      <trkpt lat="48.8064980" lon="14.3171720">
        <ele>498.2</ele>
        <time>2019-08-07T15:20:17Z</time>
      </trkpt>
      <trkpt lat="48.8065030" lon="14.3172410">
        <ele>498.4</ele>
        <time>2019-08-07T15:20:18Z</time>
      </trkpt>
      <trkpt lat="48.8065080" lon="14.3173060">
        <ele>498.4</ele>
        <time>2019-08-07T15:20:19Z</time>
      </trkpt>
      <trkpt lat="48.8065180" lon="14.3173690">
        <ele>498.6</ele>
        <time>2019-08-07T15:20:20Z</time>
      </trkpt>
      <trkpt lat="48.8065300" lon="14.3174260">
        <ele>498.6</ele>
        <time>2019-08-07T15:20:21Z</time>
      </trkpt>
      <trkpt lat="48.8065440" lon="14.3174800">
        <ele>498.8</ele>
        <time>2019-08-07T15:20:22Z</time>
      </trkpt>
      <trkpt lat="48.8065630" lon="14.3175250">
        <ele>498.8</ele>
        <time>2019-08-07T15:20:23Z</time>
      </trkpt>
      <trkpt lat="48.8065870" lon="14.3175600">
        <ele>499.0</ele>
        <time>2019-08-07T15:20:24Z</time>
      </trkpt>
      <trkpt lat="48.8066120" lon="14.3175880">
        <ele>499.2</ele>
        <time>2019-08-07T15:20:25Z</time>
      </trkpt>
      <trkpt lat="48.8066390" lon="14.3176110">
        <ele>499.2</ele>
        <time>2019-08-07T15:20:26Z</time>
      </trkpt>
      <trkpt lat="48.8066680" lon="14.3176300">
        <ele>499.4</ele>
        <time>2019-08-07T15:20:27Z</time>
      </trkpt>
      <trkpt lat="48.8066970" lon="14.3176460">
        <ele>499.4</ele>
        <time>2019-08-07T15:20:28Z</time>
      </trkpt>
      <trkpt lat="48.8067270" lon="14.3176620">
        <ele>499.6</ele>
        <time>2019-08-07T15:20:29Z</time>
      </trkpt>
      <trkpt lat="48.8067580" lon="14.3176760">
        <ele>499.6</ele>
        <time>2019-08-07T15:20:30Z</time>
      </trkpt>
      <trkpt lat="48.8067890" lon="14.3176880">
        <ele>499.8</ele>
        <time>2019-08-07T15:20:31Z</time>
      </trkpt>
      <trkpt lat="48.8068190" lon="14.3177030">
        <ele>499.8</ele>
        <time>2019-08-07T15:20:32Z</time>
      </trkpt>
      <trkpt lat="48.8068500" lon="14.3177170">
        <ele>499.8</ele>
        <time>2019-08-07T15:20:33Z</time>
      </trkpt>
      <trkpt lat="48.8068830" lon="14.3177310">
        <ele>499.8</ele>
        <time>2019-08-07T15:20:34Z</time>
      </trkpt>
      <trkpt lat="48.8069150" lon="14.3177440">
        <ele>499.8</ele>
        <time>2019-08-07T15:20:35Z</time>
      </trkpt>
      <trkpt lat="48.8069470" lon="14.3177560">
        <ele>499.8</ele>
        <time>2019-08-07T15:20:36Z</time>
      </trkpt>
      <trkpt lat="48.8069790" lon="14.3177700">
        <ele>499.8</ele>
        <time>2019-08-07T15:20:37Z</time>
      </trkpt>
      <trkpt lat="48.8070180" lon="14.3177850">
        <ele>499.8</ele>
        <time>2019-08-07T15:20:38Z</time>
      </trkpt>
      <trkpt lat="48.8070530" lon="14.3177980">
        <ele>499.8</ele>
        <time>2019-08-07T15:20:39Z</time>
      </trkpt>
      <trkpt lat="48.8070880" lon="14.3178130">
        <ele>499.6</ele>
        <time>2019-08-07T15:20:40Z</time>
      </trkpt>
      <trkpt lat="48.8071260" lon="14.3178260">
        <ele>499.6</ele>
        <time>2019-08-07T15:20:41Z</time>
      </trkpt>
      <trkpt lat="48.8071640" lon="14.3178410">
        <ele>499.6</ele>
        <time>2019-08-07T15:20:42Z</time>
      </trkpt>
      <trkpt lat="48.8072050" lon="14.3178560">
        <ele>499.6</ele>
        <time>2019-08-07T15:20:43Z</time>
      </trkpt>
      <trkpt lat="48.8072470" lon="14.3178720">
        <ele>499.4</ele>
        <time>2019-08-07T15:20:44Z</time>
      </trkpt>
      <trkpt lat="48.8072920" lon="14.3178880">
        <ele>499.4</ele>
        <time>2019-08-07T15:20:45Z</time>
      </trkpt>
      <trkpt lat="48.8073360" lon="14.3179010">
        <ele>499.2</ele>
        <time>2019-08-07T15:20:46Z</time>
      </trkpt>
      <trkpt lat="48.8073790" lon="14.3179150">
        <ele>499.2</ele>
        <time>2019-08-07T15:20:47Z</time>
      </trkpt>
      <trkpt lat="48.8074220" lon="14.3179320">
        <ele>499.0</ele>
        <time>2019-08-07T15:20:48Z</time>
      </trkpt>
      <trkpt lat="48.8074660" lon="14.3179500">
        <ele>499.2</ele>
        <time>2019-08-07T15:20:49Z</time>
      </trkpt>
      <trkpt lat="48.8075070" lon="14.3179660">
        <ele>499.2</ele>
        <time>2019-08-07T15:20:50Z</time>
      </trkpt>
      <trkpt lat="48.8075470" lon="14.3179780">
        <ele>499.2</ele>
        <time>2019-08-07T15:20:51Z</time>
      </trkpt>
      <trkpt lat="48.8075840" lon="14.3179890">
        <ele>499.2</ele>
        <time>2019-08-07T15:20:52Z</time>
      </trkpt>
      <trkpt lat="48.8076250" lon="14.3180020">
        <ele>499.2</ele>
        <time>2019-08-07T15:20:53Z</time>
      </trkpt>
      <trkpt lat="48.8076610" lon="14.3180130">
        <ele>499.2</ele>
        <time>2019-08-07T15:20:54Z</time>
      </trkpt>
      <trkpt lat="48.8076960" lon="14.3180250">
        <ele>499.4</ele>
        <time>2019-08-07T15:20:55Z</time>
      </trkpt>
      <trkpt lat="48.8077310" lon="14.3180360">
        <ele>499.6</ele>
        <time>2019-08-07T15:20:56Z</time>
      </trkpt>
      <trkpt lat="48.8077650" lon="14.3180490">
        <ele>499.6</ele>
        <time>2019-08-07T15:20:57Z</time>
      </trkpt>
      <trkpt lat="48.8077970" lon="14.3180580">
        <ele>499.8</ele>
        <time>2019-08-07T15:20:58Z</time>
      </trkpt>
      <trkpt lat="48.8078300" lon="14.3180660">
        <ele>499.8</ele>
        <time>2019-08-07T15:20:59Z</time>
      </trkpt>
      <trkpt lat="48.8078620" lon="14.3180730">
        <ele>499.8</ele>
        <time>2019-08-07T15:21:00Z</time>
      </trkpt>
      <trkpt lat="48.8078950" lon="14.3180810">
        <ele>499.8</ele>
        <time>2019-08-07T15:21:01Z</time>
      </trkpt>
      <trkpt lat="48.8079270" lon="14.3180810">
        <ele>500.0</ele>
        <time>2019-08-07T15:21:02Z</time>
      </trkpt>
      <trkpt lat="48.8079560" lon="14.3180730">
        <ele>500.0</ele>
        <time>2019-08-07T15:21:03Z</time>
      </trkpt>
      <trkpt lat="48.8079900" lon="14.3180690">
        <ele>500.0</ele>
        <time>2019-08-07T15:21:04Z</time>
      </trkpt>
      <trkpt lat="48.8080220" lon="14.3180610">
        <ele>500.0</ele>
        <time>2019-08-07T15:21:05Z</time>
      </trkpt>
      <trkpt lat="48.8080560" lon="14.3180460">
        <ele>500.2</ele>
        <time>2019-08-07T15:21:06Z</time>
      </trkpt>
      <trkpt lat="48.8080850" lon="14.3180250">
        <ele>500.2</ele>
        <time>2019-08-07T15:21:07Z</time>
      </trkpt>
      <trkpt lat="48.8081120" lon="14.3179940">
        <ele>500.4</ele>
        <time>2019-08-07T15:21:08Z</time>
      </trkpt>
      <trkpt lat="48.8081430" lon="14.3179680">
        <ele>500.4</ele>
        <time>2019-08-07T15:21:09Z</time>
      </trkpt>
      <trkpt lat="48.8081730" lon="14.3179340">
        <ele>500.6</ele>
        <time>2019-08-07T15:21:10Z</time>
      </trkpt>
      <trkpt lat="48.8081950" lon="14.3178920">
        <ele>500.6</ele>
        <time>2019-08-07T15:21:11Z</time>
      </trkpt>
      <trkpt lat="48.8082040" lon="14.3178460">
        <ele>500.6</ele>
        <time>2019-08-07T15:21:12Z</time>
      </trkpt>
      <trkpt lat="48.8082110" lon="14.3177910">
        <ele>500.6</ele>
        <time>2019-08-07T15:21:13Z</time>
      </trkpt>
      <trkpt lat="48.8082170" lon="14.3177430">
        <ele>500.8</ele>
        <time>2019-08-07T15:21:14Z</time>
      </trkpt>
      <trkpt lat="48.8082190" lon="14.3176920">
        <ele>500.8</ele>
        <time>2019-08-07T15:21:15Z</time>
      </trkpt>
      <trkpt lat="48.8082240" lon="14.3176440">
        <ele>500.8</ele>
        <time>2019-08-07T15:21:16Z</time>
      </trkpt>
      <trkpt lat="48.8082300" lon="14.3175930">
        <ele>500.8</ele>
        <time>2019-08-07T15:21:17Z</time>
      </trkpt>
      <trkpt lat="48.8082370" lon="14.3175470">
        <ele>500.8</ele>
        <time>2019-08-07T15:21:18Z</time>
      </trkpt>
      <trkpt lat="48.8082470" lon="14.3174960">
        <ele>500.8</ele>
        <time>2019-08-07T15:21:19Z</time>
      </trkpt>
      <trkpt lat="48.8082550" lon="14.3174470">
        <ele>500.8</ele>
        <time>2019-08-07T15:21:20Z</time>
      </trkpt>
      <trkpt lat="48.8082630" lon="14.3173970">
        <ele>500.8</ele>
        <time>2019-08-07T15:21:21Z</time>
      </trkpt>
      <trkpt lat="48.8082700" lon="14.3173480">
        <ele>500.8</ele>
        <time>2019-08-07T15:21:22Z</time>
      </trkpt>
      <trkpt lat="48.8082780" lon="14.3172950">
        <ele>500.8</ele>
        <time>2019-08-07T15:21:23Z</time>
      </trkpt>
      <trkpt lat="48.8082860" lon="14.3172420">
        <ele>500.8</ele>
        <time>2019-08-07T15:21:24Z</time>
      </trkpt>
      <trkpt lat="48.8082940" lon="14.3171880">
        <ele>500.6</ele>
        <time>2019-08-07T15:21:25Z</time>
      </trkpt>
      <trkpt lat="48.8083070" lon="14.3171330">
        <ele>500.6</ele>
        <time>2019-08-07T15:21:26Z</time>
      </trkpt>
      <trkpt lat="48.8083240" lon="14.3170770">
        <ele>500.4</ele>
        <time>2019-08-07T15:21:27Z</time>
      </trkpt>
      <trkpt lat="48.8083430" lon="14.3170250">
        <ele>500.4</ele>
        <time>2019-08-07T15:21:28Z</time>
      </trkpt>
      <trkpt lat="48.8083670" lon="14.3169700">
        <ele>500.2</ele>
        <time>2019-08-07T15:21:29Z</time>
      </trkpt>
      <trkpt lat="48.8083940" lon="14.3169190">
        <ele>500.0</ele>
        <time>2019-08-07T15:21:30Z</time>
      </trkpt>
      <trkpt lat="48.8084260" lon="14.3168690">
        <ele>499.8</ele>
        <time>2019-08-07T15:21:31Z</time>
      </trkpt>
      <trkpt lat="48.8084610" lon="14.3168190">
        <ele>499.6</ele>
        <time>2019-08-07T15:21:32Z</time>
      </trkpt>
      <trkpt lat="48.8084990" lon="14.3167670">
        <ele>499.4</ele>
        <time>2019-08-07T15:21:33Z</time>
      </trkpt>
      <trkpt lat="48.8085360" lon="14.3167060">
        <ele>499.2</ele>
        <time>2019-08-07T15:21:34Z</time>
      </trkpt>
      <trkpt lat="48.8085680" lon="14.3166410">
        <ele>499.0</ele>
        <time>2019-08-07T15:21:35Z</time>
      </trkpt>
      <trkpt lat="48.8085960" lon="14.3165650">
        <ele>498.8</ele>
        <time>2019-08-07T15:21:36Z</time>
      </trkpt>
      <trkpt lat="48.8086220" lon="14.3164850">
        <ele>498.6</ele>
        <time>2019-08-07T15:21:37Z</time>
      </trkpt>
      <trkpt lat="48.8086450" lon="14.3164010">
        <ele>498.4</ele>
        <time>2019-08-07T15:21:38Z</time>
      </trkpt>
      <trkpt lat="48.8086670" lon="14.3163160">
        <ele>498.2</ele>
        <time>2019-08-07T15:21:39Z</time>
      </trkpt>
      <trkpt lat="48.8086820" lon="14.3162270">
        <ele>498.2</ele>
        <time>2019-08-07T15:21:40Z</time>
      </trkpt>
      <trkpt lat="48.8086910" lon="14.3161380">
        <ele>498.0</ele>
        <time>2019-08-07T15:21:41Z</time>
      </trkpt>
      <trkpt lat="48.8087010" lon="14.3160500">
        <ele>497.8</ele>
        <time>2019-08-07T15:21:42Z</time>
      </trkpt>
      <trkpt lat="48.8087170" lon="14.3159630">
        <ele>497.6</ele>
        <time>2019-08-07T15:21:43Z</time>
      </trkpt>
      <trkpt lat="48.8087350" lon="14.3158760">
        <ele>497.4</ele>
        <time>2019-08-07T15:21:44Z</time>
      </trkpt>
      <trkpt lat="48.8087500" lon="14.3157900">
        <ele>497.2</ele>
        <time>2019-08-07T15:21:45Z</time>
      </trkpt>
      <trkpt lat="48.8087600" lon="14.3157000">
        <ele>497.0</ele>
        <time>2019-08-07T15:21:46Z</time>
      </trkpt>
      <trkpt lat="48.8087680" lon="14.3156160">
        <ele>497.0</ele>
        <time>2019-08-07T15:21:47Z</time>
      </trkpt>
      <trkpt lat="48.8087770" lon="14.3155280">
        <ele>496.8</ele>
        <time>2019-08-07T15:21:48Z</time>
      </trkpt>
      <trkpt lat="48.8087890" lon="14.3154410">
        <ele>496.8</ele>
        <time>2019-08-07T15:21:49Z</time>
      </trkpt>
      <trkpt lat="48.8088010" lon="14.3153590">
        <ele>496.6</ele>
        <time>2019-08-07T15:21:50Z</time>
      </trkpt>
      <trkpt lat="48.8088120" lon="14.3152810">
        <ele>496.6</ele>
        <time>2019-08-07T15:21:51Z</time>
      </trkpt>
      <trkpt lat="48.8088240" lon="14.3152070">
        <ele>496.4</ele>
        <time>2019-08-07T15:21:52Z</time>
      </trkpt>
      <trkpt lat="48.8088340" lon="14.3151420">
        <ele>496.4</ele>
        <time>2019-08-07T15:21:53Z</time>
      </trkpt>
      <trkpt lat="48.8088480" lon="14.3150870">
        <ele>496.2</ele>
        <time>2019-08-07T15:21:54Z</time>
      </trkpt>
      <trkpt lat="48.8088620" lon="14.3150390">
        <ele>496.2</ele>
        <time>2019-08-07T15:21:55Z</time>
      </trkpt>
      <trkpt lat="48.8088810" lon="14.3149980">
        <ele>496.2</ele>
        <time>2019-08-07T15:21:56Z</time>
      </trkpt>
      <trkpt lat="48.8089030" lon="14.3149600">
        <ele>496.2</ele>
        <time>2019-08-07T15:21:57Z</time>
      </trkpt>
      <trkpt lat="48.8089230" lon="14.3149320">
        <ele>496.2</ele>
        <time>2019-08-07T15:21:58Z</time>
      </trkpt>
      <trkpt lat="48.8089470" lon="14.3149160">
        <ele>496.4</ele>
        <time>2019-08-07T15:21:59Z</time>
      </trkpt>
      <trkpt lat="48.8089730" lon="14.3149070">
        <ele>496.4</ele>
        <time>2019-08-07T15:22:00Z</time>
      </trkpt>
      <trkpt lat="48.8089980" lon="14.3149000">
        <ele>496.4</ele>
        <time>2019-08-07T15:22:01Z</time>
      </trkpt>
      <trkpt lat="48.8090190" lon="14.3148950">
        <ele>496.6</ele>
        <time>2019-08-07T15:22:02Z</time>
      </trkpt>
      <trkpt lat="48.8090380" lon="14.3148930">
        <ele>496.6</ele>
        <time>2019-08-07T15:22:03Z</time>
      </trkpt>
      <trkpt lat="48.8090570" lon="14.3148910">
        <ele>496.6</ele>
        <time>2019-08-07T15:22:04Z</time>
      </trkpt>
      <trkpt lat="48.8090720" lon="14.3148900">
        <ele>496.8</ele>
        <time>2019-08-07T15:22:05Z</time>
      </trkpt>
      <trkpt lat="48.8090840" lon="14.3148880">
        <ele>496.8</ele>
        <time>2019-08-07T15:22:06Z</time>
      </trkpt>
      <trkpt lat="48.8090920" lon="14.3148870">
        <ele>496.8</ele>
        <time>2019-08-07T15:22:07Z</time>
      </trkpt>
      <trkpt lat="48.8090920" lon="14.3148870">
        <ele>496.8</ele>
        <time>2019-08-07T15:22:08Z</time>
      </trkpt>
      <trkpt lat="48.8090920" lon="14.3148900">
        <ele>496.8</ele>
        <time>2019-08-07T15:22:09Z</time>
      </trkpt>
      <trkpt lat="48.8090920" lon="14.3148900">
        <ele>496.8</ele>
        <time>2019-08-07T15:22:10Z</time>
      </trkpt>
      <trkpt lat="48.8090920" lon="14.3148900">
        <ele>497.0</ele>
        <time>2019-08-07T15:23:05Z</time>
      </trkpt>
      <trkpt lat="48.8090960" lon="14.3148860">
        <ele>497.0</ele>
        <time>2019-08-07T15:23:06Z</time>
      </trkpt>
      <trkpt lat="48.8091150" lon="14.3148700">
        <ele>497.0</ele>
        <time>2019-08-07T15:23:07Z</time>
      </trkpt>
      <trkpt lat="48.8091350" lon="14.3148560">
        <ele>497.0</ele>
        <time>2019-08-07T15:23:08Z</time>
      </trkpt>
      <trkpt lat="48.8091650" lon="14.3148060">
        <ele>497.0</ele>
        <time>2019-08-07T15:23:09Z</time>
      </trkpt>
      <trkpt lat="48.8091960" lon="14.3147560">
        <ele>497.0</ele>
        <time>2019-08-07T15:23:10Z</time>
      </trkpt>
      <trkpt lat="48.8092190" lon="14.3147590">
        <ele>497.0</ele>
        <time>2019-08-07T15:23:11Z</time>
      </trkpt>
      <trkpt lat="48.8092410" lon="14.3148120">
        <ele>497.2</ele>
        <time>2019-08-07T15:23:12Z</time>
      </trkpt>
      <trkpt lat="48.8092590" lon="14.3148300">
        <ele>497.2</ele>
        <time>2019-08-07T15:23:13Z</time>
      </trkpt>
      <trkpt lat="48.8092730" lon="14.3148290">
        <ele>497.2</ele>
        <time>2019-08-07T15:23:14Z</time>
      </trkpt>
      <trkpt lat="48.8092890" lon="14.3148150">
        <ele>497.2</ele>
        <time>2019-08-07T15:23:15Z</time>
      </trkpt>
      <trkpt lat="48.8093050" lon="14.3147980">
        <ele>497.2</ele>
        <time>2019-08-07T15:23:16Z</time>
      </trkpt>
      <trkpt lat="48.8093210" lon="14.3147850">
        <ele>497.2</ele>
        <time>2019-08-07T15:23:17Z</time>
      </trkpt>
      <trkpt lat="48.8093370" lon="14.3147740">
        <ele>497.2</ele>
        <time>2019-08-07T15:23:18Z</time>
      </trkpt>
      <trkpt lat="48.8093540" lon="14.3147660">
        <ele>497.0</ele>
        <time>2019-08-07T15:23:19Z</time>
      </trkpt>
      <trkpt lat="48.8093700" lon="14.3147610">
        <ele>497.0</ele>
        <time>2019-08-07T15:23:20Z</time>
      </trkpt>
      <trkpt lat="48.8093820" lon="14.3147550">
        <ele>497.0</ele>
        <time>2019-08-07T15:23:21Z</time>
      </trkpt>
      <trkpt lat="48.8093920" lon="14.3147490">
        <ele>497.0</ele>
        <time>2019-08-07T15:23:22Z</time>
      </trkpt>
      <trkpt lat="48.8093950" lon="14.3147370">
        <ele>497.0</ele>
        <time>2019-08-07T15:23:23Z</time>
      </trkpt>
      <trkpt lat="48.8093940" lon="14.3147260">
        <ele>497.0</ele>
        <time>2019-08-07T15:23:24Z</time>
      </trkpt>
      <trkpt lat="48.8093730" lon="14.3147260">
        <ele>497.0</ele>
        <time>2019-08-07T15:23:25Z</time>
      </trkpt>
      <trkpt lat="48.8093610" lon="14.3147320">
        <ele>497.0</ele>
        <time>2019-08-07T15:23:26Z</time>
      </trkpt>
      <trkpt lat="48.8093480" lon="14.3147390">
        <ele>497.0</ele>
        <time>2019-08-07T15:23:27Z</time>
      </trkpt>
      <trkpt lat="48.8093350" lon="14.3147450">
        <ele>497.0</ele>
        <time>2019-08-07T15:23:28Z</time>
      </trkpt>
      <trkpt lat="48.8093230" lon="14.3147520">
        <ele>497.0</ele>
        <time>2019-08-07T15:23:29Z</time>
      </trkpt>
      <trkpt lat="48.8093100" lon="14.3147580">
        <ele>497.2</ele>
        <time>2019-08-07T15:23:30Z</time>
      </trkpt>
      <trkpt lat="48.8092910" lon="14.3147660">
        <ele>497.2</ele>
        <time>2019-08-07T15:23:31Z</time>
      </trkpt>
      <trkpt lat="48.8092720" lon="14.3147760">
        <ele>497.2</ele>
        <time>2019-08-07T15:23:32Z</time>
      </trkpt>
      <trkpt lat="48.8092530" lon="14.3147890">
        <ele>497.2</ele>
        <time>2019-08-07T15:23:33Z</time>
      </trkpt>
      <trkpt lat="48.8092360" lon="14.3148040">
        <ele>497.2</ele>
        <time>2019-08-07T15:23:34Z</time>
      </trkpt>
      <trkpt lat="48.8092200" lon="14.3148190">
        <ele>497.2</ele>
        <time>2019-08-07T15:23:35Z</time>
      </trkpt>
      <trkpt lat="48.8092040" lon="14.3148300">
        <ele>497.2</ele>
        <time>2019-08-07T15:23:36Z</time>
      </trkpt>
      <trkpt lat="48.8091880" lon="14.3148410">
        <ele>497.2</ele>
        <time>2019-08-07T15:23:37Z</time>
      </trkpt>
      <trkpt lat="48.8091710" lon="14.3148520">
        <ele>497.2</ele>
        <time>2019-08-07T15:23:38Z</time>
      </trkpt>
      <trkpt lat="48.8091520" lon="14.3148640">
        <ele>497.2</ele>
        <time>2019-08-07T15:23:39Z</time>
      </trkpt>
      <trkpt lat="48.8091320" lon="14.3148760">
        <ele>497.2</ele>
        <time>2019-08-07T15:23:40Z</time>
      </trkpt>
      <trkpt lat="48.8091120" lon="14.3148890">
        <ele>497.2</ele>
        <time>2019-08-07T15:23:41Z</time>
      </trkpt>
      <trkpt lat="48.8090920" lon="14.3148980">
        <ele>497.0</ele>
        <time>2019-08-07T15:23:42Z</time>
      </trkpt>
      <trkpt lat="48.8090750" lon="14.3149040">
        <ele>497.0</ele>
        <time>2019-08-07T15:23:43Z</time>
      </trkpt>
      <trkpt lat="48.8090530" lon="14.3149100">
        <ele>497.0</ele>
        <time>2019-08-07T15:23:44Z</time>
      </trkpt>
      <trkpt lat="48.8090460" lon="14.3149110">
        <ele>497.0</ele>
        <time>2019-08-07T15:23:45Z</time>
      </trkpt>
      <trkpt lat="48.8090340" lon="14.3149130">
        <ele>497.0</ele>
        <time>2019-08-07T15:23:46Z</time>
      </trkpt>
      <trkpt lat="48.8090210" lon="14.3149120">
        <ele>497.0</ele>
        <time>2019-08-07T15:23:47Z</time>
      </trkpt>
      <trkpt lat="48.8090070" lon="14.3149080">
        <ele>496.8</ele>
        <time>2019-08-07T15:23:48Z</time>
      </trkpt>
      <trkpt lat="48.8089940" lon="14.3148970">
        <ele>496.8</ele>
        <time>2019-08-07T15:23:49Z</time>
      </trkpt>
      <trkpt lat="48.8089810" lon="14.3148840">
        <ele>496.6</ele>
        <time>2019-08-07T15:23:50Z</time>
      </trkpt>
      <trkpt lat="48.8089710" lon="14.3148650">
        <ele>496.6</ele>
        <time>2019-08-07T15:23:51Z</time>
      </trkpt>
      <trkpt lat="48.8089660" lon="14.3148400">
        <ele>496.4</ele>
        <time>2019-08-07T15:23:52Z</time>
      </trkpt>
      <trkpt lat="48.8089650" lon="14.3148080">
        <ele>496.2</ele>
        <time>2019-08-07T15:23:53Z</time>
      </trkpt>
      <trkpt lat="48.8089660" lon="14.3147710">
        <ele>496.2</ele>
        <time>2019-08-07T15:23:54Z</time>
      </trkpt>
      <trkpt lat="48.8089690" lon="14.3147290">
        <ele>496.0</ele>
        <time>2019-08-07T15:23:55Z</time>
      </trkpt>
      <trkpt lat="48.8089750" lon="14.3146860">
        <ele>495.8</ele>
        <time>2019-08-07T15:23:56Z</time>
      </trkpt>
      <trkpt lat="48.8089850" lon="14.3146420">
        <ele>495.6</ele>
        <time>2019-08-07T15:23:57Z</time>
      </trkpt>
      <trkpt lat="48.8089940" lon="14.3145960">
        <ele>495.4</ele>
        <time>2019-08-07T15:23:58Z</time>
      </trkpt>
      <trkpt lat="48.8090020" lon="14.3145530">
        <ele>495.2</ele>
        <time>2019-08-07T15:23:59Z</time>
      </trkpt>
      <trkpt lat="48.8090100" lon="14.3145130">
        <ele>495.2</ele>
        <time>2019-08-07T15:24:00Z</time>
      </trkpt>
      <trkpt lat="48.8090200" lon="14.3144740">
        <ele>495.0</ele>
        <time>2019-08-07T15:24:01Z</time>
      </trkpt>
      <trkpt lat="48.8090270" lon="14.3144330">
        <ele>495.0</ele>
        <time>2019-08-07T15:24:02Z</time>
      </trkpt>
      <trkpt lat="48.8090340" lon="14.3143910">
        <ele>494.8</ele>
        <time>2019-08-07T15:24:03Z</time>
      </trkpt>
      <trkpt lat="48.8090420" lon="14.3143510">
        <ele>494.8</ele>
        <time>2019-08-07T15:24:04Z</time>
      </trkpt>
      <trkpt lat="48.8090490" lon="14.3143100">
        <ele>494.8</ele>
        <time>2019-08-07T15:24:05Z</time>
      </trkpt>
      <trkpt lat="48.8090510" lon="14.3142660">
        <ele>494.6</ele>
        <time>2019-08-07T15:24:06Z</time>
      </trkpt>
      <trkpt lat="48.8090500" lon="14.3142260">
        <ele>494.6</ele>
        <time>2019-08-07T15:24:07Z</time>
      </trkpt>
      <trkpt lat="48.8090430" lon="14.3141920">
        <ele>494.6</ele>
        <time>2019-08-07T15:24:08Z</time>
      </trkpt>
      <trkpt lat="48.8090340" lon="14.3141680">
        <ele>494.6</ele>
        <time>2019-08-07T15:24:09Z</time>
      </trkpt>
      <trkpt lat="48.8090240" lon="14.3141430">
        <ele>494.6</ele>
        <time>2019-08-07T15:24:10Z</time>
      </trkpt>
      <trkpt lat="48.8090140" lon="14.3141170">
        <ele>494.6</ele>
        <time>2019-08-07T15:24:11Z</time>
      </trkpt>
      <trkpt lat="48.8090050" lon="14.3140870">
        <ele>494.8</ele>
        <time>2019-08-07T15:24:12Z</time>
      </trkpt>
      <trkpt lat="48.8089990" lon="14.3140570">
        <ele>495.0</ele>
        <time>2019-08-07T15:24:13Z</time>
      </trkpt>
      <trkpt lat="48.8089930" lon="14.3140300">
        <ele>495.0</ele>
        <time>2019-08-07T15:24:14Z</time>
      </trkpt>
      <trkpt lat="48.8089850" lon="14.3140020">
        <ele>495.2</ele>
        <time>2019-08-07T15:24:15Z</time>
      </trkpt>
      <trkpt lat="48.8089830" lon="14.3139710">
        <ele>495.4</ele>
        <time>2019-08-07T15:24:16Z</time>
      </trkpt>
      <trkpt lat="48.8089870" lon="14.3139390">
        <ele>495.4</ele>
        <time>2019-08-07T15:24:17Z</time>
      </trkpt>
      <trkpt lat="48.8089950" lon="14.3139090">
        <ele>495.6</ele>
        <time>2019-08-07T15:24:18Z</time>
      </trkpt>
      <trkpt lat="48.8090040" lon="14.3138800">
        <ele>495.8</ele>
        <time>2019-08-07T15:24:19Z</time>
      </trkpt>
      <trkpt lat="48.8090100" lon="14.3138520">
        <ele>496.0</ele>
        <time>2019-08-07T15:24:20Z</time>
      </trkpt>
      <trkpt lat="48.8090200" lon="14.3138250">
        <ele>496.0</ele>
        <time>2019-08-07T15:24:21Z</time>
      </trkpt>
      <trkpt lat="48.8090320" lon="14.3137970">
        <ele>496.2</ele>
        <time>2019-08-07T15:24:22Z</time>
      </trkpt>
      <trkpt lat="48.8090450" lon="14.3137700">
        <ele>496.4</ele>
        <time>2019-08-07T15:24:23Z</time>
      </trkpt>
      <trkpt lat="48.8090600" lon="14.3137430">
        <ele>496.4</ele>
        <time>2019-08-07T15:24:24Z</time>
      </trkpt>
      <trkpt lat="48.8090740" lon="14.3137150">
        <ele>496.6</ele>
        <time>2019-08-07T15:24:25Z</time>
      </trkpt>
      <trkpt lat="48.8090890" lon="14.3136880">
        <ele>496.6</ele>
        <time>2019-08-07T15:24:26Z</time>
      </trkpt>
      <trkpt lat="48.8091020" lon="14.3136610">
        <ele>496.6</ele>
        <time>2019-08-07T15:24:27Z</time>
      </trkpt>
      <trkpt lat="48.8091160" lon="14.3136300">
        <ele>496.8</ele>
        <time>2019-08-07T15:24:28Z</time>
      </trkpt>
      <trkpt lat="48.8091310" lon="14.3135990">
        <ele>496.8</ele>
        <time>2019-08-07T15:24:29Z</time>
      </trkpt>
      <trkpt lat="48.8091460" lon="14.3135660">
        <ele>496.8</ele>
        <time>2019-08-07T15:24:30Z</time>
      </trkpt>
      <trkpt lat="48.8091600" lon="14.3135320">
        <ele>496.6</ele>
        <time>2019-08-07T15:24:31Z</time>
      </trkpt>
      <trkpt lat="48.8091810" lon="14.3135010">
        <ele>496.6</ele>
        <time>2019-08-07T15:24:32Z</time>
      </trkpt>
      <trkpt lat="48.8092040" lon="14.3134650">
        <ele>496.6</ele>
        <time>2019-08-07T15:24:33Z</time>
      </trkpt>
      <trkpt lat="48.8092290" lon="14.3134240">
        <ele>496.4</ele>
        <time>2019-08-07T15:24:34Z</time>
      </trkpt>
      <trkpt lat="48.8092560" lon="14.3133790">
        <ele>496.2</ele>
        <time>2019-08-07T15:24:35Z</time>
      </trkpt>
      <trkpt lat="48.8092880" lon="14.3133300">
        <ele>496.2</ele>
        <time>2019-08-07T15:24:36Z</time>
      </trkpt>
      <trkpt lat="48.8093250" lon="14.3132810">
        <ele>496.0</ele>
        <time>2019-08-07T15:24:37Z</time>
      </trkpt>
      <trkpt lat="48.8093660" lon="14.3132290">
        <ele>495.8</ele>
        <time>2019-08-07T15:24:38Z</time>
      </trkpt>
      <trkpt lat="48.8094050" lon="14.3131820">
        <ele>495.8</ele>
        <time>2019-08-07T15:24:39Z</time>
      </trkpt>
      <trkpt lat="48.8094440" lon="14.3131450">
        <ele>495.6</ele>
        <time>2019-08-07T15:24:40Z</time>
      </trkpt>
      <trkpt lat="48.8094800" lon="14.3131140">
        <ele>495.6</ele>
        <time>2019-08-07T15:24:41Z</time>
      </trkpt>
      <trkpt lat="48.8095180" lon="14.3130910">
        <ele>495.4</ele>
        <time>2019-08-07T15:24:42Z</time>
      </trkpt>
      <trkpt lat="48.8095550" lon="14.3130700">
        <ele>495.4</ele>
        <time>2019-08-07T15:24:43Z</time>
      </trkpt>
      <trkpt lat="48.8095930" lon="14.3130460">
        <ele>495.2</ele>
        <time>2019-08-07T15:24:44Z</time>
      </trkpt>
      <trkpt lat="48.8096330" lon="14.3130170">
        <ele>495.2</ele>
        <time>2019-08-07T15:24:45Z</time>
      </trkpt>
      <trkpt lat="48.8096730" lon="14.3129850">
        <ele>495.0</ele>
        <time>2019-08-07T15:24:46Z</time>
      </trkpt>
      <trkpt lat="48.8097110" lon="14.3129470">
        <ele>495.0</ele>
        <time>2019-08-07T15:24:47Z</time>
      </trkpt>
      <trkpt lat="48.8097480" lon="14.3129080">
        <ele>494.8</ele>
        <time>2019-08-07T15:24:48Z</time>
      </trkpt>
      <trkpt lat="48.8097820" lon="14.3128660">
        <ele>494.8</ele>
        <time>2019-08-07T15:24:49Z</time>
      </trkpt>
      <trkpt lat="48.8098120" lon="14.3128230">
        <ele>494.8</ele>
        <time>2019-08-07T15:24:50Z</time>
      </trkpt>
      <trkpt lat="48.8098370" lon="14.3127820">
        <ele>494.6</ele>
        <time>2019-08-07T15:24:51Z</time>
      </trkpt>
      <trkpt lat="48.8098630" lon="14.3127460">
        <ele>494.6</ele>
        <time>2019-08-07T15:24:52Z</time>
      </trkpt>
      <trkpt lat="48.8098910" lon="14.3127160">
        <ele>494.6</ele>
        <time>2019-08-07T15:24:53Z</time>
      </trkpt>
      <trkpt lat="48.8099190" lon="14.3126860">
        <ele>494.6</ele>
        <time>2019-08-07T15:24:54Z</time>
      </trkpt>
      <trkpt lat="48.8099520" lon="14.3126560">
        <ele>494.6</ele>
        <time>2019-08-07T15:24:55Z</time>
      </trkpt>
      <trkpt lat="48.8099840" lon="14.3126210">
        <ele>494.6</ele>
        <time>2019-08-07T15:24:56Z</time>
      </trkpt>
      <trkpt lat="48.8100160" lon="14.3125880">
        <ele>494.6</ele>
        <time>2019-08-07T15:24:57Z</time>
      </trkpt>
      <trkpt lat="48.8100490" lon="14.3125570">
        <ele>494.8</ele>
        <time>2019-08-07T15:24:58Z</time>
      </trkpt>
      <trkpt lat="48.8100810" lon="14.3125260">
        <ele>494.8</ele>
        <time>2019-08-07T15:24:59Z</time>
      </trkpt>
      <trkpt lat="48.8101140" lon="14.3124970">
        <ele>494.8</ele>
        <time>2019-08-07T15:25:00Z</time>
      </trkpt>
      <trkpt lat="48.8101480" lon="14.3124690">
        <ele>495.0</ele>
        <time>2019-08-07T15:25:01Z</time>
      </trkpt>
      <trkpt lat="48.8101820" lon="14.3124460">
        <ele>495.0</ele>
        <time>2019-08-07T15:25:02Z</time>
      </trkpt>
      <trkpt lat="48.8102160" lon="14.3124260">
        <ele>495.0</ele>
        <time>2019-08-07T15:25:03Z</time>
      </trkpt>
      <trkpt lat="48.8102520" lon="14.3124060">
        <ele>495.0</ele>
        <time>2019-08-07T15:25:04Z</time>
      </trkpt>
      <trkpt lat="48.8102920" lon="14.3123860">
        <ele>495.0</ele>
        <time>2019-08-07T15:25:05Z</time>
      </trkpt>
      <trkpt lat="48.8103330" lon="14.3123650">
        <ele>495.0</ele>
        <time>2019-08-07T15:25:06Z</time>
      </trkpt>
      <trkpt lat="48.8103740" lon="14.3123470">
        <ele>495.2</ele>
        <time>2019-08-07T15:25:07Z</time>
      </trkpt>
      <trkpt lat="48.8104150" lon="14.3123310">
        <ele>495.0</ele>
        <time>2019-08-07T15:25:08Z</time>
      </trkpt>
      <trkpt lat="48.8104600" lon="14.3123130">
        <ele>495.0</ele>
        <time>2019-08-07T15:25:09Z</time>
      </trkpt>
      <trkpt lat="48.8105040" lon="14.3122980">
        <ele>495.0</ele>
        <time>2019-08-07T15:25:10Z</time>
      </trkpt>
      <trkpt lat="48.8105490" lon="14.3122860">
        <ele>495.0</ele>
        <time>2019-08-07T15:25:11Z</time>
      </trkpt>
      <trkpt lat="48.8105970" lon="14.3122790">
        <ele>494.8</ele>
        <time>2019-08-07T15:25:12Z</time>
      </trkpt>
      <trkpt lat="48.8106460" lon="14.3122720">
        <ele>494.8</ele>
        <time>2019-08-07T15:25:13Z</time>
      </trkpt>
      <trkpt lat="48.8106930" lon="14.3122630">
        <ele>494.8</ele>
        <time>2019-08-07T15:25:14Z</time>
      </trkpt>
      <trkpt lat="48.8107410" lon="14.3122550">
        <ele>494.6</ele>
        <time>2019-08-07T15:25:15Z</time>
      </trkpt>
      <trkpt lat="48.8107880" lon="14.3122470">
        <ele>494.6</ele>
        <time>2019-08-07T15:25:16Z</time>
      </trkpt>
      <trkpt lat="48.8108360" lon="14.3122380">
        <ele>494.6</ele>
        <time>2019-08-07T15:25:17Z</time>
      </trkpt>
      <trkpt lat="48.8108840" lon="14.3122300">
        <ele>494.6</ele>
        <time>2019-08-07T15:25:18Z</time>
      </trkpt>
      <trkpt lat="48.8109310" lon="14.3122240">
        <ele>494.6</ele>
        <time>2019-08-07T15:25:19Z</time>
      </trkpt>
      <trkpt lat="48.8109780" lon="14.3122220">
        <ele>494.6</ele>
        <time>2019-08-07T15:25:20Z</time>
      </trkpt>
      <trkpt lat="48.8110250" lon="14.3122200">
        <ele>494.4</ele>
        <time>2019-08-07T15:25:21Z</time>
      </trkpt>
      <trkpt lat="48.8110740" lon="14.3122210">
        <ele>494.4</ele>
        <time>2019-08-07T15:25:22Z</time>
      </trkpt>
      <trkpt lat="48.8111190" lon="14.3122240">
        <ele>494.2</ele>
        <time>2019-08-07T15:25:23Z</time>
      </trkpt>
      <trkpt lat="48.8111640" lon="14.3122250">
        <ele>494.2</ele>
        <time>2019-08-07T15:25:24Z</time>
      </trkpt>
      <trkpt lat="48.8112090" lon="14.3122280">
        <ele>494.2</ele>
        <time>2019-08-07T15:25:25Z</time>
      </trkpt>
      <trkpt lat="48.8112550" lon="14.3122340">
        <ele>494.2</ele>
        <time>2019-08-07T15:25:26Z</time>
      </trkpt>
      <trkpt lat="48.8112990" lon="14.3122450">
        <ele>494.0</ele>
        <time>2019-08-07T15:25:27Z</time>
      </trkpt>
      <trkpt lat="48.8113410" lon="14.3122590">
        <ele>494.0</ele>
        <time>2019-08-07T15:25:28Z</time>
      </trkpt>
      <trkpt lat="48.8113790" lon="14.3122730">
        <ele>494.0</ele>
        <time>2019-08-07T15:25:29Z</time>
      </trkpt>
      <trkpt lat="48.8114190" lon="14.3122840">
        <ele>494.0</ele>
        <time>2019-08-07T15:25:30Z</time>
      </trkpt>
      <trkpt lat="48.8114570" lon="14.3122930">
        <ele>494.0</ele>
        <time>2019-08-07T15:25:31Z</time>
      </trkpt>
      <trkpt lat="48.8114960" lon="14.3122960">
        <ele>494.0</ele>
        <time>2019-08-07T15:25:32Z</time>
      </trkpt>
      <trkpt lat="48.8115350" lon="14.3122980">
        <ele>494.0</ele>
        <time>2019-08-07T15:25:33Z</time>
      </trkpt>
      <trkpt lat="48.8115730" lon="14.3123070">
        <ele>494.0</ele>
        <time>2019-08-07T15:25:34Z</time>
      </trkpt>
      <trkpt lat="48.8116110" lon="14.3123180">
        <ele>494.0</ele>
        <time>2019-08-07T15:25:35Z</time>
      </trkpt>
      <trkpt lat="48.8116490" lon="14.3123320">
        <ele>494.0</ele>
        <time>2019-08-07T15:25:36Z</time>
      </trkpt>
      <trkpt lat="48.8116880" lon="14.3123490">
        <ele>494.0</ele>
        <time>2019-08-07T15:25:37Z</time>
      </trkpt>
      <trkpt lat="48.8117240" lon="14.3123650">
        <ele>494.2</ele>
        <time>2019-08-07T15:25:38Z</time>
      </trkpt>
      <trkpt lat="48.8117530" lon="14.3123830">
        <ele>494.2</ele>
        <time>2019-08-07T15:25:39Z</time>
      </trkpt>
      <trkpt lat="48.8117790" lon="14.3124000">
        <ele>494.4</ele>
        <time>2019-08-07T15:25:40Z</time>
      </trkpt>
      <trkpt lat="48.8118010" lon="14.3124130">
        <ele>494.4</ele>
        <time>2019-08-07T15:25:41Z</time>
      </trkpt>
      <trkpt lat="48.8118210" lon="14.3124280">
        <ele>494.6</ele>
        <time>2019-08-07T15:25:42Z</time>
      </trkpt>
      <trkpt lat="48.8118390" lon="14.3124460">
        <ele>494.6</ele>
        <time>2019-08-07T15:25:43Z</time>
      </trkpt>
      <trkpt lat="48.8118590" lon="14.3124650">
        <ele>494.8</ele>
        <time>2019-08-07T15:25:44Z</time>
      </trkpt>
      <trkpt lat="48.8118780" lon="14.3124830">
        <ele>494.8</ele>
        <time>2019-08-07T15:25:45Z</time>
      </trkpt>
      <trkpt lat="48.8118980" lon="14.3125030">
        <ele>495.0</ele>
        <time>2019-08-07T15:25:46Z</time>
      </trkpt>
      <trkpt lat="48.8119190" lon="14.3125270">
        <ele>495.0</ele>
        <time>2019-08-07T15:25:47Z</time>
      </trkpt>
      <trkpt lat="48.8119390" lon="14.3125540">
        <ele>495.2</ele>
        <time>2019-08-07T15:25:48Z</time>
      </trkpt>
      <trkpt lat="48.8119580" lon="14.3125870">
        <ele>495.2</ele>
        <time>2019-08-07T15:25:49Z</time>
      </trkpt>
      <trkpt lat="48.8119790" lon="14.3126190">
        <ele>495.2</ele>
        <time>2019-08-07T15:25:50Z</time>
      </trkpt>
      <trkpt lat="48.8120020" lon="14.3126520">
        <ele>495.2</ele>
        <time>2019-08-07T15:25:51Z</time>
      </trkpt>
      <trkpt lat="48.8120260" lon="14.3126830">
        <ele>495.2</ele>
        <time>2019-08-07T15:25:52Z</time>
      </trkpt>
      <trkpt lat="48.8120490" lon="14.3127130">
        <ele>495.2</ele>
        <time>2019-08-07T15:25:53Z</time>
      </trkpt>
      <trkpt lat="48.8120740" lon="14.3127430">
        <ele>495.0</ele>
        <time>2019-08-07T15:25:54Z</time>
      </trkpt>
      <trkpt lat="48.8120990" lon="14.3127690">
        <ele>495.0</ele>
        <time>2019-08-07T15:25:55Z</time>
      </trkpt>
      <trkpt lat="48.8121220" lon="14.3127950">
        <ele>495.0</ele>
        <time>2019-08-07T15:25:56Z</time>
      </trkpt>
      <trkpt lat="48.8121460" lon="14.3128220">
        <ele>495.0</ele>
        <time>2019-08-07T15:25:57Z</time>
      </trkpt>
      <trkpt lat="48.8121690" lon="14.3128540">
        <ele>495.0</ele>
        <time>2019-08-07T15:25:58Z</time>
      </trkpt>
      <trkpt lat="48.8121900" lon="14.3128890">
        <ele>494.8</ele>
        <time>2019-08-07T15:25:59Z</time>
      </trkpt>
      <trkpt lat="48.8122100" lon="14.3129240">
        <ele>494.8</ele>
        <time>2019-08-07T15:26:00Z</time>
      </trkpt>
      <trkpt lat="48.8122310" lon="14.3129590">
        <ele>494.8</ele>
        <time>2019-08-07T15:26:01Z</time>
      </trkpt>
      <trkpt lat="48.8122520" lon="14.3129920">
        <ele>494.8</ele>
        <time>2019-08-07T15:26:02Z</time>
      </trkpt>
      <trkpt lat="48.8122710" lon="14.3130210">
        <ele>494.6</ele>
        <time>2019-08-07T15:26:03Z</time>
      </trkpt>
      <trkpt lat="48.8122900" lon="14.3130440">
        <ele>494.6</ele>
        <time>2019-08-07T15:26:04Z</time>
      </trkpt>
      <trkpt lat="48.8123070" lon="14.3130630">
        <ele>494.6</ele>
        <time>2019-08-07T15:26:05Z</time>
      </trkpt>
      <trkpt lat="48.8123230" lon="14.3130760">
        <ele>494.8</ele>
        <time>2019-08-07T15:26:06Z</time>
      </trkpt>
      <trkpt lat="48.8123420" lon="14.3130860">
        <ele>494.8</ele>
        <time>2019-08-07T15:26:07Z</time>
      </trkpt>
      <trkpt lat="48.8123610" lon="14.3130920">
        <ele>495.0</ele>
        <time>2019-08-07T15:26:08Z</time>
      </trkpt>
      <trkpt lat="48.8123810" lon="14.3130960">
        <ele>495.2</ele>
        <time>2019-08-07T15:26:09Z</time>
      </trkpt>
      <trkpt lat="48.8124010" lon="14.3130970">
        <ele>495.4</ele>
        <time>2019-08-07T15:26:10Z</time>
      </trkpt>
      <trkpt lat="48.8124210" lon="14.3130950">
        <ele>495.4</ele>
        <time>2019-08-07T15:26:11Z</time>
      </trkpt>
      <trkpt lat="48.8124410" lon="14.3130910">
        <ele>495.6</ele>
        <time>2019-08-07T15:26:12Z</time>
      </trkpt>
      <trkpt lat="48.8124580" lon="14.3130810">
        <ele>495.8</ele>
        <time>2019-08-07T15:26:13Z</time>
      </trkpt>
      <trkpt lat="48.8124770" lon="14.3130680">
        <ele>496.0</ele>
        <time>2019-08-07T15:26:14Z</time>
      </trkpt>
      <trkpt lat="48.8124960" lon="14.3130550">
        <ele>496.2</ele>
        <time>2019-08-07T15:26:15Z</time>
      </trkpt>
      <trkpt lat="48.8125150" lon="14.3130430">
        <ele>496.2</ele>
        <time>2019-08-07T15:26:16Z</time>
      </trkpt>
      <trkpt lat="48.8125360" lon="14.3130350">
        <ele>496.4</ele>
        <time>2019-08-07T15:26:17Z</time>
      </trkpt>
      <trkpt lat="48.8125560" lon="14.3130290">
        <ele>496.6</ele>
        <time>2019-08-07T15:26:18Z</time>
      </trkpt>
      <trkpt lat="48.8125750" lon="14.3130270">
        <ele>496.6</ele>
        <time>2019-08-07T15:26:19Z</time>
      </trkpt>
      <trkpt lat="48.8125930" lon="14.3130210">
        <ele>496.8</ele>
        <time>2019-08-07T15:26:20Z</time>
      </trkpt>
      <trkpt lat="48.8126120" lon="14.3130110">
        <ele>496.8</ele>
        <time>2019-08-07T15:26:21Z</time>
      </trkpt>
      <trkpt lat="48.8126300" lon="14.3129970">
        <ele>497.0</ele>
        <time>2019-08-07T15:26:22Z</time>
      </trkpt>
      <trkpt lat="48.8126480" lon="14.3129820">
        <ele>497.0</ele>
        <time>2019-08-07T15:26:23Z</time>
      </trkpt>
      <trkpt lat="48.8126650" lon="14.3129680">
        <ele>497.2</ele>
        <time>2019-08-07T15:26:24Z</time>
      </trkpt>
      <trkpt lat="48.8126810" lon="14.3129640">
        <ele>497.2</ele>
        <time>2019-08-07T15:26:25Z</time>
      </trkpt>
      <trkpt lat="48.8126930" lon="14.3129620">
        <ele>497.4</ele>
        <time>2019-08-07T15:26:26Z</time>
      </trkpt>
      <trkpt lat="48.8127060" lon="14.3129550">
        <ele>497.4</ele>
        <time>2019-08-07T15:26:27Z</time>
      </trkpt>
      <trkpt lat="48.8127210" lon="14.3129490">
        <ele>497.4</ele>
        <time>2019-08-07T15:26:28Z</time>
      </trkpt>
      <trkpt lat="48.8127370" lon="14.3129480">
        <ele>497.6</ele>
        <time>2019-08-07T15:26:29Z</time>
      </trkpt>
      <trkpt lat="48.8127550" lon="14.3129460">
        <ele>497.6</ele>
        <time>2019-08-07T15:26:30Z</time>
      </trkpt>
      <trkpt lat="48.8127770" lon="14.3129380">
        <ele>497.6</ele>
        <time>2019-08-07T15:26:31Z</time>
      </trkpt>
      <trkpt lat="48.8128060" lon="14.3129300">
        <ele>497.6</ele>
        <time>2019-08-07T15:26:32Z</time>
      </trkpt>
      <trkpt lat="48.8128340" lon="14.3129200">
        <ele>497.6</ele>
        <time>2019-08-07T15:26:33Z</time>
      </trkpt>
      <trkpt lat="48.8128640" lon="14.3129120">
        <ele>497.6</ele>
        <time>2019-08-07T15:26:34Z</time>
      </trkpt>
      <trkpt lat="48.8128930" lon="14.3129020">
        <ele>497.6</ele>
        <time>2019-08-07T15:26:35Z</time>
      </trkpt>
      <trkpt lat="48.8129220" lon="14.3128930">
        <ele>497.6</ele>
        <time>2019-08-07T15:26:36Z</time>
      </trkpt>
      <trkpt lat="48.8129540" lon="14.3128840">
        <ele>497.6</ele>
        <time>2019-08-07T15:26:37Z</time>
      </trkpt>
      <trkpt lat="48.8129830" lon="14.3128760">
        <ele>497.8</ele>
        <time>2019-08-07T15:26:38Z</time>
      </trkpt>
      <trkpt lat="48.8130100" lon="14.3128700">
        <ele>497.8</ele>
        <time>2019-08-07T15:26:39Z</time>
      </trkpt>
      <trkpt lat="48.8130380" lon="14.3128630">
        <ele>497.8</ele>
        <time>2019-08-07T15:26:40Z</time>
      </trkpt>
      <trkpt lat="48.8130640" lon="14.3128580">
        <ele>497.8</ele>
        <time>2019-08-07T15:26:41Z</time>
      </trkpt>
      <trkpt lat="48.8130900" lon="14.3128550">
        <ele>497.8</ele>
        <time>2019-08-07T15:26:42Z</time>
      </trkpt>
      <trkpt lat="48.8131150" lon="14.3128540">
        <ele>497.8</ele>
        <time>2019-08-07T15:26:43Z</time>
      </trkpt>
      <trkpt lat="48.8131440" lon="14.3128520">
        <ele>497.8</ele>
        <time>2019-08-07T15:26:44Z</time>
      </trkpt>
      <trkpt lat="48.8131730" lon="14.3128460">
        <ele>497.8</ele>
        <time>2019-08-07T15:26:45Z</time>
      </trkpt>
      <trkpt lat="48.8132020" lon="14.3128400">
        <ele>497.8</ele>
        <time>2019-08-07T15:26:46Z</time>
      </trkpt>
      <trkpt lat="48.8132280" lon="14.3128320">
        <ele>497.6</ele>
        <time>2019-08-07T15:26:47Z</time>
      </trkpt>
      <trkpt lat="48.8132560" lon="14.3128260">
        <ele>497.6</ele>
        <time>2019-08-07T15:26:48Z</time>
      </trkpt>
      <trkpt lat="48.8132820" lon="14.3128250">
        <ele>497.6</ele>
        <time>2019-08-07T15:26:49Z</time>
      </trkpt>
      <trkpt lat="48.8133060" lon="14.3128290">
        <ele>497.6</ele>
        <time>2019-08-07T15:26:50Z</time>
      </trkpt>
      <trkpt lat="48.8133280" lon="14.3128370">
        <ele>497.6</ele>
        <time>2019-08-07T15:26:51Z</time>
      </trkpt>
      <trkpt lat="48.8133510" lon="14.3128440">
        <ele>497.8</ele>
        <time>2019-08-07T15:26:52Z</time>
      </trkpt>
      <trkpt lat="48.8133740" lon="14.3128520">
        <ele>497.8</ele>
        <time>2019-08-07T15:26:53Z</time>
      </trkpt>
      <trkpt lat="48.8133990" lon="14.3128610">
        <ele>497.8</ele>
        <time>2019-08-07T15:26:54Z</time>
      </trkpt>
      <trkpt lat="48.8134200" lon="14.3128690">
        <ele>497.8</ele>
        <time>2019-08-07T15:26:55Z</time>
      </trkpt>
      <trkpt lat="48.8134390" lon="14.3128710">
        <ele>498.0</ele>
        <time>2019-08-07T15:26:56Z</time>
      </trkpt>
      <trkpt lat="48.8134610" lon="14.3128660">
        <ele>498.0</ele>
        <time>2019-08-07T15:26:57Z</time>
      </trkpt>
      <trkpt lat="48.8134820" lon="14.3128540">
        <ele>498.0</ele>
        <time>2019-08-07T15:26:58Z</time>
      </trkpt>
      <trkpt lat="48.8135030" lon="14.3128450">
        <ele>498.0</ele>
        <time>2019-08-07T15:26:59Z</time>
      </trkpt>
      <trkpt lat="48.8135260" lon="14.3128380">
        <ele>498.0</ele>
        <time>2019-08-07T15:27:00Z</time>
      </trkpt>
      <trkpt lat="48.8135490" lon="14.3128310">
        <ele>498.0</ele>
        <time>2019-08-07T15:27:01Z</time>
      </trkpt>
      <trkpt lat="48.8135730" lon="14.3128220">
        <ele>498.0</ele>
        <time>2019-08-07T15:27:02Z</time>
      </trkpt>
      <trkpt lat="48.8135970" lon="14.3128120">
        <ele>498.0</ele>
        <time>2019-08-07T15:27:03Z</time>
      </trkpt>
      <trkpt lat="48.8136180" lon="14.3128010">
        <ele>498.0</ele>
        <time>2019-08-07T15:27:04Z</time>
      </trkpt>
      <trkpt lat="48.8136420" lon="14.3127890">
        <ele>498.0</ele>
        <time>2019-08-07T15:27:05Z</time>
      </trkpt>
      <trkpt lat="48.8136640" lon="14.3127770">
        <ele>498.0</ele>
        <time>2019-08-07T15:27:06Z</time>
      </trkpt>
      <trkpt lat="48.8136870" lon="14.3127680">
        <ele>498.0</ele>
        <time>2019-08-07T15:27:07Z</time>
      </trkpt>
      <trkpt lat="48.8137110" lon="14.3127580">
        <ele>498.0</ele>
        <time>2019-08-07T15:27:08Z</time>
      </trkpt>
      <trkpt lat="48.8137340" lon="14.3127500">
        <ele>498.0</ele>
        <time>2019-08-07T15:27:09Z</time>
      </trkpt>
      <trkpt lat="48.8137590" lon="14.3127400">
        <ele>498.0</ele>
        <time>2019-08-07T15:27:10Z</time>
      </trkpt>
      <trkpt lat="48.8137820" lon="14.3127320">
        <ele>498.0</ele>
        <time>2019-08-07T15:27:11Z</time>
      </trkpt>
      <trkpt lat="48.8138070" lon="14.3127230">
        <ele>498.0</ele>
        <time>2019-08-07T15:27:12Z</time>
      </trkpt>
      <trkpt lat="48.8138320" lon="14.3127150">
        <ele>498.0</ele>
        <time>2019-08-07T15:27:13Z</time>
      </trkpt>
      <trkpt lat="48.8138570" lon="14.3127090">
        <ele>498.0</ele>
        <time>2019-08-07T15:27:14Z</time>
      </trkpt>
      <trkpt lat="48.8138810" lon="14.3127030">
        <ele>498.0</ele>
        <time>2019-08-07T15:27:15Z</time>
      </trkpt>
      <trkpt lat="48.8139070" lon="14.3126960">
        <ele>498.0</ele>
        <time>2019-08-07T15:27:16Z</time>
      </trkpt>
      <trkpt lat="48.8139320" lon="14.3126860">
        <ele>498.0</ele>
        <time>2019-08-07T15:27:17Z</time>
      </trkpt>
      <trkpt lat="48.8139570" lon="14.3126750">
        <ele>498.0</ele>
        <time>2019-08-07T15:27:18Z</time>
      </trkpt>
      <trkpt lat="48.8139820" lon="14.3126640">
        <ele>498.0</ele>
        <time>2019-08-07T15:27:19Z</time>
      </trkpt>
      <trkpt lat="48.8140060" lon="14.3126530">
        <ele>498.0</ele>
        <time>2019-08-07T15:27:20Z</time>
      </trkpt>
      <trkpt lat="48.8140290" lon="14.3126440">
        <ele>498.0</ele>
        <time>2019-08-07T15:27:21Z</time>
      </trkpt>
      <trkpt lat="48.8140520" lon="14.3126360">
        <ele>498.0</ele>
        <time>2019-08-07T15:27:22Z</time>
      </trkpt>
      <trkpt lat="48.8140740" lon="14.3126270">
        <ele>498.0</ele>
        <time>2019-08-07T15:27:23Z</time>
      </trkpt>
      <trkpt lat="48.8140960" lon="14.3126170">
        <ele>498.0</ele>
        <time>2019-08-07T15:27:24Z</time>
      </trkpt>
      <trkpt lat="48.8141160" lon="14.3126060">
        <ele>498.0</ele>
        <time>2019-08-07T15:27:25Z</time>
      </trkpt>
      <trkpt lat="48.8141330" lon="14.3125910">
        <ele>498.0</ele>
        <time>2019-08-07T15:27:26Z</time>
      </trkpt>
      <trkpt lat="48.8141460" lon="14.3125720">
        <ele>498.0</ele>
        <time>2019-08-07T15:27:27Z</time>
      </trkpt>
      <trkpt lat="48.8141550" lon="14.3125460">
        <ele>498.2</ele>
        <time>2019-08-07T15:27:28Z</time>
      </trkpt>
      <trkpt lat="48.8141610" lon="14.3125180">
        <ele>498.2</ele>
        <time>2019-08-07T15:27:29Z</time>
      </trkpt>
      <trkpt lat="48.8141660" lon="14.3124870">
        <ele>498.2</ele>
        <time>2019-08-07T15:27:30Z</time>
      </trkpt>
      <trkpt lat="48.8141710" lon="14.3124590">
        <ele>498.4</ele>
        <time>2019-08-07T15:27:31Z</time>
      </trkpt>
      <trkpt lat="48.8141750" lon="14.3124320">
        <ele>498.4</ele>
        <time>2019-08-07T15:27:32Z</time>
      </trkpt>
      <trkpt lat="48.8141810" lon="14.3124050">
        <ele>498.6</ele>
        <time>2019-08-07T15:27:33Z</time>
      </trkpt>
      <trkpt lat="48.8141840" lon="14.3123810">
        <ele>498.6</ele>
        <time>2019-08-07T15:27:34Z</time>
      </trkpt>
      <trkpt lat="48.8141860" lon="14.3123620">
        <ele>498.8</ele>
        <time>2019-08-07T15:27:35Z</time>
      </trkpt>
      <trkpt lat="48.8141890" lon="14.3123450">
        <ele>498.8</ele>
        <time>2019-08-07T15:27:36Z</time>
      </trkpt>
      <trkpt lat="48.8141930" lon="14.3123270">
        <ele>498.8</ele>
        <time>2019-08-07T15:27:37Z</time>
      </trkpt>
      <trkpt lat="48.8141960" lon="14.3123060">
        <ele>499.0</ele>
        <time>2019-08-07T15:27:38Z</time>
      </trkpt>
      <trkpt lat="48.8142010" lon="14.3122850">
        <ele>499.0</ele>
        <time>2019-08-07T15:27:39Z</time>
      </trkpt>
      <trkpt lat="48.8142060" lon="14.3122670">
        <ele>499.0</ele>
        <time>2019-08-07T15:27:40Z</time>
      </trkpt>
      <trkpt lat="48.8142130" lon="14.3122510">
        <ele>499.2</ele>
        <time>2019-08-07T15:27:41Z</time>
      </trkpt>
      <trkpt lat="48.8142190" lon="14.3122380">
        <ele>499.2</ele>
        <time>2019-08-07T15:27:42Z</time>
      </trkpt>
      <trkpt lat="48.8142250" lon="14.3122310">
        <ele>499.2</ele>
        <time>2019-08-07T15:27:43Z</time>
      </trkpt>
      <trkpt lat="48.8142310" lon="14.3122290">
        <ele>499.2</ele>
        <time>2019-08-07T15:27:44Z</time>
      </trkpt>
      <trkpt lat="48.8142440" lon="14.3122500">
        <ele>499.4</ele>
        <time>2019-08-07T15:29:02Z</time>
      </trkpt>
      <trkpt lat="48.8142460" lon="14.3122610">
        <ele>499.4</ele>
        <time>2019-08-07T15:29:03Z</time>
      </trkpt>
      <trkpt lat="48.8142450" lon="14.3122730">
        <ele>499.4</ele>
        <time>2019-08-07T15:29:04Z</time>
      </trkpt>
      <trkpt lat="48.8142440" lon="14.3122820">
        <ele>499.4</ele>
        <time>2019-08-07T15:29:05Z</time>
      </trkpt>
      <trkpt lat="48.8142420" lon="14.3122890">
        <ele>499.4</ele>
        <time>2019-08-07T15:29:06Z</time>
      </trkpt>
      <trkpt lat="48.8142420" lon="14.3122900">
        <ele>499.4</ele>
        <time>2019-08-07T15:29:07Z</time>
      </trkpt>
      <trkpt lat="48.8142430" lon="14.3122890">
        <ele>499.2</ele>
        <time>2019-08-07T15:29:08Z</time>
      </trkpt>
      <trkpt lat="48.8142430" lon="14.3122880">
        <ele>499.4</ele>
        <time>2019-08-07T15:29:09Z</time>
      </trkpt>
      <trkpt lat="48.8142430" lon="14.3122880">
        <ele>499.2</ele>
        <time>2019-08-07T15:29:18Z</time>
      </trkpt>
      <trkpt lat="48.8142470" lon="14.3123070">
        <ele>499.2</ele>
        <time>2019-08-07T15:29:19Z</time>
      </trkpt>
      <trkpt lat="48.8142470" lon="14.3123280">
        <ele>499.2</ele>
        <time>2019-08-07T15:29:20Z</time>
      </trkpt>
      <trkpt lat="48.8142470" lon="14.3123530">
        <ele>499.2</ele>
        <time>2019-08-07T15:29:21Z</time>
      </trkpt>
      <trkpt lat="48.8142450" lon="14.3123810">
        <ele>499.2</ele>
        <time>2019-08-07T15:29:22Z</time>
      </trkpt>
      <trkpt lat="48.8142450" lon="14.3124140">
        <ele>499.2</ele>
        <time>2019-08-07T15:29:23Z</time>
      </trkpt>
      <trkpt lat="48.8142450" lon="14.3124510">
        <ele>499.2</ele>
        <time>2019-08-07T15:29:24Z</time>
      </trkpt>
      <trkpt lat="48.8142450" lon="14.3124910">
        <ele>499.2</ele>
        <time>2019-08-07T15:29:25Z</time>
      </trkpt>
      <trkpt lat="48.8142440" lon="14.3125310">
        <ele>499.2</ele>
        <time>2019-08-07T15:29:26Z</time>
      </trkpt>
      <trkpt lat="48.8142450" lon="14.3125730">
        <ele>499.2</ele>
        <time>2019-08-07T15:29:27Z</time>
      </trkpt>
      <trkpt lat="48.8142460" lon="14.3126180">
        <ele>499.2</ele>
        <time>2019-08-07T15:29:28Z</time>
      </trkpt>
      <trkpt lat="48.8142480" lon="14.3126620">
        <ele>499.2</ele>
        <time>2019-08-07T15:29:29Z</time>
      </trkpt>
      <trkpt lat="48.8142480" lon="14.3127040">
        <ele>499.2</ele>
        <time>2019-08-07T15:29:30Z</time>
      </trkpt>
      <trkpt lat="48.8142500" lon="14.3127450">
        <ele>499.2</ele>
        <time>2019-08-07T15:29:31Z</time>
      </trkpt>
      <trkpt lat="48.8142500" lon="14.3127850">
        <ele>499.0</ele>
        <time>2019-08-07T15:29:32Z</time>
      </trkpt>
      <trkpt lat="48.8142530" lon="14.3128260">
        <ele>499.0</ele>
        <time>2019-08-07T15:29:33Z</time>
      </trkpt>
      <trkpt lat="48.8142570" lon="14.3128660">
        <ele>499.0</ele>
        <time>2019-08-07T15:29:34Z</time>
      </trkpt>
      <trkpt lat="48.8142610" lon="14.3129050">
        <ele>499.0</ele>
        <time>2019-08-07T15:29:35Z</time>
      </trkpt>
      <trkpt lat="48.8142640" lon="14.3129400">
        <ele>499.0</ele>
        <time>2019-08-07T15:29:36Z</time>
      </trkpt>
      <trkpt lat="48.8142680" lon="14.3129740">
        <ele>499.0</ele>
        <time>2019-08-07T15:29:37Z</time>
      </trkpt>
      <trkpt lat="48.8142710" lon="14.3130060">
        <ele>499.0</ele>
        <time>2019-08-07T15:29:38Z</time>
      </trkpt>
      <trkpt lat="48.8142740" lon="14.3130330">
        <ele>499.0</ele>
        <time>2019-08-07T15:29:39Z</time>
      </trkpt>
      <trkpt lat="48.8142780" lon="14.3130550">
        <ele>499.0</ele>
        <time>2019-08-07T15:29:40Z</time>
      </trkpt>
      <trkpt lat="48.8142840" lon="14.3130720">
        <ele>498.8</ele>
        <time>2019-08-07T15:29:41Z</time>
      </trkpt>
      <trkpt lat="48.8142900" lon="14.3130870">
        <ele>498.8</ele>
        <time>2019-08-07T15:29:42Z</time>
      </trkpt>
      <trkpt lat="48.8142970" lon="14.3130980">
        <ele>498.8</ele>
        <time>2019-08-07T15:29:43Z</time>
      </trkpt>
      <trkpt lat="48.8143010" lon="14.3131050">
        <ele>498.8</ele>
        <time>2019-08-07T15:29:44Z</time>
      </trkpt>
      <trkpt lat="48.8143040" lon="14.3131090">
        <ele>498.8</ele>
        <time>2019-08-07T15:29:45Z</time>
      </trkpt>
      <trkpt lat="48.8143050" lon="14.3131100">
        <ele>498.8</ele>
        <time>2019-08-07T15:29:46Z</time>
      </trkpt>
      <trkpt lat="48.8143060" lon="14.3131100">
        <ele>498.8</ele>
        <time>2019-08-07T15:29:47Z</time>
      </trkpt>
      <trkpt lat="48.8143070" lon="14.3131100">
        <ele>498.8</ele>
        <time>2019-08-07T15:29:48Z</time>
      </trkpt>
      <trkpt lat="48.8143220" lon="14.3131170">
        <ele>498.8</ele>
        <time>2019-08-07T15:29:49Z</time>
      </trkpt>
      <trkpt lat="48.8143400" lon="14.3131200">
        <ele>498.8</ele>
        <time>2019-08-07T15:29:50Z</time>
      </trkpt>
      <trkpt lat="48.8143610" lon="14.3131190">
        <ele>498.8</ele>
        <time>2019-08-07T15:29:51Z</time>
      </trkpt>
      <trkpt lat="48.8143870" lon="14.3131210">
        <ele>498.8</ele>
        <time>2019-08-07T15:29:52Z</time>
      </trkpt>
      <trkpt lat="48.8144170" lon="14.3131280">
        <ele>498.8</ele>
        <time>2019-08-07T15:29:53Z</time>
      </trkpt>
      <trkpt lat="48.8144510" lon="14.3131330">
        <ele>498.6</ele>
        <time>2019-08-07T15:29:54Z</time>
      </trkpt>
      <trkpt lat="48.8144860" lon="14.3131330">
        <ele>498.8</ele>
        <time>2019-08-07T15:29:55Z</time>
      </trkpt>
      <trkpt lat="48.8145170" lon="14.3131320">
        <ele>498.8</ele>
        <time>2019-08-07T15:29:56Z</time>
      </trkpt>
      <trkpt lat="48.8145450" lon="14.3131260">
        <ele>499.0</ele>
        <time>2019-08-07T15:29:57Z</time>
      </trkpt>
      <trkpt lat="48.8145680" lon="14.3131150">
        <ele>499.0</ele>
        <time>2019-08-07T15:29:58Z</time>
      </trkpt>
      <trkpt lat="48.8145870" lon="14.3130960">
        <ele>499.2</ele>
        <time>2019-08-07T15:29:59Z</time>
      </trkpt>
      <trkpt lat="48.8146020" lon="14.3130710">
        <ele>499.4</ele>
        <time>2019-08-07T15:30:00Z</time>
      </trkpt>
      <trkpt lat="48.8146160" lon="14.3130450">
        <ele>499.4</ele>
        <time>2019-08-07T15:30:01Z</time>
      </trkpt>
      <trkpt lat="48.8146260" lon="14.3130180">
        <ele>499.6</ele>
        <time>2019-08-07T15:30:02Z</time>
      </trkpt>
      <trkpt lat="48.8146360" lon="14.3129930">
        <ele>499.8</ele>
        <time>2019-08-07T15:30:03Z</time>
      </trkpt>
      <trkpt lat="48.8146440" lon="14.3129660">
        <ele>500.0</ele>
        <time>2019-08-07T15:30:04Z</time>
      </trkpt>
      <trkpt lat="48.8146460" lon="14.3129380">
        <ele>500.0</ele>
        <time>2019-08-07T15:30:05Z</time>
      </trkpt>
      <trkpt lat="48.8146450" lon="14.3129130">
        <ele>500.2</ele>
        <time>2019-08-07T15:30:06Z</time>
      </trkpt>
      <trkpt lat="48.8146410" lon="14.3128910">
        <ele>500.2</ele>
        <time>2019-08-07T15:30:07Z</time>
      </trkpt>
      <trkpt lat="48.8146330" lon="14.3128720">
        <ele>500.2</ele>
        <time>2019-08-07T15:30:08Z</time>
      </trkpt>
      <trkpt lat="48.8146260" lon="14.3128530">
        <ele>500.4</ele>
        <time>2019-08-07T15:30:09Z</time>
      </trkpt>
      <trkpt lat="48.8146180" lon="14.3128340">
        <ele>500.4</ele>
        <time>2019-08-07T15:30:10Z</time>
      </trkpt>
      <trkpt lat="48.8146090" lon="14.3128120">
        <ele>500.2</ele>
        <time>2019-08-07T15:30:11Z</time>
      </trkpt>
      <trkpt lat="48.8146000" lon="14.3127930">
        <ele>500.2</ele>
        <time>2019-08-07T15:30:12Z</time>
      </trkpt>
      <trkpt lat="48.8145920" lon="14.3127780">
        <ele>500.2</ele>
        <time>2019-08-07T15:30:13Z</time>
      </trkpt>
      <trkpt lat="48.8145820" lon="14.3127640">
        <ele>500.2</ele>
        <time>2019-08-07T15:30:14Z</time>
      </trkpt>
      <trkpt lat="48.8145720" lon="14.3127520">
        <ele>500.2</ele>
        <time>2019-08-07T15:30:15Z</time>
      </trkpt>
      <trkpt lat="48.8145590" lon="14.3127390">
        <ele>500.0</ele>
        <time>2019-08-07T15:30:16Z</time>
      </trkpt>
      <trkpt lat="48.8145490" lon="14.3127300">
        <ele>500.0</ele>
        <time>2019-08-07T15:30:17Z</time>
      </trkpt>
      <trkpt lat="48.8145450" lon="14.3127240">
        <ele>500.0</ele>
        <time>2019-08-07T15:30:18Z</time>
      </trkpt>
      <trkpt lat="48.8145440" lon="14.3127210">
        <ele>500.0</ele>
        <time>2019-08-07T15:30:19Z</time>
      </trkpt>
      <trkpt lat="48.8145410" lon="14.3127170">
        <ele>500.0</ele>
        <time>2019-08-07T15:30:20Z</time>
      </trkpt>
      <trkpt lat="48.8145400" lon="14.3127170">
        <ele>499.8</ele>
        <time>2019-08-07T15:30:21Z</time>
      </trkpt>
      <trkpt lat="48.7221830" lon="13.2626100">
        <ele>395.8</ele>
        <time>2019-08-15T07:25:18Z</time>
      </trkpt>
      <trkpt lat="48.7221830" lon="13.2626100">
        <ele>395.8</ele>
        <time>2019-08-15T07:25:19Z</time>
      </trkpt>
      <trkpt lat="48.7221770" lon="13.2626260">
        <ele>395.8</ele>
        <time>2019-08-15T07:25:20Z</time>
      </trkpt>
      <trkpt lat="48.7221670" lon="13.2626470">
        <ele>395.8</ele>
        <time>2019-08-15T07:25:21Z</time>
      </trkpt>
      <trkpt lat="48.7221560" lon="13.2626680">
        <ele>395.8</ele>
        <time>2019-08-15T07:25:22Z</time>
      </trkpt>
      <trkpt lat="48.7221420" lon="13.2626940">
        <ele>396.0</ele>
        <time>2019-08-15T07:25:23Z</time>
      </trkpt>
      <trkpt lat="48.7221280" lon="13.2627230">
        <ele>396.0</ele>
        <time>2019-08-15T07:25:24Z</time>
      </trkpt>
      <trkpt lat="48.7221100" lon="13.2627530">
        <ele>396.0</ele>
        <time>2019-08-15T07:25:25Z</time>
      </trkpt>
      <trkpt lat="48.7220870" lon="13.2627840">
        <ele>396.0</ele>
        <time>2019-08-15T07:25:26Z</time>
      </trkpt>
      <trkpt lat="48.7220630" lon="13.2628180">
        <ele>396.2</ele>
        <time>2019-08-15T07:25:27Z</time>
      </trkpt>
      <trkpt lat="48.7220410" lon="13.2628500">
        <ele>396.2</ele>
        <time>2019-08-15T07:25:28Z</time>
      </trkpt>
      <trkpt lat="48.7220170" lon="13.2628810">
        <ele>396.2</ele>
        <time>2019-08-15T07:25:29Z</time>
      </trkpt>
      <trkpt lat="48.7219920" lon="13.2629190">
        <ele>396.4</ele>
        <time>2019-08-15T07:25:30Z</time>
      </trkpt>
      <trkpt lat="48.7219600" lon="13.2629600">
        <ele>396.4</ele>
        <time>2019-08-15T07:25:31Z</time>
      </trkpt>
      <trkpt lat="48.7219250" lon="13.2629980">
        <ele>396.4</ele>
        <time>2019-08-15T07:25:32Z</time>
      </trkpt>
      <trkpt lat="48.7218880" lon="13.2630360">
        <ele>396.6</ele>
        <time>2019-08-15T07:25:33Z</time>
      </trkpt>
      <trkpt lat="48.7218520" lon="13.2630720">
        <ele>396.6</ele>
        <time>2019-08-15T07:25:34Z</time>
      </trkpt>
      <trkpt lat="48.7218180" lon="13.2631060">
        <ele>396.8</ele>
        <time>2019-08-15T07:25:35Z</time>
      </trkpt>
      <trkpt lat="48.7217890" lon="13.2631370">
        <ele>396.8</ele>
        <time>2019-08-15T07:25:36Z</time>
      </trkpt>
      <trkpt lat="48.7217590" lon="13.2631680">
        <ele>396.8</ele>
        <time>2019-08-15T07:25:37Z</time>
      </trkpt>
      <trkpt lat="48.7217250" lon="13.2631990">
        <ele>397.0</ele>
        <time>2019-08-15T07:25:38Z</time>
      </trkpt>
      <trkpt lat="48.7216940" lon="13.2632310">
        <ele>397.0</ele>
        <time>2019-08-15T07:25:39Z</time>
      </trkpt>
      <trkpt lat="48.7216600" lon="13.2632730">
        <ele>397.0</ele>
        <time>2019-08-15T07:25:40Z</time>
      </trkpt>
      <trkpt lat="48.7216260" lon="13.2633100">
        <ele>397.2</ele>
        <time>2019-08-15T07:25:41Z</time>
      </trkpt>
      <trkpt lat="48.7215930" lon="13.2633380">
        <ele>397.2</ele>
        <time>2019-08-15T07:25:42Z</time>
      </trkpt>
      <trkpt lat="48.7215510" lon="13.2633700">
        <ele>397.4</ele>
        <time>2019-08-15T07:25:43Z</time>
      </trkpt>
      <trkpt lat="48.7215070" lon="13.2634080">
        <ele>397.4</ele>
        <time>2019-08-15T07:25:44Z</time>
      </trkpt>
      <trkpt lat="48.7214610" lon="13.2634440">
        <ele>397.4</ele>
        <time>2019-08-15T07:25:45Z</time>
      </trkpt>
      <trkpt lat="48.7214110" lon="13.2634780">
        <ele>397.6</ele>
        <time>2019-08-15T07:25:46Z</time>
      </trkpt>
      <trkpt lat="48.7213590" lon="13.2635060">
        <ele>397.6</ele>
        <time>2019-08-15T07:25:47Z</time>
      </trkpt>
      <trkpt lat="48.7213080" lon="13.2635330">
        <ele>397.8</ele>
        <time>2019-08-15T07:25:48Z</time>
      </trkpt>
      <trkpt lat="48.7212560" lon="13.2635570">
        <ele>397.8</ele>
        <time>2019-08-15T07:25:49Z</time>
      </trkpt>
      <trkpt lat="48.7212030" lon="13.2635810">
        <ele>398.0</ele>
        <time>2019-08-15T07:25:50Z</time>
      </trkpt>
      <trkpt lat="48.7211510" lon="13.2636020">
        <ele>398.0</ele>
        <time>2019-08-15T07:25:51Z</time>
      </trkpt>
      <trkpt lat="48.7210970" lon="13.2636210">
        <ele>398.0</ele>
        <time>2019-08-15T07:25:52Z</time>
      </trkpt>
      <trkpt lat="48.7210460" lon="13.2636410">
        <ele>398.2</ele>
        <time>2019-08-15T07:25:53Z</time>
      </trkpt>
      <trkpt lat="48.7209910" lon="13.2636680">
        <ele>398.2</ele>
        <time>2019-08-15T07:25:54Z</time>
      </trkpt>
      <trkpt lat="48.7209340" lon="13.2636990">
        <ele>398.2</ele>
        <time>2019-08-15T07:25:55Z</time>
      </trkpt>
      <trkpt lat="48.7208790" lon="13.2637310">
        <ele>398.2</ele>
        <time>2019-08-15T07:25:56Z</time>
      </trkpt>
      <trkpt lat="48.7208210" lon="13.2637620">
        <ele>398.4</ele>
        <time>2019-08-15T07:25:57Z</time>
      </trkpt>
      <trkpt lat="48.7207590" lon="13.2637930">
        <ele>398.4</ele>
        <time>2019-08-15T07:25:58Z</time>
      </trkpt>
      <trkpt lat="48.7207000" lon="13.2638260">
        <ele>398.6</ele>
        <time>2019-08-15T07:25:59Z</time>
      </trkpt>
      <trkpt lat="48.7206410" lon="13.2638610">
        <ele>398.6</ele>
        <time>2019-08-15T07:26:00Z</time>
      </trkpt>
      <trkpt lat="48.7205860" lon="13.2638900">
        <ele>398.6</ele>
        <time>2019-08-15T07:26:01Z</time>
      </trkpt>
      <trkpt lat="48.7205330" lon="13.2639210">
        <ele>398.6</ele>
        <time>2019-08-15T07:26:02Z</time>
      </trkpt>
      <trkpt lat="48.7204800" lon="13.2639530">
        <ele>398.8</ele>
        <time>2019-08-15T07:26:03Z</time>
      </trkpt>
      <trkpt lat="48.7204310" lon="13.2639870">
        <ele>399.0</ele>
        <time>2019-08-15T07:26:04Z</time>
      </trkpt>
      <trkpt lat="48.7203840" lon="13.2640290">
        <ele>399.0</ele>
        <time>2019-08-15T07:26:05Z</time>
      </trkpt>
      <trkpt lat="48.7203380" lon="13.2640740">
        <ele>399.0</ele>
        <time>2019-08-15T07:26:06Z</time>
      </trkpt>
      <trkpt lat="48.7202950" lon="13.2641200">
        <ele>399.0</ele>
        <time>2019-08-15T07:26:07Z</time>
      </trkpt>
      <trkpt lat="48.7202500" lon="13.2641650">
        <ele>399.2</ele>
        <time>2019-08-15T07:26:08Z</time>
      </trkpt>
      <trkpt lat="48.7202060" lon="13.2642110">
        <ele>399.2</ele>
        <time>2019-08-15T07:26:09Z</time>
      </trkpt>
      <trkpt lat="48.7201630" lon="13.2642570">
        <ele>399.4</ele>
        <time>2019-08-15T07:26:10Z</time>
      </trkpt>
      <trkpt lat="48.7201230" lon="13.2643040">
        <ele>399.4</ele>
        <time>2019-08-15T07:26:11Z</time>
      </trkpt>
      <trkpt lat="48.7200870" lon="13.2643550">
        <ele>399.4</ele>
        <time>2019-08-15T07:26:12Z</time>
      </trkpt>
      <trkpt lat="48.7200500" lon="13.2644080">
        <ele>399.4</ele>
        <time>2019-08-15T07:26:13Z</time>
      </trkpt>
      <trkpt lat="48.7200150" lon="13.2644660">
        <ele>399.4</ele>
        <time>2019-08-15T07:26:14Z</time>
      </trkpt>
      <trkpt lat="48.7199830" lon="13.2645240">
        <ele>399.6</ele>
        <time>2019-08-15T07:26:15Z</time>
      </trkpt>
      <trkpt lat="48.7199560" lon="13.2645740">
        <ele>399.6</ele>
        <time>2019-08-15T07:26:16Z</time>
      </trkpt>
      <trkpt lat="48.7199250" lon="13.2646230">
        <ele>399.6</ele>
        <time>2019-08-15T07:26:17Z</time>
      </trkpt>
      <trkpt lat="48.7198950" lon="13.2646710">
        <ele>399.6</ele>
        <time>2019-08-15T07:26:18Z</time>
      </trkpt>
      <trkpt lat="48.7198660" lon="13.2647210">
        <ele>399.8</ele>
        <time>2019-08-15T07:26:19Z</time>
      </trkpt>
      <trkpt lat="48.7198390" lon="13.2647750">
        <ele>399.8</ele>
        <time>2019-08-15T07:26:20Z</time>
      </trkpt>
      <trkpt lat="48.7198140" lon="13.2648320">
        <ele>399.8</ele>
        <time>2019-08-15T07:26:21Z</time>
      </trkpt>
      <trkpt lat="48.7197870" lon="13.2648930">
        <ele>400.0</ele>
        <time>2019-08-15T07:26:22Z</time>
      </trkpt>
      <trkpt lat="48.7197620" lon="13.2649510">
        <ele>400.0</ele>
        <time>2019-08-15T07:26:23Z</time>
      </trkpt>
      <trkpt lat="48.7197400" lon="13.2650050">
        <ele>400.0</ele>
        <time>2019-08-15T07:26:24Z</time>
      </trkpt>
      <trkpt lat="48.7197170" lon="13.2650570">
        <ele>400.2</ele>
        <time>2019-08-15T07:26:25Z</time>
      </trkpt>
      <trkpt lat="48.7196930" lon="13.2651100">
        <ele>400.2</ele>
        <time>2019-08-15T07:26:26Z</time>
      </trkpt>
      <trkpt lat="48.7196700" lon="13.2651610">
        <ele>400.4</ele>
        <time>2019-08-15T07:26:27Z</time>
      </trkpt>
      <trkpt lat="48.7196510" lon="13.2652080">
        <ele>400.4</ele>
        <time>2019-08-15T07:26:28Z</time>
      </trkpt>
      <trkpt lat="48.7196300" lon="13.2652620">
        <ele>400.4</ele>
        <time>2019-08-15T07:26:29Z</time>
      </trkpt>
      <trkpt lat="48.7196040" lon="13.2653190">
        <ele>400.6</ele>
        <time>2019-08-15T07:26:30Z</time>
      </trkpt>
      <trkpt lat="48.7195770" lon="13.2653770">
        <ele>400.6</ele>
        <time>2019-08-15T07:26:31Z</time>
      </trkpt>
      <trkpt lat="48.7195500" lon="13.2654310">
        <ele>400.6</ele>
        <time>2019-08-15T07:26:32Z</time>
      </trkpt>
      <trkpt lat="48.7195150" lon="13.2654840">
        <ele>400.8</ele>
        <time>2019-08-15T07:26:33Z</time>
      </trkpt>
      <trkpt lat="48.7194750" lon="13.2655400">
        <ele>400.8</ele>
        <time>2019-08-15T07:26:34Z</time>
      </trkpt>
      <trkpt lat="48.7194330" lon="13.2655930">
        <ele>400.8</ele>
        <time>2019-08-15T07:26:35Z</time>
      </trkpt>
      <trkpt lat="48.7193930" lon="13.2656430">
        <ele>400.8</ele>
        <time>2019-08-15T07:26:36Z</time>
      </trkpt>
      <trkpt lat="48.7193520" lon="13.2656890">
        <ele>401.0</ele>
        <time>2019-08-15T07:26:37Z</time>
      </trkpt>
      <trkpt lat="48.7193070" lon="13.2657400">
        <ele>401.0</ele>
        <time>2019-08-15T07:26:38Z</time>
      </trkpt>
      <trkpt lat="48.7192630" lon="13.2657940">
        <ele>401.2</ele>
        <time>2019-08-15T07:26:39Z</time>
      </trkpt>
      <trkpt lat="48.7192210" lon="13.2658450">
        <ele>401.2</ele>
        <time>2019-08-15T07:26:40Z</time>
      </trkpt>
      <trkpt lat="48.7191780" lon="13.2658900">
        <ele>401.2</ele>
        <time>2019-08-15T07:26:41Z</time>
      </trkpt>
      <trkpt lat="48.7191300" lon="13.2659360">
        <ele>401.4</ele>
        <time>2019-08-15T07:26:42Z</time>
      </trkpt>
      <trkpt lat="48.7190840" lon="13.2659800">
        <ele>401.4</ele>
        <time>2019-08-15T07:26:43Z</time>
      </trkpt>
      <trkpt lat="48.7190430" lon="13.2660170">
        <ele>401.6</ele>
        <time>2019-08-15T07:26:44Z</time>
      </trkpt>
      <trkpt lat="48.7190030" lon="13.2660570">
        <ele>401.6</ele>
        <time>2019-08-15T07:26:45Z</time>
      </trkpt>
      <trkpt lat="48.7189570" lon="13.2660990">
        <ele>401.8</ele>
        <time>2019-08-15T07:26:46Z</time>
      </trkpt>
      <trkpt lat="48.7189080" lon="13.2661380">
        <ele>401.8</ele>
        <time>2019-08-15T07:26:47Z</time>
      </trkpt>
      <trkpt lat="48.7188580" lon="13.2661770">
        <ele>402.0</ele>
        <time>2019-08-15T07:26:48Z</time>
      </trkpt>
      <trkpt lat="48.7188050" lon="13.2662180">
        <ele>402.0</ele>
        <time>2019-08-15T07:26:49Z</time>
      </trkpt>
      <trkpt lat="48.7187520" lon="13.2662580">
        <ele>402.0</ele>
        <time>2019-08-15T07:26:50Z</time>
      </trkpt>
      <trkpt lat="48.7186970" lon="13.2662970">
        <ele>402.0</ele>
        <time>2019-08-15T07:26:51Z</time>
      </trkpt>
      <trkpt lat="48.7186450" lon="13.2663350">
        <ele>402.2</ele>
        <time>2019-08-15T07:26:52Z</time>
      </trkpt>
      <trkpt lat="48.7185920" lon="13.2663720">
        <ele>402.4</ele>
        <time>2019-08-15T07:26:53Z</time>
      </trkpt>
      <trkpt lat="48.7185400" lon="13.2664090">
        <ele>402.2</ele>
        <time>2019-08-15T07:26:54Z</time>
      </trkpt>
      <trkpt lat="48.7184880" lon="13.2664450">
        <ele>402.2</ele>
        <time>2019-08-15T07:26:55Z</time>
      </trkpt>
      <trkpt lat="48.7184390" lon="13.2664820">
        <ele>402.2</ele>
        <time>2019-08-15T07:26:56Z</time>
      </trkpt>
      <trkpt lat="48.7183910" lon="13.2665140">
        <ele>402.4</ele>
        <time>2019-08-15T07:26:57Z</time>
      </trkpt>
      <trkpt lat="48.7183430" lon="13.2665460">
        <ele>402.4</ele>
        <time>2019-08-15T07:26:58Z</time>
      </trkpt>
      <trkpt lat="48.7182950" lon="13.2665810">
        <ele>402.4</ele>
        <time>2019-08-15T07:26:59Z</time>
      </trkpt>
      <trkpt lat="48.7182490" lon="13.2666200">
        <ele>402.4</ele>
        <time>2019-08-15T07:27:00Z</time>
      </trkpt>
      <trkpt lat="48.7182030" lon="13.2666580">
        <ele>402.6</ele>
        <time>2019-08-15T07:27:01Z</time>
      </trkpt>
      <trkpt lat="48.7181570" lon="13.2667000">
        <ele>402.6</ele>
        <time>2019-08-15T07:27:02Z</time>
      </trkpt>
      <trkpt lat="48.7181130" lon="13.2667430">
        <ele>402.6</ele>
        <time>2019-08-15T07:27:03Z</time>
      </trkpt>
      <trkpt lat="48.7180700" lon="13.2667870">
        <ele>402.6</ele>
        <time>2019-08-15T07:27:04Z</time>
      </trkpt>
      <trkpt lat="48.7180260" lon="13.2668330">
        <ele>402.6</ele>
        <time>2019-08-15T07:27:05Z</time>
      </trkpt>
      <trkpt lat="48.7179870" lon="13.2668770">
        <ele>402.8</ele>
        <time>2019-08-15T07:27:06Z</time>
      </trkpt>
      <trkpt lat="48.7179490" lon="13.2669220">
        <ele>402.8</ele>
        <time>2019-08-15T07:27:07Z</time>
      </trkpt>
      <trkpt lat="48.7179120" lon="13.2669710">
        <ele>402.8</ele>
        <time>2019-08-15T07:27:08Z</time>
      </trkpt>
      <trkpt lat="48.7178770" lon="13.2670200">
        <ele>403.0</ele>
        <time>2019-08-15T07:27:09Z</time>
      </trkpt>
      <trkpt lat="48.7178450" lon="13.2670700">
        <ele>403.0</ele>
        <time>2019-08-15T07:27:10Z</time>
      </trkpt>
      <trkpt lat="48.7178150" lon="13.2671260">
        <ele>403.0</ele>
        <time>2019-08-15T07:27:11Z</time>
      </trkpt>
      <trkpt lat="48.7177830" lon="13.2671830">
        <ele>403.0</ele>
        <time>2019-08-15T07:27:12Z</time>
      </trkpt>
      <trkpt lat="48.7177490" lon="13.2672430">
        <ele>403.2</ele>
        <time>2019-08-15T07:27:13Z</time>
      </trkpt>
      <trkpt lat="48.7177160" lon="13.2673050">
        <ele>403.2</ele>
        <time>2019-08-15T07:27:14Z</time>
      </trkpt>
      <trkpt lat="48.7176850" lon="13.2673680">
        <ele>403.2</ele>
        <time>2019-08-15T07:27:15Z</time>
      </trkpt>
      <trkpt lat="48.7176560" lon="13.2674340">
        <ele>403.4</ele>
        <time>2019-08-15T07:27:16Z</time>
      </trkpt>
      <trkpt lat="48.7176300" lon="13.2675000">
        <ele>403.4</ele>
        <time>2019-08-15T07:27:17Z</time>
      </trkpt>
      <trkpt lat="48.7176070" lon="13.2675670">
        <ele>403.4</ele>
        <time>2019-08-15T07:27:18Z</time>
      </trkpt>
      <trkpt lat="48.7175840" lon="13.2676310">
        <ele>403.4</ele>
        <time>2019-08-15T07:27:19Z</time>
      </trkpt>
      <trkpt lat="48.7175590" lon="13.2676890">
        <ele>403.6</ele>
        <time>2019-08-15T07:27:20Z</time>
      </trkpt>
      <trkpt lat="48.7175320" lon="13.2677500">
        <ele>403.6</ele>
        <time>2019-08-15T07:27:21Z</time>
      </trkpt>
      <trkpt lat="48.7175070" lon="13.2678130">
        <ele>403.6</ele>
        <time>2019-08-15T07:27:22Z</time>
      </trkpt>
      <trkpt lat="48.7174850" lon="13.2678760">
        <ele>403.8</ele>
        <time>2019-08-15T07:27:23Z</time>
      </trkpt>
      <trkpt lat="48.7174650" lon="13.2679360">
        <ele>403.8</ele>
        <time>2019-08-15T07:27:24Z</time>
      </trkpt>
      <trkpt lat="48.7174500" lon="13.2679910">
        <ele>404.0</ele>
        <time>2019-08-15T07:27:25Z</time>
      </trkpt>
      <trkpt lat="48.7174360" lon="13.2680410">
        <ele>404.0</ele>
        <time>2019-08-15T07:27:26Z</time>
      </trkpt>
      <trkpt lat="48.7174190" lon="13.2680920">
        <ele>404.0</ele>
        <time>2019-08-15T07:27:27Z</time>
      </trkpt>
      <trkpt lat="48.7174010" lon="13.2681440">
        <ele>404.0</ele>
        <time>2019-08-15T07:27:28Z</time>
      </trkpt>
      <trkpt lat="48.7173880" lon="13.2681880">
        <ele>404.2</ele>
        <time>2019-08-15T07:27:29Z</time>
      </trkpt>
      <trkpt lat="48.7173760" lon="13.2682290">
        <ele>404.2</ele>
        <time>2019-08-15T07:27:30Z</time>
      </trkpt>
      <trkpt lat="48.7173670" lon="13.2682720">
        <ele>404.2</ele>
        <time>2019-08-15T07:27:31Z</time>
      </trkpt>
      <trkpt lat="48.7173570" lon="13.2683140">
        <ele>404.2</ele>
        <time>2019-08-15T07:27:32Z</time>
      </trkpt>
      <trkpt lat="48.7173460" lon="13.2683500">
        <ele>404.2</ele>
        <time>2019-08-15T07:27:33Z</time>
      </trkpt>
      <trkpt lat="48.7173360" lon="13.2683760">
        <ele>404.2</ele>
        <time>2019-08-15T07:27:34Z</time>
      </trkpt>
      <trkpt lat="48.7173220" lon="13.2683980">
        <ele>404.4</ele>
        <time>2019-08-15T07:27:35Z</time>
      </trkpt>
      <trkpt lat="48.7173080" lon="13.2684240">
        <ele>404.4</ele>
        <time>2019-08-15T07:27:36Z</time>
      </trkpt>
      <trkpt lat="48.7172920" lon="13.2684570">
        <ele>404.4</ele>
        <time>2019-08-15T07:27:37Z</time>
      </trkpt>
      <trkpt lat="48.7172750" lon="13.2684910">
        <ele>404.4</ele>
        <time>2019-08-15T07:27:38Z</time>
      </trkpt>
      <trkpt lat="48.7172590" lon="13.2685280">
        <ele>404.4</ele>
        <time>2019-08-15T07:27:39Z</time>
      </trkpt>
      <trkpt lat="48.7172420" lon="13.2685750">
        <ele>404.6</ele>
        <time>2019-08-15T07:27:40Z</time>
      </trkpt>
      <trkpt lat="48.7172290" lon="13.2686240">
        <ele>404.6</ele>
        <time>2019-08-15T07:27:41Z</time>
      </trkpt>
      <trkpt lat="48.7172180" lon="13.2686720">
        <ele>404.6</ele>
        <time>2019-08-15T07:27:42Z</time>
      </trkpt>
      <trkpt lat="48.7171990" lon="13.2687170">
        <ele>404.6</ele>
        <time>2019-08-15T07:27:43Z</time>
      </trkpt>
      <trkpt lat="48.7171780" lon="13.2687590">
        <ele>404.6</ele>
        <time>2019-08-15T07:27:44Z</time>
      </trkpt>
      <trkpt lat="48.7171560" lon="13.2687980">
        <ele>404.8</ele>
        <time>2019-08-15T07:27:45Z</time>
      </trkpt>
      <trkpt lat="48.7171360" lon="13.2688390">
        <ele>404.8</ele>
        <time>2019-08-15T07:27:46Z</time>
      </trkpt>
      <trkpt lat="48.7171160" lon="13.2688830">
        <ele>404.8</ele>
        <time>2019-08-15T07:27:47Z</time>
      </trkpt>
      <trkpt lat="48.7170930" lon="13.2689340">
        <ele>405.0</ele>
        <time>2019-08-15T07:27:48Z</time>
      </trkpt>
      <trkpt lat="48.7170670" lon="13.2689850">
        <ele>405.0</ele>
        <time>2019-08-15T07:27:49Z</time>
      </trkpt>
      <trkpt lat="48.7170410" lon="13.2690340">
        <ele>405.0</ele>
        <time>2019-08-15T07:27:50Z</time>
      </trkpt>
      <trkpt lat="48.7170140" lon="13.2690830">
        <ele>405.2</ele>
        <time>2019-08-15T07:27:51Z</time>
      </trkpt>
      <trkpt lat="48.7169860" lon="13.2691330">
        <ele>405.2</ele>
        <time>2019-08-15T07:27:52Z</time>
      </trkpt>
      <trkpt lat="48.7169550" lon="13.2691860">
        <ele>405.2</ele>
        <time>2019-08-15T07:27:53Z</time>
      </trkpt>
      <trkpt lat="48.7169240" lon="13.2692410">
        <ele>405.4</ele>
        <time>2019-08-15T07:27:54Z</time>
      </trkpt>
      <trkpt lat="48.7168920" lon="13.2692950">
        <ele>405.4</ele>
        <time>2019-08-15T07:27:55Z</time>
      </trkpt>
      <trkpt lat="48.7168590" lon="13.2693470">
        <ele>405.6</ele>
        <time>2019-08-15T07:27:56Z</time>
      </trkpt>
      <trkpt lat="48.7168220" lon="13.2693970">
        <ele>405.6</ele>
        <time>2019-08-15T07:27:57Z</time>
      </trkpt>
      <trkpt lat="48.7167850" lon="13.2694440">
        <ele>405.6</ele>
        <time>2019-08-15T07:27:58Z</time>
      </trkpt>
      <trkpt lat="48.7167490" lon="13.2694890">
        <ele>405.8</ele>
        <time>2019-08-15T07:27:59Z</time>
      </trkpt>
      <trkpt lat="48.7167170" lon="13.2695320">
        <ele>405.8</ele>
        <time>2019-08-15T07:28:00Z</time>
      </trkpt>
      <trkpt lat="48.7166830" lon="13.2695750">
        <ele>405.8</ele>
        <time>2019-08-15T07:28:01Z</time>
      </trkpt>
      <trkpt lat="48.7166480" lon="13.2696170">
        <ele>406.0</ele>
        <time>2019-08-15T07:28:02Z</time>
      </trkpt>
      <trkpt lat="48.7166110" lon="13.2696600">
        <ele>406.0</ele>
        <time>2019-08-15T07:28:03Z</time>
      </trkpt>
      <trkpt lat="48.7165730" lon="13.2697080">
        <ele>406.0</ele>
        <time>2019-08-15T07:28:04Z</time>
      </trkpt>
      <trkpt lat="48.7165370" lon="13.2697540">
        <ele>406.0</ele>
        <time>2019-08-15T07:28:05Z</time>
      </trkpt>
      <trkpt lat="48.7164980" lon="13.2698010">
        <ele>406.2</ele>
        <time>2019-08-15T07:28:06Z</time>
      </trkpt>
      <trkpt lat="48.7164600" lon="13.2698470">
        <ele>406.2</ele>
        <time>2019-08-15T07:28:07Z</time>
      </trkpt>
      <trkpt lat="48.7164200" lon="13.2698940">
        <ele>406.4</ele>
        <time>2019-08-15T07:28:08Z</time>
      </trkpt>
      <trkpt lat="48.7163830" lon="13.2699390">
        <ele>406.4</ele>
        <time>2019-08-15T07:28:09Z</time>
      </trkpt>
      <trkpt lat="48.7163470" lon="13.2699860">
        <ele>406.4</ele>
        <time>2019-08-15T07:28:10Z</time>
      </trkpt>
      <trkpt lat="48.7163120" lon="13.2700340">
        <ele>406.6</ele>
        <time>2019-08-15T07:28:11Z</time>
      </trkpt>
      <trkpt lat="48.7162850" lon="13.2700810">
        <ele>406.6</ele>
        <time>2019-08-15T07:28:12Z</time>
      </trkpt>
      <trkpt lat="48.7162620" lon="13.2701280">
        <ele>406.6</ele>
        <time>2019-08-15T07:28:13Z</time>
      </trkpt>
      <trkpt lat="48.7162370" lon="13.2701760">
        <ele>406.8</ele>
        <time>2019-08-15T07:28:14Z</time>
      </trkpt>
      <trkpt lat="48.7162070" lon="13.2702270">
        <ele>406.8</ele>
        <time>2019-08-15T07:28:15Z</time>
      </trkpt>
      <trkpt lat="48.7161780" lon="13.2702810">
        <ele>406.8</ele>
        <time>2019-08-15T07:28:16Z</time>
      </trkpt>
      <trkpt lat="48.7161520" lon="13.2703320">
        <ele>407.0</ele>
        <time>2019-08-15T07:28:17Z</time>
      </trkpt>
      <trkpt lat="48.7161250" lon="13.2703900">
        <ele>407.0</ele>
        <time>2019-08-15T07:28:18Z</time>
      </trkpt>
      <trkpt lat="48.7160990" lon="13.2704490">
        <ele>407.0</ele>
        <time>2019-08-15T07:28:19Z</time>
      </trkpt>
      <trkpt lat="48.7160740" lon="13.2705060">
        <ele>407.2</ele>
        <time>2019-08-15T07:28:20Z</time>
      </trkpt>
      <trkpt lat="48.7160480" lon="13.2705670">
        <ele>407.2</ele>
        <time>2019-08-15T07:28:21Z</time>
      </trkpt>
      <trkpt lat="48.7160220" lon="13.2706290">
        <ele>407.2</ele>
        <time>2019-08-15T07:28:22Z</time>
      </trkpt>
      <trkpt lat="48.7159960" lon="13.2706890">
        <ele>407.2</ele>
        <time>2019-08-15T07:28:23Z</time>
      </trkpt>
      <trkpt lat="48.7159700" lon="13.2707460">
        <ele>407.4</ele>
        <time>2019-08-15T07:28:24Z</time>
      </trkpt>
      <trkpt lat="48.7159430" lon="13.2708030">
        <ele>407.4</ele>
        <time>2019-08-15T07:28:25Z</time>
      </trkpt>
      <trkpt lat="48.7159200" lon="13.2708580">
        <ele>407.4</ele>
        <time>2019-08-15T07:28:26Z</time>
      </trkpt>
      <trkpt lat="48.7158990" lon="13.2709250">
        <ele>407.6</ele>
        <time>2019-08-15T07:28:27Z</time>
      </trkpt>
      <trkpt lat="48.7158790" lon="13.2709990">
        <ele>407.8</ele>
        <time>2019-08-15T07:28:28Z</time>
      </trkpt>
      <trkpt lat="48.7158620" lon="13.2710750">
        <ele>407.8</ele>
        <time>2019-08-15T07:28:29Z</time>
      </trkpt>
      <trkpt lat="48.7158360" lon="13.2711580">
        <ele>408.0</ele>
        <time>2019-08-15T07:28:30Z</time>
      </trkpt>
      <trkpt lat="48.7158090" lon="13.2712420">
        <ele>408.0</ele>
        <time>2019-08-15T07:28:31Z</time>
      </trkpt>
      <trkpt lat="48.7157840" lon="13.2713210">
        <ele>408.0</ele>
        <time>2019-08-15T07:28:32Z</time>
      </trkpt>
      <trkpt lat="48.7157610" lon="13.2713970">
        <ele>408.2</ele>
        <time>2019-08-15T07:28:33Z</time>
      </trkpt>
      <trkpt lat="48.7157380" lon="13.2714750">
        <ele>408.2</ele>
        <time>2019-08-15T07:28:34Z</time>
      </trkpt>
      <trkpt lat="48.7157180" lon="13.2715480">
        <ele>408.2</ele>
        <time>2019-08-15T07:28:35Z</time>
      </trkpt>
      <trkpt lat="48.7156980" lon="13.2716230">
        <ele>408.2</ele>
        <time>2019-08-15T07:28:36Z</time>
      </trkpt>
      <trkpt lat="48.7156780" lon="13.2716970">
        <ele>408.4</ele>
        <time>2019-08-15T07:28:37Z</time>
      </trkpt>
      <trkpt lat="48.7156580" lon="13.2717750">
        <ele>408.4</ele>
        <time>2019-08-15T07:28:38Z</time>
      </trkpt>
      <trkpt lat="48.7156400" lon="13.2718450">
        <ele>408.4</ele>
        <time>2019-08-15T07:28:39Z</time>
      </trkpt>
      <trkpt lat="48.7156240" lon="13.2719150">
        <ele>408.6</ele>
        <time>2019-08-15T07:28:40Z</time>
      </trkpt>
      <trkpt lat="48.7156080" lon="13.2719920">
        <ele>408.6</ele>
        <time>2019-08-15T07:28:41Z</time>
      </trkpt>
      <trkpt lat="48.7155950" lon="13.2720680">
        <ele>408.6</ele>
        <time>2019-08-15T07:28:42Z</time>
      </trkpt>
      <trkpt lat="48.7155790" lon="13.2721430">
        <ele>408.8</ele>
        <time>2019-08-15T07:28:43Z</time>
      </trkpt>
      <trkpt lat="48.7155580" lon="13.2722210">
        <ele>408.8</ele>
        <time>2019-08-15T07:28:44Z</time>
      </trkpt>
      <trkpt lat="48.7155380" lon="13.2722990">
        <ele>408.8</ele>
        <time>2019-08-15T07:28:45Z</time>
      </trkpt>
      <trkpt lat="48.7155200" lon="13.2723820">
        <ele>409.0</ele>
        <time>2019-08-15T07:28:46Z</time>
      </trkpt>
      <trkpt lat="48.7155010" lon="13.2724650">
        <ele>409.0</ele>
        <time>2019-08-15T07:28:47Z</time>
      </trkpt>
      <trkpt lat="48.7154790" lon="13.2725490">
        <ele>409.0</ele>
        <time>2019-08-15T07:28:48Z</time>
      </trkpt>
      <trkpt lat="48.7154530" lon="13.2726340">
        <ele>409.2</ele>
        <time>2019-08-15T07:28:49Z</time>
      </trkpt>
      <trkpt lat="48.7154290" lon="13.2727180">
        <ele>409.2</ele>
        <time>2019-08-15T07:28:50Z</time>
      </trkpt>
      <trkpt lat="48.7154080" lon="13.2727990">
        <ele>409.4</ele>
        <time>2019-08-15T07:28:51Z</time>
      </trkpt>
      <trkpt lat="48.7153880" lon="13.2728810">
        <ele>409.4</ele>
        <time>2019-08-15T07:28:52Z</time>
      </trkpt>
      <trkpt lat="48.7153680" lon="13.2729620">
        <ele>409.4</ele>
        <time>2019-08-15T07:28:53Z</time>
      </trkpt>
      <trkpt lat="48.7153490" lon="13.2730400">
        <ele>409.4</ele>
        <time>2019-08-15T07:28:54Z</time>
      </trkpt>
      <trkpt lat="48.7153310" lon="13.2731200">
        <ele>409.6</ele>
        <time>2019-08-15T07:28:55Z</time>
      </trkpt>
      <trkpt lat="48.7153110" lon="13.2731980">
        <ele>409.6</ele>
        <time>2019-08-15T07:28:56Z</time>
      </trkpt>
      <trkpt lat="48.7152910" lon="13.2732770">
        <ele>409.6</ele>
        <time>2019-08-15T07:28:57Z</time>
      </trkpt>
      <trkpt lat="48.7152710" lon="13.2733540">
        <ele>409.8</ele>
        <time>2019-08-15T07:28:58Z</time>
      </trkpt>
      <trkpt lat="48.7152510" lon="13.2734300">
        <ele>409.8</ele>
        <time>2019-08-15T07:28:59Z</time>
      </trkpt>
      <trkpt lat="48.7152310" lon="13.2735080">
        <ele>410.0</ele>
        <time>2019-08-15T07:29:00Z</time>
      </trkpt>
      <trkpt lat="48.7152130" lon="13.2735890">
        <ele>410.0</ele>
        <time>2019-08-15T07:29:01Z</time>
      </trkpt>
      <trkpt lat="48.7151930" lon="13.2736720">
        <ele>410.0</ele>
        <time>2019-08-15T07:29:02Z</time>
      </trkpt>
      <trkpt lat="48.7151740" lon="13.2737540">
        <ele>410.0</ele>
        <time>2019-08-15T07:29:03Z</time>
      </trkpt>
      <trkpt lat="48.7151560" lon="13.2738330">
        <ele>410.2</ele>
        <time>2019-08-15T07:29:04Z</time>
      </trkpt>
      <trkpt lat="48.7151360" lon="13.2739110">
        <ele>410.2</ele>
        <time>2019-08-15T07:29:05Z</time>
      </trkpt>
      <trkpt lat="48.7151160" lon="13.2739880">
        <ele>410.2</ele>
        <time>2019-08-15T07:29:06Z</time>
      </trkpt>
      <trkpt lat="48.7150950" lon="13.2740640">
        <ele>410.4</ele>
        <time>2019-08-15T07:29:07Z</time>
      </trkpt>
      <trkpt lat="48.7150740" lon="13.2741400">
        <ele>410.4</ele>
        <time>2019-08-15T07:29:08Z</time>
      </trkpt>
      <trkpt lat="48.7150570" lon="13.2742150">
        <ele>410.4</ele>
        <time>2019-08-15T07:29:09Z</time>
      </trkpt>
      <trkpt lat="48.7150400" lon="13.2742890">
        <ele>410.6</ele>
        <time>2019-08-15T07:29:10Z</time>
      </trkpt>
      <trkpt lat="48.7150220" lon="13.2743630">
        <ele>410.6</ele>
        <time>2019-08-15T07:29:11Z</time>
      </trkpt>
      <trkpt lat="48.7150050" lon="13.2744370">
        <ele>410.6</ele>
        <time>2019-08-15T07:29:12Z</time>
      </trkpt>
      <trkpt lat="48.7149870" lon="13.2745090">
        <ele>410.8</ele>
        <time>2019-08-15T07:29:13Z</time>
      </trkpt>
      <trkpt lat="48.7149680" lon="13.2745790">
        <ele>410.8</ele>
        <time>2019-08-15T07:29:14Z</time>
      </trkpt>
      <trkpt lat="48.7149490" lon="13.2746520">
        <ele>410.8</ele>
        <time>2019-08-15T07:29:15Z</time>
      </trkpt>
      <trkpt lat="48.7149310" lon="13.2747260">
        <ele>411.0</ele>
        <time>2019-08-15T07:29:16Z</time>
      </trkpt>
      <trkpt lat="48.7149140" lon="13.2747990">
        <ele>411.0</ele>
        <time>2019-08-15T07:29:17Z</time>
      </trkpt>
      <trkpt lat="48.7148930" lon="13.2748720">
        <ele>411.0</ele>
        <time>2019-08-15T07:29:18Z</time>
      </trkpt>
      <trkpt lat="48.7148700" lon="13.2749450">
        <ele>411.2</ele>
        <time>2019-08-15T07:29:19Z</time>
      </trkpt>
      <trkpt lat="48.7148480" lon="13.2750190">
        <ele>411.2</ele>
        <time>2019-08-15T07:29:20Z</time>
      </trkpt>
      <trkpt lat="48.7148210" lon="13.2750920">
        <ele>411.4</ele>
        <time>2019-08-15T07:29:21Z</time>
      </trkpt>
      <trkpt lat="48.7147950" lon="13.2751630">
        <ele>411.4</ele>
        <time>2019-08-15T07:29:22Z</time>
      </trkpt>
      <trkpt lat="48.7147680" lon="13.2752280">
        <ele>411.6</ele>
        <time>2019-08-15T07:29:23Z</time>
      </trkpt>
      <trkpt lat="48.7147400" lon="13.2752910">
        <ele>411.6</ele>
        <time>2019-08-15T07:29:24Z</time>
      </trkpt>
      <trkpt lat="48.7147130" lon="13.2753570">
        <ele>411.6</ele>
        <time>2019-08-15T07:29:25Z</time>
      </trkpt>
      <trkpt lat="48.7146860" lon="13.2754200">
        <ele>411.6</ele>
        <time>2019-08-15T07:29:26Z</time>
      </trkpt>
      <trkpt lat="48.7146600" lon="13.2754780">
        <ele>411.6</ele>
        <time>2019-08-15T07:29:27Z</time>
      </trkpt>
      <trkpt lat="48.7146330" lon="13.2755360">
        <ele>411.8</ele>
        <time>2019-08-15T07:29:28Z</time>
      </trkpt>
      <trkpt lat="48.7145990" lon="13.2755930">
        <ele>411.8</ele>
        <time>2019-08-15T07:29:29Z</time>
      </trkpt>
      <trkpt lat="48.7145630" lon="13.2756480">
        <ele>411.8</ele>
        <time>2019-08-15T07:29:30Z</time>
      </trkpt>
      <trkpt lat="48.7145260" lon="13.2757060">
        <ele>411.8</ele>
        <time>2019-08-15T07:29:31Z</time>
      </trkpt>
      <trkpt lat="48.7144870" lon="13.2757660">
        <ele>411.8</ele>
        <time>2019-08-15T07:29:32Z</time>
      </trkpt>
      <trkpt lat="48.7144450" lon="13.2758310">
        <ele>411.6</ele>
        <time>2019-08-15T07:29:33Z</time>
      </trkpt>
      <trkpt lat="48.7144050" lon="13.2758960">
        <ele>411.8</ele>
        <time>2019-08-15T07:29:34Z</time>
      </trkpt>
      <trkpt lat="48.7143720" lon="13.2759610">
        <ele>411.8</ele>
        <time>2019-08-15T07:29:35Z</time>
      </trkpt>
      <trkpt lat="48.7143400" lon="13.2760260">
        <ele>411.8</ele>
        <time>2019-08-15T07:29:36Z</time>
      </trkpt>
      <trkpt lat="48.7143090" lon="13.2760970">
        <ele>411.8</ele>
        <time>2019-08-15T07:29:37Z</time>
      </trkpt>
      <trkpt lat="48.7142730" lon="13.2761700">
        <ele>412.0</ele>
        <time>2019-08-15T07:29:38Z</time>
      </trkpt>
      <trkpt lat="48.7142360" lon="13.2762450">
        <ele>412.0</ele>
        <time>2019-08-15T07:29:39Z</time>
      </trkpt>
      <trkpt lat="48.7142000" lon="13.2763230">
        <ele>412.0</ele>
        <time>2019-08-15T07:29:40Z</time>
      </trkpt>
      <trkpt lat="48.7141620" lon="13.2764010">
        <ele>412.2</ele>
        <time>2019-08-15T07:29:41Z</time>
      </trkpt>
      <trkpt lat="48.7141270" lon="13.2764810">
        <ele>412.2</ele>
        <time>2019-08-15T07:29:42Z</time>
      </trkpt>
      <trkpt lat="48.7140900" lon="13.2765670">
        <ele>412.2</ele>
        <time>2019-08-15T07:29:43Z</time>
      </trkpt>
      <trkpt lat="48.7140510" lon="13.2766540">
        <ele>412.2</ele>
        <time>2019-08-15T07:29:44Z</time>
      </trkpt>
      <trkpt lat="48.7140150" lon="13.2767410">
        <ele>412.2</ele>
        <time>2019-08-15T07:29:45Z</time>
      </trkpt>
      <trkpt lat="48.7139810" lon="13.2768290">
        <ele>412.0</ele>
        <time>2019-08-15T07:29:46Z</time>
      </trkpt>
      <trkpt lat="48.7139500" lon="13.2769190">
        <ele>412.0</ele>
        <time>2019-08-15T07:29:47Z</time>
      </trkpt>
      <trkpt lat="48.7139200" lon="13.2770070">
        <ele>412.0</ele>
        <time>2019-08-15T07:29:48Z</time>
      </trkpt>
      <trkpt lat="48.7138910" lon="13.2770940">
        <ele>412.0</ele>
        <time>2019-08-15T07:29:49Z</time>
      </trkpt>
      <trkpt lat="48.7138660" lon="13.2771750">
        <ele>412.0</ele>
        <time>2019-08-15T07:29:50Z</time>
      </trkpt>
      <trkpt lat="48.7138430" lon="13.2772620">
        <ele>412.0</ele>
        <time>2019-08-15T07:29:51Z</time>
      </trkpt>
      <trkpt lat="48.7138210" lon="13.2773550">
        <ele>412.0</ele>
        <time>2019-08-15T07:29:52Z</time>
      </trkpt>
      <trkpt lat="48.7138010" lon="13.2774480">
        <ele>412.0</ele>
        <time>2019-08-15T07:29:53Z</time>
      </trkpt>
      <trkpt lat="48.7137810" lon="13.2775420">
        <ele>411.8</ele>
        <time>2019-08-15T07:29:54Z</time>
      </trkpt>
      <trkpt lat="48.7137630" lon="13.2776360">
        <ele>412.0</ele>
        <time>2019-08-15T07:29:55Z</time>
      </trkpt>
      <trkpt lat="48.7137450" lon="13.2777330">
        <ele>411.8</ele>
        <time>2019-08-15T07:29:56Z</time>
      </trkpt>
      <trkpt lat="48.7137330" lon="13.2778290">
        <ele>411.8</ele>
        <time>2019-08-15T07:29:57Z</time>
      </trkpt>
      <trkpt lat="48.7137180" lon="13.2779270">
        <ele>411.6</ele>
        <time>2019-08-15T07:29:58Z</time>
      </trkpt>
      <trkpt lat="48.7137060" lon="13.2780220">
        <ele>411.8</ele>
        <time>2019-08-15T07:29:59Z</time>
      </trkpt>
      <trkpt lat="48.7136930" lon="13.2781150">
        <ele>411.8</ele>
        <time>2019-08-15T07:30:00Z</time>
      </trkpt>
      <trkpt lat="48.7136820" lon="13.2782080">
        <ele>411.8</ele>
        <time>2019-08-15T07:30:01Z</time>
      </trkpt>
      <trkpt lat="48.7136720" lon="13.2783010">
        <ele>411.8</ele>
        <time>2019-08-15T07:30:02Z</time>
      </trkpt>
      <trkpt lat="48.7136610" lon="13.2783970">
        <ele>411.8</ele>
        <time>2019-08-15T07:30:03Z</time>
      </trkpt>
      <trkpt lat="48.7136520" lon="13.2784910">
        <ele>411.4</ele>
        <time>2019-08-15T07:30:04Z</time>
      </trkpt>
      <trkpt lat="48.7136440" lon="13.2785910">
        <ele>411.4</ele>
        <time>2019-08-15T07:30:05Z</time>
      </trkpt>
      <trkpt lat="48.7136360" lon="13.2786910">
        <ele>411.4</ele>
        <time>2019-08-15T07:30:06Z</time>
      </trkpt>
      <trkpt lat="48.7136300" lon="13.2787910">
        <ele>411.2</ele>
        <time>2019-08-15T07:30:07Z</time>
      </trkpt>
      <trkpt lat="48.7136240" lon="13.2788900">
        <ele>411.2</ele>
        <time>2019-08-15T07:30:08Z</time>
      </trkpt>
      <trkpt lat="48.7136180" lon="13.2789880">
        <ele>411.4</ele>
        <time>2019-08-15T07:30:09Z</time>
      </trkpt>
      <trkpt lat="48.7136080" lon="13.2790840">
        <ele>411.4</ele>
        <time>2019-08-15T07:30:10Z</time>
      </trkpt>
      <trkpt lat="48.7135910" lon="13.2791780">
        <ele>411.4</ele>
        <time>2019-08-15T07:30:11Z</time>
      </trkpt>
      <trkpt lat="48.7135660" lon="13.2792660">
        <ele>411.2</ele>
        <time>2019-08-15T07:30:12Z</time>
      </trkpt>
      <trkpt lat="48.7135270" lon="13.2793390">
        <ele>411.2</ele>
        <time>2019-08-15T07:30:13Z</time>
      </trkpt>
      <trkpt lat="48.7134710" lon="13.2793970">
        <ele>411.2</ele>
        <time>2019-08-15T07:30:14Z</time>
      </trkpt>
      <trkpt lat="48.7134080" lon="13.2794410">
        <ele>411.2</ele>
        <time>2019-08-15T07:30:15Z</time>
      </trkpt>
      <trkpt lat="48.7133450" lon="13.2794830">
        <ele>411.0</ele>
        <time>2019-08-15T07:30:16Z</time>
      </trkpt>
      <trkpt lat="48.7132850" lon="13.2795280">
        <ele>411.0</ele>
        <time>2019-08-15T07:30:17Z</time>
      </trkpt>
      <trkpt lat="48.7132300" lon="13.2795830">
        <ele>411.0</ele>
        <time>2019-08-15T07:30:18Z</time>
      </trkpt>
      <trkpt lat="48.7131810" lon="13.2796460">
        <ele>411.0</ele>
        <time>2019-08-15T07:30:19Z</time>
      </trkpt>
      <trkpt lat="48.7131350" lon="13.2797150">
        <ele>411.2</ele>
        <time>2019-08-15T07:30:20Z</time>
      </trkpt>
      <trkpt lat="48.7130940" lon="13.2797880">
        <ele>411.2</ele>
        <time>2019-08-15T07:30:21Z</time>
      </trkpt>
      <trkpt lat="48.7130570" lon="13.2798650">
        <ele>411.2</ele>
        <time>2019-08-15T07:30:22Z</time>
      </trkpt>
      <trkpt lat="48.7130210" lon="13.2799480">
        <ele>411.2</ele>
        <time>2019-08-15T07:30:23Z</time>
      </trkpt>
      <trkpt lat="48.7129890" lon="13.2800350">
        <ele>411.2</ele>
        <time>2019-08-15T07:30:24Z</time>
      </trkpt>
      <trkpt lat="48.7129570" lon="13.2801260">
        <ele>411.2</ele>
        <time>2019-08-15T07:30:25Z</time>
      </trkpt>
      <trkpt lat="48.7129280" lon="13.2802180">
        <ele>411.0</ele>
        <time>2019-08-15T07:30:26Z</time>
      </trkpt>
      <trkpt lat="48.7128980" lon="13.2803110">
        <ele>411.0</ele>
        <time>2019-08-15T07:30:27Z</time>
      </trkpt>
      <trkpt lat="48.7128680" lon="13.2804040">
        <ele>410.8</ele>
        <time>2019-08-15T07:30:28Z</time>
      </trkpt>
      <trkpt lat="48.7128380" lon="13.2805000">
        <ele>410.8</ele>
        <time>2019-08-15T07:30:29Z</time>
      </trkpt>
      <trkpt lat="48.7128080" lon="13.2805970">
        <ele>411.0</ele>
        <time>2019-08-15T07:30:30Z</time>
      </trkpt>
      <trkpt lat="48.7127780" lon="13.2806930">
        <ele>411.0</ele>
        <time>2019-08-15T07:30:31Z</time>
      </trkpt>
      <trkpt lat="48.7127470" lon="13.2807910">
        <ele>410.8</ele>
        <time>2019-08-15T07:30:32Z</time>
      </trkpt>
      <trkpt lat="48.7127180" lon="13.2808890">
        <ele>410.8</ele>
        <time>2019-08-15T07:30:33Z</time>
      </trkpt>
      <trkpt lat="48.7126870" lon="13.2809840">
        <ele>410.6</ele>
        <time>2019-08-15T07:30:34Z</time>
      </trkpt>
      <trkpt lat="48.7126490" lon="13.2810630">
        <ele>410.6</ele>
        <time>2019-08-15T07:30:35Z</time>
      </trkpt>
      <trkpt lat="48.7125930" lon="13.2811210">
        <ele>410.6</ele>
        <time>2019-08-15T07:30:36Z</time>
      </trkpt>
      <trkpt lat="48.7125310" lon="13.2811690">
        <ele>410.6</ele>
        <time>2019-08-15T07:30:37Z</time>
      </trkpt>
      <trkpt lat="48.7124710" lon="13.2812260">
        <ele>410.6</ele>
        <time>2019-08-15T07:30:38Z</time>
      </trkpt>
      <trkpt lat="48.7124180" lon="13.2812920">
        <ele>410.4</ele>
        <time>2019-08-15T07:30:39Z</time>
      </trkpt>
      <trkpt lat="48.7123720" lon="13.2813700">
        <ele>410.2</ele>
        <time>2019-08-15T07:30:40Z</time>
      </trkpt>
      <trkpt lat="48.7123280" lon="13.2814560">
        <ele>410.0</ele>
        <time>2019-08-15T07:30:41Z</time>
      </trkpt>
      <trkpt lat="48.7122810" lon="13.2815380">
        <ele>409.8</ele>
        <time>2019-08-15T07:30:42Z</time>
      </trkpt>
      <trkpt lat="48.7122310" lon="13.2816130">
        <ele>409.6</ele>
        <time>2019-08-15T07:30:43Z</time>
      </trkpt>
      <trkpt lat="48.7121780" lon="13.2816860">
        <ele>409.4</ele>
        <time>2019-08-15T07:30:44Z</time>
      </trkpt>
      <trkpt lat="48.7121200" lon="13.2817560">
        <ele>409.2</ele>
        <time>2019-08-15T07:30:45Z</time>
      </trkpt>
      <trkpt lat="48.7120570" lon="13.2818240">
        <ele>409.0</ele>
        <time>2019-08-15T07:30:46Z</time>
      </trkpt>
      <trkpt lat="48.7119980" lon="13.2818820">
        <ele>408.8</ele>
        <time>2019-08-15T07:30:47Z</time>
      </trkpt>
      <trkpt lat="48.7119300" lon="13.2819440">
        <ele>408.4</ele>
        <time>2019-08-15T07:30:48Z</time>
      </trkpt>
      <trkpt lat="48.7118600" lon="13.2820070">
        <ele>408.2</ele>
        <time>2019-08-15T07:30:49Z</time>
      </trkpt>
      <trkpt lat="48.7117890" lon="13.2820660">
        <ele>408.0</ele>
        <time>2019-08-15T07:30:50Z</time>
      </trkpt>
      <trkpt lat="48.7117150" lon="13.2821210">
        <ele>407.8</ele>
        <time>2019-08-15T07:30:51Z</time>
      </trkpt>
      <trkpt lat="48.7116360" lon="13.2821700">
        <ele>407.6</ele>
        <time>2019-08-15T07:30:52Z</time>
      </trkpt>
      <trkpt lat="48.7115560" lon="13.2822150">
        <ele>407.6</ele>
        <time>2019-08-15T07:30:53Z</time>
      </trkpt>
      <trkpt lat="48.7114780" lon="13.2822590">
        <ele>407.6</ele>
        <time>2019-08-15T07:30:54Z</time>
      </trkpt>
      <trkpt lat="48.7113960" lon="13.2823050">
        <ele>407.4</ele>
        <time>2019-08-15T07:30:55Z</time>
      </trkpt>
      <trkpt lat="48.7113100" lon="13.2823550">
        <ele>407.2</ele>
        <time>2019-08-15T07:30:56Z</time>
      </trkpt>
      <trkpt lat="48.7112230" lon="13.2824070">
        <ele>406.8</ele>
        <time>2019-08-15T07:30:57Z</time>
      </trkpt>
      <trkpt lat="48.7111380" lon="13.2824590">
        <ele>406.4</ele>
        <time>2019-08-15T07:30:58Z</time>
      </trkpt>
      <trkpt lat="48.7110530" lon="13.2825090">
        <ele>406.0</ele>
        <time>2019-08-15T07:30:59Z</time>
      </trkpt>
      <trkpt lat="48.7109700" lon="13.2825550">
        <ele>405.8</ele>
        <time>2019-08-15T07:31:00Z</time>
      </trkpt>
      <trkpt lat="48.7108870" lon="13.2825990">
        <ele>405.4</ele>
        <time>2019-08-15T07:31:01Z</time>
      </trkpt>
      <trkpt lat="48.7108050" lon="13.2826380">
        <ele>405.4</ele>
        <time>2019-08-15T07:31:02Z</time>
      </trkpt>
      <trkpt lat="48.7107220" lon="13.2826750">
        <ele>405.2</ele>
        <time>2019-08-15T07:31:03Z</time>
      </trkpt>
      <trkpt lat="48.7106350" lon="13.2827100">
        <ele>405.0</ele>
        <time>2019-08-15T07:31:04Z</time>
      </trkpt>
      <trkpt lat="48.7105490" lon="13.2827410">
        <ele>404.6</ele>
        <time>2019-08-15T07:31:05Z</time>
      </trkpt>
      <trkpt lat="48.7104620" lon="13.2827710">
        <ele>404.2</ele>
        <time>2019-08-15T07:31:06Z</time>
      </trkpt>
      <trkpt lat="48.7103700" lon="13.2827950">
        <ele>404.0</ele>
        <time>2019-08-15T07:31:07Z</time>
      </trkpt>
      <trkpt lat="48.7102670" lon="13.2828160">
        <ele>403.8</ele>
        <time>2019-08-15T07:31:08Z</time>
      </trkpt>
      <trkpt lat="48.7101590" lon="13.2828220">
        <ele>403.6</ele>
        <time>2019-08-15T07:31:09Z</time>
      </trkpt>
      <trkpt lat="48.7100690" lon="13.2828190">
        <ele>403.2</ele>
        <time>2019-08-15T07:31:10Z</time>
      </trkpt>
      <trkpt lat="48.7099800" lon="13.2828140">
        <ele>403.0</ele>
        <time>2019-08-15T07:31:11Z</time>
      </trkpt>
      <trkpt lat="48.7098920" lon="13.2828000">
        <ele>402.6</ele>
        <time>2019-08-15T07:31:12Z</time>
      </trkpt>
      <trkpt lat="48.7098030" lon="13.2827860">
        <ele>402.6</ele>
        <time>2019-08-15T07:31:13Z</time>
      </trkpt>
      <trkpt lat="48.7097170" lon="13.2827700">
        <ele>402.2</ele>
        <time>2019-08-15T07:31:14Z</time>
      </trkpt>
      <trkpt lat="48.7096310" lon="13.2827550">
        <ele>402.0</ele>
        <time>2019-08-15T07:31:15Z</time>
      </trkpt>
      <trkpt lat="48.7095440" lon="13.2827370">
        <ele>402.0</ele>
        <time>2019-08-15T07:31:16Z</time>
      </trkpt>
      <trkpt lat="48.7094610" lon="13.2827200">
        <ele>401.6</ele>
        <time>2019-08-15T07:31:17Z</time>
      </trkpt>
      <trkpt lat="48.7093830" lon="13.2827050">
        <ele>401.6</ele>
        <time>2019-08-15T07:31:18Z</time>
      </trkpt>
      <trkpt lat="48.7092990" lon="13.2826950">
        <ele>401.4</ele>
        <time>2019-08-15T07:31:19Z</time>
      </trkpt>
      <trkpt lat="48.7092150" lon="13.2826890">
        <ele>401.2</ele>
        <time>2019-08-15T07:31:20Z</time>
      </trkpt>
      <trkpt lat="48.7091340" lon="13.2826820">
        <ele>401.0</ele>
        <time>2019-08-15T07:31:21Z</time>
      </trkpt>
      <trkpt lat="48.7090500" lon="13.2826720">
        <ele>400.8</ele>
        <time>2019-08-15T07:31:22Z</time>
      </trkpt>
      <trkpt lat="48.7089610" lon="13.2826710">
        <ele>400.4</ele>
        <time>2019-08-15T07:31:23Z</time>
      </trkpt>
      <trkpt lat="48.7088740" lon="13.2826730">
        <ele>400.0</ele>
        <time>2019-08-15T07:31:24Z</time>
      </trkpt>
      <trkpt lat="48.7087890" lon="13.2826780">
        <ele>399.8</ele>
        <time>2019-08-15T07:31:25Z</time>
      </trkpt>
      <trkpt lat="48.7087050" lon="13.2826930">
        <ele>399.4</ele>
        <time>2019-08-15T07:31:26Z</time>
      </trkpt>
      <trkpt lat="48.7086190" lon="13.2827100">
        <ele>399.4</ele>
        <time>2019-08-15T07:31:27Z</time>
      </trkpt>
      <trkpt lat="48.7085320" lon="13.2827260">
        <ele>399.2</ele>
        <time>2019-08-15T07:31:28Z</time>
      </trkpt>
      <trkpt lat="48.7084440" lon="13.2827490">
        <ele>399.2</ele>
        <time>2019-08-15T07:31:29Z</time>
      </trkpt>
      <trkpt lat="48.7083600" lon="13.2827830">
        <ele>399.0</ele>
        <time>2019-08-15T07:31:30Z</time>
      </trkpt>
      <trkpt lat="48.7082740" lon="13.2828290">
        <ele>398.8</ele>
        <time>2019-08-15T07:31:31Z</time>
      </trkpt>
      <trkpt lat="48.7081890" lon="13.2828790">
        <ele>398.6</ele>
        <time>2019-08-15T07:31:32Z</time>
      </trkpt>
      <trkpt lat="48.7080960" lon="13.2829280">
        <ele>398.4</ele>
        <time>2019-08-15T07:31:33Z</time>
      </trkpt>
      <trkpt lat="48.7080040" lon="13.2829810">
        <ele>398.2</ele>
        <time>2019-08-15T07:31:34Z</time>
      </trkpt>
      <trkpt lat="48.7079190" lon="13.2830370">
        <ele>398.0</ele>
        <time>2019-08-15T07:31:35Z</time>
      </trkpt>
      <trkpt lat="48.7078330" lon="13.2830910">
        <ele>397.8</ele>
        <time>2019-08-15T07:31:36Z</time>
      </trkpt>
      <trkpt lat="48.7077420" lon="13.2831410">
        <ele>397.6</ele>
        <time>2019-08-15T07:31:37Z</time>
      </trkpt>
      <trkpt lat="48.7076530" lon="13.2831940">
        <ele>397.2</ele>
        <time>2019-08-15T07:31:38Z</time>
      </trkpt>
      <trkpt lat="48.7075640" lon="13.2832480">
        <ele>396.8</ele>
        <time>2019-08-15T07:31:39Z</time>
      </trkpt>
      <trkpt lat="48.7074720" lon="13.2832990">
        <ele>396.4</ele>
        <time>2019-08-15T07:31:40Z</time>
      </trkpt>
      <trkpt lat="48.7073760" lon="13.2833480">
        <ele>396.2</ele>
        <time>2019-08-15T07:31:41Z</time>
      </trkpt>
      <trkpt lat="48.7072820" lon="13.2833870">
        <ele>395.8</ele>
        <time>2019-08-15T07:31:42Z</time>
      </trkpt>
      <trkpt lat="48.7071880" lon="13.2834240">
        <ele>395.6</ele>
        <time>2019-08-15T07:31:43Z</time>
      </trkpt>
      <trkpt lat="48.7071010" lon="13.2834520">
        <ele>395.4</ele>
        <time>2019-08-15T07:31:44Z</time>
      </trkpt>
      <trkpt lat="48.7070090" lon="13.2834790">
        <ele>395.2</ele>
        <time>2019-08-15T07:31:45Z</time>
      </trkpt>
      <trkpt lat="48.7069180" lon="13.2834970">
        <ele>395.0</ele>
        <time>2019-08-15T07:31:46Z</time>
      </trkpt>
      <trkpt lat="48.7068280" lon="13.2835170">
        <ele>394.8</ele>
        <time>2019-08-15T07:31:47Z</time>
      </trkpt>
      <trkpt lat="48.7067340" lon="13.2835240">
        <ele>394.6</ele>
        <time>2019-08-15T07:31:48Z</time>
      </trkpt>
      <trkpt lat="48.7066450" lon="13.2835460">
        <ele>394.4</ele>
        <time>2019-08-15T07:31:49Z</time>
      </trkpt>
      <trkpt lat="48.7065490" lon="13.2835790">
        <ele>394.2</ele>
        <time>2019-08-15T07:31:50Z</time>
      </trkpt>
      <trkpt lat="48.7064590" lon="13.2836130">
        <ele>394.0</ele>
        <time>2019-08-15T07:31:51Z</time>
      </trkpt>
      <trkpt lat="48.7063830" lon="13.2836430">
        <ele>393.6</ele>
        <time>2019-08-15T07:31:52Z</time>
      </trkpt>
      <trkpt lat="48.7063000" lon="13.2836940">
        <ele>393.4</ele>
        <time>2019-08-15T07:31:53Z</time>
      </trkpt>
      <trkpt lat="48.7062090" lon="13.2837580">
        <ele>393.2</ele>
        <time>2019-08-15T07:31:54Z</time>
      </trkpt>
      <trkpt lat="48.7061150" lon="13.2838310">
        <ele>393.0</ele>
        <time>2019-08-15T07:31:55Z</time>
      </trkpt>
      <trkpt lat="48.7060240" lon="13.2839020">
        <ele>392.6</ele>
        <time>2019-08-15T07:31:56Z</time>
      </trkpt>
      <trkpt lat="48.7059390" lon="13.2839670">
        <ele>392.4</ele>
        <time>2019-08-15T07:31:57Z</time>
      </trkpt>
      <trkpt lat="48.7058630" lon="13.2840390">
        <ele>392.4</ele>
        <time>2019-08-15T07:31:58Z</time>
      </trkpt>
      <trkpt lat="48.7058050" lon="13.2841100">
        <ele>392.0</ele>
        <time>2019-08-15T07:31:59Z</time>
      </trkpt>
      <trkpt lat="48.7057500" lon="13.2841920">
        <ele>391.8</ele>
        <time>2019-08-15T07:32:00Z</time>
      </trkpt>
      <trkpt lat="48.7056910" lon="13.2842880">
        <ele>391.6</ele>
        <time>2019-08-15T07:32:01Z</time>
      </trkpt>
      <trkpt lat="48.7056350" lon="13.2843780">
        <ele>391.2</ele>
        <time>2019-08-15T07:32:02Z</time>
      </trkpt>
      <trkpt lat="48.7055800" lon="13.2844790">
        <ele>391.0</ele>
        <time>2019-08-15T07:32:03Z</time>
      </trkpt>
      <trkpt lat="48.7055270" lon="13.2845940">
        <ele>390.8</ele>
        <time>2019-08-15T07:32:04Z</time>
      </trkpt>
      <trkpt lat="48.7054790" lon="13.2847070">
        <ele>390.4</ele>
        <time>2019-08-15T07:32:05Z</time>
      </trkpt>
      <trkpt lat="48.7054320" lon="13.2848190">
        <ele>390.0</ele>
        <time>2019-08-15T07:32:06Z</time>
      </trkpt>
      <trkpt lat="48.7053790" lon="13.2849310">
        <ele>389.8</ele>
        <time>2019-08-15T07:32:07Z</time>
      </trkpt>
      <trkpt lat="48.7053170" lon="13.2850380">
        <ele>389.4</ele>
        <time>2019-08-15T07:32:08Z</time>
      </trkpt>
      <trkpt lat="48.7052500" lon="13.2851470">
        <ele>389.0</ele>
        <time>2019-08-15T07:32:09Z</time>
      </trkpt>
      <trkpt lat="48.7051820" lon="13.2852440">
        <ele>388.6</ele>
        <time>2019-08-15T07:32:10Z</time>
      </trkpt>
      <trkpt lat="48.7050950" lon="13.2853550">
        <ele>388.4</ele>
        <time>2019-08-15T07:32:11Z</time>
      </trkpt>
      <trkpt lat="48.7050170" lon="13.2854600">
        <ele>388.0</ele>
        <time>2019-08-15T07:32:12Z</time>
      </trkpt>
      <trkpt lat="48.7049350" lon="13.2855570">
        <ele>387.8</ele>
        <time>2019-08-15T07:32:13Z</time>
      </trkpt>
      <trkpt lat="48.7048300" lon="13.2856560">
        <ele>387.4</ele>
        <time>2019-08-15T07:32:14Z</time>
      </trkpt>
      <trkpt lat="48.7047270" lon="13.2857510">
        <ele>387.2</ele>
        <time>2019-08-15T07:32:15Z</time>
      </trkpt>
      <trkpt lat="48.7046270" lon="13.2858260">
        <ele>386.8</ele>
        <time>2019-08-15T07:32:16Z</time>
      </trkpt>
      <trkpt lat="48.7045320" lon="13.2858920">
        <ele>386.6</ele>
        <time>2019-08-15T07:32:17Z</time>
      </trkpt>
      <trkpt lat="48.7044430" lon="13.2859360">
        <ele>386.4</ele>
        <time>2019-08-15T07:32:18Z</time>
      </trkpt>
      <trkpt lat="48.7043520" lon="13.2859640">
        <ele>386.0</ele>
        <time>2019-08-15T07:32:19Z</time>
      </trkpt>
      <trkpt lat="48.7042550" lon="13.2859950">
        <ele>385.8</ele>
        <time>2019-08-15T07:32:20Z</time>
      </trkpt>
      <trkpt lat="48.7041570" lon="13.2860210">
        <ele>385.4</ele>
        <time>2019-08-15T07:32:21Z</time>
      </trkpt>
      <trkpt lat="48.7040490" lon="13.2860320">
        <ele>385.2</ele>
        <time>2019-08-15T07:32:22Z</time>
      </trkpt>
      <trkpt lat="48.7039290" lon="13.2860400">
        <ele>385.0</ele>
        <time>2019-08-15T07:32:23Z</time>
      </trkpt>
      <trkpt lat="48.7038170" lon="13.2860380">
        <ele>384.8</ele>
        <time>2019-08-15T07:32:24Z</time>
      </trkpt>
      <trkpt lat="48.7037080" lon="13.2860250">
        <ele>384.4</ele>
        <time>2019-08-15T07:32:25Z</time>
      </trkpt>
      <trkpt lat="48.7035930" lon="13.2860040">
        <ele>384.2</ele>
        <time>2019-08-15T07:32:26Z</time>
      </trkpt>
      <trkpt lat="48.7034900" lon="13.2859790">
        <ele>383.8</ele>
        <time>2019-08-15T07:32:27Z</time>
      </trkpt>
      <trkpt lat="48.7033980" lon="13.2859630">
        <ele>383.6</ele>
        <time>2019-08-15T07:32:28Z</time>
      </trkpt>
      <trkpt lat="48.7033050" lon="13.2859510">
        <ele>383.4</ele>
        <time>2019-08-15T07:32:29Z</time>
      </trkpt>
      <trkpt lat="48.7032110" lon="13.2859320">
        <ele>383.2</ele>
        <time>2019-08-15T07:32:30Z</time>
      </trkpt>
      <trkpt lat="48.7031260" lon="13.2858950">
        <ele>383.0</ele>
        <time>2019-08-15T07:32:31Z</time>
      </trkpt>
      <trkpt lat="48.7030420" lon="13.2858570">
        <ele>382.8</ele>
        <time>2019-08-15T07:32:32Z</time>
      </trkpt>
      <trkpt lat="48.7029560" lon="13.2858220">
        <ele>382.6</ele>
        <time>2019-08-15T07:32:33Z</time>
      </trkpt>
      <trkpt lat="48.7028710" lon="13.2857850">
        <ele>382.6</ele>
        <time>2019-08-15T07:32:34Z</time>
      </trkpt>
      <trkpt lat="48.7027910" lon="13.2857460">
        <ele>382.6</ele>
        <time>2019-08-15T07:32:35Z</time>
      </trkpt>
      <trkpt lat="48.7027140" lon="13.2857050">
        <ele>382.8</ele>
        <time>2019-08-15T07:32:36Z</time>
      </trkpt>
      <trkpt lat="48.7026380" lon="13.2856570">
        <ele>382.8</ele>
        <time>2019-08-15T07:32:37Z</time>
      </trkpt>
      <trkpt lat="48.7025670" lon="13.2856060">
        <ele>382.8</ele>
        <time>2019-08-15T07:32:38Z</time>
      </trkpt>
      <trkpt lat="48.7024980" lon="13.2855550">
        <ele>382.8</ele>
        <time>2019-08-15T07:32:39Z</time>
      </trkpt>
      <trkpt lat="48.7024320" lon="13.2855000">
        <ele>382.8</ele>
        <time>2019-08-15T07:32:40Z</time>
      </trkpt>
      <trkpt lat="48.7023700" lon="13.2854450">
        <ele>383.0</ele>
        <time>2019-08-15T07:32:41Z</time>
      </trkpt>
      <trkpt lat="48.7023100" lon="13.2853930">
        <ele>383.0</ele>
        <time>2019-08-15T07:32:42Z</time>
      </trkpt>
      <trkpt lat="48.7022500" lon="13.2853410">
        <ele>383.0</ele>
        <time>2019-08-15T07:32:43Z</time>
      </trkpt>
      <trkpt lat="48.7021930" lon="13.2852880">
        <ele>383.0</ele>
        <time>2019-08-15T07:32:44Z</time>
      </trkpt>
      <trkpt lat="48.7021390" lon="13.2852360">
        <ele>383.2</ele>
        <time>2019-08-15T07:32:45Z</time>
      </trkpt>
      <trkpt lat="48.7020860" lon="13.2851830">
        <ele>383.2</ele>
        <time>2019-08-15T07:32:46Z</time>
      </trkpt>
      <trkpt lat="48.7020390" lon="13.2851280">
        <ele>383.4</ele>
        <time>2019-08-15T07:32:47Z</time>
      </trkpt>
      <trkpt lat="48.7019880" lon="13.2850770">
        <ele>383.6</ele>
        <time>2019-08-15T07:32:48Z</time>
      </trkpt>
      <trkpt lat="48.7019390" lon="13.2850310">
        <ele>383.6</ele>
        <time>2019-08-15T07:32:49Z</time>
      </trkpt>
      <trkpt lat="48.7018910" lon="13.2849800">
        <ele>383.8</ele>
        <time>2019-08-15T07:32:50Z</time>
      </trkpt>
      <trkpt lat="48.7018470" lon="13.2849270">
        <ele>383.8</ele>
        <time>2019-08-15T07:32:51Z</time>
      </trkpt>
      <trkpt lat="48.7018000" lon="13.2848770">
        <ele>384.0</ele>
        <time>2019-08-15T07:32:52Z</time>
      </trkpt>
      <trkpt lat="48.7017550" lon="13.2848290">
        <ele>384.0</ele>
        <time>2019-08-15T07:32:53Z</time>
      </trkpt>
      <trkpt lat="48.7017100" lon="13.2847820">
        <ele>384.0</ele>
        <time>2019-08-15T07:32:54Z</time>
      </trkpt>
      <trkpt lat="48.7016630" lon="13.2847380">
        <ele>384.2</ele>
        <time>2019-08-15T07:32:55Z</time>
      </trkpt>
      <trkpt lat="48.7016130" lon="13.2847010">
        <ele>384.4</ele>
        <time>2019-08-15T07:32:56Z</time>
      </trkpt>
      <trkpt lat="48.7015670" lon="13.2846650">
        <ele>384.6</ele>
        <time>2019-08-15T07:32:57Z</time>
      </trkpt>
      <trkpt lat="48.7015170" lon="13.2846410">
        <ele>384.6</ele>
        <time>2019-08-15T07:32:58Z</time>
      </trkpt>
      <trkpt lat="48.7014710" lon="13.2846130">
        <ele>384.8</ele>
        <time>2019-08-15T07:32:59Z</time>
      </trkpt>
      <trkpt lat="48.7014230" lon="13.2845890">
        <ele>384.8</ele>
        <time>2019-08-15T07:33:00Z</time>
      </trkpt>
      <trkpt lat="48.7013750" lon="13.2845690">
        <ele>385.0</ele>
        <time>2019-08-15T07:33:01Z</time>
      </trkpt>
      <trkpt lat="48.7013250" lon="13.2845520">
        <ele>385.2</ele>
        <time>2019-08-15T07:33:02Z</time>
      </trkpt>
      <trkpt lat="48.7012760" lon="13.2845370">
        <ele>385.2</ele>
        <time>2019-08-15T07:33:03Z</time>
      </trkpt>
      <trkpt lat="48.7012250" lon="13.2845190">
        <ele>385.4</ele>
        <time>2019-08-15T07:33:04Z</time>
      </trkpt>
      <trkpt lat="48.7011730" lon="13.2845020">
        <ele>385.4</ele>
        <time>2019-08-15T07:33:05Z</time>
      </trkpt>
      <trkpt lat="48.7011230" lon="13.2844840">
        <ele>385.6</ele>
        <time>2019-08-15T07:33:06Z</time>
      </trkpt>
      <trkpt lat="48.7010720" lon="13.2844660">
        <ele>385.6</ele>
        <time>2019-08-15T07:33:07Z</time>
      </trkpt>
      <trkpt lat="48.7010180" lon="13.2844510">
        <ele>385.8</ele>
        <time>2019-08-15T07:33:08Z</time>
      </trkpt>
      <trkpt lat="48.7009720" lon="13.2844330">
        <ele>386.0</ele>
        <time>2019-08-15T07:33:09Z</time>
      </trkpt>
      <trkpt lat="48.7009270" lon="13.2844190">
        <ele>386.2</ele>
        <time>2019-08-15T07:33:10Z</time>
      </trkpt>
      <trkpt lat="48.7008830" lon="13.2844100">
        <ele>386.2</ele>
        <time>2019-08-15T07:33:11Z</time>
      </trkpt>
      <trkpt lat="48.7008400" lon="13.2844030">
        <ele>386.4</ele>
        <time>2019-08-15T07:33:12Z</time>
      </trkpt>
      <trkpt lat="48.7007950" lon="13.2844020">
        <ele>386.6</ele>
        <time>2019-08-15T07:33:13Z</time>
      </trkpt>
      <trkpt lat="48.7007480" lon="13.2844060">
        <ele>386.8</ele>
        <time>2019-08-15T07:33:14Z</time>
      </trkpt>
      <trkpt lat="48.7007030" lon="13.2844170">
        <ele>387.0</ele>
        <time>2019-08-15T07:33:15Z</time>
      </trkpt>
      <trkpt lat="48.7006580" lon="13.2844280">
        <ele>387.2</ele>
        <time>2019-08-15T07:33:16Z</time>
      </trkpt>
      <trkpt lat="48.7006150" lon="13.2844330">
        <ele>387.4</ele>
        <time>2019-08-15T07:33:17Z</time>
      </trkpt>
      <trkpt lat="48.7005740" lon="13.2844320">
        <ele>387.4</ele>
        <time>2019-08-15T07:33:18Z</time>
      </trkpt>
      <trkpt lat="48.7005330" lon="13.2844370">
        <ele>387.6</ele>
        <time>2019-08-15T07:33:19Z</time>
      </trkpt>
      <trkpt lat="48.7004940" lon="13.2844460">
        <ele>387.8</ele>
        <time>2019-08-15T07:33:20Z</time>
      </trkpt>
      <trkpt lat="48.7004550" lon="13.2844570">
        <ele>388.0</ele>
        <time>2019-08-15T07:33:21Z</time>
      </trkpt>
      <trkpt lat="48.7004130" lon="13.2844680">
        <ele>388.2</ele>
        <time>2019-08-15T07:33:22Z</time>
      </trkpt>
      <trkpt lat="48.7003700" lon="13.2844880">
        <ele>388.2</ele>
        <time>2019-08-15T07:33:23Z</time>
      </trkpt>
      <trkpt lat="48.7003310" lon="13.2845160">
        <ele>388.4</ele>
        <time>2019-08-15T07:33:24Z</time>
      </trkpt>
      <trkpt lat="48.7002920" lon="13.2845440">
        <ele>388.6</ele>
        <time>2019-08-15T07:33:25Z</time>
      </trkpt>
      <trkpt lat="48.7002550" lon="13.2845650">
        <ele>388.6</ele>
        <time>2019-08-15T07:33:26Z</time>
      </trkpt>
      <trkpt lat="48.7002150" lon="13.2845920">
        <ele>388.8</ele>
        <time>2019-08-15T07:33:27Z</time>
      </trkpt>
      <trkpt lat="48.7001710" lon="13.2846160">
        <ele>388.8</ele>
        <time>2019-08-15T07:33:28Z</time>
      </trkpt>
      <trkpt lat="48.7001290" lon="13.2846410">
        <ele>389.0</ele>
        <time>2019-08-15T07:33:29Z</time>
      </trkpt>
      <trkpt lat="48.7000890" lon="13.2846620">
        <ele>389.2</ele>
        <time>2019-08-15T07:33:30Z</time>
      </trkpt>
      <trkpt lat="48.7000480" lon="13.2846830">
        <ele>389.4</ele>
        <time>2019-08-15T07:33:31Z</time>
      </trkpt>
      <trkpt lat="48.7000050" lon="13.2847140">
        <ele>389.6</ele>
        <time>2019-08-15T07:33:32Z</time>
      </trkpt>
      <trkpt lat="48.6999630" lon="13.2847480">
        <ele>389.8</ele>
        <time>2019-08-15T07:33:33Z</time>
      </trkpt>
      <trkpt lat="48.6999190" lon="13.2847790">
        <ele>389.8</ele>
        <time>2019-08-15T07:33:34Z</time>
      </trkpt>
      <trkpt lat="48.6998710" lon="13.2848150">
        <ele>390.0</ele>
        <time>2019-08-15T07:33:35Z</time>
      </trkpt>
      <trkpt lat="48.6998270" lon="13.2848570">
        <ele>390.0</ele>
        <time>2019-08-15T07:33:36Z</time>
      </trkpt>
      <trkpt lat="48.6997870" lon="13.2849020">
        <ele>390.0</ele>
        <time>2019-08-15T07:33:37Z</time>
      </trkpt>
      <trkpt lat="48.6997470" lon="13.2849480">
        <ele>390.0</ele>
        <time>2019-08-15T07:33:38Z</time>
      </trkpt>
      <trkpt lat="48.6997080" lon="13.2849990">
        <ele>390.2</ele>
        <time>2019-08-15T07:33:39Z</time>
      </trkpt>
      <trkpt lat="48.6996720" lon="13.2850510">
        <ele>390.2</ele>
        <time>2019-08-15T07:33:40Z</time>
      </trkpt>
      <trkpt lat="48.6996310" lon="13.2851040">
        <ele>390.4</ele>
        <time>2019-08-15T07:33:41Z</time>
      </trkpt>
      <trkpt lat="48.6995890" lon="13.2851530">
        <ele>390.4</ele>
        <time>2019-08-15T07:33:42Z</time>
      </trkpt>
      <trkpt lat="48.6995510" lon="13.2852010">
        <ele>390.6</ele>
        <time>2019-08-15T07:33:43Z</time>
      </trkpt>
      <trkpt lat="48.6995140" lon="13.2852520">
        <ele>390.6</ele>
        <time>2019-08-15T07:33:44Z</time>
      </trkpt>
      <trkpt lat="48.6994770" lon="13.2853020">
        <ele>390.8</ele>
        <time>2019-08-15T07:33:45Z</time>
      </trkpt>
      <trkpt lat="48.6994380" lon="13.2853520">
        <ele>391.0</ele>
        <time>2019-08-15T07:33:46Z</time>
      </trkpt>
      <trkpt lat="48.6994010" lon="13.2854050">
        <ele>391.2</ele>
        <time>2019-08-15T07:33:47Z</time>
      </trkpt>
      <trkpt lat="48.6993650" lon="13.2854550">
        <ele>391.2</ele>
        <time>2019-08-15T07:33:48Z</time>
      </trkpt>
      <trkpt lat="48.6993260" lon="13.2855070">
        <ele>391.4</ele>
        <time>2019-08-15T07:33:49Z</time>
      </trkpt>
      <trkpt lat="48.6992880" lon="13.2855590">
        <ele>391.6</ele>
        <time>2019-08-15T07:33:50Z</time>
      </trkpt>
      <trkpt lat="48.6992540" lon="13.2856090">
        <ele>391.8</ele>
        <time>2019-08-15T07:33:51Z</time>
      </trkpt>
      <trkpt lat="48.6992220" lon="13.2856580">
        <ele>391.8</ele>
        <time>2019-08-15T07:33:52Z</time>
      </trkpt>
      <trkpt lat="48.6991870" lon="13.2857120">
        <ele>392.0</ele>
        <time>2019-08-15T07:33:53Z</time>
      </trkpt>
      <trkpt lat="48.6991530" lon="13.2857670">
        <ele>392.0</ele>
        <time>2019-08-15T07:33:54Z</time>
      </trkpt>
      <trkpt lat="48.6991180" lon="13.2858200">
        <ele>392.2</ele>
        <time>2019-08-15T07:33:55Z</time>
      </trkpt>
      <trkpt lat="48.6990840" lon="13.2858700">
        <ele>392.4</ele>
        <time>2019-08-15T07:33:56Z</time>
      </trkpt>
      <trkpt lat="48.6990520" lon="13.2859180">
        <ele>392.4</ele>
        <time>2019-08-15T07:33:57Z</time>
      </trkpt>
      <trkpt lat="48.6990200" lon="13.2859680">
        <ele>392.6</ele>
        <time>2019-08-15T07:33:58Z</time>
      </trkpt>
      <trkpt lat="48.6989870" lon="13.2860230">
        <ele>392.8</ele>
        <time>2019-08-15T07:33:59Z</time>
      </trkpt>
      <trkpt lat="48.6989630" lon="13.2860720">
        <ele>393.0</ele>
        <time>2019-08-15T07:34:00Z</time>
      </trkpt>
      <trkpt lat="48.6989410" lon="13.2861250">
        <ele>393.0</ele>
        <time>2019-08-15T07:34:01Z</time>
      </trkpt>
      <trkpt lat="48.6989200" lon="13.2861720">
        <ele>393.2</ele>
        <time>2019-08-15T07:34:02Z</time>
      </trkpt>
      <trkpt lat="48.6988930" lon="13.2862250">
        <ele>393.4</ele>
        <time>2019-08-15T07:34:03Z</time>
      </trkpt>
      <trkpt lat="48.6988660" lon="13.2862810">
        <ele>393.4</ele>
        <time>2019-08-15T07:34:04Z</time>
      </trkpt>
      <trkpt lat="48.6988370" lon="13.2863390">
        <ele>393.6</ele>
        <time>2019-08-15T07:34:05Z</time>
      </trkpt>
      <trkpt lat="48.6988100" lon="13.2863930">
        <ele>393.8</ele>
        <time>2019-08-15T07:34:06Z</time>
      </trkpt>
      <trkpt lat="48.6987800" lon="13.2864510">
        <ele>394.0</ele>
        <time>2019-08-15T07:34:07Z</time>
      </trkpt>
      <trkpt lat="48.6987500" lon="13.2865080">
        <ele>394.0</ele>
        <time>2019-08-15T07:34:08Z</time>
      </trkpt>
      <trkpt lat="48.6987250" lon="13.2865640">
        <ele>394.2</ele>
        <time>2019-08-15T07:34:09Z</time>
      </trkpt>
      <trkpt lat="48.6987020" lon="13.2866260">
        <ele>394.4</ele>
        <time>2019-08-15T07:34:10Z</time>
      </trkpt>
      <trkpt lat="48.6986800" lon="13.2866900">
        <ele>394.4</ele>
        <time>2019-08-15T07:34:11Z</time>
      </trkpt>
      <trkpt lat="48.6986590" lon="13.2867540">
        <ele>394.6</ele>
        <time>2019-08-15T07:34:12Z</time>
      </trkpt>
      <trkpt lat="48.6986320" lon="13.2868160">
        <ele>394.8</ele>
        <time>2019-08-15T07:34:13Z</time>
      </trkpt>
      <trkpt lat="48.6986040" lon="13.2868830">
        <ele>394.8</ele>
        <time>2019-08-15T07:34:14Z</time>
      </trkpt>
      <trkpt lat="48.6985790" lon="13.2869530">
        <ele>395.0</ele>
        <time>2019-08-15T07:34:15Z</time>
      </trkpt>
      <trkpt lat="48.6985560" lon="13.2870180">
        <ele>395.2</ele>
        <time>2019-08-15T07:34:16Z</time>
      </trkpt>
      <trkpt lat="48.6985330" lon="13.2870760">
        <ele>395.4</ele>
        <time>2019-08-15T07:34:17Z</time>
      </trkpt>
      <trkpt lat="48.6985100" lon="13.2871270">
        <ele>395.4</ele>
        <time>2019-08-15T07:34:18Z</time>
      </trkpt>
      <trkpt lat="48.6984840" lon="13.2871830">
        <ele>395.6</ele>
        <time>2019-08-15T07:34:19Z</time>
      </trkpt>
      <trkpt lat="48.6984580" lon="13.2872440">
        <ele>395.6</ele>
        <time>2019-08-15T07:34:20Z</time>
      </trkpt>
      <trkpt lat="48.6984330" lon="13.2872990">
        <ele>395.8</ele>
        <time>2019-08-15T07:34:21Z</time>
      </trkpt>
      <trkpt lat="48.6984100" lon="13.2873520">
        <ele>395.8</ele>
        <time>2019-08-15T07:34:22Z</time>
      </trkpt>
      <trkpt lat="48.6983870" lon="13.2873990">
        <ele>396.0</ele>
        <time>2019-08-15T07:34:23Z</time>
      </trkpt>
      <trkpt lat="48.6983600" lon="13.2874450">
        <ele>396.0</ele>
        <time>2019-08-15T07:34:24Z</time>
      </trkpt>
      <trkpt lat="48.6983230" lon="13.2874970">
        <ele>396.0</ele>
        <time>2019-08-15T07:34:25Z</time>
      </trkpt>
      <trkpt lat="48.6982870" lon="13.2875510">
        <ele>396.2</ele>
        <time>2019-08-15T07:34:26Z</time>
      </trkpt>
      <trkpt lat="48.6982500" lon="13.2876020">
        <ele>396.2</ele>
        <time>2019-08-15T07:34:27Z</time>
      </trkpt>
      <trkpt lat="48.6982160" lon="13.2876530">
        <ele>396.4</ele>
        <time>2019-08-15T07:34:28Z</time>
      </trkpt>
      <trkpt lat="48.6981790" lon="13.2877000">
        <ele>396.6</ele>
        <time>2019-08-15T07:34:29Z</time>
      </trkpt>
      <trkpt lat="48.6981410" lon="13.2877410">
        <ele>396.6</ele>
        <time>2019-08-15T07:34:30Z</time>
      </trkpt>
      <trkpt lat="48.6981040" lon="13.2877760">
        <ele>396.8</ele>
        <time>2019-08-15T07:34:31Z</time>
      </trkpt>
      <trkpt lat="48.6980720" lon="13.2878120">
        <ele>397.0</ele>
        <time>2019-08-15T07:34:32Z</time>
      </trkpt>
      <trkpt lat="48.6980470" lon="13.2878400">
        <ele>397.2</ele>
        <time>2019-08-15T07:34:33Z</time>
      </trkpt>
      <trkpt lat="48.6980250" lon="13.2878590">
        <ele>397.2</ele>
        <time>2019-08-15T07:34:34Z</time>
      </trkpt>
      <trkpt lat="48.6980030" lon="13.2878750">
        <ele>397.4</ele>
        <time>2019-08-15T07:34:35Z</time>
      </trkpt>
      <trkpt lat="48.6979830" lon="13.2878910">
        <ele>397.6</ele>
        <time>2019-08-15T07:34:36Z</time>
      </trkpt>
      <trkpt lat="48.6979620" lon="13.2879080">
        <ele>397.6</ele>
        <time>2019-08-15T07:34:37Z</time>
      </trkpt>
      <trkpt lat="48.6979350" lon="13.2879300">
        <ele>397.8</ele>
        <time>2019-08-15T07:34:38Z</time>
      </trkpt>
      <trkpt lat="48.6979040" lon="13.2879550">
        <ele>398.0</ele>
        <time>2019-08-15T07:34:39Z</time>
      </trkpt>
      <trkpt lat="48.6978760" lon="13.2879760">
        <ele>398.0</ele>
        <time>2019-08-15T07:34:40Z</time>
      </trkpt>
      <trkpt lat="48.6978440" lon="13.2880020">
        <ele>398.2</ele>
        <time>2019-08-15T07:34:41Z</time>
      </trkpt>
      <trkpt lat="48.6978130" lon="13.2880280">
        <ele>398.4</ele>
        <time>2019-08-15T07:34:42Z</time>
      </trkpt>
      <trkpt lat="48.6977820" lon="13.2880580">
        <ele>398.4</ele>
        <time>2019-08-15T07:34:43Z</time>
      </trkpt>
      <trkpt lat="48.6977500" lon="13.2880900">
        <ele>398.6</ele>
        <time>2019-08-15T07:34:44Z</time>
      </trkpt>
      <trkpt lat="48.6977180" lon="13.2881180">
        <ele>398.8</ele>
        <time>2019-08-15T07:34:45Z</time>
      </trkpt>
      <trkpt lat="48.6976840" lon="13.2881510">
        <ele>398.8</ele>
        <time>2019-08-15T07:34:46Z</time>
      </trkpt>
      <trkpt lat="48.6976480" lon="13.2881830">
        <ele>399.0</ele>
        <time>2019-08-15T07:34:47Z</time>
      </trkpt>
      <trkpt lat="48.6976090" lon="13.2882200">
        <ele>399.2</ele>
        <time>2019-08-15T07:34:48Z</time>
      </trkpt>
      <trkpt lat="48.6975610" lon="13.2882690">
        <ele>399.2</ele>
        <time>2019-08-15T07:34:49Z</time>
      </trkpt>
      <trkpt lat="48.6975200" lon="13.2883100">
        <ele>399.4</ele>
        <time>2019-08-15T07:34:50Z</time>
      </trkpt>
      <trkpt lat="48.6974750" lon="13.2883610">
        <ele>399.6</ele>
        <time>2019-08-15T07:34:51Z</time>
      </trkpt>
      <trkpt lat="48.6974250" lon="13.2884220">
        <ele>399.8</ele>
        <time>2019-08-15T07:34:52Z</time>
      </trkpt>
      <trkpt lat="48.6973760" lon="13.2884820">
        <ele>399.8</ele>
        <time>2019-08-15T07:34:53Z</time>
      </trkpt>
      <trkpt lat="48.6973310" lon="13.2885380">
        <ele>400.0</ele>
        <time>2019-08-15T07:34:54Z</time>
      </trkpt>
      <trkpt lat="48.6972870" lon="13.2885970">
        <ele>400.2</ele>
        <time>2019-08-15T07:34:55Z</time>
      </trkpt>
      <trkpt lat="48.6972400" lon="13.2886630">
        <ele>400.4</ele>
        <time>2019-08-15T07:34:56Z</time>
      </trkpt>
      <trkpt lat="48.6972000" lon="13.2887260">
        <ele>400.4</ele>
        <time>2019-08-15T07:34:57Z</time>
      </trkpt>
      <trkpt lat="48.6971670" lon="13.2887820">
        <ele>400.6</ele>
        <time>2019-08-15T07:34:58Z</time>
      </trkpt>
      <trkpt lat="48.6971330" lon="13.2888400">
        <ele>400.8</ele>
        <time>2019-08-15T07:34:59Z</time>
      </trkpt>
      <trkpt lat="48.6971000" lon="13.2889000">
        <ele>400.8</ele>
        <time>2019-08-15T07:35:00Z</time>
      </trkpt>
      <trkpt lat="48.6970680" lon="13.2889540">
        <ele>401.0</ele>
        <time>2019-08-15T07:35:01Z</time>
      </trkpt>
      <trkpt lat="48.6970370" lon="13.2890080">
        <ele>401.0</ele>
        <time>2019-08-15T07:35:02Z</time>
      </trkpt>
      <trkpt lat="48.6970090" lon="13.2890680">
        <ele>401.2</ele>
        <time>2019-08-15T07:35:03Z</time>
      </trkpt>
      <trkpt lat="48.6969810" lon="13.2891240">
        <ele>401.2</ele>
        <time>2019-08-15T07:35:04Z</time>
      </trkpt>
      <trkpt lat="48.6969510" lon="13.2891830">
        <ele>401.4</ele>
        <time>2019-08-15T07:35:05Z</time>
      </trkpt>
      <trkpt lat="48.6969270" lon="13.2892440">
        <ele>401.6</ele>
        <time>2019-08-15T07:35:06Z</time>
      </trkpt>
      <trkpt lat="48.6969030" lon="13.2893020">
        <ele>401.6</ele>
        <time>2019-08-15T07:35:07Z</time>
      </trkpt>
      <trkpt lat="48.6968810" lon="13.2893550">
        <ele>401.6</ele>
        <time>2019-08-15T07:35:08Z</time>
      </trkpt>
      <trkpt lat="48.6968580" lon="13.2894120">
        <ele>401.8</ele>
        <time>2019-08-15T07:35:09Z</time>
      </trkpt>
      <trkpt lat="48.6968360" lon="13.2894720">
        <ele>402.0</ele>
        <time>2019-08-15T07:35:10Z</time>
      </trkpt>
      <trkpt lat="48.6968160" lon="13.2895290">
        <ele>402.0</ele>
        <time>2019-08-15T07:35:11Z</time>
      </trkpt>
      <trkpt lat="48.6967950" lon="13.2895840">
        <ele>402.2</ele>
        <time>2019-08-15T07:35:12Z</time>
      </trkpt>
      <trkpt lat="48.6967760" lon="13.2896420">
        <ele>402.2</ele>
        <time>2019-08-15T07:35:13Z</time>
      </trkpt>
      <trkpt lat="48.6967560" lon="13.2897020">
        <ele>402.4</ele>
        <time>2019-08-15T07:35:14Z</time>
      </trkpt>
      <trkpt lat="48.6967390" lon="13.2897580">
        <ele>402.4</ele>
        <time>2019-08-15T07:35:15Z</time>
      </trkpt>
      <trkpt lat="48.6967230" lon="13.2898130">
        <ele>402.6</ele>
        <time>2019-08-15T07:35:16Z</time>
      </trkpt>
      <trkpt lat="48.6967080" lon="13.2898670">
        <ele>402.6</ele>
        <time>2019-08-15T07:35:17Z</time>
      </trkpt>
      <trkpt lat="48.6966920" lon="13.2899220">
        <ele>402.8</ele>
        <time>2019-08-15T07:35:18Z</time>
      </trkpt>
      <trkpt lat="48.6966810" lon="13.2899740">
        <ele>402.8</ele>
        <time>2019-08-15T07:35:19Z</time>
      </trkpt>
      <trkpt lat="48.6966740" lon="13.2900350">
        <ele>403.0</ele>
        <time>2019-08-15T07:35:20Z</time>
      </trkpt>
      <trkpt lat="48.6966680" lon="13.2900920">
        <ele>403.0</ele>
        <time>2019-08-15T07:35:21Z</time>
      </trkpt>
      <trkpt lat="48.6966590" lon="13.2901500">
        <ele>403.2</ele>
        <time>2019-08-15T07:35:22Z</time>
      </trkpt>
      <trkpt lat="48.6966490" lon="13.2902070">
        <ele>403.2</ele>
        <time>2019-08-15T07:35:23Z</time>
      </trkpt>
      <trkpt lat="48.6966400" lon="13.2902650">
        <ele>403.4</ele>
        <time>2019-08-15T07:35:24Z</time>
      </trkpt>
      <trkpt lat="48.6966320" lon="13.2903200">
        <ele>403.6</ele>
        <time>2019-08-15T07:35:25Z</time>
      </trkpt>
      <trkpt lat="48.6966210" lon="13.2903750">
        <ele>403.6</ele>
        <time>2019-08-15T07:35:26Z</time>
      </trkpt>
      <trkpt lat="48.6966130" lon="13.2904320">
        <ele>403.8</ele>
        <time>2019-08-15T07:35:27Z</time>
      </trkpt>
      <trkpt lat="48.6966100" lon="13.2904910">
        <ele>403.8</ele>
        <time>2019-08-15T07:35:28Z</time>
      </trkpt>
      <trkpt lat="48.6966090" lon="13.2905530">
        <ele>404.0</ele>
        <time>2019-08-15T07:35:29Z</time>
      </trkpt>
      <trkpt lat="48.6966080" lon="13.2906150">
        <ele>404.0</ele>
        <time>2019-08-15T07:35:30Z</time>
      </trkpt>
      <trkpt lat="48.6966080" lon="13.2906770">
        <ele>404.2</ele>
        <time>2019-08-15T07:35:31Z</time>
      </trkpt>
      <trkpt lat="48.6966070" lon="13.2907390">
        <ele>404.2</ele>
        <time>2019-08-15T07:35:32Z</time>
      </trkpt>
      <trkpt lat="48.6966070" lon="13.2908040">
        <ele>404.4</ele>
        <time>2019-08-15T07:35:33Z</time>
      </trkpt>
      <trkpt lat="48.6966050" lon="13.2908670">
        <ele>404.4</ele>
        <time>2019-08-15T07:35:34Z</time>
      </trkpt>
      <trkpt lat="48.6966050" lon="13.2909290">
        <ele>404.6</ele>
        <time>2019-08-15T07:35:35Z</time>
      </trkpt>
      <trkpt lat="48.6966080" lon="13.2909920">
        <ele>404.6</ele>
        <time>2019-08-15T07:35:36Z</time>
      </trkpt>
      <trkpt lat="48.6966120" lon="13.2910540">
        <ele>404.8</ele>
        <time>2019-08-15T07:35:37Z</time>
      </trkpt>
      <trkpt lat="48.6966160" lon="13.2911170">
        <ele>405.0</ele>
        <time>2019-08-15T07:35:38Z</time>
      </trkpt>
      <trkpt lat="48.6966190" lon="13.2911810">
        <ele>405.0</ele>
        <time>2019-08-15T07:35:39Z</time>
      </trkpt>
      <trkpt lat="48.6966240" lon="13.2912430">
        <ele>405.2</ele>
        <time>2019-08-15T07:35:40Z</time>
      </trkpt>
      <trkpt lat="48.6966290" lon="13.2913030">
        <ele>405.2</ele>
        <time>2019-08-15T07:35:41Z</time>
      </trkpt>
      <trkpt lat="48.6966350" lon="13.2913660">
        <ele>405.4</ele>
        <time>2019-08-15T07:35:42Z</time>
      </trkpt>
      <trkpt lat="48.6966430" lon="13.2914270">
        <ele>405.4</ele>
        <time>2019-08-15T07:35:43Z</time>
      </trkpt>
      <trkpt lat="48.6966510" lon="13.2914900">
        <ele>405.6</ele>
        <time>2019-08-15T07:35:44Z</time>
      </trkpt>
      <trkpt lat="48.6966580" lon="13.2915520">
        <ele>405.8</ele>
        <time>2019-08-15T07:35:45Z</time>
      </trkpt>
      <trkpt lat="48.6966660" lon="13.2916160">
        <ele>405.8</ele>
        <time>2019-08-15T07:35:46Z</time>
      </trkpt>
      <trkpt lat="48.6966750" lon="13.2916790">
        <ele>406.0</ele>
        <time>2019-08-15T07:35:47Z</time>
      </trkpt>
      <trkpt lat="48.6966830" lon="13.2917410">
        <ele>406.0</ele>
        <time>2019-08-15T07:35:48Z</time>
      </trkpt>
      <trkpt lat="48.6966910" lon="13.2918000">
        <ele>406.2</ele>
        <time>2019-08-15T07:35:49Z</time>
      </trkpt>
      <trkpt lat="48.6967010" lon="13.2918620">
        <ele>406.2</ele>
        <time>2019-08-15T07:35:50Z</time>
      </trkpt>
      <trkpt lat="48.6967100" lon="13.2919270">
        <ele>406.4</ele>
        <time>2019-08-15T07:35:51Z</time>
      </trkpt>
      <trkpt lat="48.6967180" lon="13.2919900">
        <ele>406.6</ele>
        <time>2019-08-15T07:35:52Z</time>
      </trkpt>
      <trkpt lat="48.6967280" lon="13.2920510">
        <ele>406.6</ele>
        <time>2019-08-15T07:35:53Z</time>
      </trkpt>
      <trkpt lat="48.6967360" lon="13.2921130">
        <ele>406.8</ele>
        <time>2019-08-15T07:35:54Z</time>
      </trkpt>
      <trkpt lat="48.6967450" lon="13.2921720">
        <ele>406.8</ele>
        <time>2019-08-15T07:35:55Z</time>
      </trkpt>
      <trkpt lat="48.6967560" lon="13.2922300">
        <ele>407.0</ele>
        <time>2019-08-15T07:35:56Z</time>
      </trkpt>
      <trkpt lat="48.6967690" lon="13.2922890">
        <ele>407.2</ele>
        <time>2019-08-15T07:35:57Z</time>
      </trkpt>
      <trkpt lat="48.6967820" lon="13.2923470">
        <ele>407.2</ele>
        <time>2019-08-15T07:35:58Z</time>
      </trkpt>
      <trkpt lat="48.6967970" lon="13.2924030">
        <ele>407.4</ele>
        <time>2019-08-15T07:35:59Z</time>
      </trkpt>
      <trkpt lat="48.6968120" lon="13.2924590">
        <ele>407.4</ele>
        <time>2019-08-15T07:36:00Z</time>
      </trkpt>
      <trkpt lat="48.6968250" lon="13.2925140">
        <ele>407.6</ele>
        <time>2019-08-15T07:36:01Z</time>
      </trkpt>
      <trkpt lat="48.6968390" lon="13.2925660">
        <ele>407.8</ele>
        <time>2019-08-15T07:36:02Z</time>
      </trkpt>
      <trkpt lat="48.6968530" lon="13.2926170">
        <ele>408.0</ele>
        <time>2019-08-15T07:36:03Z</time>
      </trkpt>
      <trkpt lat="48.6968670" lon="13.2926660">
        <ele>408.0</ele>
        <time>2019-08-15T07:36:04Z</time>
      </trkpt>
      <trkpt lat="48.6968800" lon="13.2927130">
        <ele>408.2</ele>
        <time>2019-08-15T07:36:05Z</time>
      </trkpt>
      <trkpt lat="48.6968960" lon="13.2927630">
        <ele>408.2</ele>
        <time>2019-08-15T07:36:06Z</time>
      </trkpt>
      <trkpt lat="48.6969160" lon="13.2928150">
        <ele>408.4</ele>
        <time>2019-08-15T07:36:07Z</time>
      </trkpt>
      <trkpt lat="48.6969360" lon="13.2928630">
        <ele>408.6</ele>
        <time>2019-08-15T07:36:08Z</time>
      </trkpt>
      <trkpt lat="48.6969610" lon="13.2929100">
        <ele>408.6</ele>
        <time>2019-08-15T07:36:09Z</time>
      </trkpt>
      <trkpt lat="48.6969860" lon="13.2929580">
        <ele>408.8</ele>
        <time>2019-08-15T07:36:10Z</time>
      </trkpt>
      <trkpt lat="48.6970110" lon="13.2930100">
        <ele>408.8</ele>
        <time>2019-08-15T07:36:11Z</time>
      </trkpt>
      <trkpt lat="48.6970340" lon="13.2930620">
        <ele>409.0</ele>
        <time>2019-08-15T07:36:12Z</time>
      </trkpt>
      <trkpt lat="48.6970610" lon="13.2931190">
        <ele>409.2</ele>
        <time>2019-08-15T07:36:13Z</time>
      </trkpt>
      <trkpt lat="48.6970870" lon="13.2931730">
        <ele>409.2</ele>
        <time>2019-08-15T07:36:14Z</time>
      </trkpt>
      <trkpt lat="48.6971160" lon="13.2932330">
        <ele>409.4</ele>
        <time>2019-08-15T07:36:15Z</time>
      </trkpt>
      <trkpt lat="48.6971440" lon="13.2932940">
        <ele>409.4</ele>
        <time>2019-08-15T07:36:16Z</time>
      </trkpt>
      <trkpt lat="48.6971730" lon="13.2933520">
        <ele>409.6</ele>
        <time>2019-08-15T07:36:17Z</time>
      </trkpt>
      <trkpt lat="48.6972030" lon="13.2934090">
        <ele>409.6</ele>
        <time>2019-08-15T07:36:18Z</time>
      </trkpt>
      <trkpt lat="48.6972300" lon="13.2934600">
        <ele>409.8</ele>
        <time>2019-08-15T07:36:19Z</time>
      </trkpt>
      <trkpt lat="48.6972600" lon="13.2935160">
        <ele>409.8</ele>
        <time>2019-08-15T07:36:20Z</time>
      </trkpt>
      <trkpt lat="48.6972860" lon="13.2935740">
        <ele>410.0</ele>
        <time>2019-08-15T07:36:21Z</time>
      </trkpt>
      <trkpt lat="48.6973080" lon="13.2936320">
        <ele>410.0</ele>
        <time>2019-08-15T07:36:22Z</time>
      </trkpt>
      <trkpt lat="48.6973320" lon="13.2936930">
        <ele>410.2</ele>
        <time>2019-08-15T07:36:23Z</time>
      </trkpt>
      <trkpt lat="48.6973540" lon="13.2937520">
        <ele>410.2</ele>
        <time>2019-08-15T07:36:24Z</time>
      </trkpt>
      <trkpt lat="48.6973770" lon="13.2938130">
        <ele>410.4</ele>
        <time>2019-08-15T07:36:25Z</time>
      </trkpt>
      <trkpt lat="48.6973960" lon="13.2938740">
        <ele>410.4</ele>
        <time>2019-08-15T07:36:26Z</time>
      </trkpt>
      <trkpt lat="48.6974120" lon="13.2939400">
        <ele>410.6</ele>
        <time>2019-08-15T07:36:27Z</time>
      </trkpt>
      <trkpt lat="48.6974270" lon="13.2940020">
        <ele>410.6</ele>
        <time>2019-08-15T07:36:28Z</time>
      </trkpt>
      <trkpt lat="48.6974430" lon="13.2940600">
        <ele>410.8</ele>
        <time>2019-08-15T07:36:29Z</time>
      </trkpt>
      <trkpt lat="48.6974570" lon="13.2941200">
        <ele>410.8</ele>
        <time>2019-08-15T07:36:30Z</time>
      </trkpt>
      <trkpt lat="48.6974720" lon="13.2941800">
        <ele>411.0</ele>
        <time>2019-08-15T07:36:31Z</time>
      </trkpt>
      <trkpt lat="48.6974850" lon="13.2942380">
        <ele>411.0</ele>
        <time>2019-08-15T07:36:32Z</time>
      </trkpt>
      <trkpt lat="48.6974970" lon="13.2942970">
        <ele>411.2</ele>
        <time>2019-08-15T07:36:33Z</time>
      </trkpt>
      <trkpt lat="48.6975090" lon="13.2943530">
        <ele>411.4</ele>
        <time>2019-08-15T07:36:34Z</time>
      </trkpt>
      <trkpt lat="48.6975210" lon="13.2944100">
        <ele>411.4</ele>
        <time>2019-08-15T07:36:35Z</time>
      </trkpt>
      <trkpt lat="48.6975310" lon="13.2944730">
        <ele>411.6</ele>
        <time>2019-08-15T07:36:36Z</time>
      </trkpt>
      <trkpt lat="48.6975410" lon="13.2945400">
        <ele>411.8</ele>
        <time>2019-08-15T07:36:37Z</time>
      </trkpt>
      <trkpt lat="48.6975510" lon="13.2946080">
        <ele>412.0</ele>
        <time>2019-08-15T07:36:38Z</time>
      </trkpt>
      <trkpt lat="48.6975600" lon="13.2946750">
        <ele>412.2</ele>
        <time>2019-08-15T07:36:39Z</time>
      </trkpt>
      <trkpt lat="48.6975710" lon="13.2947400">
        <ele>412.2</ele>
        <time>2019-08-15T07:36:40Z</time>
      </trkpt>
      <trkpt lat="48.6975800" lon="13.2948050">
        <ele>412.4</ele>
        <time>2019-08-15T07:36:41Z</time>
      </trkpt>
      <trkpt lat="48.6975860" lon="13.2948690">
        <ele>412.6</ele>
        <time>2019-08-15T07:36:42Z</time>
      </trkpt>
      <trkpt lat="48.6975910" lon="13.2949350">
        <ele>412.6</ele>
        <time>2019-08-15T07:36:43Z</time>
      </trkpt>
      <trkpt lat="48.6975970" lon="13.2949960">
        <ele>412.8</ele>
        <time>2019-08-15T07:36:44Z</time>
      </trkpt>
      <trkpt lat="48.6976020" lon="13.2950590">
        <ele>413.0</ele>
        <time>2019-08-15T07:36:45Z</time>
      </trkpt>
      <trkpt lat="48.6976060" lon="13.2951240">
        <ele>413.0</ele>
        <time>2019-08-15T07:36:46Z</time>
      </trkpt>
      <trkpt lat="48.6976080" lon="13.2951900">
        <ele>413.2</ele>
        <time>2019-08-15T07:36:47Z</time>
      </trkpt>
      <trkpt lat="48.6976080" lon="13.2952540">
        <ele>413.2</ele>
        <time>2019-08-15T07:36:48Z</time>
      </trkpt>
      <trkpt lat="48.6976080" lon="13.2953210">
        <ele>413.4</ele>
        <time>2019-08-15T07:36:49Z</time>
      </trkpt>
      <trkpt lat="48.6976070" lon="13.2953900">
        <ele>413.4</ele>
        <time>2019-08-15T07:36:50Z</time>
      </trkpt>
      <trkpt lat="48.6976050" lon="13.2954570">
        <ele>413.6</ele>
        <time>2019-08-15T07:36:51Z</time>
      </trkpt>
      <trkpt lat="48.6976040" lon="13.2955220">
        <ele>413.8</ele>
        <time>2019-08-15T07:36:52Z</time>
      </trkpt>
      <trkpt lat="48.6976020" lon="13.2955890">
        <ele>413.8</ele>
        <time>2019-08-15T07:36:53Z</time>
      </trkpt>
      <trkpt lat="48.6976020" lon="13.2956560">
        <ele>414.0</ele>
        <time>2019-08-15T07:36:54Z</time>
      </trkpt>
      <trkpt lat="48.6976030" lon="13.2957260">
        <ele>414.0</ele>
        <time>2019-08-15T07:36:55Z</time>
      </trkpt>
      <trkpt lat="48.6976030" lon="13.2957940">
        <ele>414.2</ele>
        <time>2019-08-15T07:36:56Z</time>
      </trkpt>
      <trkpt lat="48.6976020" lon="13.2958600">
        <ele>414.2</ele>
        <time>2019-08-15T07:36:57Z</time>
      </trkpt>
      <trkpt lat="48.6976030" lon="13.2959250">
        <ele>414.4</ele>
        <time>2019-08-15T07:36:58Z</time>
      </trkpt>
      <trkpt lat="48.6976050" lon="13.2959890">
        <ele>414.6</ele>
        <time>2019-08-15T07:36:59Z</time>
      </trkpt>
      <trkpt lat="48.6976060" lon="13.2960570">
        <ele>414.6</ele>
        <time>2019-08-15T07:37:00Z</time>
      </trkpt>
      <trkpt lat="48.6976090" lon="13.2961220">
        <ele>414.8</ele>
        <time>2019-08-15T07:37:01Z</time>
      </trkpt>
      <trkpt lat="48.6976140" lon="13.2961880">
        <ele>414.8</ele>
        <time>2019-08-15T07:37:02Z</time>
      </trkpt>
      <trkpt lat="48.6976200" lon="13.2962540">
        <ele>414.8</ele>
        <time>2019-08-15T07:37:03Z</time>
      </trkpt>
      <trkpt lat="48.6976270" lon="13.2963190">
        <ele>415.0</ele>
        <time>2019-08-15T07:37:04Z</time>
      </trkpt>
      <trkpt lat="48.6976320" lon="13.2963850">
        <ele>415.0</ele>
        <time>2019-08-15T07:37:05Z</time>
      </trkpt>
      <trkpt lat="48.6976390" lon="13.2964530">
        <ele>415.2</ele>
        <time>2019-08-15T07:37:06Z</time>
      </trkpt>
      <trkpt lat="48.6976450" lon="13.2965230">
        <ele>415.4</ele>
        <time>2019-08-15T07:37:07Z</time>
      </trkpt>
      <trkpt lat="48.6976540" lon="13.2965890">
        <ele>415.4</ele>
        <time>2019-08-15T07:37:08Z</time>
      </trkpt>
      <trkpt lat="48.6976670" lon="13.2966490">
        <ele>415.6</ele>
        <time>2019-08-15T07:37:09Z</time>
      </trkpt>
      <trkpt lat="48.6976830" lon="13.2967110">
        <ele>415.6</ele>
        <time>2019-08-15T07:37:10Z</time>
      </trkpt>
      <trkpt lat="48.6977000" lon="13.2967730">
        <ele>415.8</ele>
        <time>2019-08-15T07:37:11Z</time>
      </trkpt>
      <trkpt lat="48.6977160" lon="13.2968350">
        <ele>416.0</ele>
        <time>2019-08-15T07:37:12Z</time>
      </trkpt>
      <trkpt lat="48.6977350" lon="13.2968960">
        <ele>416.0</ele>
        <time>2019-08-15T07:37:13Z</time>
      </trkpt>
      <trkpt lat="48.6977540" lon="13.2969540">
        <ele>416.2</ele>
        <time>2019-08-15T07:37:14Z</time>
      </trkpt>
      <trkpt lat="48.6977730" lon="13.2970150">
        <ele>416.4</ele>
        <time>2019-08-15T07:37:15Z</time>
      </trkpt>
      <trkpt lat="48.6977960" lon="13.2970700">
        <ele>416.6</ele>
        <time>2019-08-15T07:37:16Z</time>
      </trkpt>
      <trkpt lat="48.6978180" lon="13.2971240">
        <ele>416.8</ele>
        <time>2019-08-15T07:37:17Z</time>
      </trkpt>
      <trkpt lat="48.6978380" lon="13.2971820">
        <ele>416.8</ele>
        <time>2019-08-15T07:37:18Z</time>
      </trkpt>
      <trkpt lat="48.6978590" lon="13.2972450">
        <ele>417.0</ele>
        <time>2019-08-15T07:37:19Z</time>
      </trkpt>
      <trkpt lat="48.6978800" lon="13.2973050">
        <ele>417.0</ele>
        <time>2019-08-15T07:37:20Z</time>
      </trkpt>
      <trkpt lat="48.6979010" lon="13.2973630">
        <ele>417.2</ele>
        <time>2019-08-15T07:37:21Z</time>
      </trkpt>
      <trkpt lat="48.6979180" lon="13.2974200">
        <ele>417.2</ele>
        <time>2019-08-15T07:37:22Z</time>
      </trkpt>
      <trkpt lat="48.6979330" lon="13.2974750">
        <ele>417.4</ele>
        <time>2019-08-15T07:37:23Z</time>
      </trkpt>
      <trkpt lat="48.6979510" lon="13.2975270">
        <ele>417.4</ele>
        <time>2019-08-15T07:37:24Z</time>
      </trkpt>
      <trkpt lat="48.6979710" lon="13.2975800">
        <ele>417.6</ele>
        <time>2019-08-15T07:37:25Z</time>
      </trkpt>
      <trkpt lat="48.6979920" lon="13.2976310">
        <ele>417.6</ele>
        <time>2019-08-15T07:37:26Z</time>
      </trkpt>
      <trkpt lat="48.6980120" lon="13.2976780">
        <ele>417.8</ele>
        <time>2019-08-15T07:37:27Z</time>
      </trkpt>
      <trkpt lat="48.6980310" lon="13.2977240">
        <ele>418.0</ele>
        <time>2019-08-15T07:37:28Z</time>
      </trkpt>
      <trkpt lat="48.6980460" lon="13.2977620">
        <ele>418.0</ele>
        <time>2019-08-15T07:37:29Z</time>
      </trkpt>
      <trkpt lat="48.6980590" lon="13.2977970">
        <ele>418.2</ele>
        <time>2019-08-15T07:37:30Z</time>
      </trkpt>
      <trkpt lat="48.6980720" lon="13.2978320">
        <ele>418.4</ele>
        <time>2019-08-15T07:37:31Z</time>
      </trkpt>
      <trkpt lat="48.6980840" lon="13.2978750">
        <ele>418.4</ele>
        <time>2019-08-15T07:37:32Z</time>
      </trkpt>
      <trkpt lat="48.6980940" lon="13.2979220">
        <ele>418.6</ele>
        <time>2019-08-15T07:37:33Z</time>
      </trkpt>
      <trkpt lat="48.6981070" lon="13.2979750">
        <ele>418.6</ele>
        <time>2019-08-15T07:37:34Z</time>
      </trkpt>
      <trkpt lat="48.6981260" lon="13.2980280">
        <ele>418.8</ele>
        <time>2019-08-15T07:37:35Z</time>
      </trkpt>
      <trkpt lat="48.6981470" lon="13.2980790">
        <ele>419.0</ele>
        <time>2019-08-15T07:37:36Z</time>
      </trkpt>
      <trkpt lat="48.6981670" lon="13.2981270">
        <ele>419.0</ele>
        <time>2019-08-15T07:37:37Z</time>
      </trkpt>
      <trkpt lat="48.6981870" lon="13.2981770">
        <ele>419.2</ele>
        <time>2019-08-15T07:37:38Z</time>
      </trkpt>
      <trkpt lat="48.6982050" lon="13.2982330">
        <ele>419.2</ele>
        <time>2019-08-15T07:37:39Z</time>
      </trkpt>
      <trkpt lat="48.6982240" lon="13.2982890">
        <ele>419.4</ele>
        <time>2019-08-15T07:37:40Z</time>
      </trkpt>
      <trkpt lat="48.6982470" lon="13.2983480">
        <ele>419.6</ele>
        <time>2019-08-15T07:37:41Z</time>
      </trkpt>
      <trkpt lat="48.6982660" lon="13.2984080">
        <ele>419.6</ele>
        <time>2019-08-15T07:37:42Z</time>
      </trkpt>
      <trkpt lat="48.6982840" lon="13.2984710">
        <ele>419.8</ele>
        <time>2019-08-15T07:37:43Z</time>
      </trkpt>
      <trkpt lat="48.6983040" lon="13.2985320">
        <ele>420.0</ele>
        <time>2019-08-15T07:37:44Z</time>
      </trkpt>
      <trkpt lat="48.6983240" lon="13.2985910">
        <ele>420.0</ele>
        <time>2019-08-15T07:37:45Z</time>
      </trkpt>
      <trkpt lat="48.6983430" lon="13.2986530">
        <ele>420.2</ele>
        <time>2019-08-15T07:37:46Z</time>
      </trkpt>
      <trkpt lat="48.6983620" lon="13.2987200">
        <ele>420.4</ele>
        <time>2019-08-15T07:37:47Z</time>
      </trkpt>
      <trkpt lat="48.6983820" lon="13.2987920">
        <ele>420.6</ele>
        <time>2019-08-15T07:37:48Z</time>
      </trkpt>
      <trkpt lat="48.6983980" lon="13.2988660">
        <ele>420.6</ele>
        <time>2019-08-15T07:37:49Z</time>
      </trkpt>
      <trkpt lat="48.6984130" lon="13.2989370">
        <ele>420.8</ele>
        <time>2019-08-15T07:37:50Z</time>
      </trkpt>
      <trkpt lat="48.6984280" lon="13.2990100">
        <ele>421.0</ele>
        <time>2019-08-15T07:37:51Z</time>
      </trkpt>
      <trkpt lat="48.6984420" lon="13.2990870">
        <ele>421.2</ele>
        <time>2019-08-15T07:37:52Z</time>
      </trkpt>
      <trkpt lat="48.6984540" lon="13.2991610">
        <ele>421.4</ele>
        <time>2019-08-15T07:37:53Z</time>
      </trkpt>
      <trkpt lat="48.6984680" lon="13.2992310">
        <ele>421.4</ele>
        <time>2019-08-15T07:37:54Z</time>
      </trkpt>
      <trkpt lat="48.6984830" lon="13.2993060">
        <ele>421.6</ele>
        <time>2019-08-15T07:37:55Z</time>
      </trkpt>
      <trkpt lat="48.6984930" lon="13.2993810">
        <ele>421.6</ele>
        <time>2019-08-15T07:37:56Z</time>
      </trkpt>
      <trkpt lat="48.6985000" lon="13.2994540">
        <ele>421.8</ele>
        <time>2019-08-15T07:37:57Z</time>
      </trkpt>
      <trkpt lat="48.6985040" lon="13.2995250">
        <ele>421.8</ele>
        <time>2019-08-15T07:37:58Z</time>
      </trkpt>
      <trkpt lat="48.6985080" lon="13.2995950">
        <ele>422.0</ele>
        <time>2019-08-15T07:37:59Z</time>
      </trkpt>
      <trkpt lat="48.6985080" lon="13.2996610">
        <ele>422.0</ele>
        <time>2019-08-15T07:38:00Z</time>
      </trkpt>
      <trkpt lat="48.6985100" lon="13.2997340">
        <ele>422.2</ele>
        <time>2019-08-15T07:38:01Z</time>
      </trkpt>
      <trkpt lat="48.6985110" lon="13.2998050">
        <ele>422.2</ele>
        <time>2019-08-15T07:38:02Z</time>
      </trkpt>
      <trkpt lat="48.6985160" lon="13.2998700">
        <ele>422.4</ele>
        <time>2019-08-15T07:38:03Z</time>
      </trkpt>
      <trkpt lat="48.6985190" lon="13.2999370">
        <ele>422.6</ele>
        <time>2019-08-15T07:38:04Z</time>
      </trkpt>
      <trkpt lat="48.6985160" lon="13.3000050">
        <ele>422.6</ele>
        <time>2019-08-15T07:38:05Z</time>
      </trkpt>
      <trkpt lat="48.6985120" lon="13.3000770">
        <ele>422.8</ele>
        <time>2019-08-15T07:38:06Z</time>
      </trkpt>
      <trkpt lat="48.6985120" lon="13.3001400">
        <ele>422.8</ele>
        <time>2019-08-15T07:38:07Z</time>
      </trkpt>
      <trkpt lat="48.6985120" lon="13.3001930">
        <ele>423.0</ele>
        <time>2019-08-15T07:38:08Z</time>
      </trkpt>
      <trkpt lat="48.6985100" lon="13.3002480">
        <ele>423.0</ele>
        <time>2019-08-15T07:38:09Z</time>
      </trkpt>
      <trkpt lat="48.6985050" lon="13.3003060">
        <ele>423.2</ele>
        <time>2019-08-15T07:38:10Z</time>
      </trkpt>
      <trkpt lat="48.6984980" lon="13.3003700">
        <ele>423.4</ele>
        <time>2019-08-15T07:38:11Z</time>
      </trkpt>
      <trkpt lat="48.6984890" lon="13.3004380">
        <ele>423.6</ele>
        <time>2019-08-15T07:38:12Z</time>
      </trkpt>
      <trkpt lat="48.6984780" lon="13.3005070">
        <ele>423.6</ele>
        <time>2019-08-15T07:38:13Z</time>
      </trkpt>
      <trkpt lat="48.6984630" lon="13.3005710">
        <ele>423.8</ele>
        <time>2019-08-15T07:38:14Z</time>
      </trkpt>
      <trkpt lat="48.6984500" lon="13.3006360">
        <ele>424.0</ele>
        <time>2019-08-15T07:38:15Z</time>
      </trkpt>
      <trkpt lat="48.6984350" lon="13.3006980">
        <ele>424.0</ele>
        <time>2019-08-15T07:38:16Z</time>
      </trkpt>
      <trkpt lat="48.6984210" lon="13.3007600">
        <ele>424.2</ele>
        <time>2019-08-15T07:38:17Z</time>
      </trkpt>
      <trkpt lat="48.6984080" lon="13.3008190">
        <ele>424.2</ele>
        <time>2019-08-15T07:38:18Z</time>
      </trkpt>
      <trkpt lat="48.6983930" lon="13.3008760">
        <ele>424.4</ele>
        <time>2019-08-15T07:38:19Z</time>
      </trkpt>
      <trkpt lat="48.6983760" lon="13.3009350">
        <ele>424.4</ele>
        <time>2019-08-15T07:38:20Z</time>
      </trkpt>
      <trkpt lat="48.6983560" lon="13.3009930">
        <ele>424.6</ele>
        <time>2019-08-15T07:38:21Z</time>
      </trkpt>
      <trkpt lat="48.6983360" lon="13.3010520">
        <ele>424.6</ele>
        <time>2019-08-15T07:38:22Z</time>
      </trkpt>
      <trkpt lat="48.6983160" lon="13.3011160">
        <ele>424.8</ele>
        <time>2019-08-15T07:38:23Z</time>
      </trkpt>
      <trkpt lat="48.6983000" lon="13.3011720">
        <ele>424.8</ele>
        <time>2019-08-15T07:38:24Z</time>
      </trkpt>
      <trkpt lat="48.6982810" lon="13.3012220">
        <ele>425.0</ele>
        <time>2019-08-15T07:38:25Z</time>
      </trkpt>
      <trkpt lat="48.6982610" lon="13.3012660">
        <ele>425.2</ele>
        <time>2019-08-15T07:38:26Z</time>
      </trkpt>
      <trkpt lat="48.6982400" lon="13.3013090">
        <ele>425.4</ele>
        <time>2019-08-15T07:38:27Z</time>
      </trkpt>
      <trkpt lat="48.6982130" lon="13.3013590">
        <ele>425.4</ele>
        <time>2019-08-15T07:38:28Z</time>
      </trkpt>
      <trkpt lat="48.6981850" lon="13.3014050">
        <ele>425.6</ele>
        <time>2019-08-15T07:38:29Z</time>
      </trkpt>
      <trkpt lat="48.6981590" lon="13.3014470">
        <ele>425.8</ele>
        <time>2019-08-15T07:38:30Z</time>
      </trkpt>
      <trkpt lat="48.6981360" lon="13.3014900">
        <ele>425.8</ele>
        <time>2019-08-15T07:38:31Z</time>
      </trkpt>
      <trkpt lat="48.6981110" lon="13.3015390">
        <ele>426.0</ele>
        <time>2019-08-15T07:38:32Z</time>
      </trkpt>
      <trkpt lat="48.6980820" lon="13.3015900">
        <ele>426.0</ele>
        <time>2019-08-15T07:38:33Z</time>
      </trkpt>
      <trkpt lat="48.6980510" lon="13.3016410">
        <ele>426.2</ele>
        <time>2019-08-15T07:38:34Z</time>
      </trkpt>
      <trkpt lat="48.6980250" lon="13.3016950">
        <ele>426.4</ele>
        <time>2019-08-15T07:38:35Z</time>
      </trkpt>
      <trkpt lat="48.6979950" lon="13.3017520">
        <ele>426.4</ele>
        <time>2019-08-15T07:38:36Z</time>
      </trkpt>
      <trkpt lat="48.6979640" lon="13.3018010">
        <ele>426.6</ele>
        <time>2019-08-15T07:38:37Z</time>
      </trkpt>
      <trkpt lat="48.6979320" lon="13.3018450">
        <ele>426.6</ele>
        <time>2019-08-15T07:38:38Z</time>
      </trkpt>
      <trkpt lat="48.6978990" lon="13.3018870">
        <ele>426.8</ele>
        <time>2019-08-15T07:38:39Z</time>
      </trkpt>
      <trkpt lat="48.6978680" lon="13.3019290">
        <ele>427.0</ele>
        <time>2019-08-15T07:38:40Z</time>
      </trkpt>
      <trkpt lat="48.6978370" lon="13.3019720">
        <ele>427.2</ele>
        <time>2019-08-15T07:38:41Z</time>
      </trkpt>
      <trkpt lat="48.6978040" lon="13.3020140">
        <ele>427.2</ele>
        <time>2019-08-15T07:38:42Z</time>
      </trkpt>
      <trkpt lat="48.6977690" lon="13.3020570">
        <ele>427.4</ele>
        <time>2019-08-15T07:38:43Z</time>
      </trkpt>
      <trkpt lat="48.6977350" lon="13.3020990">
        <ele>427.4</ele>
        <time>2019-08-15T07:38:44Z</time>
      </trkpt>
      <trkpt lat="48.6977010" lon="13.3021430">
        <ele>427.6</ele>
        <time>2019-08-15T07:38:45Z</time>
      </trkpt>
      <trkpt lat="48.6976660" lon="13.3021910">
        <ele>427.8</ele>
        <time>2019-08-15T07:38:46Z</time>
      </trkpt>
      <trkpt lat="48.6976380" lon="13.3022400">
        <ele>427.8</ele>
        <time>2019-08-15T07:38:47Z</time>
      </trkpt>
      <trkpt lat="48.6976080" lon="13.3022880">
        <ele>428.0</ele>
        <time>2019-08-15T07:38:48Z</time>
      </trkpt>
      <trkpt lat="48.6975800" lon="13.3023320">
        <ele>428.0</ele>
        <time>2019-08-15T07:38:49Z</time>
      </trkpt>
      <trkpt lat="48.6975540" lon="13.3023710">
        <ele>428.2</ele>
        <time>2019-08-15T07:38:50Z</time>
      </trkpt>
      <trkpt lat="48.6975290" lon="13.3024120">
        <ele>428.4</ele>
        <time>2019-08-15T07:38:51Z</time>
      </trkpt>
      <trkpt lat="48.6975070" lon="13.3024590">
        <ele>428.4</ele>
        <time>2019-08-15T07:38:52Z</time>
      </trkpt>
      <trkpt lat="48.6974880" lon="13.3025040">
        <ele>428.6</ele>
        <time>2019-08-15T07:38:53Z</time>
      </trkpt>
      <trkpt lat="48.6974650" lon="13.3025600">
        <ele>428.8</ele>
        <time>2019-08-15T07:38:54Z</time>
      </trkpt>
      <trkpt lat="48.6974430" lon="13.3026140">
        <ele>428.8</ele>
        <time>2019-08-15T07:38:55Z</time>
      </trkpt>
      <trkpt lat="48.6974240" lon="13.3026650">
        <ele>429.0</ele>
        <time>2019-08-15T07:38:56Z</time>
      </trkpt>
      <trkpt lat="48.6974070" lon="13.3027180">
        <ele>429.0</ele>
        <time>2019-08-15T07:38:57Z</time>
      </trkpt>
      <trkpt lat="48.6973900" lon="13.3027720">
        <ele>429.2</ele>
        <time>2019-08-15T07:38:58Z</time>
      </trkpt>
      <trkpt lat="48.6973740" lon="13.3028230">
        <ele>429.4</ele>
        <time>2019-08-15T07:38:59Z</time>
      </trkpt>
      <trkpt lat="48.6973580" lon="13.3028730">
        <ele>429.4</ele>
        <time>2019-08-15T07:39:00Z</time>
      </trkpt>
      <trkpt lat="48.6973430" lon="13.3029300">
        <ele>429.6</ele>
        <time>2019-08-15T07:39:01Z</time>
      </trkpt>
      <trkpt lat="48.6973280" lon="13.3029910">
        <ele>429.6</ele>
        <time>2019-08-15T07:39:02Z</time>
      </trkpt>
      <trkpt lat="48.6973120" lon="13.3030510">
        <ele>429.8</ele>
        <time>2019-08-15T07:39:03Z</time>
      </trkpt>
      <trkpt lat="48.6972930" lon="13.3031130">
        <ele>429.8</ele>
        <time>2019-08-15T07:39:04Z</time>
      </trkpt>
      <trkpt lat="48.6972730" lon="13.3031800">
        <ele>430.0</ele>
        <time>2019-08-15T07:39:05Z</time>
      </trkpt>
      <trkpt lat="48.6972550" lon="13.3032500">
        <ele>430.2</ele>
        <time>2019-08-15T07:39:06Z</time>
      </trkpt>
      <trkpt lat="48.6972410" lon="13.3033230">
        <ele>430.2</ele>
        <time>2019-08-15T07:39:07Z</time>
      </trkpt>
      <trkpt lat="48.6972270" lon="13.3033910">
        <ele>430.4</ele>
        <time>2019-08-15T07:39:08Z</time>
      </trkpt>
      <trkpt lat="48.6972120" lon="13.3034570">
        <ele>430.4</ele>
        <time>2019-08-15T07:39:09Z</time>
      </trkpt>
      <trkpt lat="48.6972010" lon="13.3035230">
        <ele>430.6</ele>
        <time>2019-08-15T07:39:10Z</time>
      </trkpt>
      <trkpt lat="48.6971920" lon="13.3035950">
        <ele>430.8</ele>
        <time>2019-08-15T07:39:11Z</time>
      </trkpt>
      <trkpt lat="48.6971890" lon="13.3036690">
        <ele>430.8</ele>
        <time>2019-08-15T07:39:12Z</time>
      </trkpt>
      <trkpt lat="48.6971860" lon="13.3037420">
        <ele>431.0</ele>
        <time>2019-08-15T07:39:13Z</time>
      </trkpt>
      <trkpt lat="48.6971810" lon="13.3038160">
        <ele>431.0</ele>
        <time>2019-08-15T07:39:14Z</time>
      </trkpt>
      <trkpt lat="48.6971770" lon="13.3038890">
        <ele>431.2</ele>
        <time>2019-08-15T07:39:15Z</time>
      </trkpt>
      <trkpt lat="48.6971740" lon="13.3039620">
        <ele>431.4</ele>
        <time>2019-08-15T07:39:16Z</time>
      </trkpt>
      <trkpt lat="48.6971710" lon="13.3040360">
        <ele>431.4</ele>
        <time>2019-08-15T07:39:17Z</time>
      </trkpt>
      <trkpt lat="48.6971690" lon="13.3041090">
        <ele>431.6</ele>
        <time>2019-08-15T07:39:18Z</time>
      </trkpt>
      <trkpt lat="48.6971660" lon="13.3041780">
        <ele>431.8</ele>
        <time>2019-08-15T07:39:19Z</time>
      </trkpt>
      <trkpt lat="48.6971650" lon="13.3042480">
        <ele>431.8</ele>
        <time>2019-08-15T07:39:20Z</time>
      </trkpt>
      <trkpt lat="48.6971640" lon="13.3043170">
        <ele>432.0</ele>
        <time>2019-08-15T07:39:21Z</time>
      </trkpt>
      <trkpt lat="48.6971630" lon="13.3043850">
        <ele>432.2</ele>
        <time>2019-08-15T07:39:22Z</time>
      </trkpt>
      <trkpt lat="48.6971620" lon="13.3044490">
        <ele>432.2</ele>
        <time>2019-08-15T07:39:23Z</time>
      </trkpt>
      <trkpt lat="48.6971580" lon="13.3045140">
        <ele>432.4</ele>
        <time>2019-08-15T07:39:24Z</time>
      </trkpt>
      <trkpt lat="48.6971540" lon="13.3045830">
        <ele>432.6</ele>
        <time>2019-08-15T07:39:25Z</time>
      </trkpt>
      <trkpt lat="48.6971480" lon="13.3046480">
        <ele>432.6</ele>
        <time>2019-08-15T07:39:26Z</time>
      </trkpt>
      <trkpt lat="48.6971420" lon="13.3047130">
        <ele>432.8</ele>
        <time>2019-08-15T07:39:27Z</time>
      </trkpt>
      <trkpt lat="48.6971360" lon="13.3047810">
        <ele>432.8</ele>
        <time>2019-08-15T07:39:28Z</time>
      </trkpt>
      <trkpt lat="48.6971310" lon="13.3048520">
        <ele>433.0</ele>
        <time>2019-08-15T07:39:29Z</time>
      </trkpt>
      <trkpt lat="48.6971250" lon="13.3049250">
        <ele>433.0</ele>
        <time>2019-08-15T07:39:30Z</time>
      </trkpt>
      <trkpt lat="48.6971170" lon="13.3049950">
        <ele>433.2</ele>
        <time>2019-08-15T07:39:31Z</time>
      </trkpt>
      <trkpt lat="48.6971100" lon="13.3050580">
        <ele>433.2</ele>
        <time>2019-08-15T07:39:32Z</time>
      </trkpt>
      <trkpt lat="48.6971020" lon="13.3051170">
        <ele>433.4</ele>
        <time>2019-08-15T07:39:33Z</time>
      </trkpt>
      <trkpt lat="48.6970920" lon="13.3051820">
        <ele>433.4</ele>
        <time>2019-08-15T07:39:34Z</time>
      </trkpt>
      <trkpt lat="48.6970810" lon="13.3052480">
        <ele>433.6</ele>
        <time>2019-08-15T07:39:35Z</time>
      </trkpt>
      <trkpt lat="48.6970680" lon="13.3053130">
        <ele>433.8</ele>
        <time>2019-08-15T07:39:36Z</time>
      </trkpt>
      <trkpt lat="48.6970530" lon="13.3053710">
        <ele>433.8</ele>
        <time>2019-08-15T07:39:37Z</time>
      </trkpt>
      <trkpt lat="48.6970410" lon="13.3054270">
        <ele>434.0</ele>
        <time>2019-08-15T07:39:38Z</time>
      </trkpt>
      <trkpt lat="48.6970270" lon="13.3054870">
        <ele>434.2</ele>
        <time>2019-08-15T07:39:39Z</time>
      </trkpt>
      <trkpt lat="48.6970130" lon="13.3055440">
        <ele>434.2</ele>
        <time>2019-08-15T07:39:40Z</time>
      </trkpt>
      <trkpt lat="48.6969960" lon="13.3056030">
        <ele>434.4</ele>
        <time>2019-08-15T07:39:41Z</time>
      </trkpt>
      <trkpt lat="48.6969770" lon="13.3056620">
        <ele>434.6</ele>
        <time>2019-08-15T07:39:42Z</time>
      </trkpt>
      <trkpt lat="48.6969620" lon="13.3057140">
        <ele>434.6</ele>
        <time>2019-08-15T07:39:43Z</time>
      </trkpt>
      <trkpt lat="48.6969460" lon="13.3057670">
        <ele>434.8</ele>
        <time>2019-08-15T07:39:44Z</time>
      </trkpt>
      <trkpt lat="48.6969310" lon="13.3058170">
        <ele>435.0</ele>
        <time>2019-08-15T07:39:45Z</time>
      </trkpt>
      <trkpt lat="48.6969150" lon="13.3058660">
        <ele>435.0</ele>
        <time>2019-08-15T07:39:46Z</time>
      </trkpt>
      <trkpt lat="48.6968960" lon="13.3059180">
        <ele>435.2</ele>
        <time>2019-08-15T07:39:47Z</time>
      </trkpt>
      <trkpt lat="48.6968760" lon="13.3059700">
        <ele>435.4</ele>
        <time>2019-08-15T07:39:48Z</time>
      </trkpt>
      <trkpt lat="48.6968530" lon="13.3060240">
        <ele>435.4</ele>
        <time>2019-08-15T07:39:49Z</time>
      </trkpt>
      <trkpt lat="48.6968260" lon="13.3060770">
        <ele>435.6</ele>
        <time>2019-08-15T07:39:50Z</time>
      </trkpt>
      <trkpt lat="48.6967990" lon="13.3061340">
        <ele>435.8</ele>
        <time>2019-08-15T07:39:51Z</time>
      </trkpt>
      <trkpt lat="48.6967740" lon="13.3061920">
        <ele>435.8</ele>
        <time>2019-08-15T07:39:52Z</time>
      </trkpt>
      <trkpt lat="48.6967510" lon="13.3062480">
        <ele>436.0</ele>
        <time>2019-08-15T07:39:53Z</time>
      </trkpt>
      <trkpt lat="48.6967230" lon="13.3063040">
        <ele>436.0</ele>
        <time>2019-08-15T07:39:54Z</time>
      </trkpt>
      <trkpt lat="48.6966960" lon="13.3063600">
        <ele>436.2</ele>
        <time>2019-08-15T07:39:55Z</time>
      </trkpt>
      <trkpt lat="48.6966710" lon="13.3064150">
        <ele>436.4</ele>
        <time>2019-08-15T07:39:56Z</time>
      </trkpt>
      <trkpt lat="48.6966460" lon="13.3064700">
        <ele>436.4</ele>
        <time>2019-08-15T07:39:57Z</time>
      </trkpt>
      <trkpt lat="48.6966200" lon="13.3065230">
        <ele>436.6</ele>
        <time>2019-08-15T07:39:58Z</time>
      </trkpt>
      <trkpt lat="48.6965920" lon="13.3065750">
        <ele>436.8</ele>
        <time>2019-08-15T07:39:59Z</time>
      </trkpt>
      <trkpt lat="48.6965640" lon="13.3066320">
        <ele>436.8</ele>
        <time>2019-08-15T07:40:00Z</time>
      </trkpt>
      <trkpt lat="48.6965350" lon="13.3066910">
        <ele>437.0</ele>
        <time>2019-08-15T07:40:01Z</time>
      </trkpt>
      <trkpt lat="48.6965080" lon="13.3067510">
        <ele>437.2</ele>
        <time>2019-08-15T07:40:02Z</time>
      </trkpt>
      <trkpt lat="48.6964810" lon="13.3068110">
        <ele>437.2</ele>
        <time>2019-08-15T07:40:03Z</time>
      </trkpt>
      <trkpt lat="48.6964560" lon="13.3068740">
        <ele>437.4</ele>
        <time>2019-08-15T07:40:04Z</time>
      </trkpt>
      <trkpt lat="48.6964330" lon="13.3069370">
        <ele>437.6</ele>
        <time>2019-08-15T07:40:05Z</time>
      </trkpt>
      <trkpt lat="48.6964100" lon="13.3069980">
        <ele>437.6</ele>
        <time>2019-08-15T07:40:06Z</time>
      </trkpt>
      <trkpt lat="48.6963890" lon="13.3070570">
        <ele>437.8</ele>
        <time>2019-08-15T07:40:07Z</time>
      </trkpt>
      <trkpt lat="48.6963710" lon="13.3071130">
        <ele>438.0</ele>
        <time>2019-08-15T07:40:08Z</time>
      </trkpt>
      <trkpt lat="48.6963510" lon="13.3071660">
        <ele>438.2</ele>
        <time>2019-08-15T07:40:09Z</time>
      </trkpt>
      <trkpt lat="48.6963300" lon="13.3072230">
        <ele>438.2</ele>
        <time>2019-08-15T07:40:10Z</time>
      </trkpt>
      <trkpt lat="48.6963120" lon="13.3072770">
        <ele>438.2</ele>
        <time>2019-08-15T07:40:11Z</time>
      </trkpt>
      <trkpt lat="48.6962940" lon="13.3073310">
        <ele>438.4</ele>
        <time>2019-08-15T07:40:12Z</time>
      </trkpt>
      <trkpt lat="48.6962760" lon="13.3073870">
        <ele>438.6</ele>
        <time>2019-08-15T07:40:13Z</time>
      </trkpt>
      <trkpt lat="48.6962570" lon="13.3074390">
        <ele>438.8</ele>
        <time>2019-08-15T07:40:14Z</time>
      </trkpt>
      <trkpt lat="48.6962390" lon="13.3074890">
        <ele>439.0</ele>
        <time>2019-08-15T07:40:15Z</time>
      </trkpt>
      <trkpt lat="48.6962250" lon="13.3075430">
        <ele>439.0</ele>
        <time>2019-08-15T07:40:16Z</time>
      </trkpt>
      <trkpt lat="48.6962110" lon="13.3075950">
        <ele>439.2</ele>
        <time>2019-08-15T07:40:17Z</time>
      </trkpt>
      <trkpt lat="48.6961970" lon="13.3076460">
        <ele>439.2</ele>
        <time>2019-08-15T07:40:18Z</time>
      </trkpt>
      <trkpt lat="48.6961790" lon="13.3076970">
        <ele>439.4</ele>
        <time>2019-08-15T07:40:19Z</time>
      </trkpt>
      <trkpt lat="48.6961590" lon="13.3077500">
        <ele>439.4</ele>
        <time>2019-08-15T07:40:20Z</time>
      </trkpt>
      <trkpt lat="48.6961410" lon="13.3078090">
        <ele>439.6</ele>
        <time>2019-08-15T07:40:21Z</time>
      </trkpt>
      <trkpt lat="48.6961210" lon="13.3078750">
        <ele>439.6</ele>
        <time>2019-08-15T07:40:22Z</time>
      </trkpt>
      <trkpt lat="48.6961010" lon="13.3079400">
        <ele>439.6</ele>
        <time>2019-08-15T07:40:23Z</time>
      </trkpt>
      <trkpt lat="48.6960820" lon="13.3080040">
        <ele>439.8</ele>
        <time>2019-08-15T07:40:24Z</time>
      </trkpt>
      <trkpt lat="48.6960610" lon="13.3080710">
        <ele>439.8</ele>
        <time>2019-08-15T07:40:25Z</time>
      </trkpt>
      <trkpt lat="48.6960430" lon="13.3081360">
        <ele>440.0</ele>
        <time>2019-08-15T07:40:26Z</time>
      </trkpt>
      <trkpt lat="48.6960240" lon="13.3082020">
        <ele>440.0</ele>
        <time>2019-08-15T07:40:27Z</time>
      </trkpt>
      <trkpt lat="48.6960040" lon="13.3082650">
        <ele>440.0</ele>
        <time>2019-08-15T07:40:28Z</time>
      </trkpt>
      <trkpt lat="48.6959830" lon="13.3083210">
        <ele>440.2</ele>
        <time>2019-08-15T07:40:29Z</time>
      </trkpt>
      <trkpt lat="48.6959560" lon="13.3083720">
        <ele>440.4</ele>
        <time>2019-08-15T07:40:30Z</time>
      </trkpt>
      <trkpt lat="48.6959320" lon="13.3084220">
        <ele>440.4</ele>
        <time>2019-08-15T07:40:31Z</time>
      </trkpt>
      <trkpt lat="48.6959160" lon="13.3084780">
        <ele>440.6</ele>
        <time>2019-08-15T07:40:32Z</time>
      </trkpt>
      <trkpt lat="48.6959100" lon="13.3085380">
        <ele>440.6</ele>
        <time>2019-08-15T07:40:33Z</time>
      </trkpt>
      <trkpt lat="48.6959060" lon="13.3086010">
        <ele>440.8</ele>
        <time>2019-08-15T07:40:34Z</time>
      </trkpt>
      <trkpt lat="48.6959010" lon="13.3086610">
        <ele>440.8</ele>
        <time>2019-08-15T07:40:35Z</time>
      </trkpt>
      <trkpt lat="48.6958920" lon="13.3087220">
        <ele>440.8</ele>
        <time>2019-08-15T07:40:36Z</time>
      </trkpt>
      <trkpt lat="48.6958800" lon="13.3087800">
        <ele>441.0</ele>
        <time>2019-08-15T07:40:37Z</time>
      </trkpt>
      <trkpt lat="48.6958620" lon="13.3088370">
        <ele>441.0</ele>
        <time>2019-08-15T07:40:38Z</time>
      </trkpt>
      <trkpt lat="48.6958430" lon="13.3088940">
        <ele>441.2</ele>
        <time>2019-08-15T07:40:39Z</time>
      </trkpt>
      <trkpt lat="48.6958290" lon="13.3089520">
        <ele>441.2</ele>
        <time>2019-08-15T07:40:40Z</time>
      </trkpt>
      <trkpt lat="48.6958160" lon="13.3090120">
        <ele>441.2</ele>
        <time>2019-08-15T07:40:41Z</time>
      </trkpt>
      <trkpt lat="48.6958060" lon="13.3090740">
        <ele>441.4</ele>
        <time>2019-08-15T07:40:42Z</time>
      </trkpt>
      <trkpt lat="48.6957980" lon="13.3091410">
        <ele>441.4</ele>
        <time>2019-08-15T07:40:43Z</time>
      </trkpt>
      <trkpt lat="48.6957940" lon="13.3092120">
        <ele>441.4</ele>
        <time>2019-08-15T07:40:44Z</time>
      </trkpt>
      <trkpt lat="48.6957890" lon="13.3092810">
        <ele>441.4</ele>
        <time>2019-08-15T07:40:45Z</time>
      </trkpt>
      <trkpt lat="48.6957860" lon="13.3093510">
        <ele>441.4</ele>
        <time>2019-08-15T07:40:46Z</time>
      </trkpt>
      <trkpt lat="48.6957820" lon="13.3094230">
        <ele>441.4</ele>
        <time>2019-08-15T07:40:47Z</time>
      </trkpt>
      <trkpt lat="48.6957780" lon="13.3094930">
        <ele>441.4</ele>
        <time>2019-08-15T07:40:48Z</time>
      </trkpt>
      <trkpt lat="48.6957730" lon="13.3095650">
        <ele>441.6</ele>
        <time>2019-08-15T07:40:49Z</time>
      </trkpt>
      <trkpt lat="48.6957680" lon="13.3096370">
        <ele>441.6</ele>
        <time>2019-08-15T07:40:50Z</time>
      </trkpt>
      <trkpt lat="48.6957630" lon="13.3097120">
        <ele>441.4</ele>
        <time>2019-08-15T07:40:51Z</time>
      </trkpt>
      <trkpt lat="48.6957570" lon="13.3097870">
        <ele>441.4</ele>
        <time>2019-08-15T07:40:52Z</time>
      </trkpt>
      <trkpt lat="48.6957500" lon="13.3098630">
        <ele>441.4</ele>
        <time>2019-08-15T07:40:53Z</time>
      </trkpt>
      <trkpt lat="48.6957430" lon="13.3099400">
        <ele>441.4</ele>
        <time>2019-08-15T07:40:54Z</time>
      </trkpt>
      <trkpt lat="48.6957390" lon="13.3100180">
        <ele>441.4</ele>
        <time>2019-08-15T07:40:55Z</time>
      </trkpt>
      <trkpt lat="48.6957360" lon="13.3100960">
        <ele>441.4</ele>
        <time>2019-08-15T07:40:56Z</time>
      </trkpt>
      <trkpt lat="48.6957320" lon="13.3101750">
        <ele>441.4</ele>
        <time>2019-08-15T07:40:57Z</time>
      </trkpt>
      <trkpt lat="48.6957290" lon="13.3102560">
        <ele>441.4</ele>
        <time>2019-08-15T07:40:58Z</time>
      </trkpt>
      <trkpt lat="48.6957240" lon="13.3103350">
        <ele>441.4</ele>
        <time>2019-08-15T07:40:59Z</time>
      </trkpt>
      <trkpt lat="48.6957190" lon="13.3104150">
        <ele>441.4</ele>
        <time>2019-08-15T07:41:00Z</time>
      </trkpt>
      <trkpt lat="48.6957130" lon="13.3104960">
        <ele>441.4</ele>
        <time>2019-08-15T07:41:01Z</time>
      </trkpt>
      <trkpt lat="48.6957070" lon="13.3105770">
        <ele>441.4</ele>
        <time>2019-08-15T07:41:02Z</time>
      </trkpt>
      <trkpt lat="48.6956990" lon="13.3106620">
        <ele>441.4</ele>
        <time>2019-08-15T07:41:03Z</time>
      </trkpt>
      <trkpt lat="48.6956930" lon="13.3107470">
        <ele>441.6</ele>
        <time>2019-08-15T07:41:04Z</time>
      </trkpt>
      <trkpt lat="48.6956890" lon="13.3108310">
        <ele>441.6</ele>
        <time>2019-08-15T07:41:05Z</time>
      </trkpt>
      <trkpt lat="48.6956860" lon="13.3109160">
        <ele>441.8</ele>
        <time>2019-08-15T07:41:06Z</time>
      </trkpt>
      <trkpt lat="48.6956810" lon="13.3110000">
        <ele>441.8</ele>
        <time>2019-08-15T07:41:07Z</time>
      </trkpt>
      <trkpt lat="48.6956760" lon="13.3110830">
        <ele>441.8</ele>
        <time>2019-08-15T07:41:08Z</time>
      </trkpt>
      <trkpt lat="48.6956700" lon="13.3111650">
        <ele>441.8</ele>
        <time>2019-08-15T07:41:09Z</time>
      </trkpt>
      <trkpt lat="48.6956620" lon="13.3112500">
        <ele>441.8</ele>
        <time>2019-08-15T07:41:10Z</time>
      </trkpt>
      <trkpt lat="48.6956560" lon="13.3113330">
        <ele>441.8</ele>
        <time>2019-08-15T07:41:11Z</time>
      </trkpt>
      <trkpt lat="48.6956500" lon="13.3114170">
        <ele>441.8</ele>
        <time>2019-08-15T07:41:12Z</time>
      </trkpt>
      <trkpt lat="48.6956460" lon="13.3115040">
        <ele>441.8</ele>
        <time>2019-08-15T07:41:13Z</time>
      </trkpt>
      <trkpt lat="48.6956410" lon="13.3115910">
        <ele>441.8</ele>
        <time>2019-08-15T07:41:14Z</time>
      </trkpt>
      <trkpt lat="48.6956360" lon="13.3116790">
        <ele>441.8</ele>
        <time>2019-08-15T07:41:15Z</time>
      </trkpt>
      <trkpt lat="48.6956310" lon="13.3117640">
        <ele>441.8</ele>
        <time>2019-08-15T07:41:16Z</time>
      </trkpt>
      <trkpt lat="48.6956250" lon="13.3118510">
        <ele>441.8</ele>
        <time>2019-08-15T07:41:17Z</time>
      </trkpt>
      <trkpt lat="48.6956180" lon="13.3119380">
        <ele>441.8</ele>
        <time>2019-08-15T07:41:18Z</time>
      </trkpt>
      <trkpt lat="48.6956130" lon="13.3120270">
        <ele>441.8</ele>
        <time>2019-08-15T07:41:19Z</time>
      </trkpt>
      <trkpt lat="48.6956070" lon="13.3121120">
        <ele>441.8</ele>
        <time>2019-08-15T07:41:20Z</time>
      </trkpt>
      <trkpt lat="48.6956000" lon="13.3122030">
        <ele>441.8</ele>
        <time>2019-08-15T07:41:21Z</time>
      </trkpt>
      <trkpt lat="48.6955950" lon="13.3122920">
        <ele>441.8</ele>
        <time>2019-08-15T07:41:22Z</time>
      </trkpt>
      <trkpt lat="48.6955880" lon="13.3123860">
        <ele>441.8</ele>
        <time>2019-08-15T07:41:23Z</time>
      </trkpt>
      <trkpt lat="48.6955830" lon="13.3124840">
        <ele>441.8</ele>
        <time>2019-08-15T07:41:24Z</time>
      </trkpt>
      <trkpt lat="48.6955790" lon="13.3125780">
        <ele>441.6</ele>
        <time>2019-08-15T07:41:25Z</time>
      </trkpt>
      <trkpt lat="48.6955740" lon="13.3126720">
        <ele>441.6</ele>
        <time>2019-08-15T07:41:26Z</time>
      </trkpt>
      <trkpt lat="48.6955720" lon="13.3127670">
        <ele>441.6</ele>
        <time>2019-08-15T07:41:27Z</time>
      </trkpt>
      <trkpt lat="48.6955680" lon="13.3128640">
        <ele>441.6</ele>
        <time>2019-08-15T07:41:28Z</time>
      </trkpt>
      <trkpt lat="48.6955650" lon="13.3129590">
        <ele>441.6</ele>
        <time>2019-08-15T07:41:29Z</time>
      </trkpt>
      <trkpt lat="48.6955620" lon="13.3130540">
        <ele>441.6</ele>
        <time>2019-08-15T07:41:30Z</time>
      </trkpt>
      <trkpt lat="48.6955630" lon="13.3131490">
        <ele>441.6</ele>
        <time>2019-08-15T07:41:31Z</time>
      </trkpt>
      <trkpt lat="48.6955650" lon="13.3132430">
        <ele>441.8</ele>
        <time>2019-08-15T07:41:32Z</time>
      </trkpt>
      <trkpt lat="48.6955650" lon="13.3133380">
        <ele>441.8</ele>
        <time>2019-08-15T07:41:33Z</time>
      </trkpt>
      <trkpt lat="48.6955680" lon="13.3134380">
        <ele>441.8</ele>
        <time>2019-08-15T07:41:34Z</time>
      </trkpt>
      <trkpt lat="48.6955700" lon="13.3135350">
        <ele>441.8</ele>
        <time>2019-08-15T07:41:35Z</time>
      </trkpt>
      <trkpt lat="48.6955740" lon="13.3136280">
        <ele>442.0</ele>
        <time>2019-08-15T07:41:36Z</time>
      </trkpt>
      <trkpt lat="48.6955790" lon="13.3137230">
        <ele>442.0</ele>
        <time>2019-08-15T07:41:37Z</time>
      </trkpt>
      <trkpt lat="48.6955840" lon="13.3138180">
        <ele>442.2</ele>
        <time>2019-08-15T07:41:38Z</time>
      </trkpt>
      <trkpt lat="48.6955880" lon="13.3139160">
        <ele>442.2</ele>
        <time>2019-08-15T07:41:39Z</time>
      </trkpt>
      <trkpt lat="48.6955950" lon="13.3140150">
        <ele>442.2</ele>
        <time>2019-08-15T07:41:40Z</time>
      </trkpt>
      <trkpt lat="48.6956040" lon="13.3141110">
        <ele>442.4</ele>
        <time>2019-08-15T07:41:41Z</time>
      </trkpt>
      <trkpt lat="48.6956130" lon="13.3142030">
        <ele>442.4</ele>
        <time>2019-08-15T07:41:42Z</time>
      </trkpt>
      <trkpt lat="48.6956210" lon="13.3142890">
        <ele>442.2</ele>
        <time>2019-08-15T07:41:43Z</time>
      </trkpt>
      <trkpt lat="48.6956300" lon="13.3143730">
        <ele>442.2</ele>
        <time>2019-08-15T07:41:44Z</time>
      </trkpt>
      <trkpt lat="48.6956380" lon="13.3144600">
        <ele>442.2</ele>
        <time>2019-08-15T07:41:45Z</time>
      </trkpt>
      <trkpt lat="48.6956490" lon="13.3145460">
        <ele>442.0</ele>
        <time>2019-08-15T07:41:46Z</time>
      </trkpt>
      <trkpt lat="48.6956630" lon="13.3146290">
        <ele>442.0</ele>
        <time>2019-08-15T07:41:47Z</time>
      </trkpt>
      <trkpt lat="48.6956800" lon="13.3147090">
        <ele>442.0</ele>
        <time>2019-08-15T07:41:48Z</time>
      </trkpt>
      <trkpt lat="48.6956980" lon="13.3147930">
        <ele>441.8</ele>
        <time>2019-08-15T07:41:49Z</time>
      </trkpt>
      <trkpt lat="48.6957170" lon="13.3148760">
        <ele>441.8</ele>
        <time>2019-08-15T07:41:50Z</time>
      </trkpt>
      <trkpt lat="48.6957380" lon="13.3149600">
        <ele>442.0</ele>
        <time>2019-08-15T07:41:51Z</time>
      </trkpt>
      <trkpt lat="48.6957610" lon="13.3150470">
        <ele>442.0</ele>
        <time>2019-08-15T07:41:52Z</time>
      </trkpt>
      <trkpt lat="48.6957900" lon="13.3151310">
        <ele>441.8</ele>
        <time>2019-08-15T07:41:53Z</time>
      </trkpt>
      <trkpt lat="48.6958240" lon="13.3152060">
        <ele>441.8</ele>
        <time>2019-08-15T07:41:54Z</time>
      </trkpt>
      <trkpt lat="48.6958580" lon="13.3152760">
        <ele>441.8</ele>
        <time>2019-08-15T07:41:55Z</time>
      </trkpt>
      <trkpt lat="48.6958940" lon="13.3153530">
        <ele>441.8</ele>
        <time>2019-08-15T07:41:56Z</time>
      </trkpt>
      <trkpt lat="48.6959320" lon="13.3154250">
        <ele>441.8</ele>
        <time>2019-08-15T07:41:57Z</time>
      </trkpt>
      <trkpt lat="48.6959730" lon="13.3154920">
        <ele>441.8</ele>
        <time>2019-08-15T07:41:58Z</time>
      </trkpt>
      <trkpt lat="48.6960130" lon="13.3155560">
        <ele>441.8</ele>
        <time>2019-08-15T07:41:59Z</time>
      </trkpt>
      <trkpt lat="48.6960580" lon="13.3156190">
        <ele>442.0</ele>
        <time>2019-08-15T07:42:00Z</time>
      </trkpt>
      <trkpt lat="48.6960990" lon="13.3156840">
        <ele>442.0</ele>
        <time>2019-08-15T07:42:01Z</time>
      </trkpt>
      <trkpt lat="48.6961400" lon="13.3157440">
        <ele>442.0</ele>
        <time>2019-08-15T07:42:02Z</time>
      </trkpt>
      <trkpt lat="48.6961830" lon="13.3158050">
        <ele>442.0</ele>
        <time>2019-08-15T07:42:03Z</time>
      </trkpt>
      <trkpt lat="48.6962250" lon="13.3158630">
        <ele>442.0</ele>
        <time>2019-08-15T07:42:04Z</time>
      </trkpt>
      <trkpt lat="48.6962590" lon="13.3159240">
        <ele>442.0</ele>
        <time>2019-08-15T07:42:05Z</time>
      </trkpt>
      <trkpt lat="48.6962950" lon="13.3159810">
        <ele>442.0</ele>
        <time>2019-08-15T07:42:06Z</time>
      </trkpt>
      <trkpt lat="48.6963360" lon="13.3160350">
        <ele>442.0</ele>
        <time>2019-08-15T07:42:07Z</time>
      </trkpt>
      <trkpt lat="48.6963790" lon="13.3160930">
        <ele>442.0</ele>
        <time>2019-08-15T07:42:08Z</time>
      </trkpt>
      <trkpt lat="48.6964250" lon="13.3161440">
        <ele>442.0</ele>
        <time>2019-08-15T07:42:09Z</time>
      </trkpt>
      <trkpt lat="48.6964700" lon="13.3161890">
        <ele>442.0</ele>
        <time>2019-08-15T07:42:10Z</time>
      </trkpt>
      <trkpt lat="48.6965170" lon="13.3162340">
        <ele>442.0</ele>
        <time>2019-08-15T07:42:11Z</time>
      </trkpt>
      <trkpt lat="48.6965740" lon="13.3162600">
        <ele>442.0</ele>
        <time>2019-08-15T07:42:12Z</time>
      </trkpt>
      <trkpt lat="48.6966370" lon="13.3162740">
        <ele>442.0</ele>
        <time>2019-08-15T07:42:13Z</time>
      </trkpt>
      <trkpt lat="48.6966950" lon="13.3162890">
        <ele>442.0</ele>
        <time>2019-08-15T07:42:14Z</time>
      </trkpt>
      <trkpt lat="48.6967530" lon="13.3163070">
        <ele>442.0</ele>
        <time>2019-08-15T07:42:15Z</time>
      </trkpt>
      <trkpt lat="48.6968170" lon="13.3163290">
        <ele>441.8</ele>
        <time>2019-08-15T07:42:16Z</time>
      </trkpt>
      <trkpt lat="48.6968780" lon="13.3163540">
        <ele>441.8</ele>
        <time>2019-08-15T07:42:17Z</time>
      </trkpt>
      <trkpt lat="48.6969410" lon="13.3163730">
        <ele>442.0</ele>
        <time>2019-08-15T07:42:18Z</time>
      </trkpt>
      <trkpt lat="48.6969950" lon="13.3163830">
        <ele>442.0</ele>
        <time>2019-08-15T07:42:19Z</time>
      </trkpt>
      <trkpt lat="48.6970520" lon="13.3163850">
        <ele>442.0</ele>
        <time>2019-08-15T07:42:20Z</time>
      </trkpt>
      <trkpt lat="48.6971120" lon="13.3163860">
        <ele>442.0</ele>
        <time>2019-08-15T07:42:21Z</time>
      </trkpt>
      <trkpt lat="48.6971710" lon="13.3163910">
        <ele>442.0</ele>
        <time>2019-08-15T07:42:22Z</time>
      </trkpt>
      <trkpt lat="48.6972330" lon="13.3164010">
        <ele>442.0</ele>
        <time>2019-08-15T07:42:23Z</time>
      </trkpt>
      <trkpt lat="48.6973050" lon="13.3164160">
        <ele>442.0</ele>
        <time>2019-08-15T07:42:24Z</time>
      </trkpt>
      <trkpt lat="48.6973830" lon="13.3164230">
        <ele>442.0</ele>
        <time>2019-08-15T07:42:25Z</time>
      </trkpt>
      <trkpt lat="48.6974600" lon="13.3164210">
        <ele>441.8</ele>
        <time>2019-08-15T07:42:26Z</time>
      </trkpt>
      <trkpt lat="48.6975290" lon="13.3164080">
        <ele>441.8</ele>
        <time>2019-08-15T07:42:27Z</time>
      </trkpt>
      <trkpt lat="48.6975890" lon="13.3163890">
        <ele>441.8</ele>
        <time>2019-08-15T07:42:28Z</time>
      </trkpt>
      <trkpt lat="48.6976450" lon="13.3163710">
        <ele>441.8</ele>
        <time>2019-08-15T07:42:29Z</time>
      </trkpt>
      <trkpt lat="48.6977060" lon="13.3163450">
        <ele>441.8</ele>
        <time>2019-08-15T07:42:30Z</time>
      </trkpt>
      <trkpt lat="48.6977680" lon="13.3163180">
        <ele>441.8</ele>
        <time>2019-08-15T07:42:31Z</time>
      </trkpt>
      <trkpt lat="48.6978260" lon="13.3162870">
        <ele>441.8</ele>
        <time>2019-08-15T07:42:32Z</time>
      </trkpt>
      <trkpt lat="48.6978820" lon="13.3162500">
        <ele>441.8</ele>
        <time>2019-08-15T07:42:33Z</time>
      </trkpt>
      <trkpt lat="48.6979420" lon="13.3162110">
        <ele>441.8</ele>
        <time>2019-08-15T07:42:34Z</time>
      </trkpt>
      <trkpt lat="48.6980060" lon="13.3161840">
        <ele>441.8</ele>
        <time>2019-08-15T07:42:35Z</time>
      </trkpt>
      <trkpt lat="48.6980730" lon="13.3161540">
        <ele>441.8</ele>
        <time>2019-08-15T07:42:36Z</time>
      </trkpt>
      <trkpt lat="48.6981390" lon="13.3161100">
        <ele>441.8</ele>
        <time>2019-08-15T07:42:37Z</time>
      </trkpt>
      <trkpt lat="48.6982010" lon="13.3160720">
        <ele>442.0</ele>
        <time>2019-08-15T07:42:38Z</time>
      </trkpt>
      <trkpt lat="48.6982570" lon="13.3160250">
        <ele>442.0</ele>
        <time>2019-08-15T07:42:39Z</time>
      </trkpt>
      <trkpt lat="48.6983140" lon="13.3159760">
        <ele>442.0</ele>
        <time>2019-08-15T07:42:40Z</time>
      </trkpt>
      <trkpt lat="48.6983710" lon="13.3159260">
        <ele>442.0</ele>
        <time>2019-08-15T07:42:41Z</time>
      </trkpt>
      <trkpt lat="48.6984240" lon="13.3158730">
        <ele>442.2</ele>
        <time>2019-08-15T07:42:42Z</time>
      </trkpt>
      <trkpt lat="48.6984800" lon="13.3158180">
        <ele>442.2</ele>
        <time>2019-08-15T07:42:43Z</time>
      </trkpt>
      <trkpt lat="48.6985340" lon="13.3157650">
        <ele>442.2</ele>
        <time>2019-08-15T07:42:44Z</time>
      </trkpt>
      <trkpt lat="48.6985900" lon="13.3157160">
        <ele>442.4</ele>
        <time>2019-08-15T07:42:45Z</time>
      </trkpt>
      <trkpt lat="48.6986490" lon="13.3156730">
        <ele>442.2</ele>
        <time>2019-08-15T07:42:46Z</time>
      </trkpt>
      <trkpt lat="48.6987060" lon="13.3156310">
        <ele>442.4</ele>
        <time>2019-08-15T07:42:47Z</time>
      </trkpt>
      <trkpt lat="48.6987700" lon="13.3155940">
        <ele>442.4</ele>
        <time>2019-08-15T07:42:48Z</time>
      </trkpt>
      <trkpt lat="48.6988340" lon="13.3155660">
        <ele>442.4</ele>
        <time>2019-08-15T07:42:49Z</time>
      </trkpt>
      <trkpt lat="48.6988920" lon="13.3155460">
        <ele>442.6</ele>
        <time>2019-08-15T07:42:50Z</time>
      </trkpt>
      <trkpt lat="48.6989540" lon="13.3155270">
        <ele>442.4</ele>
        <time>2019-08-15T07:42:51Z</time>
      </trkpt>
      <trkpt lat="48.6990230" lon="13.3155080">
        <ele>442.4</ele>
        <time>2019-08-15T07:42:52Z</time>
      </trkpt>
      <trkpt lat="48.6990940" lon="13.3154870">
        <ele>442.4</ele>
        <time>2019-08-15T07:42:53Z</time>
      </trkpt>
      <trkpt lat="48.6991650" lon="13.3154700">
        <ele>442.2</ele>
        <time>2019-08-15T07:42:54Z</time>
      </trkpt>
      <trkpt lat="48.6992410" lon="13.3154510">
        <ele>442.2</ele>
        <time>2019-08-15T07:42:55Z</time>
      </trkpt>
      <trkpt lat="48.6993270" lon="13.3154280">
        <ele>442.2</ele>
        <time>2019-08-15T07:42:56Z</time>
      </trkpt>
      <trkpt lat="48.6994070" lon="13.3154170">
        <ele>442.2</ele>
        <time>2019-08-15T07:42:57Z</time>
      </trkpt>
      <trkpt lat="48.6994860" lon="13.3154150">
        <ele>442.0</ele>
        <time>2019-08-15T07:42:58Z</time>
      </trkpt>
      <trkpt lat="48.6995540" lon="13.3154080">
        <ele>442.0</ele>
        <time>2019-08-15T07:42:59Z</time>
      </trkpt>
      <trkpt lat="48.6996340" lon="13.3153940">
        <ele>442.0</ele>
        <time>2019-08-15T07:43:00Z</time>
      </trkpt>
      <trkpt lat="48.6997180" lon="13.3153860">
        <ele>442.0</ele>
        <time>2019-08-15T07:43:01Z</time>
      </trkpt>
      <trkpt lat="48.6998070" lon="13.3153940">
        <ele>442.0</ele>
        <time>2019-08-15T07:43:02Z</time>
      </trkpt>
      <trkpt lat="48.6998950" lon="13.3154060">
        <ele>442.0</ele>
        <time>2019-08-15T07:43:03Z</time>
      </trkpt>
      <trkpt lat="48.6999750" lon="13.3154270">
        <ele>442.0</ele>
        <time>2019-08-15T07:43:04Z</time>
      </trkpt>
      <trkpt lat="48.7000520" lon="13.3154500">
        <ele>442.0</ele>
        <time>2019-08-15T07:43:05Z</time>
      </trkpt>
      <trkpt lat="48.7001300" lon="13.3154750">
        <ele>442.0</ele>
        <time>2019-08-15T07:43:06Z</time>
      </trkpt>
      <trkpt lat="48.7002050" lon="13.3155060">
        <ele>442.0</ele>
        <time>2019-08-15T07:43:07Z</time>
      </trkpt>
      <trkpt lat="48.7002770" lon="13.3155450">
        <ele>442.0</ele>
        <time>2019-08-15T07:43:08Z</time>
      </trkpt>
      <trkpt lat="48.7003500" lon="13.3155840">
        <ele>442.2</ele>
        <time>2019-08-15T07:43:09Z</time>
      </trkpt>
      <trkpt lat="48.7004210" lon="13.3156220">
        <ele>442.2</ele>
        <time>2019-08-15T07:43:10Z</time>
      </trkpt>
      <trkpt lat="48.7004890" lon="13.3156580">
        <ele>442.4</ele>
        <time>2019-08-15T07:43:11Z</time>
      </trkpt>
      <trkpt lat="48.7005510" lon="13.3156990">
        <ele>442.4</ele>
        <time>2019-08-15T07:43:12Z</time>
      </trkpt>
      <trkpt lat="48.7006140" lon="13.3157420">
        <ele>442.6</ele>
        <time>2019-08-15T07:43:13Z</time>
      </trkpt>
      <trkpt lat="48.7006760" lon="13.3157940">
        <ele>442.6</ele>
        <time>2019-08-15T07:43:14Z</time>
      </trkpt>
      <trkpt lat="48.7007350" lon="13.3158510">
        <ele>442.6</ele>
        <time>2019-08-15T07:43:15Z</time>
      </trkpt>
      <trkpt lat="48.7007910" lon="13.3159100">
        <ele>442.8</ele>
        <time>2019-08-15T07:43:16Z</time>
      </trkpt>
      <trkpt lat="48.7008460" lon="13.3159650">
        <ele>442.8</ele>
        <time>2019-08-15T07:43:17Z</time>
      </trkpt>
      <trkpt lat="48.7008950" lon="13.3160180">
        <ele>442.8</ele>
        <time>2019-08-15T07:43:18Z</time>
      </trkpt>
      <trkpt lat="48.7009390" lon="13.3160660">
        <ele>442.8</ele>
        <time>2019-08-15T07:43:19Z</time>
      </trkpt>
      <trkpt lat="48.7009780" lon="13.3161080">
        <ele>442.8</ele>
        <time>2019-08-15T07:43:20Z</time>
      </trkpt>
      <trkpt lat="48.7010210" lon="13.3161520">
        <ele>442.8</ele>
        <time>2019-08-15T07:43:21Z</time>
      </trkpt>
      <trkpt lat="48.7010710" lon="13.3162030">
        <ele>442.6</ele>
        <time>2019-08-15T07:43:22Z</time>
      </trkpt>
      <trkpt lat="48.7011270" lon="13.3162560">
        <ele>442.6</ele>
        <time>2019-08-15T07:43:23Z</time>
      </trkpt>
      <trkpt lat="48.7011870" lon="13.3163100">
        <ele>442.6</ele>
        <time>2019-08-15T07:43:24Z</time>
      </trkpt>
      <trkpt lat="48.7012460" lon="13.3163600">
        <ele>442.6</ele>
        <time>2019-08-15T07:43:25Z</time>
      </trkpt>
      <trkpt lat="48.7013090" lon="13.3164160">
        <ele>442.6</ele>
        <time>2019-08-15T07:43:26Z</time>
      </trkpt>
      <trkpt lat="48.7013720" lon="13.3164710">
        <ele>442.4</ele>
        <time>2019-08-15T07:43:27Z</time>
      </trkpt>
      <trkpt lat="48.7014320" lon="13.3165160">
        <ele>442.4</ele>
        <time>2019-08-15T07:43:28Z</time>
      </trkpt>
      <trkpt lat="48.7014960" lon="13.3165560">
        <ele>442.6</ele>
        <time>2019-08-15T07:43:29Z</time>
      </trkpt>
      <trkpt lat="48.7015630" lon="13.3165860">
        <ele>442.6</ele>
        <time>2019-08-15T07:43:30Z</time>
      </trkpt>
      <trkpt lat="48.7016260" lon="13.3166140">
        <ele>442.6</ele>
        <time>2019-08-15T07:43:31Z</time>
      </trkpt>
      <trkpt lat="48.7016850" lon="13.3166340">
        <ele>442.6</ele>
        <time>2019-08-15T07:43:32Z</time>
      </trkpt>
      <trkpt lat="48.7017430" lon="13.3166470">
        <ele>442.6</ele>
        <time>2019-08-15T07:43:33Z</time>
      </trkpt>
      <trkpt lat="48.7018010" lon="13.3166630">
        <ele>442.6</ele>
        <time>2019-08-15T07:43:34Z</time>
      </trkpt>
      <trkpt lat="48.7018630" lon="13.3166730">
        <ele>442.6</ele>
        <time>2019-08-15T07:43:35Z</time>
      </trkpt>
      <trkpt lat="48.7019280" lon="13.3166790">
        <ele>442.6</ele>
        <time>2019-08-15T07:43:36Z</time>
      </trkpt>
      <trkpt lat="48.7020060" lon="13.3167200">
        <ele>442.6</ele>
        <time>2019-08-15T07:43:37Z</time>
      </trkpt>
      <trkpt lat="48.7020920" lon="13.3167680">
        <ele>442.6</ele>
        <time>2019-08-15T07:43:38Z</time>
      </trkpt>
      <trkpt lat="48.7021640" lon="13.3168040">
        <ele>442.6</ele>
        <time>2019-08-15T07:43:39Z</time>
      </trkpt>
      <trkpt lat="48.7022510" lon="13.3168460">
        <ele>442.6</ele>
        <time>2019-08-15T07:43:40Z</time>
      </trkpt>
      <trkpt lat="48.7023540" lon="13.3168870">
        <ele>442.6</ele>
        <time>2019-08-15T07:43:41Z</time>
      </trkpt>
      <trkpt lat="48.7024470" lon="13.3169240">
        <ele>442.6</ele>
        <time>2019-08-15T07:43:42Z</time>
      </trkpt>
      <trkpt lat="48.7025300" lon="13.3169580">
        <ele>442.6</ele>
        <time>2019-08-15T07:43:43Z</time>
      </trkpt>
      <trkpt lat="48.7026110" lon="13.3169910">
        <ele>442.6</ele>
        <time>2019-08-15T07:43:44Z</time>
      </trkpt>
      <trkpt lat="48.7026900" lon="13.3170330">
        <ele>442.6</ele>
        <time>2019-08-15T07:43:45Z</time>
      </trkpt>
      <trkpt lat="48.7027650" lon="13.3170830">
        <ele>442.6</ele>
        <time>2019-08-15T07:43:46Z</time>
      </trkpt>
      <trkpt lat="48.7028370" lon="13.3171420">
        <ele>442.8</ele>
        <time>2019-08-15T07:43:47Z</time>
      </trkpt>
      <trkpt lat="48.7029100" lon="13.3172020">
        <ele>442.8</ele>
        <time>2019-08-15T07:43:48Z</time>
      </trkpt>
      <trkpt lat="48.7029800" lon="13.3172600">
        <ele>442.8</ele>
        <time>2019-08-15T07:43:49Z</time>
      </trkpt>
      <trkpt lat="48.7030390" lon="13.3173240">
        <ele>442.8</ele>
        <time>2019-08-15T07:43:50Z</time>
      </trkpt>
      <trkpt lat="48.7030980" lon="13.3173900">
        <ele>442.8</ele>
        <time>2019-08-15T07:43:51Z</time>
      </trkpt>
      <trkpt lat="48.7031550" lon="13.3174580">
        <ele>442.8</ele>
        <time>2019-08-15T07:43:52Z</time>
      </trkpt>
      <trkpt lat="48.7032130" lon="13.3175360">
        <ele>442.8</ele>
        <time>2019-08-15T07:43:53Z</time>
      </trkpt>
      <trkpt lat="48.7032660" lon="13.3176090">
        <ele>442.8</ele>
        <time>2019-08-15T07:43:54Z</time>
      </trkpt>
      <trkpt lat="48.7033210" lon="13.3176740">
        <ele>443.0</ele>
        <time>2019-08-15T07:43:55Z</time>
      </trkpt>
      <trkpt lat="48.7033760" lon="13.3177430">
        <ele>443.0</ele>
        <time>2019-08-15T07:43:56Z</time>
      </trkpt>
      <trkpt lat="48.7034410" lon="13.3178250">
        <ele>443.0</ele>
        <time>2019-08-15T07:43:57Z</time>
      </trkpt>
      <trkpt lat="48.7035090" lon="13.3179190">
        <ele>443.0</ele>
        <time>2019-08-15T07:43:58Z</time>
      </trkpt>
      <trkpt lat="48.7035670" lon="13.3180060">
        <ele>443.0</ele>
        <time>2019-08-15T07:43:59Z</time>
      </trkpt>
      <trkpt lat="48.7036210" lon="13.3180950">
        <ele>443.0</ele>
        <time>2019-08-15T07:44:00Z</time>
      </trkpt>
      <trkpt lat="48.7036700" lon="13.3181770">
        <ele>443.0</ele>
        <time>2019-08-15T07:44:01Z</time>
      </trkpt>
      <trkpt lat="48.7037240" lon="13.3182650">
        <ele>443.0</ele>
        <time>2019-08-15T07:44:02Z</time>
      </trkpt>
      <trkpt lat="48.7037800" lon="13.3183520">
        <ele>443.0</ele>
        <time>2019-08-15T07:44:03Z</time>
      </trkpt>
      <trkpt lat="48.7038290" lon="13.3184370">
        <ele>443.0</ele>
        <time>2019-08-15T07:44:04Z</time>
      </trkpt>
      <trkpt lat="48.7038720" lon="13.3185240">
        <ele>443.0</ele>
        <time>2019-08-15T07:44:05Z</time>
      </trkpt>
      <trkpt lat="48.7039140" lon="13.3186130">
        <ele>443.0</ele>
        <time>2019-08-15T07:44:06Z</time>
      </trkpt>
      <trkpt lat="48.7039510" lon="13.3187020">
        <ele>443.0</ele>
        <time>2019-08-15T07:44:07Z</time>
      </trkpt>
      <trkpt lat="48.7039960" lon="13.3187900">
        <ele>443.0</ele>
        <time>2019-08-15T07:44:08Z</time>
      </trkpt>
      <trkpt lat="48.7040380" lon="13.3188780">
        <ele>443.0</ele>
        <time>2019-08-15T07:44:09Z</time>
      </trkpt>
      <trkpt lat="48.7040730" lon="13.3189630">
        <ele>443.0</ele>
        <time>2019-08-15T07:44:10Z</time>
      </trkpt>
      <trkpt lat="48.7041100" lon="13.3190510">
        <ele>443.0</ele>
        <time>2019-08-15T07:44:11Z</time>
      </trkpt>
      <trkpt lat="48.7041400" lon="13.3191440">
        <ele>443.0</ele>
        <time>2019-08-15T07:44:12Z</time>
      </trkpt>
      <trkpt lat="48.7041710" lon="13.3192350">
        <ele>443.0</ele>
        <time>2019-08-15T07:44:13Z</time>
      </trkpt>
      <trkpt lat="48.7042070" lon="13.3193240">
        <ele>443.0</ele>
        <time>2019-08-15T07:44:14Z</time>
      </trkpt>
      <trkpt lat="48.7042380" lon="13.3194130">
        <ele>443.2</ele>
        <time>2019-08-15T07:44:15Z</time>
      </trkpt>
      <trkpt lat="48.7042620" lon="13.3195070">
        <ele>443.2</ele>
        <time>2019-08-15T07:44:16Z</time>
      </trkpt>
      <trkpt lat="48.7042820" lon="13.3196050">
        <ele>443.4</ele>
        <time>2019-08-15T07:44:17Z</time>
      </trkpt>
      <trkpt lat="48.7042970" lon="13.3197050">
        <ele>443.4</ele>
        <time>2019-08-15T07:44:18Z</time>
      </trkpt>
      <trkpt lat="48.7043120" lon="13.3198040">
        <ele>443.6</ele>
        <time>2019-08-15T07:44:19Z</time>
      </trkpt>
      <trkpt lat="48.7043220" lon="13.3199050">
        <ele>443.6</ele>
        <time>2019-08-15T07:44:20Z</time>
      </trkpt>
      <trkpt lat="48.7043260" lon="13.3200020">
        <ele>443.8</ele>
        <time>2019-08-15T07:44:21Z</time>
      </trkpt>
      <trkpt lat="48.7043290" lon="13.3200940">
        <ele>444.0</ele>
        <time>2019-08-15T07:44:22Z</time>
      </trkpt>
      <trkpt lat="48.7043330" lon="13.3201740">
        <ele>444.2</ele>
        <time>2019-08-15T07:44:23Z</time>
      </trkpt>
      <trkpt lat="48.7043380" lon="13.3202490">
        <ele>444.4</ele>
        <time>2019-08-15T07:44:24Z</time>
      </trkpt>
      <trkpt lat="48.7043440" lon="13.3203220">
        <ele>444.6</ele>
        <time>2019-08-15T07:44:25Z</time>
      </trkpt>
      <trkpt lat="48.7043500" lon="13.3203890">
        <ele>444.6</ele>
        <time>2019-08-15T07:44:26Z</time>
      </trkpt>
      <trkpt lat="48.7043530" lon="13.3204470">
        <ele>444.8</ele>
        <time>2019-08-15T07:44:27Z</time>
      </trkpt>
      <trkpt lat="48.7043560" lon="13.3205000">
        <ele>445.0</ele>
        <time>2019-08-15T07:44:28Z</time>
      </trkpt>
      <trkpt lat="48.7043580" lon="13.3205540">
        <ele>445.0</ele>
        <time>2019-08-15T07:44:29Z</time>
      </trkpt>
      <trkpt lat="48.7043580" lon="13.3206070">
        <ele>445.2</ele>
        <time>2019-08-15T07:44:30Z</time>
      </trkpt>
      <trkpt lat="48.7043600" lon="13.3206580">
        <ele>445.2</ele>
        <time>2019-08-15T07:44:31Z</time>
      </trkpt>
      <trkpt lat="48.7043650" lon="13.3207150">
        <ele>445.4</ele>
        <time>2019-08-15T07:44:32Z</time>
      </trkpt>
      <trkpt lat="48.7043690" lon="13.3207760">
        <ele>445.6</ele>
        <time>2019-08-15T07:44:33Z</time>
      </trkpt>
      <trkpt lat="48.7043700" lon="13.3208390">
        <ele>445.8</ele>
        <time>2019-08-15T07:44:34Z</time>
      </trkpt>
      <trkpt lat="48.7043710" lon="13.3209040">
        <ele>446.0</ele>
        <time>2019-08-15T07:44:35Z</time>
      </trkpt>
      <trkpt lat="48.7043700" lon="13.3209760">
        <ele>446.2</ele>
        <time>2019-08-15T07:44:36Z</time>
      </trkpt>
      <trkpt lat="48.7043700" lon="13.3210450">
        <ele>446.2</ele>
        <time>2019-08-15T07:44:37Z</time>
      </trkpt>
      <trkpt lat="48.7043710" lon="13.3211170">
        <ele>446.4</ele>
        <time>2019-08-15T07:44:38Z</time>
      </trkpt>
      <trkpt lat="48.7043780" lon="13.3211840">
        <ele>446.4</ele>
        <time>2019-08-15T07:44:39Z</time>
      </trkpt>
      <trkpt lat="48.7043830" lon="13.3212630">
        <ele>446.6</ele>
        <time>2019-08-15T07:44:40Z</time>
      </trkpt>
      <trkpt lat="48.7043940" lon="13.3213420">
        <ele>446.6</ele>
        <time>2019-08-15T07:44:41Z</time>
      </trkpt>
      <trkpt lat="48.7044030" lon="13.3214230">
        <ele>446.6</ele>
        <time>2019-08-15T07:44:42Z</time>
      </trkpt>
      <trkpt lat="48.7044100" lon="13.3215060">
        <ele>446.8</ele>
        <time>2019-08-15T07:44:43Z</time>
      </trkpt>
      <trkpt lat="48.7044150" lon="13.3215830">
        <ele>446.8</ele>
        <time>2019-08-15T07:44:44Z</time>
      </trkpt>
      <trkpt lat="48.7044210" lon="13.3216580">
        <ele>447.0</ele>
        <time>2019-08-15T07:44:45Z</time>
      </trkpt>
      <trkpt lat="48.7044260" lon="13.3217340">
        <ele>447.2</ele>
        <time>2019-08-15T07:44:46Z</time>
      </trkpt>
      <trkpt lat="48.7044340" lon="13.3218050">
        <ele>447.4</ele>
        <time>2019-08-15T07:44:47Z</time>
      </trkpt>
      <trkpt lat="48.7044420" lon="13.3218790">
        <ele>447.6</ele>
        <time>2019-08-15T07:44:48Z</time>
      </trkpt>
      <trkpt lat="48.7044520" lon="13.3219420">
        <ele>447.6</ele>
        <time>2019-08-15T07:44:49Z</time>
      </trkpt>
      <trkpt lat="48.7044640" lon="13.3220020">
        <ele>447.8</ele>
        <time>2019-08-15T07:44:50Z</time>
      </trkpt>
      <trkpt lat="48.7044740" lon="13.3220680">
        <ele>448.0</ele>
        <time>2019-08-15T07:44:51Z</time>
      </trkpt>
      <trkpt lat="48.7044870" lon="13.3221290">
        <ele>448.0</ele>
        <time>2019-08-15T07:44:52Z</time>
      </trkpt>
      <trkpt lat="48.7045010" lon="13.3221890">
        <ele>448.2</ele>
        <time>2019-08-15T07:44:53Z</time>
      </trkpt>
      <trkpt lat="48.7045150" lon="13.3222560">
        <ele>448.2</ele>
        <time>2019-08-15T07:44:54Z</time>
      </trkpt>
      <trkpt lat="48.7045290" lon="13.3223260">
        <ele>448.4</ele>
        <time>2019-08-15T07:44:55Z</time>
      </trkpt>
      <trkpt lat="48.7045420" lon="13.3223970">
        <ele>448.6</ele>
        <time>2019-08-15T07:44:56Z</time>
      </trkpt>
      <trkpt lat="48.7045590" lon="13.3224670">
        <ele>448.8</ele>
        <time>2019-08-15T07:44:57Z</time>
      </trkpt>
      <trkpt lat="48.7045740" lon="13.3225420">
        <ele>449.0</ele>
        <time>2019-08-15T07:44:58Z</time>
      </trkpt>
      <trkpt lat="48.7045880" lon="13.3226110">
        <ele>449.0</ele>
        <time>2019-08-15T07:44:59Z</time>
      </trkpt>
      <trkpt lat="48.7046050" lon="13.3226820">
        <ele>449.2</ele>
        <time>2019-08-15T07:45:00Z</time>
      </trkpt>
      <trkpt lat="48.7046210" lon="13.3227530">
        <ele>449.4</ele>
        <time>2019-08-15T07:45:01Z</time>
      </trkpt>
      <trkpt lat="48.7046330" lon="13.3228310">
        <ele>449.4</ele>
        <time>2019-08-15T07:45:02Z</time>
      </trkpt>
      <trkpt lat="48.7046440" lon="13.3229150">
        <ele>449.6</ele>
        <time>2019-08-15T07:45:03Z</time>
      </trkpt>
      <trkpt lat="48.7046540" lon="13.3230050">
        <ele>449.8</ele>
        <time>2019-08-15T07:45:04Z</time>
      </trkpt>
      <trkpt lat="48.7046670" lon="13.3230890">
        <ele>449.8</ele>
        <time>2019-08-15T07:45:05Z</time>
      </trkpt>
      <trkpt lat="48.7046870" lon="13.3231760">
        <ele>450.0</ele>
        <time>2019-08-15T07:45:06Z</time>
      </trkpt>
      <trkpt lat="48.7047090" lon="13.3232650">
        <ele>450.2</ele>
        <time>2019-08-15T07:45:07Z</time>
      </trkpt>
      <trkpt lat="48.7047260" lon="13.3233500">
        <ele>450.2</ele>
        <time>2019-08-15T07:45:08Z</time>
      </trkpt>
      <trkpt lat="48.7047440" lon="13.3234300">
        <ele>450.4</ele>
        <time>2019-08-15T07:45:09Z</time>
      </trkpt>
      <trkpt lat="48.7047610" lon="13.3235240">
        <ele>450.6</ele>
        <time>2019-08-15T07:45:10Z</time>
      </trkpt>
      <trkpt lat="48.7047840" lon="13.3236240">
        <ele>450.6</ele>
        <time>2019-08-15T07:45:11Z</time>
      </trkpt>
      <trkpt lat="48.7048030" lon="13.3237180">
        <ele>450.8</ele>
        <time>2019-08-15T07:45:12Z</time>
      </trkpt>
      <trkpt lat="48.7048220" lon="13.3238080">
        <ele>451.0</ele>
        <time>2019-08-15T07:45:13Z</time>
      </trkpt>
      <trkpt lat="48.7048380" lon="13.3238960">
        <ele>451.2</ele>
        <time>2019-08-15T07:45:14Z</time>
      </trkpt>
      <trkpt lat="48.7048530" lon="13.3239830">
        <ele>451.2</ele>
        <time>2019-08-15T07:45:15Z</time>
      </trkpt>
      <trkpt lat="48.7048590" lon="13.3240670">
        <ele>451.4</ele>
        <time>2019-08-15T07:45:16Z</time>
      </trkpt>
      <trkpt lat="48.7048610" lon="13.3241450">
        <ele>451.6</ele>
        <time>2019-08-15T07:45:17Z</time>
      </trkpt>
      <trkpt lat="48.7048630" lon="13.3242200">
        <ele>451.8</ele>
        <time>2019-08-15T07:45:18Z</time>
      </trkpt>
      <trkpt lat="48.7048620" lon="13.3243000">
        <ele>452.0</ele>
        <time>2019-08-15T07:45:19Z</time>
      </trkpt>
      <trkpt lat="48.7048600" lon="13.3243880">
        <ele>452.2</ele>
        <time>2019-08-15T07:45:20Z</time>
      </trkpt>
      <trkpt lat="48.7048630" lon="13.3244760">
        <ele>452.4</ele>
        <time>2019-08-15T07:45:21Z</time>
      </trkpt>
      <trkpt lat="48.7048670" lon="13.3245580">
        <ele>452.4</ele>
        <time>2019-08-15T07:45:22Z</time>
      </trkpt>
      <trkpt lat="48.7048700" lon="13.3246390">
        <ele>452.6</ele>
        <time>2019-08-15T07:45:23Z</time>
      </trkpt>
      <trkpt lat="48.7048710" lon="13.3247200">
        <ele>452.8</ele>
        <time>2019-08-15T07:45:24Z</time>
      </trkpt>
      <trkpt lat="48.7048730" lon="13.3248000">
        <ele>453.0</ele>
        <time>2019-08-15T07:45:25Z</time>
      </trkpt>
      <trkpt lat="48.7048770" lon="13.3248870">
        <ele>453.2</ele>
        <time>2019-08-15T07:45:26Z</time>
      </trkpt>
      <trkpt lat="48.7048810" lon="13.3249700">
        <ele>453.2</ele>
        <time>2019-08-15T07:45:27Z</time>
      </trkpt>
      <trkpt lat="48.7048860" lon="13.3250480">
        <ele>453.4</ele>
        <time>2019-08-15T07:45:28Z</time>
      </trkpt>
      <trkpt lat="48.7048940" lon="13.3251300">
        <ele>453.4</ele>
        <time>2019-08-15T07:45:29Z</time>
      </trkpt>
      <trkpt lat="48.7049030" lon="13.3252100">
        <ele>453.6</ele>
        <time>2019-08-15T07:45:30Z</time>
      </trkpt>
      <trkpt lat="48.7049140" lon="13.3252860">
        <ele>453.8</ele>
        <time>2019-08-15T07:45:31Z</time>
      </trkpt>
      <trkpt lat="48.7049260" lon="13.3253580">
        <ele>453.8</ele>
        <time>2019-08-15T07:45:32Z</time>
      </trkpt>
      <trkpt lat="48.7049360" lon="13.3254320">
        <ele>454.0</ele>
        <time>2019-08-15T07:45:33Z</time>
      </trkpt>
      <trkpt lat="48.7049490" lon="13.3255040">
        <ele>454.2</ele>
        <time>2019-08-15T07:45:34Z</time>
      </trkpt>
      <trkpt lat="48.7049630" lon="13.3255750">
        <ele>454.4</ele>
        <time>2019-08-15T07:45:35Z</time>
      </trkpt>
      <trkpt lat="48.7049780" lon="13.3256460">
        <ele>454.6</ele>
        <time>2019-08-15T07:45:36Z</time>
      </trkpt>
      <trkpt lat="48.7049930" lon="13.3257150">
        <ele>454.6</ele>
        <time>2019-08-15T07:45:37Z</time>
      </trkpt>
      <trkpt lat="48.7050080" lon="13.3257870">
        <ele>454.8</ele>
        <time>2019-08-15T07:45:38Z</time>
      </trkpt>
      <trkpt lat="48.7050240" lon="13.3258550">
        <ele>455.0</ele>
        <time>2019-08-15T07:45:39Z</time>
      </trkpt>
      <trkpt lat="48.7050410" lon="13.3259230">
        <ele>455.2</ele>
        <time>2019-08-15T07:45:40Z</time>
      </trkpt>
      <trkpt lat="48.7050590" lon="13.3259880">
        <ele>455.4</ele>
        <time>2019-08-15T07:45:41Z</time>
      </trkpt>
      <trkpt lat="48.7050760" lon="13.3260500">
        <ele>455.4</ele>
        <time>2019-08-15T07:45:42Z</time>
      </trkpt>
      <trkpt lat="48.7050940" lon="13.3261140">
        <ele>455.6</ele>
        <time>2019-08-15T07:45:43Z</time>
      </trkpt>
      <trkpt lat="48.7051140" lon="13.3261770">
        <ele>455.6</ele>
        <time>2019-08-15T07:45:44Z</time>
      </trkpt>
      <trkpt lat="48.7051350" lon="13.3262350">
        <ele>455.8</ele>
        <time>2019-08-15T07:45:45Z</time>
      </trkpt>
      <trkpt lat="48.7051580" lon="13.3262910">
        <ele>456.0</ele>
        <time>2019-08-15T07:45:46Z</time>
      </trkpt>
      <trkpt lat="48.7051810" lon="13.3263470">
        <ele>456.0</ele>
        <time>2019-08-15T07:45:47Z</time>
      </trkpt>
      <trkpt lat="48.7052090" lon="13.3264050">
        <ele>456.2</ele>
        <time>2019-08-15T07:45:48Z</time>
      </trkpt>
      <trkpt lat="48.7052400" lon="13.3264640">
        <ele>456.4</ele>
        <time>2019-08-15T07:45:49Z</time>
      </trkpt>
      <trkpt lat="48.7052700" lon="13.3265200">
        <ele>456.4</ele>
        <time>2019-08-15T07:45:50Z</time>
      </trkpt>
      <trkpt lat="48.7053010" lon="13.3265720">
        <ele>456.6</ele>
        <time>2019-08-15T07:45:51Z</time>
      </trkpt>
      <trkpt lat="48.7053340" lon="13.3266280">
        <ele>456.8</ele>
        <time>2019-08-15T07:45:52Z</time>
      </trkpt>
      <trkpt lat="48.7053650" lon="13.3266810">
        <ele>456.8</ele>
        <time>2019-08-15T07:45:53Z</time>
      </trkpt>
      <trkpt lat="48.7053970" lon="13.3267370">
        <ele>457.0</ele>
        <time>2019-08-15T07:45:54Z</time>
      </trkpt>
      <trkpt lat="48.7054280" lon="13.3267900">
        <ele>457.0</ele>
        <time>2019-08-15T07:45:55Z</time>
      </trkpt>
      <trkpt lat="48.7054590" lon="13.3268440">
        <ele>457.2</ele>
        <time>2019-08-15T07:45:56Z</time>
      </trkpt>
      <trkpt lat="48.7054900" lon="13.3269030">
        <ele>457.4</ele>
        <time>2019-08-15T07:45:57Z</time>
      </trkpt>
      <trkpt lat="48.7055180" lon="13.3269640">
        <ele>457.4</ele>
        <time>2019-08-15T07:45:58Z</time>
      </trkpt>
      <trkpt lat="48.7055480" lon="13.3270220">
        <ele>457.6</ele>
        <time>2019-08-15T07:45:59Z</time>
      </trkpt>
      <trkpt lat="48.7055780" lon="13.3270800">
        <ele>457.6</ele>
        <time>2019-08-15T07:46:00Z</time>
      </trkpt>
      <trkpt lat="48.7056100" lon="13.3271360">
        <ele>457.8</ele>
        <time>2019-08-15T07:46:01Z</time>
      </trkpt>
      <trkpt lat="48.7056400" lon="13.3271910">
        <ele>458.0</ele>
        <time>2019-08-15T07:46:02Z</time>
      </trkpt>
      <trkpt lat="48.7056720" lon="13.3272470">
        <ele>458.2</ele>
        <time>2019-08-15T07:46:03Z</time>
      </trkpt>
      <trkpt lat="48.7057050" lon="13.3273040">
        <ele>458.2</ele>
        <time>2019-08-15T07:46:04Z</time>
      </trkpt>
      <trkpt lat="48.7057360" lon="13.3273590">
        <ele>458.2</ele>
        <time>2019-08-15T07:46:05Z</time>
      </trkpt>
      <trkpt lat="48.7057670" lon="13.3274130">
        <ele>458.4</ele>
        <time>2019-08-15T07:46:06Z</time>
      </trkpt>
      <trkpt lat="48.7057940" lon="13.3274690">
        <ele>458.4</ele>
        <time>2019-08-15T07:46:07Z</time>
      </trkpt>
      <trkpt lat="48.7058190" lon="13.3275310">
        <ele>458.4</ele>
        <time>2019-08-15T07:46:08Z</time>
      </trkpt>
      <trkpt lat="48.7058420" lon="13.3275940">
        <ele>458.6</ele>
        <time>2019-08-15T07:46:09Z</time>
      </trkpt>
      <trkpt lat="48.7058620" lon="13.3276590">
        <ele>458.6</ele>
        <time>2019-08-15T07:46:10Z</time>
      </trkpt>
      <trkpt lat="48.7058800" lon="13.3277220">
        <ele>458.8</ele>
        <time>2019-08-15T07:46:11Z</time>
      </trkpt>
      <trkpt lat="48.7058990" lon="13.3277870">
        <ele>458.8</ele>
        <time>2019-08-15T07:46:12Z</time>
      </trkpt>
      <trkpt lat="48.7059180" lon="13.3278490">
        <ele>459.0</ele>
        <time>2019-08-15T07:46:13Z</time>
      </trkpt>
      <trkpt lat="48.7059370" lon="13.3279100">
        <ele>459.0</ele>
        <time>2019-08-15T07:46:14Z</time>
      </trkpt>
      <trkpt lat="48.7059540" lon="13.3279760">
        <ele>459.2</ele>
        <time>2019-08-15T07:46:15Z</time>
      </trkpt>
      <trkpt lat="48.7059710" lon="13.3280430">
        <ele>459.4</ele>
        <time>2019-08-15T07:46:16Z</time>
      </trkpt>
      <trkpt lat="48.7059880" lon="13.3281100">
        <ele>459.4</ele>
        <time>2019-08-15T07:46:17Z</time>
      </trkpt>
      <trkpt lat="48.7060030" lon="13.3281790">
        <ele>459.6</ele>
        <time>2019-08-15T07:46:18Z</time>
      </trkpt>
      <trkpt lat="48.7060170" lon="13.3282460">
        <ele>459.8</ele>
        <time>2019-08-15T07:46:19Z</time>
      </trkpt>
      <trkpt lat="48.7060330" lon="13.3283190">
        <ele>459.8</ele>
        <time>2019-08-15T07:46:20Z</time>
      </trkpt>
      <trkpt lat="48.7060470" lon="13.3283910">
        <ele>460.0</ele>
        <time>2019-08-15T07:46:21Z</time>
      </trkpt>
      <trkpt lat="48.7060600" lon="13.3284630">
        <ele>460.2</ele>
        <time>2019-08-15T07:46:22Z</time>
      </trkpt>
      <trkpt lat="48.7060710" lon="13.3285340">
        <ele>460.4</ele>
        <time>2019-08-15T07:46:23Z</time>
      </trkpt>
      <trkpt lat="48.7060800" lon="13.3286020">
        <ele>460.4</ele>
        <time>2019-08-15T07:46:24Z</time>
      </trkpt>
      <trkpt lat="48.7060890" lon="13.3286710">
        <ele>460.6</ele>
        <time>2019-08-15T07:46:25Z</time>
      </trkpt>
      <trkpt lat="48.7060980" lon="13.3287430">
        <ele>460.8</ele>
        <time>2019-08-15T07:46:26Z</time>
      </trkpt>
      <trkpt lat="48.7061030" lon="13.3288150">
        <ele>461.0</ele>
        <time>2019-08-15T07:46:27Z</time>
      </trkpt>
      <trkpt lat="48.7061060" lon="13.3288870">
        <ele>461.2</ele>
        <time>2019-08-15T07:46:28Z</time>
      </trkpt>
      <trkpt lat="48.7061070" lon="13.3289580">
        <ele>461.2</ele>
        <time>2019-08-15T07:46:29Z</time>
      </trkpt>
      <trkpt lat="48.7061050" lon="13.3290320">
        <ele>461.4</ele>
        <time>2019-08-15T07:46:30Z</time>
      </trkpt>
      <trkpt lat="48.7061060" lon="13.3291040">
        <ele>461.6</ele>
        <time>2019-08-15T07:46:31Z</time>
      </trkpt>
      <trkpt lat="48.7061090" lon="13.3291790">
        <ele>461.6</ele>
        <time>2019-08-15T07:46:32Z</time>
      </trkpt>
      <trkpt lat="48.7061090" lon="13.3292540">
        <ele>461.8</ele>
        <time>2019-08-15T07:46:33Z</time>
      </trkpt>
      <trkpt lat="48.7061070" lon="13.3293300">
        <ele>461.8</ele>
        <time>2019-08-15T07:46:34Z</time>
      </trkpt>
      <trkpt lat="48.7061040" lon="13.3294040">
        <ele>462.0</ele>
        <time>2019-08-15T07:46:35Z</time>
      </trkpt>
      <trkpt lat="48.7060990" lon="13.3294790">
        <ele>462.0</ele>
        <time>2019-08-15T07:46:36Z</time>
      </trkpt>
      <trkpt lat="48.7060940" lon="13.3295540">
        <ele>462.2</ele>
        <time>2019-08-15T07:46:37Z</time>
      </trkpt>
      <trkpt lat="48.7060880" lon="13.3296280">
        <ele>462.4</ele>
        <time>2019-08-15T07:46:38Z</time>
      </trkpt>
      <trkpt lat="48.7060840" lon="13.3297000">
        <ele>462.4</ele>
        <time>2019-08-15T07:46:39Z</time>
      </trkpt>
      <trkpt lat="48.7060820" lon="13.3297750">
        <ele>462.6</ele>
        <time>2019-08-15T07:46:40Z</time>
      </trkpt>
      <trkpt lat="48.7060790" lon="13.3298480">
        <ele>462.8</ele>
        <time>2019-08-15T07:46:41Z</time>
      </trkpt>
      <trkpt lat="48.7060780" lon="13.3299180">
        <ele>462.8</ele>
        <time>2019-08-15T07:46:42Z</time>
      </trkpt>
      <trkpt lat="48.7060760" lon="13.3299920">
        <ele>463.0</ele>
        <time>2019-08-15T07:46:43Z</time>
      </trkpt>
      <trkpt lat="48.7060740" lon="13.3300650">
        <ele>463.0</ele>
        <time>2019-08-15T07:46:44Z</time>
      </trkpt>
      <trkpt lat="48.7060730" lon="13.3301390">
        <ele>463.2</ele>
        <time>2019-08-15T07:46:45Z</time>
      </trkpt>
      <trkpt lat="48.7060730" lon="13.3302120">
        <ele>463.2</ele>
        <time>2019-08-15T07:46:46Z</time>
      </trkpt>
      <trkpt lat="48.7060760" lon="13.3302860">
        <ele>463.4</ele>
        <time>2019-08-15T07:46:47Z</time>
      </trkpt>
      <trkpt lat="48.7060810" lon="13.3303580">
        <ele>463.6</ele>
        <time>2019-08-15T07:46:48Z</time>
      </trkpt>
      <trkpt lat="48.7060870" lon="13.3304280">
        <ele>463.8</ele>
        <time>2019-08-15T07:46:49Z</time>
      </trkpt>
      <trkpt lat="48.7060920" lon="13.3305020">
        <ele>463.8</ele>
        <time>2019-08-15T07:46:50Z</time>
      </trkpt>
      <trkpt lat="48.7060980" lon="13.3305750">
        <ele>464.0</ele>
        <time>2019-08-15T07:46:51Z</time>
      </trkpt>
      <trkpt lat="48.7061060" lon="13.3306470">
        <ele>464.2</ele>
        <time>2019-08-15T07:46:52Z</time>
      </trkpt>
      <trkpt lat="48.7061160" lon="13.3307160">
        <ele>464.4</ele>
        <time>2019-08-15T07:46:53Z</time>
      </trkpt>
      <trkpt lat="48.7061270" lon="13.3307860">
        <ele>464.4</ele>
        <time>2019-08-15T07:46:54Z</time>
      </trkpt>
      <trkpt lat="48.7061420" lon="13.3308540">
        <ele>464.6</ele>
        <time>2019-08-15T07:46:55Z</time>
      </trkpt>
      <trkpt lat="48.7061580" lon="13.3309220">
        <ele>464.8</ele>
        <time>2019-08-15T07:46:56Z</time>
      </trkpt>
      <trkpt lat="48.7061740" lon="13.3309860">
        <ele>464.8</ele>
        <time>2019-08-15T07:46:57Z</time>
      </trkpt>
      <trkpt lat="48.7061910" lon="13.3310510">
        <ele>465.0</ele>
        <time>2019-08-15T07:46:58Z</time>
      </trkpt>
      <trkpt lat="48.7062080" lon="13.3311110">
        <ele>465.2</ele>
        <time>2019-08-15T07:46:59Z</time>
      </trkpt>
      <trkpt lat="48.7062230" lon="13.3311780">
        <ele>465.4</ele>
        <time>2019-08-15T07:47:00Z</time>
      </trkpt>
      <trkpt lat="48.7062360" lon="13.3312420">
        <ele>465.6</ele>
        <time>2019-08-15T07:47:01Z</time>
      </trkpt>
      <trkpt lat="48.7062490" lon="13.3312990">
        <ele>465.6</ele>
        <time>2019-08-15T07:47:02Z</time>
      </trkpt>
      <trkpt lat="48.7062650" lon="13.3313530">
        <ele>465.8</ele>
        <time>2019-08-15T07:47:03Z</time>
      </trkpt>
      <trkpt lat="48.7062880" lon="13.3314120">
        <ele>466.0</ele>
        <time>2019-08-15T07:47:04Z</time>
      </trkpt>
      <trkpt lat="48.7063140" lon="13.3314710">
        <ele>466.0</ele>
        <time>2019-08-15T07:47:05Z</time>
      </trkpt>
      <trkpt lat="48.7063420" lon="13.3315310">
        <ele>466.2</ele>
        <time>2019-08-15T07:47:06Z</time>
      </trkpt>
      <trkpt lat="48.7063720" lon="13.3315900">
        <ele>466.4</ele>
        <time>2019-08-15T07:47:07Z</time>
      </trkpt>
      <trkpt lat="48.7064020" lon="13.3316460">
        <ele>466.6</ele>
        <time>2019-08-15T07:47:08Z</time>
      </trkpt>
      <trkpt lat="48.7064330" lon="13.3317010">
        <ele>466.8</ele>
        <time>2019-08-15T07:47:09Z</time>
      </trkpt>
      <trkpt lat="48.7064660" lon="13.3317550">
        <ele>466.8</ele>
        <time>2019-08-15T07:47:10Z</time>
      </trkpt>
      <trkpt lat="48.7065000" lon="13.3318060">
        <ele>467.0</ele>
        <time>2019-08-15T07:47:11Z</time>
      </trkpt>
      <trkpt lat="48.7065330" lon="13.3318570">
        <ele>467.0</ele>
        <time>2019-08-15T07:47:12Z</time>
      </trkpt>
      <trkpt lat="48.7065670" lon="13.3319060">
        <ele>467.2</ele>
        <time>2019-08-15T07:47:13Z</time>
      </trkpt>
      <trkpt lat="48.7066000" lon="13.3319540">
        <ele>467.4</ele>
        <time>2019-08-15T07:47:14Z</time>
      </trkpt>
      <trkpt lat="48.7066340" lon="13.3319990">
        <ele>467.4</ele>
        <time>2019-08-15T07:47:15Z</time>
      </trkpt>
      <trkpt lat="48.7066730" lon="13.3320380">
        <ele>467.6</ele>
        <time>2019-08-15T07:47:16Z</time>
      </trkpt>
      <trkpt lat="48.7067100" lon="13.3320780">
        <ele>467.8</ele>
        <time>2019-08-15T07:47:17Z</time>
      </trkpt>
      <trkpt lat="48.7067460" lon="13.3321130">
        <ele>467.8</ele>
        <time>2019-08-15T07:47:18Z</time>
      </trkpt>
      <trkpt lat="48.7067800" lon="13.3321450">
        <ele>468.0</ele>
        <time>2019-08-15T07:47:19Z</time>
      </trkpt>
      <trkpt lat="48.7068150" lon="13.3321800">
        <ele>468.2</ele>
        <time>2019-08-15T07:47:20Z</time>
      </trkpt>
      <trkpt lat="48.7068520" lon="13.3322140">
        <ele>468.4</ele>
        <time>2019-08-15T07:47:21Z</time>
      </trkpt>
      <trkpt lat="48.7068910" lon="13.3322490">
        <ele>468.4</ele>
        <time>2019-08-15T07:47:22Z</time>
      </trkpt>
      <trkpt lat="48.7069340" lon="13.3322860">
        <ele>468.6</ele>
        <time>2019-08-15T07:47:23Z</time>
      </trkpt>
      <trkpt lat="48.7069710" lon="13.3323330">
        <ele>468.6</ele>
        <time>2019-08-15T07:47:24Z</time>
      </trkpt>
      <trkpt lat="48.7070080" lon="13.3323780">
        <ele>468.6</ele>
        <time>2019-08-15T07:47:25Z</time>
      </trkpt>
      <trkpt lat="48.7070470" lon="13.3324230">
        <ele>468.8</ele>
        <time>2019-08-15T07:47:26Z</time>
      </trkpt>
      <trkpt lat="48.7070900" lon="13.3324720">
        <ele>468.8</ele>
        <time>2019-08-15T07:47:27Z</time>
      </trkpt>
      <trkpt lat="48.7071350" lon="13.3325190">
        <ele>468.8</ele>
        <time>2019-08-15T07:47:28Z</time>
      </trkpt>
      <trkpt lat="48.7071770" lon="13.3325630">
        <ele>469.0</ele>
        <time>2019-08-15T07:47:29Z</time>
      </trkpt>
      <trkpt lat="48.7072180" lon="13.3326100">
        <ele>469.0</ele>
        <time>2019-08-15T07:47:30Z</time>
      </trkpt>
      <trkpt lat="48.7072590" lon="13.3326560">
        <ele>469.2</ele>
        <time>2019-08-15T07:47:31Z</time>
      </trkpt>
      <trkpt lat="48.7072990" lon="13.3327050">
        <ele>469.2</ele>
        <time>2019-08-15T07:47:32Z</time>
      </trkpt>
      <trkpt lat="48.7073390" lon="13.3327560">
        <ele>469.4</ele>
        <time>2019-08-15T07:47:33Z</time>
      </trkpt>
      <trkpt lat="48.7073810" lon="13.3328060">
        <ele>469.6</ele>
        <time>2019-08-15T07:47:34Z</time>
      </trkpt>
      <trkpt lat="48.7074200" lon="13.3328580">
        <ele>469.6</ele>
        <time>2019-08-15T07:47:35Z</time>
      </trkpt>
      <trkpt lat="48.7074570" lon="13.3329160">
        <ele>469.8</ele>
        <time>2019-08-15T07:47:36Z</time>
      </trkpt>
      <trkpt lat="48.7074940" lon="13.3329690">
        <ele>469.8</ele>
        <time>2019-08-15T07:47:37Z</time>
      </trkpt>
      <trkpt lat="48.7075290" lon="13.3330230">
        <ele>470.0</ele>
        <time>2019-08-15T07:47:38Z</time>
      </trkpt>
      <trkpt lat="48.7075610" lon="13.3330770">
        <ele>470.0</ele>
        <time>2019-08-15T07:47:39Z</time>
      </trkpt>
      <trkpt lat="48.7075900" lon="13.3331400">
        <ele>470.2</ele>
        <time>2019-08-15T07:47:40Z</time>
      </trkpt>
      <trkpt lat="48.7076150" lon="13.3332020">
        <ele>470.4</ele>
        <time>2019-08-15T07:47:41Z</time>
      </trkpt>
      <trkpt lat="48.7076390" lon="13.3332620">
        <ele>470.4</ele>
        <time>2019-08-15T07:47:42Z</time>
      </trkpt>
      <trkpt lat="48.7076640" lon="13.3333240">
        <ele>470.6</ele>
        <time>2019-08-15T07:47:43Z</time>
      </trkpt>
      <trkpt lat="48.7076890" lon="13.3333820">
        <ele>470.8</ele>
        <time>2019-08-15T07:47:44Z</time>
      </trkpt>
      <trkpt lat="48.7077130" lon="13.3334430">
        <ele>470.8</ele>
        <time>2019-08-15T07:47:45Z</time>
      </trkpt>
      <trkpt lat="48.7077360" lon="13.3335060">
        <ele>471.0</ele>
        <time>2019-08-15T07:47:46Z</time>
      </trkpt>
      <trkpt lat="48.7077580" lon="13.3335700">
        <ele>471.2</ele>
        <time>2019-08-15T07:47:47Z</time>
      </trkpt>
      <trkpt lat="48.7077790" lon="13.3336380">
        <ele>471.2</ele>
        <time>2019-08-15T07:47:48Z</time>
      </trkpt>
      <trkpt lat="48.7077980" lon="13.3337090">
        <ele>471.4</ele>
        <time>2019-08-15T07:47:49Z</time>
      </trkpt>
      <trkpt lat="48.7078170" lon="13.3337760">
        <ele>471.6</ele>
        <time>2019-08-15T07:47:50Z</time>
      </trkpt>
      <trkpt lat="48.7078350" lon="13.3338420">
        <ele>471.8</ele>
        <time>2019-08-15T07:47:51Z</time>
      </trkpt>
      <trkpt lat="48.7078530" lon="13.3339090">
        <ele>471.8</ele>
        <time>2019-08-15T07:47:52Z</time>
      </trkpt>
      <trkpt lat="48.7078700" lon="13.3339780">
        <ele>472.0</ele>
        <time>2019-08-15T07:47:53Z</time>
      </trkpt>
      <trkpt lat="48.7078850" lon="13.3340490">
        <ele>472.2</ele>
        <time>2019-08-15T07:47:54Z</time>
      </trkpt>
      <trkpt lat="48.7078980" lon="13.3341190">
        <ele>472.2</ele>
        <time>2019-08-15T07:47:55Z</time>
      </trkpt>
      <trkpt lat="48.7079130" lon="13.3341930">
        <ele>472.4</ele>
        <time>2019-08-15T07:47:56Z</time>
      </trkpt>
      <trkpt lat="48.7079260" lon="13.3342650">
        <ele>472.6</ele>
        <time>2019-08-15T07:47:57Z</time>
      </trkpt>
      <trkpt lat="48.7079360" lon="13.3343350">
        <ele>472.8</ele>
        <time>2019-08-15T07:47:58Z</time>
      </trkpt>
      <trkpt lat="48.7079460" lon="13.3344060">
        <ele>472.8</ele>
        <time>2019-08-15T07:47:59Z</time>
      </trkpt>
      <trkpt lat="48.7079560" lon="13.3344850">
        <ele>473.0</ele>
        <time>2019-08-15T07:48:00Z</time>
      </trkpt>
      <trkpt lat="48.7079650" lon="13.3345600">
        <ele>473.2</ele>
        <time>2019-08-15T07:48:01Z</time>
      </trkpt>
      <trkpt lat="48.7079740" lon="13.3346340">
        <ele>473.2</ele>
        <time>2019-08-15T07:48:02Z</time>
      </trkpt>
      <trkpt lat="48.7079830" lon="13.3347090">
        <ele>473.4</ele>
        <time>2019-08-15T07:48:03Z</time>
      </trkpt>
      <trkpt lat="48.7079890" lon="13.3347870">
        <ele>473.6</ele>
        <time>2019-08-15T07:48:04Z</time>
      </trkpt>
      <trkpt lat="48.7079930" lon="13.3348620">
        <ele>473.8</ele>
        <time>2019-08-15T07:48:05Z</time>
      </trkpt>
      <trkpt lat="48.7079960" lon="13.3349370">
        <ele>473.8</ele>
        <time>2019-08-15T07:48:06Z</time>
      </trkpt>
      <trkpt lat="48.7079980" lon="13.3350120">
        <ele>474.0</ele>
        <time>2019-08-15T07:48:07Z</time>
      </trkpt>
      <trkpt lat="48.7080010" lon="13.3350870">
        <ele>474.2</ele>
        <time>2019-08-15T07:48:08Z</time>
      </trkpt>
      <trkpt lat="48.7080040" lon="13.3351610">
        <ele>474.4</ele>
        <time>2019-08-15T07:48:09Z</time>
      </trkpt>
      <trkpt lat="48.7080090" lon="13.3352340">
        <ele>474.6</ele>
        <time>2019-08-15T07:48:10Z</time>
      </trkpt>
      <trkpt lat="48.7080160" lon="13.3353040">
        <ele>474.6</ele>
        <time>2019-08-15T07:48:11Z</time>
      </trkpt>
      <trkpt lat="48.7080220" lon="13.3353700">
        <ele>474.8</ele>
        <time>2019-08-15T07:48:12Z</time>
      </trkpt>
      <trkpt lat="48.7080270" lon="13.3354380">
        <ele>475.0</ele>
        <time>2019-08-15T07:48:13Z</time>
      </trkpt>
      <trkpt lat="48.7080330" lon="13.3355100">
        <ele>475.2</ele>
        <time>2019-08-15T07:48:14Z</time>
      </trkpt>
      <trkpt lat="48.7080420" lon="13.3355830">
        <ele>475.2</ele>
        <time>2019-08-15T07:48:15Z</time>
      </trkpt>
      <trkpt lat="48.7080550" lon="13.3356540">
        <ele>475.4</ele>
        <time>2019-08-15T07:48:16Z</time>
      </trkpt>
      <trkpt lat="48.7080660" lon="13.3357230">
        <ele>475.6</ele>
        <time>2019-08-15T07:48:17Z</time>
      </trkpt>
      <trkpt lat="48.7080810" lon="13.3357890">
        <ele>475.6</ele>
        <time>2019-08-15T07:48:18Z</time>
      </trkpt>
      <trkpt lat="48.7080960" lon="13.3358510">
        <ele>475.8</ele>
        <time>2019-08-15T07:48:19Z</time>
      </trkpt>
      <trkpt lat="48.7081120" lon="13.3359200">
        <ele>476.0</ele>
        <time>2019-08-15T07:48:20Z</time>
      </trkpt>
      <trkpt lat="48.7081290" lon="13.3359920">
        <ele>476.2</ele>
        <time>2019-08-15T07:48:21Z</time>
      </trkpt>
      <trkpt lat="48.7081460" lon="13.3360590">
        <ele>476.2</ele>
        <time>2019-08-15T07:48:22Z</time>
      </trkpt>
      <trkpt lat="48.7081620" lon="13.3361250">
        <ele>476.4</ele>
        <time>2019-08-15T07:48:23Z</time>
      </trkpt>
      <trkpt lat="48.7081770" lon="13.3361910">
        <ele>476.6</ele>
        <time>2019-08-15T07:48:24Z</time>
      </trkpt>
      <trkpt lat="48.7081940" lon="13.3362540">
        <ele>476.8</ele>
        <time>2019-08-15T07:48:25Z</time>
      </trkpt>
      <trkpt lat="48.7082150" lon="13.3363150">
        <ele>477.0</ele>
        <time>2019-08-15T07:48:26Z</time>
      </trkpt>
      <trkpt lat="48.7082340" lon="13.3363700">
        <ele>477.0</ele>
        <time>2019-08-15T07:48:27Z</time>
      </trkpt>
      <trkpt lat="48.7082500" lon="13.3364170">
        <ele>477.2</ele>
        <time>2019-08-15T07:48:28Z</time>
      </trkpt>
      <trkpt lat="48.7082690" lon="13.3364570">
        <ele>477.4</ele>
        <time>2019-08-15T07:48:29Z</time>
      </trkpt>
      <trkpt lat="48.7082900" lon="13.3364950">
        <ele>477.4</ele>
        <time>2019-08-15T07:48:30Z</time>
      </trkpt>
      <trkpt lat="48.7083100" lon="13.3365380">
        <ele>477.6</ele>
        <time>2019-08-15T07:48:31Z</time>
      </trkpt>
      <trkpt lat="48.7083320" lon="13.3365890">
        <ele>477.8</ele>
        <time>2019-08-15T07:48:32Z</time>
      </trkpt>
      <trkpt lat="48.7083560" lon="13.3366410">
        <ele>478.0</ele>
        <time>2019-08-15T07:48:33Z</time>
      </trkpt>
      <trkpt lat="48.7083920" lon="13.3366820">
        <ele>478.0</ele>
        <time>2019-08-15T07:48:34Z</time>
      </trkpt>
      <trkpt lat="48.7084260" lon="13.3367180">
        <ele>478.2</ele>
        <time>2019-08-15T07:48:35Z</time>
      </trkpt>
      <trkpt lat="48.7084570" lon="13.3367540">
        <ele>478.4</ele>
        <time>2019-08-15T07:48:36Z</time>
      </trkpt>
      <trkpt lat="48.7084820" lon="13.3367870">
        <ele>478.6</ele>
        <time>2019-08-15T07:48:37Z</time>
      </trkpt>
      <trkpt lat="48.7085100" lon="13.3368300">
        <ele>478.6</ele>
        <time>2019-08-15T07:48:38Z</time>
      </trkpt>
      <trkpt lat="48.7085300" lon="13.3368800">
        <ele>478.8</ele>
        <time>2019-08-15T07:48:39Z</time>
      </trkpt>
      <trkpt lat="48.7085600" lon="13.3369350">
        <ele>479.0</ele>
        <time>2019-08-15T07:48:40Z</time>
      </trkpt>
      <trkpt lat="48.7085860" lon="13.3369940">
        <ele>479.0</ele>
        <time>2019-08-15T07:48:41Z</time>
      </trkpt>
      <trkpt lat="48.7086150" lon="13.3370470">
        <ele>479.2</ele>
        <time>2019-08-15T07:48:42Z</time>
      </trkpt>
      <trkpt lat="48.7086420" lon="13.3370890">
        <ele>479.4</ele>
        <time>2019-08-15T07:48:43Z</time>
      </trkpt>
      <trkpt lat="48.7086730" lon="13.3371340">
        <ele>479.4</ele>
        <time>2019-08-15T07:48:44Z</time>
      </trkpt>
      <trkpt lat="48.7087050" lon="13.3371680">
        <ele>479.6</ele>
        <time>2019-08-15T07:48:45Z</time>
      </trkpt>
      <trkpt lat="48.7087340" lon="13.3371960">
        <ele>479.8</ele>
        <time>2019-08-15T07:48:46Z</time>
      </trkpt>
      <trkpt lat="48.7087650" lon="13.3372240">
        <ele>480.0</ele>
        <time>2019-08-15T07:48:47Z</time>
      </trkpt>
      <trkpt lat="48.7088040" lon="13.3372590">
        <ele>480.0</ele>
        <time>2019-08-15T07:48:48Z</time>
      </trkpt>
      <trkpt lat="48.7088510" lon="13.3372930">
        <ele>480.2</ele>
        <time>2019-08-15T07:48:49Z</time>
      </trkpt>
      <trkpt lat="48.7088960" lon="13.3373180">
        <ele>480.4</ele>
        <time>2019-08-15T07:48:50Z</time>
      </trkpt>
      <trkpt lat="48.7089420" lon="13.3373430">
        <ele>480.4</ele>
        <time>2019-08-15T07:48:51Z</time>
      </trkpt>
      <trkpt lat="48.7089890" lon="13.3373760">
        <ele>480.6</ele>
        <time>2019-08-15T07:48:52Z</time>
      </trkpt>
      <trkpt lat="48.7090370" lon="13.3374130">
        <ele>480.6</ele>
        <time>2019-08-15T07:48:53Z</time>
      </trkpt>
      <trkpt lat="48.7090860" lon="13.3374460">
        <ele>480.8</ele>
        <time>2019-08-15T07:48:54Z</time>
      </trkpt>
      <trkpt lat="48.7091310" lon="13.3374740">
        <ele>481.0</ele>
        <time>2019-08-15T07:48:55Z</time>
      </trkpt>
      <trkpt lat="48.7091780" lon="13.3375150">
        <ele>481.2</ele>
        <time>2019-08-15T07:48:56Z</time>
      </trkpt>
      <trkpt lat="48.7092200" lon="13.3375550">
        <ele>481.4</ele>
        <time>2019-08-15T07:48:57Z</time>
      </trkpt>
      <trkpt lat="48.7092650" lon="13.3375960">
        <ele>481.4</ele>
        <time>2019-08-15T07:48:58Z</time>
      </trkpt>
      <trkpt lat="48.7093080" lon="13.3376250">
        <ele>481.6</ele>
        <time>2019-08-15T07:48:59Z</time>
      </trkpt>
      <trkpt lat="48.7093590" lon="13.3376470">
        <ele>481.8</ele>
        <time>2019-08-15T07:49:00Z</time>
      </trkpt>
      <trkpt lat="48.7094090" lon="13.3376620">
        <ele>482.0</ele>
        <time>2019-08-15T07:49:01Z</time>
      </trkpt>
      <trkpt lat="48.7094580" lon="13.3376750">
        <ele>482.0</ele>
        <time>2019-08-15T07:49:02Z</time>
      </trkpt>
      <trkpt lat="48.7095050" lon="13.3376940">
        <ele>482.2</ele>
        <time>2019-08-15T07:49:03Z</time>
      </trkpt>
      <trkpt lat="48.7095540" lon="13.3377020">
        <ele>482.4</ele>
        <time>2019-08-15T07:49:04Z</time>
      </trkpt>
      <trkpt lat="48.7096020" lon="13.3377080">
        <ele>482.4</ele>
        <time>2019-08-15T07:49:05Z</time>
      </trkpt>
      <trkpt lat="48.7096500" lon="13.3377310">
        <ele>482.6</ele>
        <time>2019-08-15T07:49:06Z</time>
      </trkpt>
      <trkpt lat="48.7096900" lon="13.3377420">
        <ele>482.8</ele>
        <time>2019-08-15T07:49:07Z</time>
      </trkpt>
      <trkpt lat="48.7097350" lon="13.3377360">
        <ele>482.8</ele>
        <time>2019-08-15T07:49:08Z</time>
      </trkpt>
      <trkpt lat="48.7097840" lon="13.3377200">
        <ele>483.0</ele>
        <time>2019-08-15T07:49:09Z</time>
      </trkpt>
      <trkpt lat="48.7098360" lon="13.3377050">
        <ele>483.2</ele>
        <time>2019-08-15T07:49:10Z</time>
      </trkpt>
      <trkpt lat="48.7098900" lon="13.3376990">
        <ele>483.4</ele>
        <time>2019-08-15T07:49:11Z</time>
      </trkpt>
      <trkpt lat="48.7099430" lon="13.3376970">
        <ele>483.4</ele>
        <time>2019-08-15T07:49:12Z</time>
      </trkpt>
      <trkpt lat="48.7099990" lon="13.3376940">
        <ele>483.6</ele>
        <time>2019-08-15T07:49:13Z</time>
      </trkpt>
      <trkpt lat="48.7100490" lon="13.3376950">
        <ele>483.8</ele>
        <time>2019-08-15T07:49:14Z</time>
      </trkpt>
      <trkpt lat="48.7100950" lon="13.3376980">
        <ele>483.8</ele>
        <time>2019-08-15T07:49:15Z</time>
      </trkpt>
      <trkpt lat="48.7101390" lon="13.3376970">
        <ele>484.0</ele>
        <time>2019-08-15T07:49:16Z</time>
      </trkpt>
      <trkpt lat="48.7101840" lon="13.3376950">
        <ele>484.2</ele>
        <time>2019-08-15T07:49:17Z</time>
      </trkpt>
      <trkpt lat="48.7102260" lon="13.3376960">
        <ele>484.4</ele>
        <time>2019-08-15T07:49:18Z</time>
      </trkpt>
      <trkpt lat="48.7102700" lon="13.3376930">
        <ele>484.6</ele>
        <time>2019-08-15T07:49:19Z</time>
      </trkpt>
      <trkpt lat="48.7103150" lon="13.3376920">
        <ele>484.6</ele>
        <time>2019-08-15T07:49:20Z</time>
      </trkpt>
      <trkpt lat="48.7103570" lon="13.3376930">
        <ele>484.8</ele>
        <time>2019-08-15T07:49:21Z</time>
      </trkpt>
      <trkpt lat="48.7104020" lon="13.3376920">
        <ele>485.0</ele>
        <time>2019-08-15T07:49:22Z</time>
      </trkpt>
      <trkpt lat="48.7104490" lon="13.3376860">
        <ele>485.2</ele>
        <time>2019-08-15T07:49:23Z</time>
      </trkpt>
      <trkpt lat="48.7105040" lon="13.3376940">
        <ele>485.4</ele>
        <time>2019-08-15T07:49:24Z</time>
      </trkpt>
      <trkpt lat="48.7105560" lon="13.3377170">
        <ele>485.6</ele>
        <time>2019-08-15T07:49:25Z</time>
      </trkpt>
      <trkpt lat="48.7106040" lon="13.3377320">
        <ele>485.6</ele>
        <time>2019-08-15T07:49:26Z</time>
      </trkpt>
      <trkpt lat="48.7106540" lon="13.3377400">
        <ele>485.8</ele>
        <time>2019-08-15T07:49:27Z</time>
      </trkpt>
      <trkpt lat="48.7107030" lon="13.3377450">
        <ele>486.0</ele>
        <time>2019-08-15T07:49:28Z</time>
      </trkpt>
      <trkpt lat="48.7107510" lon="13.3377510">
        <ele>486.2</ele>
        <time>2019-08-15T07:49:29Z</time>
      </trkpt>
      <trkpt lat="48.7107980" lon="13.3377530">
        <ele>486.2</ele>
        <time>2019-08-15T07:49:30Z</time>
      </trkpt>
      <trkpt lat="48.7108430" lon="13.3377550">
        <ele>486.4</ele>
        <time>2019-08-15T07:49:31Z</time>
      </trkpt>
      <trkpt lat="48.7108910" lon="13.3377630">
        <ele>486.6</ele>
        <time>2019-08-15T07:49:32Z</time>
      </trkpt>
      <trkpt lat="48.7109370" lon="13.3377740">
        <ele>486.6</ele>
        <time>2019-08-15T07:49:33Z</time>
      </trkpt>
      <trkpt lat="48.7109750" lon="13.3377940">
        <ele>486.8</ele>
        <time>2019-08-15T07:49:34Z</time>
      </trkpt>
      <trkpt lat="48.7110070" lon="13.3378160">
        <ele>487.0</ele>
        <time>2019-08-15T07:49:35Z</time>
      </trkpt>
      <trkpt lat="48.7110390" lon="13.3378450">
        <ele>487.2</ele>
        <time>2019-08-15T07:49:36Z</time>
      </trkpt>
      <trkpt lat="48.7110700" lon="13.3378720">
        <ele>487.2</ele>
        <time>2019-08-15T07:49:37Z</time>
      </trkpt>
      <trkpt lat="48.7111030" lon="13.3378960">
        <ele>487.4</ele>
        <time>2019-08-15T07:49:38Z</time>
      </trkpt>
      <trkpt lat="48.7111370" lon="13.3379170">
        <ele>487.6</ele>
        <time>2019-08-15T07:49:39Z</time>
      </trkpt>
      <trkpt lat="48.7111760" lon="13.3379420">
        <ele>487.8</ele>
        <time>2019-08-15T07:49:40Z</time>
      </trkpt>
      <trkpt lat="48.7112140" lon="13.3379640">
        <ele>488.0</ele>
        <time>2019-08-15T07:49:41Z</time>
      </trkpt>
      <trkpt lat="48.7112540" lon="13.3379800">
        <ele>488.2</ele>
        <time>2019-08-15T07:49:42Z</time>
      </trkpt>
      <trkpt lat="48.7112970" lon="13.3379960">
        <ele>488.2</ele>
        <time>2019-08-15T07:49:43Z</time>
      </trkpt>
      <trkpt lat="48.7113440" lon="13.3380300">
        <ele>488.4</ele>
        <time>2019-08-15T07:49:44Z</time>
      </trkpt>
      <trkpt lat="48.7113850" lon="13.3380650">
        <ele>488.6</ele>
        <time>2019-08-15T07:49:45Z</time>
      </trkpt>
      <trkpt lat="48.7114250" lon="13.3381050">
        <ele>488.6</ele>
        <time>2019-08-15T07:49:46Z</time>
      </trkpt>
      <trkpt lat="48.7114800" lon="13.3381410">
        <ele>488.8</ele>
        <time>2019-08-15T07:49:47Z</time>
      </trkpt>
      <trkpt lat="48.7115410" lon="13.3381790">
        <ele>488.8</ele>
        <time>2019-08-15T07:49:48Z</time>
      </trkpt>
      <trkpt lat="48.7116070" lon="13.3382340">
        <ele>489.0</ele>
        <time>2019-08-15T07:49:49Z</time>
      </trkpt>
      <trkpt lat="48.7116680" lon="13.3382940">
        <ele>489.2</ele>
        <time>2019-08-15T07:49:50Z</time>
      </trkpt>
      <trkpt lat="48.7117230" lon="13.3383460">
        <ele>489.2</ele>
        <time>2019-08-15T07:49:51Z</time>
      </trkpt>
      <trkpt lat="48.7117800" lon="13.3384010">
        <ele>489.4</ele>
        <time>2019-08-15T07:49:52Z</time>
      </trkpt>
      <trkpt lat="48.7118390" lon="13.3384550">
        <ele>489.6</ele>
        <time>2019-08-15T07:49:53Z</time>
      </trkpt>
      <trkpt lat="48.7118970" lon="13.3385050">
        <ele>489.6</ele>
        <time>2019-08-15T07:49:54Z</time>
      </trkpt>
      <trkpt lat="48.7119500" lon="13.3385450">
        <ele>489.8</ele>
        <time>2019-08-15T07:49:55Z</time>
      </trkpt>
      <trkpt lat="48.7120090" lon="13.3385770">
        <ele>490.0</ele>
        <time>2019-08-15T07:49:56Z</time>
      </trkpt>
      <trkpt lat="48.7120660" lon="13.3386080">
        <ele>490.2</ele>
        <time>2019-08-15T07:49:57Z</time>
      </trkpt>
      <trkpt lat="48.7121250" lon="13.3386330">
        <ele>490.4</ele>
        <time>2019-08-15T07:49:58Z</time>
      </trkpt>
      <trkpt lat="48.7121810" lon="13.3386490">
        <ele>490.6</ele>
        <time>2019-08-15T07:49:59Z</time>
      </trkpt>
      <trkpt lat="48.7122460" lon="13.3386630">
        <ele>490.6</ele>
        <time>2019-08-15T07:50:00Z</time>
      </trkpt>
      <trkpt lat="48.7123060" lon="13.3386810">
        <ele>490.8</ele>
        <time>2019-08-15T07:50:01Z</time>
      </trkpt>
      <trkpt lat="48.7123650" lon="13.3386950">
        <ele>491.0</ele>
        <time>2019-08-15T07:50:02Z</time>
      </trkpt>
      <trkpt lat="48.7124220" lon="13.3387090">
        <ele>491.2</ele>
        <time>2019-08-15T07:50:03Z</time>
      </trkpt>
      <trkpt lat="48.7124750" lon="13.3387170">
        <ele>491.4</ele>
        <time>2019-08-15T07:50:04Z</time>
      </trkpt>
      <trkpt lat="48.7125300" lon="13.3387210">
        <ele>491.6</ele>
        <time>2019-08-15T07:50:05Z</time>
      </trkpt>
      <trkpt lat="48.7125840" lon="13.3387230">
        <ele>491.8</ele>
        <time>2019-08-15T07:50:06Z</time>
      </trkpt>
      <trkpt lat="48.7126390" lon="13.3387230">
        <ele>492.0</ele>
        <time>2019-08-15T07:50:07Z</time>
      </trkpt>
      <trkpt lat="48.7126920" lon="13.3387260">
        <ele>492.0</ele>
        <time>2019-08-15T07:50:08Z</time>
      </trkpt>
      <trkpt lat="48.7127450" lon="13.3387280">
        <ele>492.2</ele>
        <time>2019-08-15T07:50:09Z</time>
      </trkpt>
      <trkpt lat="48.7127960" lon="13.3387300">
        <ele>492.4</ele>
        <time>2019-08-15T07:50:10Z</time>
      </trkpt>
      <trkpt lat="48.7128480" lon="13.3387260">
        <ele>492.6</ele>
        <time>2019-08-15T07:50:11Z</time>
      </trkpt>
      <trkpt lat="48.7129010" lon="13.3387170">
        <ele>492.8</ele>
        <time>2019-08-15T07:50:12Z</time>
      </trkpt>
      <trkpt lat="48.7129570" lon="13.3387070">
        <ele>492.8</ele>
        <time>2019-08-15T07:50:13Z</time>
      </trkpt>
      <trkpt lat="48.7130090" lon="13.3386950">
        <ele>493.0</ele>
        <time>2019-08-15T07:50:14Z</time>
      </trkpt>
      <trkpt lat="48.7130590" lon="13.3386770">
        <ele>493.2</ele>
        <time>2019-08-15T07:50:15Z</time>
      </trkpt>
      <trkpt lat="48.7131090" lon="13.3386620">
        <ele>493.4</ele>
        <time>2019-08-15T07:50:16Z</time>
      </trkpt>
      <trkpt lat="48.7131640" lon="13.3386430">
        <ele>493.4</ele>
        <time>2019-08-15T07:50:17Z</time>
      </trkpt>
      <trkpt lat="48.7132180" lon="13.3386210">
        <ele>493.6</ele>
        <time>2019-08-15T07:50:18Z</time>
      </trkpt>
      <trkpt lat="48.7132690" lon="13.3385980">
        <ele>493.8</ele>
        <time>2019-08-15T07:50:19Z</time>
      </trkpt>
      <trkpt lat="48.7133250" lon="13.3385690">
        <ele>494.0</ele>
        <time>2019-08-15T07:50:20Z</time>
      </trkpt>
      <trkpt lat="48.7133760" lon="13.3385430">
        <ele>494.0</ele>
        <time>2019-08-15T07:50:21Z</time>
      </trkpt>
      <trkpt lat="48.7134240" lon="13.3385190">
        <ele>494.2</ele>
        <time>2019-08-15T07:50:22Z</time>
      </trkpt>
      <trkpt lat="48.7134740" lon="13.3384930">
        <ele>494.4</ele>
        <time>2019-08-15T07:50:23Z</time>
      </trkpt>
      <trkpt lat="48.7135240" lon="13.3384670">
        <ele>494.4</ele>
        <time>2019-08-15T07:50:24Z</time>
      </trkpt>
      <trkpt lat="48.7135730" lon="13.3384440">
        <ele>494.6</ele>
        <time>2019-08-15T07:50:25Z</time>
      </trkpt>
      <trkpt lat="48.7136260" lon="13.3384230">
        <ele>494.8</ele>
        <time>2019-08-15T07:50:26Z</time>
      </trkpt>
      <trkpt lat="48.7136790" lon="13.3384070">
        <ele>495.0</ele>
        <time>2019-08-15T07:50:27Z</time>
      </trkpt>
      <trkpt lat="48.7137290" lon="13.3383900">
        <ele>495.0</ele>
        <time>2019-08-15T07:50:28Z</time>
      </trkpt>
      <trkpt lat="48.7137770" lon="13.3383750">
        <ele>495.2</ele>
        <time>2019-08-15T07:50:29Z</time>
      </trkpt>
      <trkpt lat="48.7138280" lon="13.3383550">
        <ele>495.4</ele>
        <time>2019-08-15T07:50:30Z</time>
      </trkpt>
      <trkpt lat="48.7138790" lon="13.3383360">
        <ele>495.4</ele>
        <time>2019-08-15T07:50:31Z</time>
      </trkpt>
      <trkpt lat="48.7139300" lon="13.3383150">
        <ele>495.6</ele>
        <time>2019-08-15T07:50:32Z</time>
      </trkpt>
      <trkpt lat="48.7139830" lon="13.3382910">
        <ele>495.6</ele>
        <time>2019-08-15T07:50:33Z</time>
      </trkpt>
      <trkpt lat="48.7140350" lon="13.3382630">
        <ele>495.6</ele>
        <time>2019-08-15T07:50:34Z</time>
      </trkpt>
      <trkpt lat="48.7140890" lon="13.3382360">
        <ele>495.8</ele>
        <time>2019-08-15T07:50:35Z</time>
      </trkpt>
      <trkpt lat="48.7141400" lon="13.3382080">
        <ele>495.8</ele>
        <time>2019-08-15T07:50:36Z</time>
      </trkpt>
      <trkpt lat="48.7141900" lon="13.3381800">
        <ele>495.8</ele>
        <time>2019-08-15T07:50:37Z</time>
      </trkpt>
      <trkpt lat="48.7142420" lon="13.3381530">
        <ele>495.8</ele>
        <time>2019-08-15T07:50:38Z</time>
      </trkpt>
      <trkpt lat="48.7142900" lon="13.3381250">
        <ele>495.8</ele>
        <time>2019-08-15T07:50:39Z</time>
      </trkpt>
      <trkpt lat="48.7143450" lon="13.3380930">
        <ele>496.0</ele>
        <time>2019-08-15T07:50:40Z</time>
      </trkpt>
      <trkpt lat="48.7144020" lon="13.3380590">
        <ele>496.0</ele>
        <time>2019-08-15T07:50:41Z</time>
      </trkpt>
      <trkpt lat="48.7144550" lon="13.3380250">
        <ele>496.0</ele>
        <time>2019-08-15T07:50:42Z</time>
      </trkpt>
      <trkpt lat="48.7145080" lon="13.3379940">
        <ele>496.0</ele>
        <time>2019-08-15T07:50:43Z</time>
      </trkpt>
      <trkpt lat="48.7145620" lon="13.3379610">
        <ele>496.0</ele>
        <time>2019-08-15T07:50:44Z</time>
      </trkpt>
      <trkpt lat="48.7146130" lon="13.3379300">
        <ele>496.0</ele>
        <time>2019-08-15T07:50:45Z</time>
      </trkpt>
      <trkpt lat="48.7146670" lon="13.3378990">
        <ele>496.2</ele>
        <time>2019-08-15T07:50:46Z</time>
      </trkpt>
      <trkpt lat="48.7147230" lon="13.3378640">
        <ele>496.2</ele>
        <time>2019-08-15T07:50:47Z</time>
      </trkpt>
      <trkpt lat="48.7147740" lon="13.3378300">
        <ele>496.2</ele>
        <time>2019-08-15T07:50:48Z</time>
      </trkpt>
      <trkpt lat="48.7148270" lon="13.3377950">
        <ele>496.2</ele>
        <time>2019-08-15T07:50:49Z</time>
      </trkpt>
      <trkpt lat="48.7148800" lon="13.3377610">
        <ele>496.2</ele>
        <time>2019-08-15T07:50:50Z</time>
      </trkpt>
      <trkpt lat="48.7149330" lon="13.3377260">
        <ele>496.2</ele>
        <time>2019-08-15T07:50:51Z</time>
      </trkpt>
      <trkpt lat="48.7149880" lon="13.3376900">
        <ele>496.2</ele>
        <time>2019-08-15T07:50:52Z</time>
      </trkpt>
      <trkpt lat="48.7150410" lon="13.3376550">
        <ele>496.2</ele>
        <time>2019-08-15T07:50:53Z</time>
      </trkpt>
      <trkpt lat="48.7150960" lon="13.3376200">
        <ele>496.2</ele>
        <time>2019-08-15T07:50:54Z</time>
      </trkpt>
      <trkpt lat="48.7151500" lon="13.3375840">
        <ele>496.2</ele>
        <time>2019-08-15T07:50:55Z</time>
      </trkpt>
      <trkpt lat="48.7152010" lon="13.3375470">
        <ele>496.2</ele>
        <time>2019-08-15T07:50:56Z</time>
      </trkpt>
      <trkpt lat="48.7152530" lon="13.3375120">
        <ele>496.2</ele>
        <time>2019-08-15T07:50:57Z</time>
      </trkpt>
      <trkpt lat="48.7153070" lon="13.3374780">
        <ele>496.2</ele>
        <time>2019-08-15T07:50:58Z</time>
      </trkpt>
      <trkpt lat="48.7153570" lon="13.3374440">
        <ele>496.2</ele>
        <time>2019-08-15T07:50:59Z</time>
      </trkpt>
      <trkpt lat="48.7154100" lon="13.3374070">
        <ele>496.4</ele>
        <time>2019-08-15T07:51:00Z</time>
      </trkpt>
      <trkpt lat="48.7154620" lon="13.3373670">
        <ele>496.4</ele>
        <time>2019-08-15T07:51:01Z</time>
      </trkpt>
      <trkpt lat="48.7155120" lon="13.3373260">
        <ele>496.4</ele>
        <time>2019-08-15T07:51:02Z</time>
      </trkpt>
      <trkpt lat="48.7155610" lon="13.3372860">
        <ele>496.4</ele>
        <time>2019-08-15T07:51:03Z</time>
      </trkpt>
      <trkpt lat="48.7156090" lon="13.3372450">
        <ele>496.6</ele>
        <time>2019-08-15T07:51:04Z</time>
      </trkpt>
      <trkpt lat="48.7156570" lon="13.3372050">
        <ele>496.6</ele>
        <time>2019-08-15T07:51:05Z</time>
      </trkpt>
      <trkpt lat="48.7157060" lon="13.3371660">
        <ele>496.6</ele>
        <time>2019-08-15T07:51:06Z</time>
      </trkpt>
      <trkpt lat="48.7157580" lon="13.3371270">
        <ele>496.6</ele>
        <time>2019-08-15T07:51:07Z</time>
      </trkpt>
      <trkpt lat="48.7158090" lon="13.3370890">
        <ele>496.6</ele>
        <time>2019-08-15T07:51:08Z</time>
      </trkpt>
      <trkpt lat="48.7158600" lon="13.3370490">
        <ele>496.6</ele>
        <time>2019-08-15T07:51:09Z</time>
      </trkpt>
      <trkpt lat="48.7159110" lon="13.3370070">
        <ele>496.6</ele>
        <time>2019-08-15T07:51:10Z</time>
      </trkpt>
      <trkpt lat="48.7159550" lon="13.3369530">
        <ele>496.8</ele>
        <time>2019-08-15T07:51:11Z</time>
      </trkpt>
      <trkpt lat="48.7160000" lon="13.3368970">
        <ele>496.8</ele>
        <time>2019-08-15T07:51:12Z</time>
      </trkpt>
      <trkpt lat="48.7160470" lon="13.3368530">
        <ele>496.8</ele>
        <time>2019-08-15T07:51:13Z</time>
      </trkpt>
      <trkpt lat="48.7160960" lon="13.3368150">
        <ele>496.8</ele>
        <time>2019-08-15T07:51:14Z</time>
      </trkpt>
      <trkpt lat="48.7161390" lon="13.3367800">
        <ele>496.8</ele>
        <time>2019-08-15T07:51:15Z</time>
      </trkpt>
      <trkpt lat="48.7161820" lon="13.3367460">
        <ele>496.8</ele>
        <time>2019-08-15T07:51:16Z</time>
      </trkpt>
      <trkpt lat="48.7162260" lon="13.3367060">
        <ele>496.8</ele>
        <time>2019-08-15T07:51:17Z</time>
      </trkpt>
      <trkpt lat="48.7162670" lon="13.3366630">
        <ele>497.0</ele>
        <time>2019-08-15T07:51:18Z</time>
      </trkpt>
      <trkpt lat="48.7163060" lon="13.3366220">
        <ele>497.0</ele>
        <time>2019-08-15T07:51:19Z</time>
      </trkpt>
      <trkpt lat="48.7163510" lon="13.3365730">
        <ele>497.0</ele>
        <time>2019-08-15T07:51:20Z</time>
      </trkpt>
      <trkpt lat="48.7163960" lon="13.3365330">
        <ele>497.0</ele>
        <time>2019-08-15T07:51:21Z</time>
      </trkpt>
      <trkpt lat="48.7164460" lon="13.3364910">
        <ele>497.2</ele>
        <time>2019-08-15T07:51:22Z</time>
      </trkpt>
      <trkpt lat="48.7164980" lon="13.3364610">
        <ele>497.2</ele>
        <time>2019-08-15T07:51:23Z</time>
      </trkpt>
      <trkpt lat="48.7165480" lon="13.3364320">
        <ele>497.2</ele>
        <time>2019-08-15T07:51:24Z</time>
      </trkpt>
      <trkpt lat="48.7165940" lon="13.3364070">
        <ele>497.2</ele>
        <time>2019-08-15T07:51:25Z</time>
      </trkpt>
      <trkpt lat="48.7166390" lon="13.3363890">
        <ele>497.4</ele>
        <time>2019-08-15T07:51:26Z</time>
      </trkpt>
      <trkpt lat="48.7166910" lon="13.3363720">
        <ele>497.4</ele>
        <time>2019-08-15T07:51:27Z</time>
      </trkpt>
      <trkpt lat="48.7167390" lon="13.3363620">
        <ele>497.4</ele>
        <time>2019-08-15T07:51:28Z</time>
      </trkpt>
      <trkpt lat="48.7168000" lon="13.3363630">
        <ele>497.4</ele>
        <time>2019-08-15T07:51:29Z</time>
      </trkpt>
      <trkpt lat="48.7168660" lon="13.3363670">
        <ele>497.4</ele>
        <time>2019-08-15T07:51:30Z</time>
      </trkpt>
      <trkpt lat="48.7169330" lon="13.3363760">
        <ele>497.4</ele>
        <time>2019-08-15T07:51:31Z</time>
      </trkpt>
      <trkpt lat="48.7170080" lon="13.3363860">
        <ele>497.4</ele>
        <time>2019-08-15T07:51:32Z</time>
      </trkpt>
      <trkpt lat="48.7170850" lon="13.3363950">
        <ele>497.4</ele>
        <time>2019-08-15T07:51:33Z</time>
      </trkpt>
      <trkpt lat="48.7171630" lon="13.3363980">
        <ele>497.4</ele>
        <time>2019-08-15T07:51:34Z</time>
      </trkpt>
      <trkpt lat="48.7172350" lon="13.3364050">
        <ele>497.4</ele>
        <time>2019-08-15T07:51:35Z</time>
      </trkpt>
      <trkpt lat="48.7173100" lon="13.3364090">
        <ele>497.2</ele>
        <time>2019-08-15T07:51:36Z</time>
      </trkpt>
      <trkpt lat="48.7173820" lon="13.3364190">
        <ele>497.2</ele>
        <time>2019-08-15T07:51:37Z</time>
      </trkpt>
      <trkpt lat="48.7174540" lon="13.3364330">
        <ele>497.2</ele>
        <time>2019-08-15T07:51:38Z</time>
      </trkpt>
      <trkpt lat="48.7175180" lon="13.3364510">
        <ele>497.2</ele>
        <time>2019-08-15T07:51:39Z</time>
      </trkpt>
      <trkpt lat="48.7175910" lon="13.3364770">
        <ele>497.4</ele>
        <time>2019-08-15T07:51:40Z</time>
      </trkpt>
      <trkpt lat="48.7176610" lon="13.3365080">
        <ele>497.4</ele>
        <time>2019-08-15T07:51:41Z</time>
      </trkpt>
      <trkpt lat="48.7177290" lon="13.3365430">
        <ele>497.4</ele>
        <time>2019-08-15T07:51:42Z</time>
      </trkpt>
      <trkpt lat="48.7177940" lon="13.3365830">
        <ele>497.4</ele>
        <time>2019-08-15T07:51:43Z</time>
      </trkpt>
      <trkpt lat="48.7178590" lon="13.3366240">
        <ele>497.4</ele>
        <time>2019-08-15T07:51:44Z</time>
      </trkpt>
      <trkpt lat="48.7179200" lon="13.3366680">
        <ele>497.6</ele>
        <time>2019-08-15T07:51:45Z</time>
      </trkpt>
      <trkpt lat="48.7179790" lon="13.3367160">
        <ele>497.6</ele>
        <time>2019-08-15T07:51:46Z</time>
      </trkpt>
      <trkpt lat="48.7180380" lon="13.3367660">
        <ele>497.8</ele>
        <time>2019-08-15T07:51:47Z</time>
      </trkpt>
      <trkpt lat="48.7180940" lon="13.3368200">
        <ele>497.8</ele>
        <time>2019-08-15T07:51:48Z</time>
      </trkpt>
      <trkpt lat="48.7181490" lon="13.3368760">
        <ele>497.8</ele>
        <time>2019-08-15T07:51:49Z</time>
      </trkpt>
      <trkpt lat="48.7182050" lon="13.3369380">
        <ele>497.8</ele>
        <time>2019-08-15T07:51:50Z</time>
      </trkpt>
      <trkpt lat="48.7182630" lon="13.3370020">
        <ele>497.8</ele>
        <time>2019-08-15T07:51:51Z</time>
      </trkpt>
      <trkpt lat="48.7183180" lon="13.3370680">
        <ele>497.8</ele>
        <time>2019-08-15T07:51:52Z</time>
      </trkpt>
      <trkpt lat="48.7183710" lon="13.3371370">
        <ele>497.8</ele>
        <time>2019-08-15T07:51:53Z</time>
      </trkpt>
      <trkpt lat="48.7184200" lon="13.3372080">
        <ele>497.8</ele>
        <time>2019-08-15T07:51:54Z</time>
      </trkpt>
      <trkpt lat="48.7184650" lon="13.3372800">
        <ele>497.6</ele>
        <time>2019-08-15T07:51:55Z</time>
      </trkpt>
      <trkpt lat="48.7185140" lon="13.3373510">
        <ele>497.6</ele>
        <time>2019-08-15T07:51:56Z</time>
      </trkpt>
      <trkpt lat="48.7185670" lon="13.3374150">
        <ele>497.6</ele>
        <time>2019-08-15T07:51:57Z</time>
      </trkpt>
      <trkpt lat="48.7186140" lon="13.3374860">
        <ele>497.6</ele>
        <time>2019-08-15T07:51:58Z</time>
      </trkpt>
      <trkpt lat="48.7186520" lon="13.3375550">
        <ele>497.6</ele>
        <time>2019-08-15T07:51:59Z</time>
      </trkpt>
      <trkpt lat="48.7186930" lon="13.3376360">
        <ele>497.6</ele>
        <time>2019-08-15T07:52:00Z</time>
      </trkpt>
      <trkpt lat="48.7187280" lon="13.3377220">
        <ele>497.6</ele>
        <time>2019-08-15T07:52:01Z</time>
      </trkpt>
      <trkpt lat="48.7187630" lon="13.3378060">
        <ele>497.6</ele>
        <time>2019-08-15T07:52:02Z</time>
      </trkpt>
      <trkpt lat="48.7187960" lon="13.3378940">
        <ele>497.8</ele>
        <time>2019-08-15T07:52:03Z</time>
      </trkpt>
      <trkpt lat="48.7188270" lon="13.3379780">
        <ele>497.6</ele>
        <time>2019-08-15T07:52:04Z</time>
      </trkpt>
      <trkpt lat="48.7188530" lon="13.3380720">
        <ele>497.6</ele>
        <time>2019-08-15T07:52:05Z</time>
      </trkpt>
      <trkpt lat="48.7188760" lon="13.3381720">
        <ele>497.6</ele>
        <time>2019-08-15T07:52:06Z</time>
      </trkpt>
      <trkpt lat="48.7188970" lon="13.3382750">
        <ele>497.6</ele>
        <time>2019-08-15T07:52:07Z</time>
      </trkpt>
      <trkpt lat="48.7189150" lon="13.3383790">
        <ele>497.6</ele>
        <time>2019-08-15T07:52:08Z</time>
      </trkpt>
      <trkpt lat="48.7189310" lon="13.3384850">
        <ele>497.8</ele>
        <time>2019-08-15T07:52:09Z</time>
      </trkpt>
      <trkpt lat="48.7189450" lon="13.3385910">
        <ele>497.8</ele>
        <time>2019-08-15T07:52:10Z</time>
      </trkpt>
      <trkpt lat="48.7189550" lon="13.3387000">
        <ele>497.6</ele>
        <time>2019-08-15T07:52:11Z</time>
      </trkpt>
      <trkpt lat="48.7189620" lon="13.3388100">
        <ele>497.6</ele>
        <time>2019-08-15T07:52:12Z</time>
      </trkpt>
      <trkpt lat="48.7189670" lon="13.3389230">
        <ele>497.6</ele>
        <time>2019-08-15T07:52:13Z</time>
      </trkpt>
      <trkpt lat="48.7189720" lon="13.3390350">
        <ele>497.8</ele>
        <time>2019-08-15T07:52:14Z</time>
      </trkpt>
      <trkpt lat="48.7189790" lon="13.3391440">
        <ele>497.8</ele>
        <time>2019-08-15T07:52:15Z</time>
      </trkpt>
      <trkpt lat="48.7189840" lon="13.3392530">
        <ele>497.8</ele>
        <time>2019-08-15T07:52:16Z</time>
      </trkpt>
      <trkpt lat="48.7189890" lon="13.3393600">
        <ele>497.8</ele>
        <time>2019-08-15T07:52:17Z</time>
      </trkpt>
      <trkpt lat="48.7189930" lon="13.3394680">
        <ele>497.8</ele>
        <time>2019-08-15T07:52:18Z</time>
      </trkpt>
      <trkpt lat="48.7189970" lon="13.3395690">
        <ele>497.8</ele>
        <time>2019-08-15T07:52:19Z</time>
      </trkpt>
      <trkpt lat="48.7190030" lon="13.3396810">
        <ele>497.8</ele>
        <time>2019-08-15T07:52:20Z</time>
      </trkpt>
      <trkpt lat="48.7190130" lon="13.3397910">
        <ele>497.8</ele>
        <time>2019-08-15T07:52:21Z</time>
      </trkpt>
      <trkpt lat="48.7190240" lon="13.3398960">
        <ele>497.8</ele>
        <time>2019-08-15T07:52:22Z</time>
      </trkpt>
      <trkpt lat="48.7190370" lon="13.3400010">
        <ele>497.8</ele>
        <time>2019-08-15T07:52:23Z</time>
      </trkpt>
      <trkpt lat="48.7190530" lon="13.3401030">
        <ele>497.8</ele>
        <time>2019-08-15T07:52:24Z</time>
      </trkpt>
      <trkpt lat="48.7190690" lon="13.3402050">
        <ele>497.8</ele>
        <time>2019-08-15T07:52:25Z</time>
      </trkpt>
      <trkpt lat="48.7190900" lon="13.3403070">
        <ele>497.8</ele>
        <time>2019-08-15T07:52:26Z</time>
      </trkpt>
      <trkpt lat="48.7191140" lon="13.3404050">
        <ele>497.8</ele>
        <time>2019-08-15T07:52:27Z</time>
      </trkpt>
      <trkpt lat="48.7191420" lon="13.3405030">
        <ele>497.8</ele>
        <time>2019-08-15T07:52:28Z</time>
      </trkpt>
      <trkpt lat="48.7191710" lon="13.3405990">
        <ele>497.8</ele>
        <time>2019-08-15T07:52:29Z</time>
      </trkpt>
      <trkpt lat="48.7192010" lon="13.3406930">
        <ele>497.8</ele>
        <time>2019-08-15T07:52:30Z</time>
      </trkpt>
      <trkpt lat="48.7192300" lon="13.3407870">
        <ele>497.8</ele>
        <time>2019-08-15T07:52:31Z</time>
      </trkpt>
      <trkpt lat="48.7192640" lon="13.3408850">
        <ele>497.8</ele>
        <time>2019-08-15T07:52:32Z</time>
      </trkpt>
      <trkpt lat="48.7192960" lon="13.3409820">
        <ele>497.8</ele>
        <time>2019-08-15T07:52:33Z</time>
      </trkpt>
      <trkpt lat="48.7193290" lon="13.3410770">
        <ele>497.8</ele>
        <time>2019-08-15T07:52:34Z</time>
      </trkpt>
      <trkpt lat="48.7193620" lon="13.3411690">
        <ele>497.6</ele>
        <time>2019-08-15T07:52:35Z</time>
      </trkpt>
      <trkpt lat="48.7193960" lon="13.3412680">
        <ele>497.8</ele>
        <time>2019-08-15T07:52:36Z</time>
      </trkpt>
      <trkpt lat="48.7194290" lon="13.3413670">
        <ele>497.8</ele>
        <time>2019-08-15T07:52:37Z</time>
      </trkpt>
      <trkpt lat="48.7194610" lon="13.3414640">
        <ele>498.0</ele>
        <time>2019-08-15T07:52:38Z</time>
      </trkpt>
      <trkpt lat="48.7194910" lon="13.3415560">
        <ele>498.0</ele>
        <time>2019-08-15T07:52:39Z</time>
      </trkpt>
      <trkpt lat="48.7195270" lon="13.3416580">
        <ele>498.0</ele>
        <time>2019-08-15T07:52:40Z</time>
      </trkpt>
      <trkpt lat="48.7195600" lon="13.3417540">
        <ele>497.8</ele>
        <time>2019-08-15T07:52:41Z</time>
      </trkpt>
      <trkpt lat="48.7195920" lon="13.3418480">
        <ele>497.8</ele>
        <time>2019-08-15T07:52:42Z</time>
      </trkpt>
      <trkpt lat="48.7196260" lon="13.3419460">
        <ele>497.6</ele>
        <time>2019-08-15T07:52:43Z</time>
      </trkpt>
      <trkpt lat="48.7196590" lon="13.3420430">
        <ele>497.6</ele>
        <time>2019-08-15T07:52:44Z</time>
      </trkpt>
      <trkpt lat="48.7196920" lon="13.3421380">
        <ele>497.6</ele>
        <time>2019-08-15T07:52:45Z</time>
      </trkpt>
      <trkpt lat="48.7197260" lon="13.3422340">
        <ele>497.6</ele>
        <time>2019-08-15T07:52:46Z</time>
      </trkpt>
      <trkpt lat="48.7197590" lon="13.3423290">
        <ele>497.4</ele>
        <time>2019-08-15T07:52:47Z</time>
      </trkpt>
      <trkpt lat="48.7197910" lon="13.3424250">
        <ele>497.4</ele>
        <time>2019-08-15T07:52:48Z</time>
      </trkpt>
      <trkpt lat="48.7198240" lon="13.3425230">
        <ele>497.4</ele>
        <time>2019-08-15T07:52:49Z</time>
      </trkpt>
      <trkpt lat="48.7198570" lon="13.3426220">
        <ele>497.4</ele>
        <time>2019-08-15T07:52:50Z</time>
      </trkpt>
      <trkpt lat="48.7198910" lon="13.3427190">
        <ele>497.4</ele>
        <time>2019-08-15T07:52:51Z</time>
      </trkpt>
      <trkpt lat="48.7199250" lon="13.3428160">
        <ele>497.4</ele>
        <time>2019-08-15T07:52:52Z</time>
      </trkpt>
      <trkpt lat="48.7199610" lon="13.3429100">
        <ele>497.4</ele>
        <time>2019-08-15T07:52:53Z</time>
      </trkpt>
      <trkpt lat="48.7200010" lon="13.3430010">
        <ele>497.2</ele>
        <time>2019-08-15T07:52:54Z</time>
      </trkpt>
      <trkpt lat="48.7200430" lon="13.3430870">
        <ele>497.2</ele>
        <time>2019-08-15T07:52:55Z</time>
      </trkpt>
      <trkpt lat="48.7200880" lon="13.3431720">
        <ele>497.2</ele>
        <time>2019-08-15T07:52:56Z</time>
      </trkpt>
      <trkpt lat="48.7201350" lon="13.3432520">
        <ele>497.2</ele>
        <time>2019-08-15T07:52:57Z</time>
      </trkpt>
      <trkpt lat="48.7201840" lon="13.3433290">
        <ele>497.2</ele>
        <time>2019-08-15T07:52:58Z</time>
      </trkpt>
      <trkpt lat="48.7202310" lon="13.3434010">
        <ele>497.2</ele>
        <time>2019-08-15T07:52:59Z</time>
      </trkpt>
      <trkpt lat="48.7202790" lon="13.3434700">
        <ele>497.2</ele>
        <time>2019-08-15T07:53:00Z</time>
      </trkpt>
      <trkpt lat="48.7203420" lon="13.3435570">
        <ele>497.2</ele>
        <time>2019-08-15T07:53:01Z</time>
      </trkpt>
      <trkpt lat="48.7204080" lon="13.3436330">
        <ele>497.4</ele>
        <time>2019-08-15T07:53:02Z</time>
      </trkpt>
      <trkpt lat="48.7204660" lon="13.3436980">
        <ele>497.4</ele>
        <time>2019-08-15T07:53:03Z</time>
      </trkpt>
      <trkpt lat="48.7205250" lon="13.3437620">
        <ele>497.2</ele>
        <time>2019-08-15T07:53:04Z</time>
      </trkpt>
      <trkpt lat="48.7205750" lon="13.3438200">
        <ele>497.2</ele>
        <time>2019-08-15T07:53:05Z</time>
      </trkpt>
      <trkpt lat="48.7206250" lon="13.3438730">
        <ele>497.2</ele>
        <time>2019-08-15T07:53:06Z</time>
      </trkpt>
      <trkpt lat="48.7206720" lon="13.3439180">
        <ele>497.0</ele>
        <time>2019-08-15T07:53:07Z</time>
      </trkpt>
      <trkpt lat="48.7207220" lon="13.3439540">
        <ele>497.0</ele>
        <time>2019-08-15T07:53:08Z</time>
      </trkpt>
      <trkpt lat="48.7207780" lon="13.3439850">
        <ele>496.8</ele>
        <time>2019-08-15T07:53:09Z</time>
      </trkpt>
      <trkpt lat="48.7208380" lon="13.3440200">
        <ele>496.8</ele>
        <time>2019-08-15T07:53:10Z</time>
      </trkpt>
      <trkpt lat="48.7209010" lon="13.3440540">
        <ele>496.8</ele>
        <time>2019-08-15T07:53:11Z</time>
      </trkpt>
      <trkpt lat="48.7209630" lon="13.3440890">
        <ele>496.8</ele>
        <time>2019-08-15T07:53:12Z</time>
      </trkpt>
      <trkpt lat="48.7210340" lon="13.3441090">
        <ele>496.8</ele>
        <time>2019-08-15T07:53:13Z</time>
      </trkpt>
      <trkpt lat="48.7210990" lon="13.3441380">
        <ele>496.8</ele>
        <time>2019-08-15T07:53:14Z</time>
      </trkpt>
      <trkpt lat="48.7211610" lon="13.3441640">
        <ele>497.0</ele>
        <time>2019-08-15T07:53:15Z</time>
      </trkpt>
      <trkpt lat="48.7212210" lon="13.3441920">
        <ele>497.0</ele>
        <time>2019-08-15T07:53:16Z</time>
      </trkpt>
      <trkpt lat="48.7212770" lon="13.3442260">
        <ele>497.0</ele>
        <time>2019-08-15T07:53:17Z</time>
      </trkpt>
      <trkpt lat="48.7213390" lon="13.3442630">
        <ele>497.2</ele>
        <time>2019-08-15T07:53:18Z</time>
      </trkpt>
      <trkpt lat="48.7213930" lon="13.3442960">
        <ele>497.2</ele>
        <time>2019-08-15T07:53:19Z</time>
      </trkpt>
      <trkpt lat="48.7214590" lon="13.3443370">
        <ele>497.2</ele>
        <time>2019-08-15T07:53:20Z</time>
      </trkpt>
      <trkpt lat="48.7215250" lon="13.3443810">
        <ele>497.0</ele>
        <time>2019-08-15T07:53:21Z</time>
      </trkpt>
      <trkpt lat="48.7215880" lon="13.3444280">
        <ele>497.0</ele>
        <time>2019-08-15T07:53:22Z</time>
      </trkpt>
      <trkpt lat="48.7216470" lon="13.3444760">
        <ele>497.0</ele>
        <time>2019-08-15T07:53:23Z</time>
      </trkpt>
      <trkpt lat="48.7217060" lon="13.3445290">
        <ele>497.0</ele>
        <time>2019-08-15T07:53:24Z</time>
      </trkpt>
      <trkpt lat="48.7217630" lon="13.3445830">
        <ele>497.2</ele>
        <time>2019-08-15T07:53:25Z</time>
      </trkpt>
      <trkpt lat="48.7218210" lon="13.3446450">
        <ele>497.2</ele>
        <time>2019-08-15T07:53:26Z</time>
      </trkpt>
      <trkpt lat="48.7218730" lon="13.3447090">
        <ele>497.2</ele>
        <time>2019-08-15T07:53:27Z</time>
      </trkpt>
      <trkpt lat="48.7219200" lon="13.3447730">
        <ele>497.2</ele>
        <time>2019-08-15T07:53:28Z</time>
      </trkpt>
      <trkpt lat="48.7219680" lon="13.3448390">
        <ele>497.2</ele>
        <time>2019-08-15T07:53:29Z</time>
      </trkpt>
      <trkpt lat="48.7220200" lon="13.3449060">
        <ele>497.2</ele>
        <time>2019-08-15T07:53:30Z</time>
      </trkpt>
      <trkpt lat="48.7220710" lon="13.3449780">
        <ele>497.2</ele>
        <time>2019-08-15T07:53:31Z</time>
      </trkpt>
      <trkpt lat="48.7221170" lon="13.3450530">
        <ele>497.2</ele>
        <time>2019-08-15T07:53:32Z</time>
      </trkpt>
      <trkpt lat="48.7221610" lon="13.3451280">
        <ele>497.2</ele>
        <time>2019-08-15T07:53:33Z</time>
      </trkpt>
      <trkpt lat="48.7222030" lon="13.3452100">
        <ele>497.2</ele>
        <time>2019-08-15T07:53:34Z</time>
      </trkpt>
      <trkpt lat="48.7222400" lon="13.3452940">
        <ele>497.2</ele>
        <time>2019-08-15T07:53:35Z</time>
      </trkpt>
      <trkpt lat="48.7222790" lon="13.3453860">
        <ele>497.0</ele>
        <time>2019-08-15T07:53:36Z</time>
      </trkpt>
      <trkpt lat="48.7223150" lon="13.3454790">
        <ele>497.0</ele>
        <time>2019-08-15T07:53:37Z</time>
      </trkpt>
      <trkpt lat="48.7223500" lon="13.3455750">
        <ele>497.0</ele>
        <time>2019-08-15T07:53:38Z</time>
      </trkpt>
      <trkpt lat="48.7223830" lon="13.3456740">
        <ele>497.0</ele>
        <time>2019-08-15T07:53:39Z</time>
      </trkpt>
      <trkpt lat="48.7224130" lon="13.3457770">
        <ele>497.0</ele>
        <time>2019-08-15T07:53:40Z</time>
      </trkpt>
      <trkpt lat="48.7224370" lon="13.3458740">
        <ele>497.0</ele>
        <time>2019-08-15T07:53:41Z</time>
      </trkpt>
      <trkpt lat="48.7224580" lon="13.3459750">
        <ele>497.0</ele>
        <time>2019-08-15T07:53:42Z</time>
      </trkpt>
      <trkpt lat="48.7224780" lon="13.3460800">
        <ele>497.0</ele>
        <time>2019-08-15T07:53:43Z</time>
      </trkpt>
      <trkpt lat="48.7224950" lon="13.3461800">
        <ele>497.0</ele>
        <time>2019-08-15T07:53:44Z</time>
      </trkpt>
      <trkpt lat="48.7225120" lon="13.3462810">
        <ele>497.0</ele>
        <time>2019-08-15T07:53:45Z</time>
      </trkpt>
      <trkpt lat="48.7225300" lon="13.3463900">
        <ele>497.0</ele>
        <time>2019-08-15T07:53:46Z</time>
      </trkpt>
      <trkpt lat="48.7225490" lon="13.3464950">
        <ele>497.0</ele>
        <time>2019-08-15T07:53:47Z</time>
      </trkpt>
      <trkpt lat="48.7225690" lon="13.3465980">
        <ele>497.0</ele>
        <time>2019-08-15T07:53:48Z</time>
      </trkpt>
      <trkpt lat="48.7225910" lon="13.3466970">
        <ele>497.0</ele>
        <time>2019-08-15T07:53:49Z</time>
      </trkpt>
      <trkpt lat="48.7226150" lon="13.3467930">
        <ele>497.0</ele>
        <time>2019-08-15T07:53:50Z</time>
      </trkpt>
      <trkpt lat="48.7226370" lon="13.3468980">
        <ele>497.0</ele>
        <time>2019-08-15T07:53:51Z</time>
      </trkpt>
      <trkpt lat="48.7226580" lon="13.3470000">
        <ele>497.0</ele>
        <time>2019-08-15T07:53:52Z</time>
      </trkpt>
      <trkpt lat="48.7226800" lon="13.3470970">
        <ele>497.0</ele>
        <time>2019-08-15T07:53:53Z</time>
      </trkpt>
      <trkpt lat="48.7227040" lon="13.3471880">
        <ele>497.0</ele>
        <time>2019-08-15T07:53:54Z</time>
      </trkpt>
      <trkpt lat="48.7227320" lon="13.3472770">
        <ele>497.2</ele>
        <time>2019-08-15T07:53:55Z</time>
      </trkpt>
      <trkpt lat="48.7227620" lon="13.3473690">
        <ele>497.2</ele>
        <time>2019-08-15T07:53:56Z</time>
      </trkpt>
      <trkpt lat="48.7228000" lon="13.3474650">
        <ele>497.2</ele>
        <time>2019-08-15T07:53:57Z</time>
      </trkpt>
      <trkpt lat="48.7228420" lon="13.3475570">
        <ele>497.2</ele>
        <time>2019-08-15T07:53:58Z</time>
      </trkpt>
      <trkpt lat="48.7228900" lon="13.3476490">
        <ele>497.0</ele>
        <time>2019-08-15T07:53:59Z</time>
      </trkpt>
      <trkpt lat="48.7229350" lon="13.3477310">
        <ele>497.0</ele>
        <time>2019-08-15T07:54:00Z</time>
      </trkpt>
      <trkpt lat="48.7229840" lon="13.3478120">
        <ele>497.0</ele>
        <time>2019-08-15T07:54:01Z</time>
      </trkpt>
      <trkpt lat="48.7230340" lon="13.3478890">
        <ele>497.0</ele>
        <time>2019-08-15T07:54:02Z</time>
      </trkpt>
      <trkpt lat="48.7230850" lon="13.3479570">
        <ele>497.0</ele>
        <time>2019-08-15T07:54:03Z</time>
      </trkpt>
      <trkpt lat="48.7231360" lon="13.3480150">
        <ele>497.0</ele>
        <time>2019-08-15T07:54:04Z</time>
      </trkpt>
      <trkpt lat="48.7231860" lon="13.3480720">
        <ele>497.0</ele>
        <time>2019-08-15T07:54:05Z</time>
      </trkpt>
      <trkpt lat="48.7232330" lon="13.3481270">
        <ele>497.0</ele>
        <time>2019-08-15T07:54:06Z</time>
      </trkpt>
      <trkpt lat="48.7232830" lon="13.3481840">
        <ele>497.0</ele>
        <time>2019-08-15T07:54:07Z</time>
      </trkpt>
      <trkpt lat="48.7233360" lon="13.3482400">
        <ele>497.0</ele>
        <time>2019-08-15T07:54:08Z</time>
      </trkpt>
      <trkpt lat="48.7233880" lon="13.3482950">
        <ele>497.0</ele>
        <time>2019-08-15T07:54:09Z</time>
      </trkpt>
      <trkpt lat="48.7234400" lon="13.3483380">
        <ele>497.0</ele>
        <time>2019-08-15T07:54:10Z</time>
      </trkpt>
      <trkpt lat="48.7234920" lon="13.3483750">
        <ele>497.2</ele>
        <time>2019-08-15T07:54:11Z</time>
      </trkpt>
      <trkpt lat="48.7235520" lon="13.3484160">
        <ele>497.2</ele>
        <time>2019-08-15T07:54:12Z</time>
      </trkpt>
      <trkpt lat="48.7236130" lon="13.3484580">
        <ele>497.2</ele>
        <time>2019-08-15T07:54:13Z</time>
      </trkpt>
      <trkpt lat="48.7236750" lon="13.3484980">
        <ele>497.2</ele>
        <time>2019-08-15T07:54:14Z</time>
      </trkpt>
      <trkpt lat="48.7237410" lon="13.3485400">
        <ele>497.2</ele>
        <time>2019-08-15T07:54:15Z</time>
      </trkpt>
      <trkpt lat="48.7238080" lon="13.3485720">
        <ele>497.0</ele>
        <time>2019-08-15T07:54:16Z</time>
      </trkpt>
      <trkpt lat="48.7238740" lon="13.3486020">
        <ele>497.0</ele>
        <time>2019-08-15T07:54:17Z</time>
      </trkpt>
      <trkpt lat="48.7239440" lon="13.3486330">
        <ele>497.0</ele>
        <time>2019-08-15T07:54:18Z</time>
      </trkpt>
      <trkpt lat="48.7240010" lon="13.3486610">
        <ele>497.0</ele>
        <time>2019-08-15T07:54:19Z</time>
      </trkpt>
      <trkpt lat="48.7240620" lon="13.3487000">
        <ele>497.2</ele>
        <time>2019-08-15T07:54:20Z</time>
      </trkpt>
      <trkpt lat="48.7241200" lon="13.3487540">
        <ele>497.2</ele>
        <time>2019-08-15T07:54:21Z</time>
      </trkpt>
      <trkpt lat="48.7241730" lon="13.3488140">
        <ele>497.4</ele>
        <time>2019-08-15T07:54:22Z</time>
      </trkpt>
      <trkpt lat="48.7242320" lon="13.3488830">
        <ele>497.4</ele>
        <time>2019-08-15T07:54:23Z</time>
      </trkpt>
      <trkpt lat="48.7242950" lon="13.3489510">
        <ele>497.4</ele>
        <time>2019-08-15T07:54:24Z</time>
      </trkpt>
      <trkpt lat="48.7243470" lon="13.3490060">
        <ele>497.6</ele>
        <time>2019-08-15T07:54:25Z</time>
      </trkpt>
      <trkpt lat="48.7244000" lon="13.3490670">
        <ele>497.6</ele>
        <time>2019-08-15T07:54:26Z</time>
      </trkpt>
      <trkpt lat="48.7244550" lon="13.3491390">
        <ele>497.6</ele>
        <time>2019-08-15T07:54:27Z</time>
      </trkpt>
      <trkpt lat="48.7245060" lon="13.3492050">
        <ele>497.6</ele>
        <time>2019-08-15T07:54:28Z</time>
      </trkpt>
      <trkpt lat="48.7245560" lon="13.3492740">
        <ele>497.6</ele>
        <time>2019-08-15T07:54:29Z</time>
      </trkpt>
      <trkpt lat="48.7246010" lon="13.3493540">
        <ele>497.8</ele>
        <time>2019-08-15T07:54:30Z</time>
      </trkpt>
      <trkpt lat="48.7246460" lon="13.3494320">
        <ele>497.8</ele>
        <time>2019-08-15T07:54:31Z</time>
      </trkpt>
      <trkpt lat="48.7246870" lon="13.3495100">
        <ele>497.6</ele>
        <time>2019-08-15T07:54:32Z</time>
      </trkpt>
      <trkpt lat="48.7247240" lon="13.3495870">
        <ele>497.6</ele>
        <time>2019-08-15T07:54:33Z</time>
      </trkpt>
      <trkpt lat="48.7247630" lon="13.3496670">
        <ele>497.6</ele>
        <time>2019-08-15T07:54:34Z</time>
      </trkpt>
      <trkpt lat="48.7247990" lon="13.3497530">
        <ele>497.6</ele>
        <time>2019-08-15T07:54:35Z</time>
      </trkpt>
      <trkpt lat="48.7248390" lon="13.3498490">
        <ele>497.4</ele>
        <time>2019-08-15T07:54:36Z</time>
      </trkpt>
      <trkpt lat="48.7248830" lon="13.3499500">
        <ele>497.4</ele>
        <time>2019-08-15T07:54:37Z</time>
      </trkpt>
      <trkpt lat="48.7249210" lon="13.3500620">
        <ele>497.4</ele>
        <time>2019-08-15T07:54:38Z</time>
      </trkpt>
      <trkpt lat="48.7249560" lon="13.3501730">
        <ele>497.2</ele>
        <time>2019-08-15T07:54:39Z</time>
      </trkpt>
      <trkpt lat="48.7249930" lon="13.3502840">
        <ele>497.2</ele>
        <time>2019-08-15T07:54:40Z</time>
      </trkpt>
      <trkpt lat="48.7250280" lon="13.3503990">
        <ele>497.2</ele>
        <time>2019-08-15T07:54:41Z</time>
      </trkpt>
      <trkpt lat="48.7250620" lon="13.3505110">
        <ele>497.2</ele>
        <time>2019-08-15T07:54:42Z</time>
      </trkpt>
      <trkpt lat="48.7250970" lon="13.3506230">
        <ele>497.2</ele>
        <time>2019-08-15T07:54:43Z</time>
      </trkpt>
      <trkpt lat="48.7251310" lon="13.3507340">
        <ele>497.4</ele>
        <time>2019-08-15T07:54:44Z</time>
      </trkpt>
      <trkpt lat="48.7251600" lon="13.3508360">
        <ele>497.4</ele>
        <time>2019-08-15T07:54:45Z</time>
      </trkpt>
      <trkpt lat="48.7251870" lon="13.3509350">
        <ele>497.4</ele>
        <time>2019-08-15T07:54:46Z</time>
      </trkpt>
      <trkpt lat="48.7252110" lon="13.3510340">
        <ele>497.4</ele>
        <time>2019-08-15T07:54:47Z</time>
      </trkpt>
      <trkpt lat="48.7252340" lon="13.3511270">
        <ele>497.4</ele>
        <time>2019-08-15T07:54:48Z</time>
      </trkpt>
      <trkpt lat="48.7252620" lon="13.3512230">
        <ele>497.4</ele>
        <time>2019-08-15T07:54:49Z</time>
      </trkpt>
      <trkpt lat="48.7252970" lon="13.3513160">
        <ele>497.4</ele>
        <time>2019-08-15T07:54:50Z</time>
      </trkpt>
      <trkpt lat="48.7253310" lon="13.3514060">
        <ele>497.4</ele>
        <time>2019-08-15T07:54:51Z</time>
      </trkpt>
      <trkpt lat="48.7253670" lon="13.3514900">
        <ele>497.4</ele>
        <time>2019-08-15T07:54:52Z</time>
      </trkpt>
      <trkpt lat="48.7254070" lon="13.3515740">
        <ele>497.4</ele>
        <time>2019-08-15T07:54:53Z</time>
      </trkpt>
      <trkpt lat="48.7254560" lon="13.3516630">
        <ele>497.2</ele>
        <time>2019-08-15T07:54:54Z</time>
      </trkpt>
      <trkpt lat="48.7255060" lon="13.3517520">
        <ele>497.2</ele>
        <time>2019-08-15T07:54:55Z</time>
      </trkpt>
      <trkpt lat="48.7255610" lon="13.3518420">
        <ele>497.2</ele>
        <time>2019-08-15T07:54:56Z</time>
      </trkpt>
      <trkpt lat="48.7256110" lon="13.3519200">
        <ele>497.2</ele>
        <time>2019-08-15T07:54:57Z</time>
      </trkpt>
      <trkpt lat="48.7256600" lon="13.3519940">
        <ele>497.2</ele>
        <time>2019-08-15T07:54:58Z</time>
      </trkpt>
      <trkpt lat="48.7257040" lon="13.3520550">
        <ele>497.2</ele>
        <time>2019-08-15T07:54:59Z</time>
      </trkpt>
      <trkpt lat="48.7257640" lon="13.3521340">
        <ele>497.2</ele>
        <time>2019-08-15T07:55:00Z</time>
      </trkpt>
      <trkpt lat="48.7258260" lon="13.3522110">
        <ele>497.0</ele>
        <time>2019-08-15T07:55:01Z</time>
      </trkpt>
      <trkpt lat="48.7258860" lon="13.3522810">
        <ele>497.0</ele>
        <time>2019-08-15T07:55:02Z</time>
      </trkpt>
      <trkpt lat="48.7259410" lon="13.3523390">
        <ele>497.0</ele>
        <time>2019-08-15T07:55:03Z</time>
      </trkpt>
      <trkpt lat="48.7259990" lon="13.3523950">
        <ele>497.0</ele>
        <time>2019-08-15T07:55:04Z</time>
      </trkpt>
      <trkpt lat="48.7260600" lon="13.3524470">
        <ele>497.0</ele>
        <time>2019-08-15T07:55:05Z</time>
      </trkpt>
      <trkpt lat="48.7261220" lon="13.3524920">
        <ele>497.0</ele>
        <time>2019-08-15T07:55:06Z</time>
      </trkpt>
      <trkpt lat="48.7261850" lon="13.3525280">
        <ele>497.0</ele>
        <time>2019-08-15T07:55:07Z</time>
      </trkpt>
      <trkpt lat="48.7262530" lon="13.3525660">
        <ele>497.0</ele>
        <time>2019-08-15T07:55:08Z</time>
      </trkpt>
      <trkpt lat="48.7263190" lon="13.3526040">
        <ele>497.2</ele>
        <time>2019-08-15T07:55:09Z</time>
      </trkpt>
      <trkpt lat="48.7263900" lon="13.3526480">
        <ele>497.2</ele>
        <time>2019-08-15T07:55:10Z</time>
      </trkpt>
      <trkpt lat="48.7264610" lon="13.3526960">
        <ele>497.2</ele>
        <time>2019-08-15T07:55:11Z</time>
      </trkpt>
      <trkpt lat="48.7265300" lon="13.3527390">
        <ele>497.0</ele>
        <time>2019-08-15T07:55:12Z</time>
      </trkpt>
      <trkpt lat="48.7266000" lon="13.3527820">
        <ele>497.0</ele>
        <time>2019-08-15T07:55:13Z</time>
      </trkpt>
      <trkpt lat="48.7266710" lon="13.3528250">
        <ele>497.0</ele>
        <time>2019-08-15T07:55:14Z</time>
      </trkpt>
      <trkpt lat="48.7267360" lon="13.3528660">
        <ele>497.0</ele>
        <time>2019-08-15T07:55:15Z</time>
      </trkpt>
      <trkpt lat="48.7268010" lon="13.3529170">
        <ele>497.0</ele>
        <time>2019-08-15T07:55:16Z</time>
      </trkpt>
      <trkpt lat="48.7268650" lon="13.3529750">
        <ele>497.0</ele>
        <time>2019-08-15T07:55:17Z</time>
      </trkpt>
      <trkpt lat="48.7269320" lon="13.3530340">
        <ele>497.0</ele>
        <time>2019-08-15T07:55:18Z</time>
      </trkpt>
      <trkpt lat="48.7269960" lon="13.3530960">
        <ele>497.0</ele>
        <time>2019-08-15T07:55:19Z</time>
      </trkpt>
      <trkpt lat="48.7270570" lon="13.3531570">
        <ele>497.0</ele>
        <time>2019-08-15T07:55:20Z</time>
      </trkpt>
      <trkpt lat="48.7271150" lon="13.3532170">
        <ele>497.0</ele>
        <time>2019-08-15T07:55:21Z</time>
      </trkpt>
      <trkpt lat="48.7271710" lon="13.3532790">
        <ele>496.8</ele>
        <time>2019-08-15T07:55:22Z</time>
      </trkpt>
      <trkpt lat="48.7272230" lon="13.3533400">
        <ele>496.8</ele>
        <time>2019-08-15T07:55:23Z</time>
      </trkpt>
      <trkpt lat="48.7272700" lon="13.3534040">
        <ele>496.8</ele>
        <time>2019-08-15T07:55:24Z</time>
      </trkpt>
      <trkpt lat="48.7273150" lon="13.3534690">
        <ele>496.8</ele>
        <time>2019-08-15T07:55:25Z</time>
      </trkpt>
      <trkpt lat="48.7273610" lon="13.3535270">
        <ele>496.8</ele>
        <time>2019-08-15T07:55:26Z</time>
      </trkpt>
      <trkpt lat="48.7274010" lon="13.3535750">
        <ele>496.8</ele>
        <time>2019-08-15T07:55:27Z</time>
      </trkpt>
      <trkpt lat="48.7274340" lon="13.3536230">
        <ele>496.8</ele>
        <time>2019-08-15T07:55:28Z</time>
      </trkpt>
      <trkpt lat="48.7274610" lon="13.3536780">
        <ele>496.8</ele>
        <time>2019-08-15T07:55:29Z</time>
      </trkpt>
      <trkpt lat="48.7274840" lon="13.3537360">
        <ele>496.6</ele>
        <time>2019-08-15T07:55:30Z</time>
      </trkpt>
      <trkpt lat="48.7275110" lon="13.3537920">
        <ele>496.6</ele>
        <time>2019-08-15T07:55:31Z</time>
      </trkpt>
      <trkpt lat="48.7275430" lon="13.3538440">
        <ele>496.6</ele>
        <time>2019-08-15T07:55:32Z</time>
      </trkpt>
      <trkpt lat="48.7275740" lon="13.3539010">
        <ele>496.6</ele>
        <time>2019-08-15T07:55:33Z</time>
      </trkpt>
      <trkpt lat="48.7276020" lon="13.3539710">
        <ele>496.6</ele>
        <time>2019-08-15T07:55:34Z</time>
      </trkpt>
      <trkpt lat="48.7276280" lon="13.3540420">
        <ele>496.6</ele>
        <time>2019-08-15T07:55:35Z</time>
      </trkpt>
      <trkpt lat="48.7276530" lon="13.3541120">
        <ele>496.6</ele>
        <time>2019-08-15T07:55:36Z</time>
      </trkpt>
      <trkpt lat="48.7276780" lon="13.3541800">
        <ele>496.6</ele>
        <time>2019-08-15T07:55:37Z</time>
      </trkpt>
      <trkpt lat="48.7277040" lon="13.3542460">
        <ele>496.6</ele>
        <time>2019-08-15T07:55:38Z</time>
      </trkpt>
      <trkpt lat="48.7277290" lon="13.3543110">
        <ele>496.6</ele>
        <time>2019-08-15T07:55:39Z</time>
      </trkpt>
      <trkpt lat="48.7277520" lon="13.3543730">
        <ele>496.6</ele>
        <time>2019-08-15T07:55:40Z</time>
      </trkpt>
      <trkpt lat="48.7277750" lon="13.3544250">
        <ele>496.6</ele>
        <time>2019-08-15T07:55:41Z</time>
      </trkpt>
      <trkpt lat="48.7277940" lon="13.3544740">
        <ele>496.6</ele>
        <time>2019-08-15T07:55:42Z</time>
      </trkpt>
      <trkpt lat="48.7278070" lon="13.3545230">
        <ele>496.4</ele>
        <time>2019-08-15T07:55:43Z</time>
      </trkpt>
      <trkpt lat="48.7278210" lon="13.3545690">
        <ele>496.4</ele>
        <time>2019-08-15T07:55:44Z</time>
      </trkpt>
      <trkpt lat="48.7278400" lon="13.3546110">
        <ele>496.4</ele>
        <time>2019-08-15T07:55:45Z</time>
      </trkpt>
      <trkpt lat="48.7278580" lon="13.3546580">
        <ele>496.4</ele>
        <time>2019-08-15T07:55:46Z</time>
      </trkpt>
      <trkpt lat="48.7278730" lon="13.3547120">
        <ele>496.4</ele>
        <time>2019-08-15T07:55:47Z</time>
      </trkpt>
      <trkpt lat="48.7278890" lon="13.3547720">
        <ele>496.4</ele>
        <time>2019-08-15T07:55:48Z</time>
      </trkpt>
      <trkpt lat="48.7279080" lon="13.3548360">
        <ele>496.4</ele>
        <time>2019-08-15T07:55:49Z</time>
      </trkpt>
      <trkpt lat="48.7279310" lon="13.3548980">
        <ele>496.4</ele>
        <time>2019-08-15T07:55:50Z</time>
      </trkpt>
      <trkpt lat="48.7279540" lon="13.3549650">
        <ele>496.6</ele>
        <time>2019-08-15T07:55:51Z</time>
      </trkpt>
      <trkpt lat="48.7279760" lon="13.3550320">
        <ele>496.6</ele>
        <time>2019-08-15T07:55:52Z</time>
      </trkpt>
      <trkpt lat="48.7279980" lon="13.3551040">
        <ele>496.6</ele>
        <time>2019-08-15T07:55:53Z</time>
      </trkpt>
      <trkpt lat="48.7280160" lon="13.3551740">
        <ele>496.6</ele>
        <time>2019-08-15T07:55:54Z</time>
      </trkpt>
      <trkpt lat="48.7280340" lon="13.3552470">
        <ele>496.6</ele>
        <time>2019-08-15T07:55:55Z</time>
      </trkpt>
      <trkpt lat="48.7280560" lon="13.3553200">
        <ele>496.6</ele>
        <time>2019-08-15T07:55:56Z</time>
      </trkpt>
      <trkpt lat="48.7280740" lon="13.3553930">
        <ele>496.6</ele>
        <time>2019-08-15T07:55:57Z</time>
      </trkpt>
      <trkpt lat="48.7280910" lon="13.3554670">
        <ele>496.6</ele>
        <time>2019-08-15T07:55:58Z</time>
      </trkpt>
      <trkpt lat="48.7281050" lon="13.3555390">
        <ele>496.6</ele>
        <time>2019-08-15T07:55:59Z</time>
      </trkpt>
      <trkpt lat="48.7281190" lon="13.3556080">
        <ele>496.6</ele>
        <time>2019-08-15T07:56:00Z</time>
      </trkpt>
      <trkpt lat="48.7281330" lon="13.3556790">
        <ele>496.6</ele>
        <time>2019-08-15T07:56:01Z</time>
      </trkpt>
      <trkpt lat="48.7281490" lon="13.3557530">
        <ele>496.6</ele>
        <time>2019-08-15T07:56:02Z</time>
      </trkpt>
      <trkpt lat="48.7281630" lon="13.3558280">
        <ele>496.6</ele>
        <time>2019-08-15T07:56:03Z</time>
      </trkpt>
      <trkpt lat="48.7281770" lon="13.3559080">
        <ele>496.6</ele>
        <time>2019-08-15T07:56:04Z</time>
      </trkpt>
      <trkpt lat="48.7281860" lon="13.3559890">
        <ele>496.6</ele>
        <time>2019-08-15T07:56:05Z</time>
      </trkpt>
      <trkpt lat="48.7281930" lon="13.3560760">
        <ele>496.6</ele>
        <time>2019-08-15T07:56:06Z</time>
      </trkpt>
      <trkpt lat="48.7282000" lon="13.3561620">
        <ele>496.6</ele>
        <time>2019-08-15T07:56:07Z</time>
      </trkpt>
      <trkpt lat="48.7282020" lon="13.3562470">
        <ele>496.6</ele>
        <time>2019-08-15T07:56:08Z</time>
      </trkpt>
      <trkpt lat="48.7282040" lon="13.3563320">
        <ele>496.6</ele>
        <time>2019-08-15T07:56:09Z</time>
      </trkpt>
      <trkpt lat="48.7282060" lon="13.3564210">
        <ele>496.6</ele>
        <time>2019-08-15T07:56:10Z</time>
      </trkpt>
      <trkpt lat="48.7282030" lon="13.3565070">
        <ele>496.6</ele>
        <time>2019-08-15T07:56:11Z</time>
      </trkpt>
      <trkpt lat="48.7281970" lon="13.3565960">
        <ele>496.8</ele>
        <time>2019-08-15T07:56:12Z</time>
      </trkpt>
      <trkpt lat="48.7281890" lon="13.3566830">
        <ele>496.8</ele>
        <time>2019-08-15T07:56:13Z</time>
      </trkpt>
      <trkpt lat="48.7281780" lon="13.3567700">
        <ele>496.8</ele>
        <time>2019-08-15T07:56:14Z</time>
      </trkpt>
      <trkpt lat="48.7281650" lon="13.3568550">
        <ele>496.8</ele>
        <time>2019-08-15T07:56:15Z</time>
      </trkpt>
      <trkpt lat="48.7281520" lon="13.3569400">
        <ele>496.8</ele>
        <time>2019-08-15T07:56:16Z</time>
      </trkpt>
      <trkpt lat="48.7281360" lon="13.3570230">
        <ele>496.8</ele>
        <time>2019-08-15T07:56:17Z</time>
      </trkpt>
      <trkpt lat="48.7281140" lon="13.3571110">
        <ele>497.0</ele>
        <time>2019-08-15T07:56:18Z</time>
      </trkpt>
      <trkpt lat="48.7280930" lon="13.3571990">
        <ele>497.0</ele>
        <time>2019-08-15T07:56:19Z</time>
      </trkpt>
      <trkpt lat="48.7280710" lon="13.3572830">
        <ele>497.0</ele>
        <time>2019-08-15T07:56:20Z</time>
      </trkpt>
      <trkpt lat="48.7280510" lon="13.3573680">
        <ele>497.0</ele>
        <time>2019-08-15T07:56:21Z</time>
      </trkpt>
      <trkpt lat="48.7280340" lon="13.3574540">
        <ele>497.2</ele>
        <time>2019-08-15T07:56:22Z</time>
      </trkpt>
      <trkpt lat="48.7280140" lon="13.3575330">
        <ele>497.2</ele>
        <time>2019-08-15T07:56:23Z</time>
      </trkpt>
      <trkpt lat="48.7279880" lon="13.3576070">
        <ele>497.2</ele>
        <time>2019-08-15T07:56:24Z</time>
      </trkpt>
      <trkpt lat="48.7279620" lon="13.3576770">
        <ele>497.2</ele>
        <time>2019-08-15T07:56:25Z</time>
      </trkpt>
      <trkpt lat="48.7279370" lon="13.3577440">
        <ele>497.2</ele>
        <time>2019-08-15T07:56:26Z</time>
      </trkpt>
      <trkpt lat="48.7279170" lon="13.3578090">
        <ele>497.4</ele>
        <time>2019-08-15T07:56:27Z</time>
      </trkpt>
      <trkpt lat="48.7278900" lon="13.3578700">
        <ele>497.4</ele>
        <time>2019-08-15T07:56:28Z</time>
      </trkpt>
      <trkpt lat="48.7278610" lon="13.3579300">
        <ele>497.4</ele>
        <time>2019-08-15T07:56:29Z</time>
      </trkpt>
      <trkpt lat="48.7278260" lon="13.3579920">
        <ele>497.4</ele>
        <time>2019-08-15T07:56:30Z</time>
      </trkpt>
      <trkpt lat="48.7277870" lon="13.3580570">
        <ele>497.6</ele>
        <time>2019-08-15T07:56:31Z</time>
      </trkpt>
      <trkpt lat="48.7277450" lon="13.3581230">
        <ele>497.6</ele>
        <time>2019-08-15T07:56:32Z</time>
      </trkpt>
      <trkpt lat="48.7277000" lon="13.3581830">
        <ele>497.8</ele>
        <time>2019-08-15T07:56:33Z</time>
      </trkpt>
      <trkpt lat="48.7276600" lon="13.3582370">
        <ele>498.0</ele>
        <time>2019-08-15T07:56:34Z</time>
      </trkpt>
      <trkpt lat="48.7276180" lon="13.3582920">
        <ele>498.2</ele>
        <time>2019-08-15T07:56:35Z</time>
      </trkpt>
      <trkpt lat="48.7275750" lon="13.3583510">
        <ele>498.2</ele>
        <time>2019-08-15T07:56:36Z</time>
      </trkpt>
      <trkpt lat="48.7275320" lon="13.3584040">
        <ele>498.4</ele>
        <time>2019-08-15T07:56:37Z</time>
      </trkpt>
      <trkpt lat="48.7274880" lon="13.3584550">
        <ele>498.6</ele>
        <time>2019-08-15T07:56:38Z</time>
      </trkpt>
      <trkpt lat="48.7274430" lon="13.3585050">
        <ele>498.6</ele>
        <time>2019-08-15T07:56:39Z</time>
      </trkpt>
      <trkpt lat="48.7274000" lon="13.3585560">
        <ele>498.8</ele>
        <time>2019-08-15T07:56:40Z</time>
      </trkpt>
      <trkpt lat="48.7273570" lon="13.3586100">
        <ele>499.0</ele>
        <time>2019-08-15T07:56:41Z</time>
      </trkpt>
      <trkpt lat="48.7273160" lon="13.3586660">
        <ele>499.0</ele>
        <time>2019-08-15T07:56:42Z</time>
      </trkpt>
      <trkpt lat="48.7272760" lon="13.3587210">
        <ele>499.2</ele>
        <time>2019-08-15T07:56:43Z</time>
      </trkpt>
      <trkpt lat="48.7272400" lon="13.3587750">
        <ele>499.4</ele>
        <time>2019-08-15T07:56:44Z</time>
      </trkpt>
      <trkpt lat="48.7272060" lon="13.3588280">
        <ele>499.4</ele>
        <time>2019-08-15T07:56:45Z</time>
      </trkpt>
      <trkpt lat="48.7271720" lon="13.3588800">
        <ele>499.6</ele>
        <time>2019-08-15T07:56:46Z</time>
      </trkpt>
      <trkpt lat="48.7271380" lon="13.3589340">
        <ele>499.8</ele>
        <time>2019-08-15T07:56:47Z</time>
      </trkpt>
      <trkpt lat="48.7270990" lon="13.3589920">
        <ele>500.0</ele>
        <time>2019-08-15T07:56:48Z</time>
      </trkpt>
      <trkpt lat="48.7270620" lon="13.3590530">
        <ele>500.0</ele>
        <time>2019-08-15T07:56:49Z</time>
      </trkpt>
      <trkpt lat="48.7270250" lon="13.3591170">
        <ele>500.2</ele>
        <time>2019-08-15T07:56:50Z</time>
      </trkpt>
      <trkpt lat="48.7269910" lon="13.3591890">
        <ele>500.2</ele>
        <time>2019-08-15T07:56:51Z</time>
      </trkpt>
      <trkpt lat="48.7269590" lon="13.3592610">
        <ele>500.4</ele>
        <time>2019-08-15T07:56:52Z</time>
      </trkpt>
      <trkpt lat="48.7269290" lon="13.3593310">
        <ele>500.6</ele>
        <time>2019-08-15T07:56:53Z</time>
      </trkpt>
      <trkpt lat="48.7268980" lon="13.3594010">
        <ele>500.8</ele>
        <time>2019-08-15T07:56:54Z</time>
      </trkpt>
      <trkpt lat="48.7268690" lon="13.3594690">
        <ele>500.8</ele>
        <time>2019-08-15T07:56:55Z</time>
      </trkpt>
      <trkpt lat="48.7268400" lon="13.3595430">
        <ele>501.0</ele>
        <time>2019-08-15T07:56:56Z</time>
      </trkpt>
      <trkpt lat="48.7268150" lon="13.3596180">
        <ele>501.2</ele>
        <time>2019-08-15T07:56:57Z</time>
      </trkpt>
      <trkpt lat="48.7267930" lon="13.3596950">
        <ele>501.2</ele>
        <time>2019-08-15T07:56:58Z</time>
      </trkpt>
      <trkpt lat="48.7267730" lon="13.3597700">
        <ele>501.4</ele>
        <time>2019-08-15T07:56:59Z</time>
      </trkpt>
      <trkpt lat="48.7267520" lon="13.3598460">
        <ele>501.4</ele>
        <time>2019-08-15T07:57:00Z</time>
      </trkpt>
      <trkpt lat="48.7267310" lon="13.3599230">
        <ele>501.6</ele>
        <time>2019-08-15T07:57:01Z</time>
      </trkpt>
      <trkpt lat="48.7267130" lon="13.3599980">
        <ele>501.8</ele>
        <time>2019-08-15T07:57:02Z</time>
      </trkpt>
      <trkpt lat="48.7266980" lon="13.3600700">
        <ele>501.8</ele>
        <time>2019-08-15T07:57:03Z</time>
      </trkpt>
      <trkpt lat="48.7266850" lon="13.3601440">
        <ele>502.0</ele>
        <time>2019-08-15T07:57:04Z</time>
      </trkpt>
      <trkpt lat="48.7266730" lon="13.3602170">
        <ele>502.2</ele>
        <time>2019-08-15T07:57:05Z</time>
      </trkpt>
      <trkpt lat="48.7266610" lon="13.3602900">
        <ele>502.4</ele>
        <time>2019-08-15T07:57:06Z</time>
      </trkpt>
      <trkpt lat="48.7266490" lon="13.3603620">
        <ele>502.4</ele>
        <time>2019-08-15T07:57:07Z</time>
      </trkpt>
      <trkpt lat="48.7266380" lon="13.3604340">
        <ele>502.6</ele>
        <time>2019-08-15T07:57:08Z</time>
      </trkpt>
      <trkpt lat="48.7266260" lon="13.3605020">
        <ele>502.8</ele>
        <time>2019-08-15T07:57:09Z</time>
      </trkpt>
      <trkpt lat="48.7266180" lon="13.3605740">
        <ele>503.0</ele>
        <time>2019-08-15T07:57:10Z</time>
      </trkpt>
      <trkpt lat="48.7266170" lon="13.3606410">
        <ele>503.0</ele>
        <time>2019-08-15T07:57:11Z</time>
      </trkpt>
      <trkpt lat="48.7266170" lon="13.3607060">
        <ele>503.2</ele>
        <time>2019-08-15T07:57:12Z</time>
      </trkpt>
      <trkpt lat="48.7266150" lon="13.3607730">
        <ele>503.4</ele>
        <time>2019-08-15T07:57:13Z</time>
      </trkpt>
      <trkpt lat="48.7266140" lon="13.3608370">
        <ele>503.6</ele>
        <time>2019-08-15T07:57:14Z</time>
      </trkpt>
      <trkpt lat="48.7266150" lon="13.3609010">
        <ele>503.6</ele>
        <time>2019-08-15T07:57:15Z</time>
      </trkpt>
      <trkpt lat="48.7266180" lon="13.3609660">
        <ele>503.8</ele>
        <time>2019-08-15T07:57:16Z</time>
      </trkpt>
      <trkpt lat="48.7266220" lon="13.3610360">
        <ele>503.8</ele>
        <time>2019-08-15T07:57:17Z</time>
      </trkpt>
      <trkpt lat="48.7266270" lon="13.3611060">
        <ele>504.0</ele>
        <time>2019-08-15T07:57:18Z</time>
      </trkpt>
      <trkpt lat="48.7266320" lon="13.3611760">
        <ele>504.2</ele>
        <time>2019-08-15T07:57:19Z</time>
      </trkpt>
      <trkpt lat="48.7266370" lon="13.3612460">
        <ele>504.2</ele>
        <time>2019-08-15T07:57:20Z</time>
      </trkpt>
      <trkpt lat="48.7266420" lon="13.3613150">
        <ele>504.4</ele>
        <time>2019-08-15T07:57:21Z</time>
      </trkpt>
      <trkpt lat="48.7266470" lon="13.3613850">
        <ele>504.6</ele>
        <time>2019-08-15T07:57:22Z</time>
      </trkpt>
      <trkpt lat="48.7266550" lon="13.3614540">
        <ele>504.6</ele>
        <time>2019-08-15T07:57:23Z</time>
      </trkpt>
      <trkpt lat="48.7266640" lon="13.3615220">
        <ele>504.8</ele>
        <time>2019-08-15T07:57:24Z</time>
      </trkpt>
      <trkpt lat="48.7266770" lon="13.3615900">
        <ele>505.0</ele>
        <time>2019-08-15T07:57:25Z</time>
      </trkpt>
      <trkpt lat="48.7266920" lon="13.3616530">
        <ele>505.0</ele>
        <time>2019-08-15T07:57:26Z</time>
      </trkpt>
      <trkpt lat="48.7267080" lon="13.3617140">
        <ele>505.2</ele>
        <time>2019-08-15T07:57:27Z</time>
      </trkpt>
      <trkpt lat="48.7267250" lon="13.3617790">
        <ele>505.2</ele>
        <time>2019-08-15T07:57:28Z</time>
      </trkpt>
      <trkpt lat="48.7267400" lon="13.3618420">
        <ele>505.4</ele>
        <time>2019-08-15T07:57:29Z</time>
      </trkpt>
      <trkpt lat="48.7267560" lon="13.3619000">
        <ele>505.6</ele>
        <time>2019-08-15T07:57:30Z</time>
      </trkpt>
      <trkpt lat="48.7267700" lon="13.3619600">
        <ele>505.6</ele>
        <time>2019-08-15T07:57:31Z</time>
      </trkpt>
      <trkpt lat="48.7267860" lon="13.3620180">
        <ele>505.8</ele>
        <time>2019-08-15T07:57:32Z</time>
      </trkpt>
      <trkpt lat="48.7268050" lon="13.3620750">
        <ele>505.8</ele>
        <time>2019-08-15T07:57:33Z</time>
      </trkpt>
      <trkpt lat="48.7268260" lon="13.3621340">
        <ele>506.0</ele>
        <time>2019-08-15T07:57:34Z</time>
      </trkpt>
      <trkpt lat="48.7268500" lon="13.3621950">
        <ele>506.2</ele>
        <time>2019-08-15T07:57:35Z</time>
      </trkpt>
      <trkpt lat="48.7268730" lon="13.3622520">
        <ele>506.2</ele>
        <time>2019-08-15T07:57:36Z</time>
      </trkpt>
      <trkpt lat="48.7268950" lon="13.3623030">
        <ele>506.4</ele>
        <time>2019-08-15T07:57:37Z</time>
      </trkpt>
      <trkpt lat="48.7269180" lon="13.3623470">
        <ele>506.4</ele>
        <time>2019-08-15T07:57:38Z</time>
      </trkpt>
      <trkpt lat="48.7269410" lon="13.3623920">
        <ele>506.6</ele>
        <time>2019-08-15T07:57:39Z</time>
      </trkpt>
      <trkpt lat="48.7269650" lon="13.3624380">
        <ele>506.8</ele>
        <time>2019-08-15T07:57:40Z</time>
      </trkpt>
      <trkpt lat="48.7269910" lon="13.3624850">
        <ele>506.8</ele>
        <time>2019-08-15T07:57:41Z</time>
      </trkpt>
      <trkpt lat="48.7270210" lon="13.3625350">
        <ele>507.0</ele>
        <time>2019-08-15T07:57:42Z</time>
      </trkpt>
      <trkpt lat="48.7270550" lon="13.3625910">
        <ele>507.2</ele>
        <time>2019-08-15T07:57:43Z</time>
      </trkpt>
      <trkpt lat="48.7270920" lon="13.3626440">
        <ele>507.2</ele>
        <time>2019-08-15T07:57:44Z</time>
      </trkpt>
      <trkpt lat="48.7271290" lon="13.3626940">
        <ele>507.4</ele>
        <time>2019-08-15T07:57:45Z</time>
      </trkpt>
      <trkpt lat="48.7271670" lon="13.3627390">
        <ele>507.4</ele>
        <time>2019-08-15T07:57:46Z</time>
      </trkpt>
      <trkpt lat="48.7272050" lon="13.3627870">
        <ele>507.6</ele>
        <time>2019-08-15T07:57:47Z</time>
      </trkpt>
      <trkpt lat="48.7272420" lon="13.3628360">
        <ele>507.6</ele>
        <time>2019-08-15T07:57:48Z</time>
      </trkpt>
      <trkpt lat="48.7272840" lon="13.3628810">
        <ele>507.6</ele>
        <time>2019-08-15T07:57:49Z</time>
      </trkpt>
      <trkpt lat="48.7273310" lon="13.3629260">
        <ele>507.6</ele>
        <time>2019-08-15T07:57:50Z</time>
      </trkpt>
      <trkpt lat="48.7273770" lon="13.3629730">
        <ele>507.6</ele>
        <time>2019-08-15T07:57:51Z</time>
      </trkpt>
      <trkpt lat="48.7274220" lon="13.3630180">
        <ele>507.6</ele>
        <time>2019-08-15T07:57:52Z</time>
      </trkpt>
      <trkpt lat="48.7274660" lon="13.3630640">
        <ele>507.8</ele>
        <time>2019-08-15T07:57:53Z</time>
      </trkpt>
      <trkpt lat="48.7275100" lon="13.3631140">
        <ele>507.8</ele>
        <time>2019-08-15T07:57:54Z</time>
      </trkpt>
      <trkpt lat="48.7275550" lon="13.3631600">
        <ele>507.8</ele>
        <time>2019-08-15T07:57:55Z</time>
      </trkpt>
      <trkpt lat="48.7275960" lon="13.3632040">
        <ele>507.8</ele>
        <time>2019-08-15T07:57:56Z</time>
      </trkpt>
      <trkpt lat="48.7276370" lon="13.3632430">
        <ele>507.8</ele>
        <time>2019-08-15T07:57:57Z</time>
      </trkpt>
      <trkpt lat="48.7276830" lon="13.3632800">
        <ele>507.8</ele>
        <time>2019-08-15T07:57:58Z</time>
      </trkpt>
      <trkpt lat="48.7277320" lon="13.3633100">
        <ele>507.8</ele>
        <time>2019-08-15T07:57:59Z</time>
      </trkpt>
      <trkpt lat="48.7277840" lon="13.3633360">
        <ele>507.8</ele>
        <time>2019-08-15T07:58:00Z</time>
      </trkpt>
      <trkpt lat="48.7278380" lon="13.3633600">
        <ele>507.8</ele>
        <time>2019-08-15T07:58:01Z</time>
      </trkpt>
      <trkpt lat="48.7278930" lon="13.3633870">
        <ele>507.8</ele>
        <time>2019-08-15T07:58:02Z</time>
      </trkpt>
      <trkpt lat="48.7279480" lon="13.3634090">
        <ele>507.8</ele>
        <time>2019-08-15T07:58:03Z</time>
      </trkpt>
      <trkpt lat="48.7280020" lon="13.3634260">
        <ele>508.0</ele>
        <time>2019-08-15T07:58:04Z</time>
      </trkpt>
      <trkpt lat="48.7280510" lon="13.3634440">
        <ele>508.0</ele>
        <time>2019-08-15T07:58:05Z</time>
      </trkpt>
      <trkpt lat="48.7280990" lon="13.3634610">
        <ele>508.0</ele>
        <time>2019-08-15T07:58:06Z</time>
      </trkpt>
      <trkpt lat="48.7281490" lon="13.3634740">
        <ele>508.0</ele>
        <time>2019-08-15T07:58:07Z</time>
      </trkpt>
      <trkpt lat="48.7281960" lon="13.3634840">
        <ele>508.0</ele>
        <time>2019-08-15T07:58:08Z</time>
      </trkpt>
      <trkpt lat="48.7282430" lon="13.3634980">
        <ele>508.0</ele>
        <time>2019-08-15T07:58:09Z</time>
      </trkpt>
      <trkpt lat="48.7282910" lon="13.3635120">
        <ele>508.0</ele>
        <time>2019-08-15T07:58:10Z</time>
      </trkpt>
      <trkpt lat="48.7283410" lon="13.3635250">
        <ele>508.0</ele>
        <time>2019-08-15T07:58:11Z</time>
      </trkpt>
      <trkpt lat="48.7283930" lon="13.3635350">
        <ele>508.0</ele>
        <time>2019-08-15T07:58:12Z</time>
      </trkpt>
      <trkpt lat="48.7284490" lon="13.3635420">
        <ele>508.0</ele>
        <time>2019-08-15T07:58:13Z</time>
      </trkpt>
      <trkpt lat="48.7285070" lon="13.3635510">
        <ele>508.0</ele>
        <time>2019-08-15T07:58:14Z</time>
      </trkpt>
      <trkpt lat="48.7285600" lon="13.3635560">
        <ele>508.0</ele>
        <time>2019-08-15T07:58:15Z</time>
      </trkpt>
      <trkpt lat="48.7286140" lon="13.3635660">
        <ele>508.0</ele>
        <time>2019-08-15T07:58:16Z</time>
      </trkpt>
      <trkpt lat="48.7286650" lon="13.3635840">
        <ele>508.0</ele>
        <time>2019-08-15T07:58:17Z</time>
      </trkpt>
      <trkpt lat="48.7287140" lon="13.3636040">
        <ele>508.0</ele>
        <time>2019-08-15T07:58:18Z</time>
      </trkpt>
      <trkpt lat="48.7287600" lon="13.3636340">
        <ele>508.2</ele>
        <time>2019-08-15T07:58:19Z</time>
      </trkpt>
      <trkpt lat="48.7288080" lon="13.3636690">
        <ele>508.2</ele>
        <time>2019-08-15T07:58:20Z</time>
      </trkpt>
      <trkpt lat="48.7288600" lon="13.3637040">
        <ele>508.2</ele>
        <time>2019-08-15T07:58:21Z</time>
      </trkpt>
      <trkpt lat="48.7289130" lon="13.3637450">
        <ele>508.2</ele>
        <time>2019-08-15T07:58:22Z</time>
      </trkpt>
      <trkpt lat="48.7289640" lon="13.3637870">
        <ele>508.2</ele>
        <time>2019-08-15T07:58:23Z</time>
      </trkpt>
      <trkpt lat="48.7290170" lon="13.3638340">
        <ele>508.2</ele>
        <time>2019-08-15T07:58:24Z</time>
      </trkpt>
      <trkpt lat="48.7290780" lon="13.3638840">
        <ele>508.2</ele>
        <time>2019-08-15T07:58:25Z</time>
      </trkpt>
      <trkpt lat="48.7291410" lon="13.3639440">
        <ele>508.2</ele>
        <time>2019-08-15T07:58:26Z</time>
      </trkpt>
      <trkpt lat="48.7292000" lon="13.3640070">
        <ele>508.2</ele>
        <time>2019-08-15T07:58:27Z</time>
      </trkpt>
      <trkpt lat="48.7292570" lon="13.3640780">
        <ele>508.2</ele>
        <time>2019-08-15T07:58:28Z</time>
      </trkpt>
      <trkpt lat="48.7293130" lon="13.3641480">
        <ele>508.2</ele>
        <time>2019-08-15T07:58:29Z</time>
      </trkpt>
      <trkpt lat="48.7293640" lon="13.3642130">
        <ele>508.2</ele>
        <time>2019-08-15T07:58:30Z</time>
      </trkpt>
      <trkpt lat="48.7294140" lon="13.3642750">
        <ele>508.2</ele>
        <time>2019-08-15T07:58:31Z</time>
      </trkpt>
      <trkpt lat="48.7294610" lon="13.3643390">
        <ele>508.2</ele>
        <time>2019-08-15T07:58:32Z</time>
      </trkpt>
      <trkpt lat="48.7295020" lon="13.3644020">
        <ele>508.2</ele>
        <time>2019-08-15T07:58:33Z</time>
      </trkpt>
      <trkpt lat="48.7295470" lon="13.3644590">
        <ele>508.2</ele>
        <time>2019-08-15T07:58:34Z</time>
      </trkpt>
      <trkpt lat="48.7295950" lon="13.3645110">
        <ele>508.2</ele>
        <time>2019-08-15T07:58:35Z</time>
      </trkpt>
      <trkpt lat="48.7296440" lon="13.3645690">
        <ele>508.2</ele>
        <time>2019-08-15T07:58:36Z</time>
      </trkpt>
      <trkpt lat="48.7296970" lon="13.3646350">
        <ele>508.2</ele>
        <time>2019-08-15T07:58:37Z</time>
      </trkpt>
      <trkpt lat="48.7297480" lon="13.3647110">
        <ele>508.2</ele>
        <time>2019-08-15T07:58:38Z</time>
      </trkpt>
      <trkpt lat="48.7297920" lon="13.3647850">
        <ele>508.2</ele>
        <time>2019-08-15T07:58:39Z</time>
      </trkpt>
      <trkpt lat="48.7298370" lon="13.3648660">
        <ele>508.2</ele>
        <time>2019-08-15T07:58:40Z</time>
      </trkpt>
      <trkpt lat="48.7298880" lon="13.3649600">
        <ele>508.2</ele>
        <time>2019-08-15T07:58:41Z</time>
      </trkpt>
      <trkpt lat="48.7299370" lon="13.3650500">
        <ele>508.4</ele>
        <time>2019-08-15T07:58:42Z</time>
      </trkpt>
      <trkpt lat="48.7299880" lon="13.3651400">
        <ele>508.4</ele>
        <time>2019-08-15T07:58:43Z</time>
      </trkpt>
      <trkpt lat="48.7300390" lon="13.3652190">
        <ele>508.4</ele>
        <time>2019-08-15T07:58:44Z</time>
      </trkpt>
      <trkpt lat="48.7300940" lon="13.3653000">
        <ele>508.4</ele>
        <time>2019-08-15T07:58:45Z</time>
      </trkpt>
      <trkpt lat="48.7301430" lon="13.3653850">
        <ele>508.6</ele>
        <time>2019-08-15T07:58:46Z</time>
      </trkpt>
      <trkpt lat="48.7301880" lon="13.3654710">
        <ele>508.6</ele>
        <time>2019-08-15T07:58:47Z</time>
      </trkpt>
      <trkpt lat="48.7302290" lon="13.3655580">
        <ele>508.6</ele>
        <time>2019-08-15T07:58:48Z</time>
      </trkpt>
      <trkpt lat="48.7302680" lon="13.3656430">
        <ele>508.6</ele>
        <time>2019-08-15T07:58:49Z</time>
      </trkpt>
      <trkpt lat="48.7303040" lon="13.3657250">
        <ele>508.8</ele>
        <time>2019-08-15T07:58:50Z</time>
      </trkpt>
      <trkpt lat="48.7303370" lon="13.3658110">
        <ele>508.8</ele>
        <time>2019-08-15T07:58:51Z</time>
      </trkpt>
      <trkpt lat="48.7303690" lon="13.3658950">
        <ele>509.0</ele>
        <time>2019-08-15T07:58:52Z</time>
      </trkpt>
      <trkpt lat="48.7304000" lon="13.3659780">
        <ele>509.0</ele>
        <time>2019-08-15T07:58:53Z</time>
      </trkpt>
      <trkpt lat="48.7304290" lon="13.3660640">
        <ele>509.0</ele>
        <time>2019-08-15T07:58:54Z</time>
      </trkpt>
      <trkpt lat="48.7304560" lon="13.3661470">
        <ele>509.2</ele>
        <time>2019-08-15T07:58:55Z</time>
      </trkpt>
      <trkpt lat="48.7304860" lon="13.3662340">
        <ele>509.2</ele>
        <time>2019-08-15T07:58:56Z</time>
      </trkpt>
      <trkpt lat="48.7305150" lon="13.3663250">
        <ele>509.2</ele>
        <time>2019-08-15T07:58:57Z</time>
      </trkpt>
      <trkpt lat="48.7305440" lon="13.3664140">
        <ele>509.4</ele>
        <time>2019-08-15T07:58:58Z</time>
      </trkpt>
      <trkpt lat="48.7305730" lon="13.3665020">
        <ele>509.4</ele>
        <time>2019-08-15T07:58:59Z</time>
      </trkpt>
      <trkpt lat="48.7306030" lon="13.3665890">
        <ele>509.6</ele>
        <time>2019-08-15T07:59:00Z</time>
      </trkpt>
      <trkpt lat="48.7306320" lon="13.3666720">
        <ele>509.6</ele>
        <time>2019-08-15T07:59:01Z</time>
      </trkpt>
      <trkpt lat="48.7306560" lon="13.3667530">
        <ele>509.6</ele>
        <time>2019-08-15T07:59:02Z</time>
      </trkpt>
      <trkpt lat="48.7306820" lon="13.3668330">
        <ele>509.6</ele>
        <time>2019-08-15T07:59:03Z</time>
      </trkpt>
      <trkpt lat="48.7307080" lon="13.3669100">
        <ele>509.6</ele>
        <time>2019-08-15T07:59:04Z</time>
      </trkpt>
      <trkpt lat="48.7307320" lon="13.3669900">
        <ele>509.6</ele>
        <time>2019-08-15T07:59:05Z</time>
      </trkpt>
      <trkpt lat="48.7307530" lon="13.3670730">
        <ele>509.8</ele>
        <time>2019-08-15T07:59:06Z</time>
      </trkpt>
      <trkpt lat="48.7307750" lon="13.3671590">
        <ele>509.6</ele>
        <time>2019-08-15T07:59:07Z</time>
      </trkpt>
      <trkpt lat="48.7307940" lon="13.3672460">
        <ele>509.8</ele>
        <time>2019-08-15T07:59:08Z</time>
      </trkpt>
      <trkpt lat="48.7308140" lon="13.3673360">
        <ele>509.8</ele>
        <time>2019-08-15T07:59:09Z</time>
      </trkpt>
      <trkpt lat="48.7308330" lon="13.3674260">
        <ele>509.8</ele>
        <time>2019-08-15T07:59:10Z</time>
      </trkpt>
      <trkpt lat="48.7308500" lon="13.3675160">
        <ele>509.8</ele>
        <time>2019-08-15T07:59:11Z</time>
      </trkpt>
      <trkpt lat="48.7308640" lon="13.3676090">
        <ele>510.0</ele>
        <time>2019-08-15T07:59:12Z</time>
      </trkpt>
      <trkpt lat="48.7308740" lon="13.3677000">
        <ele>510.0</ele>
        <time>2019-08-15T07:59:13Z</time>
      </trkpt>
      <trkpt lat="48.7308800" lon="13.3677900">
        <ele>510.2</ele>
        <time>2019-08-15T07:59:14Z</time>
      </trkpt>
      <trkpt lat="48.7308860" lon="13.3678840">
        <ele>510.2</ele>
        <time>2019-08-15T07:59:15Z</time>
      </trkpt>
      <trkpt lat="48.7308920" lon="13.3679750">
        <ele>510.2</ele>
        <time>2019-08-15T07:59:16Z</time>
      </trkpt>
      <trkpt lat="48.7308960" lon="13.3680660">
        <ele>510.4</ele>
        <time>2019-08-15T07:59:17Z</time>
      </trkpt>
      <trkpt lat="48.7308950" lon="13.3681590">
        <ele>510.4</ele>
        <time>2019-08-15T07:59:18Z</time>
      </trkpt>
      <trkpt lat="48.7308920" lon="13.3682510">
        <ele>510.6</ele>
        <time>2019-08-15T07:59:19Z</time>
      </trkpt>
      <trkpt lat="48.7308890" lon="13.3683450">
        <ele>510.6</ele>
        <time>2019-08-15T07:59:20Z</time>
      </trkpt>
      <trkpt lat="48.7308850" lon="13.3684390">
        <ele>510.6</ele>
        <time>2019-08-15T07:59:21Z</time>
      </trkpt>
      <trkpt lat="48.7308770" lon="13.3685320">
        <ele>510.8</ele>
        <time>2019-08-15T07:59:22Z</time>
      </trkpt>
      <trkpt lat="48.7308660" lon="13.3686210">
        <ele>510.8</ele>
        <time>2019-08-15T07:59:23Z</time>
      </trkpt>
      <trkpt lat="48.7308530" lon="13.3687110">
        <ele>510.8</ele>
        <time>2019-08-15T07:59:24Z</time>
      </trkpt>
      <trkpt lat="48.7308390" lon="13.3688010">
        <ele>510.8</ele>
        <time>2019-08-15T07:59:25Z</time>
      </trkpt>
      <trkpt lat="48.7308220" lon="13.3688910">
        <ele>510.8</ele>
        <time>2019-08-15T07:59:26Z</time>
      </trkpt>
      <trkpt lat="48.7308050" lon="13.3689800">
        <ele>511.0</ele>
        <time>2019-08-15T07:59:27Z</time>
      </trkpt>
      <trkpt lat="48.7307900" lon="13.3690650">
        <ele>511.0</ele>
        <time>2019-08-15T07:59:28Z</time>
      </trkpt>
      <trkpt lat="48.7307780" lon="13.3691470">
        <ele>511.0</ele>
        <time>2019-08-15T07:59:29Z</time>
      </trkpt>
      <trkpt lat="48.7307660" lon="13.3692230">
        <ele>511.0</ele>
        <time>2019-08-15T07:59:30Z</time>
      </trkpt>
      <trkpt lat="48.7307520" lon="13.3693070">
        <ele>511.0</ele>
        <time>2019-08-15T07:59:31Z</time>
      </trkpt>
      <trkpt lat="48.7307340" lon="13.3693970">
        <ele>511.0</ele>
        <time>2019-08-15T07:59:32Z</time>
      </trkpt>
      <trkpt lat="48.7307160" lon="13.3694760">
        <ele>511.0</ele>
        <time>2019-08-15T07:59:33Z</time>
      </trkpt>
      <trkpt lat="48.7306990" lon="13.3695380">
        <ele>510.8</ele>
        <time>2019-08-15T07:59:34Z</time>
      </trkpt>
      <trkpt lat="48.7306870" lon="13.3695910">
        <ele>510.8</ele>
        <time>2019-08-15T07:59:35Z</time>
      </trkpt>
      <trkpt lat="48.7306770" lon="13.3696400">
        <ele>510.8</ele>
        <time>2019-08-15T07:59:36Z</time>
      </trkpt>
      <trkpt lat="48.7306670" lon="13.3696960">
        <ele>510.8</ele>
        <time>2019-08-15T07:59:37Z</time>
      </trkpt>
      <trkpt lat="48.7306570" lon="13.3697540">
        <ele>510.8</ele>
        <time>2019-08-15T07:59:38Z</time>
      </trkpt>
      <trkpt lat="48.7306460" lon="13.3698160">
        <ele>510.8</ele>
        <time>2019-08-15T07:59:39Z</time>
      </trkpt>
      <trkpt lat="48.7306320" lon="13.3698820">
        <ele>510.8</ele>
        <time>2019-08-15T07:59:40Z</time>
      </trkpt>
      <trkpt lat="48.7306180" lon="13.3699490">
        <ele>510.8</ele>
        <time>2019-08-15T07:59:41Z</time>
      </trkpt>
      <trkpt lat="48.7306060" lon="13.3700180">
        <ele>511.0</ele>
        <time>2019-08-15T07:59:42Z</time>
      </trkpt>
      <trkpt lat="48.7305930" lon="13.3700920">
        <ele>511.0</ele>
        <time>2019-08-15T07:59:43Z</time>
      </trkpt>
      <trkpt lat="48.7305770" lon="13.3701680">
        <ele>511.2</ele>
        <time>2019-08-15T07:59:44Z</time>
      </trkpt>
      <trkpt lat="48.7305620" lon="13.3702440">
        <ele>511.2</ele>
        <time>2019-08-15T07:59:45Z</time>
      </trkpt>
      <trkpt lat="48.7305490" lon="13.3703200">
        <ele>511.2</ele>
        <time>2019-08-15T07:59:46Z</time>
      </trkpt>
      <trkpt lat="48.7305380" lon="13.3703940">
        <ele>511.4</ele>
        <time>2019-08-15T07:59:47Z</time>
      </trkpt>
      <trkpt lat="48.7305250" lon="13.3704700">
        <ele>511.4</ele>
        <time>2019-08-15T07:59:48Z</time>
      </trkpt>
      <trkpt lat="48.7305090" lon="13.3705490">
        <ele>511.4</ele>
        <time>2019-08-15T07:59:49Z</time>
      </trkpt>
      <trkpt lat="48.7304950" lon="13.3706290">
        <ele>511.4</ele>
        <time>2019-08-15T07:59:50Z</time>
      </trkpt>
      <trkpt lat="48.7304790" lon="13.3707090">
        <ele>511.4</ele>
        <time>2019-08-15T07:59:51Z</time>
      </trkpt>
      <trkpt lat="48.7304630" lon="13.3707910">
        <ele>511.4</ele>
        <time>2019-08-15T07:59:52Z</time>
      </trkpt>
      <trkpt lat="48.7304540" lon="13.3708700">
        <ele>511.4</ele>
        <time>2019-08-15T07:59:53Z</time>
      </trkpt>
      <trkpt lat="48.7304430" lon="13.3709530">
        <ele>511.4</ele>
        <time>2019-08-15T07:59:54Z</time>
      </trkpt>
      <trkpt lat="48.7304260" lon="13.3710390">
        <ele>511.4</ele>
        <time>2019-08-15T07:59:55Z</time>
      </trkpt>
      <trkpt lat="48.7304090" lon="13.3711240">
        <ele>511.6</ele>
        <time>2019-08-15T07:59:56Z</time>
      </trkpt>
      <trkpt lat="48.7303920" lon="13.3712090">
        <ele>511.6</ele>
        <time>2019-08-15T07:59:57Z</time>
      </trkpt>
      <trkpt lat="48.7303740" lon="13.3712960">
        <ele>511.6</ele>
        <time>2019-08-15T07:59:58Z</time>
      </trkpt>
      <trkpt lat="48.7303570" lon="13.3713830">
        <ele>511.6</ele>
        <time>2019-08-15T07:59:59Z</time>
      </trkpt>
      <trkpt lat="48.7303400" lon="13.3714680">
        <ele>511.6</ele>
        <time>2019-08-15T08:00:00Z</time>
      </trkpt>
      <trkpt lat="48.7303240" lon="13.3715540">
        <ele>511.6</ele>
        <time>2019-08-15T08:00:01Z</time>
      </trkpt>
      <trkpt lat="48.7303070" lon="13.3716390">
        <ele>511.6</ele>
        <time>2019-08-15T08:00:02Z</time>
      </trkpt>
      <trkpt lat="48.7302920" lon="13.3717240">
        <ele>511.6</ele>
        <time>2019-08-15T08:00:03Z</time>
      </trkpt>
      <trkpt lat="48.7302740" lon="13.3718110">
        <ele>511.6</ele>
        <time>2019-08-15T08:00:04Z</time>
      </trkpt>
      <trkpt lat="48.7302570" lon="13.3718970">
        <ele>511.6</ele>
        <time>2019-08-15T08:00:05Z</time>
      </trkpt>
      <trkpt lat="48.7302410" lon="13.3719890">
        <ele>511.6</ele>
        <time>2019-08-15T08:00:06Z</time>
      </trkpt>
      <trkpt lat="48.7302240" lon="13.3720800">
        <ele>511.8</ele>
        <time>2019-08-15T08:00:07Z</time>
      </trkpt>
      <trkpt lat="48.7302070" lon="13.3721700">
        <ele>511.8</ele>
        <time>2019-08-15T08:00:08Z</time>
      </trkpt>
      <trkpt lat="48.7301900" lon="13.3722590">
        <ele>511.8</ele>
        <time>2019-08-15T08:00:09Z</time>
      </trkpt>
      <trkpt lat="48.7301750" lon="13.3723460">
        <ele>511.8</ele>
        <time>2019-08-15T08:00:10Z</time>
      </trkpt>
      <trkpt lat="48.7301630" lon="13.3724310">
        <ele>511.8</ele>
        <time>2019-08-15T08:00:11Z</time>
      </trkpt>
      <trkpt lat="48.7301500" lon="13.3725130">
        <ele>511.8</ele>
        <time>2019-08-15T08:00:12Z</time>
      </trkpt>
      <trkpt lat="48.7301370" lon="13.3725910">
        <ele>511.8</ele>
        <time>2019-08-15T08:00:13Z</time>
      </trkpt>
      <trkpt lat="48.7301220" lon="13.3726680">
        <ele>511.8</ele>
        <time>2019-08-15T08:00:14Z</time>
      </trkpt>
      <trkpt lat="48.7301010" lon="13.3727460">
        <ele>511.8</ele>
        <time>2019-08-15T08:00:15Z</time>
      </trkpt>
      <trkpt lat="48.7300740" lon="13.3728310">
        <ele>511.8</ele>
        <time>2019-08-15T08:00:16Z</time>
      </trkpt>
      <trkpt lat="48.7300490" lon="13.3729140">
        <ele>512.0</ele>
        <time>2019-08-15T08:00:17Z</time>
      </trkpt>
      <trkpt lat="48.7300220" lon="13.3729930">
        <ele>512.0</ele>
        <time>2019-08-15T08:00:18Z</time>
      </trkpt>
      <trkpt lat="48.7299910" lon="13.3730720">
        <ele>512.0</ele>
        <time>2019-08-15T08:00:19Z</time>
      </trkpt>
      <trkpt lat="48.7299620" lon="13.3731530">
        <ele>512.2</ele>
        <time>2019-08-15T08:00:20Z</time>
      </trkpt>
      <trkpt lat="48.7299350" lon="13.3732360">
        <ele>512.4</ele>
        <time>2019-08-15T08:00:21Z</time>
      </trkpt>
      <trkpt lat="48.7299060" lon="13.3733170">
        <ele>512.4</ele>
        <time>2019-08-15T08:00:22Z</time>
      </trkpt>
      <trkpt lat="48.7298740" lon="13.3733930">
        <ele>512.6</ele>
        <time>2019-08-15T08:00:23Z</time>
      </trkpt>
      <trkpt lat="48.7298410" lon="13.3734660">
        <ele>512.6</ele>
        <time>2019-08-15T08:00:24Z</time>
      </trkpt>
      <trkpt lat="48.7298070" lon="13.3735360">
        <ele>512.6</ele>
        <time>2019-08-15T08:00:25Z</time>
      </trkpt>
      <trkpt lat="48.7297740" lon="13.3736020">
        <ele>512.8</ele>
        <time>2019-08-15T08:00:26Z</time>
      </trkpt>
      <trkpt lat="48.7297410" lon="13.3736660">
        <ele>513.0</ele>
        <time>2019-08-15T08:00:27Z</time>
      </trkpt>
      <trkpt lat="48.7297070" lon="13.3737260">
        <ele>513.2</ele>
        <time>2019-08-15T08:00:28Z</time>
      </trkpt>
      <trkpt lat="48.7296740" lon="13.3737840">
        <ele>513.2</ele>
        <time>2019-08-15T08:00:29Z</time>
      </trkpt>
      <trkpt lat="48.7296380" lon="13.3738440">
        <ele>513.4</ele>
        <time>2019-08-15T08:00:30Z</time>
      </trkpt>
      <trkpt lat="48.7296030" lon="13.3738990">
        <ele>513.4</ele>
        <time>2019-08-15T08:00:31Z</time>
      </trkpt>
      <trkpt lat="48.7295690" lon="13.3739580">
        <ele>513.6</ele>
        <time>2019-08-15T08:00:32Z</time>
      </trkpt>
      <trkpt lat="48.7295330" lon="13.3740140">
        <ele>513.6</ele>
        <time>2019-08-15T08:00:33Z</time>
      </trkpt>
      <trkpt lat="48.7295010" lon="13.3740660">
        <ele>513.8</ele>
        <time>2019-08-15T08:00:34Z</time>
      </trkpt>
      <trkpt lat="48.7294700" lon="13.3741130">
        <ele>514.0</ele>
        <time>2019-08-15T08:00:35Z</time>
      </trkpt>
      <trkpt lat="48.7294430" lon="13.3741540">
        <ele>514.0</ele>
        <time>2019-08-15T08:00:36Z</time>
      </trkpt>
      <trkpt lat="48.7294120" lon="13.3741930">
        <ele>514.2</ele>
        <time>2019-08-15T08:00:37Z</time>
      </trkpt>
      <trkpt lat="48.7293740" lon="13.3742310">
        <ele>514.4</ele>
        <time>2019-08-15T08:00:38Z</time>
      </trkpt>
      <trkpt lat="48.7293300" lon="13.3742780">
        <ele>514.6</ele>
        <time>2019-08-15T08:00:39Z</time>
      </trkpt>
      <trkpt lat="48.7292900" lon="13.3743250">
        <ele>514.8</ele>
        <time>2019-08-15T08:00:40Z</time>
      </trkpt>
      <trkpt lat="48.7292580" lon="13.3743660">
        <ele>515.0</ele>
        <time>2019-08-15T08:00:41Z</time>
      </trkpt>
      <trkpt lat="48.7292320" lon="13.3744010">
        <ele>515.0</ele>
        <time>2019-08-15T08:00:42Z</time>
      </trkpt>
      <trkpt lat="48.7291960" lon="13.3744390">
        <ele>515.2</ele>
        <time>2019-08-15T08:00:43Z</time>
      </trkpt>
      <trkpt lat="48.7291550" lon="13.3744710">
        <ele>515.2</ele>
        <time>2019-08-15T08:00:44Z</time>
      </trkpt>
      <trkpt lat="48.7291090" lon="13.3745050">
        <ele>515.4</ele>
        <time>2019-08-15T08:00:45Z</time>
      </trkpt>
      <trkpt lat="48.7290650" lon="13.3745400">
        <ele>515.6</ele>
        <time>2019-08-15T08:00:46Z</time>
      </trkpt>
      <trkpt lat="48.7290190" lon="13.3745750">
        <ele>515.8</ele>
        <time>2019-08-15T08:00:47Z</time>
      </trkpt>
      <trkpt lat="48.7289740" lon="13.3746080">
        <ele>516.0</ele>
        <time>2019-08-15T08:00:48Z</time>
      </trkpt>
      <trkpt lat="48.7289280" lon="13.3746460">
        <ele>516.0</ele>
        <time>2019-08-15T08:00:49Z</time>
      </trkpt>
      <trkpt lat="48.7288840" lon="13.3746870">
        <ele>516.2</ele>
        <time>2019-08-15T08:00:50Z</time>
      </trkpt>
      <trkpt lat="48.7288400" lon="13.3747250">
        <ele>516.2</ele>
        <time>2019-08-15T08:00:51Z</time>
      </trkpt>
      <trkpt lat="48.7287960" lon="13.3747620">
        <ele>516.4</ele>
        <time>2019-08-15T08:00:52Z</time>
      </trkpt>
      <trkpt lat="48.7287500" lon="13.3747970">
        <ele>516.6</ele>
        <time>2019-08-15T08:00:53Z</time>
      </trkpt>
      <trkpt lat="48.7287040" lon="13.3748320">
        <ele>516.6</ele>
        <time>2019-08-15T08:00:54Z</time>
      </trkpt>
      <trkpt lat="48.7286580" lon="13.3748630">
        <ele>516.8</ele>
        <time>2019-08-15T08:00:55Z</time>
      </trkpt>
      <trkpt lat="48.7286130" lon="13.3748890">
        <ele>516.8</ele>
        <time>2019-08-15T08:00:56Z</time>
      </trkpt>
      <trkpt lat="48.7285670" lon="13.3749150">
        <ele>517.0</ele>
        <time>2019-08-15T08:00:57Z</time>
      </trkpt>
      <trkpt lat="48.7285210" lon="13.3749430">
        <ele>517.2</ele>
        <time>2019-08-15T08:00:58Z</time>
      </trkpt>
      <trkpt lat="48.7284740" lon="13.3749760">
        <ele>517.2</ele>
        <time>2019-08-15T08:00:59Z</time>
      </trkpt>
      <trkpt lat="48.7284240" lon="13.3750080">
        <ele>517.4</ele>
        <time>2019-08-15T08:01:00Z</time>
      </trkpt>
      <trkpt lat="48.7283680" lon="13.3750380">
        <ele>517.6</ele>
        <time>2019-08-15T08:01:01Z</time>
      </trkpt>
      <trkpt lat="48.7283150" lon="13.3750660">
        <ele>517.6</ele>
        <time>2019-08-15T08:01:02Z</time>
      </trkpt>
      <trkpt lat="48.7282660" lon="13.3750950">
        <ele>517.8</ele>
        <time>2019-08-15T08:01:03Z</time>
      </trkpt>
      <trkpt lat="48.7282170" lon="13.3751260">
        <ele>518.0</ele>
        <time>2019-08-15T08:01:04Z</time>
      </trkpt>
      <trkpt lat="48.7281710" lon="13.3751580">
        <ele>518.0</ele>
        <time>2019-08-15T08:01:05Z</time>
      </trkpt>
      <trkpt lat="48.7281210" lon="13.3751900">
        <ele>518.2</ele>
        <time>2019-08-15T08:01:06Z</time>
      </trkpt>
      <trkpt lat="48.7280740" lon="13.3752230">
        <ele>518.4</ele>
        <time>2019-08-15T08:01:07Z</time>
      </trkpt>
      <trkpt lat="48.7280280" lon="13.3752560">
        <ele>518.4</ele>
        <time>2019-08-15T08:01:08Z</time>
      </trkpt>
      <trkpt lat="48.7279790" lon="13.3752880">
        <ele>518.6</ele>
        <time>2019-08-15T08:01:09Z</time>
      </trkpt>
      <trkpt lat="48.7279290" lon="13.3753190">
        <ele>518.8</ele>
        <time>2019-08-15T08:01:10Z</time>
      </trkpt>
      <trkpt lat="48.7278770" lon="13.3753480">
        <ele>518.8</ele>
        <time>2019-08-15T08:01:11Z</time>
      </trkpt>
      <trkpt lat="48.7278280" lon="13.3753760">
        <ele>519.0</ele>
        <time>2019-08-15T08:01:12Z</time>
      </trkpt>
      <trkpt lat="48.7277800" lon="13.3754050">
        <ele>519.2</ele>
        <time>2019-08-15T08:01:13Z</time>
      </trkpt>
      <trkpt lat="48.7277320" lon="13.3754350">
        <ele>519.4</ele>
        <time>2019-08-15T08:01:14Z</time>
      </trkpt>
      <trkpt lat="48.7276880" lon="13.3754670">
        <ele>519.4</ele>
        <time>2019-08-15T08:01:15Z</time>
      </trkpt>
      <trkpt lat="48.7276440" lon="13.3755010">
        <ele>519.6</ele>
        <time>2019-08-15T08:01:16Z</time>
      </trkpt>
      <trkpt lat="48.7276010" lon="13.3755340">
        <ele>519.8</ele>
        <time>2019-08-15T08:01:17Z</time>
      </trkpt>
      <trkpt lat="48.7275580" lon="13.3755640">
        <ele>520.0</ele>
        <time>2019-08-15T08:01:18Z</time>
      </trkpt>
      <trkpt lat="48.7275150" lon="13.3755920">
        <ele>520.0</ele>
        <time>2019-08-15T08:01:19Z</time>
      </trkpt>
      <trkpt lat="48.7274740" lon="13.3756180">
        <ele>520.2</ele>
        <time>2019-08-15T08:01:20Z</time>
      </trkpt>
      <trkpt lat="48.7274330" lon="13.3756420">
        <ele>520.4</ele>
        <time>2019-08-15T08:01:21Z</time>
      </trkpt>
      <trkpt lat="48.7273930" lon="13.3756640">
        <ele>520.4</ele>
        <time>2019-08-15T08:01:22Z</time>
      </trkpt>
      <trkpt lat="48.7273540" lon="13.3756920">
        <ele>520.6</ele>
        <time>2019-08-15T08:01:23Z</time>
      </trkpt>
      <trkpt lat="48.7273130" lon="13.3757230">
        <ele>520.8</ele>
        <time>2019-08-15T08:01:24Z</time>
      </trkpt>
      <trkpt lat="48.7272660" lon="13.3757560">
        <ele>520.8</ele>
        <time>2019-08-15T08:01:25Z</time>
      </trkpt>
      <trkpt lat="48.7272200" lon="13.3757910">
        <ele>521.0</ele>
        <time>2019-08-15T08:01:26Z</time>
      </trkpt>
      <trkpt lat="48.7271750" lon="13.3758220">
        <ele>521.2</ele>
        <time>2019-08-15T08:01:27Z</time>
      </trkpt>
      <trkpt lat="48.7271310" lon="13.3758520">
        <ele>521.2</ele>
        <time>2019-08-15T08:01:28Z</time>
      </trkpt>
      <trkpt lat="48.7270870" lon="13.3758840">
        <ele>521.4</ele>
        <time>2019-08-15T08:01:29Z</time>
      </trkpt>
      <trkpt lat="48.7270440" lon="13.3759180">
        <ele>521.6</ele>
        <time>2019-08-15T08:01:30Z</time>
      </trkpt>
      <trkpt lat="48.7270070" lon="13.3759560">
        <ele>521.8</ele>
        <time>2019-08-15T08:01:31Z</time>
      </trkpt>
      <trkpt lat="48.7269700" lon="13.3760000">
        <ele>522.0</ele>
        <time>2019-08-15T08:01:32Z</time>
      </trkpt>
      <trkpt lat="48.7269320" lon="13.3760460">
        <ele>522.2</ele>
        <time>2019-08-15T08:01:33Z</time>
      </trkpt>
      <trkpt lat="48.7268950" lon="13.3760930">
        <ele>522.2</ele>
        <time>2019-08-15T08:01:34Z</time>
      </trkpt>
      <trkpt lat="48.7268570" lon="13.3761370">
        <ele>522.2</ele>
        <time>2019-08-15T08:01:35Z</time>
      </trkpt>
      <trkpt lat="48.7268180" lon="13.3761800">
        <ele>522.4</ele>
        <time>2019-08-15T08:01:36Z</time>
      </trkpt>
      <trkpt lat="48.7267850" lon="13.3762220">
        <ele>522.6</ele>
        <time>2019-08-15T08:01:37Z</time>
      </trkpt>
      <trkpt lat="48.7267550" lon="13.3762660">
        <ele>522.8</ele>
        <time>2019-08-15T08:01:38Z</time>
      </trkpt>
      <trkpt lat="48.7267240" lon="13.3763130">
        <ele>522.8</ele>
        <time>2019-08-15T08:01:39Z</time>
      </trkpt>
      <trkpt lat="48.7266950" lon="13.3763580">
        <ele>523.0</ele>
        <time>2019-08-15T08:01:40Z</time>
      </trkpt>
      <trkpt lat="48.7266650" lon="13.3764090">
        <ele>523.2</ele>
        <time>2019-08-15T08:01:41Z</time>
      </trkpt>
      <trkpt lat="48.7266350" lon="13.3764630">
        <ele>523.2</ele>
        <time>2019-08-15T08:01:42Z</time>
      </trkpt>
      <trkpt lat="48.7266050" lon="13.3765190">
        <ele>523.4</ele>
        <time>2019-08-15T08:01:43Z</time>
      </trkpt>
      <trkpt lat="48.7265770" lon="13.3765750">
        <ele>523.6</ele>
        <time>2019-08-15T08:01:44Z</time>
      </trkpt>
      <trkpt lat="48.7265480" lon="13.3766310">
        <ele>523.8</ele>
        <time>2019-08-15T08:01:45Z</time>
      </trkpt>
      <trkpt lat="48.7265210" lon="13.3766860">
        <ele>524.0</ele>
        <time>2019-08-15T08:01:46Z</time>
      </trkpt>
      <trkpt lat="48.7264970" lon="13.3767400">
        <ele>524.0</ele>
        <time>2019-08-15T08:01:47Z</time>
      </trkpt>
      <trkpt lat="48.7264750" lon="13.3767960">
        <ele>524.2</ele>
        <time>2019-08-15T08:01:48Z</time>
      </trkpt>
      <trkpt lat="48.7264530" lon="13.3768510">
        <ele>524.4</ele>
        <time>2019-08-15T08:01:49Z</time>
      </trkpt>
      <trkpt lat="48.7264330" lon="13.3769070">
        <ele>524.4</ele>
        <time>2019-08-15T08:01:50Z</time>
      </trkpt>
      <trkpt lat="48.7264140" lon="13.3769620">
        <ele>524.6</ele>
        <time>2019-08-15T08:01:51Z</time>
      </trkpt>
      <trkpt lat="48.7263960" lon="13.3770150">
        <ele>524.8</ele>
        <time>2019-08-15T08:01:52Z</time>
      </trkpt>
      <trkpt lat="48.7263760" lon="13.3770660">
        <ele>524.8</ele>
        <time>2019-08-15T08:01:53Z</time>
      </trkpt>
      <trkpt lat="48.7263570" lon="13.3771210">
        <ele>525.0</ele>
        <time>2019-08-15T08:01:54Z</time>
      </trkpt>
      <trkpt lat="48.7263410" lon="13.3771820">
        <ele>525.2</ele>
        <time>2019-08-15T08:01:55Z</time>
      </trkpt>
      <trkpt lat="48.7263290" lon="13.3772470">
        <ele>525.2</ele>
        <time>2019-08-15T08:01:56Z</time>
      </trkpt>
      <trkpt lat="48.7263160" lon="13.3773170">
        <ele>525.4</ele>
        <time>2019-08-15T08:01:57Z</time>
      </trkpt>
      <trkpt lat="48.7263030" lon="13.3773910">
        <ele>525.6</ele>
        <time>2019-08-15T08:01:58Z</time>
      </trkpt>
      <trkpt lat="48.7262900" lon="13.3774680">
        <ele>525.8</ele>
        <time>2019-08-15T08:01:59Z</time>
      </trkpt>
      <trkpt lat="48.7262790" lon="13.3775430">
        <ele>525.8</ele>
        <time>2019-08-15T08:02:00Z</time>
      </trkpt>
      <trkpt lat="48.7262680" lon="13.3776160">
        <ele>526.2</ele>
        <time>2019-08-15T08:02:01Z</time>
      </trkpt>
      <trkpt lat="48.7262550" lon="13.3776890">
        <ele>526.2</ele>
        <time>2019-08-15T08:02:02Z</time>
      </trkpt>
      <trkpt lat="48.7262400" lon="13.3777670">
        <ele>526.4</ele>
        <time>2019-08-15T08:02:03Z</time>
      </trkpt>
      <trkpt lat="48.7262250" lon="13.3778410">
        <ele>526.6</ele>
        <time>2019-08-15T08:02:04Z</time>
      </trkpt>
      <trkpt lat="48.7262150" lon="13.3779200">
        <ele>526.8</ele>
        <time>2019-08-15T08:02:05Z</time>
      </trkpt>
      <trkpt lat="48.7262080" lon="13.3779990">
        <ele>526.8</ele>
        <time>2019-08-15T08:02:06Z</time>
      </trkpt>
      <trkpt lat="48.7262030" lon="13.3780740">
        <ele>527.0</ele>
        <time>2019-08-15T08:02:07Z</time>
      </trkpt>
      <trkpt lat="48.7261990" lon="13.3781500">
        <ele>527.0</ele>
        <time>2019-08-15T08:02:08Z</time>
      </trkpt>
      <trkpt lat="48.7261960" lon="13.3782260">
        <ele>527.2</ele>
        <time>2019-08-15T08:02:09Z</time>
      </trkpt>
      <trkpt lat="48.7261910" lon="13.3783050">
        <ele>527.4</ele>
        <time>2019-08-15T08:02:10Z</time>
      </trkpt>
      <trkpt lat="48.7261850" lon="13.3783810">
        <ele>527.4</ele>
        <time>2019-08-15T08:02:11Z</time>
      </trkpt>
      <trkpt lat="48.7261780" lon="13.3784590">
        <ele>527.4</ele>
        <time>2019-08-15T08:02:12Z</time>
      </trkpt>
      <trkpt lat="48.7261700" lon="13.3785370">
        <ele>527.6</ele>
        <time>2019-08-15T08:02:13Z</time>
      </trkpt>
      <trkpt lat="48.7261620" lon="13.3786160">
        <ele>527.6</ele>
        <time>2019-08-15T08:02:14Z</time>
      </trkpt>
      <trkpt lat="48.7261550" lon="13.3786970">
        <ele>527.6</ele>
        <time>2019-08-15T08:02:15Z</time>
      </trkpt>
      <trkpt lat="48.7261460" lon="13.3787790">
        <ele>527.6</ele>
        <time>2019-08-15T08:02:16Z</time>
      </trkpt>
      <trkpt lat="48.7261370" lon="13.3788590">
        <ele>527.8</ele>
        <time>2019-08-15T08:02:17Z</time>
      </trkpt>
      <trkpt lat="48.7261290" lon="13.3789400">
        <ele>527.8</ele>
        <time>2019-08-15T08:02:18Z</time>
      </trkpt>
      <trkpt lat="48.7261200" lon="13.3790190">
        <ele>528.0</ele>
        <time>2019-08-15T08:02:19Z</time>
      </trkpt>
      <trkpt lat="48.7261090" lon="13.3790970">
        <ele>528.0</ele>
        <time>2019-08-15T08:02:20Z</time>
      </trkpt>
      <trkpt lat="48.7260960" lon="13.3791740">
        <ele>528.2</ele>
        <time>2019-08-15T08:02:21Z</time>
      </trkpt>
      <trkpt lat="48.7260820" lon="13.3792500">
        <ele>528.2</ele>
        <time>2019-08-15T08:02:22Z</time>
      </trkpt>
      <trkpt lat="48.7260640" lon="13.3793240">
        <ele>528.2</ele>
        <time>2019-08-15T08:02:23Z</time>
      </trkpt>
      <trkpt lat="48.7260420" lon="13.3793990">
        <ele>528.2</ele>
        <time>2019-08-15T08:02:24Z</time>
      </trkpt>
      <trkpt lat="48.7260240" lon="13.3794790">
        <ele>528.4</ele>
        <time>2019-08-15T08:02:25Z</time>
      </trkpt>
      <trkpt lat="48.7260100" lon="13.3795620">
        <ele>528.4</ele>
        <time>2019-08-15T08:02:26Z</time>
      </trkpt>
      <trkpt lat="48.7260020" lon="13.3796470">
        <ele>528.2</ele>
        <time>2019-08-15T08:02:27Z</time>
      </trkpt>
      <trkpt lat="48.7259960" lon="13.3797360">
        <ele>528.2</ele>
        <time>2019-08-15T08:02:28Z</time>
      </trkpt>
      <trkpt lat="48.7259920" lon="13.3798250">
        <ele>528.2</ele>
        <time>2019-08-15T08:02:29Z</time>
      </trkpt>
      <trkpt lat="48.7259880" lon="13.3799160">
        <ele>528.4</ele>
        <time>2019-08-15T08:02:30Z</time>
      </trkpt>
      <trkpt lat="48.7259850" lon="13.3800050">
        <ele>528.4</ele>
        <time>2019-08-15T08:02:31Z</time>
      </trkpt>
      <trkpt lat="48.7259840" lon="13.3800930">
        <ele>528.4</ele>
        <time>2019-08-15T08:02:32Z</time>
      </trkpt>
      <trkpt lat="48.7259800" lon="13.3801810">
        <ele>528.4</ele>
        <time>2019-08-15T08:02:33Z</time>
      </trkpt>
      <trkpt lat="48.7259730" lon="13.3802690">
        <ele>528.4</ele>
        <time>2019-08-15T08:02:34Z</time>
      </trkpt>
      <trkpt lat="48.7259670" lon="13.3803610">
        <ele>528.4</ele>
        <time>2019-08-15T08:02:35Z</time>
      </trkpt>
      <trkpt lat="48.7259610" lon="13.3804480">
        <ele>528.4</ele>
        <time>2019-08-15T08:02:36Z</time>
      </trkpt>
      <trkpt lat="48.7259560" lon="13.3805380">
        <ele>528.4</ele>
        <time>2019-08-15T08:02:37Z</time>
      </trkpt>
      <trkpt lat="48.7259510" lon="13.3806280">
        <ele>528.4</ele>
        <time>2019-08-15T08:02:38Z</time>
      </trkpt>
      <trkpt lat="48.7259460" lon="13.3807180">
        <ele>528.4</ele>
        <time>2019-08-15T08:02:39Z</time>
      </trkpt>
      <trkpt lat="48.7259400" lon="13.3808100">
        <ele>528.4</ele>
        <time>2019-08-15T08:02:40Z</time>
      </trkpt>
      <trkpt lat="48.7259340" lon="13.3809030">
        <ele>528.6</ele>
        <time>2019-08-15T08:02:41Z</time>
      </trkpt>
      <trkpt lat="48.7259300" lon="13.3809940">
        <ele>528.6</ele>
        <time>2019-08-15T08:02:42Z</time>
      </trkpt>
      <trkpt lat="48.7259260" lon="13.3810880">
        <ele>528.6</ele>
        <time>2019-08-15T08:02:43Z</time>
      </trkpt>
      <trkpt lat="48.7259240" lon="13.3811790">
        <ele>528.6</ele>
        <time>2019-08-15T08:02:44Z</time>
      </trkpt>
      <trkpt lat="48.7259250" lon="13.3812700">
        <ele>528.6</ele>
        <time>2019-08-15T08:02:45Z</time>
      </trkpt>
      <trkpt lat="48.7259280" lon="13.3813570">
        <ele>528.6</ele>
        <time>2019-08-15T08:02:46Z</time>
      </trkpt>
      <trkpt lat="48.7259310" lon="13.3814440">
        <ele>528.6</ele>
        <time>2019-08-15T08:02:47Z</time>
      </trkpt>
      <trkpt lat="48.7259320" lon="13.3815300">
        <ele>528.8</ele>
        <time>2019-08-15T08:02:48Z</time>
      </trkpt>
      <trkpt lat="48.7259300" lon="13.3816140">
        <ele>528.6</ele>
        <time>2019-08-15T08:02:49Z</time>
      </trkpt>
      <trkpt lat="48.7259270" lon="13.3817010">
        <ele>528.6</ele>
        <time>2019-08-15T08:02:50Z</time>
      </trkpt>
      <trkpt lat="48.7259240" lon="13.3817900">
        <ele>528.6</ele>
        <time>2019-08-15T08:02:51Z</time>
      </trkpt>
      <trkpt lat="48.7259210" lon="13.3818780">
        <ele>528.6</ele>
        <time>2019-08-15T08:02:52Z</time>
      </trkpt>
      <trkpt lat="48.7259150" lon="13.3819640">
        <ele>528.6</ele>
        <time>2019-08-15T08:02:53Z</time>
      </trkpt>
      <trkpt lat="48.7259080" lon="13.3820500">
        <ele>528.6</ele>
        <time>2019-08-15T08:02:54Z</time>
      </trkpt>
      <trkpt lat="48.7258990" lon="13.3821370">
        <ele>528.6</ele>
        <time>2019-08-15T08:02:55Z</time>
      </trkpt>
      <trkpt lat="48.7258880" lon="13.3822220">
        <ele>528.6</ele>
        <time>2019-08-15T08:02:56Z</time>
      </trkpt>
      <trkpt lat="48.7258770" lon="13.3823050">
        <ele>528.6</ele>
        <time>2019-08-15T08:02:57Z</time>
      </trkpt>
      <trkpt lat="48.7258660" lon="13.3823860">
        <ele>528.6</ele>
        <time>2019-08-15T08:02:58Z</time>
      </trkpt>
      <trkpt lat="48.7258540" lon="13.3824610">
        <ele>528.4</ele>
        <time>2019-08-15T08:02:59Z</time>
      </trkpt>
      <trkpt lat="48.7258420" lon="13.3825330">
        <ele>528.4</ele>
        <time>2019-08-15T08:03:00Z</time>
      </trkpt>
      <trkpt lat="48.7258300" lon="13.3825950">
        <ele>528.4</ele>
        <time>2019-08-15T08:03:01Z</time>
      </trkpt>
      <trkpt lat="48.7258230" lon="13.3826470">
        <ele>528.4</ele>
        <time>2019-08-15T08:03:02Z</time>
      </trkpt>
      <trkpt lat="48.7258200" lon="13.3826870">
        <ele>528.4</ele>
        <time>2019-08-15T08:03:03Z</time>
      </trkpt>
      <trkpt lat="48.7258200" lon="13.3827130">
        <ele>528.4</ele>
        <time>2019-08-15T08:03:04Z</time>
      </trkpt>
      <trkpt lat="48.7258190" lon="13.3827270">
        <ele>528.4</ele>
        <time>2019-08-15T08:03:05Z</time>
      </trkpt>
      <trkpt lat="48.7258200" lon="13.3827370">
        <ele>528.4</ele>
        <time>2019-08-15T08:03:06Z</time>
      </trkpt>
      <trkpt lat="48.7258200" lon="13.3827380">
        <ele>528.4</ele>
        <time>2019-08-15T08:03:07Z</time>
      </trkpt>
      <trkpt lat="48.7258200" lon="13.3827380">
        <ele>528.4</ele>
        <time>2019-08-15T08:03:08Z</time>
      </trkpt>
      <trkpt lat="48.7258200" lon="13.3827380">
        <ele>528.4</ele>
        <time>2019-08-15T08:03:09Z</time>
      </trkpt>
      <trkpt lat="48.7258200" lon="13.3827380">
        <ele>528.4</ele>
        <time>2019-08-15T08:03:23Z</time>
      </trkpt>
      <trkpt lat="48.7258200" lon="13.3827380">
        <ele>528.4</ele>
        <time>2019-08-15T08:03:24Z</time>
      </trkpt>
      <trkpt lat="48.7258210" lon="13.3827680">
        <ele>528.4</ele>
        <time>2019-08-15T08:03:25Z</time>
      </trkpt>
      <trkpt lat="48.7258160" lon="13.3827920">
        <ele>528.4</ele>
        <time>2019-08-15T08:03:26Z</time>
      </trkpt>
      <trkpt lat="48.7258030" lon="13.3828120">
        <ele>528.4</ele>
        <time>2019-08-15T08:03:27Z</time>
      </trkpt>
      <trkpt lat="48.7257870" lon="13.3828350">
        <ele>528.4</ele>
        <time>2019-08-15T08:03:28Z</time>
      </trkpt>
      <trkpt lat="48.7257720" lon="13.3828670">
        <ele>528.4</ele>
        <time>2019-08-15T08:03:29Z</time>
      </trkpt>
      <trkpt lat="48.7257630" lon="13.3829050">
        <ele>528.4</ele>
        <time>2019-08-15T08:03:30Z</time>
      </trkpt>
      <trkpt lat="48.7257580" lon="13.3829480">
        <ele>528.4</ele>
        <time>2019-08-15T08:03:31Z</time>
      </trkpt>
      <trkpt lat="48.7257480" lon="13.3829890">
        <ele>528.4</ele>
        <time>2019-08-15T08:03:32Z</time>
      </trkpt>
      <trkpt lat="48.7257290" lon="13.3830270">
        <ele>528.6</ele>
        <time>2019-08-15T08:03:33Z</time>
      </trkpt>
      <trkpt lat="48.7257070" lon="13.3830670">
        <ele>528.6</ele>
        <time>2019-08-15T08:03:34Z</time>
      </trkpt>
      <trkpt lat="48.7256850" lon="13.3831150">
        <ele>528.6</ele>
        <time>2019-08-15T08:03:35Z</time>
      </trkpt>
      <trkpt lat="48.7256630" lon="13.3831680">
        <ele>528.8</ele>
        <time>2019-08-15T08:03:36Z</time>
      </trkpt>
      <trkpt lat="48.7256420" lon="13.3832230">
        <ele>528.8</ele>
        <time>2019-08-15T08:03:37Z</time>
      </trkpt>
      <trkpt lat="48.7256210" lon="13.3832760">
        <ele>528.8</ele>
        <time>2019-08-15T08:03:38Z</time>
      </trkpt>
      <trkpt lat="48.7255960" lon="13.3833290">
        <ele>529.0</ele>
        <time>2019-08-15T08:03:39Z</time>
      </trkpt>
      <trkpt lat="48.7255690" lon="13.3833820">
        <ele>529.0</ele>
        <time>2019-08-15T08:03:40Z</time>
      </trkpt>
      <trkpt lat="48.7255410" lon="13.3834390">
        <ele>529.0</ele>
        <time>2019-08-15T08:03:41Z</time>
      </trkpt>
      <trkpt lat="48.7255120" lon="13.3834980">
        <ele>529.0</ele>
        <time>2019-08-15T08:03:42Z</time>
      </trkpt>
      <trkpt lat="48.7254810" lon="13.3835540">
        <ele>529.2</ele>
        <time>2019-08-15T08:03:43Z</time>
      </trkpt>
      <trkpt lat="48.7254490" lon="13.3836090">
        <ele>529.2</ele>
        <time>2019-08-15T08:03:44Z</time>
      </trkpt>
      <trkpt lat="48.7254130" lon="13.3836640">
        <ele>529.2</ele>
        <time>2019-08-15T08:03:45Z</time>
      </trkpt>
      <trkpt lat="48.7253720" lon="13.3837160">
        <ele>529.2</ele>
        <time>2019-08-15T08:03:46Z</time>
      </trkpt>
      <trkpt lat="48.7253310" lon="13.3837670">
        <ele>529.2</ele>
        <time>2019-08-15T08:03:47Z</time>
      </trkpt>
      <trkpt lat="48.7252890" lon="13.3838180">
        <ele>529.4</ele>
        <time>2019-08-15T08:03:48Z</time>
      </trkpt>
      <trkpt lat="48.7252480" lon="13.3838710">
        <ele>529.4</ele>
        <time>2019-08-15T08:03:49Z</time>
      </trkpt>
      <trkpt lat="48.7252050" lon="13.3839230">
        <ele>529.4</ele>
        <time>2019-08-15T08:03:50Z</time>
      </trkpt>
      <trkpt lat="48.7251620" lon="13.3839750">
        <ele>529.4</ele>
        <time>2019-08-15T08:03:51Z</time>
      </trkpt>
      <trkpt lat="48.7251150" lon="13.3840270">
        <ele>529.4</ele>
        <time>2019-08-15T08:03:52Z</time>
      </trkpt>
      <trkpt lat="48.7250690" lon="13.3840770">
        <ele>529.4</ele>
        <time>2019-08-15T08:03:53Z</time>
      </trkpt>
      <trkpt lat="48.7250180" lon="13.3841240">
        <ele>529.4</ele>
        <time>2019-08-15T08:03:54Z</time>
      </trkpt>
      <trkpt lat="48.7249670" lon="13.3841700">
        <ele>529.4</ele>
        <time>2019-08-15T08:03:55Z</time>
      </trkpt>
      <trkpt lat="48.7249170" lon="13.3842190">
        <ele>529.4</ele>
        <time>2019-08-15T08:03:56Z</time>
      </trkpt>
      <trkpt lat="48.7248660" lon="13.3842670">
        <ele>529.6</ele>
        <time>2019-08-15T08:03:57Z</time>
      </trkpt>
      <trkpt lat="48.7248190" lon="13.3843180">
        <ele>529.6</ele>
        <time>2019-08-15T08:03:58Z</time>
      </trkpt>
      <trkpt lat="48.7247720" lon="13.3843710">
        <ele>529.4</ele>
        <time>2019-08-15T08:03:59Z</time>
      </trkpt>
      <trkpt lat="48.7247250" lon="13.3844220">
        <ele>529.4</ele>
        <time>2019-08-15T08:04:00Z</time>
      </trkpt>
      <trkpt lat="48.7246780" lon="13.3844700">
        <ele>529.6</ele>
        <time>2019-08-15T08:04:01Z</time>
      </trkpt>
      <trkpt lat="48.7246280" lon="13.3845220">
        <ele>529.4</ele>
        <time>2019-08-15T08:04:02Z</time>
      </trkpt>
      <trkpt lat="48.7245750" lon="13.3845730">
        <ele>529.6</ele>
        <time>2019-08-15T08:04:03Z</time>
      </trkpt>
      <trkpt lat="48.7245200" lon="13.3846260">
        <ele>529.6</ele>
        <time>2019-08-15T08:04:04Z</time>
      </trkpt>
      <trkpt lat="48.7244680" lon="13.3846770">
        <ele>529.6</ele>
        <time>2019-08-15T08:04:05Z</time>
      </trkpt>
      <trkpt lat="48.7244160" lon="13.3847260">
        <ele>529.6</ele>
        <time>2019-08-15T08:04:06Z</time>
      </trkpt>
      <trkpt lat="48.7243640" lon="13.3847770">
        <ele>529.6</ele>
        <time>2019-08-15T08:04:07Z</time>
      </trkpt>
      <trkpt lat="48.7243120" lon="13.3848310">
        <ele>529.4</ele>
        <time>2019-08-15T08:04:08Z</time>
      </trkpt>
      <trkpt lat="48.7242600" lon="13.3848840">
        <ele>529.4</ele>
        <time>2019-08-15T08:04:09Z</time>
      </trkpt>
      <trkpt lat="48.7242060" lon="13.3849350">
        <ele>529.4</ele>
        <time>2019-08-15T08:04:10Z</time>
      </trkpt>
      <trkpt lat="48.7241520" lon="13.3849910">
        <ele>529.2</ele>
        <time>2019-08-15T08:04:11Z</time>
      </trkpt>
      <trkpt lat="48.7240990" lon="13.3850470">
        <ele>529.2</ele>
        <time>2019-08-15T08:04:12Z</time>
      </trkpt>
      <trkpt lat="48.7240430" lon="13.3850970">
        <ele>529.2</ele>
        <time>2019-08-15T08:04:13Z</time>
      </trkpt>
      <trkpt lat="48.7239860" lon="13.3851450">
        <ele>529.2</ele>
        <time>2019-08-15T08:04:14Z</time>
      </trkpt>
      <trkpt lat="48.7239310" lon="13.3851930">
        <ele>529.0</ele>
        <time>2019-08-15T08:04:15Z</time>
      </trkpt>
      <trkpt lat="48.7238730" lon="13.3852400">
        <ele>529.0</ele>
        <time>2019-08-15T08:04:16Z</time>
      </trkpt>
      <trkpt lat="48.7238170" lon="13.3852850">
        <ele>529.0</ele>
        <time>2019-08-15T08:04:17Z</time>
      </trkpt>
      <trkpt lat="48.7237600" lon="13.3853290">
        <ele>529.0</ele>
        <time>2019-08-15T08:04:18Z</time>
      </trkpt>
      <trkpt lat="48.7237030" lon="13.3853720">
        <ele>529.0</ele>
        <time>2019-08-15T08:04:19Z</time>
      </trkpt>
      <trkpt lat="48.7236470" lon="13.3854150">
        <ele>528.8</ele>
        <time>2019-08-15T08:04:20Z</time>
      </trkpt>
      <trkpt lat="48.7235890" lon="13.3854550">
        <ele>528.8</ele>
        <time>2019-08-15T08:04:21Z</time>
      </trkpt>
      <trkpt lat="48.7235300" lon="13.3854950">
        <ele>528.8</ele>
        <time>2019-08-15T08:04:22Z</time>
      </trkpt>
      <trkpt lat="48.7234710" lon="13.3855310">
        <ele>528.8</ele>
        <time>2019-08-15T08:04:23Z</time>
      </trkpt>
      <trkpt lat="48.7234110" lon="13.3855690">
        <ele>528.8</ele>
        <time>2019-08-15T08:04:24Z</time>
      </trkpt>
      <trkpt lat="48.7233510" lon="13.3856080">
        <ele>528.8</ele>
        <time>2019-08-15T08:04:25Z</time>
      </trkpt>
      <trkpt lat="48.7232910" lon="13.3856460">
        <ele>528.6</ele>
        <time>2019-08-15T08:04:26Z</time>
      </trkpt>
      <trkpt lat="48.7232320" lon="13.3856830">
        <ele>528.6</ele>
        <time>2019-08-15T08:04:27Z</time>
      </trkpt>
      <trkpt lat="48.7231720" lon="13.3857190">
        <ele>528.4</ele>
        <time>2019-08-15T08:04:28Z</time>
      </trkpt>
      <trkpt lat="48.7231110" lon="13.3857540">
        <ele>528.2</ele>
        <time>2019-08-15T08:04:29Z</time>
      </trkpt>
      <trkpt lat="48.7230480" lon="13.3857900">
        <ele>528.2</ele>
        <time>2019-08-15T08:04:30Z</time>
      </trkpt>
      <trkpt lat="48.7229860" lon="13.3858270">
        <ele>528.0</ele>
        <time>2019-08-15T08:04:31Z</time>
      </trkpt>
      <trkpt lat="48.7229220" lon="13.3858640">
        <ele>528.0</ele>
        <time>2019-08-15T08:04:32Z</time>
      </trkpt>
      <trkpt lat="48.7228560" lon="13.3859000">
        <ele>527.8</ele>
        <time>2019-08-15T08:04:33Z</time>
      </trkpt>
      <trkpt lat="48.7227900" lon="13.3859380">
        <ele>527.8</ele>
        <time>2019-08-15T08:04:34Z</time>
      </trkpt>
      <trkpt lat="48.7227230" lon="13.3859800">
        <ele>527.6</ele>
        <time>2019-08-15T08:04:35Z</time>
      </trkpt>
      <trkpt lat="48.7226580" lon="13.3860250">
        <ele>527.6</ele>
        <time>2019-08-15T08:04:36Z</time>
      </trkpt>
      <trkpt lat="48.7225920" lon="13.3860700">
        <ele>527.4</ele>
        <time>2019-08-15T08:04:37Z</time>
      </trkpt>
      <trkpt lat="48.7225270" lon="13.3861180">
        <ele>527.4</ele>
        <time>2019-08-15T08:04:38Z</time>
      </trkpt>
      <trkpt lat="48.7224630" lon="13.3861700">
        <ele>527.4</ele>
        <time>2019-08-15T08:04:39Z</time>
      </trkpt>
      <trkpt lat="48.7224020" lon="13.3862250">
        <ele>527.2</ele>
        <time>2019-08-15T08:04:40Z</time>
      </trkpt>
      <trkpt lat="48.7223420" lon="13.3862830">
        <ele>527.2</ele>
        <time>2019-08-15T08:04:41Z</time>
      </trkpt>
      <trkpt lat="48.7222830" lon="13.3863430">
        <ele>527.0</ele>
        <time>2019-08-15T08:04:42Z</time>
      </trkpt>
      <trkpt lat="48.7222250" lon="13.3864080">
        <ele>527.0</ele>
        <time>2019-08-15T08:04:43Z</time>
      </trkpt>
      <trkpt lat="48.7221660" lon="13.3864760">
        <ele>526.8</ele>
        <time>2019-08-15T08:04:44Z</time>
      </trkpt>
      <trkpt lat="48.7221080" lon="13.3865420">
        <ele>526.8</ele>
        <time>2019-08-15T08:04:45Z</time>
      </trkpt>
      <trkpt lat="48.7220500" lon="13.3866090">
        <ele>526.6</ele>
        <time>2019-08-15T08:04:46Z</time>
      </trkpt>
      <trkpt lat="48.7219940" lon="13.3866840">
        <ele>526.4</ele>
        <time>2019-08-15T08:04:47Z</time>
      </trkpt>
      <trkpt lat="48.7219400" lon="13.3867630">
        <ele>526.4</ele>
        <time>2019-08-15T08:04:48Z</time>
      </trkpt>
      <trkpt lat="48.7218880" lon="13.3868450">
        <ele>526.2</ele>
        <time>2019-08-15T08:04:49Z</time>
      </trkpt>
      <trkpt lat="48.7218370" lon="13.3869300">
        <ele>526.0</ele>
        <time>2019-08-15T08:04:50Z</time>
      </trkpt>
      <trkpt lat="48.7217890" lon="13.3870170">
        <ele>526.0</ele>
        <time>2019-08-15T08:04:51Z</time>
      </trkpt>
      <trkpt lat="48.7217420" lon="13.3871090">
        <ele>525.8</ele>
        <time>2019-08-15T08:04:52Z</time>
      </trkpt>
      <trkpt lat="48.7216970" lon="13.3872000">
        <ele>525.6</ele>
        <time>2019-08-15T08:04:53Z</time>
      </trkpt>
      <trkpt lat="48.7216530" lon="13.3872950">
        <ele>525.6</ele>
        <time>2019-08-15T08:04:54Z</time>
      </trkpt>
      <trkpt lat="48.7216120" lon="13.3873930">
        <ele>525.4</ele>
        <time>2019-08-15T08:04:55Z</time>
      </trkpt>
      <trkpt lat="48.7215750" lon="13.3874940">
        <ele>525.2</ele>
        <time>2019-08-15T08:04:56Z</time>
      </trkpt>
      <trkpt lat="48.7215380" lon="13.3875950">
        <ele>525.2</ele>
        <time>2019-08-15T08:04:57Z</time>
      </trkpt>
      <trkpt lat="48.7215050" lon="13.3876990">
        <ele>525.0</ele>
        <time>2019-08-15T08:04:58Z</time>
      </trkpt>
      <trkpt lat="48.7214780" lon="13.3878040">
        <ele>525.0</ele>
        <time>2019-08-15T08:04:59Z</time>
      </trkpt>
      <trkpt lat="48.7214510" lon="13.3879090">
        <ele>524.8</ele>
        <time>2019-08-15T08:05:00Z</time>
      </trkpt>
      <trkpt lat="48.7214250" lon="13.3880150">
        <ele>524.8</ele>
        <time>2019-08-15T08:05:01Z</time>
      </trkpt>
      <trkpt lat="48.7213980" lon="13.3881200">
        <ele>524.6</ele>
        <time>2019-08-15T08:05:02Z</time>
      </trkpt>
      <trkpt lat="48.7213720" lon="13.3882290">
        <ele>524.6</ele>
        <time>2019-08-15T08:05:03Z</time>
      </trkpt>
      <trkpt lat="48.7213490" lon="13.3883370">
        <ele>524.4</ele>
        <time>2019-08-15T08:05:04Z</time>
      </trkpt>
      <trkpt lat="48.7213280" lon="13.3884490">
        <ele>524.4</ele>
        <time>2019-08-15T08:05:05Z</time>
      </trkpt>
      <trkpt lat="48.7213080" lon="13.3885630">
        <ele>524.4</ele>
        <time>2019-08-15T08:05:06Z</time>
      </trkpt>
      <trkpt lat="48.7212870" lon="13.3886760">
        <ele>524.2</ele>
        <time>2019-08-15T08:05:07Z</time>
      </trkpt>
      <trkpt lat="48.7212610" lon="13.3887870">
        <ele>524.2</ele>
        <time>2019-08-15T08:05:08Z</time>
      </trkpt>
      <trkpt lat="48.7212340" lon="13.3888990">
        <ele>524.0</ele>
        <time>2019-08-15T08:05:09Z</time>
      </trkpt>
      <trkpt lat="48.7212070" lon="13.3890090">
        <ele>524.0</ele>
        <time>2019-08-15T08:05:10Z</time>
      </trkpt>
      <trkpt lat="48.7211740" lon="13.3891190">
        <ele>523.8</ele>
        <time>2019-08-15T08:05:11Z</time>
      </trkpt>
      <trkpt lat="48.7211370" lon="13.3892240">
        <ele>523.6</ele>
        <time>2019-08-15T08:05:12Z</time>
      </trkpt>
      <trkpt lat="48.7210960" lon="13.3893270">
        <ele>523.6</ele>
        <time>2019-08-15T08:05:13Z</time>
      </trkpt>
      <trkpt lat="48.7210520" lon="13.3894280">
        <ele>523.6</ele>
        <time>2019-08-15T08:05:14Z</time>
      </trkpt>
      <trkpt lat="48.7210060" lon="13.3895250">
        <ele>523.4</ele>
        <time>2019-08-15T08:05:15Z</time>
      </trkpt>
      <trkpt lat="48.7209590" lon="13.3896220">
        <ele>523.2</ele>
        <time>2019-08-15T08:05:16Z</time>
      </trkpt>
      <trkpt lat="48.7209080" lon="13.3897140">
        <ele>523.2</ele>
        <time>2019-08-15T08:05:17Z</time>
      </trkpt>
      <trkpt lat="48.7208570" lon="13.3898020">
        <ele>523.0</ele>
        <time>2019-08-15T08:05:18Z</time>
      </trkpt>
      <trkpt lat="48.7208000" lon="13.3898930">
        <ele>523.0</ele>
        <time>2019-08-15T08:05:19Z</time>
      </trkpt>
      <trkpt lat="48.7207390" lon="13.3899740">
        <ele>522.8</ele>
        <time>2019-08-15T08:05:20Z</time>
      </trkpt>
      <trkpt lat="48.7206760" lon="13.3900480">
        <ele>522.6</ele>
        <time>2019-08-15T08:05:21Z</time>
      </trkpt>
      <trkpt lat="48.7206110" lon="13.3901210">
        <ele>522.6</ele>
        <time>2019-08-15T08:05:22Z</time>
      </trkpt>
      <trkpt lat="48.7205460" lon="13.3901940">
        <ele>522.4</ele>
        <time>2019-08-15T08:05:23Z</time>
      </trkpt>
      <trkpt lat="48.7204810" lon="13.3902640">
        <ele>522.6</ele>
        <time>2019-08-15T08:05:24Z</time>
      </trkpt>
      <trkpt lat="48.7204150" lon="13.3903310">
        <ele>522.6</ele>
        <time>2019-08-15T08:05:25Z</time>
      </trkpt>
      <trkpt lat="48.7203470" lon="13.3904000">
        <ele>522.6</ele>
        <time>2019-08-15T08:05:26Z</time>
      </trkpt>
      <trkpt lat="48.7202810" lon="13.3904690">
        <ele>522.6</ele>
        <time>2019-08-15T08:05:27Z</time>
      </trkpt>
      <trkpt lat="48.7202170" lon="13.3905370">
        <ele>522.4</ele>
        <time>2019-08-15T08:05:28Z</time>
      </trkpt>
      <trkpt lat="48.7201530" lon="13.3906050">
        <ele>522.2</ele>
        <time>2019-08-15T08:05:29Z</time>
      </trkpt>
      <trkpt lat="48.7200890" lon="13.3906760">
        <ele>522.0</ele>
        <time>2019-08-15T08:05:30Z</time>
      </trkpt>
      <trkpt lat="48.7200250" lon="13.3907450">
        <ele>522.0</ele>
        <time>2019-08-15T08:05:31Z</time>
      </trkpt>
      <trkpt lat="48.7199600" lon="13.3908160">
        <ele>522.0</ele>
        <time>2019-08-15T08:05:32Z</time>
      </trkpt>
      <trkpt lat="48.7198960" lon="13.3908830">
        <ele>522.0</ele>
        <time>2019-08-15T08:05:33Z</time>
      </trkpt>
      <trkpt lat="48.7198320" lon="13.3909510">
        <ele>522.0</ele>
        <time>2019-08-15T08:05:34Z</time>
      </trkpt>
      <trkpt lat="48.7197650" lon="13.3910190">
        <ele>522.0</ele>
        <time>2019-08-15T08:05:35Z</time>
      </trkpt>
      <trkpt lat="48.7196980" lon="13.3910870">
        <ele>522.0</ele>
        <time>2019-08-15T08:05:36Z</time>
      </trkpt>
      <trkpt lat="48.7196330" lon="13.3911530">
        <ele>521.8</ele>
        <time>2019-08-15T08:05:37Z</time>
      </trkpt>
      <trkpt lat="48.7195670" lon="13.3912180">
        <ele>521.8</ele>
        <time>2019-08-15T08:05:38Z</time>
      </trkpt>
      <trkpt lat="48.7195000" lon="13.3912840">
        <ele>521.6</ele>
        <time>2019-08-15T08:05:39Z</time>
      </trkpt>
      <trkpt lat="48.7194320" lon="13.3913500">
        <ele>521.2</ele>
        <time>2019-08-15T08:05:40Z</time>
      </trkpt>
      <trkpt lat="48.7193650" lon="13.3914180">
        <ele>521.0</ele>
        <time>2019-08-15T08:05:41Z</time>
      </trkpt>
      <trkpt lat="48.7192990" lon="13.3914860">
        <ele>520.8</ele>
        <time>2019-08-15T08:05:42Z</time>
      </trkpt>
      <trkpt lat="48.7192320" lon="13.3915500">
        <ele>520.4</ele>
        <time>2019-08-15T08:05:43Z</time>
      </trkpt>
      <trkpt lat="48.7191620" lon="13.3916130">
        <ele>520.2</ele>
        <time>2019-08-15T08:05:44Z</time>
      </trkpt>
      <trkpt lat="48.7190940" lon="13.3916700">
        <ele>520.2</ele>
        <time>2019-08-15T08:05:45Z</time>
      </trkpt>
      <trkpt lat="48.7190230" lon="13.3917260">
        <ele>520.0</ele>
        <time>2019-08-15T08:05:46Z</time>
      </trkpt>
      <trkpt lat="48.7189500" lon="13.3917770">
        <ele>519.8</ele>
        <time>2019-08-15T08:05:47Z</time>
      </trkpt>
      <trkpt lat="48.7188780" lon="13.3918250">
        <ele>519.8</ele>
        <time>2019-08-15T08:05:48Z</time>
      </trkpt>
      <trkpt lat="48.7188040" lon="13.3918670">
        <ele>519.8</ele>
        <time>2019-08-15T08:05:49Z</time>
      </trkpt>
      <trkpt lat="48.7187300" lon="13.3919060">
        <ele>519.8</ele>
        <time>2019-08-15T08:05:50Z</time>
      </trkpt>
      <trkpt lat="48.7186550" lon="13.3919450">
        <ele>519.6</ele>
        <time>2019-08-15T08:05:51Z</time>
      </trkpt>
      <trkpt lat="48.7185820" lon="13.3919810">
        <ele>519.6</ele>
        <time>2019-08-15T08:05:52Z</time>
      </trkpt>
      <trkpt lat="48.7185070" lon="13.3920180">
        <ele>519.6</ele>
        <time>2019-08-15T08:05:53Z</time>
      </trkpt>
      <trkpt lat="48.7184330" lon="13.3920530">
        <ele>519.6</ele>
        <time>2019-08-15T08:05:54Z</time>
      </trkpt>
      <trkpt lat="48.7183590" lon="13.3920900">
        <ele>519.4</ele>
        <time>2019-08-15T08:05:55Z</time>
      </trkpt>
      <trkpt lat="48.7182860" lon="13.3921280">
        <ele>519.4</ele>
        <time>2019-08-15T08:05:56Z</time>
      </trkpt>
      <trkpt lat="48.7182130" lon="13.3921710">
        <ele>519.4</ele>
        <time>2019-08-15T08:05:57Z</time>
      </trkpt>
      <trkpt lat="48.7181420" lon="13.3922190">
        <ele>519.2</ele>
        <time>2019-08-15T08:05:58Z</time>
      </trkpt>
      <trkpt lat="48.7180720" lon="13.3922720">
        <ele>519.0</ele>
        <time>2019-08-15T08:05:59Z</time>
      </trkpt>
      <trkpt lat="48.7180060" lon="13.3923280">
        <ele>518.6</ele>
        <time>2019-08-15T08:06:00Z</time>
      </trkpt>
      <trkpt lat="48.7179410" lon="13.3923910">
        <ele>518.4</ele>
        <time>2019-08-15T08:06:01Z</time>
      </trkpt>
      <trkpt lat="48.7178780" lon="13.3924580">
        <ele>518.4</ele>
        <time>2019-08-15T08:06:02Z</time>
      </trkpt>
      <trkpt lat="48.7178170" lon="13.3925280">
        <ele>518.2</ele>
        <time>2019-08-15T08:06:03Z</time>
      </trkpt>
      <trkpt lat="48.7177590" lon="13.3926030">
        <ele>518.0</ele>
        <time>2019-08-15T08:06:04Z</time>
      </trkpt>
      <trkpt lat="48.7177040" lon="13.3926810">
        <ele>517.6</ele>
        <time>2019-08-15T08:06:05Z</time>
      </trkpt>
      <trkpt lat="48.7176490" lon="13.3927640">
        <ele>517.4</ele>
        <time>2019-08-15T08:06:06Z</time>
      </trkpt>
      <trkpt lat="48.7175940" lon="13.3928500">
        <ele>517.2</ele>
        <time>2019-08-15T08:06:07Z</time>
      </trkpt>
      <trkpt lat="48.7175440" lon="13.3929370">
        <ele>516.8</ele>
        <time>2019-08-15T08:06:08Z</time>
      </trkpt>
      <trkpt lat="48.7174990" lon="13.3930290">
        <ele>516.6</ele>
        <time>2019-08-15T08:06:09Z</time>
      </trkpt>
      <trkpt lat="48.7174590" lon="13.3931200">
        <ele>516.4</ele>
        <time>2019-08-15T08:06:10Z</time>
      </trkpt>
      <trkpt lat="48.7174190" lon="13.3932100">
        <ele>516.2</ele>
        <time>2019-08-15T08:06:11Z</time>
      </trkpt>
      <trkpt lat="48.7173800" lon="13.3932960">
        <ele>516.0</ele>
        <time>2019-08-15T08:06:12Z</time>
      </trkpt>
      <trkpt lat="48.7173470" lon="13.3933780">
        <ele>515.8</ele>
        <time>2019-08-15T08:06:13Z</time>
      </trkpt>
      <trkpt lat="48.7173180" lon="13.3934530">
        <ele>515.6</ele>
        <time>2019-08-15T08:06:14Z</time>
      </trkpt>
      <trkpt lat="48.7172910" lon="13.3935210">
        <ele>515.4</ele>
        <time>2019-08-15T08:06:15Z</time>
      </trkpt>
      <trkpt lat="48.7172680" lon="13.3935790">
        <ele>515.2</ele>
        <time>2019-08-15T08:06:16Z</time>
      </trkpt>
      <trkpt lat="48.7172520" lon="13.3936270">
        <ele>515.2</ele>
        <time>2019-08-15T08:06:17Z</time>
      </trkpt>
      <trkpt lat="48.7172380" lon="13.3936690">
        <ele>515.0</ele>
        <time>2019-08-15T08:06:18Z</time>
      </trkpt>
      <trkpt lat="48.7172300" lon="13.3937080">
        <ele>514.8</ele>
        <time>2019-08-15T08:06:19Z</time>
      </trkpt>
      <trkpt lat="48.7172260" lon="13.3937450">
        <ele>514.6</ele>
        <time>2019-08-15T08:06:20Z</time>
      </trkpt>
      <trkpt lat="48.7172190" lon="13.3937750">
        <ele>514.4</ele>
        <time>2019-08-15T08:06:21Z</time>
      </trkpt>
      <trkpt lat="48.7172080" lon="13.3938020">
        <ele>514.2</ele>
        <time>2019-08-15T08:06:22Z</time>
      </trkpt>
      <trkpt lat="48.7171940" lon="13.3938310">
        <ele>514.2</ele>
        <time>2019-08-15T08:06:23Z</time>
      </trkpt>
      <trkpt lat="48.7171780" lon="13.3938620">
        <ele>514.0</ele>
        <time>2019-08-15T08:06:24Z</time>
      </trkpt>
      <trkpt lat="48.7171590" lon="13.3938980">
        <ele>514.0</ele>
        <time>2019-08-15T08:06:25Z</time>
      </trkpt>
      <trkpt lat="48.7171450" lon="13.3939430">
        <ele>513.8</ele>
        <time>2019-08-15T08:06:26Z</time>
      </trkpt>
      <trkpt lat="48.7171330" lon="13.3939970">
        <ele>513.8</ele>
        <time>2019-08-15T08:06:27Z</time>
      </trkpt>
      <trkpt lat="48.7171170" lon="13.3940530">
        <ele>513.8</ele>
        <time>2019-08-15T08:06:28Z</time>
      </trkpt>
      <trkpt lat="48.7170950" lon="13.3941100">
        <ele>513.6</ele>
        <time>2019-08-15T08:06:29Z</time>
      </trkpt>
      <trkpt lat="48.7170690" lon="13.3941710">
        <ele>513.6</ele>
        <time>2019-08-15T08:06:30Z</time>
      </trkpt>
      <trkpt lat="48.7170400" lon="13.3942350">
        <ele>513.6</ele>
        <time>2019-08-15T08:06:31Z</time>
      </trkpt>
      <trkpt lat="48.7170100" lon="13.3943000">
        <ele>513.4</ele>
        <time>2019-08-15T08:06:32Z</time>
      </trkpt>
      <trkpt lat="48.7169800" lon="13.3943670">
        <ele>513.4</ele>
        <time>2019-08-15T08:06:33Z</time>
      </trkpt>
      <trkpt lat="48.7169490" lon="13.3944350">
        <ele>513.2</ele>
        <time>2019-08-15T08:06:34Z</time>
      </trkpt>
      <trkpt lat="48.7169150" lon="13.3945020">
        <ele>513.0</ele>
        <time>2019-08-15T08:06:35Z</time>
      </trkpt>
      <trkpt lat="48.7168800" lon="13.3945680">
        <ele>513.0</ele>
        <time>2019-08-15T08:06:36Z</time>
      </trkpt>
      <trkpt lat="48.7168440" lon="13.3946320">
        <ele>512.8</ele>
        <time>2019-08-15T08:06:37Z</time>
      </trkpt>
      <trkpt lat="48.7168040" lon="13.3946970">
        <ele>512.6</ele>
        <time>2019-08-15T08:06:38Z</time>
      </trkpt>
      <trkpt lat="48.7167600" lon="13.3947620">
        <ele>512.4</ele>
        <time>2019-08-15T08:06:39Z</time>
      </trkpt>
      <trkpt lat="48.7167150" lon="13.3948260">
        <ele>512.4</ele>
        <time>2019-08-15T08:06:40Z</time>
      </trkpt>
      <trkpt lat="48.7166680" lon="13.3948890">
        <ele>512.2</ele>
        <time>2019-08-15T08:06:41Z</time>
      </trkpt>
      <trkpt lat="48.7166200" lon="13.3949490">
        <ele>512.0</ele>
        <time>2019-08-15T08:06:42Z</time>
      </trkpt>
      <trkpt lat="48.7165690" lon="13.3950120">
        <ele>511.8</ele>
        <time>2019-08-15T08:06:43Z</time>
      </trkpt>
      <trkpt lat="48.7165150" lon="13.3950740">
        <ele>511.8</ele>
        <time>2019-08-15T08:06:44Z</time>
      </trkpt>
      <trkpt lat="48.7164610" lon="13.3951380">
        <ele>511.6</ele>
        <time>2019-08-15T08:06:45Z</time>
      </trkpt>
      <trkpt lat="48.7164040" lon="13.3951980">
        <ele>511.4</ele>
        <time>2019-08-15T08:06:46Z</time>
      </trkpt>
      <trkpt lat="48.7163470" lon="13.3952590">
        <ele>511.2</ele>
        <time>2019-08-15T08:06:47Z</time>
      </trkpt>
      <trkpt lat="48.7162920" lon="13.3953220">
        <ele>511.0</ele>
        <time>2019-08-15T08:06:48Z</time>
      </trkpt>
      <trkpt lat="48.7162370" lon="13.3953860">
        <ele>511.0</ele>
        <time>2019-08-15T08:06:49Z</time>
      </trkpt>
      <trkpt lat="48.7161770" lon="13.3954530">
        <ele>511.0</ele>
        <time>2019-08-15T08:06:50Z</time>
      </trkpt>
      <trkpt lat="48.7161180" lon="13.3955240">
        <ele>510.8</ele>
        <time>2019-08-15T08:06:51Z</time>
      </trkpt>
      <trkpt lat="48.7160610" lon="13.3955990">
        <ele>510.6</ele>
        <time>2019-08-15T08:06:52Z</time>
      </trkpt>
      <trkpt lat="48.7160070" lon="13.3956780">
        <ele>510.6</ele>
        <time>2019-08-15T08:06:53Z</time>
      </trkpt>
      <trkpt lat="48.7159520" lon="13.3957580">
        <ele>510.4</ele>
        <time>2019-08-15T08:06:54Z</time>
      </trkpt>
      <trkpt lat="48.7159000" lon="13.3958420">
        <ele>510.2</ele>
        <time>2019-08-15T08:06:55Z</time>
      </trkpt>
      <trkpt lat="48.7158520" lon="13.3959210">
        <ele>509.8</ele>
        <time>2019-08-15T08:06:56Z</time>
      </trkpt>
      <trkpt lat="48.7158030" lon="13.3960090">
        <ele>509.6</ele>
        <time>2019-08-15T08:06:57Z</time>
      </trkpt>
      <trkpt lat="48.7157570" lon="13.3961090">
        <ele>509.2</ele>
        <time>2019-08-15T08:06:58Z</time>
      </trkpt>
      <trkpt lat="48.7157170" lon="13.3962150">
        <ele>508.8</ele>
        <time>2019-08-15T08:06:59Z</time>
      </trkpt>
      <trkpt lat="48.7156810" lon="13.3963220">
        <ele>508.4</ele>
        <time>2019-08-15T08:07:00Z</time>
      </trkpt>
      <trkpt lat="48.7156460" lon="13.3964300">
        <ele>508.2</ele>
        <time>2019-08-15T08:07:01Z</time>
      </trkpt>
      <trkpt lat="48.7156120" lon="13.3965400">
        <ele>508.0</ele>
        <time>2019-08-15T08:07:02Z</time>
      </trkpt>
      <trkpt lat="48.7155820" lon="13.3966570">
        <ele>507.8</ele>
        <time>2019-08-15T08:07:03Z</time>
      </trkpt>
      <trkpt lat="48.7155540" lon="13.3967770">
        <ele>507.4</ele>
        <time>2019-08-15T08:07:04Z</time>
      </trkpt>
      <trkpt lat="48.7155290" lon="13.3968940">
        <ele>507.2</ele>
        <time>2019-08-15T08:07:05Z</time>
      </trkpt>
      <trkpt lat="48.7155050" lon="13.3970110">
        <ele>507.0</ele>
        <time>2019-08-15T08:07:06Z</time>
      </trkpt>
      <trkpt lat="48.7154850" lon="13.3971320">
        <ele>507.0</ele>
        <time>2019-08-15T08:07:07Z</time>
      </trkpt>
      <trkpt lat="48.7154640" lon="13.3972520">
        <ele>506.8</ele>
        <time>2019-08-15T08:07:08Z</time>
      </trkpt>
      <trkpt lat="48.7154390" lon="13.3973760">
        <ele>506.6</ele>
        <time>2019-08-15T08:07:09Z</time>
      </trkpt>
      <trkpt lat="48.7154140" lon="13.3974980">
        <ele>506.4</ele>
        <time>2019-08-15T08:07:10Z</time>
      </trkpt>
      <trkpt lat="48.7153890" lon="13.3976180">
        <ele>506.4</ele>
        <time>2019-08-15T08:07:11Z</time>
      </trkpt>
      <trkpt lat="48.7153630" lon="13.3977350">
        <ele>506.2</ele>
        <time>2019-08-15T08:07:12Z</time>
      </trkpt>
      <trkpt lat="48.7153350" lon="13.3978520">
        <ele>506.0</ele>
        <time>2019-08-15T08:07:13Z</time>
      </trkpt>
      <trkpt lat="48.7153070" lon="13.3979650">
        <ele>505.6</ele>
        <time>2019-08-15T08:07:14Z</time>
      </trkpt>
      <trkpt lat="48.7152720" lon="13.3980810">
        <ele>505.4</ele>
        <time>2019-08-15T08:07:15Z</time>
      </trkpt>
      <trkpt lat="48.7152310" lon="13.3981920">
        <ele>505.2</ele>
        <time>2019-08-15T08:07:16Z</time>
      </trkpt>
      <trkpt lat="48.7151870" lon="13.3982950">
        <ele>505.2</ele>
        <time>2019-08-15T08:07:17Z</time>
      </trkpt>
      <trkpt lat="48.7151440" lon="13.3983930">
        <ele>505.0</ele>
        <time>2019-08-15T08:07:18Z</time>
      </trkpt>
      <trkpt lat="48.7151030" lon="13.3984870">
        <ele>504.6</ele>
        <time>2019-08-15T08:07:19Z</time>
      </trkpt>
      <trkpt lat="48.7150610" lon="13.3985780">
        <ele>504.4</ele>
        <time>2019-08-15T08:07:20Z</time>
      </trkpt>
      <trkpt lat="48.7150200" lon="13.3986670">
        <ele>504.2</ele>
        <time>2019-08-15T08:07:21Z</time>
      </trkpt>
      <trkpt lat="48.7149770" lon="13.3987570">
        <ele>504.0</ele>
        <time>2019-08-15T08:07:22Z</time>
      </trkpt>
      <trkpt lat="48.7149270" lon="13.3988480">
        <ele>503.8</ele>
        <time>2019-08-15T08:07:23Z</time>
      </trkpt>
      <trkpt lat="48.7148720" lon="13.3989320">
        <ele>503.4</ele>
        <time>2019-08-15T08:07:24Z</time>
      </trkpt>
      <trkpt lat="48.7148160" lon="13.3990160">
        <ele>503.2</ele>
        <time>2019-08-15T08:07:25Z</time>
      </trkpt>
      <trkpt lat="48.7147590" lon="13.3991040">
        <ele>503.0</ele>
        <time>2019-08-15T08:07:26Z</time>
      </trkpt>
      <trkpt lat="48.7146970" lon="13.3991930">
        <ele>502.8</ele>
        <time>2019-08-15T08:07:27Z</time>
      </trkpt>
      <trkpt lat="48.7146360" lon="13.3992900">
        <ele>502.6</ele>
        <time>2019-08-15T08:07:28Z</time>
      </trkpt>
      <trkpt lat="48.7145720" lon="13.3993940">
        <ele>502.4</ele>
        <time>2019-08-15T08:07:29Z</time>
      </trkpt>
      <trkpt lat="48.7145070" lon="13.3995040">
        <ele>502.0</ele>
        <time>2019-08-15T08:07:30Z</time>
      </trkpt>
      <trkpt lat="48.7144480" lon="13.3996140">
        <ele>501.8</ele>
        <time>2019-08-15T08:07:31Z</time>
      </trkpt>
      <trkpt lat="48.7143990" lon="13.3997200">
        <ele>501.4</ele>
        <time>2019-08-15T08:07:32Z</time>
      </trkpt>
      <trkpt lat="48.7143540" lon="13.3998330">
        <ele>501.2</ele>
        <time>2019-08-15T08:07:33Z</time>
      </trkpt>
      <trkpt lat="48.7143110" lon="13.3999610">
        <ele>501.0</ele>
        <time>2019-08-15T08:07:34Z</time>
      </trkpt>
      <trkpt lat="48.7142720" lon="13.4000940">
        <ele>500.8</ele>
        <time>2019-08-15T08:07:35Z</time>
      </trkpt>
      <trkpt lat="48.7142380" lon="13.4002220">
        <ele>500.6</ele>
        <time>2019-08-15T08:07:36Z</time>
      </trkpt>
      <trkpt lat="48.7142060" lon="13.4003490">
        <ele>500.4</ele>
        <time>2019-08-15T08:07:37Z</time>
      </trkpt>
      <trkpt lat="48.7141800" lon="13.4004760">
        <ele>500.2</ele>
        <time>2019-08-15T08:07:38Z</time>
      </trkpt>
      <trkpt lat="48.7141570" lon="13.4006120">
        <ele>499.8</ele>
        <time>2019-08-15T08:07:39Z</time>
      </trkpt>
      <trkpt lat="48.7141400" lon="13.4007530">
        <ele>499.4</ele>
        <time>2019-08-15T08:07:40Z</time>
      </trkpt>
      <trkpt lat="48.7141290" lon="13.4008910">
        <ele>499.2</ele>
        <time>2019-08-15T08:07:41Z</time>
      </trkpt>
      <trkpt lat="48.7141210" lon="13.4010250">
        <ele>499.0</ele>
        <time>2019-08-15T08:07:42Z</time>
      </trkpt>
      <trkpt lat="48.7141190" lon="13.4011640">
        <ele>499.0</ele>
        <time>2019-08-15T08:07:43Z</time>
      </trkpt>
      <trkpt lat="48.7141250" lon="13.4013010">
        <ele>498.8</ele>
        <time>2019-08-15T08:07:44Z</time>
      </trkpt>
      <trkpt lat="48.7141340" lon="13.4014410">
        <ele>498.6</ele>
        <time>2019-08-15T08:07:45Z</time>
      </trkpt>
      <trkpt lat="48.7141480" lon="13.4015850">
        <ele>498.4</ele>
        <time>2019-08-15T08:07:46Z</time>
      </trkpt>
      <trkpt lat="48.7141670" lon="13.4017270">
        <ele>498.0</ele>
        <time>2019-08-15T08:07:47Z</time>
      </trkpt>
      <trkpt lat="48.7141900" lon="13.4018670">
        <ele>497.8</ele>
        <time>2019-08-15T08:07:48Z</time>
      </trkpt>
      <trkpt lat="48.7142140" lon="13.4020060">
        <ele>497.6</ele>
        <time>2019-08-15T08:07:49Z</time>
      </trkpt>
      <trkpt lat="48.7142410" lon="13.4021420">
        <ele>497.4</ele>
        <time>2019-08-15T08:07:50Z</time>
      </trkpt>
      <trkpt lat="48.7142700" lon="13.4022780">
        <ele>497.2</ele>
        <time>2019-08-15T08:07:51Z</time>
      </trkpt>
      <trkpt lat="48.7142970" lon="13.4024120">
        <ele>497.0</ele>
        <time>2019-08-15T08:07:52Z</time>
      </trkpt>
      <trkpt lat="48.7143270" lon="13.4025500">
        <ele>496.8</ele>
        <time>2019-08-15T08:07:53Z</time>
      </trkpt>
      <trkpt lat="48.7143530" lon="13.4026850">
        <ele>496.4</ele>
        <time>2019-08-15T08:07:54Z</time>
      </trkpt>
      <trkpt lat="48.7143780" lon="13.4028210">
        <ele>496.2</ele>
        <time>2019-08-15T08:07:55Z</time>
      </trkpt>
      <trkpt lat="48.7144010" lon="13.4029570">
        <ele>495.8</ele>
        <time>2019-08-15T08:07:56Z</time>
      </trkpt>
      <trkpt lat="48.7144220" lon="13.4030940">
        <ele>495.6</ele>
        <time>2019-08-15T08:07:57Z</time>
      </trkpt>
      <trkpt lat="48.7144410" lon="13.4032300">
        <ele>495.4</ele>
        <time>2019-08-15T08:07:58Z</time>
      </trkpt>
      <trkpt lat="48.7144550" lon="13.4033640">
        <ele>495.0</ele>
        <time>2019-08-15T08:07:59Z</time>
      </trkpt>
      <trkpt lat="48.7144660" lon="13.4034920">
        <ele>494.8</ele>
        <time>2019-08-15T08:08:00Z</time>
      </trkpt>
      <trkpt lat="48.7144730" lon="13.4036340">
        <ele>494.6</ele>
        <time>2019-08-15T08:08:01Z</time>
      </trkpt>
      <trkpt lat="48.7144790" lon="13.4037690">
        <ele>494.4</ele>
        <time>2019-08-15T08:08:02Z</time>
      </trkpt>
      <trkpt lat="48.7144840" lon="13.4039000">
        <ele>494.0</ele>
        <time>2019-08-15T08:08:03Z</time>
      </trkpt>
      <trkpt lat="48.7144920" lon="13.4040280">
        <ele>493.6</ele>
        <time>2019-08-15T08:08:04Z</time>
      </trkpt>
      <trkpt lat="48.7145000" lon="13.4041630">
        <ele>493.4</ele>
        <time>2019-08-15T08:08:05Z</time>
      </trkpt>
      <trkpt lat="48.7145060" lon="13.4042970">
        <ele>493.2</ele>
        <time>2019-08-15T08:08:06Z</time>
      </trkpt>
      <trkpt lat="48.7145070" lon="13.4044320">
        <ele>493.0</ele>
        <time>2019-08-15T08:08:07Z</time>
      </trkpt>
      <trkpt lat="48.7145080" lon="13.4045750">
        <ele>492.8</ele>
        <time>2019-08-15T08:08:08Z</time>
      </trkpt>
      <trkpt lat="48.7145120" lon="13.4047170">
        <ele>492.6</ele>
        <time>2019-08-15T08:08:09Z</time>
      </trkpt>
      <trkpt lat="48.7145200" lon="13.4048590">
        <ele>492.2</ele>
        <time>2019-08-15T08:08:10Z</time>
      </trkpt>
      <trkpt lat="48.7145310" lon="13.4050000">
        <ele>492.0</ele>
        <time>2019-08-15T08:08:11Z</time>
      </trkpt>
      <trkpt lat="48.7145480" lon="13.4051370">
        <ele>491.8</ele>
        <time>2019-08-15T08:08:12Z</time>
      </trkpt>
      <trkpt lat="48.7145670" lon="13.4052730">
        <ele>491.6</ele>
        <time>2019-08-15T08:08:13Z</time>
      </trkpt>
      <trkpt lat="48.7145920" lon="13.4054080">
        <ele>491.2</ele>
        <time>2019-08-15T08:08:14Z</time>
      </trkpt>
      <trkpt lat="48.7146230" lon="13.4055400">
        <ele>491.0</ele>
        <time>2019-08-15T08:08:15Z</time>
      </trkpt>
      <trkpt lat="48.7146590" lon="13.4056670">
        <ele>490.6</ele>
        <time>2019-08-15T08:08:16Z</time>
      </trkpt>
      <trkpt lat="48.7146930" lon="13.4058010">
        <ele>490.4</ele>
        <time>2019-08-15T08:08:17Z</time>
      </trkpt>
      <trkpt lat="48.7147320" lon="13.4059320">
        <ele>490.2</ele>
        <time>2019-08-15T08:08:18Z</time>
      </trkpt>
      <trkpt lat="48.7147790" lon="13.4060540">
        <ele>490.0</ele>
        <time>2019-08-15T08:08:19Z</time>
      </trkpt>
      <trkpt lat="48.7148290" lon="13.4061680">
        <ele>489.6</ele>
        <time>2019-08-15T08:08:20Z</time>
      </trkpt>
      <trkpt lat="48.7148830" lon="13.4062800">
        <ele>489.4</ele>
        <time>2019-08-15T08:08:21Z</time>
      </trkpt>
      <trkpt lat="48.7149400" lon="13.4063890">
        <ele>489.0</ele>
        <time>2019-08-15T08:08:22Z</time>
      </trkpt>
      <trkpt lat="48.7149990" lon="13.4064940">
        <ele>488.8</ele>
        <time>2019-08-15T08:08:23Z</time>
      </trkpt>
      <trkpt lat="48.7150640" lon="13.4065950">
        <ele>488.6</ele>
        <time>2019-08-15T08:08:24Z</time>
      </trkpt>
      <trkpt lat="48.7151310" lon="13.4066880">
        <ele>488.2</ele>
        <time>2019-08-15T08:08:25Z</time>
      </trkpt>
      <trkpt lat="48.7152020" lon="13.4067770">
        <ele>488.0</ele>
        <time>2019-08-15T08:08:26Z</time>
      </trkpt>
      <trkpt lat="48.7152780" lon="13.4068590">
        <ele>488.0</ele>
        <time>2019-08-15T08:08:27Z</time>
      </trkpt>
      <trkpt lat="48.7153550" lon="13.4069350">
        <ele>487.6</ele>
        <time>2019-08-15T08:08:28Z</time>
      </trkpt>
      <trkpt lat="48.7154350" lon="13.4070090">
        <ele>487.6</ele>
        <time>2019-08-15T08:08:29Z</time>
      </trkpt>
      <trkpt lat="48.7155150" lon="13.4070780">
        <ele>487.4</ele>
        <time>2019-08-15T08:08:30Z</time>
      </trkpt>
      <trkpt lat="48.7155950" lon="13.4071440">
        <ele>487.4</ele>
        <time>2019-08-15T08:08:31Z</time>
      </trkpt>
      <trkpt lat="48.7156730" lon="13.4072090">
        <ele>487.2</ele>
        <time>2019-08-15T08:08:32Z</time>
      </trkpt>
      <trkpt lat="48.7157480" lon="13.4072720">
        <ele>487.0</ele>
        <time>2019-08-15T08:08:33Z</time>
      </trkpt>
      <trkpt lat="48.7158260" lon="13.4073370">
        <ele>486.8</ele>
        <time>2019-08-15T08:08:34Z</time>
      </trkpt>
      <trkpt lat="48.7158970" lon="13.4073990">
        <ele>486.4</ele>
        <time>2019-08-15T08:08:35Z</time>
      </trkpt>
      <trkpt lat="48.7159670" lon="13.4074640">
        <ele>485.8</ele>
        <time>2019-08-15T08:08:36Z</time>
      </trkpt>
      <trkpt lat="48.7160310" lon="13.4075270">
        <ele>485.4</ele>
        <time>2019-08-15T08:08:37Z</time>
      </trkpt>
      <trkpt lat="48.7160870" lon="13.4075890">
        <ele>485.0</ele>
        <time>2019-08-15T08:08:38Z</time>
      </trkpt>
      <trkpt lat="48.7161400" lon="13.4076540">
        <ele>484.8</ele>
        <time>2019-08-15T08:08:39Z</time>
      </trkpt>
      <trkpt lat="48.7161910" lon="13.4077230">
        <ele>484.4</ele>
        <time>2019-08-15T08:08:40Z</time>
      </trkpt>
      <trkpt lat="48.7162390" lon="13.4077970">
        <ele>484.2</ele>
        <time>2019-08-15T08:08:41Z</time>
      </trkpt>
      <trkpt lat="48.7162880" lon="13.4078770">
        <ele>484.0</ele>
        <time>2019-08-15T08:08:42Z</time>
      </trkpt>
      <trkpt lat="48.7163360" lon="13.4079600">
        <ele>483.8</ele>
        <time>2019-08-15T08:08:43Z</time>
      </trkpt>
      <trkpt lat="48.7163830" lon="13.4080440">
        <ele>483.6</ele>
        <time>2019-08-15T08:08:44Z</time>
      </trkpt>
      <trkpt lat="48.7164290" lon="13.4081300">
        <ele>483.4</ele>
        <time>2019-08-15T08:08:45Z</time>
      </trkpt>
      <trkpt lat="48.7164760" lon="13.4082180">
        <ele>483.0</ele>
        <time>2019-08-15T08:08:46Z</time>
      </trkpt>
      <trkpt lat="48.7165210" lon="13.4083040">
        <ele>482.8</ele>
        <time>2019-08-15T08:08:47Z</time>
      </trkpt>
      <trkpt lat="48.7165670" lon="13.4083950">
        <ele>482.6</ele>
        <time>2019-08-15T08:08:48Z</time>
      </trkpt>
      <trkpt lat="48.7166120" lon="13.4084840">
        <ele>482.4</ele>
        <time>2019-08-15T08:08:49Z</time>
      </trkpt>
      <trkpt lat="48.7166580" lon="13.4085710">
        <ele>482.4</ele>
        <time>2019-08-15T08:08:50Z</time>
      </trkpt>
      <trkpt lat="48.7167070" lon="13.4086540">
        <ele>482.0</ele>
        <time>2019-08-15T08:08:51Z</time>
      </trkpt>
      <trkpt lat="48.7167590" lon="13.4087340">
        <ele>481.8</ele>
        <time>2019-08-15T08:08:52Z</time>
      </trkpt>
      <trkpt lat="48.7168150" lon="13.4088110">
        <ele>481.6</ele>
        <time>2019-08-15T08:08:53Z</time>
      </trkpt>
      <trkpt lat="48.7168750" lon="13.4088890">
        <ele>481.4</ele>
        <time>2019-08-15T08:08:54Z</time>
      </trkpt>
      <trkpt lat="48.7169350" lon="13.4089650">
        <ele>481.2</ele>
        <time>2019-08-15T08:08:55Z</time>
      </trkpt>
      <trkpt lat="48.7169940" lon="13.4090370">
        <ele>481.0</ele>
        <time>2019-08-15T08:08:56Z</time>
      </trkpt>
      <trkpt lat="48.7170570" lon="13.4091050">
        <ele>480.6</ele>
        <time>2019-08-15T08:08:57Z</time>
      </trkpt>
      <trkpt lat="48.7171270" lon="13.4091710">
        <ele>480.4</ele>
        <time>2019-08-15T08:08:58Z</time>
      </trkpt>
      <trkpt lat="48.7171980" lon="13.4092300">
        <ele>480.2</ele>
        <time>2019-08-15T08:08:59Z</time>
      </trkpt>
      <trkpt lat="48.7172670" lon="13.4092810">
        <ele>480.0</ele>
        <time>2019-08-15T08:09:00Z</time>
      </trkpt>
      <trkpt lat="48.7173470" lon="13.4093320">
        <ele>480.0</ele>
        <time>2019-08-15T08:09:01Z</time>
      </trkpt>
      <trkpt lat="48.7174270" lon="13.4093760">
        <ele>479.8</ele>
        <time>2019-08-15T08:09:02Z</time>
      </trkpt>
      <trkpt lat="48.7175080" lon="13.4094160">
        <ele>479.4</ele>
        <time>2019-08-15T08:09:03Z</time>
      </trkpt>
      <trkpt lat="48.7175920" lon="13.4094500">
        <ele>479.2</ele>
        <time>2019-08-15T08:09:04Z</time>
      </trkpt>
      <trkpt lat="48.7176740" lon="13.4094780">
        <ele>478.8</ele>
        <time>2019-08-15T08:09:05Z</time>
      </trkpt>
      <trkpt lat="48.7177570" lon="13.4095000">
        <ele>478.6</ele>
        <time>2019-08-15T08:09:06Z</time>
      </trkpt>
      <trkpt lat="48.7178420" lon="13.4095150">
        <ele>478.4</ele>
        <time>2019-08-15T08:09:07Z</time>
      </trkpt>
      <trkpt lat="48.7179270" lon="13.4095260">
        <ele>478.2</ele>
        <time>2019-08-15T08:09:08Z</time>
      </trkpt>
      <trkpt lat="48.7180110" lon="13.4095310">
        <ele>478.0</ele>
        <time>2019-08-15T08:09:09Z</time>
      </trkpt>
      <trkpt lat="48.7180980" lon="13.4095340">
        <ele>477.8</ele>
        <time>2019-08-15T08:09:10Z</time>
      </trkpt>
      <trkpt lat="48.7181790" lon="13.4095400">
        <ele>477.4</ele>
        <time>2019-08-15T08:09:11Z</time>
      </trkpt>
      <trkpt lat="48.7182640" lon="13.4095450">
        <ele>477.2</ele>
        <time>2019-08-15T08:09:12Z</time>
      </trkpt>
      <trkpt lat="48.7183430" lon="13.4095520">
        <ele>476.8</ele>
        <time>2019-08-15T08:09:13Z</time>
      </trkpt>
      <trkpt lat="48.7184250" lon="13.4095580">
        <ele>476.6</ele>
        <time>2019-08-15T08:09:14Z</time>
      </trkpt>
      <trkpt lat="48.7185050" lon="13.4095690">
        <ele>476.4</ele>
        <time>2019-08-15T08:09:15Z</time>
      </trkpt>
      <trkpt lat="48.7185870" lon="13.4095790">
        <ele>476.2</ele>
        <time>2019-08-15T08:09:16Z</time>
      </trkpt>
      <trkpt lat="48.7186650" lon="13.4095910">
        <ele>476.0</ele>
        <time>2019-08-15T08:09:17Z</time>
      </trkpt>
      <trkpt lat="48.7187430" lon="13.4096130">
        <ele>475.8</ele>
        <time>2019-08-15T08:09:18Z</time>
      </trkpt>
      <trkpt lat="48.7188160" lon="13.4096410">
        <ele>475.4</ele>
        <time>2019-08-15T08:09:19Z</time>
      </trkpt>
      <trkpt lat="48.7188900" lon="13.4096740">
        <ele>475.2</ele>
        <time>2019-08-15T08:09:20Z</time>
      </trkpt>
      <trkpt lat="48.7189650" lon="13.4097150">
        <ele>475.0</ele>
        <time>2019-08-15T08:09:21Z</time>
      </trkpt>
      <trkpt lat="48.7190390" lon="13.4097640">
        <ele>474.6</ele>
        <time>2019-08-15T08:09:22Z</time>
      </trkpt>
      <trkpt lat="48.7191140" lon="13.4098180">
        <ele>474.4</ele>
        <time>2019-08-15T08:09:23Z</time>
      </trkpt>
      <trkpt lat="48.7191910" lon="13.4098740">
        <ele>474.2</ele>
        <time>2019-08-15T08:09:24Z</time>
      </trkpt>
      <trkpt lat="48.7192640" lon="13.4099320">
        <ele>474.0</ele>
        <time>2019-08-15T08:09:25Z</time>
      </trkpt>
      <trkpt lat="48.7193290" lon="13.4099940">
        <ele>474.0</ele>
        <time>2019-08-15T08:09:26Z</time>
      </trkpt>
      <trkpt lat="48.7193920" lon="13.4100570">
        <ele>473.8</ele>
        <time>2019-08-15T08:09:27Z</time>
      </trkpt>
      <trkpt lat="48.7194530" lon="13.4101220">
        <ele>473.4</ele>
        <time>2019-08-15T08:09:28Z</time>
      </trkpt>
      <trkpt lat="48.7195110" lon="13.4101910">
        <ele>473.2</ele>
        <time>2019-08-15T08:09:29Z</time>
      </trkpt>
      <trkpt lat="48.7195710" lon="13.4102710">
        <ele>473.0</ele>
        <time>2019-08-15T08:09:30Z</time>
      </trkpt>
      <trkpt lat="48.7196290" lon="13.4103600">
        <ele>472.6</ele>
        <time>2019-08-15T08:09:31Z</time>
      </trkpt>
      <trkpt lat="48.7196880" lon="13.4104490">
        <ele>472.4</ele>
        <time>2019-08-15T08:09:32Z</time>
      </trkpt>
      <trkpt lat="48.7197420" lon="13.4105370">
        <ele>472.2</ele>
        <time>2019-08-15T08:09:33Z</time>
      </trkpt>
      <trkpt lat="48.7197920" lon="13.4106280">
        <ele>472.0</ele>
        <time>2019-08-15T08:09:34Z</time>
      </trkpt>
      <trkpt lat="48.7198370" lon="13.4107270">
        <ele>471.6</ele>
        <time>2019-08-15T08:09:35Z</time>
      </trkpt>
      <trkpt lat="48.7198780" lon="13.4108320">
        <ele>471.4</ele>
        <time>2019-08-15T08:09:36Z</time>
      </trkpt>
      <trkpt lat="48.7199110" lon="13.4109350">
        <ele>471.2</ele>
        <time>2019-08-15T08:09:37Z</time>
      </trkpt>
      <trkpt lat="48.7199380" lon="13.4110560">
        <ele>471.0</ele>
        <time>2019-08-15T08:09:38Z</time>
      </trkpt>
      <trkpt lat="48.7199670" lon="13.4111790">
        <ele>470.6</ele>
        <time>2019-08-15T08:09:39Z</time>
      </trkpt>
      <trkpt lat="48.7199950" lon="13.4113070">
        <ele>470.4</ele>
        <time>2019-08-15T08:09:40Z</time>
      </trkpt>
      <trkpt lat="48.7200180" lon="13.4114370">
        <ele>470.2</ele>
        <time>2019-08-15T08:09:41Z</time>
      </trkpt>
      <trkpt lat="48.7200370" lon="13.4115720">
        <ele>470.0</ele>
        <time>2019-08-15T08:09:42Z</time>
      </trkpt>
      <trkpt lat="48.7200600" lon="13.4117210">
        <ele>469.8</ele>
        <time>2019-08-15T08:09:43Z</time>
      </trkpt>
      <trkpt lat="48.7200730" lon="13.4118760">
        <ele>469.6</ele>
        <time>2019-08-15T08:09:44Z</time>
      </trkpt>
      <trkpt lat="48.7200870" lon="13.4120290">
        <ele>469.4</ele>
        <time>2019-08-15T08:09:45Z</time>
      </trkpt>
      <trkpt lat="48.7200980" lon="13.4121780">
        <ele>469.0</ele>
        <time>2019-08-15T08:09:46Z</time>
      </trkpt>
      <trkpt lat="48.7201100" lon="13.4123230">
        <ele>468.8</ele>
        <time>2019-08-15T08:09:47Z</time>
      </trkpt>
      <trkpt lat="48.7201220" lon="13.4124680">
        <ele>468.6</ele>
        <time>2019-08-15T08:09:48Z</time>
      </trkpt>
      <trkpt lat="48.7201390" lon="13.4126190">
        <ele>468.4</ele>
        <time>2019-08-15T08:09:49Z</time>
      </trkpt>
      <trkpt lat="48.7201540" lon="13.4127650">
        <ele>468.4</ele>
        <time>2019-08-15T08:09:50Z</time>
      </trkpt>
      <trkpt lat="48.7201720" lon="13.4129110">
        <ele>468.4</ele>
        <time>2019-08-15T08:09:51Z</time>
      </trkpt>
      <trkpt lat="48.7201880" lon="13.4130560">
        <ele>468.2</ele>
        <time>2019-08-15T08:09:52Z</time>
      </trkpt>
      <trkpt lat="48.7202100" lon="13.4132010">
        <ele>467.8</ele>
        <time>2019-08-15T08:09:53Z</time>
      </trkpt>
      <trkpt lat="48.7202340" lon="13.4133400">
        <ele>467.6</ele>
        <time>2019-08-15T08:09:54Z</time>
      </trkpt>
      <trkpt lat="48.7202600" lon="13.4134770">
        <ele>467.4</ele>
        <time>2019-08-15T08:09:55Z</time>
      </trkpt>
      <trkpt lat="48.7202870" lon="13.4136080">
        <ele>467.2</ele>
        <time>2019-08-15T08:09:56Z</time>
      </trkpt>
      <trkpt lat="48.7203150" lon="13.4137450">
        <ele>467.0</ele>
        <time>2019-08-15T08:09:57Z</time>
      </trkpt>
      <trkpt lat="48.7203450" lon="13.4138780">
        <ele>466.6</ele>
        <time>2019-08-15T08:09:58Z</time>
      </trkpt>
      <trkpt lat="48.7203770" lon="13.4140100">
        <ele>466.2</ele>
        <time>2019-08-15T08:09:59Z</time>
      </trkpt>
      <trkpt lat="48.7204080" lon="13.4141400">
        <ele>466.0</ele>
        <time>2019-08-15T08:10:00Z</time>
      </trkpt>
      <trkpt lat="48.7204380" lon="13.4142710">
        <ele>465.6</ele>
        <time>2019-08-15T08:10:01Z</time>
      </trkpt>
      <trkpt lat="48.7204630" lon="13.4144050">
        <ele>465.2</ele>
        <time>2019-08-15T08:10:02Z</time>
      </trkpt>
      <trkpt lat="48.7204840" lon="13.4145390">
        <ele>465.0</ele>
        <time>2019-08-15T08:10:03Z</time>
      </trkpt>
      <trkpt lat="48.7205030" lon="13.4146720">
        <ele>464.8</ele>
        <time>2019-08-15T08:10:04Z</time>
      </trkpt>
      <trkpt lat="48.7205160" lon="13.4148040">
        <ele>464.4</ele>
        <time>2019-08-15T08:10:05Z</time>
      </trkpt>
      <trkpt lat="48.7205230" lon="13.4149360">
        <ele>464.2</ele>
        <time>2019-08-15T08:10:06Z</time>
      </trkpt>
      <trkpt lat="48.7205300" lon="13.4150560">
        <ele>463.8</ele>
        <time>2019-08-15T08:10:07Z</time>
      </trkpt>
      <trkpt lat="48.7205340" lon="13.4151790">
        <ele>463.6</ele>
        <time>2019-08-15T08:10:08Z</time>
      </trkpt>
      <trkpt lat="48.7205360" lon="13.4153040">
        <ele>463.4</ele>
        <time>2019-08-15T08:10:09Z</time>
      </trkpt>
      <trkpt lat="48.7205370" lon="13.4154260">
        <ele>463.2</ele>
        <time>2019-08-15T08:10:10Z</time>
      </trkpt>
      <trkpt lat="48.7205330" lon="13.4155460">
        <ele>463.0</ele>
        <time>2019-08-15T08:10:11Z</time>
      </trkpt>
      <trkpt lat="48.7205240" lon="13.4156680">
        <ele>462.8</ele>
        <time>2019-08-15T08:10:12Z</time>
      </trkpt>
      <trkpt lat="48.7205100" lon="13.4157850">
        <ele>462.6</ele>
        <time>2019-08-15T08:10:13Z</time>
      </trkpt>
      <trkpt lat="48.7204910" lon="13.4159000">
        <ele>462.4</ele>
        <time>2019-08-15T08:10:14Z</time>
      </trkpt>
      <trkpt lat="48.7204690" lon="13.4160130">
        <ele>462.2</ele>
        <time>2019-08-15T08:10:15Z</time>
      </trkpt>
      <trkpt lat="48.7204410" lon="13.4161200">
        <ele>462.0</ele>
        <time>2019-08-15T08:10:16Z</time>
      </trkpt>
      <trkpt lat="48.7204110" lon="13.4162260">
        <ele>461.6</ele>
        <time>2019-08-15T08:10:17Z</time>
      </trkpt>
      <trkpt lat="48.7203790" lon="13.4163360">
        <ele>461.4</ele>
        <time>2019-08-15T08:10:18Z</time>
      </trkpt>
      <trkpt lat="48.7203540" lon="13.4164410">
        <ele>461.2</ele>
        <time>2019-08-15T08:10:19Z</time>
      </trkpt>
      <trkpt lat="48.7203200" lon="13.4165460">
        <ele>461.0</ele>
        <time>2019-08-15T08:10:20Z</time>
      </trkpt>
      <trkpt lat="48.7202810" lon="13.4166400">
        <ele>460.8</ele>
        <time>2019-08-15T08:10:21Z</time>
      </trkpt>
      <trkpt lat="48.7202370" lon="13.4167310">
        <ele>460.6</ele>
        <time>2019-08-15T08:10:22Z</time>
      </trkpt>
      <trkpt lat="48.7201890" lon="13.4168150">
        <ele>460.4</ele>
        <time>2019-08-15T08:10:23Z</time>
      </trkpt>
      <trkpt lat="48.7201380" lon="13.4168980">
        <ele>460.0</ele>
        <time>2019-08-15T08:10:24Z</time>
      </trkpt>
      <trkpt lat="48.7200830" lon="13.4169830">
        <ele>459.8</ele>
        <time>2019-08-15T08:10:25Z</time>
      </trkpt>
      <trkpt lat="48.7200210" lon="13.4170750">
        <ele>459.8</ele>
        <time>2019-08-15T08:10:26Z</time>
      </trkpt>
      <trkpt lat="48.7199550" lon="13.4171700">
        <ele>459.6</ele>
        <time>2019-08-15T08:10:27Z</time>
      </trkpt>
      <trkpt lat="48.7198880" lon="13.4172580">
        <ele>459.4</ele>
        <time>2019-08-15T08:10:28Z</time>
      </trkpt>
      <trkpt lat="48.7198170" lon="13.4173420">
        <ele>459.2</ele>
        <time>2019-08-15T08:10:29Z</time>
      </trkpt>
      <trkpt lat="48.7197540" lon="13.4174190">
        <ele>459.2</ele>
        <time>2019-08-15T08:10:30Z</time>
      </trkpt>
      <trkpt lat="48.7196880" lon="13.4174880">
        <ele>459.2</ele>
        <time>2019-08-15T08:10:31Z</time>
      </trkpt>
      <trkpt lat="48.7196210" lon="13.4175520">
        <ele>459.2</ele>
        <time>2019-08-15T08:10:32Z</time>
      </trkpt>
      <trkpt lat="48.7195480" lon="13.4176140">
        <ele>459.2</ele>
        <time>2019-08-15T08:10:33Z</time>
      </trkpt>
      <trkpt lat="48.7194740" lon="13.4176700">
        <ele>459.2</ele>
        <time>2019-08-15T08:10:34Z</time>
      </trkpt>
      <trkpt lat="48.7194000" lon="13.4177220">
        <ele>459.2</ele>
        <time>2019-08-15T08:10:35Z</time>
      </trkpt>
      <trkpt lat="48.7193260" lon="13.4177710">
        <ele>459.2</ele>
        <time>2019-08-15T08:10:36Z</time>
      </trkpt>
      <trkpt lat="48.7192520" lon="13.4178240">
        <ele>459.2</ele>
        <time>2019-08-15T08:10:37Z</time>
      </trkpt>
      <trkpt lat="48.7191780" lon="13.4178740">
        <ele>459.2</ele>
        <time>2019-08-15T08:10:38Z</time>
      </trkpt>
      <trkpt lat="48.7191030" lon="13.4179200">
        <ele>459.0</ele>
        <time>2019-08-15T08:10:39Z</time>
      </trkpt>
      <trkpt lat="48.7190340" lon="13.4179640">
        <ele>459.0</ele>
        <time>2019-08-15T08:10:40Z</time>
      </trkpt>
      <trkpt lat="48.7189650" lon="13.4180040">
        <ele>458.8</ele>
        <time>2019-08-15T08:10:41Z</time>
      </trkpt>
      <trkpt lat="48.7188940" lon="13.4180430">
        <ele>458.8</ele>
        <time>2019-08-15T08:10:42Z</time>
      </trkpt>
      <trkpt lat="48.7188240" lon="13.4180800">
        <ele>458.8</ele>
        <time>2019-08-15T08:10:43Z</time>
      </trkpt>
      <trkpt lat="48.7187540" lon="13.4181180">
        <ele>458.8</ele>
        <time>2019-08-15T08:10:44Z</time>
      </trkpt>
      <trkpt lat="48.7186840" lon="13.4181550">
        <ele>458.8</ele>
        <time>2019-08-15T08:10:45Z</time>
      </trkpt>
      <trkpt lat="48.7186160" lon="13.4181950">
        <ele>458.8</ele>
        <time>2019-08-15T08:10:46Z</time>
      </trkpt>
      <trkpt lat="48.7185530" lon="13.4182350">
        <ele>458.8</ele>
        <time>2019-08-15T08:10:47Z</time>
      </trkpt>
      <trkpt lat="48.7184880" lon="13.4182760">
        <ele>458.8</ele>
        <time>2019-08-15T08:10:48Z</time>
      </trkpt>
      <trkpt lat="48.7184240" lon="13.4183180">
        <ele>458.6</ele>
        <time>2019-08-15T08:10:49Z</time>
      </trkpt>
      <trkpt lat="48.7183570" lon="13.4183590">
        <ele>458.6</ele>
        <time>2019-08-15T08:10:50Z</time>
      </trkpt>
      <trkpt lat="48.7182930" lon="13.4184000">
        <ele>458.6</ele>
        <time>2019-08-15T08:10:51Z</time>
      </trkpt>
      <trkpt lat="48.7182250" lon="13.4184410">
        <ele>458.4</ele>
        <time>2019-08-15T08:10:52Z</time>
      </trkpt>
      <trkpt lat="48.7181620" lon="13.4184830">
        <ele>458.4</ele>
        <time>2019-08-15T08:10:53Z</time>
      </trkpt>
      <trkpt lat="48.7180960" lon="13.4185280">
        <ele>458.4</ele>
        <time>2019-08-15T08:10:54Z</time>
      </trkpt>
      <trkpt lat="48.7180320" lon="13.4185670">
        <ele>458.4</ele>
        <time>2019-08-15T08:10:55Z</time>
      </trkpt>
      <trkpt lat="48.7179690" lon="13.4186090">
        <ele>458.4</ele>
        <time>2019-08-15T08:10:56Z</time>
      </trkpt>
      <trkpt lat="48.7179070" lon="13.4186510">
        <ele>458.4</ele>
        <time>2019-08-15T08:10:57Z</time>
      </trkpt>
      <trkpt lat="48.7178450" lon="13.4186940">
        <ele>458.4</ele>
        <time>2019-08-15T08:10:58Z</time>
      </trkpt>
      <trkpt lat="48.7177840" lon="13.4187340">
        <ele>458.4</ele>
        <time>2019-08-15T08:10:59Z</time>
      </trkpt>
      <trkpt lat="48.7177220" lon="13.4187760">
        <ele>458.4</ele>
        <time>2019-08-15T08:11:00Z</time>
      </trkpt>
      <trkpt lat="48.7176620" lon="13.4188150">
        <ele>458.4</ele>
        <time>2019-08-15T08:11:01Z</time>
      </trkpt>
      <trkpt lat="48.7176010" lon="13.4188550">
        <ele>458.4</ele>
        <time>2019-08-15T08:11:02Z</time>
      </trkpt>
      <trkpt lat="48.7175380" lon="13.4188940">
        <ele>458.2</ele>
        <time>2019-08-15T08:11:03Z</time>
      </trkpt>
      <trkpt lat="48.7174750" lon="13.4189330">
        <ele>458.2</ele>
        <time>2019-08-15T08:11:04Z</time>
      </trkpt>
      <trkpt lat="48.7174120" lon="13.4189740">
        <ele>458.0</ele>
        <time>2019-08-15T08:11:05Z</time>
      </trkpt>
      <trkpt lat="48.7173520" lon="13.4190160">
        <ele>457.8</ele>
        <time>2019-08-15T08:11:06Z</time>
      </trkpt>
      <trkpt lat="48.7172910" lon="13.4190590">
        <ele>457.8</ele>
        <time>2019-08-15T08:11:07Z</time>
      </trkpt>
      <trkpt lat="48.7172260" lon="13.4191020">
        <ele>457.8</ele>
        <time>2019-08-15T08:11:08Z</time>
      </trkpt>
      <trkpt lat="48.7171640" lon="13.4191470">
        <ele>457.8</ele>
        <time>2019-08-15T08:11:09Z</time>
      </trkpt>
      <trkpt lat="48.7171010" lon="13.4191900">
        <ele>457.6</ele>
        <time>2019-08-15T08:11:10Z</time>
      </trkpt>
      <trkpt lat="48.7170370" lon="13.4192360">
        <ele>457.6</ele>
        <time>2019-08-15T08:11:11Z</time>
      </trkpt>
      <trkpt lat="48.7169710" lon="13.4192870">
        <ele>457.6</ele>
        <time>2019-08-15T08:11:12Z</time>
      </trkpt>
      <trkpt lat="48.7169080" lon="13.4193370">
        <ele>457.4</ele>
        <time>2019-08-15T08:11:13Z</time>
      </trkpt>
      <trkpt lat="48.7168430" lon="13.4193880">
        <ele>457.2</ele>
        <time>2019-08-15T08:11:14Z</time>
      </trkpt>
      <trkpt lat="48.7167880" lon="13.4194440">
        <ele>457.2</ele>
        <time>2019-08-15T08:11:15Z</time>
      </trkpt>
      <trkpt lat="48.7167390" lon="13.4194990">
        <ele>457.0</ele>
        <time>2019-08-15T08:11:16Z</time>
      </trkpt>
      <trkpt lat="48.7166910" lon="13.4195650">
        <ele>456.8</ele>
        <time>2019-08-15T08:11:17Z</time>
      </trkpt>
      <trkpt lat="48.7166380" lon="13.4196470">
        <ele>456.6</ele>
        <time>2019-08-15T08:11:18Z</time>
      </trkpt>
      <trkpt lat="48.7165830" lon="13.4197310">
        <ele>456.4</ele>
        <time>2019-08-15T08:11:19Z</time>
      </trkpt>
      <trkpt lat="48.7165300" lon="13.4198190">
        <ele>456.2</ele>
        <time>2019-08-15T08:11:20Z</time>
      </trkpt>
      <trkpt lat="48.7164830" lon="13.4199110">
        <ele>456.0</ele>
        <time>2019-08-15T08:11:21Z</time>
      </trkpt>
      <trkpt lat="48.7164370" lon="13.4200070">
        <ele>455.8</ele>
        <time>2019-08-15T08:11:22Z</time>
      </trkpt>
      <trkpt lat="48.7163940" lon="13.4201110">
        <ele>455.6</ele>
        <time>2019-08-15T08:11:23Z</time>
      </trkpt>
      <trkpt lat="48.7163510" lon="13.4202180">
        <ele>455.4</ele>
        <time>2019-08-15T08:11:24Z</time>
      </trkpt>
      <trkpt lat="48.7163150" lon="13.4203300">
        <ele>455.2</ele>
        <time>2019-08-15T08:11:25Z</time>
      </trkpt>
      <trkpt lat="48.7162810" lon="13.4204480">
        <ele>455.0</ele>
        <time>2019-08-15T08:11:26Z</time>
      </trkpt>
      <trkpt lat="48.7162520" lon="13.4205670">
        <ele>454.8</ele>
        <time>2019-08-15T08:11:27Z</time>
      </trkpt>
      <trkpt lat="48.7162280" lon="13.4206830">
        <ele>454.4</ele>
        <time>2019-08-15T08:11:28Z</time>
      </trkpt>
      <trkpt lat="48.7162070" lon="13.4207980">
        <ele>454.0</ele>
        <time>2019-08-15T08:11:29Z</time>
      </trkpt>
      <trkpt lat="48.7161880" lon="13.4209220">
        <ele>453.8</ele>
        <time>2019-08-15T08:11:30Z</time>
      </trkpt>
      <trkpt lat="48.7161700" lon="13.4210520">
        <ele>453.4</ele>
        <time>2019-08-15T08:11:31Z</time>
      </trkpt>
      <trkpt lat="48.7161520" lon="13.4211830">
        <ele>453.2</ele>
        <time>2019-08-15T08:11:32Z</time>
      </trkpt>
      <trkpt lat="48.7161380" lon="13.4213060">
        <ele>453.0</ele>
        <time>2019-08-15T08:11:33Z</time>
      </trkpt>
      <trkpt lat="48.7161300" lon="13.4214330">
        <ele>452.6</ele>
        <time>2019-08-15T08:11:34Z</time>
      </trkpt>
      <trkpt lat="48.7161260" lon="13.4215640">
        <ele>452.4</ele>
        <time>2019-08-15T08:11:35Z</time>
      </trkpt>
      <trkpt lat="48.7161250" lon="13.4216990">
        <ele>452.2</ele>
        <time>2019-08-15T08:11:36Z</time>
      </trkpt>
      <trkpt lat="48.7161270" lon="13.4218310">
        <ele>452.0</ele>
        <time>2019-08-15T08:11:37Z</time>
      </trkpt>
      <trkpt lat="48.7161330" lon="13.4219670">
        <ele>451.8</ele>
        <time>2019-08-15T08:11:38Z</time>
      </trkpt>
      <trkpt lat="48.7161400" lon="13.4221030">
        <ele>451.6</ele>
        <time>2019-08-15T08:11:39Z</time>
      </trkpt>
      <trkpt lat="48.7161460" lon="13.4222370">
        <ele>451.4</ele>
        <time>2019-08-15T08:11:40Z</time>
      </trkpt>
      <trkpt lat="48.7161500" lon="13.4223690">
        <ele>451.2</ele>
        <time>2019-08-15T08:11:41Z</time>
      </trkpt>
      <trkpt lat="48.7161560" lon="13.4225010">
        <ele>451.0</ele>
        <time>2019-08-15T08:11:42Z</time>
      </trkpt>
      <trkpt lat="48.7161590" lon="13.4226330">
        <ele>450.8</ele>
        <time>2019-08-15T08:11:43Z</time>
      </trkpt>
      <trkpt lat="48.7161610" lon="13.4227610">
        <ele>450.6</ele>
        <time>2019-08-15T08:11:44Z</time>
      </trkpt>
      <trkpt lat="48.7161630" lon="13.4228890">
        <ele>450.4</ele>
        <time>2019-08-15T08:11:45Z</time>
      </trkpt>
      <trkpt lat="48.7161610" lon="13.4230160">
        <ele>450.0</ele>
        <time>2019-08-15T08:11:46Z</time>
      </trkpt>
      <trkpt lat="48.7161530" lon="13.4231450">
        <ele>449.8</ele>
        <time>2019-08-15T08:11:47Z</time>
      </trkpt>
      <trkpt lat="48.7161440" lon="13.4232720">
        <ele>449.6</ele>
        <time>2019-08-15T08:11:48Z</time>
      </trkpt>
      <trkpt lat="48.7161340" lon="13.4233990">
        <ele>449.4</ele>
        <time>2019-08-15T08:11:49Z</time>
      </trkpt>
      <trkpt lat="48.7161180" lon="13.4235260">
        <ele>449.0</ele>
        <time>2019-08-15T08:11:50Z</time>
      </trkpt>
      <trkpt lat="48.7160970" lon="13.4236480">
        <ele>448.8</ele>
        <time>2019-08-15T08:11:51Z</time>
      </trkpt>
      <trkpt lat="48.7160720" lon="13.4237660">
        <ele>448.6</ele>
        <time>2019-08-15T08:11:52Z</time>
      </trkpt>
      <trkpt lat="48.7160380" lon="13.4238830">
        <ele>448.4</ele>
        <time>2019-08-15T08:11:53Z</time>
      </trkpt>
      <trkpt lat="48.7159950" lon="13.4240000">
        <ele>448.2</ele>
        <time>2019-08-15T08:11:54Z</time>
      </trkpt>
      <trkpt lat="48.7159490" lon="13.4241110">
        <ele>448.0</ele>
        <time>2019-08-15T08:11:55Z</time>
      </trkpt>
      <trkpt lat="48.7158940" lon="13.4242210">
        <ele>447.6</ele>
        <time>2019-08-15T08:11:56Z</time>
      </trkpt>
      <trkpt lat="48.7158350" lon="13.4243300">
        <ele>447.4</ele>
        <time>2019-08-15T08:11:57Z</time>
      </trkpt>
      <trkpt lat="48.7157740" lon="13.4244370">
        <ele>447.0</ele>
        <time>2019-08-15T08:11:58Z</time>
      </trkpt>
      <trkpt lat="48.7157080" lon="13.4245380">
        <ele>446.8</ele>
        <time>2019-08-15T08:11:59Z</time>
      </trkpt>
      <trkpt lat="48.7156370" lon="13.4246330">
        <ele>446.6</ele>
        <time>2019-08-15T08:12:00Z</time>
      </trkpt>
      <trkpt lat="48.7155610" lon="13.4247270">
        <ele>446.4</ele>
        <time>2019-08-15T08:12:01Z</time>
      </trkpt>
      <trkpt lat="48.7154810" lon="13.4248160">
        <ele>446.2</ele>
        <time>2019-08-15T08:12:02Z</time>
      </trkpt>
      <trkpt lat="48.7154010" lon="13.4249000">
        <ele>446.0</ele>
        <time>2019-08-15T08:12:03Z</time>
      </trkpt>
      <trkpt lat="48.7153180" lon="13.4249790">
        <ele>445.6</ele>
        <time>2019-08-15T08:12:04Z</time>
      </trkpt>
      <trkpt lat="48.7152340" lon="13.4250540">
        <ele>445.4</ele>
        <time>2019-08-15T08:12:05Z</time>
      </trkpt>
      <trkpt lat="48.7151470" lon="13.4251210">
        <ele>445.2</ele>
        <time>2019-08-15T08:12:06Z</time>
      </trkpt>
      <trkpt lat="48.7150610" lon="13.4251840">
        <ele>444.8</ele>
        <time>2019-08-15T08:12:07Z</time>
      </trkpt>
      <trkpt lat="48.7149740" lon="13.4252460">
        <ele>444.6</ele>
        <time>2019-08-15T08:12:08Z</time>
      </trkpt>
      <trkpt lat="48.7148890" lon="13.4253050">
        <ele>444.4</ele>
        <time>2019-08-15T08:12:09Z</time>
      </trkpt>
      <trkpt lat="48.7148040" lon="13.4253650">
        <ele>444.4</ele>
        <time>2019-08-15T08:12:10Z</time>
      </trkpt>
      <trkpt lat="48.7147210" lon="13.4254210">
        <ele>444.4</ele>
        <time>2019-08-15T08:12:11Z</time>
      </trkpt>
      <trkpt lat="48.7146350" lon="13.4254780">
        <ele>444.2</ele>
        <time>2019-08-15T08:12:12Z</time>
      </trkpt>
      <trkpt lat="48.7145530" lon="13.4255410">
        <ele>444.2</ele>
        <time>2019-08-15T08:12:13Z</time>
      </trkpt>
      <trkpt lat="48.7144750" lon="13.4256060">
        <ele>443.8</ele>
        <time>2019-08-15T08:12:14Z</time>
      </trkpt>
      <trkpt lat="48.7143990" lon="13.4256730">
        <ele>443.6</ele>
        <time>2019-08-15T08:12:15Z</time>
      </trkpt>
      <trkpt lat="48.7143210" lon="13.4257410">
        <ele>443.4</ele>
        <time>2019-08-15T08:12:16Z</time>
      </trkpt>
      <trkpt lat="48.7142470" lon="13.4258130">
        <ele>443.2</ele>
        <time>2019-08-15T08:12:17Z</time>
      </trkpt>
      <trkpt lat="48.7141750" lon="13.4258960">
        <ele>443.0</ele>
        <time>2019-08-15T08:12:18Z</time>
      </trkpt>
      <trkpt lat="48.7141090" lon="13.4259860">
        <ele>442.8</ele>
        <time>2019-08-15T08:12:19Z</time>
      </trkpt>
      <trkpt lat="48.7140420" lon="13.4260860">
        <ele>442.4</ele>
        <time>2019-08-15T08:12:20Z</time>
      </trkpt>
      <trkpt lat="48.7139770" lon="13.4261910">
        <ele>441.8</ele>
        <time>2019-08-15T08:12:21Z</time>
      </trkpt>
      <trkpt lat="48.7139140" lon="13.4262980">
        <ele>441.6</ele>
        <time>2019-08-15T08:12:22Z</time>
      </trkpt>
      <trkpt lat="48.7138560" lon="13.4264070">
        <ele>441.2</ele>
        <time>2019-08-15T08:12:23Z</time>
      </trkpt>
      <trkpt lat="48.7138010" lon="13.4265170">
        <ele>441.0</ele>
        <time>2019-08-15T08:12:24Z</time>
      </trkpt>
      <trkpt lat="48.7137420" lon="13.4266270">
        <ele>440.6</ele>
        <time>2019-08-15T08:12:25Z</time>
      </trkpt>
      <trkpt lat="48.7136830" lon="13.4267350">
        <ele>440.2</ele>
        <time>2019-08-15T08:12:26Z</time>
      </trkpt>
      <trkpt lat="48.7136260" lon="13.4268420">
        <ele>439.8</ele>
        <time>2019-08-15T08:12:27Z</time>
      </trkpt>
      <trkpt lat="48.7135690" lon="13.4269520">
        <ele>439.6</ele>
        <time>2019-08-15T08:12:28Z</time>
      </trkpt>
      <trkpt lat="48.7135130" lon="13.4270610">
        <ele>439.4</ele>
        <time>2019-08-15T08:12:29Z</time>
      </trkpt>
      <trkpt lat="48.7134570" lon="13.4271660">
        <ele>439.0</ele>
        <time>2019-08-15T08:12:30Z</time>
      </trkpt>
      <trkpt lat="48.7134050" lon="13.4272710">
        <ele>438.8</ele>
        <time>2019-08-15T08:12:31Z</time>
      </trkpt>
      <trkpt lat="48.7133550" lon="13.4273670">
        <ele>438.6</ele>
        <time>2019-08-15T08:12:32Z</time>
      </trkpt>
      <trkpt lat="48.7133020" lon="13.4274670">
        <ele>438.4</ele>
        <time>2019-08-15T08:12:33Z</time>
      </trkpt>
      <trkpt lat="48.7132460" lon="13.4275680">
        <ele>438.2</ele>
        <time>2019-08-15T08:12:34Z</time>
      </trkpt>
      <trkpt lat="48.7131840" lon="13.4276640">
        <ele>438.0</ele>
        <time>2019-08-15T08:12:35Z</time>
      </trkpt>
      <trkpt lat="48.7131240" lon="13.4277530">
        <ele>437.8</ele>
        <time>2019-08-15T08:12:36Z</time>
      </trkpt>
      <trkpt lat="48.7130630" lon="13.4278420">
        <ele>437.6</ele>
        <time>2019-08-15T08:12:37Z</time>
      </trkpt>
      <trkpt lat="48.7129970" lon="13.4279290">
        <ele>437.4</ele>
        <time>2019-08-15T08:12:38Z</time>
      </trkpt>
      <trkpt lat="48.7129250" lon="13.4280010">
        <ele>437.2</ele>
        <time>2019-08-15T08:12:39Z</time>
      </trkpt>
      <trkpt lat="48.7128510" lon="13.4280650">
        <ele>437.0</ele>
        <time>2019-08-15T08:12:40Z</time>
      </trkpt>
      <trkpt lat="48.7127800" lon="13.4281220">
        <ele>437.0</ele>
        <time>2019-08-15T08:12:41Z</time>
      </trkpt>
      <trkpt lat="48.7127010" lon="13.4281800">
        <ele>436.8</ele>
        <time>2019-08-15T08:12:42Z</time>
      </trkpt>
      <trkpt lat="48.7126250" lon="13.4282260">
        <ele>436.6</ele>
        <time>2019-08-15T08:12:43Z</time>
      </trkpt>
      <trkpt lat="48.7125530" lon="13.4282640">
        <ele>436.2</ele>
        <time>2019-08-15T08:12:44Z</time>
      </trkpt>
      <trkpt lat="48.7124880" lon="13.4282960">
        <ele>436.0</ele>
        <time>2019-08-15T08:12:45Z</time>
      </trkpt>
      <trkpt lat="48.7124270" lon="13.4283250">
        <ele>435.8</ele>
        <time>2019-08-15T08:12:46Z</time>
      </trkpt>
      <trkpt lat="48.7123680" lon="13.4283500">
        <ele>435.4</ele>
        <time>2019-08-15T08:12:47Z</time>
      </trkpt>
      <trkpt lat="48.7123080" lon="13.4283650">
        <ele>435.2</ele>
        <time>2019-08-15T08:12:48Z</time>
      </trkpt>
      <trkpt lat="48.7122490" lon="13.4283760">
        <ele>435.0</ele>
        <time>2019-08-15T08:12:49Z</time>
      </trkpt>
      <trkpt lat="48.7121910" lon="13.4283850">
        <ele>434.8</ele>
        <time>2019-08-15T08:12:50Z</time>
      </trkpt>
      <trkpt lat="48.7121450" lon="13.4283910">
        <ele>434.4</ele>
        <time>2019-08-15T08:12:51Z</time>
      </trkpt>
      <trkpt lat="48.7121120" lon="13.4283930">
        <ele>434.0</ele>
        <time>2019-08-15T08:12:52Z</time>
      </trkpt>
      <trkpt lat="48.7120910" lon="13.4283920">
        <ele>433.8</ele>
        <time>2019-08-15T08:12:53Z</time>
      </trkpt>
      <trkpt lat="48.7120770" lon="13.4283930">
        <ele>433.6</ele>
        <time>2019-08-15T08:12:54Z</time>
      </trkpt>
      <trkpt lat="48.7120640" lon="13.4283950">
        <ele>433.4</ele>
        <time>2019-08-15T08:12:55Z</time>
      </trkpt>
      <trkpt lat="48.7120550" lon="13.4283980">
        <ele>433.2</ele>
        <time>2019-08-15T08:12:56Z</time>
      </trkpt>
      <trkpt lat="48.7120480" lon="13.4284020">
        <ele>433.2</ele>
        <time>2019-08-15T08:12:57Z</time>
      </trkpt>
      <trkpt lat="48.7120410" lon="13.4284100">
        <ele>433.0</ele>
        <time>2019-08-15T08:12:58Z</time>
      </trkpt>
      <trkpt lat="48.7120310" lon="13.4284160">
        <ele>433.0</ele>
        <time>2019-08-15T08:12:59Z</time>
      </trkpt>
      <trkpt lat="48.7120170" lon="13.4284150">
        <ele>433.0</ele>
        <time>2019-08-15T08:13:00Z</time>
      </trkpt>
      <trkpt lat="48.7119990" lon="13.4284140">
        <ele>432.8</ele>
        <time>2019-08-15T08:13:01Z</time>
      </trkpt>
      <trkpt lat="48.7119800" lon="13.4284110">
        <ele>432.8</ele>
        <time>2019-08-15T08:13:02Z</time>
      </trkpt>
      <trkpt lat="48.7119600" lon="13.4284060">
        <ele>432.8</ele>
        <time>2019-08-15T08:13:03Z</time>
      </trkpt>
      <trkpt lat="48.7119420" lon="13.4284010">
        <ele>433.0</ele>
        <time>2019-08-15T08:13:04Z</time>
      </trkpt>
      <trkpt lat="48.7119270" lon="13.4284000">
        <ele>433.0</ele>
        <time>2019-08-15T08:13:05Z</time>
      </trkpt>
      <trkpt lat="48.7119090" lon="13.4283990">
        <ele>433.0</ele>
        <time>2019-08-15T08:13:06Z</time>
      </trkpt>
      <trkpt lat="48.7118880" lon="13.4284010">
        <ele>433.0</ele>
        <time>2019-08-15T08:13:07Z</time>
      </trkpt>
      <trkpt lat="48.7118600" lon="13.4284070">
        <ele>432.8</ele>
        <time>2019-08-15T08:13:08Z</time>
      </trkpt>
      <trkpt lat="48.7118250" lon="13.4284080">
        <ele>432.8</ele>
        <time>2019-08-15T08:13:09Z</time>
      </trkpt>
      <trkpt lat="48.7117880" lon="13.4284050">
        <ele>432.8</ele>
        <time>2019-08-15T08:13:10Z</time>
      </trkpt>
      <trkpt lat="48.7117470" lon="13.4283980">
        <ele>432.6</ele>
        <time>2019-08-15T08:13:11Z</time>
      </trkpt>
      <trkpt lat="48.7117030" lon="13.4283890">
        <ele>432.6</ele>
        <time>2019-08-15T08:13:12Z</time>
      </trkpt>
      <trkpt lat="48.7116550" lon="13.4283780">
        <ele>432.4</ele>
        <time>2019-08-15T08:13:13Z</time>
      </trkpt>
      <trkpt lat="48.7116050" lon="13.4283630">
        <ele>432.2</ele>
        <time>2019-08-15T08:13:14Z</time>
      </trkpt>
      <trkpt lat="48.7115530" lon="13.4283470">
        <ele>432.0</ele>
        <time>2019-08-15T08:13:15Z</time>
      </trkpt>
      <trkpt lat="48.7115020" lon="13.4283320">
        <ele>432.0</ele>
        <time>2019-08-15T08:13:16Z</time>
      </trkpt>
      <trkpt lat="48.7114470" lon="13.4283170">
        <ele>431.8</ele>
        <time>2019-08-15T08:13:17Z</time>
      </trkpt>
      <trkpt lat="48.7113900" lon="13.4283020">
        <ele>431.8</ele>
        <time>2019-08-15T08:13:18Z</time>
      </trkpt>
      <trkpt lat="48.7113330" lon="13.4282880">
        <ele>431.6</ele>
        <time>2019-08-15T08:13:19Z</time>
      </trkpt>
      <trkpt lat="48.7112750" lon="13.4282730">
        <ele>431.6</ele>
        <time>2019-08-15T08:13:20Z</time>
      </trkpt>
      <trkpt lat="48.7112140" lon="13.4282580">
        <ele>431.6</ele>
        <time>2019-08-15T08:13:21Z</time>
      </trkpt>
      <trkpt lat="48.7111520" lon="13.4282500">
        <ele>431.4</ele>
        <time>2019-08-15T08:13:22Z</time>
      </trkpt>
      <trkpt lat="48.7110830" lon="13.4282500">
        <ele>431.4</ele>
        <time>2019-08-15T08:13:23Z</time>
      </trkpt>
      <trkpt lat="48.7110120" lon="13.4282510">
        <ele>431.2</ele>
        <time>2019-08-15T08:13:24Z</time>
      </trkpt>
      <trkpt lat="48.7109440" lon="13.4282590">
        <ele>431.0</ele>
        <time>2019-08-15T08:13:25Z</time>
      </trkpt>
      <trkpt lat="48.7108740" lon="13.4282710">
        <ele>430.8</ele>
        <time>2019-08-15T08:13:26Z</time>
      </trkpt>
      <trkpt lat="48.7108080" lon="13.4282820">
        <ele>430.8</ele>
        <time>2019-08-15T08:13:27Z</time>
      </trkpt>
      <trkpt lat="48.7107460" lon="13.4282950">
        <ele>430.6</ele>
        <time>2019-08-15T08:13:28Z</time>
      </trkpt>
      <trkpt lat="48.7106750" lon="13.4283160">
        <ele>430.4</ele>
        <time>2019-08-15T08:13:29Z</time>
      </trkpt>
      <trkpt lat="48.7106010" lon="13.4283450">
        <ele>430.4</ele>
        <time>2019-08-15T08:13:30Z</time>
      </trkpt>
      <trkpt lat="48.7105260" lon="13.4283760">
        <ele>430.2</ele>
        <time>2019-08-15T08:13:31Z</time>
      </trkpt>
      <trkpt lat="48.7104540" lon="13.4284130">
        <ele>430.0</ele>
        <time>2019-08-15T08:13:32Z</time>
      </trkpt>
      <trkpt lat="48.7103830" lon="13.4284540">
        <ele>429.8</ele>
        <time>2019-08-15T08:13:33Z</time>
      </trkpt>
      <trkpt lat="48.7103120" lon="13.4284940">
        <ele>429.6</ele>
        <time>2019-08-15T08:13:34Z</time>
      </trkpt>
      <trkpt lat="48.7102400" lon="13.4285340">
        <ele>429.4</ele>
        <time>2019-08-15T08:13:35Z</time>
      </trkpt>
      <trkpt lat="48.7101660" lon="13.4285750">
        <ele>429.2</ele>
        <time>2019-08-15T08:13:36Z</time>
      </trkpt>
      <trkpt lat="48.7100900" lon="13.4286200">
        <ele>429.0</ele>
        <time>2019-08-15T08:13:37Z</time>
      </trkpt>
      <trkpt lat="48.7100130" lon="13.4286690">
        <ele>428.6</ele>
        <time>2019-08-15T08:13:38Z</time>
      </trkpt>
      <trkpt lat="48.7099390" lon="13.4287210">
        <ele>428.2</ele>
        <time>2019-08-15T08:13:39Z</time>
      </trkpt>
      <trkpt lat="48.7098700" lon="13.4287710">
        <ele>427.8</ele>
        <time>2019-08-15T08:13:40Z</time>
      </trkpt>
      <trkpt lat="48.7098010" lon="13.4288190">
        <ele>427.4</ele>
        <time>2019-08-15T08:13:41Z</time>
      </trkpt>
      <trkpt lat="48.7097280" lon="13.4288650">
        <ele>427.2</ele>
        <time>2019-08-15T08:13:42Z</time>
      </trkpt>
      <trkpt lat="48.7096530" lon="13.4289030">
        <ele>426.8</ele>
        <time>2019-08-15T08:13:43Z</time>
      </trkpt>
      <trkpt lat="48.7095810" lon="13.4289350">
        <ele>426.6</ele>
        <time>2019-08-15T08:13:44Z</time>
      </trkpt>
      <trkpt lat="48.7095080" lon="13.4289610">
        <ele>426.6</ele>
        <time>2019-08-15T08:13:45Z</time>
      </trkpt>
      <trkpt lat="48.7094310" lon="13.4289850">
        <ele>426.4</ele>
        <time>2019-08-15T08:13:46Z</time>
      </trkpt>
      <trkpt lat="48.7093510" lon="13.4290060">
        <ele>426.2</ele>
        <time>2019-08-15T08:13:47Z</time>
      </trkpt>
      <trkpt lat="48.7092710" lon="13.4290200">
        <ele>426.0</ele>
        <time>2019-08-15T08:13:48Z</time>
      </trkpt>
      <trkpt lat="48.7091940" lon="13.4290290">
        <ele>426.0</ele>
        <time>2019-08-15T08:13:49Z</time>
      </trkpt>
      <trkpt lat="48.7091150" lon="13.4290270">
        <ele>425.8</ele>
        <time>2019-08-15T08:13:50Z</time>
      </trkpt>
      <trkpt lat="48.7090330" lon="13.4290210">
        <ele>425.4</ele>
        <time>2019-08-15T08:13:51Z</time>
      </trkpt>
      <trkpt lat="48.7089530" lon="13.4290100">
        <ele>425.2</ele>
        <time>2019-08-15T08:13:52Z</time>
      </trkpt>
      <trkpt lat="48.7088740" lon="13.4289950">
        <ele>425.0</ele>
        <time>2019-08-15T08:13:53Z</time>
      </trkpt>
      <trkpt lat="48.7087990" lon="13.4289760">
        <ele>424.8</ele>
        <time>2019-08-15T08:13:54Z</time>
      </trkpt>
      <trkpt lat="48.7087230" lon="13.4289520">
        <ele>424.6</ele>
        <time>2019-08-15T08:13:55Z</time>
      </trkpt>
      <trkpt lat="48.7086570" lon="13.4289320">
        <ele>424.4</ele>
        <time>2019-08-15T08:13:56Z</time>
      </trkpt>
      <trkpt lat="48.7085900" lon="13.4289050">
        <ele>424.4</ele>
        <time>2019-08-15T08:13:57Z</time>
      </trkpt>
      <trkpt lat="48.7085190" lon="13.4288710">
        <ele>424.2</ele>
        <time>2019-08-15T08:13:58Z</time>
      </trkpt>
      <trkpt lat="48.7084440" lon="13.4288340">
        <ele>423.8</ele>
        <time>2019-08-15T08:13:59Z</time>
      </trkpt>
      <trkpt lat="48.7083660" lon="13.4288000">
        <ele>423.6</ele>
        <time>2019-08-15T08:14:00Z</time>
      </trkpt>
      <trkpt lat="48.7082810" lon="13.4287650">
        <ele>423.4</ele>
        <time>2019-08-15T08:14:01Z</time>
      </trkpt>
      <trkpt lat="48.7081870" lon="13.4287310">
        <ele>423.4</ele>
        <time>2019-08-15T08:14:02Z</time>
      </trkpt>
      <trkpt lat="48.7080960" lon="13.4286970">
        <ele>423.2</ele>
        <time>2019-08-15T08:14:03Z</time>
      </trkpt>
      <trkpt lat="48.7080040" lon="13.4286710">
        <ele>423.0</ele>
        <time>2019-08-15T08:14:04Z</time>
      </trkpt>
      <trkpt lat="48.7079100" lon="13.4286570">
        <ele>422.6</ele>
        <time>2019-08-15T08:14:05Z</time>
      </trkpt>
      <trkpt lat="48.7078170" lon="13.4286460">
        <ele>422.2</ele>
        <time>2019-08-15T08:14:06Z</time>
      </trkpt>
      <trkpt lat="48.7077270" lon="13.4286400">
        <ele>422.0</ele>
        <time>2019-08-15T08:14:07Z</time>
      </trkpt>
      <trkpt lat="48.7076370" lon="13.4286460">
        <ele>421.8</ele>
        <time>2019-08-15T08:14:08Z</time>
      </trkpt>
      <trkpt lat="48.7075420" lon="13.4286590">
        <ele>421.6</ele>
        <time>2019-08-15T08:14:09Z</time>
      </trkpt>
      <trkpt lat="48.7074440" lon="13.4286750">
        <ele>421.4</ele>
        <time>2019-08-15T08:14:10Z</time>
      </trkpt>
      <trkpt lat="48.7073500" lon="13.4287000">
        <ele>421.2</ele>
        <time>2019-08-15T08:14:11Z</time>
      </trkpt>
      <trkpt lat="48.7072660" lon="13.4287390">
        <ele>420.8</ele>
        <time>2019-08-15T08:14:12Z</time>
      </trkpt>
      <trkpt lat="48.7071850" lon="13.4287870">
        <ele>420.6</ele>
        <time>2019-08-15T08:14:13Z</time>
      </trkpt>
      <trkpt lat="48.7071070" lon="13.4288360">
        <ele>420.2</ele>
        <time>2019-08-15T08:14:14Z</time>
      </trkpt>
      <trkpt lat="48.7070340" lon="13.4288870">
        <ele>420.0</ele>
        <time>2019-08-15T08:14:15Z</time>
      </trkpt>
      <trkpt lat="48.7069620" lon="13.4289430">
        <ele>419.8</ele>
        <time>2019-08-15T08:14:16Z</time>
      </trkpt>
      <trkpt lat="48.7068880" lon="13.4289980">
        <ele>419.6</ele>
        <time>2019-08-15T08:14:17Z</time>
      </trkpt>
      <trkpt lat="48.7068080" lon="13.4290520">
        <ele>419.4</ele>
        <time>2019-08-15T08:14:18Z</time>
      </trkpt>
      <trkpt lat="48.7067200" lon="13.4291200">
        <ele>419.2</ele>
        <time>2019-08-15T08:14:19Z</time>
      </trkpt>
      <trkpt lat="48.7066390" lon="13.4291980">
        <ele>419.2</ele>
        <time>2019-08-15T08:14:20Z</time>
      </trkpt>
      <trkpt lat="48.7065590" lon="13.4292790">
        <ele>419.0</ele>
        <time>2019-08-15T08:14:21Z</time>
      </trkpt>
      <trkpt lat="48.7064820" lon="13.4293630">
        <ele>418.8</ele>
        <time>2019-08-15T08:14:22Z</time>
      </trkpt>
      <trkpt lat="48.7064140" lon="13.4294470">
        <ele>418.6</ele>
        <time>2019-08-15T08:14:23Z</time>
      </trkpt>
      <trkpt lat="48.7063510" lon="13.4295370">
        <ele>418.2</ele>
        <time>2019-08-15T08:14:24Z</time>
      </trkpt>
      <trkpt lat="48.7062720" lon="13.4296260">
        <ele>417.8</ele>
        <time>2019-08-15T08:14:25Z</time>
      </trkpt>
      <trkpt lat="48.7062050" lon="13.4297230">
        <ele>417.4</ele>
        <time>2019-08-15T08:14:26Z</time>
      </trkpt>
      <trkpt lat="48.7061500" lon="13.4298280">
        <ele>417.0</ele>
        <time>2019-08-15T08:14:27Z</time>
      </trkpt>
      <trkpt lat="48.7060970" lon="13.4299370">
        <ele>416.6</ele>
        <time>2019-08-15T08:14:28Z</time>
      </trkpt>
      <trkpt lat="48.7060420" lon="13.4300480">
        <ele>416.4</ele>
        <time>2019-08-15T08:14:29Z</time>
      </trkpt>
      <trkpt lat="48.7059870" lon="13.4301550">
        <ele>416.0</ele>
        <time>2019-08-15T08:14:30Z</time>
      </trkpt>
      <trkpt lat="48.7059320" lon="13.4302610">
        <ele>415.8</ele>
        <time>2019-08-15T08:14:31Z</time>
      </trkpt>
      <trkpt lat="48.7058790" lon="13.4303650">
        <ele>415.6</ele>
        <time>2019-08-15T08:14:32Z</time>
      </trkpt>
      <trkpt lat="48.7058280" lon="13.4304690">
        <ele>415.4</ele>
        <time>2019-08-15T08:14:33Z</time>
      </trkpt>
      <trkpt lat="48.7057810" lon="13.4305680">
        <ele>415.4</ele>
        <time>2019-08-15T08:14:34Z</time>
      </trkpt>
      <trkpt lat="48.7057350" lon="13.4306690">
        <ele>415.2</ele>
        <time>2019-08-15T08:14:35Z</time>
      </trkpt>
      <trkpt lat="48.7056860" lon="13.4307720">
        <ele>415.0</ele>
        <time>2019-08-15T08:14:36Z</time>
      </trkpt>
      <trkpt lat="48.7056350" lon="13.4308690">
        <ele>415.0</ele>
        <time>2019-08-15T08:14:37Z</time>
      </trkpt>
      <trkpt lat="48.7055880" lon="13.4309640">
        <ele>415.0</ele>
        <time>2019-08-15T08:14:38Z</time>
      </trkpt>
      <trkpt lat="48.7055360" lon="13.4310560">
        <ele>415.0</ele>
        <time>2019-08-15T08:14:39Z</time>
      </trkpt>
      <trkpt lat="48.7054770" lon="13.4311390">
        <ele>414.8</ele>
        <time>2019-08-15T08:14:40Z</time>
      </trkpt>
      <trkpt lat="48.7054130" lon="13.4312240">
        <ele>414.6</ele>
        <time>2019-08-15T08:14:41Z</time>
      </trkpt>
      <trkpt lat="48.7053500" lon="13.4313100">
        <ele>414.4</ele>
        <time>2019-08-15T08:14:42Z</time>
      </trkpt>
      <trkpt lat="48.7052850" lon="13.4314010">
        <ele>414.2</ele>
        <time>2019-08-15T08:14:43Z</time>
      </trkpt>
      <trkpt lat="48.7052250" lon="13.4314950">
        <ele>413.8</ele>
        <time>2019-08-15T08:14:44Z</time>
      </trkpt>
      <trkpt lat="48.7051680" lon="13.4315890">
        <ele>413.6</ele>
        <time>2019-08-15T08:14:45Z</time>
      </trkpt>
      <trkpt lat="48.7051070" lon="13.4316800">
        <ele>413.4</ele>
        <time>2019-08-15T08:14:46Z</time>
      </trkpt>
      <trkpt lat="48.7050430" lon="13.4317690">
        <ele>413.0</ele>
        <time>2019-08-15T08:14:47Z</time>
      </trkpt>
      <trkpt lat="48.7049750" lon="13.4318520">
        <ele>412.8</ele>
        <time>2019-08-15T08:14:48Z</time>
      </trkpt>
      <trkpt lat="48.7049080" lon="13.4319340">
        <ele>412.6</ele>
        <time>2019-08-15T08:14:49Z</time>
      </trkpt>
      <trkpt lat="48.7048380" lon="13.4320160">
        <ele>412.4</ele>
        <time>2019-08-15T08:14:50Z</time>
      </trkpt>
      <trkpt lat="48.7047710" lon="13.4320970">
        <ele>412.2</ele>
        <time>2019-08-15T08:14:51Z</time>
      </trkpt>
      <trkpt lat="48.7047050" lon="13.4321750">
        <ele>412.0</ele>
        <time>2019-08-15T08:14:52Z</time>
      </trkpt>
      <trkpt lat="48.7046290" lon="13.4322590">
        <ele>411.8</ele>
        <time>2019-08-15T08:14:53Z</time>
      </trkpt>
      <trkpt lat="48.7045410" lon="13.4323300">
        <ele>411.6</ele>
        <time>2019-08-15T08:14:54Z</time>
      </trkpt>
      <trkpt lat="48.7044510" lon="13.4324030">
        <ele>411.2</ele>
        <time>2019-08-15T08:14:55Z</time>
      </trkpt>
      <trkpt lat="48.7043760" lon="13.4324830">
        <ele>410.8</ele>
        <time>2019-08-15T08:14:56Z</time>
      </trkpt>
      <trkpt lat="48.7042950" lon="13.4325660">
        <ele>410.4</ele>
        <time>2019-08-15T08:14:57Z</time>
      </trkpt>
      <trkpt lat="48.7042110" lon="13.4326500">
        <ele>410.2</ele>
        <time>2019-08-15T08:14:58Z</time>
      </trkpt>
      <trkpt lat="48.7041330" lon="13.4327290">
        <ele>409.8</ele>
        <time>2019-08-15T08:14:59Z</time>
      </trkpt>
      <trkpt lat="48.7040530" lon="13.4328070">
        <ele>409.6</ele>
        <time>2019-08-15T08:15:00Z</time>
      </trkpt>
      <trkpt lat="48.7039640" lon="13.4328820">
        <ele>409.2</ele>
        <time>2019-08-15T08:15:01Z</time>
      </trkpt>
      <trkpt lat="48.7038710" lon="13.4329640">
        <ele>409.0</ele>
        <time>2019-08-15T08:15:02Z</time>
      </trkpt>
      <trkpt lat="48.7037940" lon="13.4330550">
        <ele>408.6</ele>
        <time>2019-08-15T08:15:03Z</time>
      </trkpt>
      <trkpt lat="48.7037220" lon="13.4331490">
        <ele>408.6</ele>
        <time>2019-08-15T08:15:04Z</time>
      </trkpt>
      <trkpt lat="48.7036590" lon="13.4332500">
        <ele>408.2</ele>
        <time>2019-08-15T08:15:05Z</time>
      </trkpt>
      <trkpt lat="48.7035920" lon="13.4333540">
        <ele>408.0</ele>
        <time>2019-08-15T08:15:06Z</time>
      </trkpt>
      <trkpt lat="48.7035330" lon="13.4334600">
        <ele>407.8</ele>
        <time>2019-08-15T08:15:07Z</time>
      </trkpt>
      <trkpt lat="48.7034760" lon="13.4335740">
        <ele>407.4</ele>
        <time>2019-08-15T08:15:08Z</time>
      </trkpt>
      <trkpt lat="48.7034240" lon="13.4336920">
        <ele>407.2</ele>
        <time>2019-08-15T08:15:09Z</time>
      </trkpt>
      <trkpt lat="48.7033730" lon="13.4338100">
        <ele>406.8</ele>
        <time>2019-08-15T08:15:10Z</time>
      </trkpt>
      <trkpt lat="48.7033290" lon="13.4339220">
        <ele>406.6</ele>
        <time>2019-08-15T08:15:11Z</time>
      </trkpt>
      <trkpt lat="48.7032910" lon="13.4340370">
        <ele>406.2</ele>
        <time>2019-08-15T08:15:12Z</time>
      </trkpt>
      <trkpt lat="48.7032580" lon="13.4341600">
        <ele>405.8</ele>
        <time>2019-08-15T08:15:13Z</time>
      </trkpt>
      <trkpt lat="48.7032330" lon="13.4342860">
        <ele>405.6</ele>
        <time>2019-08-15T08:15:14Z</time>
      </trkpt>
      <trkpt lat="48.7032130" lon="13.4344140">
        <ele>405.4</ele>
        <time>2019-08-15T08:15:15Z</time>
      </trkpt>
      <trkpt lat="48.7031930" lon="13.4345450">
        <ele>405.2</ele>
        <time>2019-08-15T08:15:16Z</time>
      </trkpt>
      <trkpt lat="48.7031780" lon="13.4346730">
        <ele>404.8</ele>
        <time>2019-08-15T08:15:17Z</time>
      </trkpt>
      <trkpt lat="48.7031690" lon="13.4348020">
        <ele>404.6</ele>
        <time>2019-08-15T08:15:18Z</time>
      </trkpt>
      <trkpt lat="48.7031650" lon="13.4349350">
        <ele>404.6</ele>
        <time>2019-08-15T08:15:19Z</time>
      </trkpt>
      <trkpt lat="48.7031650" lon="13.4350740">
        <ele>404.4</ele>
        <time>2019-08-15T08:15:20Z</time>
      </trkpt>
      <trkpt lat="48.7031660" lon="13.4352100">
        <ele>404.2</ele>
        <time>2019-08-15T08:15:21Z</time>
      </trkpt>
      <trkpt lat="48.7031740" lon="13.4353420">
        <ele>403.8</ele>
        <time>2019-08-15T08:15:22Z</time>
      </trkpt>
      <trkpt lat="48.7031870" lon="13.4354770">
        <ele>403.4</ele>
        <time>2019-08-15T08:15:23Z</time>
      </trkpt>
      <trkpt lat="48.7032030" lon="13.4356130">
        <ele>403.2</ele>
        <time>2019-08-15T08:15:24Z</time>
      </trkpt>
      <trkpt lat="48.7032230" lon="13.4357400">
        <ele>403.0</ele>
        <time>2019-08-15T08:15:25Z</time>
      </trkpt>
      <trkpt lat="48.7032440" lon="13.4358750">
        <ele>402.8</ele>
        <time>2019-08-15T08:15:26Z</time>
      </trkpt>
      <trkpt lat="48.7032670" lon="13.4360050">
        <ele>402.4</ele>
        <time>2019-08-15T08:15:27Z</time>
      </trkpt>
      <trkpt lat="48.7032950" lon="13.4361330">
        <ele>402.0</ele>
        <time>2019-08-15T08:15:28Z</time>
      </trkpt>
      <trkpt lat="48.7033250" lon="13.4362540">
        <ele>401.8</ele>
        <time>2019-08-15T08:15:29Z</time>
      </trkpt>
      <trkpt lat="48.7033470" lon="13.4363830">
        <ele>401.6</ele>
        <time>2019-08-15T08:15:30Z</time>
      </trkpt>
      <trkpt lat="48.7033710" lon="13.4365160">
        <ele>401.6</ele>
        <time>2019-08-15T08:15:31Z</time>
      </trkpt>
      <trkpt lat="48.7033920" lon="13.4366560">
        <ele>401.4</ele>
        <time>2019-08-15T08:15:32Z</time>
      </trkpt>
      <trkpt lat="48.7034100" lon="13.4367960">
        <ele>401.4</ele>
        <time>2019-08-15T08:15:33Z</time>
      </trkpt>
      <trkpt lat="48.7034210" lon="13.4369370">
        <ele>401.2</ele>
        <time>2019-08-15T08:15:34Z</time>
      </trkpt>
      <trkpt lat="48.7034250" lon="13.4370820">
        <ele>400.8</ele>
        <time>2019-08-15T08:15:35Z</time>
      </trkpt>
      <trkpt lat="48.7034260" lon="13.4372270">
        <ele>400.6</ele>
        <time>2019-08-15T08:15:36Z</time>
      </trkpt>
      <trkpt lat="48.7034240" lon="13.4373700">
        <ele>400.4</ele>
        <time>2019-08-15T08:15:37Z</time>
      </trkpt>
      <trkpt lat="48.7034140" lon="13.4375130">
        <ele>400.0</ele>
        <time>2019-08-15T08:15:38Z</time>
      </trkpt>
      <trkpt lat="48.7034000" lon="13.4376520">
        <ele>399.8</ele>
        <time>2019-08-15T08:15:39Z</time>
      </trkpt>
      <trkpt lat="48.7033820" lon="13.4377880">
        <ele>399.6</ele>
        <time>2019-08-15T08:15:40Z</time>
      </trkpt>
      <trkpt lat="48.7033600" lon="13.4379210">
        <ele>399.2</ele>
        <time>2019-08-15T08:15:41Z</time>
      </trkpt>
      <trkpt lat="48.7033370" lon="13.4380460">
        <ele>399.0</ele>
        <time>2019-08-15T08:15:42Z</time>
      </trkpt>
      <trkpt lat="48.7033080" lon="13.4381690">
        <ele>398.8</ele>
        <time>2019-08-15T08:15:43Z</time>
      </trkpt>
      <trkpt lat="48.7032720" lon="13.4382930">
        <ele>398.6</ele>
        <time>2019-08-15T08:15:44Z</time>
      </trkpt>
      <trkpt lat="48.7032300" lon="13.4384110">
        <ele>398.2</ele>
        <time>2019-08-15T08:15:45Z</time>
      </trkpt>
      <trkpt lat="48.7031860" lon="13.4385210">
        <ele>398.0</ele>
        <time>2019-08-15T08:15:46Z</time>
      </trkpt>
      <trkpt lat="48.7031400" lon="13.4386280">
        <ele>397.8</ele>
        <time>2019-08-15T08:15:47Z</time>
      </trkpt>
      <trkpt lat="48.7030920" lon="13.4387310">
        <ele>397.6</ele>
        <time>2019-08-15T08:15:48Z</time>
      </trkpt>
      <trkpt lat="48.7030390" lon="13.4388340">
        <ele>397.4</ele>
        <time>2019-08-15T08:15:49Z</time>
      </trkpt>
      <trkpt lat="48.7029890" lon="13.4389320">
        <ele>397.2</ele>
        <time>2019-08-15T08:15:50Z</time>
      </trkpt>
      <trkpt lat="48.7029370" lon="13.4390400">
        <ele>396.8</ele>
        <time>2019-08-15T08:15:51Z</time>
      </trkpt>
      <trkpt lat="48.7028840" lon="13.4391470">
        <ele>396.6</ele>
        <time>2019-08-15T08:15:52Z</time>
      </trkpt>
      <trkpt lat="48.7028320" lon="13.4392460">
        <ele>396.4</ele>
        <time>2019-08-15T08:15:53Z</time>
      </trkpt>
      <trkpt lat="48.7027780" lon="13.4393460">
        <ele>396.0</ele>
        <time>2019-08-15T08:15:54Z</time>
      </trkpt>
      <trkpt lat="48.7027210" lon="13.4394460">
        <ele>396.0</ele>
        <time>2019-08-15T08:15:55Z</time>
      </trkpt>
      <trkpt lat="48.7026640" lon="13.4395460">
        <ele>395.8</ele>
        <time>2019-08-15T08:15:56Z</time>
      </trkpt>
      <trkpt lat="48.7026090" lon="13.4396450">
        <ele>395.6</ele>
        <time>2019-08-15T08:15:57Z</time>
      </trkpt>
      <trkpt lat="48.7025600" lon="13.4397350">
        <ele>395.4</ele>
        <time>2019-08-15T08:15:58Z</time>
      </trkpt>
      <trkpt lat="48.7025150" lon="13.4398210">
        <ele>395.2</ele>
        <time>2019-08-15T08:15:59Z</time>
      </trkpt>
      <trkpt lat="48.7024730" lon="13.4398920">
        <ele>395.0</ele>
        <time>2019-08-15T08:16:00Z</time>
      </trkpt>
      <trkpt lat="48.7024260" lon="13.4399700">
        <ele>394.8</ele>
        <time>2019-08-15T08:16:01Z</time>
      </trkpt>
      <trkpt lat="48.7023710" lon="13.4400550">
        <ele>394.4</ele>
        <time>2019-08-15T08:16:02Z</time>
      </trkpt>
      <trkpt lat="48.7023110" lon="13.4401490">
        <ele>394.2</ele>
        <time>2019-08-15T08:16:03Z</time>
      </trkpt>
      <trkpt lat="48.7022420" lon="13.4402390">
        <ele>394.0</ele>
        <time>2019-08-15T08:16:04Z</time>
      </trkpt>
      <trkpt lat="48.7021740" lon="13.4403230">
        <ele>393.8</ele>
        <time>2019-08-15T08:16:05Z</time>
      </trkpt>
      <trkpt lat="48.7021000" lon="13.4404000">
        <ele>393.6</ele>
        <time>2019-08-15T08:16:06Z</time>
      </trkpt>
      <trkpt lat="48.7020280" lon="13.4404720">
        <ele>393.2</ele>
        <time>2019-08-15T08:16:07Z</time>
      </trkpt>
      <trkpt lat="48.7019590" lon="13.4405450">
        <ele>393.0</ele>
        <time>2019-08-15T08:16:08Z</time>
      </trkpt>
      <trkpt lat="48.7018930" lon="13.4406150">
        <ele>392.8</ele>
        <time>2019-08-15T08:16:09Z</time>
      </trkpt>
      <trkpt lat="48.7018270" lon="13.4406720">
        <ele>392.6</ele>
        <time>2019-08-15T08:16:10Z</time>
      </trkpt>
      <trkpt lat="48.7017550" lon="13.4407240">
        <ele>392.2</ele>
        <time>2019-08-15T08:16:11Z</time>
      </trkpt>
      <trkpt lat="48.7016820" lon="13.4407800">
        <ele>392.0</ele>
        <time>2019-08-15T08:16:12Z</time>
      </trkpt>
      <trkpt lat="48.7016110" lon="13.4408330">
        <ele>391.6</ele>
        <time>2019-08-15T08:16:13Z</time>
      </trkpt>
      <trkpt lat="48.7015420" lon="13.4408930">
        <ele>391.4</ele>
        <time>2019-08-15T08:16:14Z</time>
      </trkpt>
      <trkpt lat="48.7014630" lon="13.4409430">
        <ele>391.0</ele>
        <time>2019-08-15T08:16:15Z</time>
      </trkpt>
      <trkpt lat="48.7013790" lon="13.4409840">
        <ele>390.6</ele>
        <time>2019-08-15T08:16:16Z</time>
      </trkpt>
      <trkpt lat="48.7012950" lon="13.4410250">
        <ele>390.4</ele>
        <time>2019-08-15T08:16:17Z</time>
      </trkpt>
      <trkpt lat="48.7012060" lon="13.4410610">
        <ele>390.2</ele>
        <time>2019-08-15T08:16:18Z</time>
      </trkpt>
      <trkpt lat="48.7011230" lon="13.4410970">
        <ele>390.0</ele>
        <time>2019-08-15T08:16:19Z</time>
      </trkpt>
      <trkpt lat="48.7010410" lon="13.4411480">
        <ele>389.8</ele>
        <time>2019-08-15T08:16:20Z</time>
      </trkpt>
      <trkpt lat="48.7009580" lon="13.4412010">
        <ele>389.6</ele>
        <time>2019-08-15T08:16:21Z</time>
      </trkpt>
      <trkpt lat="48.7008720" lon="13.4412620">
        <ele>389.4</ele>
        <time>2019-08-15T08:16:22Z</time>
      </trkpt>
      <trkpt lat="48.7007850" lon="13.4413240">
        <ele>389.2</ele>
        <time>2019-08-15T08:16:23Z</time>
      </trkpt>
      <trkpt lat="48.7006940" lon="13.4413930">
        <ele>388.8</ele>
        <time>2019-08-15T08:16:24Z</time>
      </trkpt>
      <trkpt lat="48.7006040" lon="13.4414590">
        <ele>388.8</ele>
        <time>2019-08-15T08:16:25Z</time>
      </trkpt>
      <trkpt lat="48.7005200" lon="13.4415310">
        <ele>388.6</ele>
        <time>2019-08-15T08:16:26Z</time>
      </trkpt>
      <trkpt lat="48.7004370" lon="13.4416010">
        <ele>388.4</ele>
        <time>2019-08-15T08:16:27Z</time>
      </trkpt>
      <trkpt lat="48.7003590" lon="13.4416660">
        <ele>388.2</ele>
        <time>2019-08-15T08:16:28Z</time>
      </trkpt>
      <trkpt lat="48.7002850" lon="13.4417320">
        <ele>388.2</ele>
        <time>2019-08-15T08:16:29Z</time>
      </trkpt>
      <trkpt lat="48.7002130" lon="13.4418020">
        <ele>388.0</ele>
        <time>2019-08-15T08:16:30Z</time>
      </trkpt>
      <trkpt lat="48.7001420" lon="13.4418740">
        <ele>387.8</ele>
        <time>2019-08-15T08:16:31Z</time>
      </trkpt>
      <trkpt lat="48.7000710" lon="13.4419470">
        <ele>387.4</ele>
        <time>2019-08-15T08:16:32Z</time>
      </trkpt>
      <trkpt lat="48.7000030" lon="13.4420230">
        <ele>387.2</ele>
        <time>2019-08-15T08:16:33Z</time>
      </trkpt>
      <trkpt lat="48.6999390" lon="13.4421010">
        <ele>387.0</ele>
        <time>2019-08-15T08:16:34Z</time>
      </trkpt>
      <trkpt lat="48.6998830" lon="13.4421730">
        <ele>386.8</ele>
        <time>2019-08-15T08:16:35Z</time>
      </trkpt>
      <trkpt lat="48.6998230" lon="13.4422440">
        <ele>386.6</ele>
        <time>2019-08-15T08:16:36Z</time>
      </trkpt>
      <trkpt lat="48.6997610" lon="13.4423140">
        <ele>386.4</ele>
        <time>2019-08-15T08:16:37Z</time>
      </trkpt>
      <trkpt lat="48.6996920" lon="13.4423900">
        <ele>386.2</ele>
        <time>2019-08-15T08:16:38Z</time>
      </trkpt>
      <trkpt lat="48.6996250" lon="13.4424810">
        <ele>385.8</ele>
        <time>2019-08-15T08:16:39Z</time>
      </trkpt>
      <trkpt lat="48.6995480" lon="13.4425720">
        <ele>385.4</ele>
        <time>2019-08-15T08:16:40Z</time>
      </trkpt>
      <trkpt lat="48.6994680" lon="13.4426610">
        <ele>385.0</ele>
        <time>2019-08-15T08:16:41Z</time>
      </trkpt>
      <trkpt lat="48.6993930" lon="13.4427520">
        <ele>384.8</ele>
        <time>2019-08-15T08:16:42Z</time>
      </trkpt>
      <trkpt lat="48.6993240" lon="13.4428400">
        <ele>384.6</ele>
        <time>2019-08-15T08:16:43Z</time>
      </trkpt>
      <trkpt lat="48.6992600" lon="13.4429270">
        <ele>384.4</ele>
        <time>2019-08-15T08:16:44Z</time>
      </trkpt>
      <trkpt lat="48.6991940" lon="13.4430110">
        <ele>384.2</ele>
        <time>2019-08-15T08:16:45Z</time>
      </trkpt>
      <trkpt lat="48.6991270" lon="13.4430930">
        <ele>383.8</ele>
        <time>2019-08-15T08:16:46Z</time>
      </trkpt>
      <trkpt lat="48.6990500" lon="13.4431800">
        <ele>383.4</ele>
        <time>2019-08-15T08:16:47Z</time>
      </trkpt>
      <trkpt lat="48.6989840" lon="13.4432670">
        <ele>383.2</ele>
        <time>2019-08-15T08:16:48Z</time>
      </trkpt>
      <trkpt lat="48.6989090" lon="13.4433450">
        <ele>382.8</ele>
        <time>2019-08-15T08:16:49Z</time>
      </trkpt>
      <trkpt lat="48.6988290" lon="13.4434170">
        <ele>382.4</ele>
        <time>2019-08-15T08:16:50Z</time>
      </trkpt>
      <trkpt lat="48.6987410" lon="13.4434970">
        <ele>382.2</ele>
        <time>2019-08-15T08:16:51Z</time>
      </trkpt>
      <trkpt lat="48.6986520" lon="13.4435770">
        <ele>382.0</ele>
        <time>2019-08-15T08:16:52Z</time>
      </trkpt>
      <trkpt lat="48.6985560" lon="13.4436480">
        <ele>381.8</ele>
        <time>2019-08-15T08:16:53Z</time>
      </trkpt>
      <trkpt lat="48.6984510" lon="13.4437160">
        <ele>381.4</ele>
        <time>2019-08-15T08:16:54Z</time>
      </trkpt>
      <trkpt lat="48.6983610" lon="13.4437870">
        <ele>381.0</ele>
        <time>2019-08-15T08:16:55Z</time>
      </trkpt>
      <trkpt lat="48.6982610" lon="13.4438590">
        <ele>380.6</ele>
        <time>2019-08-15T08:16:56Z</time>
      </trkpt>
      <trkpt lat="48.6981520" lon="13.4439290">
        <ele>380.4</ele>
        <time>2019-08-15T08:16:57Z</time>
      </trkpt>
      <trkpt lat="48.6980480" lon="13.4439810">
        <ele>380.0</ele>
        <time>2019-08-15T08:16:58Z</time>
      </trkpt>
      <trkpt lat="48.6979520" lon="13.4440360">
        <ele>379.8</ele>
        <time>2019-08-15T08:16:59Z</time>
      </trkpt>
      <trkpt lat="48.6978530" lon="13.4440960">
        <ele>379.6</ele>
        <time>2019-08-15T08:17:00Z</time>
      </trkpt>
      <trkpt lat="48.6977500" lon="13.4441590">
        <ele>379.2</ele>
        <time>2019-08-15T08:17:01Z</time>
      </trkpt>
      <trkpt lat="48.6976460" lon="13.4442250">
        <ele>379.0</ele>
        <time>2019-08-15T08:17:02Z</time>
      </trkpt>
      <trkpt lat="48.6975520" lon="13.4442900">
        <ele>378.6</ele>
        <time>2019-08-15T08:17:03Z</time>
      </trkpt>
      <trkpt lat="48.6974660" lon="13.4443590">
        <ele>378.6</ele>
        <time>2019-08-15T08:17:04Z</time>
      </trkpt>
      <trkpt lat="48.6973880" lon="13.4444320">
        <ele>378.2</ele>
        <time>2019-08-15T08:17:05Z</time>
      </trkpt>
      <trkpt lat="48.6973220" lon="13.4445090">
        <ele>378.0</ele>
        <time>2019-08-15T08:17:06Z</time>
      </trkpt>
      <trkpt lat="48.6972500" lon="13.4445980">
        <ele>377.8</ele>
        <time>2019-08-15T08:17:07Z</time>
      </trkpt>
      <trkpt lat="48.6971810" lon="13.4446920">
        <ele>377.6</ele>
        <time>2019-08-15T08:17:08Z</time>
      </trkpt>
      <trkpt lat="48.6971120" lon="13.4447920">
        <ele>377.2</ele>
        <time>2019-08-15T08:17:09Z</time>
      </trkpt>
      <trkpt lat="48.6970440" lon="13.4448960">
        <ele>377.0</ele>
        <time>2019-08-15T08:17:10Z</time>
      </trkpt>
      <trkpt lat="48.6969780" lon="13.4450080">
        <ele>376.8</ele>
        <time>2019-08-15T08:17:11Z</time>
      </trkpt>
      <trkpt lat="48.6969170" lon="13.4451170">
        <ele>376.6</ele>
        <time>2019-08-15T08:17:12Z</time>
      </trkpt>
      <trkpt lat="48.6968620" lon="13.4452260">
        <ele>376.6</ele>
        <time>2019-08-15T08:17:13Z</time>
      </trkpt>
      <trkpt lat="48.6968110" lon="13.4453310">
        <ele>376.4</ele>
        <time>2019-08-15T08:17:14Z</time>
      </trkpt>
      <trkpt lat="48.6967680" lon="13.4454340">
        <ele>376.2</ele>
        <time>2019-08-15T08:17:15Z</time>
      </trkpt>
      <trkpt lat="48.6967310" lon="13.4455380">
        <ele>375.8</ele>
        <time>2019-08-15T08:17:16Z</time>
      </trkpt>
      <trkpt lat="48.6966970" lon="13.4456470">
        <ele>375.6</ele>
        <time>2019-08-15T08:17:17Z</time>
      </trkpt>
      <trkpt lat="48.6966590" lon="13.4457660">
        <ele>375.2</ele>
        <time>2019-08-15T08:17:18Z</time>
      </trkpt>
      <trkpt lat="48.6966230" lon="13.4458900">
        <ele>375.0</ele>
        <time>2019-08-15T08:17:19Z</time>
      </trkpt>
      <trkpt lat="48.6965880" lon="13.4460160">
        <ele>374.6</ele>
        <time>2019-08-15T08:17:20Z</time>
      </trkpt>
      <trkpt lat="48.6965570" lon="13.4461460">
        <ele>374.4</ele>
        <time>2019-08-15T08:17:21Z</time>
      </trkpt>
      <trkpt lat="48.6965280" lon="13.4462760">
        <ele>374.2</ele>
        <time>2019-08-15T08:17:22Z</time>
      </trkpt>
      <trkpt lat="48.6964950" lon="13.4464010">
        <ele>374.0</ele>
        <time>2019-08-15T08:17:23Z</time>
      </trkpt>
      <trkpt lat="48.6964570" lon="13.4465180">
        <ele>373.6</ele>
        <time>2019-08-15T08:17:24Z</time>
      </trkpt>
      <trkpt lat="48.6964180" lon="13.4466240">
        <ele>373.4</ele>
        <time>2019-08-15T08:17:25Z</time>
      </trkpt>
      <trkpt lat="48.6963710" lon="13.4467250">
        <ele>373.0</ele>
        <time>2019-08-15T08:17:26Z</time>
      </trkpt>
      <trkpt lat="48.6963210" lon="13.4468240">
        <ele>372.8</ele>
        <time>2019-08-15T08:17:27Z</time>
      </trkpt>
      <trkpt lat="48.6962710" lon="13.4469240">
        <ele>372.4</ele>
        <time>2019-08-15T08:17:28Z</time>
      </trkpt>
      <trkpt lat="48.6962240" lon="13.4470180">
        <ele>372.2</ele>
        <time>2019-08-15T08:17:29Z</time>
      </trkpt>
      <trkpt lat="48.6961840" lon="13.4470990">
        <ele>372.0</ele>
        <time>2019-08-15T08:17:30Z</time>
      </trkpt>
      <trkpt lat="48.6961450" lon="13.4471700">
        <ele>371.6</ele>
        <time>2019-08-15T08:17:31Z</time>
      </trkpt>
      <trkpt lat="48.6961000" lon="13.4472410">
        <ele>371.4</ele>
        <time>2019-08-15T08:17:32Z</time>
      </trkpt>
      <trkpt lat="48.6960530" lon="13.4473030">
        <ele>371.2</ele>
        <time>2019-08-15T08:17:33Z</time>
      </trkpt>
      <trkpt lat="48.6960040" lon="13.4473590">
        <ele>371.2</ele>
        <time>2019-08-15T08:17:34Z</time>
      </trkpt>
      <trkpt lat="48.6959470" lon="13.4474230">
        <ele>371.2</ele>
        <time>2019-08-15T08:17:35Z</time>
      </trkpt>
      <trkpt lat="48.6958840" lon="13.4474850">
        <ele>371.0</ele>
        <time>2019-08-15T08:17:36Z</time>
      </trkpt>
      <trkpt lat="48.6958150" lon="13.4475480">
        <ele>371.0</ele>
        <time>2019-08-15T08:17:37Z</time>
      </trkpt>
      <trkpt lat="48.6957430" lon="13.4476100">
        <ele>370.8</ele>
        <time>2019-08-15T08:17:38Z</time>
      </trkpt>
      <trkpt lat="48.6956660" lon="13.4476750">
        <ele>370.8</ele>
        <time>2019-08-15T08:17:39Z</time>
      </trkpt>
      <trkpt lat="48.6955890" lon="13.4477310">
        <ele>370.6</ele>
        <time>2019-08-15T08:17:40Z</time>
      </trkpt>
      <trkpt lat="48.6955100" lon="13.4477820">
        <ele>370.4</ele>
        <time>2019-08-15T08:17:41Z</time>
      </trkpt>
      <trkpt lat="48.6954270" lon="13.4478300">
        <ele>370.4</ele>
        <time>2019-08-15T08:17:42Z</time>
      </trkpt>
      <trkpt lat="48.6953470" lon="13.4478730">
        <ele>370.0</ele>
        <time>2019-08-15T08:17:43Z</time>
      </trkpt>
      <trkpt lat="48.6952620" lon="13.4479120">
        <ele>369.8</ele>
        <time>2019-08-15T08:17:44Z</time>
      </trkpt>
      <trkpt lat="48.6951770" lon="13.4479530">
        <ele>369.6</ele>
        <time>2019-08-15T08:17:45Z</time>
      </trkpt>
      <trkpt lat="48.6950870" lon="13.4479990">
        <ele>369.4</ele>
        <time>2019-08-15T08:17:46Z</time>
      </trkpt>
      <trkpt lat="48.6949930" lon="13.4480540">
        <ele>369.0</ele>
        <time>2019-08-15T08:17:47Z</time>
      </trkpt>
      <trkpt lat="48.6948940" lon="13.4481060">
        <ele>368.8</ele>
        <time>2019-08-15T08:17:48Z</time>
      </trkpt>
      <trkpt lat="48.6947930" lon="13.4481660">
        <ele>368.6</ele>
        <time>2019-08-15T08:17:49Z</time>
      </trkpt>
      <trkpt lat="48.6946970" lon="13.4482290">
        <ele>368.4</ele>
        <time>2019-08-15T08:17:50Z</time>
      </trkpt>
      <trkpt lat="48.6946000" lon="13.4483000">
        <ele>368.0</ele>
        <time>2019-08-15T08:17:51Z</time>
      </trkpt>
      <trkpt lat="48.6945060" lon="13.4483760">
        <ele>367.6</ele>
        <time>2019-08-15T08:17:52Z</time>
      </trkpt>
      <trkpt lat="48.6944240" lon="13.4484480">
        <ele>367.4</ele>
        <time>2019-08-15T08:17:53Z</time>
      </trkpt>
      <trkpt lat="48.6943510" lon="13.4485190">
        <ele>367.0</ele>
        <time>2019-08-15T08:17:54Z</time>
      </trkpt>
      <trkpt lat="48.6942860" lon="13.4485970">
        <ele>366.8</ele>
        <time>2019-08-15T08:17:55Z</time>
      </trkpt>
      <trkpt lat="48.6942250" lon="13.4486810">
        <ele>366.4</ele>
        <time>2019-08-15T08:17:56Z</time>
      </trkpt>
      <trkpt lat="48.6941700" lon="13.4487590">
        <ele>366.0</ele>
        <time>2019-08-15T08:17:57Z</time>
      </trkpt>
      <trkpt lat="48.6941290" lon="13.4488240">
        <ele>365.6</ele>
        <time>2019-08-15T08:17:58Z</time>
      </trkpt>
      <trkpt lat="48.6940930" lon="13.4488770">
        <ele>365.2</ele>
        <time>2019-08-15T08:17:59Z</time>
      </trkpt>
      <trkpt lat="48.6940680" lon="13.4489290">
        <ele>365.0</ele>
        <time>2019-08-15T08:18:00Z</time>
      </trkpt>
      <trkpt lat="48.6940510" lon="13.4489810">
        <ele>364.6</ele>
        <time>2019-08-15T08:18:01Z</time>
      </trkpt>
      <trkpt lat="48.6940350" lon="13.4490420">
        <ele>364.2</ele>
        <time>2019-08-15T08:18:02Z</time>
      </trkpt>
      <trkpt lat="48.6940230" lon="13.4491080">
        <ele>363.8</ele>
        <time>2019-08-15T08:18:03Z</time>
      </trkpt>
      <trkpt lat="48.6940010" lon="13.4491750">
        <ele>363.6</ele>
        <time>2019-08-15T08:18:04Z</time>
      </trkpt>
      <trkpt lat="48.6939700" lon="13.4492450">
        <ele>363.4</ele>
        <time>2019-08-15T08:18:05Z</time>
      </trkpt>
      <trkpt lat="48.6939380" lon="13.4493100">
        <ele>363.0</ele>
        <time>2019-08-15T08:18:06Z</time>
      </trkpt>
      <trkpt lat="48.6939080" lon="13.4493830">
        <ele>362.6</ele>
        <time>2019-08-15T08:18:07Z</time>
      </trkpt>
      <trkpt lat="48.6938800" lon="13.4494680">
        <ele>362.4</ele>
        <time>2019-08-15T08:18:08Z</time>
      </trkpt>
      <trkpt lat="48.6938570" lon="13.4495620">
        <ele>362.0</ele>
        <time>2019-08-15T08:18:09Z</time>
      </trkpt>
      <trkpt lat="48.6938440" lon="13.4496620">
        <ele>361.6</ele>
        <time>2019-08-15T08:18:10Z</time>
      </trkpt>
      <trkpt lat="48.6938290" lon="13.4497650">
        <ele>361.2</ele>
        <time>2019-08-15T08:18:11Z</time>
      </trkpt>
      <trkpt lat="48.6938190" lon="13.4498850">
        <ele>360.8</ele>
        <time>2019-08-15T08:18:12Z</time>
      </trkpt>
      <trkpt lat="48.6938180" lon="13.4500210">
        <ele>360.2</ele>
        <time>2019-08-15T08:18:13Z</time>
      </trkpt>
      <trkpt lat="48.6938200" lon="13.4501630">
        <ele>359.4</ele>
        <time>2019-08-15T08:18:14Z</time>
      </trkpt>
      <trkpt lat="48.6938190" lon="13.4503120">
        <ele>358.8</ele>
        <time>2019-08-15T08:18:15Z</time>
      </trkpt>
      <trkpt lat="48.6938150" lon="13.4504730">
        <ele>358.0</ele>
        <time>2019-08-15T08:18:16Z</time>
      </trkpt>
      <trkpt lat="48.6938150" lon="13.4506330">
        <ele>357.6</ele>
        <time>2019-08-15T08:18:17Z</time>
      </trkpt>
      <trkpt lat="48.6938200" lon="13.4507910">
        <ele>356.8</ele>
        <time>2019-08-15T08:18:18Z</time>
      </trkpt>
      <trkpt lat="48.6938330" lon="13.4509420">
        <ele>356.2</ele>
        <time>2019-08-15T08:18:19Z</time>
      </trkpt>
      <trkpt lat="48.6938480" lon="13.4510840">
        <ele>355.8</ele>
        <time>2019-08-15T08:18:20Z</time>
      </trkpt>
      <trkpt lat="48.6938630" lon="13.4512300">
        <ele>355.4</ele>
        <time>2019-08-15T08:18:21Z</time>
      </trkpt>
      <trkpt lat="48.6938760" lon="13.4513800">
        <ele>355.0</ele>
        <time>2019-08-15T08:18:22Z</time>
      </trkpt>
      <trkpt lat="48.6938860" lon="13.4515350">
        <ele>354.6</ele>
        <time>2019-08-15T08:18:23Z</time>
      </trkpt>
      <trkpt lat="48.6938910" lon="13.4516800">
        <ele>354.4</ele>
        <time>2019-08-15T08:18:24Z</time>
      </trkpt>
      <trkpt lat="48.6938940" lon="13.4518170">
        <ele>354.2</ele>
        <time>2019-08-15T08:18:25Z</time>
      </trkpt>
      <trkpt lat="48.6938850" lon="13.4519500">
        <ele>353.8</ele>
        <time>2019-08-15T08:18:26Z</time>
      </trkpt>
      <trkpt lat="48.6938770" lon="13.4520730">
        <ele>353.6</ele>
        <time>2019-08-15T08:18:27Z</time>
      </trkpt>
      <trkpt lat="48.6938480" lon="13.4521770">
        <ele>353.4</ele>
        <time>2019-08-15T08:18:28Z</time>
      </trkpt>
      <trkpt lat="48.6938050" lon="13.4522510">
        <ele>353.2</ele>
        <time>2019-08-15T08:18:29Z</time>
      </trkpt>
      <trkpt lat="48.6937540" lon="13.4523050">
        <ele>353.0</ele>
        <time>2019-08-15T08:18:30Z</time>
      </trkpt>
      <trkpt lat="48.6937000" lon="13.4523270">
        <ele>352.8</ele>
        <time>2019-08-15T08:18:31Z</time>
      </trkpt>
      <trkpt lat="48.6936400" lon="13.4523450">
        <ele>352.8</ele>
        <time>2019-08-15T08:18:32Z</time>
      </trkpt>
      <trkpt lat="48.6935730" lon="13.4523600">
        <ele>352.6</ele>
        <time>2019-08-15T08:18:33Z</time>
      </trkpt>
      <trkpt lat="48.6935000" lon="13.4523770">
        <ele>352.6</ele>
        <time>2019-08-15T08:18:34Z</time>
      </trkpt>
      <trkpt lat="48.6934330" lon="13.4523800">
        <ele>352.6</ele>
        <time>2019-08-15T08:18:35Z</time>
      </trkpt>
      <trkpt lat="48.6933640" lon="13.4523840">
        <ele>352.6</ele>
        <time>2019-08-15T08:18:36Z</time>
      </trkpt>
      <trkpt lat="48.6933040" lon="13.4523730">
        <ele>352.6</ele>
        <time>2019-08-15T08:18:37Z</time>
      </trkpt>
      <trkpt lat="48.6932480" lon="13.4523550">
        <ele>352.6</ele>
        <time>2019-08-15T08:18:38Z</time>
      </trkpt>
      <trkpt lat="48.6931850" lon="13.4523190">
        <ele>352.6</ele>
        <time>2019-08-15T08:18:39Z</time>
      </trkpt>
      <trkpt lat="48.6931210" lon="13.4522820">
        <ele>352.8</ele>
        <time>2019-08-15T08:18:40Z</time>
      </trkpt>
      <trkpt lat="48.6930640" lon="13.4522480">
        <ele>352.8</ele>
        <time>2019-08-15T08:18:41Z</time>
      </trkpt>
      <trkpt lat="48.6930040" lon="13.4522060">
        <ele>352.8</ele>
        <time>2019-08-15T08:18:42Z</time>
      </trkpt>
      <trkpt lat="48.6929370" lon="13.4521670">
        <ele>352.8</ele>
        <time>2019-08-15T08:18:43Z</time>
      </trkpt>
      <trkpt lat="48.6928670" lon="13.4521230">
        <ele>352.8</ele>
        <time>2019-08-15T08:18:44Z</time>
      </trkpt>
      <trkpt lat="48.6928060" lon="13.4520790">
        <ele>352.8</ele>
        <time>2019-08-15T08:18:45Z</time>
      </trkpt>
      <trkpt lat="48.6927490" lon="13.4520390">
        <ele>353.0</ele>
        <time>2019-08-15T08:18:46Z</time>
      </trkpt>
      <trkpt lat="48.6926930" lon="13.4519920">
        <ele>353.0</ele>
        <time>2019-08-15T08:18:47Z</time>
      </trkpt>
      <trkpt lat="48.6926370" lon="13.4519430">
        <ele>353.0</ele>
        <time>2019-08-15T08:18:48Z</time>
      </trkpt>
      <trkpt lat="48.6925750" lon="13.4519010">
        <ele>353.2</ele>
        <time>2019-08-15T08:18:49Z</time>
      </trkpt>
      <trkpt lat="48.6925130" lon="13.4518650">
        <ele>353.2</ele>
        <time>2019-08-15T08:18:50Z</time>
      </trkpt>
      <trkpt lat="48.6924500" lon="13.4518350">
        <ele>353.2</ele>
        <time>2019-08-15T08:18:51Z</time>
      </trkpt>
      <trkpt lat="48.6923870" lon="13.4518010">
        <ele>353.2</ele>
        <time>2019-08-15T08:18:52Z</time>
      </trkpt>
      <trkpt lat="48.6923230" lon="13.4517670">
        <ele>353.2</ele>
        <time>2019-08-15T08:18:53Z</time>
      </trkpt>
      <trkpt lat="48.6922600" lon="13.4517410">
        <ele>353.2</ele>
        <time>2019-08-15T08:18:54Z</time>
      </trkpt>
      <trkpt lat="48.6921950" lon="13.4517200">
        <ele>353.0</ele>
        <time>2019-08-15T08:18:55Z</time>
      </trkpt>
      <trkpt lat="48.6921330" lon="13.4517050">
        <ele>353.0</ele>
        <time>2019-08-15T08:18:56Z</time>
      </trkpt>
      <trkpt lat="48.6920680" lon="13.4516940">
        <ele>353.2</ele>
        <time>2019-08-15T08:18:57Z</time>
      </trkpt>
      <trkpt lat="48.6920020" lon="13.4516890">
        <ele>353.2</ele>
        <time>2019-08-15T08:18:58Z</time>
      </trkpt>
      <trkpt lat="48.6919340" lon="13.4516870">
        <ele>353.0</ele>
        <time>2019-08-15T08:18:59Z</time>
      </trkpt>
      <trkpt lat="48.6918720" lon="13.4516850">
        <ele>353.0</ele>
        <time>2019-08-15T08:19:00Z</time>
      </trkpt>
      <trkpt lat="48.6918060" lon="13.4516840">
        <ele>352.8</ele>
        <time>2019-08-15T08:19:01Z</time>
      </trkpt>
      <trkpt lat="48.6917440" lon="13.4516830">
        <ele>352.8</ele>
        <time>2019-08-15T08:19:02Z</time>
      </trkpt>
      <trkpt lat="48.6916800" lon="13.4516800">
        <ele>352.8</ele>
        <time>2019-08-15T08:19:03Z</time>
      </trkpt>
      <trkpt lat="48.6916160" lon="13.4516750">
        <ele>352.8</ele>
        <time>2019-08-15T08:19:04Z</time>
      </trkpt>
      <trkpt lat="48.6915550" lon="13.4516630">
        <ele>352.8</ele>
        <time>2019-08-15T08:19:05Z</time>
      </trkpt>
      <trkpt lat="48.6914970" lon="13.4516420">
        <ele>352.8</ele>
        <time>2019-08-15T08:19:06Z</time>
      </trkpt>
      <trkpt lat="48.6914370" lon="13.4516130">
        <ele>352.6</ele>
        <time>2019-08-15T08:19:07Z</time>
      </trkpt>
      <trkpt lat="48.6913790" lon="13.4515850">
        <ele>352.6</ele>
        <time>2019-08-15T08:19:08Z</time>
      </trkpt>
      <trkpt lat="48.6913220" lon="13.4515580">
        <ele>352.6</ele>
        <time>2019-08-15T08:19:09Z</time>
      </trkpt>
      <trkpt lat="48.6912660" lon="13.4515320">
        <ele>352.6</ele>
        <time>2019-08-15T08:19:10Z</time>
      </trkpt>
      <trkpt lat="48.6912100" lon="13.4515050">
        <ele>352.6</ele>
        <time>2019-08-15T08:19:11Z</time>
      </trkpt>
      <trkpt lat="48.6911550" lon="13.4514800">
        <ele>352.4</ele>
        <time>2019-08-15T08:19:12Z</time>
      </trkpt>
      <trkpt lat="48.6911010" lon="13.4514560">
        <ele>352.4</ele>
        <time>2019-08-15T08:19:13Z</time>
      </trkpt>
      <trkpt lat="48.6910490" lon="13.4514290">
        <ele>352.4</ele>
        <time>2019-08-15T08:19:14Z</time>
      </trkpt>
      <trkpt lat="48.6909950" lon="13.4514030">
        <ele>352.2</ele>
        <time>2019-08-15T08:19:15Z</time>
      </trkpt>
      <trkpt lat="48.6909440" lon="13.4513770">
        <ele>352.2</ele>
        <time>2019-08-15T08:19:16Z</time>
      </trkpt>
      <trkpt lat="48.6908940" lon="13.4513460">
        <ele>352.0</ele>
        <time>2019-08-15T08:19:17Z</time>
      </trkpt>
      <trkpt lat="48.6908470" lon="13.4513190">
        <ele>352.0</ele>
        <time>2019-08-15T08:19:18Z</time>
      </trkpt>
      <trkpt lat="48.6908000" lon="13.4512930">
        <ele>351.8</ele>
        <time>2019-08-15T08:19:19Z</time>
      </trkpt>
      <trkpt lat="48.6907520" lon="13.4512680">
        <ele>351.8</ele>
        <time>2019-08-15T08:19:20Z</time>
      </trkpt>
      <trkpt lat="48.6907050" lon="13.4512430">
        <ele>351.8</ele>
        <time>2019-08-15T08:19:21Z</time>
      </trkpt>
      <trkpt lat="48.6906590" lon="13.4512160">
        <ele>351.6</ele>
        <time>2019-08-15T08:19:22Z</time>
      </trkpt>
      <trkpt lat="48.6906100" lon="13.4511920">
        <ele>351.6</ele>
        <time>2019-08-15T08:19:23Z</time>
      </trkpt>
      <trkpt lat="48.6905590" lon="13.4511720">
        <ele>351.6</ele>
        <time>2019-08-15T08:19:24Z</time>
      </trkpt>
      <trkpt lat="48.6905080" lon="13.4511530">
        <ele>351.4</ele>
        <time>2019-08-15T08:19:25Z</time>
      </trkpt>
      <trkpt lat="48.6904540" lon="13.4511380">
        <ele>351.4</ele>
        <time>2019-08-15T08:19:26Z</time>
      </trkpt>
      <trkpt lat="48.6904090" lon="13.4511310">
        <ele>351.4</ele>
        <time>2019-08-15T08:19:27Z</time>
      </trkpt>
      <trkpt lat="48.6903500" lon="13.4511220">
        <ele>351.4</ele>
        <time>2019-08-15T08:19:28Z</time>
      </trkpt>
      <trkpt lat="48.6902910" lon="13.4511070">
        <ele>351.6</ele>
        <time>2019-08-15T08:19:29Z</time>
      </trkpt>
      <trkpt lat="48.6902400" lon="13.4510930">
        <ele>351.6</ele>
        <time>2019-08-15T08:19:30Z</time>
      </trkpt>
      <trkpt lat="48.6901910" lon="13.4510810">
        <ele>351.6</ele>
        <time>2019-08-15T08:19:31Z</time>
      </trkpt>
      <trkpt lat="48.6901440" lon="13.4510690">
        <ele>351.8</ele>
        <time>2019-08-15T08:19:32Z</time>
      </trkpt>
      <trkpt lat="48.6901000" lon="13.4510550">
        <ele>351.8</ele>
        <time>2019-08-15T08:19:33Z</time>
      </trkpt>
      <trkpt lat="48.6900540" lon="13.4510400">
        <ele>351.8</ele>
        <time>2019-08-15T08:19:34Z</time>
      </trkpt>
      <trkpt lat="48.6900020" lon="13.4510230">
        <ele>352.0</ele>
        <time>2019-08-15T08:19:35Z</time>
      </trkpt>
      <trkpt lat="48.6899540" lon="13.4510080">
        <ele>352.0</ele>
        <time>2019-08-15T08:19:36Z</time>
      </trkpt>
      <trkpt lat="48.6899060" lon="13.4509930">
        <ele>352.0</ele>
        <time>2019-08-15T08:19:37Z</time>
      </trkpt>
      <trkpt lat="48.6898570" lon="13.4509800">
        <ele>352.2</ele>
        <time>2019-08-15T08:19:38Z</time>
      </trkpt>
      <trkpt lat="48.6898090" lon="13.4509710">
        <ele>352.4</ele>
        <time>2019-08-15T08:19:39Z</time>
      </trkpt>
      <trkpt lat="48.6897600" lon="13.4509620">
        <ele>352.4</ele>
        <time>2019-08-15T08:19:40Z</time>
      </trkpt>
      <trkpt lat="48.6897120" lon="13.4509520">
        <ele>352.6</ele>
        <time>2019-08-15T08:19:41Z</time>
      </trkpt>
      <trkpt lat="48.6896650" lon="13.4509390">
        <ele>352.6</ele>
        <time>2019-08-15T08:19:42Z</time>
      </trkpt>
      <trkpt lat="48.6896190" lon="13.4509330">
        <ele>352.8</ele>
        <time>2019-08-15T08:19:43Z</time>
      </trkpt>
      <trkpt lat="48.6895750" lon="13.4509340">
        <ele>352.8</ele>
        <time>2019-08-15T08:19:44Z</time>
      </trkpt>
      <trkpt lat="48.6895310" lon="13.4509400">
        <ele>353.0</ele>
        <time>2019-08-15T08:19:45Z</time>
      </trkpt>
      <trkpt lat="48.6894920" lon="13.4509510">
        <ele>353.0</ele>
        <time>2019-08-15T08:19:46Z</time>
      </trkpt>
      <trkpt lat="48.6894540" lon="13.4509710">
        <ele>353.0</ele>
        <time>2019-08-15T08:19:47Z</time>
      </trkpt>
      <trkpt lat="48.6894190" lon="13.4509910">
        <ele>353.2</ele>
        <time>2019-08-15T08:19:48Z</time>
      </trkpt>
      <trkpt lat="48.6893840" lon="13.4510090">
        <ele>353.2</ele>
        <time>2019-08-15T08:19:49Z</time>
      </trkpt>
      <trkpt lat="48.6893470" lon="13.4510290">
        <ele>353.2</ele>
        <time>2019-08-15T08:19:50Z</time>
      </trkpt>
      <trkpt lat="48.6893050" lon="13.4510540">
        <ele>353.4</ele>
        <time>2019-08-15T08:19:51Z</time>
      </trkpt>
      <trkpt lat="48.6892670" lon="13.4510820">
        <ele>353.4</ele>
        <time>2019-08-15T08:19:52Z</time>
      </trkpt>
      <trkpt lat="48.6892290" lon="13.4511110">
        <ele>353.6</ele>
        <time>2019-08-15T08:19:53Z</time>
      </trkpt>
      <trkpt lat="48.6891880" lon="13.4511440">
        <ele>353.6</ele>
        <time>2019-08-15T08:19:54Z</time>
      </trkpt>
      <trkpt lat="48.6891500" lon="13.4511740">
        <ele>353.6</ele>
        <time>2019-08-15T08:19:55Z</time>
      </trkpt>
      <trkpt lat="48.6891160" lon="13.4511990">
        <ele>353.8</ele>
        <time>2019-08-15T08:19:56Z</time>
      </trkpt>
      <trkpt lat="48.6890830" lon="13.4512200">
        <ele>353.8</ele>
        <time>2019-08-15T08:19:57Z</time>
      </trkpt>
      <trkpt lat="48.6890510" lon="13.4512400">
        <ele>354.0</ele>
        <time>2019-08-15T08:19:58Z</time>
      </trkpt>
      <trkpt lat="48.6890190" lon="13.4512520">
        <ele>354.0</ele>
        <time>2019-08-15T08:19:59Z</time>
      </trkpt>
      <trkpt lat="48.6889850" lon="13.4512550">
        <ele>354.2</ele>
        <time>2019-08-15T08:20:00Z</time>
      </trkpt>
      <trkpt lat="48.6889530" lon="13.4512590">
        <ele>354.2</ele>
        <time>2019-08-15T08:20:01Z</time>
      </trkpt>
      <trkpt lat="48.6889180" lon="13.4512690">
        <ele>354.4</ele>
        <time>2019-08-15T08:20:02Z</time>
      </trkpt>
      <trkpt lat="48.6888860" lon="13.4512780">
        <ele>354.4</ele>
        <time>2019-08-15T08:20:03Z</time>
      </trkpt>
      <trkpt lat="48.6888550" lon="13.4512810">
        <ele>354.4</ele>
        <time>2019-08-15T08:20:04Z</time>
      </trkpt>
      <trkpt lat="48.6888270" lon="13.4512820">
        <ele>354.6</ele>
        <time>2019-08-15T08:20:05Z</time>
      </trkpt>
      <trkpt lat="48.6888020" lon="13.4512840">
        <ele>354.6</ele>
        <time>2019-08-15T08:20:06Z</time>
      </trkpt>
      <trkpt lat="48.6887770" lon="13.4512850">
        <ele>354.6</ele>
        <time>2019-08-15T08:20:07Z</time>
      </trkpt>
      <trkpt lat="48.6887540" lon="13.4512890">
        <ele>354.8</ele>
        <time>2019-08-15T08:20:08Z</time>
      </trkpt>
      <trkpt lat="48.6887330" lon="13.4512970">
        <ele>354.8</ele>
        <time>2019-08-15T08:20:09Z</time>
      </trkpt>
      <trkpt lat="48.6887100" lon="13.4513150">
        <ele>354.8</ele>
        <time>2019-08-15T08:20:10Z</time>
      </trkpt>
      <trkpt lat="48.6886930" lon="13.4513410">
        <ele>354.8</ele>
        <time>2019-08-15T08:20:11Z</time>
      </trkpt>
      <trkpt lat="48.6886820" lon="13.4513870">
        <ele>354.8</ele>
        <time>2019-08-15T08:20:12Z</time>
      </trkpt>
      <trkpt lat="48.6886770" lon="13.4514470">
        <ele>354.8</ele>
        <time>2019-08-15T08:20:13Z</time>
      </trkpt>
      <trkpt lat="48.6886780" lon="13.4515090">
        <ele>354.8</ele>
        <time>2019-08-15T08:20:14Z</time>
      </trkpt>
      <trkpt lat="48.6886810" lon="13.4515710">
        <ele>354.6</ele>
        <time>2019-08-15T08:20:15Z</time>
      </trkpt>
      <trkpt lat="48.6886850" lon="13.4516390">
        <ele>354.4</ele>
        <time>2019-08-15T08:20:16Z</time>
      </trkpt>
      <trkpt lat="48.6886890" lon="13.4517070">
        <ele>354.4</ele>
        <time>2019-08-15T08:20:17Z</time>
      </trkpt>
      <trkpt lat="48.6886920" lon="13.4517730">
        <ele>354.4</ele>
        <time>2019-08-15T08:20:18Z</time>
      </trkpt>
      <trkpt lat="48.6886920" lon="13.4518470">
        <ele>354.4</ele>
        <time>2019-08-15T08:20:19Z</time>
      </trkpt>
      <trkpt lat="48.6886930" lon="13.4519180">
        <ele>354.2</ele>
        <time>2019-08-15T08:20:20Z</time>
      </trkpt>
      <trkpt lat="48.6886910" lon="13.4519860">
        <ele>354.0</ele>
        <time>2019-08-15T08:20:21Z</time>
      </trkpt>
      <trkpt lat="48.6886850" lon="13.4520530">
        <ele>354.0</ele>
        <time>2019-08-15T08:20:22Z</time>
      </trkpt>
      <trkpt lat="48.6886740" lon="13.4521160">
        <ele>354.0</ele>
        <time>2019-08-15T08:20:23Z</time>
      </trkpt>
      <trkpt lat="48.6886570" lon="13.4521770">
        <ele>353.8</ele>
        <time>2019-08-15T08:20:24Z</time>
      </trkpt>
      <trkpt lat="48.6886370" lon="13.4522320">
        <ele>353.8</ele>
        <time>2019-08-15T08:20:25Z</time>
      </trkpt>
      <trkpt lat="48.6886140" lon="13.4522800">
        <ele>353.8</ele>
        <time>2019-08-15T08:20:26Z</time>
      </trkpt>
      <trkpt lat="48.6885840" lon="13.4523360">
        <ele>353.8</ele>
        <time>2019-08-15T08:20:27Z</time>
      </trkpt>
      <trkpt lat="48.6885570" lon="13.4523890">
        <ele>353.6</ele>
        <time>2019-08-15T08:20:28Z</time>
      </trkpt>
      <trkpt lat="48.6885350" lon="13.4524390">
        <ele>353.6</ele>
        <time>2019-08-15T08:20:29Z</time>
      </trkpt>
      <trkpt lat="48.6885170" lon="13.4524850">
        <ele>353.6</ele>
        <time>2019-08-15T08:20:30Z</time>
      </trkpt>
      <trkpt lat="48.6885030" lon="13.4525300">
        <ele>353.6</ele>
        <time>2019-08-15T08:20:31Z</time>
      </trkpt>
      <trkpt lat="48.6884910" lon="13.4525720">
        <ele>353.6</ele>
        <time>2019-08-15T08:20:32Z</time>
      </trkpt>
      <trkpt lat="48.6884800" lon="13.4526110">
        <ele>353.6</ele>
        <time>2019-08-15T08:20:33Z</time>
      </trkpt>
      <trkpt lat="48.6884690" lon="13.4526470">
        <ele>353.6</ele>
        <time>2019-08-15T08:20:34Z</time>
      </trkpt>
      <trkpt lat="48.6884570" lon="13.4526770">
        <ele>353.6</ele>
        <time>2019-08-15T08:20:35Z</time>
      </trkpt>
      <trkpt lat="48.6884420" lon="13.4527010">
        <ele>353.6</ele>
        <time>2019-08-15T08:20:36Z</time>
      </trkpt>
      <trkpt lat="48.6884230" lon="13.4527170">
        <ele>353.6</ele>
        <time>2019-08-15T08:20:37Z</time>
      </trkpt>
      <trkpt lat="48.6884030" lon="13.4527240">
        <ele>353.6</ele>
        <time>2019-08-15T08:20:38Z</time>
      </trkpt>
      <trkpt lat="48.6883870" lon="13.4527220">
        <ele>353.6</ele>
        <time>2019-08-15T08:20:39Z</time>
      </trkpt>
      <trkpt lat="48.6883740" lon="13.4527160">
        <ele>353.6</ele>
        <time>2019-08-15T08:20:40Z</time>
      </trkpt>
      <trkpt lat="48.6883580" lon="13.4527040">
        <ele>353.6</ele>
        <time>2019-08-15T08:20:41Z</time>
      </trkpt>
      <trkpt lat="48.6883400" lon="13.4526930">
        <ele>353.6</ele>
        <time>2019-08-15T08:20:42Z</time>
      </trkpt>
      <trkpt lat="48.6883240" lon="13.4526920">
        <ele>353.6</ele>
        <time>2019-08-15T08:20:43Z</time>
      </trkpt>
      <trkpt lat="48.6883080" lon="13.4527060">
        <ele>353.6</ele>
        <time>2019-08-15T08:20:44Z</time>
      </trkpt>
      <trkpt lat="48.6883020" lon="13.4527340">
        <ele>353.6</ele>
        <time>2019-08-15T08:20:45Z</time>
      </trkpt>
      <trkpt lat="48.6883080" lon="13.4527610">
        <ele>353.6</ele>
        <time>2019-08-15T08:20:46Z</time>
      </trkpt>
      <trkpt lat="48.6883230" lon="13.4527720">
        <ele>353.6</ele>
        <time>2019-08-15T08:20:47Z</time>
      </trkpt>
      <trkpt lat="48.6883420" lon="13.4527660">
        <ele>353.6</ele>
        <time>2019-08-15T08:20:48Z</time>
      </trkpt>
      <trkpt lat="48.6883630" lon="13.4527540">
        <ele>353.6</ele>
        <time>2019-08-15T08:20:49Z</time>
      </trkpt>
      <trkpt lat="48.6883850" lon="13.4527560">
        <ele>353.6</ele>
        <time>2019-08-15T08:20:50Z</time>
      </trkpt>
      <trkpt lat="48.6884090" lon="13.4527770">
        <ele>353.6</ele>
        <time>2019-08-15T08:20:51Z</time>
      </trkpt>
      <trkpt lat="48.6884330" lon="13.4528100">
        <ele>353.6</ele>
        <time>2019-08-15T08:20:52Z</time>
      </trkpt>
      <trkpt lat="48.6884570" lon="13.4528480">
        <ele>353.6</ele>
        <time>2019-08-15T08:20:53Z</time>
      </trkpt>
      <trkpt lat="48.6884830" lon="13.4528890">
        <ele>353.6</ele>
        <time>2019-08-15T08:20:54Z</time>
      </trkpt>
      <trkpt lat="48.6885120" lon="13.4529280">
        <ele>353.6</ele>
        <time>2019-08-15T08:20:55Z</time>
      </trkpt>
      <trkpt lat="48.6885400" lon="13.4529650">
        <ele>353.6</ele>
        <time>2019-08-15T08:20:56Z</time>
      </trkpt>
      <trkpt lat="48.6885720" lon="13.4530020">
        <ele>353.8</ele>
        <time>2019-08-15T08:20:57Z</time>
      </trkpt>
      <trkpt lat="48.6886070" lon="13.4530350">
        <ele>353.8</ele>
        <time>2019-08-15T08:20:58Z</time>
      </trkpt>
      <trkpt lat="48.6886430" lon="13.4530650">
        <ele>353.6</ele>
        <time>2019-08-15T08:20:59Z</time>
      </trkpt>
      <trkpt lat="48.6886810" lon="13.4530950">
        <ele>353.8</ele>
        <time>2019-08-15T08:21:00Z</time>
      </trkpt>
      <trkpt lat="48.6887190" lon="13.4531230">
        <ele>353.8</ele>
        <time>2019-08-15T08:21:01Z</time>
      </trkpt>
      <trkpt lat="48.6887590" lon="13.4531530">
        <ele>353.8</ele>
        <time>2019-08-15T08:21:02Z</time>
      </trkpt>
      <trkpt lat="48.6887960" lon="13.4531850">
        <ele>353.8</ele>
        <time>2019-08-15T08:21:03Z</time>
      </trkpt>
      <trkpt lat="48.6888320" lon="13.4532190">
        <ele>353.8</ele>
        <time>2019-08-15T08:21:04Z</time>
      </trkpt>
      <trkpt lat="48.6888670" lon="13.4532520">
        <ele>353.8</ele>
        <time>2019-08-15T08:21:05Z</time>
      </trkpt>
      <trkpt lat="48.6888980" lon="13.4532880">
        <ele>353.8</ele>
        <time>2019-08-15T08:21:06Z</time>
      </trkpt>
      <trkpt lat="48.6889230" lon="13.4533310">
        <ele>354.0</ele>
        <time>2019-08-15T08:21:07Z</time>
      </trkpt>
      <trkpt lat="48.6889400" lon="13.4533790">
        <ele>354.2</ele>
        <time>2019-08-15T08:21:08Z</time>
      </trkpt>
      <trkpt lat="48.6889500" lon="13.4534270">
        <ele>354.2</ele>
        <time>2019-08-15T08:21:09Z</time>
      </trkpt>
      <trkpt lat="48.6889520" lon="13.4534740">
        <ele>354.4</ele>
        <time>2019-08-15T08:21:10Z</time>
      </trkpt>
      <trkpt lat="48.6889470" lon="13.4535170">
        <ele>354.6</ele>
        <time>2019-08-15T08:21:11Z</time>
      </trkpt>
      <trkpt lat="48.6889390" lon="13.4535560">
        <ele>354.8</ele>
        <time>2019-08-15T08:21:12Z</time>
      </trkpt>
      <trkpt lat="48.6889290" lon="13.4535920">
        <ele>355.0</ele>
        <time>2019-08-15T08:21:13Z</time>
      </trkpt>
      <trkpt lat="48.6889160" lon="13.4536270">
        <ele>355.2</ele>
        <time>2019-08-15T08:21:14Z</time>
      </trkpt>
      <trkpt lat="48.6889020" lon="13.4536580">
        <ele>355.4</ele>
        <time>2019-08-15T08:21:15Z</time>
      </trkpt>
      <trkpt lat="48.6888840" lon="13.4536850">
        <ele>355.6</ele>
        <time>2019-08-15T08:21:16Z</time>
      </trkpt>
      <trkpt lat="48.6888650" lon="13.4537100">
        <ele>355.8</ele>
        <time>2019-08-15T08:21:17Z</time>
      </trkpt>
      <trkpt lat="48.6888450" lon="13.4537290">
        <ele>356.0</ele>
        <time>2019-08-15T08:21:18Z</time>
      </trkpt>
      <trkpt lat="48.6888220" lon="13.4537430">
        <ele>356.2</ele>
        <time>2019-08-15T08:21:19Z</time>
      </trkpt>
      <trkpt lat="48.6887990" lon="13.4537540">
        <ele>356.4</ele>
        <time>2019-08-15T08:21:20Z</time>
      </trkpt>
      <trkpt lat="48.6887770" lon="13.4537580">
        <ele>356.6</ele>
        <time>2019-08-15T08:21:21Z</time>
      </trkpt>
      <trkpt lat="48.6887560" lon="13.4537610">
        <ele>356.8</ele>
        <time>2019-08-15T08:21:22Z</time>
      </trkpt>
      <trkpt lat="48.6887360" lon="13.4537620">
        <ele>357.0</ele>
        <time>2019-08-15T08:21:23Z</time>
      </trkpt>
      <trkpt lat="48.6887150" lon="13.4537560">
        <ele>357.2</ele>
        <time>2019-08-15T08:21:24Z</time>
      </trkpt>
      <trkpt lat="48.6886920" lon="13.4537460">
        <ele>357.4</ele>
        <time>2019-08-15T08:21:25Z</time>
      </trkpt>
      <trkpt lat="48.6886680" lon="13.4537330">
        <ele>357.6</ele>
        <time>2019-08-15T08:21:26Z</time>
      </trkpt>
      <trkpt lat="48.6886410" lon="13.4537210">
        <ele>357.8</ele>
        <time>2019-08-15T08:21:27Z</time>
      </trkpt>
      <trkpt lat="48.6886160" lon="13.4537110">
        <ele>357.8</ele>
        <time>2019-08-15T08:21:28Z</time>
      </trkpt>
      <trkpt lat="48.6885930" lon="13.4537040">
        <ele>358.0</ele>
        <time>2019-08-15T08:21:29Z</time>
      </trkpt>
      <trkpt lat="48.6885720" lon="13.4537000">
        <ele>358.2</ele>
        <time>2019-08-15T08:21:30Z</time>
      </trkpt>
      <trkpt lat="48.6885500" lon="13.4536930">
        <ele>358.4</ele>
        <time>2019-08-15T08:21:31Z</time>
      </trkpt>
      <trkpt lat="48.6885290" lon="13.4536850">
        <ele>358.4</ele>
        <time>2019-08-15T08:21:32Z</time>
      </trkpt>
      <trkpt lat="48.6885030" lon="13.4536820">
        <ele>358.6</ele>
        <time>2019-08-15T08:21:33Z</time>
      </trkpt>
      <trkpt lat="48.6884770" lon="13.4536790">
        <ele>358.8</ele>
        <time>2019-08-15T08:21:34Z</time>
      </trkpt>
      <trkpt lat="48.6884540" lon="13.4536780">
        <ele>359.0</ele>
        <time>2019-08-15T08:21:35Z</time>
      </trkpt>
      <trkpt lat="48.6884280" lon="13.4536720">
        <ele>359.0</ele>
        <time>2019-08-15T08:21:36Z</time>
      </trkpt>
      <trkpt lat="48.6884010" lon="13.4536610">
        <ele>359.2</ele>
        <time>2019-08-15T08:21:37Z</time>
      </trkpt>
      <trkpt lat="48.6883770" lon="13.4536490">
        <ele>359.4</ele>
        <time>2019-08-15T08:21:38Z</time>
      </trkpt>
      <trkpt lat="48.6883520" lon="13.4536430">
        <ele>359.6</ele>
        <time>2019-08-15T08:21:39Z</time>
      </trkpt>
      <trkpt lat="48.6883270" lon="13.4536400">
        <ele>359.6</ele>
        <time>2019-08-15T08:21:40Z</time>
      </trkpt>
      <trkpt lat="48.6883030" lon="13.4536390">
        <ele>359.8</ele>
        <time>2019-08-15T08:21:41Z</time>
      </trkpt>
      <trkpt lat="48.6882760" lon="13.4536360">
        <ele>360.0</ele>
        <time>2019-08-15T08:21:42Z</time>
      </trkpt>
      <trkpt lat="48.6882450" lon="13.4536580">
        <ele>360.2</ele>
        <time>2019-08-15T08:21:43Z</time>
      </trkpt>
      <trkpt lat="48.6882120" lon="13.4536880">
        <ele>360.2</ele>
        <time>2019-08-15T08:21:44Z</time>
      </trkpt>
      <trkpt lat="48.6881800" lon="13.4537170">
        <ele>360.4</ele>
        <time>2019-08-15T08:21:45Z</time>
      </trkpt>
      <trkpt lat="48.6881470" lon="13.4537470">
        <ele>360.4</ele>
        <time>2019-08-15T08:21:46Z</time>
      </trkpt>
      <trkpt lat="48.6881370" lon="13.4536870">
        <ele>360.6</ele>
        <time>2019-08-15T08:21:47Z</time>
      </trkpt>
      <trkpt lat="48.6881330" lon="13.4536850">
        <ele>360.8</ele>
        <time>2019-08-15T08:21:48Z</time>
      </trkpt>
      <trkpt lat="48.6881280" lon="13.4536820">
        <ele>361.0</ele>
        <time>2019-08-15T08:21:49Z</time>
      </trkpt>
      <trkpt lat="48.6881140" lon="13.4536630">
        <ele>361.2</ele>
        <time>2019-08-15T08:21:50Z</time>
      </trkpt>
      <trkpt lat="48.6880890" lon="13.4536450">
        <ele>361.4</ele>
        <time>2019-08-15T08:21:51Z</time>
      </trkpt>
      <trkpt lat="48.6880580" lon="13.4536350">
        <ele>361.6</ele>
        <time>2019-08-15T08:21:52Z</time>
      </trkpt>
      <trkpt lat="48.6880300" lon="13.4536220">
        <ele>361.6</ele>
        <time>2019-08-15T08:21:53Z</time>
      </trkpt>
      <trkpt lat="48.6880020" lon="13.4536100">
        <ele>361.8</ele>
        <time>2019-08-15T08:21:54Z</time>
      </trkpt>
      <trkpt lat="48.6879730" lon="13.4535940">
        <ele>362.0</ele>
        <time>2019-08-15T08:21:55Z</time>
      </trkpt>
      <trkpt lat="48.6879470" lon="13.4535760">
        <ele>362.2</ele>
        <time>2019-08-15T08:21:56Z</time>
      </trkpt>
      <trkpt lat="48.6879200" lon="13.4535590">
        <ele>362.4</ele>
        <time>2019-08-15T08:21:57Z</time>
      </trkpt>
      <trkpt lat="48.6878960" lon="13.4535370">
        <ele>362.6</ele>
        <time>2019-08-15T08:21:58Z</time>
      </trkpt>
      <trkpt lat="48.6878730" lon="13.4535300">
        <ele>362.8</ele>
        <time>2019-08-15T08:21:59Z</time>
      </trkpt>
      <trkpt lat="48.6878490" lon="13.4535270">
        <ele>362.8</ele>
        <time>2019-08-15T08:22:00Z</time>
      </trkpt>
      <trkpt lat="48.6878230" lon="13.4535210">
        <ele>363.0</ele>
        <time>2019-08-15T08:22:01Z</time>
      </trkpt>
      <trkpt lat="48.6878000" lon="13.4535130">
        <ele>363.2</ele>
        <time>2019-08-15T08:22:02Z</time>
      </trkpt>
      <trkpt lat="48.6877780" lon="13.4535060">
        <ele>363.4</ele>
        <time>2019-08-15T08:22:03Z</time>
      </trkpt>
      <trkpt lat="48.6877550" lon="13.4534960">
        <ele>363.6</ele>
        <time>2019-08-15T08:22:04Z</time>
      </trkpt>
      <trkpt lat="48.6877330" lon="13.4534860">
        <ele>363.8</ele>
        <time>2019-08-15T08:22:05Z</time>
      </trkpt>
      <trkpt lat="48.6877100" lon="13.4534780">
        <ele>363.8</ele>
        <time>2019-08-15T08:22:06Z</time>
      </trkpt>
      <trkpt lat="48.6876880" lon="13.4534730">
        <ele>364.0</ele>
        <time>2019-08-15T08:22:07Z</time>
      </trkpt>
      <trkpt lat="48.6876660" lon="13.4534700">
        <ele>364.2</ele>
        <time>2019-08-15T08:22:08Z</time>
      </trkpt>
      <trkpt lat="48.6876450" lon="13.4534700">
        <ele>364.4</ele>
        <time>2019-08-15T08:22:09Z</time>
      </trkpt>
      <trkpt lat="48.6876230" lon="13.4534690">
        <ele>364.6</ele>
        <time>2019-08-15T08:22:10Z</time>
      </trkpt>
      <trkpt lat="48.6876010" lon="13.4534650">
        <ele>364.6</ele>
        <time>2019-08-15T08:22:11Z</time>
      </trkpt>
      <trkpt lat="48.6875790" lon="13.4534560">
        <ele>364.8</ele>
        <time>2019-08-15T08:22:12Z</time>
      </trkpt>
      <trkpt lat="48.6875570" lon="13.4534480">
        <ele>365.0</ele>
        <time>2019-08-15T08:22:13Z</time>
      </trkpt>
      <trkpt lat="48.6875350" lon="13.4534390">
        <ele>365.2</ele>
        <time>2019-08-15T08:22:14Z</time>
      </trkpt>
      <trkpt lat="48.6875140" lon="13.4534300">
        <ele>365.4</ele>
        <time>2019-08-15T08:22:15Z</time>
      </trkpt>
      <trkpt lat="48.6874950" lon="13.4534240">
        <ele>365.6</ele>
        <time>2019-08-15T08:22:16Z</time>
      </trkpt>
      <trkpt lat="48.6874740" lon="13.4534210">
        <ele>365.6</ele>
        <time>2019-08-15T08:22:17Z</time>
      </trkpt>
      <trkpt lat="48.6874510" lon="13.4534190">
        <ele>365.8</ele>
        <time>2019-08-15T08:22:18Z</time>
      </trkpt>
      <trkpt lat="48.6874300" lon="13.4534160">
        <ele>366.0</ele>
        <time>2019-08-15T08:22:19Z</time>
      </trkpt>
      <trkpt lat="48.6874070" lon="13.4534100">
        <ele>366.2</ele>
        <time>2019-08-15T08:22:20Z</time>
      </trkpt>
      <trkpt lat="48.6873840" lon="13.4534020">
        <ele>366.2</ele>
        <time>2019-08-15T08:22:21Z</time>
      </trkpt>
      <trkpt lat="48.6873610" lon="13.4533910">
        <ele>366.4</ele>
        <time>2019-08-15T08:22:22Z</time>
      </trkpt>
      <trkpt lat="48.6873380" lon="13.4533800">
        <ele>366.6</ele>
        <time>2019-08-15T08:22:23Z</time>
      </trkpt>
      <trkpt lat="48.6873160" lon="13.4533730">
        <ele>366.8</ele>
        <time>2019-08-15T08:22:24Z</time>
      </trkpt>
      <trkpt lat="48.6872930" lon="13.4533630">
        <ele>367.0</ele>
        <time>2019-08-15T08:22:25Z</time>
      </trkpt>
      <trkpt lat="48.6872710" lon="13.4533560">
        <ele>367.2</ele>
        <time>2019-08-15T08:22:26Z</time>
      </trkpt>
      <trkpt lat="48.6872480" lon="13.4533500">
        <ele>367.4</ele>
        <time>2019-08-15T08:22:27Z</time>
      </trkpt>
      <trkpt lat="48.6872260" lon="13.4533510">
        <ele>367.6</ele>
        <time>2019-08-15T08:22:28Z</time>
      </trkpt>
      <trkpt lat="48.6872050" lon="13.4533570">
        <ele>367.8</ele>
        <time>2019-08-15T08:22:29Z</time>
      </trkpt>
      <trkpt lat="48.6871830" lon="13.4533670">
        <ele>368.0</ele>
        <time>2019-08-15T08:22:30Z</time>
      </trkpt>
      <trkpt lat="48.6871620" lon="13.4533780">
        <ele>368.2</ele>
        <time>2019-08-15T08:22:31Z</time>
      </trkpt>
      <trkpt lat="48.6871440" lon="13.4533920">
        <ele>368.4</ele>
        <time>2019-08-15T08:22:32Z</time>
      </trkpt>
      <trkpt lat="48.6871250" lon="13.4534100">
        <ele>368.6</ele>
        <time>2019-08-15T08:22:33Z</time>
      </trkpt>
      <trkpt lat="48.6871080" lon="13.4534320">
        <ele>368.6</ele>
        <time>2019-08-15T08:22:34Z</time>
      </trkpt>
      <trkpt lat="48.6870920" lon="13.4534590">
        <ele>368.8</ele>
        <time>2019-08-15T08:22:35Z</time>
      </trkpt>
      <trkpt lat="48.6870790" lon="13.4534890">
        <ele>369.0</ele>
        <time>2019-08-15T08:22:36Z</time>
      </trkpt>
      <trkpt lat="48.6870670" lon="13.4535170">
        <ele>369.0</ele>
        <time>2019-08-15T08:22:37Z</time>
      </trkpt>
      <trkpt lat="48.6870580" lon="13.4535460">
        <ele>369.2</ele>
        <time>2019-08-15T08:22:38Z</time>
      </trkpt>
      <trkpt lat="48.6870500" lon="13.4535750">
        <ele>369.2</ele>
        <time>2019-08-15T08:22:39Z</time>
      </trkpt>
      <trkpt lat="48.6870410" lon="13.4536050">
        <ele>369.4</ele>
        <time>2019-08-15T08:22:40Z</time>
      </trkpt>
      <trkpt lat="48.6870330" lon="13.4536290">
        <ele>369.4</ele>
        <time>2019-08-15T08:22:41Z</time>
      </trkpt>
      <trkpt lat="48.6870240" lon="13.4536540">
        <ele>369.6</ele>
        <time>2019-08-15T08:22:42Z</time>
      </trkpt>
      <trkpt lat="48.6870140" lon="13.4536820">
        <ele>369.6</ele>
        <time>2019-08-15T08:22:43Z</time>
      </trkpt>
      <trkpt lat="48.6870050" lon="13.4537100">
        <ele>369.8</ele>
        <time>2019-08-15T08:22:44Z</time>
      </trkpt>
      <trkpt lat="48.6869970" lon="13.4537370">
        <ele>369.8</ele>
        <time>2019-08-15T08:22:45Z</time>
      </trkpt>
      <trkpt lat="48.6869890" lon="13.4537680">
        <ele>369.8</ele>
        <time>2019-08-15T08:22:46Z</time>
      </trkpt>
      <trkpt lat="48.6869790" lon="13.4537990">
        <ele>370.0</ele>
        <time>2019-08-15T08:22:47Z</time>
      </trkpt>
      <trkpt lat="48.6869690" lon="13.4538320">
        <ele>370.0</ele>
        <time>2019-08-15T08:22:48Z</time>
      </trkpt>
      <trkpt lat="48.6869590" lon="13.4538670">
        <ele>370.0</ele>
        <time>2019-08-15T08:22:49Z</time>
      </trkpt>
      <trkpt lat="48.6869490" lon="13.4539040">
        <ele>370.0</ele>
        <time>2019-08-15T08:22:50Z</time>
      </trkpt>
      <trkpt lat="48.6869380" lon="13.4539420">
        <ele>370.2</ele>
        <time>2019-08-15T08:22:51Z</time>
      </trkpt>
      <trkpt lat="48.6869250" lon="13.4539830">
        <ele>370.2</ele>
        <time>2019-08-15T08:22:52Z</time>
      </trkpt>
      <trkpt lat="48.6869130" lon="13.4540220">
        <ele>370.2</ele>
        <time>2019-08-15T08:22:53Z</time>
      </trkpt>
      <trkpt lat="48.6869020" lon="13.4540570">
        <ele>370.2</ele>
        <time>2019-08-15T08:22:54Z</time>
      </trkpt>
      <trkpt lat="48.6868890" lon="13.4540960">
        <ele>370.2</ele>
        <time>2019-08-15T08:22:55Z</time>
      </trkpt>
      <trkpt lat="48.6868750" lon="13.4541390">
        <ele>370.2</ele>
        <time>2019-08-15T08:22:56Z</time>
      </trkpt>
      <trkpt lat="48.6868630" lon="13.4541820">
        <ele>370.2</ele>
        <time>2019-08-15T08:22:57Z</time>
      </trkpt>
      <trkpt lat="48.6868510" lon="13.4542270">
        <ele>370.2</ele>
        <time>2019-08-15T08:22:58Z</time>
      </trkpt>
      <trkpt lat="48.6868390" lon="13.4542760">
        <ele>370.0</ele>
        <time>2019-08-15T08:22:59Z</time>
      </trkpt>
      <trkpt lat="48.6868280" lon="13.4543280">
        <ele>370.0</ele>
        <time>2019-08-15T08:23:00Z</time>
      </trkpt>
      <trkpt lat="48.6868190" lon="13.4543880">
        <ele>370.0</ele>
        <time>2019-08-15T08:23:01Z</time>
      </trkpt>
      <trkpt lat="48.6868100" lon="13.4544530">
        <ele>369.8</ele>
        <time>2019-08-15T08:23:02Z</time>
      </trkpt>
      <trkpt lat="48.6868020" lon="13.4545240">
        <ele>369.6</ele>
        <time>2019-08-15T08:23:03Z</time>
      </trkpt>
      <trkpt lat="48.6867940" lon="13.4545960">
        <ele>369.6</ele>
        <time>2019-08-15T08:23:04Z</time>
      </trkpt>
      <trkpt lat="48.6867840" lon="13.4546730">
        <ele>369.4</ele>
        <time>2019-08-15T08:23:05Z</time>
      </trkpt>
      <trkpt lat="48.6867710" lon="13.4547510">
        <ele>369.2</ele>
        <time>2019-08-15T08:23:06Z</time>
      </trkpt>
      <trkpt lat="48.6867570" lon="13.4548310">
        <ele>369.2</ele>
        <time>2019-08-15T08:23:07Z</time>
      </trkpt>
      <trkpt lat="48.6867430" lon="13.4549140">
        <ele>369.0</ele>
        <time>2019-08-15T08:23:08Z</time>
      </trkpt>
      <trkpt lat="48.6867250" lon="13.4550010">
        <ele>368.8</ele>
        <time>2019-08-15T08:23:09Z</time>
      </trkpt>
      <trkpt lat="48.6867050" lon="13.4550880">
        <ele>368.6</ele>
        <time>2019-08-15T08:23:10Z</time>
      </trkpt>
      <trkpt lat="48.6866800" lon="13.4551770">
        <ele>368.4</ele>
        <time>2019-08-15T08:23:11Z</time>
      </trkpt>
      <trkpt lat="48.6866540" lon="13.4552610">
        <ele>368.2</ele>
        <time>2019-08-15T08:23:12Z</time>
      </trkpt>
      <trkpt lat="48.6866280" lon="13.4553400">
        <ele>368.0</ele>
        <time>2019-08-15T08:23:13Z</time>
      </trkpt>
      <trkpt lat="48.6866080" lon="13.4554170">
        <ele>367.8</ele>
        <time>2019-08-15T08:23:14Z</time>
      </trkpt>
      <trkpt lat="48.6865950" lon="13.4554920">
        <ele>367.8</ele>
        <time>2019-08-15T08:23:15Z</time>
      </trkpt>
      <trkpt lat="48.6865920" lon="13.4555680">
        <ele>367.6</ele>
        <time>2019-08-15T08:23:16Z</time>
      </trkpt>
      <trkpt lat="48.6865940" lon="13.4556420">
        <ele>367.6</ele>
        <time>2019-08-15T08:23:17Z</time>
      </trkpt>
      <trkpt lat="48.6866080" lon="13.4557130">
        <ele>367.6</ele>
        <time>2019-08-15T08:23:18Z</time>
      </trkpt>
      <trkpt lat="48.6866300" lon="13.4557810">
        <ele>367.4</ele>
        <time>2019-08-15T08:23:19Z</time>
      </trkpt>
      <trkpt lat="48.6866570" lon="13.4558450">
        <ele>367.4</ele>
        <time>2019-08-15T08:23:20Z</time>
      </trkpt>
      <trkpt lat="48.6866860" lon="13.4559080">
        <ele>367.2</ele>
        <time>2019-08-15T08:23:21Z</time>
      </trkpt>
      <trkpt lat="48.6867190" lon="13.4559690">
        <ele>367.2</ele>
        <time>2019-08-15T08:23:22Z</time>
      </trkpt>
      <trkpt lat="48.6867550" lon="13.4560270">
        <ele>367.0</ele>
        <time>2019-08-15T08:23:23Z</time>
      </trkpt>
      <trkpt lat="48.6867970" lon="13.4560800">
        <ele>366.8</ele>
        <time>2019-08-15T08:23:24Z</time>
      </trkpt>
      <trkpt lat="48.6868420" lon="13.4561260">
        <ele>366.8</ele>
        <time>2019-08-15T08:23:25Z</time>
      </trkpt>
      <trkpt lat="48.6868890" lon="13.4561620">
        <ele>366.8</ele>
        <time>2019-08-15T08:23:26Z</time>
      </trkpt>
      <trkpt lat="48.6869370" lon="13.4561880">
        <ele>366.8</ele>
        <time>2019-08-15T08:23:27Z</time>
      </trkpt>
      <trkpt lat="48.6869860" lon="13.4562050">
        <ele>366.8</ele>
        <time>2019-08-15T08:23:28Z</time>
      </trkpt>
      <trkpt lat="48.6870330" lon="13.4562200">
        <ele>367.0</ele>
        <time>2019-08-15T08:23:29Z</time>
      </trkpt>
      <trkpt lat="48.6870770" lon="13.4562340">
        <ele>367.2</ele>
        <time>2019-08-15T08:23:30Z</time>
      </trkpt>
      <trkpt lat="48.6871200" lon="13.4562490">
        <ele>367.2</ele>
        <time>2019-08-15T08:23:31Z</time>
      </trkpt>
      <trkpt lat="48.6871620" lon="13.4562630">
        <ele>367.4</ele>
        <time>2019-08-15T08:23:32Z</time>
      </trkpt>
      <trkpt lat="48.6872010" lon="13.4562770">
        <ele>367.6</ele>
        <time>2019-08-15T08:23:33Z</time>
      </trkpt>
      <trkpt lat="48.6872390" lon="13.4562900">
        <ele>367.8</ele>
        <time>2019-08-15T08:23:34Z</time>
      </trkpt>
      <trkpt lat="48.6872730" lon="13.4563040">
        <ele>367.8</ele>
        <time>2019-08-15T08:23:35Z</time>
      </trkpt>
      <trkpt lat="48.6873030" lon="13.4563190">
        <ele>368.0</ele>
        <time>2019-08-15T08:23:36Z</time>
      </trkpt>
      <trkpt lat="48.6873320" lon="13.4563360">
        <ele>368.2</ele>
        <time>2019-08-15T08:23:37Z</time>
      </trkpt>
      <trkpt lat="48.6873620" lon="13.4563550">
        <ele>368.4</ele>
        <time>2019-08-15T08:23:38Z</time>
      </trkpt>
      <trkpt lat="48.6873900" lon="13.4563770">
        <ele>368.4</ele>
        <time>2019-08-15T08:23:39Z</time>
      </trkpt>
      <trkpt lat="48.6874180" lon="13.4564000">
        <ele>368.6</ele>
        <time>2019-08-15T08:23:40Z</time>
      </trkpt>
      <trkpt lat="48.6874450" lon="13.4564230">
        <ele>368.8</ele>
        <time>2019-08-15T08:23:41Z</time>
      </trkpt>
      <trkpt lat="48.6874710" lon="13.4564480">
        <ele>369.0</ele>
        <time>2019-08-15T08:23:42Z</time>
      </trkpt>
      <trkpt lat="48.6874970" lon="13.4564730">
        <ele>369.2</ele>
        <time>2019-08-15T08:23:43Z</time>
      </trkpt>
      <trkpt lat="48.6875230" lon="13.4564980">
        <ele>369.4</ele>
        <time>2019-08-15T08:23:44Z</time>
      </trkpt>
      <trkpt lat="48.6875480" lon="13.4565230">
        <ele>369.6</ele>
        <time>2019-08-15T08:23:45Z</time>
      </trkpt>
      <trkpt lat="48.6875720" lon="13.4565500">
        <ele>369.8</ele>
        <time>2019-08-15T08:23:46Z</time>
      </trkpt>
      <trkpt lat="48.6875950" lon="13.4565780">
        <ele>370.0</ele>
        <time>2019-08-15T08:23:47Z</time>
      </trkpt>
      <trkpt lat="48.6876160" lon="13.4566030">
        <ele>370.2</ele>
        <time>2019-08-15T08:23:48Z</time>
      </trkpt>
      <trkpt lat="48.6876390" lon="13.4566280">
        <ele>370.2</ele>
        <time>2019-08-15T08:23:49Z</time>
      </trkpt>
      <trkpt lat="48.6876640" lon="13.4566530">
        <ele>370.4</ele>
        <time>2019-08-15T08:23:50Z</time>
      </trkpt>
      <trkpt lat="48.6876870" lon="13.4566820">
        <ele>370.8</ele>
        <time>2019-08-15T08:23:51Z</time>
      </trkpt>
      <trkpt lat="48.6877100" lon="13.4567100">
        <ele>371.0</ele>
        <time>2019-08-15T08:23:52Z</time>
      </trkpt>
      <trkpt lat="48.6877300" lon="13.4567370">
        <ele>371.2</ele>
        <time>2019-08-15T08:23:53Z</time>
      </trkpt>
      <trkpt lat="48.6877500" lon="13.4567690">
        <ele>371.4</ele>
        <time>2019-08-15T08:23:54Z</time>
      </trkpt>
      <trkpt lat="48.6877710" lon="13.4568000">
        <ele>371.4</ele>
        <time>2019-08-15T08:23:55Z</time>
      </trkpt>
      <trkpt lat="48.6877900" lon="13.4568280">
        <ele>371.6</ele>
        <time>2019-08-15T08:23:56Z</time>
      </trkpt>
      <trkpt lat="48.6878100" lon="13.4568550">
        <ele>371.8</ele>
        <time>2019-08-15T08:23:57Z</time>
      </trkpt>
      <trkpt lat="48.6878290" lon="13.4568830">
        <ele>372.0</ele>
        <time>2019-08-15T08:23:58Z</time>
      </trkpt>
      <trkpt lat="48.6878470" lon="13.4569140">
        <ele>372.2</ele>
        <time>2019-08-15T08:23:59Z</time>
      </trkpt>
      <trkpt lat="48.6878640" lon="13.4569460">
        <ele>372.4</ele>
        <time>2019-08-15T08:24:00Z</time>
      </trkpt>
      <trkpt lat="48.6878810" lon="13.4569800">
        <ele>372.6</ele>
        <time>2019-08-15T08:24:01Z</time>
      </trkpt>
      <trkpt lat="48.6878990" lon="13.4570150">
        <ele>372.8</ele>
        <time>2019-08-15T08:24:02Z</time>
      </trkpt>
      <trkpt lat="48.6879140" lon="13.4570520">
        <ele>372.8</ele>
        <time>2019-08-15T08:24:03Z</time>
      </trkpt>
      <trkpt lat="48.6879300" lon="13.4570890">
        <ele>373.0</ele>
        <time>2019-08-15T08:24:04Z</time>
      </trkpt>
      <trkpt lat="48.6879480" lon="13.4571260">
        <ele>373.2</ele>
        <time>2019-08-15T08:24:05Z</time>
      </trkpt>
      <trkpt lat="48.6879650" lon="13.4571640">
        <ele>373.4</ele>
        <time>2019-08-15T08:24:06Z</time>
      </trkpt>
      <trkpt lat="48.6879800" lon="13.4572010">
        <ele>373.6</ele>
        <time>2019-08-15T08:24:07Z</time>
      </trkpt>
      <trkpt lat="48.6879940" lon="13.4572370">
        <ele>373.8</ele>
        <time>2019-08-15T08:24:08Z</time>
      </trkpt>
      <trkpt lat="48.6880080" lon="13.4572760">
        <ele>374.0</ele>
        <time>2019-08-15T08:24:09Z</time>
      </trkpt>
      <trkpt lat="48.6880200" lon="13.4573130">
        <ele>374.0</ele>
        <time>2019-08-15T08:24:10Z</time>
      </trkpt>
      <trkpt lat="48.6880310" lon="13.4573510">
        <ele>374.2</ele>
        <time>2019-08-15T08:24:11Z</time>
      </trkpt>
      <trkpt lat="48.6880420" lon="13.4573890">
        <ele>374.4</ele>
        <time>2019-08-15T08:24:12Z</time>
      </trkpt>
      <trkpt lat="48.6880510" lon="13.4574280">
        <ele>374.6</ele>
        <time>2019-08-15T08:24:13Z</time>
      </trkpt>
      <trkpt lat="48.6880630" lon="13.4574680">
        <ele>374.6</ele>
        <time>2019-08-15T08:24:14Z</time>
      </trkpt>
      <trkpt lat="48.6880750" lon="13.4575080">
        <ele>374.8</ele>
        <time>2019-08-15T08:24:15Z</time>
      </trkpt>
      <trkpt lat="48.6880880" lon="13.4575460">
        <ele>375.0</ele>
        <time>2019-08-15T08:24:16Z</time>
      </trkpt>
      <trkpt lat="48.6881010" lon="13.4575860">
        <ele>375.2</ele>
        <time>2019-08-15T08:24:17Z</time>
      </trkpt>
      <trkpt lat="48.6881130" lon="13.4576220">
        <ele>375.4</ele>
        <time>2019-08-15T08:24:18Z</time>
      </trkpt>
      <trkpt lat="48.6881240" lon="13.4576610">
        <ele>375.4</ele>
        <time>2019-08-15T08:24:19Z</time>
      </trkpt>
      <trkpt lat="48.6881340" lon="13.4576990">
        <ele>375.6</ele>
        <time>2019-08-15T08:24:20Z</time>
      </trkpt>
      <trkpt lat="48.6881440" lon="13.4577360">
        <ele>375.8</ele>
        <time>2019-08-15T08:24:21Z</time>
      </trkpt>
      <trkpt lat="48.6881540" lon="13.4577730">
        <ele>376.0</ele>
        <time>2019-08-15T08:24:22Z</time>
      </trkpt>
      <trkpt lat="48.6881650" lon="13.4578110">
        <ele>376.0</ele>
        <time>2019-08-15T08:24:23Z</time>
      </trkpt>
      <trkpt lat="48.6881740" lon="13.4578490">
        <ele>376.2</ele>
        <time>2019-08-15T08:24:24Z</time>
      </trkpt>
      <trkpt lat="48.6881820" lon="13.4578880">
        <ele>376.2</ele>
        <time>2019-08-15T08:24:25Z</time>
      </trkpt>
      <trkpt lat="48.6881900" lon="13.4579280">
        <ele>376.4</ele>
        <time>2019-08-15T08:24:26Z</time>
      </trkpt>
      <trkpt lat="48.6881970" lon="13.4579660">
        <ele>376.6</ele>
        <time>2019-08-15T08:24:27Z</time>
      </trkpt>
      <trkpt lat="48.6882030" lon="13.4580060">
        <ele>376.8</ele>
        <time>2019-08-15T08:24:28Z</time>
      </trkpt>
      <trkpt lat="48.6882090" lon="13.4580440">
        <ele>377.0</ele>
        <time>2019-08-15T08:24:29Z</time>
      </trkpt>
      <trkpt lat="48.6882100" lon="13.4580820">
        <ele>377.0</ele>
        <time>2019-08-15T08:24:30Z</time>
      </trkpt>
      <trkpt lat="48.6882120" lon="13.4581210">
        <ele>377.2</ele>
        <time>2019-08-15T08:24:31Z</time>
      </trkpt>
      <trkpt lat="48.6882120" lon="13.4581600">
        <ele>377.4</ele>
        <time>2019-08-15T08:24:32Z</time>
      </trkpt>
      <trkpt lat="48.6882120" lon="13.4581990">
        <ele>377.6</ele>
        <time>2019-08-15T08:24:33Z</time>
      </trkpt>
      <trkpt lat="48.6882120" lon="13.4582400">
        <ele>377.6</ele>
        <time>2019-08-15T08:24:34Z</time>
      </trkpt>
      <trkpt lat="48.6882120" lon="13.4582810">
        <ele>377.8</ele>
        <time>2019-08-15T08:24:35Z</time>
      </trkpt>
      <trkpt lat="48.6882140" lon="13.4583220">
        <ele>378.0</ele>
        <time>2019-08-15T08:24:36Z</time>
      </trkpt>
      <trkpt lat="48.6882150" lon="13.4583640">
        <ele>378.0</ele>
        <time>2019-08-15T08:24:37Z</time>
      </trkpt>
      <trkpt lat="48.6882170" lon="13.4584070">
        <ele>378.2</ele>
        <time>2019-08-15T08:24:38Z</time>
      </trkpt>
      <trkpt lat="48.6882160" lon="13.4584480">
        <ele>378.4</ele>
        <time>2019-08-15T08:24:39Z</time>
      </trkpt>
      <trkpt lat="48.6882150" lon="13.4584880">
        <ele>378.4</ele>
        <time>2019-08-15T08:24:40Z</time>
      </trkpt>
      <trkpt lat="48.6882130" lon="13.4585290">
        <ele>378.6</ele>
        <time>2019-08-15T08:24:41Z</time>
      </trkpt>
      <trkpt lat="48.6882090" lon="13.4585670">
        <ele>378.8</ele>
        <time>2019-08-15T08:24:42Z</time>
      </trkpt>
      <trkpt lat="48.6882060" lon="13.4586040">
        <ele>378.8</ele>
        <time>2019-08-15T08:24:43Z</time>
      </trkpt>
      <trkpt lat="48.6882050" lon="13.4586410">
        <ele>379.0</ele>
        <time>2019-08-15T08:24:44Z</time>
      </trkpt>
      <trkpt lat="48.6882030" lon="13.4586790">
        <ele>379.0</ele>
        <time>2019-08-15T08:24:45Z</time>
      </trkpt>
      <trkpt lat="48.6881980" lon="13.4587190">
        <ele>379.2</ele>
        <time>2019-08-15T08:24:46Z</time>
      </trkpt>
      <trkpt lat="48.6881950" lon="13.4587620">
        <ele>379.4</ele>
        <time>2019-08-15T08:24:47Z</time>
      </trkpt>
      <trkpt lat="48.6881900" lon="13.4588050">
        <ele>379.4</ele>
        <time>2019-08-15T08:24:48Z</time>
      </trkpt>
      <trkpt lat="48.6881850" lon="13.4588470">
        <ele>379.6</ele>
        <time>2019-08-15T08:24:49Z</time>
      </trkpt>
      <trkpt lat="48.6881810" lon="13.4588910">
        <ele>379.8</ele>
        <time>2019-08-15T08:24:50Z</time>
      </trkpt>
      <trkpt lat="48.6881780" lon="13.4589350">
        <ele>379.8</ele>
        <time>2019-08-15T08:24:51Z</time>
      </trkpt>
      <trkpt lat="48.6881740" lon="13.4589780">
        <ele>380.0</ele>
        <time>2019-08-15T08:24:52Z</time>
      </trkpt>
      <trkpt lat="48.6881700" lon="13.4590200">
        <ele>380.2</ele>
        <time>2019-08-15T08:24:53Z</time>
      </trkpt>
      <trkpt lat="48.6881630" lon="13.4590590">
        <ele>380.4</ele>
        <time>2019-08-15T08:24:54Z</time>
      </trkpt>
      <trkpt lat="48.6881530" lon="13.4590980">
        <ele>380.6</ele>
        <time>2019-08-15T08:24:55Z</time>
      </trkpt>
      <trkpt lat="48.6881460" lon="13.4591380">
        <ele>380.6</ele>
        <time>2019-08-15T08:24:56Z</time>
      </trkpt>
      <trkpt lat="48.6881380" lon="13.4591760">
        <ele>380.8</ele>
        <time>2019-08-15T08:24:57Z</time>
      </trkpt>
      <trkpt lat="48.6881280" lon="13.4592140">
        <ele>381.0</ele>
        <time>2019-08-15T08:24:58Z</time>
      </trkpt>
      <trkpt lat="48.6881190" lon="13.4592540">
        <ele>381.0</ele>
        <time>2019-08-15T08:24:59Z</time>
      </trkpt>
      <trkpt lat="48.6881100" lon="13.4592950">
        <ele>381.2</ele>
        <time>2019-08-15T08:25:00Z</time>
      </trkpt>
      <trkpt lat="48.6881040" lon="13.4593340">
        <ele>381.4</ele>
        <time>2019-08-15T08:25:01Z</time>
      </trkpt>
      <trkpt lat="48.6880990" lon="13.4593730">
        <ele>381.4</ele>
        <time>2019-08-15T08:25:02Z</time>
      </trkpt>
      <trkpt lat="48.6880940" lon="13.4594130">
        <ele>381.6</ele>
        <time>2019-08-15T08:25:03Z</time>
      </trkpt>
      <trkpt lat="48.6880920" lon="13.4594530">
        <ele>381.8</ele>
        <time>2019-08-15T08:25:04Z</time>
      </trkpt>
      <trkpt lat="48.6880910" lon="13.4594930">
        <ele>381.8</ele>
        <time>2019-08-15T08:25:05Z</time>
      </trkpt>
      <trkpt lat="48.6880910" lon="13.4595330">
        <ele>382.0</ele>
        <time>2019-08-15T08:25:06Z</time>
      </trkpt>
      <trkpt lat="48.6880960" lon="13.4595730">
        <ele>382.2</ele>
        <time>2019-08-15T08:25:07Z</time>
      </trkpt>
      <trkpt lat="48.6881000" lon="13.4596130">
        <ele>382.2</ele>
        <time>2019-08-15T08:25:08Z</time>
      </trkpt>
      <trkpt lat="48.6881050" lon="13.4596530">
        <ele>382.4</ele>
        <time>2019-08-15T08:25:09Z</time>
      </trkpt>
      <trkpt lat="48.6881140" lon="13.4596930">
        <ele>382.4</ele>
        <time>2019-08-15T08:25:10Z</time>
      </trkpt>
      <trkpt lat="48.6881220" lon="13.4597310">
        <ele>382.6</ele>
        <time>2019-08-15T08:25:11Z</time>
      </trkpt>
      <trkpt lat="48.6881310" lon="13.4597670">
        <ele>382.8</ele>
        <time>2019-08-15T08:25:12Z</time>
      </trkpt>
      <trkpt lat="48.6881410" lon="13.4598050">
        <ele>382.8</ele>
        <time>2019-08-15T08:25:13Z</time>
      </trkpt>
      <trkpt lat="48.6881510" lon="13.4598420">
        <ele>383.0</ele>
        <time>2019-08-15T08:25:14Z</time>
      </trkpt>
      <trkpt lat="48.6881640" lon="13.4598830">
        <ele>383.2</ele>
        <time>2019-08-15T08:25:15Z</time>
      </trkpt>
      <trkpt lat="48.6881780" lon="13.4599210">
        <ele>383.2</ele>
        <time>2019-08-15T08:25:16Z</time>
      </trkpt>
      <trkpt lat="48.6881900" lon="13.4599570">
        <ele>383.4</ele>
        <time>2019-08-15T08:25:17Z</time>
      </trkpt>
      <trkpt lat="48.6882030" lon="13.4599920">
        <ele>383.6</ele>
        <time>2019-08-15T08:25:18Z</time>
      </trkpt>
      <trkpt lat="48.6882170" lon="13.4600300">
        <ele>383.8</ele>
        <time>2019-08-15T08:25:19Z</time>
      </trkpt>
      <trkpt lat="48.6882320" lon="13.4600630">
        <ele>383.8</ele>
        <time>2019-08-15T08:25:20Z</time>
      </trkpt>
      <trkpt lat="48.6882460" lon="13.4600960">
        <ele>384.0</ele>
        <time>2019-08-15T08:25:21Z</time>
      </trkpt>
      <trkpt lat="48.6882620" lon="13.4601270">
        <ele>384.2</ele>
        <time>2019-08-15T08:25:22Z</time>
      </trkpt>
      <trkpt lat="48.6882760" lon="13.4601560">
        <ele>384.4</ele>
        <time>2019-08-15T08:25:23Z</time>
      </trkpt>
      <trkpt lat="48.6882880" lon="13.4601870">
        <ele>384.4</ele>
        <time>2019-08-15T08:25:24Z</time>
      </trkpt>
      <trkpt lat="48.6882990" lon="13.4602170">
        <ele>384.6</ele>
        <time>2019-08-15T08:25:25Z</time>
      </trkpt>
      <trkpt lat="48.6883110" lon="13.4602490">
        <ele>384.8</ele>
        <time>2019-08-15T08:25:26Z</time>
      </trkpt>
      <trkpt lat="48.6883210" lon="13.4602810">
        <ele>385.0</ele>
        <time>2019-08-15T08:25:27Z</time>
      </trkpt>
      <trkpt lat="48.6883310" lon="13.4603100">
        <ele>385.2</ele>
        <time>2019-08-15T08:25:28Z</time>
      </trkpt>
      <trkpt lat="48.6883410" lon="13.4603400">
        <ele>385.4</ele>
        <time>2019-08-15T08:25:29Z</time>
      </trkpt>
      <trkpt lat="48.6883510" lon="13.4603730">
        <ele>385.6</ele>
        <time>2019-08-15T08:25:30Z</time>
      </trkpt>
      <trkpt lat="48.6883600" lon="13.4604040">
        <ele>385.6</ele>
        <time>2019-08-15T08:25:31Z</time>
      </trkpt>
      <trkpt lat="48.6883690" lon="13.4604370">
        <ele>385.8</ele>
        <time>2019-08-15T08:25:32Z</time>
      </trkpt>
      <trkpt lat="48.6883770" lon="13.4604690">
        <ele>386.0</ele>
        <time>2019-08-15T08:25:33Z</time>
      </trkpt>
      <trkpt lat="48.6883870" lon="13.4604970">
        <ele>386.2</ele>
        <time>2019-08-15T08:25:34Z</time>
      </trkpt>
      <trkpt lat="48.6883950" lon="13.4605280">
        <ele>386.4</ele>
        <time>2019-08-15T08:25:35Z</time>
      </trkpt>
      <trkpt lat="48.6884020" lon="13.4605590">
        <ele>386.6</ele>
        <time>2019-08-15T08:25:36Z</time>
      </trkpt>
      <trkpt lat="48.6884080" lon="13.4605910">
        <ele>386.6</ele>
        <time>2019-08-15T08:25:37Z</time>
      </trkpt>
      <trkpt lat="48.6884140" lon="13.4606200">
        <ele>386.8</ele>
        <time>2019-08-15T08:25:38Z</time>
      </trkpt>
      <trkpt lat="48.6884230" lon="13.4606490">
        <ele>387.0</ele>
        <time>2019-08-15T08:25:39Z</time>
      </trkpt>
      <trkpt lat="48.6884290" lon="13.4606780">
        <ele>387.2</ele>
        <time>2019-08-15T08:25:40Z</time>
      </trkpt>
      <trkpt lat="48.6884340" lon="13.4607070">
        <ele>387.2</ele>
        <time>2019-08-15T08:25:41Z</time>
      </trkpt>
      <trkpt lat="48.6884410" lon="13.4607380">
        <ele>387.4</ele>
        <time>2019-08-15T08:25:42Z</time>
      </trkpt>
      <trkpt lat="48.6884480" lon="13.4607670">
        <ele>387.6</ele>
        <time>2019-08-15T08:25:43Z</time>
      </trkpt>
      <trkpt lat="48.6884550" lon="13.4607950">
        <ele>387.8</ele>
        <time>2019-08-15T08:25:44Z</time>
      </trkpt>
      <trkpt lat="48.6884640" lon="13.4608240">
        <ele>387.8</ele>
        <time>2019-08-15T08:25:45Z</time>
      </trkpt>
      <trkpt lat="48.6884740" lon="13.4608520">
        <ele>388.0</ele>
        <time>2019-08-15T08:25:46Z</time>
      </trkpt>
      <trkpt lat="48.6884840" lon="13.4608810">
        <ele>388.2</ele>
        <time>2019-08-15T08:25:47Z</time>
      </trkpt>
      <trkpt lat="48.6884920" lon="13.4609100">
        <ele>388.4</ele>
        <time>2019-08-15T08:25:48Z</time>
      </trkpt>
      <trkpt lat="48.6885030" lon="13.4609390">
        <ele>388.6</ele>
        <time>2019-08-15T08:25:49Z</time>
      </trkpt>
      <trkpt lat="48.6885120" lon="13.4609670">
        <ele>388.6</ele>
        <time>2019-08-15T08:25:50Z</time>
      </trkpt>
      <trkpt lat="48.6885190" lon="13.4609940">
        <ele>388.8</ele>
        <time>2019-08-15T08:25:51Z</time>
      </trkpt>
      <trkpt lat="48.6885310" lon="13.4610220">
        <ele>389.0</ele>
        <time>2019-08-15T08:25:52Z</time>
      </trkpt>
      <trkpt lat="48.6885430" lon="13.4610500">
        <ele>389.2</ele>
        <time>2019-08-15T08:25:53Z</time>
      </trkpt>
      <trkpt lat="48.6885540" lon="13.4610810">
        <ele>389.2</ele>
        <time>2019-08-15T08:25:54Z</time>
      </trkpt>
      <trkpt lat="48.6885660" lon="13.4611100">
        <ele>389.4</ele>
        <time>2019-08-15T08:25:55Z</time>
      </trkpt>
      <trkpt lat="48.6885780" lon="13.4611390">
        <ele>389.6</ele>
        <time>2019-08-15T08:25:56Z</time>
      </trkpt>
      <trkpt lat="48.6885910" lon="13.4611680">
        <ele>389.8</ele>
        <time>2019-08-15T08:25:57Z</time>
      </trkpt>
      <trkpt lat="48.6886040" lon="13.4611960">
        <ele>389.8</ele>
        <time>2019-08-15T08:25:58Z</time>
      </trkpt>
      <trkpt lat="48.6886130" lon="13.4612260">
        <ele>390.0</ele>
        <time>2019-08-15T08:25:59Z</time>
      </trkpt>
      <trkpt lat="48.6886240" lon="13.4612550">
        <ele>390.2</ele>
        <time>2019-08-15T08:26:00Z</time>
      </trkpt>
      <trkpt lat="48.6886360" lon="13.4612820">
        <ele>390.2</ele>
        <time>2019-08-15T08:26:01Z</time>
      </trkpt>
      <trkpt lat="48.6886470" lon="13.4613100">
        <ele>390.4</ele>
        <time>2019-08-15T08:26:02Z</time>
      </trkpt>
      <trkpt lat="48.6886570" lon="13.4613390">
        <ele>390.6</ele>
        <time>2019-08-15T08:26:03Z</time>
      </trkpt>
      <trkpt lat="48.6886660" lon="13.4613680">
        <ele>390.8</ele>
        <time>2019-08-15T08:26:04Z</time>
      </trkpt>
      <trkpt lat="48.6886800" lon="13.4613950">
        <ele>391.0</ele>
        <time>2019-08-15T08:26:05Z</time>
      </trkpt>
      <trkpt lat="48.6886920" lon="13.4614210">
        <ele>391.0</ele>
        <time>2019-08-15T08:26:06Z</time>
      </trkpt>
      <trkpt lat="48.6887060" lon="13.4614460">
        <ele>391.2</ele>
        <time>2019-08-15T08:26:07Z</time>
      </trkpt>
      <trkpt lat="48.6887200" lon="13.4614730">
        <ele>391.4</ele>
        <time>2019-08-15T08:26:08Z</time>
      </trkpt>
      <trkpt lat="48.6887330" lon="13.4614980">
        <ele>391.4</ele>
        <time>2019-08-15T08:26:09Z</time>
      </trkpt>
      <trkpt lat="48.6887450" lon="13.4615240">
        <ele>391.6</ele>
        <time>2019-08-15T08:26:10Z</time>
      </trkpt>
      <trkpt lat="48.6887600" lon="13.4615490">
        <ele>391.8</ele>
        <time>2019-08-15T08:26:11Z</time>
      </trkpt>
      <trkpt lat="48.6887730" lon="13.4615740">
        <ele>392.0</ele>
        <time>2019-08-15T08:26:12Z</time>
      </trkpt>
      <trkpt lat="48.6887860" lon="13.4616000">
        <ele>392.2</ele>
        <time>2019-08-15T08:26:13Z</time>
      </trkpt>
      <trkpt lat="48.6887980" lon="13.4616270">
        <ele>392.2</ele>
        <time>2019-08-15T08:26:14Z</time>
      </trkpt>
      <trkpt lat="48.6888100" lon="13.4616570">
        <ele>392.4</ele>
        <time>2019-08-15T08:26:15Z</time>
      </trkpt>
      <trkpt lat="48.6888220" lon="13.4616850">
        <ele>392.6</ele>
        <time>2019-08-15T08:26:16Z</time>
      </trkpt>
      <trkpt lat="48.6888350" lon="13.4617140">
        <ele>392.6</ele>
        <time>2019-08-15T08:26:17Z</time>
      </trkpt>
      <trkpt lat="48.6888460" lon="13.4617430">
        <ele>392.8</ele>
        <time>2019-08-15T08:26:18Z</time>
      </trkpt>
      <trkpt lat="48.6888580" lon="13.4617720">
        <ele>393.0</ele>
        <time>2019-08-15T08:26:19Z</time>
      </trkpt>
      <trkpt lat="48.6888700" lon="13.4618030">
        <ele>393.0</ele>
        <time>2019-08-15T08:26:20Z</time>
      </trkpt>
      <trkpt lat="48.6888810" lon="13.4618340">
        <ele>393.2</ele>
        <time>2019-08-15T08:26:21Z</time>
      </trkpt>
      <trkpt lat="48.6888930" lon="13.4618640">
        <ele>393.4</ele>
        <time>2019-08-15T08:26:22Z</time>
      </trkpt>
      <trkpt lat="48.6889070" lon="13.4618920">
        <ele>393.4</ele>
        <time>2019-08-15T08:26:23Z</time>
      </trkpt>
      <trkpt lat="48.6889190" lon="13.4619220">
        <ele>393.6</ele>
        <time>2019-08-15T08:26:24Z</time>
      </trkpt>
      <trkpt lat="48.6889290" lon="13.4619520">
        <ele>393.8</ele>
        <time>2019-08-15T08:26:25Z</time>
      </trkpt>
      <trkpt lat="48.6889390" lon="13.4619820">
        <ele>393.8</ele>
        <time>2019-08-15T08:26:26Z</time>
      </trkpt>
      <trkpt lat="48.6889510" lon="13.4620120">
        <ele>394.0</ele>
        <time>2019-08-15T08:26:27Z</time>
      </trkpt>
      <trkpt lat="48.6889650" lon="13.4620420">
        <ele>394.2</ele>
        <time>2019-08-15T08:26:28Z</time>
      </trkpt>
      <trkpt lat="48.6889760" lon="13.4620720">
        <ele>394.4</ele>
        <time>2019-08-15T08:26:29Z</time>
      </trkpt>
      <trkpt lat="48.6889860" lon="13.4621010">
        <ele>394.6</ele>
        <time>2019-08-15T08:26:30Z</time>
      </trkpt>
      <trkpt lat="48.6889950" lon="13.4621310">
        <ele>394.8</ele>
        <time>2019-08-15T08:26:31Z</time>
      </trkpt>
      <trkpt lat="48.6890040" lon="13.4621600">
        <ele>394.8</ele>
        <time>2019-08-15T08:26:32Z</time>
      </trkpt>
      <trkpt lat="48.6890160" lon="13.4621890">
        <ele>395.0</ele>
        <time>2019-08-15T08:26:33Z</time>
      </trkpt>
      <trkpt lat="48.6890270" lon="13.4622190">
        <ele>395.2</ele>
        <time>2019-08-15T08:26:34Z</time>
      </trkpt>
      <trkpt lat="48.6890370" lon="13.4622480">
        <ele>395.2</ele>
        <time>2019-08-15T08:26:35Z</time>
      </trkpt>
      <trkpt lat="48.6890480" lon="13.4622760">
        <ele>395.4</ele>
        <time>2019-08-15T08:26:36Z</time>
      </trkpt>
      <trkpt lat="48.6890610" lon="13.4623040">
        <ele>395.6</ele>
        <time>2019-08-15T08:26:37Z</time>
      </trkpt>
      <trkpt lat="48.6890740" lon="13.4623340">
        <ele>395.6</ele>
        <time>2019-08-15T08:26:38Z</time>
      </trkpt>
      <trkpt lat="48.6890840" lon="13.4623660">
        <ele>395.8</ele>
        <time>2019-08-15T08:26:39Z</time>
      </trkpt>
      <trkpt lat="48.6890920" lon="13.4623970">
        <ele>396.0</ele>
        <time>2019-08-15T08:26:40Z</time>
      </trkpt>
      <trkpt lat="48.6891020" lon="13.4624270">
        <ele>396.2</ele>
        <time>2019-08-15T08:26:41Z</time>
      </trkpt>
      <trkpt lat="48.6891100" lon="13.4624580">
        <ele>396.2</ele>
        <time>2019-08-15T08:26:42Z</time>
      </trkpt>
      <trkpt lat="48.6891190" lon="13.4624890">
        <ele>396.4</ele>
        <time>2019-08-15T08:26:43Z</time>
      </trkpt>
      <trkpt lat="48.6891290" lon="13.4625190">
        <ele>396.6</ele>
        <time>2019-08-15T08:26:44Z</time>
      </trkpt>
      <trkpt lat="48.6891400" lon="13.4625470">
        <ele>396.6</ele>
        <time>2019-08-15T08:26:45Z</time>
      </trkpt>
      <trkpt lat="48.6891490" lon="13.4625750">
        <ele>396.8</ele>
        <time>2019-08-15T08:26:46Z</time>
      </trkpt>
      <trkpt lat="48.6891570" lon="13.4626060">
        <ele>397.0</ele>
        <time>2019-08-15T08:26:47Z</time>
      </trkpt>
      <trkpt lat="48.6891670" lon="13.4626360">
        <ele>397.2</ele>
        <time>2019-08-15T08:26:48Z</time>
      </trkpt>
      <trkpt lat="48.6891780" lon="13.4626650">
        <ele>397.2</ele>
        <time>2019-08-15T08:26:49Z</time>
      </trkpt>
      <trkpt lat="48.6891870" lon="13.4626940">
        <ele>397.4</ele>
        <time>2019-08-15T08:26:50Z</time>
      </trkpt>
      <trkpt lat="48.6891950" lon="13.4627220">
        <ele>397.6</ele>
        <time>2019-08-15T08:26:51Z</time>
      </trkpt>
      <trkpt lat="48.6892040" lon="13.4627520">
        <ele>397.6</ele>
        <time>2019-08-15T08:26:52Z</time>
      </trkpt>
      <trkpt lat="48.6892140" lon="13.4627800">
        <ele>397.8</ele>
        <time>2019-08-15T08:26:53Z</time>
      </trkpt>
      <trkpt lat="48.6892240" lon="13.4628060">
        <ele>398.0</ele>
        <time>2019-08-15T08:26:54Z</time>
      </trkpt>
      <trkpt lat="48.6892340" lon="13.4628340">
        <ele>398.0</ele>
        <time>2019-08-15T08:26:55Z</time>
      </trkpt>
      <trkpt lat="48.6892420" lon="13.4628630">
        <ele>398.2</ele>
        <time>2019-08-15T08:26:56Z</time>
      </trkpt>
      <trkpt lat="48.6892520" lon="13.4628940">
        <ele>398.4</ele>
        <time>2019-08-15T08:26:57Z</time>
      </trkpt>
      <trkpt lat="48.6892620" lon="13.4629240">
        <ele>398.6</ele>
        <time>2019-08-15T08:26:58Z</time>
      </trkpt>
      <trkpt lat="48.6892720" lon="13.4629560">
        <ele>398.6</ele>
        <time>2019-08-15T08:26:59Z</time>
      </trkpt>
      <trkpt lat="48.6892800" lon="13.4629880">
        <ele>398.8</ele>
        <time>2019-08-15T08:27:00Z</time>
      </trkpt>
      <trkpt lat="48.6892860" lon="13.4630210">
        <ele>399.0</ele>
        <time>2019-08-15T08:27:01Z</time>
      </trkpt>
      <trkpt lat="48.6892930" lon="13.4630530">
        <ele>399.0</ele>
        <time>2019-08-15T08:27:02Z</time>
      </trkpt>
      <trkpt lat="48.6893000" lon="13.4630910">
        <ele>399.2</ele>
        <time>2019-08-15T08:27:03Z</time>
      </trkpt>
      <trkpt lat="48.6893090" lon="13.4631290">
        <ele>399.4</ele>
        <time>2019-08-15T08:27:04Z</time>
      </trkpt>
      <trkpt lat="48.6893190" lon="13.4631670">
        <ele>399.4</ele>
        <time>2019-08-15T08:27:05Z</time>
      </trkpt>
      <trkpt lat="48.6893280" lon="13.4632030">
        <ele>399.6</ele>
        <time>2019-08-15T08:27:06Z</time>
      </trkpt>
      <trkpt lat="48.6893350" lon="13.4632390">
        <ele>399.8</ele>
        <time>2019-08-15T08:27:07Z</time>
      </trkpt>
      <trkpt lat="48.6893390" lon="13.4632760">
        <ele>400.0</ele>
        <time>2019-08-15T08:27:08Z</time>
      </trkpt>
      <trkpt lat="48.6893420" lon="13.4633120">
        <ele>400.2</ele>
        <time>2019-08-15T08:27:09Z</time>
      </trkpt>
      <trkpt lat="48.6893470" lon="13.4633490">
        <ele>400.2</ele>
        <time>2019-08-15T08:27:10Z</time>
      </trkpt>
      <trkpt lat="48.6893520" lon="13.4633870">
        <ele>400.4</ele>
        <time>2019-08-15T08:27:11Z</time>
      </trkpt>
      <trkpt lat="48.6893540" lon="13.4634220">
        <ele>400.6</ele>
        <time>2019-08-15T08:27:12Z</time>
      </trkpt>
      <trkpt lat="48.6893560" lon="13.4634580">
        <ele>400.8</ele>
        <time>2019-08-15T08:27:13Z</time>
      </trkpt>
      <trkpt lat="48.6893590" lon="13.4634940">
        <ele>401.0</ele>
        <time>2019-08-15T08:27:14Z</time>
      </trkpt>
      <trkpt lat="48.6893620" lon="13.4635300">
        <ele>401.2</ele>
        <time>2019-08-15T08:27:15Z</time>
      </trkpt>
      <trkpt lat="48.6893620" lon="13.4635650">
        <ele>401.4</ele>
        <time>2019-08-15T08:27:16Z</time>
      </trkpt>
      <trkpt lat="48.6893640" lon="13.4636000">
        <ele>401.6</ele>
        <time>2019-08-15T08:27:17Z</time>
      </trkpt>
      <trkpt lat="48.6893650" lon="13.4636350">
        <ele>401.8</ele>
        <time>2019-08-15T08:27:18Z</time>
      </trkpt>
      <trkpt lat="48.6893670" lon="13.4636700">
        <ele>402.0</ele>
        <time>2019-08-15T08:27:19Z</time>
      </trkpt>
      <trkpt lat="48.6893690" lon="13.4637050">
        <ele>402.2</ele>
        <time>2019-08-15T08:27:20Z</time>
      </trkpt>
      <trkpt lat="48.6893700" lon="13.4637400">
        <ele>402.2</ele>
        <time>2019-08-15T08:27:21Z</time>
      </trkpt>
      <trkpt lat="48.6893700" lon="13.4637730">
        <ele>402.4</ele>
        <time>2019-08-15T08:27:22Z</time>
      </trkpt>
      <trkpt lat="48.6893720" lon="13.4638080">
        <ele>402.6</ele>
        <time>2019-08-15T08:27:23Z</time>
      </trkpt>
      <trkpt lat="48.6893740" lon="13.4638440">
        <ele>402.8</ele>
        <time>2019-08-15T08:27:24Z</time>
      </trkpt>
      <trkpt lat="48.6893750" lon="13.4638800">
        <ele>403.0</ele>
        <time>2019-08-15T08:27:25Z</time>
      </trkpt>
      <trkpt lat="48.6893770" lon="13.4639140">
        <ele>403.0</ele>
        <time>2019-08-15T08:27:26Z</time>
      </trkpt>
      <trkpt lat="48.6893790" lon="13.4639520">
        <ele>403.2</ele>
        <time>2019-08-15T08:27:27Z</time>
      </trkpt>
      <trkpt lat="48.6893830" lon="13.4639870">
        <ele>403.4</ele>
        <time>2019-08-15T08:27:28Z</time>
      </trkpt>
      <trkpt lat="48.6893870" lon="13.4640240">
        <ele>403.6</ele>
        <time>2019-08-15T08:27:29Z</time>
      </trkpt>
      <trkpt lat="48.6893930" lon="13.4640590">
        <ele>403.8</ele>
        <time>2019-08-15T08:27:30Z</time>
      </trkpt>
      <trkpt lat="48.6894000" lon="13.4640950">
        <ele>403.8</ele>
        <time>2019-08-15T08:27:31Z</time>
      </trkpt>
      <trkpt lat="48.6894060" lon="13.4641290">
        <ele>404.0</ele>
        <time>2019-08-15T08:27:32Z</time>
      </trkpt>
      <trkpt lat="48.6894130" lon="13.4641630">
        <ele>404.2</ele>
        <time>2019-08-15T08:27:33Z</time>
      </trkpt>
      <trkpt lat="48.6894200" lon="13.4641970">
        <ele>404.4</ele>
        <time>2019-08-15T08:27:34Z</time>
      </trkpt>
      <trkpt lat="48.6894280" lon="13.4642320">
        <ele>404.6</ele>
        <time>2019-08-15T08:27:35Z</time>
      </trkpt>
      <trkpt lat="48.6894350" lon="13.4642640">
        <ele>404.8</ele>
        <time>2019-08-15T08:27:36Z</time>
      </trkpt>
      <trkpt lat="48.6894440" lon="13.4642960">
        <ele>404.8</ele>
        <time>2019-08-15T08:27:37Z</time>
      </trkpt>
      <trkpt lat="48.6894540" lon="13.4643280">
        <ele>405.0</ele>
        <time>2019-08-15T08:27:38Z</time>
      </trkpt>
      <trkpt lat="48.6894640" lon="13.4643600">
        <ele>405.2</ele>
        <time>2019-08-15T08:27:39Z</time>
      </trkpt>
      <trkpt lat="48.6894760" lon="13.4643900">
        <ele>405.4</ele>
        <time>2019-08-15T08:27:40Z</time>
      </trkpt>
      <trkpt lat="48.6894870" lon="13.4644220">
        <ele>405.6</ele>
        <time>2019-08-15T08:27:41Z</time>
      </trkpt>
      <trkpt lat="48.6894970" lon="13.4644530">
        <ele>405.8</ele>
        <time>2019-08-15T08:27:42Z</time>
      </trkpt>
      <trkpt lat="48.6895060" lon="13.4644840">
        <ele>405.8</ele>
        <time>2019-08-15T08:27:43Z</time>
      </trkpt>
      <trkpt lat="48.6895160" lon="13.4645140">
        <ele>406.0</ele>
        <time>2019-08-15T08:27:44Z</time>
      </trkpt>
      <trkpt lat="48.6895260" lon="13.4645460">
        <ele>406.2</ele>
        <time>2019-08-15T08:27:45Z</time>
      </trkpt>
      <trkpt lat="48.6895380" lon="13.4645760">
        <ele>406.4</ele>
        <time>2019-08-15T08:27:46Z</time>
      </trkpt>
      <trkpt lat="48.6895520" lon="13.4646070">
        <ele>406.6</ele>
        <time>2019-08-15T08:27:47Z</time>
      </trkpt>
      <trkpt lat="48.6895670" lon="13.4646370">
        <ele>406.8</ele>
        <time>2019-08-15T08:27:48Z</time>
      </trkpt>
      <trkpt lat="48.6895800" lon="13.4646660">
        <ele>406.8</ele>
        <time>2019-08-15T08:27:49Z</time>
      </trkpt>
      <trkpt lat="48.6895940" lon="13.4646960">
        <ele>407.0</ele>
        <time>2019-08-15T08:27:50Z</time>
      </trkpt>
      <trkpt lat="48.6896080" lon="13.4647250">
        <ele>407.2</ele>
        <time>2019-08-15T08:27:51Z</time>
      </trkpt>
      <trkpt lat="48.6896220" lon="13.4647510">
        <ele>407.4</ele>
        <time>2019-08-15T08:27:52Z</time>
      </trkpt>
      <trkpt lat="48.6896390" lon="13.4647750">
        <ele>407.6</ele>
        <time>2019-08-15T08:27:53Z</time>
      </trkpt>
      <trkpt lat="48.6896560" lon="13.4648000">
        <ele>407.6</ele>
        <time>2019-08-15T08:27:54Z</time>
      </trkpt>
      <trkpt lat="48.6896740" lon="13.4648260">
        <ele>407.8</ele>
        <time>2019-08-15T08:27:55Z</time>
      </trkpt>
      <trkpt lat="48.6896890" lon="13.4648510">
        <ele>408.0</ele>
        <time>2019-08-15T08:27:56Z</time>
      </trkpt>
      <trkpt lat="48.6897070" lon="13.4648730">
        <ele>408.2</ele>
        <time>2019-08-15T08:27:57Z</time>
      </trkpt>
      <trkpt lat="48.6897260" lon="13.4648930">
        <ele>408.2</ele>
        <time>2019-08-15T08:27:58Z</time>
      </trkpt>
      <trkpt lat="48.6897450" lon="13.4649130">
        <ele>408.4</ele>
        <time>2019-08-15T08:27:59Z</time>
      </trkpt>
      <trkpt lat="48.6897640" lon="13.4649330">
        <ele>408.6</ele>
        <time>2019-08-15T08:28:00Z</time>
      </trkpt>
      <trkpt lat="48.6897830" lon="13.4649510">
        <ele>408.8</ele>
        <time>2019-08-15T08:28:01Z</time>
      </trkpt>
      <trkpt lat="48.6898030" lon="13.4649660">
        <ele>409.0</ele>
        <time>2019-08-15T08:28:02Z</time>
      </trkpt>
      <trkpt lat="48.6898230" lon="13.4649800">
        <ele>409.0</ele>
        <time>2019-08-15T08:28:03Z</time>
      </trkpt>
      <trkpt lat="48.6898450" lon="13.4649920">
        <ele>409.2</ele>
        <time>2019-08-15T08:28:04Z</time>
      </trkpt>
      <trkpt lat="48.6898670" lon="13.4650000">
        <ele>409.4</ele>
        <time>2019-08-15T08:28:05Z</time>
      </trkpt>
      <trkpt lat="48.6898910" lon="13.4650080">
        <ele>409.6</ele>
        <time>2019-08-15T08:28:06Z</time>
      </trkpt>
      <trkpt lat="48.6899140" lon="13.4650150">
        <ele>409.6</ele>
        <time>2019-08-15T08:28:07Z</time>
      </trkpt>
      <trkpt lat="48.6899370" lon="13.4650200">
        <ele>409.8</ele>
        <time>2019-08-15T08:28:08Z</time>
      </trkpt>
      <trkpt lat="48.6899590" lon="13.4650240">
        <ele>410.0</ele>
        <time>2019-08-15T08:28:09Z</time>
      </trkpt>
      <trkpt lat="48.6899820" lon="13.4650260">
        <ele>410.2</ele>
        <time>2019-08-15T08:28:10Z</time>
      </trkpt>
      <trkpt lat="48.6900040" lon="13.4650240">
        <ele>410.2</ele>
        <time>2019-08-15T08:28:11Z</time>
      </trkpt>
      <trkpt lat="48.6900250" lon="13.4650210">
        <ele>410.4</ele>
        <time>2019-08-15T08:28:12Z</time>
      </trkpt>
      <trkpt lat="48.6900490" lon="13.4650170">
        <ele>410.6</ele>
        <time>2019-08-15T08:28:13Z</time>
      </trkpt>
      <trkpt lat="48.6900700" lon="13.4650100">
        <ele>410.8</ele>
        <time>2019-08-15T08:28:14Z</time>
      </trkpt>
      <trkpt lat="48.6900900" lon="13.4650030">
        <ele>411.0</ele>
        <time>2019-08-15T08:28:15Z</time>
      </trkpt>
      <trkpt lat="48.6901120" lon="13.4649940">
        <ele>411.2</ele>
        <time>2019-08-15T08:28:16Z</time>
      </trkpt>
      <trkpt lat="48.6901340" lon="13.4649810">
        <ele>411.2</ele>
        <time>2019-08-15T08:28:17Z</time>
      </trkpt>
      <trkpt lat="48.6901550" lon="13.4649660">
        <ele>411.4</ele>
        <time>2019-08-15T08:28:18Z</time>
      </trkpt>
      <trkpt lat="48.6901760" lon="13.4649490">
        <ele>411.6</ele>
        <time>2019-08-15T08:28:19Z</time>
      </trkpt>
      <trkpt lat="48.6901970" lon="13.4649300">
        <ele>411.8</ele>
        <time>2019-08-15T08:28:20Z</time>
      </trkpt>
      <trkpt lat="48.6902170" lon="13.4649130">
        <ele>412.0</ele>
        <time>2019-08-15T08:28:21Z</time>
      </trkpt>
      <trkpt lat="48.6902380" lon="13.4648950">
        <ele>412.2</ele>
        <time>2019-08-15T08:28:22Z</time>
      </trkpt>
      <trkpt lat="48.6902580" lon="13.4648750">
        <ele>412.2</ele>
        <time>2019-08-15T08:28:23Z</time>
      </trkpt>
      <trkpt lat="48.6902780" lon="13.4648550">
        <ele>412.4</ele>
        <time>2019-08-15T08:28:24Z</time>
      </trkpt>
      <trkpt lat="48.6902980" lon="13.4648330">
        <ele>412.6</ele>
        <time>2019-08-15T08:28:25Z</time>
      </trkpt>
      <trkpt lat="48.6903180" lon="13.4648130">
        <ele>412.8</ele>
        <time>2019-08-15T08:28:26Z</time>
      </trkpt>
      <trkpt lat="48.6903380" lon="13.4647900">
        <ele>412.8</ele>
        <time>2019-08-15T08:28:27Z</time>
      </trkpt>
      <trkpt lat="48.6903580" lon="13.4647660">
        <ele>413.0</ele>
        <time>2019-08-15T08:28:28Z</time>
      </trkpt>
      <trkpt lat="48.6903780" lon="13.4647430">
        <ele>413.0</ele>
        <time>2019-08-15T08:28:29Z</time>
      </trkpt>
      <trkpt lat="48.6903980" lon="13.4647190">
        <ele>413.2</ele>
        <time>2019-08-15T08:28:30Z</time>
      </trkpt>
      <trkpt lat="48.6904160" lon="13.4646940">
        <ele>413.2</ele>
        <time>2019-08-15T08:28:31Z</time>
      </trkpt>
      <trkpt lat="48.6904350" lon="13.4646700">
        <ele>413.4</ele>
        <time>2019-08-15T08:28:32Z</time>
      </trkpt>
      <trkpt lat="48.6904540" lon="13.4646450">
        <ele>413.6</ele>
        <time>2019-08-15T08:28:33Z</time>
      </trkpt>
      <trkpt lat="48.6904730" lon="13.4646190">
        <ele>413.6</ele>
        <time>2019-08-15T08:28:34Z</time>
      </trkpt>
      <trkpt lat="48.6904930" lon="13.4645950">
        <ele>413.8</ele>
        <time>2019-08-15T08:28:35Z</time>
      </trkpt>
      <trkpt lat="48.6905120" lon="13.4645720">
        <ele>413.8</ele>
        <time>2019-08-15T08:28:36Z</time>
      </trkpt>
      <trkpt lat="48.6905340" lon="13.4645450">
        <ele>414.0</ele>
        <time>2019-08-15T08:28:37Z</time>
      </trkpt>
      <trkpt lat="48.6905570" lon="13.4645160">
        <ele>414.0</ele>
        <time>2019-08-15T08:28:38Z</time>
      </trkpt>
      <trkpt lat="48.6905810" lon="13.4644870">
        <ele>414.2</ele>
        <time>2019-08-15T08:28:39Z</time>
      </trkpt>
      <trkpt lat="48.6906060" lon="13.4644570">
        <ele>414.4</ele>
        <time>2019-08-15T08:28:40Z</time>
      </trkpt>
      <trkpt lat="48.6906320" lon="13.4644310">
        <ele>414.4</ele>
        <time>2019-08-15T08:28:41Z</time>
      </trkpt>
      <trkpt lat="48.6906600" lon="13.4644020">
        <ele>414.6</ele>
        <time>2019-08-15T08:28:42Z</time>
      </trkpt>
      <trkpt lat="48.6906900" lon="13.4643770">
        <ele>414.6</ele>
        <time>2019-08-15T08:28:43Z</time>
      </trkpt>
      <trkpt lat="48.6907210" lon="13.4643570">
        <ele>414.6</ele>
        <time>2019-08-15T08:28:44Z</time>
      </trkpt>
      <trkpt lat="48.6907540" lon="13.4643390">
        <ele>414.8</ele>
        <time>2019-08-15T08:28:45Z</time>
      </trkpt>
      <trkpt lat="48.6907880" lon="13.4643240">
        <ele>414.8</ele>
        <time>2019-08-15T08:28:46Z</time>
      </trkpt>
      <trkpt lat="48.6908220" lon="13.4643140">
        <ele>414.8</ele>
        <time>2019-08-15T08:28:47Z</time>
      </trkpt>
      <trkpt lat="48.6908590" lon="13.4643100">
        <ele>414.8</ele>
        <time>2019-08-15T08:28:48Z</time>
      </trkpt>
      <trkpt lat="48.6908960" lon="13.4643130">
        <ele>415.0</ele>
        <time>2019-08-15T08:28:49Z</time>
      </trkpt>
      <trkpt lat="48.6909340" lon="13.4643210">
        <ele>415.0</ele>
        <time>2019-08-15T08:28:50Z</time>
      </trkpt>
      <trkpt lat="48.6909720" lon="13.4643360">
        <ele>415.0</ele>
        <time>2019-08-15T08:28:51Z</time>
      </trkpt>
      <trkpt lat="48.6910110" lon="13.4643580">
        <ele>415.2</ele>
        <time>2019-08-15T08:28:52Z</time>
      </trkpt>
      <trkpt lat="48.6910490" lon="13.4643830">
        <ele>415.2</ele>
        <time>2019-08-15T08:28:53Z</time>
      </trkpt>
      <trkpt lat="48.6910850" lon="13.4644120">
        <ele>415.2</ele>
        <time>2019-08-15T08:28:54Z</time>
      </trkpt>
      <trkpt lat="48.6911240" lon="13.4644440">
        <ele>415.2</ele>
        <time>2019-08-15T08:28:55Z</time>
      </trkpt>
      <trkpt lat="48.6911600" lon="13.4644760">
        <ele>415.4</ele>
        <time>2019-08-15T08:28:56Z</time>
      </trkpt>
      <trkpt lat="48.6911960" lon="13.4645090">
        <ele>415.4</ele>
        <time>2019-08-15T08:28:57Z</time>
      </trkpt>
      <trkpt lat="48.6912330" lon="13.4645450">
        <ele>415.6</ele>
        <time>2019-08-15T08:28:58Z</time>
      </trkpt>
      <trkpt lat="48.6912700" lon="13.4645820">
        <ele>415.6</ele>
        <time>2019-08-15T08:28:59Z</time>
      </trkpt>
      <trkpt lat="48.6913080" lon="13.4646220">
        <ele>415.8</ele>
        <time>2019-08-15T08:29:00Z</time>
      </trkpt>
      <trkpt lat="48.6913460" lon="13.4646590">
        <ele>415.8</ele>
        <time>2019-08-15T08:29:01Z</time>
      </trkpt>
      <trkpt lat="48.6913840" lon="13.4646960">
        <ele>415.8</ele>
        <time>2019-08-15T08:29:02Z</time>
      </trkpt>
      <trkpt lat="48.6914210" lon="13.4647320">
        <ele>416.0</ele>
        <time>2019-08-15T08:29:03Z</time>
      </trkpt>
      <trkpt lat="48.6914590" lon="13.4647690">
        <ele>416.0</ele>
        <time>2019-08-15T08:29:04Z</time>
      </trkpt>
      <trkpt lat="48.6914960" lon="13.4648060">
        <ele>416.0</ele>
        <time>2019-08-15T08:29:05Z</time>
      </trkpt>
      <trkpt lat="48.6915320" lon="13.4648430">
        <ele>416.2</ele>
        <time>2019-08-15T08:29:06Z</time>
      </trkpt>
      <trkpt lat="48.6915690" lon="13.4648800">
        <ele>416.2</ele>
        <time>2019-08-15T08:29:07Z</time>
      </trkpt>
      <trkpt lat="48.6916060" lon="13.4649150">
        <ele>416.4</ele>
        <time>2019-08-15T08:29:08Z</time>
      </trkpt>
      <trkpt lat="48.6916440" lon="13.4649500">
        <ele>416.4</ele>
        <time>2019-08-15T08:29:09Z</time>
      </trkpt>
      <trkpt lat="48.6916830" lon="13.4649860">
        <ele>416.4</ele>
        <time>2019-08-15T08:29:10Z</time>
      </trkpt>
      <trkpt lat="48.6917230" lon="13.4650230">
        <ele>416.4</ele>
        <time>2019-08-15T08:29:11Z</time>
      </trkpt>
      <trkpt lat="48.6917610" lon="13.4650610">
        <ele>416.6</ele>
        <time>2019-08-15T08:29:12Z</time>
      </trkpt>
      <trkpt lat="48.6917990" lon="13.4651010">
        <ele>416.6</ele>
        <time>2019-08-15T08:29:13Z</time>
      </trkpt>
      <trkpt lat="48.6918380" lon="13.4651380">
        <ele>416.6</ele>
        <time>2019-08-15T08:29:14Z</time>
      </trkpt>
      <trkpt lat="48.6918790" lon="13.4651730">
        <ele>416.8</ele>
        <time>2019-08-15T08:29:15Z</time>
      </trkpt>
      <trkpt lat="48.6919190" lon="13.4652130">
        <ele>416.8</ele>
        <time>2019-08-15T08:29:16Z</time>
      </trkpt>
      <trkpt lat="48.6919590" lon="13.4652560">
        <ele>416.8</ele>
        <time>2019-08-15T08:29:17Z</time>
      </trkpt>
      <trkpt lat="48.6920000" lon="13.4652960">
        <ele>416.8</ele>
        <time>2019-08-15T08:29:18Z</time>
      </trkpt>
      <trkpt lat="48.6920440" lon="13.4653370">
        <ele>416.8</ele>
        <time>2019-08-15T08:29:19Z</time>
      </trkpt>
      <trkpt lat="48.6920860" lon="13.4653780">
        <ele>416.8</ele>
        <time>2019-08-15T08:29:20Z</time>
      </trkpt>
      <trkpt lat="48.6921310" lon="13.4654240">
        <ele>416.8</ele>
        <time>2019-08-15T08:29:21Z</time>
      </trkpt>
      <trkpt lat="48.6921760" lon="13.4654680">
        <ele>416.8</ele>
        <time>2019-08-15T08:29:22Z</time>
      </trkpt>
      <trkpt lat="48.6922210" lon="13.4655080">
        <ele>416.8</ele>
        <time>2019-08-15T08:29:23Z</time>
      </trkpt>
      <trkpt lat="48.6922700" lon="13.4655440">
        <ele>416.8</ele>
        <time>2019-08-15T08:29:24Z</time>
      </trkpt>
      <trkpt lat="48.6923210" lon="13.4655730">
        <ele>416.8</ele>
        <time>2019-08-15T08:29:25Z</time>
      </trkpt>
      <trkpt lat="48.6923730" lon="13.4655940">
        <ele>416.8</ele>
        <time>2019-08-15T08:29:26Z</time>
      </trkpt>
      <trkpt lat="48.6924250" lon="13.4656100">
        <ele>416.8</ele>
        <time>2019-08-15T08:29:27Z</time>
      </trkpt>
      <trkpt lat="48.6924790" lon="13.4656240">
        <ele>416.8</ele>
        <time>2019-08-15T08:29:28Z</time>
      </trkpt>
      <trkpt lat="48.6925360" lon="13.4656310">
        <ele>416.8</ele>
        <time>2019-08-15T08:29:29Z</time>
      </trkpt>
      <trkpt lat="48.6925910" lon="13.4656350">
        <ele>416.8</ele>
        <time>2019-08-15T08:29:30Z</time>
      </trkpt>
      <trkpt lat="48.6926420" lon="13.4656370">
        <ele>416.8</ele>
        <time>2019-08-15T08:29:31Z</time>
      </trkpt>
      <trkpt lat="48.6926940" lon="13.4656370">
        <ele>416.8</ele>
        <time>2019-08-15T08:29:32Z</time>
      </trkpt>
      <trkpt lat="48.6927470" lon="13.4656400">
        <ele>416.8</ele>
        <time>2019-08-15T08:29:33Z</time>
      </trkpt>
      <trkpt lat="48.6928020" lon="13.4656450">
        <ele>416.8</ele>
        <time>2019-08-15T08:29:34Z</time>
      </trkpt>
      <trkpt lat="48.6928580" lon="13.4656520">
        <ele>416.8</ele>
        <time>2019-08-15T08:29:35Z</time>
      </trkpt>
      <trkpt lat="48.6929150" lon="13.4656570">
        <ele>416.8</ele>
        <time>2019-08-15T08:29:36Z</time>
      </trkpt>
      <trkpt lat="48.6929710" lon="13.4656620">
        <ele>416.8</ele>
        <time>2019-08-15T08:29:37Z</time>
      </trkpt>
      <trkpt lat="48.6930290" lon="13.4656710">
        <ele>416.6</ele>
        <time>2019-08-15T08:29:38Z</time>
      </trkpt>
      <trkpt lat="48.6930900" lon="13.4656810">
        <ele>416.6</ele>
        <time>2019-08-15T08:29:39Z</time>
      </trkpt>
      <trkpt lat="48.6931540" lon="13.4656910">
        <ele>416.6</ele>
        <time>2019-08-15T08:29:40Z</time>
      </trkpt>
      <trkpt lat="48.6932190" lon="13.4657000">
        <ele>416.4</ele>
        <time>2019-08-15T08:29:41Z</time>
      </trkpt>
      <trkpt lat="48.6932810" lon="13.4657090">
        <ele>416.4</ele>
        <time>2019-08-15T08:29:42Z</time>
      </trkpt>
      <trkpt lat="48.6933450" lon="13.4657170">
        <ele>416.4</ele>
        <time>2019-08-15T08:29:43Z</time>
      </trkpt>
      <trkpt lat="48.6934080" lon="13.4657270">
        <ele>416.6</ele>
        <time>2019-08-15T08:29:44Z</time>
      </trkpt>
      <trkpt lat="48.6934670" lon="13.4657440">
        <ele>416.6</ele>
        <time>2019-08-15T08:29:45Z</time>
      </trkpt>
      <trkpt lat="48.6935240" lon="13.4657670">
        <ele>416.8</ele>
        <time>2019-08-15T08:29:46Z</time>
      </trkpt>
      <trkpt lat="48.6935780" lon="13.4657960">
        <ele>417.0</ele>
        <time>2019-08-15T08:29:47Z</time>
      </trkpt>
      <trkpt lat="48.6936290" lon="13.4658310">
        <ele>417.2</ele>
        <time>2019-08-15T08:29:48Z</time>
      </trkpt>
      <trkpt lat="48.6936770" lon="13.4658690">
        <ele>417.2</ele>
        <time>2019-08-15T08:29:49Z</time>
      </trkpt>
      <trkpt lat="48.6937200" lon="13.4659100">
        <ele>417.4</ele>
        <time>2019-08-15T08:29:50Z</time>
      </trkpt>
      <trkpt lat="48.6937610" lon="13.4659530">
        <ele>417.4</ele>
        <time>2019-08-15T08:29:51Z</time>
      </trkpt>
      <trkpt lat="48.6938020" lon="13.4659980">
        <ele>417.6</ele>
        <time>2019-08-15T08:29:52Z</time>
      </trkpt>
      <trkpt lat="48.6938430" lon="13.4660420">
        <ele>417.8</ele>
        <time>2019-08-15T08:29:53Z</time>
      </trkpt>
      <trkpt lat="48.6938830" lon="13.4660860">
        <ele>417.8</ele>
        <time>2019-08-15T08:29:54Z</time>
      </trkpt>
      <trkpt lat="48.6939210" lon="13.4661330">
        <ele>418.0</ele>
        <time>2019-08-15T08:29:55Z</time>
      </trkpt>
      <trkpt lat="48.6939590" lon="13.4661770">
        <ele>418.0</ele>
        <time>2019-08-15T08:29:56Z</time>
      </trkpt>
      <trkpt lat="48.6939970" lon="13.4662210">
        <ele>418.0</ele>
        <time>2019-08-15T08:29:57Z</time>
      </trkpt>
      <trkpt lat="48.6940340" lon="13.4662660">
        <ele>418.2</ele>
        <time>2019-08-15T08:29:58Z</time>
      </trkpt>
      <trkpt lat="48.6940700" lon="13.4663090">
        <ele>418.2</ele>
        <time>2019-08-15T08:29:59Z</time>
      </trkpt>
      <trkpt lat="48.6941050" lon="13.4663520">
        <ele>418.4</ele>
        <time>2019-08-15T08:30:00Z</time>
      </trkpt>
      <trkpt lat="48.6941400" lon="13.4663930">
        <ele>418.4</ele>
        <time>2019-08-15T08:30:01Z</time>
      </trkpt>
      <trkpt lat="48.6941740" lon="13.4664350">
        <ele>418.6</ele>
        <time>2019-08-15T08:30:02Z</time>
      </trkpt>
      <trkpt lat="48.6942080" lon="13.4664760">
        <ele>418.8</ele>
        <time>2019-08-15T08:30:03Z</time>
      </trkpt>
      <trkpt lat="48.6942410" lon="13.4665140">
        <ele>419.0</ele>
        <time>2019-08-15T08:30:04Z</time>
      </trkpt>
      <trkpt lat="48.6942720" lon="13.4665520">
        <ele>419.0</ele>
        <time>2019-08-15T08:30:05Z</time>
      </trkpt>
      <trkpt lat="48.6943030" lon="13.4665880">
        <ele>419.2</ele>
        <time>2019-08-15T08:30:06Z</time>
      </trkpt>
      <trkpt lat="48.6943340" lon="13.4666250">
        <ele>419.2</ele>
        <time>2019-08-15T08:30:07Z</time>
      </trkpt>
      <trkpt lat="48.6943640" lon="13.4666630">
        <ele>419.4</ele>
        <time>2019-08-15T08:30:08Z</time>
      </trkpt>
      <trkpt lat="48.6943960" lon="13.4667000">
        <ele>419.6</ele>
        <time>2019-08-15T08:30:09Z</time>
      </trkpt>
      <trkpt lat="48.6944260" lon="13.4667350">
        <ele>419.8</ele>
        <time>2019-08-15T08:30:10Z</time>
      </trkpt>
      <trkpt lat="48.6944570" lon="13.4667700">
        <ele>419.8</ele>
        <time>2019-08-15T08:30:11Z</time>
      </trkpt>
      <trkpt lat="48.6944870" lon="13.4668060">
        <ele>420.0</ele>
        <time>2019-08-15T08:30:12Z</time>
      </trkpt>
      <trkpt lat="48.6945160" lon="13.4668420">
        <ele>420.2</ele>
        <time>2019-08-15T08:30:13Z</time>
      </trkpt>
      <trkpt lat="48.6945450" lon="13.4668760">
        <ele>420.4</ele>
        <time>2019-08-15T08:30:14Z</time>
      </trkpt>
      <trkpt lat="48.6945740" lon="13.4669070">
        <ele>420.6</ele>
        <time>2019-08-15T08:30:15Z</time>
      </trkpt>
      <trkpt lat="48.6946020" lon="13.4669410">
        <ele>420.8</ele>
        <time>2019-08-15T08:30:16Z</time>
      </trkpt>
      <trkpt lat="48.6946280" lon="13.4669720">
        <ele>421.0</ele>
        <time>2019-08-15T08:30:17Z</time>
      </trkpt>
      <trkpt lat="48.6946540" lon="13.4670030">
        <ele>421.2</ele>
        <time>2019-08-15T08:30:18Z</time>
      </trkpt>
      <trkpt lat="48.6946810" lon="13.4670340">
        <ele>421.4</ele>
        <time>2019-08-15T08:30:19Z</time>
      </trkpt>
      <trkpt lat="48.6947060" lon="13.4670640">
        <ele>421.4</ele>
        <time>2019-08-15T08:30:20Z</time>
      </trkpt>
      <trkpt lat="48.6947330" lon="13.4670930">
        <ele>421.6</ele>
        <time>2019-08-15T08:30:21Z</time>
      </trkpt>
      <trkpt lat="48.6947570" lon="13.4671210">
        <ele>421.8</ele>
        <time>2019-08-15T08:30:22Z</time>
      </trkpt>
      <trkpt lat="48.6947810" lon="13.4671500">
        <ele>422.0</ele>
        <time>2019-08-15T08:30:23Z</time>
      </trkpt>
      <trkpt lat="48.6948060" lon="13.4671770">
        <ele>422.2</ele>
        <time>2019-08-15T08:30:24Z</time>
      </trkpt>
      <trkpt lat="48.6948310" lon="13.4672070">
        <ele>422.4</ele>
        <time>2019-08-15T08:30:25Z</time>
      </trkpt>
      <trkpt lat="48.6948540" lon="13.4672370">
        <ele>422.6</ele>
        <time>2019-08-15T08:30:26Z</time>
      </trkpt>
      <trkpt lat="48.6948800" lon="13.4672650">
        <ele>422.8</ele>
        <time>2019-08-15T08:30:27Z</time>
      </trkpt>
      <trkpt lat="48.6949060" lon="13.4672940">
        <ele>423.0</ele>
        <time>2019-08-15T08:30:28Z</time>
      </trkpt>
      <trkpt lat="48.6949310" lon="13.4673260">
        <ele>423.0</ele>
        <time>2019-08-15T08:30:29Z</time>
      </trkpt>
      <trkpt lat="48.6949560" lon="13.4673590">
        <ele>423.2</ele>
        <time>2019-08-15T08:30:30Z</time>
      </trkpt>
      <trkpt lat="48.6949790" lon="13.4673920">
        <ele>423.4</ele>
        <time>2019-08-15T08:30:31Z</time>
      </trkpt>
      <trkpt lat="48.6950020" lon="13.4674250">
        <ele>423.6</ele>
        <time>2019-08-15T08:30:32Z</time>
      </trkpt>
      <trkpt lat="48.6950230" lon="13.4674580">
        <ele>423.8</ele>
        <time>2019-08-15T08:30:33Z</time>
      </trkpt>
      <trkpt lat="48.6950420" lon="13.4674910">
        <ele>423.8</ele>
        <time>2019-08-15T08:30:34Z</time>
      </trkpt>
      <trkpt lat="48.6950630" lon="13.4675250">
        <ele>424.0</ele>
        <time>2019-08-15T08:30:35Z</time>
      </trkpt>
      <trkpt lat="48.6950810" lon="13.4675610">
        <ele>424.2</ele>
        <time>2019-08-15T08:30:36Z</time>
      </trkpt>
      <trkpt lat="48.6950970" lon="13.4675990">
        <ele>424.4</ele>
        <time>2019-08-15T08:30:37Z</time>
      </trkpt>
      <trkpt lat="48.6951140" lon="13.4676370">
        <ele>424.6</ele>
        <time>2019-08-15T08:30:38Z</time>
      </trkpt>
      <trkpt lat="48.6951330" lon="13.4676760">
        <ele>424.8</ele>
        <time>2019-08-15T08:30:39Z</time>
      </trkpt>
      <trkpt lat="48.6951510" lon="13.4677170">
        <ele>425.0</ele>
        <time>2019-08-15T08:30:40Z</time>
      </trkpt>
      <trkpt lat="48.6951690" lon="13.4677580">
        <ele>425.2</ele>
        <time>2019-08-15T08:30:41Z</time>
      </trkpt>
      <trkpt lat="48.6951880" lon="13.4677960">
        <ele>425.4</ele>
        <time>2019-08-15T08:30:42Z</time>
      </trkpt>
      <trkpt lat="48.6952050" lon="13.4678350">
        <ele>425.6</ele>
        <time>2019-08-15T08:30:43Z</time>
      </trkpt>
      <trkpt lat="48.6952200" lon="13.4678740">
        <ele>425.8</ele>
        <time>2019-08-15T08:30:44Z</time>
      </trkpt>
      <trkpt lat="48.6952330" lon="13.4679160">
        <ele>426.0</ele>
        <time>2019-08-15T08:30:45Z</time>
      </trkpt>
      <trkpt lat="48.6952490" lon="13.4679590">
        <ele>426.0</ele>
        <time>2019-08-15T08:30:46Z</time>
      </trkpt>
      <trkpt lat="48.6952640" lon="13.4680000">
        <ele>426.2</ele>
        <time>2019-08-15T08:30:47Z</time>
      </trkpt>
      <trkpt lat="48.6952790" lon="13.4680400">
        <ele>426.4</ele>
        <time>2019-08-15T08:30:48Z</time>
      </trkpt>
      <trkpt lat="48.6952960" lon="13.4680800">
        <ele>426.6</ele>
        <time>2019-08-15T08:30:49Z</time>
      </trkpt>
      <trkpt lat="48.6953140" lon="13.4681200">
        <ele>426.6</ele>
        <time>2019-08-15T08:30:50Z</time>
      </trkpt>
      <trkpt lat="48.6953300" lon="13.4681610">
        <ele>426.8</ele>
        <time>2019-08-15T08:30:51Z</time>
      </trkpt>
      <trkpt lat="48.6953440" lon="13.4682020">
        <ele>427.0</ele>
        <time>2019-08-15T08:30:52Z</time>
      </trkpt>
      <trkpt lat="48.6953590" lon="13.4682440">
        <ele>427.2</ele>
        <time>2019-08-15T08:30:53Z</time>
      </trkpt>
      <trkpt lat="48.6953730" lon="13.4682850">
        <ele>427.2</ele>
        <time>2019-08-15T08:30:54Z</time>
      </trkpt>
      <trkpt lat="48.6953880" lon="13.4683260">
        <ele>427.4</ele>
        <time>2019-08-15T08:30:55Z</time>
      </trkpt>
      <trkpt lat="48.6954060" lon="13.4683650">
        <ele>427.4</ele>
        <time>2019-08-15T08:30:56Z</time>
      </trkpt>
      <trkpt lat="48.6954240" lon="13.4684060">
        <ele>427.6</ele>
        <time>2019-08-15T08:30:57Z</time>
      </trkpt>
      <trkpt lat="48.6954390" lon="13.4684490">
        <ele>427.6</ele>
        <time>2019-08-15T08:30:58Z</time>
      </trkpt>
      <trkpt lat="48.6954540" lon="13.4684900">
        <ele>427.8</ele>
        <time>2019-08-15T08:30:59Z</time>
      </trkpt>
      <trkpt lat="48.6954690" lon="13.4685310">
        <ele>428.0</ele>
        <time>2019-08-15T08:31:00Z</time>
      </trkpt>
      <trkpt lat="48.6954840" lon="13.4685720">
        <ele>428.0</ele>
        <time>2019-08-15T08:31:01Z</time>
      </trkpt>
      <trkpt lat="48.6955000" lon="13.4686130">
        <ele>428.2</ele>
        <time>2019-08-15T08:31:02Z</time>
      </trkpt>
      <trkpt lat="48.6955150" lon="13.4686580">
        <ele>428.4</ele>
        <time>2019-08-15T08:31:03Z</time>
      </trkpt>
      <trkpt lat="48.6955300" lon="13.4687030">
        <ele>428.4</ele>
        <time>2019-08-15T08:31:04Z</time>
      </trkpt>
      <trkpt lat="48.6955460" lon="13.4687470">
        <ele>428.4</ele>
        <time>2019-08-15T08:31:05Z</time>
      </trkpt>
      <trkpt lat="48.6955630" lon="13.4687910">
        <ele>428.6</ele>
        <time>2019-08-15T08:31:06Z</time>
      </trkpt>
      <trkpt lat="48.6955810" lon="13.4688340">
        <ele>428.6</ele>
        <time>2019-08-15T08:31:07Z</time>
      </trkpt>
      <trkpt lat="48.6955970" lon="13.4688780">
        <ele>428.8</ele>
        <time>2019-08-15T08:31:08Z</time>
      </trkpt>
      <trkpt lat="48.6956140" lon="13.4689220">
        <ele>428.8</ele>
        <time>2019-08-15T08:31:09Z</time>
      </trkpt>
      <trkpt lat="48.6956330" lon="13.4689640">
        <ele>429.0</ele>
        <time>2019-08-15T08:31:10Z</time>
      </trkpt>
      <trkpt lat="48.6956510" lon="13.4690060">
        <ele>429.0</ele>
        <time>2019-08-15T08:31:11Z</time>
      </trkpt>
      <trkpt lat="48.6956680" lon="13.4690510">
        <ele>429.2</ele>
        <time>2019-08-15T08:31:12Z</time>
      </trkpt>
      <trkpt lat="48.6956850" lon="13.4690960">
        <ele>429.2</ele>
        <time>2019-08-15T08:31:13Z</time>
      </trkpt>
      <trkpt lat="48.6957020" lon="13.4691430">
        <ele>429.2</ele>
        <time>2019-08-15T08:31:14Z</time>
      </trkpt>
      <trkpt lat="48.6957160" lon="13.4691910">
        <ele>429.4</ele>
        <time>2019-08-15T08:31:15Z</time>
      </trkpt>
      <trkpt lat="48.6957340" lon="13.4692380">
        <ele>429.4</ele>
        <time>2019-08-15T08:31:16Z</time>
      </trkpt>
      <trkpt lat="48.6957540" lon="13.4692820">
        <ele>429.6</ele>
        <time>2019-08-15T08:31:17Z</time>
      </trkpt>
      <trkpt lat="48.6957750" lon="13.4693230">
        <ele>429.8</ele>
        <time>2019-08-15T08:31:18Z</time>
      </trkpt>
      <trkpt lat="48.6957980" lon="13.4693620">
        <ele>429.8</ele>
        <time>2019-08-15T08:31:19Z</time>
      </trkpt>
      <trkpt lat="48.6958220" lon="13.4693990">
        <ele>430.0</ele>
        <time>2019-08-15T08:31:20Z</time>
      </trkpt>
      <trkpt lat="48.6958460" lon="13.4694350">
        <ele>430.2</ele>
        <time>2019-08-15T08:31:21Z</time>
      </trkpt>
      <trkpt lat="48.6958710" lon="13.4694690">
        <ele>430.4</ele>
        <time>2019-08-15T08:31:22Z</time>
      </trkpt>
      <trkpt lat="48.6958980" lon="13.4695020">
        <ele>430.4</ele>
        <time>2019-08-15T08:31:23Z</time>
      </trkpt>
      <trkpt lat="48.6959240" lon="13.4695310">
        <ele>430.6</ele>
        <time>2019-08-15T08:31:24Z</time>
      </trkpt>
      <trkpt lat="48.6959520" lon="13.4695560">
        <ele>430.8</ele>
        <time>2019-08-15T08:31:25Z</time>
      </trkpt>
      <trkpt lat="48.6959810" lon="13.4695780">
        <ele>431.0</ele>
        <time>2019-08-15T08:31:26Z</time>
      </trkpt>
      <trkpt lat="48.6960110" lon="13.4695970">
        <ele>431.2</ele>
        <time>2019-08-15T08:31:27Z</time>
      </trkpt>
      <trkpt lat="48.6960430" lon="13.4696130">
        <ele>431.4</ele>
        <time>2019-08-15T08:31:28Z</time>
      </trkpt>
      <trkpt lat="48.6960740" lon="13.4696260">
        <ele>431.6</ele>
        <time>2019-08-15T08:31:29Z</time>
      </trkpt>
      <trkpt lat="48.6961060" lon="13.4696370">
        <ele>431.6</ele>
        <time>2019-08-15T08:31:30Z</time>
      </trkpt>
      <trkpt lat="48.6961400" lon="13.4696470">
        <ele>431.8</ele>
        <time>2019-08-15T08:31:31Z</time>
      </trkpt>
      <trkpt lat="48.6961720" lon="13.4696550">
        <ele>432.0</ele>
        <time>2019-08-15T08:31:32Z</time>
      </trkpt>
      <trkpt lat="48.6962050" lon="13.4696590">
        <ele>432.0</ele>
        <time>2019-08-15T08:31:33Z</time>
      </trkpt>
      <trkpt lat="48.6962380" lon="13.4696620">
        <ele>432.2</ele>
        <time>2019-08-15T08:31:34Z</time>
      </trkpt>
      <trkpt lat="48.6962700" lon="13.4696650">
        <ele>432.4</ele>
        <time>2019-08-15T08:31:35Z</time>
      </trkpt>
      <trkpt lat="48.6963030" lon="13.4696650">
        <ele>432.4</ele>
        <time>2019-08-15T08:31:36Z</time>
      </trkpt>
      <trkpt lat="48.6963360" lon="13.4696630">
        <ele>432.6</ele>
        <time>2019-08-15T08:31:37Z</time>
      </trkpt>
      <trkpt lat="48.6963700" lon="13.4696630">
        <ele>432.8</ele>
        <time>2019-08-15T08:31:38Z</time>
      </trkpt>
      <trkpt lat="48.6964030" lon="13.4696620">
        <ele>432.8</ele>
        <time>2019-08-15T08:31:39Z</time>
      </trkpt>
      <trkpt lat="48.6964360" lon="13.4696570">
        <ele>433.0</ele>
        <time>2019-08-15T08:31:40Z</time>
      </trkpt>
      <trkpt lat="48.6964690" lon="13.4696510">
        <ele>433.2</ele>
        <time>2019-08-15T08:31:41Z</time>
      </trkpt>
      <trkpt lat="48.6965020" lon="13.4696450">
        <ele>433.2</ele>
        <time>2019-08-15T08:31:42Z</time>
      </trkpt>
      <trkpt lat="48.6965350" lon="13.4696400">
        <ele>433.4</ele>
        <time>2019-08-15T08:31:43Z</time>
      </trkpt>
      <trkpt lat="48.6965670" lon="13.4696350">
        <ele>433.6</ele>
        <time>2019-08-15T08:31:44Z</time>
      </trkpt>
      <trkpt lat="48.6966000" lon="13.4696280">
        <ele>433.8</ele>
        <time>2019-08-15T08:31:45Z</time>
      </trkpt>
      <trkpt lat="48.6966330" lon="13.4696220">
        <ele>433.8</ele>
        <time>2019-08-15T08:31:46Z</time>
      </trkpt>
      <trkpt lat="48.6966650" lon="13.4696170">
        <ele>434.0</ele>
        <time>2019-08-15T08:31:47Z</time>
      </trkpt>
      <trkpt lat="48.6966980" lon="13.4696120">
        <ele>434.2</ele>
        <time>2019-08-15T08:31:48Z</time>
      </trkpt>
      <trkpt lat="48.6967290" lon="13.4696070">
        <ele>434.2</ele>
        <time>2019-08-15T08:31:49Z</time>
      </trkpt>
      <trkpt lat="48.6967600" lon="13.4696010">
        <ele>434.4</ele>
        <time>2019-08-15T08:31:50Z</time>
      </trkpt>
      <trkpt lat="48.6967970" lon="13.4695950">
        <ele>434.6</ele>
        <time>2019-08-15T08:31:51Z</time>
      </trkpt>
      <trkpt lat="48.6968300" lon="13.4695890">
        <ele>434.8</ele>
        <time>2019-08-15T08:31:52Z</time>
      </trkpt>
      <trkpt lat="48.6968630" lon="13.4695830">
        <ele>434.8</ele>
        <time>2019-08-15T08:31:53Z</time>
      </trkpt>
      <trkpt lat="48.6968960" lon="13.4695770">
        <ele>435.0</ele>
        <time>2019-08-15T08:31:54Z</time>
      </trkpt>
      <trkpt lat="48.6969290" lon="13.4695730">
        <ele>435.2</ele>
        <time>2019-08-15T08:31:55Z</time>
      </trkpt>
      <trkpt lat="48.6969630" lon="13.4695690">
        <ele>435.4</ele>
        <time>2019-08-15T08:31:56Z</time>
      </trkpt>
      <trkpt lat="48.6969960" lon="13.4695660">
        <ele>435.6</ele>
        <time>2019-08-15T08:31:57Z</time>
      </trkpt>
      <trkpt lat="48.6970300" lon="13.4695620">
        <ele>435.8</ele>
        <time>2019-08-15T08:31:58Z</time>
      </trkpt>
      <trkpt lat="48.6970630" lon="13.4695560">
        <ele>435.8</ele>
        <time>2019-08-15T08:31:59Z</time>
      </trkpt>
      <trkpt lat="48.6970960" lon="13.4695480">
        <ele>436.0</ele>
        <time>2019-08-15T08:32:00Z</time>
      </trkpt>
      <trkpt lat="48.6971300" lon="13.4695420">
        <ele>436.2</ele>
        <time>2019-08-15T08:32:01Z</time>
      </trkpt>
      <trkpt lat="48.6971650" lon="13.4695350">
        <ele>436.4</ele>
        <time>2019-08-15T08:32:02Z</time>
      </trkpt>
      <trkpt lat="48.6972000" lon="13.4695290">
        <ele>436.4</ele>
        <time>2019-08-15T08:32:03Z</time>
      </trkpt>
      <trkpt lat="48.6972360" lon="13.4695230">
        <ele>436.6</ele>
        <time>2019-08-15T08:32:04Z</time>
      </trkpt>
      <trkpt lat="48.6972720" lon="13.4695170">
        <ele>436.8</ele>
        <time>2019-08-15T08:32:05Z</time>
      </trkpt>
      <trkpt lat="48.6973080" lon="13.4695130">
        <ele>437.0</ele>
        <time>2019-08-15T08:32:06Z</time>
      </trkpt>
      <trkpt lat="48.6973430" lon="13.4695090">
        <ele>437.2</ele>
        <time>2019-08-15T08:32:07Z</time>
      </trkpt>
      <trkpt lat="48.6973790" lon="13.4695030">
        <ele>437.2</ele>
        <time>2019-08-15T08:32:08Z</time>
      </trkpt>
      <trkpt lat="48.6974130" lon="13.4694970">
        <ele>437.4</ele>
        <time>2019-08-15T08:32:09Z</time>
      </trkpt>
      <trkpt lat="48.6974480" lon="13.4694910">
        <ele>437.6</ele>
        <time>2019-08-15T08:32:10Z</time>
      </trkpt>
      <trkpt lat="48.6974830" lon="13.4694880">
        <ele>437.8</ele>
        <time>2019-08-15T08:32:11Z</time>
      </trkpt>
      <trkpt lat="48.6975180" lon="13.4694880">
        <ele>438.0</ele>
        <time>2019-08-15T08:32:12Z</time>
      </trkpt>
      <trkpt lat="48.6975530" lon="13.4694860">
        <ele>438.0</ele>
        <time>2019-08-15T08:32:13Z</time>
      </trkpt>
      <trkpt lat="48.6975870" lon="13.4694840">
        <ele>438.2</ele>
        <time>2019-08-15T08:32:14Z</time>
      </trkpt>
      <trkpt lat="48.6976220" lon="13.4694790">
        <ele>438.4</ele>
        <time>2019-08-15T08:32:15Z</time>
      </trkpt>
      <trkpt lat="48.6976550" lon="13.4694730">
        <ele>438.6</ele>
        <time>2019-08-15T08:32:16Z</time>
      </trkpt>
      <trkpt lat="48.6976880" lon="13.4694660">
        <ele>438.6</ele>
        <time>2019-08-15T08:32:17Z</time>
      </trkpt>
      <trkpt lat="48.6977230" lon="13.4694580">
        <ele>438.8</ele>
        <time>2019-08-15T08:32:18Z</time>
      </trkpt>
      <trkpt lat="48.6977570" lon="13.4694510">
        <ele>439.0</ele>
        <time>2019-08-15T08:32:19Z</time>
      </trkpt>
      <trkpt lat="48.6977920" lon="13.4694430">
        <ele>439.2</ele>
        <time>2019-08-15T08:32:20Z</time>
      </trkpt>
      <trkpt lat="48.6978270" lon="13.4694350">
        <ele>439.2</ele>
        <time>2019-08-15T08:32:21Z</time>
      </trkpt>
      <trkpt lat="48.6978640" lon="13.4694270">
        <ele>439.4</ele>
        <time>2019-08-15T08:32:22Z</time>
      </trkpt>
      <trkpt lat="48.6979000" lon="13.4694210">
        <ele>439.4</ele>
        <time>2019-08-15T08:32:23Z</time>
      </trkpt>
      <trkpt lat="48.6979350" lon="13.4694170">
        <ele>439.6</ele>
        <time>2019-08-15T08:32:24Z</time>
      </trkpt>
      <trkpt lat="48.6979720" lon="13.4694100">
        <ele>439.8</ele>
        <time>2019-08-15T08:32:25Z</time>
      </trkpt>
      <trkpt lat="48.6980070" lon="13.4694060">
        <ele>439.8</ele>
        <time>2019-08-15T08:32:26Z</time>
      </trkpt>
      <trkpt lat="48.6980440" lon="13.4694000">
        <ele>440.0</ele>
        <time>2019-08-15T08:32:27Z</time>
      </trkpt>
      <trkpt lat="48.6980810" lon="13.4693930">
        <ele>440.0</ele>
        <time>2019-08-15T08:32:28Z</time>
      </trkpt>
      <trkpt lat="48.6981170" lon="13.4693860">
        <ele>440.2</ele>
        <time>2019-08-15T08:32:29Z</time>
      </trkpt>
      <trkpt lat="48.6981520" lon="13.4693760">
        <ele>440.2</ele>
        <time>2019-08-15T08:32:30Z</time>
      </trkpt>
      <trkpt lat="48.6981900" lon="13.4693680">
        <ele>440.4</ele>
        <time>2019-08-15T08:32:31Z</time>
      </trkpt>
      <trkpt lat="48.6982270" lon="13.4693580">
        <ele>440.4</ele>
        <time>2019-08-15T08:32:32Z</time>
      </trkpt>
      <trkpt lat="48.6982640" lon="13.4693480">
        <ele>440.4</ele>
        <time>2019-08-15T08:32:33Z</time>
      </trkpt>
      <trkpt lat="48.6983010" lon="13.4693380">
        <ele>440.4</ele>
        <time>2019-08-15T08:32:34Z</time>
      </trkpt>
      <trkpt lat="48.6983410" lon="13.4693280">
        <ele>440.4</ele>
        <time>2019-08-15T08:32:35Z</time>
      </trkpt>
      <trkpt lat="48.6983780" lon="13.4693190">
        <ele>440.6</ele>
        <time>2019-08-15T08:32:36Z</time>
      </trkpt>
      <trkpt lat="48.6984150" lon="13.4693090">
        <ele>440.6</ele>
        <time>2019-08-15T08:32:37Z</time>
      </trkpt>
      <trkpt lat="48.6984520" lon="13.4692990">
        <ele>440.6</ele>
        <time>2019-08-15T08:32:38Z</time>
      </trkpt>
      <trkpt lat="48.6984870" lon="13.4692890">
        <ele>440.6</ele>
        <time>2019-08-15T08:32:39Z</time>
      </trkpt>
      <trkpt lat="48.6985230" lon="13.4692770">
        <ele>440.6</ele>
        <time>2019-08-15T08:32:40Z</time>
      </trkpt>
      <trkpt lat="48.6985580" lon="13.4692660">
        <ele>440.6</ele>
        <time>2019-08-15T08:32:41Z</time>
      </trkpt>
      <trkpt lat="48.6985960" lon="13.4692560">
        <ele>440.4</ele>
        <time>2019-08-15T08:32:42Z</time>
      </trkpt>
      <trkpt lat="48.6986340" lon="13.4692480">
        <ele>440.4</ele>
        <time>2019-08-15T08:32:43Z</time>
      </trkpt>
      <trkpt lat="48.6986720" lon="13.4692380">
        <ele>440.4</ele>
        <time>2019-08-15T08:32:44Z</time>
      </trkpt>
      <trkpt lat="48.6987110" lon="13.4692290">
        <ele>440.4</ele>
        <time>2019-08-15T08:32:45Z</time>
      </trkpt>
      <trkpt lat="48.6987520" lon="13.4692250">
        <ele>440.2</ele>
        <time>2019-08-15T08:32:46Z</time>
      </trkpt>
      <trkpt lat="48.6987940" lon="13.4692260">
        <ele>440.2</ele>
        <time>2019-08-15T08:32:47Z</time>
      </trkpt>
      <trkpt lat="48.6988370" lon="13.4692390">
        <ele>440.2</ele>
        <time>2019-08-15T08:32:48Z</time>
      </trkpt>
      <trkpt lat="48.6988780" lon="13.4692670">
        <ele>440.0</ele>
        <time>2019-08-15T08:32:49Z</time>
      </trkpt>
      <trkpt lat="48.6989220" lon="13.4693080">
        <ele>439.8</ele>
        <time>2019-08-15T08:32:50Z</time>
      </trkpt>
      <trkpt lat="48.6989650" lon="13.4693630">
        <ele>439.6</ele>
        <time>2019-08-15T08:32:51Z</time>
      </trkpt>
      <trkpt lat="48.6990090" lon="13.4694270">
        <ele>439.4</ele>
        <time>2019-08-15T08:32:52Z</time>
      </trkpt>
      <trkpt lat="48.6990500" lon="13.4694970">
        <ele>439.0</ele>
        <time>2019-08-15T08:32:53Z</time>
      </trkpt>
      <trkpt lat="48.6990890" lon="13.4695740">
        <ele>438.8</ele>
        <time>2019-08-15T08:32:54Z</time>
      </trkpt>
      <trkpt lat="48.6991270" lon="13.4696610">
        <ele>438.4</ele>
        <time>2019-08-15T08:32:55Z</time>
      </trkpt>
      <trkpt lat="48.6991610" lon="13.4697590">
        <ele>438.0</ele>
        <time>2019-08-15T08:32:56Z</time>
      </trkpt>
      <trkpt lat="48.6991970" lon="13.4698650">
        <ele>437.6</ele>
        <time>2019-08-15T08:32:57Z</time>
      </trkpt>
      <trkpt lat="48.6992360" lon="13.4699720">
        <ele>437.4</ele>
        <time>2019-08-15T08:32:58Z</time>
      </trkpt>
      <trkpt lat="48.6992720" lon="13.4700820">
        <ele>437.0</ele>
        <time>2019-08-15T08:32:59Z</time>
      </trkpt>
      <trkpt lat="48.6993090" lon="13.4701930">
        <ele>436.6</ele>
        <time>2019-08-15T08:33:00Z</time>
      </trkpt>
      <trkpt lat="48.6993470" lon="13.4703080">
        <ele>436.4</ele>
        <time>2019-08-15T08:33:01Z</time>
      </trkpt>
      <trkpt lat="48.6993850" lon="13.4704200">
        <ele>436.2</ele>
        <time>2019-08-15T08:33:02Z</time>
      </trkpt>
      <trkpt lat="48.6994280" lon="13.4705460">
        <ele>435.8</ele>
        <time>2019-08-15T08:33:03Z</time>
      </trkpt>
      <trkpt lat="48.6994760" lon="13.4706760">
        <ele>435.4</ele>
        <time>2019-08-15T08:33:04Z</time>
      </trkpt>
      <trkpt lat="48.6995290" lon="13.4707970">
        <ele>435.2</ele>
        <time>2019-08-15T08:33:05Z</time>
      </trkpt>
      <trkpt lat="48.6995870" lon="13.4709070">
        <ele>434.8</ele>
        <time>2019-08-15T08:33:06Z</time>
      </trkpt>
      <trkpt lat="48.6996570" lon="13.4710090">
        <ele>434.6</ele>
        <time>2019-08-15T08:33:07Z</time>
      </trkpt>
      <trkpt lat="48.6997380" lon="13.4710920">
        <ele>434.2</ele>
        <time>2019-08-15T08:33:08Z</time>
      </trkpt>
      <trkpt lat="48.6998260" lon="13.4711670">
        <ele>433.6</ele>
        <time>2019-08-15T08:33:09Z</time>
      </trkpt>
      <trkpt lat="48.6999170" lon="13.4712330">
        <ele>433.0</ele>
        <time>2019-08-15T08:33:10Z</time>
      </trkpt>
      <trkpt lat="48.7000100" lon="13.4712920">
        <ele>432.4</ele>
        <time>2019-08-15T08:33:11Z</time>
      </trkpt>
      <trkpt lat="48.7001030" lon="13.4713510">
        <ele>431.6</ele>
        <time>2019-08-15T08:33:12Z</time>
      </trkpt>
      <trkpt lat="48.7001980" lon="13.4714160">
        <ele>431.2</ele>
        <time>2019-08-15T08:33:13Z</time>
      </trkpt>
      <trkpt lat="48.7002920" lon="13.4714870">
        <ele>430.6</ele>
        <time>2019-08-15T08:33:14Z</time>
      </trkpt>
      <trkpt lat="48.7003830" lon="13.4715570">
        <ele>430.4</ele>
        <time>2019-08-15T08:33:15Z</time>
      </trkpt>
      <trkpt lat="48.7004710" lon="13.4716220">
        <ele>430.2</ele>
        <time>2019-08-15T08:33:16Z</time>
      </trkpt>
      <trkpt lat="48.7005610" lon="13.4716860">
        <ele>430.0</ele>
        <time>2019-08-15T08:33:17Z</time>
      </trkpt>
      <trkpt lat="48.7006500" lon="13.4717370">
        <ele>429.8</ele>
        <time>2019-08-15T08:33:18Z</time>
      </trkpt>
      <trkpt lat="48.7007390" lon="13.4717820">
        <ele>429.8</ele>
        <time>2019-08-15T08:33:19Z</time>
      </trkpt>
      <trkpt lat="48.7008210" lon="13.4718100">
        <ele>429.8</ele>
        <time>2019-08-15T08:33:20Z</time>
      </trkpt>
      <trkpt lat="48.7008970" lon="13.4718130">
        <ele>429.6</ele>
        <time>2019-08-15T08:33:21Z</time>
      </trkpt>
      <trkpt lat="48.7009670" lon="13.4718020">
        <ele>429.6</ele>
        <time>2019-08-15T08:33:22Z</time>
      </trkpt>
      <trkpt lat="48.7010350" lon="13.4717880">
        <ele>429.6</ele>
        <time>2019-08-15T08:33:23Z</time>
      </trkpt>
      <trkpt lat="48.7010990" lon="13.4717720">
        <ele>429.8</ele>
        <time>2019-08-15T08:33:24Z</time>
      </trkpt>
      <trkpt lat="48.7011570" lon="13.4717520">
        <ele>430.0</ele>
        <time>2019-08-15T08:33:25Z</time>
      </trkpt>
      <trkpt lat="48.7012140" lon="13.4717280">
        <ele>430.2</ele>
        <time>2019-08-15T08:33:26Z</time>
      </trkpt>
      <trkpt lat="48.7012670" lon="13.4717040">
        <ele>430.4</ele>
        <time>2019-08-15T08:33:27Z</time>
      </trkpt>
      <trkpt lat="48.7013150" lon="13.4716810">
        <ele>430.6</ele>
        <time>2019-08-15T08:33:28Z</time>
      </trkpt>
      <trkpt lat="48.7013610" lon="13.4716590">
        <ele>430.8</ele>
        <time>2019-08-15T08:33:29Z</time>
      </trkpt>
      <trkpt lat="48.7014050" lon="13.4716390">
        <ele>431.0</ele>
        <time>2019-08-15T08:33:30Z</time>
      </trkpt>
      <trkpt lat="48.7014440" lon="13.4716210">
        <ele>431.4</ele>
        <time>2019-08-15T08:33:31Z</time>
      </trkpt>
      <trkpt lat="48.7014840" lon="13.4716030">
        <ele>431.6</ele>
        <time>2019-08-15T08:33:32Z</time>
      </trkpt>
      <trkpt lat="48.7015210" lon="13.4715840">
        <ele>431.8</ele>
        <time>2019-08-15T08:33:33Z</time>
      </trkpt>
      <trkpt lat="48.7015540" lon="13.4715690">
        <ele>432.0</ele>
        <time>2019-08-15T08:33:34Z</time>
      </trkpt>
      <trkpt lat="48.7015850" lon="13.4715570">
        <ele>432.2</ele>
        <time>2019-08-15T08:33:35Z</time>
      </trkpt>
      <trkpt lat="48.7016160" lon="13.4715430">
        <ele>432.4</ele>
        <time>2019-08-15T08:33:36Z</time>
      </trkpt>
      <trkpt lat="48.7016460" lon="13.4715310">
        <ele>432.6</ele>
        <time>2019-08-15T08:33:37Z</time>
      </trkpt>
      <trkpt lat="48.7016720" lon="13.4715230">
        <ele>432.6</ele>
        <time>2019-08-15T08:33:38Z</time>
      </trkpt>
      <trkpt lat="48.7016950" lon="13.4715110">
        <ele>432.8</ele>
        <time>2019-08-15T08:33:39Z</time>
      </trkpt>
      <trkpt lat="48.7017190" lon="13.4714970">
        <ele>433.0</ele>
        <time>2019-08-15T08:33:40Z</time>
      </trkpt>
      <trkpt lat="48.7017420" lon="13.4714870">
        <ele>433.2</ele>
        <time>2019-08-15T08:33:41Z</time>
      </trkpt>
      <trkpt lat="48.7017670" lon="13.4714810">
        <ele>433.4</ele>
        <time>2019-08-15T08:33:42Z</time>
      </trkpt>
      <trkpt lat="48.7017930" lon="13.4714780">
        <ele>433.6</ele>
        <time>2019-08-15T08:33:43Z</time>
      </trkpt>
      <trkpt lat="48.7018210" lon="13.4714770">
        <ele>433.8</ele>
        <time>2019-08-15T08:33:44Z</time>
      </trkpt>
      <trkpt lat="48.7018500" lon="13.4714760">
        <ele>434.0</ele>
        <time>2019-08-15T08:33:45Z</time>
      </trkpt>
      <trkpt lat="48.7018780" lon="13.4714700">
        <ele>434.2</ele>
        <time>2019-08-15T08:33:46Z</time>
      </trkpt>
      <trkpt lat="48.7019080" lon="13.4714550">
        <ele>434.4</ele>
        <time>2019-08-15T08:33:47Z</time>
      </trkpt>
      <trkpt lat="48.7019370" lon="13.4714440">
        <ele>434.6</ele>
        <time>2019-08-15T08:33:48Z</time>
      </trkpt>
      <trkpt lat="48.7019630" lon="13.4714400">
        <ele>434.8</ele>
        <time>2019-08-15T08:33:49Z</time>
      </trkpt>
      <trkpt lat="48.7019890" lon="13.4714320">
        <ele>435.0</ele>
        <time>2019-08-15T08:33:50Z</time>
      </trkpt>
      <trkpt lat="48.7020110" lon="13.4714200">
        <ele>435.2</ele>
        <time>2019-08-15T08:33:51Z</time>
      </trkpt>
      <trkpt lat="48.7020340" lon="13.4714130">
        <ele>435.2</ele>
        <time>2019-08-15T08:33:52Z</time>
      </trkpt>
      <trkpt lat="48.7020570" lon="13.4714080">
        <ele>435.4</ele>
        <time>2019-08-15T08:33:53Z</time>
      </trkpt>
      <trkpt lat="48.7020830" lon="13.4714040">
        <ele>435.6</ele>
        <time>2019-08-15T08:33:54Z</time>
      </trkpt>
      <trkpt lat="48.7021080" lon="13.4713990">
        <ele>435.8</ele>
        <time>2019-08-15T08:33:55Z</time>
      </trkpt>
      <trkpt lat="48.7021360" lon="13.4713900">
        <ele>436.0</ele>
        <time>2019-08-15T08:33:56Z</time>
      </trkpt>
      <trkpt lat="48.7021610" lon="13.4713810">
        <ele>436.2</ele>
        <time>2019-08-15T08:33:57Z</time>
      </trkpt>
      <trkpt lat="48.7021860" lon="13.4713680">
        <ele>436.4</ele>
        <time>2019-08-15T08:33:58Z</time>
      </trkpt>
      <trkpt lat="48.7022110" lon="13.4713560">
        <ele>436.6</ele>
        <time>2019-08-15T08:33:59Z</time>
      </trkpt>
      <trkpt lat="48.7022360" lon="13.4713450">
        <ele>436.8</ele>
        <time>2019-08-15T08:34:00Z</time>
      </trkpt>
      <trkpt lat="48.7022630" lon="13.4713320">
        <ele>436.8</ele>
        <time>2019-08-15T08:34:01Z</time>
      </trkpt>
      <trkpt lat="48.7022920" lon="13.4713120">
        <ele>437.0</ele>
        <time>2019-08-15T08:34:02Z</time>
      </trkpt>
      <trkpt lat="48.7023210" lon="13.4712890">
        <ele>437.2</ele>
        <time>2019-08-15T08:34:03Z</time>
      </trkpt>
      <trkpt lat="48.7023460" lon="13.4712710">
        <ele>437.4</ele>
        <time>2019-08-15T08:34:04Z</time>
      </trkpt>
      <trkpt lat="48.7023690" lon="13.4712550">
        <ele>437.6</ele>
        <time>2019-08-15T08:34:05Z</time>
      </trkpt>
      <trkpt lat="48.7023910" lon="13.4712410">
        <ele>437.8</ele>
        <time>2019-08-15T08:34:06Z</time>
      </trkpt>
      <trkpt lat="48.7024120" lon="13.4712230">
        <ele>438.0</ele>
        <time>2019-08-15T08:34:07Z</time>
      </trkpt>
      <trkpt lat="48.7024350" lon="13.4712030">
        <ele>438.2</ele>
        <time>2019-08-15T08:34:08Z</time>
      </trkpt>
      <trkpt lat="48.7024570" lon="13.4711860">
        <ele>438.4</ele>
        <time>2019-08-15T08:34:09Z</time>
      </trkpt>
      <trkpt lat="48.7024790" lon="13.4711710">
        <ele>438.6</ele>
        <time>2019-08-15T08:34:10Z</time>
      </trkpt>
      <trkpt lat="48.7025020" lon="13.4711540">
        <ele>438.8</ele>
        <time>2019-08-15T08:34:11Z</time>
      </trkpt>
      <trkpt lat="48.7025250" lon="13.4711390">
        <ele>439.0</ele>
        <time>2019-08-15T08:34:12Z</time>
      </trkpt>
      <trkpt lat="48.7025450" lon="13.4711300">
        <ele>439.0</ele>
        <time>2019-08-15T08:34:13Z</time>
      </trkpt>
      <trkpt lat="48.7025670" lon="13.4711240">
        <ele>439.2</ele>
        <time>2019-08-15T08:34:14Z</time>
      </trkpt>
      <trkpt lat="48.7025880" lon="13.4711210">
        <ele>439.4</ele>
        <time>2019-08-15T08:34:15Z</time>
      </trkpt>
      <trkpt lat="48.7026080" lon="13.4711180">
        <ele>439.6</ele>
        <time>2019-08-15T08:34:16Z</time>
      </trkpt>
      <trkpt lat="48.7026290" lon="13.4711190">
        <ele>439.8</ele>
        <time>2019-08-15T08:34:17Z</time>
      </trkpt>
      <trkpt lat="48.7026490" lon="13.4711200">
        <ele>440.0</ele>
        <time>2019-08-15T08:34:18Z</time>
      </trkpt>
      <trkpt lat="48.7026640" lon="13.4711200">
        <ele>440.0</ele>
        <time>2019-08-15T08:34:19Z</time>
      </trkpt>
      <trkpt lat="48.7026840" lon="13.4711220">
        <ele>440.2</ele>
        <time>2019-08-15T08:34:20Z</time>
      </trkpt>
      <trkpt lat="48.7027080" lon="13.4711270">
        <ele>440.4</ele>
        <time>2019-08-15T08:34:21Z</time>
      </trkpt>
      <trkpt lat="48.7027320" lon="13.4711270">
        <ele>440.6</ele>
        <time>2019-08-15T08:34:22Z</time>
      </trkpt>
      <trkpt lat="48.7027530" lon="13.4711270">
        <ele>440.8</ele>
        <time>2019-08-15T08:34:23Z</time>
      </trkpt>
      <trkpt lat="48.7027750" lon="13.4711260">
        <ele>441.0</ele>
        <time>2019-08-15T08:34:24Z</time>
      </trkpt>
      <trkpt lat="48.7028000" lon="13.4711250">
        <ele>441.2</ele>
        <time>2019-08-15T08:34:25Z</time>
      </trkpt>
      <trkpt lat="48.7028210" lon="13.4711260">
        <ele>441.4</ele>
        <time>2019-08-15T08:34:26Z</time>
      </trkpt>
      <trkpt lat="48.7028410" lon="13.4711280">
        <ele>441.6</ele>
        <time>2019-08-15T08:34:27Z</time>
      </trkpt>
      <trkpt lat="48.7028620" lon="13.4711260">
        <ele>441.8</ele>
        <time>2019-08-15T08:34:28Z</time>
      </trkpt>
      <trkpt lat="48.7028830" lon="13.4711250">
        <ele>441.8</ele>
        <time>2019-08-15T08:34:29Z</time>
      </trkpt>
      <trkpt lat="48.7029050" lon="13.4711270">
        <ele>442.0</ele>
        <time>2019-08-15T08:34:30Z</time>
      </trkpt>
      <trkpt lat="48.7029270" lon="13.4711260">
        <ele>442.2</ele>
        <time>2019-08-15T08:34:31Z</time>
      </trkpt>
      <trkpt lat="48.7029490" lon="13.4711250">
        <ele>442.4</ele>
        <time>2019-08-15T08:34:32Z</time>
      </trkpt>
      <trkpt lat="48.7029700" lon="13.4711270">
        <ele>442.6</ele>
        <time>2019-08-15T08:34:33Z</time>
      </trkpt>
      <trkpt lat="48.7029920" lon="13.4711270">
        <ele>442.8</ele>
        <time>2019-08-15T08:34:34Z</time>
      </trkpt>
      <trkpt lat="48.7030130" lon="13.4711270">
        <ele>443.0</ele>
        <time>2019-08-15T08:34:35Z</time>
      </trkpt>
      <trkpt lat="48.7030340" lon="13.4711290">
        <ele>443.2</ele>
        <time>2019-08-15T08:34:36Z</time>
      </trkpt>
      <trkpt lat="48.7030550" lon="13.4711330">
        <ele>443.4</ele>
        <time>2019-08-15T08:34:37Z</time>
      </trkpt>
      <trkpt lat="48.7030770" lon="13.4711330">
        <ele>443.6</ele>
        <time>2019-08-15T08:34:38Z</time>
      </trkpt>
      <trkpt lat="48.7031010" lon="13.4711320">
        <ele>443.8</ele>
        <time>2019-08-15T08:34:39Z</time>
      </trkpt>
      <trkpt lat="48.7031270" lon="13.4711320">
        <ele>443.8</ele>
        <time>2019-08-15T08:34:40Z</time>
      </trkpt>
      <trkpt lat="48.7031510" lon="13.4711280">
        <ele>444.0</ele>
        <time>2019-08-15T08:34:41Z</time>
      </trkpt>
      <trkpt lat="48.7031760" lon="13.4711260">
        <ele>444.2</ele>
        <time>2019-08-15T08:34:42Z</time>
      </trkpt>
      <trkpt lat="48.7031980" lon="13.4711290">
        <ele>444.4</ele>
        <time>2019-08-15T08:34:43Z</time>
      </trkpt>
      <trkpt lat="48.7032170" lon="13.4711300">
        <ele>444.6</ele>
        <time>2019-08-15T08:34:44Z</time>
      </trkpt>
      <trkpt lat="48.7032400" lon="13.4711330">
        <ele>444.8</ele>
        <time>2019-08-15T08:34:45Z</time>
      </trkpt>
      <trkpt lat="48.7032610" lon="13.4711360">
        <ele>445.0</ele>
        <time>2019-08-15T08:34:46Z</time>
      </trkpt>
      <trkpt lat="48.7032790" lon="13.4711390">
        <ele>445.0</ele>
        <time>2019-08-15T08:34:47Z</time>
      </trkpt>
      <trkpt lat="48.7032990" lon="13.4711400">
        <ele>445.2</ele>
        <time>2019-08-15T08:34:48Z</time>
      </trkpt>
      <trkpt lat="48.7033230" lon="13.4711390">
        <ele>445.4</ele>
        <time>2019-08-15T08:34:49Z</time>
      </trkpt>
      <trkpt lat="48.7033470" lon="13.4711420">
        <ele>445.6</ele>
        <time>2019-08-15T08:34:50Z</time>
      </trkpt>
      <trkpt lat="48.7033700" lon="13.4711480">
        <ele>445.8</ele>
        <time>2019-08-15T08:34:51Z</time>
      </trkpt>
      <trkpt lat="48.7033970" lon="13.4711530">
        <ele>446.0</ele>
        <time>2019-08-15T08:34:52Z</time>
      </trkpt>
      <trkpt lat="48.7034200" lon="13.4711570">
        <ele>446.2</ele>
        <time>2019-08-15T08:34:53Z</time>
      </trkpt>
      <trkpt lat="48.7034440" lon="13.4711610">
        <ele>446.2</ele>
        <time>2019-08-15T08:34:54Z</time>
      </trkpt>
      <trkpt lat="48.7034690" lon="13.4711670">
        <ele>446.4</ele>
        <time>2019-08-15T08:34:55Z</time>
      </trkpt>
      <trkpt lat="48.7034940" lon="13.4711770">
        <ele>446.6</ele>
        <time>2019-08-15T08:34:56Z</time>
      </trkpt>
      <trkpt lat="48.7035190" lon="13.4711860">
        <ele>446.8</ele>
        <time>2019-08-15T08:34:57Z</time>
      </trkpt>
      <trkpt lat="48.7035420" lon="13.4712000">
        <ele>447.0</ele>
        <time>2019-08-15T08:34:58Z</time>
      </trkpt>
      <trkpt lat="48.7035670" lon="13.4712170">
        <ele>447.2</ele>
        <time>2019-08-15T08:34:59Z</time>
      </trkpt>
      <trkpt lat="48.7035950" lon="13.4712360">
        <ele>447.4</ele>
        <time>2019-08-15T08:35:00Z</time>
      </trkpt>
      <trkpt lat="48.7036170" lon="13.4712540">
        <ele>447.6</ele>
        <time>2019-08-15T08:35:01Z</time>
      </trkpt>
      <trkpt lat="48.7036400" lon="13.4712720">
        <ele>447.8</ele>
        <time>2019-08-15T08:35:02Z</time>
      </trkpt>
      <trkpt lat="48.7036620" lon="13.4712880">
        <ele>448.0</ele>
        <time>2019-08-15T08:35:03Z</time>
      </trkpt>
      <trkpt lat="48.7036820" lon="13.4713030">
        <ele>448.2</ele>
        <time>2019-08-15T08:35:04Z</time>
      </trkpt>
      <trkpt lat="48.7037010" lon="13.4713210">
        <ele>448.4</ele>
        <time>2019-08-15T08:35:05Z</time>
      </trkpt>
      <trkpt lat="48.7037190" lon="13.4713400">
        <ele>448.6</ele>
        <time>2019-08-15T08:35:06Z</time>
      </trkpt>
      <trkpt lat="48.7037370" lon="13.4713580">
        <ele>448.8</ele>
        <time>2019-08-15T08:35:07Z</time>
      </trkpt>
      <trkpt lat="48.7037520" lon="13.4713720">
        <ele>449.0</ele>
        <time>2019-08-15T08:35:08Z</time>
      </trkpt>
      <trkpt lat="48.7037680" lon="13.4713900">
        <ele>449.2</ele>
        <time>2019-08-15T08:35:09Z</time>
      </trkpt>
      <trkpt lat="48.7037870" lon="13.4714110">
        <ele>449.4</ele>
        <time>2019-08-15T08:35:10Z</time>
      </trkpt>
      <trkpt lat="48.7038090" lon="13.4714340">
        <ele>449.4</ele>
        <time>2019-08-15T08:35:11Z</time>
      </trkpt>
      <trkpt lat="48.7038300" lon="13.4714570">
        <ele>449.6</ele>
        <time>2019-08-15T08:35:12Z</time>
      </trkpt>
      <trkpt lat="48.7038520" lon="13.4714770">
        <ele>449.8</ele>
        <time>2019-08-15T08:35:13Z</time>
      </trkpt>
      <trkpt lat="48.7038730" lon="13.4715000">
        <ele>450.0</ele>
        <time>2019-08-15T08:35:14Z</time>
      </trkpt>
      <trkpt lat="48.7038910" lon="13.4715240">
        <ele>450.2</ele>
        <time>2019-08-15T08:35:15Z</time>
      </trkpt>
      <trkpt lat="48.7039070" lon="13.4715430">
        <ele>450.4</ele>
        <time>2019-08-15T08:35:16Z</time>
      </trkpt>
      <trkpt lat="48.7039240" lon="13.4715630">
        <ele>450.6</ele>
        <time>2019-08-15T08:35:17Z</time>
      </trkpt>
      <trkpt lat="48.7039420" lon="13.4715850">
        <ele>450.8</ele>
        <time>2019-08-15T08:35:18Z</time>
      </trkpt>
      <trkpt lat="48.7039620" lon="13.4716120">
        <ele>451.0</ele>
        <time>2019-08-15T08:35:19Z</time>
      </trkpt>
      <trkpt lat="48.7039820" lon="13.4716330">
        <ele>451.2</ele>
        <time>2019-08-15T08:35:20Z</time>
      </trkpt>
      <trkpt lat="48.7040030" lon="13.4716520">
        <ele>451.4</ele>
        <time>2019-08-15T08:35:21Z</time>
      </trkpt>
      <trkpt lat="48.7040220" lon="13.4716680">
        <ele>451.6</ele>
        <time>2019-08-15T08:35:22Z</time>
      </trkpt>
      <trkpt lat="48.7040380" lon="13.4716870">
        <ele>451.6</ele>
        <time>2019-08-15T08:35:23Z</time>
      </trkpt>
      <trkpt lat="48.7040510" lon="13.4717110">
        <ele>451.8</ele>
        <time>2019-08-15T08:35:24Z</time>
      </trkpt>
      <trkpt lat="48.7040640" lon="13.4717380">
        <ele>452.0</ele>
        <time>2019-08-15T08:35:25Z</time>
      </trkpt>
      <trkpt lat="48.7040800" lon="13.4717640">
        <ele>452.2</ele>
        <time>2019-08-15T08:35:26Z</time>
      </trkpt>
      <trkpt lat="48.7041020" lon="13.4717860">
        <ele>452.4</ele>
        <time>2019-08-15T08:35:27Z</time>
      </trkpt>
      <trkpt lat="48.7041250" lon="13.4718050">
        <ele>452.6</ele>
        <time>2019-08-15T08:35:28Z</time>
      </trkpt>
      <trkpt lat="48.7041440" lon="13.4718290">
        <ele>452.8</ele>
        <time>2019-08-15T08:35:29Z</time>
      </trkpt>
      <trkpt lat="48.7041600" lon="13.4718580">
        <ele>453.0</ele>
        <time>2019-08-15T08:35:30Z</time>
      </trkpt>
      <trkpt lat="48.7041750" lon="13.4718890">
        <ele>453.0</ele>
        <time>2019-08-15T08:35:31Z</time>
      </trkpt>
      <trkpt lat="48.7041880" lon="13.4719200">
        <ele>453.2</ele>
        <time>2019-08-15T08:35:32Z</time>
      </trkpt>
      <trkpt lat="48.7042020" lon="13.4719490">
        <ele>453.4</ele>
        <time>2019-08-15T08:35:33Z</time>
      </trkpt>
      <trkpt lat="48.7042160" lon="13.4719760">
        <ele>453.6</ele>
        <time>2019-08-15T08:35:34Z</time>
      </trkpt>
      <trkpt lat="48.7042250" lon="13.4720070">
        <ele>453.8</ele>
        <time>2019-08-15T08:35:35Z</time>
      </trkpt>
      <trkpt lat="48.7042320" lon="13.4720420">
        <ele>454.0</ele>
        <time>2019-08-15T08:35:36Z</time>
      </trkpt>
      <trkpt lat="48.7042420" lon="13.4720780">
        <ele>454.0</ele>
        <time>2019-08-15T08:35:37Z</time>
      </trkpt>
      <trkpt lat="48.7042500" lon="13.4721110">
        <ele>454.2</ele>
        <time>2019-08-15T08:35:38Z</time>
      </trkpt>
      <trkpt lat="48.7042570" lon="13.4721440">
        <ele>454.4</ele>
        <time>2019-08-15T08:35:39Z</time>
      </trkpt>
      <trkpt lat="48.7042640" lon="13.4721790">
        <ele>454.6</ele>
        <time>2019-08-15T08:35:40Z</time>
      </trkpt>
      <trkpt lat="48.7042720" lon="13.4722140">
        <ele>454.8</ele>
        <time>2019-08-15T08:35:41Z</time>
      </trkpt>
      <trkpt lat="48.7042780" lon="13.4722520">
        <ele>455.0</ele>
        <time>2019-08-15T08:35:42Z</time>
      </trkpt>
      <trkpt lat="48.7042840" lon="13.4722910">
        <ele>455.2</ele>
        <time>2019-08-15T08:35:43Z</time>
      </trkpt>
      <trkpt lat="48.7042910" lon="13.4723300">
        <ele>455.4</ele>
        <time>2019-08-15T08:35:44Z</time>
      </trkpt>
      <trkpt lat="48.7042960" lon="13.4723700">
        <ele>455.6</ele>
        <time>2019-08-15T08:35:45Z</time>
      </trkpt>
      <trkpt lat="48.7043020" lon="13.4724100">
        <ele>455.8</ele>
        <time>2019-08-15T08:35:46Z</time>
      </trkpt>
      <trkpt lat="48.7043090" lon="13.4724490">
        <ele>456.0</ele>
        <time>2019-08-15T08:35:47Z</time>
      </trkpt>
      <trkpt lat="48.7043120" lon="13.4724860">
        <ele>456.2</ele>
        <time>2019-08-15T08:35:48Z</time>
      </trkpt>
      <trkpt lat="48.7043160" lon="13.4725240">
        <ele>456.6</ele>
        <time>2019-08-15T08:35:49Z</time>
      </trkpt>
      <trkpt lat="48.7043190" lon="13.4725610">
        <ele>456.8</ele>
        <time>2019-08-15T08:35:50Z</time>
      </trkpt>
      <trkpt lat="48.7043210" lon="13.4725970">
        <ele>457.0</ele>
        <time>2019-08-15T08:35:51Z</time>
      </trkpt>
      <trkpt lat="48.7043250" lon="13.4726340">
        <ele>457.2</ele>
        <time>2019-08-15T08:35:52Z</time>
      </trkpt>
      <trkpt lat="48.7043270" lon="13.4726720">
        <ele>457.4</ele>
        <time>2019-08-15T08:35:53Z</time>
      </trkpt>
      <trkpt lat="48.7043280" lon="13.4727090">
        <ele>457.6</ele>
        <time>2019-08-15T08:35:54Z</time>
      </trkpt>
      <trkpt lat="48.7043280" lon="13.4727470">
        <ele>457.6</ele>
        <time>2019-08-15T08:35:55Z</time>
      </trkpt>
      <trkpt lat="48.7043290" lon="13.4727840">
        <ele>457.8</ele>
        <time>2019-08-15T08:35:56Z</time>
      </trkpt>
      <trkpt lat="48.7043310" lon="13.4728210">
        <ele>458.0</ele>
        <time>2019-08-15T08:35:57Z</time>
      </trkpt>
      <trkpt lat="48.7043340" lon="13.4728550">
        <ele>458.2</ele>
        <time>2019-08-15T08:35:58Z</time>
      </trkpt>
      <trkpt lat="48.7043380" lon="13.4728910">
        <ele>458.4</ele>
        <time>2019-08-15T08:35:59Z</time>
      </trkpt>
      <trkpt lat="48.7043400" lon="13.4729270">
        <ele>458.6</ele>
        <time>2019-08-15T08:36:00Z</time>
      </trkpt>
      <trkpt lat="48.7043420" lon="13.4729620">
        <ele>458.8</ele>
        <time>2019-08-15T08:36:01Z</time>
      </trkpt>
      <trkpt lat="48.7043450" lon="13.4729980">
        <ele>459.0</ele>
        <time>2019-08-15T08:36:02Z</time>
      </trkpt>
      <trkpt lat="48.7043470" lon="13.4730330">
        <ele>459.2</ele>
        <time>2019-08-15T08:36:03Z</time>
      </trkpt>
      <trkpt lat="48.7043470" lon="13.4730650">
        <ele>459.2</ele>
        <time>2019-08-15T08:36:04Z</time>
      </trkpt>
      <trkpt lat="48.7043490" lon="13.4731020">
        <ele>459.4</ele>
        <time>2019-08-15T08:36:05Z</time>
      </trkpt>
      <trkpt lat="48.7043500" lon="13.4731390">
        <ele>459.6</ele>
        <time>2019-08-15T08:36:06Z</time>
      </trkpt>
      <trkpt lat="48.7043510" lon="13.4731770">
        <ele>459.8</ele>
        <time>2019-08-15T08:36:07Z</time>
      </trkpt>
      <trkpt lat="48.7043550" lon="13.4732130">
        <ele>459.8</ele>
        <time>2019-08-15T08:36:08Z</time>
      </trkpt>
      <trkpt lat="48.7043600" lon="13.4732500">
        <ele>460.0</ele>
        <time>2019-08-15T08:36:09Z</time>
      </trkpt>
      <trkpt lat="48.7043620" lon="13.4732870">
        <ele>460.2</ele>
        <time>2019-08-15T08:36:10Z</time>
      </trkpt>
      <trkpt lat="48.7043660" lon="13.4733200">
        <ele>460.2</ele>
        <time>2019-08-15T08:36:11Z</time>
      </trkpt>
      <trkpt lat="48.7043680" lon="13.4733550">
        <ele>460.4</ele>
        <time>2019-08-15T08:36:12Z</time>
      </trkpt>
      <trkpt lat="48.7043700" lon="13.4733900">
        <ele>460.6</ele>
        <time>2019-08-15T08:36:13Z</time>
      </trkpt>
      <trkpt lat="48.7043760" lon="13.4734230">
        <ele>460.8</ele>
        <time>2019-08-15T08:36:14Z</time>
      </trkpt>
      <trkpt lat="48.7043800" lon="13.4734590">
        <ele>460.8</ele>
        <time>2019-08-15T08:36:15Z</time>
      </trkpt>
      <trkpt lat="48.7043820" lon="13.4734950">
        <ele>461.0</ele>
        <time>2019-08-15T08:36:16Z</time>
      </trkpt>
      <trkpt lat="48.7043850" lon="13.4735300">
        <ele>461.2</ele>
        <time>2019-08-15T08:36:17Z</time>
      </trkpt>
      <trkpt lat="48.7043880" lon="13.4735660">
        <ele>461.4</ele>
        <time>2019-08-15T08:36:18Z</time>
      </trkpt>
      <trkpt lat="48.7043920" lon="13.4736000">
        <ele>461.4</ele>
        <time>2019-08-15T08:36:19Z</time>
      </trkpt>
      <trkpt lat="48.7043950" lon="13.4736350">
        <ele>461.6</ele>
        <time>2019-08-15T08:36:20Z</time>
      </trkpt>
      <trkpt lat="48.7043970" lon="13.4736720">
        <ele>461.8</ele>
        <time>2019-08-15T08:36:21Z</time>
      </trkpt>
      <trkpt lat="48.7043990" lon="13.4737070">
        <ele>461.8</ele>
        <time>2019-08-15T08:36:22Z</time>
      </trkpt>
      <trkpt lat="48.7044010" lon="13.4737430">
        <ele>462.0</ele>
        <time>2019-08-15T08:36:23Z</time>
      </trkpt>
      <trkpt lat="48.7044000" lon="13.4737780">
        <ele>462.2</ele>
        <time>2019-08-15T08:36:24Z</time>
      </trkpt>
      <trkpt lat="48.7044000" lon="13.4738120">
        <ele>462.4</ele>
        <time>2019-08-15T08:36:25Z</time>
      </trkpt>
      <trkpt lat="48.7043990" lon="13.4738480">
        <ele>462.6</ele>
        <time>2019-08-15T08:36:26Z</time>
      </trkpt>
      <trkpt lat="48.7044010" lon="13.4738850">
        <ele>462.6</ele>
        <time>2019-08-15T08:36:27Z</time>
      </trkpt>
      <trkpt lat="48.7044050" lon="13.4739210">
        <ele>462.8</ele>
        <time>2019-08-15T08:36:28Z</time>
      </trkpt>
      <trkpt lat="48.7044090" lon="13.4739550">
        <ele>463.0</ele>
        <time>2019-08-15T08:36:29Z</time>
      </trkpt>
      <trkpt lat="48.7044100" lon="13.4739890">
        <ele>463.2</ele>
        <time>2019-08-15T08:36:30Z</time>
      </trkpt>
      <trkpt lat="48.7044100" lon="13.4740230">
        <ele>463.4</ele>
        <time>2019-08-15T08:36:31Z</time>
      </trkpt>
      <trkpt lat="48.7044100" lon="13.4740570">
        <ele>463.6</ele>
        <time>2019-08-15T08:36:32Z</time>
      </trkpt>
      <trkpt lat="48.7044110" lon="13.4740900">
        <ele>463.6</ele>
        <time>2019-08-15T08:36:33Z</time>
      </trkpt>
      <trkpt lat="48.7044140" lon="13.4741200">
        <ele>463.8</ele>
        <time>2019-08-15T08:36:34Z</time>
      </trkpt>
      <trkpt lat="48.7044150" lon="13.4741500">
        <ele>464.0</ele>
        <time>2019-08-15T08:36:35Z</time>
      </trkpt>
      <trkpt lat="48.7044130" lon="13.4741810">
        <ele>464.2</ele>
        <time>2019-08-15T08:36:36Z</time>
      </trkpt>
      <trkpt lat="48.7044120" lon="13.4742120">
        <ele>464.4</ele>
        <time>2019-08-15T08:36:37Z</time>
      </trkpt>
      <trkpt lat="48.7044140" lon="13.4742470">
        <ele>464.6</ele>
        <time>2019-08-15T08:36:38Z</time>
      </trkpt>
      <trkpt lat="48.7044160" lon="13.4742830">
        <ele>464.8</ele>
        <time>2019-08-15T08:36:39Z</time>
      </trkpt>
      <trkpt lat="48.7044180" lon="13.4743140">
        <ele>465.0</ele>
        <time>2019-08-15T08:36:40Z</time>
      </trkpt>
      <trkpt lat="48.7044170" lon="13.4743530">
        <ele>465.2</ele>
        <time>2019-08-15T08:36:41Z</time>
      </trkpt>
      <trkpt lat="48.7044170" lon="13.4743910">
        <ele>465.2</ele>
        <time>2019-08-15T08:36:42Z</time>
      </trkpt>
      <trkpt lat="48.7044190" lon="13.4744260">
        <ele>465.4</ele>
        <time>2019-08-15T08:36:43Z</time>
      </trkpt>
      <trkpt lat="48.7044220" lon="13.4744620">
        <ele>465.6</ele>
        <time>2019-08-15T08:36:44Z</time>
      </trkpt>
      <trkpt lat="48.7044220" lon="13.4744990">
        <ele>465.8</ele>
        <time>2019-08-15T08:36:45Z</time>
      </trkpt>
      <trkpt lat="48.7044230" lon="13.4745360">
        <ele>466.0</ele>
        <time>2019-08-15T08:36:46Z</time>
      </trkpt>
      <trkpt lat="48.7044240" lon="13.4745710">
        <ele>466.2</ele>
        <time>2019-08-15T08:36:47Z</time>
      </trkpt>
      <trkpt lat="48.7044250" lon="13.4746090">
        <ele>466.2</ele>
        <time>2019-08-15T08:36:48Z</time>
      </trkpt>
      <trkpt lat="48.7044250" lon="13.4746470">
        <ele>466.4</ele>
        <time>2019-08-15T08:36:49Z</time>
      </trkpt>
      <trkpt lat="48.7044250" lon="13.4746830">
        <ele>466.6</ele>
        <time>2019-08-15T08:36:50Z</time>
      </trkpt>
      <trkpt lat="48.7044280" lon="13.4747180">
        <ele>466.8</ele>
        <time>2019-08-15T08:36:51Z</time>
      </trkpt>
      <trkpt lat="48.7044320" lon="13.4747510">
        <ele>467.0</ele>
        <time>2019-08-15T08:36:52Z</time>
      </trkpt>
      <trkpt lat="48.7044350" lon="13.4747830">
        <ele>467.2</ele>
        <time>2019-08-15T08:36:53Z</time>
      </trkpt>
      <trkpt lat="48.7044350" lon="13.4748180">
        <ele>467.2</ele>
        <time>2019-08-15T08:36:54Z</time>
      </trkpt>
      <trkpt lat="48.7044330" lon="13.4748520">
        <ele>467.4</ele>
        <time>2019-08-15T08:36:55Z</time>
      </trkpt>
      <trkpt lat="48.7044340" lon="13.4748890">
        <ele>467.6</ele>
        <time>2019-08-15T08:36:56Z</time>
      </trkpt>
      <trkpt lat="48.7044360" lon="13.4749270">
        <ele>467.8</ele>
        <time>2019-08-15T08:36:57Z</time>
      </trkpt>
      <trkpt lat="48.7044390" lon="13.4749640">
        <ele>468.0</ele>
        <time>2019-08-15T08:36:58Z</time>
      </trkpt>
      <trkpt lat="48.7044410" lon="13.4750010">
        <ele>468.2</ele>
        <time>2019-08-15T08:36:59Z</time>
      </trkpt>
      <trkpt lat="48.7044400" lon="13.4750390">
        <ele>468.4</ele>
        <time>2019-08-15T08:37:00Z</time>
      </trkpt>
      <trkpt lat="48.7044400" lon="13.4750770">
        <ele>468.6</ele>
        <time>2019-08-15T08:37:01Z</time>
      </trkpt>
      <trkpt lat="48.7044400" lon="13.4751110">
        <ele>468.8</ele>
        <time>2019-08-15T08:37:02Z</time>
      </trkpt>
      <trkpt lat="48.7044400" lon="13.4751450">
        <ele>469.0</ele>
        <time>2019-08-15T08:37:03Z</time>
      </trkpt>
      <trkpt lat="48.7044400" lon="13.4751840">
        <ele>469.2</ele>
        <time>2019-08-15T08:37:04Z</time>
      </trkpt>
      <trkpt lat="48.7044400" lon="13.4752220">
        <ele>469.4</ele>
        <time>2019-08-15T08:37:05Z</time>
      </trkpt>
      <trkpt lat="48.7044410" lon="13.4752570">
        <ele>469.6</ele>
        <time>2019-08-15T08:37:06Z</time>
      </trkpt>
      <trkpt lat="48.7044440" lon="13.4752940">
        <ele>469.8</ele>
        <time>2019-08-15T08:37:07Z</time>
      </trkpt>
      <trkpt lat="48.7044450" lon="13.4753310">
        <ele>470.0</ele>
        <time>2019-08-15T08:37:08Z</time>
      </trkpt>
      <trkpt lat="48.7044450" lon="13.4753690">
        <ele>470.2</ele>
        <time>2019-08-15T08:37:09Z</time>
      </trkpt>
      <trkpt lat="48.7044470" lon="13.4754050">
        <ele>470.4</ele>
        <time>2019-08-15T08:37:10Z</time>
      </trkpt>
      <trkpt lat="48.7044490" lon="13.4754410">
        <ele>470.4</ele>
        <time>2019-08-15T08:37:11Z</time>
      </trkpt>
      <trkpt lat="48.7044520" lon="13.4754770">
        <ele>470.6</ele>
        <time>2019-08-15T08:37:12Z</time>
      </trkpt>
      <trkpt lat="48.7044550" lon="13.4755130">
        <ele>470.8</ele>
        <time>2019-08-15T08:37:13Z</time>
      </trkpt>
      <trkpt lat="48.7044600" lon="13.4755460">
        <ele>471.0</ele>
        <time>2019-08-15T08:37:14Z</time>
      </trkpt>
      <trkpt lat="48.7044670" lon="13.4755810">
        <ele>471.0</ele>
        <time>2019-08-15T08:37:15Z</time>
      </trkpt>
      <trkpt lat="48.7044790" lon="13.4756170">
        <ele>471.2</ele>
        <time>2019-08-15T08:37:16Z</time>
      </trkpt>
      <trkpt lat="48.7044930" lon="13.4756530">
        <ele>471.4</ele>
        <time>2019-08-15T08:37:17Z</time>
      </trkpt>
      <trkpt lat="48.7045050" lon="13.4756920">
        <ele>471.4</ele>
        <time>2019-08-15T08:37:18Z</time>
      </trkpt>
      <trkpt lat="48.7045180" lon="13.4757310">
        <ele>471.6</ele>
        <time>2019-08-15T08:37:19Z</time>
      </trkpt>
      <trkpt lat="48.7045320" lon="13.4757710">
        <ele>471.8</ele>
        <time>2019-08-15T08:37:20Z</time>
      </trkpt>
      <trkpt lat="48.7045470" lon="13.4758120">
        <ele>472.0</ele>
        <time>2019-08-15T08:37:21Z</time>
      </trkpt>
      <trkpt lat="48.7045600" lon="13.4758530">
        <ele>472.0</ele>
        <time>2019-08-15T08:37:22Z</time>
      </trkpt>
      <trkpt lat="48.7045750" lon="13.4758920">
        <ele>472.2</ele>
        <time>2019-08-15T08:37:23Z</time>
      </trkpt>
      <trkpt lat="48.7045900" lon="13.4759250">
        <ele>472.4</ele>
        <time>2019-08-15T08:37:24Z</time>
      </trkpt>
      <trkpt lat="48.7046030" lon="13.4759620">
        <ele>472.6</ele>
        <time>2019-08-15T08:37:25Z</time>
      </trkpt>
      <trkpt lat="48.7046170" lon="13.4760010">
        <ele>472.8</ele>
        <time>2019-08-15T08:37:26Z</time>
      </trkpt>
      <trkpt lat="48.7046320" lon="13.4760360">
        <ele>472.8</ele>
        <time>2019-08-15T08:37:27Z</time>
      </trkpt>
      <trkpt lat="48.7046470" lon="13.4760670">
        <ele>473.0</ele>
        <time>2019-08-15T08:37:28Z</time>
      </trkpt>
      <trkpt lat="48.7046620" lon="13.4761030">
        <ele>473.2</ele>
        <time>2019-08-15T08:37:29Z</time>
      </trkpt>
      <trkpt lat="48.7046780" lon="13.4761420">
        <ele>473.4</ele>
        <time>2019-08-15T08:37:30Z</time>
      </trkpt>
      <trkpt lat="48.7047000" lon="13.4761790">
        <ele>473.6</ele>
        <time>2019-08-15T08:37:31Z</time>
      </trkpt>
      <trkpt lat="48.7047220" lon="13.4762110">
        <ele>473.8</ele>
        <time>2019-08-15T08:37:32Z</time>
      </trkpt>
      <trkpt lat="48.7047450" lon="13.4762390">
        <ele>474.0</ele>
        <time>2019-08-15T08:37:33Z</time>
      </trkpt>
      <trkpt lat="48.7047640" lon="13.4762700">
        <ele>474.2</ele>
        <time>2019-08-15T08:37:34Z</time>
      </trkpt>
      <trkpt lat="48.7047820" lon="13.4763040">
        <ele>474.2</ele>
        <time>2019-08-15T08:37:35Z</time>
      </trkpt>
      <trkpt lat="48.7047990" lon="13.4763420">
        <ele>474.4</ele>
        <time>2019-08-15T08:37:36Z</time>
      </trkpt>
      <trkpt lat="48.7048140" lon="13.4763800">
        <ele>474.6</ele>
        <time>2019-08-15T08:37:37Z</time>
      </trkpt>
      <trkpt lat="48.7048290" lon="13.4764190">
        <ele>474.8</ele>
        <time>2019-08-15T08:37:38Z</time>
      </trkpt>
      <trkpt lat="48.7048440" lon="13.4764550">
        <ele>475.0</ele>
        <time>2019-08-15T08:37:39Z</time>
      </trkpt>
      <trkpt lat="48.7048620" lon="13.4764910">
        <ele>475.2</ele>
        <time>2019-08-15T08:37:40Z</time>
      </trkpt>
      <trkpt lat="48.7048840" lon="13.4765290">
        <ele>475.4</ele>
        <time>2019-08-15T08:37:41Z</time>
      </trkpt>
      <trkpt lat="48.7049060" lon="13.4765690">
        <ele>475.6</ele>
        <time>2019-08-15T08:37:42Z</time>
      </trkpt>
      <trkpt lat="48.7049280" lon="13.4766170">
        <ele>475.8</ele>
        <time>2019-08-15T08:37:43Z</time>
      </trkpt>
      <trkpt lat="48.7049470" lon="13.4766690">
        <ele>476.0</ele>
        <time>2019-08-15T08:37:44Z</time>
      </trkpt>
      <trkpt lat="48.7049700" lon="13.4767220">
        <ele>476.4</ele>
        <time>2019-08-15T08:37:45Z</time>
      </trkpt>
      <trkpt lat="48.7049920" lon="13.4767700">
        <ele>476.6</ele>
        <time>2019-08-15T08:37:46Z</time>
      </trkpt>
      <trkpt lat="48.7050120" lon="13.4768190">
        <ele>476.8</ele>
        <time>2019-08-15T08:37:47Z</time>
      </trkpt>
      <trkpt lat="48.7050310" lon="13.4768730">
        <ele>477.0</ele>
        <time>2019-08-15T08:37:48Z</time>
      </trkpt>
      <trkpt lat="48.7050480" lon="13.4769260">
        <ele>477.2</ele>
        <time>2019-08-15T08:37:49Z</time>
      </trkpt>
      <trkpt lat="48.7050700" lon="13.4769770">
        <ele>477.4</ele>
        <time>2019-08-15T08:37:50Z</time>
      </trkpt>
      <trkpt lat="48.7050940" lon="13.4770260">
        <ele>477.6</ele>
        <time>2019-08-15T08:37:51Z</time>
      </trkpt>
      <trkpt lat="48.7051110" lon="13.4770730">
        <ele>477.8</ele>
        <time>2019-08-15T08:37:52Z</time>
      </trkpt>
      <trkpt lat="48.7051280" lon="13.4771170">
        <ele>478.0</ele>
        <time>2019-08-15T08:37:53Z</time>
      </trkpt>
      <trkpt lat="48.7051410" lon="13.4771630">
        <ele>478.2</ele>
        <time>2019-08-15T08:37:54Z</time>
      </trkpt>
      <trkpt lat="48.7051510" lon="13.4772030">
        <ele>478.4</ele>
        <time>2019-08-15T08:37:55Z</time>
      </trkpt>
      <trkpt lat="48.7051620" lon="13.4772450">
        <ele>478.6</ele>
        <time>2019-08-15T08:37:56Z</time>
      </trkpt>
      <trkpt lat="48.7051730" lon="13.4772860">
        <ele>478.8</ele>
        <time>2019-08-15T08:37:57Z</time>
      </trkpt>
      <trkpt lat="48.7051860" lon="13.4773330">
        <ele>478.8</ele>
        <time>2019-08-15T08:37:58Z</time>
      </trkpt>
      <trkpt lat="48.7051990" lon="13.4773840">
        <ele>479.0</ele>
        <time>2019-08-15T08:37:59Z</time>
      </trkpt>
      <trkpt lat="48.7052140" lon="13.4774340">
        <ele>479.2</ele>
        <time>2019-08-15T08:38:00Z</time>
      </trkpt>
      <trkpt lat="48.7052280" lon="13.4774810">
        <ele>479.2</ele>
        <time>2019-08-15T08:38:01Z</time>
      </trkpt>
      <trkpt lat="48.7052420" lon="13.4775280">
        <ele>479.2</ele>
        <time>2019-08-15T08:38:02Z</time>
      </trkpt>
      <trkpt lat="48.7052590" lon="13.4775760">
        <ele>479.4</ele>
        <time>2019-08-15T08:38:03Z</time>
      </trkpt>
      <trkpt lat="48.7052740" lon="13.4776240">
        <ele>479.4</ele>
        <time>2019-08-15T08:38:04Z</time>
      </trkpt>
      <trkpt lat="48.7052920" lon="13.4776760">
        <ele>479.4</ele>
        <time>2019-08-15T08:38:05Z</time>
      </trkpt>
      <trkpt lat="48.7053090" lon="13.4777250">
        <ele>479.4</ele>
        <time>2019-08-15T08:38:06Z</time>
      </trkpt>
      <trkpt lat="48.7053250" lon="13.4777740">
        <ele>479.6</ele>
        <time>2019-08-15T08:38:07Z</time>
      </trkpt>
      <trkpt lat="48.7053380" lon="13.4778240">
        <ele>479.6</ele>
        <time>2019-08-15T08:38:08Z</time>
      </trkpt>
      <trkpt lat="48.7053520" lon="13.4778720">
        <ele>479.6</ele>
        <time>2019-08-15T08:38:09Z</time>
      </trkpt>
      <trkpt lat="48.7053670" lon="13.4779170">
        <ele>479.6</ele>
        <time>2019-08-15T08:38:10Z</time>
      </trkpt>
      <trkpt lat="48.7053800" lon="13.4779610">
        <ele>479.6</ele>
        <time>2019-08-15T08:38:11Z</time>
      </trkpt>
      <trkpt lat="48.7053940" lon="13.4780070">
        <ele>479.4</ele>
        <time>2019-08-15T08:38:12Z</time>
      </trkpt>
      <trkpt lat="48.7054110" lon="13.4780500">
        <ele>479.4</ele>
        <time>2019-08-15T08:38:13Z</time>
      </trkpt>
      <trkpt lat="48.7054270" lon="13.4780920">
        <ele>479.4</ele>
        <time>2019-08-15T08:38:14Z</time>
      </trkpt>
      <trkpt lat="48.7054430" lon="13.4781350">
        <ele>479.4</ele>
        <time>2019-08-15T08:38:15Z</time>
      </trkpt>
      <trkpt lat="48.7054580" lon="13.4781800">
        <ele>479.2</ele>
        <time>2019-08-15T08:38:16Z</time>
      </trkpt>
      <trkpt lat="48.7054710" lon="13.4782270">
        <ele>479.2</ele>
        <time>2019-08-15T08:38:17Z</time>
      </trkpt>
      <trkpt lat="48.7054840" lon="13.4782780">
        <ele>479.2</ele>
        <time>2019-08-15T08:38:18Z</time>
      </trkpt>
      <trkpt lat="48.7054980" lon="13.4783290">
        <ele>479.2</ele>
        <time>2019-08-15T08:38:19Z</time>
      </trkpt>
      <trkpt lat="48.7055120" lon="13.4783790">
        <ele>479.0</ele>
        <time>2019-08-15T08:38:20Z</time>
      </trkpt>
      <trkpt lat="48.7055280" lon="13.4784330">
        <ele>479.0</ele>
        <time>2019-08-15T08:38:21Z</time>
      </trkpt>
      <trkpt lat="48.7055450" lon="13.4784860">
        <ele>478.8</ele>
        <time>2019-08-15T08:38:22Z</time>
      </trkpt>
      <trkpt lat="48.7055600" lon="13.4785450">
        <ele>478.8</ele>
        <time>2019-08-15T08:38:23Z</time>
      </trkpt>
      <trkpt lat="48.7055740" lon="13.4786050">
        <ele>478.6</ele>
        <time>2019-08-15T08:38:24Z</time>
      </trkpt>
      <trkpt lat="48.7055910" lon="13.4786690">
        <ele>478.6</ele>
        <time>2019-08-15T08:38:25Z</time>
      </trkpt>
      <trkpt lat="48.7056090" lon="13.4787370">
        <ele>478.4</ele>
        <time>2019-08-15T08:38:26Z</time>
      </trkpt>
      <trkpt lat="48.7056260" lon="13.4788070">
        <ele>478.2</ele>
        <time>2019-08-15T08:38:27Z</time>
      </trkpt>
      <trkpt lat="48.7056420" lon="13.4788810">
        <ele>478.2</ele>
        <time>2019-08-15T08:38:28Z</time>
      </trkpt>
      <trkpt lat="48.7056550" lon="13.4789580">
        <ele>478.0</ele>
        <time>2019-08-15T08:38:29Z</time>
      </trkpt>
      <trkpt lat="48.7056620" lon="13.4790380">
        <ele>477.8</ele>
        <time>2019-08-15T08:38:30Z</time>
      </trkpt>
      <trkpt lat="48.7056640" lon="13.4791200">
        <ele>477.8</ele>
        <time>2019-08-15T08:38:31Z</time>
      </trkpt>
      <trkpt lat="48.7056580" lon="13.4792070">
        <ele>477.6</ele>
        <time>2019-08-15T08:38:32Z</time>
      </trkpt>
      <trkpt lat="48.7056490" lon="13.4792890">
        <ele>477.6</ele>
        <time>2019-08-15T08:38:33Z</time>
      </trkpt>
      <trkpt lat="48.7056390" lon="13.4793720">
        <ele>477.6</ele>
        <time>2019-08-15T08:38:34Z</time>
      </trkpt>
      <trkpt lat="48.7056290" lon="13.4794530">
        <ele>477.2</ele>
        <time>2019-08-15T08:38:35Z</time>
      </trkpt>
      <trkpt lat="48.7056170" lon="13.4795340">
        <ele>477.0</ele>
        <time>2019-08-15T08:38:36Z</time>
      </trkpt>
      <trkpt lat="48.7056060" lon="13.4796140">
        <ele>477.0</ele>
        <time>2019-08-15T08:38:37Z</time>
      </trkpt>
      <trkpt lat="48.7055940" lon="13.4796910">
        <ele>476.8</ele>
        <time>2019-08-15T08:38:38Z</time>
      </trkpt>
      <trkpt lat="48.7055810" lon="13.4797710">
        <ele>476.8</ele>
        <time>2019-08-15T08:38:39Z</time>
      </trkpt>
      <trkpt lat="48.7055710" lon="13.4798500">
        <ele>476.6</ele>
        <time>2019-08-15T08:38:40Z</time>
      </trkpt>
      <trkpt lat="48.7055610" lon="13.4799270">
        <ele>476.6</ele>
        <time>2019-08-15T08:38:41Z</time>
      </trkpt>
      <trkpt lat="48.7055500" lon="13.4800050">
        <ele>476.4</ele>
        <time>2019-08-15T08:38:42Z</time>
      </trkpt>
      <trkpt lat="48.7055380" lon="13.4800820">
        <ele>476.4</ele>
        <time>2019-08-15T08:38:43Z</time>
      </trkpt>
      <trkpt lat="48.7055270" lon="13.4801560">
        <ele>476.2</ele>
        <time>2019-08-15T08:38:44Z</time>
      </trkpt>
      <trkpt lat="48.7055160" lon="13.4802320">
        <ele>476.2</ele>
        <time>2019-08-15T08:38:45Z</time>
      </trkpt>
      <trkpt lat="48.7055040" lon="13.4803090">
        <ele>476.0</ele>
        <time>2019-08-15T08:38:46Z</time>
      </trkpt>
      <trkpt lat="48.7054920" lon="13.4803850">
        <ele>476.0</ele>
        <time>2019-08-15T08:38:47Z</time>
      </trkpt>
      <trkpt lat="48.7054800" lon="13.4804600">
        <ele>476.0</ele>
        <time>2019-08-15T08:38:48Z</time>
      </trkpt>
      <trkpt lat="48.7054670" lon="13.4805320">
        <ele>476.0</ele>
        <time>2019-08-15T08:38:49Z</time>
      </trkpt>
      <trkpt lat="48.7054540" lon="13.4806040">
        <ele>475.8</ele>
        <time>2019-08-15T08:38:50Z</time>
      </trkpt>
      <trkpt lat="48.7054400" lon="13.4806750">
        <ele>475.8</ele>
        <time>2019-08-15T08:38:51Z</time>
      </trkpt>
      <trkpt lat="48.7054270" lon="13.4807480">
        <ele>475.8</ele>
        <time>2019-08-15T08:38:52Z</time>
      </trkpt>
      <trkpt lat="48.7054160" lon="13.4808210">
        <ele>475.8</ele>
        <time>2019-08-15T08:38:53Z</time>
      </trkpt>
      <trkpt lat="48.7054060" lon="13.4808900">
        <ele>475.6</ele>
        <time>2019-08-15T08:38:54Z</time>
      </trkpt>
      <trkpt lat="48.7053930" lon="13.4809580">
        <ele>475.6</ele>
        <time>2019-08-15T08:38:55Z</time>
      </trkpt>
      <trkpt lat="48.7053810" lon="13.4810240">
        <ele>475.6</ele>
        <time>2019-08-15T08:38:56Z</time>
      </trkpt>
      <trkpt lat="48.7053700" lon="13.4810890">
        <ele>475.6</ele>
        <time>2019-08-15T08:38:57Z</time>
      </trkpt>
      <trkpt lat="48.7053570" lon="13.4811530">
        <ele>475.6</ele>
        <time>2019-08-15T08:38:58Z</time>
      </trkpt>
      <trkpt lat="48.7053440" lon="13.4812150">
        <ele>475.6</ele>
        <time>2019-08-15T08:38:59Z</time>
      </trkpt>
      <trkpt lat="48.7053320" lon="13.4812740">
        <ele>475.6</ele>
        <time>2019-08-15T08:39:00Z</time>
      </trkpt>
      <trkpt lat="48.7053210" lon="13.4813320">
        <ele>475.6</ele>
        <time>2019-08-15T08:39:01Z</time>
      </trkpt>
      <trkpt lat="48.7053130" lon="13.4813890">
        <ele>475.4</ele>
        <time>2019-08-15T08:39:02Z</time>
      </trkpt>
      <trkpt lat="48.7053050" lon="13.4814440">
        <ele>475.4</ele>
        <time>2019-08-15T08:39:03Z</time>
      </trkpt>
      <trkpt lat="48.7053000" lon="13.4814960">
        <ele>475.4</ele>
        <time>2019-08-15T08:39:04Z</time>
      </trkpt>
      <trkpt lat="48.7052930" lon="13.4815470">
        <ele>475.4</ele>
        <time>2019-08-15T08:39:05Z</time>
      </trkpt>
      <trkpt lat="48.7052820" lon="13.4815950">
        <ele>475.4</ele>
        <time>2019-08-15T08:39:06Z</time>
      </trkpt>
      <trkpt lat="48.7052710" lon="13.4816430">
        <ele>475.6</ele>
        <time>2019-08-15T08:39:07Z</time>
      </trkpt>
      <trkpt lat="48.7052600" lon="13.4816900">
        <ele>475.6</ele>
        <time>2019-08-15T08:39:08Z</time>
      </trkpt>
      <trkpt lat="48.7052490" lon="13.4817390">
        <ele>475.6</ele>
        <time>2019-08-15T08:39:09Z</time>
      </trkpt>
      <trkpt lat="48.7052390" lon="13.4817870">
        <ele>475.6</ele>
        <time>2019-08-15T08:39:10Z</time>
      </trkpt>
      <trkpt lat="48.7052290" lon="13.4818360">
        <ele>475.6</ele>
        <time>2019-08-15T08:39:11Z</time>
      </trkpt>
      <trkpt lat="48.7052190" lon="13.4818850">
        <ele>475.6</ele>
        <time>2019-08-15T08:39:12Z</time>
      </trkpt>
      <trkpt lat="48.7052110" lon="13.4819340">
        <ele>475.6</ele>
        <time>2019-08-15T08:39:13Z</time>
      </trkpt>
      <trkpt lat="48.7052080" lon="13.4819860">
        <ele>475.6</ele>
        <time>2019-08-15T08:39:14Z</time>
      </trkpt>
      <trkpt lat="48.7052070" lon="13.4820380">
        <ele>475.8</ele>
        <time>2019-08-15T08:39:15Z</time>
      </trkpt>
      <trkpt lat="48.7052020" lon="13.4820890">
        <ele>475.8</ele>
        <time>2019-08-15T08:39:16Z</time>
      </trkpt>
      <trkpt lat="48.7051940" lon="13.4821410">
        <ele>475.8</ele>
        <time>2019-08-15T08:39:17Z</time>
      </trkpt>
      <trkpt lat="48.7051840" lon="13.4821920">
        <ele>475.8</ele>
        <time>2019-08-15T08:39:18Z</time>
      </trkpt>
      <trkpt lat="48.7051740" lon="13.4822410">
        <ele>476.0</ele>
        <time>2019-08-15T08:39:19Z</time>
      </trkpt>
      <trkpt lat="48.7051630" lon="13.4822900">
        <ele>476.0</ele>
        <time>2019-08-15T08:39:20Z</time>
      </trkpt>
      <trkpt lat="48.7051550" lon="13.4823390">
        <ele>476.0</ele>
        <time>2019-08-15T08:39:21Z</time>
      </trkpt>
      <trkpt lat="48.7051500" lon="13.4823890">
        <ele>476.2</ele>
        <time>2019-08-15T08:39:22Z</time>
      </trkpt>
      <trkpt lat="48.7051450" lon="13.4824390">
        <ele>476.2</ele>
        <time>2019-08-15T08:39:23Z</time>
      </trkpt>
      <trkpt lat="48.7051400" lon="13.4824890">
        <ele>476.2</ele>
        <time>2019-08-15T08:39:24Z</time>
      </trkpt>
      <trkpt lat="48.7051330" lon="13.4825410">
        <ele>476.2</ele>
        <time>2019-08-15T08:39:25Z</time>
      </trkpt>
      <trkpt lat="48.7051270" lon="13.4825910">
        <ele>476.2</ele>
        <time>2019-08-15T08:39:26Z</time>
      </trkpt>
      <trkpt lat="48.7051220" lon="13.4826440">
        <ele>476.2</ele>
        <time>2019-08-15T08:39:27Z</time>
      </trkpt>
      <trkpt lat="48.7051150" lon="13.4827000">
        <ele>476.4</ele>
        <time>2019-08-15T08:39:28Z</time>
      </trkpt>
      <trkpt lat="48.7051090" lon="13.4827560">
        <ele>476.6</ele>
        <time>2019-08-15T08:39:29Z</time>
      </trkpt>
      <trkpt lat="48.7051040" lon="13.4828110">
        <ele>476.6</ele>
        <time>2019-08-15T08:39:30Z</time>
      </trkpt>
      <trkpt lat="48.7051000" lon="13.4828700">
        <ele>476.4</ele>
        <time>2019-08-15T08:39:31Z</time>
      </trkpt>
      <trkpt lat="48.7050950" lon="13.4829320">
        <ele>476.4</ele>
        <time>2019-08-15T08:39:32Z</time>
      </trkpt>
      <trkpt lat="48.7050910" lon="13.4829950">
        <ele>476.4</ele>
        <time>2019-08-15T08:39:33Z</time>
      </trkpt>
      <trkpt lat="48.7050880" lon="13.4830600">
        <ele>476.4</ele>
        <time>2019-08-15T08:39:34Z</time>
      </trkpt>
      <trkpt lat="48.7050880" lon="13.4831240">
        <ele>476.4</ele>
        <time>2019-08-15T08:39:35Z</time>
      </trkpt>
      <trkpt lat="48.7050890" lon="13.4831930">
        <ele>476.4</ele>
        <time>2019-08-15T08:39:36Z</time>
      </trkpt>
      <trkpt lat="48.7050910" lon="13.4832600">
        <ele>476.4</ele>
        <time>2019-08-15T08:39:37Z</time>
      </trkpt>
      <trkpt lat="48.7050940" lon="13.4833290">
        <ele>476.2</ele>
        <time>2019-08-15T08:39:38Z</time>
      </trkpt>
      <trkpt lat="48.7050950" lon="13.4834020">
        <ele>476.2</ele>
        <time>2019-08-15T08:39:39Z</time>
      </trkpt>
      <trkpt lat="48.7050970" lon="13.4834760">
        <ele>476.2</ele>
        <time>2019-08-15T08:39:40Z</time>
      </trkpt>
      <trkpt lat="48.7051010" lon="13.4835530">
        <ele>476.0</ele>
        <time>2019-08-15T08:39:41Z</time>
      </trkpt>
      <trkpt lat="48.7051050" lon="13.4836300">
        <ele>476.0</ele>
        <time>2019-08-15T08:39:42Z</time>
      </trkpt>
      <trkpt lat="48.7051070" lon="13.4837100">
        <ele>475.8</ele>
        <time>2019-08-15T08:39:43Z</time>
      </trkpt>
      <trkpt lat="48.7051090" lon="13.4837910">
        <ele>475.8</ele>
        <time>2019-08-15T08:39:44Z</time>
      </trkpt>
      <trkpt lat="48.7051110" lon="13.4838730">
        <ele>475.6</ele>
        <time>2019-08-15T08:39:45Z</time>
      </trkpt>
      <trkpt lat="48.7051170" lon="13.4839540">
        <ele>475.6</ele>
        <time>2019-08-15T08:39:46Z</time>
      </trkpt>
      <trkpt lat="48.7051240" lon="13.4840380">
        <ele>475.4</ele>
        <time>2019-08-15T08:39:47Z</time>
      </trkpt>
      <trkpt lat="48.7051320" lon="13.4841190">
        <ele>475.4</ele>
        <time>2019-08-15T08:39:48Z</time>
      </trkpt>
      <trkpt lat="48.7051440" lon="13.4842010">
        <ele>475.2</ele>
        <time>2019-08-15T08:39:49Z</time>
      </trkpt>
      <trkpt lat="48.7051590" lon="13.4842810">
        <ele>475.2</ele>
        <time>2019-08-15T08:39:50Z</time>
      </trkpt>
      <trkpt lat="48.7051750" lon="13.4843590">
        <ele>475.2</ele>
        <time>2019-08-15T08:39:51Z</time>
      </trkpt>
      <trkpt lat="48.7051970" lon="13.4844350">
        <ele>475.0</ele>
        <time>2019-08-15T08:39:52Z</time>
      </trkpt>
      <trkpt lat="48.7052190" lon="13.4845080">
        <ele>475.0</ele>
        <time>2019-08-15T08:39:53Z</time>
      </trkpt>
      <trkpt lat="48.7052420" lon="13.4845830">
        <ele>475.0</ele>
        <time>2019-08-15T08:39:54Z</time>
      </trkpt>
      <trkpt lat="48.7052650" lon="13.4846550">
        <ele>475.0</ele>
        <time>2019-08-15T08:39:55Z</time>
      </trkpt>
      <trkpt lat="48.7052890" lon="13.4847290">
        <ele>475.0</ele>
        <time>2019-08-15T08:39:56Z</time>
      </trkpt>
      <trkpt lat="48.7053120" lon="13.4848030">
        <ele>475.0</ele>
        <time>2019-08-15T08:39:57Z</time>
      </trkpt>
      <trkpt lat="48.7053360" lon="13.4848750">
        <ele>475.0</ele>
        <time>2019-08-15T08:39:58Z</time>
      </trkpt>
      <trkpt lat="48.7053600" lon="13.4849440">
        <ele>475.0</ele>
        <time>2019-08-15T08:39:59Z</time>
      </trkpt>
      <trkpt lat="48.7053860" lon="13.4850160">
        <ele>475.0</ele>
        <time>2019-08-15T08:40:00Z</time>
      </trkpt>
      <trkpt lat="48.7054130" lon="13.4850850">
        <ele>475.0</ele>
        <time>2019-08-15T08:40:01Z</time>
      </trkpt>
      <trkpt lat="48.7054370" lon="13.4851550">
        <ele>475.0</ele>
        <time>2019-08-15T08:40:02Z</time>
      </trkpt>
      <trkpt lat="48.7054610" lon="13.4852230">
        <ele>475.0</ele>
        <time>2019-08-15T08:40:03Z</time>
      </trkpt>
      <trkpt lat="48.7054870" lon="13.4852880">
        <ele>474.8</ele>
        <time>2019-08-15T08:40:04Z</time>
      </trkpt>
      <trkpt lat="48.7055130" lon="13.4853520">
        <ele>474.8</ele>
        <time>2019-08-15T08:40:05Z</time>
      </trkpt>
      <trkpt lat="48.7055370" lon="13.4854160">
        <ele>474.8</ele>
        <time>2019-08-15T08:40:06Z</time>
      </trkpt>
      <trkpt lat="48.7055600" lon="13.4854810">
        <ele>474.8</ele>
        <time>2019-08-15T08:40:07Z</time>
      </trkpt>
      <trkpt lat="48.7055820" lon="13.4855450">
        <ele>474.6</ele>
        <time>2019-08-15T08:40:08Z</time>
      </trkpt>
      <trkpt lat="48.7056030" lon="13.4856100">
        <ele>474.6</ele>
        <time>2019-08-15T08:40:09Z</time>
      </trkpt>
      <trkpt lat="48.7056260" lon="13.4856750">
        <ele>474.6</ele>
        <time>2019-08-15T08:40:10Z</time>
      </trkpt>
      <trkpt lat="48.7056490" lon="13.4857380">
        <ele>474.6</ele>
        <time>2019-08-15T08:40:11Z</time>
      </trkpt>
      <trkpt lat="48.7056700" lon="13.4857990">
        <ele>474.6</ele>
        <time>2019-08-15T08:40:12Z</time>
      </trkpt>
      <trkpt lat="48.7056920" lon="13.4858650">
        <ele>474.6</ele>
        <time>2019-08-15T08:40:13Z</time>
      </trkpt>
      <trkpt lat="48.7057130" lon="13.4859270">
        <ele>474.6</ele>
        <time>2019-08-15T08:40:14Z</time>
      </trkpt>
      <trkpt lat="48.7057330" lon="13.4859880">
        <ele>474.6</ele>
        <time>2019-08-15T08:40:15Z</time>
      </trkpt>
      <trkpt lat="48.7057530" lon="13.4860490">
        <ele>474.6</ele>
        <time>2019-08-15T08:40:16Z</time>
      </trkpt>
      <trkpt lat="48.7057710" lon="13.4861050">
        <ele>474.8</ele>
        <time>2019-08-15T08:40:17Z</time>
      </trkpt>
      <trkpt lat="48.7057900" lon="13.4861590">
        <ele>474.8</ele>
        <time>2019-08-15T08:40:18Z</time>
      </trkpt>
      <trkpt lat="48.7058070" lon="13.4862110">
        <ele>475.0</ele>
        <time>2019-08-15T08:40:19Z</time>
      </trkpt>
      <trkpt lat="48.7058220" lon="13.4862600">
        <ele>475.0</ele>
        <time>2019-08-15T08:40:20Z</time>
      </trkpt>
      <trkpt lat="48.7058390" lon="13.4863070">
        <ele>475.2</ele>
        <time>2019-08-15T08:40:21Z</time>
      </trkpt>
      <trkpt lat="48.7058550" lon="13.4863520">
        <ele>475.2</ele>
        <time>2019-08-15T08:40:22Z</time>
      </trkpt>
      <trkpt lat="48.7058700" lon="13.4863960">
        <ele>475.4</ele>
        <time>2019-08-15T08:40:23Z</time>
      </trkpt>
      <trkpt lat="48.7058830" lon="13.4864380">
        <ele>475.6</ele>
        <time>2019-08-15T08:40:24Z</time>
      </trkpt>
      <trkpt lat="48.7058950" lon="13.4864760">
        <ele>475.8</ele>
        <time>2019-08-15T08:40:25Z</time>
      </trkpt>
      <trkpt lat="48.7059080" lon="13.4865120">
        <ele>475.8</ele>
        <time>2019-08-15T08:40:26Z</time>
      </trkpt>
      <trkpt lat="48.7059200" lon="13.4865490">
        <ele>476.0</ele>
        <time>2019-08-15T08:40:27Z</time>
      </trkpt>
      <trkpt lat="48.7059330" lon="13.4865840">
        <ele>476.2</ele>
        <time>2019-08-15T08:40:28Z</time>
      </trkpt>
      <trkpt lat="48.7059480" lon="13.4866180">
        <ele>476.4</ele>
        <time>2019-08-15T08:40:29Z</time>
      </trkpt>
      <trkpt lat="48.7059620" lon="13.4866530">
        <ele>476.6</ele>
        <time>2019-08-15T08:40:30Z</time>
      </trkpt>
      <trkpt lat="48.7059750" lon="13.4866890">
        <ele>476.8</ele>
        <time>2019-08-15T08:40:31Z</time>
      </trkpt>
      <trkpt lat="48.7059860" lon="13.4867250">
        <ele>477.0</ele>
        <time>2019-08-15T08:40:32Z</time>
      </trkpt>
      <trkpt lat="48.7060000" lon="13.4867620">
        <ele>477.2</ele>
        <time>2019-08-15T08:40:33Z</time>
      </trkpt>
      <trkpt lat="48.7060130" lon="13.4868010">
        <ele>477.2</ele>
        <time>2019-08-15T08:40:34Z</time>
      </trkpt>
      <trkpt lat="48.7060250" lon="13.4868370">
        <ele>477.4</ele>
        <time>2019-08-15T08:40:35Z</time>
      </trkpt>
      <trkpt lat="48.7060380" lon="13.4868740">
        <ele>477.6</ele>
        <time>2019-08-15T08:40:36Z</time>
      </trkpt>
      <trkpt lat="48.7060500" lon="13.4869120">
        <ele>477.8</ele>
        <time>2019-08-15T08:40:37Z</time>
      </trkpt>
      <trkpt lat="48.7060630" lon="13.4869490">
        <ele>478.0</ele>
        <time>2019-08-15T08:40:38Z</time>
      </trkpt>
      <trkpt lat="48.7060750" lon="13.4869860">
        <ele>478.0</ele>
        <time>2019-08-15T08:40:39Z</time>
      </trkpt>
      <trkpt lat="48.7060880" lon="13.4870240">
        <ele>478.2</ele>
        <time>2019-08-15T08:40:40Z</time>
      </trkpt>
      <trkpt lat="48.7061020" lon="13.4870590">
        <ele>478.4</ele>
        <time>2019-08-15T08:40:41Z</time>
      </trkpt>
      <trkpt lat="48.7061160" lon="13.4870930">
        <ele>478.6</ele>
        <time>2019-08-15T08:40:42Z</time>
      </trkpt>
      <trkpt lat="48.7061300" lon="13.4871300">
        <ele>478.8</ele>
        <time>2019-08-15T08:40:43Z</time>
      </trkpt>
      <trkpt lat="48.7061430" lon="13.4871660">
        <ele>479.0</ele>
        <time>2019-08-15T08:40:44Z</time>
      </trkpt>
      <trkpt lat="48.7061550" lon="13.4872020">
        <ele>479.2</ele>
        <time>2019-08-15T08:40:45Z</time>
      </trkpt>
      <trkpt lat="48.7061660" lon="13.4872390">
        <ele>479.4</ele>
        <time>2019-08-15T08:40:46Z</time>
      </trkpt>
      <trkpt lat="48.7061780" lon="13.4872750">
        <ele>479.6</ele>
        <time>2019-08-15T08:40:47Z</time>
      </trkpt>
      <trkpt lat="48.7061890" lon="13.4873110">
        <ele>479.8</ele>
        <time>2019-08-15T08:40:48Z</time>
      </trkpt>
      <trkpt lat="48.7062010" lon="13.4873450">
        <ele>480.0</ele>
        <time>2019-08-15T08:40:49Z</time>
      </trkpt>
      <trkpt lat="48.7062130" lon="13.4873800">
        <ele>480.2</ele>
        <time>2019-08-15T08:40:50Z</time>
      </trkpt>
      <trkpt lat="48.7062250" lon="13.4874150">
        <ele>480.4</ele>
        <time>2019-08-15T08:40:51Z</time>
      </trkpt>
      <trkpt lat="48.7062380" lon="13.4874490">
        <ele>480.4</ele>
        <time>2019-08-15T08:40:52Z</time>
      </trkpt>
      <trkpt lat="48.7062500" lon="13.4874840">
        <ele>480.6</ele>
        <time>2019-08-15T08:40:53Z</time>
      </trkpt>
      <trkpt lat="48.7062610" lon="13.4875180">
        <ele>480.8</ele>
        <time>2019-08-15T08:40:54Z</time>
      </trkpt>
      <trkpt lat="48.7062740" lon="13.4875530">
        <ele>481.0</ele>
        <time>2019-08-15T08:40:55Z</time>
      </trkpt>
      <trkpt lat="48.7062860" lon="13.4875860">
        <ele>481.2</ele>
        <time>2019-08-15T08:40:56Z</time>
      </trkpt>
      <trkpt lat="48.7062970" lon="13.4876230">
        <ele>481.4</ele>
        <time>2019-08-15T08:40:57Z</time>
      </trkpt>
      <trkpt lat="48.7063100" lon="13.4876580">
        <ele>481.6</ele>
        <time>2019-08-15T08:40:58Z</time>
      </trkpt>
      <trkpt lat="48.7063230" lon="13.4876920">
        <ele>481.8</ele>
        <time>2019-08-15T08:40:59Z</time>
      </trkpt>
      <trkpt lat="48.7063350" lon="13.4877270">
        <ele>482.0</ele>
        <time>2019-08-15T08:41:00Z</time>
      </trkpt>
      <trkpt lat="48.7063480" lon="13.4877620">
        <ele>482.2</ele>
        <time>2019-08-15T08:41:01Z</time>
      </trkpt>
      <trkpt lat="48.7063620" lon="13.4877970">
        <ele>482.2</ele>
        <time>2019-08-15T08:41:02Z</time>
      </trkpt>
      <trkpt lat="48.7063760" lon="13.4878310">
        <ele>482.4</ele>
        <time>2019-08-15T08:41:03Z</time>
      </trkpt>
      <trkpt lat="48.7063890" lon="13.4878620">
        <ele>482.6</ele>
        <time>2019-08-15T08:41:04Z</time>
      </trkpt>
      <trkpt lat="48.7064050" lon="13.4878960">
        <ele>482.8</ele>
        <time>2019-08-15T08:41:05Z</time>
      </trkpt>
      <trkpt lat="48.7064200" lon="13.4879300">
        <ele>483.0</ele>
        <time>2019-08-15T08:41:06Z</time>
      </trkpt>
      <trkpt lat="48.7064330" lon="13.4879630">
        <ele>483.2</ele>
        <time>2019-08-15T08:41:07Z</time>
      </trkpt>
      <trkpt lat="48.7064490" lon="13.4879960">
        <ele>483.4</ele>
        <time>2019-08-15T08:41:08Z</time>
      </trkpt>
      <trkpt lat="48.7064660" lon="13.4880280">
        <ele>483.6</ele>
        <time>2019-08-15T08:41:09Z</time>
      </trkpt>
      <trkpt lat="48.7064820" lon="13.4880590">
        <ele>483.6</ele>
        <time>2019-08-15T08:41:10Z</time>
      </trkpt>
      <trkpt lat="48.7064970" lon="13.4880910">
        <ele>483.8</ele>
        <time>2019-08-15T08:41:11Z</time>
      </trkpt>
      <trkpt lat="48.7065140" lon="13.4881230">
        <ele>484.0</ele>
        <time>2019-08-15T08:41:12Z</time>
      </trkpt>
      <trkpt lat="48.7065290" lon="13.4881540">
        <ele>484.0</ele>
        <time>2019-08-15T08:41:13Z</time>
      </trkpt>
      <trkpt lat="48.7065460" lon="13.4881830">
        <ele>484.2</ele>
        <time>2019-08-15T08:41:14Z</time>
      </trkpt>
      <trkpt lat="48.7065620" lon="13.4882100">
        <ele>484.4</ele>
        <time>2019-08-15T08:41:15Z</time>
      </trkpt>
      <trkpt lat="48.7065770" lon="13.4882350">
        <ele>484.4</ele>
        <time>2019-08-15T08:41:16Z</time>
      </trkpt>
      <trkpt lat="48.7065940" lon="13.4882570">
        <ele>484.6</ele>
        <time>2019-08-15T08:41:17Z</time>
      </trkpt>
      <trkpt lat="48.7066080" lon="13.4882800">
        <ele>484.6</ele>
        <time>2019-08-15T08:41:18Z</time>
      </trkpt>
      <trkpt lat="48.7066220" lon="13.4882990">
        <ele>484.6</ele>
        <time>2019-08-15T08:41:19Z</time>
      </trkpt>
      <trkpt lat="48.7066340" lon="13.4883180">
        <ele>484.8</ele>
        <time>2019-08-15T08:41:20Z</time>
      </trkpt>
      <trkpt lat="48.7066440" lon="13.4883360">
        <ele>484.8</ele>
        <time>2019-08-15T08:41:21Z</time>
      </trkpt>
      <trkpt lat="48.7066540" lon="13.4883510">
        <ele>484.8</ele>
        <time>2019-08-15T08:41:22Z</time>
      </trkpt>
      <trkpt lat="48.7066640" lon="13.4883640">
        <ele>485.0</ele>
        <time>2019-08-15T08:41:23Z</time>
      </trkpt>
      <trkpt lat="48.7066740" lon="13.4883790">
        <ele>485.0</ele>
        <time>2019-08-15T08:41:24Z</time>
      </trkpt>
      <trkpt lat="48.7066820" lon="13.4883950">
        <ele>485.0</ele>
        <time>2019-08-15T08:41:25Z</time>
      </trkpt>
      <trkpt lat="48.7066920" lon="13.4884100">
        <ele>485.0</ele>
        <time>2019-08-15T08:41:26Z</time>
      </trkpt>
      <trkpt lat="48.7067020" lon="13.4884240">
        <ele>485.0</ele>
        <time>2019-08-15T08:41:27Z</time>
      </trkpt>
      <trkpt lat="48.7067070" lon="13.4884410">
        <ele>485.0</ele>
        <time>2019-08-15T08:41:28Z</time>
      </trkpt>
      <trkpt lat="48.7067100" lon="13.4884590">
        <ele>485.2</ele>
        <time>2019-08-15T08:41:29Z</time>
      </trkpt>
      <trkpt lat="48.7067110" lon="13.4884770">
        <ele>485.2</ele>
        <time>2019-08-15T08:41:30Z</time>
      </trkpt>
      <trkpt lat="48.7067090" lon="13.4884930">
        <ele>485.2</ele>
        <time>2019-08-15T08:41:31Z</time>
      </trkpt>
      <trkpt lat="48.7067010" lon="13.4885080">
        <ele>485.2</ele>
        <time>2019-08-15T08:41:32Z</time>
      </trkpt>
      <trkpt lat="48.7066930" lon="13.4885190">
        <ele>485.2</ele>
        <time>2019-08-15T08:41:33Z</time>
      </trkpt>
      <trkpt lat="48.7066830" lon="13.4885270">
        <ele>485.4</ele>
        <time>2019-08-15T08:41:34Z</time>
      </trkpt>
      <trkpt lat="48.7066750" lon="13.4885370">
        <ele>485.4</ele>
        <time>2019-08-15T08:41:35Z</time>
      </trkpt>
      <trkpt lat="48.7066680" lon="13.4885420">
        <ele>485.4</ele>
        <time>2019-08-15T08:41:36Z</time>
      </trkpt>
      <trkpt lat="48.7066680" lon="13.4885420">
        <ele>485.4</ele>
        <time>2019-08-15T08:41:37Z</time>
      </trkpt>
      <trkpt lat="48.7066680" lon="13.4885420">
        <ele>485.4</ele>
        <time>2019-08-15T08:41:38Z</time>
      </trkpt>
      <trkpt lat="48.7066680" lon="13.4885420">
        <ele>485.4</ele>
        <time>2019-08-15T08:41:39Z</time>
      </trkpt>
      <trkpt lat="48.7067830" lon="13.4885320">
        <ele>485.4</ele>
        <time>2019-08-15T08:59:25Z</time>
      </trkpt>
      <trkpt lat="48.7067950" lon="13.4885560">
        <ele>485.4</ele>
        <time>2019-08-15T08:59:26Z</time>
      </trkpt>
      <trkpt lat="48.7068080" lon="13.4885790">
        <ele>485.4</ele>
        <time>2019-08-15T08:59:27Z</time>
      </trkpt>
      <trkpt lat="48.7068220" lon="13.4886020">
        <ele>485.4</ele>
        <time>2019-08-15T08:59:28Z</time>
      </trkpt>
      <trkpt lat="48.7068350" lon="13.4886270">
        <ele>485.4</ele>
        <time>2019-08-15T08:59:29Z</time>
      </trkpt>
      <trkpt lat="48.7068490" lon="13.4886540">
        <ele>485.4</ele>
        <time>2019-08-15T08:59:30Z</time>
      </trkpt>
      <trkpt lat="48.7068680" lon="13.4886800">
        <ele>485.4</ele>
        <time>2019-08-15T08:59:31Z</time>
      </trkpt>
      <trkpt lat="48.7068870" lon="13.4887060">
        <ele>485.4</ele>
        <time>2019-08-15T08:59:32Z</time>
      </trkpt>
      <trkpt lat="48.7069070" lon="13.4887390">
        <ele>485.4</ele>
        <time>2019-08-15T08:59:33Z</time>
      </trkpt>
      <trkpt lat="48.7069290" lon="13.4887710">
        <ele>485.4</ele>
        <time>2019-08-15T08:59:34Z</time>
      </trkpt>
      <trkpt lat="48.7069510" lon="13.4888050">
        <ele>485.4</ele>
        <time>2019-08-15T08:59:35Z</time>
      </trkpt>
      <trkpt lat="48.7069760" lon="13.4888400">
        <ele>485.6</ele>
        <time>2019-08-15T08:59:36Z</time>
      </trkpt>
      <trkpt lat="48.7070010" lon="13.4888770">
        <ele>485.6</ele>
        <time>2019-08-15T08:59:37Z</time>
      </trkpt>
      <trkpt lat="48.7070270" lon="13.4889150">
        <ele>485.6</ele>
        <time>2019-08-15T08:59:38Z</time>
      </trkpt>
      <trkpt lat="48.7070530" lon="13.4889550">
        <ele>485.6</ele>
        <time>2019-08-15T08:59:39Z</time>
      </trkpt>
      <trkpt lat="48.7070790" lon="13.4889940">
        <ele>485.6</ele>
        <time>2019-08-15T08:59:40Z</time>
      </trkpt>
      <trkpt lat="48.7071080" lon="13.4890390">
        <ele>485.6</ele>
        <time>2019-08-15T08:59:41Z</time>
      </trkpt>
      <trkpt lat="48.7071350" lon="13.4890810">
        <ele>485.6</ele>
        <time>2019-08-15T08:59:42Z</time>
      </trkpt>
      <trkpt lat="48.7071630" lon="13.4891260">
        <ele>485.6</ele>
        <time>2019-08-15T08:59:43Z</time>
      </trkpt>
      <trkpt lat="48.7071890" lon="13.4891730">
        <ele>485.6</ele>
        <time>2019-08-15T08:59:44Z</time>
      </trkpt>
      <trkpt lat="48.7072140" lon="13.4892210">
        <ele>485.6</ele>
        <time>2019-08-15T08:59:45Z</time>
      </trkpt>
      <trkpt lat="48.7072390" lon="13.4892700">
        <ele>485.6</ele>
        <time>2019-08-15T08:59:46Z</time>
      </trkpt>
      <trkpt lat="48.7072640" lon="13.4893200">
        <ele>485.6</ele>
        <time>2019-08-15T08:59:47Z</time>
      </trkpt>
      <trkpt lat="48.7072880" lon="13.4893700">
        <ele>485.6</ele>
        <time>2019-08-15T08:59:48Z</time>
      </trkpt>
      <trkpt lat="48.7073100" lon="13.4894220">
        <ele>485.4</ele>
        <time>2019-08-15T08:59:49Z</time>
      </trkpt>
      <trkpt lat="48.7073310" lon="13.4894750">
        <ele>485.4</ele>
        <time>2019-08-15T08:59:50Z</time>
      </trkpt>
      <trkpt lat="48.7073510" lon="13.4895290">
        <ele>485.4</ele>
        <time>2019-08-15T08:59:51Z</time>
      </trkpt>
      <trkpt lat="48.7073710" lon="13.4895850">
        <ele>485.4</ele>
        <time>2019-08-15T08:59:52Z</time>
      </trkpt>
      <trkpt lat="48.7073870" lon="13.4896400">
        <ele>485.4</ele>
        <time>2019-08-15T08:59:53Z</time>
      </trkpt>
      <trkpt lat="48.7074050" lon="13.4896940">
        <ele>485.4</ele>
        <time>2019-08-15T08:59:54Z</time>
      </trkpt>
      <trkpt lat="48.7074260" lon="13.4897450">
        <ele>485.4</ele>
        <time>2019-08-15T08:59:55Z</time>
      </trkpt>
      <trkpt lat="48.7074500" lon="13.4897940">
        <ele>485.4</ele>
        <time>2019-08-15T08:59:56Z</time>
      </trkpt>
      <trkpt lat="48.7074740" lon="13.4898410">
        <ele>485.4</ele>
        <time>2019-08-15T08:59:57Z</time>
      </trkpt>
      <trkpt lat="48.7074970" lon="13.4898850">
        <ele>485.4</ele>
        <time>2019-08-15T08:59:58Z</time>
      </trkpt>
      <trkpt lat="48.7075200" lon="13.4899250">
        <ele>485.4</ele>
        <time>2019-08-15T08:59:59Z</time>
      </trkpt>
      <trkpt lat="48.7075440" lon="13.4899620">
        <ele>485.4</ele>
        <time>2019-08-15T09:00:00Z</time>
      </trkpt>
      <trkpt lat="48.7075660" lon="13.4899980">
        <ele>485.4</ele>
        <time>2019-08-15T09:00:01Z</time>
      </trkpt>
      <trkpt lat="48.7075870" lon="13.4900330">
        <ele>485.4</ele>
        <time>2019-08-15T09:00:02Z</time>
      </trkpt>
      <trkpt lat="48.7076080" lon="13.4900670">
        <ele>485.4</ele>
        <time>2019-08-15T09:00:03Z</time>
      </trkpt>
      <trkpt lat="48.7076270" lon="13.4901020">
        <ele>485.4</ele>
        <time>2019-08-15T09:00:04Z</time>
      </trkpt>
      <trkpt lat="48.7076440" lon="13.4901360">
        <ele>485.4</ele>
        <time>2019-08-15T09:00:05Z</time>
      </trkpt>
      <trkpt lat="48.7076610" lon="13.4901730">
        <ele>485.4</ele>
        <time>2019-08-15T09:00:06Z</time>
      </trkpt>
      <trkpt lat="48.7076790" lon="13.4902140">
        <ele>485.4</ele>
        <time>2019-08-15T09:00:07Z</time>
      </trkpt>
      <trkpt lat="48.7076950" lon="13.4902640">
        <ele>485.4</ele>
        <time>2019-08-15T09:00:08Z</time>
      </trkpt>
      <trkpt lat="48.7077090" lon="13.4903190">
        <ele>485.2</ele>
        <time>2019-08-15T09:00:09Z</time>
      </trkpt>
      <trkpt lat="48.7077230" lon="13.4903780">
        <ele>485.2</ele>
        <time>2019-08-15T09:00:10Z</time>
      </trkpt>
      <trkpt lat="48.7077370" lon="13.4904390">
        <ele>485.2</ele>
        <time>2019-08-15T09:00:11Z</time>
      </trkpt>
      <trkpt lat="48.7077500" lon="13.4905020">
        <ele>485.0</ele>
        <time>2019-08-15T09:00:12Z</time>
      </trkpt>
      <trkpt lat="48.7077630" lon="13.4905700">
        <ele>485.0</ele>
        <time>2019-08-15T09:00:13Z</time>
      </trkpt>
      <trkpt lat="48.7077740" lon="13.4906450">
        <ele>484.8</ele>
        <time>2019-08-15T09:00:14Z</time>
      </trkpt>
      <trkpt lat="48.7077850" lon="13.4907230">
        <ele>484.8</ele>
        <time>2019-08-15T09:00:15Z</time>
      </trkpt>
      <trkpt lat="48.7077980" lon="13.4908030">
        <ele>484.8</ele>
        <time>2019-08-15T09:00:16Z</time>
      </trkpt>
      <trkpt lat="48.7078090" lon="13.4908860">
        <ele>484.6</ele>
        <time>2019-08-15T09:00:17Z</time>
      </trkpt>
      <trkpt lat="48.7078180" lon="13.4909730">
        <ele>484.6</ele>
        <time>2019-08-15T09:00:18Z</time>
      </trkpt>
      <trkpt lat="48.7078320" lon="13.4910610">
        <ele>484.4</ele>
        <time>2019-08-15T09:00:19Z</time>
      </trkpt>
      <trkpt lat="48.7078460" lon="13.4911510">
        <ele>484.2</ele>
        <time>2019-08-15T09:00:20Z</time>
      </trkpt>
      <trkpt lat="48.7078620" lon="13.4912460">
        <ele>484.2</ele>
        <time>2019-08-15T09:00:21Z</time>
      </trkpt>
      <trkpt lat="48.7078770" lon="13.4913370">
        <ele>484.0</ele>
        <time>2019-08-15T09:00:22Z</time>
      </trkpt>
      <trkpt lat="48.7078940" lon="13.4914280">
        <ele>484.0</ele>
        <time>2019-08-15T09:00:23Z</time>
      </trkpt>
      <trkpt lat="48.7079110" lon="13.4915210">
        <ele>483.8</ele>
        <time>2019-08-15T09:00:24Z</time>
      </trkpt>
      <trkpt lat="48.7079320" lon="13.4916190">
        <ele>483.6</ele>
        <time>2019-08-15T09:00:25Z</time>
      </trkpt>
      <trkpt lat="48.7079560" lon="13.4917160">
        <ele>483.6</ele>
        <time>2019-08-15T09:00:26Z</time>
      </trkpt>
      <trkpt lat="48.7079820" lon="13.4918100">
        <ele>483.4</ele>
        <time>2019-08-15T09:00:27Z</time>
      </trkpt>
      <trkpt lat="48.7080100" lon="13.4919060">
        <ele>483.2</ele>
        <time>2019-08-15T09:00:28Z</time>
      </trkpt>
      <trkpt lat="48.7080420" lon="13.4920010">
        <ele>483.0</ele>
        <time>2019-08-15T09:00:29Z</time>
      </trkpt>
      <trkpt lat="48.7080780" lon="13.4920930">
        <ele>482.8</ele>
        <time>2019-08-15T09:00:30Z</time>
      </trkpt>
      <trkpt lat="48.7081180" lon="13.4921810">
        <ele>482.8</ele>
        <time>2019-08-15T09:00:31Z</time>
      </trkpt>
      <trkpt lat="48.7081580" lon="13.4922670">
        <ele>482.8</ele>
        <time>2019-08-15T09:00:32Z</time>
      </trkpt>
      <trkpt lat="48.7081980" lon="13.4923510">
        <ele>482.6</ele>
        <time>2019-08-15T09:00:33Z</time>
      </trkpt>
      <trkpt lat="48.7082370" lon="13.4924340">
        <ele>482.6</ele>
        <time>2019-08-15T09:00:34Z</time>
      </trkpt>
      <trkpt lat="48.7082790" lon="13.4925210">
        <ele>482.4</ele>
        <time>2019-08-15T09:00:35Z</time>
      </trkpt>
      <trkpt lat="48.7083210" lon="13.4926090">
        <ele>482.2</ele>
        <time>2019-08-15T09:00:36Z</time>
      </trkpt>
      <trkpt lat="48.7083630" lon="13.4926990">
        <ele>482.0</ele>
        <time>2019-08-15T09:00:37Z</time>
      </trkpt>
      <trkpt lat="48.7084050" lon="13.4927880">
        <ele>481.6</ele>
        <time>2019-08-15T09:00:38Z</time>
      </trkpt>
      <trkpt lat="48.7084460" lon="13.4928820">
        <ele>481.4</ele>
        <time>2019-08-15T09:00:39Z</time>
      </trkpt>
      <trkpt lat="48.7084830" lon="13.4929880">
        <ele>481.2</ele>
        <time>2019-08-15T09:00:40Z</time>
      </trkpt>
      <trkpt lat="48.7085150" lon="13.4930990">
        <ele>480.8</ele>
        <time>2019-08-15T09:00:41Z</time>
      </trkpt>
      <trkpt lat="48.7085410" lon="13.4932200">
        <ele>480.6</ele>
        <time>2019-08-15T09:00:42Z</time>
      </trkpt>
      <trkpt lat="48.7085650" lon="13.4933450">
        <ele>480.2</ele>
        <time>2019-08-15T09:00:43Z</time>
      </trkpt>
      <trkpt lat="48.7085870" lon="13.4934740">
        <ele>479.8</ele>
        <time>2019-08-15T09:00:44Z</time>
      </trkpt>
      <trkpt lat="48.7086080" lon="13.4936090">
        <ele>479.4</ele>
        <time>2019-08-15T09:00:45Z</time>
      </trkpt>
      <trkpt lat="48.7086290" lon="13.4937570">
        <ele>478.8</ele>
        <time>2019-08-15T09:00:46Z</time>
      </trkpt>
      <trkpt lat="48.7086520" lon="13.4939040">
        <ele>478.4</ele>
        <time>2019-08-15T09:00:47Z</time>
      </trkpt>
      <trkpt lat="48.7086740" lon="13.4940560">
        <ele>477.8</ele>
        <time>2019-08-15T09:00:48Z</time>
      </trkpt>
      <trkpt lat="48.7086970" lon="13.4942110">
        <ele>477.4</ele>
        <time>2019-08-15T09:00:49Z</time>
      </trkpt>
      <trkpt lat="48.7087210" lon="13.4943670">
        <ele>476.8</ele>
        <time>2019-08-15T09:00:50Z</time>
      </trkpt>
      <trkpt lat="48.7087430" lon="13.4945230">
        <ele>476.2</ele>
        <time>2019-08-15T09:00:51Z</time>
      </trkpt>
      <trkpt lat="48.7087650" lon="13.4946790">
        <ele>475.4</ele>
        <time>2019-08-15T09:00:52Z</time>
      </trkpt>
      <trkpt lat="48.7087850" lon="13.4948320">
        <ele>474.6</ele>
        <time>2019-08-15T09:00:53Z</time>
      </trkpt>
      <trkpt lat="48.7088060" lon="13.4949860">
        <ele>473.8</ele>
        <time>2019-08-15T09:00:54Z</time>
      </trkpt>
      <trkpt lat="48.7088310" lon="13.4951450">
        <ele>473.2</ele>
        <time>2019-08-15T09:00:55Z</time>
      </trkpt>
      <trkpt lat="48.7088570" lon="13.4953140">
        <ele>472.6</ele>
        <time>2019-08-15T09:00:56Z</time>
      </trkpt>
      <trkpt lat="48.7088780" lon="13.4954870">
        <ele>471.8</ele>
        <time>2019-08-15T09:00:57Z</time>
      </trkpt>
      <trkpt lat="48.7089010" lon="13.4956580">
        <ele>471.0</ele>
        <time>2019-08-15T09:00:58Z</time>
      </trkpt>
      <trkpt lat="48.7089360" lon="13.4958320">
        <ele>470.0</ele>
        <time>2019-08-15T09:00:59Z</time>
      </trkpt>
      <trkpt lat="48.7089750" lon="13.4960060">
        <ele>468.8</ele>
        <time>2019-08-15T09:01:00Z</time>
      </trkpt>
      <trkpt lat="48.7090190" lon="13.4961850">
        <ele>467.8</ele>
        <time>2019-08-15T09:01:01Z</time>
      </trkpt>
      <trkpt lat="48.7090700" lon="13.4963630">
        <ele>466.4</ele>
        <time>2019-08-15T09:01:02Z</time>
      </trkpt>
      <trkpt lat="48.7091210" lon="13.4965390">
        <ele>465.4</ele>
        <time>2019-08-15T09:01:03Z</time>
      </trkpt>
      <trkpt lat="48.7091750" lon="13.4967240">
        <ele>464.4</ele>
        <time>2019-08-15T09:01:04Z</time>
      </trkpt>
      <trkpt lat="48.7092310" lon="13.4969070">
        <ele>463.4</ele>
        <time>2019-08-15T09:01:05Z</time>
      </trkpt>
      <trkpt lat="48.7092920" lon="13.4970820">
        <ele>462.8</ele>
        <time>2019-08-15T09:01:06Z</time>
      </trkpt>
      <trkpt lat="48.7093590" lon="13.4972450">
        <ele>462.0</ele>
        <time>2019-08-15T09:01:07Z</time>
      </trkpt>
      <trkpt lat="48.7094300" lon="13.4974000">
        <ele>461.2</ele>
        <time>2019-08-15T09:01:08Z</time>
      </trkpt>
      <trkpt lat="48.7095060" lon="13.4975430">
        <ele>460.8</ele>
        <time>2019-08-15T09:01:09Z</time>
      </trkpt>
      <trkpt lat="48.7095860" lon="13.4976840">
        <ele>460.0</ele>
        <time>2019-08-15T09:01:10Z</time>
      </trkpt>
      <trkpt lat="48.7096610" lon="13.4978160">
        <ele>459.6</ele>
        <time>2019-08-15T09:01:11Z</time>
      </trkpt>
      <trkpt lat="48.7097350" lon="13.4979400">
        <ele>459.2</ele>
        <time>2019-08-15T09:01:12Z</time>
      </trkpt>
      <trkpt lat="48.7098050" lon="13.4980570">
        <ele>458.8</ele>
        <time>2019-08-15T09:01:13Z</time>
      </trkpt>
      <trkpt lat="48.7098680" lon="13.4981710">
        <ele>458.6</ele>
        <time>2019-08-15T09:01:14Z</time>
      </trkpt>
      <trkpt lat="48.7099310" lon="13.4982860">
        <ele>458.6</ele>
        <time>2019-08-15T09:01:15Z</time>
      </trkpt>
      <trkpt lat="48.7099860" lon="13.4983900">
        <ele>458.8</ele>
        <time>2019-08-15T09:01:16Z</time>
      </trkpt>
      <trkpt lat="48.7100350" lon="13.4984850">
        <ele>459.0</ele>
        <time>2019-08-15T09:01:17Z</time>
      </trkpt>
      <trkpt lat="48.7100820" lon="13.4985680">
        <ele>459.4</ele>
        <time>2019-08-15T09:01:18Z</time>
      </trkpt>
      <trkpt lat="48.7101310" lon="13.4986420">
        <ele>459.6</ele>
        <time>2019-08-15T09:01:19Z</time>
      </trkpt>
      <trkpt lat="48.7101760" lon="13.4987110">
        <ele>459.8</ele>
        <time>2019-08-15T09:01:20Z</time>
      </trkpt>
      <trkpt lat="48.7102110" lon="13.4987760">
        <ele>460.0</ele>
        <time>2019-08-15T09:01:21Z</time>
      </trkpt>
      <trkpt lat="48.7102440" lon="13.4988330">
        <ele>460.4</ele>
        <time>2019-08-15T09:01:22Z</time>
      </trkpt>
      <trkpt lat="48.7102730" lon="13.4988860">
        <ele>460.6</ele>
        <time>2019-08-15T09:01:23Z</time>
      </trkpt>
      <trkpt lat="48.7103040" lon="13.4989360">
        <ele>461.0</ele>
        <time>2019-08-15T09:01:24Z</time>
      </trkpt>
      <trkpt lat="48.7103360" lon="13.4989810">
        <ele>461.2</ele>
        <time>2019-08-15T09:01:25Z</time>
      </trkpt>
      <trkpt lat="48.7103690" lon="13.4990210">
        <ele>461.6</ele>
        <time>2019-08-15T09:01:26Z</time>
      </trkpt>
      <trkpt lat="48.7103970" lon="13.4990530">
        <ele>461.8</ele>
        <time>2019-08-15T09:01:27Z</time>
      </trkpt>
      <trkpt lat="48.7104250" lon="13.4990790">
        <ele>462.0</ele>
        <time>2019-08-15T09:01:28Z</time>
      </trkpt>
      <trkpt lat="48.7104550" lon="13.4991050">
        <ele>462.2</ele>
        <time>2019-08-15T09:01:29Z</time>
      </trkpt>
      <trkpt lat="48.7104840" lon="13.4991260">
        <ele>462.4</ele>
        <time>2019-08-15T09:01:30Z</time>
      </trkpt>
      <trkpt lat="48.7105170" lon="13.4991440">
        <ele>462.4</ele>
        <time>2019-08-15T09:01:31Z</time>
      </trkpt>
      <trkpt lat="48.7105600" lon="13.4991630">
        <ele>462.6</ele>
        <time>2019-08-15T09:01:32Z</time>
      </trkpt>
      <trkpt lat="48.7106050" lon="13.4991820">
        <ele>462.6</ele>
        <time>2019-08-15T09:01:33Z</time>
      </trkpt>
      <trkpt lat="48.7106560" lon="13.4992040">
        <ele>462.8</ele>
        <time>2019-08-15T09:01:34Z</time>
      </trkpt>
      <trkpt lat="48.7107080" lon="13.4992250">
        <ele>462.8</ele>
        <time>2019-08-15T09:01:35Z</time>
      </trkpt>
      <trkpt lat="48.7107600" lon="13.4992400">
        <ele>462.8</ele>
        <time>2019-08-15T09:01:36Z</time>
      </trkpt>
      <trkpt lat="48.7108140" lon="13.4992590">
        <ele>463.0</ele>
        <time>2019-08-15T09:01:37Z</time>
      </trkpt>
      <trkpt lat="48.7108650" lon="13.4992810">
        <ele>463.0</ele>
        <time>2019-08-15T09:01:38Z</time>
      </trkpt>
      <trkpt lat="48.7109120" lon="13.4993010">
        <ele>463.0</ele>
        <time>2019-08-15T09:01:39Z</time>
      </trkpt>
      <trkpt lat="48.7109610" lon="13.4993200">
        <ele>463.2</ele>
        <time>2019-08-15T09:01:40Z</time>
      </trkpt>
      <trkpt lat="48.7110080" lon="13.4993340">
        <ele>463.2</ele>
        <time>2019-08-15T09:01:41Z</time>
      </trkpt>
      <trkpt lat="48.7110510" lon="13.4993400">
        <ele>463.2</ele>
        <time>2019-08-15T09:01:42Z</time>
      </trkpt>
      <trkpt lat="48.7110930" lon="13.4993400">
        <ele>463.2</ele>
        <time>2019-08-15T09:01:43Z</time>
      </trkpt>
      <trkpt lat="48.7111360" lon="13.4993490">
        <ele>463.2</ele>
        <time>2019-08-15T09:01:44Z</time>
      </trkpt>
      <trkpt lat="48.7111790" lon="13.4993590">
        <ele>463.4</ele>
        <time>2019-08-15T09:01:45Z</time>
      </trkpt>
      <trkpt lat="48.7112220" lon="13.4993690">
        <ele>463.4</ele>
        <time>2019-08-15T09:01:46Z</time>
      </trkpt>
      <trkpt lat="48.7112640" lon="13.4993860">
        <ele>463.4</ele>
        <time>2019-08-15T09:01:47Z</time>
      </trkpt>
      <trkpt lat="48.7113070" lon="13.4994180">
        <ele>463.6</ele>
        <time>2019-08-15T09:01:48Z</time>
      </trkpt>
      <trkpt lat="48.7113490" lon="13.4994520">
        <ele>463.6</ele>
        <time>2019-08-15T09:01:49Z</time>
      </trkpt>
      <trkpt lat="48.7113900" lon="13.4994850">
        <ele>463.6</ele>
        <time>2019-08-15T09:01:50Z</time>
      </trkpt>
      <trkpt lat="48.7114320" lon="13.4995170">
        <ele>463.8</ele>
        <time>2019-08-15T09:01:51Z</time>
      </trkpt>
      <trkpt lat="48.7114730" lon="13.4995470">
        <ele>463.8</ele>
        <time>2019-08-15T09:01:52Z</time>
      </trkpt>
      <trkpt lat="48.7115150" lon="13.4995830">
        <ele>464.0</ele>
        <time>2019-08-15T09:01:53Z</time>
      </trkpt>
      <trkpt lat="48.7115590" lon="13.4996220">
        <ele>464.0</ele>
        <time>2019-08-15T09:01:54Z</time>
      </trkpt>
      <trkpt lat="48.7116000" lon="13.4996560">
        <ele>464.2</ele>
        <time>2019-08-15T09:01:55Z</time>
      </trkpt>
      <trkpt lat="48.7116380" lon="13.4996890">
        <ele>464.2</ele>
        <time>2019-08-15T09:01:56Z</time>
      </trkpt>
      <trkpt lat="48.7116730" lon="13.4997250">
        <ele>464.4</ele>
        <time>2019-08-15T09:01:57Z</time>
      </trkpt>
      <trkpt lat="48.7117030" lon="13.4997590">
        <ele>464.6</ele>
        <time>2019-08-15T09:01:58Z</time>
      </trkpt>
      <trkpt lat="48.7117280" lon="13.4997900">
        <ele>464.6</ele>
        <time>2019-08-15T09:01:59Z</time>
      </trkpt>
      <trkpt lat="48.7117490" lon="13.4998190">
        <ele>464.8</ele>
        <time>2019-08-15T09:02:00Z</time>
      </trkpt>
      <trkpt lat="48.7117750" lon="13.4998550">
        <ele>465.0</ele>
        <time>2019-08-15T09:02:01Z</time>
      </trkpt>
      <trkpt lat="48.7118000" lon="13.4998900">
        <ele>465.0</ele>
        <time>2019-08-15T09:02:02Z</time>
      </trkpt>
      <trkpt lat="48.7118270" lon="13.4999240">
        <ele>465.2</ele>
        <time>2019-08-15T09:02:03Z</time>
      </trkpt>
      <trkpt lat="48.7118550" lon="13.4999570">
        <ele>465.4</ele>
        <time>2019-08-15T09:02:04Z</time>
      </trkpt>
      <trkpt lat="48.7118820" lon="13.4999910">
        <ele>465.4</ele>
        <time>2019-08-15T09:02:05Z</time>
      </trkpt>
      <trkpt lat="48.7119070" lon="13.5000280">
        <ele>465.6</ele>
        <time>2019-08-15T09:02:06Z</time>
      </trkpt>
      <trkpt lat="48.7119310" lon="13.5000650">
        <ele>465.8</ele>
        <time>2019-08-15T09:02:07Z</time>
      </trkpt>
      <trkpt lat="48.7119570" lon="13.5000980">
        <ele>466.0</ele>
        <time>2019-08-15T09:02:08Z</time>
      </trkpt>
      <trkpt lat="48.7119840" lon="13.5001300">
        <ele>466.0</ele>
        <time>2019-08-15T09:02:09Z</time>
      </trkpt>
      <trkpt lat="48.7120090" lon="13.5001660">
        <ele>466.2</ele>
        <time>2019-08-15T09:02:10Z</time>
      </trkpt>
      <trkpt lat="48.7120350" lon="13.5002010">
        <ele>466.4</ele>
        <time>2019-08-15T09:02:11Z</time>
      </trkpt>
      <trkpt lat="48.7120610" lon="13.5002340">
        <ele>466.6</ele>
        <time>2019-08-15T09:02:12Z</time>
      </trkpt>
      <trkpt lat="48.7120870" lon="13.5002700">
        <ele>466.6</ele>
        <time>2019-08-15T09:02:13Z</time>
      </trkpt>
      <trkpt lat="48.7121100" lon="13.5003040">
        <ele>466.8</ele>
        <time>2019-08-15T09:02:14Z</time>
      </trkpt>
      <trkpt lat="48.7121370" lon="13.5003420">
        <ele>467.0</ele>
        <time>2019-08-15T09:02:15Z</time>
      </trkpt>
      <trkpt lat="48.7121650" lon="13.5003760">
        <ele>467.2</ele>
        <time>2019-08-15T09:02:16Z</time>
      </trkpt>
      <trkpt lat="48.7121950" lon="13.5004130">
        <ele>467.4</ele>
        <time>2019-08-15T09:02:17Z</time>
      </trkpt>
      <trkpt lat="48.7122250" lon="13.5004480">
        <ele>467.4</ele>
        <time>2019-08-15T09:02:18Z</time>
      </trkpt>
      <trkpt lat="48.7122510" lon="13.5004870">
        <ele>467.6</ele>
        <time>2019-08-15T09:02:19Z</time>
      </trkpt>
      <trkpt lat="48.7122790" lon="13.5005260">
        <ele>467.8</ele>
        <time>2019-08-15T09:02:20Z</time>
      </trkpt>
      <trkpt lat="48.7123110" lon="13.5005670">
        <ele>468.0</ele>
        <time>2019-08-15T09:02:21Z</time>
      </trkpt>
      <trkpt lat="48.7123440" lon="13.5006090">
        <ele>468.2</ele>
        <time>2019-08-15T09:02:22Z</time>
      </trkpt>
      <trkpt lat="48.7123750" lon="13.5006540">
        <ele>468.2</ele>
        <time>2019-08-15T09:02:23Z</time>
      </trkpt>
      <trkpt lat="48.7124040" lon="13.5006990">
        <ele>468.4</ele>
        <time>2019-08-15T09:02:24Z</time>
      </trkpt>
      <trkpt lat="48.7124300" lon="13.5007410">
        <ele>468.6</ele>
        <time>2019-08-15T09:02:25Z</time>
      </trkpt>
      <trkpt lat="48.7124580" lon="13.5007830">
        <ele>468.6</ele>
        <time>2019-08-15T09:02:26Z</time>
      </trkpt>
      <trkpt lat="48.7124870" lon="13.5008250">
        <ele>468.8</ele>
        <time>2019-08-15T09:02:27Z</time>
      </trkpt>
      <trkpt lat="48.7125170" lon="13.5008660">
        <ele>469.0</ele>
        <time>2019-08-15T09:02:28Z</time>
      </trkpt>
      <trkpt lat="48.7125450" lon="13.5009060">
        <ele>469.2</ele>
        <time>2019-08-15T09:02:29Z</time>
      </trkpt>
      <trkpt lat="48.7125730" lon="13.5009450">
        <ele>469.2</ele>
        <time>2019-08-15T09:02:30Z</time>
      </trkpt>
      <trkpt lat="48.7126020" lon="13.5009820">
        <ele>469.4</ele>
        <time>2019-08-15T09:02:31Z</time>
      </trkpt>
      <trkpt lat="48.7126290" lon="13.5010200">
        <ele>469.6</ele>
        <time>2019-08-15T09:02:32Z</time>
      </trkpt>
      <trkpt lat="48.7126540" lon="13.5010560">
        <ele>469.8</ele>
        <time>2019-08-15T09:02:33Z</time>
      </trkpt>
      <trkpt lat="48.7126770" lon="13.5010910">
        <ele>469.8</ele>
        <time>2019-08-15T09:02:34Z</time>
      </trkpt>
      <trkpt lat="48.7127000" lon="13.5011270">
        <ele>470.0</ele>
        <time>2019-08-15T09:02:35Z</time>
      </trkpt>
      <trkpt lat="48.7127240" lon="13.5011660">
        <ele>470.0</ele>
        <time>2019-08-15T09:02:36Z</time>
      </trkpt>
      <trkpt lat="48.7127500" lon="13.5012040">
        <ele>470.2</ele>
        <time>2019-08-15T09:02:37Z</time>
      </trkpt>
      <trkpt lat="48.7127760" lon="13.5012410">
        <ele>470.2</ele>
        <time>2019-08-15T09:02:38Z</time>
      </trkpt>
      <trkpt lat="48.7127980" lon="13.5012780">
        <ele>470.4</ele>
        <time>2019-08-15T09:02:39Z</time>
      </trkpt>
      <trkpt lat="48.7128200" lon="13.5013160">
        <ele>470.4</ele>
        <time>2019-08-15T09:02:40Z</time>
      </trkpt>
      <trkpt lat="48.7128420" lon="13.5013530">
        <ele>470.6</ele>
        <time>2019-08-15T09:02:41Z</time>
      </trkpt>
      <trkpt lat="48.7128650" lon="13.5013910">
        <ele>470.6</ele>
        <time>2019-08-15T09:02:42Z</time>
      </trkpt>
      <trkpt lat="48.7128880" lon="13.5014290">
        <ele>470.6</ele>
        <time>2019-08-15T09:02:43Z</time>
      </trkpt>
      <trkpt lat="48.7129100" lon="13.5014680">
        <ele>470.6</ele>
        <time>2019-08-15T09:02:44Z</time>
      </trkpt>
      <trkpt lat="48.7129310" lon="13.5015080">
        <ele>470.8</ele>
        <time>2019-08-15T09:02:45Z</time>
      </trkpt>
      <trkpt lat="48.7129510" lon="13.5015450">
        <ele>470.8</ele>
        <time>2019-08-15T09:02:46Z</time>
      </trkpt>
      <trkpt lat="48.7129690" lon="13.5015810">
        <ele>470.8</ele>
        <time>2019-08-15T09:02:47Z</time>
      </trkpt>
      <trkpt lat="48.7129880" lon="13.5016170">
        <ele>471.0</ele>
        <time>2019-08-15T09:02:48Z</time>
      </trkpt>
      <trkpt lat="48.7130080" lon="13.5016530">
        <ele>471.0</ele>
        <time>2019-08-15T09:02:49Z</time>
      </trkpt>
      <trkpt lat="48.7130260" lon="13.5016900">
        <ele>471.0</ele>
        <time>2019-08-15T09:02:50Z</time>
      </trkpt>
      <trkpt lat="48.7130430" lon="13.5017270">
        <ele>471.0</ele>
        <time>2019-08-15T09:02:51Z</time>
      </trkpt>
      <trkpt lat="48.7130630" lon="13.5017660">
        <ele>471.0</ele>
        <time>2019-08-15T09:02:52Z</time>
      </trkpt>
      <trkpt lat="48.7130830" lon="13.5018040">
        <ele>471.0</ele>
        <time>2019-08-15T09:02:53Z</time>
      </trkpt>
      <trkpt lat="48.7131000" lon="13.5018400">
        <ele>471.0</ele>
        <time>2019-08-15T09:02:54Z</time>
      </trkpt>
      <trkpt lat="48.7131170" lon="13.5018750">
        <ele>471.0</ele>
        <time>2019-08-15T09:02:55Z</time>
      </trkpt>
      <trkpt lat="48.7131320" lon="13.5019110">
        <ele>471.2</ele>
        <time>2019-08-15T09:02:56Z</time>
      </trkpt>
      <trkpt lat="48.7131490" lon="13.5019450">
        <ele>471.2</ele>
        <time>2019-08-15T09:02:57Z</time>
      </trkpt>
      <trkpt lat="48.7131630" lon="13.5019800">
        <ele>471.2</ele>
        <time>2019-08-15T09:02:58Z</time>
      </trkpt>
      <trkpt lat="48.7131770" lon="13.5020160">
        <ele>471.2</ele>
        <time>2019-08-15T09:02:59Z</time>
      </trkpt>
      <trkpt lat="48.7131890" lon="13.5020550">
        <ele>471.0</ele>
        <time>2019-08-15T09:03:00Z</time>
      </trkpt>
      <trkpt lat="48.7132020" lon="13.5020950">
        <ele>471.0</ele>
        <time>2019-08-15T09:03:01Z</time>
      </trkpt>
      <trkpt lat="48.7132150" lon="13.5021370">
        <ele>471.0</ele>
        <time>2019-08-15T09:03:02Z</time>
      </trkpt>
      <trkpt lat="48.7132320" lon="13.5021820">
        <ele>471.0</ele>
        <time>2019-08-15T09:03:03Z</time>
      </trkpt>
      <trkpt lat="48.7132500" lon="13.5022280">
        <ele>470.8</ele>
        <time>2019-08-15T09:03:04Z</time>
      </trkpt>
      <trkpt lat="48.7132700" lon="13.5022770">
        <ele>470.8</ele>
        <time>2019-08-15T09:03:05Z</time>
      </trkpt>
      <trkpt lat="48.7132900" lon="13.5023280">
        <ele>470.6</ele>
        <time>2019-08-15T09:03:06Z</time>
      </trkpt>
      <trkpt lat="48.7133090" lon="13.5023850">
        <ele>470.6</ele>
        <time>2019-08-15T09:03:07Z</time>
      </trkpt>
      <trkpt lat="48.7133280" lon="13.5024500">
        <ele>470.6</ele>
        <time>2019-08-15T09:03:08Z</time>
      </trkpt>
      <trkpt lat="48.7133460" lon="13.5025200">
        <ele>470.4</ele>
        <time>2019-08-15T09:03:09Z</time>
      </trkpt>
      <trkpt lat="48.7133640" lon="13.5026000">
        <ele>470.4</ele>
        <time>2019-08-15T09:03:10Z</time>
      </trkpt>
      <trkpt lat="48.7133810" lon="13.5026870">
        <ele>470.2</ele>
        <time>2019-08-15T09:03:11Z</time>
      </trkpt>
      <trkpt lat="48.7133990" lon="13.5027790">
        <ele>470.0</ele>
        <time>2019-08-15T09:03:12Z</time>
      </trkpt>
      <trkpt lat="48.7134200" lon="13.5028870">
        <ele>469.6</ele>
        <time>2019-08-15T09:03:13Z</time>
      </trkpt>
      <trkpt lat="48.7134400" lon="13.5029960">
        <ele>469.0</ele>
        <time>2019-08-15T09:03:14Z</time>
      </trkpt>
      <trkpt lat="48.7134610" lon="13.5031130">
        <ele>468.6</ele>
        <time>2019-08-15T09:03:15Z</time>
      </trkpt>
      <trkpt lat="48.7134800" lon="13.5032420">
        <ele>467.8</ele>
        <time>2019-08-15T09:03:16Z</time>
      </trkpt>
      <trkpt lat="48.7134920" lon="13.5033800">
        <ele>467.2</ele>
        <time>2019-08-15T09:03:17Z</time>
      </trkpt>
      <trkpt lat="48.7135010" lon="13.5035330">
        <ele>466.4</ele>
        <time>2019-08-15T09:03:18Z</time>
      </trkpt>
      <trkpt lat="48.7135040" lon="13.5036940">
        <ele>465.4</ele>
        <time>2019-08-15T09:03:19Z</time>
      </trkpt>
      <trkpt lat="48.7135050" lon="13.5038650">
        <ele>464.4</ele>
        <time>2019-08-15T09:03:20Z</time>
      </trkpt>
      <trkpt lat="48.7135070" lon="13.5040450">
        <ele>463.4</ele>
        <time>2019-08-15T09:03:21Z</time>
      </trkpt>
      <trkpt lat="48.7135090" lon="13.5042320">
        <ele>462.2</ele>
        <time>2019-08-15T09:03:22Z</time>
      </trkpt>
      <trkpt lat="48.7135150" lon="13.5044210">
        <ele>461.0</ele>
        <time>2019-08-15T09:03:23Z</time>
      </trkpt>
      <trkpt lat="48.7135220" lon="13.5046240">
        <ele>459.8</ele>
        <time>2019-08-15T09:03:24Z</time>
      </trkpt>
      <trkpt lat="48.7135340" lon="13.5048340">
        <ele>458.4</ele>
        <time>2019-08-15T09:03:25Z</time>
      </trkpt>
      <trkpt lat="48.7135490" lon="13.5050410">
        <ele>457.0</ele>
        <time>2019-08-15T09:03:26Z</time>
      </trkpt>
      <trkpt lat="48.7135700" lon="13.5052460">
        <ele>455.6</ele>
        <time>2019-08-15T09:03:27Z</time>
      </trkpt>
      <trkpt lat="48.7135970" lon="13.5054530">
        <ele>454.4</ele>
        <time>2019-08-15T09:03:28Z</time>
      </trkpt>
      <trkpt lat="48.7136320" lon="13.5056620">
        <ele>453.6</ele>
        <time>2019-08-15T09:03:29Z</time>
      </trkpt>
      <trkpt lat="48.7136800" lon="13.5058720">
        <ele>452.8</ele>
        <time>2019-08-15T09:03:30Z</time>
      </trkpt>
      <trkpt lat="48.7137390" lon="13.5060760">
        <ele>451.6</ele>
        <time>2019-08-15T09:03:31Z</time>
      </trkpt>
      <trkpt lat="48.7138060" lon="13.5062780">
        <ele>450.6</ele>
        <time>2019-08-15T09:03:32Z</time>
      </trkpt>
      <trkpt lat="48.7138780" lon="13.5064770">
        <ele>449.8</ele>
        <time>2019-08-15T09:03:33Z</time>
      </trkpt>
      <trkpt lat="48.7139540" lon="13.5066790">
        <ele>448.8</ele>
        <time>2019-08-15T09:03:34Z</time>
      </trkpt>
      <trkpt lat="48.7140300" lon="13.5068780">
        <ele>448.0</ele>
        <time>2019-08-15T09:03:35Z</time>
      </trkpt>
      <trkpt lat="48.7141050" lon="13.5070780">
        <ele>447.0</ele>
        <time>2019-08-15T09:03:36Z</time>
      </trkpt>
      <trkpt lat="48.7141790" lon="13.5072740">
        <ele>446.0</ele>
        <time>2019-08-15T09:03:37Z</time>
      </trkpt>
      <trkpt lat="48.7142510" lon="13.5074640">
        <ele>445.0</ele>
        <time>2019-08-15T09:03:38Z</time>
      </trkpt>
      <trkpt lat="48.7143230" lon="13.5076470">
        <ele>444.0</ele>
        <time>2019-08-15T09:03:39Z</time>
      </trkpt>
      <trkpt lat="48.7143930" lon="13.5078250">
        <ele>443.2</ele>
        <time>2019-08-15T09:03:40Z</time>
      </trkpt>
      <trkpt lat="48.7144600" lon="13.5079950">
        <ele>442.6</ele>
        <time>2019-08-15T09:03:41Z</time>
      </trkpt>
      <trkpt lat="48.7145250" lon="13.5081640">
        <ele>442.4</ele>
        <time>2019-08-15T09:03:42Z</time>
      </trkpt>
      <trkpt lat="48.7145830" lon="13.5083270">
        <ele>442.2</ele>
        <time>2019-08-15T09:03:43Z</time>
      </trkpt>
      <trkpt lat="48.7146350" lon="13.5084850">
        <ele>442.2</ele>
        <time>2019-08-15T09:03:44Z</time>
      </trkpt>
      <trkpt lat="48.7146850" lon="13.5086360">
        <ele>442.0</ele>
        <time>2019-08-15T09:03:45Z</time>
      </trkpt>
      <trkpt lat="48.7147320" lon="13.5087800">
        <ele>442.0</ele>
        <time>2019-08-15T09:03:46Z</time>
      </trkpt>
      <trkpt lat="48.7147740" lon="13.5089210">
        <ele>442.0</ele>
        <time>2019-08-15T09:03:47Z</time>
      </trkpt>
      <trkpt lat="48.7148110" lon="13.5090510">
        <ele>442.0</ele>
        <time>2019-08-15T09:03:48Z</time>
      </trkpt>
      <trkpt lat="48.7148480" lon="13.5091680">
        <ele>442.0</ele>
        <time>2019-08-15T09:03:49Z</time>
      </trkpt>
      <trkpt lat="48.7148790" lon="13.5092760">
        <ele>442.2</ele>
        <time>2019-08-15T09:03:50Z</time>
      </trkpt>
      <trkpt lat="48.7149070" lon="13.5093750">
        <ele>442.4</ele>
        <time>2019-08-15T09:03:51Z</time>
      </trkpt>
      <trkpt lat="48.7149300" lon="13.5094650">
        <ele>442.6</ele>
        <time>2019-08-15T09:03:52Z</time>
      </trkpt>
      <trkpt lat="48.7149510" lon="13.5095480">
        <ele>442.6</ele>
        <time>2019-08-15T09:03:53Z</time>
      </trkpt>
      <trkpt lat="48.7149710" lon="13.5096270">
        <ele>443.0</ele>
        <time>2019-08-15T09:03:54Z</time>
      </trkpt>
      <trkpt lat="48.7149870" lon="13.5096980">
        <ele>443.2</ele>
        <time>2019-08-15T09:03:55Z</time>
      </trkpt>
      <trkpt lat="48.7150030" lon="13.5097620">
        <ele>443.4</ele>
        <time>2019-08-15T09:03:56Z</time>
      </trkpt>
      <trkpt lat="48.7150170" lon="13.5098190">
        <ele>443.8</ele>
        <time>2019-08-15T09:03:57Z</time>
      </trkpt>
      <trkpt lat="48.7150320" lon="13.5098720">
        <ele>444.0</ele>
        <time>2019-08-15T09:03:58Z</time>
      </trkpt>
      <trkpt lat="48.7150460" lon="13.5099210">
        <ele>444.4</ele>
        <time>2019-08-15T09:03:59Z</time>
      </trkpt>
      <trkpt lat="48.7150580" lon="13.5099660">
        <ele>444.6</ele>
        <time>2019-08-15T09:04:00Z</time>
      </trkpt>
      <trkpt lat="48.7150730" lon="13.5100060">
        <ele>444.8</ele>
        <time>2019-08-15T09:04:01Z</time>
      </trkpt>
      <trkpt lat="48.7150860" lon="13.5100460">
        <ele>445.0</ele>
        <time>2019-08-15T09:04:02Z</time>
      </trkpt>
      <trkpt lat="48.7150970" lon="13.5100850">
        <ele>445.2</ele>
        <time>2019-08-15T09:04:03Z</time>
      </trkpt>
      <trkpt lat="48.7151070" lon="13.5101230">
        <ele>445.4</ele>
        <time>2019-08-15T09:04:04Z</time>
      </trkpt>
      <trkpt lat="48.7151150" lon="13.5101630">
        <ele>445.6</ele>
        <time>2019-08-15T09:04:05Z</time>
      </trkpt>
      <trkpt lat="48.7151240" lon="13.5102010">
        <ele>445.8</ele>
        <time>2019-08-15T09:04:06Z</time>
      </trkpt>
      <trkpt lat="48.7151340" lon="13.5102390">
        <ele>446.0</ele>
        <time>2019-08-15T09:04:07Z</time>
      </trkpt>
      <trkpt lat="48.7151460" lon="13.5102750">
        <ele>446.2</ele>
        <time>2019-08-15T09:04:08Z</time>
      </trkpt>
      <trkpt lat="48.7151570" lon="13.5103100">
        <ele>446.4</ele>
        <time>2019-08-15T09:04:09Z</time>
      </trkpt>
      <trkpt lat="48.7151670" lon="13.5103450">
        <ele>446.6</ele>
        <time>2019-08-15T09:04:10Z</time>
      </trkpt>
      <trkpt lat="48.7151820" lon="13.5103960">
        <ele>446.8</ele>
        <time>2019-08-15T09:04:11Z</time>
      </trkpt>
      <trkpt lat="48.7151870" lon="13.5104130">
        <ele>447.0</ele>
        <time>2019-08-15T09:04:12Z</time>
      </trkpt>
      <trkpt lat="48.7151970" lon="13.5104500">
        <ele>447.2</ele>
        <time>2019-08-15T09:04:13Z</time>
      </trkpt>
      <trkpt lat="48.7152060" lon="13.5104850">
        <ele>447.4</ele>
        <time>2019-08-15T09:04:14Z</time>
      </trkpt>
      <trkpt lat="48.7152150" lon="13.5105190">
        <ele>447.6</ele>
        <time>2019-08-15T09:04:15Z</time>
      </trkpt>
      <trkpt lat="48.7152230" lon="13.5105540">
        <ele>447.8</ele>
        <time>2019-08-15T09:04:16Z</time>
      </trkpt>
      <trkpt lat="48.7152300" lon="13.5105890">
        <ele>448.0</ele>
        <time>2019-08-15T09:04:17Z</time>
      </trkpt>
      <trkpt lat="48.7152370" lon="13.5106210">
        <ele>448.2</ele>
        <time>2019-08-15T09:04:18Z</time>
      </trkpt>
      <trkpt lat="48.7152430" lon="13.5106510">
        <ele>448.4</ele>
        <time>2019-08-15T09:04:19Z</time>
      </trkpt>
      <trkpt lat="48.7152500" lon="13.5106790">
        <ele>448.6</ele>
        <time>2019-08-15T09:04:20Z</time>
      </trkpt>
      <trkpt lat="48.7152610" lon="13.5107060">
        <ele>448.8</ele>
        <time>2019-08-15T09:04:21Z</time>
      </trkpt>
      <trkpt lat="48.7152700" lon="13.5107350">
        <ele>448.8</ele>
        <time>2019-08-15T09:04:22Z</time>
      </trkpt>
      <trkpt lat="48.7152790" lon="13.5107630">
        <ele>449.0</ele>
        <time>2019-08-15T09:04:23Z</time>
      </trkpt>
      <trkpt lat="48.7152890" lon="13.5107920">
        <ele>449.2</ele>
        <time>2019-08-15T09:04:24Z</time>
      </trkpt>
      <trkpt lat="48.7152970" lon="13.5108230">
        <ele>449.4</ele>
        <time>2019-08-15T09:04:25Z</time>
      </trkpt>
      <trkpt lat="48.7153070" lon="13.5108540">
        <ele>449.6</ele>
        <time>2019-08-15T09:04:26Z</time>
      </trkpt>
      <trkpt lat="48.7153150" lon="13.5108860">
        <ele>449.6</ele>
        <time>2019-08-15T09:04:27Z</time>
      </trkpt>
      <trkpt lat="48.7153210" lon="13.5109220">
        <ele>449.8</ele>
        <time>2019-08-15T09:04:28Z</time>
      </trkpt>
      <trkpt lat="48.7153290" lon="13.5109540">
        <ele>450.0</ele>
        <time>2019-08-15T09:04:29Z</time>
      </trkpt>
      <trkpt lat="48.7153370" lon="13.5109850">
        <ele>450.2</ele>
        <time>2019-08-15T09:04:30Z</time>
      </trkpt>
      <trkpt lat="48.7153450" lon="13.5110150">
        <ele>450.2</ele>
        <time>2019-08-15T09:04:31Z</time>
      </trkpt>
      <trkpt lat="48.7153540" lon="13.5110460">
        <ele>450.4</ele>
        <time>2019-08-15T09:04:32Z</time>
      </trkpt>
      <trkpt lat="48.7153620" lon="13.5110750">
        <ele>450.6</ele>
        <time>2019-08-15T09:04:33Z</time>
      </trkpt>
      <trkpt lat="48.7153700" lon="13.5111040">
        <ele>450.8</ele>
        <time>2019-08-15T09:04:34Z</time>
      </trkpt>
      <trkpt lat="48.7153770" lon="13.5111340">
        <ele>450.8</ele>
        <time>2019-08-15T09:04:35Z</time>
      </trkpt>
      <trkpt lat="48.7153850" lon="13.5111630">
        <ele>451.0</ele>
        <time>2019-08-15T09:04:36Z</time>
      </trkpt>
      <trkpt lat="48.7153940" lon="13.5111910">
        <ele>451.2</ele>
        <time>2019-08-15T09:04:37Z</time>
      </trkpt>
      <trkpt lat="48.7154040" lon="13.5112220">
        <ele>451.4</ele>
        <time>2019-08-15T09:04:38Z</time>
      </trkpt>
      <trkpt lat="48.7154120" lon="13.5112530">
        <ele>451.4</ele>
        <time>2019-08-15T09:04:39Z</time>
      </trkpt>
      <trkpt lat="48.7154220" lon="13.5112830">
        <ele>451.6</ele>
        <time>2019-08-15T09:04:40Z</time>
      </trkpt>
      <trkpt lat="48.7154310" lon="13.5113110">
        <ele>451.8</ele>
        <time>2019-08-15T09:04:41Z</time>
      </trkpt>
      <trkpt lat="48.7154400" lon="13.5113390">
        <ele>452.0</ele>
        <time>2019-08-15T09:04:42Z</time>
      </trkpt>
      <trkpt lat="48.7154490" lon="13.5113690">
        <ele>452.0</ele>
        <time>2019-08-15T09:04:43Z</time>
      </trkpt>
      <trkpt lat="48.7154570" lon="13.5114000">
        <ele>452.2</ele>
        <time>2019-08-15T09:04:44Z</time>
      </trkpt>
      <trkpt lat="48.7154670" lon="13.5114300">
        <ele>452.4</ele>
        <time>2019-08-15T09:04:45Z</time>
      </trkpt>
      <trkpt lat="48.7154770" lon="13.5114600">
        <ele>452.6</ele>
        <time>2019-08-15T09:04:46Z</time>
      </trkpt>
      <trkpt lat="48.7154850" lon="13.5114900">
        <ele>452.8</ele>
        <time>2019-08-15T09:04:47Z</time>
      </trkpt>
      <trkpt lat="48.7154940" lon="13.5115200">
        <ele>453.0</ele>
        <time>2019-08-15T09:04:48Z</time>
      </trkpt>
      <trkpt lat="48.7155020" lon="13.5115470">
        <ele>453.0</ele>
        <time>2019-08-15T09:04:49Z</time>
      </trkpt>
      <trkpt lat="48.7155100" lon="13.5115770">
        <ele>453.2</ele>
        <time>2019-08-15T09:04:50Z</time>
      </trkpt>
      <trkpt lat="48.7155190" lon="13.5116050">
        <ele>453.4</ele>
        <time>2019-08-15T09:04:51Z</time>
      </trkpt>
      <trkpt lat="48.7155290" lon="13.5116310">
        <ele>453.6</ele>
        <time>2019-08-15T09:04:52Z</time>
      </trkpt>
      <trkpt lat="48.7155380" lon="13.5116580">
        <ele>453.8</ele>
        <time>2019-08-15T09:04:53Z</time>
      </trkpt>
      <trkpt lat="48.7155470" lon="13.5116860">
        <ele>454.0</ele>
        <time>2019-08-15T09:04:54Z</time>
      </trkpt>
      <trkpt lat="48.7155560" lon="13.5117140">
        <ele>454.2</ele>
        <time>2019-08-15T09:04:55Z</time>
      </trkpt>
      <trkpt lat="48.7155660" lon="13.5117410">
        <ele>454.4</ele>
        <time>2019-08-15T09:04:56Z</time>
      </trkpt>
      <trkpt lat="48.7155760" lon="13.5117680">
        <ele>454.6</ele>
        <time>2019-08-15T09:04:57Z</time>
      </trkpt>
      <trkpt lat="48.7155870" lon="13.5117930">
        <ele>454.6</ele>
        <time>2019-08-15T09:04:58Z</time>
      </trkpt>
      <trkpt lat="48.7155970" lon="13.5118190">
        <ele>454.8</ele>
        <time>2019-08-15T09:04:59Z</time>
      </trkpt>
      <trkpt lat="48.7156080" lon="13.5118450">
        <ele>455.0</ele>
        <time>2019-08-15T09:05:00Z</time>
      </trkpt>
      <trkpt lat="48.7156190" lon="13.5118750">
        <ele>455.2</ele>
        <time>2019-08-15T09:05:01Z</time>
      </trkpt>
      <trkpt lat="48.7156270" lon="13.5119010">
        <ele>455.4</ele>
        <time>2019-08-15T09:05:02Z</time>
      </trkpt>
      <trkpt lat="48.7156370" lon="13.5119280">
        <ele>455.6</ele>
        <time>2019-08-15T09:05:03Z</time>
      </trkpt>
      <trkpt lat="48.7156470" lon="13.5119530">
        <ele>455.8</ele>
        <time>2019-08-15T09:05:04Z</time>
      </trkpt>
      <trkpt lat="48.7156560" lon="13.5119800">
        <ele>456.0</ele>
        <time>2019-08-15T09:05:05Z</time>
      </trkpt>
      <trkpt lat="48.7156660" lon="13.5120060">
        <ele>456.2</ele>
        <time>2019-08-15T09:05:06Z</time>
      </trkpt>
      <trkpt lat="48.7156760" lon="13.5120310">
        <ele>456.4</ele>
        <time>2019-08-15T09:05:07Z</time>
      </trkpt>
      <trkpt lat="48.7156870" lon="13.5120550">
        <ele>456.6</ele>
        <time>2019-08-15T09:05:08Z</time>
      </trkpt>
      <trkpt lat="48.7157000" lon="13.5120770">
        <ele>456.8</ele>
        <time>2019-08-15T09:05:09Z</time>
      </trkpt>
      <trkpt lat="48.7157120" lon="13.5120970">
        <ele>457.0</ele>
        <time>2019-08-15T09:05:10Z</time>
      </trkpt>
      <trkpt lat="48.7157250" lon="13.5121180">
        <ele>457.2</ele>
        <time>2019-08-15T09:05:11Z</time>
      </trkpt>
      <trkpt lat="48.7157400" lon="13.5121360">
        <ele>457.4</ele>
        <time>2019-08-15T09:05:12Z</time>
      </trkpt>
      <trkpt lat="48.7157530" lon="13.5121560">
        <ele>457.4</ele>
        <time>2019-08-15T09:05:13Z</time>
      </trkpt>
      <trkpt lat="48.7157660" lon="13.5121760">
        <ele>457.6</ele>
        <time>2019-08-15T09:05:14Z</time>
      </trkpt>
      <trkpt lat="48.7157800" lon="13.5121920">
        <ele>457.8</ele>
        <time>2019-08-15T09:05:15Z</time>
      </trkpt>
      <trkpt lat="48.7157940" lon="13.5122100">
        <ele>458.0</ele>
        <time>2019-08-15T09:05:16Z</time>
      </trkpt>
      <trkpt lat="48.7158060" lon="13.5122320">
        <ele>458.2</ele>
        <time>2019-08-15T09:05:17Z</time>
      </trkpt>
      <trkpt lat="48.7158160" lon="13.5122530">
        <ele>458.4</ele>
        <time>2019-08-15T09:05:18Z</time>
      </trkpt>
      <trkpt lat="48.7158290" lon="13.5122710">
        <ele>458.6</ele>
        <time>2019-08-15T09:05:19Z</time>
      </trkpt>
      <trkpt lat="48.7158440" lon="13.5122870">
        <ele>458.8</ele>
        <time>2019-08-15T09:05:20Z</time>
      </trkpt>
      <trkpt lat="48.7158580" lon="13.5123020">
        <ele>459.0</ele>
        <time>2019-08-15T09:05:21Z</time>
      </trkpt>
      <trkpt lat="48.7158730" lon="13.5123190">
        <ele>459.2</ele>
        <time>2019-08-15T09:05:22Z</time>
      </trkpt>
      <trkpt lat="48.7158890" lon="13.5123350">
        <ele>459.4</ele>
        <time>2019-08-15T09:05:23Z</time>
      </trkpt>
      <trkpt lat="48.7159030" lon="13.5123510">
        <ele>459.6</ele>
        <time>2019-08-15T09:05:24Z</time>
      </trkpt>
      <trkpt lat="48.7159160" lon="13.5123690">
        <ele>459.8</ele>
        <time>2019-08-15T09:05:25Z</time>
      </trkpt>
      <trkpt lat="48.7159280" lon="13.5123880">
        <ele>460.0</ele>
        <time>2019-08-15T09:05:26Z</time>
      </trkpt>
      <trkpt lat="48.7159420" lon="13.5124070">
        <ele>460.2</ele>
        <time>2019-08-15T09:05:27Z</time>
      </trkpt>
      <trkpt lat="48.7159570" lon="13.5124230">
        <ele>460.4</ele>
        <time>2019-08-15T09:05:28Z</time>
      </trkpt>
      <trkpt lat="48.7159720" lon="13.5124350">
        <ele>460.6</ele>
        <time>2019-08-15T09:05:29Z</time>
      </trkpt>
      <trkpt lat="48.7159870" lon="13.5124460">
        <ele>460.8</ele>
        <time>2019-08-15T09:05:30Z</time>
      </trkpt>
      <trkpt lat="48.7160020" lon="13.5124580">
        <ele>461.0</ele>
        <time>2019-08-15T09:05:31Z</time>
      </trkpt>
      <trkpt lat="48.7160170" lon="13.5124720">
        <ele>461.2</ele>
        <time>2019-08-15T09:05:32Z</time>
      </trkpt>
      <trkpt lat="48.7160320" lon="13.5124860">
        <ele>461.4</ele>
        <time>2019-08-15T09:05:33Z</time>
      </trkpt>
      <trkpt lat="48.7160470" lon="13.5124970">
        <ele>461.6</ele>
        <time>2019-08-15T09:05:34Z</time>
      </trkpt>
      <trkpt lat="48.7160620" lon="13.5125070">
        <ele>461.8</ele>
        <time>2019-08-15T09:05:35Z</time>
      </trkpt>
      <trkpt lat="48.7160770" lon="13.5125170">
        <ele>462.0</ele>
        <time>2019-08-15T09:05:36Z</time>
      </trkpt>
      <trkpt lat="48.7160940" lon="13.5125250">
        <ele>462.2</ele>
        <time>2019-08-15T09:05:37Z</time>
      </trkpt>
      <trkpt lat="48.7161090" lon="13.5125330">
        <ele>462.4</ele>
        <time>2019-08-15T09:05:38Z</time>
      </trkpt>
      <trkpt lat="48.7161260" lon="13.5125400">
        <ele>462.4</ele>
        <time>2019-08-15T09:05:39Z</time>
      </trkpt>
      <trkpt lat="48.7161420" lon="13.5125470">
        <ele>462.6</ele>
        <time>2019-08-15T09:05:40Z</time>
      </trkpt>
      <trkpt lat="48.7161580" lon="13.5125560">
        <ele>462.8</ele>
        <time>2019-08-15T09:05:41Z</time>
      </trkpt>
      <trkpt lat="48.7161730" lon="13.5125660">
        <ele>463.0</ele>
        <time>2019-08-15T09:05:42Z</time>
      </trkpt>
      <trkpt lat="48.7161890" lon="13.5125780">
        <ele>463.0</ele>
        <time>2019-08-15T09:05:43Z</time>
      </trkpt>
      <trkpt lat="48.7162030" lon="13.5125920">
        <ele>463.2</ele>
        <time>2019-08-15T09:05:44Z</time>
      </trkpt>
      <trkpt lat="48.7162170" lon="13.5126090">
        <ele>463.4</ele>
        <time>2019-08-15T09:05:45Z</time>
      </trkpt>
      <trkpt lat="48.7162320" lon="13.5126240">
        <ele>463.6</ele>
        <time>2019-08-15T09:05:46Z</time>
      </trkpt>
      <trkpt lat="48.7162450" lon="13.5126400">
        <ele>463.6</ele>
        <time>2019-08-15T09:05:47Z</time>
      </trkpt>
      <trkpt lat="48.7162590" lon="13.5126520">
        <ele>463.8</ele>
        <time>2019-08-15T09:05:48Z</time>
      </trkpt>
      <trkpt lat="48.7162740" lon="13.5126640">
        <ele>464.0</ele>
        <time>2019-08-15T09:05:49Z</time>
      </trkpt>
      <trkpt lat="48.7162900" lon="13.5126750">
        <ele>464.0</ele>
        <time>2019-08-15T09:05:50Z</time>
      </trkpt>
      <trkpt lat="48.7163060" lon="13.5126820">
        <ele>464.2</ele>
        <time>2019-08-15T09:05:51Z</time>
      </trkpt>
      <trkpt lat="48.7163220" lon="13.5126880">
        <ele>464.4</ele>
        <time>2019-08-15T09:05:52Z</time>
      </trkpt>
      <trkpt lat="48.7163390" lon="13.5126960">
        <ele>464.6</ele>
        <time>2019-08-15T09:05:53Z</time>
      </trkpt>
      <trkpt lat="48.7163550" lon="13.5127050">
        <ele>464.6</ele>
        <time>2019-08-15T09:05:54Z</time>
      </trkpt>
      <trkpt lat="48.7163710" lon="13.5127120">
        <ele>464.8</ele>
        <time>2019-08-15T09:05:55Z</time>
      </trkpt>
      <trkpt lat="48.7163890" lon="13.5127180">
        <ele>465.0</ele>
        <time>2019-08-15T09:05:56Z</time>
      </trkpt>
      <trkpt lat="48.7164060" lon="13.5127270">
        <ele>465.2</ele>
        <time>2019-08-15T09:05:57Z</time>
      </trkpt>
      <trkpt lat="48.7164240" lon="13.5127370">
        <ele>465.2</ele>
        <time>2019-08-15T09:05:58Z</time>
      </trkpt>
      <trkpt lat="48.7164410" lon="13.5127480">
        <ele>465.4</ele>
        <time>2019-08-15T09:05:59Z</time>
      </trkpt>
      <trkpt lat="48.7164570" lon="13.5127610">
        <ele>465.6</ele>
        <time>2019-08-15T09:06:00Z</time>
      </trkpt>
      <trkpt lat="48.7164740" lon="13.5127740">
        <ele>465.8</ele>
        <time>2019-08-15T09:06:01Z</time>
      </trkpt>
      <trkpt lat="48.7164910" lon="13.5127860">
        <ele>465.8</ele>
        <time>2019-08-15T09:06:02Z</time>
      </trkpt>
      <trkpt lat="48.7165070" lon="13.5127960">
        <ele>466.0</ele>
        <time>2019-08-15T09:06:03Z</time>
      </trkpt>
      <trkpt lat="48.7165240" lon="13.5128080">
        <ele>466.2</ele>
        <time>2019-08-15T09:06:04Z</time>
      </trkpt>
      <trkpt lat="48.7165410" lon="13.5128180">
        <ele>466.4</ele>
        <time>2019-08-15T09:06:05Z</time>
      </trkpt>
      <trkpt lat="48.7165570" lon="13.5128250">
        <ele>466.4</ele>
        <time>2019-08-15T09:06:06Z</time>
      </trkpt>
      <trkpt lat="48.7165740" lon="13.5128340">
        <ele>466.6</ele>
        <time>2019-08-15T09:06:07Z</time>
      </trkpt>
      <trkpt lat="48.7165900" lon="13.5128420">
        <ele>466.8</ele>
        <time>2019-08-15T09:06:08Z</time>
      </trkpt>
      <trkpt lat="48.7166070" lon="13.5128500">
        <ele>467.0</ele>
        <time>2019-08-15T09:06:09Z</time>
      </trkpt>
      <trkpt lat="48.7166240" lon="13.5128580">
        <ele>467.2</ele>
        <time>2019-08-15T09:06:10Z</time>
      </trkpt>
      <trkpt lat="48.7166420" lon="13.5128650">
        <ele>467.4</ele>
        <time>2019-08-15T09:06:11Z</time>
      </trkpt>
      <trkpt lat="48.7166590" lon="13.5128720">
        <ele>467.4</ele>
        <time>2019-08-15T09:06:12Z</time>
      </trkpt>
      <trkpt lat="48.7166770" lon="13.5128790">
        <ele>467.6</ele>
        <time>2019-08-15T09:06:13Z</time>
      </trkpt>
      <trkpt lat="48.7166940" lon="13.5128870">
        <ele>467.8</ele>
        <time>2019-08-15T09:06:14Z</time>
      </trkpt>
      <trkpt lat="48.7167120" lon="13.5128990">
        <ele>468.0</ele>
        <time>2019-08-15T09:06:15Z</time>
      </trkpt>
      <trkpt lat="48.7167290" lon="13.5129110">
        <ele>468.2</ele>
        <time>2019-08-15T09:06:16Z</time>
      </trkpt>
      <trkpt lat="48.7167460" lon="13.5129210">
        <ele>468.4</ele>
        <time>2019-08-15T09:06:17Z</time>
      </trkpt>
      <trkpt lat="48.7167630" lon="13.5129310">
        <ele>468.6</ele>
        <time>2019-08-15T09:06:18Z</time>
      </trkpt>
      <trkpt lat="48.7167810" lon="13.5129400">
        <ele>468.8</ele>
        <time>2019-08-15T09:06:19Z</time>
      </trkpt>
      <trkpt lat="48.7167970" lon="13.5129490">
        <ele>469.0</ele>
        <time>2019-08-15T09:06:20Z</time>
      </trkpt>
      <trkpt lat="48.7168140" lon="13.5129590">
        <ele>469.2</ele>
        <time>2019-08-15T09:06:21Z</time>
      </trkpt>
      <trkpt lat="48.7168300" lon="13.5129720">
        <ele>469.4</ele>
        <time>2019-08-15T09:06:22Z</time>
      </trkpt>
      <trkpt lat="48.7168450" lon="13.5129850">
        <ele>469.6</ele>
        <time>2019-08-15T09:06:23Z</time>
      </trkpt>
      <trkpt lat="48.7168610" lon="13.5129980">
        <ele>469.8</ele>
        <time>2019-08-15T09:06:24Z</time>
      </trkpt>
      <trkpt lat="48.7168770" lon="13.5130110">
        <ele>470.0</ele>
        <time>2019-08-15T09:06:25Z</time>
      </trkpt>
      <trkpt lat="48.7168940" lon="13.5130200">
        <ele>470.2</ele>
        <time>2019-08-15T09:06:26Z</time>
      </trkpt>
      <trkpt lat="48.7169110" lon="13.5130260">
        <ele>470.4</ele>
        <time>2019-08-15T09:06:27Z</time>
      </trkpt>
      <trkpt lat="48.7169290" lon="13.5130320">
        <ele>470.6</ele>
        <time>2019-08-15T09:06:28Z</time>
      </trkpt>
      <trkpt lat="48.7169460" lon="13.5130400">
        <ele>470.8</ele>
        <time>2019-08-15T09:06:29Z</time>
      </trkpt>
      <trkpt lat="48.7169620" lon="13.5130520">
        <ele>471.0</ele>
        <time>2019-08-15T09:06:30Z</time>
      </trkpt>
      <trkpt lat="48.7169790" lon="13.5130660">
        <ele>471.2</ele>
        <time>2019-08-15T09:06:31Z</time>
      </trkpt>
      <trkpt lat="48.7169940" lon="13.5130770">
        <ele>471.4</ele>
        <time>2019-08-15T09:06:32Z</time>
      </trkpt>
      <trkpt lat="48.7170110" lon="13.5130830">
        <ele>471.6</ele>
        <time>2019-08-15T09:06:33Z</time>
      </trkpt>
      <trkpt lat="48.7170280" lon="13.5130880">
        <ele>471.8</ele>
        <time>2019-08-15T09:06:34Z</time>
      </trkpt>
      <trkpt lat="48.7170460" lon="13.5130950">
        <ele>472.0</ele>
        <time>2019-08-15T09:06:35Z</time>
      </trkpt>
      <trkpt lat="48.7170640" lon="13.5131040">
        <ele>472.2</ele>
        <time>2019-08-15T09:06:36Z</time>
      </trkpt>
      <trkpt lat="48.7170800" lon="13.5131130">
        <ele>472.4</ele>
        <time>2019-08-15T09:06:37Z</time>
      </trkpt>
      <trkpt lat="48.7170970" lon="13.5131240">
        <ele>472.6</ele>
        <time>2019-08-15T09:06:38Z</time>
      </trkpt>
      <trkpt lat="48.7171140" lon="13.5131370">
        <ele>472.8</ele>
        <time>2019-08-15T09:06:39Z</time>
      </trkpt>
      <trkpt lat="48.7171290" lon="13.5131490">
        <ele>473.0</ele>
        <time>2019-08-15T09:06:40Z</time>
      </trkpt>
      <trkpt lat="48.7171430" lon="13.5131600">
        <ele>473.0</ele>
        <time>2019-08-15T09:06:41Z</time>
      </trkpt>
      <trkpt lat="48.7171590" lon="13.5131730">
        <ele>473.2</ele>
        <time>2019-08-15T09:06:42Z</time>
      </trkpt>
      <trkpt lat="48.7171760" lon="13.5131840">
        <ele>473.4</ele>
        <time>2019-08-15T09:06:43Z</time>
      </trkpt>
      <trkpt lat="48.7171940" lon="13.5131940">
        <ele>473.6</ele>
        <time>2019-08-15T09:06:44Z</time>
      </trkpt>
      <trkpt lat="48.7172110" lon="13.5132020">
        <ele>473.8</ele>
        <time>2019-08-15T09:06:45Z</time>
      </trkpt>
      <trkpt lat="48.7172270" lon="13.5132080">
        <ele>474.0</ele>
        <time>2019-08-15T09:06:46Z</time>
      </trkpt>
      <trkpt lat="48.7172440" lon="13.5132120">
        <ele>474.2</ele>
        <time>2019-08-15T09:06:47Z</time>
      </trkpt>
      <trkpt lat="48.7172630" lon="13.5132170">
        <ele>474.2</ele>
        <time>2019-08-15T09:06:48Z</time>
      </trkpt>
      <trkpt lat="48.7172820" lon="13.5132260">
        <ele>474.4</ele>
        <time>2019-08-15T09:06:49Z</time>
      </trkpt>
      <trkpt lat="48.7173010" lon="13.5132380">
        <ele>474.6</ele>
        <time>2019-08-15T09:06:50Z</time>
      </trkpt>
      <trkpt lat="48.7173180" lon="13.5132510">
        <ele>474.8</ele>
        <time>2019-08-15T09:06:51Z</time>
      </trkpt>
      <trkpt lat="48.7173360" lon="13.5132650">
        <ele>475.0</ele>
        <time>2019-08-15T09:06:52Z</time>
      </trkpt>
      <trkpt lat="48.7173520" lon="13.5132780">
        <ele>475.2</ele>
        <time>2019-08-15T09:06:53Z</time>
      </trkpt>
      <trkpt lat="48.7173690" lon="13.5132890">
        <ele>475.4</ele>
        <time>2019-08-15T09:06:54Z</time>
      </trkpt>
      <trkpt lat="48.7173880" lon="13.5133010">
        <ele>475.6</ele>
        <time>2019-08-15T09:06:55Z</time>
      </trkpt>
      <trkpt lat="48.7174060" lon="13.5133110">
        <ele>475.8</ele>
        <time>2019-08-15T09:06:56Z</time>
      </trkpt>
      <trkpt lat="48.7174240" lon="13.5133240">
        <ele>475.8</ele>
        <time>2019-08-15T09:06:57Z</time>
      </trkpt>
      <trkpt lat="48.7174430" lon="13.5133340">
        <ele>476.0</ele>
        <time>2019-08-15T09:06:58Z</time>
      </trkpt>
      <trkpt lat="48.7174610" lon="13.5133430">
        <ele>476.2</ele>
        <time>2019-08-15T09:06:59Z</time>
      </trkpt>
      <trkpt lat="48.7174800" lon="13.5133500">
        <ele>476.4</ele>
        <time>2019-08-15T09:07:00Z</time>
      </trkpt>
      <trkpt lat="48.7174990" lon="13.5133560">
        <ele>476.6</ele>
        <time>2019-08-15T09:07:01Z</time>
      </trkpt>
      <trkpt lat="48.7175180" lon="13.5133620">
        <ele>476.8</ele>
        <time>2019-08-15T09:07:02Z</time>
      </trkpt>
      <trkpt lat="48.7175350" lon="13.5133700">
        <ele>476.8</ele>
        <time>2019-08-15T09:07:03Z</time>
      </trkpt>
      <trkpt lat="48.7175540" lon="13.5133780">
        <ele>477.0</ele>
        <time>2019-08-15T09:07:04Z</time>
      </trkpt>
      <trkpt lat="48.7175720" lon="13.5133850">
        <ele>477.2</ele>
        <time>2019-08-15T09:07:05Z</time>
      </trkpt>
      <trkpt lat="48.7175910" lon="13.5133920">
        <ele>477.4</ele>
        <time>2019-08-15T09:07:06Z</time>
      </trkpt>
      <trkpt lat="48.7176110" lon="13.5134030">
        <ele>477.4</ele>
        <time>2019-08-15T09:07:07Z</time>
      </trkpt>
      <trkpt lat="48.7176270" lon="13.5134150">
        <ele>477.6</ele>
        <time>2019-08-15T09:07:08Z</time>
      </trkpt>
      <trkpt lat="48.7176440" lon="13.5134280">
        <ele>477.8</ele>
        <time>2019-08-15T09:07:09Z</time>
      </trkpt>
      <trkpt lat="48.7176620" lon="13.5134420">
        <ele>478.0</ele>
        <time>2019-08-15T09:07:10Z</time>
      </trkpt>
      <trkpt lat="48.7176790" lon="13.5134550">
        <ele>478.0</ele>
        <time>2019-08-15T09:07:11Z</time>
      </trkpt>
      <trkpt lat="48.7176980" lon="13.5134680">
        <ele>478.2</ele>
        <time>2019-08-15T09:07:12Z</time>
      </trkpt>
      <trkpt lat="48.7177160" lon="13.5134790">
        <ele>478.4</ele>
        <time>2019-08-15T09:07:13Z</time>
      </trkpt>
      <trkpt lat="48.7177340" lon="13.5134890">
        <ele>478.4</ele>
        <time>2019-08-15T09:07:14Z</time>
      </trkpt>
      <trkpt lat="48.7177530" lon="13.5135000">
        <ele>478.6</ele>
        <time>2019-08-15T09:07:15Z</time>
      </trkpt>
      <trkpt lat="48.7177710" lon="13.5135080">
        <ele>478.8</ele>
        <time>2019-08-15T09:07:16Z</time>
      </trkpt>
      <trkpt lat="48.7177910" lon="13.5135150">
        <ele>478.8</ele>
        <time>2019-08-15T09:07:17Z</time>
      </trkpt>
      <trkpt lat="48.7178110" lon="13.5135240">
        <ele>479.0</ele>
        <time>2019-08-15T09:07:18Z</time>
      </trkpt>
      <trkpt lat="48.7178310" lon="13.5135360">
        <ele>479.0</ele>
        <time>2019-08-15T09:07:19Z</time>
      </trkpt>
      <trkpt lat="48.7178500" lon="13.5135480">
        <ele>479.2</ele>
        <time>2019-08-15T09:07:20Z</time>
      </trkpt>
      <trkpt lat="48.7178700" lon="13.5135590">
        <ele>479.2</ele>
        <time>2019-08-15T09:07:21Z</time>
      </trkpt>
      <trkpt lat="48.7178890" lon="13.5135690">
        <ele>479.2</ele>
        <time>2019-08-15T09:07:22Z</time>
      </trkpt>
      <trkpt lat="48.7179080" lon="13.5135810">
        <ele>479.4</ele>
        <time>2019-08-15T09:07:23Z</time>
      </trkpt>
      <trkpt lat="48.7179280" lon="13.5135940">
        <ele>479.4</ele>
        <time>2019-08-15T09:07:24Z</time>
      </trkpt>
      <trkpt lat="48.7179490" lon="13.5136060">
        <ele>479.4</ele>
        <time>2019-08-15T09:07:25Z</time>
      </trkpt>
      <trkpt lat="48.7179740" lon="13.5136160">
        <ele>479.6</ele>
        <time>2019-08-15T09:07:26Z</time>
      </trkpt>
      <trkpt lat="48.7179970" lon="13.5136290">
        <ele>479.6</ele>
        <time>2019-08-15T09:07:27Z</time>
      </trkpt>
      <trkpt lat="48.7180230" lon="13.5136440">
        <ele>479.6</ele>
        <time>2019-08-15T09:07:28Z</time>
      </trkpt>
      <trkpt lat="48.7180480" lon="13.5136590">
        <ele>479.6</ele>
        <time>2019-08-15T09:07:29Z</time>
      </trkpt>
      <trkpt lat="48.7180740" lon="13.5136750">
        <ele>479.6</ele>
        <time>2019-08-15T09:07:30Z</time>
      </trkpt>
      <trkpt lat="48.7181020" lon="13.5136880">
        <ele>479.6</ele>
        <time>2019-08-15T09:07:31Z</time>
      </trkpt>
      <trkpt lat="48.7181300" lon="13.5137020">
        <ele>479.6</ele>
        <time>2019-08-15T09:07:32Z</time>
      </trkpt>
      <trkpt lat="48.7181590" lon="13.5137180">
        <ele>479.6</ele>
        <time>2019-08-15T09:07:33Z</time>
      </trkpt>
      <trkpt lat="48.7181880" lon="13.5137360">
        <ele>479.6</ele>
        <time>2019-08-15T09:07:34Z</time>
      </trkpt>
      <trkpt lat="48.7182190" lon="13.5137570">
        <ele>479.6</ele>
        <time>2019-08-15T09:07:35Z</time>
      </trkpt>
      <trkpt lat="48.7182500" lon="13.5137800">
        <ele>479.6</ele>
        <time>2019-08-15T09:07:36Z</time>
      </trkpt>
      <trkpt lat="48.7182810" lon="13.5138090">
        <ele>479.6</ele>
        <time>2019-08-15T09:07:37Z</time>
      </trkpt>
      <trkpt lat="48.7183120" lon="13.5138420">
        <ele>479.4</ele>
        <time>2019-08-15T09:07:38Z</time>
      </trkpt>
      <trkpt lat="48.7183440" lon="13.5138790">
        <ele>479.4</ele>
        <time>2019-08-15T09:07:39Z</time>
      </trkpt>
      <trkpt lat="48.7183760" lon="13.5139190">
        <ele>479.2</ele>
        <time>2019-08-15T09:07:40Z</time>
      </trkpt>
      <trkpt lat="48.7184090" lon="13.5139670">
        <ele>479.0</ele>
        <time>2019-08-15T09:07:41Z</time>
      </trkpt>
      <trkpt lat="48.7184390" lon="13.5140230">
        <ele>478.8</ele>
        <time>2019-08-15T09:07:42Z</time>
      </trkpt>
      <trkpt lat="48.7184690" lon="13.5140850">
        <ele>478.8</ele>
        <time>2019-08-15T09:07:43Z</time>
      </trkpt>
      <trkpt lat="48.7184990" lon="13.5141540">
        <ele>478.6</ele>
        <time>2019-08-15T09:07:44Z</time>
      </trkpt>
      <trkpt lat="48.7185290" lon="13.5142260">
        <ele>478.4</ele>
        <time>2019-08-15T09:07:45Z</time>
      </trkpt>
      <trkpt lat="48.7185630" lon="13.5143070">
        <ele>478.0</ele>
        <time>2019-08-15T09:07:46Z</time>
      </trkpt>
      <trkpt lat="48.7185940" lon="13.5143910">
        <ele>477.8</ele>
        <time>2019-08-15T09:07:47Z</time>
      </trkpt>
      <trkpt lat="48.7186260" lon="13.5144780">
        <ele>477.8</ele>
        <time>2019-08-15T09:07:48Z</time>
      </trkpt>
      <trkpt lat="48.7186600" lon="13.5145710">
        <ele>477.4</ele>
        <time>2019-08-15T09:07:49Z</time>
      </trkpt>
      <trkpt lat="48.7186940" lon="13.5146660">
        <ele>477.2</ele>
        <time>2019-08-15T09:07:50Z</time>
      </trkpt>
      <trkpt lat="48.7187300" lon="13.5147620">
        <ele>476.8</ele>
        <time>2019-08-15T09:07:51Z</time>
      </trkpt>
      <trkpt lat="48.7187670" lon="13.5148610">
        <ele>476.6</ele>
        <time>2019-08-15T09:07:52Z</time>
      </trkpt>
      <trkpt lat="48.7188050" lon="13.5149630">
        <ele>476.2</ele>
        <time>2019-08-15T09:07:53Z</time>
      </trkpt>
      <trkpt lat="48.7188420" lon="13.5150710">
        <ele>476.0</ele>
        <time>2019-08-15T09:07:54Z</time>
      </trkpt>
      <trkpt lat="48.7188760" lon="13.5151790">
        <ele>475.6</ele>
        <time>2019-08-15T09:07:55Z</time>
      </trkpt>
      <trkpt lat="48.7189100" lon="13.5152910">
        <ele>475.4</ele>
        <time>2019-08-15T09:07:56Z</time>
      </trkpt>
      <trkpt lat="48.7189440" lon="13.5154040">
        <ele>475.0</ele>
        <time>2019-08-15T09:07:57Z</time>
      </trkpt>
      <trkpt lat="48.7189820" lon="13.5155160">
        <ele>474.8</ele>
        <time>2019-08-15T09:07:58Z</time>
      </trkpt>
      <trkpt lat="48.7190150" lon="13.5156290">
        <ele>474.4</ele>
        <time>2019-08-15T09:07:59Z</time>
      </trkpt>
      <trkpt lat="48.7190460" lon="13.5157450">
        <ele>474.2</ele>
        <time>2019-08-15T09:08:00Z</time>
      </trkpt>
      <trkpt lat="48.7190770" lon="13.5158590">
        <ele>473.8</ele>
        <time>2019-08-15T09:08:01Z</time>
      </trkpt>
      <trkpt lat="48.7191080" lon="13.5159710">
        <ele>473.6</ele>
        <time>2019-08-15T09:08:02Z</time>
      </trkpt>
      <trkpt lat="48.7191390" lon="13.5160890">
        <ele>473.4</ele>
        <time>2019-08-15T09:08:03Z</time>
      </trkpt>
      <trkpt lat="48.7191710" lon="13.5162010">
        <ele>473.2</ele>
        <time>2019-08-15T09:08:04Z</time>
      </trkpt>
      <trkpt lat="48.7192040" lon="13.5163100">
        <ele>473.0</ele>
        <time>2019-08-15T09:08:05Z</time>
      </trkpt>
      <trkpt lat="48.7192360" lon="13.5164220">
        <ele>472.8</ele>
        <time>2019-08-15T09:08:06Z</time>
      </trkpt>
      <trkpt lat="48.7192690" lon="13.5165310">
        <ele>472.8</ele>
        <time>2019-08-15T09:08:07Z</time>
      </trkpt>
      <trkpt lat="48.7193010" lon="13.5166400">
        <ele>472.6</ele>
        <time>2019-08-15T09:08:08Z</time>
      </trkpt>
      <trkpt lat="48.7193350" lon="13.5167500">
        <ele>472.4</ele>
        <time>2019-08-15T09:08:09Z</time>
      </trkpt>
      <trkpt lat="48.7193670" lon="13.5168570">
        <ele>472.2</ele>
        <time>2019-08-15T09:08:10Z</time>
      </trkpt>
      <trkpt lat="48.7193990" lon="13.5169670">
        <ele>472.2</ele>
        <time>2019-08-15T09:08:11Z</time>
      </trkpt>
      <trkpt lat="48.7194290" lon="13.5170810">
        <ele>472.0</ele>
        <time>2019-08-15T09:08:12Z</time>
      </trkpt>
      <trkpt lat="48.7194620" lon="13.5171930">
        <ele>471.8</ele>
        <time>2019-08-15T09:08:13Z</time>
      </trkpt>
      <trkpt lat="48.7194970" lon="13.5173040">
        <ele>471.4</ele>
        <time>2019-08-15T09:08:14Z</time>
      </trkpt>
      <trkpt lat="48.7195400" lon="13.5174170">
        <ele>471.0</ele>
        <time>2019-08-15T09:08:15Z</time>
      </trkpt>
      <trkpt lat="48.7195850" lon="13.5175220">
        <ele>470.8</ele>
        <time>2019-08-15T09:08:16Z</time>
      </trkpt>
      <trkpt lat="48.7196360" lon="13.5176220">
        <ele>470.6</ele>
        <time>2019-08-15T09:08:17Z</time>
      </trkpt>
      <trkpt lat="48.7196930" lon="13.5177160">
        <ele>470.2</ele>
        <time>2019-08-15T09:08:18Z</time>
      </trkpt>
      <trkpt lat="48.7197550" lon="13.5177980">
        <ele>470.0</ele>
        <time>2019-08-15T09:08:19Z</time>
      </trkpt>
      <trkpt lat="48.7198240" lon="13.5178600">
        <ele>469.6</ele>
        <time>2019-08-15T09:08:20Z</time>
      </trkpt>
      <trkpt lat="48.7199040" lon="13.5178970">
        <ele>469.2</ele>
        <time>2019-08-15T09:08:21Z</time>
      </trkpt>
      <trkpt lat="48.7199920" lon="13.5179120">
        <ele>468.6</ele>
        <time>2019-08-15T09:08:22Z</time>
      </trkpt>
      <trkpt lat="48.7200790" lon="13.5179170">
        <ele>468.0</ele>
        <time>2019-08-15T09:08:23Z</time>
      </trkpt>
      <trkpt lat="48.7201680" lon="13.5179130">
        <ele>467.4</ele>
        <time>2019-08-15T09:08:24Z</time>
      </trkpt>
      <trkpt lat="48.7202620" lon="13.5178960">
        <ele>466.6</ele>
        <time>2019-08-15T09:08:25Z</time>
      </trkpt>
      <trkpt lat="48.7203640" lon="13.5178850">
        <ele>465.6</ele>
        <time>2019-08-15T09:08:26Z</time>
      </trkpt>
      <trkpt lat="48.7204620" lon="13.5178720">
        <ele>464.8</ele>
        <time>2019-08-15T09:08:27Z</time>
      </trkpt>
      <trkpt lat="48.7205620" lon="13.5178600">
        <ele>464.0</ele>
        <time>2019-08-15T09:08:28Z</time>
      </trkpt>
      <trkpt lat="48.7206670" lon="13.5178480">
        <ele>463.2</ele>
        <time>2019-08-15T09:08:29Z</time>
      </trkpt>
      <trkpt lat="48.7207790" lon="13.5178270">
        <ele>462.4</ele>
        <time>2019-08-15T09:08:30Z</time>
      </trkpt>
      <trkpt lat="48.7208810" lon="13.5178210">
        <ele>461.0</ele>
        <time>2019-08-15T09:08:31Z</time>
      </trkpt>
      <trkpt lat="48.7210230" lon="13.5178080">
        <ele>459.2</ele>
        <time>2019-08-15T09:08:32Z</time>
      </trkpt>
      <trkpt lat="48.7211510" lon="13.5177880">
        <ele>457.6</ele>
        <time>2019-08-15T09:08:33Z</time>
      </trkpt>
      <trkpt lat="48.7212790" lon="13.5177760">
        <ele>456.4</ele>
        <time>2019-08-15T09:08:34Z</time>
      </trkpt>
      <trkpt lat="48.7214020" lon="13.5177670">
        <ele>455.6</ele>
        <time>2019-08-15T09:08:35Z</time>
      </trkpt>
      <trkpt lat="48.7215280" lon="13.5177450">
        <ele>455.0</ele>
        <time>2019-08-15T09:08:36Z</time>
      </trkpt>
      <trkpt lat="48.7216510" lon="13.5177370">
        <ele>454.2</ele>
        <time>2019-08-15T09:08:37Z</time>
      </trkpt>
      <trkpt lat="48.7217820" lon="13.5177280">
        <ele>454.0</ele>
        <time>2019-08-15T09:08:38Z</time>
      </trkpt>
      <trkpt lat="48.7219200" lon="13.5177250">
        <ele>453.4</ele>
        <time>2019-08-15T09:08:39Z</time>
      </trkpt>
      <trkpt lat="48.7220530" lon="13.5177180">
        <ele>452.8</ele>
        <time>2019-08-15T09:08:40Z</time>
      </trkpt>
      <trkpt lat="48.7221830" lon="13.5177200">
        <ele>452.0</ele>
        <time>2019-08-15T09:08:41Z</time>
      </trkpt>
      <trkpt lat="48.7223140" lon="13.5177250">
        <ele>451.2</ele>
        <time>2019-08-15T09:08:42Z</time>
      </trkpt>
      <trkpt lat="48.7224460" lon="13.5177340">
        <ele>450.2</ele>
        <time>2019-08-15T09:08:43Z</time>
      </trkpt>
      <trkpt lat="48.7225760" lon="13.5177420">
        <ele>449.2</ele>
        <time>2019-08-15T09:08:44Z</time>
      </trkpt>
      <trkpt lat="48.7227070" lon="13.5177520">
        <ele>448.2</ele>
        <time>2019-08-15T09:08:45Z</time>
      </trkpt>
      <trkpt lat="48.7228420" lon="13.5177710">
        <ele>447.0</ele>
        <time>2019-08-15T09:08:46Z</time>
      </trkpt>
      <trkpt lat="48.7229740" lon="13.5177840">
        <ele>446.0</ele>
        <time>2019-08-15T09:08:47Z</time>
      </trkpt>
      <trkpt lat="48.7230990" lon="13.5177990">
        <ele>445.4</ele>
        <time>2019-08-15T09:08:48Z</time>
      </trkpt>
      <trkpt lat="48.7232270" lon="13.5178170">
        <ele>444.8</ele>
        <time>2019-08-15T09:08:49Z</time>
      </trkpt>
      <trkpt lat="48.7233490" lon="13.5178350">
        <ele>443.8</ele>
        <time>2019-08-15T09:08:50Z</time>
      </trkpt>
      <trkpt lat="48.7234700" lon="13.5178550">
        <ele>442.8</ele>
        <time>2019-08-15T09:08:51Z</time>
      </trkpt>
      <trkpt lat="48.7235930" lon="13.5178780">
        <ele>441.6</ele>
        <time>2019-08-15T09:08:52Z</time>
      </trkpt>
      <trkpt lat="48.7237100" lon="13.5179080">
        <ele>440.4</ele>
        <time>2019-08-15T09:08:53Z</time>
      </trkpt>
      <trkpt lat="48.7238210" lon="13.5179410">
        <ele>439.4</ele>
        <time>2019-08-15T09:08:54Z</time>
      </trkpt>
      <trkpt lat="48.7239320" lon="13.5179830">
        <ele>438.2</ele>
        <time>2019-08-15T09:08:55Z</time>
      </trkpt>
      <trkpt lat="48.7240490" lon="13.5180380">
        <ele>437.2</ele>
        <time>2019-08-15T09:08:56Z</time>
      </trkpt>
      <trkpt lat="48.7241660" lon="13.5181060">
        <ele>436.4</ele>
        <time>2019-08-15T09:08:57Z</time>
      </trkpt>
      <trkpt lat="48.7242820" lon="13.5181850">
        <ele>435.4</ele>
        <time>2019-08-15T09:08:58Z</time>
      </trkpt>
      <trkpt lat="48.7243960" lon="13.5182720">
        <ele>434.2</ele>
        <time>2019-08-15T09:08:59Z</time>
      </trkpt>
      <trkpt lat="48.7245050" lon="13.5183580">
        <ele>433.0</ele>
        <time>2019-08-15T09:09:00Z</time>
      </trkpt>
      <trkpt lat="48.7246070" lon="13.5184400">
        <ele>431.6</ele>
        <time>2019-08-15T09:09:01Z</time>
      </trkpt>
      <trkpt lat="48.7247020" lon="13.5185240">
        <ele>430.4</ele>
        <time>2019-08-15T09:09:02Z</time>
      </trkpt>
      <trkpt lat="48.7247920" lon="13.5186130">
        <ele>429.2</ele>
        <time>2019-08-15T09:09:03Z</time>
      </trkpt>
      <trkpt lat="48.7248740" lon="13.5187050">
        <ele>428.0</ele>
        <time>2019-08-15T09:09:04Z</time>
      </trkpt>
      <trkpt lat="48.7249490" lon="13.5187940">
        <ele>427.0</ele>
        <time>2019-08-15T09:09:05Z</time>
      </trkpt>
      <trkpt lat="48.7250160" lon="13.5188840">
        <ele>425.8</ele>
        <time>2019-08-15T09:09:06Z</time>
      </trkpt>
      <trkpt lat="48.7250720" lon="13.5189810">
        <ele>424.8</ele>
        <time>2019-08-15T09:09:07Z</time>
      </trkpt>
      <trkpt lat="48.7251240" lon="13.5190940">
        <ele>423.8</ele>
        <time>2019-08-15T09:09:08Z</time>
      </trkpt>
      <trkpt lat="48.7251640" lon="13.5192130">
        <ele>422.8</ele>
        <time>2019-08-15T09:09:09Z</time>
      </trkpt>
      <trkpt lat="48.7251900" lon="13.5193330">
        <ele>422.0</ele>
        <time>2019-08-15T09:09:10Z</time>
      </trkpt>
      <trkpt lat="48.7252010" lon="13.5194760">
        <ele>421.0</ele>
        <time>2019-08-15T09:09:11Z</time>
      </trkpt>
      <trkpt lat="48.7252030" lon="13.5196370">
        <ele>420.0</ele>
        <time>2019-08-15T09:09:12Z</time>
      </trkpt>
      <trkpt lat="48.7251930" lon="13.5198050">
        <ele>419.0</ele>
        <time>2019-08-15T09:09:13Z</time>
      </trkpt>
      <trkpt lat="48.7251750" lon="13.5199820">
        <ele>418.4</ele>
        <time>2019-08-15T09:09:14Z</time>
      </trkpt>
      <trkpt lat="48.7251550" lon="13.5201510">
        <ele>417.6</ele>
        <time>2019-08-15T09:09:15Z</time>
      </trkpt>
      <trkpt lat="48.7251320" lon="13.5203150">
        <ele>417.2</ele>
        <time>2019-08-15T09:09:16Z</time>
      </trkpt>
      <trkpt lat="48.7251050" lon="13.5204750">
        <ele>417.0</ele>
        <time>2019-08-15T09:09:17Z</time>
      </trkpt>
      <trkpt lat="48.7250840" lon="13.5206370">
        <ele>416.8</ele>
        <time>2019-08-15T09:09:18Z</time>
      </trkpt>
      <trkpt lat="48.7250660" lon="13.5207950">
        <ele>416.4</ele>
        <time>2019-08-15T09:09:19Z</time>
      </trkpt>
      <trkpt lat="48.7250500" lon="13.5209360">
        <ele>416.0</ele>
        <time>2019-08-15T09:09:20Z</time>
      </trkpt>
      <trkpt lat="48.7250330" lon="13.5210690">
        <ele>415.8</ele>
        <time>2019-08-15T09:09:21Z</time>
      </trkpt>
      <trkpt lat="48.7250060" lon="13.5212030">
        <ele>415.4</ele>
        <time>2019-08-15T09:09:22Z</time>
      </trkpt>
      <trkpt lat="48.7249980" lon="13.5213260">
        <ele>415.2</ele>
        <time>2019-08-15T09:09:23Z</time>
      </trkpt>
      <trkpt lat="48.7249900" lon="13.5214580">
        <ele>415.0</ele>
        <time>2019-08-15T09:09:24Z</time>
      </trkpt>
      <trkpt lat="48.7249800" lon="13.5215870">
        <ele>414.8</ele>
        <time>2019-08-15T09:09:25Z</time>
      </trkpt>
      <trkpt lat="48.7249720" lon="13.5217140">
        <ele>414.8</ele>
        <time>2019-08-15T09:09:26Z</time>
      </trkpt>
      <trkpt lat="48.7249680" lon="13.5218360">
        <ele>414.6</ele>
        <time>2019-08-15T09:09:27Z</time>
      </trkpt>
      <trkpt lat="48.7249670" lon="13.5219570">
        <ele>414.4</ele>
        <time>2019-08-15T09:09:28Z</time>
      </trkpt>
      <trkpt lat="48.7249690" lon="13.5220810">
        <ele>414.2</ele>
        <time>2019-08-15T09:09:29Z</time>
      </trkpt>
      <trkpt lat="48.7249740" lon="13.5222010">
        <ele>414.2</ele>
        <time>2019-08-15T09:09:30Z</time>
      </trkpt>
      <trkpt lat="48.7249840" lon="13.5223250">
        <ele>414.0</ele>
        <time>2019-08-15T09:09:31Z</time>
      </trkpt>
      <trkpt lat="48.7249940" lon="13.5224450">
        <ele>413.8</ele>
        <time>2019-08-15T09:09:32Z</time>
      </trkpt>
      <trkpt lat="48.7249970" lon="13.5225620">
        <ele>413.6</ele>
        <time>2019-08-15T09:09:33Z</time>
      </trkpt>
      <trkpt lat="48.7249970" lon="13.5226850">
        <ele>413.4</ele>
        <time>2019-08-15T09:09:34Z</time>
      </trkpt>
      <trkpt lat="48.7250000" lon="13.5228100">
        <ele>413.2</ele>
        <time>2019-08-15T09:09:35Z</time>
      </trkpt>
      <trkpt lat="48.7250010" lon="13.5229340">
        <ele>412.8</ele>
        <time>2019-08-15T09:09:36Z</time>
      </trkpt>
      <trkpt lat="48.7250070" lon="13.5230600">
        <ele>412.6</ele>
        <time>2019-08-15T09:09:37Z</time>
      </trkpt>
      <trkpt lat="48.7250150" lon="13.5231840">
        <ele>412.4</ele>
        <time>2019-08-15T09:09:38Z</time>
      </trkpt>
      <trkpt lat="48.7250210" lon="13.5233030">
        <ele>412.2</ele>
        <time>2019-08-15T09:09:39Z</time>
      </trkpt>
      <trkpt lat="48.7250300" lon="13.5234450">
        <ele>412.0</ele>
        <time>2019-08-15T09:09:40Z</time>
      </trkpt>
      <trkpt lat="48.7250390" lon="13.5235670">
        <ele>411.8</ele>
        <time>2019-08-15T09:09:41Z</time>
      </trkpt>
      <trkpt lat="48.7250510" lon="13.5236840">
        <ele>411.6</ele>
        <time>2019-08-15T09:09:42Z</time>
      </trkpt>
      <trkpt lat="48.7250690" lon="13.5237970">
        <ele>411.4</ele>
        <time>2019-08-15T09:09:43Z</time>
      </trkpt>
      <trkpt lat="48.7250970" lon="13.5239070">
        <ele>411.0</ele>
        <time>2019-08-15T09:09:44Z</time>
      </trkpt>
      <trkpt lat="48.7251300" lon="13.5239990">
        <ele>410.8</ele>
        <time>2019-08-15T09:09:45Z</time>
      </trkpt>
      <trkpt lat="48.7251640" lon="13.5240730">
        <ele>410.8</ele>
        <time>2019-08-15T09:09:46Z</time>
      </trkpt>
      <trkpt lat="48.7251990" lon="13.5241310">
        <ele>410.6</ele>
        <time>2019-08-15T09:09:47Z</time>
      </trkpt>
      <trkpt lat="48.7252460" lon="13.5241800">
        <ele>410.4</ele>
        <time>2019-08-15T09:09:48Z</time>
      </trkpt>
      <trkpt lat="48.7252910" lon="13.5242000">
        <ele>410.2</ele>
        <time>2019-08-15T09:09:49Z</time>
      </trkpt>
      <trkpt lat="48.7253370" lon="13.5241990">
        <ele>410.0</ele>
        <time>2019-08-15T09:09:50Z</time>
      </trkpt>
      <trkpt lat="48.7253880" lon="13.5241900">
        <ele>409.8</ele>
        <time>2019-08-15T09:09:51Z</time>
      </trkpt>
      <trkpt lat="48.7254340" lon="13.5241770">
        <ele>409.8</ele>
        <time>2019-08-15T09:09:52Z</time>
      </trkpt>
      <trkpt lat="48.7254790" lon="13.5241650">
        <ele>409.8</ele>
        <time>2019-08-15T09:09:53Z</time>
      </trkpt>
      <trkpt lat="48.7255210" lon="13.5241580">
        <ele>409.8</ele>
        <time>2019-08-15T09:09:54Z</time>
      </trkpt>
      <trkpt lat="48.7255580" lon="13.5241530">
        <ele>409.8</ele>
        <time>2019-08-15T09:09:55Z</time>
      </trkpt>
      <trkpt lat="48.7255900" lon="13.5241510">
        <ele>410.0</ele>
        <time>2019-08-15T09:09:56Z</time>
      </trkpt>
      <trkpt lat="48.7256170" lon="13.5241480">
        <ele>410.0</ele>
        <time>2019-08-15T09:09:57Z</time>
      </trkpt>
      <trkpt lat="48.7256390" lon="13.5241470">
        <ele>410.2</ele>
        <time>2019-08-15T09:09:58Z</time>
      </trkpt>
      <trkpt lat="48.7256540" lon="13.5241470">
        <ele>410.2</ele>
        <time>2019-08-15T09:09:59Z</time>
      </trkpt>
      <trkpt lat="48.7256660" lon="13.5241520">
        <ele>410.4</ele>
        <time>2019-08-15T09:10:00Z</time>
      </trkpt>
      <trkpt lat="48.7256780" lon="13.5241590">
        <ele>410.4</ele>
        <time>2019-08-15T09:10:01Z</time>
      </trkpt>
      <trkpt lat="48.7256900" lon="13.5241650">
        <ele>410.6</ele>
        <time>2019-08-15T09:10:02Z</time>
      </trkpt>
      <trkpt lat="48.7257040" lon="13.5241680">
        <ele>410.6</ele>
        <time>2019-08-15T09:10:03Z</time>
      </trkpt>
      <trkpt lat="48.7257160" lon="13.5241690">
        <ele>410.8</ele>
        <time>2019-08-15T09:10:04Z</time>
      </trkpt>
      <trkpt lat="48.7257270" lon="13.5241740">
        <ele>410.8</ele>
        <time>2019-08-15T09:10:05Z</time>
      </trkpt>
      <trkpt lat="48.7257350" lon="13.5241860">
        <ele>411.0</ele>
        <time>2019-08-15T09:10:06Z</time>
      </trkpt>
      <trkpt lat="48.7257400" lon="13.5242040">
        <ele>411.0</ele>
        <time>2019-08-15T09:10:07Z</time>
      </trkpt>
      <trkpt lat="48.7257360" lon="13.5242250">
        <ele>411.0</ele>
        <time>2019-08-15T09:10:08Z</time>
      </trkpt>
      <trkpt lat="48.7257250" lon="13.5242490">
        <ele>411.2</ele>
        <time>2019-08-15T09:10:09Z</time>
      </trkpt>
      <trkpt lat="48.7257080" lon="13.5242680">
        <ele>411.2</ele>
        <time>2019-08-15T09:10:10Z</time>
      </trkpt>
      <trkpt lat="48.7256840" lon="13.5242780">
        <ele>411.2</ele>
        <time>2019-08-15T09:10:11Z</time>
      </trkpt>
      <trkpt lat="48.7256610" lon="13.5242850">
        <ele>411.2</ele>
        <time>2019-08-15T09:10:12Z</time>
      </trkpt>
      <trkpt lat="48.7256390" lon="13.5242890">
        <ele>411.2</ele>
        <time>2019-08-15T09:10:13Z</time>
      </trkpt>
      <trkpt lat="48.7256160" lon="13.5242930">
        <ele>411.4</ele>
        <time>2019-08-15T09:10:14Z</time>
      </trkpt>
      <trkpt lat="48.7255930" lon="13.5243000">
        <ele>411.4</ele>
        <time>2019-08-15T09:10:15Z</time>
      </trkpt>
      <trkpt lat="48.7255690" lon="13.5243120">
        <ele>411.6</ele>
        <time>2019-08-15T09:10:16Z</time>
      </trkpt>
      <trkpt lat="48.7255430" lon="13.5243270">
        <ele>411.6</ele>
        <time>2019-08-15T09:10:17Z</time>
      </trkpt>
      <trkpt lat="48.7255150" lon="13.5243450">
        <ele>411.6</ele>
        <time>2019-08-15T09:10:18Z</time>
      </trkpt>
      <trkpt lat="48.7254870" lon="13.5243610">
        <ele>411.6</ele>
        <time>2019-08-15T09:10:19Z</time>
      </trkpt>
      <trkpt lat="48.7254600" lon="13.5243810">
        <ele>411.6</ele>
        <time>2019-08-15T09:10:20Z</time>
      </trkpt>
      <trkpt lat="48.7254340" lon="13.5244040">
        <ele>411.6</ele>
        <time>2019-08-15T09:10:21Z</time>
      </trkpt>
      <trkpt lat="48.7254090" lon="13.5244290">
        <ele>411.6</ele>
        <time>2019-08-15T09:10:22Z</time>
      </trkpt>
      <trkpt lat="48.7253820" lon="13.5244540">
        <ele>411.6</ele>
        <time>2019-08-15T09:10:23Z</time>
      </trkpt>
      <trkpt lat="48.7253530" lon="13.5244780">
        <ele>411.6</ele>
        <time>2019-08-15T09:10:24Z</time>
      </trkpt>
      <trkpt lat="48.7253250" lon="13.5245030">
        <ele>411.6</ele>
        <time>2019-08-15T09:10:25Z</time>
      </trkpt>
      <trkpt lat="48.7252980" lon="13.5245300">
        <ele>411.6</ele>
        <time>2019-08-15T09:10:26Z</time>
      </trkpt>
      <trkpt lat="48.7252700" lon="13.5245590">
        <ele>411.6</ele>
        <time>2019-08-15T09:10:27Z</time>
      </trkpt>
      <trkpt lat="48.7252410" lon="13.5245880">
        <ele>411.6</ele>
        <time>2019-08-15T09:10:28Z</time>
      </trkpt>
      <trkpt lat="48.7252110" lon="13.5246200">
        <ele>411.6</ele>
        <time>2019-08-15T09:10:29Z</time>
      </trkpt>
      <trkpt lat="48.7251810" lon="13.5246530">
        <ele>411.6</ele>
        <time>2019-08-15T09:10:30Z</time>
      </trkpt>
      <trkpt lat="48.7251500" lon="13.5246840">
        <ele>411.8</ele>
        <time>2019-08-15T09:10:31Z</time>
      </trkpt>
      <trkpt lat="48.7251190" lon="13.5247120">
        <ele>411.8</ele>
        <time>2019-08-15T09:10:32Z</time>
      </trkpt>
      <trkpt lat="48.7250880" lon="13.5247430">
        <ele>411.8</ele>
        <time>2019-08-15T09:10:33Z</time>
      </trkpt>
      <trkpt lat="48.7250570" lon="13.5247740">
        <ele>412.0</ele>
        <time>2019-08-15T09:10:34Z</time>
      </trkpt>
      <trkpt lat="48.7250260" lon="13.5248080">
        <ele>412.0</ele>
        <time>2019-08-15T09:10:35Z</time>
      </trkpt>
      <trkpt lat="48.7249970" lon="13.5248430">
        <ele>412.2</ele>
        <time>2019-08-15T09:10:36Z</time>
      </trkpt>
      <trkpt lat="48.7249680" lon="13.5248790">
        <ele>412.2</ele>
        <time>2019-08-15T09:10:37Z</time>
      </trkpt>
      <trkpt lat="48.7249390" lon="13.5249130">
        <ele>412.4</ele>
        <time>2019-08-15T09:10:38Z</time>
      </trkpt>
      <trkpt lat="48.7249100" lon="13.5249460">
        <ele>412.4</ele>
        <time>2019-08-15T09:10:39Z</time>
      </trkpt>
      <trkpt lat="48.7248820" lon="13.5249810">
        <ele>412.6</ele>
        <time>2019-08-15T09:10:40Z</time>
      </trkpt>
      <trkpt lat="48.7248580" lon="13.5250190">
        <ele>412.6</ele>
        <time>2019-08-15T09:10:41Z</time>
      </trkpt>
      <trkpt lat="48.7248350" lon="13.5250570">
        <ele>412.6</ele>
        <time>2019-08-15T09:10:42Z</time>
      </trkpt>
      <trkpt lat="48.7248130" lon="13.5250930">
        <ele>412.8</ele>
        <time>2019-08-15T09:10:43Z</time>
      </trkpt>
      <trkpt lat="48.7247860" lon="13.5251240">
        <ele>412.8</ele>
        <time>2019-08-15T09:10:44Z</time>
      </trkpt>
      <trkpt lat="48.7247650" lon="13.5251530">
        <ele>413.0</ele>
        <time>2019-08-15T09:10:45Z</time>
      </trkpt>
      <trkpt lat="48.7247450" lon="13.5251810">
        <ele>413.0</ele>
        <time>2019-08-15T09:10:46Z</time>
      </trkpt>
      <trkpt lat="48.7247260" lon="13.5252130">
        <ele>413.2</ele>
        <time>2019-08-15T09:10:47Z</time>
      </trkpt>
      <trkpt lat="48.7247080" lon="13.5252450">
        <ele>413.4</ele>
        <time>2019-08-15T09:10:48Z</time>
      </trkpt>
      <trkpt lat="48.7246900" lon="13.5252780">
        <ele>413.4</ele>
        <time>2019-08-15T09:10:49Z</time>
      </trkpt>
      <trkpt lat="48.7246710" lon="13.5253180">
        <ele>413.6</ele>
        <time>2019-08-15T09:10:50Z</time>
      </trkpt>
      <trkpt lat="48.7246530" lon="13.5253660">
        <ele>413.8</ele>
        <time>2019-08-15T09:10:51Z</time>
      </trkpt>
      <trkpt lat="48.7246370" lon="13.5254100">
        <ele>413.8</ele>
        <time>2019-08-15T09:10:52Z</time>
      </trkpt>
      <trkpt lat="48.7246260" lon="13.5254510">
        <ele>414.0</ele>
        <time>2019-08-15T09:10:53Z</time>
      </trkpt>
      <trkpt lat="48.7246150" lon="13.5254980">
        <ele>414.2</ele>
        <time>2019-08-15T09:10:54Z</time>
      </trkpt>
      <trkpt lat="48.7246060" lon="13.5255460">
        <ele>414.4</ele>
        <time>2019-08-15T09:10:55Z</time>
      </trkpt>
      <trkpt lat="48.7245980" lon="13.5255930">
        <ele>414.4</ele>
        <time>2019-08-15T09:10:56Z</time>
      </trkpt>
      <trkpt lat="48.7245920" lon="13.5256420">
        <ele>414.6</ele>
        <time>2019-08-15T09:10:57Z</time>
      </trkpt>
      <trkpt lat="48.7245850" lon="13.5256950">
        <ele>414.8</ele>
        <time>2019-08-15T09:10:58Z</time>
      </trkpt>
      <trkpt lat="48.7245750" lon="13.5257490">
        <ele>415.0</ele>
        <time>2019-08-15T09:10:59Z</time>
      </trkpt>
      <trkpt lat="48.7245640" lon="13.5258010">
        <ele>415.0</ele>
        <time>2019-08-15T09:11:00Z</time>
      </trkpt>
      <trkpt lat="48.7245530" lon="13.5258520">
        <ele>415.2</ele>
        <time>2019-08-15T09:11:01Z</time>
      </trkpt>
      <trkpt lat="48.7245430" lon="13.5259040">
        <ele>415.4</ele>
        <time>2019-08-15T09:11:02Z</time>
      </trkpt>
      <trkpt lat="48.7245370" lon="13.5259550">
        <ele>415.4</ele>
        <time>2019-08-15T09:11:03Z</time>
      </trkpt>
      <trkpt lat="48.7245300" lon="13.5260050">
        <ele>415.6</ele>
        <time>2019-08-15T09:11:04Z</time>
      </trkpt>
      <trkpt lat="48.7245250" lon="13.5260560">
        <ele>415.8</ele>
        <time>2019-08-15T09:11:05Z</time>
      </trkpt>
      <trkpt lat="48.7245200" lon="13.5261070">
        <ele>415.8</ele>
        <time>2019-08-15T09:11:06Z</time>
      </trkpt>
      <trkpt lat="48.7245150" lon="13.5261570">
        <ele>416.0</ele>
        <time>2019-08-15T09:11:07Z</time>
      </trkpt>
      <trkpt lat="48.7245150" lon="13.5262050">
        <ele>416.2</ele>
        <time>2019-08-15T09:11:08Z</time>
      </trkpt>
      <trkpt lat="48.7245120" lon="13.5262520">
        <ele>416.4</ele>
        <time>2019-08-15T09:11:09Z</time>
      </trkpt>
      <trkpt lat="48.7245070" lon="13.5263000">
        <ele>416.4</ele>
        <time>2019-08-15T09:11:10Z</time>
      </trkpt>
      <trkpt lat="48.7244980" lon="13.5263580">
        <ele>416.6</ele>
        <time>2019-08-15T09:11:11Z</time>
      </trkpt>
      <trkpt lat="48.7244920" lon="13.5264090">
        <ele>416.8</ele>
        <time>2019-08-15T09:11:12Z</time>
      </trkpt>
      <trkpt lat="48.7244850" lon="13.5264610">
        <ele>417.0</ele>
        <time>2019-08-15T09:11:13Z</time>
      </trkpt>
      <trkpt lat="48.7244770" lon="13.5265120">
        <ele>417.2</ele>
        <time>2019-08-15T09:11:14Z</time>
      </trkpt>
      <trkpt lat="48.7244720" lon="13.5265600">
        <ele>417.2</ele>
        <time>2019-08-15T09:11:15Z</time>
      </trkpt>
      <trkpt lat="48.7244650" lon="13.5266040">
        <ele>417.4</ele>
        <time>2019-08-15T09:11:16Z</time>
      </trkpt>
      <trkpt lat="48.7244600" lon="13.5266570">
        <ele>417.4</ele>
        <time>2019-08-15T09:11:17Z</time>
      </trkpt>
      <trkpt lat="48.7244560" lon="13.5267080">
        <ele>417.6</ele>
        <time>2019-08-15T09:11:18Z</time>
      </trkpt>
      <trkpt lat="48.7244510" lon="13.5267580">
        <ele>417.8</ele>
        <time>2019-08-15T09:11:19Z</time>
      </trkpt>
      <trkpt lat="48.7244430" lon="13.5268100">
        <ele>418.0</ele>
        <time>2019-08-15T09:11:20Z</time>
      </trkpt>
      <trkpt lat="48.7244320" lon="13.5268630">
        <ele>418.0</ele>
        <time>2019-08-15T09:11:21Z</time>
      </trkpt>
      <trkpt lat="48.7244190" lon="13.5269140">
        <ele>418.2</ele>
        <time>2019-08-15T09:11:22Z</time>
      </trkpt>
      <trkpt lat="48.7244050" lon="13.5269610">
        <ele>418.4</ele>
        <time>2019-08-15T09:11:23Z</time>
      </trkpt>
      <trkpt lat="48.7243910" lon="13.5270070">
        <ele>418.4</ele>
        <time>2019-08-15T09:11:24Z</time>
      </trkpt>
      <trkpt lat="48.7243760" lon="13.5270520">
        <ele>418.6</ele>
        <time>2019-08-15T09:11:25Z</time>
      </trkpt>
      <trkpt lat="48.7243600" lon="13.5270970">
        <ele>418.8</ele>
        <time>2019-08-15T09:11:26Z</time>
      </trkpt>
      <trkpt lat="48.7243430" lon="13.5271390">
        <ele>419.0</ele>
        <time>2019-08-15T09:11:27Z</time>
      </trkpt>
      <trkpt lat="48.7243230" lon="13.5271820">
        <ele>419.2</ele>
        <time>2019-08-15T09:11:28Z</time>
      </trkpt>
      <trkpt lat="48.7243030" lon="13.5272240">
        <ele>419.2</ele>
        <time>2019-08-15T09:11:29Z</time>
      </trkpt>
      <trkpt lat="48.7242840" lon="13.5272670">
        <ele>419.4</ele>
        <time>2019-08-15T09:11:30Z</time>
      </trkpt>
      <trkpt lat="48.7242640" lon="13.5273080">
        <ele>419.6</ele>
        <time>2019-08-15T09:11:31Z</time>
      </trkpt>
      <trkpt lat="48.7242480" lon="13.5273500">
        <ele>419.6</ele>
        <time>2019-08-15T09:11:32Z</time>
      </trkpt>
      <trkpt lat="48.7242330" lon="13.5273910">
        <ele>419.8</ele>
        <time>2019-08-15T09:11:33Z</time>
      </trkpt>
      <trkpt lat="48.7242160" lon="13.5274330">
        <ele>420.0</ele>
        <time>2019-08-15T09:11:34Z</time>
      </trkpt>
      <trkpt lat="48.7241980" lon="13.5274760">
        <ele>420.0</ele>
        <time>2019-08-15T09:11:35Z</time>
      </trkpt>
      <trkpt lat="48.7241810" lon="13.5275180">
        <ele>420.2</ele>
        <time>2019-08-15T09:11:36Z</time>
      </trkpt>
      <trkpt lat="48.7241620" lon="13.5275620">
        <ele>420.4</ele>
        <time>2019-08-15T09:11:37Z</time>
      </trkpt>
      <trkpt lat="48.7241440" lon="13.5276030">
        <ele>420.4</ele>
        <time>2019-08-15T09:11:38Z</time>
      </trkpt>
      <trkpt lat="48.7241260" lon="13.5276430">
        <ele>420.4</ele>
        <time>2019-08-15T09:11:39Z</time>
      </trkpt>
      <trkpt lat="48.7241090" lon="13.5276830">
        <ele>420.6</ele>
        <time>2019-08-15T09:11:40Z</time>
      </trkpt>
      <trkpt lat="48.7240910" lon="13.5277240">
        <ele>420.8</ele>
        <time>2019-08-15T09:11:41Z</time>
      </trkpt>
      <trkpt lat="48.7240720" lon="13.5277620">
        <ele>420.8</ele>
        <time>2019-08-15T09:11:42Z</time>
      </trkpt>
      <trkpt lat="48.7240500" lon="13.5278000">
        <ele>420.8</ele>
        <time>2019-08-15T09:11:43Z</time>
      </trkpt>
      <trkpt lat="48.7240300" lon="13.5278360">
        <ele>421.0</ele>
        <time>2019-08-15T09:11:44Z</time>
      </trkpt>
      <trkpt lat="48.7240090" lon="13.5278700">
        <ele>421.2</ele>
        <time>2019-08-15T09:11:45Z</time>
      </trkpt>
      <trkpt lat="48.7239870" lon="13.5279040">
        <ele>421.2</ele>
        <time>2019-08-15T09:11:46Z</time>
      </trkpt>
      <trkpt lat="48.7239650" lon="13.5279400">
        <ele>421.4</ele>
        <time>2019-08-15T09:11:47Z</time>
      </trkpt>
      <trkpt lat="48.7239410" lon="13.5279750">
        <ele>421.6</ele>
        <time>2019-08-15T09:11:48Z</time>
      </trkpt>
      <trkpt lat="48.7239160" lon="13.5280080">
        <ele>421.6</ele>
        <time>2019-08-15T09:11:49Z</time>
      </trkpt>
      <trkpt lat="48.7238910" lon="13.5280390">
        <ele>421.8</ele>
        <time>2019-08-15T09:11:50Z</time>
      </trkpt>
      <trkpt lat="48.7238680" lon="13.5280710">
        <ele>422.0</ele>
        <time>2019-08-15T09:11:51Z</time>
      </trkpt>
      <trkpt lat="48.7238430" lon="13.5281010">
        <ele>422.2</ele>
        <time>2019-08-15T09:11:52Z</time>
      </trkpt>
      <trkpt lat="48.7238170" lon="13.5281260">
        <ele>422.2</ele>
        <time>2019-08-15T09:11:53Z</time>
      </trkpt>
      <trkpt lat="48.7237910" lon="13.5281530">
        <ele>422.4</ele>
        <time>2019-08-15T09:11:54Z</time>
      </trkpt>
      <trkpt lat="48.7237660" lon="13.5281790">
        <ele>422.4</ele>
        <time>2019-08-15T09:11:55Z</time>
      </trkpt>
      <trkpt lat="48.7237390" lon="13.5282050">
        <ele>422.6</ele>
        <time>2019-08-15T09:11:56Z</time>
      </trkpt>
      <trkpt lat="48.7237100" lon="13.5282260">
        <ele>422.8</ele>
        <time>2019-08-15T09:11:57Z</time>
      </trkpt>
      <trkpt lat="48.7236810" lon="13.5282440">
        <ele>423.0</ele>
        <time>2019-08-15T09:11:58Z</time>
      </trkpt>
      <trkpt lat="48.7236510" lon="13.5282640">
        <ele>423.0</ele>
        <time>2019-08-15T09:11:59Z</time>
      </trkpt>
      <trkpt lat="48.7236220" lon="13.5282870">
        <ele>423.2</ele>
        <time>2019-08-15T09:12:00Z</time>
      </trkpt>
      <trkpt lat="48.7235930" lon="13.5283110">
        <ele>423.4</ele>
        <time>2019-08-15T09:12:01Z</time>
      </trkpt>
      <trkpt lat="48.7235650" lon="13.5283340">
        <ele>423.6</ele>
        <time>2019-08-15T09:12:02Z</time>
      </trkpt>
      <trkpt lat="48.7235370" lon="13.5283580">
        <ele>423.6</ele>
        <time>2019-08-15T09:12:03Z</time>
      </trkpt>
      <trkpt lat="48.7235110" lon="13.5283820">
        <ele>423.8</ele>
        <time>2019-08-15T09:12:04Z</time>
      </trkpt>
      <trkpt lat="48.7234860" lon="13.5284070">
        <ele>424.0</ele>
        <time>2019-08-15T09:12:05Z</time>
      </trkpt>
      <trkpt lat="48.7234590" lon="13.5284330">
        <ele>424.2</ele>
        <time>2019-08-15T09:12:06Z</time>
      </trkpt>
      <trkpt lat="48.7234340" lon="13.5284600">
        <ele>424.4</ele>
        <time>2019-08-15T09:12:07Z</time>
      </trkpt>
      <trkpt lat="48.7234110" lon="13.5284870">
        <ele>424.6</ele>
        <time>2019-08-15T09:12:08Z</time>
      </trkpt>
      <trkpt lat="48.7233890" lon="13.5285150">
        <ele>424.8</ele>
        <time>2019-08-15T09:12:09Z</time>
      </trkpt>
      <trkpt lat="48.7233660" lon="13.5285410">
        <ele>425.0</ele>
        <time>2019-08-15T09:12:10Z</time>
      </trkpt>
      <trkpt lat="48.7233430" lon="13.5285670">
        <ele>425.2</ele>
        <time>2019-08-15T09:12:11Z</time>
      </trkpt>
      <trkpt lat="48.7233170" lon="13.5285950">
        <ele>425.2</ele>
        <time>2019-08-15T09:12:12Z</time>
      </trkpt>
      <trkpt lat="48.7232930" lon="13.5286210">
        <ele>425.4</ele>
        <time>2019-08-15T09:12:13Z</time>
      </trkpt>
      <trkpt lat="48.7232690" lon="13.5286480">
        <ele>425.6</ele>
        <time>2019-08-15T09:12:14Z</time>
      </trkpt>
      <trkpt lat="48.7232450" lon="13.5286750">
        <ele>425.8</ele>
        <time>2019-08-15T09:12:15Z</time>
      </trkpt>
      <trkpt lat="48.7232230" lon="13.5287080">
        <ele>426.0</ele>
        <time>2019-08-15T09:12:16Z</time>
      </trkpt>
      <trkpt lat="48.7232010" lon="13.5287390">
        <ele>426.0</ele>
        <time>2019-08-15T09:12:17Z</time>
      </trkpt>
      <trkpt lat="48.7231790" lon="13.5287710">
        <ele>426.2</ele>
        <time>2019-08-15T09:12:18Z</time>
      </trkpt>
      <trkpt lat="48.7231570" lon="13.5288010">
        <ele>426.6</ele>
        <time>2019-08-15T09:12:19Z</time>
      </trkpt>
      <trkpt lat="48.7231350" lon="13.5288350">
        <ele>426.6</ele>
        <time>2019-08-15T09:12:20Z</time>
      </trkpt>
      <trkpt lat="48.7231130" lon="13.5288680">
        <ele>426.8</ele>
        <time>2019-08-15T09:12:21Z</time>
      </trkpt>
      <trkpt lat="48.7230920" lon="13.5289000">
        <ele>427.0</ele>
        <time>2019-08-15T09:12:22Z</time>
      </trkpt>
      <trkpt lat="48.7230730" lon="13.5289350">
        <ele>427.2</ele>
        <time>2019-08-15T09:12:23Z</time>
      </trkpt>
      <trkpt lat="48.7230560" lon="13.5289710">
        <ele>427.4</ele>
        <time>2019-08-15T09:12:24Z</time>
      </trkpt>
      <trkpt lat="48.7230390" lon="13.5290090">
        <ele>427.6</ele>
        <time>2019-08-15T09:12:25Z</time>
      </trkpt>
      <trkpt lat="48.7230230" lon="13.5290460">
        <ele>427.6</ele>
        <time>2019-08-15T09:12:26Z</time>
      </trkpt>
      <trkpt lat="48.7230080" lon="13.5290820">
        <ele>427.8</ele>
        <time>2019-08-15T09:12:27Z</time>
      </trkpt>
      <trkpt lat="48.7229930" lon="13.5291190">
        <ele>428.0</ele>
        <time>2019-08-15T09:12:28Z</time>
      </trkpt>
      <trkpt lat="48.7229790" lon="13.5291600">
        <ele>428.2</ele>
        <time>2019-08-15T09:12:29Z</time>
      </trkpt>
      <trkpt lat="48.7229680" lon="13.5292020">
        <ele>428.2</ele>
        <time>2019-08-15T09:12:30Z</time>
      </trkpt>
      <trkpt lat="48.7229600" lon="13.5292450">
        <ele>428.4</ele>
        <time>2019-08-15T09:12:31Z</time>
      </trkpt>
      <trkpt lat="48.7229540" lon="13.5292900">
        <ele>428.4</ele>
        <time>2019-08-15T09:12:32Z</time>
      </trkpt>
      <trkpt lat="48.7229470" lon="13.5293360">
        <ele>428.6</ele>
        <time>2019-08-15T09:12:33Z</time>
      </trkpt>
      <trkpt lat="48.7229420" lon="13.5293830">
        <ele>428.6</ele>
        <time>2019-08-15T09:12:34Z</time>
      </trkpt>
      <trkpt lat="48.7229380" lon="13.5294300">
        <ele>428.8</ele>
        <time>2019-08-15T09:12:35Z</time>
      </trkpt>
      <trkpt lat="48.7229340" lon="13.5294780">
        <ele>428.8</ele>
        <time>2019-08-15T09:12:36Z</time>
      </trkpt>
      <trkpt lat="48.7229320" lon="13.5295240">
        <ele>429.0</ele>
        <time>2019-08-15T09:12:37Z</time>
      </trkpt>
      <trkpt lat="48.7229320" lon="13.5295690">
        <ele>429.2</ele>
        <time>2019-08-15T09:12:38Z</time>
      </trkpt>
      <trkpt lat="48.7229320" lon="13.5296160">
        <ele>429.2</ele>
        <time>2019-08-15T09:12:39Z</time>
      </trkpt>
      <trkpt lat="48.7229350" lon="13.5296630">
        <ele>429.4</ele>
        <time>2019-08-15T09:12:40Z</time>
      </trkpt>
      <trkpt lat="48.7229400" lon="13.5297080">
        <ele>429.4</ele>
        <time>2019-08-15T09:12:41Z</time>
      </trkpt>
      <trkpt lat="48.7229470" lon="13.5297530">
        <ele>429.6</ele>
        <time>2019-08-15T09:12:42Z</time>
      </trkpt>
      <trkpt lat="48.7229520" lon="13.5298000">
        <ele>429.8</ele>
        <time>2019-08-15T09:12:43Z</time>
      </trkpt>
      <trkpt lat="48.7229550" lon="13.5298450">
        <ele>429.8</ele>
        <time>2019-08-15T09:12:44Z</time>
      </trkpt>
      <trkpt lat="48.7229570" lon="13.5298900">
        <ele>430.0</ele>
        <time>2019-08-15T09:12:45Z</time>
      </trkpt>
      <trkpt lat="48.7229590" lon="13.5299370">
        <ele>430.0</ele>
        <time>2019-08-15T09:12:46Z</time>
      </trkpt>
      <trkpt lat="48.7229610" lon="13.5299820">
        <ele>430.2</ele>
        <time>2019-08-15T09:12:47Z</time>
      </trkpt>
      <trkpt lat="48.7229670" lon="13.5300270">
        <ele>430.2</ele>
        <time>2019-08-15T09:12:48Z</time>
      </trkpt>
      <trkpt lat="48.7229730" lon="13.5300710">
        <ele>430.4</ele>
        <time>2019-08-15T09:12:49Z</time>
      </trkpt>
      <trkpt lat="48.7229770" lon="13.5301150">
        <ele>430.4</ele>
        <time>2019-08-15T09:12:50Z</time>
      </trkpt>
      <trkpt lat="48.7229800" lon="13.5301490">
        <ele>430.6</ele>
        <time>2019-08-15T09:12:51Z</time>
      </trkpt>
      <trkpt lat="48.7229830" lon="13.5302050">
        <ele>430.6</ele>
        <time>2019-08-15T09:12:52Z</time>
      </trkpt>
      <trkpt lat="48.7229830" lon="13.5302550">
        <ele>430.8</ele>
        <time>2019-08-15T09:12:53Z</time>
      </trkpt>
      <trkpt lat="48.7229820" lon="13.5303010">
        <ele>431.0</ele>
        <time>2019-08-15T09:12:54Z</time>
      </trkpt>
      <trkpt lat="48.7229760" lon="13.5303490">
        <ele>431.0</ele>
        <time>2019-08-15T09:12:55Z</time>
      </trkpt>
      <trkpt lat="48.7229650" lon="13.5303980">
        <ele>431.2</ele>
        <time>2019-08-15T09:12:56Z</time>
      </trkpt>
      <trkpt lat="48.7229490" lon="13.5304460">
        <ele>431.4</ele>
        <time>2019-08-15T09:12:57Z</time>
      </trkpt>
      <trkpt lat="48.7229310" lon="13.5304890">
        <ele>431.4</ele>
        <time>2019-08-15T09:12:58Z</time>
      </trkpt>
      <trkpt lat="48.7229130" lon="13.5305290">
        <ele>431.4</ele>
        <time>2019-08-15T09:12:59Z</time>
      </trkpt>
      <trkpt lat="48.7228940" lon="13.5305720">
        <ele>431.6</ele>
        <time>2019-08-15T09:13:00Z</time>
      </trkpt>
      <trkpt lat="48.7228760" lon="13.5306110">
        <ele>431.6</ele>
        <time>2019-08-15T09:13:01Z</time>
      </trkpt>
      <trkpt lat="48.7228550" lon="13.5306520">
        <ele>431.8</ele>
        <time>2019-08-15T09:13:02Z</time>
      </trkpt>
      <trkpt lat="48.7228350" lon="13.5306880">
        <ele>431.8</ele>
        <time>2019-08-15T09:13:03Z</time>
      </trkpt>
      <trkpt lat="48.7228130" lon="13.5307250">
        <ele>432.0</ele>
        <time>2019-08-15T09:13:04Z</time>
      </trkpt>
      <trkpt lat="48.7227910" lon="13.5307590">
        <ele>432.2</ele>
        <time>2019-08-15T09:13:05Z</time>
      </trkpt>
      <trkpt lat="48.7227650" lon="13.5307910">
        <ele>432.2</ele>
        <time>2019-08-15T09:13:06Z</time>
      </trkpt>
      <trkpt lat="48.7227360" lon="13.5308210">
        <ele>432.4</ele>
        <time>2019-08-15T09:13:07Z</time>
      </trkpt>
      <trkpt lat="48.7227080" lon="13.5308450">
        <ele>432.4</ele>
        <time>2019-08-15T09:13:08Z</time>
      </trkpt>
      <trkpt lat="48.7226780" lon="13.5308670">
        <ele>432.6</ele>
        <time>2019-08-15T09:13:09Z</time>
      </trkpt>
      <trkpt lat="48.7226460" lon="13.5308870">
        <ele>432.8</ele>
        <time>2019-08-15T09:13:10Z</time>
      </trkpt>
      <trkpt lat="48.7226160" lon="13.5309030">
        <ele>433.0</ele>
        <time>2019-08-15T09:13:11Z</time>
      </trkpt>
      <trkpt lat="48.7225870" lon="13.5309160">
        <ele>433.0</ele>
        <time>2019-08-15T09:13:12Z</time>
      </trkpt>
      <trkpt lat="48.7225600" lon="13.5309270">
        <ele>433.2</ele>
        <time>2019-08-15T09:13:13Z</time>
      </trkpt>
      <trkpt lat="48.7225340" lon="13.5309350">
        <ele>433.4</ele>
        <time>2019-08-15T09:13:14Z</time>
      </trkpt>
      <trkpt lat="48.7225060" lon="13.5309390">
        <ele>433.6</ele>
        <time>2019-08-15T09:13:15Z</time>
      </trkpt>
      <trkpt lat="48.7224770" lon="13.5309420">
        <ele>433.8</ele>
        <time>2019-08-15T09:13:16Z</time>
      </trkpt>
      <trkpt lat="48.7224480" lon="13.5309410">
        <ele>434.0</ele>
        <time>2019-08-15T09:13:17Z</time>
      </trkpt>
      <trkpt lat="48.7224190" lon="13.5309360">
        <ele>434.0</ele>
        <time>2019-08-15T09:13:18Z</time>
      </trkpt>
      <trkpt lat="48.7223920" lon="13.5309280">
        <ele>434.2</ele>
        <time>2019-08-15T09:13:19Z</time>
      </trkpt>
      <trkpt lat="48.7223630" lon="13.5309190">
        <ele>434.4</ele>
        <time>2019-08-15T09:13:20Z</time>
      </trkpt>
      <trkpt lat="48.7223350" lon="13.5309070">
        <ele>434.6</ele>
        <time>2019-08-15T09:13:21Z</time>
      </trkpt>
      <trkpt lat="48.7223060" lon="13.5308930">
        <ele>434.8</ele>
        <time>2019-08-15T09:13:22Z</time>
      </trkpt>
      <trkpt lat="48.7222770" lon="13.5308770">
        <ele>434.8</ele>
        <time>2019-08-15T09:13:23Z</time>
      </trkpt>
      <trkpt lat="48.7222480" lon="13.5308590">
        <ele>435.0</ele>
        <time>2019-08-15T09:13:24Z</time>
      </trkpt>
      <trkpt lat="48.7222190" lon="13.5308430">
        <ele>435.2</ele>
        <time>2019-08-15T09:13:25Z</time>
      </trkpt>
      <trkpt lat="48.7221890" lon="13.5308280">
        <ele>435.4</ele>
        <time>2019-08-15T09:13:26Z</time>
      </trkpt>
      <trkpt lat="48.7221590" lon="13.5308140">
        <ele>435.6</ele>
        <time>2019-08-15T09:13:27Z</time>
      </trkpt>
      <trkpt lat="48.7221290" lon="13.5308030">
        <ele>435.8</ele>
        <time>2019-08-15T09:13:28Z</time>
      </trkpt>
      <trkpt lat="48.7220980" lon="13.5307930">
        <ele>436.0</ele>
        <time>2019-08-15T09:13:29Z</time>
      </trkpt>
      <trkpt lat="48.7220670" lon="13.5307870">
        <ele>436.2</ele>
        <time>2019-08-15T09:13:30Z</time>
      </trkpt>
      <trkpt lat="48.7220360" lon="13.5307800">
        <ele>436.4</ele>
        <time>2019-08-15T09:13:31Z</time>
      </trkpt>
      <trkpt lat="48.7220040" lon="13.5307750">
        <ele>436.8</ele>
        <time>2019-08-15T09:13:32Z</time>
      </trkpt>
      <trkpt lat="48.7219740" lon="13.5307710">
        <ele>437.0</ele>
        <time>2019-08-15T09:13:33Z</time>
      </trkpt>
      <trkpt lat="48.7219430" lon="13.5307670">
        <ele>437.0</ele>
        <time>2019-08-15T09:13:34Z</time>
      </trkpt>
      <trkpt lat="48.7219110" lon="13.5307630">
        <ele>437.2</ele>
        <time>2019-08-15T09:13:35Z</time>
      </trkpt>
      <trkpt lat="48.7218800" lon="13.5307640">
        <ele>437.4</ele>
        <time>2019-08-15T09:13:36Z</time>
      </trkpt>
      <trkpt lat="48.7218520" lon="13.5307680">
        <ele>437.6</ele>
        <time>2019-08-15T09:13:37Z</time>
      </trkpt>
      <trkpt lat="48.7218230" lon="13.5307750">
        <ele>437.8</ele>
        <time>2019-08-15T09:13:38Z</time>
      </trkpt>
      <trkpt lat="48.7217930" lon="13.5307850">
        <ele>438.0</ele>
        <time>2019-08-15T09:13:39Z</time>
      </trkpt>
      <trkpt lat="48.7217650" lon="13.5307990">
        <ele>438.2</ele>
        <time>2019-08-15T09:13:40Z</time>
      </trkpt>
      <trkpt lat="48.7217390" lon="13.5308130">
        <ele>438.2</ele>
        <time>2019-08-15T09:13:41Z</time>
      </trkpt>
      <trkpt lat="48.7217120" lon="13.5308240">
        <ele>438.4</ele>
        <time>2019-08-15T09:13:42Z</time>
      </trkpt>
      <trkpt lat="48.7216870" lon="13.5308350">
        <ele>438.6</ele>
        <time>2019-08-15T09:13:43Z</time>
      </trkpt>
      <trkpt lat="48.7216630" lon="13.5308490">
        <ele>438.8</ele>
        <time>2019-08-15T09:13:44Z</time>
      </trkpt>
      <trkpt lat="48.7216390" lon="13.5308660">
        <ele>438.8</ele>
        <time>2019-08-15T09:13:45Z</time>
      </trkpt>
      <trkpt lat="48.7216160" lon="13.5308850">
        <ele>439.0</ele>
        <time>2019-08-15T09:13:46Z</time>
      </trkpt>
      <trkpt lat="48.7215920" lon="13.5309080">
        <ele>439.0</ele>
        <time>2019-08-15T09:13:47Z</time>
      </trkpt>
      <trkpt lat="48.7215670" lon="13.5309320">
        <ele>439.2</ele>
        <time>2019-08-15T09:13:48Z</time>
      </trkpt>
      <trkpt lat="48.7215420" lon="13.5309560">
        <ele>439.2</ele>
        <time>2019-08-15T09:13:49Z</time>
      </trkpt>
      <trkpt lat="48.7215150" lon="13.5309810">
        <ele>439.2</ele>
        <time>2019-08-15T09:13:50Z</time>
      </trkpt>
      <trkpt lat="48.7214880" lon="13.5310040">
        <ele>439.2</ele>
        <time>2019-08-15T09:13:51Z</time>
      </trkpt>
      <trkpt lat="48.7214590" lon="13.5310250">
        <ele>439.2</ele>
        <time>2019-08-15T09:13:52Z</time>
      </trkpt>
      <trkpt lat="48.7214290" lon="13.5310520">
        <ele>439.4</ele>
        <time>2019-08-15T09:13:53Z</time>
      </trkpt>
      <trkpt lat="48.7213970" lon="13.5310800">
        <ele>439.2</ele>
        <time>2019-08-15T09:13:54Z</time>
      </trkpt>
      <trkpt lat="48.7213650" lon="13.5311090">
        <ele>439.2</ele>
        <time>2019-08-15T09:13:55Z</time>
      </trkpt>
      <trkpt lat="48.7213280" lon="13.5311390">
        <ele>439.0</ele>
        <time>2019-08-15T09:13:56Z</time>
      </trkpt>
      <trkpt lat="48.7212930" lon="13.5311690">
        <ele>438.8</ele>
        <time>2019-08-15T09:13:57Z</time>
      </trkpt>
      <trkpt lat="48.7212560" lon="13.5312000">
        <ele>438.8</ele>
        <time>2019-08-15T09:13:58Z</time>
      </trkpt>
      <trkpt lat="48.7212150" lon="13.5312360">
        <ele>438.6</ele>
        <time>2019-08-15T09:13:59Z</time>
      </trkpt>
      <trkpt lat="48.7211730" lon="13.5312740">
        <ele>438.4</ele>
        <time>2019-08-15T09:14:00Z</time>
      </trkpt>
      <trkpt lat="48.7211280" lon="13.5313080">
        <ele>438.2</ele>
        <time>2019-08-15T09:14:01Z</time>
      </trkpt>
      <trkpt lat="48.7210800" lon="13.5313380">
        <ele>438.2</ele>
        <time>2019-08-15T09:14:02Z</time>
      </trkpt>
      <trkpt lat="48.7210340" lon="13.5313660">
        <ele>438.0</ele>
        <time>2019-08-15T09:14:03Z</time>
      </trkpt>
      <trkpt lat="48.7209840" lon="13.5313930">
        <ele>438.0</ele>
        <time>2019-08-15T09:14:04Z</time>
      </trkpt>
      <trkpt lat="48.7209330" lon="13.5314180">
        <ele>437.8</ele>
        <time>2019-08-15T09:14:05Z</time>
      </trkpt>
      <trkpt lat="48.7208850" lon="13.5314360">
        <ele>437.8</ele>
        <time>2019-08-15T09:14:06Z</time>
      </trkpt>
      <trkpt lat="48.7208390" lon="13.5314550">
        <ele>437.6</ele>
        <time>2019-08-15T09:14:07Z</time>
      </trkpt>
      <trkpt lat="48.7207930" lon="13.5314760">
        <ele>437.6</ele>
        <time>2019-08-15T09:14:08Z</time>
      </trkpt>
      <trkpt lat="48.7207500" lon="13.5314920">
        <ele>437.6</ele>
        <time>2019-08-15T09:14:09Z</time>
      </trkpt>
      <trkpt lat="48.7207110" lon="13.5315060">
        <ele>437.6</ele>
        <time>2019-08-15T09:14:10Z</time>
      </trkpt>
      <trkpt lat="48.7206740" lon="13.5315120">
        <ele>437.6</ele>
        <time>2019-08-15T09:14:11Z</time>
      </trkpt>
      <trkpt lat="48.7206410" lon="13.5315200">
        <ele>437.6</ele>
        <time>2019-08-15T09:14:12Z</time>
      </trkpt>
      <trkpt lat="48.7206090" lon="13.5315300">
        <ele>437.8</ele>
        <time>2019-08-15T09:14:13Z</time>
      </trkpt>
      <trkpt lat="48.7205800" lon="13.5315340">
        <ele>438.0</ele>
        <time>2019-08-15T09:14:14Z</time>
      </trkpt>
      <trkpt lat="48.7205540" lon="13.5315370">
        <ele>438.2</ele>
        <time>2019-08-15T09:14:15Z</time>
      </trkpt>
      <trkpt lat="48.7205290" lon="13.5315410">
        <ele>438.4</ele>
        <time>2019-08-15T09:14:16Z</time>
      </trkpt>
      <trkpt lat="48.7205060" lon="13.5315440">
        <ele>438.6</ele>
        <time>2019-08-15T09:14:17Z</time>
      </trkpt>
      <trkpt lat="48.7204830" lon="13.5315470">
        <ele>438.8</ele>
        <time>2019-08-15T09:14:18Z</time>
      </trkpt>
      <trkpt lat="48.7204590" lon="13.5315490">
        <ele>439.0</ele>
        <time>2019-08-15T09:14:19Z</time>
      </trkpt>
      <trkpt lat="48.7204330" lon="13.5315540">
        <ele>439.2</ele>
        <time>2019-08-15T09:14:20Z</time>
      </trkpt>
      <trkpt lat="48.7204090" lon="13.5315580">
        <ele>439.4</ele>
        <time>2019-08-15T09:14:21Z</time>
      </trkpt>
      <trkpt lat="48.7203860" lon="13.5315620">
        <ele>439.6</ele>
        <time>2019-08-15T09:14:22Z</time>
      </trkpt>
      <trkpt lat="48.7203620" lon="13.5315650">
        <ele>439.8</ele>
        <time>2019-08-15T09:14:23Z</time>
      </trkpt>
      <trkpt lat="48.7203360" lon="13.5315710">
        <ele>440.0</ele>
        <time>2019-08-15T09:14:24Z</time>
      </trkpt>
      <trkpt lat="48.7203130" lon="13.5315800">
        <ele>440.2</ele>
        <time>2019-08-15T09:14:25Z</time>
      </trkpt>
      <trkpt lat="48.7202910" lon="13.5315840">
        <ele>440.6</ele>
        <time>2019-08-15T09:14:26Z</time>
      </trkpt>
      <trkpt lat="48.7202660" lon="13.5315850">
        <ele>440.8</ele>
        <time>2019-08-15T09:14:27Z</time>
      </trkpt>
      <trkpt lat="48.7202430" lon="13.5315860">
        <ele>441.0</ele>
        <time>2019-08-15T09:14:28Z</time>
      </trkpt>
      <trkpt lat="48.7202170" lon="13.5315850">
        <ele>441.2</ele>
        <time>2019-08-15T09:14:29Z</time>
      </trkpt>
      <trkpt lat="48.7201930" lon="13.5315840">
        <ele>441.4</ele>
        <time>2019-08-15T09:14:30Z</time>
      </trkpt>
      <trkpt lat="48.7201710" lon="13.5315850">
        <ele>441.6</ele>
        <time>2019-08-15T09:14:31Z</time>
      </trkpt>
      <trkpt lat="48.7201500" lon="13.5315860">
        <ele>441.8</ele>
        <time>2019-08-15T09:14:32Z</time>
      </trkpt>
      <trkpt lat="48.7201270" lon="13.5315880">
        <ele>442.0</ele>
        <time>2019-08-15T09:14:33Z</time>
      </trkpt>
      <trkpt lat="48.7201040" lon="13.5315850">
        <ele>442.2</ele>
        <time>2019-08-15T09:14:34Z</time>
      </trkpt>
      <trkpt lat="48.7200800" lon="13.5315810">
        <ele>442.4</ele>
        <time>2019-08-15T09:14:35Z</time>
      </trkpt>
      <trkpt lat="48.7200560" lon="13.5315770">
        <ele>442.6</ele>
        <time>2019-08-15T09:14:36Z</time>
      </trkpt>
      <trkpt lat="48.7200330" lon="13.5315730">
        <ele>442.8</ele>
        <time>2019-08-15T09:14:37Z</time>
      </trkpt>
      <trkpt lat="48.7200120" lon="13.5315700">
        <ele>443.0</ele>
        <time>2019-08-15T09:14:38Z</time>
      </trkpt>
      <trkpt lat="48.7199890" lon="13.5315700">
        <ele>443.2</ele>
        <time>2019-08-15T09:14:39Z</time>
      </trkpt>
      <trkpt lat="48.7199680" lon="13.5315720">
        <ele>443.4</ele>
        <time>2019-08-15T09:14:40Z</time>
      </trkpt>
      <trkpt lat="48.7199440" lon="13.5315720">
        <ele>443.6</ele>
        <time>2019-08-15T09:14:41Z</time>
      </trkpt>
      <trkpt lat="48.7199210" lon="13.5315760">
        <ele>443.8</ele>
        <time>2019-08-15T09:14:42Z</time>
      </trkpt>
      <trkpt lat="48.7198990" lon="13.5315800">
        <ele>444.0</ele>
        <time>2019-08-15T09:14:43Z</time>
      </trkpt>
      <trkpt lat="48.7198760" lon="13.5315840">
        <ele>444.2</ele>
        <time>2019-08-15T09:14:44Z</time>
      </trkpt>
      <trkpt lat="48.7198530" lon="13.5315850">
        <ele>444.4</ele>
        <time>2019-08-15T09:14:45Z</time>
      </trkpt>
      <trkpt lat="48.7198300" lon="13.5315870">
        <ele>444.6</ele>
        <time>2019-08-15T09:14:46Z</time>
      </trkpt>
      <trkpt lat="48.7198090" lon="13.5315880">
        <ele>444.8</ele>
        <time>2019-08-15T09:14:47Z</time>
      </trkpt>
      <trkpt lat="48.7197870" lon="13.5315890">
        <ele>445.0</ele>
        <time>2019-08-15T09:14:48Z</time>
      </trkpt>
      <trkpt lat="48.7197670" lon="13.5315910">
        <ele>445.2</ele>
        <time>2019-08-15T09:14:49Z</time>
      </trkpt>
      <trkpt lat="48.7197450" lon="13.5315940">
        <ele>445.4</ele>
        <time>2019-08-15T09:14:50Z</time>
      </trkpt>
      <trkpt lat="48.7197240" lon="13.5316000">
        <ele>445.6</ele>
        <time>2019-08-15T09:14:51Z</time>
      </trkpt>
      <trkpt lat="48.7197040" lon="13.5316090">
        <ele>445.8</ele>
        <time>2019-08-15T09:14:52Z</time>
      </trkpt>
      <trkpt lat="48.7196860" lon="13.5316170">
        <ele>446.0</ele>
        <time>2019-08-15T09:14:53Z</time>
      </trkpt>
      <trkpt lat="48.7196680" lon="13.5316240">
        <ele>446.2</ele>
        <time>2019-08-15T09:14:54Z</time>
      </trkpt>
      <trkpt lat="48.7196500" lon="13.5316360">
        <ele>446.4</ele>
        <time>2019-08-15T09:14:55Z</time>
      </trkpt>
      <trkpt lat="48.7196320" lon="13.5316510">
        <ele>446.6</ele>
        <time>2019-08-15T09:14:56Z</time>
      </trkpt>
      <trkpt lat="48.7196100" lon="13.5316610">
        <ele>446.8</ele>
        <time>2019-08-15T09:14:57Z</time>
      </trkpt>
      <trkpt lat="48.7195900" lon="13.5316710">
        <ele>447.0</ele>
        <time>2019-08-15T09:14:58Z</time>
      </trkpt>
      <trkpt lat="48.7195710" lon="13.5316820">
        <ele>447.2</ele>
        <time>2019-08-15T09:14:59Z</time>
      </trkpt>
      <trkpt lat="48.7195540" lon="13.5316960">
        <ele>447.4</ele>
        <time>2019-08-15T09:15:00Z</time>
      </trkpt>
      <trkpt lat="48.7195380" lon="13.5317080">
        <ele>447.6</ele>
        <time>2019-08-15T09:15:01Z</time>
      </trkpt>
      <trkpt lat="48.7195220" lon="13.5317200">
        <ele>447.8</ele>
        <time>2019-08-15T09:15:02Z</time>
      </trkpt>
      <trkpt lat="48.7195060" lon="13.5317360">
        <ele>448.0</ele>
        <time>2019-08-15T09:15:03Z</time>
      </trkpt>
      <trkpt lat="48.7194920" lon="13.5317560">
        <ele>448.2</ele>
        <time>2019-08-15T09:15:04Z</time>
      </trkpt>
      <trkpt lat="48.7194760" lon="13.5317740">
        <ele>448.4</ele>
        <time>2019-08-15T09:15:05Z</time>
      </trkpt>
      <trkpt lat="48.7194600" lon="13.5317930">
        <ele>448.4</ele>
        <time>2019-08-15T09:15:06Z</time>
      </trkpt>
      <trkpt lat="48.7194450" lon="13.5318130">
        <ele>448.6</ele>
        <time>2019-08-15T09:15:07Z</time>
      </trkpt>
      <trkpt lat="48.7194300" lon="13.5318340">
        <ele>448.8</ele>
        <time>2019-08-15T09:15:08Z</time>
      </trkpt>
      <trkpt lat="48.7194160" lon="13.5318570">
        <ele>448.8</ele>
        <time>2019-08-15T09:15:09Z</time>
      </trkpt>
      <trkpt lat="48.7194010" lon="13.5318790">
        <ele>449.0</ele>
        <time>2019-08-15T09:15:10Z</time>
      </trkpt>
      <trkpt lat="48.7193870" lon="13.5319010">
        <ele>449.2</ele>
        <time>2019-08-15T09:15:11Z</time>
      </trkpt>
      <trkpt lat="48.7193730" lon="13.5319210">
        <ele>449.4</ele>
        <time>2019-08-15T09:15:12Z</time>
      </trkpt>
      <trkpt lat="48.7193590" lon="13.5319410">
        <ele>449.4</ele>
        <time>2019-08-15T09:15:13Z</time>
      </trkpt>
      <trkpt lat="48.7193450" lon="13.5319640">
        <ele>449.6</ele>
        <time>2019-08-15T09:15:14Z</time>
      </trkpt>
      <trkpt lat="48.7193320" lon="13.5319900">
        <ele>449.6</ele>
        <time>2019-08-15T09:15:15Z</time>
      </trkpt>
      <trkpt lat="48.7193210" lon="13.5320170">
        <ele>449.8</ele>
        <time>2019-08-15T09:15:16Z</time>
      </trkpt>
      <trkpt lat="48.7193090" lon="13.5320460">
        <ele>449.8</ele>
        <time>2019-08-15T09:15:17Z</time>
      </trkpt>
      <trkpt lat="48.7193000" lon="13.5320750">
        <ele>450.0</ele>
        <time>2019-08-15T09:15:18Z</time>
      </trkpt>
      <trkpt lat="48.7192930" lon="13.5321060">
        <ele>450.2</ele>
        <time>2019-08-15T09:15:19Z</time>
      </trkpt>
      <trkpt lat="48.7192840" lon="13.5321370">
        <ele>450.2</ele>
        <time>2019-08-15T09:15:20Z</time>
      </trkpt>
      <trkpt lat="48.7192730" lon="13.5321670">
        <ele>450.4</ele>
        <time>2019-08-15T09:15:21Z</time>
      </trkpt>
      <trkpt lat="48.7192610" lon="13.5321970">
        <ele>450.4</ele>
        <time>2019-08-15T09:15:22Z</time>
      </trkpt>
      <trkpt lat="48.7192490" lon="13.5322270">
        <ele>450.6</ele>
        <time>2019-08-15T09:15:23Z</time>
      </trkpt>
      <trkpt lat="48.7192370" lon="13.5322540">
        <ele>450.6</ele>
        <time>2019-08-15T09:15:24Z</time>
      </trkpt>
      <trkpt lat="48.7192240" lon="13.5322820">
        <ele>450.8</ele>
        <time>2019-08-15T09:15:25Z</time>
      </trkpt>
      <trkpt lat="48.7192130" lon="13.5323130">
        <ele>450.8</ele>
        <time>2019-08-15T09:15:26Z</time>
      </trkpt>
      <trkpt lat="48.7192030" lon="13.5323440">
        <ele>450.8</ele>
        <time>2019-08-15T09:15:27Z</time>
      </trkpt>
      <trkpt lat="48.7191930" lon="13.5323730">
        <ele>451.0</ele>
        <time>2019-08-15T09:15:28Z</time>
      </trkpt>
      <trkpt lat="48.7191820" lon="13.5324040">
        <ele>451.0</ele>
        <time>2019-08-15T09:15:29Z</time>
      </trkpt>
      <trkpt lat="48.7191690" lon="13.5324330">
        <ele>451.2</ele>
        <time>2019-08-15T09:15:30Z</time>
      </trkpt>
      <trkpt lat="48.7191570" lon="13.5324620">
        <ele>451.2</ele>
        <time>2019-08-15T09:15:31Z</time>
      </trkpt>
      <trkpt lat="48.7191440" lon="13.5324940">
        <ele>451.2</ele>
        <time>2019-08-15T09:15:32Z</time>
      </trkpt>
      <trkpt lat="48.7191320" lon="13.5325260">
        <ele>451.4</ele>
        <time>2019-08-15T09:15:33Z</time>
      </trkpt>
      <trkpt lat="48.7191180" lon="13.5325570">
        <ele>451.4</ele>
        <time>2019-08-15T09:15:34Z</time>
      </trkpt>
      <trkpt lat="48.7191060" lon="13.5325870">
        <ele>451.6</ele>
        <time>2019-08-15T09:15:35Z</time>
      </trkpt>
      <trkpt lat="48.7190930" lon="13.5326180">
        <ele>451.6</ele>
        <time>2019-08-15T09:15:36Z</time>
      </trkpt>
      <trkpt lat="48.7190800" lon="13.5326490">
        <ele>451.8</ele>
        <time>2019-08-15T09:15:37Z</time>
      </trkpt>
      <trkpt lat="48.7190670" lon="13.5326790">
        <ele>451.8</ele>
        <time>2019-08-15T09:15:38Z</time>
      </trkpt>
      <trkpt lat="48.7190550" lon="13.5327070">
        <ele>452.0</ele>
        <time>2019-08-15T09:15:39Z</time>
      </trkpt>
      <trkpt lat="48.7190450" lon="13.5327320">
        <ele>452.0</ele>
        <time>2019-08-15T09:15:40Z</time>
      </trkpt>
      <trkpt lat="48.7190280" lon="13.5327700">
        <ele>452.0</ele>
        <time>2019-08-15T09:15:41Z</time>
      </trkpt>
      <trkpt lat="48.7190140" lon="13.5327990">
        <ele>452.2</ele>
        <time>2019-08-15T09:15:42Z</time>
      </trkpt>
      <trkpt lat="48.7189980" lon="13.5328260">
        <ele>452.4</ele>
        <time>2019-08-15T09:15:43Z</time>
      </trkpt>
      <trkpt lat="48.7189800" lon="13.5328510">
        <ele>452.4</ele>
        <time>2019-08-15T09:15:44Z</time>
      </trkpt>
      <trkpt lat="48.7189610" lon="13.5328760">
        <ele>452.6</ele>
        <time>2019-08-15T09:15:45Z</time>
      </trkpt>
      <trkpt lat="48.7189420" lon="13.5329010">
        <ele>452.6</ele>
        <time>2019-08-15T09:15:46Z</time>
      </trkpt>
      <trkpt lat="48.7189240" lon="13.5329260">
        <ele>452.6</ele>
        <time>2019-08-15T09:15:47Z</time>
      </trkpt>
      <trkpt lat="48.7189060" lon="13.5329500">
        <ele>452.8</ele>
        <time>2019-08-15T09:15:48Z</time>
      </trkpt>
      <trkpt lat="48.7188880" lon="13.5329760">
        <ele>452.8</ele>
        <time>2019-08-15T09:15:49Z</time>
      </trkpt>
      <trkpt lat="48.7188710" lon="13.5330010">
        <ele>453.0</ele>
        <time>2019-08-15T09:15:50Z</time>
      </trkpt>
      <trkpt lat="48.7188540" lon="13.5330260">
        <ele>453.0</ele>
        <time>2019-08-15T09:15:51Z</time>
      </trkpt>
      <trkpt lat="48.7188380" lon="13.5330530">
        <ele>453.2</ele>
        <time>2019-08-15T09:15:52Z</time>
      </trkpt>
      <trkpt lat="48.7188210" lon="13.5330790">
        <ele>453.2</ele>
        <time>2019-08-15T09:15:53Z</time>
      </trkpt>
      <trkpt lat="48.7188040" lon="13.5331040">
        <ele>453.4</ele>
        <time>2019-08-15T09:15:54Z</time>
      </trkpt>
      <trkpt lat="48.7187880" lon="13.5331280">
        <ele>453.4</ele>
        <time>2019-08-15T09:15:55Z</time>
      </trkpt>
      <trkpt lat="48.7187730" lon="13.5331560">
        <ele>453.6</ele>
        <time>2019-08-15T09:15:56Z</time>
      </trkpt>
      <trkpt lat="48.7187580" lon="13.5331850">
        <ele>453.6</ele>
        <time>2019-08-15T09:15:57Z</time>
      </trkpt>
      <trkpt lat="48.7187430" lon="13.5332120">
        <ele>453.8</ele>
        <time>2019-08-15T09:15:58Z</time>
      </trkpt>
      <trkpt lat="48.7187280" lon="13.5332400">
        <ele>453.8</ele>
        <time>2019-08-15T09:15:59Z</time>
      </trkpt>
      <trkpt lat="48.7187110" lon="13.5332660">
        <ele>454.0</ele>
        <time>2019-08-15T09:16:00Z</time>
      </trkpt>
      <trkpt lat="48.7186960" lon="13.5332930">
        <ele>454.0</ele>
        <time>2019-08-15T09:16:01Z</time>
      </trkpt>
      <trkpt lat="48.7186810" lon="13.5333200">
        <ele>454.2</ele>
        <time>2019-08-15T09:16:02Z</time>
      </trkpt>
      <trkpt lat="48.7186660" lon="13.5333460">
        <ele>454.4</ele>
        <time>2019-08-15T09:16:03Z</time>
      </trkpt>
      <trkpt lat="48.7186510" lon="13.5333730">
        <ele>454.4</ele>
        <time>2019-08-15T09:16:04Z</time>
      </trkpt>
      <trkpt lat="48.7186330" lon="13.5333990">
        <ele>454.6</ele>
        <time>2019-08-15T09:16:05Z</time>
      </trkpt>
      <trkpt lat="48.7186180" lon="13.5334240">
        <ele>454.6</ele>
        <time>2019-08-15T09:16:06Z</time>
      </trkpt>
      <trkpt lat="48.7186010" lon="13.5334510">
        <ele>454.8</ele>
        <time>2019-08-15T09:16:07Z</time>
      </trkpt>
      <trkpt lat="48.7185850" lon="13.5334750">
        <ele>454.8</ele>
        <time>2019-08-15T09:16:08Z</time>
      </trkpt>
      <trkpt lat="48.7185690" lon="13.5334990">
        <ele>455.0</ele>
        <time>2019-08-15T09:16:09Z</time>
      </trkpt>
      <trkpt lat="48.7185530" lon="13.5335230">
        <ele>455.2</ele>
        <time>2019-08-15T09:16:10Z</time>
      </trkpt>
      <trkpt lat="48.7185390" lon="13.5335480">
        <ele>455.4</ele>
        <time>2019-08-15T09:16:11Z</time>
      </trkpt>
      <trkpt lat="48.7185270" lon="13.5335750">
        <ele>455.4</ele>
        <time>2019-08-15T09:16:12Z</time>
      </trkpt>
      <trkpt lat="48.7185160" lon="13.5336030">
        <ele>455.6</ele>
        <time>2019-08-15T09:16:13Z</time>
      </trkpt>
      <trkpt lat="48.7185080" lon="13.5336320">
        <ele>455.8</ele>
        <time>2019-08-15T09:16:14Z</time>
      </trkpt>
      <trkpt lat="48.7184980" lon="13.5336620">
        <ele>455.8</ele>
        <time>2019-08-15T09:16:15Z</time>
      </trkpt>
      <trkpt lat="48.7184870" lon="13.5336890">
        <ele>456.0</ele>
        <time>2019-08-15T09:16:16Z</time>
      </trkpt>
      <trkpt lat="48.7184760" lon="13.5337140">
        <ele>456.0</ele>
        <time>2019-08-15T09:16:17Z</time>
      </trkpt>
      <trkpt lat="48.7184640" lon="13.5337410">
        <ele>456.2</ele>
        <time>2019-08-15T09:16:18Z</time>
      </trkpt>
      <trkpt lat="48.7184520" lon="13.5337680">
        <ele>456.4</ele>
        <time>2019-08-15T09:16:19Z</time>
      </trkpt>
      <trkpt lat="48.7184400" lon="13.5337950">
        <ele>456.6</ele>
        <time>2019-08-15T09:16:20Z</time>
      </trkpt>
      <trkpt lat="48.7184280" lon="13.5338210">
        <ele>456.6</ele>
        <time>2019-08-15T09:16:21Z</time>
      </trkpt>
      <trkpt lat="48.7184170" lon="13.5338480">
        <ele>456.8</ele>
        <time>2019-08-15T09:16:22Z</time>
      </trkpt>
      <trkpt lat="48.7184060" lon="13.5338730">
        <ele>457.0</ele>
        <time>2019-08-15T09:16:23Z</time>
      </trkpt>
      <trkpt lat="48.7183980" lon="13.5338950">
        <ele>457.2</ele>
        <time>2019-08-15T09:16:24Z</time>
      </trkpt>
      <trkpt lat="48.7183880" lon="13.5339170">
        <ele>457.2</ele>
        <time>2019-08-15T09:16:25Z</time>
      </trkpt>
      <trkpt lat="48.7183790" lon="13.5339390">
        <ele>457.4</ele>
        <time>2019-08-15T09:16:26Z</time>
      </trkpt>
      <trkpt lat="48.7183700" lon="13.5339620">
        <ele>457.6</ele>
        <time>2019-08-15T09:16:27Z</time>
      </trkpt>
      <trkpt lat="48.7183610" lon="13.5339830">
        <ele>457.8</ele>
        <time>2019-08-15T09:16:28Z</time>
      </trkpt>
      <trkpt lat="48.7183500" lon="13.5340050">
        <ele>457.8</ele>
        <time>2019-08-15T09:16:29Z</time>
      </trkpt>
      <trkpt lat="48.7183410" lon="13.5340270">
        <ele>458.0</ele>
        <time>2019-08-15T09:16:30Z</time>
      </trkpt>
      <trkpt lat="48.7183330" lon="13.5340510">
        <ele>458.2</ele>
        <time>2019-08-15T09:16:31Z</time>
      </trkpt>
      <trkpt lat="48.7183270" lon="13.5340740">
        <ele>458.4</ele>
        <time>2019-08-15T09:16:32Z</time>
      </trkpt>
      <trkpt lat="48.7183200" lon="13.5340970">
        <ele>458.4</ele>
        <time>2019-08-15T09:16:33Z</time>
      </trkpt>
      <trkpt lat="48.7183120" lon="13.5341200">
        <ele>458.6</ele>
        <time>2019-08-15T09:16:34Z</time>
      </trkpt>
      <trkpt lat="48.7183070" lon="13.5341440">
        <ele>458.8</ele>
        <time>2019-08-15T09:16:35Z</time>
      </trkpt>
      <trkpt lat="48.7183000" lon="13.5341670">
        <ele>459.0</ele>
        <time>2019-08-15T09:16:36Z</time>
      </trkpt>
      <trkpt lat="48.7182930" lon="13.5341900">
        <ele>459.2</ele>
        <time>2019-08-15T09:16:37Z</time>
      </trkpt>
      <trkpt lat="48.7182840" lon="13.5342120">
        <ele>459.2</ele>
        <time>2019-08-15T09:16:38Z</time>
      </trkpt>
      <trkpt lat="48.7182750" lon="13.5342340">
        <ele>459.4</ele>
        <time>2019-08-15T09:16:39Z</time>
      </trkpt>
      <trkpt lat="48.7182680" lon="13.5342570">
        <ele>459.6</ele>
        <time>2019-08-15T09:16:40Z</time>
      </trkpt>
      <trkpt lat="48.7182620" lon="13.5342800">
        <ele>459.8</ele>
        <time>2019-08-15T09:16:41Z</time>
      </trkpt>
      <trkpt lat="48.7182550" lon="13.5343040">
        <ele>460.0</ele>
        <time>2019-08-15T09:16:42Z</time>
      </trkpt>
      <trkpt lat="48.7182500" lon="13.5343290">
        <ele>460.2</ele>
        <time>2019-08-15T09:16:43Z</time>
      </trkpt>
      <trkpt lat="48.7182450" lon="13.5343520">
        <ele>460.4</ele>
        <time>2019-08-15T09:16:44Z</time>
      </trkpt>
      <trkpt lat="48.7182400" lon="13.5343750">
        <ele>460.6</ele>
        <time>2019-08-15T09:16:45Z</time>
      </trkpt>
      <trkpt lat="48.7182360" lon="13.5343990">
        <ele>460.6</ele>
        <time>2019-08-15T09:16:46Z</time>
      </trkpt>
      <trkpt lat="48.7182330" lon="13.5344220">
        <ele>460.8</ele>
        <time>2019-08-15T09:16:47Z</time>
      </trkpt>
      <trkpt lat="48.7182290" lon="13.5344470">
        <ele>461.0</ele>
        <time>2019-08-15T09:16:48Z</time>
      </trkpt>
      <trkpt lat="48.7182260" lon="13.5344710">
        <ele>461.2</ele>
        <time>2019-08-15T09:16:49Z</time>
      </trkpt>
      <trkpt lat="48.7182230" lon="13.5344940">
        <ele>461.4</ele>
        <time>2019-08-15T09:16:50Z</time>
      </trkpt>
      <trkpt lat="48.7182190" lon="13.5345180">
        <ele>461.6</ele>
        <time>2019-08-15T09:16:51Z</time>
      </trkpt>
      <trkpt lat="48.7182150" lon="13.5345410">
        <ele>461.8</ele>
        <time>2019-08-15T09:16:52Z</time>
      </trkpt>
      <trkpt lat="48.7182110" lon="13.5345640">
        <ele>462.0</ele>
        <time>2019-08-15T09:16:53Z</time>
      </trkpt>
      <trkpt lat="48.7182080" lon="13.5345870">
        <ele>462.2</ele>
        <time>2019-08-15T09:16:54Z</time>
      </trkpt>
      <trkpt lat="48.7182050" lon="13.5346090">
        <ele>462.4</ele>
        <time>2019-08-15T09:16:55Z</time>
      </trkpt>
      <trkpt lat="48.7182030" lon="13.5346320">
        <ele>462.6</ele>
        <time>2019-08-15T09:16:56Z</time>
      </trkpt>
      <trkpt lat="48.7182020" lon="13.5346560">
        <ele>462.8</ele>
        <time>2019-08-15T09:16:57Z</time>
      </trkpt>
      <trkpt lat="48.7182020" lon="13.5346790">
        <ele>463.0</ele>
        <time>2019-08-15T09:16:58Z</time>
      </trkpt>
      <trkpt lat="48.7182020" lon="13.5347000">
        <ele>463.2</ele>
        <time>2019-08-15T09:16:59Z</time>
      </trkpt>
      <trkpt lat="48.7182040" lon="13.5347210">
        <ele>463.4</ele>
        <time>2019-08-15T09:17:00Z</time>
      </trkpt>
      <trkpt lat="48.7182070" lon="13.5347440">
        <ele>463.6</ele>
        <time>2019-08-15T09:17:01Z</time>
      </trkpt>
      <trkpt lat="48.7182090" lon="13.5347670">
        <ele>463.8</ele>
        <time>2019-08-15T09:17:02Z</time>
      </trkpt>
      <trkpt lat="48.7182100" lon="13.5347900">
        <ele>464.0</ele>
        <time>2019-08-15T09:17:03Z</time>
      </trkpt>
      <trkpt lat="48.7182100" lon="13.5348130">
        <ele>464.2</ele>
        <time>2019-08-15T09:17:04Z</time>
      </trkpt>
      <trkpt lat="48.7182100" lon="13.5348370">
        <ele>464.4</ele>
        <time>2019-08-15T09:17:05Z</time>
      </trkpt>
      <trkpt lat="48.7182080" lon="13.5348600">
        <ele>464.6</ele>
        <time>2019-08-15T09:17:06Z</time>
      </trkpt>
      <trkpt lat="48.7182050" lon="13.5348820">
        <ele>464.8</ele>
        <time>2019-08-15T09:17:07Z</time>
      </trkpt>
      <trkpt lat="48.7182030" lon="13.5349030">
        <ele>465.0</ele>
        <time>2019-08-15T09:17:08Z</time>
      </trkpt>
      <trkpt lat="48.7182020" lon="13.5349250">
        <ele>465.2</ele>
        <time>2019-08-15T09:17:09Z</time>
      </trkpt>
      <trkpt lat="48.7182040" lon="13.5349470">
        <ele>465.4</ele>
        <time>2019-08-15T09:17:10Z</time>
      </trkpt>
      <trkpt lat="48.7182070" lon="13.5349700">
        <ele>465.6</ele>
        <time>2019-08-15T09:17:11Z</time>
      </trkpt>
      <trkpt lat="48.7182120" lon="13.5349900">
        <ele>465.8</ele>
        <time>2019-08-15T09:17:12Z</time>
      </trkpt>
      <trkpt lat="48.7182180" lon="13.5350100">
        <ele>466.0</ele>
        <time>2019-08-15T09:17:13Z</time>
      </trkpt>
      <trkpt lat="48.7182250" lon="13.5350310">
        <ele>466.2</ele>
        <time>2019-08-15T09:17:14Z</time>
      </trkpt>
      <trkpt lat="48.7182340" lon="13.5350520">
        <ele>466.4</ele>
        <time>2019-08-15T09:17:15Z</time>
      </trkpt>
      <trkpt lat="48.7182420" lon="13.5350750">
        <ele>466.4</ele>
        <time>2019-08-15T09:17:16Z</time>
      </trkpt>
      <trkpt lat="48.7182500" lon="13.5350990">
        <ele>466.6</ele>
        <time>2019-08-15T09:17:17Z</time>
      </trkpt>
      <trkpt lat="48.7182590" lon="13.5351220">
        <ele>466.8</ele>
        <time>2019-08-15T09:17:18Z</time>
      </trkpt>
      <trkpt lat="48.7182680" lon="13.5351410">
        <ele>466.8</ele>
        <time>2019-08-15T09:17:19Z</time>
      </trkpt>
      <trkpt lat="48.7182800" lon="13.5351620">
        <ele>467.0</ele>
        <time>2019-08-15T09:17:20Z</time>
      </trkpt>
      <trkpt lat="48.7182930" lon="13.5351820">
        <ele>467.2</ele>
        <time>2019-08-15T09:17:21Z</time>
      </trkpt>
      <trkpt lat="48.7183050" lon="13.5352030">
        <ele>467.2</ele>
        <time>2019-08-15T09:17:22Z</time>
      </trkpt>
      <trkpt lat="48.7183170" lon="13.5352240">
        <ele>467.4</ele>
        <time>2019-08-15T09:17:23Z</time>
      </trkpt>
      <trkpt lat="48.7183290" lon="13.5352470">
        <ele>467.4</ele>
        <time>2019-08-15T09:17:24Z</time>
      </trkpt>
      <trkpt lat="48.7183390" lon="13.5352680">
        <ele>467.6</ele>
        <time>2019-08-15T09:17:25Z</time>
      </trkpt>
      <trkpt lat="48.7183490" lon="13.5352890">
        <ele>467.6</ele>
        <time>2019-08-15T09:17:26Z</time>
      </trkpt>
      <trkpt lat="48.7183570" lon="13.5353150">
        <ele>467.6</ele>
        <time>2019-08-15T09:17:27Z</time>
      </trkpt>
      <trkpt lat="48.7183650" lon="13.5353450">
        <ele>467.8</ele>
        <time>2019-08-15T09:17:28Z</time>
      </trkpt>
      <trkpt lat="48.7183710" lon="13.5353760">
        <ele>467.8</ele>
        <time>2019-08-15T09:17:29Z</time>
      </trkpt>
      <trkpt lat="48.7183760" lon="13.5354070">
        <ele>468.0</ele>
        <time>2019-08-15T09:17:30Z</time>
      </trkpt>
      <trkpt lat="48.7183800" lon="13.5354390">
        <ele>468.0</ele>
        <time>2019-08-15T09:17:31Z</time>
      </trkpt>
      <trkpt lat="48.7183810" lon="13.5354710">
        <ele>468.0</ele>
        <time>2019-08-15T09:17:32Z</time>
      </trkpt>
      <trkpt lat="48.7183770" lon="13.5355020">
        <ele>468.2</ele>
        <time>2019-08-15T09:17:33Z</time>
      </trkpt>
      <trkpt lat="48.7183690" lon="13.5355290">
        <ele>468.2</ele>
        <time>2019-08-15T09:17:34Z</time>
      </trkpt>
      <trkpt lat="48.7183570" lon="13.5355560">
        <ele>468.2</ele>
        <time>2019-08-15T09:17:35Z</time>
      </trkpt>
      <trkpt lat="48.7183450" lon="13.5355830">
        <ele>468.4</ele>
        <time>2019-08-15T09:17:36Z</time>
      </trkpt>
      <trkpt lat="48.7183300" lon="13.5356080">
        <ele>468.4</ele>
        <time>2019-08-15T09:17:37Z</time>
      </trkpt>
      <trkpt lat="48.7183170" lon="13.5356350">
        <ele>468.4</ele>
        <time>2019-08-15T09:17:38Z</time>
      </trkpt>
      <trkpt lat="48.7183050" lon="13.5356640">
        <ele>468.6</ele>
        <time>2019-08-15T09:17:39Z</time>
      </trkpt>
      <trkpt lat="48.7182890" lon="13.5356930">
        <ele>468.6</ele>
        <time>2019-08-15T09:17:40Z</time>
      </trkpt>
      <trkpt lat="48.7182720" lon="13.5357250">
        <ele>468.6</ele>
        <time>2019-08-15T09:17:41Z</time>
      </trkpt>
      <trkpt lat="48.7182550" lon="13.5357510">
        <ele>468.6</ele>
        <time>2019-08-15T09:17:42Z</time>
      </trkpt>
      <trkpt lat="48.7182370" lon="13.5357800">
        <ele>468.8</ele>
        <time>2019-08-15T09:17:43Z</time>
      </trkpt>
      <trkpt lat="48.7182190" lon="13.5358070">
        <ele>468.8</ele>
        <time>2019-08-15T09:17:44Z</time>
      </trkpt>
      <trkpt lat="48.7182030" lon="13.5358360">
        <ele>469.0</ele>
        <time>2019-08-15T09:17:45Z</time>
      </trkpt>
      <trkpt lat="48.7181860" lon="13.5358680">
        <ele>469.0</ele>
        <time>2019-08-15T09:17:46Z</time>
      </trkpt>
      <trkpt lat="48.7181730" lon="13.5358990">
        <ele>469.2</ele>
        <time>2019-08-15T09:17:47Z</time>
      </trkpt>
      <trkpt lat="48.7181630" lon="13.5359320">
        <ele>469.2</ele>
        <time>2019-08-15T09:17:48Z</time>
      </trkpt>
      <trkpt lat="48.7181540" lon="13.5359670">
        <ele>469.4</ele>
        <time>2019-08-15T09:17:49Z</time>
      </trkpt>
      <trkpt lat="48.7181500" lon="13.5360060">
        <ele>469.4</ele>
        <time>2019-08-15T09:17:50Z</time>
      </trkpt>
      <trkpt lat="48.7181490" lon="13.5360480">
        <ele>469.6</ele>
        <time>2019-08-15T09:17:51Z</time>
      </trkpt>
      <trkpt lat="48.7181520" lon="13.5360880">
        <ele>469.6</ele>
        <time>2019-08-15T09:17:52Z</time>
      </trkpt>
      <trkpt lat="48.7181610" lon="13.5361270">
        <ele>469.8</ele>
        <time>2019-08-15T09:17:53Z</time>
      </trkpt>
      <trkpt lat="48.7181730" lon="13.5361650">
        <ele>469.8</ele>
        <time>2019-08-15T09:17:54Z</time>
      </trkpt>
      <trkpt lat="48.7181840" lon="13.5362000">
        <ele>470.0</ele>
        <time>2019-08-15T09:17:55Z</time>
      </trkpt>
      <trkpt lat="48.7181960" lon="13.5362350">
        <ele>470.2</ele>
        <time>2019-08-15T09:17:56Z</time>
      </trkpt>
      <trkpt lat="48.7182070" lon="13.5362700">
        <ele>470.2</ele>
        <time>2019-08-15T09:17:57Z</time>
      </trkpt>
      <trkpt lat="48.7182150" lon="13.5363080">
        <ele>470.4</ele>
        <time>2019-08-15T09:17:58Z</time>
      </trkpt>
      <trkpt lat="48.7182240" lon="13.5363470">
        <ele>470.4</ele>
        <time>2019-08-15T09:17:59Z</time>
      </trkpt>
      <trkpt lat="48.7182340" lon="13.5363860">
        <ele>470.6</ele>
        <time>2019-08-15T09:18:00Z</time>
      </trkpt>
      <trkpt lat="48.7182420" lon="13.5364250">
        <ele>470.8</ele>
        <time>2019-08-15T09:18:01Z</time>
      </trkpt>
      <trkpt lat="48.7182490" lon="13.5364660">
        <ele>470.8</ele>
        <time>2019-08-15T09:18:02Z</time>
      </trkpt>
      <trkpt lat="48.7182570" lon="13.5365050">
        <ele>471.0</ele>
        <time>2019-08-15T09:18:03Z</time>
      </trkpt>
      <trkpt lat="48.7182660" lon="13.5365450">
        <ele>471.2</ele>
        <time>2019-08-15T09:18:04Z</time>
      </trkpt>
      <trkpt lat="48.7182750" lon="13.5365860">
        <ele>471.2</ele>
        <time>2019-08-15T09:18:05Z</time>
      </trkpt>
      <trkpt lat="48.7182840" lon="13.5366260">
        <ele>471.4</ele>
        <time>2019-08-15T09:18:06Z</time>
      </trkpt>
      <trkpt lat="48.7182920" lon="13.5366630">
        <ele>471.4</ele>
        <time>2019-08-15T09:18:07Z</time>
      </trkpt>
      <trkpt lat="48.7183030" lon="13.5367030">
        <ele>471.6</ele>
        <time>2019-08-15T09:18:08Z</time>
      </trkpt>
      <trkpt lat="48.7183150" lon="13.5367410">
        <ele>471.6</ele>
        <time>2019-08-15T09:18:09Z</time>
      </trkpt>
      <trkpt lat="48.7183280" lon="13.5367760">
        <ele>471.8</ele>
        <time>2019-08-15T09:18:10Z</time>
      </trkpt>
      <trkpt lat="48.7183430" lon="13.5368110">
        <ele>471.8</ele>
        <time>2019-08-15T09:18:11Z</time>
      </trkpt>
      <trkpt lat="48.7183590" lon="13.5368460">
        <ele>472.0</ele>
        <time>2019-08-15T09:18:12Z</time>
      </trkpt>
      <trkpt lat="48.7183780" lon="13.5368770">
        <ele>472.0</ele>
        <time>2019-08-15T09:18:13Z</time>
      </trkpt>
      <trkpt lat="48.7183960" lon="13.5369070">
        <ele>472.2</ele>
        <time>2019-08-15T09:18:14Z</time>
      </trkpt>
      <trkpt lat="48.7184110" lon="13.5369380">
        <ele>472.2</ele>
        <time>2019-08-15T09:18:15Z</time>
      </trkpt>
      <trkpt lat="48.7184240" lon="13.5369730">
        <ele>472.4</ele>
        <time>2019-08-15T09:18:16Z</time>
      </trkpt>
      <trkpt lat="48.7184360" lon="13.5370100">
        <ele>472.4</ele>
        <time>2019-08-15T09:18:17Z</time>
      </trkpt>
      <trkpt lat="48.7184480" lon="13.5370480">
        <ele>472.6</ele>
        <time>2019-08-15T09:18:18Z</time>
      </trkpt>
      <trkpt lat="48.7184610" lon="13.5370820">
        <ele>472.8</ele>
        <time>2019-08-15T09:18:19Z</time>
      </trkpt>
      <trkpt lat="48.7184750" lon="13.5371160">
        <ele>473.0</ele>
        <time>2019-08-15T09:18:20Z</time>
      </trkpt>
      <trkpt lat="48.7184900" lon="13.5371510">
        <ele>473.0</ele>
        <time>2019-08-15T09:18:21Z</time>
      </trkpt>
      <trkpt lat="48.7185060" lon="13.5371830">
        <ele>473.2</ele>
        <time>2019-08-15T09:18:22Z</time>
      </trkpt>
      <trkpt lat="48.7185220" lon="13.5372160">
        <ele>473.2</ele>
        <time>2019-08-15T09:18:23Z</time>
      </trkpt>
      <trkpt lat="48.7185370" lon="13.5372470">
        <ele>473.4</ele>
        <time>2019-08-15T09:18:24Z</time>
      </trkpt>
      <trkpt lat="48.7185530" lon="13.5372780">
        <ele>473.6</ele>
        <time>2019-08-15T09:18:25Z</time>
      </trkpt>
      <trkpt lat="48.7185690" lon="13.5373110">
        <ele>473.6</ele>
        <time>2019-08-15T09:18:26Z</time>
      </trkpt>
      <trkpt lat="48.7185850" lon="13.5373420">
        <ele>473.8</ele>
        <time>2019-08-15T09:18:27Z</time>
      </trkpt>
      <trkpt lat="48.7186020" lon="13.5373720">
        <ele>474.0</ele>
        <time>2019-08-15T09:18:28Z</time>
      </trkpt>
      <trkpt lat="48.7186190" lon="13.5374020">
        <ele>474.0</ele>
        <time>2019-08-15T09:18:29Z</time>
      </trkpt>
      <trkpt lat="48.7186360" lon="13.5374300">
        <ele>474.2</ele>
        <time>2019-08-15T09:18:30Z</time>
      </trkpt>
      <trkpt lat="48.7186520" lon="13.5374580">
        <ele>474.4</ele>
        <time>2019-08-15T09:18:31Z</time>
      </trkpt>
      <trkpt lat="48.7186690" lon="13.5374870">
        <ele>474.6</ele>
        <time>2019-08-15T09:18:32Z</time>
      </trkpt>
      <trkpt lat="48.7186880" lon="13.5375190">
        <ele>474.8</ele>
        <time>2019-08-15T09:18:33Z</time>
      </trkpt>
      <trkpt lat="48.7187050" lon="13.5375520">
        <ele>474.8</ele>
        <time>2019-08-15T09:18:34Z</time>
      </trkpt>
      <trkpt lat="48.7187220" lon="13.5375840">
        <ele>475.0</ele>
        <time>2019-08-15T09:18:35Z</time>
      </trkpt>
      <trkpt lat="48.7187390" lon="13.5376160">
        <ele>475.2</ele>
        <time>2019-08-15T09:18:36Z</time>
      </trkpt>
      <trkpt lat="48.7187580" lon="13.5376470">
        <ele>475.4</ele>
        <time>2019-08-15T09:18:37Z</time>
      </trkpt>
      <trkpt lat="48.7187760" lon="13.5376760">
        <ele>475.6</ele>
        <time>2019-08-15T09:18:38Z</time>
      </trkpt>
      <trkpt lat="48.7187960" lon="13.5377050">
        <ele>475.6</ele>
        <time>2019-08-15T09:18:39Z</time>
      </trkpt>
      <trkpt lat="48.7188140" lon="13.5377330">
        <ele>476.0</ele>
        <time>2019-08-15T09:18:40Z</time>
      </trkpt>
      <trkpt lat="48.7188300" lon="13.5377610">
        <ele>476.0</ele>
        <time>2019-08-15T09:18:41Z</time>
      </trkpt>
      <trkpt lat="48.7188470" lon="13.5377870">
        <ele>476.2</ele>
        <time>2019-08-15T09:18:42Z</time>
      </trkpt>
      <trkpt lat="48.7188630" lon="13.5378150">
        <ele>476.2</ele>
        <time>2019-08-15T09:18:43Z</time>
      </trkpt>
      <trkpt lat="48.7188800" lon="13.5378440">
        <ele>476.4</ele>
        <time>2019-08-15T09:18:44Z</time>
      </trkpt>
      <trkpt lat="48.7188950" lon="13.5378770">
        <ele>476.6</ele>
        <time>2019-08-15T09:18:45Z</time>
      </trkpt>
      <trkpt lat="48.7189120" lon="13.5379060">
        <ele>476.8</ele>
        <time>2019-08-15T09:18:46Z</time>
      </trkpt>
      <trkpt lat="48.7189260" lon="13.5379360">
        <ele>476.8</ele>
        <time>2019-08-15T09:18:47Z</time>
      </trkpt>
      <trkpt lat="48.7189410" lon="13.5379650">
        <ele>477.0</ele>
        <time>2019-08-15T09:18:48Z</time>
      </trkpt>
      <trkpt lat="48.7189550" lon="13.5379900">
        <ele>477.2</ele>
        <time>2019-08-15T09:18:49Z</time>
      </trkpt>
      <trkpt lat="48.7189720" lon="13.5380190">
        <ele>477.4</ele>
        <time>2019-08-15T09:18:50Z</time>
      </trkpt>
      <trkpt lat="48.7189890" lon="13.5380500">
        <ele>477.6</ele>
        <time>2019-08-15T09:18:51Z</time>
      </trkpt>
      <trkpt lat="48.7190050" lon="13.5380820">
        <ele>477.6</ele>
        <time>2019-08-15T09:18:52Z</time>
      </trkpt>
      <trkpt lat="48.7190210" lon="13.5381100">
        <ele>477.6</ele>
        <time>2019-08-15T09:18:53Z</time>
      </trkpt>
      <trkpt lat="48.7190370" lon="13.5381400">
        <ele>477.8</ele>
        <time>2019-08-15T09:18:54Z</time>
      </trkpt>
      <trkpt lat="48.7190520" lon="13.5381690">
        <ele>477.8</ele>
        <time>2019-08-15T09:18:55Z</time>
      </trkpt>
      <trkpt lat="48.7190660" lon="13.5381970">
        <ele>478.0</ele>
        <time>2019-08-15T09:18:56Z</time>
      </trkpt>
      <trkpt lat="48.7190800" lon="13.5382290">
        <ele>478.0</ele>
        <time>2019-08-15T09:18:57Z</time>
      </trkpt>
      <trkpt lat="48.7190930" lon="13.5382620">
        <ele>478.0</ele>
        <time>2019-08-15T09:18:58Z</time>
      </trkpt>
      <trkpt lat="48.7191060" lon="13.5382960">
        <ele>478.2</ele>
        <time>2019-08-15T09:18:59Z</time>
      </trkpt>
      <trkpt lat="48.7191160" lon="13.5383300">
        <ele>478.2</ele>
        <time>2019-08-15T09:19:00Z</time>
      </trkpt>
      <trkpt lat="48.7191280" lon="13.5383630">
        <ele>478.4</ele>
        <time>2019-08-15T09:19:01Z</time>
      </trkpt>
      <trkpt lat="48.7191440" lon="13.5384000">
        <ele>478.4</ele>
        <time>2019-08-15T09:19:02Z</time>
      </trkpt>
      <trkpt lat="48.7191600" lon="13.5384370">
        <ele>478.6</ele>
        <time>2019-08-15T09:19:03Z</time>
      </trkpt>
      <trkpt lat="48.7191770" lon="13.5384780">
        <ele>478.6</ele>
        <time>2019-08-15T09:19:04Z</time>
      </trkpt>
      <trkpt lat="48.7191930" lon="13.5385210">
        <ele>478.6</ele>
        <time>2019-08-15T09:19:05Z</time>
      </trkpt>
      <trkpt lat="48.7192080" lon="13.5385650">
        <ele>478.6</ele>
        <time>2019-08-15T09:19:06Z</time>
      </trkpt>
      <trkpt lat="48.7192230" lon="13.5386080">
        <ele>478.8</ele>
        <time>2019-08-15T09:19:07Z</time>
      </trkpt>
      <trkpt lat="48.7192380" lon="13.5386520">
        <ele>478.8</ele>
        <time>2019-08-15T09:19:08Z</time>
      </trkpt>
      <trkpt lat="48.7192530" lon="13.5386920">
        <ele>478.8</ele>
        <time>2019-08-15T09:19:09Z</time>
      </trkpt>
      <trkpt lat="48.7192650" lon="13.5387320">
        <ele>478.8</ele>
        <time>2019-08-15T09:19:10Z</time>
      </trkpt>
      <trkpt lat="48.7192780" lon="13.5387720">
        <ele>478.8</ele>
        <time>2019-08-15T09:19:11Z</time>
      </trkpt>
      <trkpt lat="48.7192920" lon="13.5388080">
        <ele>478.8</ele>
        <time>2019-08-15T09:19:12Z</time>
      </trkpt>
      <trkpt lat="48.7193080" lon="13.5388420">
        <ele>478.8</ele>
        <time>2019-08-15T09:19:13Z</time>
      </trkpt>
      <trkpt lat="48.7193240" lon="13.5388770">
        <ele>478.8</ele>
        <time>2019-08-15T09:19:14Z</time>
      </trkpt>
      <trkpt lat="48.7193400" lon="13.5389130">
        <ele>478.8</ele>
        <time>2019-08-15T09:19:15Z</time>
      </trkpt>
      <trkpt lat="48.7193550" lon="13.5389480">
        <ele>478.8</ele>
        <time>2019-08-15T09:19:16Z</time>
      </trkpt>
      <trkpt lat="48.7193720" lon="13.5389820">
        <ele>478.8</ele>
        <time>2019-08-15T09:19:17Z</time>
      </trkpt>
      <trkpt lat="48.7193880" lon="13.5390160">
        <ele>479.0</ele>
        <time>2019-08-15T09:19:18Z</time>
      </trkpt>
      <trkpt lat="48.7194040" lon="13.5390530">
        <ele>479.0</ele>
        <time>2019-08-15T09:19:19Z</time>
      </trkpt>
      <trkpt lat="48.7194200" lon="13.5390880">
        <ele>479.0</ele>
        <time>2019-08-15T09:19:20Z</time>
      </trkpt>
      <trkpt lat="48.7194370" lon="13.5391240">
        <ele>479.0</ele>
        <time>2019-08-15T09:19:21Z</time>
      </trkpt>
      <trkpt lat="48.7194540" lon="13.5391590">
        <ele>479.0</ele>
        <time>2019-08-15T09:19:22Z</time>
      </trkpt>
      <trkpt lat="48.7194700" lon="13.5391940">
        <ele>479.0</ele>
        <time>2019-08-15T09:19:23Z</time>
      </trkpt>
      <trkpt lat="48.7194850" lon="13.5392320">
        <ele>478.8</ele>
        <time>2019-08-15T09:19:24Z</time>
      </trkpt>
      <trkpt lat="48.7195020" lon="13.5392720">
        <ele>478.8</ele>
        <time>2019-08-15T09:19:25Z</time>
      </trkpt>
      <trkpt lat="48.7195190" lon="13.5393130">
        <ele>478.8</ele>
        <time>2019-08-15T09:19:26Z</time>
      </trkpt>
      <trkpt lat="48.7195360" lon="13.5393550">
        <ele>478.6</ele>
        <time>2019-08-15T09:19:27Z</time>
      </trkpt>
      <trkpt lat="48.7195540" lon="13.5393990">
        <ele>478.4</ele>
        <time>2019-08-15T09:19:28Z</time>
      </trkpt>
      <trkpt lat="48.7195710" lon="13.5394440">
        <ele>478.4</ele>
        <time>2019-08-15T09:19:29Z</time>
      </trkpt>
      <trkpt lat="48.7195880" lon="13.5394890">
        <ele>478.2</ele>
        <time>2019-08-15T09:19:30Z</time>
      </trkpt>
      <trkpt lat="48.7196070" lon="13.5395410">
        <ele>478.2</ele>
        <time>2019-08-15T09:19:31Z</time>
      </trkpt>
      <trkpt lat="48.7196260" lon="13.5395920">
        <ele>478.0</ele>
        <time>2019-08-15T09:19:32Z</time>
      </trkpt>
      <trkpt lat="48.7196450" lon="13.5396440">
        <ele>478.0</ele>
        <time>2019-08-15T09:19:33Z</time>
      </trkpt>
      <trkpt lat="48.7196670" lon="13.5396960">
        <ele>477.8</ele>
        <time>2019-08-15T09:19:34Z</time>
      </trkpt>
      <trkpt lat="48.7196940" lon="13.5397490">
        <ele>477.8</ele>
        <time>2019-08-15T09:19:35Z</time>
      </trkpt>
      <trkpt lat="48.7197190" lon="13.5398020">
        <ele>477.6</ele>
        <time>2019-08-15T09:19:36Z</time>
      </trkpt>
      <trkpt lat="48.7197430" lon="13.5398570">
        <ele>477.6</ele>
        <time>2019-08-15T09:19:37Z</time>
      </trkpt>
      <trkpt lat="48.7197660" lon="13.5399160">
        <ele>477.4</ele>
        <time>2019-08-15T09:19:38Z</time>
      </trkpt>
      <trkpt lat="48.7197880" lon="13.5399780">
        <ele>477.4</ele>
        <time>2019-08-15T09:19:39Z</time>
      </trkpt>
      <trkpt lat="48.7198120" lon="13.5400390">
        <ele>477.4</ele>
        <time>2019-08-15T09:19:40Z</time>
      </trkpt>
      <trkpt lat="48.7198390" lon="13.5400950">
        <ele>477.2</ele>
        <time>2019-08-15T09:19:41Z</time>
      </trkpt>
      <trkpt lat="48.7198720" lon="13.5401580">
        <ele>477.2</ele>
        <time>2019-08-15T09:19:42Z</time>
      </trkpt>
      <trkpt lat="48.7199030" lon="13.5402140">
        <ele>477.0</ele>
        <time>2019-08-15T09:19:43Z</time>
      </trkpt>
      <trkpt lat="48.7199340" lon="13.5402710">
        <ele>477.0</ele>
        <time>2019-08-15T09:19:44Z</time>
      </trkpt>
      <trkpt lat="48.7199670" lon="13.5403260">
        <ele>476.8</ele>
        <time>2019-08-15T09:19:45Z</time>
      </trkpt>
      <trkpt lat="48.7200010" lon="13.5403800">
        <ele>476.8</ele>
        <time>2019-08-15T09:19:46Z</time>
      </trkpt>
      <trkpt lat="48.7200340" lon="13.5404370">
        <ele>476.8</ele>
        <time>2019-08-15T09:19:47Z</time>
      </trkpt>
      <trkpt lat="48.7200650" lon="13.5404960">
        <ele>476.8</ele>
        <time>2019-08-15T09:19:48Z</time>
      </trkpt>
      <trkpt lat="48.7200970" lon="13.5405550">
        <ele>476.8</ele>
        <time>2019-08-15T09:19:49Z</time>
      </trkpt>
      <trkpt lat="48.7201290" lon="13.5406110">
        <ele>476.6</ele>
        <time>2019-08-15T09:19:50Z</time>
      </trkpt>
      <trkpt lat="48.7201620" lon="13.5406660">
        <ele>476.6</ele>
        <time>2019-08-15T09:19:51Z</time>
      </trkpt>
      <trkpt lat="48.7201950" lon="13.5407210">
        <ele>476.4</ele>
        <time>2019-08-15T09:19:52Z</time>
      </trkpt>
      <trkpt lat="48.7202240" lon="13.5407670">
        <ele>476.4</ele>
        <time>2019-08-15T09:19:53Z</time>
      </trkpt>
      <trkpt lat="48.7202520" lon="13.5408060">
        <ele>476.2</ele>
        <time>2019-08-15T09:19:54Z</time>
      </trkpt>
      <trkpt lat="48.7202750" lon="13.5408410">
        <ele>476.2</ele>
        <time>2019-08-15T09:19:55Z</time>
      </trkpt>
      <trkpt lat="48.7202920" lon="13.5408770">
        <ele>476.2</ele>
        <time>2019-08-15T09:19:56Z</time>
      </trkpt>
      <trkpt lat="48.7203030" lon="13.5409100">
        <ele>476.0</ele>
        <time>2019-08-15T09:19:57Z</time>
      </trkpt>
      <trkpt lat="48.7203100" lon="13.5409400">
        <ele>476.0</ele>
        <time>2019-08-15T09:19:58Z</time>
      </trkpt>
      <trkpt lat="48.7203220" lon="13.5409630">
        <ele>476.0</ele>
        <time>2019-08-15T09:19:59Z</time>
      </trkpt>
      <trkpt lat="48.7203360" lon="13.5409710">
        <ele>475.8</ele>
        <time>2019-08-15T09:20:00Z</time>
      </trkpt>
      <trkpt lat="48.7203500" lon="13.5409650">
        <ele>475.8</ele>
        <time>2019-08-15T09:20:01Z</time>
      </trkpt>
      <trkpt lat="48.7203580" lon="13.5409470">
        <ele>475.8</ele>
        <time>2019-08-15T09:20:02Z</time>
      </trkpt>
      <trkpt lat="48.7203540" lon="13.5409270">
        <ele>475.8</ele>
        <time>2019-08-15T09:20:03Z</time>
      </trkpt>
      <trkpt lat="48.7203430" lon="13.5409070">
        <ele>475.8</ele>
        <time>2019-08-15T09:20:04Z</time>
      </trkpt>
      <trkpt lat="48.7203280" lon="13.5408850">
        <ele>475.8</ele>
        <time>2019-08-15T09:20:05Z</time>
      </trkpt>
      <trkpt lat="48.7203110" lon="13.5408670">
        <ele>475.8</ele>
        <time>2019-08-15T09:20:06Z</time>
      </trkpt>
      <trkpt lat="48.7202890" lon="13.5408500">
        <ele>475.8</ele>
        <time>2019-08-15T09:20:07Z</time>
      </trkpt>
      <trkpt lat="48.7202680" lon="13.5408380">
        <ele>475.8</ele>
        <time>2019-08-15T09:20:08Z</time>
      </trkpt>
      <trkpt lat="48.7202460" lon="13.5408230">
        <ele>475.8</ele>
        <time>2019-08-15T09:20:09Z</time>
      </trkpt>
      <trkpt lat="48.7202250" lon="13.5408090">
        <ele>476.0</ele>
        <time>2019-08-15T09:20:10Z</time>
      </trkpt>
      <trkpt lat="48.7202040" lon="13.5407990">
        <ele>476.0</ele>
        <time>2019-08-15T09:20:11Z</time>
      </trkpt>
      <trkpt lat="48.7201840" lon="13.5407950">
        <ele>476.0</ele>
        <time>2019-08-15T09:20:12Z</time>
      </trkpt>
      <trkpt lat="48.7201640" lon="13.5407950">
        <ele>476.0</ele>
        <time>2019-08-15T09:20:13Z</time>
      </trkpt>
      <trkpt lat="48.7201460" lon="13.5407950">
        <ele>476.0</ele>
        <time>2019-08-15T09:20:14Z</time>
      </trkpt>
      <trkpt lat="48.7201280" lon="13.5407930">
        <ele>476.2</ele>
        <time>2019-08-15T09:20:15Z</time>
      </trkpt>
      <trkpt lat="48.7201120" lon="13.5407920">
        <ele>476.2</ele>
        <time>2019-08-15T09:20:16Z</time>
      </trkpt>
      <trkpt lat="48.7200970" lon="13.5407930">
        <ele>476.2</ele>
        <time>2019-08-15T09:20:17Z</time>
      </trkpt>
      <trkpt lat="48.7200820" lon="13.5407980">
        <ele>476.4</ele>
        <time>2019-08-15T09:20:18Z</time>
      </trkpt>
      <trkpt lat="48.7200690" lon="13.5408050">
        <ele>476.4</ele>
        <time>2019-08-15T09:20:19Z</time>
      </trkpt>
      <trkpt lat="48.7200550" lon="13.5408120">
        <ele>476.6</ele>
        <time>2019-08-15T09:20:20Z</time>
      </trkpt>
      <trkpt lat="48.7200420" lon="13.5408200">
        <ele>476.6</ele>
        <time>2019-08-15T09:20:21Z</time>
      </trkpt>
      <trkpt lat="48.7200250" lon="13.5408320">
        <ele>476.8</ele>
        <time>2019-08-15T09:20:22Z</time>
      </trkpt>
      <trkpt lat="48.7200110" lon="13.5408390">
        <ele>476.8</ele>
        <time>2019-08-15T09:20:23Z</time>
      </trkpt>
      <trkpt lat="48.7199960" lon="13.5408420">
        <ele>477.0</ele>
        <time>2019-08-15T09:20:24Z</time>
      </trkpt>
      <trkpt lat="48.7199810" lon="13.5408410">
        <ele>477.0</ele>
        <time>2019-08-15T09:20:25Z</time>
      </trkpt>
      <trkpt lat="48.7199660" lon="13.5408340">
        <ele>477.2</ele>
        <time>2019-08-15T09:20:26Z</time>
      </trkpt>
      <trkpt lat="48.7199520" lon="13.5408260">
        <ele>477.2</ele>
        <time>2019-08-15T09:20:27Z</time>
      </trkpt>
      <trkpt lat="48.7199390" lon="13.5408150">
        <ele>477.4</ele>
        <time>2019-08-15T09:20:28Z</time>
      </trkpt>
      <trkpt lat="48.7199250" lon="13.5408080">
        <ele>477.4</ele>
        <time>2019-08-15T09:20:29Z</time>
      </trkpt>
      <trkpt lat="48.7199100" lon="13.5408020">
        <ele>477.6</ele>
        <time>2019-08-15T09:20:30Z</time>
      </trkpt>
      <trkpt lat="48.7198980" lon="13.5408040">
        <ele>477.6</ele>
        <time>2019-08-15T09:20:31Z</time>
      </trkpt>
      <trkpt lat="48.7198900" lon="13.5408160">
        <ele>477.8</ele>
        <time>2019-08-15T09:20:32Z</time>
      </trkpt>
      <trkpt lat="48.7198900" lon="13.5408320">
        <ele>477.8</ele>
        <time>2019-08-15T09:20:33Z</time>
      </trkpt>
      <trkpt lat="48.7198990" lon="13.5408410">
        <ele>477.8</ele>
        <time>2019-08-15T09:20:34Z</time>
      </trkpt>
      <trkpt lat="48.7199290" lon="13.5408400">
        <ele>477.8</ele>
        <time>2019-08-15T09:20:35Z</time>
      </trkpt>
      <trkpt lat="48.7199470" lon="13.5408360">
        <ele>477.8</ele>
        <time>2019-08-15T09:20:36Z</time>
      </trkpt>
      <trkpt lat="48.7199660" lon="13.5408330">
        <ele>477.8</ele>
        <time>2019-08-15T09:20:37Z</time>
      </trkpt>
      <trkpt lat="48.7199840" lon="13.5408300">
        <ele>477.8</ele>
        <time>2019-08-15T09:20:38Z</time>
      </trkpt>
      <trkpt lat="48.7200030" lon="13.5408260">
        <ele>477.6</ele>
        <time>2019-08-15T09:20:39Z</time>
      </trkpt>
      <trkpt lat="48.7200210" lon="13.5408230">
        <ele>477.6</ele>
        <time>2019-08-15T09:20:40Z</time>
      </trkpt>
      <trkpt lat="48.7200560" lon="13.5408120">
        <ele>477.4</ele>
        <time>2019-08-15T09:20:41Z</time>
      </trkpt>
      <trkpt lat="48.7200960" lon="13.5408020">
        <ele>477.4</ele>
        <time>2019-08-15T09:20:42Z</time>
      </trkpt>
      <trkpt lat="48.7201390" lon="13.5407990">
        <ele>477.2</ele>
        <time>2019-08-15T09:20:43Z</time>
      </trkpt>
      <trkpt lat="48.7201840" lon="13.5408030">
        <ele>477.0</ele>
        <time>2019-08-15T09:20:44Z</time>
      </trkpt>
      <trkpt lat="48.7202310" lon="13.5408200">
        <ele>476.8</ele>
        <time>2019-08-15T09:20:45Z</time>
      </trkpt>
      <trkpt lat="48.7202750" lon="13.5408480">
        <ele>476.8</ele>
        <time>2019-08-15T09:20:46Z</time>
      </trkpt>
      <trkpt lat="48.7203160" lon="13.5408860">
        <ele>476.6</ele>
        <time>2019-08-15T09:20:47Z</time>
      </trkpt>
      <trkpt lat="48.7203530" lon="13.5409300">
        <ele>476.4</ele>
        <time>2019-08-15T09:20:48Z</time>
      </trkpt>
      <trkpt lat="48.7203890" lon="13.5409780">
        <ele>476.4</ele>
        <time>2019-08-15T09:20:49Z</time>
      </trkpt>
      <trkpt lat="48.7204260" lon="13.5410230">
        <ele>476.2</ele>
        <time>2019-08-15T09:20:50Z</time>
      </trkpt>
      <trkpt lat="48.7204620" lon="13.5410650">
        <ele>476.2</ele>
        <time>2019-08-15T09:20:51Z</time>
      </trkpt>
      <trkpt lat="48.7205010" lon="13.5411080">
        <ele>476.0</ele>
        <time>2019-08-15T09:20:52Z</time>
      </trkpt>
      <trkpt lat="48.7205410" lon="13.5411490">
        <ele>476.0</ele>
        <time>2019-08-15T09:20:53Z</time>
      </trkpt>
      <trkpt lat="48.7205840" lon="13.5411860">
        <ele>476.0</ele>
        <time>2019-08-15T09:20:54Z</time>
      </trkpt>
      <trkpt lat="48.7206280" lon="13.5412250">
        <ele>475.8</ele>
        <time>2019-08-15T09:20:55Z</time>
      </trkpt>
      <trkpt lat="48.7206730" lon="13.5412650">
        <ele>475.8</ele>
        <time>2019-08-15T09:20:56Z</time>
      </trkpt>
      <trkpt lat="48.7207180" lon="13.5413040">
        <ele>475.8</ele>
        <time>2019-08-15T09:20:57Z</time>
      </trkpt>
      <trkpt lat="48.7207640" lon="13.5413400">
        <ele>475.8</ele>
        <time>2019-08-15T09:20:58Z</time>
      </trkpt>
      <trkpt lat="48.7208110" lon="13.5413760">
        <ele>475.8</ele>
        <time>2019-08-15T09:20:59Z</time>
      </trkpt>
      <trkpt lat="48.7208590" lon="13.5414070">
        <ele>475.8</ele>
        <time>2019-08-15T09:21:00Z</time>
      </trkpt>
      <trkpt lat="48.7209100" lon="13.5414370">
        <ele>475.6</ele>
        <time>2019-08-15T09:21:01Z</time>
      </trkpt>
      <trkpt lat="48.7209610" lon="13.5414670">
        <ele>475.6</ele>
        <time>2019-08-15T09:21:02Z</time>
      </trkpt>
      <trkpt lat="48.7210120" lon="13.5414950">
        <ele>475.6</ele>
        <time>2019-08-15T09:21:03Z</time>
      </trkpt>
      <trkpt lat="48.7210640" lon="13.5415240">
        <ele>475.6</ele>
        <time>2019-08-15T09:21:04Z</time>
      </trkpt>
      <trkpt lat="48.7211140" lon="13.5415540">
        <ele>475.6</ele>
        <time>2019-08-15T09:21:05Z</time>
      </trkpt>
      <trkpt lat="48.7211650" lon="13.5415850">
        <ele>475.6</ele>
        <time>2019-08-15T09:21:06Z</time>
      </trkpt>
      <trkpt lat="48.7212120" lon="13.5416190">
        <ele>475.8</ele>
        <time>2019-08-15T09:21:07Z</time>
      </trkpt>
      <trkpt lat="48.7212600" lon="13.5416570">
        <ele>475.8</ele>
        <time>2019-08-15T09:21:08Z</time>
      </trkpt>
      <trkpt lat="48.7213060" lon="13.5416990">
        <ele>475.8</ele>
        <time>2019-08-15T09:21:09Z</time>
      </trkpt>
      <trkpt lat="48.7213510" lon="13.5417400">
        <ele>475.8</ele>
        <time>2019-08-15T09:21:10Z</time>
      </trkpt>
      <trkpt lat="48.7213980" lon="13.5417820">
        <ele>475.8</ele>
        <time>2019-08-15T09:21:11Z</time>
      </trkpt>
      <trkpt lat="48.7214430" lon="13.5418240">
        <ele>476.0</ele>
        <time>2019-08-15T09:21:12Z</time>
      </trkpt>
      <trkpt lat="48.7214890" lon="13.5418650">
        <ele>476.0</ele>
        <time>2019-08-15T09:21:13Z</time>
      </trkpt>
      <trkpt lat="48.7215340" lon="13.5419050">
        <ele>476.0</ele>
        <time>2019-08-15T09:21:14Z</time>
      </trkpt>
      <trkpt lat="48.7215790" lon="13.5419450">
        <ele>476.2</ele>
        <time>2019-08-15T09:21:15Z</time>
      </trkpt>
      <trkpt lat="48.7216240" lon="13.5419840">
        <ele>476.2</ele>
        <time>2019-08-15T09:21:16Z</time>
      </trkpt>
      <trkpt lat="48.7216690" lon="13.5420220">
        <ele>476.2</ele>
        <time>2019-08-15T09:21:17Z</time>
      </trkpt>
      <trkpt lat="48.7217140" lon="13.5420590">
        <ele>476.4</ele>
        <time>2019-08-15T09:21:18Z</time>
      </trkpt>
      <trkpt lat="48.7217620" lon="13.5420890">
        <ele>476.4</ele>
        <time>2019-08-15T09:21:19Z</time>
      </trkpt>
      <trkpt lat="48.7218100" lon="13.5421140">
        <ele>476.4</ele>
        <time>2019-08-15T09:21:20Z</time>
      </trkpt>
      <trkpt lat="48.7218590" lon="13.5421340">
        <ele>476.4</ele>
        <time>2019-08-15T09:21:21Z</time>
      </trkpt>
      <trkpt lat="48.7219080" lon="13.5421500">
        <ele>476.4</ele>
        <time>2019-08-15T09:21:22Z</time>
      </trkpt>
      <trkpt lat="48.7219570" lon="13.5421640">
        <ele>476.4</ele>
        <time>2019-08-15T09:21:23Z</time>
      </trkpt>
      <trkpt lat="48.7220060" lon="13.5421760">
        <ele>476.4</ele>
        <time>2019-08-15T09:21:24Z</time>
      </trkpt>
      <trkpt lat="48.7220570" lon="13.5421900">
        <ele>476.6</ele>
        <time>2019-08-15T09:21:25Z</time>
      </trkpt>
      <trkpt lat="48.7221070" lon="13.5422040">
        <ele>476.6</ele>
        <time>2019-08-15T09:21:26Z</time>
      </trkpt>
      <trkpt lat="48.7221560" lon="13.5422180">
        <ele>476.6</ele>
        <time>2019-08-15T09:21:27Z</time>
      </trkpt>
      <trkpt lat="48.7222080" lon="13.5422310">
        <ele>476.6</ele>
        <time>2019-08-15T09:21:28Z</time>
      </trkpt>
      <trkpt lat="48.7222590" lon="13.5422420">
        <ele>476.6</ele>
        <time>2019-08-15T09:21:29Z</time>
      </trkpt>
      <trkpt lat="48.7223100" lon="13.5422520">
        <ele>476.8</ele>
        <time>2019-08-15T09:21:30Z</time>
      </trkpt>
      <trkpt lat="48.7223600" lon="13.5422580">
        <ele>477.0</ele>
        <time>2019-08-15T09:21:31Z</time>
      </trkpt>
      <trkpt lat="48.7224100" lon="13.5422630">
        <ele>477.2</ele>
        <time>2019-08-15T09:21:32Z</time>
      </trkpt>
      <trkpt lat="48.7224610" lon="13.5422660">
        <ele>477.2</ele>
        <time>2019-08-15T09:21:33Z</time>
      </trkpt>
      <trkpt lat="48.7225120" lon="13.5422710">
        <ele>477.2</ele>
        <time>2019-08-15T09:21:34Z</time>
      </trkpt>
      <trkpt lat="48.7225620" lon="13.5422760">
        <ele>477.4</ele>
        <time>2019-08-15T09:21:35Z</time>
      </trkpt>
      <trkpt lat="48.7226100" lon="13.5422790">
        <ele>477.4</ele>
        <time>2019-08-15T09:21:36Z</time>
      </trkpt>
      <trkpt lat="48.7226580" lon="13.5422820">
        <ele>477.4</ele>
        <time>2019-08-15T09:21:37Z</time>
      </trkpt>
      <trkpt lat="48.7227060" lon="13.5422860">
        <ele>477.4</ele>
        <time>2019-08-15T09:21:38Z</time>
      </trkpt>
      <trkpt lat="48.7227530" lon="13.5422900">
        <ele>477.4</ele>
        <time>2019-08-15T09:21:39Z</time>
      </trkpt>
      <trkpt lat="48.7227980" lon="13.5422940">
        <ele>477.4</ele>
        <time>2019-08-15T09:21:40Z</time>
      </trkpt>
      <trkpt lat="48.7228440" lon="13.5422970">
        <ele>477.4</ele>
        <time>2019-08-15T09:21:41Z</time>
      </trkpt>
      <trkpt lat="48.7228890" lon="13.5423010">
        <ele>477.4</ele>
        <time>2019-08-15T09:21:42Z</time>
      </trkpt>
      <trkpt lat="48.7229320" lon="13.5423050">
        <ele>477.4</ele>
        <time>2019-08-15T09:21:43Z</time>
      </trkpt>
      <trkpt lat="48.7229760" lon="13.5423090">
        <ele>477.4</ele>
        <time>2019-08-15T09:21:44Z</time>
      </trkpt>
      <trkpt lat="48.7230230" lon="13.5423070">
        <ele>477.6</ele>
        <time>2019-08-15T09:21:45Z</time>
      </trkpt>
      <trkpt lat="48.7230820" lon="13.5422880">
        <ele>477.6</ele>
        <time>2019-08-15T09:21:46Z</time>
      </trkpt>
      <trkpt lat="48.7231410" lon="13.5422700">
        <ele>477.6</ele>
        <time>2019-08-15T09:21:47Z</time>
      </trkpt>
      <trkpt lat="48.7231750" lon="13.5422730">
        <ele>477.8</ele>
        <time>2019-08-15T09:21:48Z</time>
      </trkpt>
      <trkpt lat="48.7232080" lon="13.5423060">
        <ele>478.0</ele>
        <time>2019-08-15T09:21:49Z</time>
      </trkpt>
      <trkpt lat="48.7232460" lon="13.5423140">
        <ele>478.0</ele>
        <time>2019-08-15T09:21:50Z</time>
      </trkpt>
      <trkpt lat="48.7232860" lon="13.5423270">
        <ele>478.2</ele>
        <time>2019-08-15T09:21:51Z</time>
      </trkpt>
      <trkpt lat="48.7233200" lon="13.5423330">
        <ele>478.2</ele>
        <time>2019-08-15T09:21:52Z</time>
      </trkpt>
      <trkpt lat="48.7233510" lon="13.5423330">
        <ele>478.2</ele>
        <time>2019-08-15T09:21:53Z</time>
      </trkpt>
      <trkpt lat="48.7233830" lon="13.5423300">
        <ele>478.4</ele>
        <time>2019-08-15T09:21:54Z</time>
      </trkpt>
      <trkpt lat="48.7234170" lon="13.5423310">
        <ele>478.4</ele>
        <time>2019-08-15T09:21:55Z</time>
      </trkpt>
      <trkpt lat="48.7234510" lon="13.5423330">
        <ele>478.6</ele>
        <time>2019-08-15T09:21:56Z</time>
      </trkpt>
      <trkpt lat="48.7234830" lon="13.5423360">
        <ele>478.6</ele>
        <time>2019-08-15T09:21:57Z</time>
      </trkpt>
      <trkpt lat="48.7235120" lon="13.5423410">
        <ele>478.8</ele>
        <time>2019-08-15T09:21:58Z</time>
      </trkpt>
      <trkpt lat="48.7235400" lon="13.5423450">
        <ele>479.0</ele>
        <time>2019-08-15T09:21:59Z</time>
      </trkpt>
      <trkpt lat="48.7235670" lon="13.5423460">
        <ele>479.2</ele>
        <time>2019-08-15T09:22:00Z</time>
      </trkpt>
      <trkpt lat="48.7235910" lon="13.5423420">
        <ele>479.6</ele>
        <time>2019-08-15T09:22:01Z</time>
      </trkpt>
      <trkpt lat="48.7236140" lon="13.5423360">
        <ele>479.8</ele>
        <time>2019-08-15T09:22:02Z</time>
      </trkpt>
      <trkpt lat="48.7236380" lon="13.5423320">
        <ele>480.0</ele>
        <time>2019-08-15T09:22:03Z</time>
      </trkpt>
      <trkpt lat="48.7236610" lon="13.5423290">
        <ele>480.2</ele>
        <time>2019-08-15T09:22:04Z</time>
      </trkpt>
      <trkpt lat="48.7236840" lon="13.5423250">
        <ele>480.4</ele>
        <time>2019-08-15T09:22:05Z</time>
      </trkpt>
      <trkpt lat="48.7237070" lon="13.5423240">
        <ele>480.6</ele>
        <time>2019-08-15T09:22:06Z</time>
      </trkpt>
      <trkpt lat="48.7237290" lon="13.5423190">
        <ele>480.8</ele>
        <time>2019-08-15T09:22:07Z</time>
      </trkpt>
      <trkpt lat="48.7237510" lon="13.5423150">
        <ele>481.0</ele>
        <time>2019-08-15T09:22:08Z</time>
      </trkpt>
      <trkpt lat="48.7237710" lon="13.5423110">
        <ele>481.2</ele>
        <time>2019-08-15T09:22:09Z</time>
      </trkpt>
      <trkpt lat="48.7237930" lon="13.5423060">
        <ele>481.4</ele>
        <time>2019-08-15T09:22:10Z</time>
      </trkpt>
      <trkpt lat="48.7238130" lon="13.5422990">
        <ele>481.6</ele>
        <time>2019-08-15T09:22:11Z</time>
      </trkpt>
      <trkpt lat="48.7238300" lon="13.5422890">
        <ele>481.8</ele>
        <time>2019-08-15T09:22:12Z</time>
      </trkpt>
      <trkpt lat="48.7238480" lon="13.5422790">
        <ele>482.0</ele>
        <time>2019-08-15T09:22:13Z</time>
      </trkpt>
      <trkpt lat="48.7238650" lon="13.5422700">
        <ele>482.2</ele>
        <time>2019-08-15T09:22:14Z</time>
      </trkpt>
      <trkpt lat="48.7238810" lon="13.5422610">
        <ele>482.4</ele>
        <time>2019-08-15T09:22:15Z</time>
      </trkpt>
      <trkpt lat="48.7238950" lon="13.5422560">
        <ele>482.4</ele>
        <time>2019-08-15T09:22:16Z</time>
      </trkpt>
      <trkpt lat="48.7239100" lon="13.5422550">
        <ele>482.6</ele>
        <time>2019-08-15T09:22:17Z</time>
      </trkpt>
      <trkpt lat="48.7239220" lon="13.5422580">
        <ele>482.8</ele>
        <time>2019-08-15T09:22:18Z</time>
      </trkpt>
      <trkpt lat="48.7239350" lon="13.5422640">
        <ele>482.8</ele>
        <time>2019-08-15T09:22:19Z</time>
      </trkpt>
      <trkpt lat="48.7239470" lon="13.5422680">
        <ele>483.0</ele>
        <time>2019-08-15T09:22:20Z</time>
      </trkpt>
      <trkpt lat="48.7239600" lon="13.5422730">
        <ele>483.2</ele>
        <time>2019-08-15T09:22:21Z</time>
      </trkpt>
      <trkpt lat="48.7239720" lon="13.5422790">
        <ele>483.2</ele>
        <time>2019-08-15T09:22:22Z</time>
      </trkpt>
      <trkpt lat="48.7239820" lon="13.5422860">
        <ele>483.2</ele>
        <time>2019-08-15T09:22:23Z</time>
      </trkpt>
      <trkpt lat="48.7239930" lon="13.5422940">
        <ele>483.2</ele>
        <time>2019-08-15T09:22:24Z</time>
      </trkpt>
      <trkpt lat="48.7240040" lon="13.5423010">
        <ele>483.2</ele>
        <time>2019-08-15T09:22:25Z</time>
      </trkpt>
      <trkpt lat="48.7240140" lon="13.5423080">
        <ele>483.2</ele>
        <time>2019-08-15T09:22:26Z</time>
      </trkpt>
      <trkpt lat="48.7240210" lon="13.5423080">
        <ele>483.2</ele>
        <time>2019-08-15T09:22:27Z</time>
      </trkpt>
      <trkpt lat="48.7240310" lon="13.5421290">
        <ele>483.2</ele>
        <time>2019-08-15T09:26:21Z</time>
      </trkpt>
      <trkpt lat="48.7240500" lon="13.5421100">
        <ele>483.2</ele>
        <time>2019-08-15T09:26:22Z</time>
      </trkpt>
      <trkpt lat="48.7240700" lon="13.5420920">
        <ele>483.2</ele>
        <time>2019-08-15T09:26:23Z</time>
      </trkpt>
      <trkpt lat="48.7240890" lon="13.5420750">
        <ele>483.2</ele>
        <time>2019-08-15T09:26:24Z</time>
      </trkpt>
      <trkpt lat="48.7241100" lon="13.5420580">
        <ele>483.4</ele>
        <time>2019-08-15T09:26:25Z</time>
      </trkpt>
      <trkpt lat="48.7241300" lon="13.5420400">
        <ele>483.4</ele>
        <time>2019-08-15T09:26:26Z</time>
      </trkpt>
      <trkpt lat="48.7241490" lon="13.5420220">
        <ele>483.6</ele>
        <time>2019-08-15T09:26:27Z</time>
      </trkpt>
      <trkpt lat="48.7241710" lon="13.5420050">
        <ele>483.6</ele>
        <time>2019-08-15T09:26:28Z</time>
      </trkpt>
      <trkpt lat="48.7241910" lon="13.5419870">
        <ele>483.8</ele>
        <time>2019-08-15T09:26:29Z</time>
      </trkpt>
      <trkpt lat="48.7242110" lon="13.5419660">
        <ele>483.8</ele>
        <time>2019-08-15T09:26:30Z</time>
      </trkpt>
      <trkpt lat="48.7242310" lon="13.5419440">
        <ele>484.0</ele>
        <time>2019-08-15T09:26:31Z</time>
      </trkpt>
      <trkpt lat="48.7242530" lon="13.5419220">
        <ele>484.2</ele>
        <time>2019-08-15T09:26:32Z</time>
      </trkpt>
      <trkpt lat="48.7242730" lon="13.5419010">
        <ele>484.2</ele>
        <time>2019-08-15T09:26:33Z</time>
      </trkpt>
      <trkpt lat="48.7242910" lon="13.5418790">
        <ele>484.4</ele>
        <time>2019-08-15T09:26:34Z</time>
      </trkpt>
      <trkpt lat="48.7243110" lon="13.5418550">
        <ele>484.6</ele>
        <time>2019-08-15T09:26:35Z</time>
      </trkpt>
      <trkpt lat="48.7243290" lon="13.5418310">
        <ele>484.8</ele>
        <time>2019-08-15T09:26:36Z</time>
      </trkpt>
      <trkpt lat="48.7243490" lon="13.5418060">
        <ele>484.8</ele>
        <time>2019-08-15T09:26:37Z</time>
      </trkpt>
      <trkpt lat="48.7243690" lon="13.5417820">
        <ele>485.0</ele>
        <time>2019-08-15T09:26:38Z</time>
      </trkpt>
      <trkpt lat="48.7243880" lon="13.5417580">
        <ele>485.0</ele>
        <time>2019-08-15T09:26:39Z</time>
      </trkpt>
      <trkpt lat="48.7244090" lon="13.5417360">
        <ele>485.2</ele>
        <time>2019-08-15T09:26:40Z</time>
      </trkpt>
      <trkpt lat="48.7244310" lon="13.5417140">
        <ele>485.4</ele>
        <time>2019-08-15T09:26:41Z</time>
      </trkpt>
      <trkpt lat="48.7244530" lon="13.5416910">
        <ele>485.4</ele>
        <time>2019-08-15T09:26:42Z</time>
      </trkpt>
      <trkpt lat="48.7244740" lon="13.5416670">
        <ele>485.6</ele>
        <time>2019-08-15T09:26:43Z</time>
      </trkpt>
      <trkpt lat="48.7244960" lon="13.5416410">
        <ele>485.6</ele>
        <time>2019-08-15T09:26:44Z</time>
      </trkpt>
      <trkpt lat="48.7245200" lon="13.5416190">
        <ele>485.6</ele>
        <time>2019-08-15T09:26:45Z</time>
      </trkpt>
      <trkpt lat="48.7245460" lon="13.5416000">
        <ele>485.8</ele>
        <time>2019-08-15T09:26:46Z</time>
      </trkpt>
      <trkpt lat="48.7245710" lon="13.5415820">
        <ele>485.8</ele>
        <time>2019-08-15T09:26:47Z</time>
      </trkpt>
      <trkpt lat="48.7246000" lon="13.5415650">
        <ele>485.8</ele>
        <time>2019-08-15T09:26:48Z</time>
      </trkpt>
      <trkpt lat="48.7246300" lon="13.5415520">
        <ele>485.8</ele>
        <time>2019-08-15T09:26:49Z</time>
      </trkpt>
      <trkpt lat="48.7246600" lon="13.5415440">
        <ele>485.8</ele>
        <time>2019-08-15T09:26:50Z</time>
      </trkpt>
      <trkpt lat="48.7246910" lon="13.5415400">
        <ele>486.0</ele>
        <time>2019-08-15T09:26:51Z</time>
      </trkpt>
      <trkpt lat="48.7247220" lon="13.5415460">
        <ele>486.0</ele>
        <time>2019-08-15T09:26:52Z</time>
      </trkpt>
      <trkpt lat="48.7247550" lon="13.5415590">
        <ele>486.0</ele>
        <time>2019-08-15T09:26:53Z</time>
      </trkpt>
      <trkpt lat="48.7247850" lon="13.5415810">
        <ele>486.0</ele>
        <time>2019-08-15T09:26:54Z</time>
      </trkpt>
      <trkpt lat="48.7248150" lon="13.5416070">
        <ele>486.0</ele>
        <time>2019-08-15T09:26:55Z</time>
      </trkpt>
      <trkpt lat="48.7248440" lon="13.5416370">
        <ele>486.0</ele>
        <time>2019-08-15T09:26:56Z</time>
      </trkpt>
      <trkpt lat="48.7248730" lon="13.5416680">
        <ele>486.2</ele>
        <time>2019-08-15T09:26:57Z</time>
      </trkpt>
      <trkpt lat="48.7249000" lon="13.5417020">
        <ele>486.2</ele>
        <time>2019-08-15T09:26:58Z</time>
      </trkpt>
      <trkpt lat="48.7249270" lon="13.5417420">
        <ele>486.2</ele>
        <time>2019-08-15T09:26:59Z</time>
      </trkpt>
      <trkpt lat="48.7249510" lon="13.5417800">
        <ele>486.2</ele>
        <time>2019-08-15T09:27:00Z</time>
      </trkpt>
      <trkpt lat="48.7249810" lon="13.5418250">
        <ele>486.2</ele>
        <time>2019-08-15T09:27:01Z</time>
      </trkpt>
      <trkpt lat="48.7250100" lon="13.5418710">
        <ele>486.2</ele>
        <time>2019-08-15T09:27:02Z</time>
      </trkpt>
      <trkpt lat="48.7250400" lon="13.5419190">
        <ele>486.0</ele>
        <time>2019-08-15T09:27:03Z</time>
      </trkpt>
      <trkpt lat="48.7250700" lon="13.5419660">
        <ele>486.0</ele>
        <time>2019-08-15T09:27:04Z</time>
      </trkpt>
      <trkpt lat="48.7251040" lon="13.5420160">
        <ele>486.0</ele>
        <time>2019-08-15T09:27:05Z</time>
      </trkpt>
      <trkpt lat="48.7251380" lon="13.5420690">
        <ele>486.0</ele>
        <time>2019-08-15T09:27:06Z</time>
      </trkpt>
      <trkpt lat="48.7251710" lon="13.5421220">
        <ele>486.0</ele>
        <time>2019-08-15T09:27:07Z</time>
      </trkpt>
      <trkpt lat="48.7252060" lon="13.5421770">
        <ele>485.8</ele>
        <time>2019-08-15T09:27:08Z</time>
      </trkpt>
      <trkpt lat="48.7252420" lon="13.5422350">
        <ele>485.8</ele>
        <time>2019-08-15T09:27:09Z</time>
      </trkpt>
      <trkpt lat="48.7252780" lon="13.5422920">
        <ele>485.6</ele>
        <time>2019-08-15T09:27:10Z</time>
      </trkpt>
      <trkpt lat="48.7253170" lon="13.5423520">
        <ele>485.6</ele>
        <time>2019-08-15T09:27:11Z</time>
      </trkpt>
      <trkpt lat="48.7253560" lon="13.5424120">
        <ele>485.6</ele>
        <time>2019-08-15T09:27:12Z</time>
      </trkpt>
      <trkpt lat="48.7253950" lon="13.5424730">
        <ele>485.4</ele>
        <time>2019-08-15T09:27:13Z</time>
      </trkpt>
      <trkpt lat="48.7254350" lon="13.5425340">
        <ele>485.4</ele>
        <time>2019-08-15T09:27:14Z</time>
      </trkpt>
      <trkpt lat="48.7254770" lon="13.5425980">
        <ele>485.4</ele>
        <time>2019-08-15T09:27:15Z</time>
      </trkpt>
      <trkpt lat="48.7255190" lon="13.5426630">
        <ele>485.4</ele>
        <time>2019-08-15T09:27:16Z</time>
      </trkpt>
      <trkpt lat="48.7255620" lon="13.5427290">
        <ele>485.2</ele>
        <time>2019-08-15T09:27:17Z</time>
      </trkpt>
      <trkpt lat="48.7256040" lon="13.5427960">
        <ele>485.0</ele>
        <time>2019-08-15T09:27:18Z</time>
      </trkpt>
      <trkpt lat="48.7256490" lon="13.5428630">
        <ele>485.0</ele>
        <time>2019-08-15T09:27:19Z</time>
      </trkpt>
      <trkpt lat="48.7256920" lon="13.5429270">
        <ele>484.8</ele>
        <time>2019-08-15T09:27:20Z</time>
      </trkpt>
      <trkpt lat="48.7257400" lon="13.5429960">
        <ele>484.8</ele>
        <time>2019-08-15T09:27:21Z</time>
      </trkpt>
      <trkpt lat="48.7257850" lon="13.5430640">
        <ele>484.8</ele>
        <time>2019-08-15T09:27:22Z</time>
      </trkpt>
      <trkpt lat="48.7258320" lon="13.5431330">
        <ele>484.6</ele>
        <time>2019-08-15T09:27:23Z</time>
      </trkpt>
      <trkpt lat="48.7258800" lon="13.5432030">
        <ele>484.6</ele>
        <time>2019-08-15T09:27:24Z</time>
      </trkpt>
      <trkpt lat="48.7259230" lon="13.5432680">
        <ele>484.6</ele>
        <time>2019-08-15T09:27:25Z</time>
      </trkpt>
      <trkpt lat="48.7259720" lon="13.5433450">
        <ele>484.4</ele>
        <time>2019-08-15T09:27:26Z</time>
      </trkpt>
      <trkpt lat="48.7260200" lon="13.5434200">
        <ele>484.4</ele>
        <time>2019-08-15T09:27:27Z</time>
      </trkpt>
      <trkpt lat="48.7260670" lon="13.5434940">
        <ele>484.2</ele>
        <time>2019-08-15T09:27:28Z</time>
      </trkpt>
      <trkpt lat="48.7261140" lon="13.5435680">
        <ele>484.4</ele>
        <time>2019-08-15T09:27:29Z</time>
      </trkpt>
      <trkpt lat="48.7261600" lon="13.5436380">
        <ele>484.4</ele>
        <time>2019-08-15T09:27:30Z</time>
      </trkpt>
      <trkpt lat="48.7262050" lon="13.5437060">
        <ele>484.4</ele>
        <time>2019-08-15T09:27:31Z</time>
      </trkpt>
      <trkpt lat="48.7262480" lon="13.5437720">
        <ele>484.4</ele>
        <time>2019-08-15T09:27:32Z</time>
      </trkpt>
      <trkpt lat="48.7262920" lon="13.5438380">
        <ele>484.6</ele>
        <time>2019-08-15T09:27:33Z</time>
      </trkpt>
      <trkpt lat="48.7263380" lon="13.5439020">
        <ele>484.6</ele>
        <time>2019-08-15T09:27:34Z</time>
      </trkpt>
      <trkpt lat="48.7263850" lon="13.5439630">
        <ele>484.8</ele>
        <time>2019-08-15T09:27:35Z</time>
      </trkpt>
      <trkpt lat="48.7264320" lon="13.5440170">
        <ele>485.0</ele>
        <time>2019-08-15T09:27:36Z</time>
      </trkpt>
      <trkpt lat="48.7264800" lon="13.5440710">
        <ele>485.0</ele>
        <time>2019-08-15T09:27:37Z</time>
      </trkpt>
      <trkpt lat="48.7265250" lon="13.5441210">
        <ele>485.2</ele>
        <time>2019-08-15T09:27:38Z</time>
      </trkpt>
      <trkpt lat="48.7265720" lon="13.5441730">
        <ele>485.2</ele>
        <time>2019-08-15T09:27:39Z</time>
      </trkpt>
      <trkpt lat="48.7266180" lon="13.5442210">
        <ele>485.4</ele>
        <time>2019-08-15T09:27:40Z</time>
      </trkpt>
      <trkpt lat="48.7266630" lon="13.5442680">
        <ele>485.4</ele>
        <time>2019-08-15T09:27:41Z</time>
      </trkpt>
      <trkpt lat="48.7267080" lon="13.5443130">
        <ele>485.4</ele>
        <time>2019-08-15T09:27:42Z</time>
      </trkpt>
      <trkpt lat="48.7267530" lon="13.5443600">
        <ele>485.4</ele>
        <time>2019-08-15T09:27:43Z</time>
      </trkpt>
      <trkpt lat="48.7267980" lon="13.5444040">
        <ele>485.4</ele>
        <time>2019-08-15T09:27:44Z</time>
      </trkpt>
      <trkpt lat="48.7268420" lon="13.5444490">
        <ele>485.6</ele>
        <time>2019-08-15T09:27:45Z</time>
      </trkpt>
      <trkpt lat="48.7268870" lon="13.5444890">
        <ele>485.8</ele>
        <time>2019-08-15T09:27:46Z</time>
      </trkpt>
      <trkpt lat="48.7269330" lon="13.5445250">
        <ele>485.8</ele>
        <time>2019-08-15T09:27:47Z</time>
      </trkpt>
      <trkpt lat="48.7269790" lon="13.5445560">
        <ele>485.8</ele>
        <time>2019-08-15T09:27:48Z</time>
      </trkpt>
      <trkpt lat="48.7270240" lon="13.5445910">
        <ele>485.8</ele>
        <time>2019-08-15T09:27:49Z</time>
      </trkpt>
      <trkpt lat="48.7270690" lon="13.5446220">
        <ele>485.8</ele>
        <time>2019-08-15T09:27:50Z</time>
      </trkpt>
      <trkpt lat="48.7271180" lon="13.5446560">
        <ele>485.8</ele>
        <time>2019-08-15T09:27:51Z</time>
      </trkpt>
      <trkpt lat="48.7271630" lon="13.5446860">
        <ele>486.0</ele>
        <time>2019-08-15T09:27:52Z</time>
      </trkpt>
      <trkpt lat="48.7272080" lon="13.5447180">
        <ele>486.0</ele>
        <time>2019-08-15T09:27:53Z</time>
      </trkpt>
      <trkpt lat="48.7272490" lon="13.5447490">
        <ele>486.0</ele>
        <time>2019-08-15T09:27:54Z</time>
      </trkpt>
      <trkpt lat="48.7272910" lon="13.5447810">
        <ele>486.2</ele>
        <time>2019-08-15T09:27:55Z</time>
      </trkpt>
      <trkpt lat="48.7273270" lon="13.5448130">
        <ele>486.2</ele>
        <time>2019-08-15T09:27:56Z</time>
      </trkpt>
      <trkpt lat="48.7273640" lon="13.5448430">
        <ele>486.2</ele>
        <time>2019-08-15T09:27:57Z</time>
      </trkpt>
      <trkpt lat="48.7274010" lon="13.5448760">
        <ele>486.2</ele>
        <time>2019-08-15T09:27:58Z</time>
      </trkpt>
      <trkpt lat="48.7274380" lon="13.5449120">
        <ele>486.4</ele>
        <time>2019-08-15T09:27:59Z</time>
      </trkpt>
      <trkpt lat="48.7274760" lon="13.5449490">
        <ele>486.4</ele>
        <time>2019-08-15T09:28:00Z</time>
      </trkpt>
      <trkpt lat="48.7275120" lon="13.5449890">
        <ele>486.4</ele>
        <time>2019-08-15T09:28:01Z</time>
      </trkpt>
      <trkpt lat="48.7275510" lon="13.5450310">
        <ele>486.6</ele>
        <time>2019-08-15T09:28:02Z</time>
      </trkpt>
      <trkpt lat="48.7275860" lon="13.5450710">
        <ele>486.6</ele>
        <time>2019-08-15T09:28:03Z</time>
      </trkpt>
      <trkpt lat="48.7276230" lon="13.5451150">
        <ele>486.6</ele>
        <time>2019-08-15T09:28:04Z</time>
      </trkpt>
      <trkpt lat="48.7276590" lon="13.5451610">
        <ele>486.8</ele>
        <time>2019-08-15T09:28:05Z</time>
      </trkpt>
      <trkpt lat="48.7276950" lon="13.5452050">
        <ele>486.8</ele>
        <time>2019-08-15T09:28:06Z</time>
      </trkpt>
      <trkpt lat="48.7277260" lon="13.5452500">
        <ele>487.0</ele>
        <time>2019-08-15T09:28:07Z</time>
      </trkpt>
      <trkpt lat="48.7277550" lon="13.5452960">
        <ele>487.0</ele>
        <time>2019-08-15T09:28:08Z</time>
      </trkpt>
      <trkpt lat="48.7277820" lon="13.5453420">
        <ele>487.2</ele>
        <time>2019-08-15T09:28:09Z</time>
      </trkpt>
      <trkpt lat="48.7278090" lon="13.5453890">
        <ele>487.4</ele>
        <time>2019-08-15T09:28:10Z</time>
      </trkpt>
      <trkpt lat="48.7278340" lon="13.5454350">
        <ele>487.4</ele>
        <time>2019-08-15T09:28:11Z</time>
      </trkpt>
      <trkpt lat="48.7278570" lon="13.5454780">
        <ele>487.6</ele>
        <time>2019-08-15T09:28:12Z</time>
      </trkpt>
      <trkpt lat="48.7278790" lon="13.5455200">
        <ele>487.8</ele>
        <time>2019-08-15T09:28:13Z</time>
      </trkpt>
      <trkpt lat="48.7278990" lon="13.5455630">
        <ele>487.8</ele>
        <time>2019-08-15T09:28:14Z</time>
      </trkpt>
      <trkpt lat="48.7279170" lon="13.5455990">
        <ele>488.0</ele>
        <time>2019-08-15T09:28:15Z</time>
      </trkpt>
      <trkpt lat="48.7279360" lon="13.5456390">
        <ele>488.0</ele>
        <time>2019-08-15T09:28:16Z</time>
      </trkpt>
      <trkpt lat="48.7279550" lon="13.5456750">
        <ele>488.2</ele>
        <time>2019-08-15T09:28:17Z</time>
      </trkpt>
      <trkpt lat="48.7279740" lon="13.5457110">
        <ele>488.2</ele>
        <time>2019-08-15T09:28:18Z</time>
      </trkpt>
      <trkpt lat="48.7279930" lon="13.5457470">
        <ele>488.4</ele>
        <time>2019-08-15T09:28:19Z</time>
      </trkpt>
      <trkpt lat="48.7280140" lon="13.5457840">
        <ele>488.4</ele>
        <time>2019-08-15T09:28:20Z</time>
      </trkpt>
      <trkpt lat="48.7280360" lon="13.5458170">
        <ele>488.6</ele>
        <time>2019-08-15T09:28:21Z</time>
      </trkpt>
      <trkpt lat="48.7280580" lon="13.5458450">
        <ele>488.8</ele>
        <time>2019-08-15T09:28:22Z</time>
      </trkpt>
      <trkpt lat="48.7280800" lon="13.5458670">
        <ele>488.8</ele>
        <time>2019-08-15T09:28:23Z</time>
      </trkpt>
      <trkpt lat="48.7280990" lon="13.5458860">
        <ele>489.0</ele>
        <time>2019-08-15T09:28:24Z</time>
      </trkpt>
      <trkpt lat="48.7281160" lon="13.5459000">
        <ele>489.2</ele>
        <time>2019-08-15T09:28:25Z</time>
      </trkpt>
      <trkpt lat="48.7281310" lon="13.5459100">
        <ele>489.2</ele>
        <time>2019-08-15T09:28:26Z</time>
      </trkpt>
      <trkpt lat="48.7281500" lon="13.5459210">
        <ele>489.4</ele>
        <time>2019-08-15T09:28:27Z</time>
      </trkpt>
      <trkpt lat="48.7281680" lon="13.5459380">
        <ele>489.4</ele>
        <time>2019-08-15T09:28:28Z</time>
      </trkpt>
      <trkpt lat="48.7281820" lon="13.5459620">
        <ele>489.6</ele>
        <time>2019-08-15T09:28:29Z</time>
      </trkpt>
      <trkpt lat="48.7281890" lon="13.5459930">
        <ele>489.6</ele>
        <time>2019-08-15T09:28:30Z</time>
      </trkpt>
      <trkpt lat="48.7281900" lon="13.5460230">
        <ele>489.8</ele>
        <time>2019-08-15T09:28:31Z</time>
      </trkpt>
      <trkpt lat="48.7281900" lon="13.5460560">
        <ele>489.8</ele>
        <time>2019-08-15T09:28:32Z</time>
      </trkpt>
      <trkpt lat="48.7281910" lon="13.5460930">
        <ele>490.0</ele>
        <time>2019-08-15T09:28:33Z</time>
      </trkpt>
      <trkpt lat="48.7281930" lon="13.5461310">
        <ele>490.0</ele>
        <time>2019-08-15T09:28:34Z</time>
      </trkpt>
      <trkpt lat="48.7281960" lon="13.5461720">
        <ele>490.0</ele>
        <time>2019-08-15T09:28:35Z</time>
      </trkpt>
      <trkpt lat="48.7282010" lon="13.5462130">
        <ele>490.2</ele>
        <time>2019-08-15T09:28:36Z</time>
      </trkpt>
      <trkpt lat="48.7282090" lon="13.5462530">
        <ele>490.2</ele>
        <time>2019-08-15T09:28:37Z</time>
      </trkpt>
      <trkpt lat="48.7282200" lon="13.5462900">
        <ele>490.2</ele>
        <time>2019-08-15T09:28:38Z</time>
      </trkpt>
      <trkpt lat="48.7282300" lon="13.5463290">
        <ele>490.4</ele>
        <time>2019-08-15T09:28:39Z</time>
      </trkpt>
      <trkpt lat="48.7282390" lon="13.5463660">
        <ele>490.4</ele>
        <time>2019-08-15T09:28:40Z</time>
      </trkpt>
      <trkpt lat="48.7282470" lon="13.5464080">
        <ele>490.6</ele>
        <time>2019-08-15T09:28:41Z</time>
      </trkpt>
      <trkpt lat="48.7282560" lon="13.5464490">
        <ele>490.6</ele>
        <time>2019-08-15T09:28:42Z</time>
      </trkpt>
      <trkpt lat="48.7282650" lon="13.5464930">
        <ele>490.6</ele>
        <time>2019-08-15T09:28:43Z</time>
      </trkpt>
      <trkpt lat="48.7282750" lon="13.5465340">
        <ele>490.8</ele>
        <time>2019-08-15T09:28:44Z</time>
      </trkpt>
      <trkpt lat="48.7282870" lon="13.5465780">
        <ele>491.0</ele>
        <time>2019-08-15T09:28:45Z</time>
      </trkpt>
      <trkpt lat="48.7282970" lon="13.5466210">
        <ele>491.0</ele>
        <time>2019-08-15T09:28:46Z</time>
      </trkpt>
      <trkpt lat="48.7283050" lon="13.5466640">
        <ele>491.0</ele>
        <time>2019-08-15T09:28:47Z</time>
      </trkpt>
      <trkpt lat="48.7283150" lon="13.5467090">
        <ele>491.2</ele>
        <time>2019-08-15T09:28:48Z</time>
      </trkpt>
      <trkpt lat="48.7283270" lon="13.5467550">
        <ele>491.2</ele>
        <time>2019-08-15T09:28:49Z</time>
      </trkpt>
      <trkpt lat="48.7283380" lon="13.5467990">
        <ele>491.4</ele>
        <time>2019-08-15T09:28:50Z</time>
      </trkpt>
      <trkpt lat="48.7283500" lon="13.5468460">
        <ele>491.4</ele>
        <time>2019-08-15T09:28:51Z</time>
      </trkpt>
      <trkpt lat="48.7283590" lon="13.5468860">
        <ele>491.6</ele>
        <time>2019-08-15T09:28:52Z</time>
      </trkpt>
      <trkpt lat="48.7283710" lon="13.5469340">
        <ele>491.6</ele>
        <time>2019-08-15T09:28:53Z</time>
      </trkpt>
      <trkpt lat="48.7283850" lon="13.5469790">
        <ele>491.6</ele>
        <time>2019-08-15T09:28:54Z</time>
      </trkpt>
      <trkpt lat="48.7283970" lon="13.5470230">
        <ele>491.8</ele>
        <time>2019-08-15T09:28:55Z</time>
      </trkpt>
      <trkpt lat="48.7284080" lon="13.5470650">
        <ele>491.8</ele>
        <time>2019-08-15T09:28:56Z</time>
      </trkpt>
      <trkpt lat="48.7284200" lon="13.5471100">
        <ele>491.8</ele>
        <time>2019-08-15T09:28:57Z</time>
      </trkpt>
      <trkpt lat="48.7284320" lon="13.5471540">
        <ele>491.8</ele>
        <time>2019-08-15T09:28:58Z</time>
      </trkpt>
      <trkpt lat="48.7284420" lon="13.5472000">
        <ele>491.8</ele>
        <time>2019-08-15T09:28:59Z</time>
      </trkpt>
      <trkpt lat="48.7284510" lon="13.5472390">
        <ele>491.8</ele>
        <time>2019-08-15T09:29:00Z</time>
      </trkpt>
      <trkpt lat="48.7284630" lon="13.5472910">
        <ele>491.8</ele>
        <time>2019-08-15T09:29:01Z</time>
      </trkpt>
      <trkpt lat="48.7284760" lon="13.5473380">
        <ele>491.8</ele>
        <time>2019-08-15T09:29:02Z</time>
      </trkpt>
      <trkpt lat="48.7284890" lon="13.5473900">
        <ele>491.8</ele>
        <time>2019-08-15T09:29:03Z</time>
      </trkpt>
      <trkpt lat="48.7284990" lon="13.5474380">
        <ele>491.8</ele>
        <time>2019-08-15T09:29:04Z</time>
      </trkpt>
      <trkpt lat="48.7285100" lon="13.5474890">
        <ele>491.8</ele>
        <time>2019-08-15T09:29:05Z</time>
      </trkpt>
      <trkpt lat="48.7285230" lon="13.5475410">
        <ele>491.6</ele>
        <time>2019-08-15T09:29:06Z</time>
      </trkpt>
      <trkpt lat="48.7285360" lon="13.5475950">
        <ele>491.6</ele>
        <time>2019-08-15T09:29:07Z</time>
      </trkpt>
      <trkpt lat="48.7285510" lon="13.5476520">
        <ele>491.4</ele>
        <time>2019-08-15T09:29:08Z</time>
      </trkpt>
      <trkpt lat="48.7285670" lon="13.5477110">
        <ele>491.4</ele>
        <time>2019-08-15T09:29:09Z</time>
      </trkpt>
      <trkpt lat="48.7285830" lon="13.5477710">
        <ele>491.2</ele>
        <time>2019-08-15T09:29:10Z</time>
      </trkpt>
      <trkpt lat="48.7286010" lon="13.5478340">
        <ele>491.2</ele>
        <time>2019-08-15T09:29:11Z</time>
      </trkpt>
      <trkpt lat="48.7286220" lon="13.5478950">
        <ele>491.2</ele>
        <time>2019-08-15T09:29:12Z</time>
      </trkpt>
      <trkpt lat="48.7286440" lon="13.5479590">
        <ele>491.0</ele>
        <time>2019-08-15T09:29:13Z</time>
      </trkpt>
      <trkpt lat="48.7286680" lon="13.5480230">
        <ele>490.8</ele>
        <time>2019-08-15T09:29:14Z</time>
      </trkpt>
      <trkpt lat="48.7286930" lon="13.5480830">
        <ele>490.8</ele>
        <time>2019-08-15T09:29:15Z</time>
      </trkpt>
      <trkpt lat="48.7287170" lon="13.5481380">
        <ele>490.6</ele>
        <time>2019-08-15T09:29:16Z</time>
      </trkpt>
      <trkpt lat="48.7287480" lon="13.5481890">
        <ele>490.6</ele>
        <time>2019-08-15T09:29:17Z</time>
      </trkpt>
      <trkpt lat="48.7287790" lon="13.5482310">
        <ele>490.4</ele>
        <time>2019-08-15T09:29:18Z</time>
      </trkpt>
      <trkpt lat="48.7288120" lon="13.5482750">
        <ele>490.2</ele>
        <time>2019-08-15T09:29:19Z</time>
      </trkpt>
      <trkpt lat="48.7288410" lon="13.5483140">
        <ele>490.0</ele>
        <time>2019-08-15T09:29:20Z</time>
      </trkpt>
      <trkpt lat="48.7288810" lon="13.5483680">
        <ele>489.8</ele>
        <time>2019-08-15T09:29:21Z</time>
      </trkpt>
      <trkpt lat="48.7289200" lon="13.5484220">
        <ele>489.4</ele>
        <time>2019-08-15T09:29:22Z</time>
      </trkpt>
      <trkpt lat="48.7289530" lon="13.5484750">
        <ele>489.2</ele>
        <time>2019-08-15T09:29:23Z</time>
      </trkpt>
      <trkpt lat="48.7289780" lon="13.5485310">
        <ele>488.8</ele>
        <time>2019-08-15T09:29:24Z</time>
      </trkpt>
      <trkpt lat="48.7289890" lon="13.5485870">
        <ele>488.4</ele>
        <time>2019-08-15T09:29:25Z</time>
      </trkpt>
      <trkpt lat="48.7289890" lon="13.5486370">
        <ele>488.0</ele>
        <time>2019-08-15T09:29:26Z</time>
      </trkpt>
      <trkpt lat="48.7289770" lon="13.5486840">
        <ele>487.6</ele>
        <time>2019-08-15T09:29:27Z</time>
      </trkpt>
      <trkpt lat="48.7289510" lon="13.5487280">
        <ele>487.2</ele>
        <time>2019-08-15T09:29:28Z</time>
      </trkpt>
      <trkpt lat="48.7289120" lon="13.5487680">
        <ele>486.6</ele>
        <time>2019-08-15T09:29:29Z</time>
      </trkpt>
      <trkpt lat="48.7288680" lon="13.5488100">
        <ele>486.2</ele>
        <time>2019-08-15T09:29:30Z</time>
      </trkpt>
      <trkpt lat="48.7288220" lon="13.5488730">
        <ele>485.6</ele>
        <time>2019-08-15T09:29:31Z</time>
      </trkpt>
      <trkpt lat="48.7287910" lon="13.5489540">
        <ele>484.8</ele>
        <time>2019-08-15T09:29:32Z</time>
      </trkpt>
      <trkpt lat="48.7287810" lon="13.5490580">
        <ele>484.2</ele>
        <time>2019-08-15T09:29:33Z</time>
      </trkpt>
      <trkpt lat="48.7287930" lon="13.5491630">
        <ele>483.6</ele>
        <time>2019-08-15T09:29:34Z</time>
      </trkpt>
      <trkpt lat="48.7288170" lon="13.5492760">
        <ele>483.0</ele>
        <time>2019-08-15T09:29:35Z</time>
      </trkpt>
      <trkpt lat="48.7288450" lon="13.5493950">
        <ele>482.4</ele>
        <time>2019-08-15T09:29:36Z</time>
      </trkpt>
      <trkpt lat="48.7288710" lon="13.5495210">
        <ele>482.0</ele>
        <time>2019-08-15T09:29:37Z</time>
      </trkpt>
      <trkpt lat="48.7288970" lon="13.5496420">
        <ele>481.4</ele>
        <time>2019-08-15T09:29:38Z</time>
      </trkpt>
      <trkpt lat="48.7289230" lon="13.5497690">
        <ele>480.8</ele>
        <time>2019-08-15T09:29:39Z</time>
      </trkpt>
      <trkpt lat="48.7289500" lon="13.5498970">
        <ele>480.2</ele>
        <time>2019-08-15T09:29:40Z</time>
      </trkpt>
      <trkpt lat="48.7289770" lon="13.5500260">
        <ele>479.6</ele>
        <time>2019-08-15T09:29:41Z</time>
      </trkpt>
      <trkpt lat="48.7290030" lon="13.5501630">
        <ele>478.8</ele>
        <time>2019-08-15T09:29:42Z</time>
      </trkpt>
      <trkpt lat="48.7290320" lon="13.5503160">
        <ele>478.0</ele>
        <time>2019-08-15T09:29:43Z</time>
      </trkpt>
      <trkpt lat="48.7290590" lon="13.5504620">
        <ele>477.4</ele>
        <time>2019-08-15T09:29:44Z</time>
      </trkpt>
      <trkpt lat="48.7290810" lon="13.5506030">
        <ele>476.4</ele>
        <time>2019-08-15T09:29:45Z</time>
      </trkpt>
      <trkpt lat="48.7291010" lon="13.5507460">
        <ele>475.6</ele>
        <time>2019-08-15T09:29:46Z</time>
      </trkpt>
      <trkpt lat="48.7291190" lon="13.5508910">
        <ele>474.6</ele>
        <time>2019-08-15T09:29:47Z</time>
      </trkpt>
      <trkpt lat="48.7291320" lon="13.5510350">
        <ele>473.4</ele>
        <time>2019-08-15T09:29:48Z</time>
      </trkpt>
      <trkpt lat="48.7291420" lon="13.5511860">
        <ele>472.4</ele>
        <time>2019-08-15T09:29:49Z</time>
      </trkpt>
      <trkpt lat="48.7291460" lon="13.5513310">
        <ele>471.2</ele>
        <time>2019-08-15T09:29:50Z</time>
      </trkpt>
      <trkpt lat="48.7291490" lon="13.5514850">
        <ele>470.0</ele>
        <time>2019-08-15T09:29:51Z</time>
      </trkpt>
      <trkpt lat="48.7291530" lon="13.5516280">
        <ele>469.0</ele>
        <time>2019-08-15T09:29:52Z</time>
      </trkpt>
      <trkpt lat="48.7291560" lon="13.5517650">
        <ele>468.0</ele>
        <time>2019-08-15T09:29:53Z</time>
      </trkpt>
      <trkpt lat="48.7291580" lon="13.5518970">
        <ele>466.8</ele>
        <time>2019-08-15T09:29:54Z</time>
      </trkpt>
      <trkpt lat="48.7291570" lon="13.5520260">
        <ele>465.8</ele>
        <time>2019-08-15T09:29:55Z</time>
      </trkpt>
      <trkpt lat="48.7291500" lon="13.5521500">
        <ele>464.8</ele>
        <time>2019-08-15T09:29:56Z</time>
      </trkpt>
      <trkpt lat="48.7291320" lon="13.5522690">
        <ele>464.0</ele>
        <time>2019-08-15T09:29:57Z</time>
      </trkpt>
      <trkpt lat="48.7291020" lon="13.5523800">
        <ele>463.0</ele>
        <time>2019-08-15T09:29:58Z</time>
      </trkpt>
      <trkpt lat="48.7290640" lon="13.5524880">
        <ele>462.2</ele>
        <time>2019-08-15T09:29:59Z</time>
      </trkpt>
      <trkpt lat="48.7290160" lon="13.5525870">
        <ele>461.4</ele>
        <time>2019-08-15T09:30:00Z</time>
      </trkpt>
      <trkpt lat="48.7289630" lon="13.5526820">
        <ele>460.8</ele>
        <time>2019-08-15T09:30:01Z</time>
      </trkpt>
      <trkpt lat="48.7288990" lon="13.5527800">
        <ele>460.4</ele>
        <time>2019-08-15T09:30:02Z</time>
      </trkpt>
      <trkpt lat="48.7288380" lon="13.5528830">
        <ele>460.0</ele>
        <time>2019-08-15T09:30:03Z</time>
      </trkpt>
      <trkpt lat="48.7287890" lon="13.5529880">
        <ele>459.4</ele>
        <time>2019-08-15T09:30:04Z</time>
      </trkpt>
      <trkpt lat="48.7287580" lon="13.5530960">
        <ele>458.6</ele>
        <time>2019-08-15T09:30:05Z</time>
      </trkpt>
      <trkpt lat="48.7287490" lon="13.5532120">
        <ele>458.0</ele>
        <time>2019-08-15T09:30:06Z</time>
      </trkpt>
      <trkpt lat="48.7287640" lon="13.5533250">
        <ele>457.4</ele>
        <time>2019-08-15T09:30:07Z</time>
      </trkpt>
      <trkpt lat="48.7287960" lon="13.5534280">
        <ele>457.0</ele>
        <time>2019-08-15T09:30:08Z</time>
      </trkpt>
      <trkpt lat="48.7288420" lon="13.5535240">
        <ele>456.8</ele>
        <time>2019-08-15T09:30:09Z</time>
      </trkpt>
      <trkpt lat="48.7288900" lon="13.5536050">
        <ele>456.4</ele>
        <time>2019-08-15T09:30:10Z</time>
      </trkpt>
      <trkpt lat="48.7289360" lon="13.5536790">
        <ele>456.2</ele>
        <time>2019-08-15T09:30:11Z</time>
      </trkpt>
      <trkpt lat="48.7289830" lon="13.5537660">
        <ele>456.0</ele>
        <time>2019-08-15T09:30:12Z</time>
      </trkpt>
      <trkpt lat="48.7290240" lon="13.5538480">
        <ele>456.0</ele>
        <time>2019-08-15T09:30:13Z</time>
      </trkpt>
      <trkpt lat="48.7290570" lon="13.5539390">
        <ele>455.8</ele>
        <time>2019-08-15T09:30:14Z</time>
      </trkpt>
      <trkpt lat="48.7290810" lon="13.5540410">
        <ele>455.8</ele>
        <time>2019-08-15T09:30:15Z</time>
      </trkpt>
      <trkpt lat="48.7291000" lon="13.5541410">
        <ele>455.8</ele>
        <time>2019-08-15T09:30:16Z</time>
      </trkpt>
      <trkpt lat="48.7291130" lon="13.5542420">
        <ele>455.8</ele>
        <time>2019-08-15T09:30:17Z</time>
      </trkpt>
      <trkpt lat="48.7291240" lon="13.5543430">
        <ele>455.8</ele>
        <time>2019-08-15T09:30:18Z</time>
      </trkpt>
      <trkpt lat="48.7291350" lon="13.5544460">
        <ele>455.8</ele>
        <time>2019-08-15T09:30:19Z</time>
      </trkpt>
      <trkpt lat="48.7291460" lon="13.5545460">
        <ele>456.0</ele>
        <time>2019-08-15T09:30:20Z</time>
      </trkpt>
      <trkpt lat="48.7291540" lon="13.5546440">
        <ele>456.0</ele>
        <time>2019-08-15T09:30:21Z</time>
      </trkpt>
      <trkpt lat="48.7291610" lon="13.5547430">
        <ele>456.0</ele>
        <time>2019-08-15T09:30:22Z</time>
      </trkpt>
      <trkpt lat="48.7291660" lon="13.5548390">
        <ele>456.2</ele>
        <time>2019-08-15T09:30:23Z</time>
      </trkpt>
      <trkpt lat="48.7291700" lon="13.5549330">
        <ele>456.2</ele>
        <time>2019-08-15T09:30:24Z</time>
      </trkpt>
      <trkpt lat="48.7291730" lon="13.5550250">
        <ele>456.4</ele>
        <time>2019-08-15T09:30:25Z</time>
      </trkpt>
      <trkpt lat="48.7291760" lon="13.5551140">
        <ele>456.4</ele>
        <time>2019-08-15T09:30:26Z</time>
      </trkpt>
      <trkpt lat="48.7291770" lon="13.5551940">
        <ele>456.6</ele>
        <time>2019-08-15T09:30:27Z</time>
      </trkpt>
      <trkpt lat="48.7291750" lon="13.5552760">
        <ele>456.6</ele>
        <time>2019-08-15T09:30:28Z</time>
      </trkpt>
      <trkpt lat="48.7291700" lon="13.5553540">
        <ele>456.6</ele>
        <time>2019-08-15T09:30:29Z</time>
      </trkpt>
      <trkpt lat="48.7291640" lon="13.5554270">
        <ele>456.8</ele>
        <time>2019-08-15T09:30:30Z</time>
      </trkpt>
      <trkpt lat="48.7291540" lon="13.5554990">
        <ele>456.8</ele>
        <time>2019-08-15T09:30:31Z</time>
      </trkpt>
      <trkpt lat="48.7291380" lon="13.5555690">
        <ele>457.0</ele>
        <time>2019-08-15T09:30:32Z</time>
      </trkpt>
      <trkpt lat="48.7291210" lon="13.5556370">
        <ele>457.0</ele>
        <time>2019-08-15T09:30:33Z</time>
      </trkpt>
      <trkpt lat="48.7291010" lon="13.5557070">
        <ele>457.0</ele>
        <time>2019-08-15T09:30:34Z</time>
      </trkpt>
      <trkpt lat="48.7290790" lon="13.5557750">
        <ele>457.0</ele>
        <time>2019-08-15T09:30:35Z</time>
      </trkpt>
      <trkpt lat="48.7290570" lon="13.5558430">
        <ele>457.0</ele>
        <time>2019-08-15T09:30:36Z</time>
      </trkpt>
      <trkpt lat="48.7290310" lon="13.5559140">
        <ele>457.0</ele>
        <time>2019-08-15T09:30:37Z</time>
      </trkpt>
      <trkpt lat="48.7290060" lon="13.5559860">
        <ele>456.8</ele>
        <time>2019-08-15T09:30:38Z</time>
      </trkpt>
      <trkpt lat="48.7289780" lon="13.5560610">
        <ele>456.8</ele>
        <time>2019-08-15T09:30:39Z</time>
      </trkpt>
      <trkpt lat="48.7289540" lon="13.5561340">
        <ele>456.6</ele>
        <time>2019-08-15T09:30:40Z</time>
      </trkpt>
      <trkpt lat="48.7289300" lon="13.5562170">
        <ele>456.6</ele>
        <time>2019-08-15T09:30:41Z</time>
      </trkpt>
      <trkpt lat="48.7289120" lon="13.5562980">
        <ele>456.6</ele>
        <time>2019-08-15T09:30:42Z</time>
      </trkpt>
      <trkpt lat="48.7289090" lon="13.5563800">
        <ele>456.6</ele>
        <time>2019-08-15T09:30:43Z</time>
      </trkpt>
      <trkpt lat="48.7289220" lon="13.5564560">
        <ele>456.6</ele>
        <time>2019-08-15T09:30:44Z</time>
      </trkpt>
      <trkpt lat="48.7289470" lon="13.5565140">
        <ele>456.8</ele>
        <time>2019-08-15T09:30:45Z</time>
      </trkpt>
      <trkpt lat="48.7289750" lon="13.5565660">
        <ele>456.8</ele>
        <time>2019-08-15T09:30:46Z</time>
      </trkpt>
      <trkpt lat="48.7289990" lon="13.5566210">
        <ele>456.8</ele>
        <time>2019-08-15T09:30:47Z</time>
      </trkpt>
      <trkpt lat="48.7290120" lon="13.5566800">
        <ele>457.0</ele>
        <time>2019-08-15T09:30:48Z</time>
      </trkpt>
      <trkpt lat="48.7290190" lon="13.5567430">
        <ele>457.0</ele>
        <time>2019-08-15T09:30:49Z</time>
      </trkpt>
      <trkpt lat="48.7290190" lon="13.5568110">
        <ele>456.8</ele>
        <time>2019-08-15T09:30:50Z</time>
      </trkpt>
      <trkpt lat="48.7290090" lon="13.5568780">
        <ele>457.0</ele>
        <time>2019-08-15T09:30:51Z</time>
      </trkpt>
      <trkpt lat="48.7289960" lon="13.5569430">
        <ele>457.0</ele>
        <time>2019-08-15T09:30:52Z</time>
      </trkpt>
      <trkpt lat="48.7289820" lon="13.5570050">
        <ele>457.0</ele>
        <time>2019-08-15T09:30:53Z</time>
      </trkpt>
      <trkpt lat="48.7289640" lon="13.5570710">
        <ele>457.0</ele>
        <time>2019-08-15T09:30:54Z</time>
      </trkpt>
      <trkpt lat="48.7289470" lon="13.5571360">
        <ele>457.0</ele>
        <time>2019-08-15T09:30:55Z</time>
      </trkpt>
      <trkpt lat="48.7289270" lon="13.5572010">
        <ele>457.0</ele>
        <time>2019-08-15T09:30:56Z</time>
      </trkpt>
      <trkpt lat="48.7289040" lon="13.5572600">
        <ele>457.0</ele>
        <time>2019-08-15T09:30:57Z</time>
      </trkpt>
      <trkpt lat="48.7288720" lon="13.5573160">
        <ele>457.0</ele>
        <time>2019-08-15T09:30:58Z</time>
      </trkpt>
      <trkpt lat="48.7288390" lon="13.5573660">
        <ele>457.2</ele>
        <time>2019-08-15T09:30:59Z</time>
      </trkpt>
      <trkpt lat="48.7288090" lon="13.5574100">
        <ele>457.2</ele>
        <time>2019-08-15T09:31:00Z</time>
      </trkpt>
      <trkpt lat="48.7287710" lon="13.5574580">
        <ele>457.2</ele>
        <time>2019-08-15T09:31:01Z</time>
      </trkpt>
      <trkpt lat="48.7287370" lon="13.5575040">
        <ele>457.4</ele>
        <time>2019-08-15T09:31:02Z</time>
      </trkpt>
      <trkpt lat="48.7287080" lon="13.5575500">
        <ele>457.4</ele>
        <time>2019-08-15T09:31:03Z</time>
      </trkpt>
      <trkpt lat="48.7286840" lon="13.5575940">
        <ele>457.4</ele>
        <time>2019-08-15T09:31:04Z</time>
      </trkpt>
      <trkpt lat="48.7286600" lon="13.5576440">
        <ele>457.6</ele>
        <time>2019-08-15T09:31:05Z</time>
      </trkpt>
      <trkpt lat="48.7286390" lon="13.5576930">
        <ele>457.6</ele>
        <time>2019-08-15T09:31:06Z</time>
      </trkpt>
      <trkpt lat="48.7286220" lon="13.5577430">
        <ele>457.8</ele>
        <time>2019-08-15T09:31:07Z</time>
      </trkpt>
      <trkpt lat="48.7286080" lon="13.5577900">
        <ele>457.8</ele>
        <time>2019-08-15T09:31:08Z</time>
      </trkpt>
      <trkpt lat="48.7285990" lon="13.5578470">
        <ele>458.0</ele>
        <time>2019-08-15T09:31:09Z</time>
      </trkpt>
      <trkpt lat="48.7285890" lon="13.5579050">
        <ele>458.0</ele>
        <time>2019-08-15T09:31:10Z</time>
      </trkpt>
      <trkpt lat="48.7285750" lon="13.5579600">
        <ele>458.0</ele>
        <time>2019-08-15T09:31:11Z</time>
      </trkpt>
      <trkpt lat="48.7285580" lon="13.5580200">
        <ele>458.0</ele>
        <time>2019-08-15T09:31:12Z</time>
      </trkpt>
      <trkpt lat="48.7285390" lon="13.5580830">
        <ele>458.2</ele>
        <time>2019-08-15T09:31:13Z</time>
      </trkpt>
      <trkpt lat="48.7285200" lon="13.5581490">
        <ele>458.2</ele>
        <time>2019-08-15T09:31:14Z</time>
      </trkpt>
      <trkpt lat="48.7285050" lon="13.5582180">
        <ele>458.2</ele>
        <time>2019-08-15T09:31:15Z</time>
      </trkpt>
      <trkpt lat="48.7284900" lon="13.5582860">
        <ele>458.2</ele>
        <time>2019-08-15T09:31:16Z</time>
      </trkpt>
      <trkpt lat="48.7284760" lon="13.5583570">
        <ele>458.2</ele>
        <time>2019-08-15T09:31:17Z</time>
      </trkpt>
      <trkpt lat="48.7284620" lon="13.5584300">
        <ele>458.4</ele>
        <time>2019-08-15T09:31:18Z</time>
      </trkpt>
      <trkpt lat="48.7284470" lon="13.5585020">
        <ele>458.4</ele>
        <time>2019-08-15T09:31:19Z</time>
      </trkpt>
      <trkpt lat="48.7284330" lon="13.5585730">
        <ele>458.4</ele>
        <time>2019-08-15T09:31:20Z</time>
      </trkpt>
      <trkpt lat="48.7284210" lon="13.5586410">
        <ele>458.4</ele>
        <time>2019-08-15T09:31:21Z</time>
      </trkpt>
      <trkpt lat="48.7284100" lon="13.5587110">
        <ele>458.4</ele>
        <time>2019-08-15T09:31:22Z</time>
      </trkpt>
      <trkpt lat="48.7283950" lon="13.5587750">
        <ele>458.6</ele>
        <time>2019-08-15T09:31:23Z</time>
      </trkpt>
      <trkpt lat="48.7283780" lon="13.5588400">
        <ele>458.6</ele>
        <time>2019-08-15T09:31:24Z</time>
      </trkpt>
      <trkpt lat="48.7283630" lon="13.5589060">
        <ele>458.6</ele>
        <time>2019-08-15T09:31:25Z</time>
      </trkpt>
      <trkpt lat="48.7283500" lon="13.5589670">
        <ele>458.6</ele>
        <time>2019-08-15T09:31:26Z</time>
      </trkpt>
      <trkpt lat="48.7283350" lon="13.5590330">
        <ele>458.6</ele>
        <time>2019-08-15T09:31:27Z</time>
      </trkpt>
      <trkpt lat="48.7283190" lon="13.5590960">
        <ele>458.6</ele>
        <time>2019-08-15T09:31:28Z</time>
      </trkpt>
      <trkpt lat="48.7282970" lon="13.5591610">
        <ele>458.6</ele>
        <time>2019-08-15T09:31:29Z</time>
      </trkpt>
      <trkpt lat="48.7282760" lon="13.5592270">
        <ele>458.4</ele>
        <time>2019-08-15T09:31:30Z</time>
      </trkpt>
      <trkpt lat="48.7282510" lon="13.5592950">
        <ele>458.2</ele>
        <time>2019-08-15T09:31:31Z</time>
      </trkpt>
      <trkpt lat="48.7282260" lon="13.5593710">
        <ele>458.0</ele>
        <time>2019-08-15T09:31:32Z</time>
      </trkpt>
      <trkpt lat="48.7282010" lon="13.5594560">
        <ele>457.8</ele>
        <time>2019-08-15T09:31:33Z</time>
      </trkpt>
      <trkpt lat="48.7281810" lon="13.5595420">
        <ele>457.4</ele>
        <time>2019-08-15T09:31:34Z</time>
      </trkpt>
      <trkpt lat="48.7281600" lon="13.5596290">
        <ele>457.2</ele>
        <time>2019-08-15T09:31:35Z</time>
      </trkpt>
      <trkpt lat="48.7281400" lon="13.5597110">
        <ele>457.2</ele>
        <time>2019-08-15T09:31:36Z</time>
      </trkpt>
      <trkpt lat="48.7281220" lon="13.5597910">
        <ele>457.0</ele>
        <time>2019-08-15T09:31:37Z</time>
      </trkpt>
      <trkpt lat="48.7281050" lon="13.5598700">
        <ele>457.0</ele>
        <time>2019-08-15T09:31:38Z</time>
      </trkpt>
      <trkpt lat="48.7280930" lon="13.5599480">
        <ele>456.8</ele>
        <time>2019-08-15T09:31:39Z</time>
      </trkpt>
      <trkpt lat="48.7280810" lon="13.5600220">
        <ele>456.8</ele>
        <time>2019-08-15T09:31:40Z</time>
      </trkpt>
      <trkpt lat="48.7280700" lon="13.5600910">
        <ele>457.0</ele>
        <time>2019-08-15T09:31:41Z</time>
      </trkpt>
      <trkpt lat="48.7280580" lon="13.5601550">
        <ele>457.0</ele>
        <time>2019-08-15T09:31:42Z</time>
      </trkpt>
      <trkpt lat="48.7280440" lon="13.5602140">
        <ele>457.2</ele>
        <time>2019-08-15T09:31:43Z</time>
      </trkpt>
      <trkpt lat="48.7280300" lon="13.5602730">
        <ele>457.4</ele>
        <time>2019-08-15T09:31:44Z</time>
      </trkpt>
      <trkpt lat="48.7280180" lon="13.5603250">
        <ele>457.6</ele>
        <time>2019-08-15T09:31:45Z</time>
      </trkpt>
      <trkpt lat="48.7280090" lon="13.5603720">
        <ele>457.8</ele>
        <time>2019-08-15T09:31:46Z</time>
      </trkpt>
      <trkpt lat="48.7280040" lon="13.5604130">
        <ele>458.0</ele>
        <time>2019-08-15T09:31:47Z</time>
      </trkpt>
      <trkpt lat="48.7279970" lon="13.5604510">
        <ele>458.2</ele>
        <time>2019-08-15T09:31:48Z</time>
      </trkpt>
      <trkpt lat="48.7279910" lon="13.5604830">
        <ele>458.4</ele>
        <time>2019-08-15T09:31:49Z</time>
      </trkpt>
      <trkpt lat="48.7279810" lon="13.5605160">
        <ele>458.6</ele>
        <time>2019-08-15T09:31:50Z</time>
      </trkpt>
      <trkpt lat="48.7279700" lon="13.5605510">
        <ele>458.6</ele>
        <time>2019-08-15T09:31:51Z</time>
      </trkpt>
      <trkpt lat="48.7279580" lon="13.5605910">
        <ele>458.6</ele>
        <time>2019-08-15T09:31:52Z</time>
      </trkpt>
      <trkpt lat="48.7279460" lon="13.5606380">
        <ele>458.6</ele>
        <time>2019-08-15T09:31:53Z</time>
      </trkpt>
      <trkpt lat="48.7279330" lon="13.5606950">
        <ele>458.6</ele>
        <time>2019-08-15T09:31:54Z</time>
      </trkpt>
      <trkpt lat="48.7279200" lon="13.5607570">
        <ele>458.4</ele>
        <time>2019-08-15T09:31:55Z</time>
      </trkpt>
      <trkpt lat="48.7279030" lon="13.5608210">
        <ele>458.4</ele>
        <time>2019-08-15T09:31:56Z</time>
      </trkpt>
      <trkpt lat="48.7278850" lon="13.5608910">
        <ele>458.2</ele>
        <time>2019-08-15T09:31:57Z</time>
      </trkpt>
      <trkpt lat="48.7278670" lon="13.5609610">
        <ele>458.0</ele>
        <time>2019-08-15T09:31:58Z</time>
      </trkpt>
      <trkpt lat="48.7278510" lon="13.5610270">
        <ele>458.0</ele>
        <time>2019-08-15T09:31:59Z</time>
      </trkpt>
      <trkpt lat="48.7278350" lon="13.5610960">
        <ele>457.8</ele>
        <time>2019-08-15T09:32:00Z</time>
      </trkpt>
      <trkpt lat="48.7278220" lon="13.5611690">
        <ele>457.6</ele>
        <time>2019-08-15T09:32:01Z</time>
      </trkpt>
      <trkpt lat="48.7278080" lon="13.5612360">
        <ele>457.6</ele>
        <time>2019-08-15T09:32:02Z</time>
      </trkpt>
      <trkpt lat="48.7277960" lon="13.5613030">
        <ele>457.4</ele>
        <time>2019-08-15T09:32:03Z</time>
      </trkpt>
      <trkpt lat="48.7277860" lon="13.5613680">
        <ele>457.4</ele>
        <time>2019-08-15T09:32:04Z</time>
      </trkpt>
      <trkpt lat="48.7277780" lon="13.5614330">
        <ele>457.4</ele>
        <time>2019-08-15T09:32:05Z</time>
      </trkpt>
      <trkpt lat="48.7277680" lon="13.5614980">
        <ele>457.4</ele>
        <time>2019-08-15T09:32:06Z</time>
      </trkpt>
      <trkpt lat="48.7277590" lon="13.5615620">
        <ele>457.4</ele>
        <time>2019-08-15T09:32:07Z</time>
      </trkpt>
      <trkpt lat="48.7277500" lon="13.5616250">
        <ele>457.4</ele>
        <time>2019-08-15T09:32:08Z</time>
      </trkpt>
      <trkpt lat="48.7277410" lon="13.5616870">
        <ele>457.4</ele>
        <time>2019-08-15T09:32:09Z</time>
      </trkpt>
      <trkpt lat="48.7277310" lon="13.5617450">
        <ele>457.4</ele>
        <time>2019-08-15T09:32:10Z</time>
      </trkpt>
      <trkpt lat="48.7277230" lon="13.5617990">
        <ele>457.6</ele>
        <time>2019-08-15T09:32:11Z</time>
      </trkpt>
      <trkpt lat="48.7277140" lon="13.5618500">
        <ele>457.6</ele>
        <time>2019-08-15T09:32:12Z</time>
      </trkpt>
      <trkpt lat="48.7277070" lon="13.5618930">
        <ele>457.8</ele>
        <time>2019-08-15T09:32:13Z</time>
      </trkpt>
      <trkpt lat="48.7277010" lon="13.5619360">
        <ele>458.0</ele>
        <time>2019-08-15T09:32:14Z</time>
      </trkpt>
      <trkpt lat="48.7276960" lon="13.5619770">
        <ele>458.2</ele>
        <time>2019-08-15T09:32:15Z</time>
      </trkpt>
      <trkpt lat="48.7276910" lon="13.5620190">
        <ele>458.4</ele>
        <time>2019-08-15T09:32:16Z</time>
      </trkpt>
      <trkpt lat="48.7276860" lon="13.5620560">
        <ele>458.8</ele>
        <time>2019-08-15T09:32:17Z</time>
      </trkpt>
      <trkpt lat="48.7276820" lon="13.5620900">
        <ele>459.0</ele>
        <time>2019-08-15T09:32:18Z</time>
      </trkpt>
      <trkpt lat="48.7276770" lon="13.5621210">
        <ele>459.2</ele>
        <time>2019-08-15T09:32:19Z</time>
      </trkpt>
      <trkpt lat="48.7276740" lon="13.5621560">
        <ele>459.4</ele>
        <time>2019-08-15T09:32:20Z</time>
      </trkpt>
      <trkpt lat="48.7276700" lon="13.5621880">
        <ele>459.6</ele>
        <time>2019-08-15T09:32:21Z</time>
      </trkpt>
      <trkpt lat="48.7276660" lon="13.5622200">
        <ele>460.0</ele>
        <time>2019-08-15T09:32:22Z</time>
      </trkpt>
      <trkpt lat="48.7276620" lon="13.5622520">
        <ele>460.2</ele>
        <time>2019-08-15T09:32:23Z</time>
      </trkpt>
      <trkpt lat="48.7276570" lon="13.5622790">
        <ele>460.4</ele>
        <time>2019-08-15T09:32:24Z</time>
      </trkpt>
      <trkpt lat="48.7276540" lon="13.5623090">
        <ele>460.8</ele>
        <time>2019-08-15T09:32:25Z</time>
      </trkpt>
      <trkpt lat="48.7276490" lon="13.5623340">
        <ele>461.0</ele>
        <time>2019-08-15T09:32:26Z</time>
      </trkpt>
      <trkpt lat="48.7276450" lon="13.5623600">
        <ele>461.2</ele>
        <time>2019-08-15T09:32:27Z</time>
      </trkpt>
      <trkpt lat="48.7276410" lon="13.5623880">
        <ele>461.4</ele>
        <time>2019-08-15T09:32:28Z</time>
      </trkpt>
      <trkpt lat="48.7276390" lon="13.5624180">
        <ele>461.8</ele>
        <time>2019-08-15T09:32:29Z</time>
      </trkpt>
      <trkpt lat="48.7276350" lon="13.5624470">
        <ele>462.0</ele>
        <time>2019-08-15T09:32:30Z</time>
      </trkpt>
      <trkpt lat="48.7276320" lon="13.5624770">
        <ele>462.2</ele>
        <time>2019-08-15T09:32:31Z</time>
      </trkpt>
      <trkpt lat="48.7276290" lon="13.5625070">
        <ele>462.4</ele>
        <time>2019-08-15T09:32:32Z</time>
      </trkpt>
      <trkpt lat="48.7276250" lon="13.5625370">
        <ele>462.6</ele>
        <time>2019-08-15T09:32:33Z</time>
      </trkpt>
      <trkpt lat="48.7276220" lon="13.5625650">
        <ele>462.8</ele>
        <time>2019-08-15T09:32:34Z</time>
      </trkpt>
      <trkpt lat="48.7276190" lon="13.5625950">
        <ele>463.0</ele>
        <time>2019-08-15T09:32:35Z</time>
      </trkpt>
      <trkpt lat="48.7276140" lon="13.5626250">
        <ele>463.2</ele>
        <time>2019-08-15T09:32:36Z</time>
      </trkpt>
      <trkpt lat="48.7276120" lon="13.5626560">
        <ele>463.4</ele>
        <time>2019-08-15T09:32:37Z</time>
      </trkpt>
      <trkpt lat="48.7276060" lon="13.5626830">
        <ele>463.6</ele>
        <time>2019-08-15T09:32:38Z</time>
      </trkpt>
      <trkpt lat="48.7275990" lon="13.5627120">
        <ele>463.8</ele>
        <time>2019-08-15T09:32:39Z</time>
      </trkpt>
      <trkpt lat="48.7275940" lon="13.5627400">
        <ele>464.0</ele>
        <time>2019-08-15T09:32:40Z</time>
      </trkpt>
      <trkpt lat="48.7275890" lon="13.5627700">
        <ele>464.0</ele>
        <time>2019-08-15T09:32:41Z</time>
      </trkpt>
      <trkpt lat="48.7275820" lon="13.5627990">
        <ele>464.2</ele>
        <time>2019-08-15T09:32:42Z</time>
      </trkpt>
      <trkpt lat="48.7275770" lon="13.5628280">
        <ele>464.4</ele>
        <time>2019-08-15T09:32:43Z</time>
      </trkpt>
      <trkpt lat="48.7275740" lon="13.5628580">
        <ele>464.6</ele>
        <time>2019-08-15T09:32:44Z</time>
      </trkpt>
      <trkpt lat="48.7275690" lon="13.5628870">
        <ele>464.8</ele>
        <time>2019-08-15T09:32:45Z</time>
      </trkpt>
      <trkpt lat="48.7275630" lon="13.5629150">
        <ele>465.0</ele>
        <time>2019-08-15T09:32:46Z</time>
      </trkpt>
      <trkpt lat="48.7275560" lon="13.5629450">
        <ele>465.0</ele>
        <time>2019-08-15T09:32:47Z</time>
      </trkpt>
      <trkpt lat="48.7275510" lon="13.5629740">
        <ele>465.2</ele>
        <time>2019-08-15T09:32:48Z</time>
      </trkpt>
      <trkpt lat="48.7275460" lon="13.5630050">
        <ele>465.4</ele>
        <time>2019-08-15T09:32:49Z</time>
      </trkpt>
      <trkpt lat="48.7275420" lon="13.5630350">
        <ele>465.4</ele>
        <time>2019-08-15T09:32:50Z</time>
      </trkpt>
      <trkpt lat="48.7275370" lon="13.5630620">
        <ele>465.6</ele>
        <time>2019-08-15T09:32:51Z</time>
      </trkpt>
      <trkpt lat="48.7275310" lon="13.5630860">
        <ele>465.8</ele>
        <time>2019-08-15T09:32:52Z</time>
      </trkpt>
      <trkpt lat="48.7275270" lon="13.5631150">
        <ele>465.8</ele>
        <time>2019-08-15T09:32:53Z</time>
      </trkpt>
      <trkpt lat="48.7275220" lon="13.5631460">
        <ele>466.0</ele>
        <time>2019-08-15T09:32:54Z</time>
      </trkpt>
      <trkpt lat="48.7275190" lon="13.5631780">
        <ele>466.0</ele>
        <time>2019-08-15T09:32:55Z</time>
      </trkpt>
      <trkpt lat="48.7275150" lon="13.5632130">
        <ele>466.2</ele>
        <time>2019-08-15T09:32:56Z</time>
      </trkpt>
      <trkpt lat="48.7275090" lon="13.5632470">
        <ele>466.4</ele>
        <time>2019-08-15T09:32:57Z</time>
      </trkpt>
      <trkpt lat="48.7275020" lon="13.5632790">
        <ele>466.4</ele>
        <time>2019-08-15T09:32:58Z</time>
      </trkpt>
      <trkpt lat="48.7274970" lon="13.5633160">
        <ele>466.6</ele>
        <time>2019-08-15T09:32:59Z</time>
      </trkpt>
      <trkpt lat="48.7274940" lon="13.5633480">
        <ele>466.6</ele>
        <time>2019-08-15T09:33:00Z</time>
      </trkpt>
      <trkpt lat="48.7274890" lon="13.5633890">
        <ele>466.6</ele>
        <time>2019-08-15T09:33:01Z</time>
      </trkpt>
      <trkpt lat="48.7274810" lon="13.5634260">
        <ele>466.8</ele>
        <time>2019-08-15T09:33:02Z</time>
      </trkpt>
      <trkpt lat="48.7274730" lon="13.5634620">
        <ele>466.8</ele>
        <time>2019-08-15T09:33:03Z</time>
      </trkpt>
      <trkpt lat="48.7274630" lon="13.5634990">
        <ele>466.8</ele>
        <time>2019-08-15T09:33:04Z</time>
      </trkpt>
      <trkpt lat="48.7274530" lon="13.5635370">
        <ele>466.8</ele>
        <time>2019-08-15T09:33:05Z</time>
      </trkpt>
      <trkpt lat="48.7274430" lon="13.5635760">
        <ele>467.0</ele>
        <time>2019-08-15T09:33:06Z</time>
      </trkpt>
      <trkpt lat="48.7274300" lon="13.5636110">
        <ele>467.0</ele>
        <time>2019-08-15T09:33:07Z</time>
      </trkpt>
      <trkpt lat="48.7274180" lon="13.5636460">
        <ele>467.0</ele>
        <time>2019-08-15T09:33:08Z</time>
      </trkpt>
      <trkpt lat="48.7274050" lon="13.5636770">
        <ele>467.0</ele>
        <time>2019-08-15T09:33:09Z</time>
      </trkpt>
      <trkpt lat="48.7273900" lon="13.5637080">
        <ele>467.2</ele>
        <time>2019-08-15T09:33:10Z</time>
      </trkpt>
      <trkpt lat="48.7273750" lon="13.5637380">
        <ele>467.2</ele>
        <time>2019-08-15T09:33:11Z</time>
      </trkpt>
      <trkpt lat="48.7273570" lon="13.5637670">
        <ele>467.2</ele>
        <time>2019-08-15T09:33:12Z</time>
      </trkpt>
      <trkpt lat="48.7273370" lon="13.5637950">
        <ele>467.4</ele>
        <time>2019-08-15T09:33:13Z</time>
      </trkpt>
      <trkpt lat="48.7273170" lon="13.5638220">
        <ele>467.4</ele>
        <time>2019-08-15T09:33:14Z</time>
      </trkpt>
      <trkpt lat="48.7272950" lon="13.5638510">
        <ele>467.6</ele>
        <time>2019-08-15T09:33:15Z</time>
      </trkpt>
      <trkpt lat="48.7272750" lon="13.5638790">
        <ele>467.8</ele>
        <time>2019-08-15T09:33:16Z</time>
      </trkpt>
      <trkpt lat="48.7272530" lon="13.5639040">
        <ele>467.8</ele>
        <time>2019-08-15T09:33:17Z</time>
      </trkpt>
      <trkpt lat="48.7272260" lon="13.5639220">
        <ele>468.0</ele>
        <time>2019-08-15T09:33:18Z</time>
      </trkpt>
      <trkpt lat="48.7272000" lon="13.5639380">
        <ele>468.2</ele>
        <time>2019-08-15T09:33:19Z</time>
      </trkpt>
      <trkpt lat="48.7271670" lon="13.5639500">
        <ele>468.2</ele>
        <time>2019-08-15T09:33:20Z</time>
      </trkpt>
      <trkpt lat="48.7271360" lon="13.5639620">
        <ele>468.2</ele>
        <time>2019-08-15T09:33:21Z</time>
      </trkpt>
      <trkpt lat="48.7271050" lon="13.5639750">
        <ele>468.4</ele>
        <time>2019-08-15T09:33:22Z</time>
      </trkpt>
      <trkpt lat="48.7270760" lon="13.5639900">
        <ele>468.4</ele>
        <time>2019-08-15T09:33:23Z</time>
      </trkpt>
      <trkpt lat="48.7270470" lon="13.5640080">
        <ele>468.6</ele>
        <time>2019-08-15T09:33:24Z</time>
      </trkpt>
      <trkpt lat="48.7270180" lon="13.5640230">
        <ele>468.6</ele>
        <time>2019-08-15T09:33:25Z</time>
      </trkpt>
      <trkpt lat="48.7269910" lon="13.5640410">
        <ele>468.8</ele>
        <time>2019-08-15T09:33:26Z</time>
      </trkpt>
      <trkpt lat="48.7269630" lon="13.5640610">
        <ele>468.8</ele>
        <time>2019-08-15T09:33:27Z</time>
      </trkpt>
      <trkpt lat="48.7269350" lon="13.5640810">
        <ele>469.0</ele>
        <time>2019-08-15T09:33:28Z</time>
      </trkpt>
      <trkpt lat="48.7269060" lon="13.5641030">
        <ele>469.0</ele>
        <time>2019-08-15T09:33:29Z</time>
      </trkpt>
      <trkpt lat="48.7268780" lon="13.5641260">
        <ele>469.2</ele>
        <time>2019-08-15T09:33:30Z</time>
      </trkpt>
      <trkpt lat="48.7268510" lon="13.5641500">
        <ele>469.2</ele>
        <time>2019-08-15T09:33:31Z</time>
      </trkpt>
      <trkpt lat="48.7268250" lon="13.5641750">
        <ele>469.4</ele>
        <time>2019-08-15T09:33:32Z</time>
      </trkpt>
      <trkpt lat="48.7267970" lon="13.5641990">
        <ele>469.6</ele>
        <time>2019-08-15T09:33:33Z</time>
      </trkpt>
      <trkpt lat="48.7267700" lon="13.5642220">
        <ele>469.6</ele>
        <time>2019-08-15T09:33:34Z</time>
      </trkpt>
      <trkpt lat="48.7267430" lon="13.5642470">
        <ele>469.8</ele>
        <time>2019-08-15T09:33:35Z</time>
      </trkpt>
      <trkpt lat="48.7267150" lon="13.5642710">
        <ele>470.0</ele>
        <time>2019-08-15T09:33:36Z</time>
      </trkpt>
      <trkpt lat="48.7266860" lon="13.5642960">
        <ele>470.2</ele>
        <time>2019-08-15T09:33:37Z</time>
      </trkpt>
      <trkpt lat="48.7266590" lon="13.5643190">
        <ele>470.4</ele>
        <time>2019-08-15T09:33:38Z</time>
      </trkpt>
      <trkpt lat="48.7266310" lon="13.5643430">
        <ele>470.6</ele>
        <time>2019-08-15T09:33:39Z</time>
      </trkpt>
      <trkpt lat="48.7266040" lon="13.5643650">
        <ele>470.6</ele>
        <time>2019-08-15T09:33:40Z</time>
      </trkpt>
      <trkpt lat="48.7265760" lon="13.5643890">
        <ele>470.8</ele>
        <time>2019-08-15T09:33:41Z</time>
      </trkpt>
      <trkpt lat="48.7265480" lon="13.5644100">
        <ele>470.8</ele>
        <time>2019-08-15T09:33:42Z</time>
      </trkpt>
      <trkpt lat="48.7265200" lon="13.5644300">
        <ele>471.0</ele>
        <time>2019-08-15T09:33:43Z</time>
      </trkpt>
      <trkpt lat="48.7264930" lon="13.5644540">
        <ele>471.0</ele>
        <time>2019-08-15T09:33:44Z</time>
      </trkpt>
      <trkpt lat="48.7264650" lon="13.5644800">
        <ele>471.2</ele>
        <time>2019-08-15T09:33:45Z</time>
      </trkpt>
      <trkpt lat="48.7264370" lon="13.5645050">
        <ele>471.2</ele>
        <time>2019-08-15T09:33:46Z</time>
      </trkpt>
      <trkpt lat="48.7264090" lon="13.5645290">
        <ele>471.4</ele>
        <time>2019-08-15T09:33:47Z</time>
      </trkpt>
      <trkpt lat="48.7263780" lon="13.5645540">
        <ele>471.4</ele>
        <time>2019-08-15T09:33:48Z</time>
      </trkpt>
      <trkpt lat="48.7263500" lon="13.5645790">
        <ele>471.6</ele>
        <time>2019-08-15T09:33:49Z</time>
      </trkpt>
      <trkpt lat="48.7263210" lon="13.5646050">
        <ele>471.6</ele>
        <time>2019-08-15T09:33:50Z</time>
      </trkpt>
      <trkpt lat="48.7262910" lon="13.5646340">
        <ele>471.6</ele>
        <time>2019-08-15T09:33:51Z</time>
      </trkpt>
      <trkpt lat="48.7262600" lon="13.5646620">
        <ele>471.8</ele>
        <time>2019-08-15T09:33:52Z</time>
      </trkpt>
      <trkpt lat="48.7262280" lon="13.5646900">
        <ele>471.8</ele>
        <time>2019-08-15T09:33:53Z</time>
      </trkpt>
      <trkpt lat="48.7261970" lon="13.5647220">
        <ele>471.8</ele>
        <time>2019-08-15T09:33:54Z</time>
      </trkpt>
      <trkpt lat="48.7261680" lon="13.5647550">
        <ele>471.8</ele>
        <time>2019-08-15T09:33:55Z</time>
      </trkpt>
      <trkpt lat="48.7261370" lon="13.5647910">
        <ele>472.0</ele>
        <time>2019-08-15T09:33:56Z</time>
      </trkpt>
      <trkpt lat="48.7261070" lon="13.5648250">
        <ele>472.0</ele>
        <time>2019-08-15T09:33:57Z</time>
      </trkpt>
      <trkpt lat="48.7260770" lon="13.5648640">
        <ele>472.0</ele>
        <time>2019-08-15T09:33:58Z</time>
      </trkpt>
      <trkpt lat="48.7260500" lon="13.5649040">
        <ele>472.2</ele>
        <time>2019-08-15T09:33:59Z</time>
      </trkpt>
      <trkpt lat="48.7260250" lon="13.5649460">
        <ele>472.2</ele>
        <time>2019-08-15T09:34:00Z</time>
      </trkpt>
      <trkpt lat="48.7260010" lon="13.5649910">
        <ele>472.2</ele>
        <time>2019-08-15T09:34:01Z</time>
      </trkpt>
      <trkpt lat="48.7259810" lon="13.5650410">
        <ele>472.4</ele>
        <time>2019-08-15T09:34:02Z</time>
      </trkpt>
      <trkpt lat="48.7259620" lon="13.5650910">
        <ele>472.4</ele>
        <time>2019-08-15T09:34:03Z</time>
      </trkpt>
      <trkpt lat="48.7259450" lon="13.5651460">
        <ele>472.4</ele>
        <time>2019-08-15T09:34:04Z</time>
      </trkpt>
      <trkpt lat="48.7259280" lon="13.5652010">
        <ele>472.4</ele>
        <time>2019-08-15T09:34:05Z</time>
      </trkpt>
      <trkpt lat="48.7259120" lon="13.5652570">
        <ele>472.4</ele>
        <time>2019-08-15T09:34:06Z</time>
      </trkpt>
      <trkpt lat="48.7259000" lon="13.5653160">
        <ele>472.6</ele>
        <time>2019-08-15T09:34:07Z</time>
      </trkpt>
      <trkpt lat="48.7258900" lon="13.5653760">
        <ele>472.6</ele>
        <time>2019-08-15T09:34:08Z</time>
      </trkpt>
      <trkpt lat="48.7258810" lon="13.5654400">
        <ele>472.6</ele>
        <time>2019-08-15T09:34:09Z</time>
      </trkpt>
      <trkpt lat="48.7258730" lon="13.5655030">
        <ele>472.6</ele>
        <time>2019-08-15T09:34:10Z</time>
      </trkpt>
      <trkpt lat="48.7258690" lon="13.5655680">
        <ele>472.6</ele>
        <time>2019-08-15T09:34:11Z</time>
      </trkpt>
      <trkpt lat="48.7258650" lon="13.5656350">
        <ele>472.6</ele>
        <time>2019-08-15T09:34:12Z</time>
      </trkpt>
      <trkpt lat="48.7258620" lon="13.5657050">
        <ele>472.6</ele>
        <time>2019-08-15T09:34:13Z</time>
      </trkpt>
      <trkpt lat="48.7258590" lon="13.5657710">
        <ele>472.6</ele>
        <time>2019-08-15T09:34:14Z</time>
      </trkpt>
      <trkpt lat="48.7258550" lon="13.5658450">
        <ele>472.6</ele>
        <time>2019-08-15T09:34:15Z</time>
      </trkpt>
      <trkpt lat="48.7258520" lon="13.5659150">
        <ele>472.6</ele>
        <time>2019-08-15T09:34:16Z</time>
      </trkpt>
      <trkpt lat="48.7258500" lon="13.5659870">
        <ele>472.8</ele>
        <time>2019-08-15T09:34:17Z</time>
      </trkpt>
      <trkpt lat="48.7258500" lon="13.5660600">
        <ele>472.8</ele>
        <time>2019-08-15T09:34:18Z</time>
      </trkpt>
      <trkpt lat="48.7258500" lon="13.5661350">
        <ele>472.6</ele>
        <time>2019-08-15T09:34:19Z</time>
      </trkpt>
      <trkpt lat="48.7258520" lon="13.5662100">
        <ele>472.6</ele>
        <time>2019-08-15T09:34:20Z</time>
      </trkpt>
      <trkpt lat="48.7258550" lon="13.5662870">
        <ele>472.6</ele>
        <time>2019-08-15T09:34:21Z</time>
      </trkpt>
      <trkpt lat="48.7258560" lon="13.5663650">
        <ele>472.6</ele>
        <time>2019-08-15T09:34:22Z</time>
      </trkpt>
      <trkpt lat="48.7258600" lon="13.5664450">
        <ele>472.6</ele>
        <time>2019-08-15T09:34:23Z</time>
      </trkpt>
      <trkpt lat="48.7258630" lon="13.5665260">
        <ele>472.6</ele>
        <time>2019-08-15T09:34:24Z</time>
      </trkpt>
      <trkpt lat="48.7258650" lon="13.5666060">
        <ele>472.6</ele>
        <time>2019-08-15T09:34:25Z</time>
      </trkpt>
      <trkpt lat="48.7258660" lon="13.5666870">
        <ele>472.6</ele>
        <time>2019-08-15T09:34:26Z</time>
      </trkpt>
      <trkpt lat="48.7258680" lon="13.5667670">
        <ele>472.8</ele>
        <time>2019-08-15T09:34:27Z</time>
      </trkpt>
      <trkpt lat="48.7258700" lon="13.5668490">
        <ele>472.8</ele>
        <time>2019-08-15T09:34:28Z</time>
      </trkpt>
      <trkpt lat="48.7258730" lon="13.5669330">
        <ele>472.8</ele>
        <time>2019-08-15T09:34:29Z</time>
      </trkpt>
      <trkpt lat="48.7258780" lon="13.5670180">
        <ele>472.8</ele>
        <time>2019-08-15T09:34:30Z</time>
      </trkpt>
      <trkpt lat="48.7258800" lon="13.5671000">
        <ele>472.8</ele>
        <time>2019-08-15T09:34:31Z</time>
      </trkpt>
      <trkpt lat="48.7258790" lon="13.5671840">
        <ele>472.8</ele>
        <time>2019-08-15T09:34:32Z</time>
      </trkpt>
      <trkpt lat="48.7258750" lon="13.5672640">
        <ele>472.8</ele>
        <time>2019-08-15T09:34:33Z</time>
      </trkpt>
      <trkpt lat="48.7258730" lon="13.5673480">
        <ele>473.0</ele>
        <time>2019-08-15T09:34:34Z</time>
      </trkpt>
      <trkpt lat="48.7258700" lon="13.5674310">
        <ele>473.0</ele>
        <time>2019-08-15T09:34:35Z</time>
      </trkpt>
      <trkpt lat="48.7258670" lon="13.5675140">
        <ele>473.0</ele>
        <time>2019-08-15T09:34:36Z</time>
      </trkpt>
      <trkpt lat="48.7258620" lon="13.5675980">
        <ele>473.2</ele>
        <time>2019-08-15T09:34:37Z</time>
      </trkpt>
      <trkpt lat="48.7258600" lon="13.5676810">
        <ele>473.2</ele>
        <time>2019-08-15T09:34:38Z</time>
      </trkpt>
      <trkpt lat="48.7258590" lon="13.5677660">
        <ele>473.2</ele>
        <time>2019-08-15T09:34:39Z</time>
      </trkpt>
      <trkpt lat="48.7258570" lon="13.5678510">
        <ele>473.2</ele>
        <time>2019-08-15T09:34:40Z</time>
      </trkpt>
      <trkpt lat="48.7258540" lon="13.5679360">
        <ele>473.2</ele>
        <time>2019-08-15T09:34:41Z</time>
      </trkpt>
      <trkpt lat="48.7258520" lon="13.5680230">
        <ele>473.2</ele>
        <time>2019-08-15T09:34:42Z</time>
      </trkpt>
      <trkpt lat="48.7258500" lon="13.5681060">
        <ele>473.2</ele>
        <time>2019-08-15T09:34:43Z</time>
      </trkpt>
      <trkpt lat="48.7258470" lon="13.5681940">
        <ele>473.2</ele>
        <time>2019-08-15T09:34:44Z</time>
      </trkpt>
      <trkpt lat="48.7258440" lon="13.5682790">
        <ele>473.2</ele>
        <time>2019-08-15T09:34:45Z</time>
      </trkpt>
      <trkpt lat="48.7258400" lon="13.5683650">
        <ele>473.2</ele>
        <time>2019-08-15T09:34:46Z</time>
      </trkpt>
      <trkpt lat="48.7258370" lon="13.5684500">
        <ele>473.2</ele>
        <time>2019-08-15T09:34:47Z</time>
      </trkpt>
      <trkpt lat="48.7258320" lon="13.5685350">
        <ele>473.2</ele>
        <time>2019-08-15T09:34:48Z</time>
      </trkpt>
      <trkpt lat="48.7258260" lon="13.5686190">
        <ele>473.2</ele>
        <time>2019-08-15T09:34:49Z</time>
      </trkpt>
      <trkpt lat="48.7258190" lon="13.5687030">
        <ele>473.4</ele>
        <time>2019-08-15T09:34:50Z</time>
      </trkpt>
      <trkpt lat="48.7258120" lon="13.5687870">
        <ele>473.4</ele>
        <time>2019-08-15T09:34:51Z</time>
      </trkpt>
      <trkpt lat="48.7258040" lon="13.5688730">
        <ele>473.4</ele>
        <time>2019-08-15T09:34:52Z</time>
      </trkpt>
      <trkpt lat="48.7257940" lon="13.5689560">
        <ele>473.4</ele>
        <time>2019-08-15T09:34:53Z</time>
      </trkpt>
      <trkpt lat="48.7257800" lon="13.5690390">
        <ele>473.4</ele>
        <time>2019-08-15T09:34:54Z</time>
      </trkpt>
      <trkpt lat="48.7257650" lon="13.5691210">
        <ele>473.4</ele>
        <time>2019-08-15T09:34:55Z</time>
      </trkpt>
      <trkpt lat="48.7257500" lon="13.5692020">
        <ele>473.4</ele>
        <time>2019-08-15T09:34:56Z</time>
      </trkpt>
      <trkpt lat="48.7257310" lon="13.5692830">
        <ele>473.6</ele>
        <time>2019-08-15T09:34:57Z</time>
      </trkpt>
      <trkpt lat="48.7257090" lon="13.5693640">
        <ele>473.6</ele>
        <time>2019-08-15T09:34:58Z</time>
      </trkpt>
      <trkpt lat="48.7256840" lon="13.5694450">
        <ele>473.6</ele>
        <time>2019-08-15T09:34:59Z</time>
      </trkpt>
      <trkpt lat="48.7256600" lon="13.5695250">
        <ele>473.8</ele>
        <time>2019-08-15T09:35:00Z</time>
      </trkpt>
      <trkpt lat="48.7256300" lon="13.5695990">
        <ele>473.8</ele>
        <time>2019-08-15T09:35:01Z</time>
      </trkpt>
      <trkpt lat="48.7255940" lon="13.5696690">
        <ele>473.8</ele>
        <time>2019-08-15T09:35:02Z</time>
      </trkpt>
      <trkpt lat="48.7255530" lon="13.5697330">
        <ele>473.8</ele>
        <time>2019-08-15T09:35:03Z</time>
      </trkpt>
      <trkpt lat="48.7255110" lon="13.5697940">
        <ele>473.8</ele>
        <time>2019-08-15T09:35:04Z</time>
      </trkpt>
      <trkpt lat="48.7254680" lon="13.5698510">
        <ele>473.8</ele>
        <time>2019-08-15T09:35:05Z</time>
      </trkpt>
      <trkpt lat="48.7254270" lon="13.5699020">
        <ele>473.8</ele>
        <time>2019-08-15T09:35:06Z</time>
      </trkpt>
      <trkpt lat="48.7253850" lon="13.5699530">
        <ele>474.0</ele>
        <time>2019-08-15T09:35:07Z</time>
      </trkpt>
      <trkpt lat="48.7253410" lon="13.5700010">
        <ele>474.0</ele>
        <time>2019-08-15T09:35:08Z</time>
      </trkpt>
      <trkpt lat="48.7252990" lon="13.5700460">
        <ele>474.2</ele>
        <time>2019-08-15T09:35:09Z</time>
      </trkpt>
      <trkpt lat="48.7252530" lon="13.5700900">
        <ele>474.2</ele>
        <time>2019-08-15T09:35:10Z</time>
      </trkpt>
      <trkpt lat="48.7252080" lon="13.5701320">
        <ele>474.4</ele>
        <time>2019-08-15T09:35:11Z</time>
      </trkpt>
      <trkpt lat="48.7251630" lon="13.5701740">
        <ele>474.6</ele>
        <time>2019-08-15T09:35:12Z</time>
      </trkpt>
      <trkpt lat="48.7251170" lon="13.5702120">
        <ele>474.8</ele>
        <time>2019-08-15T09:35:13Z</time>
      </trkpt>
      <trkpt lat="48.7250700" lon="13.5702520">
        <ele>475.0</ele>
        <time>2019-08-15T09:35:14Z</time>
      </trkpt>
      <trkpt lat="48.7250220" lon="13.5702910">
        <ele>475.0</ele>
        <time>2019-08-15T09:35:15Z</time>
      </trkpt>
      <trkpt lat="48.7249730" lon="13.5703280">
        <ele>475.2</ele>
        <time>2019-08-15T09:35:16Z</time>
      </trkpt>
      <trkpt lat="48.7249270" lon="13.5703630">
        <ele>475.4</ele>
        <time>2019-08-15T09:35:17Z</time>
      </trkpt>
      <trkpt lat="48.7248780" lon="13.5704020">
        <ele>475.4</ele>
        <time>2019-08-15T09:35:18Z</time>
      </trkpt>
      <trkpt lat="48.7248300" lon="13.5704380">
        <ele>475.4</ele>
        <time>2019-08-15T09:35:19Z</time>
      </trkpt>
      <trkpt lat="48.7247810" lon="13.5704740">
        <ele>475.6</ele>
        <time>2019-08-15T09:35:20Z</time>
      </trkpt>
      <trkpt lat="48.7247340" lon="13.5705110">
        <ele>475.6</ele>
        <time>2019-08-15T09:35:21Z</time>
      </trkpt>
      <trkpt lat="48.7246840" lon="13.5705460">
        <ele>475.6</ele>
        <time>2019-08-15T09:35:22Z</time>
      </trkpt>
      <trkpt lat="48.7246360" lon="13.5705810">
        <ele>475.6</ele>
        <time>2019-08-15T09:35:23Z</time>
      </trkpt>
      <trkpt lat="48.7245860" lon="13.5706140">
        <ele>475.8</ele>
        <time>2019-08-15T09:35:24Z</time>
      </trkpt>
      <trkpt lat="48.7245370" lon="13.5706510">
        <ele>476.0</ele>
        <time>2019-08-15T09:35:25Z</time>
      </trkpt>
      <trkpt lat="48.7244890" lon="13.5706860">
        <ele>476.0</ele>
        <time>2019-08-15T09:35:26Z</time>
      </trkpt>
      <trkpt lat="48.7244400" lon="13.5707210">
        <ele>476.0</ele>
        <time>2019-08-15T09:35:27Z</time>
      </trkpt>
      <trkpt lat="48.7243890" lon="13.5707560">
        <ele>476.0</ele>
        <time>2019-08-15T09:35:28Z</time>
      </trkpt>
      <trkpt lat="48.7243390" lon="13.5707860">
        <ele>476.0</ele>
        <time>2019-08-15T09:35:29Z</time>
      </trkpt>
      <trkpt lat="48.7242870" lon="13.5708150">
        <ele>476.0</ele>
        <time>2019-08-15T09:35:30Z</time>
      </trkpt>
      <trkpt lat="48.7242350" lon="13.5708470">
        <ele>476.0</ele>
        <time>2019-08-15T09:35:31Z</time>
      </trkpt>
      <trkpt lat="48.7241860" lon="13.5708800">
        <ele>476.0</ele>
        <time>2019-08-15T09:35:32Z</time>
      </trkpt>
      <trkpt lat="48.7241350" lon="13.5709150">
        <ele>476.0</ele>
        <time>2019-08-15T09:35:33Z</time>
      </trkpt>
      <trkpt lat="48.7240850" lon="13.5709500">
        <ele>476.0</ele>
        <time>2019-08-15T09:35:34Z</time>
      </trkpt>
      <trkpt lat="48.7240330" lon="13.5709840">
        <ele>476.0</ele>
        <time>2019-08-15T09:35:35Z</time>
      </trkpt>
      <trkpt lat="48.7239820" lon="13.5710160">
        <ele>476.0</ele>
        <time>2019-08-15T09:35:36Z</time>
      </trkpt>
      <trkpt lat="48.7239310" lon="13.5710490">
        <ele>476.0</ele>
        <time>2019-08-15T09:35:37Z</time>
      </trkpt>
      <trkpt lat="48.7238810" lon="13.5710820">
        <ele>476.0</ele>
        <time>2019-08-15T09:35:38Z</time>
      </trkpt>
      <trkpt lat="48.7238260" lon="13.5711180">
        <ele>476.0</ele>
        <time>2019-08-15T09:35:39Z</time>
      </trkpt>
      <trkpt lat="48.7237740" lon="13.5711530">
        <ele>476.0</ele>
        <time>2019-08-15T09:35:40Z</time>
      </trkpt>
      <trkpt lat="48.7237220" lon="13.5711880">
        <ele>476.0</ele>
        <time>2019-08-15T09:35:41Z</time>
      </trkpt>
      <trkpt lat="48.7236690" lon="13.5712230">
        <ele>476.0</ele>
        <time>2019-08-15T09:35:42Z</time>
      </trkpt>
      <trkpt lat="48.7236160" lon="13.5712570">
        <ele>476.0</ele>
        <time>2019-08-15T09:35:43Z</time>
      </trkpt>
      <trkpt lat="48.7235610" lon="13.5712850">
        <ele>476.0</ele>
        <time>2019-08-15T09:35:44Z</time>
      </trkpt>
      <trkpt lat="48.7235060" lon="13.5713140">
        <ele>476.0</ele>
        <time>2019-08-15T09:35:45Z</time>
      </trkpt>
      <trkpt lat="48.7234510" lon="13.5713440">
        <ele>476.0</ele>
        <time>2019-08-15T09:35:46Z</time>
      </trkpt>
      <trkpt lat="48.7233970" lon="13.5713750">
        <ele>476.0</ele>
        <time>2019-08-15T09:35:47Z</time>
      </trkpt>
      <trkpt lat="48.7233440" lon="13.5714060">
        <ele>476.2</ele>
        <time>2019-08-15T09:35:48Z</time>
      </trkpt>
      <trkpt lat="48.7232910" lon="13.5714370">
        <ele>476.2</ele>
        <time>2019-08-15T09:35:49Z</time>
      </trkpt>
      <trkpt lat="48.7232380" lon="13.5714630">
        <ele>476.2</ele>
        <time>2019-08-15T09:35:50Z</time>
      </trkpt>
      <trkpt lat="48.7231830" lon="13.5714900">
        <ele>476.2</ele>
        <time>2019-08-15T09:35:51Z</time>
      </trkpt>
      <trkpt lat="48.7231300" lon="13.5715200">
        <ele>476.2</ele>
        <time>2019-08-15T09:35:52Z</time>
      </trkpt>
      <trkpt lat="48.7230760" lon="13.5715510">
        <ele>476.0</ele>
        <time>2019-08-15T09:35:53Z</time>
      </trkpt>
      <trkpt lat="48.7230220" lon="13.5715850">
        <ele>476.0</ele>
        <time>2019-08-15T09:35:54Z</time>
      </trkpt>
      <trkpt lat="48.7229690" lon="13.5716170">
        <ele>476.0</ele>
        <time>2019-08-15T09:35:55Z</time>
      </trkpt>
      <trkpt lat="48.7229160" lon="13.5716510">
        <ele>476.0</ele>
        <time>2019-08-15T09:35:56Z</time>
      </trkpt>
      <trkpt lat="48.7228630" lon="13.5716850">
        <ele>476.0</ele>
        <time>2019-08-15T09:35:57Z</time>
      </trkpt>
      <trkpt lat="48.7228080" lon="13.5717210">
        <ele>476.2</ele>
        <time>2019-08-15T09:35:58Z</time>
      </trkpt>
      <trkpt lat="48.7227540" lon="13.5717580">
        <ele>476.2</ele>
        <time>2019-08-15T09:35:59Z</time>
      </trkpt>
      <trkpt lat="48.7227020" lon="13.5717950">
        <ele>476.2</ele>
        <time>2019-08-15T09:36:00Z</time>
      </trkpt>
      <trkpt lat="48.7226490" lon="13.5718370">
        <ele>476.2</ele>
        <time>2019-08-15T09:36:01Z</time>
      </trkpt>
      <trkpt lat="48.7225980" lon="13.5718800">
        <ele>476.2</ele>
        <time>2019-08-15T09:36:02Z</time>
      </trkpt>
      <trkpt lat="48.7225450" lon="13.5719270">
        <ele>476.2</ele>
        <time>2019-08-15T09:36:03Z</time>
      </trkpt>
      <trkpt lat="48.7224940" lon="13.5719730">
        <ele>476.2</ele>
        <time>2019-08-15T09:36:04Z</time>
      </trkpt>
      <trkpt lat="48.7224450" lon="13.5720220">
        <ele>476.2</ele>
        <time>2019-08-15T09:36:05Z</time>
      </trkpt>
      <trkpt lat="48.7223970" lon="13.5720700">
        <ele>476.2</ele>
        <time>2019-08-15T09:36:06Z</time>
      </trkpt>
      <trkpt lat="48.7223450" lon="13.5721260">
        <ele>476.2</ele>
        <time>2019-08-15T09:36:07Z</time>
      </trkpt>
      <trkpt lat="48.7222980" lon="13.5721820">
        <ele>476.0</ele>
        <time>2019-08-15T09:36:08Z</time>
      </trkpt>
      <trkpt lat="48.7222550" lon="13.5722390">
        <ele>476.0</ele>
        <time>2019-08-15T09:36:09Z</time>
      </trkpt>
      <trkpt lat="48.7222130" lon="13.5722980">
        <ele>476.0</ele>
        <time>2019-08-15T09:36:10Z</time>
      </trkpt>
      <trkpt lat="48.7221730" lon="13.5723600">
        <ele>476.0</ele>
        <time>2019-08-15T09:36:11Z</time>
      </trkpt>
      <trkpt lat="48.7221310" lon="13.5724230">
        <ele>476.0</ele>
        <time>2019-08-15T09:36:12Z</time>
      </trkpt>
      <trkpt lat="48.7220910" lon="13.5724850">
        <ele>476.2</ele>
        <time>2019-08-15T09:36:13Z</time>
      </trkpt>
      <trkpt lat="48.7220530" lon="13.5725490">
        <ele>476.2</ele>
        <time>2019-08-15T09:36:14Z</time>
      </trkpt>
      <trkpt lat="48.7220160" lon="13.5726170">
        <ele>476.4</ele>
        <time>2019-08-15T09:36:15Z</time>
      </trkpt>
      <trkpt lat="48.7219790" lon="13.5726860">
        <ele>476.2</ele>
        <time>2019-08-15T09:36:16Z</time>
      </trkpt>
      <trkpt lat="48.7219430" lon="13.5727560">
        <ele>476.2</ele>
        <time>2019-08-15T09:36:17Z</time>
      </trkpt>
      <trkpt lat="48.7219060" lon="13.5728290">
        <ele>476.2</ele>
        <time>2019-08-15T09:36:18Z</time>
      </trkpt>
      <trkpt lat="48.7218690" lon="13.5729020">
        <ele>476.4</ele>
        <time>2019-08-15T09:36:19Z</time>
      </trkpt>
      <trkpt lat="48.7218340" lon="13.5729760">
        <ele>476.4</ele>
        <time>2019-08-15T09:36:20Z</time>
      </trkpt>
      <trkpt lat="48.7217990" lon="13.5730510">
        <ele>476.4</ele>
        <time>2019-08-15T09:36:21Z</time>
      </trkpt>
      <trkpt lat="48.7217670" lon="13.5731280">
        <ele>476.4</ele>
        <time>2019-08-15T09:36:22Z</time>
      </trkpt>
      <trkpt lat="48.7217370" lon="13.5732080">
        <ele>476.4</ele>
        <time>2019-08-15T09:36:23Z</time>
      </trkpt>
      <trkpt lat="48.7217100" lon="13.5732890">
        <ele>476.4</ele>
        <time>2019-08-15T09:36:24Z</time>
      </trkpt>
      <trkpt lat="48.7216860" lon="13.5733700">
        <ele>476.2</ele>
        <time>2019-08-15T09:36:25Z</time>
      </trkpt>
      <trkpt lat="48.7216640" lon="13.5734540">
        <ele>476.2</ele>
        <time>2019-08-15T09:36:26Z</time>
      </trkpt>
      <trkpt lat="48.7216440" lon="13.5735410">
        <ele>476.2</ele>
        <time>2019-08-15T09:36:27Z</time>
      </trkpt>
      <trkpt lat="48.7216270" lon="13.5736240">
        <ele>476.2</ele>
        <time>2019-08-15T09:36:28Z</time>
      </trkpt>
      <trkpt lat="48.7216100" lon="13.5737140">
        <ele>476.2</ele>
        <time>2019-08-15T09:36:29Z</time>
      </trkpt>
      <trkpt lat="48.7215950" lon="13.5738020">
        <ele>476.2</ele>
        <time>2019-08-15T09:36:30Z</time>
      </trkpt>
      <trkpt lat="48.7215820" lon="13.5738890">
        <ele>476.2</ele>
        <time>2019-08-15T09:36:31Z</time>
      </trkpt>
      <trkpt lat="48.7215670" lon="13.5739740">
        <ele>476.2</ele>
        <time>2019-08-15T09:36:32Z</time>
      </trkpt>
      <trkpt lat="48.7215560" lon="13.5740670">
        <ele>476.2</ele>
        <time>2019-08-15T09:36:33Z</time>
      </trkpt>
      <trkpt lat="48.7215480" lon="13.5741570">
        <ele>476.2</ele>
        <time>2019-08-15T09:36:34Z</time>
      </trkpt>
      <trkpt lat="48.7215420" lon="13.5742510">
        <ele>476.0</ele>
        <time>2019-08-15T09:36:35Z</time>
      </trkpt>
      <trkpt lat="48.7215400" lon="13.5743450">
        <ele>476.0</ele>
        <time>2019-08-15T09:36:36Z</time>
      </trkpt>
      <trkpt lat="48.7215390" lon="13.5744400">
        <ele>476.0</ele>
        <time>2019-08-15T09:36:37Z</time>
      </trkpt>
      <trkpt lat="48.7215380" lon="13.5745350">
        <ele>476.0</ele>
        <time>2019-08-15T09:36:38Z</time>
      </trkpt>
      <trkpt lat="48.7215400" lon="13.5746280">
        <ele>476.0</ele>
        <time>2019-08-15T09:36:39Z</time>
      </trkpt>
      <trkpt lat="48.7215440" lon="13.5747220">
        <ele>476.0</ele>
        <time>2019-08-15T09:36:40Z</time>
      </trkpt>
      <trkpt lat="48.7215510" lon="13.5748180">
        <ele>476.2</ele>
        <time>2019-08-15T09:36:41Z</time>
      </trkpt>
      <trkpt lat="48.7215590" lon="13.5749130">
        <ele>476.2</ele>
        <time>2019-08-15T09:36:42Z</time>
      </trkpt>
      <trkpt lat="48.7215670" lon="13.5750100">
        <ele>476.2</ele>
        <time>2019-08-15T09:36:43Z</time>
      </trkpt>
      <trkpt lat="48.7215760" lon="13.5751050">
        <ele>476.0</ele>
        <time>2019-08-15T09:36:44Z</time>
      </trkpt>
      <trkpt lat="48.7215860" lon="13.5752000">
        <ele>476.0</ele>
        <time>2019-08-15T09:36:45Z</time>
      </trkpt>
      <trkpt lat="48.7215940" lon="13.5752950">
        <ele>476.0</ele>
        <time>2019-08-15T09:36:46Z</time>
      </trkpt>
      <trkpt lat="48.7215990" lon="13.5753910">
        <ele>476.0</ele>
        <time>2019-08-15T09:36:47Z</time>
      </trkpt>
      <trkpt lat="48.7216030" lon="13.5754890">
        <ele>476.0</ele>
        <time>2019-08-15T09:36:48Z</time>
      </trkpt>
      <trkpt lat="48.7216080" lon="13.5755850">
        <ele>476.0</ele>
        <time>2019-08-15T09:36:49Z</time>
      </trkpt>
      <trkpt lat="48.7216140" lon="13.5756830">
        <ele>476.0</ele>
        <time>2019-08-15T09:36:50Z</time>
      </trkpt>
      <trkpt lat="48.7216210" lon="13.5757800">
        <ele>476.0</ele>
        <time>2019-08-15T09:36:51Z</time>
      </trkpt>
      <trkpt lat="48.7216290" lon="13.5758780">
        <ele>475.8</ele>
        <time>2019-08-15T09:36:52Z</time>
      </trkpt>
      <trkpt lat="48.7216370" lon="13.5759750">
        <ele>475.8</ele>
        <time>2019-08-15T09:36:53Z</time>
      </trkpt>
      <trkpt lat="48.7216460" lon="13.5760700">
        <ele>475.8</ele>
        <time>2019-08-15T09:36:54Z</time>
      </trkpt>
      <trkpt lat="48.7216530" lon="13.5761630">
        <ele>476.0</ele>
        <time>2019-08-15T09:36:55Z</time>
      </trkpt>
      <trkpt lat="48.7216590" lon="13.5762580">
        <ele>476.0</ele>
        <time>2019-08-15T09:36:56Z</time>
      </trkpt>
      <trkpt lat="48.7216660" lon="13.5763470">
        <ele>476.0</ele>
        <time>2019-08-15T09:36:57Z</time>
      </trkpt>
      <trkpt lat="48.7216720" lon="13.5764390">
        <ele>476.2</ele>
        <time>2019-08-15T09:36:58Z</time>
      </trkpt>
      <trkpt lat="48.7216790" lon="13.5765290">
        <ele>476.2</ele>
        <time>2019-08-15T09:36:59Z</time>
      </trkpt>
      <trkpt lat="48.7216860" lon="13.5766190">
        <ele>476.2</ele>
        <time>2019-08-15T09:37:00Z</time>
      </trkpt>
      <trkpt lat="48.7216930" lon="13.5767100">
        <ele>476.2</ele>
        <time>2019-08-15T09:37:01Z</time>
      </trkpt>
      <trkpt lat="48.7217010" lon="13.5767970">
        <ele>476.2</ele>
        <time>2019-08-15T09:37:02Z</time>
      </trkpt>
      <trkpt lat="48.7217080" lon="13.5768840">
        <ele>476.4</ele>
        <time>2019-08-15T09:37:03Z</time>
      </trkpt>
      <trkpt lat="48.7217140" lon="13.5769690">
        <ele>476.4</ele>
        <time>2019-08-15T09:37:04Z</time>
      </trkpt>
      <trkpt lat="48.7217210" lon="13.5770550">
        <ele>476.6</ele>
        <time>2019-08-15T09:37:05Z</time>
      </trkpt>
      <trkpt lat="48.7217290" lon="13.5771380">
        <ele>476.8</ele>
        <time>2019-08-15T09:37:06Z</time>
      </trkpt>
      <trkpt lat="48.7217370" lon="13.5772210">
        <ele>477.0</ele>
        <time>2019-08-15T09:37:07Z</time>
      </trkpt>
      <trkpt lat="48.7217460" lon="13.5773010">
        <ele>477.0</ele>
        <time>2019-08-15T09:37:08Z</time>
      </trkpt>
      <trkpt lat="48.7217570" lon="13.5773780">
        <ele>477.2</ele>
        <time>2019-08-15T09:37:09Z</time>
      </trkpt>
      <trkpt lat="48.7217690" lon="13.5774510">
        <ele>477.4</ele>
        <time>2019-08-15T09:37:10Z</time>
      </trkpt>
      <trkpt lat="48.7217810" lon="13.5775210">
        <ele>477.6</ele>
        <time>2019-08-15T09:37:11Z</time>
      </trkpt>
      <trkpt lat="48.7217920" lon="13.5775890">
        <ele>477.8</ele>
        <time>2019-08-15T09:37:12Z</time>
      </trkpt>
      <trkpt lat="48.7218050" lon="13.5776560">
        <ele>478.0</ele>
        <time>2019-08-15T09:37:13Z</time>
      </trkpt>
      <trkpt lat="48.7218200" lon="13.5777180">
        <ele>478.2</ele>
        <time>2019-08-15T09:37:14Z</time>
      </trkpt>
      <trkpt lat="48.7218370" lon="13.5777810">
        <ele>478.6</ele>
        <time>2019-08-15T09:37:15Z</time>
      </trkpt>
      <trkpt lat="48.7218530" lon="13.5778380">
        <ele>478.8</ele>
        <time>2019-08-15T09:37:16Z</time>
      </trkpt>
      <trkpt lat="48.7218710" lon="13.5778970">
        <ele>479.0</ele>
        <time>2019-08-15T09:37:17Z</time>
      </trkpt>
      <trkpt lat="48.7218900" lon="13.5779550">
        <ele>479.2</ele>
        <time>2019-08-15T09:37:18Z</time>
      </trkpt>
      <trkpt lat="48.7219070" lon="13.5780140">
        <ele>479.4</ele>
        <time>2019-08-15T09:37:19Z</time>
      </trkpt>
      <trkpt lat="48.7219260" lon="13.5780710">
        <ele>479.6</ele>
        <time>2019-08-15T09:37:20Z</time>
      </trkpt>
      <trkpt lat="48.7219460" lon="13.5781240">
        <ele>479.8</ele>
        <time>2019-08-15T09:37:21Z</time>
      </trkpt>
      <trkpt lat="48.7219680" lon="13.5781780">
        <ele>480.0</ele>
        <time>2019-08-15T09:37:22Z</time>
      </trkpt>
      <trkpt lat="48.7219880" lon="13.5782290">
        <ele>480.2</ele>
        <time>2019-08-15T09:37:23Z</time>
      </trkpt>
      <trkpt lat="48.7220080" lon="13.5782830">
        <ele>480.2</ele>
        <time>2019-08-15T09:37:24Z</time>
      </trkpt>
      <trkpt lat="48.7220280" lon="13.5783340">
        <ele>480.4</ele>
        <time>2019-08-15T09:37:25Z</time>
      </trkpt>
      <trkpt lat="48.7220490" lon="13.5783850">
        <ele>480.6</ele>
        <time>2019-08-15T09:37:26Z</time>
      </trkpt>
      <trkpt lat="48.7220700" lon="13.5784330">
        <ele>480.8</ele>
        <time>2019-08-15T09:37:27Z</time>
      </trkpt>
      <trkpt lat="48.7220880" lon="13.5784840">
        <ele>481.0</ele>
        <time>2019-08-15T09:37:28Z</time>
      </trkpt>
      <trkpt lat="48.7221060" lon="13.5785350">
        <ele>481.2</ele>
        <time>2019-08-15T09:37:29Z</time>
      </trkpt>
      <trkpt lat="48.7221260" lon="13.5785830">
        <ele>481.2</ele>
        <time>2019-08-15T09:37:30Z</time>
      </trkpt>
      <trkpt lat="48.7221460" lon="13.5786300">
        <ele>481.4</ele>
        <time>2019-08-15T09:37:31Z</time>
      </trkpt>
      <trkpt lat="48.7221680" lon="13.5786770">
        <ele>481.6</ele>
        <time>2019-08-15T09:37:32Z</time>
      </trkpt>
      <trkpt lat="48.7221890" lon="13.5787220">
        <ele>481.8</ele>
        <time>2019-08-15T09:37:33Z</time>
      </trkpt>
      <trkpt lat="48.7222090" lon="13.5787670">
        <ele>482.0</ele>
        <time>2019-08-15T09:37:34Z</time>
      </trkpt>
      <trkpt lat="48.7222310" lon="13.5788130">
        <ele>482.2</ele>
        <time>2019-08-15T09:37:35Z</time>
      </trkpt>
      <trkpt lat="48.7222510" lon="13.5788600">
        <ele>482.2</ele>
        <time>2019-08-15T09:37:36Z</time>
      </trkpt>
      <trkpt lat="48.7222710" lon="13.5789070">
        <ele>482.4</ele>
        <time>2019-08-15T09:37:37Z</time>
      </trkpt>
      <trkpt lat="48.7222920" lon="13.5789510">
        <ele>482.6</ele>
        <time>2019-08-15T09:37:38Z</time>
      </trkpt>
      <trkpt lat="48.7223130" lon="13.5790000">
        <ele>482.8</ele>
        <time>2019-08-15T09:37:39Z</time>
      </trkpt>
      <trkpt lat="48.7223310" lon="13.5790500">
        <ele>483.0</ele>
        <time>2019-08-15T09:37:40Z</time>
      </trkpt>
      <trkpt lat="48.7223500" lon="13.5790970">
        <ele>483.2</ele>
        <time>2019-08-15T09:37:41Z</time>
      </trkpt>
      <trkpt lat="48.7223700" lon="13.5791450">
        <ele>483.2</ele>
        <time>2019-08-15T09:37:42Z</time>
      </trkpt>
      <trkpt lat="48.7223880" lon="13.5791910">
        <ele>483.4</ele>
        <time>2019-08-15T09:37:43Z</time>
      </trkpt>
      <trkpt lat="48.7224090" lon="13.5792370">
        <ele>483.6</ele>
        <time>2019-08-15T09:37:44Z</time>
      </trkpt>
      <trkpt lat="48.7224300" lon="13.5792820">
        <ele>483.8</ele>
        <time>2019-08-15T09:37:45Z</time>
      </trkpt>
      <trkpt lat="48.7224500" lon="13.5793270">
        <ele>484.0</ele>
        <time>2019-08-15T09:37:46Z</time>
      </trkpt>
      <trkpt lat="48.7224690" lon="13.5793710">
        <ele>484.0</ele>
        <time>2019-08-15T09:37:47Z</time>
      </trkpt>
      <trkpt lat="48.7224920" lon="13.5794130">
        <ele>484.2</ele>
        <time>2019-08-15T09:37:48Z</time>
      </trkpt>
      <trkpt lat="48.7225160" lon="13.5794540">
        <ele>484.4</ele>
        <time>2019-08-15T09:37:49Z</time>
      </trkpt>
      <trkpt lat="48.7225390" lon="13.5794960">
        <ele>484.6</ele>
        <time>2019-08-15T09:37:50Z</time>
      </trkpt>
      <trkpt lat="48.7225610" lon="13.5795370">
        <ele>484.8</ele>
        <time>2019-08-15T09:37:51Z</time>
      </trkpt>
      <trkpt lat="48.7225850" lon="13.5795750">
        <ele>485.0</ele>
        <time>2019-08-15T09:37:52Z</time>
      </trkpt>
      <trkpt lat="48.7226090" lon="13.5796150">
        <ele>485.2</ele>
        <time>2019-08-15T09:37:53Z</time>
      </trkpt>
      <trkpt lat="48.7226340" lon="13.5796560">
        <ele>485.2</ele>
        <time>2019-08-15T09:37:54Z</time>
      </trkpt>
      <trkpt lat="48.7226590" lon="13.5796940">
        <ele>485.4</ele>
        <time>2019-08-15T09:37:55Z</time>
      </trkpt>
      <trkpt lat="48.7226840" lon="13.5797340">
        <ele>485.6</ele>
        <time>2019-08-15T09:37:56Z</time>
      </trkpt>
      <trkpt lat="48.7227070" lon="13.5797730">
        <ele>485.8</ele>
        <time>2019-08-15T09:37:57Z</time>
      </trkpt>
      <trkpt lat="48.7227320" lon="13.5798120">
        <ele>486.0</ele>
        <time>2019-08-15T09:37:58Z</time>
      </trkpt>
      <trkpt lat="48.7227590" lon="13.5798510">
        <ele>486.2</ele>
        <time>2019-08-15T09:37:59Z</time>
      </trkpt>
      <trkpt lat="48.7227830" lon="13.5798880">
        <ele>486.2</ele>
        <time>2019-08-15T09:38:00Z</time>
      </trkpt>
      <trkpt lat="48.7228100" lon="13.5799270">
        <ele>486.4</ele>
        <time>2019-08-15T09:38:01Z</time>
      </trkpt>
      <trkpt lat="48.7228370" lon="13.5799660">
        <ele>486.6</ele>
        <time>2019-08-15T09:38:02Z</time>
      </trkpt>
      <trkpt lat="48.7228640" lon="13.5800040">
        <ele>486.8</ele>
        <time>2019-08-15T09:38:03Z</time>
      </trkpt>
      <trkpt lat="48.7228920" lon="13.5800410">
        <ele>487.0</ele>
        <time>2019-08-15T09:38:04Z</time>
      </trkpt>
      <trkpt lat="48.7229200" lon="13.5800750">
        <ele>487.0</ele>
        <time>2019-08-15T09:38:05Z</time>
      </trkpt>
      <trkpt lat="48.7229470" lon="13.5801110">
        <ele>487.2</ele>
        <time>2019-08-15T09:38:06Z</time>
      </trkpt>
      <trkpt lat="48.7229740" lon="13.5801470">
        <ele>487.4</ele>
        <time>2019-08-15T09:38:07Z</time>
      </trkpt>
      <trkpt lat="48.7230020" lon="13.5801840">
        <ele>487.6</ele>
        <time>2019-08-15T09:38:08Z</time>
      </trkpt>
      <trkpt lat="48.7230290" lon="13.5802190">
        <ele>487.6</ele>
        <time>2019-08-15T09:38:09Z</time>
      </trkpt>
      <trkpt lat="48.7230550" lon="13.5802560">
        <ele>487.8</ele>
        <time>2019-08-15T09:38:10Z</time>
      </trkpt>
      <trkpt lat="48.7230810" lon="13.5802920">
        <ele>488.0</ele>
        <time>2019-08-15T09:38:11Z</time>
      </trkpt>
      <trkpt lat="48.7231070" lon="13.5803290">
        <ele>488.2</ele>
        <time>2019-08-15T09:38:12Z</time>
      </trkpt>
      <trkpt lat="48.7231340" lon="13.5803640">
        <ele>488.2</ele>
        <time>2019-08-15T09:38:13Z</time>
      </trkpt>
      <trkpt lat="48.7231570" lon="13.5804010">
        <ele>488.4</ele>
        <time>2019-08-15T09:38:14Z</time>
      </trkpt>
      <trkpt lat="48.7231820" lon="13.5804380">
        <ele>488.6</ele>
        <time>2019-08-15T09:38:15Z</time>
      </trkpt>
      <trkpt lat="48.7232070" lon="13.5804730">
        <ele>488.8</ele>
        <time>2019-08-15T09:38:16Z</time>
      </trkpt>
      <trkpt lat="48.7232320" lon="13.5805110">
        <ele>489.0</ele>
        <time>2019-08-15T09:38:17Z</time>
      </trkpt>
      <trkpt lat="48.7232540" lon="13.5805540">
        <ele>489.0</ele>
        <time>2019-08-15T09:38:18Z</time>
      </trkpt>
      <trkpt lat="48.7232760" lon="13.5805970">
        <ele>489.2</ele>
        <time>2019-08-15T09:38:19Z</time>
      </trkpt>
      <trkpt lat="48.7232970" lon="13.5806400">
        <ele>489.4</ele>
        <time>2019-08-15T09:38:20Z</time>
      </trkpt>
      <trkpt lat="48.7233160" lon="13.5806900">
        <ele>489.6</ele>
        <time>2019-08-15T09:38:21Z</time>
      </trkpt>
      <trkpt lat="48.7233340" lon="13.5807370">
        <ele>489.8</ele>
        <time>2019-08-15T09:38:22Z</time>
      </trkpt>
      <trkpt lat="48.7233500" lon="13.5807880">
        <ele>490.0</ele>
        <time>2019-08-15T09:38:23Z</time>
      </trkpt>
      <trkpt lat="48.7233640" lon="13.5808390">
        <ele>490.2</ele>
        <time>2019-08-15T09:38:24Z</time>
      </trkpt>
      <trkpt lat="48.7233780" lon="13.5808910">
        <ele>490.4</ele>
        <time>2019-08-15T09:38:25Z</time>
      </trkpt>
      <trkpt lat="48.7233920" lon="13.5809440">
        <ele>490.4</ele>
        <time>2019-08-15T09:38:26Z</time>
      </trkpt>
      <trkpt lat="48.7234020" lon="13.5809950">
        <ele>490.6</ele>
        <time>2019-08-15T09:38:27Z</time>
      </trkpt>
      <trkpt lat="48.7234140" lon="13.5810500">
        <ele>490.8</ele>
        <time>2019-08-15T09:38:28Z</time>
      </trkpt>
      <trkpt lat="48.7234210" lon="13.5811070">
        <ele>491.0</ele>
        <time>2019-08-15T09:38:29Z</time>
      </trkpt>
      <trkpt lat="48.7234260" lon="13.5811640">
        <ele>491.2</ele>
        <time>2019-08-15T09:38:30Z</time>
      </trkpt>
      <trkpt lat="48.7234300" lon="13.5812200">
        <ele>491.4</ele>
        <time>2019-08-15T09:38:31Z</time>
      </trkpt>
      <trkpt lat="48.7234310" lon="13.5812770">
        <ele>491.6</ele>
        <time>2019-08-15T09:38:32Z</time>
      </trkpt>
      <trkpt lat="48.7234350" lon="13.5813320">
        <ele>491.8</ele>
        <time>2019-08-15T09:38:33Z</time>
      </trkpt>
      <trkpt lat="48.7234390" lon="13.5813870">
        <ele>492.0</ele>
        <time>2019-08-15T09:38:34Z</time>
      </trkpt>
      <trkpt lat="48.7234430" lon="13.5814440">
        <ele>492.2</ele>
        <time>2019-08-15T09:38:35Z</time>
      </trkpt>
      <trkpt lat="48.7234430" lon="13.5815000">
        <ele>492.4</ele>
        <time>2019-08-15T09:38:36Z</time>
      </trkpt>
      <trkpt lat="48.7234430" lon="13.5815570">
        <ele>492.6</ele>
        <time>2019-08-15T09:38:37Z</time>
      </trkpt>
      <trkpt lat="48.7234430" lon="13.5816130">
        <ele>493.0</ele>
        <time>2019-08-15T09:38:38Z</time>
      </trkpt>
      <trkpt lat="48.7234400" lon="13.5816740">
        <ele>493.0</ele>
        <time>2019-08-15T09:38:39Z</time>
      </trkpt>
      <trkpt lat="48.7234390" lon="13.5817310">
        <ele>493.2</ele>
        <time>2019-08-15T09:38:40Z</time>
      </trkpt>
      <trkpt lat="48.7234350" lon="13.5817880">
        <ele>493.6</ele>
        <time>2019-08-15T09:38:41Z</time>
      </trkpt>
      <trkpt lat="48.7234320" lon="13.5818450">
        <ele>493.8</ele>
        <time>2019-08-15T09:38:42Z</time>
      </trkpt>
      <trkpt lat="48.7234290" lon="13.5819040">
        <ele>494.0</ele>
        <time>2019-08-15T09:38:43Z</time>
      </trkpt>
      <trkpt lat="48.7234250" lon="13.5819630">
        <ele>494.0</ele>
        <time>2019-08-15T09:38:44Z</time>
      </trkpt>
      <trkpt lat="48.7234220" lon="13.5820210">
        <ele>494.2</ele>
        <time>2019-08-15T09:38:45Z</time>
      </trkpt>
      <trkpt lat="48.7234200" lon="13.5820790">
        <ele>494.4</ele>
        <time>2019-08-15T09:38:46Z</time>
      </trkpt>
      <trkpt lat="48.7234200" lon="13.5821360">
        <ele>494.6</ele>
        <time>2019-08-15T09:38:47Z</time>
      </trkpt>
      <trkpt lat="48.7234190" lon="13.5821920">
        <ele>494.8</ele>
        <time>2019-08-15T09:38:48Z</time>
      </trkpt>
      <trkpt lat="48.7234170" lon="13.5822510">
        <ele>495.0</ele>
        <time>2019-08-15T09:38:49Z</time>
      </trkpt>
      <trkpt lat="48.7234150" lon="13.5823090">
        <ele>495.2</ele>
        <time>2019-08-15T09:38:50Z</time>
      </trkpt>
      <trkpt lat="48.7234140" lon="13.5823660">
        <ele>495.4</ele>
        <time>2019-08-15T09:38:51Z</time>
      </trkpt>
      <trkpt lat="48.7234100" lon="13.5824240">
        <ele>495.6</ele>
        <time>2019-08-15T09:38:52Z</time>
      </trkpt>
      <trkpt lat="48.7234090" lon="13.5824810">
        <ele>495.6</ele>
        <time>2019-08-15T09:38:53Z</time>
      </trkpt>
      <trkpt lat="48.7234070" lon="13.5825370">
        <ele>495.8</ele>
        <time>2019-08-15T09:38:54Z</time>
      </trkpt>
      <trkpt lat="48.7234040" lon="13.5825970">
        <ele>496.0</ele>
        <time>2019-08-15T09:38:55Z</time>
      </trkpt>
      <trkpt lat="48.7234000" lon="13.5826550">
        <ele>496.2</ele>
        <time>2019-08-15T09:38:56Z</time>
      </trkpt>
      <trkpt lat="48.7233970" lon="13.5827140">
        <ele>496.4</ele>
        <time>2019-08-15T09:38:57Z</time>
      </trkpt>
      <trkpt lat="48.7233950" lon="13.5827700">
        <ele>496.6</ele>
        <time>2019-08-15T09:38:58Z</time>
      </trkpt>
      <trkpt lat="48.7233950" lon="13.5828290">
        <ele>496.8</ele>
        <time>2019-08-15T09:38:59Z</time>
      </trkpt>
      <trkpt lat="48.7233940" lon="13.5828820">
        <ele>496.8</ele>
        <time>2019-08-15T09:39:00Z</time>
      </trkpt>
      <trkpt lat="48.7233900" lon="13.5829420">
        <ele>497.0</ele>
        <time>2019-08-15T09:39:01Z</time>
      </trkpt>
      <trkpt lat="48.7233870" lon="13.5829980">
        <ele>497.2</ele>
        <time>2019-08-15T09:39:02Z</time>
      </trkpt>
      <trkpt lat="48.7233820" lon="13.5830530">
        <ele>497.4</ele>
        <time>2019-08-15T09:39:03Z</time>
      </trkpt>
      <trkpt lat="48.7233770" lon="13.5831070">
        <ele>497.6</ele>
        <time>2019-08-15T09:39:04Z</time>
      </trkpt>
      <trkpt lat="48.7233750" lon="13.5831620">
        <ele>497.8</ele>
        <time>2019-08-15T09:39:05Z</time>
      </trkpt>
      <trkpt lat="48.7233730" lon="13.5832170">
        <ele>497.8</ele>
        <time>2019-08-15T09:39:06Z</time>
      </trkpt>
      <trkpt lat="48.7233700" lon="13.5832710">
        <ele>498.0</ele>
        <time>2019-08-15T09:39:07Z</time>
      </trkpt>
      <trkpt lat="48.7233670" lon="13.5833250">
        <ele>498.2</ele>
        <time>2019-08-15T09:39:08Z</time>
      </trkpt>
      <trkpt lat="48.7233640" lon="13.5833790">
        <ele>498.4</ele>
        <time>2019-08-15T09:39:09Z</time>
      </trkpt>
      <trkpt lat="48.7233620" lon="13.5834340">
        <ele>498.6</ele>
        <time>2019-08-15T09:39:10Z</time>
      </trkpt>
      <trkpt lat="48.7233600" lon="13.5834870">
        <ele>498.8</ele>
        <time>2019-08-15T09:39:11Z</time>
      </trkpt>
      <trkpt lat="48.7233580" lon="13.5835410">
        <ele>499.0</ele>
        <time>2019-08-15T09:39:12Z</time>
      </trkpt>
      <trkpt lat="48.7233570" lon="13.5835930">
        <ele>499.2</ele>
        <time>2019-08-15T09:39:13Z</time>
      </trkpt>
      <trkpt lat="48.7233540" lon="13.5836460">
        <ele>499.2</ele>
        <time>2019-08-15T09:39:14Z</time>
      </trkpt>
      <trkpt lat="48.7233520" lon="13.5837000">
        <ele>499.4</ele>
        <time>2019-08-15T09:39:15Z</time>
      </trkpt>
      <trkpt lat="48.7233490" lon="13.5837540">
        <ele>499.6</ele>
        <time>2019-08-15T09:39:16Z</time>
      </trkpt>
      <trkpt lat="48.7233450" lon="13.5838080">
        <ele>499.8</ele>
        <time>2019-08-15T09:39:17Z</time>
      </trkpt>
      <trkpt lat="48.7233410" lon="13.5838580">
        <ele>500.0</ele>
        <time>2019-08-15T09:39:18Z</time>
      </trkpt>
      <trkpt lat="48.7233360" lon="13.5839060">
        <ele>500.2</ele>
        <time>2019-08-15T09:39:19Z</time>
      </trkpt>
      <trkpt lat="48.7233320" lon="13.5839530">
        <ele>500.2</ele>
        <time>2019-08-15T09:39:20Z</time>
      </trkpt>
      <trkpt lat="48.7233300" lon="13.5839970">
        <ele>500.4</ele>
        <time>2019-08-15T09:39:21Z</time>
      </trkpt>
      <trkpt lat="48.7233280" lon="13.5840370">
        <ele>500.6</ele>
        <time>2019-08-15T09:39:22Z</time>
      </trkpt>
      <trkpt lat="48.7233280" lon="13.5840790">
        <ele>500.6</ele>
        <time>2019-08-15T09:39:23Z</time>
      </trkpt>
      <trkpt lat="48.7233270" lon="13.5841210">
        <ele>500.8</ele>
        <time>2019-08-15T09:39:24Z</time>
      </trkpt>
      <trkpt lat="48.7233270" lon="13.5841640">
        <ele>501.0</ele>
        <time>2019-08-15T09:39:25Z</time>
      </trkpt>
      <trkpt lat="48.7233250" lon="13.5842050">
        <ele>501.0</ele>
        <time>2019-08-15T09:39:26Z</time>
      </trkpt>
      <trkpt lat="48.7233220" lon="13.5842500">
        <ele>501.2</ele>
        <time>2019-08-15T09:39:27Z</time>
      </trkpt>
      <trkpt lat="48.7233170" lon="13.5842940">
        <ele>501.4</ele>
        <time>2019-08-15T09:39:28Z</time>
      </trkpt>
      <trkpt lat="48.7233140" lon="13.5843380">
        <ele>501.6</ele>
        <time>2019-08-15T09:39:29Z</time>
      </trkpt>
      <trkpt lat="48.7233100" lon="13.5843840">
        <ele>501.6</ele>
        <time>2019-08-15T09:39:30Z</time>
      </trkpt>
      <trkpt lat="48.7233090" lon="13.5844290">
        <ele>501.8</ele>
        <time>2019-08-15T09:39:31Z</time>
      </trkpt>
      <trkpt lat="48.7233070" lon="13.5844750">
        <ele>502.0</ele>
        <time>2019-08-15T09:39:32Z</time>
      </trkpt>
      <trkpt lat="48.7233040" lon="13.5845220">
        <ele>502.0</ele>
        <time>2019-08-15T09:39:33Z</time>
      </trkpt>
      <trkpt lat="48.7233000" lon="13.5845680">
        <ele>502.2</ele>
        <time>2019-08-15T09:39:34Z</time>
      </trkpt>
      <trkpt lat="48.7232980" lon="13.5846150">
        <ele>502.4</ele>
        <time>2019-08-15T09:39:35Z</time>
      </trkpt>
      <trkpt lat="48.7232940" lon="13.5846610">
        <ele>502.6</ele>
        <time>2019-08-15T09:39:36Z</time>
      </trkpt>
      <trkpt lat="48.7232870" lon="13.5847080">
        <ele>502.8</ele>
        <time>2019-08-15T09:39:37Z</time>
      </trkpt>
      <trkpt lat="48.7232820" lon="13.5847560">
        <ele>502.8</ele>
        <time>2019-08-15T09:39:38Z</time>
      </trkpt>
      <trkpt lat="48.7232740" lon="13.5848030">
        <ele>503.0</ele>
        <time>2019-08-15T09:39:39Z</time>
      </trkpt>
      <trkpt lat="48.7232640" lon="13.5848490">
        <ele>503.2</ele>
        <time>2019-08-15T09:39:40Z</time>
      </trkpt>
      <trkpt lat="48.7232560" lon="13.5848930">
        <ele>503.2</ele>
        <time>2019-08-15T09:39:41Z</time>
      </trkpt>
      <trkpt lat="48.7232460" lon="13.5849430">
        <ele>503.4</ele>
        <time>2019-08-15T09:39:42Z</time>
      </trkpt>
      <trkpt lat="48.7232360" lon="13.5849910">
        <ele>503.6</ele>
        <time>2019-08-15T09:39:43Z</time>
      </trkpt>
      <trkpt lat="48.7232280" lon="13.5850380">
        <ele>503.8</ele>
        <time>2019-08-15T09:39:44Z</time>
      </trkpt>
      <trkpt lat="48.7232190" lon="13.5850870">
        <ele>503.8</ele>
        <time>2019-08-15T09:39:45Z</time>
      </trkpt>
      <trkpt lat="48.7232090" lon="13.5851320">
        <ele>504.0</ele>
        <time>2019-08-15T09:39:46Z</time>
      </trkpt>
      <trkpt lat="48.7231980" lon="13.5851770">
        <ele>504.2</ele>
        <time>2019-08-15T09:39:47Z</time>
      </trkpt>
      <trkpt lat="48.7231860" lon="13.5852220">
        <ele>504.4</ele>
        <time>2019-08-15T09:39:48Z</time>
      </trkpt>
      <trkpt lat="48.7231720" lon="13.5852670">
        <ele>504.6</ele>
        <time>2019-08-15T09:39:49Z</time>
      </trkpt>
      <trkpt lat="48.7231570" lon="13.5853100">
        <ele>504.6</ele>
        <time>2019-08-15T09:39:50Z</time>
      </trkpt>
      <trkpt lat="48.7231420" lon="13.5853540">
        <ele>504.8</ele>
        <time>2019-08-15T09:39:51Z</time>
      </trkpt>
      <trkpt lat="48.7231250" lon="13.5853990">
        <ele>505.0</ele>
        <time>2019-08-15T09:39:52Z</time>
      </trkpt>
      <trkpt lat="48.7231100" lon="13.5854410">
        <ele>505.2</ele>
        <time>2019-08-15T09:39:53Z</time>
      </trkpt>
      <trkpt lat="48.7230950" lon="13.5854870">
        <ele>505.4</ele>
        <time>2019-08-15T09:39:54Z</time>
      </trkpt>
      <trkpt lat="48.7230810" lon="13.5855330">
        <ele>505.6</ele>
        <time>2019-08-15T09:39:55Z</time>
      </trkpt>
      <trkpt lat="48.7230700" lon="13.5855780">
        <ele>505.6</ele>
        <time>2019-08-15T09:39:56Z</time>
      </trkpt>
      <trkpt lat="48.7230550" lon="13.5856230">
        <ele>505.8</ele>
        <time>2019-08-15T09:39:57Z</time>
      </trkpt>
      <trkpt lat="48.7230390" lon="13.5856660">
        <ele>506.0</ele>
        <time>2019-08-15T09:39:58Z</time>
      </trkpt>
      <trkpt lat="48.7230210" lon="13.5857080">
        <ele>506.2</ele>
        <time>2019-08-15T09:39:59Z</time>
      </trkpt>
      <trkpt lat="48.7230060" lon="13.5857430">
        <ele>506.4</ele>
        <time>2019-08-15T09:40:00Z</time>
      </trkpt>
      <trkpt lat="48.7229850" lon="13.5857920">
        <ele>506.6</ele>
        <time>2019-08-15T09:40:01Z</time>
      </trkpt>
      <trkpt lat="48.7229680" lon="13.5858400">
        <ele>506.6</ele>
        <time>2019-08-15T09:40:02Z</time>
      </trkpt>
      <trkpt lat="48.7229530" lon="13.5858850">
        <ele>506.8</ele>
        <time>2019-08-15T09:40:03Z</time>
      </trkpt>
      <trkpt lat="48.7229370" lon="13.5859280">
        <ele>507.0</ele>
        <time>2019-08-15T09:40:04Z</time>
      </trkpt>
      <trkpt lat="48.7229190" lon="13.5859720">
        <ele>507.2</ele>
        <time>2019-08-15T09:40:05Z</time>
      </trkpt>
      <trkpt lat="48.7229030" lon="13.5860150">
        <ele>507.4</ele>
        <time>2019-08-15T09:40:06Z</time>
      </trkpt>
      <trkpt lat="48.7228870" lon="13.5860580">
        <ele>507.4</ele>
        <time>2019-08-15T09:40:07Z</time>
      </trkpt>
      <trkpt lat="48.7228710" lon="13.5861000">
        <ele>507.6</ele>
        <time>2019-08-15T09:40:08Z</time>
      </trkpt>
      <trkpt lat="48.7228530" lon="13.5861450">
        <ele>507.8</ele>
        <time>2019-08-15T09:40:09Z</time>
      </trkpt>
      <trkpt lat="48.7228370" lon="13.5861880">
        <ele>507.8</ele>
        <time>2019-08-15T09:40:10Z</time>
      </trkpt>
      <trkpt lat="48.7228200" lon="13.5862340">
        <ele>508.0</ele>
        <time>2019-08-15T09:40:11Z</time>
      </trkpt>
      <trkpt lat="48.7228060" lon="13.5862800">
        <ele>508.2</ele>
        <time>2019-08-15T09:40:12Z</time>
      </trkpt>
      <trkpt lat="48.7227950" lon="13.5863260">
        <ele>508.4</ele>
        <time>2019-08-15T09:40:13Z</time>
      </trkpt>
      <trkpt lat="48.7227800" lon="13.5863700">
        <ele>508.6</ele>
        <time>2019-08-15T09:40:14Z</time>
      </trkpt>
      <trkpt lat="48.7227650" lon="13.5864160">
        <ele>508.6</ele>
        <time>2019-08-15T09:40:15Z</time>
      </trkpt>
      <trkpt lat="48.7227540" lon="13.5864610">
        <ele>508.8</ele>
        <time>2019-08-15T09:40:16Z</time>
      </trkpt>
      <trkpt lat="48.7227420" lon="13.5865060">
        <ele>509.0</ele>
        <time>2019-08-15T09:40:17Z</time>
      </trkpt>
      <trkpt lat="48.7227300" lon="13.5865530">
        <ele>509.2</ele>
        <time>2019-08-15T09:40:18Z</time>
      </trkpt>
      <trkpt lat="48.7227190" lon="13.5866020">
        <ele>509.4</ele>
        <time>2019-08-15T09:40:19Z</time>
      </trkpt>
      <trkpt lat="48.7227090" lon="13.5866480">
        <ele>509.6</ele>
        <time>2019-08-15T09:40:20Z</time>
      </trkpt>
      <trkpt lat="48.7226980" lon="13.5866960">
        <ele>509.8</ele>
        <time>2019-08-15T09:40:21Z</time>
      </trkpt>
      <trkpt lat="48.7226850" lon="13.5867430">
        <ele>510.0</ele>
        <time>2019-08-15T09:40:22Z</time>
      </trkpt>
      <trkpt lat="48.7226730" lon="13.5867900">
        <ele>510.2</ele>
        <time>2019-08-15T09:40:23Z</time>
      </trkpt>
      <trkpt lat="48.7226610" lon="13.5868360">
        <ele>510.2</ele>
        <time>2019-08-15T09:40:24Z</time>
      </trkpt>
      <trkpt lat="48.7226500" lon="13.5868850">
        <ele>510.4</ele>
        <time>2019-08-15T09:40:25Z</time>
      </trkpt>
      <trkpt lat="48.7226380" lon="13.5869300">
        <ele>510.6</ele>
        <time>2019-08-15T09:40:26Z</time>
      </trkpt>
      <trkpt lat="48.7226280" lon="13.5869780">
        <ele>510.8</ele>
        <time>2019-08-15T09:40:27Z</time>
      </trkpt>
      <trkpt lat="48.7226180" lon="13.5870280">
        <ele>511.0</ele>
        <time>2019-08-15T09:40:28Z</time>
      </trkpt>
      <trkpt lat="48.7226080" lon="13.5870780">
        <ele>511.2</ele>
        <time>2019-08-15T09:40:29Z</time>
      </trkpt>
      <trkpt lat="48.7225990" lon="13.5871270">
        <ele>511.2</ele>
        <time>2019-08-15T09:40:30Z</time>
      </trkpt>
      <trkpt lat="48.7225920" lon="13.5871760">
        <ele>511.4</ele>
        <time>2019-08-15T09:40:31Z</time>
      </trkpt>
      <trkpt lat="48.7225870" lon="13.5872270">
        <ele>511.6</ele>
        <time>2019-08-15T09:40:32Z</time>
      </trkpt>
      <trkpt lat="48.7225810" lon="13.5872770">
        <ele>511.6</ele>
        <time>2019-08-15T09:40:33Z</time>
      </trkpt>
      <trkpt lat="48.7225730" lon="13.5873280">
        <ele>511.8</ele>
        <time>2019-08-15T09:40:34Z</time>
      </trkpt>
      <trkpt lat="48.7225640" lon="13.5873780">
        <ele>512.0</ele>
        <time>2019-08-15T09:40:35Z</time>
      </trkpt>
      <trkpt lat="48.7225540" lon="13.5874300">
        <ele>512.2</ele>
        <time>2019-08-15T09:40:36Z</time>
      </trkpt>
      <trkpt lat="48.7225460" lon="13.5874780">
        <ele>512.2</ele>
        <time>2019-08-15T09:40:37Z</time>
      </trkpt>
      <trkpt lat="48.7225390" lon="13.5875300">
        <ele>512.4</ele>
        <time>2019-08-15T09:40:38Z</time>
      </trkpt>
      <trkpt lat="48.7225340" lon="13.5875830">
        <ele>512.6</ele>
        <time>2019-08-15T09:40:39Z</time>
      </trkpt>
      <trkpt lat="48.7225300" lon="13.5876330">
        <ele>512.8</ele>
        <time>2019-08-15T09:40:40Z</time>
      </trkpt>
      <trkpt lat="48.7225260" lon="13.5876840">
        <ele>512.8</ele>
        <time>2019-08-15T09:40:41Z</time>
      </trkpt>
      <trkpt lat="48.7225220" lon="13.5877360">
        <ele>513.0</ele>
        <time>2019-08-15T09:40:42Z</time>
      </trkpt>
      <trkpt lat="48.7225170" lon="13.5877860">
        <ele>513.2</ele>
        <time>2019-08-15T09:40:43Z</time>
      </trkpt>
      <trkpt lat="48.7225140" lon="13.5878380">
        <ele>513.2</ele>
        <time>2019-08-15T09:40:44Z</time>
      </trkpt>
      <trkpt lat="48.7225090" lon="13.5878890">
        <ele>513.4</ele>
        <time>2019-08-15T09:40:45Z</time>
      </trkpt>
      <trkpt lat="48.7225050" lon="13.5879410">
        <ele>513.6</ele>
        <time>2019-08-15T09:40:46Z</time>
      </trkpt>
      <trkpt lat="48.7225020" lon="13.5879930">
        <ele>513.8</ele>
        <time>2019-08-15T09:40:47Z</time>
      </trkpt>
      <trkpt lat="48.7224990" lon="13.5880440">
        <ele>514.0</ele>
        <time>2019-08-15T09:40:48Z</time>
      </trkpt>
      <trkpt lat="48.7224950" lon="13.5880990">
        <ele>514.2</ele>
        <time>2019-08-15T09:40:49Z</time>
      </trkpt>
      <trkpt lat="48.7224920" lon="13.5881510">
        <ele>514.2</ele>
        <time>2019-08-15T09:40:50Z</time>
      </trkpt>
      <trkpt lat="48.7224900" lon="13.5882040">
        <ele>514.4</ele>
        <time>2019-08-15T09:40:51Z</time>
      </trkpt>
      <trkpt lat="48.7224870" lon="13.5882560">
        <ele>514.6</ele>
        <time>2019-08-15T09:40:52Z</time>
      </trkpt>
      <trkpt lat="48.7224850" lon="13.5883090">
        <ele>514.6</ele>
        <time>2019-08-15T09:40:53Z</time>
      </trkpt>
      <trkpt lat="48.7224820" lon="13.5883610">
        <ele>514.8</ele>
        <time>2019-08-15T09:40:54Z</time>
      </trkpt>
      <trkpt lat="48.7224790" lon="13.5884130">
        <ele>515.0</ele>
        <time>2019-08-15T09:40:55Z</time>
      </trkpt>
      <trkpt lat="48.7224770" lon="13.5884670">
        <ele>515.2</ele>
        <time>2019-08-15T09:40:56Z</time>
      </trkpt>
      <trkpt lat="48.7224740" lon="13.5885210">
        <ele>515.4</ele>
        <time>2019-08-15T09:40:57Z</time>
      </trkpt>
      <trkpt lat="48.7224720" lon="13.5885730">
        <ele>515.4</ele>
        <time>2019-08-15T09:40:58Z</time>
      </trkpt>
      <trkpt lat="48.7224700" lon="13.5886280">
        <ele>515.6</ele>
        <time>2019-08-15T09:40:59Z</time>
      </trkpt>
      <trkpt lat="48.7224670" lon="13.5886770">
        <ele>515.8</ele>
        <time>2019-08-15T09:41:00Z</time>
      </trkpt>
      <trkpt lat="48.7224640" lon="13.5887320">
        <ele>516.0</ele>
        <time>2019-08-15T09:41:01Z</time>
      </trkpt>
      <trkpt lat="48.7224600" lon="13.5887870">
        <ele>516.2</ele>
        <time>2019-08-15T09:41:02Z</time>
      </trkpt>
      <trkpt lat="48.7224590" lon="13.5888400">
        <ele>516.4</ele>
        <time>2019-08-15T09:41:03Z</time>
      </trkpt>
      <trkpt lat="48.7224550" lon="13.5888940">
        <ele>516.4</ele>
        <time>2019-08-15T09:41:04Z</time>
      </trkpt>
      <trkpt lat="48.7224520" lon="13.5889460">
        <ele>516.6</ele>
        <time>2019-08-15T09:41:05Z</time>
      </trkpt>
      <trkpt lat="48.7224490" lon="13.5889990">
        <ele>516.8</ele>
        <time>2019-08-15T09:41:06Z</time>
      </trkpt>
      <trkpt lat="48.7224470" lon="13.5890510">
        <ele>516.8</ele>
        <time>2019-08-15T09:41:07Z</time>
      </trkpt>
      <trkpt lat="48.7224440" lon="13.5891040">
        <ele>517.0</ele>
        <time>2019-08-15T09:41:08Z</time>
      </trkpt>
      <trkpt lat="48.7224390" lon="13.5891580">
        <ele>517.0</ele>
        <time>2019-08-15T09:41:09Z</time>
      </trkpt>
      <trkpt lat="48.7224350" lon="13.5892100">
        <ele>517.2</ele>
        <time>2019-08-15T09:41:10Z</time>
      </trkpt>
      <trkpt lat="48.7224310" lon="13.5892640">
        <ele>517.2</ele>
        <time>2019-08-15T09:41:11Z</time>
      </trkpt>
      <trkpt lat="48.7224270" lon="13.5893190">
        <ele>517.4</ele>
        <time>2019-08-15T09:41:12Z</time>
      </trkpt>
      <trkpt lat="48.7224240" lon="13.5893740">
        <ele>517.4</ele>
        <time>2019-08-15T09:41:13Z</time>
      </trkpt>
      <trkpt lat="48.7224190" lon="13.5894320">
        <ele>517.4</ele>
        <time>2019-08-15T09:41:14Z</time>
      </trkpt>
      <trkpt lat="48.7224150" lon="13.5894900">
        <ele>517.6</ele>
        <time>2019-08-15T09:41:15Z</time>
      </trkpt>
      <trkpt lat="48.7224090" lon="13.5895480">
        <ele>517.6</ele>
        <time>2019-08-15T09:41:16Z</time>
      </trkpt>
      <trkpt lat="48.7224000" lon="13.5896070">
        <ele>517.6</ele>
        <time>2019-08-15T09:41:17Z</time>
      </trkpt>
      <trkpt lat="48.7223860" lon="13.5896670">
        <ele>517.6</ele>
        <time>2019-08-15T09:41:18Z</time>
      </trkpt>
      <trkpt lat="48.7223700" lon="13.5897270">
        <ele>517.6</ele>
        <time>2019-08-15T09:41:19Z</time>
      </trkpt>
      <trkpt lat="48.7223550" lon="13.5897790">
        <ele>517.8</ele>
        <time>2019-08-15T09:41:20Z</time>
      </trkpt>
      <trkpt lat="48.7223400" lon="13.5898280">
        <ele>518.0</ele>
        <time>2019-08-15T09:41:21Z</time>
      </trkpt>
      <trkpt lat="48.7223270" lon="13.5898720">
        <ele>518.2</ele>
        <time>2019-08-15T09:41:22Z</time>
      </trkpt>
      <trkpt lat="48.7223150" lon="13.5899130">
        <ele>518.4</ele>
        <time>2019-08-15T09:41:23Z</time>
      </trkpt>
      <trkpt lat="48.7223030" lon="13.5899550">
        <ele>518.6</ele>
        <time>2019-08-15T09:41:24Z</time>
      </trkpt>
      <trkpt lat="48.7222930" lon="13.5899960">
        <ele>518.8</ele>
        <time>2019-08-15T09:41:25Z</time>
      </trkpt>
      <trkpt lat="48.7222810" lon="13.5900340">
        <ele>519.0</ele>
        <time>2019-08-15T09:41:26Z</time>
      </trkpt>
      <trkpt lat="48.7222720" lon="13.5900690">
        <ele>519.2</ele>
        <time>2019-08-15T09:41:27Z</time>
      </trkpt>
      <trkpt lat="48.7222580" lon="13.5901060">
        <ele>519.4</ele>
        <time>2019-08-15T09:41:28Z</time>
      </trkpt>
      <trkpt lat="48.7222430" lon="13.5901410">
        <ele>519.6</ele>
        <time>2019-08-15T09:41:29Z</time>
      </trkpt>
      <trkpt lat="48.7222300" lon="13.5901760">
        <ele>519.8</ele>
        <time>2019-08-15T09:41:30Z</time>
      </trkpt>
      <trkpt lat="48.7222160" lon="13.5902110">
        <ele>520.0</ele>
        <time>2019-08-15T09:41:31Z</time>
      </trkpt>
      <trkpt lat="48.7222020" lon="13.5902450">
        <ele>520.2</ele>
        <time>2019-08-15T09:41:32Z</time>
      </trkpt>
      <trkpt lat="48.7221870" lon="13.5902780">
        <ele>520.4</ele>
        <time>2019-08-15T09:41:33Z</time>
      </trkpt>
      <trkpt lat="48.7221730" lon="13.5903130">
        <ele>520.6</ele>
        <time>2019-08-15T09:41:34Z</time>
      </trkpt>
      <trkpt lat="48.7221600" lon="13.5903460">
        <ele>520.8</ele>
        <time>2019-08-15T09:41:35Z</time>
      </trkpt>
      <trkpt lat="48.7221450" lon="13.5903800">
        <ele>521.0</ele>
        <time>2019-08-15T09:41:36Z</time>
      </trkpt>
      <trkpt lat="48.7221300" lon="13.5904150">
        <ele>521.2</ele>
        <time>2019-08-15T09:41:37Z</time>
      </trkpt>
      <trkpt lat="48.7221150" lon="13.5904490">
        <ele>521.2</ele>
        <time>2019-08-15T09:41:38Z</time>
      </trkpt>
      <trkpt lat="48.7221000" lon="13.5904840">
        <ele>521.4</ele>
        <time>2019-08-15T09:41:39Z</time>
      </trkpt>
      <trkpt lat="48.7220850" lon="13.5905190">
        <ele>521.6</ele>
        <time>2019-08-15T09:41:40Z</time>
      </trkpt>
      <trkpt lat="48.7220710" lon="13.5905550">
        <ele>521.8</ele>
        <time>2019-08-15T09:41:41Z</time>
      </trkpt>
      <trkpt lat="48.7220570" lon="13.5905870">
        <ele>522.0</ele>
        <time>2019-08-15T09:41:42Z</time>
      </trkpt>
      <trkpt lat="48.7220420" lon="13.5906230">
        <ele>522.0</ele>
        <time>2019-08-15T09:41:43Z</time>
      </trkpt>
      <trkpt lat="48.7220250" lon="13.5906550">
        <ele>522.2</ele>
        <time>2019-08-15T09:41:44Z</time>
      </trkpt>
      <trkpt lat="48.7220110" lon="13.5906880">
        <ele>522.4</ele>
        <time>2019-08-15T09:41:45Z</time>
      </trkpt>
      <trkpt lat="48.7219950" lon="13.5907210">
        <ele>522.6</ele>
        <time>2019-08-15T09:41:46Z</time>
      </trkpt>
      <trkpt lat="48.7219800" lon="13.5907550">
        <ele>522.6</ele>
        <time>2019-08-15T09:41:47Z</time>
      </trkpt>
      <trkpt lat="48.7219650" lon="13.5907880">
        <ele>522.8</ele>
        <time>2019-08-15T09:41:48Z</time>
      </trkpt>
      <trkpt lat="48.7219500" lon="13.5908230">
        <ele>523.0</ele>
        <time>2019-08-15T09:41:49Z</time>
      </trkpt>
      <trkpt lat="48.7219360" lon="13.5908560">
        <ele>523.2</ele>
        <time>2019-08-15T09:41:50Z</time>
      </trkpt>
      <trkpt lat="48.7219200" lon="13.5908910">
        <ele>523.2</ele>
        <time>2019-08-15T09:41:51Z</time>
      </trkpt>
      <trkpt lat="48.7219050" lon="13.5909240">
        <ele>523.4</ele>
        <time>2019-08-15T09:41:52Z</time>
      </trkpt>
      <trkpt lat="48.7218890" lon="13.5909570">
        <ele>523.6</ele>
        <time>2019-08-15T09:41:53Z</time>
      </trkpt>
      <trkpt lat="48.7218710" lon="13.5909910">
        <ele>523.6</ele>
        <time>2019-08-15T09:41:54Z</time>
      </trkpt>
      <trkpt lat="48.7218540" lon="13.5910260">
        <ele>523.8</ele>
        <time>2019-08-15T09:41:55Z</time>
      </trkpt>
      <trkpt lat="48.7218350" lon="13.5910590">
        <ele>524.0</ele>
        <time>2019-08-15T09:41:56Z</time>
      </trkpt>
      <trkpt lat="48.7218170" lon="13.5910920">
        <ele>524.0</ele>
        <time>2019-08-15T09:41:57Z</time>
      </trkpt>
      <trkpt lat="48.7218000" lon="13.5911220">
        <ele>524.2</ele>
        <time>2019-08-15T09:41:58Z</time>
      </trkpt>
      <trkpt lat="48.7217830" lon="13.5911560">
        <ele>524.4</ele>
        <time>2019-08-15T09:41:59Z</time>
      </trkpt>
      <trkpt lat="48.7217660" lon="13.5911870">
        <ele>524.4</ele>
        <time>2019-08-15T09:42:00Z</time>
      </trkpt>
      <trkpt lat="48.7217500" lon="13.5912220">
        <ele>524.6</ele>
        <time>2019-08-15T09:42:01Z</time>
      </trkpt>
      <trkpt lat="48.7217330" lon="13.5912560">
        <ele>524.8</ele>
        <time>2019-08-15T09:42:02Z</time>
      </trkpt>
      <trkpt lat="48.7217170" lon="13.5912900">
        <ele>524.8</ele>
        <time>2019-08-15T09:42:03Z</time>
      </trkpt>
      <trkpt lat="48.7217000" lon="13.5913250">
        <ele>525.0</ele>
        <time>2019-08-15T09:42:04Z</time>
      </trkpt>
      <trkpt lat="48.7216850" lon="13.5913580">
        <ele>525.2</ele>
        <time>2019-08-15T09:42:05Z</time>
      </trkpt>
      <trkpt lat="48.7216680" lon="13.5913940">
        <ele>525.4</ele>
        <time>2019-08-15T09:42:06Z</time>
      </trkpt>
      <trkpt lat="48.7216520" lon="13.5914280">
        <ele>525.4</ele>
        <time>2019-08-15T09:42:07Z</time>
      </trkpt>
      <trkpt lat="48.7216370" lon="13.5914630">
        <ele>525.6</ele>
        <time>2019-08-15T09:42:08Z</time>
      </trkpt>
      <trkpt lat="48.7216220" lon="13.5914980">
        <ele>525.8</ele>
        <time>2019-08-15T09:42:09Z</time>
      </trkpt>
      <trkpt lat="48.7216070" lon="13.5915330">
        <ele>525.8</ele>
        <time>2019-08-15T09:42:10Z</time>
      </trkpt>
      <trkpt lat="48.7215950" lon="13.5915690">
        <ele>526.0</ele>
        <time>2019-08-15T09:42:11Z</time>
      </trkpt>
      <trkpt lat="48.7215830" lon="13.5916080">
        <ele>526.2</ele>
        <time>2019-08-15T09:42:12Z</time>
      </trkpt>
      <trkpt lat="48.7215740" lon="13.5916470">
        <ele>526.4</ele>
        <time>2019-08-15T09:42:13Z</time>
      </trkpt>
      <trkpt lat="48.7215660" lon="13.5916870">
        <ele>526.6</ele>
        <time>2019-08-15T09:42:14Z</time>
      </trkpt>
      <trkpt lat="48.7215610" lon="13.5917290">
        <ele>526.6</ele>
        <time>2019-08-15T09:42:15Z</time>
      </trkpt>
      <trkpt lat="48.7215570" lon="13.5917710">
        <ele>526.8</ele>
        <time>2019-08-15T09:42:16Z</time>
      </trkpt>
      <trkpt lat="48.7215540" lon="13.5918120">
        <ele>527.0</ele>
        <time>2019-08-15T09:42:17Z</time>
      </trkpt>
      <trkpt lat="48.7215500" lon="13.5918540">
        <ele>527.0</ele>
        <time>2019-08-15T09:42:18Z</time>
      </trkpt>
      <trkpt lat="48.7215480" lon="13.5918970">
        <ele>527.2</ele>
        <time>2019-08-15T09:42:19Z</time>
      </trkpt>
      <trkpt lat="48.7215480" lon="13.5919400">
        <ele>527.4</ele>
        <time>2019-08-15T09:42:20Z</time>
      </trkpt>
      <trkpt lat="48.7215500" lon="13.5919810">
        <ele>527.4</ele>
        <time>2019-08-15T09:42:21Z</time>
      </trkpt>
      <trkpt lat="48.7215530" lon="13.5920200">
        <ele>527.6</ele>
        <time>2019-08-15T09:42:22Z</time>
      </trkpt>
      <trkpt lat="48.7215580" lon="13.5920580">
        <ele>527.8</ele>
        <time>2019-08-15T09:42:23Z</time>
      </trkpt>
      <trkpt lat="48.7215630" lon="13.5920960">
        <ele>527.8</ele>
        <time>2019-08-15T09:42:24Z</time>
      </trkpt>
      <trkpt lat="48.7215690" lon="13.5921280">
        <ele>528.0</ele>
        <time>2019-08-15T09:42:25Z</time>
      </trkpt>
      <trkpt lat="48.7215740" lon="13.5921600">
        <ele>528.2</ele>
        <time>2019-08-15T09:42:26Z</time>
      </trkpt>
      <trkpt lat="48.7215820" lon="13.5921910">
        <ele>528.2</ele>
        <time>2019-08-15T09:42:27Z</time>
      </trkpt>
      <trkpt lat="48.7215910" lon="13.5922220">
        <ele>528.4</ele>
        <time>2019-08-15T09:42:28Z</time>
      </trkpt>
      <trkpt lat="48.7216010" lon="13.5922500">
        <ele>528.6</ele>
        <time>2019-08-15T09:42:29Z</time>
      </trkpt>
      <trkpt lat="48.7216090" lon="13.5922770">
        <ele>528.6</ele>
        <time>2019-08-15T09:42:30Z</time>
      </trkpt>
      <trkpt lat="48.7216190" lon="13.5923010">
        <ele>528.8</ele>
        <time>2019-08-15T09:42:31Z</time>
      </trkpt>
      <trkpt lat="48.7216270" lon="13.5923260">
        <ele>528.8</ele>
        <time>2019-08-15T09:42:32Z</time>
      </trkpt>
      <trkpt lat="48.7216370" lon="13.5923540">
        <ele>529.0</ele>
        <time>2019-08-15T09:42:33Z</time>
      </trkpt>
      <trkpt lat="48.7216470" lon="13.5923840">
        <ele>529.0</ele>
        <time>2019-08-15T09:42:34Z</time>
      </trkpt>
      <trkpt lat="48.7216590" lon="13.5924150">
        <ele>529.0</ele>
        <time>2019-08-15T09:42:35Z</time>
      </trkpt>
      <trkpt lat="48.7216690" lon="13.5924500">
        <ele>529.2</ele>
        <time>2019-08-15T09:42:36Z</time>
      </trkpt>
      <trkpt lat="48.7216790" lon="13.5924860">
        <ele>529.2</ele>
        <time>2019-08-15T09:42:37Z</time>
      </trkpt>
      <trkpt lat="48.7216900" lon="13.5925210">
        <ele>529.2</ele>
        <time>2019-08-15T09:42:38Z</time>
      </trkpt>
      <trkpt lat="48.7217030" lon="13.5925540">
        <ele>529.4</ele>
        <time>2019-08-15T09:42:39Z</time>
      </trkpt>
      <trkpt lat="48.7217180" lon="13.5925870">
        <ele>529.4</ele>
        <time>2019-08-15T09:42:40Z</time>
      </trkpt>
      <trkpt lat="48.7217330" lon="13.5926230">
        <ele>529.4</ele>
        <time>2019-08-15T09:42:41Z</time>
      </trkpt>
      <trkpt lat="48.7217450" lon="13.5926580">
        <ele>529.6</ele>
        <time>2019-08-15T09:42:42Z</time>
      </trkpt>
      <trkpt lat="48.7217560" lon="13.5926900">
        <ele>529.6</ele>
        <time>2019-08-15T09:42:43Z</time>
      </trkpt>
      <trkpt lat="48.7217640" lon="13.5927180">
        <ele>529.8</ele>
        <time>2019-08-15T09:42:44Z</time>
      </trkpt>
      <trkpt lat="48.7217740" lon="13.5927420">
        <ele>530.0</ele>
        <time>2019-08-15T09:42:45Z</time>
      </trkpt>
      <trkpt lat="48.7217810" lon="13.5927670">
        <ele>530.2</ele>
        <time>2019-08-15T09:42:46Z</time>
      </trkpt>
      <trkpt lat="48.7217890" lon="13.5927920">
        <ele>530.2</ele>
        <time>2019-08-15T09:42:47Z</time>
      </trkpt>
      <trkpt lat="48.7217960" lon="13.5928160">
        <ele>530.4</ele>
        <time>2019-08-15T09:42:48Z</time>
      </trkpt>
      <trkpt lat="48.7218010" lon="13.5928390">
        <ele>530.4</ele>
        <time>2019-08-15T09:42:49Z</time>
      </trkpt>
      <trkpt lat="48.7218060" lon="13.5928570">
        <ele>530.4</ele>
        <time>2019-08-15T09:42:50Z</time>
      </trkpt>
      <trkpt lat="48.7218140" lon="13.5928760">
        <ele>530.4</ele>
        <time>2019-08-15T09:42:51Z</time>
      </trkpt>
      <trkpt lat="48.7218240" lon="13.5928930">
        <ele>530.6</ele>
        <time>2019-08-15T09:42:52Z</time>
      </trkpt>
      <trkpt lat="48.7218350" lon="13.5929100">
        <ele>530.6</ele>
        <time>2019-08-15T09:42:53Z</time>
      </trkpt>
      <trkpt lat="48.7218490" lon="13.5929250">
        <ele>530.6</ele>
        <time>2019-08-15T09:42:54Z</time>
      </trkpt>
      <trkpt lat="48.7218620" lon="13.5929330">
        <ele>530.6</ele>
        <time>2019-08-15T09:42:55Z</time>
      </trkpt>
      <trkpt lat="48.7218770" lon="13.5929290">
        <ele>530.6</ele>
        <time>2019-08-15T09:42:56Z</time>
      </trkpt>
      <trkpt lat="48.7218830" lon="13.5929120">
        <ele>530.8</ele>
        <time>2019-08-15T09:42:57Z</time>
      </trkpt>
      <trkpt lat="48.7218790" lon="13.5928880">
        <ele>530.8</ele>
        <time>2019-08-15T09:42:58Z</time>
      </trkpt>
      <trkpt lat="48.7218620" lon="13.5928670">
        <ele>530.6</ele>
        <time>2019-08-15T09:42:59Z</time>
      </trkpt>
      <trkpt lat="48.7218390" lon="13.5928590">
        <ele>530.6</ele>
        <time>2019-08-15T09:43:00Z</time>
      </trkpt>
      <trkpt lat="48.7218160" lon="13.5928570">
        <ele>530.8</ele>
        <time>2019-08-15T09:43:01Z</time>
      </trkpt>
      <trkpt lat="48.7217910" lon="13.5928510">
        <ele>530.8</ele>
        <time>2019-08-15T09:43:02Z</time>
      </trkpt>
      <trkpt lat="48.7217680" lon="13.5928410">
        <ele>530.8</ele>
        <time>2019-08-15T09:43:03Z</time>
      </trkpt>
      <trkpt lat="48.7217440" lon="13.5928310">
        <ele>531.0</ele>
        <time>2019-08-15T09:43:04Z</time>
      </trkpt>
      <trkpt lat="48.7217210" lon="13.5928240">
        <ele>531.0</ele>
        <time>2019-08-15T09:43:05Z</time>
      </trkpt>
      <trkpt lat="48.7216960" lon="13.5928200">
        <ele>531.2</ele>
        <time>2019-08-15T09:43:06Z</time>
      </trkpt>
      <trkpt lat="48.7216700" lon="13.5928160">
        <ele>531.2</ele>
        <time>2019-08-15T09:43:07Z</time>
      </trkpt>
      <trkpt lat="48.7216430" lon="13.5928110">
        <ele>531.4</ele>
        <time>2019-08-15T09:43:08Z</time>
      </trkpt>
      <trkpt lat="48.7216180" lon="13.5928040">
        <ele>531.6</ele>
        <time>2019-08-15T09:43:09Z</time>
      </trkpt>
      <trkpt lat="48.7215910" lon="13.5927940">
        <ele>531.6</ele>
        <time>2019-08-15T09:43:10Z</time>
      </trkpt>
      <trkpt lat="48.7215660" lon="13.5927810">
        <ele>531.8</ele>
        <time>2019-08-15T09:43:11Z</time>
      </trkpt>
      <trkpt lat="48.7215410" lon="13.5927680">
        <ele>532.0</ele>
        <time>2019-08-15T09:43:12Z</time>
      </trkpt>
      <trkpt lat="48.7215150" lon="13.5927580">
        <ele>532.0</ele>
        <time>2019-08-15T09:43:13Z</time>
      </trkpt>
      <trkpt lat="48.7214900" lon="13.5927520">
        <ele>532.2</ele>
        <time>2019-08-15T09:43:14Z</time>
      </trkpt>
      <trkpt lat="48.7214630" lon="13.5927490">
        <ele>532.4</ele>
        <time>2019-08-15T09:43:15Z</time>
      </trkpt>
      <trkpt lat="48.7214370" lon="13.5927480">
        <ele>532.6</ele>
        <time>2019-08-15T09:43:16Z</time>
      </trkpt>
      <trkpt lat="48.7214120" lon="13.5927530">
        <ele>532.8</ele>
        <time>2019-08-15T09:43:17Z</time>
      </trkpt>
      <trkpt lat="48.7213860" lon="13.5927590">
        <ele>533.0</ele>
        <time>2019-08-15T09:43:18Z</time>
      </trkpt>
      <trkpt lat="48.7213640" lon="13.5927700">
        <ele>533.0</ele>
        <time>2019-08-15T09:43:19Z</time>
      </trkpt>
      <trkpt lat="48.7213440" lon="13.5927850">
        <ele>533.2</ele>
        <time>2019-08-15T09:43:20Z</time>
      </trkpt>
      <trkpt lat="48.7213300" lon="13.5928050">
        <ele>533.4</ele>
        <time>2019-08-15T09:43:21Z</time>
      </trkpt>
      <trkpt lat="48.7213170" lon="13.5928270">
        <ele>533.6</ele>
        <time>2019-08-15T09:43:22Z</time>
      </trkpt>
      <trkpt lat="48.7213050" lon="13.5928520">
        <ele>533.8</ele>
        <time>2019-08-15T09:43:23Z</time>
      </trkpt>
      <trkpt lat="48.7212960" lon="13.5928800">
        <ele>534.0</ele>
        <time>2019-08-15T09:43:24Z</time>
      </trkpt>
      <trkpt lat="48.7212920" lon="13.5929090">
        <ele>534.2</ele>
        <time>2019-08-15T09:43:25Z</time>
      </trkpt>
      <trkpt lat="48.7212900" lon="13.5929400">
        <ele>534.4</ele>
        <time>2019-08-15T09:43:26Z</time>
      </trkpt>
      <trkpt lat="48.7212900" lon="13.5929710">
        <ele>534.6</ele>
        <time>2019-08-15T09:43:27Z</time>
      </trkpt>
      <trkpt lat="48.7212940" lon="13.5930030">
        <ele>534.8</ele>
        <time>2019-08-15T09:43:28Z</time>
      </trkpt>
      <trkpt lat="48.7213020" lon="13.5930350">
        <ele>534.8</ele>
        <time>2019-08-15T09:43:29Z</time>
      </trkpt>
      <trkpt lat="48.7213120" lon="13.5930650">
        <ele>535.0</ele>
        <time>2019-08-15T09:43:30Z</time>
      </trkpt>
      <trkpt lat="48.7213220" lon="13.5930930">
        <ele>535.2</ele>
        <time>2019-08-15T09:43:31Z</time>
      </trkpt>
      <trkpt lat="48.7213320" lon="13.5931230">
        <ele>535.2</ele>
        <time>2019-08-15T09:43:32Z</time>
      </trkpt>
      <trkpt lat="48.7213420" lon="13.5931500">
        <ele>535.4</ele>
        <time>2019-08-15T09:43:33Z</time>
      </trkpt>
      <trkpt lat="48.7213520" lon="13.5931790">
        <ele>535.6</ele>
        <time>2019-08-15T09:43:34Z</time>
      </trkpt>
      <trkpt lat="48.7213620" lon="13.5932040">
        <ele>535.6</ele>
        <time>2019-08-15T09:43:35Z</time>
      </trkpt>
      <trkpt lat="48.7213710" lon="13.5932260">
        <ele>535.8</ele>
        <time>2019-08-15T09:43:36Z</time>
      </trkpt>
      <trkpt lat="48.7213810" lon="13.5932490">
        <ele>536.0</ele>
        <time>2019-08-15T09:43:37Z</time>
      </trkpt>
      <trkpt lat="48.7213920" lon="13.5932720">
        <ele>536.2</ele>
        <time>2019-08-15T09:43:38Z</time>
      </trkpt>
      <trkpt lat="48.7214020" lon="13.5932940">
        <ele>536.2</ele>
        <time>2019-08-15T09:43:39Z</time>
      </trkpt>
      <trkpt lat="48.7214120" lon="13.5933160">
        <ele>536.4</ele>
        <time>2019-08-15T09:43:40Z</time>
      </trkpt>
      <trkpt lat="48.7214220" lon="13.5933410">
        <ele>536.6</ele>
        <time>2019-08-15T09:43:41Z</time>
      </trkpt>
      <trkpt lat="48.7214310" lon="13.5933690">
        <ele>536.8</ele>
        <time>2019-08-15T09:43:42Z</time>
      </trkpt>
      <trkpt lat="48.7214380" lon="13.5933940">
        <ele>536.8</ele>
        <time>2019-08-15T09:43:43Z</time>
      </trkpt>
      <trkpt lat="48.7214460" lon="13.5934210">
        <ele>537.0</ele>
        <time>2019-08-15T09:43:44Z</time>
      </trkpt>
      <trkpt lat="48.7214540" lon="13.5934490">
        <ele>537.2</ele>
        <time>2019-08-15T09:43:45Z</time>
      </trkpt>
      <trkpt lat="48.7214640" lon="13.5934780">
        <ele>537.4</ele>
        <time>2019-08-15T09:43:46Z</time>
      </trkpt>
      <trkpt lat="48.7214740" lon="13.5935050">
        <ele>537.6</ele>
        <time>2019-08-15T09:43:47Z</time>
      </trkpt>
      <trkpt lat="48.7214820" lon="13.5935290">
        <ele>537.8</ele>
        <time>2019-08-15T09:43:48Z</time>
      </trkpt>
      <trkpt lat="48.7214910" lon="13.5935530">
        <ele>538.0</ele>
        <time>2019-08-15T09:43:49Z</time>
      </trkpt>
      <trkpt lat="48.7214990" lon="13.5935760">
        <ele>538.0</ele>
        <time>2019-08-15T09:43:50Z</time>
      </trkpt>
      <trkpt lat="48.7215100" lon="13.5935990">
        <ele>538.2</ele>
        <time>2019-08-15T09:43:51Z</time>
      </trkpt>
      <trkpt lat="48.7215210" lon="13.5936250">
        <ele>538.4</ele>
        <time>2019-08-15T09:43:52Z</time>
      </trkpt>
      <trkpt lat="48.7215290" lon="13.5936540">
        <ele>538.6</ele>
        <time>2019-08-15T09:43:53Z</time>
      </trkpt>
      <trkpt lat="48.7215370" lon="13.5936820">
        <ele>538.8</ele>
        <time>2019-08-15T09:43:54Z</time>
      </trkpt>
      <trkpt lat="48.7215470" lon="13.5937070">
        <ele>539.0</ele>
        <time>2019-08-15T09:43:55Z</time>
      </trkpt>
      <trkpt lat="48.7215560" lon="13.5937320">
        <ele>539.2</ele>
        <time>2019-08-15T09:43:56Z</time>
      </trkpt>
      <trkpt lat="48.7215660" lon="13.5937570">
        <ele>539.4</ele>
        <time>2019-08-15T09:43:57Z</time>
      </trkpt>
      <trkpt lat="48.7215750" lon="13.5937820">
        <ele>539.6</ele>
        <time>2019-08-15T09:43:58Z</time>
      </trkpt>
      <trkpt lat="48.7215850" lon="13.5938070">
        <ele>539.8</ele>
        <time>2019-08-15T09:43:59Z</time>
      </trkpt>
      <trkpt lat="48.7215960" lon="13.5938270">
        <ele>540.0</ele>
        <time>2019-08-15T09:44:00Z</time>
      </trkpt>
      <trkpt lat="48.7216090" lon="13.5938520">
        <ele>540.2</ele>
        <time>2019-08-15T09:44:01Z</time>
      </trkpt>
      <trkpt lat="48.7216190" lon="13.5938760">
        <ele>540.4</ele>
        <time>2019-08-15T09:44:02Z</time>
      </trkpt>
      <trkpt lat="48.7216320" lon="13.5938990">
        <ele>540.6</ele>
        <time>2019-08-15T09:44:03Z</time>
      </trkpt>
      <trkpt lat="48.7216440" lon="13.5939230">
        <ele>540.8</ele>
        <time>2019-08-15T09:44:04Z</time>
      </trkpt>
      <trkpt lat="48.7216570" lon="13.5939460">
        <ele>541.0</ele>
        <time>2019-08-15T09:44:05Z</time>
      </trkpt>
      <trkpt lat="48.7216690" lon="13.5939670">
        <ele>541.2</ele>
        <time>2019-08-15T09:44:06Z</time>
      </trkpt>
      <trkpt lat="48.7216830" lon="13.5939860">
        <ele>541.4</ele>
        <time>2019-08-15T09:44:07Z</time>
      </trkpt>
      <trkpt lat="48.7216980" lon="13.5940060">
        <ele>541.6</ele>
        <time>2019-08-15T09:44:08Z</time>
      </trkpt>
      <trkpt lat="48.7217100" lon="13.5940270">
        <ele>541.8</ele>
        <time>2019-08-15T09:44:09Z</time>
      </trkpt>
      <trkpt lat="48.7217210" lon="13.5940490">
        <ele>542.0</ele>
        <time>2019-08-15T09:44:10Z</time>
      </trkpt>
      <trkpt lat="48.7217290" lon="13.5940680">
        <ele>542.2</ele>
        <time>2019-08-15T09:44:11Z</time>
      </trkpt>
      <trkpt lat="48.7217390" lon="13.5940880">
        <ele>542.4</ele>
        <time>2019-08-15T09:44:12Z</time>
      </trkpt>
      <trkpt lat="48.7217460" lon="13.5941030">
        <ele>542.6</ele>
        <time>2019-08-15T09:44:13Z</time>
      </trkpt>
      <trkpt lat="48.7217540" lon="13.5941200">
        <ele>542.8</ele>
        <time>2019-08-15T09:44:14Z</time>
      </trkpt>
      <trkpt lat="48.7217640" lon="13.5941350">
        <ele>542.8</ele>
        <time>2019-08-15T09:44:15Z</time>
      </trkpt>
      <trkpt lat="48.7217740" lon="13.5941500">
        <ele>543.0</ele>
        <time>2019-08-15T09:44:16Z</time>
      </trkpt>
      <trkpt lat="48.7217810" lon="13.5941620">
        <ele>543.2</ele>
        <time>2019-08-15T09:44:17Z</time>
      </trkpt>
      <trkpt lat="48.7217880" lon="13.5941770">
        <ele>543.4</ele>
        <time>2019-08-15T09:44:18Z</time>
      </trkpt>
      <trkpt lat="48.7217970" lon="13.5941950">
        <ele>543.6</ele>
        <time>2019-08-15T09:44:19Z</time>
      </trkpt>
      <trkpt lat="48.7218060" lon="13.5942120">
        <ele>543.8</ele>
        <time>2019-08-15T09:44:20Z</time>
      </trkpt>
      <trkpt lat="48.7218130" lon="13.5942220">
        <ele>544.0</ele>
        <time>2019-08-15T09:44:21Z</time>
      </trkpt>
      <trkpt lat="48.7218210" lon="13.5942380">
        <ele>544.2</ele>
        <time>2019-08-15T09:44:22Z</time>
      </trkpt>
      <trkpt lat="48.7218270" lon="13.5942540">
        <ele>544.4</ele>
        <time>2019-08-15T09:44:23Z</time>
      </trkpt>
      <trkpt lat="48.7218360" lon="13.5942730">
        <ele>544.6</ele>
        <time>2019-08-15T09:44:24Z</time>
      </trkpt>
      <trkpt lat="48.7218420" lon="13.5942910">
        <ele>544.8</ele>
        <time>2019-08-15T09:44:25Z</time>
      </trkpt>
      <trkpt lat="48.7218510" lon="13.5943120">
        <ele>545.0</ele>
        <time>2019-08-15T09:44:26Z</time>
      </trkpt>
      <trkpt lat="48.7218600" lon="13.5943310">
        <ele>545.2</ele>
        <time>2019-08-15T09:44:27Z</time>
      </trkpt>
      <trkpt lat="48.7218730" lon="13.5943540">
        <ele>545.4</ele>
        <time>2019-08-15T09:44:28Z</time>
      </trkpt>
      <trkpt lat="48.7218850" lon="13.5943770">
        <ele>545.6</ele>
        <time>2019-08-15T09:44:29Z</time>
      </trkpt>
      <trkpt lat="48.7218940" lon="13.5943980">
        <ele>545.8</ele>
        <time>2019-08-15T09:44:30Z</time>
      </trkpt>
      <trkpt lat="48.7219050" lon="13.5944190">
        <ele>546.0</ele>
        <time>2019-08-15T09:44:31Z</time>
      </trkpt>
      <trkpt lat="48.7219200" lon="13.5944410">
        <ele>546.2</ele>
        <time>2019-08-15T09:44:32Z</time>
      </trkpt>
      <trkpt lat="48.7219320" lon="13.5944620">
        <ele>546.4</ele>
        <time>2019-08-15T09:44:33Z</time>
      </trkpt>
      <trkpt lat="48.7219460" lon="13.5944840">
        <ele>546.6</ele>
        <time>2019-08-15T09:44:34Z</time>
      </trkpt>
      <trkpt lat="48.7219630" lon="13.5945070">
        <ele>546.8</ele>
        <time>2019-08-15T09:44:35Z</time>
      </trkpt>
      <trkpt lat="48.7219790" lon="13.5945300">
        <ele>547.0</ele>
        <time>2019-08-15T09:44:36Z</time>
      </trkpt>
      <trkpt lat="48.7219960" lon="13.5945540">
        <ele>547.2</ele>
        <time>2019-08-15T09:44:37Z</time>
      </trkpt>
      <trkpt lat="48.7220130" lon="13.5945720">
        <ele>547.4</ele>
        <time>2019-08-15T09:44:38Z</time>
      </trkpt>
      <trkpt lat="48.7220290" lon="13.5945890">
        <ele>547.6</ele>
        <time>2019-08-15T09:44:39Z</time>
      </trkpt>
      <trkpt lat="48.7220480" lon="13.5946060">
        <ele>547.8</ele>
        <time>2019-08-15T09:44:40Z</time>
      </trkpt>
      <trkpt lat="48.7220680" lon="13.5946190">
        <ele>548.0</ele>
        <time>2019-08-15T09:44:41Z</time>
      </trkpt>
      <trkpt lat="48.7220870" lon="13.5946290">
        <ele>548.2</ele>
        <time>2019-08-15T09:44:42Z</time>
      </trkpt>
      <trkpt lat="48.7221060" lon="13.5946370">
        <ele>548.4</ele>
        <time>2019-08-15T09:44:43Z</time>
      </trkpt>
      <trkpt lat="48.7221250" lon="13.5946460">
        <ele>548.6</ele>
        <time>2019-08-15T09:44:44Z</time>
      </trkpt>
      <trkpt lat="48.7221410" lon="13.5946530">
        <ele>548.8</ele>
        <time>2019-08-15T09:44:45Z</time>
      </trkpt>
      <trkpt lat="48.7221580" lon="13.5946640">
        <ele>549.0</ele>
        <time>2019-08-15T09:44:46Z</time>
      </trkpt>
      <trkpt lat="48.7221750" lon="13.5946740">
        <ele>549.2</ele>
        <time>2019-08-15T09:44:47Z</time>
      </trkpt>
      <trkpt lat="48.7221930" lon="13.5946820">
        <ele>549.4</ele>
        <time>2019-08-15T09:44:48Z</time>
      </trkpt>
      <trkpt lat="48.7222110" lon="13.5946890">
        <ele>549.6</ele>
        <time>2019-08-15T09:44:49Z</time>
      </trkpt>
      <trkpt lat="48.7222300" lon="13.5946950">
        <ele>549.8</ele>
        <time>2019-08-15T09:44:50Z</time>
      </trkpt>
      <trkpt lat="48.7222480" lon="13.5946980">
        <ele>550.0</ele>
        <time>2019-08-15T09:44:51Z</time>
      </trkpt>
      <trkpt lat="48.7222650" lon="13.5947010">
        <ele>550.2</ele>
        <time>2019-08-15T09:44:52Z</time>
      </trkpt>
      <trkpt lat="48.7222830" lon="13.5947050">
        <ele>550.4</ele>
        <time>2019-08-15T09:44:53Z</time>
      </trkpt>
      <trkpt lat="48.7223010" lon="13.5947090">
        <ele>550.6</ele>
        <time>2019-08-15T09:44:54Z</time>
      </trkpt>
      <trkpt lat="48.7223200" lon="13.5947160">
        <ele>550.8</ele>
        <time>2019-08-15T09:44:55Z</time>
      </trkpt>
      <trkpt lat="48.7223380" lon="13.5947240">
        <ele>551.0</ele>
        <time>2019-08-15T09:44:56Z</time>
      </trkpt>
      <trkpt lat="48.7223550" lon="13.5947310">
        <ele>551.2</ele>
        <time>2019-08-15T09:44:57Z</time>
      </trkpt>
      <trkpt lat="48.7223700" lon="13.5947390">
        <ele>551.4</ele>
        <time>2019-08-15T09:44:58Z</time>
      </trkpt>
      <trkpt lat="48.7223870" lon="13.5947500">
        <ele>551.6</ele>
        <time>2019-08-15T09:44:59Z</time>
      </trkpt>
      <trkpt lat="48.7224020" lon="13.5947620">
        <ele>551.8</ele>
        <time>2019-08-15T09:45:00Z</time>
      </trkpt>
      <trkpt lat="48.7224210" lon="13.5947740">
        <ele>552.0</ele>
        <time>2019-08-15T09:45:01Z</time>
      </trkpt>
      <trkpt lat="48.7224400" lon="13.5947810">
        <ele>552.2</ele>
        <time>2019-08-15T09:45:02Z</time>
      </trkpt>
      <trkpt lat="48.7224590" lon="13.5947900">
        <ele>552.4</ele>
        <time>2019-08-15T09:45:03Z</time>
      </trkpt>
      <trkpt lat="48.7224790" lon="13.5947960">
        <ele>552.6</ele>
        <time>2019-08-15T09:45:04Z</time>
      </trkpt>
      <trkpt lat="48.7224980" lon="13.5948000">
        <ele>552.8</ele>
        <time>2019-08-15T09:45:05Z</time>
      </trkpt>
      <trkpt lat="48.7225170" lon="13.5948030">
        <ele>553.0</ele>
        <time>2019-08-15T09:45:06Z</time>
      </trkpt>
      <trkpt lat="48.7225420" lon="13.5948090">
        <ele>553.2</ele>
        <time>2019-08-15T09:45:07Z</time>
      </trkpt>
      <trkpt lat="48.7225660" lon="13.5948160">
        <ele>553.4</ele>
        <time>2019-08-15T09:45:08Z</time>
      </trkpt>
      <trkpt lat="48.7225910" lon="13.5948270">
        <ele>553.6</ele>
        <time>2019-08-15T09:45:09Z</time>
      </trkpt>
      <trkpt lat="48.7226140" lon="13.5948390">
        <ele>554.0</ele>
        <time>2019-08-15T09:45:10Z</time>
      </trkpt>
      <trkpt lat="48.7226380" lon="13.5948500">
        <ele>554.2</ele>
        <time>2019-08-15T09:45:11Z</time>
      </trkpt>
      <trkpt lat="48.7226650" lon="13.5948610">
        <ele>554.4</ele>
        <time>2019-08-15T09:45:12Z</time>
      </trkpt>
      <trkpt lat="48.7226910" lon="13.5948720">
        <ele>554.6</ele>
        <time>2019-08-15T09:45:13Z</time>
      </trkpt>
      <trkpt lat="48.7227170" lon="13.5948850">
        <ele>555.0</ele>
        <time>2019-08-15T09:45:14Z</time>
      </trkpt>
      <trkpt lat="48.7227420" lon="13.5948960">
        <ele>555.2</ele>
        <time>2019-08-15T09:45:15Z</time>
      </trkpt>
      <trkpt lat="48.7227690" lon="13.5949090">
        <ele>555.4</ele>
        <time>2019-08-15T09:45:16Z</time>
      </trkpt>
      <trkpt lat="48.7227950" lon="13.5949220">
        <ele>555.6</ele>
        <time>2019-08-15T09:45:17Z</time>
      </trkpt>
      <trkpt lat="48.7228220" lon="13.5949370">
        <ele>556.0</ele>
        <time>2019-08-15T09:45:18Z</time>
      </trkpt>
      <trkpt lat="48.7228500" lon="13.5949530">
        <ele>556.2</ele>
        <time>2019-08-15T09:45:19Z</time>
      </trkpt>
      <trkpt lat="48.7228770" lon="13.5949700">
        <ele>556.6</ele>
        <time>2019-08-15T09:45:20Z</time>
      </trkpt>
      <trkpt lat="48.7229020" lon="13.5949900">
        <ele>556.8</ele>
        <time>2019-08-15T09:45:21Z</time>
      </trkpt>
      <trkpt lat="48.7229270" lon="13.5950050">
        <ele>557.0</ele>
        <time>2019-08-15T09:45:22Z</time>
      </trkpt>
      <trkpt lat="48.7229550" lon="13.5950200">
        <ele>557.2</ele>
        <time>2019-08-15T09:45:23Z</time>
      </trkpt>
      <trkpt lat="48.7229810" lon="13.5950380">
        <ele>557.6</ele>
        <time>2019-08-15T09:45:24Z</time>
      </trkpt>
      <trkpt lat="48.7230040" lon="13.5950530">
        <ele>557.8</ele>
        <time>2019-08-15T09:45:25Z</time>
      </trkpt>
      <trkpt lat="48.7230270" lon="13.5950730">
        <ele>558.0</ele>
        <time>2019-08-15T09:45:26Z</time>
      </trkpt>
      <trkpt lat="48.7230510" lon="13.5950940">
        <ele>558.2</ele>
        <time>2019-08-15T09:45:27Z</time>
      </trkpt>
      <trkpt lat="48.7230740" lon="13.5951150">
        <ele>558.6</ele>
        <time>2019-08-15T09:45:28Z</time>
      </trkpt>
      <trkpt lat="48.7230980" lon="13.5951360">
        <ele>558.8</ele>
        <time>2019-08-15T09:45:29Z</time>
      </trkpt>
      <trkpt lat="48.7231220" lon="13.5951550">
        <ele>559.0</ele>
        <time>2019-08-15T09:45:30Z</time>
      </trkpt>
      <trkpt lat="48.7231470" lon="13.5951760">
        <ele>559.2</ele>
        <time>2019-08-15T09:45:31Z</time>
      </trkpt>
      <trkpt lat="48.7231740" lon="13.5951960">
        <ele>559.2</ele>
        <time>2019-08-15T09:45:32Z</time>
      </trkpt>
      <trkpt lat="48.7232030" lon="13.5952170">
        <ele>559.4</ele>
        <time>2019-08-15T09:45:33Z</time>
      </trkpt>
      <trkpt lat="48.7232300" lon="13.5952390">
        <ele>559.6</ele>
        <time>2019-08-15T09:45:34Z</time>
      </trkpt>
      <trkpt lat="48.7232570" lon="13.5952610">
        <ele>559.8</ele>
        <time>2019-08-15T09:45:35Z</time>
      </trkpt>
      <trkpt lat="48.7232850" lon="13.5952810">
        <ele>560.0</ele>
        <time>2019-08-15T09:45:36Z</time>
      </trkpt>
      <trkpt lat="48.7233130" lon="13.5953000">
        <ele>560.2</ele>
        <time>2019-08-15T09:45:37Z</time>
      </trkpt>
      <trkpt lat="48.7233420" lon="13.5953160">
        <ele>560.4</ele>
        <time>2019-08-15T09:45:38Z</time>
      </trkpt>
      <trkpt lat="48.7233720" lon="13.5953320">
        <ele>560.4</ele>
        <time>2019-08-15T09:45:39Z</time>
      </trkpt>
      <trkpt lat="48.7234020" lon="13.5953450">
        <ele>560.6</ele>
        <time>2019-08-15T09:45:40Z</time>
      </trkpt>
      <trkpt lat="48.7234300" lon="13.5953580">
        <ele>560.8</ele>
        <time>2019-08-15T09:45:41Z</time>
      </trkpt>
      <trkpt lat="48.7234590" lon="13.5953700">
        <ele>560.8</ele>
        <time>2019-08-15T09:45:42Z</time>
      </trkpt>
      <trkpt lat="48.7234890" lon="13.5953840">
        <ele>561.0</ele>
        <time>2019-08-15T09:45:43Z</time>
      </trkpt>
      <trkpt lat="48.7235180" lon="13.5953970">
        <ele>561.2</ele>
        <time>2019-08-15T09:45:44Z</time>
      </trkpt>
      <trkpt lat="48.7235460" lon="13.5954100">
        <ele>561.4</ele>
        <time>2019-08-15T09:45:45Z</time>
      </trkpt>
      <trkpt lat="48.7235750" lon="13.5954250">
        <ele>561.6</ele>
        <time>2019-08-15T09:45:46Z</time>
      </trkpt>
      <trkpt lat="48.7236020" lon="13.5954400">
        <ele>561.6</ele>
        <time>2019-08-15T09:45:47Z</time>
      </trkpt>
      <trkpt lat="48.7236290" lon="13.5954550">
        <ele>561.8</ele>
        <time>2019-08-15T09:45:48Z</time>
      </trkpt>
      <trkpt lat="48.7236570" lon="13.5954700">
        <ele>562.0</ele>
        <time>2019-08-15T09:45:49Z</time>
      </trkpt>
      <trkpt lat="48.7236850" lon="13.5954850">
        <ele>562.2</ele>
        <time>2019-08-15T09:45:50Z</time>
      </trkpt>
      <trkpt lat="48.7237140" lon="13.5955020">
        <ele>562.4</ele>
        <time>2019-08-15T09:45:51Z</time>
      </trkpt>
      <trkpt lat="48.7237420" lon="13.5955150">
        <ele>562.6</ele>
        <time>2019-08-15T09:45:52Z</time>
      </trkpt>
      <trkpt lat="48.7237720" lon="13.5955310">
        <ele>562.6</ele>
        <time>2019-08-15T09:45:53Z</time>
      </trkpt>
      <trkpt lat="48.7238020" lon="13.5955470">
        <ele>562.8</ele>
        <time>2019-08-15T09:45:54Z</time>
      </trkpt>
      <trkpt lat="48.7238290" lon="13.5955620">
        <ele>563.0</ele>
        <time>2019-08-15T09:45:55Z</time>
      </trkpt>
      <trkpt lat="48.7238580" lon="13.5955810">
        <ele>563.2</ele>
        <time>2019-08-15T09:45:56Z</time>
      </trkpt>
      <trkpt lat="48.7238860" lon="13.5956010">
        <ele>563.2</ele>
        <time>2019-08-15T09:45:57Z</time>
      </trkpt>
      <trkpt lat="48.7239120" lon="13.5956250">
        <ele>563.4</ele>
        <time>2019-08-15T09:45:58Z</time>
      </trkpt>
      <trkpt lat="48.7239400" lon="13.5956480">
        <ele>563.4</ele>
        <time>2019-08-15T09:45:59Z</time>
      </trkpt>
      <trkpt lat="48.7239690" lon="13.5956680">
        <ele>563.6</ele>
        <time>2019-08-15T09:46:00Z</time>
      </trkpt>
      <trkpt lat="48.7239980" lon="13.5956870">
        <ele>563.6</ele>
        <time>2019-08-15T09:46:01Z</time>
      </trkpt>
      <trkpt lat="48.7240430" lon="13.5957140">
        <ele>563.8</ele>
        <time>2019-08-15T09:46:02Z</time>
      </trkpt>
      <trkpt lat="48.7240580" lon="13.5957230">
        <ele>563.8</ele>
        <time>2019-08-15T09:46:03Z</time>
      </trkpt>
      <trkpt lat="48.7240880" lon="13.5957410">
        <ele>564.0</ele>
        <time>2019-08-15T09:46:04Z</time>
      </trkpt>
      <trkpt lat="48.7241170" lon="13.5957600">
        <ele>564.0</ele>
        <time>2019-08-15T09:46:05Z</time>
      </trkpt>
      <trkpt lat="48.7241470" lon="13.5957750">
        <ele>564.0</ele>
        <time>2019-08-15T09:46:06Z</time>
      </trkpt>
      <trkpt lat="48.7241750" lon="13.5957960">
        <ele>564.2</ele>
        <time>2019-08-15T09:46:07Z</time>
      </trkpt>
      <trkpt lat="48.7242040" lon="13.5958190">
        <ele>564.4</ele>
        <time>2019-08-15T09:46:08Z</time>
      </trkpt>
      <trkpt lat="48.7242310" lon="13.5958440">
        <ele>564.4</ele>
        <time>2019-08-15T09:46:09Z</time>
      </trkpt>
      <trkpt lat="48.7242570" lon="13.5958690">
        <ele>564.6</ele>
        <time>2019-08-15T09:46:10Z</time>
      </trkpt>
      <trkpt lat="48.7242840" lon="13.5958920">
        <ele>564.6</ele>
        <time>2019-08-15T09:46:11Z</time>
      </trkpt>
      <trkpt lat="48.7243090" lon="13.5959140">
        <ele>564.8</ele>
        <time>2019-08-15T09:46:12Z</time>
      </trkpt>
      <trkpt lat="48.7243320" lon="13.5959360">
        <ele>565.0</ele>
        <time>2019-08-15T09:46:13Z</time>
      </trkpt>
      <trkpt lat="48.7243560" lon="13.5959600">
        <ele>565.4</ele>
        <time>2019-08-15T09:46:14Z</time>
      </trkpt>
      <trkpt lat="48.7243760" lon="13.5959870">
        <ele>565.6</ele>
        <time>2019-08-15T09:46:15Z</time>
      </trkpt>
      <trkpt lat="48.7244010" lon="13.5960200">
        <ele>566.0</ele>
        <time>2019-08-15T09:46:16Z</time>
      </trkpt>
      <trkpt lat="48.7244310" lon="13.5960570">
        <ele>566.2</ele>
        <time>2019-08-15T09:46:17Z</time>
      </trkpt>
      <trkpt lat="48.7244620" lon="13.5960960">
        <ele>566.6</ele>
        <time>2019-08-15T09:46:18Z</time>
      </trkpt>
      <trkpt lat="48.7244930" lon="13.5961340">
        <ele>566.8</ele>
        <time>2019-08-15T09:46:19Z</time>
      </trkpt>
      <trkpt lat="48.7245250" lon="13.5961720">
        <ele>567.2</ele>
        <time>2019-08-15T09:46:20Z</time>
      </trkpt>
      <trkpt lat="48.7245550" lon="13.5962140">
        <ele>567.6</ele>
        <time>2019-08-15T09:46:21Z</time>
      </trkpt>
      <trkpt lat="48.7245840" lon="13.5962560">
        <ele>567.8</ele>
        <time>2019-08-15T09:46:22Z</time>
      </trkpt>
      <trkpt lat="48.7246120" lon="13.5962870">
        <ele>568.2</ele>
        <time>2019-08-15T09:46:23Z</time>
      </trkpt>
      <trkpt lat="48.7246370" lon="13.5963140">
        <ele>568.4</ele>
        <time>2019-08-15T09:46:24Z</time>
      </trkpt>
      <trkpt lat="48.7246650" lon="13.5963420">
        <ele>568.8</ele>
        <time>2019-08-15T09:46:25Z</time>
      </trkpt>
      <trkpt lat="48.7246940" lon="13.5963680">
        <ele>569.0</ele>
        <time>2019-08-15T09:46:26Z</time>
      </trkpt>
      <trkpt lat="48.7247220" lon="13.5963950">
        <ele>569.4</ele>
        <time>2019-08-15T09:46:27Z</time>
      </trkpt>
      <trkpt lat="48.7247500" lon="13.5964220">
        <ele>569.6</ele>
        <time>2019-08-15T09:46:28Z</time>
      </trkpt>
      <trkpt lat="48.7247760" lon="13.5964480">
        <ele>569.8</ele>
        <time>2019-08-15T09:46:29Z</time>
      </trkpt>
      <trkpt lat="48.7248040" lon="13.5964770">
        <ele>569.8</ele>
        <time>2019-08-15T09:46:30Z</time>
      </trkpt>
      <trkpt lat="48.7248330" lon="13.5965050">
        <ele>570.0</ele>
        <time>2019-08-15T09:46:31Z</time>
      </trkpt>
      <trkpt lat="48.7248650" lon="13.5965320">
        <ele>570.0</ele>
        <time>2019-08-15T09:46:32Z</time>
      </trkpt>
      <trkpt lat="48.7248970" lon="13.5965570">
        <ele>570.2</ele>
        <time>2019-08-15T09:46:33Z</time>
      </trkpt>
      <trkpt lat="48.7249340" lon="13.5965810">
        <ele>570.2</ele>
        <time>2019-08-15T09:46:34Z</time>
      </trkpt>
      <trkpt lat="48.7249710" lon="13.5966050">
        <ele>570.4</ele>
        <time>2019-08-15T09:46:35Z</time>
      </trkpt>
      <trkpt lat="48.7250070" lon="13.5966320">
        <ele>570.4</ele>
        <time>2019-08-15T09:46:36Z</time>
      </trkpt>
      <trkpt lat="48.7250450" lon="13.5966600">
        <ele>570.6</ele>
        <time>2019-08-15T09:46:37Z</time>
      </trkpt>
      <trkpt lat="48.7250840" lon="13.5966870">
        <ele>570.6</ele>
        <time>2019-08-15T09:46:38Z</time>
      </trkpt>
      <trkpt lat="48.7251220" lon="13.5967130">
        <ele>570.8</ele>
        <time>2019-08-15T09:46:39Z</time>
      </trkpt>
      <trkpt lat="48.7251620" lon="13.5967390">
        <ele>570.8</ele>
        <time>2019-08-15T09:46:40Z</time>
      </trkpt>
      <trkpt lat="48.7252040" lon="13.5967670">
        <ele>570.8</ele>
        <time>2019-08-15T09:46:41Z</time>
      </trkpt>
      <trkpt lat="48.7252460" lon="13.5967950">
        <ele>570.8</ele>
        <time>2019-08-15T09:46:42Z</time>
      </trkpt>
      <trkpt lat="48.7252840" lon="13.5968280">
        <ele>570.8</ele>
        <time>2019-08-15T09:46:43Z</time>
      </trkpt>
      <trkpt lat="48.7253220" lon="13.5968640">
        <ele>571.0</ele>
        <time>2019-08-15T09:46:44Z</time>
      </trkpt>
      <trkpt lat="48.7253590" lon="13.5969030">
        <ele>571.0</ele>
        <time>2019-08-15T09:46:45Z</time>
      </trkpt>
      <trkpt lat="48.7253960" lon="13.5969430">
        <ele>571.0</ele>
        <time>2019-08-15T09:46:46Z</time>
      </trkpt>
      <trkpt lat="48.7254330" lon="13.5969860">
        <ele>571.2</ele>
        <time>2019-08-15T09:46:47Z</time>
      </trkpt>
      <trkpt lat="48.7254710" lon="13.5970250">
        <ele>571.2</ele>
        <time>2019-08-15T09:46:48Z</time>
      </trkpt>
      <trkpt lat="48.7255090" lon="13.5970700">
        <ele>571.4</ele>
        <time>2019-08-15T09:46:49Z</time>
      </trkpt>
      <trkpt lat="48.7255460" lon="13.5971120">
        <ele>571.6</ele>
        <time>2019-08-15T09:46:50Z</time>
      </trkpt>
      <trkpt lat="48.7255800" lon="13.5971550">
        <ele>571.8</ele>
        <time>2019-08-15T09:46:51Z</time>
      </trkpt>
      <trkpt lat="48.7256130" lon="13.5972000">
        <ele>572.0</ele>
        <time>2019-08-15T09:46:52Z</time>
      </trkpt>
      <trkpt lat="48.7256460" lon="13.5972430">
        <ele>572.0</ele>
        <time>2019-08-15T09:46:53Z</time>
      </trkpt>
      <trkpt lat="48.7256790" lon="13.5972860">
        <ele>572.2</ele>
        <time>2019-08-15T09:46:54Z</time>
      </trkpt>
      <trkpt lat="48.7257120" lon="13.5973310">
        <ele>572.2</ele>
        <time>2019-08-15T09:46:55Z</time>
      </trkpt>
      <trkpt lat="48.7257450" lon="13.5973750">
        <ele>572.2</ele>
        <time>2019-08-15T09:46:56Z</time>
      </trkpt>
      <trkpt lat="48.7257810" lon="13.5974210">
        <ele>572.4</ele>
        <time>2019-08-15T09:46:57Z</time>
      </trkpt>
      <trkpt lat="48.7258150" lon="13.5974640">
        <ele>572.4</ele>
        <time>2019-08-15T09:46:58Z</time>
      </trkpt>
      <trkpt lat="48.7258490" lon="13.5975070">
        <ele>572.4</ele>
        <time>2019-08-15T09:46:59Z</time>
      </trkpt>
      <trkpt lat="48.7258860" lon="13.5975470">
        <ele>572.6</ele>
        <time>2019-08-15T09:47:00Z</time>
      </trkpt>
      <trkpt lat="48.7259220" lon="13.5975870">
        <ele>572.6</ele>
        <time>2019-08-15T09:47:01Z</time>
      </trkpt>
      <trkpt lat="48.7259610" lon="13.5976270">
        <ele>572.8</ele>
        <time>2019-08-15T09:47:02Z</time>
      </trkpt>
      <trkpt lat="48.7259990" lon="13.5976660">
        <ele>572.8</ele>
        <time>2019-08-15T09:47:03Z</time>
      </trkpt>
      <trkpt lat="48.7260370" lon="13.5977040">
        <ele>572.8</ele>
        <time>2019-08-15T09:47:04Z</time>
      </trkpt>
      <trkpt lat="48.7260730" lon="13.5977420">
        <ele>573.0</ele>
        <time>2019-08-15T09:47:05Z</time>
      </trkpt>
      <trkpt lat="48.7261110" lon="13.5977810">
        <ele>573.0</ele>
        <time>2019-08-15T09:47:06Z</time>
      </trkpt>
      <trkpt lat="48.7261490" lon="13.5978210">
        <ele>573.2</ele>
        <time>2019-08-15T09:47:07Z</time>
      </trkpt>
      <trkpt lat="48.7261860" lon="13.5978580">
        <ele>573.4</ele>
        <time>2019-08-15T09:47:08Z</time>
      </trkpt>
      <trkpt lat="48.7262210" lon="13.5978960">
        <ele>573.4</ele>
        <time>2019-08-15T09:47:09Z</time>
      </trkpt>
      <trkpt lat="48.7262560" lon="13.5979360">
        <ele>573.6</ele>
        <time>2019-08-15T09:47:10Z</time>
      </trkpt>
      <trkpt lat="48.7262910" lon="13.5979750">
        <ele>573.8</ele>
        <time>2019-08-15T09:47:11Z</time>
      </trkpt>
      <trkpt lat="48.7263260" lon="13.5980140">
        <ele>574.0</ele>
        <time>2019-08-15T09:47:12Z</time>
      </trkpt>
      <trkpt lat="48.7263630" lon="13.5980530">
        <ele>574.0</ele>
        <time>2019-08-15T09:47:13Z</time>
      </trkpt>
      <trkpt lat="48.7263980" lon="13.5980920">
        <ele>574.2</ele>
        <time>2019-08-15T09:47:14Z</time>
      </trkpt>
      <trkpt lat="48.7264340" lon="13.5981320">
        <ele>574.4</ele>
        <time>2019-08-15T09:47:15Z</time>
      </trkpt>
      <trkpt lat="48.7264730" lon="13.5981710">
        <ele>574.6</ele>
        <time>2019-08-15T09:47:16Z</time>
      </trkpt>
      <trkpt lat="48.7265090" lon="13.5982070">
        <ele>574.6</ele>
        <time>2019-08-15T09:47:17Z</time>
      </trkpt>
      <trkpt lat="48.7265470" lon="13.5982450">
        <ele>574.8</ele>
        <time>2019-08-15T09:47:18Z</time>
      </trkpt>
      <trkpt lat="48.7265860" lon="13.5982850">
        <ele>575.0</ele>
        <time>2019-08-15T09:47:19Z</time>
      </trkpt>
      <trkpt lat="48.7266230" lon="13.5983270">
        <ele>575.2</ele>
        <time>2019-08-15T09:47:20Z</time>
      </trkpt>
      <trkpt lat="48.7266590" lon="13.5983690">
        <ele>575.4</ele>
        <time>2019-08-15T09:47:21Z</time>
      </trkpt>
      <trkpt lat="48.7266940" lon="13.5984110">
        <ele>575.6</ele>
        <time>2019-08-15T09:47:22Z</time>
      </trkpt>
      <trkpt lat="48.7267300" lon="13.5984520">
        <ele>575.8</ele>
        <time>2019-08-15T09:47:23Z</time>
      </trkpt>
      <trkpt lat="48.7267660" lon="13.5984890">
        <ele>576.0</ele>
        <time>2019-08-15T09:47:24Z</time>
      </trkpt>
      <trkpt lat="48.7268030" lon="13.5985260">
        <ele>576.2</ele>
        <time>2019-08-15T09:47:25Z</time>
      </trkpt>
      <trkpt lat="48.7268390" lon="13.5985640">
        <ele>576.4</ele>
        <time>2019-08-15T09:47:26Z</time>
      </trkpt>
      <trkpt lat="48.7268750" lon="13.5985970">
        <ele>576.6</ele>
        <time>2019-08-15T09:47:27Z</time>
      </trkpt>
      <trkpt lat="48.7269090" lon="13.5986310">
        <ele>576.8</ele>
        <time>2019-08-15T09:47:28Z</time>
      </trkpt>
      <trkpt lat="48.7269450" lon="13.5986710">
        <ele>577.0</ele>
        <time>2019-08-15T09:47:29Z</time>
      </trkpt>
      <trkpt lat="48.7269770" lon="13.5987080">
        <ele>577.0</ele>
        <time>2019-08-15T09:47:30Z</time>
      </trkpt>
      <trkpt lat="48.7270110" lon="13.5987430">
        <ele>577.2</ele>
        <time>2019-08-15T09:47:31Z</time>
      </trkpt>
      <trkpt lat="48.7270460" lon="13.5987740">
        <ele>577.4</ele>
        <time>2019-08-15T09:47:32Z</time>
      </trkpt>
      <trkpt lat="48.7270780" lon="13.5988070">
        <ele>577.6</ele>
        <time>2019-08-15T09:47:33Z</time>
      </trkpt>
      <trkpt lat="48.7271120" lon="13.5988350">
        <ele>577.8</ele>
        <time>2019-08-15T09:47:34Z</time>
      </trkpt>
      <trkpt lat="48.7271450" lon="13.5988610">
        <ele>578.0</ele>
        <time>2019-08-15T09:47:35Z</time>
      </trkpt>
      <trkpt lat="48.7271820" lon="13.5988910">
        <ele>578.2</ele>
        <time>2019-08-15T09:47:36Z</time>
      </trkpt>
      <trkpt lat="48.7272210" lon="13.5989220">
        <ele>578.4</ele>
        <time>2019-08-15T09:47:37Z</time>
      </trkpt>
      <trkpt lat="48.7272580" lon="13.5989530">
        <ele>578.4</ele>
        <time>2019-08-15T09:47:38Z</time>
      </trkpt>
      <trkpt lat="48.7272950" lon="13.5989850">
        <ele>578.8</ele>
        <time>2019-08-15T09:47:39Z</time>
      </trkpt>
      <trkpt lat="48.7273330" lon="13.5990200">
        <ele>579.0</ele>
        <time>2019-08-15T09:47:40Z</time>
      </trkpt>
      <trkpt lat="48.7273710" lon="13.5990550">
        <ele>579.2</ele>
        <time>2019-08-15T09:47:41Z</time>
      </trkpt>
      <trkpt lat="48.7274070" lon="13.5990910">
        <ele>579.4</ele>
        <time>2019-08-15T09:47:42Z</time>
      </trkpt>
      <trkpt lat="48.7274410" lon="13.5991260">
        <ele>579.6</ele>
        <time>2019-08-15T09:47:43Z</time>
      </trkpt>
      <trkpt lat="48.7274750" lon="13.5991610">
        <ele>580.0</ele>
        <time>2019-08-15T09:47:44Z</time>
      </trkpt>
      <trkpt lat="48.7275020" lon="13.5991960">
        <ele>580.2</ele>
        <time>2019-08-15T09:47:45Z</time>
      </trkpt>
      <trkpt lat="48.7275290" lon="13.5992280">
        <ele>580.4</ele>
        <time>2019-08-15T09:47:46Z</time>
      </trkpt>
      <trkpt lat="48.7275530" lon="13.5992630">
        <ele>580.6</ele>
        <time>2019-08-15T09:47:47Z</time>
      </trkpt>
      <trkpt lat="48.7275770" lon="13.5992990">
        <ele>580.8</ele>
        <time>2019-08-15T09:47:48Z</time>
      </trkpt>
      <trkpt lat="48.7276000" lon="13.5993350">
        <ele>581.0</ele>
        <time>2019-08-15T09:47:49Z</time>
      </trkpt>
      <trkpt lat="48.7276190" lon="13.5993740">
        <ele>581.4</ele>
        <time>2019-08-15T09:47:50Z</time>
      </trkpt>
      <trkpt lat="48.7276350" lon="13.5994150">
        <ele>581.6</ele>
        <time>2019-08-15T09:47:51Z</time>
      </trkpt>
      <trkpt lat="48.7276510" lon="13.5994600">
        <ele>582.0</ele>
        <time>2019-08-15T09:47:52Z</time>
      </trkpt>
      <trkpt lat="48.7276700" lon="13.5995060">
        <ele>582.2</ele>
        <time>2019-08-15T09:47:53Z</time>
      </trkpt>
      <trkpt lat="48.7276880" lon="13.5995520">
        <ele>582.6</ele>
        <time>2019-08-15T09:47:54Z</time>
      </trkpt>
      <trkpt lat="48.7277070" lon="13.5995920">
        <ele>582.8</ele>
        <time>2019-08-15T09:47:55Z</time>
      </trkpt>
      <trkpt lat="48.7277260" lon="13.5996350">
        <ele>583.0</ele>
        <time>2019-08-15T09:47:56Z</time>
      </trkpt>
      <trkpt lat="48.7277460" lon="13.5996770">
        <ele>583.4</ele>
        <time>2019-08-15T09:47:57Z</time>
      </trkpt>
      <trkpt lat="48.7277660" lon="13.5997160">
        <ele>583.6</ele>
        <time>2019-08-15T09:47:58Z</time>
      </trkpt>
      <trkpt lat="48.7277860" lon="13.5997540">
        <ele>583.8</ele>
        <time>2019-08-15T09:47:59Z</time>
      </trkpt>
      <trkpt lat="48.7278050" lon="13.5997880">
        <ele>584.2</ele>
        <time>2019-08-15T09:48:00Z</time>
      </trkpt>
      <trkpt lat="48.7278250" lon="13.5998210">
        <ele>584.4</ele>
        <time>2019-08-15T09:48:01Z</time>
      </trkpt>
      <trkpt lat="48.7278450" lon="13.5998580">
        <ele>584.8</ele>
        <time>2019-08-15T09:48:02Z</time>
      </trkpt>
      <trkpt lat="48.7278650" lon="13.5998950">
        <ele>585.0</ele>
        <time>2019-08-15T09:48:03Z</time>
      </trkpt>
      <trkpt lat="48.7278840" lon="13.5999280">
        <ele>585.2</ele>
        <time>2019-08-15T09:48:04Z</time>
      </trkpt>
      <trkpt lat="48.7279060" lon="13.5999580">
        <ele>585.4</ele>
        <time>2019-08-15T09:48:05Z</time>
      </trkpt>
      <trkpt lat="48.7279290" lon="13.5999900">
        <ele>585.6</ele>
        <time>2019-08-15T09:48:06Z</time>
      </trkpt>
      <trkpt lat="48.7279530" lon="13.6000190">
        <ele>586.0</ele>
        <time>2019-08-15T09:48:07Z</time>
      </trkpt>
      <trkpt lat="48.7279760" lon="13.6000500">
        <ele>586.2</ele>
        <time>2019-08-15T09:48:08Z</time>
      </trkpt>
      <trkpt lat="48.7279980" lon="13.6000820">
        <ele>586.4</ele>
        <time>2019-08-15T09:48:09Z</time>
      </trkpt>
      <trkpt lat="48.7280160" lon="13.6001100">
        <ele>586.4</ele>
        <time>2019-08-15T09:48:10Z</time>
      </trkpt>
      <trkpt lat="48.7280380" lon="13.6001410">
        <ele>586.6</ele>
        <time>2019-08-15T09:48:11Z</time>
      </trkpt>
      <trkpt lat="48.7280580" lon="13.6001710">
        <ele>586.8</ele>
        <time>2019-08-15T09:48:12Z</time>
      </trkpt>
      <trkpt lat="48.7280790" lon="13.6001990">
        <ele>587.0</ele>
        <time>2019-08-15T09:48:13Z</time>
      </trkpt>
      <trkpt lat="48.7281020" lon="13.6002260">
        <ele>587.2</ele>
        <time>2019-08-15T09:48:14Z</time>
      </trkpt>
      <trkpt lat="48.7281260" lon="13.6002490">
        <ele>587.4</ele>
        <time>2019-08-15T09:48:15Z</time>
      </trkpt>
      <trkpt lat="48.7281490" lon="13.6002700">
        <ele>587.6</ele>
        <time>2019-08-15T09:48:16Z</time>
      </trkpt>
      <trkpt lat="48.7281730" lon="13.6002910">
        <ele>587.8</ele>
        <time>2019-08-15T09:48:17Z</time>
      </trkpt>
      <trkpt lat="48.7282020" lon="13.6003130">
        <ele>588.0</ele>
        <time>2019-08-15T09:48:18Z</time>
      </trkpt>
      <trkpt lat="48.7282290" lon="13.6003340">
        <ele>588.0</ele>
        <time>2019-08-15T09:48:19Z</time>
      </trkpt>
      <trkpt lat="48.7282540" lon="13.6003510">
        <ele>588.2</ele>
        <time>2019-08-15T09:48:20Z</time>
      </trkpt>
      <trkpt lat="48.7282800" lon="13.6003720">
        <ele>588.4</ele>
        <time>2019-08-15T09:48:21Z</time>
      </trkpt>
      <trkpt lat="48.7283070" lon="13.6003930">
        <ele>588.6</ele>
        <time>2019-08-15T09:48:22Z</time>
      </trkpt>
      <trkpt lat="48.7283320" lon="13.6004130">
        <ele>588.8</ele>
        <time>2019-08-15T09:48:23Z</time>
      </trkpt>
      <trkpt lat="48.7283570" lon="13.6004310">
        <ele>589.0</ele>
        <time>2019-08-15T09:48:24Z</time>
      </trkpt>
      <trkpt lat="48.7283810" lon="13.6004530">
        <ele>589.2</ele>
        <time>2019-08-15T09:48:25Z</time>
      </trkpt>
      <trkpt lat="48.7284040" lon="13.6004710">
        <ele>589.4</ele>
        <time>2019-08-15T09:48:26Z</time>
      </trkpt>
      <trkpt lat="48.7284270" lon="13.6004870">
        <ele>589.6</ele>
        <time>2019-08-15T09:48:27Z</time>
      </trkpt>
      <trkpt lat="48.7284460" lon="13.6005000">
        <ele>589.8</ele>
        <time>2019-08-15T09:48:28Z</time>
      </trkpt>
      <trkpt lat="48.7284650" lon="13.6005180">
        <ele>590.0</ele>
        <time>2019-08-15T09:48:29Z</time>
      </trkpt>
      <trkpt lat="48.7284820" lon="13.6005380">
        <ele>590.2</ele>
        <time>2019-08-15T09:48:30Z</time>
      </trkpt>
      <trkpt lat="48.7284980" lon="13.6005610">
        <ele>590.4</ele>
        <time>2019-08-15T09:48:31Z</time>
      </trkpt>
      <trkpt lat="48.7285150" lon="13.6005840">
        <ele>590.6</ele>
        <time>2019-08-15T09:48:32Z</time>
      </trkpt>
      <trkpt lat="48.7285300" lon="13.6006050">
        <ele>590.8</ele>
        <time>2019-08-15T09:48:33Z</time>
      </trkpt>
      <trkpt lat="48.7285480" lon="13.6006210">
        <ele>591.0</ele>
        <time>2019-08-15T09:48:34Z</time>
      </trkpt>
      <trkpt lat="48.7285660" lon="13.6006380">
        <ele>591.2</ele>
        <time>2019-08-15T09:48:35Z</time>
      </trkpt>
      <trkpt lat="48.7285860" lon="13.6006530">
        <ele>591.4</ele>
        <time>2019-08-15T09:48:36Z</time>
      </trkpt>
      <trkpt lat="48.7286060" lon="13.6006680">
        <ele>591.6</ele>
        <time>2019-08-15T09:48:37Z</time>
      </trkpt>
      <trkpt lat="48.7286270" lon="13.6006850">
        <ele>591.8</ele>
        <time>2019-08-15T09:48:38Z</time>
      </trkpt>
      <trkpt lat="48.7286480" lon="13.6007010">
        <ele>592.0</ele>
        <time>2019-08-15T09:48:39Z</time>
      </trkpt>
      <trkpt lat="48.7286690" lon="13.6007180">
        <ele>592.2</ele>
        <time>2019-08-15T09:48:40Z</time>
      </trkpt>
      <trkpt lat="48.7286900" lon="13.6007360">
        <ele>592.4</ele>
        <time>2019-08-15T09:48:41Z</time>
      </trkpt>
      <trkpt lat="48.7287100" lon="13.6007470">
        <ele>592.8</ele>
        <time>2019-08-15T09:48:42Z</time>
      </trkpt>
      <trkpt lat="48.7287260" lon="13.6007530">
        <ele>593.0</ele>
        <time>2019-08-15T09:48:43Z</time>
      </trkpt>
      <trkpt lat="48.7287450" lon="13.6007670">
        <ele>593.2</ele>
        <time>2019-08-15T09:48:44Z</time>
      </trkpt>
      <trkpt lat="48.7287610" lon="13.6007830">
        <ele>593.4</ele>
        <time>2019-08-15T09:48:45Z</time>
      </trkpt>
      <trkpt lat="48.7287750" lon="13.6007990">
        <ele>593.8</ele>
        <time>2019-08-15T09:48:46Z</time>
      </trkpt>
      <trkpt lat="48.7287880" lon="13.6008090">
        <ele>594.0</ele>
        <time>2019-08-15T09:48:47Z</time>
      </trkpt>
      <trkpt lat="48.7288060" lon="13.6008190">
        <ele>594.2</ele>
        <time>2019-08-15T09:48:48Z</time>
      </trkpt>
      <trkpt lat="48.7288290" lon="13.6008290">
        <ele>594.4</ele>
        <time>2019-08-15T09:48:49Z</time>
      </trkpt>
      <trkpt lat="48.7288540" lon="13.6008370">
        <ele>594.6</ele>
        <time>2019-08-15T09:48:50Z</time>
      </trkpt>
      <trkpt lat="48.7288740" lon="13.6008460">
        <ele>595.0</ele>
        <time>2019-08-15T09:48:51Z</time>
      </trkpt>
      <trkpt lat="48.7288930" lon="13.6008570">
        <ele>595.2</ele>
        <time>2019-08-15T09:48:52Z</time>
      </trkpt>
      <trkpt lat="48.7289100" lon="13.6008660">
        <ele>595.4</ele>
        <time>2019-08-15T09:48:53Z</time>
      </trkpt>
      <trkpt lat="48.7289260" lon="13.6008740">
        <ele>595.6</ele>
        <time>2019-08-15T09:48:54Z</time>
      </trkpt>
      <trkpt lat="48.7289430" lon="13.6008810">
        <ele>595.8</ele>
        <time>2019-08-15T09:48:55Z</time>
      </trkpt>
      <trkpt lat="48.7289580" lon="13.6008920">
        <ele>596.0</ele>
        <time>2019-08-15T09:48:56Z</time>
      </trkpt>
      <trkpt lat="48.7289720" lon="13.6009040">
        <ele>596.2</ele>
        <time>2019-08-15T09:48:57Z</time>
      </trkpt>
      <trkpt lat="48.7289820" lon="13.6009140">
        <ele>596.4</ele>
        <time>2019-08-15T09:48:58Z</time>
      </trkpt>
      <trkpt lat="48.7289950" lon="13.6009280">
        <ele>596.4</ele>
        <time>2019-08-15T09:48:59Z</time>
      </trkpt>
      <trkpt lat="48.7290100" lon="13.6009420">
        <ele>596.6</ele>
        <time>2019-08-15T09:49:00Z</time>
      </trkpt>
      <trkpt lat="48.7290240" lon="13.6009570">
        <ele>596.6</ele>
        <time>2019-08-15T09:49:01Z</time>
      </trkpt>
      <trkpt lat="48.7290350" lon="13.6009720">
        <ele>596.6</ele>
        <time>2019-08-15T09:49:02Z</time>
      </trkpt>
      <trkpt lat="48.7290460" lon="13.6009930">
        <ele>596.8</ele>
        <time>2019-08-15T09:49:03Z</time>
      </trkpt>
      <trkpt lat="48.7290510" lon="13.6010110">
        <ele>596.8</ele>
        <time>2019-08-15T09:49:04Z</time>
      </trkpt>
      <trkpt lat="48.7290550" lon="13.6010300">
        <ele>596.8</ele>
        <time>2019-08-15T09:49:05Z</time>
      </trkpt>
      <trkpt lat="48.7290550" lon="13.6010480">
        <ele>597.0</ele>
        <time>2019-08-15T09:49:06Z</time>
      </trkpt>
      <trkpt lat="48.7290550" lon="13.6010680">
        <ele>597.2</ele>
        <time>2019-08-15T09:49:07Z</time>
      </trkpt>
      <trkpt lat="48.7290490" lon="13.6010890">
        <ele>597.2</ele>
        <time>2019-08-15T09:49:08Z</time>
      </trkpt>
      <trkpt lat="48.7290380" lon="13.6011150">
        <ele>597.6</ele>
        <time>2019-08-15T09:49:09Z</time>
      </trkpt>
      <trkpt lat="48.7290280" lon="13.6011420">
        <ele>597.8</ele>
        <time>2019-08-15T09:49:10Z</time>
      </trkpt>
      <trkpt lat="48.7290180" lon="13.6011700">
        <ele>598.0</ele>
        <time>2019-08-15T09:49:11Z</time>
      </trkpt>
      <trkpt lat="48.7290090" lon="13.6012000">
        <ele>598.2</ele>
        <time>2019-08-15T09:49:12Z</time>
      </trkpt>
      <trkpt lat="48.7289990" lon="13.6012300">
        <ele>598.4</ele>
        <time>2019-08-15T09:49:13Z</time>
      </trkpt>
      <trkpt lat="48.7289870" lon="13.6012580">
        <ele>598.6</ele>
        <time>2019-08-15T09:49:14Z</time>
      </trkpt>
      <trkpt lat="48.7289760" lon="13.6012870">
        <ele>598.8</ele>
        <time>2019-08-15T09:49:15Z</time>
      </trkpt>
      <trkpt lat="48.7289630" lon="13.6013150">
        <ele>599.0</ele>
        <time>2019-08-15T09:49:16Z</time>
      </trkpt>
      <trkpt lat="48.7289450" lon="13.6013370">
        <ele>599.2</ele>
        <time>2019-08-15T09:49:17Z</time>
      </trkpt>
      <trkpt lat="48.7289280" lon="13.6013580">
        <ele>599.2</ele>
        <time>2019-08-15T09:49:18Z</time>
      </trkpt>
      <trkpt lat="48.7289150" lon="13.6013810">
        <ele>599.4</ele>
        <time>2019-08-15T09:49:19Z</time>
      </trkpt>
      <trkpt lat="48.7289030" lon="13.6014120">
        <ele>599.6</ele>
        <time>2019-08-15T09:49:20Z</time>
      </trkpt>
      <trkpt lat="48.7288910" lon="13.6014460">
        <ele>599.8</ele>
        <time>2019-08-15T09:49:21Z</time>
      </trkpt>
      <trkpt lat="48.7288740" lon="13.6014780">
        <ele>600.0</ele>
        <time>2019-08-15T09:49:22Z</time>
      </trkpt>
      <trkpt lat="48.7288540" lon="13.6015080">
        <ele>600.2</ele>
        <time>2019-08-15T09:49:23Z</time>
      </trkpt>
      <trkpt lat="48.7288370" lon="13.6015370">
        <ele>600.2</ele>
        <time>2019-08-15T09:49:24Z</time>
      </trkpt>
      <trkpt lat="48.7288170" lon="13.6015640">
        <ele>600.4</ele>
        <time>2019-08-15T09:49:25Z</time>
      </trkpt>
      <trkpt lat="48.7287960" lon="13.6015910">
        <ele>600.8</ele>
        <time>2019-08-15T09:49:26Z</time>
      </trkpt>
      <trkpt lat="48.7287730" lon="13.6016150">
        <ele>602.6</ele>
        <time>2019-08-15T09:49:27Z</time>
      </trkpt>
      <trkpt lat="48.7287510" lon="13.6016360">
        <ele>602.4</ele>
        <time>2019-08-15T09:49:28Z</time>
      </trkpt>
      <trkpt lat="48.7287290" lon="13.6016550">
        <ele>602.0</ele>
        <time>2019-08-15T09:49:29Z</time>
      </trkpt>
      <trkpt lat="48.7287060" lon="13.6016770">
        <ele>601.8</ele>
        <time>2019-08-15T09:49:30Z</time>
      </trkpt>
      <trkpt lat="48.7286830" lon="13.6016990">
        <ele>601.4</ele>
        <time>2019-08-15T09:49:31Z</time>
      </trkpt>
      <trkpt lat="48.7286580" lon="13.6017190">
        <ele>601.2</ele>
        <time>2019-08-15T09:49:32Z</time>
      </trkpt>
      <trkpt lat="48.7286360" lon="13.6017410">
        <ele>601.2</ele>
        <time>2019-08-15T09:49:33Z</time>
      </trkpt>
      <trkpt lat="48.7286130" lon="13.6017610">
        <ele>601.0</ele>
        <time>2019-08-15T09:49:34Z</time>
      </trkpt>
      <trkpt lat="48.7285910" lon="13.6017830">
        <ele>601.0</ele>
        <time>2019-08-15T09:49:35Z</time>
      </trkpt>
      <trkpt lat="48.7285700" lon="13.6018000">
        <ele>600.8</ele>
        <time>2019-08-15T09:49:36Z</time>
      </trkpt>
      <trkpt lat="48.7285520" lon="13.6018180">
        <ele>600.8</ele>
        <time>2019-08-15T09:49:37Z</time>
      </trkpt>
      <trkpt lat="48.7285380" lon="13.6018330">
        <ele>600.8</ele>
        <time>2019-08-15T09:49:38Z</time>
      </trkpt>
      <trkpt lat="48.7285300" lon="13.6018530">
        <ele>600.8</ele>
        <time>2019-08-15T09:49:39Z</time>
      </trkpt>
      <trkpt lat="48.7285270" lon="13.6018820">
        <ele>600.8</ele>
        <time>2019-08-15T09:49:40Z</time>
      </trkpt>
      <trkpt lat="48.7285300" lon="13.6019070">
        <ele>601.0</ele>
        <time>2019-08-15T09:49:41Z</time>
      </trkpt>
      <trkpt lat="48.7285420" lon="13.6019340">
        <ele>601.0</ele>
        <time>2019-08-15T09:49:42Z</time>
      </trkpt>
      <trkpt lat="48.7285570" lon="13.6019580">
        <ele>601.0</ele>
        <time>2019-08-15T09:49:43Z</time>
      </trkpt>
      <trkpt lat="48.7285720" lon="13.6019760">
        <ele>601.0</ele>
        <time>2019-08-15T09:49:44Z</time>
      </trkpt>
      <trkpt lat="48.7285870" lon="13.6019870">
        <ele>601.0</ele>
        <time>2019-08-15T09:49:45Z</time>
      </trkpt>
      <trkpt lat="48.7286000" lon="13.6019940">
        <ele>601.0</ele>
        <time>2019-08-15T09:49:46Z</time>
      </trkpt>
      <trkpt lat="48.7286000" lon="13.6019990">
        <ele>601.0</ele>
        <time>2019-08-15T09:49:47Z</time>
      </trkpt>
      <trkpt lat="48.7286010" lon="13.6020030">
        <ele>601.0</ele>
        <time>2019-08-15T09:49:48Z</time>
      </trkpt>
      <trkpt lat="48.7286020" lon="13.6020030">
        <ele>601.0</ele>
        <time>2019-08-15T09:49:49Z</time>
      </trkpt>
      <trkpt lat="48.7286310" lon="13.6020690">
        <ele>601.0</ele>
        <time>2019-08-15T10:11:07Z</time>
      </trkpt>
      <trkpt lat="48.7286200" lon="13.6020430">
        <ele>601.0</ele>
        <time>2019-08-15T10:11:08Z</time>
      </trkpt>
      <trkpt lat="48.7286110" lon="13.6020150">
        <ele>601.0</ele>
        <time>2019-08-15T10:11:09Z</time>
      </trkpt>
      <trkpt lat="48.7286060" lon="13.6019860">
        <ele>601.0</ele>
        <time>2019-08-15T10:11:10Z</time>
      </trkpt>
      <trkpt lat="48.7286050" lon="13.6019600">
        <ele>601.0</ele>
        <time>2019-08-15T10:11:11Z</time>
      </trkpt>
      <trkpt lat="48.7286120" lon="13.6019340">
        <ele>601.0</ele>
        <time>2019-08-15T10:11:12Z</time>
      </trkpt>
      <trkpt lat="48.7286300" lon="13.6019160">
        <ele>600.8</ele>
        <time>2019-08-15T10:11:13Z</time>
      </trkpt>
      <trkpt lat="48.7286510" lon="13.6019000">
        <ele>600.8</ele>
        <time>2019-08-15T10:11:14Z</time>
      </trkpt>
      <trkpt lat="48.7286730" lon="13.6018830">
        <ele>600.8</ele>
        <time>2019-08-15T10:11:15Z</time>
      </trkpt>
      <trkpt lat="48.7286930" lon="13.6018640">
        <ele>600.8</ele>
        <time>2019-08-15T10:11:16Z</time>
      </trkpt>
      <trkpt lat="48.7287140" lon="13.6018440">
        <ele>600.8</ele>
        <time>2019-08-15T10:11:17Z</time>
      </trkpt>
      <trkpt lat="48.7287360" lon="13.6018210">
        <ele>600.8</ele>
        <time>2019-08-15T10:11:18Z</time>
      </trkpt>
      <trkpt lat="48.7287530" lon="13.6018070">
        <ele>600.8</ele>
        <time>2019-08-15T10:11:19Z</time>
      </trkpt>
      <trkpt lat="48.7287670" lon="13.6017870">
        <ele>600.8</ele>
        <time>2019-08-15T10:11:20Z</time>
      </trkpt>
      <trkpt lat="48.7287820" lon="13.6017630">
        <ele>600.8</ele>
        <time>2019-08-15T10:11:21Z</time>
      </trkpt>
      <trkpt lat="48.7287960" lon="13.6017380">
        <ele>600.8</ele>
        <time>2019-08-15T10:11:22Z</time>
      </trkpt>
      <trkpt lat="48.7288150" lon="13.6017110">
        <ele>600.8</ele>
        <time>2019-08-15T10:11:23Z</time>
      </trkpt>
      <trkpt lat="48.7288310" lon="13.6016870">
        <ele>600.6</ele>
        <time>2019-08-15T10:11:24Z</time>
      </trkpt>
      <trkpt lat="48.7288500" lon="13.6016580">
        <ele>600.6</ele>
        <time>2019-08-15T10:11:25Z</time>
      </trkpt>
      <trkpt lat="48.7288690" lon="13.6016290">
        <ele>600.6</ele>
        <time>2019-08-15T10:11:26Z</time>
      </trkpt>
      <trkpt lat="48.7288910" lon="13.6015980">
        <ele>600.6</ele>
        <time>2019-08-15T10:11:27Z</time>
      </trkpt>
      <trkpt lat="48.7289130" lon="13.6015640">
        <ele>600.4</ele>
        <time>2019-08-15T10:11:28Z</time>
      </trkpt>
      <trkpt lat="48.7289370" lon="13.6015260">
        <ele>600.4</ele>
        <time>2019-08-15T10:11:29Z</time>
      </trkpt>
      <trkpt lat="48.7289640" lon="13.6014910">
        <ele>600.2</ele>
        <time>2019-08-15T10:11:30Z</time>
      </trkpt>
      <trkpt lat="48.7289830" lon="13.6014450">
        <ele>600.2</ele>
        <time>2019-08-15T10:11:31Z</time>
      </trkpt>
      <trkpt lat="48.7290030" lon="13.6013960">
        <ele>600.0</ele>
        <time>2019-08-15T10:11:32Z</time>
      </trkpt>
      <trkpt lat="48.7290300" lon="13.6013440">
        <ele>600.0</ele>
        <time>2019-08-15T10:11:33Z</time>
      </trkpt>
      <trkpt lat="48.7290560" lon="13.6012980">
        <ele>599.6</ele>
        <time>2019-08-15T10:11:34Z</time>
      </trkpt>
      <trkpt lat="48.7290790" lon="13.6012520">
        <ele>599.4</ele>
        <time>2019-08-15T10:11:35Z</time>
      </trkpt>
      <trkpt lat="48.7290980" lon="13.6012110">
        <ele>599.2</ele>
        <time>2019-08-15T10:11:36Z</time>
      </trkpt>
      <trkpt lat="48.7291150" lon="13.6011710">
        <ele>599.0</ele>
        <time>2019-08-15T10:11:37Z</time>
      </trkpt>
      <trkpt lat="48.7291300" lon="13.6011260">
        <ele>598.6</ele>
        <time>2019-08-15T10:11:38Z</time>
      </trkpt>
      <trkpt lat="48.7291450" lon="13.6010910">
        <ele>598.4</ele>
        <time>2019-08-15T10:11:39Z</time>
      </trkpt>
      <trkpt lat="48.7291660" lon="13.6010620">
        <ele>598.2</ele>
        <time>2019-08-15T10:11:40Z</time>
      </trkpt>
      <trkpt lat="48.7291910" lon="13.6010420">
        <ele>598.0</ele>
        <time>2019-08-15T10:11:41Z</time>
      </trkpt>
      <trkpt lat="48.7292170" lon="13.6010330">
        <ele>597.6</ele>
        <time>2019-08-15T10:11:42Z</time>
      </trkpt>
      <trkpt lat="48.7292420" lon="13.6010350">
        <ele>597.4</ele>
        <time>2019-08-15T10:11:43Z</time>
      </trkpt>
      <trkpt lat="48.7292700" lon="13.6010370">
        <ele>597.0</ele>
        <time>2019-08-15T10:11:44Z</time>
      </trkpt>
      <trkpt lat="48.7293000" lon="13.6010430">
        <ele>596.8</ele>
        <time>2019-08-15T10:11:45Z</time>
      </trkpt>
      <trkpt lat="48.7293320" lon="13.6010550">
        <ele>596.4</ele>
        <time>2019-08-15T10:11:46Z</time>
      </trkpt>
      <trkpt lat="48.7293600" lon="13.6010700">
        <ele>596.2</ele>
        <time>2019-08-15T10:11:47Z</time>
      </trkpt>
      <trkpt lat="48.7293890" lon="13.6010810">
        <ele>595.8</ele>
        <time>2019-08-15T10:11:48Z</time>
      </trkpt>
      <trkpt lat="48.7294170" lon="13.6010910">
        <ele>595.4</ele>
        <time>2019-08-15T10:11:49Z</time>
      </trkpt>
      <trkpt lat="48.7294400" lon="13.6011020">
        <ele>595.0</ele>
        <time>2019-08-15T10:11:50Z</time>
      </trkpt>
      <trkpt lat="48.7294570" lon="13.6011060">
        <ele>594.8</ele>
        <time>2019-08-15T10:11:51Z</time>
      </trkpt>
      <trkpt lat="48.7294710" lon="13.6011050">
        <ele>594.4</ele>
        <time>2019-08-15T10:11:52Z</time>
      </trkpt>
      <trkpt lat="48.7294840" lon="13.6011020">
        <ele>594.2</ele>
        <time>2019-08-15T10:11:53Z</time>
      </trkpt>
      <trkpt lat="48.7294970" lon="13.6011030">
        <ele>593.8</ele>
        <time>2019-08-15T10:11:54Z</time>
      </trkpt>
      <trkpt lat="48.7295130" lon="13.6011060">
        <ele>593.6</ele>
        <time>2019-08-15T10:11:55Z</time>
      </trkpt>
      <trkpt lat="48.7295300" lon="13.6011110">
        <ele>593.2</ele>
        <time>2019-08-15T10:11:56Z</time>
      </trkpt>
      <trkpt lat="48.7295490" lon="13.6011150">
        <ele>593.0</ele>
        <time>2019-08-15T10:11:57Z</time>
      </trkpt>
      <trkpt lat="48.7295710" lon="13.6011220">
        <ele>592.6</ele>
        <time>2019-08-15T10:11:58Z</time>
      </trkpt>
      <trkpt lat="48.7295960" lon="13.6011310">
        <ele>592.4</ele>
        <time>2019-08-15T10:11:59Z</time>
      </trkpt>
      <trkpt lat="48.7296160" lon="13.6011390">
        <ele>592.2</ele>
        <time>2019-08-15T10:12:00Z</time>
      </trkpt>
      <trkpt lat="48.7296430" lon="13.6011500">
        <ele>591.8</ele>
        <time>2019-08-15T10:12:01Z</time>
      </trkpt>
      <trkpt lat="48.7296690" lon="13.6011610">
        <ele>591.6</ele>
        <time>2019-08-15T10:12:02Z</time>
      </trkpt>
      <trkpt lat="48.7296890" lon="13.6011680">
        <ele>591.4</ele>
        <time>2019-08-15T10:12:03Z</time>
      </trkpt>
      <trkpt lat="48.7297100" lon="13.6011730">
        <ele>591.0</ele>
        <time>2019-08-15T10:12:04Z</time>
      </trkpt>
      <trkpt lat="48.7297290" lon="13.6011760">
        <ele>590.8</ele>
        <time>2019-08-15T10:12:05Z</time>
      </trkpt>
      <trkpt lat="48.7297520" lon="13.6011740">
        <ele>590.6</ele>
        <time>2019-08-15T10:12:06Z</time>
      </trkpt>
      <trkpt lat="48.7297760" lon="13.6011640">
        <ele>590.4</ele>
        <time>2019-08-15T10:12:07Z</time>
      </trkpt>
      <trkpt lat="48.7297950" lon="13.6011480">
        <ele>590.0</ele>
        <time>2019-08-15T10:12:08Z</time>
      </trkpt>
      <trkpt lat="48.7298100" lon="13.6011350">
        <ele>590.0</ele>
        <time>2019-08-15T10:12:09Z</time>
      </trkpt>
      <trkpt lat="48.7298290" lon="13.6011200">
        <ele>589.8</ele>
        <time>2019-08-15T10:12:10Z</time>
      </trkpt>
      <trkpt lat="48.7298480" lon="13.6011090">
        <ele>589.6</ele>
        <time>2019-08-15T10:12:11Z</time>
      </trkpt>
      <trkpt lat="48.7298650" lon="13.6011020">
        <ele>589.4</ele>
        <time>2019-08-15T10:12:12Z</time>
      </trkpt>
      <trkpt lat="48.7298780" lon="13.6010970">
        <ele>589.2</ele>
        <time>2019-08-15T10:12:13Z</time>
      </trkpt>
      <trkpt lat="48.7298930" lon="13.6010950">
        <ele>589.0</ele>
        <time>2019-08-15T10:12:14Z</time>
      </trkpt>
      <trkpt lat="48.7299120" lon="13.6010910">
        <ele>588.8</ele>
        <time>2019-08-15T10:12:15Z</time>
      </trkpt>
      <trkpt lat="48.7299330" lon="13.6010880">
        <ele>588.8</ele>
        <time>2019-08-15T10:12:16Z</time>
      </trkpt>
      <trkpt lat="48.7299530" lon="13.6010930">
        <ele>588.6</ele>
        <time>2019-08-15T10:12:17Z</time>
      </trkpt>
      <trkpt lat="48.7299690" lon="13.6010970">
        <ele>588.4</ele>
        <time>2019-08-15T10:12:18Z</time>
      </trkpt>
      <trkpt lat="48.7299900" lon="13.6011000">
        <ele>588.4</ele>
        <time>2019-08-15T10:12:19Z</time>
      </trkpt>
      <trkpt lat="48.7300090" lon="13.6011000">
        <ele>588.2</ele>
        <time>2019-08-15T10:12:20Z</time>
      </trkpt>
      <trkpt lat="48.7300290" lon="13.6011010">
        <ele>588.2</ele>
        <time>2019-08-15T10:12:21Z</time>
      </trkpt>
      <trkpt lat="48.7300490" lon="13.6011030">
        <ele>588.0</ele>
        <time>2019-08-15T10:12:22Z</time>
      </trkpt>
      <trkpt lat="48.7300650" lon="13.6011050">
        <ele>588.0</ele>
        <time>2019-08-15T10:12:23Z</time>
      </trkpt>
      <trkpt lat="48.7300890" lon="13.6011090">
        <ele>587.8</ele>
        <time>2019-08-15T10:12:24Z</time>
      </trkpt>
      <trkpt lat="48.7301110" lon="13.6011160">
        <ele>587.6</ele>
        <time>2019-08-15T10:12:25Z</time>
      </trkpt>
      <trkpt lat="48.7301330" lon="13.6011210">
        <ele>587.4</ele>
        <time>2019-08-15T10:12:26Z</time>
      </trkpt>
      <trkpt lat="48.7301540" lon="13.6011220">
        <ele>587.2</ele>
        <time>2019-08-15T10:12:27Z</time>
      </trkpt>
      <trkpt lat="48.7301790" lon="13.6011220">
        <ele>587.0</ele>
        <time>2019-08-15T10:12:28Z</time>
      </trkpt>
      <trkpt lat="48.7302040" lon="13.6011220">
        <ele>587.0</ele>
        <time>2019-08-15T10:12:29Z</time>
      </trkpt>
      <trkpt lat="48.7302270" lon="13.6011230">
        <ele>586.8</ele>
        <time>2019-08-15T10:12:30Z</time>
      </trkpt>
      <trkpt lat="48.7302510" lon="13.6011310">
        <ele>586.6</ele>
        <time>2019-08-15T10:12:31Z</time>
      </trkpt>
      <trkpt lat="48.7302720" lon="13.6011390">
        <ele>586.4</ele>
        <time>2019-08-15T10:12:32Z</time>
      </trkpt>
      <trkpt lat="48.7302960" lon="13.6011450">
        <ele>586.4</ele>
        <time>2019-08-15T10:12:33Z</time>
      </trkpt>
      <trkpt lat="48.7303170" lon="13.6011490">
        <ele>586.2</ele>
        <time>2019-08-15T10:12:34Z</time>
      </trkpt>
      <trkpt lat="48.7303360" lon="13.6011530">
        <ele>586.0</ele>
        <time>2019-08-15T10:12:35Z</time>
      </trkpt>
      <trkpt lat="48.7303520" lon="13.6011530">
        <ele>585.8</ele>
        <time>2019-08-15T10:12:36Z</time>
      </trkpt>
      <trkpt lat="48.7303750" lon="13.6011490">
        <ele>585.8</ele>
        <time>2019-08-15T10:12:37Z</time>
      </trkpt>
      <trkpt lat="48.7303950" lon="13.6011440">
        <ele>585.6</ele>
        <time>2019-08-15T10:12:38Z</time>
      </trkpt>
      <trkpt lat="48.7304090" lon="13.6011450">
        <ele>585.4</ele>
        <time>2019-08-15T10:12:39Z</time>
      </trkpt>
      <trkpt lat="48.7304190" lon="13.6011510">
        <ele>585.4</ele>
        <time>2019-08-15T10:12:40Z</time>
      </trkpt>
      <trkpt lat="48.7304260" lon="13.6011620">
        <ele>585.2</ele>
        <time>2019-08-15T10:12:41Z</time>
      </trkpt>
      <trkpt lat="48.7304310" lon="13.6011750">
        <ele>585.0</ele>
        <time>2019-08-15T10:12:42Z</time>
      </trkpt>
      <trkpt lat="48.7304350" lon="13.6011930">
        <ele>585.0</ele>
        <time>2019-08-15T10:12:43Z</time>
      </trkpt>
      <trkpt lat="48.7304440" lon="13.6012190">
        <ele>585.0</ele>
        <time>2019-08-15T10:12:44Z</time>
      </trkpt>
      <trkpt lat="48.7304510" lon="13.6012430">
        <ele>584.8</ele>
        <time>2019-08-15T10:12:45Z</time>
      </trkpt>
      <trkpt lat="48.7304550" lon="13.6012840">
        <ele>584.8</ele>
        <time>2019-08-15T10:12:46Z</time>
      </trkpt>
      <trkpt lat="48.7304540" lon="13.6013210">
        <ele>584.8</ele>
        <time>2019-08-15T10:12:47Z</time>
      </trkpt>
      <trkpt lat="48.7304530" lon="13.6013620">
        <ele>584.6</ele>
        <time>2019-08-15T10:12:48Z</time>
      </trkpt>
      <trkpt lat="48.7304550" lon="13.6014080">
        <ele>584.6</ele>
        <time>2019-08-15T10:12:49Z</time>
      </trkpt>
      <trkpt lat="48.7304600" lon="13.6014510">
        <ele>584.4</ele>
        <time>2019-08-15T10:12:50Z</time>
      </trkpt>
      <trkpt lat="48.7304750" lon="13.6015110">
        <ele>584.4</ele>
        <time>2019-08-15T10:12:51Z</time>
      </trkpt>
      <trkpt lat="48.7304900" lon="13.6015660">
        <ele>584.2</ele>
        <time>2019-08-15T10:12:52Z</time>
      </trkpt>
      <trkpt lat="48.7304970" lon="13.6016130">
        <ele>584.0</ele>
        <time>2019-08-15T10:12:53Z</time>
      </trkpt>
      <trkpt lat="48.7305080" lon="13.6016820">
        <ele>584.0</ele>
        <time>2019-08-15T10:12:54Z</time>
      </trkpt>
      <trkpt lat="48.7305200" lon="13.6017520">
        <ele>583.6</ele>
        <time>2019-08-15T10:12:55Z</time>
      </trkpt>
      <trkpt lat="48.7305290" lon="13.6018130">
        <ele>583.4</ele>
        <time>2019-08-15T10:12:56Z</time>
      </trkpt>
      <trkpt lat="48.7305420" lon="13.6018980">
        <ele>583.2</ele>
        <time>2019-08-15T10:12:57Z</time>
      </trkpt>
      <trkpt lat="48.7305550" lon="13.6019780">
        <ele>583.0</ele>
        <time>2019-08-15T10:12:58Z</time>
      </trkpt>
      <trkpt lat="48.7305580" lon="13.6020410">
        <ele>582.8</ele>
        <time>2019-08-15T10:12:59Z</time>
      </trkpt>
      <trkpt lat="48.7305550" lon="13.6021190">
        <ele>582.6</ele>
        <time>2019-08-15T10:13:00Z</time>
      </trkpt>
      <trkpt lat="48.7305510" lon="13.6021830">
        <ele>582.4</ele>
        <time>2019-08-15T10:13:01Z</time>
      </trkpt>
      <trkpt lat="48.7305460" lon="13.6022650">
        <ele>582.2</ele>
        <time>2019-08-15T10:13:02Z</time>
      </trkpt>
      <trkpt lat="48.7305430" lon="13.6023270">
        <ele>582.0</ele>
        <time>2019-08-15T10:13:03Z</time>
      </trkpt>
      <trkpt lat="48.7305370" lon="13.6023980">
        <ele>581.8</ele>
        <time>2019-08-15T10:13:04Z</time>
      </trkpt>
      <trkpt lat="48.7305310" lon="13.6024540">
        <ele>581.6</ele>
        <time>2019-08-15T10:13:05Z</time>
      </trkpt>
      <trkpt lat="48.7305260" lon="13.6024960">
        <ele>581.4</ele>
        <time>2019-08-15T10:13:06Z</time>
      </trkpt>
      <trkpt lat="48.7305240" lon="13.6025550">
        <ele>581.2</ele>
        <time>2019-08-15T10:13:07Z</time>
      </trkpt>
      <trkpt lat="48.7305160" lon="13.6026030">
        <ele>581.0</ele>
        <time>2019-08-15T10:13:08Z</time>
      </trkpt>
      <trkpt lat="48.7305060" lon="13.6026340">
        <ele>581.0</ele>
        <time>2019-08-15T10:13:09Z</time>
      </trkpt>
      <trkpt lat="48.7304850" lon="13.6026690">
        <ele>580.8</ele>
        <time>2019-08-15T10:13:10Z</time>
      </trkpt>
      <trkpt lat="48.7304600" lon="13.6026930">
        <ele>580.8</ele>
        <time>2019-08-15T10:13:11Z</time>
      </trkpt>
      <trkpt lat="48.7304430" lon="13.6027120">
        <ele>580.8</ele>
        <time>2019-08-15T10:13:12Z</time>
      </trkpt>
      <trkpt lat="48.7304210" lon="13.6027380">
        <ele>580.8</ele>
        <time>2019-08-15T10:13:13Z</time>
      </trkpt>
      <trkpt lat="48.7304020" lon="13.6027650">
        <ele>581.0</ele>
        <time>2019-08-15T10:13:14Z</time>
      </trkpt>
      <trkpt lat="48.7303820" lon="13.6027950">
        <ele>581.0</ele>
        <time>2019-08-15T10:13:15Z</time>
      </trkpt>
      <trkpt lat="48.7303690" lon="13.6028240">
        <ele>581.2</ele>
        <time>2019-08-15T10:13:16Z</time>
      </trkpt>
      <trkpt lat="48.7303530" lon="13.6028610">
        <ele>581.2</ele>
        <time>2019-08-15T10:13:17Z</time>
      </trkpt>
      <trkpt lat="48.7303400" lon="13.6028900">
        <ele>581.4</ele>
        <time>2019-08-15T10:13:18Z</time>
      </trkpt>
      <trkpt lat="48.7303350" lon="13.6029100">
        <ele>581.4</ele>
        <time>2019-08-15T10:13:19Z</time>
      </trkpt>
      <trkpt lat="48.7303340" lon="13.6029310">
        <ele>581.6</ele>
        <time>2019-08-15T10:13:20Z</time>
      </trkpt>
      <trkpt lat="48.7303300" lon="13.6029670">
        <ele>581.6</ele>
        <time>2019-08-15T10:13:21Z</time>
      </trkpt>
      <trkpt lat="48.7303260" lon="13.6030050">
        <ele>581.6</ele>
        <time>2019-08-15T10:13:22Z</time>
      </trkpt>
      <trkpt lat="48.7303160" lon="13.6030460">
        <ele>581.6</ele>
        <time>2019-08-15T10:13:23Z</time>
      </trkpt>
      <trkpt lat="48.7303060" lon="13.6030820">
        <ele>581.6</ele>
        <time>2019-08-15T10:13:24Z</time>
      </trkpt>
      <trkpt lat="48.7302960" lon="13.6031370">
        <ele>581.4</ele>
        <time>2019-08-15T10:13:25Z</time>
      </trkpt>
      <trkpt lat="48.7302830" lon="13.6031880">
        <ele>581.4</ele>
        <time>2019-08-15T10:13:26Z</time>
      </trkpt>
      <trkpt lat="48.7302690" lon="13.6032300">
        <ele>581.4</ele>
        <time>2019-08-15T10:13:27Z</time>
      </trkpt>
      <trkpt lat="48.7302490" lon="13.6032840">
        <ele>581.4</ele>
        <time>2019-08-15T10:13:28Z</time>
      </trkpt>
      <trkpt lat="48.7302270" lon="13.6033310">
        <ele>581.2</ele>
        <time>2019-08-15T10:13:29Z</time>
      </trkpt>
      <trkpt lat="48.7302040" lon="13.6033780">
        <ele>581.2</ele>
        <time>2019-08-15T10:13:30Z</time>
      </trkpt>
      <trkpt lat="48.7301830" lon="13.6034200">
        <ele>581.0</ele>
        <time>2019-08-15T10:13:31Z</time>
      </trkpt>
      <trkpt lat="48.7301520" lon="13.6034790">
        <ele>580.8</ele>
        <time>2019-08-15T10:13:32Z</time>
      </trkpt>
      <trkpt lat="48.7301200" lon="13.6035400">
        <ele>580.6</ele>
        <time>2019-08-15T10:13:33Z</time>
      </trkpt>
      <trkpt lat="48.7300900" lon="13.6035920">
        <ele>580.4</ele>
        <time>2019-08-15T10:13:34Z</time>
      </trkpt>
      <trkpt lat="48.7300560" lon="13.6036600">
        <ele>580.0</ele>
        <time>2019-08-15T10:13:35Z</time>
      </trkpt>
      <trkpt lat="48.7300250" lon="13.6037200">
        <ele>579.6</ele>
        <time>2019-08-15T10:13:36Z</time>
      </trkpt>
      <trkpt lat="48.7299920" lon="13.6037860">
        <ele>579.2</ele>
        <time>2019-08-15T10:13:37Z</time>
      </trkpt>
      <trkpt lat="48.7299470" lon="13.6038760">
        <ele>578.8</ele>
        <time>2019-08-15T10:13:38Z</time>
      </trkpt>
      <trkpt lat="48.7299070" lon="13.6039540">
        <ele>578.2</ele>
        <time>2019-08-15T10:13:39Z</time>
      </trkpt>
      <trkpt lat="48.7298550" lon="13.6040530">
        <ele>577.8</ele>
        <time>2019-08-15T10:13:40Z</time>
      </trkpt>
      <trkpt lat="48.7298130" lon="13.6041290">
        <ele>577.2</ele>
        <time>2019-08-15T10:13:41Z</time>
      </trkpt>
      <trkpt lat="48.7297580" lon="13.6042270">
        <ele>576.6</ele>
        <time>2019-08-15T10:13:42Z</time>
      </trkpt>
      <trkpt lat="48.7297190" lon="13.6043030">
        <ele>576.2</ele>
        <time>2019-08-15T10:13:43Z</time>
      </trkpt>
      <trkpt lat="48.7296690" lon="13.6044040">
        <ele>575.8</ele>
        <time>2019-08-15T10:13:44Z</time>
      </trkpt>
      <trkpt lat="48.7296280" lon="13.6044880">
        <ele>575.2</ele>
        <time>2019-08-15T10:13:45Z</time>
      </trkpt>
      <trkpt lat="48.7295770" lon="13.6045840">
        <ele>574.6</ele>
        <time>2019-08-15T10:13:46Z</time>
      </trkpt>
      <trkpt lat="48.7295170" lon="13.6046940">
        <ele>574.0</ele>
        <time>2019-08-15T10:13:47Z</time>
      </trkpt>
      <trkpt lat="48.7294740" lon="13.6047720">
        <ele>573.6</ele>
        <time>2019-08-15T10:13:48Z</time>
      </trkpt>
      <trkpt lat="48.7294190" lon="13.6048700">
        <ele>573.2</ele>
        <time>2019-08-15T10:13:49Z</time>
      </trkpt>
      <trkpt lat="48.7293620" lon="13.6049780">
        <ele>572.6</ele>
        <time>2019-08-15T10:13:50Z</time>
      </trkpt>
      <trkpt lat="48.7292970" lon="13.6051020">
        <ele>572.2</ele>
        <time>2019-08-15T10:13:51Z</time>
      </trkpt>
      <trkpt lat="48.7292460" lon="13.6052200">
        <ele>571.6</ele>
        <time>2019-08-15T10:13:52Z</time>
      </trkpt>
      <trkpt lat="48.7291890" lon="13.6053610">
        <ele>571.2</ele>
        <time>2019-08-15T10:13:53Z</time>
      </trkpt>
      <trkpt lat="48.7291150" lon="13.6055070">
        <ele>570.8</ele>
        <time>2019-08-15T10:13:54Z</time>
      </trkpt>
      <trkpt lat="48.7290600" lon="13.6056290">
        <ele>570.4</ele>
        <time>2019-08-15T10:13:55Z</time>
      </trkpt>
      <trkpt lat="48.7290080" lon="13.6057400">
        <ele>570.0</ele>
        <time>2019-08-15T10:13:56Z</time>
      </trkpt>
      <trkpt lat="48.7289520" lon="13.6058470">
        <ele>569.6</ele>
        <time>2019-08-15T10:13:57Z</time>
      </trkpt>
      <trkpt lat="48.7289120" lon="13.6059550">
        <ele>569.2</ele>
        <time>2019-08-15T10:13:58Z</time>
      </trkpt>
      <trkpt lat="48.7288890" lon="13.6060790">
        <ele>568.8</ele>
        <time>2019-08-15T10:13:59Z</time>
      </trkpt>
      <trkpt lat="48.7288870" lon="13.6061650">
        <ele>568.4</ele>
        <time>2019-08-15T10:14:00Z</time>
      </trkpt>
      <trkpt lat="48.7288890" lon="13.6062990">
        <ele>568.0</ele>
        <time>2019-08-15T10:14:01Z</time>
      </trkpt>
      <trkpt lat="48.7288910" lon="13.6063980">
        <ele>568.0</ele>
        <time>2019-08-15T10:14:02Z</time>
      </trkpt>
      <trkpt lat="48.7288920" lon="13.6065000">
        <ele>567.8</ele>
        <time>2019-08-15T10:14:03Z</time>
      </trkpt>
      <trkpt lat="48.7288920" lon="13.6066120">
        <ele>567.6</ele>
        <time>2019-08-15T10:14:04Z</time>
      </trkpt>
      <trkpt lat="48.7288880" lon="13.6067010">
        <ele>567.4</ele>
        <time>2019-08-15T10:14:05Z</time>
      </trkpt>
      <trkpt lat="48.7288780" lon="13.6068090">
        <ele>567.2</ele>
        <time>2019-08-15T10:14:06Z</time>
      </trkpt>
      <trkpt lat="48.7288650" lon="13.6068900">
        <ele>567.2</ele>
        <time>2019-08-15T10:14:07Z</time>
      </trkpt>
      <trkpt lat="48.7288500" lon="13.6069770">
        <ele>567.0</ele>
        <time>2019-08-15T10:14:08Z</time>
      </trkpt>
      <trkpt lat="48.7288440" lon="13.6070360">
        <ele>567.0</ele>
        <time>2019-08-15T10:14:09Z</time>
      </trkpt>
      <trkpt lat="48.7288320" lon="13.6071020">
        <ele>567.0</ele>
        <time>2019-08-15T10:14:10Z</time>
      </trkpt>
      <trkpt lat="48.7288140" lon="13.6071310">
        <ele>567.2</ele>
        <time>2019-08-15T10:14:11Z</time>
      </trkpt>
      <trkpt lat="48.7287890" lon="13.6071460">
        <ele>567.2</ele>
        <time>2019-08-15T10:14:12Z</time>
      </trkpt>
      <trkpt lat="48.7287760" lon="13.6071470">
        <ele>567.2</ele>
        <time>2019-08-15T10:14:13Z</time>
      </trkpt>
      <trkpt lat="48.7287740" lon="13.6071470">
        <ele>567.2</ele>
        <time>2019-08-15T10:14:14Z</time>
      </trkpt>
      <trkpt lat="48.7287720" lon="13.6071450">
        <ele>567.4</ele>
        <time>2019-08-15T10:14:15Z</time>
      </trkpt>
      <trkpt lat="48.7287720" lon="13.6071450">
        <ele>567.4</ele>
        <time>2019-08-15T10:14:16Z</time>
      </trkpt>
      <trkpt lat="48.7287720" lon="13.6071450">
        <ele>567.4</ele>
        <time>2019-08-15T10:14:17Z</time>
      </trkpt>
    </trkseg>
  </trk>
</gpx>
